<?xml version='1.0' encoding='UTF-8'?><gpx version="1.1" creator="JPX - https://github.com/jenetics/jpx" xmlns="http://www.topografix.com/GPX/1/1"><trk><trkseg><trkpt lat="42.34118787580721" lon="-3.6999004119464534"><ele>869.0000000000001</ele><time>2026-05-03T07:30:19Z</time></trkpt><trkpt lat="42.34111549942599" lon="-3.6998754114513996"><ele>869.0</ele><time>2026-05-03T07:30:21Z</time></trkpt><trkpt lat="42.341041699351315" lon="-3.6998574745658677"><ele>869.0</ele><time>2026-05-03T07:30:24Z</time></trkpt><trkpt lat="42.340975547175155" lon="-3.699801944697512"><ele>869.0</ele><time>2026-05-03T07:30:40.001Z</time></trkpt><trkpt lat="42.34089382346601" lon="-3.699742174691961"><ele>869.0000000000001</ele><time>2026-05-03T07:30:52.998Z</time></trkpt><trkpt lat="42.3407952273901" lon="-3.699697652026554"><ele>869.0</ele><time>2026-05-03T07:30:54.998Z</time></trkpt><trkpt lat="42.34068259201916" lon="-3.699630136615098"><ele>869.0000000000001</ele><time>2026-05-03T07:30:56.998Z</time></trkpt><trkpt lat="42.34062230076101" lon="-3.6995904038209586"><ele>869.0</ele><time>2026-05-03T07:30:57.998Z</time></trkpt><trkpt lat="42.34056440104568" lon="-3.6995475372582574"><ele>869.0</ele><time>2026-05-03T07:30:58.998Z</time></trkpt><trkpt lat="42.34045009571413" lon="-3.6994769394216727"><ele>869.0</ele><time>2026-05-03T07:31:00.999Z</time></trkpt><trkpt lat="42.34039172183031" lon="-3.699442848609476"><ele>869.0000000000001</ele><time>2026-05-03T07:31:01.999Z</time></trkpt><trkpt lat="42.34032827787703" lon="-3.6994057968283176"><ele>869.0</ele><time>2026-05-03T07:31:02.999Z</time></trkpt><trkpt lat="42.340265765303904" lon="-3.6993692889739282"><ele>867.0000000000001</ele><time>2026-05-03T07:31:03.999Z</time></trkpt><trkpt lat="42.340210771489744" lon="-3.6993155252590397"><ele>865.0</ele><time>2026-05-03T07:31:04.999Z</time></trkpt><trkpt lat="42.340104018864935" lon="-3.6992611297736064"><ele>863.0</ele><time>2026-05-03T07:31:06.999Z</time></trkpt><trkpt lat="42.34001721787467" lon="-3.6992149279041366"><ele>861.0</ele><time>2026-05-03T07:31:08.999Z</time></trkpt><trkpt lat="42.339950876731685" lon="-3.699183258123335"><ele>859.0000000000001</ele><time>2026-05-03T07:31:10.999Z</time></trkpt><trkpt lat="42.33985672038086" lon="-3.6991585616402762"><ele>857.0</ele><time>2026-05-03T07:32:01Z</time></trkpt><trkpt lat="42.33976149909163" lon="-3.699147757624656"><ele>858.1666666666667</ele><time>2026-05-03T07:32:03Z</time></trkpt><trkpt lat="42.33969664354921" lon="-3.6992588539384728"><ele>859.3333333333334</ele><time>2026-05-03T07:32:05Z</time></trkpt><trkpt lat="42.33967444620931" lon="-3.699425889885658"><ele>860.5</ele><time>2026-05-03T07:32:07Z</time></trkpt><trkpt lat="42.33966001866348" lon="-3.6995126660396966"><ele>861.6666666666667</ele><time>2026-05-03T07:32:08Z</time></trkpt><trkpt lat="42.339647426688586" lon="-3.699601068035899"><ele>862.8333333333334</ele><time>2026-05-03T07:32:09Z</time></trkpt><trkpt lat="42.33963641371465" lon="-3.69969075494473"><ele>864.0</ele><time>2026-05-03T07:32:10Z</time></trkpt><trkpt lat="42.33962471421333" lon="-3.6997827149863487"><ele>864.1666666666666</ele><time>2026-05-03T07:32:11Z</time></trkpt><trkpt lat="42.339610237784605" lon="-3.699875468235427"><ele>864.3333333333333</ele><time>2026-05-03T07:32:12Z</time></trkpt><trkpt lat="42.33959545401676" lon="-3.699972500300625"><ele>864.5</ele><time>2026-05-03T07:32:13Z</time></trkpt><trkpt lat="42.33957889962217" lon="-3.7000736240650576"><ele>864.6666666666666</ele><time>2026-05-03T07:32:14Z</time></trkpt><trkpt lat="42.33956175635994" lon="-3.7001761066960297"><ele>864.8333333333333</ele><time>2026-05-03T07:32:15Z</time></trkpt><trkpt lat="42.339546230240025" lon="-3.700280753961436"><ele>865.0</ele><time>2026-05-03T07:32:16Z</time></trkpt><trkpt lat="42.33952790376594" lon="-3.700387186064409"><ele>864.9999999999999</ele><time>2026-05-03T07:32:17Z</time></trkpt><trkpt lat="42.33950813864676" lon="-3.700500613389063"><ele>865.0</ele><time>2026-05-03T07:32:18Z</time></trkpt><trkpt lat="42.3394855407787" lon="-3.7006122950088445"><ele>865.0</ele><time>2026-05-03T07:32:19.001Z</time></trkpt><trkpt lat="42.339465013844084" lon="-3.700725455314062"><ele>865.0</ele><time>2026-05-03T07:32:20.001Z</time></trkpt><trkpt lat="42.339443059352035" lon="-3.7008359571417846"><ele>864.9999999999999</ele><time>2026-05-03T07:32:21.001Z</time></trkpt><trkpt lat="42.33941587005216" lon="-3.7009475101483353"><ele>865.0</ele><time>2026-05-03T07:32:22.001Z</time></trkpt><trkpt lat="42.33938907355314" lon="-3.701059356023326"><ele>864.9999999999999</ele><time>2026-05-03T07:32:23.001Z</time></trkpt><trkpt lat="42.33936626280549" lon="-3.701173985119539"><ele>865.0</ele><time>2026-05-03T07:32:24.001Z</time></trkpt><trkpt lat="42.339348072670276" lon="-3.701290842557365"><ele>865.0</ele><time>2026-05-03T07:32:25.001Z</time></trkpt><trkpt lat="42.339335360603904" lon="-3.7014089547774742"><ele>865.0</ele><time>2026-05-03T07:32:26.001Z</time></trkpt><trkpt lat="42.339314047490916" lon="-3.7015269535977007"><ele>864.9999999999999</ele><time>2026-05-03T07:32:27.001Z</time></trkpt><trkpt lat="42.339294082460775" lon="-3.701647622741301"><ele>865.0</ele><time>2026-05-03T07:32:28.001Z</time></trkpt><trkpt lat="42.33926877128057" lon="-3.701769128122946"><ele>864.9999999999999</ele><time>2026-05-03T07:32:29.001Z</time></trkpt><trkpt lat="42.339256581111464" lon="-3.701888413594036"><ele>865.0</ele><time>2026-05-03T07:32:30.001Z</time></trkpt><trkpt lat="42.33923975087035" lon="-3.70200349102626"><ele>865.0</ele><time>2026-05-03T07:32:31.001Z</time></trkpt><trkpt lat="42.33922662631536" lon="-3.7021124717172733"><ele>865.0</ele><time>2026-05-03T07:32:32.001Z</time></trkpt><trkpt lat="42.33920845684171" lon="-3.7022170646402204"><ele>864.9999999999999</ele><time>2026-05-03T07:32:33.001Z</time></trkpt><trkpt lat="42.339195138325785" lon="-3.7023122693780945"><ele>865.0</ele><time>2026-05-03T07:32:34.001Z</time></trkpt><trkpt lat="42.33918211911494" lon="-3.7024016207897543"><ele>864.6</ele><time>2026-05-03T07:32:35.001Z</time></trkpt><trkpt lat="42.33915999337912" lon="-3.7025427659978214"><ele>864.2</ele><time>2026-05-03T07:32:37.001Z</time></trkpt><trkpt lat="42.33899660928156" lon="-3.7025637021539404"><ele>863.8</ele><time>2026-05-03T07:32:39.001Z</time></trkpt><trkpt lat="42.338932644903004" lon="-3.702541114662409"><ele>863.4</ele><time>2026-05-03T07:32:40.001Z</time></trkpt><trkpt lat="42.33887084861529" lon="-3.7024912270706123"><ele>863.0</ele><time>2026-05-03T07:32:41.001Z</time></trkpt><trkpt lat="42.33880979230382" lon="-3.702435541191888"><ele>863.8</ele><time>2026-05-03T07:32:42.001Z</time></trkpt><trkpt lat="42.338758374339456" lon="-3.702361144643997"><ele>864.5999999999999</ele><time>2026-05-03T07:32:43.001Z</time></trkpt><trkpt lat="42.338613720236374" lon="-3.702274267590029"><ele>865.4000000000001</ele><time>2026-05-03T07:32:45.001Z</time></trkpt><trkpt lat="42.33854399845505" lon="-3.7022233078825897"><ele>866.2</ele><time>2026-05-03T07:32:46.001Z</time></trkpt><trkpt lat="42.33847397278662" lon="-3.7021716010377235"><ele>867.0</ele><time>2026-05-03T07:32:47.001Z</time></trkpt><trkpt lat="42.33840607134032" lon="-3.702121929761236"><ele>867.0</ele><time>2026-05-03T07:32:48.001Z</time></trkpt><trkpt lat="42.33833609448651" lon="-3.7020639955217276"><ele>867.0</ele><time>2026-05-03T07:32:49.001Z</time></trkpt><trkpt lat="42.33826666207283" lon="-3.702010016840263"><ele>867.0</ele><time>2026-05-03T07:32:50.001Z</time></trkpt><trkpt lat="42.338196261218194" lon="-3.7019524318168666"><ele>867.0</ele><time>2026-05-03T07:32:51.001Z</time></trkpt><trkpt lat="42.33812817139227" lon="-3.701890870730365"><ele>867.0</ele><time>2026-05-03T07:32:52.001Z</time></trkpt><trkpt lat="42.33806006340929" lon="-3.701840199938735"><ele>867.0</ele><time>2026-05-03T07:32:53.001Z</time></trkpt><trkpt lat="42.33798925385029" lon="-3.701785046811034"><ele>866.5</ele><time>2026-05-03T07:32:54.001Z</time></trkpt><trkpt lat="42.337919200014056" lon="-3.701731291841147"><ele>866.0</ele><time>2026-05-03T07:32:55.001Z</time></trkpt><trkpt lat="42.337851336551196" lon="-3.701678999607036"><ele>865.5</ele><time>2026-05-03T07:32:56.001Z</time></trkpt><trkpt lat="42.33778528793688" lon="-3.7016207700031614"><ele>865.0</ele><time>2026-05-03T07:32:57.001Z</time></trkpt><trkpt lat="42.337721190451504" lon="-3.70156584705325"><ele>864.5</ele><time>2026-05-03T07:32:58.001Z</time></trkpt><trkpt lat="42.3376585645781" lon="-3.7015084479965203"><ele>864.0</ele><time>2026-05-03T07:32:58.999Z</time></trkpt><trkpt lat="42.33760189886189" lon="-3.7014508920127716"><ele>864.0</ele><time>2026-05-03T07:32:59.999Z</time></trkpt><trkpt lat="42.33753695199974" lon="-3.701410760943697"><ele>864.0</ele><time>2026-05-03T07:33:00.999Z</time></trkpt><trkpt lat="42.33747958483556" lon="-3.7013644378890027"><ele>864.0</ele><time>2026-05-03T07:33:01.999Z</time></trkpt><trkpt lat="42.33738084486504" lon="-3.701303139251736"><ele>864.0</ele><time>2026-05-03T07:33:03.999Z</time></trkpt><trkpt lat="42.33730137438208" lon="-3.701242766483727"><ele>864.0</ele><time>2026-05-03T07:33:34Z</time></trkpt><trkpt lat="42.337224519115196" lon="-3.7011647957163856"><ele>864.0</ele><time>2026-05-03T07:33:37Z</time></trkpt><trkpt lat="42.337144998880476" lon="-3.701098411218154"><ele>864.0</ele><time>2026-05-03T07:33:39Z</time></trkpt><trkpt lat="42.33705808821256" lon="-3.701013534100952"><ele>864.0</ele><time>2026-05-03T07:33:41Z</time></trkpt><trkpt lat="42.336956578310264" lon="-3.700899183214917"><ele>864.0</ele><time>2026-05-03T07:33:43Z</time></trkpt><trkpt lat="42.33689635309317" lon="-3.7008551485749193"><ele>864.0</ele><time>2026-05-03T07:33:44Z</time></trkpt><trkpt lat="42.33683128775717" lon="-3.7008185471490727"><ele>864.0</ele><time>2026-05-03T07:33:45Z</time></trkpt><trkpt lat="42.33676600096458" lon="-3.700784344892796"><ele>864.0</ele><time>2026-05-03T07:33:46Z</time></trkpt><trkpt lat="42.336684469027304" lon="-3.7007817506443286"><ele>864.0</ele><time>2026-05-03T07:33:47Z</time></trkpt><trkpt lat="42.33661613059925" lon="-3.7007431953927203"><ele>864.0</ele><time>2026-05-03T07:33:48Z</time></trkpt><trkpt lat="42.33655444459584" lon="-3.7006860535769395"><ele>864.0</ele><time>2026-05-03T07:33:49Z</time></trkpt><trkpt lat="42.33648769561094" lon="-3.7006659693768644"><ele>864.0</ele><time>2026-05-03T07:33:50Z</time></trkpt><trkpt lat="42.33638702432121" lon="-3.700599972206514"><ele>864.0</ele><time>2026-05-03T07:33:52Z</time></trkpt><trkpt lat="42.33629031687745" lon="-3.700546820856136"><ele>864.0</ele><time>2026-05-03T07:33:54Z</time></trkpt><trkpt lat="42.336186003373705" lon="-3.700487443454404"><ele>863.5</ele><time>2026-05-03T07:33:56Z</time></trkpt><trkpt lat="42.33607504590164" lon="-3.7004404858040174"><ele>863.0</ele><time>2026-05-03T07:33:58.001Z</time></trkpt><trkpt lat="42.335991904147185" lon="-3.700388317324503"><ele>862.5</ele><time>2026-05-03T07:34:00.001Z</time></trkpt><trkpt lat="42.33592003451266" lon="-3.700369937701573"><ele>862.0</ele><time>2026-05-03T07:34:02.001Z</time></trkpt><trkpt lat="42.335856553126405" lon="-3.700316314431579"><ele>861.5</ele><time>2026-05-03T07:34:05.001Z</time></trkpt><trkpt lat="42.33577598371354" lon="-3.700299683952821"><ele>861.0</ele><time>2026-05-03T07:34:50.001Z</time></trkpt><trkpt lat="42.335698953192576" lon="-3.7002624863923037"><ele>861.1666666666666</ele><time>2026-05-03T07:34:52.001Z</time></trkpt><trkpt lat="42.33558188197637" lon="-3.700205953591089"><ele>861.3333333333333</ele><time>2026-05-03T07:34:54.001Z</time></trkpt><trkpt lat="42.33551559281747" lon="-3.7001723316435413"><ele>861.5</ele><time>2026-05-03T07:34:55.001Z</time></trkpt><trkpt lat="42.33545023425623" lon="-3.700140110765018"><ele>861.6666666666666</ele><time>2026-05-03T07:34:56.001Z</time></trkpt><trkpt lat="42.33538304186038" lon="-3.7001075363181646"><ele>861.8333333333333</ele><time>2026-05-03T07:34:57.001Z</time></trkpt><trkpt lat="42.33531301830721" lon="-3.700073597869744"><ele>862.0</ele><time>2026-05-03T07:34:58.001Z</time></trkpt><trkpt lat="42.33524193561351" lon="-3.700038389895853"><ele>862.1666666666666</ele><time>2026-05-03T07:34:59.001Z</time></trkpt><trkpt lat="42.335174143963656" lon="-3.6999818779045888"><ele>862.3333333333333</ele><time>2026-05-03T07:35:00.001Z</time></trkpt><trkpt lat="42.33509518484051" lon="-3.69994979920253"><ele>862.5</ele><time>2026-05-03T07:35:01.001Z</time></trkpt><trkpt lat="42.33501951808749" lon="-3.6999083510377058"><ele>862.6666666666667</ele><time>2026-05-03T07:35:02.001Z</time></trkpt><trkpt lat="42.33494517735825" lon="-3.699865941424088"><ele>862.8333333333334</ele><time>2026-05-03T07:35:03.001Z</time></trkpt><trkpt lat="42.33486394511761" lon="-3.699833226185818"><ele>863.0</ele><time>2026-05-03T07:35:04.002Z</time></trkpt><trkpt lat="42.334784109356406" lon="-3.6997825620358133"><ele>862.8333333333334</ele><time>2026-05-03T07:35:05Z</time></trkpt><trkpt lat="42.33469668497905" lon="-3.6997542359269984"><ele>862.6666666666667</ele><time>2026-05-03T07:35:06Z</time></trkpt><trkpt lat="42.3346188796216" lon="-3.6997097421980327"><ele>862.5</ele><time>2026-05-03T07:35:07Z</time></trkpt><trkpt lat="42.334539349220734" lon="-3.699667488497902"><ele>862.3333333333333</ele><time>2026-05-03T07:35:08Z</time></trkpt><trkpt lat="42.334456061975004" lon="-3.699625205792584"><ele>862.1666666666666</ele><time>2026-05-03T07:35:09Z</time></trkpt><trkpt lat="42.33437683497047" lon="-3.6995797028498734"><ele>862.0</ele><time>2026-05-03T07:35:10Z</time></trkpt><trkpt lat="42.33429309652437" lon="-3.6995446309676985"><ele>861.9999999999999</ele><time>2026-05-03T07:35:11Z</time></trkpt><trkpt lat="42.33421113114204" lon="-3.6995090487098286"><ele>862.0</ele><time>2026-05-03T07:35:12Z</time></trkpt><trkpt lat="42.33413099557118" lon="-3.699469965881564"><ele>862.0</ele><time>2026-05-03T07:35:13Z</time></trkpt><trkpt lat="42.33404543104599" lon="-3.6994470192157607"><ele>862.0</ele><time>2026-05-03T07:35:14Z</time></trkpt><trkpt lat="42.33395841324717" lon="-3.699447069694036"><ele>861.9999999999999</ele><time>2026-05-03T07:35:15Z</time></trkpt><trkpt lat="42.33387747519803" lon="-3.699490908145844"><ele>862.0</ele><time>2026-05-03T07:35:16Z</time></trkpt><trkpt lat="42.333804974683815" lon="-3.6995133855162625"><ele>862.2</ele><time>2026-05-03T07:35:17Z</time></trkpt><trkpt lat="42.33369703683871" lon="-3.6995471070207118"><ele>862.4000000000001</ele><time>2026-05-03T07:35:19Z</time></trkpt><trkpt lat="42.33359930672655" lon="-3.6995775551474153"><ele>862.5999999999999</ele><time>2026-05-03T07:35:21Z</time></trkpt><trkpt lat="42.33348832236468" lon="-3.6996105421419654"><ele>862.8</ele><time>2026-05-03T07:35:23Z</time></trkpt><trkpt lat="42.33348148109087" lon="-3.6997310684208413"><ele>863.0</ele><time>2026-05-03T07:35:24Z</time></trkpt><trkpt lat="42.333429768863375" lon="-3.6997928917510894"><ele>863.0000000000001</ele><time>2026-05-03T07:35:25Z</time></trkpt><trkpt lat="42.3333671804629" lon="-3.699848248330778"><ele>863.0</ele><time>2026-05-03T07:35:26Z</time></trkpt><trkpt lat="42.33327878295886" lon="-3.6998653800863046"><ele>863.0</ele><time>2026-05-03T07:35:27Z</time></trkpt><trkpt lat="42.333189625238234" lon="-3.699807795673884"><ele>863.0</ele><time>2026-05-03T07:35:28Z</time></trkpt><trkpt lat="42.3331407441172" lon="-3.699723567236107"><ele>863.0000000000001</ele><time>2026-05-03T07:35:29Z</time></trkpt><trkpt lat="42.3331228388881" lon="-3.6996293847978565"><ele>863.0</ele><time>2026-05-03T07:35:30Z</time></trkpt><trkpt lat="42.3330700163113" lon="-3.6995731150548"><ele>863.0</ele><time>2026-05-03T07:35:31Z</time></trkpt><trkpt lat="42.33312251182576" lon="-3.6994548138632948"><ele>863.0</ele><time>2026-05-03T07:35:32Z</time></trkpt><trkpt lat="42.332960025436996" lon="-3.699431747770781"><ele>863.0</ele><time>2026-05-03T07:35:34Z</time></trkpt><trkpt lat="42.33282947361231" lon="-3.6994078628268987"><ele>863.0</ele><time>2026-05-03T07:35:36Z</time></trkpt><trkpt lat="42.33275572006696" lon="-3.6993927539390095"><ele>864.1666666666667</ele><time>2026-05-03T07:35:37Z</time></trkpt><trkpt lat="42.332679226940094" lon="-3.6993644985220633"><ele>865.3333333333334</ele><time>2026-05-03T07:35:38Z</time></trkpt><trkpt lat="42.33260145088811" lon="-3.699345022889829"><ele>866.5</ele><time>2026-05-03T07:35:39.001Z</time></trkpt><trkpt lat="42.332523922638096" lon="-3.6993202978636184"><ele>867.6666666666667</ele><time>2026-05-03T07:35:40.001Z</time></trkpt><trkpt lat="42.33243585487849" lon="-3.6993174076813173"><ele>868.8333333333334</ele><time>2026-05-03T07:35:41.001Z</time></trkpt><trkpt lat="42.332351250554595" lon="-3.6992701253606146"><ele>870.0</ele><time>2026-05-03T07:35:42.001Z</time></trkpt><trkpt lat="42.33226748350728" lon="-3.699256867952092"><ele>870.3333333333334</ele><time>2026-05-03T07:35:43.001Z</time></trkpt><trkpt lat="42.33218609994164" lon="-3.699235927689686"><ele>870.6666666666667</ele><time>2026-05-03T07:35:44.001Z</time></trkpt><trkpt lat="42.33210298109472" lon="-3.699213852617391"><ele>871.0</ele><time>2026-05-03T07:35:45.001Z</time></trkpt><trkpt lat="42.33202011396967" lon="-3.6991899259828"><ele>871.3333333333334</ele><time>2026-05-03T07:35:46.001Z</time></trkpt><trkpt lat="42.33193553816929" lon="-3.6991618215536284"><ele>871.6666666666667</ele><time>2026-05-03T07:35:47.001Z</time></trkpt><trkpt lat="42.33184915753367" lon="-3.699132361371504"><ele>872.0</ele><time>2026-05-03T07:35:48.001Z</time></trkpt><trkpt lat="42.33176356774067" lon="-3.699104582109304"><ele>872.0000000000001</ele><time>2026-05-03T07:35:49.001Z</time></trkpt><trkpt lat="42.331672609607345" lon="-3.6990691200716586"><ele>872.0</ele><time>2026-05-03T07:35:50.001Z</time></trkpt><trkpt lat="42.33159088675269" lon="-3.699035900161602"><ele>872.0</ele><time>2026-05-03T07:35:51.001Z</time></trkpt><trkpt lat="42.33150691488563" lon="-3.699004094074649"><ele>872.0</ele><time>2026-05-03T07:35:52.001Z</time></trkpt><trkpt lat="42.331420836661735" lon="-3.698967359607082"><ele>872.0000000000001</ele><time>2026-05-03T07:35:53.001Z</time></trkpt><trkpt lat="42.33133925254486" lon="-3.698938979673789"><ele>872.0</ele><time>2026-05-03T07:35:54.001Z</time></trkpt><trkpt lat="42.33125331333311" lon="-3.6988898165144235"><ele>872.8333333333334</ele><time>2026-05-03T07:35:55.001Z</time></trkpt><trkpt lat="42.33117962809499" lon="-3.6988374612653763"><ele>873.6666666666667</ele><time>2026-05-03T07:35:56.001Z</time></trkpt><trkpt lat="42.331095736784484" lon="-3.6987941234503876"><ele>874.5</ele><time>2026-05-03T07:35:57.001Z</time></trkpt><trkpt lat="42.3310208802764" lon="-3.698736027998961"><ele>875.3333333333333</ele><time>2026-05-03T07:35:58.001Z</time></trkpt><trkpt lat="42.33095272331735" lon="-3.6986674155072223"><ele>876.1666666666666</ele><time>2026-05-03T07:35:59.001Z</time></trkpt><trkpt lat="42.33088263864248" lon="-3.6985961974122294"><ele>877.0</ele><time>2026-05-03T07:36:00.001Z</time></trkpt><trkpt lat="42.33082080154178" lon="-3.698510942652921"><ele>876.9999999999999</ele><time>2026-05-03T07:36:01.001Z</time></trkpt><trkpt lat="42.33075445557208" lon="-3.6984372114020196"><ele>877.0</ele><time>2026-05-03T07:36:02.001Z</time></trkpt><trkpt lat="42.330686628394275" lon="-3.6983629288885247"><ele>877.0</ele><time>2026-05-03T07:36:03.001Z</time></trkpt><trkpt lat="42.33061575668647" lon="-3.698293634162216"><ele>877.0</ele><time>2026-05-03T07:36:04.001Z</time></trkpt><trkpt lat="42.33054685564335" lon="-3.698236219290286"><ele>876.9999999999999</ele><time>2026-05-03T07:36:05.001Z</time></trkpt><trkpt lat="42.33046952486613" lon="-3.6981767659762603"><ele>877.0</ele><time>2026-05-03T07:36:06.001Z</time></trkpt><trkpt lat="42.33039267283863" lon="-3.6981237399964324"><ele>876.3333333333333</ele><time>2026-05-03T07:36:07.001Z</time></trkpt><trkpt lat="42.33031455427297" lon="-3.6980674424604953"><ele>875.6666666666666</ele><time>2026-05-03T07:36:08.001Z</time></trkpt><trkpt lat="42.33023743515075" lon="-3.698023193396926"><ele>875.0</ele><time>2026-05-03T07:36:09.001Z</time></trkpt><trkpt lat="42.330155209948956" lon="-3.6979969700048785"><ele>874.3333333333333</ele><time>2026-05-03T07:36:10.001Z</time></trkpt><trkpt lat="42.3300731638983" lon="-3.6979650493673284"><ele>873.6666666666666</ele><time>2026-05-03T07:36:11.001Z</time></trkpt><trkpt lat="42.32999258742743" lon="-3.697940589657685"><ele>873.0</ele><time>2026-05-03T07:36:12.001Z</time></trkpt><trkpt lat="42.32991067830821" lon="-3.6979085061088415"><ele>873.0</ele><time>2026-05-03T07:36:13.001Z</time></trkpt><trkpt lat="42.32983154803452" lon="-3.6978745972157148"><ele>873.0</ele><time>2026-05-03T07:36:14.001Z</time></trkpt><trkpt lat="42.32975003627007" lon="-3.697838597391102"><ele>873.0</ele><time>2026-05-03T07:36:15.001Z</time></trkpt><trkpt lat="42.329670442637074" lon="-3.6978090102862384"><ele>873.0</ele><time>2026-05-03T07:36:16.001Z</time></trkpt><trkpt lat="42.32959096055621" lon="-3.6977937405545718"><ele>873.0</ele><time>2026-05-03T07:36:17.001Z</time></trkpt><trkpt lat="42.32951301205067" lon="-3.69775996424175"><ele>873.0</ele><time>2026-05-03T07:36:18.001Z</time></trkpt><trkpt lat="42.329435138030696" lon="-3.697734891375047"><ele>873.3333333333334</ele><time>2026-05-03T07:36:19.001Z</time></trkpt><trkpt lat="42.32935826447937" lon="-3.697708354937154"><ele>873.6666666666667</ele><time>2026-05-03T07:36:20.001Z</time></trkpt><trkpt lat="42.32927981576108" lon="-3.697678271159271"><ele>874.0</ele><time>2026-05-03T07:36:21.001Z</time></trkpt><trkpt lat="42.32920075767657" lon="-3.697654772107606"><ele>874.3333333333334</ele><time>2026-05-03T07:36:22.001Z</time></trkpt><trkpt lat="42.32911853431736" lon="-3.697633042112922"><ele>874.6666666666667</ele><time>2026-05-03T07:36:23.001Z</time></trkpt><trkpt lat="42.32903902013293" lon="-3.697602902448809"><ele>875.0</ele><time>2026-05-03T07:36:24.001Z</time></trkpt><trkpt lat="42.328964121783805" lon="-3.6975924400793434"><ele>875.3333333333334</ele><time>2026-05-03T07:36:25.001Z</time></trkpt><trkpt lat="42.32888279825044" lon="-3.6975637571462547"><ele>875.6666666666667</ele><time>2026-05-03T07:36:26.001Z</time></trkpt><trkpt lat="42.32880333053818" lon="-3.6975386299700364"><ele>876.0</ele><time>2026-05-03T07:36:27.001Z</time></trkpt><trkpt lat="42.32872527581685" lon="-3.6975117834172964"><ele>876.3333333333333</ele><time>2026-05-03T07:36:28.001Z</time></trkpt><trkpt lat="42.32864517609082" lon="-3.6974861396460645"><ele>876.6666666666666</ele><time>2026-05-03T07:36:29.001Z</time></trkpt><trkpt lat="42.32856405681753" lon="-3.697465445044962"><ele>877.0</ele><time>2026-05-03T07:36:30.001Z</time></trkpt><trkpt lat="42.328483940670104" lon="-3.6974411633878925"><ele>876.9999999999999</ele><time>2026-05-03T07:36:31.001Z</time></trkpt><trkpt lat="42.328406824754566" lon="-3.6974128461626115"><ele>877.0</ele><time>2026-05-03T07:36:32.001Z</time></trkpt><trkpt lat="42.32832075301037" lon="-3.697394125162767"><ele>877.0</ele><time>2026-05-03T07:36:33.001Z</time></trkpt><trkpt lat="42.32824292881228" lon="-3.69735865311363"><ele>877.0</ele><time>2026-05-03T07:36:34.001Z</time></trkpt><trkpt lat="42.32816332079603" lon="-3.6973344102336982"><ele>876.9999999999999</ele><time>2026-05-03T07:36:35.001Z</time></trkpt><trkpt lat="42.32808541269819" lon="-3.6972947901874575"><ele>877.0</ele><time>2026-05-03T07:36:36.001Z</time></trkpt><trkpt lat="42.32800386580508" lon="-3.69725638867315"><ele>876.4999999999999</ele><time>2026-05-03T07:36:37.001Z</time></trkpt><trkpt lat="42.32792196872535" lon="-3.6972249722197246"><ele>876.0</ele><time>2026-05-03T07:36:38.001Z</time></trkpt><trkpt lat="42.32784428262309" lon="-3.6971833247601853"><ele>875.5</ele><time>2026-05-03T07:36:39.001Z</time></trkpt><trkpt lat="42.32775930374168" lon="-3.697152271066294"><ele>875.0</ele><time>2026-05-03T07:36:40.001Z</time></trkpt><trkpt lat="42.327678257220434" lon="-3.6971178530431477"><ele>874.4999999999999</ele><time>2026-05-03T07:36:41.001Z</time></trkpt><trkpt lat="42.327590857920256" lon="-3.697080035119144"><ele>874.0</ele><time>2026-05-03T07:36:42.001Z</time></trkpt><trkpt lat="42.32750504937275" lon="-3.6970455375728495"><ele>874.0</ele><time>2026-05-03T07:36:43.001Z</time></trkpt><trkpt lat="42.32741613527424" lon="-3.69700857912922"><ele>874.0000000000001</ele><time>2026-05-03T07:36:44.001Z</time></trkpt><trkpt lat="42.32733100264656" lon="-3.69697090388803"><ele>874.0000000000001</ele><time>2026-05-03T07:36:45.001Z</time></trkpt><trkpt lat="42.32724190773684" lon="-3.6969310146339693"><ele>874.0</ele><time>2026-05-03T07:36:46.001Z</time></trkpt><trkpt lat="42.327152005967044" lon="-3.6969100385496905"><ele>874.0</ele><time>2026-05-03T07:36:47.001Z</time></trkpt><trkpt lat="42.32706194575542" lon="-3.696930542459819"><ele>874.8000000000001</ele><time>2026-05-03T07:36:48.001Z</time></trkpt><trkpt lat="42.326962667967095" lon="-3.696940437649948"><ele>875.6000000000001</ele><time>2026-05-03T07:36:49.001Z</time></trkpt><trkpt lat="42.32686768772483" lon="-3.6969421627955494"><ele>876.4</ele><time>2026-05-03T07:36:50.001Z</time></trkpt><trkpt lat="42.326776485491095" lon="-3.6969670729869493"><ele>877.2</ele><time>2026-05-03T07:36:51.002Z</time></trkpt><trkpt lat="42.32666950239987" lon="-3.696958988086236"><ele>878.0</ele><time>2026-05-03T07:36:52.002Z</time></trkpt><trkpt lat="42.326585893060454" lon="-3.6969989956876637"><ele>878.0000000000001</ele><time>2026-05-03T07:36:53.002Z</time></trkpt><trkpt lat="42.32649785532489" lon="-3.6969932031605355"><ele>878.0</ele><time>2026-05-03T07:36:54.002Z</time></trkpt><trkpt lat="42.32640933608877" lon="-3.6970092403291868"><ele>878.0</ele><time>2026-05-03T07:36:55.002Z</time></trkpt><trkpt lat="42.32632082260179" lon="-3.6970271058007147"><ele>878.0</ele><time>2026-05-03T07:36:56.002Z</time></trkpt><trkpt lat="42.32623198349043" lon="-3.6970435484475557"><ele>878.0000000000001</ele><time>2026-05-03T07:36:57.002Z</time></trkpt><trkpt lat="42.32614105541731" lon="-3.6970488269966846"><ele>878.0</ele><time>2026-05-03T07:36:58.002Z</time></trkpt><trkpt lat="42.32604863135535" lon="-3.6970400764805245"><ele>877.8</ele><time>2026-05-03T07:36:59.002Z</time></trkpt><trkpt lat="42.32595502991847" lon="-3.697014460417145"><ele>877.5999999999999</ele><time>2026-05-03T07:37:00.002Z</time></trkpt><trkpt lat="42.32586648307899" lon="-3.6969775990908182"><ele>877.4000000000001</ele><time>2026-05-03T07:37:01.002Z</time></trkpt><trkpt lat="42.32577975857618" lon="-3.696937891958993"><ele>877.2</ele><time>2026-05-03T07:37:02.002Z</time></trkpt><trkpt lat="42.325695187413835" lon="-3.696892042108749"><ele>877.0</ele><time>2026-05-03T07:37:03.002Z</time></trkpt><trkpt lat="42.325614896864394" lon="-3.696847792495586"><ele>878.3333333333333</ele><time>2026-05-03T07:37:04.002Z</time></trkpt><trkpt lat="42.32553236842882" lon="-3.696799363294966"><ele>879.6666666666666</ele><time>2026-05-03T07:37:05.002Z</time></trkpt><trkpt lat="42.32545032644013" lon="-3.6967530301075966"><ele>881.0</ele><time>2026-05-03T07:37:06.002Z</time></trkpt><trkpt lat="42.325370122181496" lon="-3.696706321972269"><ele>882.3333333333333</ele><time>2026-05-03T07:37:07.002Z</time></trkpt><trkpt lat="42.32528724889948" lon="-3.6966568225137193"><ele>883.6666666666666</ele><time>2026-05-03T07:37:08.002Z</time></trkpt><trkpt lat="42.325203094431124" lon="-3.696613841622571"><ele>885.0</ele><time>2026-05-03T07:37:09.002Z</time></trkpt><trkpt lat="42.3251202732785" lon="-3.696571265681823"><ele>885.0</ele><time>2026-05-03T07:37:10.002Z</time></trkpt><trkpt lat="42.325035792287714" lon="-3.6965305164654714"><ele>885.0</ele><time>2026-05-03T07:37:11.001Z</time></trkpt><trkpt lat="42.32494986421418" lon="-3.69649406753009"><ele>885.0</ele><time>2026-05-03T07:37:12.001Z</time></trkpt><trkpt lat="42.32486479619172" lon="-3.696456250309667"><ele>885.0</ele><time>2026-05-03T07:37:13.001Z</time></trkpt><trkpt lat="42.32477081083216" lon="-3.696450116814261"><ele>885.0</ele><time>2026-05-03T07:37:14.001Z</time></trkpt><trkpt lat="42.32468188595984" lon="-3.696417829833881"><ele>884.0</ele><time>2026-05-03T07:37:15.001Z</time></trkpt><trkpt lat="42.32459536855509" lon="-3.6963887156969992"><ele>883.0</ele><time>2026-05-03T07:37:16.001Z</time></trkpt><trkpt lat="42.32450678296917" lon="-3.6963603368386027"><ele>882.0</ele><time>2026-05-03T07:37:17.001Z</time></trkpt><trkpt lat="42.324417771765084" lon="-3.6963516234947424"><ele>881.0</ele><time>2026-05-03T07:37:18.001Z</time></trkpt><trkpt lat="42.32432672331348" lon="-3.6963580474464424"><ele>880.0</ele><time>2026-05-03T07:37:19.001Z</time></trkpt><trkpt lat="42.32423614781734" lon="-3.696364767486739"><ele>880.0</ele><time>2026-05-03T07:37:20.001Z</time></trkpt><trkpt lat="42.32414406958128" lon="-3.696371736162026"><ele>880.0</ele><time>2026-05-03T07:37:21.001Z</time></trkpt><trkpt lat="42.32404697964114" lon="-3.6963457807801703"><ele>880.0</ele><time>2026-05-03T07:37:22.001Z</time></trkpt><trkpt lat="42.323950853522916" lon="-3.696356203739541"><ele>880.0</ele><time>2026-05-03T07:37:23.001Z</time></trkpt><trkpt lat="42.323851598426344" lon="-3.6963566268377246"><ele>880.0</ele><time>2026-05-03T07:37:24.001Z</time></trkpt><trkpt lat="42.32375097278825" lon="-3.696349566644649"><ele>878.4</ele><time>2026-05-03T07:37:25.001Z</time></trkpt><trkpt lat="42.323646077076" lon="-3.6963442689832005"><ele>876.8</ele><time>2026-05-03T07:37:26.001Z</time></trkpt><trkpt lat="42.32354153891689" lon="-3.696336725508461"><ele>875.2</ele><time>2026-05-03T07:37:27.001Z</time></trkpt><trkpt lat="42.323437517173026" lon="-3.696325151576911"><ele>873.6</ele><time>2026-05-03T07:37:28.001Z</time></trkpt><trkpt lat="42.32333402034179" lon="-3.6963117485730512"><ele>872.0</ele><time>2026-05-03T07:37:29.001Z</time></trkpt><trkpt lat="42.32323247369894" lon="-3.696297961055752"><ele>872.0</ele><time>2026-05-03T07:37:30.001Z</time></trkpt><trkpt lat="42.32312846740209" lon="-3.6962820476462523"><ele>872.0</ele><time>2026-05-03T07:37:31.001Z</time></trkpt><trkpt lat="42.32302358077594" lon="-3.6962644645087"><ele>872.0</ele><time>2026-05-03T07:37:32.001Z</time></trkpt><trkpt lat="42.322919497291146" lon="-3.6962474919100066"><ele>872.0</ele><time>2026-05-03T07:37:33.001Z</time></trkpt><trkpt lat="42.322815199010435" lon="-3.6962307930673934"><ele>872.0</ele><time>2026-05-03T07:37:34.001Z</time></trkpt><trkpt lat="42.32271144867367" lon="-3.6962128315237157"><ele>871.0</ele><time>2026-05-03T07:37:35.001Z</time></trkpt><trkpt lat="42.322607230613194" lon="-3.696190964845571"><ele>870.0</ele><time>2026-05-03T07:37:36.001Z</time></trkpt><trkpt lat="42.32250230989187" lon="-3.6962081853462085"><ele>869.0</ele><time>2026-05-03T07:37:37.001Z</time></trkpt><trkpt lat="42.322395829087554" lon="-3.6961934910844976"><ele>868.0</ele><time>2026-05-03T07:37:38.001Z</time></trkpt><trkpt lat="42.322289989630384" lon="-3.696178885326762"><ele>867.0</ele><time>2026-05-03T07:37:39.001Z</time></trkpt><trkpt lat="42.322185237775955" lon="-3.696167379223264"><ele>866.6</ele><time>2026-05-03T07:37:40.001Z</time></trkpt><trkpt lat="42.322080702587726" lon="-3.6961641648068335"><ele>866.2</ele><time>2026-05-03T07:37:41.001Z</time></trkpt><trkpt lat="42.32197235699298" lon="-3.6961652634888407"><ele>865.8</ele><time>2026-05-03T07:37:42.001Z</time></trkpt><trkpt lat="42.32186292517479" lon="-3.6961671091385466"><ele>865.4</ele><time>2026-05-03T07:37:43.001Z</time></trkpt><trkpt lat="42.32175688389793" lon="-3.69617272148216"><ele>865.0</ele><time>2026-05-03T07:37:44.001Z</time></trkpt><trkpt lat="42.32165170624084" lon="-3.6961832427329386"><ele>865.0</ele><time>2026-05-03T07:37:45.001Z</time></trkpt><trkpt lat="42.32154331749356" lon="-3.696201250963962"><ele>865.0</ele><time>2026-05-03T07:37:46.001Z</time></trkpt><trkpt lat="42.32143945653353" lon="-3.696221692438305"><ele>865.0</ele><time>2026-05-03T07:37:47.001Z</time></trkpt><trkpt lat="42.32132736047019" lon="-3.6962448915391444"><ele>865.0</ele><time>2026-05-03T07:37:48.001Z</time></trkpt><trkpt lat="42.3212193303721" lon="-3.6962692472191008"><ele>865.0</ele><time>2026-05-03T07:37:49.001Z</time></trkpt><trkpt lat="42.321109320143286" lon="-3.6962779530608803"><ele>865.6</ele><time>2026-05-03T07:37:50.001Z</time></trkpt><trkpt lat="42.32100623787038" lon="-3.6963115133667936"><ele>866.2</ele><time>2026-05-03T07:37:51.001Z</time></trkpt><trkpt lat="42.32089764669701" lon="-3.696328468699877"><ele>866.8</ele><time>2026-05-03T07:37:52.001Z</time></trkpt><trkpt lat="42.32078354685637" lon="-3.6963387252621165"><ele>867.4</ele><time>2026-05-03T07:37:53.001Z</time></trkpt><trkpt lat="42.32067547598449" lon="-3.696324323108656"><ele>868.0</ele><time>2026-05-03T07:37:54.001Z</time></trkpt><trkpt lat="42.32056343455654" lon="-3.696332180687317"><ele>868.0</ele><time>2026-05-03T07:37:55.001Z</time></trkpt><trkpt lat="42.32040648395845" lon="-3.696284598964042"><ele>868.0</ele><time>2026-05-03T07:37:56.001Z</time></trkpt><trkpt lat="42.320207529254326" lon="-3.6961747234264464"><ele>868.0</ele><time>2026-05-03T07:37:57.001Z</time></trkpt><trkpt lat="42.32014218063104" lon="-3.696107803796201"><ele>868.2</ele><time>2026-05-03T07:37:59.001Z</time></trkpt><trkpt lat="42.320052937056865" lon="-3.696024413641808"><ele>868.4</ele><time>2026-05-03T07:38:00.001Z</time></trkpt><trkpt lat="42.31996921218361" lon="-3.6959293264793094"><ele>868.6000000000001</ele><time>2026-05-03T07:38:01.001Z</time></trkpt><trkpt lat="42.31989498922983" lon="-3.6958239676969464"><ele>868.8000000000001</ele><time>2026-05-03T07:38:02.001Z</time></trkpt><trkpt lat="42.319823768575894" lon="-3.6957127092730078"><ele>869.0</ele><time>2026-05-03T07:38:03.001Z</time></trkpt><trkpt lat="42.31975955030988" lon="-3.695595168056248"><ele>869.2</ele><time>2026-05-03T07:38:04.001Z</time></trkpt><trkpt lat="42.31971230974255" lon="-3.69546664064353"><ele>869.4000000000001</ele><time>2026-05-03T07:38:05.001Z</time></trkpt><trkpt lat="42.31967105166805" lon="-3.6953325339303653"><ele>869.6</ele><time>2026-05-03T07:38:06.001Z</time></trkpt><trkpt lat="42.31963469941945" lon="-3.695199649775309"><ele>869.8</ele><time>2026-05-03T07:38:07.001Z</time></trkpt><trkpt lat="42.31959926454969" lon="-3.6950685236982337"><ele>870.0</ele><time>2026-05-03T07:38:08.001Z</time></trkpt><trkpt lat="42.31956503809534" lon="-3.694934106930939"><ele>870.2</ele><time>2026-05-03T07:38:09.001Z</time></trkpt><trkpt lat="42.31953134073827" lon="-3.694799827677693"><ele>870.4</ele><time>2026-05-03T07:38:10.001Z</time></trkpt><trkpt lat="42.31949937435126" lon="-3.6946668917435264"><ele>870.5999999999999</ele><time>2026-05-03T07:38:11.001Z</time></trkpt><trkpt lat="42.319466167096365" lon="-3.694532001363379"><ele>870.8</ele><time>2026-05-03T07:38:12.001Z</time></trkpt><trkpt lat="42.319424732759344" lon="-3.694405368980935"><ele>871.0</ele><time>2026-05-03T07:38:13.001Z</time></trkpt><trkpt lat="42.319391133891266" lon="-3.69427655850921"><ele>871.5999999999999</ele><time>2026-05-03T07:38:14.001Z</time></trkpt><trkpt lat="42.31935639408692" lon="-3.6941467140593813"><ele>872.1999999999999</ele><time>2026-05-03T07:38:15.001Z</time></trkpt><trkpt lat="42.31932432904898" lon="-3.6940171758641838"><ele>872.8000000000001</ele><time>2026-05-03T07:38:16.001Z</time></trkpt><trkpt lat="42.31929071947557" lon="-3.6938850006665334"><ele>873.4000000000001</ele><time>2026-05-03T07:38:17.001Z</time></trkpt><trkpt lat="42.31925908839087" lon="-3.6937566309328007"><ele>874.0</ele><time>2026-05-03T07:38:18.001Z</time></trkpt><trkpt lat="42.31921851832199" lon="-3.6936304154377386"><ele>875.2</ele><time>2026-05-03T07:38:19.001Z</time></trkpt><trkpt lat="42.31919007152284" lon="-3.693506374407363"><ele>876.4000000000001</ele><time>2026-05-03T07:38:20.001Z</time></trkpt><trkpt lat="42.31915858456224" lon="-3.693377758888409"><ele>877.6</ele><time>2026-05-03T07:38:21.001Z</time></trkpt><trkpt lat="42.31912023240259" lon="-3.6932646416774744"><ele>878.8</ele><time>2026-05-03T07:38:22.001Z</time></trkpt><trkpt lat="42.31908944874672" lon="-3.6931351630214895"><ele>880.0</ele><time>2026-05-03T07:38:23.001Z</time></trkpt><trkpt lat="42.319057553210236" lon="-3.6930063685003214"><ele>880.0</ele><time>2026-05-03T07:38:24.001Z</time></trkpt><trkpt lat="42.319017464808816" lon="-3.6928831725318267"><ele>880.0</ele><time>2026-05-03T07:38:25.001Z</time></trkpt><trkpt lat="42.31898635004225" lon="-3.692757936037659"><ele>880.0</ele><time>2026-05-03T07:38:26.001Z</time></trkpt><trkpt lat="42.31895573768183" lon="-3.692631628900493"><ele>880.0</ele><time>2026-05-03T07:38:27.001Z</time></trkpt><trkpt lat="42.31892227891147" lon="-3.6925019212178967"><ele>880.0</ele><time>2026-05-03T07:38:28.001Z</time></trkpt><trkpt lat="42.31888859732742" lon="-3.692366405931697"><ele>879.6</ele><time>2026-05-03T07:38:29.001Z</time></trkpt><trkpt lat="42.31885140099215" lon="-3.6922315420808456"><ele>879.2</ele><time>2026-05-03T07:38:30.001Z</time></trkpt><trkpt lat="42.318814544686525" lon="-3.6920922312553395"><ele>878.8</ele><time>2026-05-03T07:38:31.001Z</time></trkpt><trkpt lat="42.31877518738849" lon="-3.69194803840878"><ele>878.4</ele><time>2026-05-03T07:38:32.001Z</time></trkpt><trkpt lat="42.3187370867461" lon="-3.6918088153772737"><ele>878.0</ele><time>2026-05-03T07:38:33.001Z</time></trkpt><trkpt lat="42.31869512068476" lon="-3.691663795342886"><ele>876.25</ele><time>2026-05-03T07:38:34.001Z</time></trkpt><trkpt lat="42.31864409831672" lon="-3.691523031883727"><ele>874.5</ele><time>2026-05-03T07:38:35.001Z</time></trkpt><trkpt lat="42.31859343547443" lon="-3.6913830861784414"><ele>872.75</ele><time>2026-05-03T07:38:36.001Z</time></trkpt><trkpt lat="42.31853460785027" lon="-3.6912478782437743"><ele>871.0</ele><time>2026-05-03T07:38:37.001Z</time></trkpt><trkpt lat="42.31847413277288" lon="-3.691114927235448"><ele>871.4</ele><time>2026-05-03T07:38:38.001Z</time></trkpt><trkpt lat="42.318409249737286" lon="-3.6909858558259296"><ele>871.8</ele><time>2026-05-03T07:38:39.001Z</time></trkpt><trkpt lat="42.31833920182258" lon="-3.6908722784062133"><ele>872.1999999999999</ele><time>2026-05-03T07:38:40.001Z</time></trkpt><trkpt lat="42.31825067213236" lon="-3.690779733818144"><ele>872.5999999999999</ele><time>2026-05-03T07:38:41.001Z</time></trkpt><trkpt lat="42.31816567072199" lon="-3.6906799821741862"><ele>873.0</ele><time>2026-05-03T07:38:42.001Z</time></trkpt><trkpt lat="42.318089714929215" lon="-3.6905797394058526"><ele>872.8</ele><time>2026-05-03T07:38:43.001Z</time></trkpt><trkpt lat="42.31800468519369" lon="-3.690506710728942"><ele>872.5999999999999</ele><time>2026-05-03T07:38:44.001Z</time></trkpt><trkpt lat="42.317921827056" lon="-3.690418042036393"><ele>872.4000000000001</ele><time>2026-05-03T07:38:45.001Z</time></trkpt><trkpt lat="42.31784309323398" lon="-3.690322312521357"><ele>872.2</ele><time>2026-05-03T07:38:46.001Z</time></trkpt><trkpt lat="42.317776995056285" lon="-3.6902088340988395"><ele>872.0</ele><time>2026-05-03T07:38:47.001Z</time></trkpt><trkpt lat="42.317696034686534" lon="-3.690105456025559"><ele>872.0</ele><time>2026-05-03T07:38:48.001Z</time></trkpt><trkpt lat="42.317628981616274" lon="-3.6899849642476643"><ele>872.0</ele><time>2026-05-03T07:38:49.001Z</time></trkpt><trkpt lat="42.31756208197794" lon="-3.689871884713407"><ele>872.0</ele><time>2026-05-03T07:38:50.001Z</time></trkpt><trkpt lat="42.31749120391029" lon="-3.689755429591458"><ele>872.0</ele><time>2026-05-03T07:38:51.001Z</time></trkpt><trkpt lat="42.317417882562125" lon="-3.68963883482758"><ele>872.0</ele><time>2026-05-03T07:38:52.001Z</time></trkpt><trkpt lat="42.3173454956053" lon="-3.689532408149572"><ele>872.0</ele><time>2026-05-03T07:38:53.001Z</time></trkpt><trkpt lat="42.3172694046105" lon="-3.689427114174173"><ele>872.0</ele><time>2026-05-03T07:38:54.001Z</time></trkpt><trkpt lat="42.317184048214074" lon="-3.6893288042940675"><ele>872.0</ele><time>2026-05-03T07:38:55.001Z</time></trkpt><trkpt lat="42.31710880901293" lon="-3.6892212230277632"><ele>872.0</ele><time>2026-05-03T07:38:56.001Z</time></trkpt><trkpt lat="42.31703529003334" lon="-3.6891154627913756"><ele>872.0</ele><time>2026-05-03T07:38:57.001Z</time></trkpt><trkpt lat="42.31695923220095" lon="-3.689008407616568"><ele>872.0</ele><time>2026-05-03T07:38:58.001Z</time></trkpt><trkpt lat="42.316885349205684" lon="-3.6888996269671512"><ele>872.0</ele><time>2026-05-03T07:38:59.001Z</time></trkpt><trkpt lat="42.31680966304983" lon="-3.688788062152305"><ele>872.0</ele><time>2026-05-03T07:39:00.001Z</time></trkpt><trkpt lat="42.31673608147396" lon="-3.68868140336853"><ele>872.0</ele><time>2026-05-03T07:39:01.001Z</time></trkpt><trkpt lat="42.31666002382797" lon="-3.688571395535733"><ele>872.0</ele><time>2026-05-03T07:39:02.001Z</time></trkpt><trkpt lat="42.31658556772478" lon="-3.688461986617228"><ele>872.2</ele><time>2026-05-03T07:39:03.001Z</time></trkpt><trkpt lat="42.3165091562435" lon="-3.688352037403136"><ele>872.4000000000001</ele><time>2026-05-03T07:39:04.001Z</time></trkpt><trkpt lat="42.31643028630575" lon="-3.6882416711461743"><ele>872.5999999999999</ele><time>2026-05-03T07:39:05.001Z</time></trkpt><trkpt lat="42.31635373067031" lon="-3.688134928769014"><ele>872.8</ele><time>2026-05-03T07:39:06.001Z</time></trkpt><trkpt lat="42.31626869995903" lon="-3.6880348035986454"><ele>873.0</ele><time>2026-05-03T07:39:07.001Z</time></trkpt><trkpt lat="42.31619840807855" lon="-3.687926930286182"><ele>873.0</ele><time>2026-05-03T07:39:08.002Z</time></trkpt><trkpt lat="42.31612042235272" lon="-3.687816562966953"><ele>873.0</ele><time>2026-05-03T07:39:09.002Z</time></trkpt><trkpt lat="42.31604436330557" lon="-3.6877057260481996"><ele>873.0</ele><time>2026-05-03T07:39:10.002Z</time></trkpt><trkpt lat="42.315971965969" lon="-3.68758807783752"><ele>873.0</ele><time>2026-05-03T07:39:11.002Z</time></trkpt><trkpt lat="42.31590589897196" lon="-3.6874728108868586"><ele>873.0</ele><time>2026-05-03T07:39:12.002Z</time></trkpt><trkpt lat="42.31584695375138" lon="-3.687347054755261"><ele>873.2</ele><time>2026-05-03T07:39:13.002Z</time></trkpt><trkpt lat="42.31580215271515" lon="-3.687210856797038"><ele>873.4</ele><time>2026-05-03T07:39:14.002Z</time></trkpt><trkpt lat="42.315765728833625" lon="-3.687069274784362"><ele>873.6000000000001</ele><time>2026-05-03T07:39:15.002Z</time></trkpt><trkpt lat="42.315748016611" lon="-3.6869213624897568"><ele>873.8000000000001</ele><time>2026-05-03T07:39:16.002Z</time></trkpt><trkpt lat="42.315745928621276" lon="-3.686771113125914"><ele>874.0</ele><time>2026-05-03T07:39:17.001Z</time></trkpt><trkpt lat="42.31576205837323" lon="-3.686626789946419"><ele>874.0</ele><time>2026-05-03T07:39:18.001Z</time></trkpt><trkpt lat="42.31577343829608" lon="-3.6864809961075626"><ele>874.0000000000001</ele><time>2026-05-03T07:39:19.001Z</time></trkpt><trkpt lat="42.31578372153082" lon="-3.6863338198440943"><ele>874.0000000000001</ele><time>2026-05-03T07:39:20.001Z</time></trkpt><trkpt lat="42.31579383634269" lon="-3.6861848800310204"><ele>874.0</ele><time>2026-05-03T07:39:21.001Z</time></trkpt><trkpt lat="42.315805099660636" lon="-3.686035769970074"><ele>874.0</ele><time>2026-05-03T07:39:22.001Z</time></trkpt><trkpt lat="42.315810253118585" lon="-3.685889340269466"><ele>874.6</ele><time>2026-05-03T07:39:23.001Z</time></trkpt><trkpt lat="42.31581668396637" lon="-3.6857415783056187"><ele>875.2</ele><time>2026-05-03T07:39:24.001Z</time></trkpt><trkpt lat="42.3157966117588" lon="-3.6855946521622656"><ele>875.8000000000001</ele><time>2026-05-03T07:39:25.001Z</time></trkpt><trkpt lat="42.31578295015999" lon="-3.6854518324628813"><ele>876.4000000000001</ele><time>2026-05-03T07:39:26.001Z</time></trkpt><trkpt lat="42.31577072924911" lon="-3.685305088348548"><ele>877.0</ele><time>2026-05-03T07:39:27.001Z</time></trkpt><trkpt lat="42.31574839109916" lon="-3.685163433949022"><ele>877.0</ele><time>2026-05-03T07:39:28.001Z</time></trkpt><trkpt lat="42.31572115325268" lon="-3.685017850225884"><ele>877.0</ele><time>2026-05-03T07:39:29.001Z</time></trkpt><trkpt lat="42.3156941169247" lon="-3.684879805755067"><ele>877.0</ele><time>2026-05-03T07:39:30.001Z</time></trkpt><trkpt lat="42.31565929400939" lon="-3.6847421587646996"><ele>877.0</ele><time>2026-05-03T07:39:31.001Z</time></trkpt><trkpt lat="42.31562546336834" lon="-3.6846028558794015"><ele>877.0</ele><time>2026-05-03T07:39:32.001Z</time></trkpt><trkpt lat="42.31559453694685" lon="-3.6844634926816897"><ele>877.2</ele><time>2026-05-03T07:39:33.001Z</time></trkpt><trkpt lat="42.31556428810138" lon="-3.6843184488802825"><ele>877.4000000000001</ele><time>2026-05-03T07:39:34.001Z</time></trkpt><trkpt lat="42.3155260191208" lon="-3.6841848943186495"><ele>877.5999999999999</ele><time>2026-05-03T07:39:35.001Z</time></trkpt><trkpt lat="42.315461726600645" lon="-3.6840460149745784"><ele>877.8</ele><time>2026-05-03T07:39:36.001Z</time></trkpt><trkpt lat="42.31541086803496" lon="-3.683915951680602"><ele>878.0</ele><time>2026-05-03T07:39:37.001Z</time></trkpt><trkpt lat="42.31536368009475" lon="-3.6837974550470998"><ele>878.0</ele><time>2026-05-03T07:39:38.001Z</time></trkpt><trkpt lat="42.31531312693448" lon="-3.6836474840802125"><ele>878.0</ele><time>2026-05-03T07:39:39.001Z</time></trkpt><trkpt lat="42.31525200380448" lon="-3.683524766905319"><ele>878.0</ele><time>2026-05-03T07:39:40.001Z</time></trkpt><trkpt lat="42.31520415798787" lon="-3.6833976418148886"><ele>878.0</ele><time>2026-05-03T07:39:41.001Z</time></trkpt><trkpt lat="42.315155135075045" lon="-3.6832707817020767"><ele>878.0</ele><time>2026-05-03T07:39:42.001Z</time></trkpt><trkpt lat="42.31510405169733" lon="-3.6831428664877786"><ele>877.8</ele><time>2026-05-03T07:39:43.001Z</time></trkpt><trkpt lat="42.31504802461348" lon="-3.6830159635211044"><ele>877.5999999999999</ele><time>2026-05-03T07:39:44.001Z</time></trkpt><trkpt lat="42.31499415180641" lon="-3.6828873512999802"><ele>877.4000000000001</ele><time>2026-05-03T07:39:45.001Z</time></trkpt><trkpt lat="42.31494579766461" lon="-3.682761587239513"><ele>877.2</ele><time>2026-05-03T07:39:46.001Z</time></trkpt><trkpt lat="42.31489295331844" lon="-3.682635392825798"><ele>877.0</ele><time>2026-05-03T07:39:47.001Z</time></trkpt><trkpt lat="42.314840633894626" lon="-3.682506701795036"><ele>877.0</ele><time>2026-05-03T07:39:48.001Z</time></trkpt><trkpt lat="42.31478556094871" lon="-3.682380256144923"><ele>877.0</ele><time>2026-05-03T07:39:49.001Z</time></trkpt><trkpt lat="42.31473180564868" lon="-3.682255429751252"><ele>877.0</ele><time>2026-05-03T07:39:50.001Z</time></trkpt><trkpt lat="42.31467917605969" lon="-3.6821319313227576"><ele>877.0</ele><time>2026-05-03T07:39:51.001Z</time></trkpt><trkpt lat="42.31462352244856" lon="-3.68200743365041"><ele>877.0</ele><time>2026-05-03T07:39:52.001Z</time></trkpt><trkpt lat="42.314550831799046" lon="-3.681897923250358"><ele>877.4000000000001</ele><time>2026-05-03T07:39:53.001Z</time></trkpt><trkpt lat="42.314483788111026" lon="-3.681782770181451"><ele>877.8000000000001</ele><time>2026-05-03T07:39:54.001Z</time></trkpt><trkpt lat="42.31442874809269" lon="-3.681658926621981"><ele>878.2</ele><time>2026-05-03T07:39:55.001Z</time></trkpt><trkpt lat="42.31435422988211" lon="-3.681553842571484"><ele>878.6</ele><time>2026-05-03T07:39:56.001Z</time></trkpt><trkpt lat="42.314283172572885" lon="-3.6814458353297397"><ele>879.0</ele><time>2026-05-03T07:39:57.001Z</time></trkpt><trkpt lat="42.31421035326271" lon="-3.6813433397331066"><ele>879.0</ele><time>2026-05-03T07:39:58.001Z</time></trkpt><trkpt lat="42.31414310225091" lon="-3.681234978407136"><ele>879.0000000000001</ele><time>2026-05-03T07:39:59.001Z</time></trkpt><trkpt lat="42.31407003074932" lon="-3.6811337216497515"><ele>879.0000000000001</ele><time>2026-05-03T07:40:00.001Z</time></trkpt><trkpt lat="42.31399689319546" lon="-3.681029966787665"><ele>879.0</ele><time>2026-05-03T07:40:01.001Z</time></trkpt><trkpt lat="42.31392596341075" lon="-3.6809278003616246"><ele>879.0</ele><time>2026-05-03T07:40:02.001Z</time></trkpt><trkpt lat="42.31385715909507" lon="-3.6808215153210733"><ele>879.2</ele><time>2026-05-03T07:40:03.001Z</time></trkpt><trkpt lat="42.31378611560356" lon="-3.680722890757263"><ele>879.4000000000001</ele><time>2026-05-03T07:40:04.001Z</time></trkpt><trkpt lat="42.31371264192128" lon="-3.6806285326230506"><ele>879.6</ele><time>2026-05-03T07:40:05.001Z</time></trkpt><trkpt lat="42.31363779584084" lon="-3.6805323326995207"><ele>879.8</ele><time>2026-05-03T07:40:06.001Z</time></trkpt><trkpt lat="42.31356077562909" lon="-3.680444205171851"><ele>880.0</ele><time>2026-05-03T07:40:07.001Z</time></trkpt><trkpt lat="42.313482958888734" lon="-3.680355475972843"><ele>880.6</ele><time>2026-05-03T07:40:08.001Z</time></trkpt><trkpt lat="42.31340213970893" lon="-3.680265653909864"><ele>881.2</ele><time>2026-05-03T07:40:09.001Z</time></trkpt><trkpt lat="42.31332547034796" lon="-3.680172214593043"><ele>881.8</ele><time>2026-05-03T07:40:10.001Z</time></trkpt><trkpt lat="42.31324893651399" lon="-3.6800776678649525"><ele>882.4</ele><time>2026-05-03T07:40:11.001Z</time></trkpt><trkpt lat="42.31316537679606" lon="-3.679980226056502"><ele>883.0</ele><time>2026-05-03T07:40:12.001Z</time></trkpt><trkpt lat="42.31308658208154" lon="-3.6798791465293927"><ele>883.0</ele><time>2026-05-03T07:40:13.001Z</time></trkpt><trkpt lat="42.31301046875237" lon="-3.6797709946240222"><ele>883.0</ele><time>2026-05-03T07:40:14.001Z</time></trkpt><trkpt lat="42.312932477523184" lon="-3.679669356872625"><ele>883.0</ele><time>2026-05-03T07:40:15.001Z</time></trkpt><trkpt lat="42.312853712570345" lon="-3.679570124983429"><ele>883.0</ele><time>2026-05-03T07:40:16.001Z</time></trkpt><trkpt lat="42.31277406943992" lon="-3.679455043116362"><ele>883.0</ele><time>2026-05-03T07:40:17.001Z</time></trkpt><trkpt lat="42.31267573791348" lon="-3.6793561311847807"><ele>883.0</ele><time>2026-05-03T07:40:18.001Z</time></trkpt><trkpt lat="42.312543961580204" lon="-3.679214520090575"><ele>883.0</ele><time>2026-05-03T07:40:19.001Z</time></trkpt><trkpt lat="42.312445819762345" lon="-3.67911983045391"><ele>883.0</ele><time>2026-05-03T07:40:20.001Z</time></trkpt><trkpt lat="42.312336839976844" lon="-3.679012634583521"><ele>883.0</ele><time>2026-05-03T07:40:22.001Z</time></trkpt><trkpt lat="42.31223257467727" lon="-3.6789269435404326"><ele>883.2</ele><time>2026-05-03T07:40:23.001Z</time></trkpt><trkpt lat="42.312136614503835" lon="-3.6788587097623924"><ele>883.4</ele><time>2026-05-03T07:40:24.001Z</time></trkpt><trkpt lat="42.312041094586725" lon="-3.678788323667459"><ele>883.6000000000001</ele><time>2026-05-03T07:40:25.001Z</time></trkpt><trkpt lat="42.31193794419547" lon="-3.6787276615114184"><ele>883.8000000000001</ele><time>2026-05-03T07:40:26.001Z</time></trkpt><trkpt lat="42.311840356571196" lon="-3.678654891719622"><ele>884.0</ele><time>2026-05-03T07:40:27.001Z</time></trkpt><trkpt lat="42.311742780843055" lon="-3.6785871049989494"><ele>884.0</ele><time>2026-05-03T07:40:28.001Z</time></trkpt><trkpt lat="42.3116418056934" lon="-3.6785170986871027"><ele>884.0</ele><time>2026-05-03T07:40:29.001Z</time></trkpt><trkpt lat="42.31154026414081" lon="-3.678447615624399"><ele>884.0</ele><time>2026-05-03T07:40:30.001Z</time></trkpt><trkpt lat="42.31143344228929" lon="-3.6783839869205774"><ele>884.0</ele><time>2026-05-03T07:40:31.001Z</time></trkpt><trkpt lat="42.31133291494241" lon="-3.6783136751365912"><ele>883.8000000000001</ele><time>2026-05-03T07:40:32.001Z</time></trkpt><trkpt lat="42.311234285297225" lon="-3.6782495330534384"><ele>883.6000000000001</ele><time>2026-05-03T07:40:33.001Z</time></trkpt><trkpt lat="42.311130256679704" lon="-3.6781917158419466"><ele>883.4</ele><time>2026-05-03T07:40:34.001Z</time></trkpt><trkpt lat="42.31102747237504" lon="-3.678137418098891"><ele>883.2</ele><time>2026-05-03T07:40:35.001Z</time></trkpt><trkpt lat="42.31092360122673" lon="-3.6780866840117823"><ele>883.0</ele><time>2026-05-03T07:40:36.001Z</time></trkpt><trkpt lat="42.31081900280615" lon="-3.678039674868134"><ele>883.0</ele><time>2026-05-03T07:40:37.001Z</time></trkpt><trkpt lat="42.31071414457646" lon="-3.6779911909167082"><ele>883.0</ele><time>2026-05-03T07:40:38.001Z</time></trkpt><trkpt lat="42.310609622752494" lon="-3.677946883715302"><ele>883.0</ele><time>2026-05-03T07:40:39.001Z</time></trkpt><trkpt lat="42.31050611907183" lon="-3.677899964939574"><ele>883.0</ele><time>2026-05-03T07:40:40.001Z</time></trkpt><trkpt lat="42.310405790803195" lon="-3.6778499301368166"><ele>883.0</ele><time>2026-05-03T07:40:41.001Z</time></trkpt><trkpt lat="42.31031171392403" lon="-3.6777966353281744"><ele>883.8</ele><time>2026-05-03T07:40:42.001Z</time></trkpt><trkpt lat="42.31021748680665" lon="-3.677730504441486"><ele>884.5999999999999</ele><time>2026-05-03T07:40:43.001Z</time></trkpt><trkpt lat="42.310130629638934" lon="-3.677642418738116"><ele>885.4000000000001</ele><time>2026-05-03T07:40:44.001Z</time></trkpt><trkpt lat="42.310049051930385" lon="-3.67754579400387"><ele>886.2</ele><time>2026-05-03T07:40:45.001Z</time></trkpt><trkpt lat="42.30997705979276" lon="-3.6774338492814747"><ele>887.0</ele><time>2026-05-03T07:40:46.001Z</time></trkpt><trkpt lat="42.30990832268001" lon="-3.677325163675427"><ele>887.0</ele><time>2026-05-03T07:40:47.001Z</time></trkpt><trkpt lat="42.30983639493038" lon="-3.677216675291853"><ele>887.0</ele><time>2026-05-03T07:40:48.001Z</time></trkpt><trkpt lat="42.30976486790122" lon="-3.677109586447926"><ele>887.0</ele><time>2026-05-03T07:40:49.001Z</time></trkpt><trkpt lat="42.30969346196728" lon="-3.6770003390502213"><ele>887.0</ele><time>2026-05-03T07:40:50.001Z</time></trkpt><trkpt lat="42.30962350716076" lon="-3.67689714225466"><ele>887.0</ele><time>2026-05-03T07:40:51.001Z</time></trkpt><trkpt lat="42.30955251244712" lon="-3.6767905452044842"><ele>886.6</ele><time>2026-05-03T07:40:52.001Z</time></trkpt><trkpt lat="42.30948091066674" lon="-3.6766889205484348"><ele>886.2</ele><time>2026-05-03T07:40:53.001Z</time></trkpt><trkpt lat="42.309408268649584" lon="-3.6765855287129843"><ele>885.8</ele><time>2026-05-03T07:40:54.001Z</time></trkpt><trkpt lat="42.30931593154304" lon="-3.6765011328208415"><ele>885.4</ele><time>2026-05-03T07:40:55.001Z</time></trkpt><trkpt lat="42.309236208688546" lon="-3.6764061426667194"><ele>885.0</ele><time>2026-05-03T07:40:56.001Z</time></trkpt><trkpt lat="42.30915499297543" lon="-3.6763095664555743"><ele>885.0</ele><time>2026-05-03T07:40:57.001Z</time></trkpt><trkpt lat="42.30907691297846" lon="-3.676202955549732"><ele>885.0</ele><time>2026-05-03T07:40:58.001Z</time></trkpt><trkpt lat="42.30899635556834" lon="-3.6761073025401885"><ele>885.0</ele><time>2026-05-03T07:40:59.001Z</time></trkpt><trkpt lat="42.308911511591845" lon="-3.6760139038545665"><ele>885.0</ele><time>2026-05-03T07:41:00.001Z</time></trkpt><trkpt lat="42.30882845478196" lon="-3.6759122816175718"><ele>885.0</ele><time>2026-05-03T07:41:01.001Z</time></trkpt><trkpt lat="42.30874290773811" lon="-3.675821739575942"><ele>884.75</ele><time>2026-05-03T07:41:02.001Z</time></trkpt><trkpt lat="42.30865374915612" lon="-3.6757378345297655"><ele>884.5</ele><time>2026-05-03T07:41:03.001Z</time></trkpt><trkpt lat="42.308542774778374" lon="-3.6756670459535727"><ele>884.25</ele><time>2026-05-03T07:41:04.001Z</time></trkpt><trkpt lat="42.30842391285491" lon="-3.6756347464510997"><ele>884.0</ele><time>2026-05-03T07:41:05.001Z</time></trkpt><trkpt lat="42.30829841962738" lon="-3.675556118526035"><ele>884.0</ele><time>2026-05-03T07:41:06.001Z</time></trkpt><trkpt lat="42.308228699388984" lon="-3.6755493617361403"><ele>884.0000000000001</ele><time>2026-05-03T07:41:07.001Z</time></trkpt><trkpt lat="42.30813521668256" lon="-3.675507886481156"><ele>884.0000000000001</ele><time>2026-05-03T07:41:08.001Z</time></trkpt><trkpt lat="42.30801081106181" lon="-3.6754511597474315"><ele>884.0</ele><time>2026-05-03T07:41:09.001Z</time></trkpt><trkpt lat="42.30790331029685" lon="-3.6753851786409464"><ele>884.0</ele><time>2026-05-03T07:41:10.001Z</time></trkpt><trkpt lat="42.30781933971937" lon="-3.675298011650455"><ele>884.75</ele><time>2026-05-03T07:41:11.001Z</time></trkpt><trkpt lat="42.307721356195046" lon="-3.675210776346277"><ele>885.5</ele><time>2026-05-03T07:41:12.001Z</time></trkpt><trkpt lat="42.30762093249939" lon="-3.6751197719988613"><ele>886.25</ele><time>2026-05-03T07:41:13.001Z</time></trkpt><trkpt lat="42.30753962577995" lon="-3.6750011733265073"><ele>887.0</ele><time>2026-05-03T07:41:14.001Z</time></trkpt><trkpt lat="42.30748937951928" lon="-3.6748960519779494"><ele>887.0</ele><time>2026-05-03T07:41:15.001Z</time></trkpt><trkpt lat="42.30741429408269" lon="-3.674782054515891"><ele>887.0</ele><time>2026-05-03T07:41:16.001Z</time></trkpt><trkpt lat="42.307350277643785" lon="-3.6746597171879163"><ele>887.0</ele><time>2026-05-03T07:41:17.001Z</time></trkpt><trkpt lat="42.30728859553612" lon="-3.6745337058442678"><ele>887.0</ele><time>2026-05-03T07:41:18.001Z</time></trkpt><trkpt lat="42.30723094267702" lon="-3.6744091553861815"><ele>887.0</ele><time>2026-05-03T07:41:19.002Z</time></trkpt><trkpt lat="42.30717843052605" lon="-3.67428500353934"><ele>887.0</ele><time>2026-05-03T07:41:20.002Z</time></trkpt><trkpt lat="42.30713254976684" lon="-3.6741543885162105"><ele>887.0</ele><time>2026-05-03T07:41:21.002Z</time></trkpt><trkpt lat="42.30708610427473" lon="-3.674022950417456"><ele>887.0</ele><time>2026-05-03T07:41:22.002Z</time></trkpt><trkpt lat="42.30704098017952" lon="-3.6738895817858426"><ele>887.0</ele><time>2026-05-03T07:41:23.001Z</time></trkpt><trkpt lat="42.306990052513804" lon="-3.673755746500724"><ele>887.0</ele><time>2026-05-03T07:41:24.001Z</time></trkpt><trkpt lat="42.30692479252389" lon="-3.67363315168399"><ele>887.2</ele><time>2026-05-03T07:41:25.001Z</time></trkpt><trkpt lat="42.3068459415947" lon="-3.673526751256426"><ele>887.4000000000001</ele><time>2026-05-03T07:41:26.001Z</time></trkpt><trkpt lat="42.30675516213388" lon="-3.6734384519961987"><ele>887.5999999999999</ele><time>2026-05-03T07:41:27.001Z</time></trkpt><trkpt lat="42.30666048989078" lon="-3.673358830054233"><ele>887.8</ele><time>2026-05-03T07:41:28.001Z</time></trkpt><trkpt lat="42.30656451960799" lon="-3.6732883369828855"><ele>888.0</ele><time>2026-05-03T07:41:29.001Z</time></trkpt><trkpt lat="42.306470488849946" lon="-3.673214950705723"><ele>887.8</ele><time>2026-05-03T07:41:30.001Z</time></trkpt><trkpt lat="42.30637922913999" lon="-3.673134990342421"><ele>887.5999999999999</ele><time>2026-05-03T07:41:31.001Z</time></trkpt><trkpt lat="42.30628966347273" lon="-3.673048279258849"><ele>887.4000000000001</ele><time>2026-05-03T07:41:32.001Z</time></trkpt><trkpt lat="42.30620518179528" lon="-3.6729554779992593"><ele>887.2</ele><time>2026-05-03T07:41:33.001Z</time></trkpt><trkpt lat="42.30613190490936" lon="-3.6728483228504274"><ele>887.0</ele><time>2026-05-03T07:41:34.001Z</time></trkpt><trkpt lat="42.30606816061641" lon="-3.6727309222180735"><ele>887.0</ele><time>2026-05-03T07:41:35.001Z</time></trkpt><trkpt lat="42.306016286707305" lon="-3.6726025710644805"><ele>887.0</ele><time>2026-05-03T07:41:36.001Z</time></trkpt><trkpt lat="42.30596657654945" lon="-3.672470377072949"><ele>887.0</ele><time>2026-05-03T07:41:37.001Z</time></trkpt><trkpt lat="42.30592733498514" lon="-3.67232804051807"><ele>887.0</ele><time>2026-05-03T07:41:38.001Z</time></trkpt><trkpt lat="42.30587524965556" lon="-3.6721992829873193"><ele>887.0</ele><time>2026-05-03T07:41:39.001Z</time></trkpt><trkpt lat="42.30581981854267" lon="-3.672073330910289"><ele>887.0</ele><time>2026-05-03T07:41:40.001Z</time></trkpt><trkpt lat="42.30575883857044" lon="-3.6719526942136516"><ele>887.0</ele><time>2026-05-03T07:41:41.001Z</time></trkpt><trkpt lat="42.30569025411904" lon="-3.6718395142910936"><ele>887.0</ele><time>2026-05-03T07:41:42.001Z</time></trkpt><trkpt lat="42.30561571197478" lon="-3.671735160599642"><ele>887.0</ele><time>2026-05-03T07:41:43Z</time></trkpt><trkpt lat="42.30554237802388" lon="-3.671635266216721"><ele>887.0</ele><time>2026-05-03T07:41:44Z</time></trkpt><trkpt lat="42.305471288880575" lon="-3.6715281449868638"><ele>887.2</ele><time>2026-05-03T07:41:45Z</time></trkpt><trkpt lat="42.3054030957826" lon="-3.6714193673917084"><ele>887.4000000000001</ele><time>2026-05-03T07:41:46Z</time></trkpt><trkpt lat="42.30533708851912" lon="-3.671303233573219"><ele>887.5999999999999</ele><time>2026-05-03T07:41:47Z</time></trkpt><trkpt lat="42.30527892307379" lon="-3.6711878276647787"><ele>887.8</ele><time>2026-05-03T07:41:48Z</time></trkpt><trkpt lat="42.30522597520177" lon="-3.671064430173232"><ele>888.0</ele><time>2026-05-03T07:41:49Z</time></trkpt><trkpt lat="42.30517673890271" lon="-3.6709396277173023"><ele>889.0</ele><time>2026-05-03T07:41:50Z</time></trkpt><trkpt lat="42.30512945313407" lon="-3.6708121046161297"><ele>890.0</ele><time>2026-05-03T07:41:51Z</time></trkpt><trkpt lat="42.30508269209262" lon="-3.67069133968553"><ele>891.0</ele><time>2026-05-03T07:41:52Z</time></trkpt><trkpt lat="42.305031196400144" lon="-3.670571243680444"><ele>892.0</ele><time>2026-05-03T07:41:53Z</time></trkpt><trkpt lat="42.30495870619674" lon="-3.6704792739630805"><ele>893.0</ele><time>2026-05-03T07:41:54Z</time></trkpt><trkpt lat="42.304889954076906" lon="-3.670382872520095"><ele>893.0</ele><time>2026-05-03T07:41:55Z</time></trkpt><trkpt lat="42.30482692312315" lon="-3.670285095577956"><ele>893.0</ele><time>2026-05-03T07:41:56Z</time></trkpt><trkpt lat="42.30474891139401" lon="-3.6702113287283393"><ele>893.0</ele><time>2026-05-03T07:41:57Z</time></trkpt><trkpt lat="42.304668456497076" lon="-3.6701432134904537"><ele>893.0</ele><time>2026-05-03T07:41:58Z</time></trkpt><trkpt lat="42.304587934095025" lon="-3.6700788310195125"><ele>893.0</ele><time>2026-05-03T07:41:59Z</time></trkpt><trkpt lat="42.30450286521598" lon="-3.6700179549317853"><ele>893.0</ele><time>2026-05-03T07:42:00Z</time></trkpt><trkpt lat="42.30441270836437" lon="-3.669980145943455"><ele>893.0</ele><time>2026-05-03T07:42:01Z</time></trkpt><trkpt lat="42.304326752731455" lon="-3.669906438039998"><ele>893.0</ele><time>2026-05-03T07:42:02Z</time></trkpt><trkpt lat="42.30422152893993" lon="-3.669875688461441"><ele>893.0</ele><time>2026-05-03T07:42:03Z</time></trkpt><trkpt lat="42.30412881991422" lon="-3.669810469178631"><ele>893.0</ele><time>2026-05-03T07:42:04Z</time></trkpt><trkpt lat="42.30402480779135" lon="-3.669771101796165"><ele>893.0</ele><time>2026-05-03T07:42:05Z</time></trkpt><trkpt lat="42.303924519500086" lon="-3.669730426132247"><ele>893.0</ele><time>2026-05-03T07:42:06Z</time></trkpt><trkpt lat="42.30381790486463" lon="-3.669680954466909"><ele>893.0</ele><time>2026-05-03T07:42:07Z</time></trkpt><trkpt lat="42.30371499787679" lon="-3.669634618402465"><ele>893.0</ele><time>2026-05-03T07:42:08Z</time></trkpt><trkpt lat="42.303612177814216" lon="-3.6695818209487614"><ele>893.0</ele><time>2026-05-03T07:42:09Z</time></trkpt><trkpt lat="42.30351820823132" lon="-3.669528664788785"><ele>892.4</ele><time>2026-05-03T07:42:10Z</time></trkpt><trkpt lat="42.30342305257645" lon="-3.669464207531535"><ele>891.8</ele><time>2026-05-03T07:42:11Z</time></trkpt><trkpt lat="42.30333219356294" lon="-3.669387085627013"><ele>891.2</ele><time>2026-05-03T07:42:12Z</time></trkpt><trkpt lat="42.303246650066235" lon="-3.6693016053972483"><ele>890.6</ele><time>2026-05-03T07:42:13Z</time></trkpt><trkpt lat="42.30316838071296" lon="-3.66920638663574"><ele>890.0</ele><time>2026-05-03T07:42:14Z</time></trkpt><trkpt lat="42.30309520040314" lon="-3.6691044082138355"><ele>891.0</ele><time>2026-05-03T07:42:15Z</time></trkpt><trkpt lat="42.30302697692553" lon="-3.6689985917678283"><ele>892.0</ele><time>2026-05-03T07:42:16Z</time></trkpt><trkpt lat="42.30296257498185" lon="-3.6688890090363233"><ele>893.0</ele><time>2026-05-03T07:42:17Z</time></trkpt><trkpt lat="42.30289630837694" lon="-3.668780246884704"><ele>894.0</ele><time>2026-05-03T07:42:18Z</time></trkpt><trkpt lat="42.30280592396054" lon="-3.6687077621215636"><ele>895.0</ele><time>2026-05-03T07:42:19Z</time></trkpt><trkpt lat="42.302715889226555" lon="-3.6686470562934117"><ele>896.6</ele><time>2026-05-03T07:42:20Z</time></trkpt><trkpt lat="42.30261990820874" lon="-3.6685974841267446"><ele>898.2</ele><time>2026-05-03T07:42:21Z</time></trkpt><trkpt lat="42.30252978864771" lon="-3.6685386788292944"><ele>899.8</ele><time>2026-05-03T07:42:22Z</time></trkpt><trkpt lat="42.30243193178807" lon="-3.6685037120975337"><ele>901.4</ele><time>2026-05-03T07:42:23Z</time></trkpt><trkpt lat="42.30234251282918" lon="-3.6684677868051723"><ele>903.0</ele><time>2026-05-03T07:42:24Z</time></trkpt><trkpt lat="42.30225720485661" lon="-3.668424035487844"><ele>903.0</ele><time>2026-05-03T07:42:25Z</time></trkpt><trkpt lat="42.302173874930936" lon="-3.668373419460392"><ele>903.0</ele><time>2026-05-03T07:42:26Z</time></trkpt><trkpt lat="42.302090055133135" lon="-3.6683184951659054"><ele>903.0</ele><time>2026-05-03T07:42:27.001Z</time></trkpt><trkpt lat="42.30200960652199" lon="-3.6682502263315175"><ele>903.0</ele><time>2026-05-03T07:42:28.001Z</time></trkpt><trkpt lat="42.30192383776021" lon="-3.6681835397996223"><ele>903.0</ele><time>2026-05-03T07:42:29.001Z</time></trkpt><trkpt lat="42.30184126548565" lon="-3.668119371592047"><ele>903.0</ele><time>2026-05-03T07:42:30.001Z</time></trkpt><trkpt lat="42.301756899288144" lon="-3.668062406579915"><ele>903.0</ele><time>2026-05-03T07:42:31.001Z</time></trkpt><trkpt lat="42.30167155614237" lon="-3.6680174976980666"><ele>903.0</ele><time>2026-05-03T07:42:32.001Z</time></trkpt><trkpt lat="42.301581186428365" lon="-3.6679881257965072"><ele>903.0</ele><time>2026-05-03T07:42:33.001Z</time></trkpt><trkpt lat="42.30148493542196" lon="-3.6679855923289426"><ele>903.0</ele><time>2026-05-03T07:42:34.001Z</time></trkpt><trkpt lat="42.30139361317105" lon="-3.667976219182426"><ele>901.2</ele><time>2026-05-03T07:42:35.001Z</time></trkpt><trkpt lat="42.30130401475821" lon="-3.667974798678074"><ele>899.4</ele><time>2026-05-03T07:42:36.001Z</time></trkpt><trkpt lat="42.30121367820286" lon="-3.6679862045415734"><ele>897.6000000000001</ele><time>2026-05-03T07:42:37.001Z</time></trkpt><trkpt lat="42.3011243089293" lon="-3.66798823829359"><ele>895.8000000000001</ele><time>2026-05-03T07:42:38.001Z</time></trkpt><trkpt lat="42.30103033032372" lon="-3.6680179811144926"><ele>894.0</ele><time>2026-05-03T07:42:39.001Z</time></trkpt><trkpt lat="42.30093258117252" lon="-3.6680126589796838"><ele>894.0</ele><time>2026-05-03T07:42:40.001Z</time></trkpt><trkpt lat="42.300842109394154" lon="-3.667947087845084"><ele>894.0000000000001</ele><time>2026-05-03T07:42:41.001Z</time></trkpt><trkpt lat="42.300787577378806" lon="-3.667816546843558"><ele>894.0000000000001</ele><time>2026-05-03T07:42:42.001Z</time></trkpt><trkpt lat="42.30073002494849" lon="-3.667703771183883"><ele>894.0</ele><time>2026-05-03T07:42:43.001Z</time></trkpt><trkpt lat="42.300674329226446" lon="-3.667589389524342"><ele>894.0</ele><time>2026-05-03T07:42:44.001Z</time></trkpt><trkpt lat="42.300605051588455" lon="-3.6674904974419142"><ele>893.8000000000001</ele><time>2026-05-03T07:42:45.001Z</time></trkpt><trkpt lat="42.30054587087233" lon="-3.6673839880304193"><ele>893.6000000000001</ele><time>2026-05-03T07:42:46.001Z</time></trkpt><trkpt lat="42.30049543138304" lon="-3.6672641736480425"><ele>893.4</ele><time>2026-05-03T07:42:47.001Z</time></trkpt><trkpt lat="42.30043449304802" lon="-3.6671542508345607"><ele>893.2</ele><time>2026-05-03T07:42:48.001Z</time></trkpt><trkpt lat="42.300370740115916" lon="-3.6670463255868433"><ele>893.0</ele><time>2026-05-03T07:42:49.001Z</time></trkpt><trkpt lat="42.30031259771437" lon="-3.6669309854085363"><ele>893.5999999999999</ele><time>2026-05-03T07:42:50.001Z</time></trkpt><trkpt lat="42.300248751751546" lon="-3.6668223869464325"><ele>894.1999999999999</ele><time>2026-05-03T07:42:51.001Z</time></trkpt><trkpt lat="42.30018927691981" lon="-3.666713676467444"><ele>894.8</ele><time>2026-05-03T07:42:52.001Z</time></trkpt><trkpt lat="42.30012085245874" lon="-3.6666064208099125"><ele>895.4</ele><time>2026-05-03T07:42:53.001Z</time></trkpt><trkpt lat="42.30006652555114" lon="-3.6664974272676902"><ele>896.0</ele><time>2026-05-03T07:42:54.001Z</time></trkpt><trkpt lat="42.30001083397476" lon="-3.6664024651020553"><ele>896.0</ele><time>2026-05-03T07:42:55.001Z</time></trkpt><trkpt lat="42.2999560298784" lon="-3.666307854991712"><ele>895.9999999999999</ele><time>2026-05-03T07:42:56.001Z</time></trkpt><trkpt lat="42.2999005753846" lon="-3.6662067997372763"><ele>895.9999999999999</ele><time>2026-05-03T07:42:57.001Z</time></trkpt><trkpt lat="42.299843555654384" lon="-3.666102730492637"><ele>896.0</ele><time>2026-05-03T07:42:58.001Z</time></trkpt><trkpt lat="42.29978667064361" lon="-3.665995396554449"><ele>896.0</ele><time>2026-05-03T07:42:59.001Z</time></trkpt><trkpt lat="42.29972691702458" lon="-3.6658929652812837"><ele>895.8</ele><time>2026-05-03T07:43:00.001Z</time></trkpt><trkpt lat="42.299669559189695" lon="-3.665781302552346"><ele>895.5999999999999</ele><time>2026-05-03T07:43:01.001Z</time></trkpt><trkpt lat="42.29960598325907" lon="-3.6656757495380305"><ele>895.4</ele><time>2026-05-03T07:43:02.001Z</time></trkpt><trkpt lat="42.29954405140578" lon="-3.6655672005904965"><ele>895.2</ele><time>2026-05-03T07:43:03.001Z</time></trkpt><trkpt lat="42.29948376169179" lon="-3.665458490749969"><ele>895.0</ele><time>2026-05-03T07:43:04.001Z</time></trkpt><trkpt lat="42.29942535900492" lon="-3.665349986760096"><ele>896.0</ele><time>2026-05-03T07:43:05.001Z</time></trkpt><trkpt lat="42.299367552013265" lon="-3.665237829222402"><ele>897.0</ele><time>2026-05-03T07:43:06.001Z</time></trkpt><trkpt lat="42.29931105123426" lon="-3.6651284911910635"><ele>898.0</ele><time>2026-05-03T07:43:07.001Z</time></trkpt><trkpt lat="42.29924760625794" lon="-3.6650224756467535"><ele>899.0</ele><time>2026-05-03T07:43:08.001Z</time></trkpt><trkpt lat="42.29919494782748" lon="-3.6649125546006895"><ele>900.0</ele><time>2026-05-03T07:43:09.001Z</time></trkpt><trkpt lat="42.299134425609545" lon="-3.6648046624025197"><ele>900.0</ele><time>2026-05-03T07:43:10.001Z</time></trkpt><trkpt lat="42.29907556116448" lon="-3.664700382095782"><ele>900.0</ele><time>2026-05-03T07:43:11.001Z</time></trkpt><trkpt lat="42.29900986524571" lon="-3.664593134491218"><ele>900.0</ele><time>2026-05-03T07:43:12.001Z</time></trkpt><trkpt lat="42.29894235818859" lon="-3.6644927809654364"><ele>900.0</ele><time>2026-05-03T07:43:13.001Z</time></trkpt><trkpt lat="42.298871038829205" lon="-3.664402908107627"><ele>900.0</ele><time>2026-05-03T07:43:14.001Z</time></trkpt><trkpt lat="42.29878104608871" lon="-3.664341240447278"><ele>900.0</ele><time>2026-05-03T07:43:15.001Z</time></trkpt><trkpt lat="42.29870383646056" lon="-3.664256875738186"><ele>900.0</ele><time>2026-05-03T07:43:16.001Z</time></trkpt><trkpt lat="42.2986481839818" lon="-3.6641623371366063"><ele>900.0</ele><time>2026-05-03T07:43:17.001Z</time></trkpt><trkpt lat="42.2985878107736" lon="-3.664089106313473"><ele>900.0</ele><time>2026-05-03T07:43:18.001Z</time></trkpt><trkpt lat="42.298537945084476" lon="-3.664017626450284"><ele>900.0</ele><time>2026-05-03T07:43:19.001Z</time></trkpt><trkpt lat="42.298485014328776" lon="-3.6639411066798866"><ele>900.0</ele><time>2026-05-03T07:43:20.001Z</time></trkpt><trkpt lat="42.29843730588366" lon="-3.6638607607493356"><ele>900.0</ele><time>2026-05-03T07:43:21.001Z</time></trkpt><trkpt lat="42.29839536565263" lon="-3.663771254822047"><ele>900.0</ele><time>2026-05-03T07:43:22.001Z</time></trkpt><trkpt lat="42.298355762600124" lon="-3.663677603805567"><ele>900.0</ele><time>2026-05-03T07:43:23.001Z</time></trkpt><trkpt lat="42.29832574254822" lon="-3.6635788975449217"><ele>900.0</ele><time>2026-05-03T07:43:24.001Z</time></trkpt><trkpt lat="42.29829681144002" lon="-3.6634769183948066"><ele>900.0</ele><time>2026-05-03T07:43:25.001Z</time></trkpt><trkpt lat="42.2982714382608" lon="-3.6633724579219202"><ele>900.0</ele><time>2026-05-03T07:43:26.001Z</time></trkpt><trkpt lat="42.29824316389336" lon="-3.6632686354104194"><ele>900.6666666666666</ele><time>2026-05-03T07:43:27.001Z</time></trkpt><trkpt lat="42.29821425815399" lon="-3.6631624836773446"><ele>901.3333333333333</ele><time>2026-05-03T07:43:28.001Z</time></trkpt><trkpt lat="42.29818951058642" lon="-3.6630581027857434"><ele>902.0</ele><time>2026-05-03T07:43:29.001Z</time></trkpt><trkpt lat="42.298164715100064" lon="-3.6629526963101773"><ele>902.6666666666666</ele><time>2026-05-03T07:43:30.001Z</time></trkpt><trkpt lat="42.29814002239393" lon="-3.6628487001117236"><ele>903.3333333333333</ele><time>2026-05-03T07:43:31.001Z</time></trkpt><trkpt lat="42.29811298853491" lon="-3.6627415987100718"><ele>904.0</ele><time>2026-05-03T07:43:32.001Z</time></trkpt><trkpt lat="42.298085743373804" lon="-3.662636213261403"><ele>903.6666666666666</ele><time>2026-05-03T07:43:33.001Z</time></trkpt><trkpt lat="42.29805587309338" lon="-3.662530950952169"><ele>903.3333333333333</ele><time>2026-05-03T07:43:34.001Z</time></trkpt><trkpt lat="42.298022708166876" lon="-3.662425755493065"><ele>903.0</ele><time>2026-05-03T07:43:35.001Z</time></trkpt><trkpt lat="42.29798644643188" lon="-3.6623174773135694"><ele>902.6666666666667</ele><time>2026-05-03T07:43:36.001Z</time></trkpt><trkpt lat="42.29794402233728" lon="-3.6622135934361033"><ele>902.3333333333334</ele><time>2026-05-03T07:43:37.001Z</time></trkpt><trkpt lat="42.297894337479406" lon="-3.662114272017287"><ele>902.0</ele><time>2026-05-03T07:43:38.001Z</time></trkpt><trkpt lat="42.29784075436296" lon="-3.6620122654593725"><ele>902.6</ele><time>2026-05-03T07:43:39.001Z</time></trkpt><trkpt lat="42.29778772325774" lon="-3.661909764340136"><ele>903.2</ele><time>2026-05-03T07:43:40Z</time></trkpt><trkpt lat="42.297738673161064" lon="-3.6618010273322774"><ele>903.8</ele><time>2026-05-03T07:43:41Z</time></trkpt><trkpt lat="42.29769530888209" lon="-3.6616819650839134"><ele>904.4</ele><time>2026-05-03T07:43:42Z</time></trkpt><trkpt lat="42.29766155970504" lon="-3.6615503516571586"><ele>905.0</ele><time>2026-05-03T07:43:43Z</time></trkpt><trkpt lat="42.29761757898911" lon="-3.6614194209708697"><ele>905.0</ele><time>2026-05-03T07:43:44Z</time></trkpt><trkpt lat="42.297602076424475" lon="-3.6612742319497995"><ele>905.0</ele><time>2026-05-03T07:43:45Z</time></trkpt><trkpt lat="42.297569678921576" lon="-3.66113795324881"><ele>905.0</ele><time>2026-05-03T07:43:46Z</time></trkpt><trkpt lat="42.29753216653817" lon="-3.660998547048394"><ele>905.0</ele><time>2026-05-03T07:43:47Z</time></trkpt><trkpt lat="42.29747742685481" lon="-3.660866367012223"><ele>905.0</ele><time>2026-05-03T07:43:48Z</time></trkpt><trkpt lat="42.2974133412174" lon="-3.660757197381711"><ele>906.0</ele><time>2026-05-03T07:43:49Z</time></trkpt><trkpt lat="42.297335394801145" lon="-3.660651381941333"><ele>907.0</ele><time>2026-05-03T07:43:50Z</time></trkpt><trkpt lat="42.29726895021633" lon="-3.660539116533465"><ele>908.0</ele><time>2026-05-03T07:43:51Z</time></trkpt><trkpt lat="42.29722106627588" lon="-3.6604065615193178"><ele>909.0</ele><time>2026-05-03T07:43:52Z</time></trkpt><trkpt lat="42.29715888887607" lon="-3.660285015207108"><ele>910.0</ele><time>2026-05-03T07:43:53Z</time></trkpt><trkpt lat="42.29710743869917" lon="-3.6601479011907547"><ele>907.5</ele><time>2026-05-03T07:43:54Z</time></trkpt><trkpt lat="42.29706449428149" lon="-3.6600082653135617"><ele>905.0</ele><time>2026-05-03T07:43:55Z</time></trkpt><trkpt lat="42.29702680277863" lon="-3.6598630796940697"><ele>902.5</ele><time>2026-05-03T07:43:56Z</time></trkpt><trkpt lat="42.29698898341379" lon="-3.6597232319620967"><ele>900.0</ele><time>2026-05-03T07:43:57Z</time></trkpt><trkpt lat="42.29695157938736" lon="-3.6595777188666276"><ele>900.2</ele><time>2026-05-03T07:43:58Z</time></trkpt><trkpt lat="42.29691787162912" lon="-3.659436757931139"><ele>900.4</ele><time>2026-05-03T07:43:59Z</time></trkpt><trkpt lat="42.296886784571385" lon="-3.6592935017018866"><ele>900.5999999999999</ele><time>2026-05-03T07:44:00Z</time></trkpt><trkpt lat="42.296863913225685" lon="-3.659150740003002"><ele>900.8</ele><time>2026-05-03T07:44:01Z</time></trkpt><trkpt lat="42.29685852433133" lon="-3.6590018512073534"><ele>901.0</ele><time>2026-05-03T07:44:02Z</time></trkpt><trkpt lat="42.29684870752126" lon="-3.658855372314967"><ele>901.0</ele><time>2026-05-03T07:44:03Z</time></trkpt><trkpt lat="42.29683752287031" lon="-3.6587088600129642"><ele>900.9999999999999</ele><time>2026-05-03T07:44:04Z</time></trkpt><trkpt lat="42.296826622564694" lon="-3.6585634004527123"><ele>900.9999999999999</ele><time>2026-05-03T07:44:05Z</time></trkpt><trkpt lat="42.296816976695105" lon="-3.6584182722520313"><ele>901.0</ele><time>2026-05-03T07:44:06Z</time></trkpt><trkpt lat="42.29680532485168" lon="-3.6582736125981308"><ele>901.0</ele><time>2026-05-03T07:44:07Z</time></trkpt><trkpt lat="42.29679494191098" lon="-3.658127956064304"><ele>901.8</ele><time>2026-05-03T07:44:08Z</time></trkpt><trkpt lat="42.296784623273695" lon="-3.6579859059746327"><ele>902.5999999999999</ele><time>2026-05-03T07:44:09Z</time></trkpt><trkpt lat="42.296769348735936" lon="-3.6578422438883105"><ele>903.4</ele><time>2026-05-03T07:44:10Z</time></trkpt><trkpt lat="42.29675253813999" lon="-3.6576999939618964"><ele>904.2</ele><time>2026-05-03T07:44:11.001Z</time></trkpt><trkpt lat="42.29673856460229" lon="-3.6575548901076376"><ele>905.0</ele><time>2026-05-03T07:44:12.001Z</time></trkpt><trkpt lat="42.296721092133" lon="-3.6574130871998056"><ele>905.4</ele><time>2026-05-03T07:44:13.001Z</time></trkpt><trkpt lat="42.296697521305404" lon="-3.6572727819921673"><ele>905.8</ele><time>2026-05-03T07:44:14.001Z</time></trkpt><trkpt lat="42.29667164298609" lon="-3.6571345189542868"><ele>906.2</ele><time>2026-05-03T07:44:15.001Z</time></trkpt><trkpt lat="42.296641891148454" lon="-3.6569941883179684"><ele>906.6</ele><time>2026-05-03T07:44:16.001Z</time></trkpt><trkpt lat="42.29658722961964" lon="-3.6568658694001397"><ele>907.0</ele><time>2026-05-03T07:44:17.001Z</time></trkpt><trkpt lat="42.296539509686326" lon="-3.6567415712096887"><ele>906.4999999999999</ele><time>2026-05-03T07:44:18.001Z</time></trkpt><trkpt lat="42.29649172432393" lon="-3.656633797344457"><ele>906.0</ele><time>2026-05-03T07:44:19.001Z</time></trkpt><trkpt lat="42.29645258058213" lon="-3.656527229658875"><ele>905.5</ele><time>2026-05-03T07:44:20.001Z</time></trkpt><trkpt lat="42.29639749552144" lon="-3.656439429555764"><ele>905.0</ele><time>2026-05-03T07:44:21.001Z</time></trkpt><trkpt lat="42.29634035746572" lon="-3.6563417789469885"><ele>904.4999999999999</ele><time>2026-05-03T07:44:22.001Z</time></trkpt><trkpt lat="42.29628102344439" lon="-3.656247945439643"><ele>904.0</ele><time>2026-05-03T07:44:23.001Z</time></trkpt><trkpt lat="42.296218655867136" lon="-3.656155080793719"><ele>904.6</ele><time>2026-05-03T07:44:24.001Z</time></trkpt><trkpt lat="42.29613806889357" lon="-3.6560745691302925"><ele>905.2</ele><time>2026-05-03T07:44:25.001Z</time></trkpt><trkpt lat="42.29606440722537" lon="-3.6559873547147936"><ele>905.8000000000001</ele><time>2026-05-03T07:44:26.001Z</time></trkpt><trkpt lat="42.295986878374954" lon="-3.655910124768981"><ele>906.4000000000001</ele><time>2026-05-03T07:44:27.001Z</time></trkpt><trkpt lat="42.295903819679104" lon="-3.655833872922864"><ele>907.0</ele><time>2026-05-03T07:44:28.001Z</time></trkpt><trkpt lat="42.29582256652603" lon="-3.6557599657408293"><ele>907.0</ele><time>2026-05-03T07:44:29.001Z</time></trkpt><trkpt lat="42.29573891596978" lon="-3.6556863892228195"><ele>907.0</ele><time>2026-05-03T07:44:30.001Z</time></trkpt><trkpt lat="42.29565468974627" lon="-3.655612264071027"><ele>907.0</ele><time>2026-05-03T07:44:31.001Z</time></trkpt><trkpt lat="42.29558109223697" lon="-3.6555176416960937"><ele>907.0</ele><time>2026-05-03T07:44:32.001Z</time></trkpt><trkpt lat="42.29549017962563" lon="-3.6554598828729543"><ele>907.0</ele><time>2026-05-03T07:44:33.001Z</time></trkpt><trkpt lat="42.29540849887173" lon="-3.6553827714805505"><ele>906.8</ele><time>2026-05-03T07:44:34.001Z</time></trkpt><trkpt lat="42.2953243752299" lon="-3.655301490785623"><ele>906.6</ele><time>2026-05-03T07:44:35.001Z</time></trkpt><trkpt lat="42.29524286189742" lon="-3.655216967709274"><ele>906.3999999999999</ele><time>2026-05-03T07:44:36.001Z</time></trkpt><trkpt lat="42.29516079443193" lon="-3.655131869994162"><ele>906.1999999999999</ele><time>2026-05-03T07:44:37.001Z</time></trkpt><trkpt lat="42.29508084449205" lon="-3.6550489681818226"><ele>906.0</ele><time>2026-05-03T07:44:38.001Z</time></trkpt><trkpt lat="42.29499675934893" lon="-3.65496335548054"><ele>906.0</ele><time>2026-05-03T07:44:39.001Z</time></trkpt><trkpt lat="42.29491181032572" lon="-3.6548770269984048"><ele>905.9999999999999</ele><time>2026-05-03T07:44:40.001Z</time></trkpt><trkpt lat="42.29482836349435" lon="-3.654792225243488"><ele>905.9999999999999</ele><time>2026-05-03T07:44:41.001Z</time></trkpt><trkpt lat="42.29474331027538" lon="-3.654704470037953"><ele>906.0</ele><time>2026-05-03T07:44:42.001Z</time></trkpt><trkpt lat="42.29466068326898" lon="-3.6546172953306013"><ele>906.0</ele><time>2026-05-03T07:44:43.001Z</time></trkpt><trkpt lat="42.29458802788359" lon="-3.654511778398749"><ele>906.4</ele><time>2026-05-03T07:44:44.001Z</time></trkpt><trkpt lat="42.29451042771683" lon="-3.6544158471859065"><ele>906.8</ele><time>2026-05-03T07:44:45.001Z</time></trkpt><trkpt lat="42.29442920237759" lon="-3.6543181068740953"><ele>907.1999999999999</ele><time>2026-05-03T07:44:46.001Z</time></trkpt><trkpt lat="42.294357790682156" lon="-3.654207886705175"><ele>907.5999999999999</ele><time>2026-05-03T07:44:47.001Z</time></trkpt><trkpt lat="42.29428782128191" lon="-3.6541030014216145"><ele>908.0</ele><time>2026-05-03T07:44:48.001Z</time></trkpt><trkpt lat="42.29421083960722" lon="-3.6539949488724695"><ele>908.0</ele><time>2026-05-03T07:44:49.001Z</time></trkpt><trkpt lat="42.29413540191484" lon="-3.6538874306448856"><ele>908.0</ele><time>2026-05-03T07:44:50.001Z</time></trkpt><trkpt lat="42.29405564443377" lon="-3.6537820070848315"><ele>908.0</ele><time>2026-05-03T07:44:51.001Z</time></trkpt><trkpt lat="42.29398715017224" lon="-3.6536712122099395"><ele>908.0</ele><time>2026-05-03T07:44:52.001Z</time></trkpt><trkpt lat="42.29391790468784" lon="-3.653558579393374"><ele>908.0</ele><time>2026-05-03T07:44:53.001Z</time></trkpt><trkpt lat="42.29386088371909" lon="-3.6534412016818925"><ele>908.0</ele><time>2026-05-03T07:44:54.001Z</time></trkpt><trkpt lat="42.29378935512677" lon="-3.6533088619189007"><ele>908.0</ele><time>2026-05-03T07:44:55.001Z</time></trkpt><trkpt lat="42.29373475387398" lon="-3.653182090856018"><ele>908.0</ele><time>2026-05-03T07:44:56.001Z</time></trkpt><trkpt lat="42.293687620167084" lon="-3.6530395263021758"><ele>908.0</ele><time>2026-05-03T07:44:57.001Z</time></trkpt><trkpt lat="42.293641236570956" lon="-3.6529004611109506"><ele>908.2</ele><time>2026-05-03T07:44:58.001Z</time></trkpt><trkpt lat="42.29359599581741" lon="-3.652762204276852"><ele>908.4</ele><time>2026-05-03T07:44:59.001Z</time></trkpt><trkpt lat="42.293556123318254" lon="-3.652623877489686"><ele>908.6000000000001</ele><time>2026-05-03T07:45:00.001Z</time></trkpt><trkpt lat="42.29351811081047" lon="-3.652489279997973"><ele>908.8000000000001</ele><time>2026-05-03T07:45:01.001Z</time></trkpt><trkpt lat="42.29347079663865" lon="-3.6523558487035137"><ele>909.0</ele><time>2026-05-03T07:45:02.001Z</time></trkpt><trkpt lat="42.29342780438162" lon="-3.6522197392520095"><ele>909.0</ele><time>2026-05-03T07:45:03.001Z</time></trkpt><trkpt lat="42.293386819487154" lon="-3.65208227664479"><ele>909.0000000000001</ele><time>2026-05-03T07:45:04.001Z</time></trkpt><trkpt lat="42.29334411424383" lon="-3.6519435227733137"><ele>909.0000000000001</ele><time>2026-05-03T07:45:05.001Z</time></trkpt><trkpt lat="42.293303492272614" lon="-3.6518073654382293"><ele>909.0</ele><time>2026-05-03T07:45:06.001Z</time></trkpt><trkpt lat="42.29326078047367" lon="-3.651671494501067"><ele>909.0</ele><time>2026-05-03T07:45:07.001Z</time></trkpt><trkpt lat="42.29321751316573" lon="-3.651539484894164"><ele>909.8000000000001</ele><time>2026-05-03T07:45:08.001Z</time></trkpt><trkpt lat="42.29317712197953" lon="-3.651408935603883"><ele>910.6000000000001</ele><time>2026-05-03T07:45:09.001Z</time></trkpt><trkpt lat="42.29313606421672" lon="-3.6512814561537663"><ele>911.4</ele><time>2026-05-03T07:45:10.001Z</time></trkpt><trkpt lat="42.293096658034585" lon="-3.6511545346645025"><ele>912.2</ele><time>2026-05-03T07:45:11.001Z</time></trkpt><trkpt lat="42.29305890371119" lon="-3.6510309310987203"><ele>913.0</ele><time>2026-05-03T07:45:12.001Z</time></trkpt><trkpt lat="42.29301973520237" lon="-3.650904812463758"><ele>913.0</ele><time>2026-05-03T07:45:13.001Z</time></trkpt><trkpt lat="42.29297955558675" lon="-3.6507780513926567"><ele>913.0</ele><time>2026-05-03T07:45:14.001Z</time></trkpt><trkpt lat="42.29294093668936" lon="-3.6506507921422053"><ele>913.0</ele><time>2026-05-03T07:45:15.001Z</time></trkpt><trkpt lat="42.29290522877668" lon="-3.6505254367772246"><ele>913.0</ele><time>2026-05-03T07:45:16.001Z</time></trkpt><trkpt lat="42.292870710186435" lon="-3.6504021885457676"><ele>913.0</ele><time>2026-05-03T07:45:17.001Z</time></trkpt><trkpt lat="42.29283667512159" lon="-3.650281399785913"><ele>913.0</ele><time>2026-05-03T07:45:18.001Z</time></trkpt><trkpt lat="42.29279806174425" lon="-3.6501529282506806"><ele>913.0</ele><time>2026-05-03T07:45:19.001Z</time></trkpt><trkpt lat="42.29276110823583" lon="-3.650019417863335"><ele>913.0</ele><time>2026-05-03T07:45:20.001Z</time></trkpt><trkpt lat="42.2927256208419" lon="-3.6498816360445443"><ele>913.0</ele><time>2026-05-03T07:45:21.001Z</time></trkpt><trkpt lat="42.292689306295074" lon="-3.649743522446211"><ele>913.0</ele><time>2026-05-03T07:45:22.001Z</time></trkpt><trkpt lat="42.292649743570145" lon="-3.6495909313484307"><ele>914.0</ele><time>2026-05-03T07:45:23.001Z</time></trkpt><trkpt lat="42.292621741177626" lon="-3.6494577173875884"><ele>915.0</ele><time>2026-05-03T07:45:24.001Z</time></trkpt><trkpt lat="42.2925999117919" lon="-3.649301535450541"><ele>916.0</ele><time>2026-05-03T07:45:25.001Z</time></trkpt><trkpt lat="42.29258192074288" lon="-3.6491459220129565"><ele>917.0</ele><time>2026-05-03T07:45:26.001Z</time></trkpt><trkpt lat="42.29257361271219" lon="-3.6489907691718826"><ele>917.0</ele><time>2026-05-03T07:45:27.001Z</time></trkpt><trkpt lat="42.2925676801212" lon="-3.6488352745040347"><ele>917.0</ele><time>2026-05-03T07:45:28.001Z</time></trkpt><trkpt lat="42.29255271893277" lon="-3.6486818824735656"><ele>917.0</ele><time>2026-05-03T07:45:29.001Z</time></trkpt><trkpt lat="42.29254170185086" lon="-3.6485301084594024"><ele>917.0</ele><time>2026-05-03T07:45:30.001Z</time></trkpt><trkpt lat="42.29253167246738" lon="-3.6483803360593132"><ele>917.25</ele><time>2026-05-03T07:45:31.001Z</time></trkpt><trkpt lat="42.29251073015294" lon="-3.6482224927481877"><ele>917.5</ele><time>2026-05-03T07:45:32.001Z</time></trkpt><trkpt lat="42.292473456458794" lon="-3.6480890896861617"><ele>917.75</ele><time>2026-05-03T07:45:33.001Z</time></trkpt><trkpt lat="42.29240425524813" lon="-3.6479620226560514"><ele>918.0</ele><time>2026-05-03T07:45:34.001Z</time></trkpt><trkpt lat="42.29228268508816" lon="-3.647832559736768"><ele>917.0</ele><time>2026-05-03T07:45:35.001Z</time></trkpt><trkpt lat="42.292182223802726" lon="-3.647711691014814"><ele>916.0</ele><time>2026-05-03T07:45:36.001Z</time></trkpt><trkpt lat="42.292066332585826" lon="-3.6476070829797695"><ele>915.0</ele><time>2026-05-03T07:45:38.001Z</time></trkpt><trkpt lat="42.29197753387708" lon="-3.647528156480642"><ele>914.0</ele><time>2026-05-03T07:45:39.001Z</time></trkpt><trkpt lat="42.29189655943651" lon="-3.647457357947321"><ele>914.0</ele><time>2026-05-03T07:45:40.001Z</time></trkpt><trkpt lat="42.291821265357854" lon="-3.647392362287342"><ele>914.0000000000001</ele><time>2026-05-03T07:45:41.001Z</time></trkpt><trkpt lat="42.29174924351545" lon="-3.64732402783549"><ele>914.0000000000001</ele><time>2026-05-03T07:45:42.001Z</time></trkpt><trkpt lat="42.29170145110431" lon="-3.647251089298942"><ele>914.0</ele><time>2026-05-03T07:45:43.001Z</time></trkpt><trkpt lat="42.29160079945069" lon="-3.647222775830957"><ele>914.0</ele><time>2026-05-03T07:45:45Z</time></trkpt><trkpt lat="42.2915379610012" lon="-3.6473724873475017"><ele>914.0000000000001</ele><time>2026-05-03T07:45:46Z</time></trkpt><trkpt lat="42.29146690075815" lon="-3.6474225377880782"><ele>914.0</ele><time>2026-05-03T07:45:47Z</time></trkpt><trkpt lat="42.29139477857513" lon="-3.6474733361348224"><ele>914.0</ele><time>2026-05-03T07:45:48Z</time></trkpt><trkpt lat="42.29132332829986" lon="-3.6475228040823393"><ele>914.0</ele><time>2026-05-03T07:45:49Z</time></trkpt><trkpt lat="42.29125074938334" lon="-3.647573007463134"><ele>914.0000000000001</ele><time>2026-05-03T07:45:50Z</time></trkpt><trkpt lat="42.291176670182864" lon="-3.6476243363243563"><ele>914.0</ele><time>2026-05-03T07:45:51Z</time></trkpt><trkpt lat="42.29110383657206" lon="-3.6476748021544334"><ele>914.5000000000001</ele><time>2026-05-03T07:45:52Z</time></trkpt><trkpt lat="42.291029095090536" lon="-3.647726589899459"><ele>915.0</ele><time>2026-05-03T07:45:53Z</time></trkpt><trkpt lat="42.290958427059536" lon="-3.647775555224076"><ele>915.5</ele><time>2026-05-03T07:45:54Z</time></trkpt><trkpt lat="42.290888690007556" lon="-3.6478238754880903"><ele>916.0</ele><time>2026-05-03T07:45:55Z</time></trkpt><trkpt lat="42.290820709464136" lon="-3.6478709786982275"><ele>916.5000000000001</ele><time>2026-05-03T07:45:56Z</time></trkpt><trkpt lat="42.290754075178796" lon="-3.6479171490567106"><ele>917.0</ele><time>2026-05-03T07:45:57Z</time></trkpt><trkpt lat="42.290687866819155" lon="-3.647963415154938"><ele>917.5714285714286</ele><time>2026-05-03T07:45:58Z</time></trkpt><trkpt lat="42.29062126431139" lon="-3.648011972213229"><ele>918.1428571428571</ele><time>2026-05-03T07:45:59Z</time></trkpt><trkpt lat="42.29055334238433" lon="-3.648041689851061"><ele>918.7142857142858</ele><time>2026-05-03T07:46:00Z</time></trkpt><trkpt lat="42.29048979497318" lon="-3.648094137240759"><ele>919.2857142857143</ele><time>2026-05-03T07:46:01Z</time></trkpt><trkpt lat="42.29043032546831" lon="-3.6481517088675757"><ele>919.8571428571429</ele><time>2026-05-03T07:46:02Z</time></trkpt><trkpt lat="42.29037515144979" lon="-3.648215068804577"><ele>920.4285714285716</ele><time>2026-05-03T07:46:03Z</time></trkpt><trkpt lat="42.29032282617829" lon="-3.648281641082457"><ele>921.0000000000001</ele><time>2026-05-03T07:46:04Z</time></trkpt><trkpt lat="42.29027658214678" lon="-3.6483537329827684"><ele>922.2857142857144</ele><time>2026-05-03T07:46:05Z</time></trkpt><trkpt lat="42.290233521280776" lon="-3.648427577458552"><ele>923.5714285714287</ele><time>2026-05-03T07:46:06Z</time></trkpt><trkpt lat="42.2901969671634" lon="-3.6485056904045505"><ele>924.8571428571429</ele><time>2026-05-03T07:46:07Z</time></trkpt><trkpt lat="42.2901587541303" lon="-3.648578373257382"><ele>926.1428571428572</ele><time>2026-05-03T07:46:08Z</time></trkpt><trkpt lat="42.29012001225569" lon="-3.648652936936328"><ele>927.4285714285716</ele><time>2026-05-03T07:46:09Z</time></trkpt><trkpt lat="42.29008170340742" lon="-3.6487259714549807"><ele>928.7142857142857</ele><time>2026-05-03T07:46:10Z</time></trkpt><trkpt lat="42.29004279047784" lon="-3.6488008416553774"><ele>930.0</ele><time>2026-05-03T07:46:11Z</time></trkpt><trkpt lat="42.29000967461436" lon="-3.6488766668866472"><ele>930.2857142857142</ele><time>2026-05-03T07:46:12Z</time></trkpt><trkpt lat="42.28997687352574" lon="-3.64895773309467"><ele>930.5714285714287</ele><time>2026-05-03T07:46:13Z</time></trkpt><trkpt lat="42.2899635870031" lon="-3.6490493812385907"><ele>930.8571428571429</ele><time>2026-05-03T07:46:14Z</time></trkpt><trkpt lat="42.289976249422786" lon="-3.6491451138671938"><ele>931.1428571428571</ele><time>2026-05-03T07:46:15Z</time></trkpt><trkpt lat="42.289997166743056" lon="-3.649239697217841"><ele>931.4285714285713</ele><time>2026-05-03T07:46:16Z</time></trkpt><trkpt lat="42.290022028332345" lon="-3.6493302851852425"><ele>931.7142857142858</ele><time>2026-05-03T07:46:17Z</time></trkpt><trkpt lat="42.29004298528648" lon="-3.6494211921054758"><ele>932.0</ele><time>2026-05-03T07:46:18Z</time></trkpt><trkpt lat="42.290045756831944" lon="-3.6495149428418348"><ele>932.2857142857143</ele><time>2026-05-03T07:46:19Z</time></trkpt><trkpt lat="42.29002687836958" lon="-3.649605164660876"><ele>932.5714285714284</ele><time>2026-05-03T07:46:20Z</time></trkpt><trkpt lat="42.28999179715756" lon="-3.649688951986762"><ele>932.8571428571428</ele><time>2026-05-03T07:46:21Z</time></trkpt><trkpt lat="42.289946178198086" lon="-3.6497550229442455"><ele>933.1428571428571</ele><time>2026-05-03T07:46:22Z</time></trkpt><trkpt lat="42.2898952584324" lon="-3.6498161176003974"><ele>933.4285714285713</ele><time>2026-05-03T07:46:23Z</time></trkpt><trkpt lat="42.28984087163162" lon="-3.649875723730638"><ele>933.7142857142856</ele><time>2026-05-03T07:46:24Z</time></trkpt><trkpt lat="42.28979604193518" lon="-3.649955993332184"><ele>933.9999999999999</ele><time>2026-05-03T07:46:25Z</time></trkpt><trkpt lat="42.28974250271844" lon="-3.650016366336846"><ele>934.9999999999999</ele><time>2026-05-03T07:46:26Z</time></trkpt><trkpt lat="42.28969141164493" lon="-3.650073978727093"><ele>936.0</ele><time>2026-05-03T07:46:27Z</time></trkpt><trkpt lat="42.28963747259771" lon="-3.650134802500143"><ele>936.9999999999999</ele><time>2026-05-03T07:46:28Z</time></trkpt><trkpt lat="42.289583776376205" lon="-3.6501960982641988"><ele>937.9999999999999</ele><time>2026-05-03T07:46:29Z</time></trkpt><trkpt lat="42.2895332531118" lon="-3.650256589722916"><ele>939.0</ele><time>2026-05-03T07:46:30Z</time></trkpt><trkpt lat="42.28948083242724" lon="-3.6503182609663294"><ele>939.9999999999999</ele><time>2026-05-03T07:46:31Z</time></trkpt><trkpt lat="42.289430079095546" lon="-3.650375836352883"><ele>940.9999999999999</ele><time>2026-05-03T07:46:32Z</time></trkpt><trkpt lat="42.28937414543046" lon="-3.6504370628881793"><ele>941.0000000000001</ele><time>2026-05-03T07:46:33Z</time></trkpt><trkpt lat="42.28931906427257" lon="-3.6504920999089916"><ele>941.0</ele><time>2026-05-03T07:46:34Z</time></trkpt><trkpt lat="42.28924763926304" lon="-3.650541404291344"><ele>941.0</ele><time>2026-05-03T07:46:35Z</time></trkpt><trkpt lat="42.289179649339275" lon="-3.650570717923515"><ele>941.0</ele><time>2026-05-03T07:46:36Z</time></trkpt><trkpt lat="42.28910454473081" lon="-3.6505925404762496"><ele>941.0000000000001</ele><time>2026-05-03T07:46:37Z</time></trkpt><trkpt lat="42.28902712650092" lon="-3.6506144051703244"><ele>941.0</ele><time>2026-05-03T07:46:38Z</time></trkpt><trkpt lat="42.28894512615188" lon="-3.650636211143765"><ele>940.8</ele><time>2026-05-03T07:46:39Z</time></trkpt><trkpt lat="42.28886013475969" lon="-3.6506577852314583"><ele>940.5999999999999</ele><time>2026-05-03T07:46:40Z</time></trkpt><trkpt lat="42.288771607715645" lon="-3.650680080831543"><ele>940.4</ele><time>2026-05-03T07:46:41Z</time></trkpt><trkpt lat="42.288681489099304" lon="-3.650702328221546"><ele>940.2</ele><time>2026-05-03T07:46:42Z</time></trkpt><trkpt lat="42.28859039318523" lon="-3.6507248168368744"><ele>940.0</ele><time>2026-05-03T07:46:43Z</time></trkpt><trkpt lat="42.28849868568384" lon="-3.6507474564645994"><ele>940.0</ele><time>2026-05-03T07:46:44Z</time></trkpt><trkpt lat="42.28840135437166" lon="-3.650771458009278"><ele>940.0</ele><time>2026-05-03T07:46:45Z</time></trkpt><trkpt lat="42.28830298956255" lon="-3.6507956135732123"><ele>940.0</ele><time>2026-05-03T07:46:46Z</time></trkpt><trkpt lat="42.28820210232024" lon="-3.6508203885856454"><ele>940.0</ele><time>2026-05-03T07:46:47.001Z</time></trkpt><trkpt lat="42.28810311723431" lon="-3.6508446964289063"><ele>940.0</ele><time>2026-05-03T07:46:48.001Z</time></trkpt><trkpt lat="42.28799759404581" lon="-3.6508708734301534"><ele>940.4</ele><time>2026-05-03T07:46:49.001Z</time></trkpt><trkpt lat="42.287894996260285" lon="-3.6508963480025525"><ele>940.8</ele><time>2026-05-03T07:46:50.001Z</time></trkpt><trkpt lat="42.2877902109634" lon="-3.6509223658015406"><ele>941.2</ele><time>2026-05-03T07:46:51.001Z</time></trkpt><trkpt lat="42.28768642334666" lon="-3.6509481358232923"><ele>941.6</ele><time>2026-05-03T07:46:52.001Z</time></trkpt><trkpt lat="42.28757909070469" lon="-3.6509731223208672"><ele>942.0</ele><time>2026-05-03T07:46:53.001Z</time></trkpt><trkpt lat="42.2874695331886" lon="-3.6509951941970047"><ele>942.0</ele><time>2026-05-03T07:46:54.001Z</time></trkpt><trkpt lat="42.28736031890717" lon="-3.651010612513887"><ele>942.0</ele><time>2026-05-03T07:46:55.001Z</time></trkpt><trkpt lat="42.287252825311654" lon="-3.6510176789808804"><ele>942.0</ele><time>2026-05-03T07:46:56.001Z</time></trkpt><trkpt lat="42.28714270742728" lon="-3.6510235710154033"><ele>942.0</ele><time>2026-05-03T07:46:57.001Z</time></trkpt><trkpt lat="42.287032891354734" lon="-3.6510294468807785"><ele>942.0</ele><time>2026-05-03T07:46:58.001Z</time></trkpt><trkpt lat="42.286925520320594" lon="-3.651035191932936"><ele>942.2</ele><time>2026-05-03T07:46:59.001Z</time></trkpt><trkpt lat="42.286816858733104" lon="-3.651041004281924"><ele>942.4000000000001</ele><time>2026-05-03T07:47:00.001Z</time></trkpt><trkpt lat="42.28670708409447" lon="-3.651046877945077"><ele>942.5999999999999</ele><time>2026-05-03T07:47:01.001Z</time></trkpt><trkpt lat="42.286598922715086" lon="-3.6510507087377775"><ele>942.8</ele><time>2026-05-03T07:47:02.001Z</time></trkpt><trkpt lat="42.28649214032801" lon="-3.6510545232511644"><ele>943.0</ele><time>2026-05-03T07:47:03.001Z</time></trkpt><trkpt lat="42.28638775401951" lon="-3.6510588457981785"><ele>943.0</ele><time>2026-05-03T07:47:04.001Z</time></trkpt><trkpt lat="42.28628392547221" lon="-3.6510659656716213"><ele>943.0</ele><time>2026-05-03T07:47:05.001Z</time></trkpt><trkpt lat="42.28618375407999" lon="-3.6510845130760003"><ele>943.0</ele><time>2026-05-03T07:47:06.001Z</time></trkpt><trkpt lat="42.28608425502975" lon="-3.6511201930853154"><ele>943.0</ele><time>2026-05-03T07:47:07.001Z</time></trkpt><trkpt lat="42.28599070882773" lon="-3.651179676173445"><ele>943.0</ele><time>2026-05-03T07:47:08.001Z</time></trkpt><trkpt lat="42.28590427604378" lon="-3.6512493298644717"><ele>942.4</ele><time>2026-05-03T07:47:09.001Z</time></trkpt><trkpt lat="42.28580793957988" lon="-3.651320341350458"><ele>941.8</ele><time>2026-05-03T07:47:10.001Z</time></trkpt><trkpt lat="42.28572732726274" lon="-3.6514075056898165"><ele>941.2</ele><time>2026-05-03T07:47:11.001Z</time></trkpt><trkpt lat="42.28565062058113" lon="-3.651501933404688"><ele>940.6</ele><time>2026-05-03T07:47:12.001Z</time></trkpt><trkpt lat="42.285582359295184" lon="-3.65161209316907"><ele>940.0</ele><time>2026-05-03T07:47:13.001Z</time></trkpt><trkpt lat="42.28550572116205" lon="-3.6517043520445016"><ele>940.2</ele><time>2026-05-03T07:47:14.001Z</time></trkpt><trkpt lat="42.28543231196156" lon="-3.651791752734035"><ele>940.4</ele><time>2026-05-03T07:47:15.001Z</time></trkpt><trkpt lat="42.28535653642727" lon="-3.6518782624463197"><ele>940.5999999999999</ele><time>2026-05-03T07:47:16.001Z</time></trkpt><trkpt lat="42.28527168068417" lon="-3.6519480477913753"><ele>940.8</ele><time>2026-05-03T07:47:17.001Z</time></trkpt><trkpt lat="42.28519849386561" lon="-3.6520351895830525"><ele>941.0</ele><time>2026-05-03T07:47:18.001Z</time></trkpt><trkpt lat="42.28512642704166" lon="-3.6521231831901"><ele>941.0</ele><time>2026-05-03T07:47:19.001Z</time></trkpt><trkpt lat="42.285050987704295" lon="-3.65220510252342"><ele>940.9999999999999</ele><time>2026-05-03T07:47:20.001Z</time></trkpt><trkpt lat="42.28497108541121" lon="-3.652270698169732"><ele>940.9999999999999</ele><time>2026-05-03T07:47:21.001Z</time></trkpt><trkpt lat="42.28489329354732" lon="-3.652362409477898"><ele>941.0</ele><time>2026-05-03T07:47:22.001Z</time></trkpt><trkpt lat="42.28480702362084" lon="-3.6524286996613027"><ele>941.0</ele><time>2026-05-03T07:47:23.001Z</time></trkpt><trkpt lat="42.284720485609355" lon="-3.6524857441282226"><ele>942.1999999999999</ele><time>2026-05-03T07:47:24.001Z</time></trkpt><trkpt lat="42.2846339291217" lon="-3.6525386300212235"><ele>943.3999999999999</ele><time>2026-05-03T07:47:25.001Z</time></trkpt><trkpt lat="42.284543468391284" lon="-3.652590805349481"><ele>944.6</ele><time>2026-05-03T07:47:26.001Z</time></trkpt><trkpt lat="42.2844520860371" lon="-3.652643512179554"><ele>945.8</ele><time>2026-05-03T07:47:27.001Z</time></trkpt><trkpt lat="42.28436353794972" lon="-3.652694584354635"><ele>947.0</ele><time>2026-05-03T07:47:28.001Z</time></trkpt><trkpt lat="42.28427475137344" lon="-3.652745627433367"><ele>946.8</ele><time>2026-05-03T07:47:29.001Z</time></trkpt><trkpt lat="42.28418585714412" lon="-3.652795199816139"><ele>946.6</ele><time>2026-05-03T07:47:30.001Z</time></trkpt><trkpt lat="42.28408908853811" lon="-3.652825618286158"><ele>946.3999999999999</ele><time>2026-05-03T07:47:31.001Z</time></trkpt><trkpt lat="42.28400482100484" lon="-3.6528960656092213"><ele>946.1999999999999</ele><time>2026-05-03T07:47:32.001Z</time></trkpt><trkpt lat="42.28391712602502" lon="-3.6529474864810263"><ele>946.0</ele><time>2026-05-03T07:47:33.001Z</time></trkpt><trkpt lat="42.28382419938989" lon="-3.652978667380676"><ele>946.5999999999999</ele><time>2026-05-03T07:47:34.001Z</time></trkpt><trkpt lat="42.28374018858005" lon="-3.653029820085459"><ele>947.1999999999999</ele><time>2026-05-03T07:47:35.001Z</time></trkpt><trkpt lat="42.28365394459697" lon="-3.653084605407976"><ele>947.8000000000001</ele><time>2026-05-03T07:47:36.001Z</time></trkpt><trkpt lat="42.283568179777006" lon="-3.65313941504082"><ele>948.4000000000001</ele><time>2026-05-03T07:47:37.001Z</time></trkpt><trkpt lat="42.28347979324564" lon="-3.653184400134085"><ele>949.0</ele><time>2026-05-03T07:47:38.001Z</time></trkpt><trkpt lat="42.283397420847116" lon="-3.653233517302376"><ele>949.0</ele><time>2026-05-03T07:47:39.001Z</time></trkpt><trkpt lat="42.28331856014611" lon="-3.6533045954839274"><ele>949.0000000000001</ele><time>2026-05-03T07:47:40.001Z</time></trkpt><trkpt lat="42.28323329006475" lon="-3.6533536617148514"><ele>949.0000000000001</ele><time>2026-05-03T07:47:41Z</time></trkpt><trkpt lat="42.28314487013446" lon="-3.653401092913113"><ele>949.0</ele><time>2026-05-03T07:47:42Z</time></trkpt><trkpt lat="42.283059743934345" lon="-3.6534416561409504"><ele>949.0</ele><time>2026-05-03T07:47:43Z</time></trkpt><trkpt lat="42.28296939689687" lon="-3.6534827339917717"><ele>949.4000000000001</ele><time>2026-05-03T07:47:44Z</time></trkpt><trkpt lat="42.28288077562328" lon="-3.6535231365091616"><ele>949.8000000000001</ele><time>2026-05-03T07:47:45Z</time></trkpt><trkpt lat="42.28279213015832" lon="-3.653565188237163"><ele>950.1999999999999</ele><time>2026-05-03T07:47:46Z</time></trkpt><trkpt lat="42.28270289075311" lon="-3.6536060790569067"><ele>950.5999999999999</ele><time>2026-05-03T07:47:47Z</time></trkpt><trkpt lat="42.28261181164213" lon="-3.653646657060447"><ele>951.0</ele><time>2026-05-03T07:47:48Z</time></trkpt><trkpt lat="42.28251916027038" lon="-3.6536850308632602"><ele>951.0</ele><time>2026-05-03T07:47:49Z</time></trkpt><trkpt lat="42.28242545560689" lon="-3.6537238408744237"><ele>950.9999999999999</ele><time>2026-05-03T07:47:50Z</time></trkpt><trkpt lat="42.282335002420375" lon="-3.653761304322116"><ele>950.9999999999999</ele><time>2026-05-03T07:47:51Z</time></trkpt><trkpt lat="42.282240981558886" lon="-3.653799285711862"><ele>951.0</ele><time>2026-05-03T07:47:52Z</time></trkpt><trkpt lat="42.2821364179122" lon="-3.6538202451616293"><ele>951.0</ele><time>2026-05-03T07:47:53Z</time></trkpt><trkpt lat="42.282043510875205" lon="-3.6538615521787485"><ele>951.5999999999999</ele><time>2026-05-03T07:47:54Z</time></trkpt><trkpt lat="42.28194449206188" lon="-3.6539004936260184"><ele>952.1999999999999</ele><time>2026-05-03T07:47:55Z</time></trkpt><trkpt lat="42.281852075115566" lon="-3.6539391098619007"><ele>952.8000000000001</ele><time>2026-05-03T07:47:56Z</time></trkpt><trkpt lat="42.2817577330781" lon="-3.654002149852933"><ele>953.4000000000001</ele><time>2026-05-03T07:47:57Z</time></trkpt><trkpt lat="42.28165765959009" lon="-3.654022794948286"><ele>954.0</ele><time>2026-05-03T07:47:58Z</time></trkpt><trkpt lat="42.28155907417997" lon="-3.6540630763053263"><ele>954.0</ele><time>2026-05-03T07:47:59Z</time></trkpt><trkpt lat="42.28146625793036" lon="-3.654123636201291"><ele>954.0000000000001</ele><time>2026-05-03T07:48:00Z</time></trkpt><trkpt lat="42.28136950211699" lon="-3.65416380094281"><ele>954.0000000000001</ele><time>2026-05-03T07:48:01Z</time></trkpt><trkpt lat="42.281272944767025" lon="-3.65420397296291"><ele>954.0</ele><time>2026-05-03T07:48:02Z</time></trkpt><trkpt lat="42.28117786271738" lon="-3.6542435513240203"><ele>954.0</ele><time>2026-05-03T07:48:03Z</time></trkpt><trkpt lat="42.28107461577181" lon="-3.654286528373212"><ele>954.4000000000001</ele><time>2026-05-03T07:48:04Z</time></trkpt><trkpt lat="42.28098571317101" lon="-3.6543236394294474"><ele>954.8000000000001</ele><time>2026-05-03T07:48:05Z</time></trkpt><trkpt lat="42.2808821493555" lon="-3.6543542441157446"><ele>955.1999999999999</ele><time>2026-05-03T07:48:06Z</time></trkpt><trkpt lat="42.280803456177786" lon="-3.654426505933606"><ele>955.5999999999999</ele><time>2026-05-03T07:48:07Z</time></trkpt><trkpt lat="42.2807143781049" lon="-3.6544932310236216"><ele>956.0</ele><time>2026-05-03T07:48:08Z</time></trkpt><trkpt lat="42.28063233089096" lon="-3.6545708107258044"><ele>956.4</ele><time>2026-05-03T07:48:09Z</time></trkpt><trkpt lat="42.28055912061817" lon="-3.6546555716883824"><ele>956.8</ele><time>2026-05-03T07:48:10Z</time></trkpt><trkpt lat="42.280476941719776" lon="-3.654731399949882"><ele>957.1999999999999</ele><time>2026-05-03T07:48:11Z</time></trkpt><trkpt lat="42.280412597212724" lon="-3.6548318390297267"><ele>957.5999999999999</ele><time>2026-05-03T07:48:12Z</time></trkpt><trkpt lat="42.280333715762374" lon="-3.654923444847034"><ele>958.0</ele><time>2026-05-03T07:48:13Z</time></trkpt><trkpt lat="42.28026211115205" lon="-3.6550288644659763"><ele>958.0</ele><time>2026-05-03T07:48:14Z</time></trkpt><trkpt lat="42.28019110943332" lon="-3.655122941312097"><ele>958.0</ele><time>2026-05-03T07:48:15Z</time></trkpt><trkpt lat="42.280116646809105" lon="-3.6552110739298223"><ele>958.0</ele><time>2026-05-03T07:48:16Z</time></trkpt><trkpt lat="42.280042120039454" lon="-3.6553011206542756"><ele>958.0</ele><time>2026-05-03T07:48:17Z</time></trkpt><trkpt lat="42.279965300345026" lon="-3.655388445156806"><ele>958.0</ele><time>2026-05-03T07:48:18Z</time></trkpt><trkpt lat="42.27988977282397" lon="-3.655475282395108"><ele>957.8</ele><time>2026-05-03T07:48:19Z</time></trkpt><trkpt lat="42.27980781572509" lon="-3.655556282310034"><ele>957.5999999999999</ele><time>2026-05-03T07:48:20Z</time></trkpt><trkpt lat="42.279735073792814" lon="-3.6556562482636776"><ele>957.4000000000001</ele><time>2026-05-03T07:48:21Z</time></trkpt><trkpt lat="42.27964873687317" lon="-3.6557402780736847"><ele>957.2</ele><time>2026-05-03T07:48:22Z</time></trkpt><trkpt lat="42.27955390513399" lon="-3.6558104107756186"><ele>957.0</ele><time>2026-05-03T07:48:23Z</time></trkpt><trkpt lat="42.27946693189925" lon="-3.6558979482785032"><ele>957.4000000000001</ele><time>2026-05-03T07:48:24Z</time></trkpt><trkpt lat="42.279372904430254" lon="-3.6559591631154933"><ele>957.8000000000001</ele><time>2026-05-03T07:48:25Z</time></trkpt><trkpt lat="42.27928069505639" lon="-3.656037995846039"><ele>958.2</ele><time>2026-05-03T07:48:26Z</time></trkpt><trkpt lat="42.279189971991855" lon="-3.6561081955488346"><ele>958.6</ele><time>2026-05-03T07:48:27Z</time></trkpt><trkpt lat="42.27909930669111" lon="-3.6561831613798343"><ele>959.0</ele><time>2026-05-03T07:48:28Z</time></trkpt><trkpt lat="42.279014574701456" lon="-3.6562801286339774"><ele>958.4000000000001</ele><time>2026-05-03T07:48:29Z</time></trkpt><trkpt lat="42.27892418678653" lon="-3.6563577650490924"><ele>957.8000000000001</ele><time>2026-05-03T07:48:30Z</time></trkpt><trkpt lat="42.278835306208215" lon="-3.656438874586991"><ele>957.1999999999999</ele><time>2026-05-03T07:48:31Z</time></trkpt><trkpt lat="42.278748700741374" lon="-3.6565253557928905"><ele>956.5999999999999</ele><time>2026-05-03T07:48:32Z</time></trkpt><trkpt lat="42.278663358147604" lon="-3.6566168301427777"><ele>956.0</ele><time>2026-05-03T07:48:33Z</time></trkpt><trkpt lat="42.278578444950796" lon="-3.6567083698004907"><ele>956.0</ele><time>2026-05-03T07:48:34Z</time></trkpt><trkpt lat="42.278490512204435" lon="-3.6567948711776417"><ele>955.9999999999999</ele><time>2026-05-03T07:48:35Z</time></trkpt><trkpt lat="42.27841579531961" lon="-3.656902157284488"><ele>955.9999999999999</ele><time>2026-05-03T07:48:36Z</time></trkpt><trkpt lat="42.278330131928854" lon="-3.656992997221269"><ele>956.0</ele><time>2026-05-03T07:48:37Z</time></trkpt><trkpt lat="42.27824531625863" lon="-3.65708293813476"><ele>956.0</ele><time>2026-05-03T07:48:38Z</time></trkpt><trkpt lat="42.27815973684118" lon="-3.6571736890660023"><ele>956.1999999999999</ele><time>2026-05-03T07:48:39Z</time></trkpt><trkpt lat="42.278074929456686" lon="-3.657263621079824"><ele>956.3999999999999</ele><time>2026-05-03T07:48:40Z</time></trkpt><trkpt lat="42.277987681034006" lon="-3.657356141722978"><ele>956.6</ele><time>2026-05-03T07:48:41Z</time></trkpt><trkpt lat="42.277901827612666" lon="-3.6574471832764464"><ele>956.8</ele><time>2026-05-03T07:48:42Z</time></trkpt><trkpt lat="42.2778189107291" lon="-3.657535110535311"><ele>957.0</ele><time>2026-05-03T07:48:43Z</time></trkpt><trkpt lat="42.27773046639944" lon="-3.6576186838655382"><ele>957.0</ele><time>2026-05-03T07:48:44Z</time></trkpt><trkpt lat="42.277631474668496" lon="-3.657682637187487"><ele>957.0</ele><time>2026-05-03T07:48:45Z</time></trkpt><trkpt lat="42.277527409955894" lon="-3.6577160521617995"><ele>957.0</ele><time>2026-05-03T07:48:46Z</time></trkpt><trkpt lat="42.27743138800391" lon="-3.657780988908003"><ele>957.0</ele><time>2026-05-03T07:48:47Z</time></trkpt><trkpt lat="42.27733192967092" lon="-3.657824888037947"><ele>957.0</ele><time>2026-05-03T07:48:48Z</time></trkpt><trkpt lat="42.277234199140295" lon="-3.65786628392913"><ele>957.6</ele><time>2026-05-03T07:48:49Z</time></trkpt><trkpt lat="42.27713422915548" lon="-3.657903313940025"><ele>958.2</ele><time>2026-05-03T07:48:50Z</time></trkpt><trkpt lat="42.27703754168684" lon="-3.657934567049092"><ele>958.8</ele><time>2026-05-03T07:48:51Z</time></trkpt><trkpt lat="42.27694141335452" lon="-3.657969404560335"><ele>959.4</ele><time>2026-05-03T07:48:52Z</time></trkpt><trkpt lat="42.276845456159414" lon="-3.658008038673389"><ele>960.0</ele><time>2026-05-03T07:48:53Z</time></trkpt><trkpt lat="42.27675203172914" lon="-3.6580456932315104"><ele>960.0</ele><time>2026-05-03T07:48:54Z</time></trkpt><trkpt lat="42.276657299225924" lon="-3.6580827873415545"><ele>960.0</ele><time>2026-05-03T07:48:55Z</time></trkpt><trkpt lat="42.276565314927026" lon="-3.6581177213500227"><ele>960.0</ele><time>2026-05-03T07:48:56Z</time></trkpt><trkpt lat="42.27647119537008" lon="-3.658153466277181"><ele>960.0</ele><time>2026-05-03T07:48:57Z</time></trkpt><trkpt lat="42.27637427630064" lon="-3.658174914963318"><ele>960.0</ele><time>2026-05-03T07:48:58Z</time></trkpt><trkpt lat="42.27628159453082" lon="-3.6582087524881253"><ele>960.6</ele><time>2026-05-03T07:48:59Z</time></trkpt><trkpt lat="42.2761966370595" lon="-3.658264193482698"><ele>961.2</ele><time>2026-05-03T07:49:00Z</time></trkpt><trkpt lat="42.2761048326678" lon="-3.6583021364609993"><ele>961.8</ele><time>2026-05-03T07:49:01Z</time></trkpt><trkpt lat="42.27601536301347" lon="-3.6583375854471845"><ele>962.4</ele><time>2026-05-03T07:49:02Z</time></trkpt><trkpt lat="42.27592213397427" lon="-3.6583726540239314"><ele>963.0</ele><time>2026-05-03T07:49:03Z</time></trkpt><trkpt lat="42.27583036084822" lon="-3.6584026494083255"><ele>963.0</ele><time>2026-05-03T07:49:04Z</time></trkpt><trkpt lat="42.27573748697235" lon="-3.658427737113896"><ele>963.0</ele><time>2026-05-03T07:49:05Z</time></trkpt><trkpt lat="42.27564359207104" lon="-3.658447282389451"><ele>963.0</ele><time>2026-05-03T07:49:06Z</time></trkpt><trkpt lat="42.275547824300624" lon="-3.6584435612740656"><ele>963.0</ele><time>2026-05-03T07:49:07Z</time></trkpt><trkpt lat="42.27545159820269" lon="-3.6584736999177307"><ele>963.0</ele><time>2026-05-03T07:49:08Z</time></trkpt><trkpt lat="42.27534725159195" lon="-3.658483013192592"><ele>962.8</ele><time>2026-05-03T07:49:09Z</time></trkpt><trkpt lat="42.27524181948794" lon="-3.658487187387914"><ele>962.5999999999999</ele><time>2026-05-03T07:49:10Z</time></trkpt><trkpt lat="42.27513605079547" lon="-3.65849046211244"><ele>962.4000000000001</ele><time>2026-05-03T07:49:11Z</time></trkpt><trkpt lat="42.275031277415316" lon="-3.6584964166787466"><ele>962.2</ele><time>2026-05-03T07:49:12Z</time></trkpt><trkpt lat="42.27492863667975" lon="-3.658504245152062"><ele>962.0</ele><time>2026-05-03T07:49:13Z</time></trkpt><trkpt lat="42.27482405595473" lon="-3.6585122378245396"><ele>961.0</ele><time>2026-05-03T07:49:14Z</time></trkpt><trkpt lat="42.274721228951364" lon="-3.6585198821753098"><ele>960.0</ele><time>2026-05-03T07:49:15Z</time></trkpt><trkpt lat="42.27461610483635" lon="-3.658527425434164"><ele>959.0</ele><time>2026-05-03T07:49:16Z</time></trkpt><trkpt lat="42.274512485471874" lon="-3.658534860720983"><ele>958.0</ele><time>2026-05-03T07:49:17Z</time></trkpt><trkpt lat="42.27441238059214" lon="-3.6585380166394232"><ele>957.0</ele><time>2026-05-03T07:49:18Z</time></trkpt><trkpt lat="42.274304184532525" lon="-3.65853707406062"><ele>957.0</ele><time>2026-05-03T07:49:19Z</time></trkpt><trkpt lat="42.27419637032396" lon="-3.658514631816545"><ele>957.0</ele><time>2026-05-03T07:49:20Z</time></trkpt><trkpt lat="42.27409217252651" lon="-3.6584696726443613"><ele>957.0</ele><time>2026-05-03T07:49:21Z</time></trkpt><trkpt lat="42.273989402861474" lon="-3.658406142021681"><ele>957.0</ele><time>2026-05-03T07:49:22Z</time></trkpt><trkpt lat="42.27389204353804" lon="-3.6583338450684995"><ele>957.0</ele><time>2026-05-03T07:49:23Z</time></trkpt><trkpt lat="42.27379899032546" lon="-3.6582516658712025"><ele>954.8</ele><time>2026-05-03T07:49:24Z</time></trkpt><trkpt lat="42.27370942707833" lon="-3.65816307406462"><ele>952.6</ele><time>2026-05-03T07:49:25Z</time></trkpt><trkpt lat="42.27362793945355" lon="-3.6580635527659893"><ele>950.3999999999999</ele><time>2026-05-03T07:49:26Z</time></trkpt><trkpt lat="42.27356406026801" lon="-3.657943245054095"><ele>948.1999999999999</ele><time>2026-05-03T07:49:27Z</time></trkpt><trkpt lat="42.27352148632177" lon="-3.6577985936872355"><ele>946.0</ele><time>2026-05-03T07:49:28Z</time></trkpt><trkpt lat="42.27349216877742" lon="-3.6576606539540175"><ele>946.0</ele><time>2026-05-03T07:49:29Z</time></trkpt><trkpt lat="42.27347352911136" lon="-3.6575192660621907"><ele>945.9999999999999</ele><time>2026-05-03T07:49:30Z</time></trkpt><trkpt lat="42.27345332980302" lon="-3.657384875453904"><ele>945.9999999999999</ele><time>2026-05-03T07:49:31Z</time></trkpt><trkpt lat="42.27342673663472" lon="-3.657265443901878"><ele>946.0</ele><time>2026-05-03T07:49:32Z</time></trkpt><trkpt lat="42.27337551385959" lon="-3.657180102631245"><ele>946.0</ele><time>2026-05-03T07:49:33Z</time></trkpt><trkpt lat="42.273302004288084" lon="-3.657129346732572"><ele>946.0</ele><time>2026-05-03T07:49:34Z</time></trkpt><trkpt lat="42.27321294497686" lon="-3.6571165907345256"><ele>945.9999999999999</ele><time>2026-05-03T07:49:35Z</time></trkpt><trkpt lat="42.273123934102436" lon="-3.6571796798147482"><ele>945.9999999999999</ele><time>2026-05-03T07:49:36Z</time></trkpt><trkpt lat="42.27301155536853" lon="-3.657205054519585"><ele>946.0</ele><time>2026-05-03T07:49:37Z</time></trkpt><trkpt lat="42.272898899675084" lon="-3.6572259891758003"><ele>946.0</ele><time>2026-05-03T07:49:38Z</time></trkpt><trkpt lat="42.27278508339741" lon="-3.6572370001053507"><ele>943.8</ele><time>2026-05-03T07:49:39Z</time></trkpt><trkpt lat="42.27267300919497" lon="-3.6572428020499355"><ele>941.5999999999999</ele><time>2026-05-03T07:49:40Z</time></trkpt><trkpt lat="42.272562567990065" lon="-3.6572438768849307"><ele>939.4</ele><time>2026-05-03T07:49:41Z</time></trkpt><trkpt lat="42.272452589478696" lon="-3.6572452425771185"><ele>937.2</ele><time>2026-05-03T07:49:42Z</time></trkpt><trkpt lat="42.272342566838184" lon="-3.6572466663048413"><ele>935.0</ele><time>2026-05-03T07:49:43Z</time></trkpt><trkpt lat="42.27223391748865" lon="-3.657248682841316"><ele>934.25</ele><time>2026-05-03T07:49:44Z</time></trkpt><trkpt lat="42.272124622370114" lon="-3.657235351825841"><ele>933.5</ele><time>2026-05-03T07:49:45Z</time></trkpt><trkpt lat="42.27201412817912" lon="-3.6572523275025177"><ele>932.75</ele><time>2026-05-03T07:49:46Z</time></trkpt><trkpt lat="42.271905748891996" lon="-3.6572970811273406"><ele>932.0</ele><time>2026-05-03T07:49:47Z</time></trkpt><trkpt lat="42.27179323738357" lon="-3.6573311435719904"><ele>932.0</ele><time>2026-05-03T07:49:48Z</time></trkpt><trkpt lat="42.27168483230282" lon="-3.6573563082292706"><ele>932.0</ele><time>2026-05-03T07:49:49Z</time></trkpt><trkpt lat="42.27158040103538" lon="-3.6573841945589174"><ele>932.0</ele><time>2026-05-03T07:49:50Z</time></trkpt><trkpt lat="42.27147241406426" lon="-3.6574408522609674"><ele>932.0</ele><time>2026-05-03T07:49:51Z</time></trkpt><trkpt lat="42.27135377831183" lon="-3.6574625851165266"><ele>931.75</ele><time>2026-05-03T07:49:52Z</time></trkpt><trkpt lat="42.27124618750142" lon="-3.657498045995127"><ele>931.5</ele><time>2026-05-03T07:49:53Z</time></trkpt><trkpt lat="42.2711475981392" lon="-3.657550399473676"><ele>931.25</ele><time>2026-05-03T07:49:54Z</time></trkpt><trkpt lat="42.271017018499336" lon="-3.6575714271528064"><ele>931.0</ele><time>2026-05-03T07:49:55Z</time></trkpt><trkpt lat="42.2708432314987" lon="-3.6576253557473364"><ele>931.0</ele><time>2026-05-03T07:49:56Z</time></trkpt><trkpt lat="42.270704308081534" lon="-3.6576664703996333"><ele>931.0</ele><time>2026-05-03T07:49:58Z</time></trkpt><trkpt lat="42.27060130296581" lon="-3.657697476117305"><ele>931.0</ele><time>2026-05-03T07:49:59Z</time></trkpt><trkpt lat="42.27049606136245" lon="-3.65771174459566"><ele>931.0</ele><time>2026-05-03T07:50:00Z</time></trkpt><trkpt lat="42.27038601029821" lon="-3.657706735976935"><ele>929.5999999999999</ele><time>2026-05-03T07:50:01Z</time></trkpt><trkpt lat="42.27027878636315" lon="-3.6576780300756804"><ele>928.1999999999999</ele><time>2026-05-03T07:50:02Z</time></trkpt><trkpt lat="42.27017395401249" lon="-3.6576280042681164"><ele>926.8000000000001</ele><time>2026-05-03T07:50:03Z</time></trkpt><trkpt lat="42.27007243205534" lon="-3.6575587293233167"><ele>925.4000000000001</ele><time>2026-05-03T07:50:04Z</time></trkpt><trkpt lat="42.26996630049409" lon="-3.6574990485627406"><ele>924.0</ele><time>2026-05-03T07:50:05Z</time></trkpt><trkpt lat="42.26986120428864" lon="-3.6574299226047726"><ele>921.0</ele><time>2026-05-03T07:50:06Z</time></trkpt><trkpt lat="42.26975448407824" lon="-3.6573901180132014"><ele>918.0000000000001</ele><time>2026-05-03T07:50:07Z</time></trkpt><trkpt lat="42.269653785247115" lon="-3.6573339826197824"><ele>915.0000000000001</ele><time>2026-05-03T07:50:08Z</time></trkpt><trkpt lat="42.26955553405265" lon="-3.6572647686075324"><ele>912.0</ele><time>2026-05-03T07:50:09Z</time></trkpt><trkpt lat="42.26945536864949" lon="-3.6572128778145787"><ele>909.0</ele><time>2026-05-03T07:50:10Z</time></trkpt><trkpt lat="42.26935070661596" lon="-3.6571865781128317"><ele>909.0</ele><time>2026-05-03T07:50:11Z</time></trkpt><trkpt lat="42.269253382467284" lon="-3.657144333005966"><ele>909.0000000000001</ele><time>2026-05-03T07:50:12Z</time></trkpt><trkpt lat="42.26915777152319" lon="-3.657104351676286"><ele>909.0000000000001</ele><time>2026-05-03T07:50:13Z</time></trkpt><trkpt lat="42.26907360824111" lon="-3.6570860814649473"><ele>909.0</ele><time>2026-05-03T07:50:14Z</time></trkpt><trkpt lat="42.2690053732804" lon="-3.657089521894238"><ele>909.0</ele><time>2026-05-03T07:50:15Z</time></trkpt><trkpt lat="42.26889393155679" lon="-3.657180036981896"><ele>909.0</ele><time>2026-05-03T07:50:17Z</time></trkpt><trkpt lat="42.26889029123592" lon="-3.657298678550954"><ele>909.0000000000001</ele><time>2026-05-03T07:50:18Z</time></trkpt><trkpt lat="42.268948993932966" lon="-3.657407511323118"><ele>909.0000000000001</ele><time>2026-05-03T07:50:19Z</time></trkpt><trkpt lat="42.26900034318387" lon="-3.657552964966997"><ele>909.0</ele><time>2026-05-03T07:50:20Z</time></trkpt><trkpt lat="42.269056588712466" lon="-3.657672469708327"><ele>909.0</ele><time>2026-05-03T07:50:21Z</time></trkpt><trkpt lat="42.26910511371605" lon="-3.657805220562868"><ele>908.0</ele><time>2026-05-03T07:50:22Z</time></trkpt><trkpt lat="42.26914875947931" lon="-3.6579354231067023"><ele>907.0000000000001</ele><time>2026-05-03T07:50:23Z</time></trkpt><trkpt lat="42.26918585093582" lon="-3.6580726344071848"><ele>906.0000000000001</ele><time>2026-05-03T07:50:24Z</time></trkpt><trkpt lat="42.26922084581801" lon="-3.658214036943901"><ele>905.0</ele><time>2026-05-03T07:50:25Z</time></trkpt><trkpt lat="42.26925130767184" lon="-3.658358366261667"><ele>904.0</ele><time>2026-05-03T07:50:26Z</time></trkpt><trkpt lat="42.2692725323149" lon="-3.658502313341907"><ele>904.0</ele><time>2026-05-03T07:50:27Z</time></trkpt><trkpt lat="42.26927823357279" lon="-3.65865001473748"><ele>904.0000000000001</ele><time>2026-05-03T07:50:28Z</time></trkpt><trkpt lat="42.26926549192235" lon="-3.658794666009016"><ele>904.0000000000001</ele><time>2026-05-03T07:50:29Z</time></trkpt><trkpt lat="42.269246502618834" lon="-3.658939456738287"><ele>904.0</ele><time>2026-05-03T07:50:30Z</time></trkpt><trkpt lat="42.26922218408241" lon="-3.6590822275934096"><ele>904.0</ele><time>2026-05-03T07:50:31Z</time></trkpt><trkpt lat="42.269200151048246" lon="-3.6592247496953583"><ele>904.0</ele><time>2026-05-03T07:50:32Z</time></trkpt><trkpt lat="42.26915203009001" lon="-3.6593602392180453"><ele>904.0000000000001</ele><time>2026-05-03T07:50:33Z</time></trkpt><trkpt lat="42.26905583337099" lon="-3.6594536481980335"><ele>904.0000000000001</ele><time>2026-05-03T07:50:34Z</time></trkpt><trkpt lat="42.268972024403595" lon="-3.6595392794474377"><ele>904.0</ele><time>2026-05-03T07:50:35Z</time></trkpt><trkpt lat="42.26888855570654" lon="-3.6596234723395344"><ele>904.0</ele><time>2026-05-03T07:50:36Z</time></trkpt><trkpt lat="42.26881775213538" lon="-3.659726438632429"><ele>904.2</ele><time>2026-05-03T07:50:37Z</time></trkpt><trkpt lat="42.26873727116015" lon="-3.6598108046864724"><ele>904.4000000000001</ele><time>2026-05-03T07:50:38Z</time></trkpt><trkpt lat="42.26865669347904" lon="-3.659892704300651"><ele>904.6</ele><time>2026-05-03T07:50:39Z</time></trkpt><trkpt lat="42.26856278783301" lon="-3.6599451408166765"><ele>904.8</ele><time>2026-05-03T07:50:40Z</time></trkpt><trkpt lat="42.26847345309539" lon="-3.6600052522516138"><ele>905.0</ele><time>2026-05-03T07:50:41Z</time></trkpt><trkpt lat="42.268379835905776" lon="-3.660058560108245"><ele>905.0</ele><time>2026-05-03T07:50:42Z</time></trkpt><trkpt lat="42.26828415638419" lon="-3.6601046681263694"><ele>905.0</ele><time>2026-05-03T07:50:43Z</time></trkpt><trkpt lat="42.26818833441481" lon="-3.6601420332757"><ele>905.0</ele><time>2026-05-03T07:50:44Z</time></trkpt><trkpt lat="42.26809249508296" lon="-3.6601801495831428"><ele>905.0</ele><time>2026-05-03T07:50:45Z</time></trkpt><trkpt lat="42.26799801692707" lon="-3.6602230702294882"><ele>905.0</ele><time>2026-05-03T07:50:46Z</time></trkpt><trkpt lat="42.2679046484864" lon="-3.6602723522436666"><ele>905.4</ele><time>2026-05-03T07:50:47Z</time></trkpt><trkpt lat="42.2678131713816" lon="-3.660319701400043"><ele>905.8</ele><time>2026-05-03T07:50:48Z</time></trkpt><trkpt lat="42.26771827888486" lon="-3.660366567058269"><ele>906.2</ele><time>2026-05-03T07:50:49Z</time></trkpt><trkpt lat="42.26762090137889" lon="-3.6604009536067945"><ele>906.6</ele><time>2026-05-03T07:50:50Z</time></trkpt><trkpt lat="42.267520346626654" lon="-3.6604523063500607"><ele>907.0</ele><time>2026-05-03T07:50:51Z</time></trkpt><trkpt lat="42.26740945315492" lon="-3.660447623836371"><ele>907.0</ele><time>2026-05-03T07:50:52Z</time></trkpt><trkpt lat="42.26729510436503" lon="-3.6603943838680397"><ele>907.0</ele><time>2026-05-03T07:50:53Z</time></trkpt><trkpt lat="42.26719723356069" lon="-3.6603199629057266"><ele>907.0</ele><time>2026-05-03T07:50:54Z</time></trkpt><trkpt lat="42.26708535567693" lon="-3.660274029356282"><ele>907.0</ele><time>2026-05-03T07:50:55Z</time></trkpt><trkpt lat="42.26698564149734" lon="-3.660218927590271"><ele>905.4000000000001</ele><time>2026-05-03T07:50:56Z</time></trkpt><trkpt lat="42.26689069657948" lon="-3.660177440651996"><ele>903.8000000000001</ele><time>2026-05-03T07:50:57Z</time></trkpt><trkpt lat="42.266790074465895" lon="-3.6601435527655277"><ele>902.2</ele><time>2026-05-03T07:50:58Z</time></trkpt><trkpt lat="42.266686688709406" lon="-3.660127451844784"><ele>900.6</ele><time>2026-05-03T07:50:59Z</time></trkpt><trkpt lat="42.266579100487796" lon="-3.660115348547244"><ele>899.0</ele><time>2026-05-03T07:51:00Z</time></trkpt><trkpt lat="42.26646817306981" lon="-3.660106001641533"><ele>897.6</ele><time>2026-05-03T07:51:01Z</time></trkpt><trkpt lat="42.266356549719866" lon="-3.6600970767334635"><ele>896.2</ele><time>2026-05-03T07:51:02Z</time></trkpt><trkpt lat="42.26624653154339" lon="-3.6600894639453663"><ele>894.8000000000001</ele><time>2026-05-03T07:51:03Z</time></trkpt><trkpt lat="42.26613886246221" lon="-3.6600820137045895"><ele>893.4000000000001</ele><time>2026-05-03T07:51:04Z</time></trkpt><trkpt lat="42.26602722793088" lon="-3.6600736670463574"><ele>892.0</ele><time>2026-05-03T07:51:05Z</time></trkpt><trkpt lat="42.26591930674027" lon="-3.6600640814722816"><ele>892.0</ele><time>2026-05-03T07:51:06Z</time></trkpt><trkpt lat="42.265812075728235" lon="-3.6600545572035537"><ele>892.0</ele><time>2026-05-03T07:51:07Z</time></trkpt><trkpt lat="42.26570217706932" lon="-3.6600447959888567"><ele>892.0</ele><time>2026-05-03T07:51:08Z</time></trkpt><trkpt lat="42.265591930371976" lon="-3.6600353585030914"><ele>892.0</ele><time>2026-05-03T07:51:09Z</time></trkpt><trkpt lat="42.26548337623188" lon="-3.660028385556547"><ele>892.0</ele><time>2026-05-03T07:51:10Z</time></trkpt><trkpt lat="42.2653791847644" lon="-3.660024124172931"><ele>891.2</ele><time>2026-05-03T07:51:11Z</time></trkpt><trkpt lat="42.26527166598231" lon="-3.6600197965428625"><ele>890.4000000000001</ele><time>2026-05-03T07:51:12Z</time></trkpt><trkpt lat="42.26516484779385" lon="-3.660015497113943"><ele>889.5999999999999</ele><time>2026-05-03T07:51:13Z</time></trkpt><trkpt lat="42.265057580244175" lon="-3.660009149112084"><ele>888.8</ele><time>2026-05-03T07:51:14Z</time></trkpt><trkpt lat="42.264949657338036" lon="-3.6599869516246106"><ele>888.0</ele><time>2026-05-03T07:51:15Z</time></trkpt><trkpt lat="42.26484324781426" lon="-3.659947011310135"><ele>887.0</ele><time>2026-05-03T07:51:16Z</time></trkpt><trkpt lat="42.264749185396084" lon="-3.6598540185690305"><ele>886.0</ele><time>2026-05-03T07:51:17Z</time></trkpt><trkpt lat="42.26465960606423" lon="-3.659767466198861"><ele>885.0</ele><time>2026-05-03T07:51:18Z</time></trkpt><trkpt lat="42.26458248602064" lon="-3.6596649903864806"><ele>884.0</ele><time>2026-05-03T07:51:19Z</time></trkpt><trkpt lat="42.264508230267204" lon="-3.659557991945237"><ele>883.0</ele><time>2026-05-03T07:51:20Z</time></trkpt><trkpt lat="42.264438300616995" lon="-3.6594487157765268"><ele>882.5999999999999</ele><time>2026-05-03T07:51:21Z</time></trkpt><trkpt lat="42.26435235514792" lon="-3.6593569331718867"><ele>882.1999999999999</ele><time>2026-05-03T07:51:22Z</time></trkpt><trkpt lat="42.26427894077432" lon="-3.659254832606967"><ele>881.8</ele><time>2026-05-03T07:51:23Z</time></trkpt><trkpt lat="42.26420966368033" lon="-3.6591584865639497"><ele>881.4</ele><time>2026-05-03T07:51:24Z</time></trkpt><trkpt lat="42.26414247278347" lon="-3.659057200201068"><ele>881.0</ele><time>2026-05-03T07:51:25Z</time></trkpt><trkpt lat="42.26407820805725" lon="-3.6589606771752052"><ele>881.0</ele><time>2026-05-03T07:51:26Z</time></trkpt><trkpt lat="42.2640109702061" lon="-3.6588768407620105"><ele>880.9999999999999</ele><time>2026-05-03T07:51:27Z</time></trkpt><trkpt lat="42.263938829728836" lon="-3.658798383603984"><ele>880.9999999999999</ele><time>2026-05-03T07:51:28Z</time></trkpt><trkpt lat="42.26385229996118" lon="-3.658768922858221"><ele>881.0</ele><time>2026-05-03T07:51:29Z</time></trkpt><trkpt lat="42.26375633362768" lon="-3.6587670865426096"><ele>881.0</ele><time>2026-05-03T07:51:30Z</time></trkpt><trkpt lat="42.26365296898637" lon="-3.6587726406943943"><ele>880.25</ele><time>2026-05-03T07:51:31Z</time></trkpt><trkpt lat="42.26354294009509" lon="-3.658778589200216"><ele>879.5</ele><time>2026-05-03T07:51:32Z</time></trkpt><trkpt lat="42.26343375491887" lon="-3.658784492090702"><ele>878.75</ele><time>2026-05-03T07:51:33Z</time></trkpt><trkpt lat="42.26332032378365" lon="-3.658790812898281"><ele>878.0</ele><time>2026-05-03T07:51:34Z</time></trkpt><trkpt lat="42.263200144546474" lon="-3.658797524026999"><ele>878.0</ele><time>2026-05-03T07:51:35Z</time></trkpt><trkpt lat="42.263108867563425" lon="-3.6588026211773825"><ele>878.0</ele><time>2026-05-03T07:51:36Z</time></trkpt><trkpt lat="42.26300096621479" lon="-3.6588086466624756"><ele>878.0</ele><time>2026-05-03T07:51:37Z</time></trkpt><trkpt lat="42.26289751990124" lon="-3.658814423491242"><ele>878.0</ele><time>2026-05-03T07:51:38Z</time></trkpt><trkpt lat="42.26279472886059" lon="-3.6588103655587028"><ele>878.0</ele><time>2026-05-03T07:51:39Z</time></trkpt><trkpt lat="42.26269166149913" lon="-3.6587913367095646"><ele>878.0000000000001</ele><time>2026-05-03T07:51:40Z</time></trkpt><trkpt lat="42.26260079569358" lon="-3.6587753415325768"><ele>878.0</ele><time>2026-05-03T07:51:41Z</time></trkpt><trkpt lat="42.26251506802345" lon="-3.6587605658600637"><ele>878.0</ele><time>2026-05-03T07:51:42Z</time></trkpt><trkpt lat="42.26243425778097" lon="-3.6587453501197853"><ele>878.0</ele><time>2026-05-03T07:51:43Z</time></trkpt><trkpt lat="42.26235649671139" lon="-3.6587270840048864"><ele>878.0000000000001</ele><time>2026-05-03T07:51:44Z</time></trkpt><trkpt lat="42.26227914651" lon="-3.6587052288221233"><ele>878.0</ele><time>2026-05-03T07:51:45Z</time></trkpt><trkpt lat="42.262193073100505" lon="-3.6586794366553157"><ele>878.0</ele><time>2026-05-03T07:51:46Z</time></trkpt><trkpt lat="42.262107400492525" lon="-3.658652932952171"><ele>878.0</ele><time>2026-05-03T07:51:47Z</time></trkpt><trkpt lat="42.262019929201394" lon="-3.6586258727949623"><ele>878.0</ele><time>2026-05-03T07:51:48Z</time></trkpt><trkpt lat="42.26193113393431" lon="-3.6585984030552527"><ele>878.0</ele><time>2026-05-03T07:51:49Z</time></trkpt><trkpt lat="42.26184116724" lon="-3.6585693837886706"><ele>878.0</ele><time>2026-05-03T07:51:50Z</time></trkpt><trkpt lat="42.26175027192715" lon="-3.658531030773284"><ele>878.5999999999999</ele><time>2026-05-03T07:51:51Z</time></trkpt><trkpt lat="42.26165912565902" lon="-3.6584898977438502"><ele>879.1999999999999</ele><time>2026-05-03T07:51:52Z</time></trkpt><trkpt lat="42.26156239030792" lon="-3.6585021849605273"><ele>879.8</ele><time>2026-05-03T07:51:53Z</time></trkpt><trkpt lat="42.26148924401088" lon="-3.6585791641160883"><ele>880.4</ele><time>2026-05-03T07:51:54Z</time></trkpt><trkpt lat="42.26142034948966" lon="-3.658639716400824"><ele>881.0</ele><time>2026-05-03T07:51:55Z</time></trkpt><trkpt lat="42.2613412808336" lon="-3.6586734559481613"><ele>882.0</ele><time>2026-05-03T07:51:56Z</time></trkpt><trkpt lat="42.26125252774721" lon="-3.6586695563608242"><ele>882.9999999999999</ele><time>2026-05-03T07:51:57Z</time></trkpt><trkpt lat="42.26117279060502" lon="-3.6586613671161357"><ele>883.9999999999999</ele><time>2026-05-03T07:51:58Z</time></trkpt><trkpt lat="42.261072150680185" lon="-3.6586534961905026"><ele>885.0</ele><time>2026-05-03T07:51:59Z</time></trkpt><trkpt lat="42.26100699664685" lon="-3.6586718625369667"><ele>886.0</ele><time>2026-05-03T07:52:03Z</time></trkpt><trkpt lat="42.26109753746741" lon="-3.6589202725889045"><ele>885.9999999999999</ele><time>2026-05-03T07:52:04Z</time></trkpt><trkpt lat="42.261074484444265" lon="-3.6590195698765733"><ele>886.0</ele><time>2026-05-03T07:52:05Z</time></trkpt><trkpt lat="42.26106442197634" lon="-3.6591044183643793"><ele>886.0</ele><time>2026-05-03T07:52:06Z</time></trkpt><trkpt lat="42.26099213795245" lon="-3.659229465135915"><ele>886.0</ele><time>2026-05-03T07:52:08Z</time></trkpt><trkpt lat="42.260942327581" lon="-3.659293422906808"><ele>885.9999999999999</ele><time>2026-05-03T07:52:09Z</time></trkpt><trkpt lat="42.26089935213845" lon="-3.659357647696621"><ele>886.0</ele><time>2026-05-03T07:52:10Z</time></trkpt><trkpt lat="42.26090123436448" lon="-3.6594543315439503"><ele>885.8333333333333</ele><time>2026-05-03T07:52:11Z</time></trkpt><trkpt lat="42.26088672349592" lon="-3.6595467847344723"><ele>885.6666666666666</ele><time>2026-05-03T07:52:12Z</time></trkpt><trkpt lat="42.2608678982926" lon="-3.659649002408474"><ele>885.5</ele><time>2026-05-03T07:52:13Z</time></trkpt><trkpt lat="42.260862970608265" lon="-3.6597577221152884"><ele>885.3333333333333</ele><time>2026-05-03T07:52:14Z</time></trkpt><trkpt lat="42.26085427391594" lon="-3.659858301339502"><ele>885.1666666666666</ele><time>2026-05-03T07:52:15Z</time></trkpt><trkpt lat="42.260845592235974" lon="-3.6599579545273455"><ele>885.0</ele><time>2026-05-03T07:52:16Z</time></trkpt><trkpt lat="42.26084011798967" lon="-3.6600596823581366"><ele>885.0</ele><time>2026-05-03T07:52:17Z</time></trkpt><trkpt lat="42.26083272362345" lon="-3.6601662709743525"><ele>885.0</ele><time>2026-05-03T07:52:18Z</time></trkpt><trkpt lat="42.26082485193206" lon="-3.6602842840982164"><ele>885.0</ele><time>2026-05-03T07:52:19Z</time></trkpt><trkpt lat="42.26082309467757" lon="-3.6604059350530793"><ele>885.0</ele><time>2026-05-03T07:52:20Z</time></trkpt><trkpt lat="42.260820709493785" lon="-3.6605326569340924"><ele>885.0</ele><time>2026-05-03T07:52:21Z</time></trkpt><trkpt lat="42.260820492375736" lon="-3.6606597697812067"><ele>885.0</ele><time>2026-05-03T07:52:22Z</time></trkpt><trkpt lat="42.260815521803735" lon="-3.660792437915776"><ele>883.8</ele><time>2026-05-03T07:52:23Z</time></trkpt><trkpt lat="42.26081744248451" lon="-3.6609237647859447"><ele>882.6</ele><time>2026-05-03T07:52:24Z</time></trkpt><trkpt lat="42.26081336059528" lon="-3.6610474952845555"><ele>881.4000000000001</ele><time>2026-05-03T07:52:25Z</time></trkpt><trkpt lat="42.26080446184893" lon="-3.6611635503274145"><ele>880.2</ele><time>2026-05-03T07:52:26Z</time></trkpt><trkpt lat="42.26078287989751" lon="-3.6612779228611307"><ele>879.0</ele><time>2026-05-03T07:52:27Z</time></trkpt><trkpt lat="42.260761381193255" lon="-3.6613935274362546"><ele>878.5</ele><time>2026-05-03T07:52:28Z</time></trkpt><trkpt lat="42.260688196654016" lon="-3.661475349692422"><ele>878.0</ele><time>2026-05-03T07:52:29Z</time></trkpt><trkpt lat="42.26062883355472" lon="-3.6615598296975733"><ele>877.5</ele><time>2026-05-03T07:52:30Z</time></trkpt><trkpt lat="42.26058272579927" lon="-3.6616529745763944"><ele>877.0</ele><time>2026-05-03T07:52:31Z</time></trkpt><trkpt lat="42.26051089921398" lon="-3.661708242786046"><ele>876.5</ele><time>2026-05-03T07:52:32Z</time></trkpt><trkpt lat="42.26046538353987" lon="-3.6617961249156283"><ele>876.0</ele><time>2026-05-03T07:52:33Z</time></trkpt><trkpt lat="42.26041147951717" lon="-3.661864683900868"><ele>876.0</ele><time>2026-05-03T07:52:34Z</time></trkpt><trkpt lat="42.260357199243586" lon="-3.661934598648847"><ele>876.0</ele><time>2026-05-03T07:52:35Z</time></trkpt><trkpt lat="42.260298575880526" lon="-3.6620101074648796"><ele>876.0</ele><time>2026-05-03T07:52:36Z</time></trkpt><trkpt lat="42.260237089675805" lon="-3.662089303158461"><ele>876.0</ele><time>2026-05-03T07:52:37Z</time></trkpt><trkpt lat="42.26017264379729" lon="-3.6621688379034913"><ele>876.0</ele><time>2026-05-03T07:52:38Z</time></trkpt><trkpt lat="42.26010845521736" lon="-3.6622499577930414"><ele>876.0</ele><time>2026-05-03T07:52:39Z</time></trkpt><trkpt lat="42.26004246267989" lon="-3.662333168358064"><ele>876.4</ele><time>2026-05-03T07:52:40Z</time></trkpt><trkpt lat="42.25997564866325" lon="-3.6624174147306"><ele>876.8</ele><time>2026-05-03T07:52:41Z</time></trkpt><trkpt lat="42.259906950115024" lon="-3.6625013065398786"><ele>877.1999999999999</ele><time>2026-05-03T07:52:42Z</time></trkpt><trkpt lat="42.259834754624585" lon="-3.662582738654573"><ele>877.5999999999999</ele><time>2026-05-03T07:52:43Z</time></trkpt><trkpt lat="42.259757780864575" lon="-3.6626612055695467"><ele>878.0</ele><time>2026-05-03T07:52:44Z</time></trkpt><trkpt lat="42.259679217594986" lon="-3.6627282861255215"><ele>878.8</ele><time>2026-05-03T07:52:45Z</time></trkpt><trkpt lat="42.25959451491494" lon="-3.662791754044762"><ele>879.5999999999999</ele><time>2026-05-03T07:52:46Z</time></trkpt><trkpt lat="42.25951059603808" lon="-3.662848886432473"><ele>880.4000000000001</ele><time>2026-05-03T07:52:47Z</time></trkpt><trkpt lat="42.25942357326767" lon="-3.6629033691939052"><ele>881.2</ele><time>2026-05-03T07:52:48Z</time></trkpt><trkpt lat="42.259336439601995" lon="-3.6629580800678387"><ele>882.0</ele><time>2026-05-03T07:52:49Z</time></trkpt><trkpt lat="42.25925074397901" lon="-3.663013220689241"><ele>882.0</ele><time>2026-05-03T07:52:50Z</time></trkpt><trkpt lat="42.259167252042744" lon="-3.6630678049170435"><ele>882.0</ele><time>2026-05-03T07:52:51Z</time></trkpt><trkpt lat="42.25908160769228" lon="-3.663123796345511"><ele>882.0</ele><time>2026-05-03T07:52:52Z</time></trkpt><trkpt lat="42.258995736166035" lon="-3.6631799362571646"><ele>882.0</ele><time>2026-05-03T07:52:53Z</time></trkpt><trkpt lat="42.25891077239523" lon="-3.663234551670634"><ele>882.0</ele><time>2026-05-03T07:52:54Z</time></trkpt><trkpt lat="42.2588262328268" lon="-3.66328833626595"><ele>882.4000000000001</ele><time>2026-05-03T07:52:55Z</time></trkpt><trkpt lat="42.2587419605353" lon="-3.663341950836087"><ele>882.8000000000001</ele><time>2026-05-03T07:52:56Z</time></trkpt><trkpt lat="42.25865568600072" lon="-3.6633966508693976"><ele>883.2</ele><time>2026-05-03T07:52:57Z</time></trkpt><trkpt lat="42.25856955033738" lon="-3.663450600782129"><ele>883.6</ele><time>2026-05-03T07:52:58Z</time></trkpt><trkpt lat="42.25848412760236" lon="-3.66350364389579"><ele>884.0</ele><time>2026-05-03T07:52:59Z</time></trkpt><trkpt lat="42.25839591450868" lon="-3.6635557053268175"><ele>884.0</ele><time>2026-05-03T07:53:00Z</time></trkpt><trkpt lat="42.25830354994025" lon="-3.6635871852374358"><ele>884.0000000000001</ele><time>2026-05-03T07:53:01Z</time></trkpt><trkpt lat="42.25821639479904" lon="-3.663640174916478"><ele>884.0000000000001</ele><time>2026-05-03T07:53:02Z</time></trkpt><trkpt lat="42.25813152021107" lon="-3.663685662669337"><ele>884.0</ele><time>2026-05-03T07:53:03Z</time></trkpt><trkpt lat="42.25803972240153" lon="-3.6637146212770593"><ele>884.0</ele><time>2026-05-03T07:53:04Z</time></trkpt><trkpt lat="42.257955197093814" lon="-3.6637400002217646"><ele>884.6666666666667</ele><time>2026-05-03T07:53:05Z</time></trkpt><trkpt lat="42.25787639600774" lon="-3.6637692163263607"><ele>885.3333333333334</ele><time>2026-05-03T07:53:06Z</time></trkpt><trkpt lat="42.25780529075669" lon="-3.6637841490536127"><ele>886.0</ele><time>2026-05-03T07:53:07Z</time></trkpt><trkpt lat="42.257733511025826" lon="-3.663826966519593"><ele>886.6666666666667</ele><time>2026-05-03T07:53:08Z</time></trkpt><trkpt lat="42.2576555499426" lon="-3.663850501937122"><ele>887.3333333333334</ele><time>2026-05-03T07:53:09Z</time></trkpt><trkpt lat="42.25757655160478" lon="-3.6638743504923386"><ele>888.0</ele><time>2026-05-03T07:53:10Z</time></trkpt><trkpt lat="42.257493550592535" lon="-3.6638984743897725"><ele>888.0</ele><time>2026-05-03T07:53:11Z</time></trkpt><trkpt lat="42.25741236857092" lon="-3.6639216295514507"><ele>888.0</ele><time>2026-05-03T07:53:12Z</time></trkpt><trkpt lat="42.25732925481049" lon="-3.6639453356917544"><ele>888.0</ele><time>2026-05-03T07:53:13Z</time></trkpt><trkpt lat="42.25724541428832" lon="-3.6639692491203655"><ele>888.0</ele><time>2026-05-03T07:53:14Z</time></trkpt><trkpt lat="42.257158671394905" lon="-3.663993990380079"><ele>888.0</ele><time>2026-05-03T07:53:15Z</time></trkpt><trkpt lat="42.2570701461696" lon="-3.6640192400062253"><ele>888.0</ele><time>2026-05-03T07:53:16Z</time></trkpt><trkpt lat="42.256985771436085" lon="-3.6640432348256105"><ele>889.0</ele><time>2026-05-03T07:53:17Z</time></trkpt><trkpt lat="42.256895578848024" lon="-3.6640682184028384"><ele>890.0</ele><time>2026-05-03T07:53:18Z</time></trkpt><trkpt lat="42.256804657566626" lon="-3.6640934038315724"><ele>891.0</ele><time>2026-05-03T07:53:19Z</time></trkpt><trkpt lat="42.2567136831234" lon="-3.6641174868182587"><ele>892.0</ele><time>2026-05-03T07:53:20Z</time></trkpt><trkpt lat="42.256621527491085" lon="-3.6641222901573984"><ele>893.0</ele><time>2026-05-03T07:53:21Z</time></trkpt><trkpt lat="42.256535007551804" lon="-3.6641462071350888"><ele>893.3333333333334</ele><time>2026-05-03T07:53:22Z</time></trkpt><trkpt lat="42.25644585990161" lon="-3.6641762141440926"><ele>893.6666666666667</ele><time>2026-05-03T07:53:23Z</time></trkpt><trkpt lat="42.256355877570414" lon="-3.6642007105771772"><ele>894.0</ele><time>2026-05-03T07:53:24Z</time></trkpt><trkpt lat="42.25627368315558" lon="-3.6642271650829357"><ele>894.3333333333333</ele><time>2026-05-03T07:53:25Z</time></trkpt><trkpt lat="42.25619947940461" lon="-3.6642481751367084"><ele>894.6666666666666</ele><time>2026-05-03T07:53:26Z</time></trkpt><trkpt lat="42.256128103560364" lon="-3.6642841487250046"><ele>895.0</ele><time>2026-05-03T07:53:27Z</time></trkpt><trkpt lat="42.25604785054029" lon="-3.6642903653748085"><ele>894.9999999999999</ele><time>2026-05-03T07:53:28Z</time></trkpt><trkpt lat="42.25597005861566" lon="-3.6643170625507784"><ele>895.0</ele><time>2026-05-03T07:53:29Z</time></trkpt><trkpt lat="42.2558863770415" lon="-3.6643386550941726"><ele>895.0</ele><time>2026-05-03T07:53:30Z</time></trkpt><trkpt lat="42.25580308944077" lon="-3.6643613298316158"><ele>895.0</ele><time>2026-05-03T07:53:31Z</time></trkpt><trkpt lat="42.25572273986538" lon="-3.6644079574681654"><ele>894.9999999999999</ele><time>2026-05-03T07:53:32Z</time></trkpt><trkpt lat="42.25563873529269" lon="-3.664434758926875"><ele>895.0</ele><time>2026-05-03T07:53:33Z</time></trkpt><trkpt lat="42.2555516211589" lon="-3.6644650376970382"><ele>895.1666666666666</ele><time>2026-05-03T07:53:34Z</time></trkpt><trkpt lat="42.25546340833264" lon="-3.6644973660686713"><ele>895.3333333333333</ele><time>2026-05-03T07:53:35Z</time></trkpt><trkpt lat="42.255366483188716" lon="-3.664515432538026"><ele>895.5</ele><time>2026-05-03T07:53:36Z</time></trkpt><trkpt lat="42.255281624513714" lon="-3.6645536274831008"><ele>895.6666666666667</ele><time>2026-05-03T07:53:37Z</time></trkpt><trkpt lat="42.25519555114839" lon="-3.6645838015703003"><ele>895.8333333333334</ele><time>2026-05-03T07:53:38Z</time></trkpt><trkpt lat="42.25512350817265" lon="-3.664616067268044"><ele>896.0</ele><time>2026-05-03T07:53:39Z</time></trkpt><trkpt lat="42.25504545408665" lon="-3.6646410349970657"><ele>896.0000000000001</ele><time>2026-05-03T07:53:40Z</time></trkpt><trkpt lat="42.25497061480338" lon="-3.664693570293407"><ele>896.0</ele><time>2026-05-03T07:53:41Z</time></trkpt><trkpt lat="42.25488906261043" lon="-3.6647270844637014"><ele>896.0</ele><time>2026-05-03T07:53:42Z</time></trkpt><trkpt lat="42.254807260238714" lon="-3.664760701447097"><ele>896.0</ele><time>2026-05-03T07:53:43Z</time></trkpt><trkpt lat="42.25472267988817" lon="-3.6647952202009275"><ele>896.0000000000001</ele><time>2026-05-03T07:53:44Z</time></trkpt><trkpt lat="42.254635914560744" lon="-3.664828719522454"><ele>896.0</ele><time>2026-05-03T07:53:45Z</time></trkpt><trkpt lat="42.254542229048866" lon="-3.6648605874991493"><ele>896.1999999999999</ele><time>2026-05-03T07:53:46Z</time></trkpt><trkpt lat="42.25445252026333" lon="-3.6648885099337343"><ele>896.3999999999999</ele><time>2026-05-03T07:53:47Z</time></trkpt><trkpt lat="42.25435253004826" lon="-3.6648933499876395"><ele>896.6</ele><time>2026-05-03T07:53:48Z</time></trkpt><trkpt lat="42.25425166277543" lon="-3.664917698888733"><ele>896.8</ele><time>2026-05-03T07:53:49Z</time></trkpt><trkpt lat="42.25416025577744" lon="-3.6649589198184453"><ele>897.0</ele><time>2026-05-03T07:53:50Z</time></trkpt><trkpt lat="42.2540681056519" lon="-3.664976346241639"><ele>897.0</ele><time>2026-05-03T07:53:51Z</time></trkpt><trkpt lat="42.25397628393084" lon="-3.6649920507176303"><ele>897.0</ele><time>2026-05-03T07:53:52Z</time></trkpt><trkpt lat="42.25388036082973" lon="-3.6650063019836603"><ele>897.0</ele><time>2026-05-03T07:53:53Z</time></trkpt><trkpt lat="42.253774313481046" lon="-3.66502205740542"><ele>897.0</ele><time>2026-05-03T07:53:54Z</time></trkpt><trkpt lat="42.253668414016985" lon="-3.6650377908552128"><ele>897.0</ele><time>2026-05-03T07:53:55Z</time></trkpt><trkpt lat="42.25356214798625" lon="-3.6650535787652383"><ele>896.6</ele><time>2026-05-03T07:53:56Z</time></trkpt><trkpt lat="42.253455692519594" lon="-3.6650693948206703"><ele>896.2</ele><time>2026-05-03T07:53:57Z</time></trkpt><trkpt lat="42.253344615720515" lon="-3.665063392480262"><ele>895.8</ele><time>2026-05-03T07:53:58Z</time></trkpt><trkpt lat="42.253239199530896" lon="-3.6651024878641043"><ele>895.4</ele><time>2026-05-03T07:53:59Z</time></trkpt><trkpt lat="42.25312653088009" lon="-3.665120324807957"><ele>895.0</ele><time>2026-05-03T07:54:00Z</time></trkpt><trkpt lat="42.2530189056911" lon="-3.665137363301306"><ele>894.0</ele><time>2026-05-03T07:54:01Z</time></trkpt><trkpt lat="42.252911851018006" lon="-3.6651336394912297"><ele>893.0</ele><time>2026-05-03T07:54:02Z</time></trkpt><trkpt lat="42.25280592359166" lon="-3.6651534037513587"><ele>892.0</ele><time>2026-05-03T07:54:03Z</time></trkpt><trkpt lat="42.252676799326814" lon="-3.6651931189429314"><ele>891.0</ele><time>2026-05-03T07:54:04Z</time></trkpt><trkpt lat="42.25256554892985" lon="-3.665210601150487"><ele>891.0</ele><time>2026-05-03T07:54:05Z</time></trkpt><trkpt lat="42.2524550901667" lon="-3.665227958957622"><ele>890.9999999999999</ele><time>2026-05-03T07:54:06Z</time></trkpt><trkpt lat="42.25234498923703" lon="-3.665245884320037"><ele>890.9999999999999</ele><time>2026-05-03T07:54:07Z</time></trkpt><trkpt lat="42.25223378270572" lon="-3.6652690842729196"><ele>891.0</ele><time>2026-05-03T07:54:08Z</time></trkpt><trkpt lat="42.25212335876134" lon="-3.665299130253997"><ele>891.0</ele><time>2026-05-03T07:54:09Z</time></trkpt><trkpt lat="42.25201673255414" lon="-3.665335133282398"><ele>890.0</ele><time>2026-05-03T07:54:10Z</time></trkpt><trkpt lat="42.25191758577484" lon="-3.665386172955591"><ele>888.9999999999999</ele><time>2026-05-03T07:54:11Z</time></trkpt><trkpt lat="42.25181596493889" lon="-3.665441562038439"><ele>887.9999999999999</ele><time>2026-05-03T07:54:12Z</time></trkpt><trkpt lat="42.25171736438877" lon="-3.665500174473656"><ele>887.0</ele><time>2026-05-03T07:54:13Z</time></trkpt><trkpt lat="42.25161828904823" lon="-3.665562152644849"><ele>886.0</ele><time>2026-05-03T07:54:14Z</time></trkpt><trkpt lat="42.25152201399624" lon="-3.665631316482737"><ele>886.0</ele><time>2026-05-03T07:54:15Z</time></trkpt><trkpt lat="42.25142330523056" lon="-3.665698825061499"><ele>885.9999999999999</ele><time>2026-05-03T07:54:16Z</time></trkpt><trkpt lat="42.25132443512188" lon="-3.6657664439911097"><ele>885.9999999999999</ele><time>2026-05-03T07:54:17Z</time></trkpt><trkpt lat="42.251226554584875" lon="-3.665832648951256"><ele>886.0</ele><time>2026-05-03T07:54:18Z</time></trkpt><trkpt lat="42.25112775503732" lon="-3.665898601901555"><ele>886.0</ele><time>2026-05-03T07:54:19Z</time></trkpt><trkpt lat="42.251027971032556" lon="-3.665962977356482"><ele>886.0</ele><time>2026-05-03T07:54:20Z</time></trkpt><trkpt lat="42.25092619097144" lon="-3.6660286405672933"><ele>886.0</ele><time>2026-05-03T07:54:21Z</time></trkpt><trkpt lat="42.25082263934283" lon="-3.666091556815832"><ele>886.0</ele><time>2026-05-03T07:54:22Z</time></trkpt><trkpt lat="42.25071241016594" lon="-3.6661492415680934"><ele>886.0</ele><time>2026-05-03T07:54:23Z</time></trkpt><trkpt lat="42.2506039959984" lon="-3.6662013347519613"><ele>884.5</ele><time>2026-05-03T07:54:24Z</time></trkpt><trkpt lat="42.25049212118436" lon="-3.6662509929966443"><ele>883.0</ele><time>2026-05-03T07:54:25Z</time></trkpt><trkpt lat="42.25037724125749" lon="-3.6662977203672575"><ele>881.5</ele><time>2026-05-03T07:54:26Z</time></trkpt><trkpt lat="42.25026803498309" lon="-3.6663404111846707"><ele>880.0</ele><time>2026-05-03T07:54:27Z</time></trkpt><trkpt lat="42.25015440700233" lon="-3.6663611473475393"><ele>880.0</ele><time>2026-05-03T07:54:28Z</time></trkpt><trkpt lat="42.25005284704362" lon="-3.666423534516271"><ele>880.0</ele><time>2026-05-03T07:54:29Z</time></trkpt><trkpt lat="42.2499463826419" lon="-3.666464659857412"><ele>880.0</ele><time>2026-05-03T07:54:30Z</time></trkpt><trkpt lat="42.24983899101817" lon="-3.666505278617003"><ele>880.0</ele><time>2026-05-03T07:54:31Z</time></trkpt><trkpt lat="42.24973115340663" lon="-3.6665459523196837"><ele>880.0</ele><time>2026-05-03T07:54:32Z</time></trkpt><trkpt lat="42.24962238647371" lon="-3.6665637122908596"><ele>881.2</ele><time>2026-05-03T07:54:33Z</time></trkpt><trkpt lat="42.24952592798706" lon="-3.666608966164986"><ele>882.4</ele><time>2026-05-03T07:54:34Z</time></trkpt><trkpt lat="42.24942487756362" lon="-3.66664550155533"><ele>883.5999999999999</ele><time>2026-05-03T07:54:35Z</time></trkpt><trkpt lat="42.249325301674105" lon="-3.666680987170216"><ele>884.8</ele><time>2026-05-03T07:54:36Z</time></trkpt><trkpt lat="42.249221686617226" lon="-3.666719823126543"><ele>886.0</ele><time>2026-05-03T07:54:37Z</time></trkpt><trkpt lat="42.249125699313225" lon="-3.666754054841232"><ele>885.9999999999999</ele><time>2026-05-03T07:54:38Z</time></trkpt><trkpt lat="42.24904285278791" lon="-3.6667878998984205"><ele>886.0</ele><time>2026-05-03T07:54:39Z</time></trkpt><trkpt lat="42.2489684806193" lon="-3.666817301252488"><ele>886.0</ele><time>2026-05-03T07:54:40Z</time></trkpt><trkpt lat="42.248900846410145" lon="-3.6668579959786687"><ele>886.0</ele><time>2026-05-03T07:54:41Z</time></trkpt><trkpt lat="42.248824861909156" lon="-3.66687835401409"><ele>885.9999999999999</ele><time>2026-05-03T07:54:42Z</time></trkpt><trkpt lat="42.24874664701276" lon="-3.666911248464687"><ele>886.0</ele><time>2026-05-03T07:54:43Z</time></trkpt><trkpt lat="42.248664567247175" lon="-3.666946831217032"><ele>885.5999999999999</ele><time>2026-05-03T07:54:44Z</time></trkpt><trkpt lat="42.24858317478957" lon="-3.666980013567597"><ele>885.1999999999999</ele><time>2026-05-03T07:54:45Z</time></trkpt><trkpt lat="42.24851296623289" lon="-3.667018808879507"><ele>884.8000000000001</ele><time>2026-05-03T07:54:46Z</time></trkpt><trkpt lat="42.24844036406518" lon="-3.667061881311295"><ele>884.4000000000001</ele><time>2026-05-03T07:54:47Z</time></trkpt><trkpt lat="42.248362481050926" lon="-3.6671108314120016"><ele>884.0</ele><time>2026-05-03T07:54:48Z</time></trkpt><trkpt lat="42.24820264559136" lon="-3.667220738872322"><ele>884.6</ele><time>2026-05-03T07:54:50Z</time></trkpt><trkpt lat="42.248120155046756" lon="-3.6672862742338483"><ele>885.2</ele><time>2026-05-03T07:54:51Z</time></trkpt><trkpt lat="42.24803676603406" lon="-3.667356546256849"><ele>885.8000000000001</ele><time>2026-05-03T07:54:52Z</time></trkpt><trkpt lat="42.24795137860434" lon="-3.667423419963537"><ele>886.4000000000001</ele><time>2026-05-03T07:54:53Z</time></trkpt><trkpt lat="42.24786375300135" lon="-3.6674910752764753"><ele>887.0</ele><time>2026-05-03T07:54:54Z</time></trkpt><trkpt lat="42.24777417324248" lon="-3.6675562478384327"><ele>887.0</ele><time>2026-05-03T07:54:55Z</time></trkpt><trkpt lat="42.247684919815015" lon="-3.6676217852229427"><ele>887.0</ele><time>2026-05-03T07:54:56Z</time></trkpt><trkpt lat="42.24759903577375" lon="-3.6676869267522623"><ele>887.0</ele><time>2026-05-03T07:54:57Z</time></trkpt><trkpt lat="42.24752660064154" lon="-3.6677783472029644"><ele>887.0</ele><time>2026-05-03T07:54:58Z</time></trkpt><trkpt lat="42.247448744053564" lon="-3.667837065525948"><ele>887.0</ele><time>2026-05-03T07:54:59Z</time></trkpt><trkpt lat="42.247372514929445" lon="-3.667896721548203"><ele>886.5000000000001</ele><time>2026-05-03T07:55:00Z</time></trkpt><trkpt lat="42.247299612635075" lon="-3.6679537740280366"><ele>886.0</ele><time>2026-05-03T07:55:01Z</time></trkpt><trkpt lat="42.24722504141084" lon="-3.668012512066022"><ele>885.5</ele><time>2026-05-03T07:55:02Z</time></trkpt><trkpt lat="42.247146123015156" lon="-3.668070433505353"><ele>885.0</ele><time>2026-05-03T07:55:03Z</time></trkpt><trkpt lat="42.24707330927966" lon="-3.6681331655334986"><ele>884.5000000000001</ele><time>2026-05-03T07:55:04Z</time></trkpt><trkpt lat="42.24700122974629" lon="-3.668217890949297"><ele>884.0</ele><time>2026-05-03T07:55:05Z</time></trkpt><trkpt lat="42.24693469823585" lon="-3.6683064477490075"><ele>883.8000000000001</ele><time>2026-05-03T07:55:06Z</time></trkpt><trkpt lat="42.24689547069144" lon="-3.6684351585102704"><ele>883.6000000000001</ele><time>2026-05-03T07:55:07Z</time></trkpt><trkpt lat="42.246869018527" lon="-3.668572013026072"><ele>883.4</ele><time>2026-05-03T07:55:08Z</time></trkpt><trkpt lat="42.246854944832734" lon="-3.6687136043077464"><ele>883.2</ele><time>2026-05-03T07:55:09Z</time></trkpt><trkpt lat="42.24684469200589" lon="-3.6688540557809044"><ele>883.0</ele><time>2026-05-03T07:55:10Z</time></trkpt><trkpt lat="42.24682955586905" lon="-3.6689935759894783"><ele>882.0</ele><time>2026-05-03T07:55:11Z</time></trkpt><trkpt lat="42.246814537524735" lon="-3.6691297083178633"><ele>881.0</ele><time>2026-05-03T07:55:12Z</time></trkpt><trkpt lat="42.24679436647471" lon="-3.669270565483671"><ele>880.0</ele><time>2026-05-03T07:55:13Z</time></trkpt><trkpt lat="42.246782509479445" lon="-3.669404340936738"><ele>879.0</ele><time>2026-05-03T07:55:14Z</time></trkpt><trkpt lat="42.24677294808103" lon="-3.6695399946133263"><ele>878.0</ele><time>2026-05-03T07:55:15Z</time></trkpt><trkpt lat="42.246776739354466" lon="-3.669674197398362"><ele>877.0</ele><time>2026-05-03T07:55:16Z</time></trkpt><trkpt lat="42.24678837630439" lon="-3.6698133812048352"><ele>876.0</ele><time>2026-05-03T07:55:17Z</time></trkpt><trkpt lat="42.246809554627085" lon="-3.6699489037468007"><ele>875.0</ele><time>2026-05-03T07:55:18Z</time></trkpt><trkpt lat="42.24683063698077" lon="-3.6700779380365116"><ele>874.0</ele><time>2026-05-03T07:55:19Z</time></trkpt><trkpt lat="42.24685704496393" lon="-3.6702068013867684"><ele>873.0</ele><time>2026-05-03T07:55:20Z</time></trkpt><trkpt lat="42.246880373150525" lon="-3.6703345400073357"><ele>873.0</ele><time>2026-05-03T07:55:21Z</time></trkpt><trkpt lat="42.24690263719467" lon="-3.670466539402272"><ele>873.0</ele><time>2026-05-03T07:55:22Z</time></trkpt><trkpt lat="42.246909698268155" lon="-3.670592293351714"><ele>873.0</ele><time>2026-05-03T07:55:23Z</time></trkpt><trkpt lat="42.24690599175275" lon="-3.670726671988347"><ele>873.0</ele><time>2026-05-03T07:55:24Z</time></trkpt><trkpt lat="42.246904379673985" lon="-3.6708595268313693"><ele>873.0</ele><time>2026-05-03T07:55:25Z</time></trkpt><trkpt lat="42.24688377753318" lon="-3.6709781375202293"><ele>873.0</ele><time>2026-05-03T07:55:26Z</time></trkpt><trkpt lat="42.24681027042751" lon="-3.6710770924661165"><ele>873.0</ele><time>2026-05-03T07:55:27Z</time></trkpt><trkpt lat="42.24675174334182" lon="-3.6711792238928918"><ele>873.0</ele><time>2026-05-03T07:55:28Z</time></trkpt><trkpt lat="42.24668203911548" lon="-3.6712684625641026"><ele>873.0</ele><time>2026-05-03T07:55:29Z</time></trkpt><trkpt lat="42.24659894543554" lon="-3.6713464198602503"><ele>873.0</ele><time>2026-05-03T07:55:30Z</time></trkpt><trkpt lat="42.24650781224772" lon="-3.6714138887493477"><ele>871.5</ele><time>2026-05-03T07:55:31Z</time></trkpt><trkpt lat="42.24641614812064" lon="-3.6714858335225533"><ele>870.0</ele><time>2026-05-03T07:55:32Z</time></trkpt><trkpt lat="42.24632634698229" lon="-3.6715715295984546"><ele>868.5</ele><time>2026-05-03T07:55:33Z</time></trkpt><trkpt lat="42.24622171295597" lon="-3.671649512032111"><ele>867.0</ele><time>2026-05-03T07:55:34Z</time></trkpt><trkpt lat="42.24612169667275" lon="-3.6717379499291516"><ele>867.0</ele><time>2026-05-03T07:55:35Z</time></trkpt><trkpt lat="42.246005396714" lon="-3.671866300203339"><ele>867.0</ele><time>2026-05-03T07:55:36Z</time></trkpt><trkpt lat="42.245879106655394" lon="-3.671954506175186"><ele>867.0</ele><time>2026-05-03T07:55:37Z</time></trkpt><trkpt lat="42.245752717660444" lon="-3.6720331125890193"><ele>867.0</ele><time>2026-05-03T07:55:39Z</time></trkpt><trkpt lat="42.24566053267586" lon="-3.6721112629738863"><ele>866.8</ele><time>2026-05-03T07:55:40Z</time></trkpt><trkpt lat="42.24557135026946" lon="-3.672189138952444"><ele>866.6</ele><time>2026-05-03T07:55:41Z</time></trkpt><trkpt lat="42.24548099907741" lon="-3.672270260136339"><ele>866.3999999999999</ele><time>2026-05-03T07:55:42Z</time></trkpt><trkpt lat="42.245397563249284" lon="-3.6723565962723486"><ele>866.1999999999999</ele><time>2026-05-03T07:55:43Z</time></trkpt><trkpt lat="42.245318903538966" lon="-3.672452924768226"><ele>866.0</ele><time>2026-05-03T07:55:44Z</time></trkpt><trkpt lat="42.245231429452424" lon="-3.6725439073433237"><ele>866.0</ele><time>2026-05-03T07:55:45Z</time></trkpt><trkpt lat="42.245167014459675" lon="-3.672664673559261"><ele>865.9999999999999</ele><time>2026-05-03T07:55:46Z</time></trkpt><trkpt lat="42.24508272893513" lon="-3.672763561032451"><ele>865.9999999999999</ele><time>2026-05-03T07:55:47Z</time></trkpt><trkpt lat="42.24501887549797" lon="-3.672881151845576"><ele>866.0</ele><time>2026-05-03T07:55:48Z</time></trkpt><trkpt lat="42.244964468086714" lon="-3.6730093581930405"><ele>866.0</ele><time>2026-05-03T07:55:49Z</time></trkpt><trkpt lat="42.244892830399465" lon="-3.6731150221011495"><ele>866.0</ele><time>2026-05-03T07:55:50Z</time></trkpt><trkpt lat="42.24482458064829" lon="-3.673229400732277"><ele>865.9999999999999</ele><time>2026-05-03T07:55:51Z</time></trkpt><trkpt lat="42.24476075742164" lon="-3.673344963509561"><ele>865.9999999999999</ele><time>2026-05-03T07:55:52Z</time></trkpt><trkpt lat="42.24469623733534" lon="-3.673463344734925"><ele>866.0</ele><time>2026-05-03T07:55:53Z</time></trkpt><trkpt lat="42.24462880782481" lon="-3.6735778840533215"><ele>866.0</ele><time>2026-05-03T07:55:54Z</time></trkpt><trkpt lat="42.24457705221847" lon="-3.6737104530763074"><ele>866.0</ele><time>2026-05-03T07:55:55Z</time></trkpt><trkpt lat="42.24451159978607" lon="-3.6738300012580107"><ele>865.9999999999999</ele><time>2026-05-03T07:55:56Z</time></trkpt><trkpt lat="42.24444360356232" lon="-3.6739446502911184"><ele>865.9999999999999</ele><time>2026-05-03T07:55:57Z</time></trkpt><trkpt lat="42.24437453288002" lon="-3.674058061499137"><ele>866.0</ele><time>2026-05-03T07:55:58Z</time></trkpt><trkpt lat="42.244300277809806" lon="-3.6741612144580924"><ele>866.0</ele><time>2026-05-03T07:55:59Z</time></trkpt><trkpt lat="42.2442308732909" lon="-3.674274087138848"><ele>866.0</ele><time>2026-05-03T07:56:00Z</time></trkpt><trkpt lat="42.24415941761609" lon="-3.6743906119840233"><ele>865.9999999999999</ele><time>2026-05-03T07:56:01Z</time></trkpt><trkpt lat="42.244089506050344" lon="-3.6744993899527154"><ele>865.9999999999999</ele><time>2026-05-03T07:56:02Z</time></trkpt><trkpt lat="42.24401231564644" lon="-3.674606478188904"><ele>866.0</ele><time>2026-05-03T07:56:03Z</time></trkpt><trkpt lat="42.243938815848" lon="-3.674713437954776"><ele>866.0</ele><time>2026-05-03T07:56:04Z</time></trkpt><trkpt lat="42.243866288422694" lon="-3.6748162643032325"><ele>866.0</ele><time>2026-05-03T07:56:05Z</time></trkpt><trkpt lat="42.24379433304794" lon="-3.6749250070513377"><ele>865.9999999999999</ele><time>2026-05-03T07:56:06Z</time></trkpt><trkpt lat="42.243716010653195" lon="-3.6750240398884273"><ele>865.9999999999999</ele><time>2026-05-03T07:56:07Z</time></trkpt><trkpt lat="42.243641765723304" lon="-3.675129341684146"><ele>866.0</ele><time>2026-05-03T07:56:08Z</time></trkpt><trkpt lat="42.243564093764626" lon="-3.6752233412233983"><ele>866.0</ele><time>2026-05-03T07:56:09Z</time></trkpt><trkpt lat="42.243489490420764" lon="-3.6753192596585524"><ele>866.0000000000001</ele><time>2026-05-03T07:56:10Z</time></trkpt><trkpt lat="42.24341741278715" lon="-3.675413898028671"><ele>866.0</ele><time>2026-05-03T07:56:11Z</time></trkpt><trkpt lat="42.24335125752253" lon="-3.6755078964792163"><ele>866.0</ele><time>2026-05-03T07:56:12Z</time></trkpt><trkpt lat="42.243295611488676" lon="-3.675597068516013"><ele>866.0</ele><time>2026-05-03T07:56:13Z</time></trkpt><trkpt lat="42.24324775976467" lon="-3.675688196069062"><ele>866.0000000000001</ele><time>2026-05-03T07:56:14Z</time></trkpt><trkpt lat="42.24320818858097" lon="-3.6757808697400556"><ele>866.0</ele><time>2026-05-03T07:56:15Z</time></trkpt><trkpt lat="42.24316848445379" lon="-3.6758573459927026"><ele>866.8</ele><time>2026-05-03T07:56:16Z</time></trkpt><trkpt lat="42.243117503017146" lon="-3.675913376773748"><ele>867.5999999999999</ele><time>2026-05-03T07:56:17Z</time></trkpt><trkpt lat="42.24306839362717" lon="-3.676014941189331"><ele>868.4</ele><time>2026-05-03T07:56:19Z</time></trkpt><trkpt lat="42.242902221207444" lon="-3.675913306173222"><ele>869.2</ele><time>2026-05-03T07:56:20Z</time></trkpt><trkpt lat="42.24282970752153" lon="-3.6758490046716314"><ele>870.0</ele><time>2026-05-03T07:56:21Z</time></trkpt><trkpt lat="42.242760984021565" lon="-3.6757772968626297"><ele>870.0</ele><time>2026-05-03T07:56:22Z</time></trkpt><trkpt lat="42.24269151409518" lon="-3.6756946250695743"><ele>870.0</ele><time>2026-05-03T07:56:23Z</time></trkpt><trkpt lat="42.242623047885985" lon="-3.6756090685138565"><ele>870.0</ele><time>2026-05-03T07:56:24Z</time></trkpt><trkpt lat="42.24255036452806" lon="-3.675522596663278"><ele>870.0</ele><time>2026-05-03T07:56:25Z</time></trkpt><trkpt lat="42.242478280149754" lon="-3.6754342371161925"><ele>870.0</ele><time>2026-05-03T07:56:26Z</time></trkpt><trkpt lat="42.2424004833381" lon="-3.675345501874929"><ele>869.8</ele><time>2026-05-03T07:56:27Z</time></trkpt><trkpt lat="42.24231980262741" lon="-3.6752584006736977"><ele>869.6</ele><time>2026-05-03T07:56:28Z</time></trkpt><trkpt lat="42.242237955253955" lon="-3.67516579750545"><ele>869.4000000000001</ele><time>2026-05-03T07:56:29Z</time></trkpt><trkpt lat="42.24215557806138" lon="-3.675071905987182"><ele>869.2</ele><time>2026-05-03T07:56:30Z</time></trkpt><trkpt lat="42.24207370218832" lon="-3.6749729842476846"><ele>869.0</ele><time>2026-05-03T07:56:31Z</time></trkpt><trkpt lat="42.24198900432864" lon="-3.6748756717796085"><ele>869.0</ele><time>2026-05-03T07:56:32Z</time></trkpt><trkpt lat="42.241903890943185" lon="-3.674780992581304"><ele>869.0000000000001</ele><time>2026-05-03T07:56:33Z</time></trkpt><trkpt lat="42.24182186515297" lon="-3.6746794048809153"><ele>869.0000000000001</ele><time>2026-05-03T07:56:34Z</time></trkpt><trkpt lat="42.241737945816446" lon="-3.6745751288064343"><ele>869.0</ele><time>2026-05-03T07:56:35Z</time></trkpt><trkpt lat="42.24165502605579" lon="-3.6744825084643846"><ele>869.0</ele><time>2026-05-03T07:56:36Z</time></trkpt><trkpt lat="42.241569745695024" lon="-3.6743848767705516"><ele>869.0</ele><time>2026-05-03T07:56:37Z</time></trkpt><trkpt lat="42.24148368901347" lon="-3.6742843407173735"><ele>869.0</ele><time>2026-05-03T07:56:38Z</time></trkpt><trkpt lat="42.24139689833505" lon="-3.674184745378962"><ele>869.0</ele><time>2026-05-03T07:56:39Z</time></trkpt><trkpt lat="42.2413112541104" lon="-3.674084317623228"><ele>869.0</ele><time>2026-05-03T07:56:40Z</time></trkpt><trkpt lat="42.24122590513156" lon="-3.673983499146962"><ele>869.0</ele><time>2026-05-03T07:56:41Z</time></trkpt><trkpt lat="42.24113862667323" lon="-3.6738822073840867"><ele>869.0</ele><time>2026-05-03T07:56:42Z</time></trkpt><trkpt lat="42.24105553130914" lon="-3.6737842214491185"><ele>869.0</ele><time>2026-05-03T07:56:43Z</time></trkpt><trkpt lat="42.24097104079368" lon="-3.673682531119909"><ele>869.0</ele><time>2026-05-03T07:56:44Z</time></trkpt><trkpt lat="42.240885964299665" lon="-3.6735832665912986"><ele>869.6</ele><time>2026-05-03T07:56:45Z</time></trkpt><trkpt lat="42.24079858297169" lon="-3.673488509069365"><ele>870.2</ele><time>2026-05-03T07:56:46Z</time></trkpt><trkpt lat="42.2407120704546" lon="-3.6733919937360544"><ele>870.8000000000001</ele><time>2026-05-03T07:56:47Z</time></trkpt><trkpt lat="42.24062533919858" lon="-3.6732947102338556"><ele>871.4000000000001</ele><time>2026-05-03T07:56:48Z</time></trkpt><trkpt lat="42.240540967948135" lon="-3.6731945847709797"><ele>872.0</ele><time>2026-05-03T07:56:49Z</time></trkpt><trkpt lat="42.240455825385524" lon="-3.6730954820770836"><ele>872.0</ele><time>2026-05-03T07:56:50Z</time></trkpt><trkpt lat="42.24037094949185" lon="-3.672999357684558"><ele>872.0</ele><time>2026-05-03T07:56:51Z</time></trkpt><trkpt lat="42.24028528175575" lon="-3.672897934389537"><ele>872.0</ele><time>2026-05-03T07:56:52Z</time></trkpt><trkpt lat="42.24020011723193" lon="-3.672796649896683"><ele>872.0</ele><time>2026-05-03T07:56:53Z</time></trkpt><trkpt lat="42.24011864591775" lon="-3.6726928614925045"><ele>872.0</ele><time>2026-05-03T07:56:54Z</time></trkpt><trkpt lat="42.240033802850036" lon="-3.6725969052399"><ele>872.0</ele><time>2026-05-03T07:56:55Z</time></trkpt><trkpt lat="42.23994772189989" lon="-3.6725068759051873"><ele>872.0</ele><time>2026-05-03T07:56:56Z</time></trkpt><trkpt lat="42.23986140164303" lon="-3.672401091766622"><ele>872.0</ele><time>2026-05-03T07:56:57Z</time></trkpt><trkpt lat="42.23977726655108" lon="-3.6723062029165976"><ele>872.0</ele><time>2026-05-03T07:56:58Z</time></trkpt><trkpt lat="42.239692348648035" lon="-3.6722046354704183"><ele>872.0</ele><time>2026-05-03T07:56:59Z</time></trkpt><trkpt lat="42.239608509446676" lon="-3.6721176948848777"><ele>872.0</ele><time>2026-05-03T07:57:00Z</time></trkpt><trkpt lat="42.23952313300601" lon="-3.672006206585172"><ele>872.0</ele><time>2026-05-03T07:57:01Z</time></trkpt><trkpt lat="42.23944038225889" lon="-3.671907287656375"><ele>872.0</ele><time>2026-05-03T07:57:02Z</time></trkpt><trkpt lat="42.239358874417604" lon="-3.6718076602441103"><ele>872.0</ele><time>2026-05-03T07:57:03Z</time></trkpt><trkpt lat="42.23927732958532" lon="-3.6717058201589152"><ele>872.25</ele><time>2026-05-03T07:57:04Z</time></trkpt><trkpt lat="42.23918576459019" lon="-3.6716160866813032"><ele>872.5</ele><time>2026-05-03T07:57:05Z</time></trkpt><trkpt lat="42.23910699559174" lon="-3.67152474206414"><ele>872.75</ele><time>2026-05-03T07:57:06Z</time></trkpt><trkpt lat="42.239018692747436" lon="-3.671497666994318"><ele>873.0</ele><time>2026-05-03T07:57:07Z</time></trkpt><trkpt lat="42.23893131571974" lon="-3.6713200796754024"><ele>872.4</ele><time>2026-05-03T07:57:08Z</time></trkpt><trkpt lat="42.23884762365619" lon="-3.6712284503465176"><ele>871.8</ele><time>2026-05-03T07:57:09Z</time></trkpt><trkpt lat="42.23876769031164" lon="-3.6711201247815204"><ele>871.2</ele><time>2026-05-03T07:57:10Z</time></trkpt><trkpt lat="42.238675051095996" lon="-3.6710333129081043"><ele>870.6</ele><time>2026-05-03T07:57:11Z</time></trkpt><trkpt lat="42.23860268463774" lon="-3.6709316307952493"><ele>870.0</ele><time>2026-05-03T07:57:12Z</time></trkpt><trkpt lat="42.23850718969515" lon="-3.670828894753676"><ele>870.0</ele><time>2026-05-03T07:57:13Z</time></trkpt><trkpt lat="42.238433181199674" lon="-3.670732414799145"><ele>870.0</ele><time>2026-05-03T07:57:14Z</time></trkpt><trkpt lat="42.23833758053116" lon="-3.670632351038775"><ele>870.0</ele><time>2026-05-03T07:57:15Z</time></trkpt><trkpt lat="42.238271834263266" lon="-3.670548878088775"><ele>870.0</ele><time>2026-05-03T07:57:16Z</time></trkpt><trkpt lat="42.238095253678324" lon="-3.670331873300094"><ele>869.6</ele><time>2026-05-03T07:57:18Z</time></trkpt><trkpt lat="42.238014675309984" lon="-3.6702380308199394"><ele>869.2</ele><time>2026-05-03T07:57:19Z</time></trkpt><trkpt lat="42.23793043861393" lon="-3.670141746392702"><ele>868.8</ele><time>2026-05-03T07:57:20Z</time></trkpt><trkpt lat="42.23784581664035" lon="-3.670042381467596"><ele>868.4</ele><time>2026-05-03T07:57:21Z</time></trkpt><trkpt lat="42.23776419889401" lon="-3.6699445313782877"><ele>868.0</ele><time>2026-05-03T07:57:22Z</time></trkpt><trkpt lat="42.23767783116679" lon="-3.6698485542593655"><ele>868.0</ele><time>2026-05-03T07:57:23Z</time></trkpt><trkpt lat="42.237591708511644" lon="-3.6697487908535806"><ele>868.0</ele><time>2026-05-03T07:57:24Z</time></trkpt><trkpt lat="42.23750810213631" lon="-3.669653265059627"><ele>868.0</ele><time>2026-05-03T07:57:25Z</time></trkpt><trkpt lat="42.23742447237612" lon="-3.6695566905616865"><ele>868.0</ele><time>2026-05-03T07:57:26Z</time></trkpt><trkpt lat="42.23734116261054" lon="-3.6694609972526826"><ele>868.0</ele><time>2026-05-03T07:57:27Z</time></trkpt><trkpt lat="42.23726035996607" lon="-3.6693672690938364"><ele>869.0</ele><time>2026-05-03T07:57:28Z</time></trkpt><trkpt lat="42.237176415644655" lon="-3.6692721965315083"><ele>870.0</ele><time>2026-05-03T07:57:29Z</time></trkpt><trkpt lat="42.23709357271694" lon="-3.669179337325256"><ele>871.0</ele><time>2026-05-03T07:57:30Z</time></trkpt><trkpt lat="42.23701280365296" lon="-3.669081927255514"><ele>872.0</ele><time>2026-05-03T07:57:31Z</time></trkpt><trkpt lat="42.236932612413504" lon="-3.668983276266513"><ele>873.0</ele><time>2026-05-03T07:57:32Z</time></trkpt><trkpt lat="42.236849243074694" lon="-3.6688877124187185"><ele>873.0</ele><time>2026-05-03T07:57:33Z</time></trkpt><trkpt lat="42.23676571532786" lon="-3.6687932453609764"><ele>873.0</ele><time>2026-05-03T07:57:34Z</time></trkpt><trkpt lat="42.23668200806996" lon="-3.66869555355215"><ele>873.0</ele><time>2026-05-03T07:57:35Z</time></trkpt><trkpt lat="42.23659982176265" lon="-3.6685992662622464"><ele>873.0</ele><time>2026-05-03T07:57:36Z</time></trkpt><trkpt lat="42.23651715046227" lon="-3.6685043891387252"><ele>873.0</ele><time>2026-05-03T07:57:37Z</time></trkpt><trkpt lat="42.23643500778747" lon="-3.668404626981556"><ele>873.8</ele><time>2026-05-03T07:57:38Z</time></trkpt><trkpt lat="42.23635167348085" lon="-3.6683103541352597"><ele>874.5999999999999</ele><time>2026-05-03T07:57:39Z</time></trkpt><trkpt lat="42.236263336350625" lon="-3.6682143240547496"><ele>875.4000000000001</ele><time>2026-05-03T07:57:40Z</time></trkpt><trkpt lat="42.23617691282885" lon="-3.6681204281400874"><ele>876.2</ele><time>2026-05-03T07:57:41Z</time></trkpt><trkpt lat="42.23609328109391" lon="-3.6680244980980374"><ele>877.0</ele><time>2026-05-03T07:57:42Z</time></trkpt><trkpt lat="42.23600828860502" lon="-3.667927413503024"><ele>877.0</ele><time>2026-05-03T07:57:43Z</time></trkpt><trkpt lat="42.23592402126547" lon="-3.6678346408434903"><ele>877.0</ele><time>2026-05-03T07:57:44Z</time></trkpt><trkpt lat="42.23583630348423" lon="-3.667745610724294"><ele>877.0</ele><time>2026-05-03T07:57:45Z</time></trkpt><trkpt lat="42.235744242051425" lon="-3.667661003087098"><ele>877.0</ele><time>2026-05-03T07:57:46Z</time></trkpt><trkpt lat="42.235649161317696" lon="-3.6675827199111"><ele>877.0</ele><time>2026-05-03T07:57:47Z</time></trkpt><trkpt lat="42.23555257139324" lon="-3.6675144145946375"><ele>876.8</ele><time>2026-05-03T07:57:48Z</time></trkpt><trkpt lat="42.23545145162606" lon="-3.667450680500945"><ele>876.6</ele><time>2026-05-03T07:57:49Z</time></trkpt><trkpt lat="42.2353520766826" lon="-3.667392411355487"><ele>876.3999999999999</ele><time>2026-05-03T07:57:50Z</time></trkpt><trkpt lat="42.235253134465516" lon="-3.6673243463323"><ele>876.1999999999999</ele><time>2026-05-03T07:57:51Z</time></trkpt><trkpt lat="42.23515573294708" lon="-3.6672593754234444"><ele>876.0</ele><time>2026-05-03T07:57:52Z</time></trkpt><trkpt lat="42.23505704845939" lon="-3.6672006631973115"><ele>876.0</ele><time>2026-05-03T07:57:53Z</time></trkpt><trkpt lat="42.23495823222479" lon="-3.667140548128472"><ele>875.9999999999999</ele><time>2026-05-03T07:57:54Z</time></trkpt><trkpt lat="42.23486076025153" lon="-3.667079473743952"><ele>875.9999999999999</ele><time>2026-05-03T07:57:55Z</time></trkpt><trkpt lat="42.2347639929952" lon="-3.667016137782504"><ele>876.0</ele><time>2026-05-03T07:57:56Z</time></trkpt><trkpt lat="42.23466679686755" lon="-3.666951490809942"><ele>876.0</ele><time>2026-05-03T07:57:57Z</time></trkpt><trkpt lat="42.23457074168328" lon="-3.6668839246816525"><ele>876.5999999999999</ele><time>2026-05-03T07:57:58Z</time></trkpt><trkpt lat="42.23447361323741" lon="-3.6668143723382167"><ele>877.1999999999999</ele><time>2026-05-03T07:57:59Z</time></trkpt><trkpt lat="42.23437720355773" lon="-3.666745079803329"><ele>877.8000000000001</ele><time>2026-05-03T07:58:00Z</time></trkpt><trkpt lat="42.23428280735949" lon="-3.6666667371017936"><ele>878.4000000000001</ele><time>2026-05-03T07:58:01Z</time></trkpt><trkpt lat="42.23418765091165" lon="-3.6665850034450527"><ele>879.0</ele><time>2026-05-03T07:58:02Z</time></trkpt><trkpt lat="42.23409644817588" lon="-3.666497947770016"><ele>879.0</ele><time>2026-05-03T07:58:03Z</time></trkpt><trkpt lat="42.23400850232957" lon="-3.6664080073714596"><ele>879.0000000000001</ele><time>2026-05-03T07:58:04Z</time></trkpt><trkpt lat="42.233924698863376" lon="-3.6663125459735584"><ele>879.0000000000001</ele><time>2026-05-03T07:58:05Z</time></trkpt><trkpt lat="42.233843990568275" lon="-3.666215302876804"><ele>879.0</ele><time>2026-05-03T07:58:06Z</time></trkpt><trkpt lat="42.23376005228115" lon="-3.6661171551253062"><ele>879.0</ele><time>2026-05-03T07:58:07Z</time></trkpt><trkpt lat="42.23367776052613" lon="-3.6660152820610574"><ele>878.2</ele><time>2026-05-03T07:58:08Z</time></trkpt><trkpt lat="42.23359935801666" lon="-3.665915423979942"><ele>877.4000000000001</ele><time>2026-05-03T07:58:09Z</time></trkpt><trkpt lat="42.23352101181583" lon="-3.6658136500568133"><ele>876.6</ele><time>2026-05-03T07:58:10Z</time></trkpt><trkpt lat="42.23344343401685" lon="-3.665709743453848"><ele>875.8</ele><time>2026-05-03T07:58:11Z</time></trkpt><trkpt lat="42.23336496180925" lon="-3.665604302557386"><ele>875.0</ele><time>2026-05-03T07:58:12Z</time></trkpt><trkpt lat="42.233287441366286" lon="-3.6655021268768917"><ele>875.0</ele><time>2026-05-03T07:58:13Z</time></trkpt><trkpt lat="42.23321372356881" lon="-3.665399659007893"><ele>875.0</ele><time>2026-05-03T07:58:14Z</time></trkpt><trkpt lat="42.23313470965059" lon="-3.665296330176699"><ele>875.0</ele><time>2026-05-03T07:58:15Z</time></trkpt><trkpt lat="42.23305465118579" lon="-3.6651939853632345"><ele>875.0</ele><time>2026-05-03T07:58:16Z</time></trkpt><trkpt lat="42.23297880984189" lon="-3.6650925090220974"><ele>875.0</ele><time>2026-05-03T07:58:17Z</time></trkpt><trkpt lat="42.23290238801227" lon="-3.6649904963341515"><ele>875.2</ele><time>2026-05-03T07:58:18Z</time></trkpt><trkpt lat="42.2328249328133" lon="-3.6648886136233303"><ele>875.4</ele><time>2026-05-03T07:58:19Z</time></trkpt><trkpt lat="42.232746658399755" lon="-3.664789264048437"><ele>875.5999999999999</ele><time>2026-05-03T07:58:20Z</time></trkpt><trkpt lat="42.23266913026671" lon="-3.664685070057912"><ele>875.8</ele><time>2026-05-03T07:58:21Z</time></trkpt><trkpt lat="42.232591570616094" lon="-3.664583099293558"><ele>876.0</ele><time>2026-05-03T07:58:22Z</time></trkpt><trkpt lat="42.232512099616045" lon="-3.6644860848232397"><ele>876.0</ele><time>2026-05-03T07:58:23Z</time></trkpt><trkpt lat="42.23243043647701" lon="-3.6643762253017242"><ele>875.9999999999999</ele><time>2026-05-03T07:58:24Z</time></trkpt><trkpt lat="42.23235196178128" lon="-3.6642936206222507"><ele>875.9999999999999</ele><time>2026-05-03T07:58:25Z</time></trkpt><trkpt lat="42.23228014665403" lon="-3.664181969941042"><ele>876.0</ele><time>2026-05-03T07:58:26Z</time></trkpt><trkpt lat="42.23219874007079" lon="-3.664073231771706"><ele>876.0</ele><time>2026-05-03T07:58:27Z</time></trkpt><trkpt lat="42.232119130933505" lon="-3.663975669853597"><ele>876.1999999999999</ele><time>2026-05-03T07:58:28Z</time></trkpt><trkpt lat="42.23203799824284" lon="-3.6638520244815624"><ele>876.3999999999999</ele><time>2026-05-03T07:58:29Z</time></trkpt><trkpt lat="42.231957985719774" lon="-3.6637626216423897"><ele>876.6</ele><time>2026-05-03T07:58:30Z</time></trkpt><trkpt lat="42.23188399642479" lon="-3.663668355027192"><ele>876.8</ele><time>2026-05-03T07:58:31Z</time></trkpt><trkpt lat="42.23180048454981" lon="-3.6635554513530626"><ele>877.0</ele><time>2026-05-03T07:58:32Z</time></trkpt><trkpt lat="42.231716170880254" lon="-3.6634418874436223"><ele>877.2</ele><time>2026-05-03T07:58:33Z</time></trkpt><trkpt lat="42.231628574566415" lon="-3.6633358865800276"><ele>877.4000000000001</ele><time>2026-05-03T07:58:34Z</time></trkpt><trkpt lat="42.23155313186672" lon="-3.663240026219744"><ele>877.5999999999999</ele><time>2026-05-03T07:58:35Z</time></trkpt><trkpt lat="42.23149204313006" lon="-3.6631409680106173"><ele>877.8</ele><time>2026-05-03T07:58:36Z</time></trkpt><trkpt lat="42.23141822845686" lon="-3.6630398055253472"><ele>878.0</ele><time>2026-05-03T07:58:37Z</time></trkpt><trkpt lat="42.2313383701614" lon="-3.662938144632844"><ele>878.0</ele><time>2026-05-03T07:58:38Z</time></trkpt><trkpt lat="42.23125979341228" lon="-3.662838283852006"><ele>878.0</ele><time>2026-05-03T07:58:39Z</time></trkpt><trkpt lat="42.231181532548234" lon="-3.6627381639734393"><ele>878.0</ele><time>2026-05-03T07:58:40Z</time></trkpt><trkpt lat="42.23110217210649" lon="-3.6626386985485313"><ele>878.0</ele><time>2026-05-03T07:58:41Z</time></trkpt><trkpt lat="42.23102620815296" lon="-3.6625383718302356"><ele>878.0</ele><time>2026-05-03T07:58:42Z</time></trkpt><trkpt lat="42.23094906410507" lon="-3.6624362940337027"><ele>878.0</ele><time>2026-05-03T07:58:43Z</time></trkpt><trkpt lat="42.23087155153045" lon="-3.6623327719163394"><ele>878.0</ele><time>2026-05-03T07:58:44Z</time></trkpt><trkpt lat="42.23079444431464" lon="-3.66223494728139"><ele>878.0</ele><time>2026-05-03T07:58:45Z</time></trkpt><trkpt lat="42.23071906555034" lon="-3.6621359307324246"><ele>878.0</ele><time>2026-05-03T07:58:46Z</time></trkpt><trkpt lat="42.230640964338484" lon="-3.662035876891972"><ele>878.0</ele><time>2026-05-03T07:58:47Z</time></trkpt><trkpt lat="42.23056407517637" lon="-3.6619363830640896"><ele>878.2</ele><time>2026-05-03T07:58:48Z</time></trkpt><trkpt lat="42.230485524376355" lon="-3.661836708932268"><ele>878.4</ele><time>2026-05-03T07:58:49Z</time></trkpt><trkpt lat="42.230408981985015" lon="-3.661736045206145"><ele>878.6000000000001</ele><time>2026-05-03T07:58:50Z</time></trkpt><trkpt lat="42.23033486769939" lon="-3.6616319182668198"><ele>878.8000000000001</ele><time>2026-05-03T07:58:51Z</time></trkpt><trkpt lat="42.23026061651742" lon="-3.6615326601501694"><ele>879.0</ele><time>2026-05-03T07:58:52Z</time></trkpt><trkpt lat="42.230185129678304" lon="-3.661428252051625"><ele>879.0</ele><time>2026-05-03T07:58:53Z</time></trkpt><trkpt lat="42.23010784029441" lon="-3.6613259071908613"><ele>879.0000000000001</ele><time>2026-05-03T07:58:54Z</time></trkpt><trkpt lat="42.23002862735792" lon="-3.6612284758705793"><ele>879.0000000000001</ele><time>2026-05-03T07:58:55Z</time></trkpt><trkpt lat="42.22995632820857" lon="-3.6611246431309143"><ele>879.0</ele><time>2026-05-03T07:58:56Z</time></trkpt><trkpt lat="42.229880583962284" lon="-3.661022119625212"><ele>879.0</ele><time>2026-05-03T07:58:57Z</time></trkpt><trkpt lat="42.229805478806824" lon="-3.660920332808925"><ele>878.8000000000001</ele><time>2026-05-03T07:58:58Z</time></trkpt><trkpt lat="42.229729801789055" lon="-3.660818600597667"><ele>878.6000000000001</ele><time>2026-05-03T07:58:59Z</time></trkpt><trkpt lat="42.22965410807731" lon="-3.6607144561288383"><ele>878.4</ele><time>2026-05-03T07:59:00Z</time></trkpt><trkpt lat="42.22957894511193" lon="-3.660613463128839"><ele>878.2</ele><time>2026-05-03T07:59:01Z</time></trkpt><trkpt lat="42.22950221484491" lon="-3.66051439409632"><ele>878.0</ele><time>2026-05-03T07:59:02Z</time></trkpt><trkpt lat="42.22942464379889" lon="-3.6604126723561006"><ele>878.0</ele><time>2026-05-03T07:59:03Z</time></trkpt><trkpt lat="42.229347620239224" lon="-3.6603149059114335"><ele>878.0</ele><time>2026-05-03T07:59:04Z</time></trkpt><trkpt lat="42.22927228490814" lon="-3.6602143259072304"><ele>878.0</ele><time>2026-05-03T07:59:05Z</time></trkpt><trkpt lat="42.22919551622772" lon="-3.660112665523836"><ele>878.0</ele><time>2026-05-03T07:59:06Z</time></trkpt><trkpt lat="42.229118812267785" lon="-3.660011761098173"><ele>878.0</ele><time>2026-05-03T07:59:07Z</time></trkpt><trkpt lat="42.22904220122702" lon="-3.6599136571625004"><ele>879.4</ele><time>2026-05-03T07:59:08Z</time></trkpt><trkpt lat="42.228966105606645" lon="-3.659811970781804"><ele>880.8</ele><time>2026-05-03T07:59:09Z</time></trkpt><trkpt lat="42.228889425447164" lon="-3.65971144814176"><ele>882.2</ele><time>2026-05-03T07:59:10Z</time></trkpt><trkpt lat="42.228812993548715" lon="-3.659611784980616"><ele>883.6</ele><time>2026-05-03T07:59:11Z</time></trkpt><trkpt lat="42.228736259557515" lon="-3.65951341335456"><ele>885.0</ele><time>2026-05-03T07:59:12Z</time></trkpt><trkpt lat="42.22865909510216" lon="-3.6594146134297763"><ele>885.0</ele><time>2026-05-03T07:59:13Z</time></trkpt><trkpt lat="42.22858137995395" lon="-3.6593138817649615"><ele>885.0</ele><time>2026-05-03T07:59:14Z</time></trkpt><trkpt lat="42.22850489885631" lon="-3.659210626772276"><ele>885.0</ele><time>2026-05-03T07:59:15Z</time></trkpt><trkpt lat="42.22842778472856" lon="-3.6591100060607236"><ele>885.0</ele><time>2026-05-03T07:59:16Z</time></trkpt><trkpt lat="42.228350899280976" lon="-3.6590102616944256"><ele>885.0</ele><time>2026-05-03T07:59:17Z</time></trkpt><trkpt lat="42.2282721956443" lon="-3.6589062598814257"><ele>885.0</ele><time>2026-05-03T07:59:18Z</time></trkpt><trkpt lat="42.22819508030247" lon="-3.6588035192500703"><ele>885.0</ele><time>2026-05-03T07:59:19Z</time></trkpt><trkpt lat="42.2281178530504" lon="-3.658701729346628"><ele>885.0</ele><time>2026-05-03T07:59:20Z</time></trkpt><trkpt lat="42.228036363734894" lon="-3.6585975425848707"><ele>885.0</ele><time>2026-05-03T07:59:21Z</time></trkpt><trkpt lat="42.227959320157886" lon="-3.6584989298739945"><ele>885.0</ele><time>2026-05-03T07:59:22Z</time></trkpt><trkpt lat="42.22787868006566" lon="-3.658395689360301"><ele>884.6</ele><time>2026-05-03T07:59:23Z</time></trkpt><trkpt lat="42.22780079673799" lon="-3.658290574277482"><ele>884.2</ele><time>2026-05-03T07:59:24Z</time></trkpt><trkpt lat="42.22772465425352" lon="-3.6581891940784335"><ele>883.8</ele><time>2026-05-03T07:59:25Z</time></trkpt><trkpt lat="42.22764457760201" lon="-3.658082768792296"><ele>883.4</ele><time>2026-05-03T07:59:26Z</time></trkpt><trkpt lat="42.22756732990585" lon="-3.657981081862635"><ele>883.0</ele><time>2026-05-03T07:59:27Z</time></trkpt><trkpt lat="42.227490552514574" lon="-3.657879221335149"><ele>883.4</ele><time>2026-05-03T07:59:28Z</time></trkpt><trkpt lat="42.22741340701365" lon="-3.6577783315502668"><ele>883.8</ele><time>2026-05-03T07:59:29Z</time></trkpt><trkpt lat="42.22733359433684" lon="-3.65767905454477"><ele>884.2</ele><time>2026-05-03T07:59:30Z</time></trkpt><trkpt lat="42.227258176751334" lon="-3.6575789895752204"><ele>884.6</ele><time>2026-05-03T07:59:31Z</time></trkpt><trkpt lat="42.22718000415371" lon="-3.657478944685102"><ele>885.0</ele><time>2026-05-03T07:59:32Z</time></trkpt><trkpt lat="42.22710212648913" lon="-3.657382402564218"><ele>885.0</ele><time>2026-05-03T07:59:33Z</time></trkpt><trkpt lat="42.227026072663605" lon="-3.657283123513644"><ele>885.0</ele><time>2026-05-03T07:59:34Z</time></trkpt><trkpt lat="42.22694965196958" lon="-3.657180358513984"><ele>885.0</ele><time>2026-05-03T07:59:35Z</time></trkpt><trkpt lat="42.226872848451514" lon="-3.6570786678365352"><ele>885.0</ele><time>2026-05-03T07:59:36Z</time></trkpt><trkpt lat="42.22679491597555" lon="-3.656979815140356"><ele>885.0</ele><time>2026-05-03T07:59:37Z</time></trkpt><trkpt lat="42.22671615419345" lon="-3.6568817436752314"><ele>884.8</ele><time>2026-05-03T07:59:38Z</time></trkpt><trkpt lat="42.22663799577036" lon="-3.6567773749323016"><ele>884.6</ele><time>2026-05-03T07:59:39Z</time></trkpt><trkpt lat="42.22655937405439" lon="-3.6566754507575956"><ele>884.4000000000001</ele><time>2026-05-03T07:59:40Z</time></trkpt><trkpt lat="42.22648249434888" lon="-3.656573363220904"><ele>884.2</ele><time>2026-05-03T07:59:41Z</time></trkpt><trkpt lat="42.22640583403684" lon="-3.6564697007298235"><ele>884.0</ele><time>2026-05-03T07:59:42Z</time></trkpt><trkpt lat="42.22632756871685" lon="-3.6563703190784156"><ele>884.2</ele><time>2026-05-03T07:59:43Z</time></trkpt><trkpt lat="42.22624849698246" lon="-3.656265392857736"><ele>884.4000000000001</ele><time>2026-05-03T07:59:44Z</time></trkpt><trkpt lat="42.226172228627085" lon="-3.6561653901854716"><ele>884.6</ele><time>2026-05-03T07:59:45Z</time></trkpt><trkpt lat="42.22609433800337" lon="-3.6560624518336557"><ele>884.8</ele><time>2026-05-03T07:59:46Z</time></trkpt><trkpt lat="42.22601506804144" lon="-3.6559648850263975"><ele>885.0</ele><time>2026-05-03T07:59:47Z</time></trkpt><trkpt lat="42.22593075726193" lon="-3.6558658320586583"><ele>885.0</ele><time>2026-05-03T07:59:48Z</time></trkpt><trkpt lat="42.22584876238296" lon="-3.655774967289513"><ele>885.0</ele><time>2026-05-03T07:59:49Z</time></trkpt><trkpt lat="42.225761723182146" lon="-3.6556870710124616"><ele>885.0</ele><time>2026-05-03T07:59:50Z</time></trkpt><trkpt lat="42.22567714991071" lon="-3.655599716689"><ele>885.0</ele><time>2026-05-03T07:59:51Z</time></trkpt><trkpt lat="42.22558969349321" lon="-3.6555174997010833"><ele>885.0</ele><time>2026-05-03T07:59:52Z</time></trkpt><trkpt lat="42.2255015272999" lon="-3.6554395546302088"><ele>884.8</ele><time>2026-05-03T07:59:53Z</time></trkpt><trkpt lat="42.2254156629829" lon="-3.6553661576983862"><ele>884.6</ele><time>2026-05-03T07:59:54Z</time></trkpt><trkpt lat="42.22532490597843" lon="-3.6552968948001943"><ele>884.4000000000001</ele><time>2026-05-03T07:59:55Z</time></trkpt><trkpt lat="42.225235732673426" lon="-3.655231272063885"><ele>884.2</ele><time>2026-05-03T07:59:56Z</time></trkpt><trkpt lat="42.225146595658956" lon="-3.655174580548708"><ele>884.0</ele><time>2026-05-03T07:59:57Z</time></trkpt><trkpt lat="42.225058508609685" lon="-3.655114630476676"><ele>885.2</ele><time>2026-05-03T07:59:58Z</time></trkpt><trkpt lat="42.22496883309759" lon="-3.6550627155073814"><ele>886.4000000000001</ele><time>2026-05-03T07:59:59Z</time></trkpt><trkpt lat="42.22487957187283" lon="-3.655015276538478"><ele>887.6</ele><time>2026-05-03T08:00:00Z</time></trkpt><trkpt lat="42.22479406085156" lon="-3.654972451575721"><ele>888.8</ele><time>2026-05-03T08:00:01Z</time></trkpt><trkpt lat="42.2247052760578" lon="-3.654932546461335"><ele>890.0</ele><time>2026-05-03T08:00:02Z</time></trkpt><trkpt lat="42.224618521770346" lon="-3.6548941960377337"><ele>891.0</ele><time>2026-05-03T08:00:03Z</time></trkpt><trkpt lat="42.22453075529579" lon="-3.6548588538400617"><ele>892.0</ele><time>2026-05-03T08:00:04Z</time></trkpt><trkpt lat="42.224442011475105" lon="-3.6548246887071274"><ele>893.0</ele><time>2026-05-03T08:00:05Z</time></trkpt><trkpt lat="42.22435555614462" lon="-3.6547875160965044"><ele>894.0</ele><time>2026-05-03T08:00:06Z</time></trkpt><trkpt lat="42.2242709864464" lon="-3.6547530042426626"><ele>895.0</ele><time>2026-05-03T08:00:07Z</time></trkpt><trkpt lat="42.224186315927525" lon="-3.6547187351954222"><ele>894.9999999999999</ele><time>2026-05-03T08:00:08Z</time></trkpt><trkpt lat="42.22410000919316" lon="-3.654690652403054"><ele>895.0</ele><time>2026-05-03T08:00:09Z</time></trkpt><trkpt lat="42.22401691343399" lon="-3.6546551990201324"><ele>895.0</ele><time>2026-05-03T08:00:10Z</time></trkpt><trkpt lat="42.223934648526935" lon="-3.6546250837867555"><ele>895.0</ele><time>2026-05-03T08:00:11Z</time></trkpt><trkpt lat="42.22385042530285" lon="-3.6545903396663713"><ele>894.9999999999999</ele><time>2026-05-03T08:00:12Z</time></trkpt><trkpt lat="42.22376844335546" lon="-3.6545560119192975"><ele>895.0</ele><time>2026-05-03T08:00:13Z</time></trkpt><trkpt lat="42.22368685249875" lon="-3.654525732792477"><ele>895.3333333333333</ele><time>2026-05-03T08:00:14Z</time></trkpt><trkpt lat="42.22360522553569" lon="-3.654494361191161"><ele>895.6666666666666</ele><time>2026-05-03T08:00:15Z</time></trkpt><trkpt lat="42.22352518947603" lon="-3.654462516096584"><ele>896.0</ele><time>2026-05-03T08:00:16Z</time></trkpt><trkpt lat="42.223444541363364" lon="-3.6544285963875853"><ele>896.3333333333333</ele><time>2026-05-03T08:00:17Z</time></trkpt><trkpt lat="42.22336360772357" lon="-3.6544007885156975"><ele>896.6666666666666</ele><time>2026-05-03T08:00:18Z</time></trkpt><trkpt lat="42.22328413426506" lon="-3.654367583060501"><ele>897.0</ele><time>2026-05-03T08:00:19Z</time></trkpt><trkpt lat="42.22320538632963" lon="-3.654337254428938"><ele>898.1666666666666</ele><time>2026-05-03T08:00:20Z</time></trkpt><trkpt lat="42.22312312607465" lon="-3.6543017129176203"><ele>899.3333333333333</ele><time>2026-05-03T08:00:21Z</time></trkpt><trkpt lat="42.22304228712376" lon="-3.654270313534746"><ele>900.5</ele><time>2026-05-03T08:00:22Z</time></trkpt><trkpt lat="42.2229601656185" lon="-3.6542381146681313"><ele>901.6666666666666</ele><time>2026-05-03T08:00:23Z</time></trkpt><trkpt lat="42.222876053272145" lon="-3.654202740068002"><ele>902.8333333333333</ele><time>2026-05-03T08:00:24Z</time></trkpt><trkpt lat="42.22279036638131" lon="-3.6541663666509976"><ele>904.0</ele><time>2026-05-03T08:00:25Z</time></trkpt><trkpt lat="42.222705539482064" lon="-3.654132538322428"><ele>904.0</ele><time>2026-05-03T08:00:26Z</time></trkpt><trkpt lat="42.2226188344476" lon="-3.654097553622849"><ele>904.0000000000001</ele><time>2026-05-03T08:00:27Z</time></trkpt><trkpt lat="42.22252835007407" lon="-3.654061354504153"><ele>904.0000000000001</ele><time>2026-05-03T08:00:28Z</time></trkpt><trkpt lat="42.222435167892954" lon="-3.654024562508111"><ele>904.0</ele><time>2026-05-03T08:00:29Z</time></trkpt><trkpt lat="42.22234468093704" lon="-3.653988744349706"><ele>904.0</ele><time>2026-05-03T08:00:30Z</time></trkpt><trkpt lat="42.22225021999734" lon="-3.653950059123264"><ele>905.6</ele><time>2026-05-03T08:00:31Z</time></trkpt><trkpt lat="42.22215602433503" lon="-3.653915765772409"><ele>907.2</ele><time>2026-05-03T08:00:32Z</time></trkpt><trkpt lat="42.22206378919911" lon="-3.653878611637084"><ele>908.8000000000001</ele><time>2026-05-03T08:00:33Z</time></trkpt><trkpt lat="42.22197217530242" lon="-3.6538410011511484"><ele>910.4000000000001</ele><time>2026-05-03T08:00:34Z</time></trkpt><trkpt lat="42.22188006617705" lon="-3.6538035942555522"><ele>912.0</ele><time>2026-05-03T08:00:35Z</time></trkpt><trkpt lat="42.22178584282647" lon="-3.6537648009619828"><ele>912.0</ele><time>2026-05-03T08:00:36Z</time></trkpt><trkpt lat="42.221693934143666" lon="-3.6537327112177773"><ele>912.0</ele><time>2026-05-03T08:00:37Z</time></trkpt><trkpt lat="42.221600684020295" lon="-3.6536955047163135"><ele>912.0</ele><time>2026-05-03T08:00:38Z</time></trkpt><trkpt lat="42.22150943169628" lon="-3.6536599514660577"><ele>912.0</ele><time>2026-05-03T08:00:39Z</time></trkpt><trkpt lat="42.22141614369677" lon="-3.6536221215674747"><ele>912.0</ele><time>2026-05-03T08:00:40Z</time></trkpt><trkpt lat="42.22132072757082" lon="-3.6535839797710414"><ele>911.2</ele><time>2026-05-03T08:00:41Z</time></trkpt><trkpt lat="42.22122561008742" lon="-3.653541828314598"><ele>910.4000000000001</ele><time>2026-05-03T08:00:42Z</time></trkpt><trkpt lat="42.221127580448126" lon="-3.6535037794802134"><ele>909.5999999999999</ele><time>2026-05-03T08:00:43Z</time></trkpt><trkpt lat="42.22103010976326" lon="-3.6534642433144304"><ele>908.8</ele><time>2026-05-03T08:00:44Z</time></trkpt><trkpt lat="42.220932236022406" lon="-3.653427599985376"><ele>908.0</ele><time>2026-05-03T08:00:45Z</time></trkpt><trkpt lat="42.22083104549896" lon="-3.6533874608466306"><ele>908.0</ele><time>2026-05-03T08:00:46Z</time></trkpt><trkpt lat="42.22073154904673" lon="-3.6533472502449205"><ele>908.0</ele><time>2026-05-03T08:00:47Z</time></trkpt><trkpt lat="42.22063458499588" lon="-3.6533030391889767"><ele>908.0</ele><time>2026-05-03T08:00:48Z</time></trkpt><trkpt lat="42.2205303023139" lon="-3.6532661032001346"><ele>908.0</ele><time>2026-05-03T08:00:49Z</time></trkpt><trkpt lat="42.22042953703934" lon="-3.653224058920164"><ele>908.0</ele><time>2026-05-03T08:00:50Z</time></trkpt><trkpt lat="42.22032930470665" lon="-3.653182563091261"><ele>909.0</ele><time>2026-05-03T08:00:51Z</time></trkpt><trkpt lat="42.22022750687474" lon="-3.653142549471721"><ele>910.0</ele><time>2026-05-03T08:00:52Z</time></trkpt><trkpt lat="42.2201260634685" lon="-3.653101506730123"><ele>911.0</ele><time>2026-05-03T08:00:53Z</time></trkpt><trkpt lat="42.22002669654781" lon="-3.6530623838414336"><ele>912.0</ele><time>2026-05-03T08:00:54Z</time></trkpt><trkpt lat="42.21992692070007" lon="-3.6530238662059773"><ele>913.0</ele><time>2026-05-03T08:00:55Z</time></trkpt><trkpt lat="42.21982472997576" lon="-3.652990401358671"><ele>913.5999999999999</ele><time>2026-05-03T08:00:56Z</time></trkpt><trkpt lat="42.219722789528255" lon="-3.6529556651246047"><ele>914.1999999999999</ele><time>2026-05-03T08:00:57Z</time></trkpt><trkpt lat="42.21962409483009" lon="-3.652916439394249"><ele>914.8</ele><time>2026-05-03T08:00:58Z</time></trkpt><trkpt lat="42.21952537133416" lon="-3.6528820103097925"><ele>915.4</ele><time>2026-05-03T08:00:59Z</time></trkpt><trkpt lat="42.21942401250234" lon="-3.65285165626976"><ele>916.0</ele><time>2026-05-03T08:01:00Z</time></trkpt><trkpt lat="42.21932214083408" lon="-3.652821750328138"><ele>916.0</ele><time>2026-05-03T08:01:01Z</time></trkpt><trkpt lat="42.21921736795593" lon="-3.652791958519601"><ele>915.9999999999999</ele><time>2026-05-03T08:01:02Z</time></trkpt><trkpt lat="42.219110951259424" lon="-3.6527910754518884"><ele>915.9999999999999</ele><time>2026-05-03T08:01:03Z</time></trkpt><trkpt lat="42.21900660053327" lon="-3.652776779070672"><ele>916.0</ele><time>2026-05-03T08:01:04Z</time></trkpt><trkpt lat="42.21890121190504" lon="-3.652767240144671"><ele>916.0</ele><time>2026-05-03T08:01:05Z</time></trkpt><trkpt lat="42.218792738463776" lon="-3.6527616149762623"><ele>915.1999999999999</ele><time>2026-05-03T08:01:06Z</time></trkpt><trkpt lat="42.218685759383646" lon="-3.652761203040509"><ele>914.3999999999999</ele><time>2026-05-03T08:01:07Z</time></trkpt><trkpt lat="42.2185775389225" lon="-3.652741489000574"><ele>913.6</ele><time>2026-05-03T08:01:08Z</time></trkpt><trkpt lat="42.218471824735346" lon="-3.652744802907418"><ele>912.8</ele><time>2026-05-03T08:01:09Z</time></trkpt><trkpt lat="42.218362884705094" lon="-3.6527496664190187"><ele>912.0</ele><time>2026-05-03T08:01:10Z</time></trkpt><trkpt lat="42.21825890853159" lon="-3.652760684098186"><ele>912.4000000000001</ele><time>2026-05-03T08:01:11Z</time></trkpt><trkpt lat="42.218150695225226" lon="-3.6527750433086554"><ele>912.8000000000001</ele><time>2026-05-03T08:01:12Z</time></trkpt><trkpt lat="42.2180410916029" lon="-3.652790774843069"><ele>913.2</ele><time>2026-05-03T08:01:13Z</time></trkpt><trkpt lat="42.21793415073287" lon="-3.652796946366384"><ele>913.6</ele><time>2026-05-03T08:01:14Z</time></trkpt><trkpt lat="42.217825458614094" lon="-3.652805835786129"><ele>914.0</ele><time>2026-05-03T08:01:15Z</time></trkpt><trkpt lat="42.217716439299444" lon="-3.652819250618485"><ele>914.0</ele><time>2026-05-03T08:01:16Z</time></trkpt><trkpt lat="42.21760713364759" lon="-3.652828465550234"><ele>914.0000000000001</ele><time>2026-05-03T08:01:17Z</time></trkpt><trkpt lat="42.217499412574846" lon="-3.6528433333061003"><ele>914.0000000000001</ele><time>2026-05-03T08:01:18Z</time></trkpt><trkpt lat="42.2173885062522" lon="-3.652850699318632"><ele>914.0</ele><time>2026-05-03T08:01:19Z</time></trkpt><trkpt lat="42.21728284061073" lon="-3.6528603332147775"><ele>914.0</ele><time>2026-05-03T08:01:20Z</time></trkpt><trkpt lat="42.21717470041666" lon="-3.6528710761890935"><ele>913.6</ele><time>2026-05-03T08:01:21Z</time></trkpt><trkpt lat="42.21706575692646" lon="-3.6528810155484144"><ele>913.2</ele><time>2026-05-03T08:01:22Z</time></trkpt><trkpt lat="42.21695820113372" lon="-3.652891694541977"><ele>912.8000000000001</ele><time>2026-05-03T08:01:23Z</time></trkpt><trkpt lat="42.21685064170432" lon="-3.652895409591738"><ele>912.4000000000001</ele><time>2026-05-03T08:01:24Z</time></trkpt><trkpt lat="42.216739969999445" lon="-3.652907094621413"><ele>912.0</ele><time>2026-05-03T08:01:25Z</time></trkpt><trkpt lat="42.216634001416544" lon="-3.652920509353943"><ele>912.0</ele><time>2026-05-03T08:01:26Z</time></trkpt><trkpt lat="42.216525444737826" lon="-3.6529285974030925"><ele>912.0</ele><time>2026-05-03T08:01:27Z</time></trkpt><trkpt lat="42.21641326578897" lon="-3.652944108093739"><ele>912.0</ele><time>2026-05-03T08:01:28Z</time></trkpt><trkpt lat="42.21630579846948" lon="-3.6529558081092506"><ele>912.0</ele><time>2026-05-03T08:01:29Z</time></trkpt><trkpt lat="42.2161980810129" lon="-3.6529609035267585"><ele>912.0</ele><time>2026-05-03T08:01:30Z</time></trkpt><trkpt lat="42.216087542888616" lon="-3.6529660502437644"><ele>912.0</ele><time>2026-05-03T08:01:31Z</time></trkpt><trkpt lat="42.215977460144316" lon="-3.6529645535064645"><ele>912.0</ele><time>2026-05-03T08:01:32Z</time></trkpt><trkpt lat="42.215867446756384" lon="-3.6529708393503144"><ele>912.0</ele><time>2026-05-03T08:01:33Z</time></trkpt><trkpt lat="42.215754560842434" lon="-3.6529732570951294"><ele>912.0</ele><time>2026-05-03T08:01:34Z</time></trkpt><trkpt lat="42.2156412349701" lon="-3.6529645531451607"><ele>912.0</ele><time>2026-05-03T08:01:35Z</time></trkpt><trkpt lat="42.21553214437186" lon="-3.6529648733512503"><ele>912.0</ele><time>2026-05-03T08:01:36Z</time></trkpt><trkpt lat="42.215420187354326" lon="-3.652956542422136"><ele>912.0</ele><time>2026-05-03T08:01:37Z</time></trkpt><trkpt lat="42.21530433931149" lon="-3.652935465145726"><ele>912.0</ele><time>2026-05-03T08:01:38Z</time></trkpt><trkpt lat="42.21519251068658" lon="-3.6529223638960295"><ele>912.0</ele><time>2026-05-03T08:01:39Z</time></trkpt><trkpt lat="42.21507803886373" lon="-3.6529015994684135"><ele>912.0</ele><time>2026-05-03T08:01:40Z</time></trkpt><trkpt lat="42.21496440654497" lon="-3.652879883576008"><ele>912.0</ele><time>2026-05-03T08:01:41Z</time></trkpt><trkpt lat="42.21484920364586" lon="-3.6528570527798028"><ele>912.0</ele><time>2026-05-03T08:01:42Z</time></trkpt><trkpt lat="42.214736140446135" lon="-3.6528337483551434"><ele>912.0</ele><time>2026-05-03T08:01:43Z</time></trkpt><trkpt lat="42.21462674076254" lon="-3.652803150334116"><ele>911.2</ele><time>2026-05-03T08:01:44Z</time></trkpt><trkpt lat="42.21451552349427" lon="-3.6527775008937176"><ele>910.4000000000001</ele><time>2026-05-03T08:01:45Z</time></trkpt><trkpt lat="42.21440653484721" lon="-3.6527484162062396"><ele>909.5999999999999</ele><time>2026-05-03T08:01:46Z</time></trkpt><trkpt lat="42.21429936962791" lon="-3.652713345705902"><ele>908.8</ele><time>2026-05-03T08:01:47Z</time></trkpt><trkpt lat="42.214197339446706" lon="-3.6526650663509916"><ele>908.0</ele><time>2026-05-03T08:01:48Z</time></trkpt><trkpt lat="42.21409921287052" lon="-3.6526445779536383"><ele>908.0</ele><time>2026-05-03T08:01:49Z</time></trkpt><trkpt lat="42.2140209416948" lon="-3.6526159210988536"><ele>908.0</ele><time>2026-05-03T08:01:50Z</time></trkpt><trkpt lat="42.21388501504372" lon="-3.652545066114944"><ele>908.0</ele><time>2026-05-03T08:01:51Z</time></trkpt><trkpt lat="42.2137783120804" lon="-3.6525045373047416"><ele>908.0</ele><time>2026-05-03T08:01:52Z</time></trkpt><trkpt lat="42.21367640863024" lon="-3.6524608666576013"><ele>908.0</ele><time>2026-05-03T08:01:53Z</time></trkpt><trkpt lat="42.21357689214131" lon="-3.652411344759281"><ele>909.0</ele><time>2026-05-03T08:01:54Z</time></trkpt><trkpt lat="42.213477419474394" lon="-3.6523626998975076"><ele>910.0</ele><time>2026-05-03T08:01:55Z</time></trkpt><trkpt lat="42.21338095892563" lon="-3.6523137897997087"><ele>911.0</ele><time>2026-05-03T08:01:56Z</time></trkpt><trkpt lat="42.21328269699922" lon="-3.6522643046591443"><ele>912.0</ele><time>2026-05-03T08:01:57Z</time></trkpt><trkpt lat="42.21318214461995" lon="-3.652214362085824"><ele>913.0</ele><time>2026-05-03T08:01:58Z</time></trkpt><trkpt lat="42.21308265959449" lon="-3.6521646012976188"><ele>913.2</ele><time>2026-05-03T08:01:59Z</time></trkpt><trkpt lat="42.212981613940876" lon="-3.652118633462004"><ele>913.4</ele><time>2026-05-03T08:02:00Z</time></trkpt><trkpt lat="42.212881000177326" lon="-3.652068292604226"><ele>913.6000000000001</ele><time>2026-05-03T08:02:01Z</time></trkpt><trkpt lat="42.21278105224755" lon="-3.652020155218889"><ele>913.8000000000001</ele><time>2026-05-03T08:02:02Z</time></trkpt><trkpt lat="42.212682160690065" lon="-3.651970354080446"><ele>914.0</ele><time>2026-05-03T08:02:03Z</time></trkpt><trkpt lat="42.212581710908196" lon="-3.6519203119707577"><ele>914.0</ele><time>2026-05-03T08:02:04Z</time></trkpt><trkpt lat="42.212479967132815" lon="-3.6518685605070798"><ele>914.0000000000001</ele><time>2026-05-03T08:02:05Z</time></trkpt><trkpt lat="42.21238039127408" lon="-3.651817520069154"><ele>914.0000000000001</ele><time>2026-05-03T08:02:06Z</time></trkpt><trkpt lat="42.21227758172397" lon="-3.6517726378946964"><ele>914.0</ele><time>2026-05-03T08:02:07Z</time></trkpt><trkpt lat="42.21217566720588" lon="-3.6517223639047387"><ele>914.0</ele><time>2026-05-03T08:02:08Z</time></trkpt><trkpt lat="42.212070896393314" lon="-3.6516711806108826"><ele>914.0</ele><time>2026-05-03T08:02:09Z</time></trkpt><trkpt lat="42.21196699024742" lon="-3.6516213543613603"><ele>914.0000000000001</ele><time>2026-05-03T08:02:10Z</time></trkpt><trkpt lat="42.21186569440336" lon="-3.6515711629992613"><ele>914.0000000000001</ele><time>2026-05-03T08:02:11Z</time></trkpt><trkpt lat="42.211762696906106" lon="-3.6515199248939276"><ele>914.0</ele><time>2026-05-03T08:02:12Z</time></trkpt><trkpt lat="42.211660748718955" lon="-3.6514685876491564"><ele>914.0</ele><time>2026-05-03T08:02:13Z</time></trkpt><trkpt lat="42.211556921375774" lon="-3.6514188377700116"><ele>913.8000000000001</ele><time>2026-05-03T08:02:14Z</time></trkpt><trkpt lat="42.211454167480646" lon="-3.65136940878498"><ele>913.6000000000001</ele><time>2026-05-03T08:02:15Z</time></trkpt><trkpt lat="42.21135248272693" lon="-3.6513187871319377"><ele>913.4</ele><time>2026-05-03T08:02:16Z</time></trkpt><trkpt lat="42.211251812215906" lon="-3.6512695832296345"><ele>913.2</ele><time>2026-05-03T08:02:17Z</time></trkpt><trkpt lat="42.21114847955797" lon="-3.6512174126443075"><ele>913.0</ele><time>2026-05-03T08:02:18Z</time></trkpt><trkpt lat="42.21104642879289" lon="-3.65116746126938"><ele>913.0</ele><time>2026-05-03T08:02:19Z</time></trkpt><trkpt lat="42.21094577145295" lon="-3.651120328919512"><ele>913.0</ele><time>2026-05-03T08:02:20Z</time></trkpt><trkpt lat="42.210846026374014" lon="-3.651070048715244"><ele>913.0</ele><time>2026-05-03T08:02:21Z</time></trkpt><trkpt lat="42.21074375122072" lon="-3.651017566689494"><ele>913.0</ele><time>2026-05-03T08:02:22Z</time></trkpt><trkpt lat="42.210641885946714" lon="-3.6509679951035694"><ele>913.0</ele><time>2026-05-03T08:02:23Z</time></trkpt><trkpt lat="42.2105402225324" lon="-3.650918856024385"><ele>913.5999999999999</ele><time>2026-05-03T08:02:24Z</time></trkpt><trkpt lat="42.210439069488416" lon="-3.650868041753842"><ele>914.1999999999999</ele><time>2026-05-03T08:02:25Z</time></trkpt><trkpt lat="42.21033645867682" lon="-3.650815569775146"><ele>914.8</ele><time>2026-05-03T08:02:26Z</time></trkpt><trkpt lat="42.210232483832755" lon="-3.6507661590014058"><ele>915.4</ele><time>2026-05-03T08:02:27Z</time></trkpt><trkpt lat="42.21013055710352" lon="-3.6507192839004476"><ele>916.0</ele><time>2026-05-03T08:02:28Z</time></trkpt><trkpt lat="42.21003202706346" lon="-3.6506752985423843"><ele>916.0</ele><time>2026-05-03T08:02:29Z</time></trkpt><trkpt lat="42.209926594692" lon="-3.6506186113018986"><ele>916.0</ele><time>2026-05-03T08:02:30Z</time></trkpt><trkpt lat="42.20982631132188" lon="-3.6505681740538694"><ele>916.0</ele><time>2026-05-03T08:02:31Z</time></trkpt><trkpt lat="42.209712886984356" lon="-3.650517869439584"><ele>916.0</ele><time>2026-05-03T08:02:32Z</time></trkpt><trkpt lat="42.20960361836277" lon="-3.650465252060132"><ele>916.1999999999999</ele><time>2026-05-03T08:02:33Z</time></trkpt><trkpt lat="42.20949777784835" lon="-3.650415854453502"><ele>916.3999999999999</ele><time>2026-05-03T08:02:34Z</time></trkpt><trkpt lat="42.20939143582121" lon="-3.6503675838913456"><ele>916.6</ele><time>2026-05-03T08:02:35Z</time></trkpt><trkpt lat="42.209286246561554" lon="-3.6503149856709762"><ele>916.8</ele><time>2026-05-03T08:02:36Z</time></trkpt><trkpt lat="42.209180034323474" lon="-3.6502636900205494"><ele>917.0</ele><time>2026-05-03T08:02:37Z</time></trkpt><trkpt lat="42.209075091149195" lon="-3.6502125228950093"><ele>914.0</ele><time>2026-05-03T08:02:38Z</time></trkpt><trkpt lat="42.20896766744415" lon="-3.6501587429944498"><ele>911.0</ele><time>2026-05-03T08:02:39Z</time></trkpt><trkpt lat="42.208863921919026" lon="-3.6501058240593607"><ele>908.0</ele><time>2026-05-03T08:02:40Z</time></trkpt><trkpt lat="42.20875506973622" lon="-3.650055241803028"><ele>905.0</ele><time>2026-05-03T08:02:41Z</time></trkpt><trkpt lat="42.20864820583128" lon="-3.6500058428889632"><ele>905.0</ele><time>2026-05-03T08:02:42Z</time></trkpt><trkpt lat="42.20854363234795" lon="-3.649954624401332"><ele>905.0</ele><time>2026-05-03T08:02:43Z</time></trkpt><trkpt lat="42.208437483449096" lon="-3.649901523464926"><ele>905.0</ele><time>2026-05-03T08:02:44Z</time></trkpt><trkpt lat="42.2083332431287" lon="-3.6498492516812306"><ele>905.0</ele><time>2026-05-03T08:02:45Z</time></trkpt><trkpt lat="42.20822850750711" lon="-3.6497982998653153"><ele>905.0</ele><time>2026-05-03T08:02:46Z</time></trkpt><trkpt lat="42.20812455090458" lon="-3.6497490455766037"><ele>905.6</ele><time>2026-05-03T08:02:47Z</time></trkpt><trkpt lat="42.20802201724189" lon="-3.6497007676509434"><ele>906.2</ele><time>2026-05-03T08:02:48Z</time></trkpt><trkpt lat="42.207912071770956" lon="-3.649646214680507"><ele>906.8</ele><time>2026-05-03T08:02:49Z</time></trkpt><trkpt lat="42.207817383837124" lon="-3.649599481451666"><ele>907.4</ele><time>2026-05-03T08:02:50Z</time></trkpt><trkpt lat="42.20771213235799" lon="-3.6495582442537833"><ele>908.0</ele><time>2026-05-03T08:02:51Z</time></trkpt><trkpt lat="42.20761220407124" lon="-3.6495115322401603"><ele>908.0</ele><time>2026-05-03T08:02:52Z</time></trkpt><trkpt lat="42.20751019990112" lon="-3.649468173288967"><ele>908.0</ele><time>2026-05-03T08:02:53Z</time></trkpt><trkpt lat="42.20740970706304" lon="-3.6494254442640233"><ele>908.0</ele><time>2026-05-03T08:02:54Z</time></trkpt><trkpt lat="42.20730893202674" lon="-3.649387686743963"><ele>908.0</ele><time>2026-05-03T08:02:55Z</time></trkpt><trkpt lat="42.20720916338288" lon="-3.649352601902183"><ele>908.0</ele><time>2026-05-03T08:02:56Z</time></trkpt><trkpt lat="42.207108303471344" lon="-3.6493187358388615"><ele>909.8</ele><time>2026-05-03T08:02:57Z</time></trkpt><trkpt lat="42.207010296401826" lon="-3.6492851375410984"><ele>911.5999999999999</ele><time>2026-05-03T08:02:58Z</time></trkpt><trkpt lat="42.20691076013009" lon="-3.649253141401758"><ele>913.4000000000001</ele><time>2026-05-03T08:02:59Z</time></trkpt><trkpt lat="42.20681355074788" lon="-3.6492230865336053"><ele>915.2</ele><time>2026-05-03T08:03:00Z</time></trkpt><trkpt lat="42.20671687094216" lon="-3.649196101102985"><ele>917.0</ele><time>2026-05-03T08:03:01Z</time></trkpt><trkpt lat="42.20662013003185" lon="-3.649169839958559"><ele>917.0</ele><time>2026-05-03T08:03:02Z</time></trkpt><trkpt lat="42.206523198547885" lon="-3.6491465148705546"><ele>917.0</ele><time>2026-05-03T08:03:03Z</time></trkpt><trkpt lat="42.20642503884116" lon="-3.649124250341845"><ele>917.0</ele><time>2026-05-03T08:03:04Z</time></trkpt><trkpt lat="42.206329090682125" lon="-3.649101894309108"><ele>917.0</ele><time>2026-05-03T08:03:05Z</time></trkpt><trkpt lat="42.20623420332438" lon="-3.6490793450906747"><ele>917.0</ele><time>2026-05-03T08:03:06Z</time></trkpt><trkpt lat="42.206135369131985" lon="-3.6490628443849653"><ele>917.4000000000001</ele><time>2026-05-03T08:03:07Z</time></trkpt><trkpt lat="42.206038197855776" lon="-3.6490482129620503"><ele>917.8000000000001</ele><time>2026-05-03T08:03:08Z</time></trkpt><trkpt lat="42.2059385839945" lon="-3.649032060780451"><ele>918.2</ele><time>2026-05-03T08:03:09Z</time></trkpt><trkpt lat="42.2058399124483" lon="-3.649015182324593"><ele>918.6</ele><time>2026-05-03T08:03:10Z</time></trkpt><trkpt lat="42.20573808328364" lon="-3.6489972358721565"><ele>919.0</ele><time>2026-05-03T08:03:11Z</time></trkpt><trkpt lat="42.20563795408461" lon="-3.6489814224459725"><ele>919.2</ele><time>2026-05-03T08:03:12Z</time></trkpt><trkpt lat="42.20553484600247" lon="-3.648966220874499"><ele>919.4000000000001</ele><time>2026-05-03T08:03:13Z</time></trkpt><trkpt lat="42.205430844996556" lon="-3.6489491402358434"><ele>919.6</ele><time>2026-05-03T08:03:14Z</time></trkpt><trkpt lat="42.20532765963418" lon="-3.6489371391653487"><ele>919.8</ele><time>2026-05-03T08:03:15Z</time></trkpt><trkpt lat="42.20522179124764" lon="-3.6489206088663484"><ele>920.0</ele><time>2026-05-03T08:03:16Z</time></trkpt><trkpt lat="42.205114187690235" lon="-3.6489261828481063"><ele>920.0</ele><time>2026-05-03T08:03:17Z</time></trkpt><trkpt lat="42.205010120296436" lon="-3.6489100512878387"><ele>920.0</ele><time>2026-05-03T08:03:18Z</time></trkpt><trkpt lat="42.20490440326627" lon="-3.6488936639765837"><ele>920.0</ele><time>2026-05-03T08:03:19Z</time></trkpt><trkpt lat="42.20479975598716" lon="-3.648877442493575"><ele>920.0</ele><time>2026-05-03T08:03:20Z</time></trkpt><trkpt lat="42.204694404874665" lon="-3.64886111189218"><ele>920.0</ele><time>2026-05-03T08:03:21Z</time></trkpt><trkpt lat="42.204588265800936" lon="-3.64882505832209"><ele>920.4</ele><time>2026-05-03T08:03:22Z</time></trkpt><trkpt lat="42.20447925471046" lon="-3.648819997296223"><ele>920.8</ele><time>2026-05-03T08:03:23Z</time></trkpt><trkpt lat="42.20437459830019" lon="-3.6488009477314076"><ele>921.2</ele><time>2026-05-03T08:03:24Z</time></trkpt><trkpt lat="42.20426328044354" lon="-3.6487908877090685"><ele>921.6</ele><time>2026-05-03T08:03:25Z</time></trkpt><trkpt lat="42.20415508787391" lon="-3.6487815198704685"><ele>922.0</ele><time>2026-05-03T08:03:26Z</time></trkpt><trkpt lat="42.2040480929791" lon="-3.6487707251448125"><ele>922.2</ele><time>2026-05-03T08:03:27Z</time></trkpt><trkpt lat="42.203942582211845" lon="-3.648755444271683"><ele>922.4000000000001</ele><time>2026-05-03T08:03:28Z</time></trkpt><trkpt lat="42.203832765403746" lon="-3.648740277608451"><ele>922.5999999999999</ele><time>2026-05-03T08:03:29Z</time></trkpt><trkpt lat="42.20372460212385" lon="-3.648722585441574"><ele>922.8</ele><time>2026-05-03T08:03:30Z</time></trkpt><trkpt lat="42.20361768129759" lon="-3.648703463964033"><ele>923.0</ele><time>2026-05-03T08:03:31Z</time></trkpt><trkpt lat="42.20351128113554" lon="-3.6486862300858407"><ele>923.0</ele><time>2026-05-03T08:03:32Z</time></trkpt><trkpt lat="42.203403778688056" lon="-3.6486698639501784"><ele>923.0</ele><time>2026-05-03T08:03:33Z</time></trkpt><trkpt lat="42.203297578612506" lon="-3.6486543764058426"><ele>923.0</ele><time>2026-05-03T08:03:34Z</time></trkpt><trkpt lat="42.2031927423364" lon="-3.6486358890044555"><ele>923.0</ele><time>2026-05-03T08:03:35Z</time></trkpt><trkpt lat="42.20308717776706" lon="-3.6486168542187833"><ele>923.0</ele><time>2026-05-03T08:03:36Z</time></trkpt><trkpt lat="42.202981280825284" lon="-3.6485996519188486"><ele>923.0</ele><time>2026-05-03T08:03:37Z</time></trkpt><trkpt lat="42.202877143900984" lon="-3.648589589853221"><ele>923.0</ele><time>2026-05-03T08:03:38Z</time></trkpt><trkpt lat="42.2027694701419" lon="-3.6485699046506905"><ele>923.0</ele><time>2026-05-03T08:03:39Z</time></trkpt><trkpt lat="42.202662490703176" lon="-3.6485495527921623"><ele>923.0</ele><time>2026-05-03T08:03:40Z</time></trkpt><trkpt lat="42.20255612196518" lon="-3.6485326205095925"><ele>923.0</ele><time>2026-05-03T08:03:41Z</time></trkpt><trkpt lat="42.20244932653474" lon="-3.6485122942557315"><ele>923.0</ele><time>2026-05-03T08:03:42Z</time></trkpt><trkpt lat="42.20234742659934" lon="-3.648498859261301"><ele>923.0</ele><time>2026-05-03T08:03:43Z</time></trkpt><trkpt lat="42.20224020087882" lon="-3.648475709814155"><ele>923.0</ele><time>2026-05-03T08:03:44Z</time></trkpt><trkpt lat="42.202135913753104" lon="-3.648455636021591"><ele>923.0</ele><time>2026-05-03T08:03:45Z</time></trkpt><trkpt lat="42.20202761542542" lon="-3.648430502726915"><ele>923.0</ele><time>2026-05-03T08:03:46Z</time></trkpt><trkpt lat="42.20192245303783" lon="-3.6484053334249626"><ele>923.0</ele><time>2026-05-03T08:03:47Z</time></trkpt><trkpt lat="42.20181869365781" lon="-3.6483776017465903"><ele>923.0</ele><time>2026-05-03T08:03:48Z</time></trkpt><trkpt lat="42.201707276409586" lon="-3.648342108986069"><ele>923.0</ele><time>2026-05-03T08:03:49Z</time></trkpt><trkpt lat="42.20160538638818" lon="-3.6483145716803635"><ele>923.0</ele><time>2026-05-03T08:03:50Z</time></trkpt><trkpt lat="42.20150300181344" lon="-3.648279375125001"><ele>923.0</ele><time>2026-05-03T08:03:51Z</time></trkpt><trkpt lat="42.20139106895983" lon="-3.6482329199783785"><ele>923.2</ele><time>2026-05-03T08:03:52Z</time></trkpt><trkpt lat="42.20128437386106" lon="-3.6481946776651797"><ele>923.4</ele><time>2026-05-03T08:03:53Z</time></trkpt><trkpt lat="42.20117718951563" lon="-3.6481506145389213"><ele>923.6000000000001</ele><time>2026-05-03T08:03:54Z</time></trkpt><trkpt lat="42.20106791726408" lon="-3.6481114722795733"><ele>923.8000000000001</ele><time>2026-05-03T08:03:55Z</time></trkpt><trkpt lat="42.20096125199121" lon="-3.6480653797932954"><ele>924.0</ele><time>2026-05-03T08:03:56Z</time></trkpt><trkpt lat="42.2008580583182" lon="-3.648022376917038"><ele>924.0</ele><time>2026-05-03T08:03:57Z</time></trkpt><trkpt lat="42.200757309177035" lon="-3.6479768201742973"><ele>924.0000000000001</ele><time>2026-05-03T08:03:58Z</time></trkpt><trkpt lat="42.20065620790958" lon="-3.6479302957783344"><ele>924.0000000000001</ele><time>2026-05-03T08:03:59Z</time></trkpt><trkpt lat="42.20055386924941" lon="-3.647884349564493"><ele>924.0</ele><time>2026-05-03T08:04:00Z</time></trkpt><trkpt lat="42.20045271952415" lon="-3.647836644687382"><ele>924.0</ele><time>2026-05-03T08:04:01Z</time></trkpt><trkpt lat="42.200349149014606" lon="-3.6477925440210224"><ele>924.0</ele><time>2026-05-03T08:04:02Z</time></trkpt><trkpt lat="42.200247744267166" lon="-3.6477480827514555"><ele>924.0000000000001</ele><time>2026-05-03T08:04:03Z</time></trkpt><trkpt lat="42.20014584518652" lon="-3.647699350764719"><ele>924.0000000000001</ele><time>2026-05-03T08:04:04Z</time></trkpt><trkpt lat="42.200044428377595" lon="-3.6476564570129084"><ele>924.0</ele><time>2026-05-03T08:04:05Z</time></trkpt><trkpt lat="42.1999452588865" lon="-3.647610185840818"><ele>924.0</ele><time>2026-05-03T08:04:06Z</time></trkpt><trkpt lat="42.19984503625774" lon="-3.6475581148721936"><ele>924.4000000000001</ele><time>2026-05-03T08:04:07Z</time></trkpt><trkpt lat="42.19974218110364" lon="-3.6475093252717343"><ele>924.8000000000001</ele><time>2026-05-03T08:04:08Z</time></trkpt><trkpt lat="42.19963836077857" lon="-3.6474572162652383"><ele>925.1999999999999</ele><time>2026-05-03T08:04:09Z</time></trkpt><trkpt lat="42.19953689134043" lon="-3.647404084579457"><ele>925.5999999999999</ele><time>2026-05-03T08:04:10Z</time></trkpt><trkpt lat="42.19943009487673" lon="-3.6473470266998484"><ele>926.0</ele><time>2026-05-03T08:04:11Z</time></trkpt><trkpt lat="42.19932849318989" lon="-3.647286199989195"><ele>926.0</ele><time>2026-05-03T08:04:12Z</time></trkpt><trkpt lat="42.19922367771187" lon="-3.647227021225374"><ele>926.0</ele><time>2026-05-03T08:04:13Z</time></trkpt><trkpt lat="42.19912247100293" lon="-3.647161621035173"><ele>926.0</ele><time>2026-05-03T08:04:14Z</time></trkpt><trkpt lat="42.19902051964816" lon="-3.647100526531358"><ele>926.0</ele><time>2026-05-03T08:04:15Z</time></trkpt><trkpt lat="42.1989183939835" lon="-3.647036869653407"><ele>926.1999999999999</ele><time>2026-05-03T08:04:16Z</time></trkpt><trkpt lat="42.19882129944894" lon="-3.6469739789364977"><ele>926.3999999999999</ele><time>2026-05-03T08:04:17Z</time></trkpt><trkpt lat="42.19872031062314" lon="-3.6468996349245013"><ele>926.6</ele><time>2026-05-03T08:04:18Z</time></trkpt><trkpt lat="42.1986198881931" lon="-3.646828120225661"><ele>926.8</ele><time>2026-05-03T08:04:19Z</time></trkpt><trkpt lat="42.19852120804072" lon="-3.6467551281018094"><ele>927.0</ele><time>2026-05-03T08:04:20Z</time></trkpt><trkpt lat="42.198418584554624" lon="-3.6466832666941067"><ele>926.0</ele><time>2026-05-03T08:04:21Z</time></trkpt><trkpt lat="42.1983204850054" lon="-3.646613316388168"><ele>925.0</ele><time>2026-05-03T08:04:22Z</time></trkpt><trkpt lat="42.19821849619162" lon="-3.6465363310390386"><ele>924.0</ele><time>2026-05-03T08:04:23Z</time></trkpt><trkpt lat="42.19811714177843" lon="-3.646457655402376"><ele>923.0</ele><time>2026-05-03T08:04:24Z</time></trkpt><trkpt lat="42.19801678599789" lon="-3.6463839094282937"><ele>922.5</ele><time>2026-05-03T08:04:25Z</time></trkpt><trkpt lat="42.19791701828243" lon="-3.646307511307103"><ele>922.0</ele><time>2026-05-03T08:04:26Z</time></trkpt><trkpt lat="42.197812675055715" lon="-3.6462359360619456"><ele>921.5</ele><time>2026-05-03T08:04:27Z</time></trkpt><trkpt lat="42.19771077538812" lon="-3.6461551215113617"><ele>921.0</ele><time>2026-05-03T08:04:28Z</time></trkpt><trkpt lat="42.19761089683996" lon="-3.646081531383785"><ele>921.25</ele><time>2026-05-03T08:04:29Z</time></trkpt><trkpt lat="42.197510087729455" lon="-3.6460027958599537"><ele>921.5</ele><time>2026-05-03T08:04:30Z</time></trkpt><trkpt lat="42.1974084564463" lon="-3.6459299235781026"><ele>921.75</ele><time>2026-05-03T08:04:31Z</time></trkpt><trkpt lat="42.19730807133454" lon="-3.6458520091312665"><ele>922.0</ele><time>2026-05-03T08:04:32Z</time></trkpt><trkpt lat="42.19720646443559" lon="-3.645780094002913"><ele>922.0</ele><time>2026-05-03T08:04:33Z</time></trkpt><trkpt lat="42.197109159483034" lon="-3.645701948615368"><ele>922.0</ele><time>2026-05-03T08:04:34Z</time></trkpt><trkpt lat="42.197008230500266" lon="-3.645630702405703"><ele>922.0</ele><time>2026-05-03T08:04:35Z</time></trkpt><trkpt lat="42.19691399315676" lon="-3.6455532342147428"><ele>922.0</ele><time>2026-05-03T08:04:36Z</time></trkpt><trkpt lat="42.19681253009287" lon="-3.6454824821310403"><ele>922.0</ele><time>2026-05-03T08:04:37Z</time></trkpt><trkpt lat="42.19671363642329" lon="-3.6454120037352107"><ele>922.0</ele><time>2026-05-03T08:04:38Z</time></trkpt><trkpt lat="42.196618843764334" lon="-3.6453316815354557"><ele>922.0</ele><time>2026-05-03T08:04:39Z</time></trkpt><trkpt lat="42.19651820155317" lon="-3.6452610001683925"><ele>922.0</ele><time>2026-05-03T08:04:40Z</time></trkpt><trkpt lat="42.19641942027224" lon="-3.645187125411506"><ele>922.2</ele><time>2026-05-03T08:04:41Z</time></trkpt><trkpt lat="42.19632127674694" lon="-3.6451130064707358"><ele>922.4000000000001</ele><time>2026-05-03T08:04:42Z</time></trkpt><trkpt lat="42.19622293434659" lon="-3.6450414581610455"><ele>922.5999999999999</ele><time>2026-05-03T08:04:43Z</time></trkpt><trkpt lat="42.19612489552245" lon="-3.644967746398949"><ele>922.8</ele><time>2026-05-03T08:04:44Z</time></trkpt><trkpt lat="42.196028529202714" lon="-3.6448923421358317"><ele>923.0</ele><time>2026-05-03T08:04:45Z</time></trkpt><trkpt lat="42.19592859396584" lon="-3.6448197852467707"><ele>923.0</ele><time>2026-05-03T08:04:46Z</time></trkpt><trkpt lat="42.195825590504874" lon="-3.6447517827991436"><ele>923.0</ele><time>2026-05-03T08:04:47Z</time></trkpt><trkpt lat="42.19572760700267" lon="-3.644667710966199"><ele>923.0</ele><time>2026-05-03T08:04:48Z</time></trkpt><trkpt lat="42.195630088317536" lon="-3.6445986551560896"><ele>923.0</ele><time>2026-05-03T08:04:49Z</time></trkpt><trkpt lat="42.19552979480832" lon="-3.644525166780813"><ele>922.75</ele><time>2026-05-03T08:04:50Z</time></trkpt><trkpt lat="42.195431714408166" lon="-3.6444514761361617"><ele>922.5</ele><time>2026-05-03T08:04:51Z</time></trkpt><trkpt lat="42.19533242320059" lon="-3.644372528375428"><ele>922.25</ele><time>2026-05-03T08:04:52Z</time></trkpt><trkpt lat="42.195230897218515" lon="-3.6443042798019754"><ele>922.0</ele><time>2026-05-03T08:04:53Z</time></trkpt><trkpt lat="42.19513248615052" lon="-3.644224465572824"><ele>922.0</ele><time>2026-05-03T08:04:54Z</time></trkpt><trkpt lat="42.195025293642885" lon="-3.6441685180458614"><ele>922.0</ele><time>2026-05-03T08:04:55Z</time></trkpt><trkpt lat="42.19492759735072" lon="-3.6440963324891062"><ele>922.0</ele><time>2026-05-03T08:04:56Z</time></trkpt><trkpt lat="42.19483467856959" lon="-3.6440054030700466"><ele>922.0</ele><time>2026-05-03T08:04:57Z</time></trkpt><trkpt lat="42.19473392142877" lon="-3.64392974372651"><ele>922.5</ele><time>2026-05-03T08:04:58Z</time></trkpt><trkpt lat="42.19462719410917" lon="-3.643871254175636"><ele>923.0</ele><time>2026-05-03T08:04:59Z</time></trkpt><trkpt lat="42.194527507540265" lon="-3.6437965108731323"><ele>923.5</ele><time>2026-05-03T08:05:00Z</time></trkpt><trkpt lat="42.194432287402414" lon="-3.643706809521471"><ele>924.0</ele><time>2026-05-03T08:05:01Z</time></trkpt><trkpt lat="42.19432772131511" lon="-3.64364671709925"><ele>924.0</ele><time>2026-05-03T08:05:02Z</time></trkpt><trkpt lat="42.1942345971167" lon="-3.643558265630411"><ele>924.0</ele><time>2026-05-03T08:05:03Z</time></trkpt><trkpt lat="42.19413513498553" lon="-3.6434902294260176"><ele>924.0</ele><time>2026-05-03T08:05:04Z</time></trkpt><trkpt lat="42.19403876433785" lon="-3.6434145604853776"><ele>924.0</ele><time>2026-05-03T08:05:05Z</time></trkpt><trkpt lat="42.19393272374609" lon="-3.6433541743252786"><ele>924.0</ele><time>2026-05-03T08:05:06Z</time></trkpt><trkpt lat="42.19383044795842" lon="-3.6432791827356947"><ele>924.0</ele><time>2026-05-03T08:05:07Z</time></trkpt><trkpt lat="42.19373638773266" lon="-3.64318840979076"><ele>924.0</ele><time>2026-05-03T08:05:08Z</time></trkpt><trkpt lat="42.19363229781" lon="-3.6431188560186696"><ele>924.0</ele><time>2026-05-03T08:05:09Z</time></trkpt><trkpt lat="42.19353490246834" lon="-3.6430525097578514"><ele>924.0</ele><time>2026-05-03T08:05:10Z</time></trkpt><trkpt lat="42.19343200418724" lon="-3.64298805047608"><ele>924.0000000000001</ele><time>2026-05-03T08:05:11Z</time></trkpt><trkpt lat="42.19333236022753" lon="-3.6429197642309874"><ele>924.0000000000001</ele><time>2026-05-03T08:05:12Z</time></trkpt><trkpt lat="42.19322910104642" lon="-3.6428709309228036"><ele>924.0</ele><time>2026-05-03T08:05:13Z</time></trkpt><trkpt lat="42.19312843996625" lon="-3.6428258842845143"><ele>924.0</ele><time>2026-05-03T08:05:14Z</time></trkpt><trkpt lat="42.19303907075382" lon="-3.6427537695081433"><ele>924.4000000000001</ele><time>2026-05-03T08:05:15Z</time></trkpt><trkpt lat="42.192941545339245" lon="-3.6427234008850715"><ele>924.8000000000001</ele><time>2026-05-03T08:05:16Z</time></trkpt><trkpt lat="42.19285465989795" lon="-3.642653230992436"><ele>925.1999999999999</ele><time>2026-05-03T08:05:17Z</time></trkpt><trkpt lat="42.192757483720314" lon="-3.6426255479960092"><ele>925.5999999999999</ele><time>2026-05-03T08:05:18Z</time></trkpt><trkpt lat="42.19267469343452" lon="-3.642561865059677"><ele>926.0</ele><time>2026-05-03T08:05:19Z</time></trkpt><trkpt lat="42.192583528160924" lon="-3.6425205726985808"><ele>926.0</ele><time>2026-05-03T08:05:20Z</time></trkpt><trkpt lat="42.192494835474264" lon="-3.642479916445883"><ele>925.9999999999999</ele><time>2026-05-03T08:05:21Z</time></trkpt><trkpt lat="42.192407383781166" lon="-3.6424362869052405"><ele>925.9999999999999</ele><time>2026-05-03T08:05:22Z</time></trkpt><trkpt lat="42.19232093797309" lon="-3.6423944753958803"><ele>926.0</ele><time>2026-05-03T08:05:23Z</time></trkpt><trkpt lat="42.192233697662694" lon="-3.6423533862428696"><ele>926.0</ele><time>2026-05-03T08:05:24Z</time></trkpt><trkpt lat="42.19214780012755" lon="-3.6423141285943568"><ele>926.8333333333334</ele><time>2026-05-03T08:05:25Z</time></trkpt><trkpt lat="42.1920633249908" lon="-3.642271892807974"><ele>927.6666666666667</ele><time>2026-05-03T08:05:26Z</time></trkpt><trkpt lat="42.19197802322532" lon="-3.6422266591006442"><ele>928.5</ele><time>2026-05-03T08:05:27Z</time></trkpt><trkpt lat="42.19189491092723" lon="-3.6421847518821275"><ele>929.3333333333333</ele><time>2026-05-03T08:05:28Z</time></trkpt><trkpt lat="42.1918120131344" lon="-3.642145716504772"><ele>930.1666666666666</ele><time>2026-05-03T08:05:29Z</time></trkpt><trkpt lat="42.19172598821914" lon="-3.64210491637874"><ele>931.0</ele><time>2026-05-03T08:05:30Z</time></trkpt><trkpt lat="42.19163856391999" lon="-3.642061765669615"><ele>931.0</ele><time>2026-05-03T08:05:31Z</time></trkpt><trkpt lat="42.19154992197636" lon="-3.642015618580034"><ele>930.9999999999999</ele><time>2026-05-03T08:05:32Z</time></trkpt><trkpt lat="42.19145888391134" lon="-3.64197095555557"><ele>930.9999999999999</ele><time>2026-05-03T08:05:33Z</time></trkpt><trkpt lat="42.19136606560192" lon="-3.6419279993059526"><ele>931.0</ele><time>2026-05-03T08:05:34Z</time></trkpt><trkpt lat="42.19127222948608" lon="-3.6418829468235594"><ele>931.0</ele><time>2026-05-03T08:05:35Z</time></trkpt><trkpt lat="42.19117871833311" lon="-3.641837723675421"><ele>931.1999999999999</ele><time>2026-05-03T08:05:36Z</time></trkpt><trkpt lat="42.191083112286016" lon="-3.6417893902719434"><ele>931.3999999999999</ele><time>2026-05-03T08:05:37Z</time></trkpt><trkpt lat="42.19098620170579" lon="-3.6417416857428893"><ele>931.6</ele><time>2026-05-03T08:05:38Z</time></trkpt><trkpt lat="42.19088759111006" lon="-3.641693610290375"><ele>931.8</ele><time>2026-05-03T08:05:39Z</time></trkpt><trkpt lat="42.19078821065392" lon="-3.6416437335518927"><ele>932.0</ele><time>2026-05-03T08:05:40Z</time></trkpt><trkpt lat="42.190688502681" lon="-3.641593683979965"><ele>933.0</ele><time>2026-05-03T08:05:41Z</time></trkpt><trkpt lat="42.190588375031915" lon="-3.6415500332033774"><ele>934.0</ele><time>2026-05-03T08:05:42Z</time></trkpt><trkpt lat="42.190487552474416" lon="-3.641500088193065"><ele>935.0</ele><time>2026-05-03T08:05:43Z</time></trkpt><trkpt lat="42.19037641889732" lon="-3.641442568810622"><ele>936.0</ele><time>2026-05-03T08:05:44Z</time></trkpt><trkpt lat="42.190275263595986" lon="-3.6413869082559382"><ele>937.0</ele><time>2026-05-03T08:05:45Z</time></trkpt><trkpt lat="42.190178198074435" lon="-3.641347649248752"><ele>937.0</ele><time>2026-05-03T08:05:46Z</time></trkpt><trkpt lat="42.19007380360954" lon="-3.641299418052255"><ele>937.0</ele><time>2026-05-03T08:05:47Z</time></trkpt><trkpt lat="42.189972051277806" lon="-3.6412494870629164"><ele>937.0</ele><time>2026-05-03T08:05:48Z</time></trkpt><trkpt lat="42.1898692790467" lon="-3.6411988225064023"><ele>937.0</ele><time>2026-05-03T08:05:49Z</time></trkpt><trkpt lat="42.189764264510316" lon="-3.641154246145761"><ele>937.0</ele><time>2026-05-03T08:05:50Z</time></trkpt><trkpt lat="42.18966382704314" lon="-3.641103020018249"><ele>936.6</ele><time>2026-05-03T08:05:51Z</time></trkpt><trkpt lat="42.18956110279393" lon="-3.6410559000923968"><ele>936.2</ele><time>2026-05-03T08:05:52Z</time></trkpt><trkpt lat="42.18945883641652" lon="-3.641003487444999"><ele>935.8</ele><time>2026-05-03T08:05:53Z</time></trkpt><trkpt lat="42.189357260461826" lon="-3.6409588825498873"><ele>935.4</ele><time>2026-05-03T08:05:54Z</time></trkpt><trkpt lat="42.1892559145272" lon="-3.6409098784852603"><ele>935.0</ele><time>2026-05-03T08:05:55Z</time></trkpt><trkpt lat="42.1891516526161" lon="-3.6408566853182087"><ele>935.0</ele><time>2026-05-03T08:05:56Z</time></trkpt><trkpt lat="42.189048352432025" lon="-3.640806242092353"><ele>935.0</ele><time>2026-05-03T08:05:57Z</time></trkpt><trkpt lat="42.18894699280056" lon="-3.640752258266676"><ele>935.0</ele><time>2026-05-03T08:05:58Z</time></trkpt><trkpt lat="42.18884525683542" lon="-3.6407010194308125"><ele>935.0</ele><time>2026-05-03T08:05:59Z</time></trkpt><trkpt lat="42.18874424121269" lon="-3.6406495747899053"><ele>935.0</ele><time>2026-05-03T08:06:00Z</time></trkpt><trkpt lat="42.18864341416644" lon="-3.640606129480136"><ele>935.4</ele><time>2026-05-03T08:06:01Z</time></trkpt><trkpt lat="42.188541286582684" lon="-3.640553246437338"><ele>935.8</ele><time>2026-05-03T08:06:02Z</time></trkpt><trkpt lat="42.188436250611005" lon="-3.640507831861134"><ele>936.2</ele><time>2026-05-03T08:06:03Z</time></trkpt><trkpt lat="42.188332500250326" lon="-3.640454224143641"><ele>936.6</ele><time>2026-05-03T08:06:04Z</time></trkpt><trkpt lat="42.18822960688503" lon="-3.640405215723847"><ele>937.0</ele><time>2026-05-03T08:06:05Z</time></trkpt><trkpt lat="42.18812780234535" lon="-3.640356195578625"><ele>937.2</ele><time>2026-05-03T08:06:06Z</time></trkpt><trkpt lat="42.18802520036524" lon="-3.640307634059825"><ele>937.4000000000001</ele><time>2026-05-03T08:06:07Z</time></trkpt><trkpt lat="42.1879219798487" lon="-3.640258892097986"><ele>937.5999999999999</ele><time>2026-05-03T08:06:08Z</time></trkpt><trkpt lat="42.18782006328463" lon="-3.6402079396793394"><ele>937.8</ele><time>2026-05-03T08:06:09Z</time></trkpt><trkpt lat="42.18772163929748" lon="-3.6401588814678942"><ele>938.0</ele><time>2026-05-03T08:06:10Z</time></trkpt><trkpt lat="42.18762157466494" lon="-3.6401056591047407"><ele>937.0</ele><time>2026-05-03T08:06:11Z</time></trkpt><trkpt lat="42.18751668562249" lon="-3.6400482224918087"><ele>936.0</ele><time>2026-05-03T08:06:12Z</time></trkpt><trkpt lat="42.18741316951514" lon="-3.6400005063590615"><ele>935.0</ele><time>2026-05-03T08:06:13Z</time></trkpt><trkpt lat="42.1873117124196" lon="-3.6399472123009633"><ele>934.0</ele><time>2026-05-03T08:06:14Z</time></trkpt><trkpt lat="42.18720778499025" lon="-3.6399019598687112"><ele>933.0</ele><time>2026-05-03T08:06:15Z</time></trkpt><trkpt lat="42.18710645261937" lon="-3.639854766964292"><ele>933.0</ele><time>2026-05-03T08:06:16Z</time></trkpt><trkpt lat="42.18700415115832" lon="-3.639806104184391"><ele>933.0</ele><time>2026-05-03T08:06:17Z</time></trkpt><trkpt lat="42.186900355071494" lon="-3.6397589468909985"><ele>933.0</ele><time>2026-05-03T08:06:18Z</time></trkpt><trkpt lat="42.18680088620517" lon="-3.6397060835417783"><ele>933.0</ele><time>2026-05-03T08:06:19Z</time></trkpt><trkpt lat="42.18670067001527" lon="-3.6396569138078347"><ele>933.0</ele><time>2026-05-03T08:06:20Z</time></trkpt><trkpt lat="42.186600985297844" lon="-3.6396079723320844"><ele>933.8</ele><time>2026-05-03T08:06:21Z</time></trkpt><trkpt lat="42.18650150490334" lon="-3.6395576528521216"><ele>934.5999999999999</ele><time>2026-05-03T08:06:22Z</time></trkpt><trkpt lat="42.18640534154914" lon="-3.6395034246627693"><ele>935.4000000000001</ele><time>2026-05-03T08:06:23Z</time></trkpt><trkpt lat="42.18631321802715" lon="-3.639446677412914"><ele>936.2</ele><time>2026-05-03T08:06:24Z</time></trkpt><trkpt lat="42.186214272233265" lon="-3.6393948762645567"><ele>937.0</ele><time>2026-05-03T08:06:25Z</time></trkpt><trkpt lat="42.18612266295941" lon="-3.6393407666953874"><ele>937.0</ele><time>2026-05-03T08:06:26Z</time></trkpt><trkpt lat="42.18603440486351" lon="-3.6392775529514356"><ele>937.0</ele><time>2026-05-03T08:06:27Z</time></trkpt><trkpt lat="42.18594178369445" lon="-3.63921531240329"><ele>937.0</ele><time>2026-05-03T08:06:28Z</time></trkpt><trkpt lat="42.18585662765683" lon="-3.6391502840286805"><ele>937.0</ele><time>2026-05-03T08:06:29Z</time></trkpt><trkpt lat="42.18577177924901" lon="-3.6390869789677267"><ele>937.0</ele><time>2026-05-03T08:06:30Z</time></trkpt><trkpt lat="42.18568788369254" lon="-3.6390226452296286"><ele>940.2</ele><time>2026-05-03T08:06:31Z</time></trkpt><trkpt lat="42.18560744244612" lon="-3.6389509226193635"><ele>943.4000000000001</ele><time>2026-05-03T08:06:32Z</time></trkpt><trkpt lat="42.18552463060036" lon="-3.6388809237652744"><ele>946.5999999999999</ele><time>2026-05-03T08:06:33Z</time></trkpt><trkpt lat="42.18544629113426" lon="-3.6388058454862535"><ele>949.8</ele><time>2026-05-03T08:06:34Z</time></trkpt><trkpt lat="42.18536741836373" lon="-3.63872739177073"><ele>953.0</ele><time>2026-05-03T08:06:35Z</time></trkpt><trkpt lat="42.185290117401664" lon="-3.63865060550367"><ele>951.0</ele><time>2026-05-03T08:06:36Z</time></trkpt><trkpt lat="42.1852171902895" lon="-3.6385701000901873"><ele>949.0</ele><time>2026-05-03T08:06:37Z</time></trkpt><trkpt lat="42.185142928917195" lon="-3.6384868725119013"><ele>947.0</ele><time>2026-05-03T08:06:38Z</time></trkpt><trkpt lat="42.1850699154859" lon="-3.6384015051926535"><ele>945.0</ele><time>2026-05-03T08:06:39Z</time></trkpt><trkpt lat="42.18499878040088" lon="-3.638313462654649"><ele>943.0</ele><time>2026-05-03T08:06:40Z</time></trkpt><trkpt lat="42.18492819799612" lon="-3.6382260339061414"><ele>943.0</ele><time>2026-05-03T08:06:41Z</time></trkpt><trkpt lat="42.184856037776555" lon="-3.638142431130483"><ele>943.0</ele><time>2026-05-03T08:06:42Z</time></trkpt><trkpt lat="42.184786907623604" lon="-3.638055785134108"><ele>943.0</ele><time>2026-05-03T08:06:43Z</time></trkpt><trkpt lat="42.18471646487603" lon="-3.6379656201929294"><ele>943.0</ele><time>2026-05-03T08:06:44Z</time></trkpt><trkpt lat="42.18464492876399" lon="-3.637879744250046"><ele>943.0</ele><time>2026-05-03T08:06:45Z</time></trkpt><trkpt lat="42.184572698235264" lon="-3.6377880784339776"><ele>943.4</ele><time>2026-05-03T08:06:46Z</time></trkpt><trkpt lat="42.18450194796329" lon="-3.637698924601486"><ele>943.8</ele><time>2026-05-03T08:06:47Z</time></trkpt><trkpt lat="42.18443183501755" lon="-3.6376077438573975"><ele>944.2</ele><time>2026-05-03T08:06:48Z</time></trkpt><trkpt lat="42.18435930114995" lon="-3.637517453299128"><ele>944.6</ele><time>2026-05-03T08:06:49Z</time></trkpt><trkpt lat="42.184286587110925" lon="-3.6374268655654496"><ele>945.0</ele><time>2026-05-03T08:06:50Z</time></trkpt><trkpt lat="42.18421360605102" lon="-3.637334396685425"><ele>945.0</ele><time>2026-05-03T08:06:51Z</time></trkpt><trkpt lat="42.18413952406187" lon="-3.6372429248078575"><ele>945.0</ele><time>2026-05-03T08:06:52Z</time></trkpt><trkpt lat="42.18406629421224" lon="-3.637149746920984"><ele>945.0</ele><time>2026-05-03T08:06:53Z</time></trkpt><trkpt lat="42.18399270748148" lon="-3.637053114074481"><ele>945.0</ele><time>2026-05-03T08:06:54Z</time></trkpt><trkpt lat="42.18391772699644" lon="-3.6369639620012717"><ele>945.0</ele><time>2026-05-03T08:06:55Z</time></trkpt><trkpt lat="42.18384534124751" lon="-3.6368661526215647"><ele>945.6</ele><time>2026-05-03T08:06:56Z</time></trkpt><trkpt lat="42.18377068427643" lon="-3.6367713792748773"><ele>946.2</ele><time>2026-05-03T08:06:57Z</time></trkpt><trkpt lat="42.183697203847174" lon="-3.6366773709266433"><ele>946.8</ele><time>2026-05-03T08:06:58Z</time></trkpt><trkpt lat="42.18362000189242" lon="-3.6365866485808467"><ele>947.4</ele><time>2026-05-03T08:06:59Z</time></trkpt><trkpt lat="42.18354332931315" lon="-3.636495422535304"><ele>948.0</ele><time>2026-05-03T08:07:00Z</time></trkpt><trkpt lat="42.18346736950117" lon="-3.6364008613932577"><ele>948.0</ele><time>2026-05-03T08:07:01Z</time></trkpt><trkpt lat="42.183390896968056" lon="-3.636304269746233"><ele>948.0</ele><time>2026-05-03T08:07:02Z</time></trkpt><trkpt lat="42.18331622514784" lon="-3.6362091822263958"><ele>948.0</ele><time>2026-05-03T08:07:03Z</time></trkpt><trkpt lat="42.18324220996876" lon="-3.6361171963581302"><ele>948.0</ele><time>2026-05-03T08:07:04Z</time></trkpt><trkpt lat="42.18316718459704" lon="-3.63601738056739"><ele>948.0</ele><time>2026-05-03T08:07:05Z</time></trkpt><trkpt lat="42.18309119843202" lon="-3.63591978697393"><ele>949.2</ele><time>2026-05-03T08:07:06Z</time></trkpt><trkpt lat="42.18301439931967" lon="-3.635829087319946"><ele>950.4</ele><time>2026-05-03T08:07:07Z</time></trkpt><trkpt lat="42.18293800032254" lon="-3.6357363856396843"><ele>951.6000000000001</ele><time>2026-05-03T08:07:08Z</time></trkpt><trkpt lat="42.1828620386805" lon="-3.635640648598149"><ele>952.8000000000001</ele><time>2026-05-03T08:07:09Z</time></trkpt><trkpt lat="42.182786538100835" lon="-3.6355437216095465"><ele>954.0</ele><time>2026-05-03T08:07:10Z</time></trkpt><trkpt lat="42.18271102459399" lon="-3.6354516426048784"><ele>954.0</ele><time>2026-05-03T08:07:11Z</time></trkpt><trkpt lat="42.18263327521405" lon="-3.635359734495896"><ele>954.0000000000001</ele><time>2026-05-03T08:07:12Z</time></trkpt><trkpt lat="42.182557563777095" lon="-3.635265256094697"><ele>954.0000000000001</ele><time>2026-05-03T08:07:13Z</time></trkpt><trkpt lat="42.18248290602515" lon="-3.635170477429955"><ele>954.0</ele><time>2026-05-03T08:07:14Z</time></trkpt><trkpt lat="42.182406509698914" lon="-3.635075523970586"><ele>954.0</ele><time>2026-05-03T08:07:15Z</time></trkpt><trkpt lat="42.18233053870092" lon="-3.634983159419644"><ele>956.2</ele><time>2026-05-03T08:07:16Z</time></trkpt><trkpt lat="42.18225126722682" lon="-3.6348940829924272"><ele>958.4000000000001</ele><time>2026-05-03T08:07:17Z</time></trkpt><trkpt lat="42.18217466729065" lon="-3.634801817746077"><ele>960.6</ele><time>2026-05-03T08:07:18Z</time></trkpt><trkpt lat="42.18209460982023" lon="-3.6347163385378423"><ele>962.8</ele><time>2026-05-03T08:07:19Z</time></trkpt><trkpt lat="42.18201639692211" lon="-3.634627931117325"><ele>965.0</ele><time>2026-05-03T08:07:20Z</time></trkpt><trkpt lat="42.181934559944686" lon="-3.6345411796280995"><ele>964.4</ele><time>2026-05-03T08:07:21Z</time></trkpt><trkpt lat="42.18185443872956" lon="-3.6344566767882514"><ele>963.8</ele><time>2026-05-03T08:07:22Z</time></trkpt><trkpt lat="42.18177189725202" lon="-3.6343722166622623"><ele>963.2</ele><time>2026-05-03T08:07:23Z</time></trkpt><trkpt lat="42.18169106932293" lon="-3.634294804356724"><ele>962.6</ele><time>2026-05-03T08:07:24Z</time></trkpt><trkpt lat="42.181605638113986" lon="-3.634214054086747"><ele>962.0</ele><time>2026-05-03T08:07:25Z</time></trkpt><trkpt lat="42.18151449399813" lon="-3.6341547389447078"><ele>962.0</ele><time>2026-05-03T08:07:26Z</time></trkpt><trkpt lat="42.18144043749816" lon="-3.6340610363999435"><ele>962.0</ele><time>2026-05-03T08:07:27Z</time></trkpt><trkpt lat="42.181348210156735" lon="-3.634004745447512"><ele>962.0</ele><time>2026-05-03T08:07:28Z</time></trkpt><trkpt lat="42.18126409883354" lon="-3.6339315517345296"><ele>962.0</ele><time>2026-05-03T08:07:29Z</time></trkpt><trkpt lat="42.181187744347326" lon="-3.6338463434672055"><ele>962.0</ele><time>2026-05-03T08:07:30Z</time></trkpt><trkpt lat="42.18110015424375" lon="-3.633775236877192"><ele>962.0</ele><time>2026-05-03T08:07:31Z</time></trkpt><trkpt lat="42.181018020937046" lon="-3.6337063237398524"><ele>962.0</ele><time>2026-05-03T08:07:32Z</time></trkpt><trkpt lat="42.180934617457915" lon="-3.633635200281578"><ele>962.0</ele><time>2026-05-03T08:07:33Z</time></trkpt><trkpt lat="42.180851945554316" lon="-3.6335681701460754"><ele>962.0</ele><time>2026-05-03T08:07:34Z</time></trkpt><trkpt lat="42.18076777974033" lon="-3.6334988531776515"><ele>962.0</ele><time>2026-05-03T08:07:35Z</time></trkpt><trkpt lat="42.18068693536795" lon="-3.6334329510555183"><ele>961.8</ele><time>2026-05-03T08:07:36Z</time></trkpt><trkpt lat="42.180608901624645" lon="-3.6333655563419827"><ele>961.6</ele><time>2026-05-03T08:07:37Z</time></trkpt><trkpt lat="42.180528297869266" lon="-3.633300262520438"><ele>961.3999999999999</ele><time>2026-05-03T08:07:38Z</time></trkpt><trkpt lat="42.18044756681848" lon="-3.633234974602106"><ele>961.1999999999999</ele><time>2026-05-03T08:07:39Z</time></trkpt><trkpt lat="42.180372419169366" lon="-3.6331697961272993"><ele>961.0</ele><time>2026-05-03T08:07:40Z</time></trkpt><trkpt lat="42.18028886490343" lon="-3.6331071789079807"><ele>960.9999999999999</ele><time>2026-05-03T08:07:41Z</time></trkpt><trkpt lat="42.18021284658073" lon="-3.6330469104681815"><ele>961.0</ele><time>2026-05-03T08:07:42Z</time></trkpt><trkpt lat="42.18013633218816" lon="-3.6329831483587047"><ele>961.0</ele><time>2026-05-03T08:07:43Z</time></trkpt><trkpt lat="42.180063025992" lon="-3.6329199803509677"><ele>961.0</ele><time>2026-05-03T08:07:44Z</time></trkpt><trkpt lat="42.17998873432928" lon="-3.6328542406833675"><ele>960.9999999999999</ele><time>2026-05-03T08:07:45Z</time></trkpt><trkpt lat="42.179918831329964" lon="-3.6327963974150306"><ele>961.0</ele><time>2026-05-03T08:07:46Z</time></trkpt><trkpt lat="42.17984325102872" lon="-3.6327349344554882"><ele>962.1666666666666</ele><time>2026-05-03T08:07:47Z</time></trkpt><trkpt lat="42.179770013548776" lon="-3.6326756372790237"><ele>963.3333333333333</ele><time>2026-05-03T08:07:48Z</time></trkpt><trkpt lat="42.179699631807345" lon="-3.6326165963877974"><ele>964.5</ele><time>2026-05-03T08:07:49Z</time></trkpt><trkpt lat="42.17962569660884" lon="-3.6325575330821094"><ele>965.6666666666667</ele><time>2026-05-03T08:07:50Z</time></trkpt><trkpt lat="42.17955654297405" lon="-3.6324995753254457"><ele>966.8333333333334</ele><time>2026-05-03T08:07:51Z</time></trkpt><trkpt lat="42.17948411124252" lon="-3.632437549567585"><ele>968.0</ele><time>2026-05-03T08:07:52Z</time></trkpt><trkpt lat="42.179411824217965" lon="-3.632379607480543"><ele>968.0000000000001</ele><time>2026-05-03T08:07:53Z</time></trkpt><trkpt lat="42.17934099142248" lon="-3.6323203913442277"><ele>968.0</ele><time>2026-05-03T08:07:54Z</time></trkpt><trkpt lat="42.1792682343139" lon="-3.6322627657619773"><ele>968.0</ele><time>2026-05-03T08:07:55Z</time></trkpt><trkpt lat="42.17919602173021" lon="-3.6322016720269357"><ele>968.0</ele><time>2026-05-03T08:07:56Z</time></trkpt><trkpt lat="42.17912514326146" lon="-3.632141008705568"><ele>968.0000000000001</ele><time>2026-05-03T08:07:57Z</time></trkpt><trkpt lat="42.179052115426316" lon="-3.6320807708022955"><ele>968.0</ele><time>2026-05-03T08:07:58Z</time></trkpt><trkpt lat="42.17897807743828" lon="-3.6320188680491534"><ele>968.1666666666667</ele><time>2026-05-03T08:07:59Z</time></trkpt><trkpt lat="42.17890349083194" lon="-3.6319597457011397"><ele>968.3333333333334</ele><time>2026-05-03T08:08:00Z</time></trkpt><trkpt lat="42.1788297561725" lon="-3.631898104582957"><ele>968.5</ele><time>2026-05-03T08:08:01Z</time></trkpt><trkpt lat="42.178750924004696" lon="-3.6318350657891636"><ele>968.6666666666667</ele><time>2026-05-03T08:08:02Z</time></trkpt><trkpt lat="42.178674963958606" lon="-3.6317721688322635"><ele>968.8333333333334</ele><time>2026-05-03T08:08:03Z</time></trkpt><trkpt lat="42.17860291668317" lon="-3.6317098044273517"><ele>969.0</ele><time>2026-05-03T08:08:04Z</time></trkpt><trkpt lat="42.17852530338077" lon="-3.6316497490679858"><ele>969.0</ele><time>2026-05-03T08:08:05Z</time></trkpt><trkpt lat="42.178448317490165" lon="-3.631584051613364"><ele>969.0</ele><time>2026-05-03T08:08:06Z</time></trkpt><trkpt lat="42.17837140735718" lon="-3.631525014643945"><ele>969.0</ele><time>2026-05-03T08:08:07Z</time></trkpt><trkpt lat="42.17829626361451" lon="-3.631459785540147"><ele>969.0</ele><time>2026-05-03T08:08:08Z</time></trkpt><trkpt lat="42.1782218107315" lon="-3.6313978364116677"><ele>969.0</ele><time>2026-05-03T08:08:09Z</time></trkpt><trkpt lat="42.17814821978843" lon="-3.631333411823987"><ele>969.0</ele><time>2026-05-03T08:08:10Z</time></trkpt><trkpt lat="42.17807303575268" lon="-3.6312636428088263"><ele>970.3333333333334</ele><time>2026-05-03T08:08:11Z</time></trkpt><trkpt lat="42.177996727515" lon="-3.631200751650175"><ele>971.6666666666667</ele><time>2026-05-03T08:08:12Z</time></trkpt><trkpt lat="42.17792393007202" lon="-3.631131779248913"><ele>973.0</ele><time>2026-05-03T08:08:13Z</time></trkpt><trkpt lat="42.17785193492005" lon="-3.6310617295979566"><ele>974.3333333333334</ele><time>2026-05-03T08:08:14Z</time></trkpt><trkpt lat="42.17778096846643" lon="-3.630985754044934"><ele>975.6666666666667</ele><time>2026-05-03T08:08:15Z</time></trkpt><trkpt lat="42.17771178471224" lon="-3.6309116374702173"><ele>977.0</ele><time>2026-05-03T08:08:16Z</time></trkpt><trkpt lat="42.177643784181356" lon="-3.6308351135629917"><ele>977.0000000000001</ele><time>2026-05-03T08:08:17Z</time></trkpt><trkpt lat="42.177576327366026" lon="-3.630756353556501"><ele>977.0</ele><time>2026-05-03T08:08:18Z</time></trkpt><trkpt lat="42.177510528328455" lon="-3.6306749441124806"><ele>977.0</ele><time>2026-05-03T08:08:19Z</time></trkpt><trkpt lat="42.17744611882369" lon="-3.6305910970796393"><ele>977.0</ele><time>2026-05-03T08:08:20Z</time></trkpt><trkpt lat="42.17738198584343" lon="-3.630506031525976"><ele>977.0000000000001</ele><time>2026-05-03T08:08:21Z</time></trkpt><trkpt lat="42.17732308569483" lon="-3.630416663816328"><ele>977.0</ele><time>2026-05-03T08:08:22Z</time></trkpt><trkpt lat="42.17726764593215" lon="-3.630324707194586"><ele>978.1666666666667</ele><time>2026-05-03T08:08:23Z</time></trkpt><trkpt lat="42.177213651672155" lon="-3.6302298030809026"><ele>979.3333333333334</ele><time>2026-05-03T08:08:24Z</time></trkpt><trkpt lat="42.17716298152871" lon="-3.6301333679774843"><ele>980.5</ele><time>2026-05-03T08:08:25Z</time></trkpt><trkpt lat="42.177112675023906" lon="-3.6300326641071003"><ele>981.6666666666667</ele><time>2026-05-03T08:08:26Z</time></trkpt><trkpt lat="42.17706565966784" lon="-3.6299311846637465"><ele>982.8333333333334</ele><time>2026-05-03T08:08:27Z</time></trkpt><trkpt lat="42.17701982506142" lon="-3.6298302528104105"><ele>984.0</ele><time>2026-05-03T08:08:28Z</time></trkpt><trkpt lat="42.17697954306976" lon="-3.629727491120815"><ele>984.0</ele><time>2026-05-03T08:08:29Z</time></trkpt><trkpt lat="42.17694020526326" lon="-3.6296195868827392"><ele>984.0</ele><time>2026-05-03T08:08:30Z</time></trkpt><trkpt lat="42.17690505645982" lon="-3.6295094352433477"><ele>984.0</ele><time>2026-05-03T08:08:31Z</time></trkpt><trkpt lat="42.176868873515915" lon="-3.6293971495306936"><ele>984.0</ele><time>2026-05-03T08:08:32Z</time></trkpt><trkpt lat="42.17683611352278" lon="-3.6292873350105928"><ele>984.0</ele><time>2026-05-03T08:08:33Z</time></trkpt><trkpt lat="42.17680716904077" lon="-3.629170249182595"><ele>984.0</ele><time>2026-05-03T08:08:34Z</time></trkpt><trkpt lat="42.17677929186833" lon="-3.6290541115053236"><ele>983.6</ele><time>2026-05-03T08:08:35Z</time></trkpt><trkpt lat="42.17675054280261" lon="-3.6289291752365496"><ele>983.2</ele><time>2026-05-03T08:08:36Z</time></trkpt><trkpt lat="42.17672866185696" lon="-3.628809201901475"><ele>982.8000000000001</ele><time>2026-05-03T08:08:37Z</time></trkpt><trkpt lat="42.17671274540672" lon="-3.6286829370516385"><ele>982.4000000000001</ele><time>2026-05-03T08:08:38Z</time></trkpt><trkpt lat="42.17669649372092" lon="-3.6285572754557336"><ele>982.0</ele><time>2026-05-03T08:08:39Z</time></trkpt><trkpt lat="42.176681688664864" lon="-3.6284282366451603"><ele>982.0</ele><time>2026-05-03T08:08:40Z</time></trkpt><trkpt lat="42.176668804149955" lon="-3.628303968440063"><ele>982.0</ele><time>2026-05-03T08:08:41Z</time></trkpt><trkpt lat="42.17665684274882" lon="-3.62816986200342"><ele>982.0</ele><time>2026-05-03T08:08:42Z</time></trkpt><trkpt lat="42.17664520012809" lon="-3.628037683365899"><ele>982.0</ele><time>2026-05-03T08:08:43Z</time></trkpt><trkpt lat="42.17663740129627" lon="-3.6279062462390517"><ele>982.0</ele><time>2026-05-03T08:08:44Z</time></trkpt><trkpt lat="42.176627375375276" lon="-3.6277724030939993"><ele>982.0</ele><time>2026-05-03T08:08:45Z</time></trkpt><trkpt lat="42.176619380026075" lon="-3.627638515379002"><ele>982.0</ele><time>2026-05-03T08:08:46Z</time></trkpt><trkpt lat="42.17661268485921" lon="-3.627502553782164"><ele>982.0</ele><time>2026-05-03T08:08:47Z</time></trkpt><trkpt lat="42.17660566898646" lon="-3.6273647508064144"><ele>982.0</ele><time>2026-05-03T08:08:48Z</time></trkpt><trkpt lat="42.17659724511454" lon="-3.6272256910209344"><ele>982.0</ele><time>2026-05-03T08:08:49Z</time></trkpt><trkpt lat="42.176592105400125" lon="-3.6270874266926993"><ele>982.4000000000001</ele><time>2026-05-03T08:08:50Z</time></trkpt><trkpt lat="42.176590378240746" lon="-3.6269466530505365"><ele>982.8000000000001</ele><time>2026-05-03T08:08:51Z</time></trkpt><trkpt lat="42.17658989711977" lon="-3.6268055289036547"><ele>983.2</ele><time>2026-05-03T08:08:52Z</time></trkpt><trkpt lat="42.17658787543022" lon="-3.626664482579681"><ele>983.6</ele><time>2026-05-03T08:08:53Z</time></trkpt><trkpt lat="42.17658585192671" lon="-3.626523892995205"><ele>984.0</ele><time>2026-05-03T08:08:54Z</time></trkpt><trkpt lat="42.17658357765112" lon="-3.6263823483630673"><ele>984.0</ele><time>2026-05-03T08:08:55Z</time></trkpt><trkpt lat="42.17658241464677" lon="-3.6262416200881007"><ele>984.0000000000001</ele><time>2026-05-03T08:08:56Z</time></trkpt><trkpt lat="42.17658088991218" lon="-3.626103709844494"><ele>984.0000000000001</ele><time>2026-05-03T08:08:57Z</time></trkpt><trkpt lat="42.17658129086415" lon="-3.6259662509481476"><ele>984.0</ele><time>2026-05-03T08:08:58Z</time></trkpt><trkpt lat="42.17658444794508" lon="-3.6258310089767614"><ele>984.0</ele><time>2026-05-03T08:08:59Z</time></trkpt><trkpt lat="42.17658770874193" lon="-3.6256974763164607"><ele>984.0</ele><time>2026-05-03T08:09:00Z</time></trkpt><trkpt lat="42.176588363465875" lon="-3.625566173609408"><ele>984.0000000000001</ele><time>2026-05-03T08:09:01Z</time></trkpt><trkpt lat="42.17658963475586" lon="-3.62543626697436"><ele>984.0000000000001</ele><time>2026-05-03T08:09:02Z</time></trkpt><trkpt lat="42.17659090482345" lon="-3.6253067037452076"><ele>984.0</ele><time>2026-05-03T08:09:03Z</time></trkpt><trkpt lat="42.17659428702443" lon="-3.6251798242009445"><ele>984.0</ele><time>2026-05-03T08:09:04Z</time></trkpt><trkpt lat="42.1765929339038" lon="-3.6250533382169414"><ele>984.0</ele><time>2026-05-03T08:09:05Z</time></trkpt><trkpt lat="42.17659031690137" lon="-3.6249263591401175"><ele>984.0000000000001</ele><time>2026-05-03T08:09:06Z</time></trkpt><trkpt lat="42.17658681858872" lon="-3.624797589198452"><ele>984.0000000000001</ele><time>2026-05-03T08:09:07Z</time></trkpt><trkpt lat="42.176583788045896" lon="-3.6246686846204974"><ele>984.0</ele><time>2026-05-03T08:09:08Z</time></trkpt><trkpt lat="42.176580763630604" lon="-3.6245388942090018"><ele>984.0</ele><time>2026-05-03T08:09:09Z</time></trkpt><trkpt lat="42.17657931726433" lon="-3.624408783738487"><ele>984.6</ele><time>2026-05-03T08:09:10Z</time></trkpt><trkpt lat="42.17657626795397" lon="-3.6242782427050604"><ele>985.2</ele><time>2026-05-03T08:09:11Z</time></trkpt><trkpt lat="42.17657572464593" lon="-3.6241476903137517"><ele>985.8000000000001</ele><time>2026-05-03T08:09:12Z</time></trkpt><trkpt lat="42.176573368908606" lon="-3.6240171497006735"><ele>986.4000000000001</ele><time>2026-05-03T08:09:13Z</time></trkpt><trkpt lat="42.17657011867249" lon="-3.6238849167379232"><ele>987.0</ele><time>2026-05-03T08:09:14Z</time></trkpt><trkpt lat="42.176569231411996" lon="-3.6237500292978897"><ele>988.0</ele><time>2026-05-03T08:09:15Z</time></trkpt><trkpt lat="42.176567358443535" lon="-3.6236140958601744"><ele>989.0</ele><time>2026-05-03T08:09:16Z</time></trkpt><trkpt lat="42.17656421330029" lon="-3.6234788320905813"><ele>990.0</ele><time>2026-05-03T08:09:17Z</time></trkpt><trkpt lat="42.17656182486117" lon="-3.6233409537097536"><ele>991.0</ele><time>2026-05-03T08:09:18Z</time></trkpt><trkpt lat="42.17655807531155" lon="-3.623202562932565"><ele>992.0</ele><time>2026-05-03T08:09:19Z</time></trkpt><trkpt lat="42.17655157853864" lon="-3.6230638652906686"><ele>992.0</ele><time>2026-05-03T08:09:20Z</time></trkpt><trkpt lat="42.17654530157813" lon="-3.6229233541327925"><ele>992.0</ele><time>2026-05-03T08:09:21Z</time></trkpt><trkpt lat="42.17653598253657" lon="-3.6227814396581697"><ele>992.0</ele><time>2026-05-03T08:09:22Z</time></trkpt><trkpt lat="42.176524723406764" lon="-3.6226399148096364"><ele>992.0</ele><time>2026-05-03T08:09:23Z</time></trkpt><trkpt lat="42.17650837626321" lon="-3.6224940914934605"><ele>992.0</ele><time>2026-05-03T08:09:24Z</time></trkpt><trkpt lat="42.17644967618628" lon="-3.6223374613036046"><ele>992.5</ele><time>2026-05-03T08:09:25Z</time></trkpt><trkpt lat="42.176403216648254" lon="-3.622159641559774"><ele>993.0</ele><time>2026-05-03T08:09:26Z</time></trkpt><trkpt lat="42.17645169608608" lon="-3.6220482083789"><ele>993.5</ele><time>2026-05-03T08:09:27Z</time></trkpt><trkpt lat="42.17642474361347" lon="-3.6219044962923133"><ele>994.0</ele><time>2026-05-03T08:09:28Z</time></trkpt><trkpt lat="42.17639140779363" lon="-3.621763503870295"><ele>992.5</ele><time>2026-05-03T08:09:29Z</time></trkpt><trkpt lat="42.176344369099624" lon="-3.6216266372048413"><ele>991.0</ele><time>2026-05-03T08:09:30Z</time></trkpt><trkpt lat="42.17630345718818" lon="-3.621482999194083"><ele>989.5</ele><time>2026-05-03T08:09:31Z</time></trkpt><trkpt lat="42.17624713092789" lon="-3.6213466990112466"><ele>988.0</ele><time>2026-05-03T08:09:32Z</time></trkpt><trkpt lat="42.17618952693411" lon="-3.621213235211236"><ele>986.75</ele><time>2026-05-03T08:09:33Z</time></trkpt><trkpt lat="42.17613338450077" lon="-3.6210769503701536"><ele>985.5</ele><time>2026-05-03T08:09:34Z</time></trkpt><trkpt lat="42.17607475290975" lon="-3.620943059753189"><ele>984.25</ele><time>2026-05-03T08:09:35Z</time></trkpt><trkpt lat="42.1760093940617" lon="-3.620818904649649"><ele>983.0</ele><time>2026-05-03T08:09:36Z</time></trkpt><trkpt lat="42.17593098520832" lon="-3.6207009962035364"><ele>983.0</ele><time>2026-05-03T08:09:37Z</time></trkpt><trkpt lat="42.17585541386847" lon="-3.620587084511164"><ele>983.0</ele><time>2026-05-03T08:09:38Z</time></trkpt><trkpt lat="42.17577719198986" lon="-3.620475060259783"><ele>983.0</ele><time>2026-05-03T08:09:39Z</time></trkpt><trkpt lat="42.17569443120081" lon="-3.6203666750165944"><ele>983.0</ele><time>2026-05-03T08:09:40Z</time></trkpt><trkpt lat="42.17560819891676" lon="-3.620261171824411"><ele>981.0</ele><time>2026-05-03T08:09:41Z</time></trkpt><trkpt lat="42.175521375519786" lon="-3.6201579950185825"><ele>979.0</ele><time>2026-05-03T08:09:42Z</time></trkpt><trkpt lat="42.175432025829465" lon="-3.6200574130717955"><ele>977.0</ele><time>2026-05-03T08:09:43Z</time></trkpt><trkpt lat="42.175341218139465" lon="-3.6199609577152"><ele>975.0</ele><time>2026-05-03T08:09:44Z</time></trkpt><trkpt lat="42.175250218718965" lon="-3.619868278894524"><ele>975.0</ele><time>2026-05-03T08:09:45Z</time></trkpt><trkpt lat="42.17515725790417" lon="-3.6197752858576293"><ele>975.0</ele><time>2026-05-03T08:09:46Z</time></trkpt><trkpt lat="42.17506420285476" lon="-3.6196828017760176"><ele>975.0</ele><time>2026-05-03T08:09:47Z</time></trkpt><trkpt lat="42.17497081793552" lon="-3.6195906993374347"><ele>975.0</ele><time>2026-05-03T08:09:48Z</time></trkpt><trkpt lat="42.17487800383218" lon="-3.619501968575669"><ele>974.6</ele><time>2026-05-03T08:09:49Z</time></trkpt><trkpt lat="42.174789954183254" lon="-3.6194141593634868"><ele>974.2</ele><time>2026-05-03T08:09:50Z</time></trkpt><trkpt lat="42.17469864287782" lon="-3.6193239418557472"><ele>973.8</ele><time>2026-05-03T08:09:51Z</time></trkpt><trkpt lat="42.17460982606858" lon="-3.619235784145925"><ele>973.4</ele><time>2026-05-03T08:09:52Z</time></trkpt><trkpt lat="42.1745173453379" lon="-3.6191493871604923"><ele>973.0</ele><time>2026-05-03T08:09:53Z</time></trkpt><trkpt lat="42.17442698310832" lon="-3.61906377866726"><ele>973.0</ele><time>2026-05-03T08:09:54Z</time></trkpt><trkpt lat="42.1743342451731" lon="-3.6189761994214567"><ele>973.0</ele><time>2026-05-03T08:09:55Z</time></trkpt><trkpt lat="42.1742426857337" lon="-3.618888201186327"><ele>973.0</ele><time>2026-05-03T08:09:56Z</time></trkpt><trkpt lat="42.17415362666717" lon="-3.6187990485683197"><ele>973.0</ele><time>2026-05-03T08:09:57Z</time></trkpt><trkpt lat="42.17406387365152" lon="-3.618709941974031"><ele>973.0</ele><time>2026-05-03T08:09:58Z</time></trkpt><trkpt lat="42.1739744732908" lon="-3.6186225762458677"><ele>973.5999999999999</ele><time>2026-05-03T08:09:59Z</time></trkpt><trkpt lat="42.17388063139041" lon="-3.618535287349155"><ele>974.1999999999999</ele><time>2026-05-03T08:10:00Z</time></trkpt><trkpt lat="42.1737905480401" lon="-3.618445976252425"><ele>974.8</ele><time>2026-05-03T08:10:01Z</time></trkpt><trkpt lat="42.173698060729514" lon="-3.618362969939985"><ele>975.4</ele><time>2026-05-03T08:10:02Z</time></trkpt><trkpt lat="42.17360737176367" lon="-3.6182743389742864"><ele>976.0</ele><time>2026-05-03T08:10:03Z</time></trkpt><trkpt lat="42.17352069372628" lon="-3.6181875752437893"><ele>976.0</ele><time>2026-05-03T08:10:04Z</time></trkpt><trkpt lat="42.17343988298353" lon="-3.6181062288470085"><ele>975.9999999999999</ele><time>2026-05-03T08:10:05Z</time></trkpt><trkpt lat="42.173342954588136" lon="-3.618017107194511"><ele>975.9999999999999</ele><time>2026-05-03T08:10:06Z</time></trkpt><trkpt lat="42.17325722806863" lon="-3.6179364385538437"><ele>976.0</ele><time>2026-05-03T08:10:07Z</time></trkpt><trkpt lat="42.1731758340478" lon="-3.6178553556823774"><ele>976.0</ele><time>2026-05-03T08:10:08Z</time></trkpt><trkpt lat="42.173094151236484" lon="-3.617782877570772"><ele>976.5999999999999</ele><time>2026-05-03T08:10:09Z</time></trkpt><trkpt lat="42.1730176330933" lon="-3.6177014153795124"><ele>977.1999999999999</ele><time>2026-05-03T08:10:10Z</time></trkpt><trkpt lat="42.17293732124873" lon="-3.6176254586247008"><ele>977.8000000000001</ele><time>2026-05-03T08:10:11Z</time></trkpt><trkpt lat="42.172856419365395" lon="-3.617548772497778"><ele>978.4000000000001</ele><time>2026-05-03T08:10:12Z</time></trkpt><trkpt lat="42.172778416503135" lon="-3.617470298410263"><ele>979.0</ele><time>2026-05-03T08:10:13Z</time></trkpt><trkpt lat="42.17270178107242" lon="-3.6173976427085206"><ele>979.0</ele><time>2026-05-03T08:10:14Z</time></trkpt><trkpt lat="42.17262399592783" lon="-3.6173246160712456"><ele>979.0000000000001</ele><time>2026-05-03T08:10:15Z</time></trkpt><trkpt lat="42.172545778535515" lon="-3.617250326472811"><ele>979.0000000000001</ele><time>2026-05-03T08:10:16Z</time></trkpt><trkpt lat="42.17246941401532" lon="-3.6171772766629724"><ele>979.0</ele><time>2026-05-03T08:10:17Z</time></trkpt><trkpt lat="42.172391741285935" lon="-3.617105636397131"><ele>979.0</ele><time>2026-05-03T08:10:18Z</time></trkpt><trkpt lat="42.17231388601236" lon="-3.617031906555315"><ele>979.6</ele><time>2026-05-03T08:10:19Z</time></trkpt><trkpt lat="42.17223744302513" lon="-3.6169548383245216"><ele>980.2</ele><time>2026-05-03T08:10:20Z</time></trkpt><trkpt lat="42.17215990814012" lon="-3.6168804665786682"><ele>980.8000000000001</ele><time>2026-05-03T08:10:21Z</time></trkpt><trkpt lat="42.17208003584396" lon="-3.6168046806531686"><ele>981.4000000000001</ele><time>2026-05-03T08:10:22Z</time></trkpt><trkpt lat="42.172002528698904" lon="-3.616728394487261"><ele>982.0</ele><time>2026-05-03T08:10:23Z</time></trkpt><trkpt lat="42.17192463546116" lon="-3.616651652590382"><ele>982.0</ele><time>2026-05-03T08:10:24Z</time></trkpt><trkpt lat="42.17184254877096" lon="-3.616574590582072"><ele>982.0</ele><time>2026-05-03T08:10:25Z</time></trkpt><trkpt lat="42.17176300675737" lon="-3.6164983382045044"><ele>982.0</ele><time>2026-05-03T08:10:26Z</time></trkpt><trkpt lat="42.17168599259787" lon="-3.616421228096291"><ele>982.0</ele><time>2026-05-03T08:10:27Z</time></trkpt><trkpt lat="42.17160689096" lon="-3.616344655546237"><ele>982.0</ele><time>2026-05-03T08:10:28Z</time></trkpt><trkpt lat="42.171526417573915" lon="-3.6162659430623596"><ele>983.0</ele><time>2026-05-03T08:10:29Z</time></trkpt><trkpt lat="42.17144753031668" lon="-3.6161888292635704"><ele>984.0</ele><time>2026-05-03T08:10:30Z</time></trkpt><trkpt lat="42.171367350791996" lon="-3.6161091518090176"><ele>985.0</ele><time>2026-05-03T08:10:31Z</time></trkpt><trkpt lat="42.171286161355894" lon="-3.6160324356307156"><ele>986.0</ele><time>2026-05-03T08:10:32Z</time></trkpt><trkpt lat="42.17120507798795" lon="-3.6159551350281256"><ele>987.0</ele><time>2026-05-03T08:10:33Z</time></trkpt><trkpt lat="42.17112745229582" lon="-3.6158818462296276"><ele>987.0</ele><time>2026-05-03T08:10:34Z</time></trkpt><trkpt lat="42.171044768049995" lon="-3.6158026345097922"><ele>987.0</ele><time>2026-05-03T08:10:35Z</time></trkpt><trkpt lat="42.17096587324399" lon="-3.615726376791893"><ele>987.0</ele><time>2026-05-03T08:10:36Z</time></trkpt><trkpt lat="42.17088622789081" lon="-3.615648128728876"><ele>987.0</ele><time>2026-05-03T08:10:37Z</time></trkpt><trkpt lat="42.17080699379093" lon="-3.6155718431650903"><ele>987.0</ele><time>2026-05-03T08:10:38Z</time></trkpt><trkpt lat="42.170726050893606" lon="-3.615492575237994"><ele>987.2</ele><time>2026-05-03T08:10:39Z</time></trkpt><trkpt lat="42.17064806384848" lon="-3.615413537465052"><ele>987.4000000000001</ele><time>2026-05-03T08:10:40Z</time></trkpt><trkpt lat="42.17056632467321" lon="-3.6153373298082094"><ele>987.5999999999999</ele><time>2026-05-03T08:10:41Z</time></trkpt><trkpt lat="42.17048462372454" lon="-3.6152616111084313"><ele>987.8</ele><time>2026-05-03T08:10:42Z</time></trkpt><trkpt lat="42.17040539955574" lon="-3.615184090214124"><ele>988.0</ele><time>2026-05-03T08:10:43Z</time></trkpt><trkpt lat="42.170323367009466" lon="-3.615105638063416"><ele>987.4</ele><time>2026-05-03T08:10:44Z</time></trkpt><trkpt lat="42.170241281556706" lon="-3.615029251837624"><ele>986.8</ele><time>2026-05-03T08:10:45Z</time></trkpt><trkpt lat="42.1701593758909" lon="-3.6149500898383704"><ele>986.2</ele><time>2026-05-03T08:10:46Z</time></trkpt><trkpt lat="42.17007959530682" lon="-3.6148695222255025"><ele>985.6</ele><time>2026-05-03T08:10:47Z</time></trkpt><trkpt lat="42.16999776481226" lon="-3.614788935727658"><ele>985.0</ele><time>2026-05-03T08:10:48Z</time></trkpt><trkpt lat="42.16991706662276" lon="-3.6147139197586258"><ele>985.2</ele><time>2026-05-03T08:10:49Z</time></trkpt><trkpt lat="42.16983379147326" lon="-3.6146353731432344"><ele>985.4</ele><time>2026-05-03T08:10:50Z</time></trkpt><trkpt lat="42.16975102563083" lon="-3.6145565926264185"><ele>985.5999999999999</ele><time>2026-05-03T08:10:51Z</time></trkpt><trkpt lat="42.16966729411616" lon="-3.6144778552397034"><ele>985.8</ele><time>2026-05-03T08:10:52Z</time></trkpt><trkpt lat="42.16958513575394" lon="-3.6143997444671725"><ele>986.0</ele><time>2026-05-03T08:10:53Z</time></trkpt><trkpt lat="42.169502502796966" lon="-3.6143163678116115"><ele>986.5999999999999</ele><time>2026-05-03T08:10:54Z</time></trkpt><trkpt lat="42.16941877898019" lon="-3.614234869835373"><ele>987.1999999999999</ele><time>2026-05-03T08:10:55Z</time></trkpt><trkpt lat="42.16933595422571" lon="-3.6141528520800743"><ele>987.8000000000001</ele><time>2026-05-03T08:10:56Z</time></trkpt><trkpt lat="42.16925167241458" lon="-3.61407311044652"><ele>988.4000000000001</ele><time>2026-05-03T08:10:57Z</time></trkpt><trkpt lat="42.16916722609979" lon="-3.6139921292933366"><ele>989.0</ele><time>2026-05-03T08:10:58Z</time></trkpt><trkpt lat="42.169081038363046" lon="-3.6139098430195626"><ele>989.0</ele><time>2026-05-03T08:10:59Z</time></trkpt><trkpt lat="42.16899630857526" lon="-3.6138304115153295"><ele>989.0000000000001</ele><time>2026-05-03T08:11:00Z</time></trkpt><trkpt lat="42.168911758476895" lon="-3.6137481525645354"><ele>989.0000000000001</ele><time>2026-05-03T08:11:01Z</time></trkpt><trkpt lat="42.16882517421647" lon="-3.613662536745971"><ele>989.0</ele><time>2026-05-03T08:11:02Z</time></trkpt><trkpt lat="42.16873726004405" lon="-3.613584300287883"><ele>989.0</ele><time>2026-05-03T08:11:03Z</time></trkpt><trkpt lat="42.16865013212314" lon="-3.613503503571805"><ele>989.0</ele><time>2026-05-03T08:11:04Z</time></trkpt><trkpt lat="42.16856328065113" lon="-3.613425517455975"><ele>989.0000000000001</ele><time>2026-05-03T08:11:05Z</time></trkpt><trkpt lat="42.16847985734532" lon="-3.613342382285293"><ele>989.0000000000001</ele><time>2026-05-03T08:11:06Z</time></trkpt><trkpt lat="42.16839293304955" lon="-3.613257416544349"><ele>989.0</ele><time>2026-05-03T08:11:07Z</time></trkpt><trkpt lat="42.16830769542481" lon="-3.6131822167138186"><ele>989.0</ele><time>2026-05-03T08:11:08Z</time></trkpt><trkpt lat="42.16822078259111" lon="-3.613104130401367"><ele>989.6</ele><time>2026-05-03T08:11:09Z</time></trkpt><trkpt lat="42.168133382266696" lon="-3.6130279948681343"><ele>990.2</ele><time>2026-05-03T08:11:10Z</time></trkpt><trkpt lat="42.16804571438497" lon="-3.612949498585775"><ele>990.8000000000001</ele><time>2026-05-03T08:11:11Z</time></trkpt><trkpt lat="42.16795803911473" lon="-3.6128710738843277"><ele>991.4000000000001</ele><time>2026-05-03T08:11:12Z</time></trkpt><trkpt lat="42.16787404407633" lon="-3.6127947034780576"><ele>992.0</ele><time>2026-05-03T08:11:13Z</time></trkpt><trkpt lat="42.16778698046781" lon="-3.6127173537107904"><ele>992.0</ele><time>2026-05-03T08:11:14Z</time></trkpt><trkpt lat="42.167702496643535" lon="-3.612641547427443"><ele>992.0</ele><time>2026-05-03T08:11:15Z</time></trkpt><trkpt lat="42.16761764146892" lon="-3.6125637872998704"><ele>992.0</ele><time>2026-05-03T08:11:16Z</time></trkpt><trkpt lat="42.16753474493901" lon="-3.612483273654288"><ele>992.0</ele><time>2026-05-03T08:11:17Z</time></trkpt><trkpt lat="42.16745361740011" lon="-3.6124018130512474"><ele>992.0</ele><time>2026-05-03T08:11:18Z</time></trkpt><trkpt lat="42.16737301284072" lon="-3.612322421470435"><ele>992.2</ele><time>2026-05-03T08:11:19Z</time></trkpt><trkpt lat="42.167293064667206" lon="-3.612242440834194"><ele>992.4000000000001</ele><time>2026-05-03T08:11:20Z</time></trkpt><trkpt lat="42.167212806385386" lon="-3.612163137747439"><ele>992.5999999999999</ele><time>2026-05-03T08:11:21Z</time></trkpt><trkpt lat="42.16712986831155" lon="-3.6120860480688286"><ele>992.8</ele><time>2026-05-03T08:11:22Z</time></trkpt><trkpt lat="42.16705158414033" lon="-3.6120108612001975"><ele>993.0</ele><time>2026-05-03T08:11:23Z</time></trkpt><trkpt lat="42.166974205709444" lon="-3.6119358561459878"><ele>994.0</ele><time>2026-05-03T08:11:24Z</time></trkpt><trkpt lat="42.166893337106856" lon="-3.611854420092667"><ele>995.0</ele><time>2026-05-03T08:11:25Z</time></trkpt><trkpt lat="42.16681627314985" lon="-3.6117772896590954"><ele>996.0</ele><time>2026-05-03T08:11:26Z</time></trkpt><trkpt lat="42.16674190428348" lon="-3.6117019220389364"><ele>997.0</ele><time>2026-05-03T08:11:27Z</time></trkpt><trkpt lat="42.16666494105979" lon="-3.6116234392535285"><ele>998.0</ele><time>2026-05-03T08:11:28Z</time></trkpt><trkpt lat="42.166590557555956" lon="-3.61154530332656"><ele>998.5999999999999</ele><time>2026-05-03T08:11:29Z</time></trkpt><trkpt lat="42.16651307873872" lon="-3.6114683821032054"><ele>999.1999999999999</ele><time>2026-05-03T08:11:30Z</time></trkpt><trkpt lat="42.16643687507032" lon="-3.6113958982086305"><ele>999.8</ele><time>2026-05-03T08:11:31Z</time></trkpt><trkpt lat="42.166363535567626" lon="-3.6113199979532515"><ele>1000.4</ele><time>2026-05-03T08:11:32Z</time></trkpt><trkpt lat="42.16628402936462" lon="-3.6112403440612026"><ele>1001.0</ele><time>2026-05-03T08:11:33Z</time></trkpt><trkpt lat="42.16620718175727" lon="-3.611163790331024"><ele>1000.1999999999999</ele><time>2026-05-03T08:11:34Z</time></trkpt><trkpt lat="42.16612854043792" lon="-3.611085079527642"><ele>999.3999999999999</ele><time>2026-05-03T08:11:35Z</time></trkpt><trkpt lat="42.16604994019075" lon="-3.611006266558887"><ele>998.6</ele><time>2026-05-03T08:11:36Z</time></trkpt><trkpt lat="42.165973791172185" lon="-3.610928589114419"><ele>997.8</ele><time>2026-05-03T08:11:37Z</time></trkpt><trkpt lat="42.16589444223144" lon="-3.6108491626429102"><ele>997.0</ele><time>2026-05-03T08:11:38Z</time></trkpt><trkpt lat="42.16581552593699" lon="-3.6107703844834935"><ele>997.0</ele><time>2026-05-03T08:11:39Z</time></trkpt><trkpt lat="42.16573476092612" lon="-3.6106905728791365"><ele>997.0</ele><time>2026-05-03T08:11:40Z</time></trkpt><trkpt lat="42.16565465482054" lon="-3.610612963632291"><ele>997.0</ele><time>2026-05-03T08:11:41Z</time></trkpt><trkpt lat="42.16557448731587" lon="-3.6105328476744023"><ele>997.0</ele><time>2026-05-03T08:11:42Z</time></trkpt><trkpt lat="42.1654926223286" lon="-3.6104531272420406"><ele>997.0</ele><time>2026-05-03T08:11:43Z</time></trkpt><trkpt lat="42.16541042771548" lon="-3.610373816056381"><ele>997.4000000000001</ele><time>2026-05-03T08:11:44Z</time></trkpt><trkpt lat="42.16532888629973" lon="-3.610291030381264"><ele>997.8000000000001</ele><time>2026-05-03T08:11:45Z</time></trkpt><trkpt lat="42.165245907868695" lon="-3.61020735518166"><ele>998.2</ele><time>2026-05-03T08:11:46Z</time></trkpt><trkpt lat="42.165163862571234" lon="-3.6101244479860943"><ele>998.6</ele><time>2026-05-03T08:11:47Z</time></trkpt><trkpt lat="42.16508123298048" lon="-3.61004124480974"><ele>999.0</ele><time>2026-05-03T08:11:48Z</time></trkpt><trkpt lat="42.16499752547438" lon="-3.6099608251572772"><ele>999.0</ele><time>2026-05-03T08:11:49Z</time></trkpt><trkpt lat="42.16491609952008" lon="-3.609883047444925"><ele>999.0000000000001</ele><time>2026-05-03T08:11:50Z</time></trkpt><trkpt lat="42.16483179350489" lon="-3.6097979561560276"><ele>999.0000000000001</ele><time>2026-05-03T08:11:51Z</time></trkpt><trkpt lat="42.16474682392784" lon="-3.609718712964232"><ele>999.0</ele><time>2026-05-03T08:11:52Z</time></trkpt><trkpt lat="42.16466282217939" lon="-3.6096376861059714"><ele>999.0</ele><time>2026-05-03T08:11:53Z</time></trkpt><trkpt lat="42.16457968520696" lon="-3.6095561197380595"><ele>998.0</ele><time>2026-05-03T08:11:54Z</time></trkpt><trkpt lat="42.16449540497795" lon="-3.609473153084471"><ele>997.0000000000001</ele><time>2026-05-03T08:11:55Z</time></trkpt><trkpt lat="42.164412005960735" lon="-3.6093903983757643"><ele>996.0000000000001</ele><time>2026-05-03T08:11:56Z</time></trkpt><trkpt lat="42.1643273969513" lon="-3.609308006223692"><ele>995.0</ele><time>2026-05-03T08:11:57Z</time></trkpt><trkpt lat="42.16424327502966" lon="-3.6092248681320216"><ele>994.0</ele><time>2026-05-03T08:11:58Z</time></trkpt><trkpt lat="42.16416040138462" lon="-3.60913972883039"><ele>994.0</ele><time>2026-05-03T08:11:59Z</time></trkpt><trkpt lat="42.16407683413226" lon="-3.609053572868665"><ele>994.0000000000001</ele><time>2026-05-03T08:12:00Z</time></trkpt><trkpt lat="42.16399150432814" lon="-3.608972870015305"><ele>994.0000000000001</ele><time>2026-05-03T08:12:01Z</time></trkpt><trkpt lat="42.16391087880116" lon="-3.6088868912392145"><ele>994.0</ele><time>2026-05-03T08:12:02Z</time></trkpt><trkpt lat="42.16381885563197" lon="-3.6088133005994996"><ele>994.0</ele><time>2026-05-03T08:12:03Z</time></trkpt><trkpt lat="42.163742824456754" lon="-3.6087160934745075"><ele>995.0</ele><time>2026-05-03T08:12:04Z</time></trkpt><trkpt lat="42.16365795728493" lon="-3.608631418730791"><ele>996.0000000000001</ele><time>2026-05-03T08:12:05Z</time></trkpt><trkpt lat="42.163573113103666" lon="-3.608546904649046"><ele>997.0000000000001</ele><time>2026-05-03T08:12:06Z</time></trkpt><trkpt lat="42.163488378204775" lon="-3.6084608965361027"><ele>998.0</ele><time>2026-05-03T08:12:07Z</time></trkpt><trkpt lat="42.16340325276006" lon="-3.6083741210752325"><ele>999.0</ele><time>2026-05-03T08:12:08Z</time></trkpt><trkpt lat="42.163318039236536" lon="-3.608288523446602"><ele>999.0</ele><time>2026-05-03T08:12:09Z</time></trkpt><trkpt lat="42.163233180266246" lon="-3.608200872868386"><ele>999.0000000000001</ele><time>2026-05-03T08:12:10Z</time></trkpt><trkpt lat="42.16315192958763" lon="-3.6081133298988393"><ele>999.0000000000001</ele><time>2026-05-03T08:12:11Z</time></trkpt><trkpt lat="42.163060538471115" lon="-3.6080306665078514"><ele>999.0</ele><time>2026-05-03T08:12:12Z</time></trkpt><trkpt lat="42.16299730794714" lon="-3.607982180433685"><ele>999.0</ele><time>2026-05-03T08:12:13Z</time></trkpt><trkpt lat="42.162947530390355" lon="-3.6079297040477147"><ele>999.25</ele><time>2026-05-03T08:12:14Z</time></trkpt><trkpt lat="42.162855516815945" lon="-3.6079282818791376"><ele>999.5</ele><time>2026-05-03T08:12:15Z</time></trkpt><trkpt lat="42.16271781384787" lon="-3.6076543431473813"><ele>999.75</ele><time>2026-05-03T08:12:16Z</time></trkpt><trkpt lat="42.16263417046053" lon="-3.607560169999572"><ele>1000.0</ele><time>2026-05-03T08:12:17Z</time></trkpt><trkpt lat="42.16255028637883" lon="-3.6074683061988004"><ele>999.8</ele><time>2026-05-03T08:12:18Z</time></trkpt><trkpt lat="42.16246660333694" lon="-3.607375745328128"><ele>999.6</ele><time>2026-05-03T08:12:19Z</time></trkpt><trkpt lat="42.16238003992393" lon="-3.607283493258076"><ele>999.4000000000001</ele><time>2026-05-03T08:12:20Z</time></trkpt><trkpt lat="42.16229399974415" lon="-3.6071901741707113"><ele>999.2</ele><time>2026-05-03T08:12:21Z</time></trkpt><trkpt lat="42.16220910456164" lon="-3.607096395935239"><ele>999.0</ele><time>2026-05-03T08:12:22Z</time></trkpt><trkpt lat="42.16212370261224" lon="-3.607002247948685"><ele>998.8000000000001</ele><time>2026-05-03T08:12:23Z</time></trkpt><trkpt lat="42.16203756750341" lon="-3.606906282356617"><ele>998.6000000000001</ele><time>2026-05-03T08:12:24Z</time></trkpt><trkpt lat="42.16195245081469" lon="-3.606811692189118"><ele>998.4</ele><time>2026-05-03T08:12:25Z</time></trkpt><trkpt lat="42.161871063332036" lon="-3.60671508434405"><ele>998.2</ele><time>2026-05-03T08:12:26Z</time></trkpt><trkpt lat="42.16178757264576" lon="-3.606619091400965"><ele>998.0</ele><time>2026-05-03T08:12:27Z</time></trkpt><trkpt lat="42.161703889474985" lon="-3.606523508698417"><ele>998.0</ele><time>2026-05-03T08:12:28Z</time></trkpt><trkpt lat="42.1616214244038" lon="-3.6064300244309244"><ele>998.0</ele><time>2026-05-03T08:12:29Z</time></trkpt><trkpt lat="42.16153782958186" lon="-3.6063358033185304"><ele>998.0</ele><time>2026-05-03T08:12:30Z</time></trkpt><trkpt lat="42.161456589498115" lon="-3.606244279224421"><ele>998.0</ele><time>2026-05-03T08:12:31Z</time></trkpt><trkpt lat="42.16137267585041" lon="-3.6061513063677557"><ele>998.0</ele><time>2026-05-03T08:12:32Z</time></trkpt><trkpt lat="42.16129265013969" lon="-3.606059331010195"><ele>998.5999999999999</ele><time>2026-05-03T08:12:33Z</time></trkpt><trkpt lat="42.16121295489212" lon="-3.6059676222159656"><ele>999.1999999999999</ele><time>2026-05-03T08:12:34Z</time></trkpt><trkpt lat="42.161133183667346" lon="-3.605877552344969"><ele>999.8</ele><time>2026-05-03T08:12:35Z</time></trkpt><trkpt lat="42.16105266438219" lon="-3.6057871896529323"><ele>1000.4</ele><time>2026-05-03T08:12:36Z</time></trkpt><trkpt lat="42.16097338126953" lon="-3.6056987867053905"><ele>1001.0</ele><time>2026-05-03T08:12:37Z</time></trkpt><trkpt lat="42.16089431996148" lon="-3.6056098737787003"><ele>1001.0</ele><time>2026-05-03T08:12:38Z</time></trkpt><trkpt lat="42.160814759756086" lon="-3.605519521068338"><ele>1000.9999999999999</ele><time>2026-05-03T08:12:39Z</time></trkpt><trkpt lat="42.16073623493282" lon="-3.605432611196905"><ele>1000.9999999999999</ele><time>2026-05-03T08:12:40Z</time></trkpt><trkpt lat="42.16065929219495" lon="-3.6053420322615666"><ele>1001.0</ele><time>2026-05-03T08:12:41Z</time></trkpt><trkpt lat="42.16058072509996" lon="-3.605253000846019"><ele>1001.0</ele><time>2026-05-03T08:12:42Z</time></trkpt><trkpt lat="42.16050202550021" lon="-3.6051644694002905"><ele>1001.4</ele><time>2026-05-03T08:12:43Z</time></trkpt><trkpt lat="42.160422628234926" lon="-3.6050760285821486"><ele>1001.8</ele><time>2026-05-03T08:12:44Z</time></trkpt><trkpt lat="42.160345576167344" lon="-3.6049895436748876"><ele>1002.1999999999999</ele><time>2026-05-03T08:12:45Z</time></trkpt><trkpt lat="42.16026847128116" lon="-3.6049005284081206"><ele>1002.5999999999999</ele><time>2026-05-03T08:12:46Z</time></trkpt><trkpt lat="42.160191290810026" lon="-3.6048126343413545"><ele>1003.0</ele><time>2026-05-03T08:12:47Z</time></trkpt><trkpt lat="42.16011301566033" lon="-3.6047225655002006"><ele>1003.0</ele><time>2026-05-03T08:12:48Z</time></trkpt><trkpt lat="42.160034983678074" lon="-3.604633988099366"><ele>1003.0</ele><time>2026-05-03T08:12:49Z</time></trkpt><trkpt lat="42.15995547385158" lon="-3.6045451077637742"><ele>1003.0</ele><time>2026-05-03T08:12:50Z</time></trkpt><trkpt lat="42.15987453762339" lon="-3.604452383143686"><ele>1003.0</ele><time>2026-05-03T08:12:51Z</time></trkpt><trkpt lat="42.159797246429264" lon="-3.604363838964522"><ele>1003.0</ele><time>2026-05-03T08:12:52Z</time></trkpt><trkpt lat="42.15972031014785" lon="-3.6042755293035955"><ele>1003.4</ele><time>2026-05-03T08:12:53Z</time></trkpt><trkpt lat="42.15964272247863" lon="-3.6041876047800954"><ele>1003.8</ele><time>2026-05-03T08:12:54Z</time></trkpt><trkpt lat="42.15956373978154" lon="-3.6040997449960184"><ele>1004.2</ele><time>2026-05-03T08:12:55Z</time></trkpt><trkpt lat="42.15948517301802" lon="-3.6040124962030573"><ele>1004.6</ele><time>2026-05-03T08:12:56Z</time></trkpt><trkpt lat="42.15940662279689" lon="-3.6039241953979575"><ele>1005.0</ele><time>2026-05-03T08:12:57Z</time></trkpt><trkpt lat="42.159328195940105" lon="-3.603838804159764"><ele>1005.0</ele><time>2026-05-03T08:12:58Z</time></trkpt><trkpt lat="42.15924997169186" lon="-3.6037479618009356"><ele>1005.0</ele><time>2026-05-03T08:12:59Z</time></trkpt><trkpt lat="42.15917136788264" lon="-3.6036588439149417"><ele>1005.0</ele><time>2026-05-03T08:13:00Z</time></trkpt><trkpt lat="42.159093793969134" lon="-3.6035676537522416"><ele>1005.0</ele><time>2026-05-03T08:13:01Z</time></trkpt><trkpt lat="42.15901603013521" lon="-3.603479483467496"><ele>1005.0</ele><time>2026-05-03T08:13:02Z</time></trkpt><trkpt lat="42.158936843698946" lon="-3.6033910235045914"><ele>1006.0</ele><time>2026-05-03T08:13:03Z</time></trkpt><trkpt lat="42.15885750788723" lon="-3.6033010435761605"><ele>1007.0</ele><time>2026-05-03T08:13:04Z</time></trkpt><trkpt lat="42.158776851889264" lon="-3.60320961279371"><ele>1008.0</ele><time>2026-05-03T08:13:05Z</time></trkpt><trkpt lat="42.15869716210532" lon="-3.6031195364469024"><ele>1009.0</ele><time>2026-05-03T08:13:06Z</time></trkpt><trkpt lat="42.15861588408729" lon="-3.603029431592172"><ele>1010.0</ele><time>2026-05-03T08:13:07Z</time></trkpt><trkpt lat="42.15853758559447" lon="-3.602939456207985"><ele>1010.0</ele><time>2026-05-03T08:13:08Z</time></trkpt><trkpt lat="42.15845807683135" lon="-3.6028466454891888"><ele>1010.0</ele><time>2026-05-03T08:13:09Z</time></trkpt><trkpt lat="42.1583793094367" lon="-3.6027555123843005"><ele>1010.0</ele><time>2026-05-03T08:13:10Z</time></trkpt><trkpt lat="42.15829985816144" lon="-3.6026628701225207"><ele>1010.0</ele><time>2026-05-03T08:13:11Z</time></trkpt><trkpt lat="42.15822007762345" lon="-3.6025777329750075"><ele>1010.0</ele><time>2026-05-03T08:13:12Z</time></trkpt><trkpt lat="42.158141389007" lon="-3.6024873231366783"><ele>1010.8</ele><time>2026-05-03T08:13:13Z</time></trkpt><trkpt lat="42.15806142932271" lon="-3.6023993540052412"><ele>1011.6</ele><time>2026-05-03T08:13:14Z</time></trkpt><trkpt lat="42.15798352516705" lon="-3.602311395719986"><ele>1012.4000000000001</ele><time>2026-05-03T08:13:15Z</time></trkpt><trkpt lat="42.15790340694219" lon="-3.602222528658215"><ele>1013.2</ele><time>2026-05-03T08:13:16Z</time></trkpt><trkpt lat="42.15782412780156" lon="-3.6021353989909835"><ele>1014.0</ele><time>2026-05-03T08:13:17Z</time></trkpt><trkpt lat="42.157746317468856" lon="-3.602044960945511"><ele>1013.8000000000001</ele><time>2026-05-03T08:13:18Z</time></trkpt><trkpt lat="42.15766622581903" lon="-3.60195430561897"><ele>1013.6000000000001</ele><time>2026-05-03T08:13:19Z</time></trkpt><trkpt lat="42.15758572593041" lon="-3.6018640355518032"><ele>1013.4</ele><time>2026-05-03T08:13:20Z</time></trkpt><trkpt lat="42.157508558315655" lon="-3.601776296572972"><ele>1013.2</ele><time>2026-05-03T08:13:21Z</time></trkpt><trkpt lat="42.157428676943304" lon="-3.6016852733492244"><ele>1013.0</ele><time>2026-05-03T08:13:22Z</time></trkpt><trkpt lat="42.1573478029429" lon="-3.6015940345266033"><ele>1013.0</ele><time>2026-05-03T08:13:23Z</time></trkpt><trkpt lat="42.1572675102571" lon="-3.6015045122041713"><ele>1013.0</ele><time>2026-05-03T08:13:24Z</time></trkpt><trkpt lat="42.15718575260827" lon="-3.6014090201787905"><ele>1013.0</ele><time>2026-05-03T08:13:25Z</time></trkpt><trkpt lat="42.15710477284991" lon="-3.601323429825044"><ele>1013.0</ele><time>2026-05-03T08:13:26Z</time></trkpt><trkpt lat="42.15702569676157" lon="-3.601229257118207"><ele>1013.0</ele><time>2026-05-03T08:13:27Z</time></trkpt><trkpt lat="42.15694468424461" lon="-3.601136447305508"><ele>1012.0</ele><time>2026-05-03T08:13:28Z</time></trkpt><trkpt lat="42.15686616017108" lon="-3.6010412379566694"><ele>1011.0</ele><time>2026-05-03T08:13:29Z</time></trkpt><trkpt lat="42.15678316778494" lon="-3.6009426521776433"><ele>1010.0</ele><time>2026-05-03T08:13:30Z</time></trkpt><trkpt lat="42.15670032644952" lon="-3.600858756396962"><ele>1009.0</ele><time>2026-05-03T08:13:31Z</time></trkpt><trkpt lat="42.15660617961423" lon="-3.600767095341008"><ele>1008.0</ele><time>2026-05-03T08:13:32Z</time></trkpt><trkpt lat="42.156518165377285" lon="-3.6006657093826857"><ele>1007.8</ele><time>2026-05-03T08:13:33Z</time></trkpt><trkpt lat="42.15643070642712" lon="-3.6005717365533023"><ele>1007.5999999999999</ele><time>2026-05-03T08:13:34Z</time></trkpt><trkpt lat="42.15634186847799" lon="-3.600479647747072"><ele>1007.4000000000001</ele><time>2026-05-03T08:13:35Z</time></trkpt><trkpt lat="42.156251376907655" lon="-3.6003860058340056"><ele>1007.2</ele><time>2026-05-03T08:13:36Z</time></trkpt><trkpt lat="42.15616376730854" lon="-3.600293715406146"><ele>1007.0</ele><time>2026-05-03T08:13:37Z</time></trkpt><trkpt lat="42.15607525980304" lon="-3.600202148079956"><ele>1007.2</ele><time>2026-05-03T08:13:38Z</time></trkpt><trkpt lat="42.15598525647729" lon="-3.6001073526129903"><ele>1007.4000000000001</ele><time>2026-05-03T08:13:39Z</time></trkpt><trkpt lat="42.15589661817643" lon="-3.600014620938842"><ele>1007.5999999999999</ele><time>2026-05-03T08:13:40Z</time></trkpt><trkpt lat="42.15580870642644" lon="-3.599921639613181"><ele>1007.8</ele><time>2026-05-03T08:13:41Z</time></trkpt><trkpt lat="42.155720852006056" lon="-3.5998323939913686"><ele>1008.0</ele><time>2026-05-03T08:13:42Z</time></trkpt><trkpt lat="42.1556326140908" lon="-3.599744273556948"><ele>1008.0</ele><time>2026-05-03T08:13:43Z</time></trkpt><trkpt lat="42.15554882993828" lon="-3.599651502583696"><ele>1008.0</ele><time>2026-05-03T08:13:44Z</time></trkpt><trkpt lat="42.1554621241669" lon="-3.599568371251758"><ele>1008.0</ele><time>2026-05-03T08:13:45Z</time></trkpt><trkpt lat="42.1553735410422" lon="-3.599476913573145"><ele>1008.0</ele><time>2026-05-03T08:13:46Z</time></trkpt><trkpt lat="42.15528734873503" lon="-3.5993925228970505"><ele>1008.0</ele><time>2026-05-03T08:13:47Z</time></trkpt><trkpt lat="42.15520410994838" lon="-3.599309282980851"><ele>1008.0</ele><time>2026-05-03T08:13:48Z</time></trkpt><trkpt lat="42.155119429319264" lon="-3.599228110618683"><ele>1008.0</ele><time>2026-05-03T08:13:49Z</time></trkpt><trkpt lat="42.15503740679819" lon="-3.5991435411982904"><ele>1008.0</ele><time>2026-05-03T08:13:50Z</time></trkpt><trkpt lat="42.15495296327804" lon="-3.5990587997128927"><ele>1008.0</ele><time>2026-05-03T08:13:51Z</time></trkpt><trkpt lat="42.15486944786424" lon="-3.598979192634552"><ele>1008.0</ele><time>2026-05-03T08:13:52Z</time></trkpt><trkpt lat="42.154787833077684" lon="-3.598897960827255"><ele>1007.8</ele><time>2026-05-03T08:13:53Z</time></trkpt><trkpt lat="42.154705733191264" lon="-3.5988139391269605"><ele>1007.5999999999999</ele><time>2026-05-03T08:13:54Z</time></trkpt><trkpt lat="42.15462349336121" lon="-3.5987293077116953"><ele>1007.4000000000001</ele><time>2026-05-03T08:13:55Z</time></trkpt><trkpt lat="42.154539343545785" lon="-3.598649118326511"><ele>1007.2</ele><time>2026-05-03T08:13:56Z</time></trkpt><trkpt lat="42.15445627478238" lon="-3.598570419178106"><ele>1007.0</ele><time>2026-05-03T08:13:57Z</time></trkpt><trkpt lat="42.15437372159496" lon="-3.598486618029706"><ele>1007.0</ele><time>2026-05-03T08:13:58Z</time></trkpt><trkpt lat="42.15429021907562" lon="-3.598404108651769"><ele>1007.0</ele><time>2026-05-03T08:13:59Z</time></trkpt><trkpt lat="42.15420810751922" lon="-3.5983255672859014"><ele>1007.0</ele><time>2026-05-03T08:14:00Z</time></trkpt><trkpt lat="42.15412609680766" lon="-3.59824044587312"><ele>1007.0</ele><time>2026-05-03T08:14:01Z</time></trkpt><trkpt lat="42.15404574093773" lon="-3.5981504587622237"><ele>1007.0</ele><time>2026-05-03T08:14:02Z</time></trkpt><trkpt lat="42.15396218368296" lon="-3.5980724787790246"><ele>1007.0</ele><time>2026-05-03T08:14:03Z</time></trkpt><trkpt lat="42.15387883875788" lon="-3.5979888260336135"><ele>1007.0</ele><time>2026-05-03T08:14:04Z</time></trkpt><trkpt lat="42.15379243550726" lon="-3.59790851152182"><ele>1007.0</ele><time>2026-05-03T08:14:05Z</time></trkpt><trkpt lat="42.153708785199754" lon="-3.5978237086951164"><ele>1007.0</ele><time>2026-05-03T08:14:06Z</time></trkpt><trkpt lat="42.153625780626456" lon="-3.5977380711717357"><ele>1007.0</ele><time>2026-05-03T08:14:07Z</time></trkpt><trkpt lat="42.15354093164235" lon="-3.5976562446639506"><ele>1007.8</ele><time>2026-05-03T08:14:08Z</time></trkpt><trkpt lat="42.15345629907084" lon="-3.59757415624409"><ele>1008.6</ele><time>2026-05-03T08:14:09Z</time></trkpt><trkpt lat="42.153372486291225" lon="-3.597490398612956"><ele>1009.3999999999999</ele><time>2026-05-03T08:14:10Z</time></trkpt><trkpt lat="42.15328918666448" lon="-3.597407018186727"><ele>1010.1999999999999</ele><time>2026-05-03T08:14:11Z</time></trkpt><trkpt lat="42.153206788565925" lon="-3.5973246871816453"><ele>1011.0</ele><time>2026-05-03T08:14:12Z</time></trkpt><trkpt lat="42.15312371441616" lon="-3.59724050488709"><ele>1011.0</ele><time>2026-05-03T08:14:13Z</time></trkpt><trkpt lat="42.15304043902119" lon="-3.5971571844220223"><ele>1010.9999999999999</ele><time>2026-05-03T08:14:14Z</time></trkpt><trkpt lat="42.15295728084837" lon="-3.5970719515611016"><ele>1010.9999999999999</ele><time>2026-05-03T08:14:15Z</time></trkpt><trkpt lat="42.1528714841609" lon="-3.5969914587897995"><ele>1011.0</ele><time>2026-05-03T08:14:16Z</time></trkpt><trkpt lat="42.152787166737696" lon="-3.5969108165491863"><ele>1011.0</ele><time>2026-05-03T08:14:17Z</time></trkpt><trkpt lat="42.15270425209392" lon="-3.59682537410652"><ele>1011.4</ele><time>2026-05-03T08:14:18Z</time></trkpt><trkpt lat="42.152619187092256" lon="-3.5967408898569513"><ele>1011.8</ele><time>2026-05-03T08:14:19Z</time></trkpt><trkpt lat="42.15253528211898" lon="-3.596658699377015"><ele>1012.1999999999999</ele><time>2026-05-03T08:14:20Z</time></trkpt><trkpt lat="42.15245166223679" lon="-3.5965739764907743"><ele>1012.5999999999999</ele><time>2026-05-03T08:14:21Z</time></trkpt><trkpt lat="42.15236859021421" lon="-3.5964925751892762"><ele>1013.0</ele><time>2026-05-03T08:14:22Z</time></trkpt><trkpt lat="42.15228542628646" lon="-3.596410430568682"><ele>1013.0</ele><time>2026-05-03T08:14:23Z</time></trkpt><trkpt lat="42.15220170640985" lon="-3.5963273502285045"><ele>1013.0</ele><time>2026-05-03T08:14:24Z</time></trkpt><trkpt lat="42.15211732878154" lon="-3.596245299619638"><ele>1013.0</ele><time>2026-05-03T08:14:25Z</time></trkpt><trkpt lat="42.15203359556399" lon="-3.596158142935723"><ele>1013.0</ele><time>2026-05-03T08:14:26Z</time></trkpt><trkpt lat="42.151952317769044" lon="-3.5960802794785858"><ele>1013.0</ele><time>2026-05-03T08:14:27Z</time></trkpt><trkpt lat="42.15186865427274" lon="-3.5959963768786833"><ele>1013.0</ele><time>2026-05-03T08:14:28Z</time></trkpt><trkpt lat="42.15178535683948" lon="-3.5959113387604345"><ele>1013.0</ele><time>2026-05-03T08:14:29Z</time></trkpt><trkpt lat="42.15170157345384" lon="-3.5958299102776436"><ele>1013.0</ele><time>2026-05-03T08:14:30Z</time></trkpt><trkpt lat="42.151620798279836" lon="-3.59575115350119"><ele>1013.0</ele><time>2026-05-03T08:14:31Z</time></trkpt><trkpt lat="42.15153805454572" lon="-3.595665823217156"><ele>1013.0</ele><time>2026-05-03T08:14:32Z</time></trkpt><trkpt lat="42.151457315202734" lon="-3.595581103992725"><ele>1013.2</ele><time>2026-05-03T08:14:33Z</time></trkpt><trkpt lat="42.15137756854702" lon="-3.5955049744648524"><ele>1013.4</ele><time>2026-05-03T08:14:34Z</time></trkpt><trkpt lat="42.15129699773871" lon="-3.5954284993801733"><ele>1013.6000000000001</ele><time>2026-05-03T08:14:35Z</time></trkpt><trkpt lat="42.151215965620416" lon="-3.595344644235158"><ele>1013.8000000000001</ele><time>2026-05-03T08:14:36Z</time></trkpt><trkpt lat="42.151136856571696" lon="-3.595266563488334"><ele>1014.0</ele><time>2026-05-03T08:14:37Z</time></trkpt><trkpt lat="42.151059966656035" lon="-3.59519126926038"><ele>1014.4000000000001</ele><time>2026-05-03T08:14:38Z</time></trkpt><trkpt lat="42.15097952737011" lon="-3.595114219314374"><ele>1014.8000000000001</ele><time>2026-05-03T08:14:39Z</time></trkpt><trkpt lat="42.15090009842341" lon="-3.5950396518468377"><ele>1015.1999999999999</ele><time>2026-05-03T08:14:40Z</time></trkpt><trkpt lat="42.15082431089539" lon="-3.5949627366355235"><ele>1015.5999999999999</ele><time>2026-05-03T08:14:41Z</time></trkpt><trkpt lat="42.150748246892505" lon="-3.594883978963117"><ele>1016.0</ele><time>2026-05-03T08:14:42Z</time></trkpt><trkpt lat="42.15066976890233" lon="-3.594812169438831"><ele>1017.0</ele><time>2026-05-03T08:14:43Z</time></trkpt><trkpt lat="42.15059304602937" lon="-3.594736473147266"><ele>1017.9999999999999</ele><time>2026-05-03T08:14:44Z</time></trkpt><trkpt lat="42.150518452751335" lon="-3.5946615579921106"><ele>1018.9999999999999</ele><time>2026-05-03T08:14:45Z</time></trkpt><trkpt lat="42.150445122576265" lon="-3.594585215427983"><ele>1020.0</ele><time>2026-05-03T08:14:46Z</time></trkpt><trkpt lat="42.15036998721042" lon="-3.5945119685784377"><ele>1021.0</ele><time>2026-05-03T08:14:47Z</time></trkpt><trkpt lat="42.15029019222779" lon="-3.594436052948167"><ele>1021.0</ele><time>2026-05-03T08:14:48Z</time></trkpt><trkpt lat="42.150215008587374" lon="-3.59436263350361"><ele>1020.9999999999999</ele><time>2026-05-03T08:14:49Z</time></trkpt><trkpt lat="42.150138321102396" lon="-3.594290273347005"><ele>1020.9999999999999</ele><time>2026-05-03T08:14:50Z</time></trkpt><trkpt lat="42.15006420578944" lon="-3.594218200298676"><ele>1021.0</ele><time>2026-05-03T08:14:51Z</time></trkpt><trkpt lat="42.149984302802686" lon="-3.5941492551996035"><ele>1021.0</ele><time>2026-05-03T08:14:52Z</time></trkpt><trkpt lat="42.14990505442835" lon="-3.5940762845976844"><ele>1021.1999999999999</ele><time>2026-05-03T08:14:53Z</time></trkpt><trkpt lat="42.149830951883736" lon="-3.594010759606579"><ele>1021.3999999999999</ele><time>2026-05-03T08:14:54Z</time></trkpt><trkpt lat="42.14975129818236" lon="-3.593941226511778"><ele>1021.6</ele><time>2026-05-03T08:14:55Z</time></trkpt><trkpt lat="42.14967801001599" lon="-3.5938720158815247"><ele>1021.8</ele><time>2026-05-03T08:14:56Z</time></trkpt><trkpt lat="42.149599888873624" lon="-3.5938030975204027"><ele>1022.0</ele><time>2026-05-03T08:14:57Z</time></trkpt><trkpt lat="42.14951808625299" lon="-3.5937330253071593"><ele>1022.0</ele><time>2026-05-03T08:14:58Z</time></trkpt><trkpt lat="42.14944031742898" lon="-3.5936639578320757"><ele>1022.0</ele><time>2026-05-03T08:14:59Z</time></trkpt><trkpt lat="42.14936466990967" lon="-3.593597449839625"><ele>1022.0</ele><time>2026-05-03T08:15:00Z</time></trkpt><trkpt lat="42.1492917240017" lon="-3.5935395188478583"><ele>1022.0</ele><time>2026-05-03T08:15:01Z</time></trkpt><trkpt lat="42.1492138549383" lon="-3.5934752023692993"><ele>1022.0</ele><time>2026-05-03T08:15:02Z</time></trkpt><trkpt lat="42.14913147373736" lon="-3.59340112592639"><ele>1022.0</ele><time>2026-05-03T08:15:03Z</time></trkpt><trkpt lat="42.149046885831936" lon="-3.593337040333448"><ele>1022.0</ele><time>2026-05-03T08:15:04Z</time></trkpt><trkpt lat="42.14896556285012" lon="-3.5932679776608003"><ele>1022.0</ele><time>2026-05-03T08:15:05Z</time></trkpt><trkpt lat="42.14887813052693" lon="-3.5932224945561084"><ele>1022.0</ele><time>2026-05-03T08:15:06Z</time></trkpt><trkpt lat="42.148805021365455" lon="-3.5931425297759976"><ele>1022.0</ele><time>2026-05-03T08:15:07Z</time></trkpt><trkpt lat="42.14872526704133" lon="-3.5930811577310022"><ele>1021.6</ele><time>2026-05-03T08:15:08Z</time></trkpt><trkpt lat="42.148643723025515" lon="-3.593019856370549"><ele>1021.2</ele><time>2026-05-03T08:15:09Z</time></trkpt><trkpt lat="42.148562285254265" lon="-3.5929580961155034"><ele>1020.8</ele><time>2026-05-03T08:15:10Z</time></trkpt><trkpt lat="42.148480258226215" lon="-3.592895865685831"><ele>1020.4</ele><time>2026-05-03T08:15:11Z</time></trkpt><trkpt lat="42.14839912416377" lon="-3.5928307951783287"><ele>1020.0</ele><time>2026-05-03T08:15:12Z</time></trkpt><trkpt lat="42.14831756908161" lon="-3.592766010467831"><ele>1020.0</ele><time>2026-05-03T08:15:13Z</time></trkpt><trkpt lat="42.14823476244627" lon="-3.5926977399902493"><ele>1020.0</ele><time>2026-05-03T08:15:14Z</time></trkpt><trkpt lat="42.1481508673359" lon="-3.592630600231784"><ele>1020.0</ele><time>2026-05-03T08:15:15Z</time></trkpt><trkpt lat="42.148068207720904" lon="-3.5925680279256573"><ele>1020.0</ele><time>2026-05-03T08:15:16Z</time></trkpt><trkpt lat="42.14798624668814" lon="-3.5925074947470232"><ele>1020.0</ele><time>2026-05-03T08:15:17Z</time></trkpt><trkpt lat="42.147903799024775" lon="-3.5924444716272053"><ele>1021.2</ele><time>2026-05-03T08:15:18Z</time></trkpt><trkpt lat="42.147820478408335" lon="-3.592379814165807"><ele>1022.4</ele><time>2026-05-03T08:15:19Z</time></trkpt><trkpt lat="42.14773783263984" lon="-3.592313327484465"><ele>1023.5999999999999</ele><time>2026-05-03T08:15:20Z</time></trkpt><trkpt lat="42.14765356385337" lon="-3.592245392469005"><ele>1024.8</ele><time>2026-05-03T08:15:21Z</time></trkpt><trkpt lat="42.14757067490324" lon="-3.592184098398023"><ele>1026.0</ele><time>2026-05-03T08:15:22Z</time></trkpt><trkpt lat="42.14748958140981" lon="-3.59212118572181"><ele>1026.0</ele><time>2026-05-03T08:15:23Z</time></trkpt><trkpt lat="42.14740579964142" lon="-3.592055437219508"><ele>1026.0</ele><time>2026-05-03T08:15:24Z</time></trkpt><trkpt lat="42.147324022908826" lon="-3.591994160053113"><ele>1026.0</ele><time>2026-05-03T08:15:25Z</time></trkpt><trkpt lat="42.14724181682011" lon="-3.5919300393008036"><ele>1026.0</ele><time>2026-05-03T08:15:26Z</time></trkpt><trkpt lat="42.1471600650279" lon="-3.5918693563445974"><ele>1026.0</ele><time>2026-05-03T08:15:27Z</time></trkpt><trkpt lat="42.14707712288148" lon="-3.591802741366003"><ele>1026.6</ele><time>2026-05-03T08:15:28Z</time></trkpt><trkpt lat="42.146994202651086" lon="-3.5917377169457536"><ele>1027.1999999999998</ele><time>2026-05-03T08:15:29Z</time></trkpt><trkpt lat="42.14691031019238" lon="-3.591672563962529"><ele>1027.8000000000002</ele><time>2026-05-03T08:15:30Z</time></trkpt><trkpt lat="42.14682770373367" lon="-3.591605854710934"><ele>1028.4</ele><time>2026-05-03T08:15:31Z</time></trkpt><trkpt lat="42.14674175075219" lon="-3.5915471101498175"><ele>1029.0</ele><time>2026-05-03T08:15:32Z</time></trkpt><trkpt lat="42.14665541641121" lon="-3.591481987629405"><ele>1029.0</ele><time>2026-05-03T08:15:33Z</time></trkpt><trkpt lat="42.146567206750184" lon="-3.59141288181032"><ele>1029.0</ele><time>2026-05-03T08:15:34Z</time></trkpt><trkpt lat="42.146482430337656" lon="-3.591350588222885"><ele>1029.0</ele><time>2026-05-03T08:15:35Z</time></trkpt><trkpt lat="42.14639199726416" lon="-3.5912841404533276"><ele>1029.0</ele><time>2026-05-03T08:15:36Z</time></trkpt><trkpt lat="42.14630386116791" lon="-3.591214612912747"><ele>1029.0</ele><time>2026-05-03T08:15:37Z</time></trkpt><trkpt lat="42.14621670277957" lon="-3.5911469063294734"><ele>1028.6000000000001</ele><time>2026-05-03T08:15:38Z</time></trkpt><trkpt lat="42.14612661035227" lon="-3.591078785889318"><ele>1028.2</ele><time>2026-05-03T08:15:39Z</time></trkpt><trkpt lat="42.14603518756219" lon="-3.5910104094975743"><ele>1027.8000000000002</ele><time>2026-05-03T08:15:40Z</time></trkpt><trkpt lat="42.145946205805124" lon="-3.5909396337738237"><ele>1027.4</ele><time>2026-05-03T08:15:41Z</time></trkpt><trkpt lat="42.14585347286049" lon="-3.5908611169198235"><ele>1027.0</ele><time>2026-05-03T08:15:42Z</time></trkpt><trkpt lat="42.14576145368147" lon="-3.590790701030417"><ele>1028.8</ele><time>2026-05-03T08:15:43Z</time></trkpt><trkpt lat="42.14566691672185" lon="-3.59072104777821"><ele>1030.6</ele><time>2026-05-03T08:15:44Z</time></trkpt><trkpt lat="42.14557227164242" lon="-3.5906480046758937"><ele>1032.3999999999999</ele><time>2026-05-03T08:15:45Z</time></trkpt><trkpt lat="42.145478118936325" lon="-3.5905763804330477"><ele>1034.2</ele><time>2026-05-03T08:15:46Z</time></trkpt><trkpt lat="42.145385957520155" lon="-3.5905045332175836"><ele>1036.0</ele><time>2026-05-03T08:15:47Z</time></trkpt><trkpt lat="42.14529377101938" lon="-3.590430857107155"><ele>1036.0</ele><time>2026-05-03T08:15:48Z</time></trkpt><trkpt lat="42.14520068358739" lon="-3.5903533698920964"><ele>1036.0</ele><time>2026-05-03T08:15:49Z</time></trkpt><trkpt lat="42.14511093166371" lon="-3.5902843553183796"><ele>1036.0</ele><time>2026-05-03T08:15:50Z</time></trkpt><trkpt lat="42.14502072050501" lon="-3.590212715175629"><ele>1036.0</ele><time>2026-05-03T08:15:51Z</time></trkpt><trkpt lat="42.14492927162705" lon="-3.5901425046162965"><ele>1036.0</ele><time>2026-05-03T08:15:52Z</time></trkpt><trkpt lat="42.14483648143584" lon="-3.59007374625272"><ele>1035.8</ele><time>2026-05-03T08:15:53Z</time></trkpt><trkpt lat="42.14473552226914" lon="-3.5900002782571"><ele>1035.6</ele><time>2026-05-03T08:15:54Z</time></trkpt><trkpt lat="42.14464463902143" lon="-3.5899234308701047"><ele>1035.4</ele><time>2026-05-03T08:15:55Z</time></trkpt><trkpt lat="42.14455181433136" lon="-3.5898519729597393"><ele>1035.2</ele><time>2026-05-03T08:15:56Z</time></trkpt><trkpt lat="42.14445837460963" lon="-3.589779906736623"><ele>1035.0</ele><time>2026-05-03T08:15:57Z</time></trkpt><trkpt lat="42.144365194329765" lon="-3.58971075944095"><ele>1035.0</ele><time>2026-05-03T08:15:58Z</time></trkpt><trkpt lat="42.14427388013816" lon="-3.5896393757662204"><ele>1035.0</ele><time>2026-05-03T08:15:59Z</time></trkpt><trkpt lat="42.14418136375346" lon="-3.589565041167643"><ele>1035.0</ele><time>2026-05-03T08:16:00Z</time></trkpt><trkpt lat="42.14408999702442" lon="-3.5894930567743826"><ele>1035.0</ele><time>2026-05-03T08:16:01Z</time></trkpt><trkpt lat="42.143999605485476" lon="-3.589423738052915"><ele>1035.0</ele><time>2026-05-03T08:16:02Z</time></trkpt><trkpt lat="42.143907287021996" lon="-3.589353418167384"><ele>1035.4</ele><time>2026-05-03T08:16:03Z</time></trkpt><trkpt lat="42.14381541285887" lon="-3.5892839033361468"><ele>1035.8</ele><time>2026-05-03T08:16:04Z</time></trkpt><trkpt lat="42.14372559924146" lon="-3.5892141753638405"><ele>1036.2</ele><time>2026-05-03T08:16:05Z</time></trkpt><trkpt lat="42.143635711827" lon="-3.5891442064382817"><ele>1036.6</ele><time>2026-05-03T08:16:06Z</time></trkpt><trkpt lat="42.14354605669262" lon="-3.58907258878277"><ele>1037.0</ele><time>2026-05-03T08:16:07Z</time></trkpt><trkpt lat="42.1434572967192" lon="-3.5890024393516766"><ele>1037.0</ele><time>2026-05-03T08:16:08Z</time></trkpt><trkpt lat="42.14336723133282" lon="-3.5889318307717644"><ele>1037.0</ele><time>2026-05-03T08:16:09Z</time></trkpt><trkpt lat="42.14327941051934" lon="-3.588862281795267"><ele>1037.0</ele><time>2026-05-03T08:16:10Z</time></trkpt><trkpt lat="42.14318982875883" lon="-3.588790831896515"><ele>1037.0</ele><time>2026-05-03T08:16:11Z</time></trkpt><trkpt lat="42.14310168270098" lon="-3.5887223408978977"><ele>1037.0</ele><time>2026-05-03T08:16:12Z</time></trkpt><trkpt lat="42.14301288873364" lon="-3.588655192680786"><ele>1037.4</ele><time>2026-05-03T08:16:13Z</time></trkpt><trkpt lat="42.14292614822348" lon="-3.588586294213631"><ele>1037.8000000000002</ele><time>2026-05-03T08:16:14Z</time></trkpt><trkpt lat="42.142839560285715" lon="-3.588518494148494"><ele>1038.2</ele><time>2026-05-03T08:16:15Z</time></trkpt><trkpt lat="42.14275406250781" lon="-3.588451274675037"><ele>1038.6000000000001</ele><time>2026-05-03T08:16:16Z</time></trkpt><trkpt lat="42.14266851537261" lon="-3.5883843685876804"><ele>1039.0</ele><time>2026-05-03T08:16:17Z</time></trkpt><trkpt lat="42.1425830618973" lon="-3.5883189665758657"><ele>1039.0</ele><time>2026-05-03T08:16:18Z</time></trkpt><trkpt lat="42.14249968682904" lon="-3.588253468934039"><ele>1039.0</ele><time>2026-05-03T08:16:19Z</time></trkpt><trkpt lat="42.14241628479326" lon="-3.5881891066595877"><ele>1039.0</ele><time>2026-05-03T08:16:20Z</time></trkpt><trkpt lat="42.142332690271076" lon="-3.5881251634481575"><ele>1039.0</ele><time>2026-05-03T08:16:21Z</time></trkpt><trkpt lat="42.14225192485895" lon="-3.5880612236807004"><ele>1039.0</ele><time>2026-05-03T08:16:22Z</time></trkpt><trkpt lat="42.142168318706034" lon="-3.5879988991918643"><ele>1039.2</ele><time>2026-05-03T08:16:23Z</time></trkpt><trkpt lat="42.14208786636157" lon="-3.587933475897433"><ele>1039.4</ele><time>2026-05-03T08:16:24Z</time></trkpt><trkpt lat="42.14200661901379" lon="-3.5878699525667965"><ele>1039.6</ele><time>2026-05-03T08:16:25Z</time></trkpt><trkpt lat="42.14192497849128" lon="-3.5878062430949136"><ele>1039.8</ele><time>2026-05-03T08:16:26Z</time></trkpt><trkpt lat="42.14184302358079" lon="-3.587742206737836"><ele>1040.0</ele><time>2026-05-03T08:16:27Z</time></trkpt><trkpt lat="42.14176090845008" lon="-3.587679227746318"><ele>1040.0</ele><time>2026-05-03T08:16:28Z</time></trkpt><trkpt lat="42.1416796970297" lon="-3.5876180001796354"><ele>1040.0</ele><time>2026-05-03T08:16:29Z</time></trkpt><trkpt lat="42.14159662723871" lon="-3.5875520063390187"><ele>1040.0</ele><time>2026-05-03T08:16:30Z</time></trkpt><trkpt lat="42.14152145074485" lon="-3.5874899314680873"><ele>1040.0</ele><time>2026-05-03T08:16:31Z</time></trkpt><trkpt lat="42.14144031605533" lon="-3.5874261084369317"><ele>1040.0</ele><time>2026-05-03T08:16:32Z</time></trkpt><trkpt lat="42.141357664851235" lon="-3.587363350533521"><ele>1040.4</ele><time>2026-05-03T08:16:33Z</time></trkpt><trkpt lat="42.14128039138504" lon="-3.58729965814977"><ele>1040.8</ele><time>2026-05-03T08:16:34Z</time></trkpt><trkpt lat="42.141201429388765" lon="-3.587233482507526"><ele>1041.2</ele><time>2026-05-03T08:16:35Z</time></trkpt><trkpt lat="42.14112066025718" lon="-3.5871665519817215"><ele>1041.6</ele><time>2026-05-03T08:16:36Z</time></trkpt><trkpt lat="42.14104570862002" lon="-3.5870998383906225"><ele>1042.0</ele><time>2026-05-03T08:16:37Z</time></trkpt><trkpt lat="42.140972600016916" lon="-3.587035965239116"><ele>1042.0</ele><time>2026-05-03T08:16:38Z</time></trkpt><trkpt lat="42.14089617358405" lon="-3.5869621087216514"><ele>1042.0</ele><time>2026-05-03T08:16:39Z</time></trkpt><trkpt lat="42.14082147753306" lon="-3.586889938431366"><ele>1042.0</ele><time>2026-05-03T08:16:40Z</time></trkpt><trkpt lat="42.14074899642849" lon="-3.5868203817464193"><ele>1042.0</ele><time>2026-05-03T08:16:41Z</time></trkpt><trkpt lat="42.14067514128896" lon="-3.5867491530607407"><ele>1042.0</ele><time>2026-05-03T08:16:42Z</time></trkpt><trkpt lat="42.1405982673488" lon="-3.586665176947648"><ele>1042.0</ele><time>2026-05-03T08:16:43Z</time></trkpt><trkpt lat="42.140523251907474" lon="-3.5865791594999243"><ele>1042.0</ele><time>2026-05-03T08:16:44Z</time></trkpt><trkpt lat="42.140456697831496" lon="-3.5865063077595654"><ele>1042.0</ele><time>2026-05-03T08:16:45Z</time></trkpt><trkpt lat="42.14038351249348" lon="-3.5864213905091447"><ele>1042.0</ele><time>2026-05-03T08:16:46Z</time></trkpt><trkpt lat="42.14030896854838" lon="-3.586339258435209"><ele>1042.0</ele><time>2026-05-03T08:16:47Z</time></trkpt><trkpt lat="42.14023615092779" lon="-3.586248681169318"><ele>1042.2</ele><time>2026-05-03T08:16:48Z</time></trkpt><trkpt lat="42.14016256233249" lon="-3.586155296432642"><ele>1042.4</ele><time>2026-05-03T08:16:49Z</time></trkpt><trkpt lat="42.14008959485691" lon="-3.5860616611793676"><ele>1042.6</ele><time>2026-05-03T08:16:50Z</time></trkpt><trkpt lat="42.14001466211771" lon="-3.5859682592480855"><ele>1042.8</ele><time>2026-05-03T08:16:51Z</time></trkpt><trkpt lat="42.139943936329516" lon="-3.585873118633693"><ele>1043.0</ele><time>2026-05-03T08:16:52Z</time></trkpt><trkpt lat="42.13987372145721" lon="-3.5857650625518707"><ele>1042.6</ele><time>2026-05-03T08:16:53Z</time></trkpt><trkpt lat="42.13980287764366" lon="-3.5856595254646306"><ele>1042.1999999999998</ele><time>2026-05-03T08:16:54Z</time></trkpt><trkpt lat="42.13973233296109" lon="-3.5855568773603252"><ele>1041.8</ele><time>2026-05-03T08:16:55Z</time></trkpt><trkpt lat="42.13966314463071" lon="-3.5854506507105324"><ele>1041.3999999999999</ele><time>2026-05-03T08:16:56Z</time></trkpt><trkpt lat="42.13959494455176" lon="-3.5853399857149135"><ele>1041.0</ele><time>2026-05-03T08:16:57Z</time></trkpt><trkpt lat="42.13952575925239" lon="-3.585222845913305"><ele>1041.0</ele><time>2026-05-03T08:16:58Z</time></trkpt><trkpt lat="42.13945193528925" lon="-3.585096214481923"><ele>1041.0</ele><time>2026-05-03T08:16:59Z</time></trkpt><trkpt lat="42.13939242615376" lon="-3.5849836903381993"><ele>1041.0</ele><time>2026-05-03T08:17:00Z</time></trkpt><trkpt lat="42.139324387179386" lon="-3.58486212540005"><ele>1041.0</ele><time>2026-05-03T08:17:01Z</time></trkpt><trkpt lat="42.13925624339369" lon="-3.584741595071234"><ele>1041.0</ele><time>2026-05-03T08:17:02Z</time></trkpt><trkpt lat="42.13918664349033" lon="-3.584618115567592"><ele>1040.75</ele><time>2026-05-03T08:17:03Z</time></trkpt><trkpt lat="42.13911873162591" lon="-3.5844921188227308"><ele>1040.5</ele><time>2026-05-03T08:17:04Z</time></trkpt><trkpt lat="42.139051436549835" lon="-3.5843645956206345"><ele>1040.25</ele><time>2026-05-03T08:17:05Z</time></trkpt><trkpt lat="42.13898363208337" lon="-3.5842406976654373"><ele>1040.0</ele><time>2026-05-03T08:17:06Z</time></trkpt><trkpt lat="42.13891693570708" lon="-3.584119696020072"><ele>1040.0</ele><time>2026-05-03T08:17:07Z</time></trkpt><trkpt lat="42.13885011626419" lon="-3.5839966261087834"><ele>1040.0</ele><time>2026-05-03T08:17:08Z</time></trkpt><trkpt lat="42.138784144722806" lon="-3.5838796455792226"><ele>1040.0</ele><time>2026-05-03T08:17:09Z</time></trkpt><trkpt lat="42.138718946051185" lon="-3.583761245353689"><ele>1040.0</ele><time>2026-05-03T08:17:10Z</time></trkpt><trkpt lat="42.13865295802901" lon="-3.5836384081590444"><ele>1040.0</ele><time>2026-05-03T08:17:11Z</time></trkpt><trkpt lat="42.13858449354288" lon="-3.583516770278326"><ele>1040.8</ele><time>2026-05-03T08:17:12Z</time></trkpt><trkpt lat="42.13851562159389" lon="-3.583411955594967"><ele>1041.6</ele><time>2026-05-03T08:17:13Z</time></trkpt><trkpt lat="42.138454590489275" lon="-3.5832969074555545"><ele>1042.4</ele><time>2026-05-03T08:17:14Z</time></trkpt><trkpt lat="42.13839465596396" lon="-3.583178265826985"><ele>1043.2</ele><time>2026-05-03T08:17:15Z</time></trkpt><trkpt lat="42.13833268742691" lon="-3.5830621504364375"><ele>1044.0</ele><time>2026-05-03T08:17:16Z</time></trkpt><trkpt lat="42.138270125816284" lon="-3.5829451612225567"><ele>1044.2</ele><time>2026-05-03T08:17:17Z</time></trkpt><trkpt lat="42.1382082955929" lon="-3.582827727342177"><ele>1044.4</ele><time>2026-05-03T08:17:18Z</time></trkpt><trkpt lat="42.13814209810065" lon="-3.5827129056229707"><ele>1044.6</ele><time>2026-05-03T08:17:19Z</time></trkpt><trkpt lat="42.13807949179396" lon="-3.5825947341726994"><ele>1044.8</ele><time>2026-05-03T08:17:20Z</time></trkpt><trkpt lat="42.13801685981473" lon="-3.582480173873251"><ele>1045.0</ele><time>2026-05-03T08:17:21Z</time></trkpt><trkpt lat="42.13795469711576" lon="-3.582363859147219"><ele>1045.0</ele><time>2026-05-03T08:17:22Z</time></trkpt><trkpt lat="42.13789127066377" lon="-3.5822491583087346"><ele>1045.0</ele><time>2026-05-03T08:17:23Z</time></trkpt><trkpt lat="42.137830611290916" lon="-3.582133416270125"><ele>1045.0</ele><time>2026-05-03T08:17:24Z</time></trkpt><trkpt lat="42.13776953540645" lon="-3.5820175495083832"><ele>1045.0</ele><time>2026-05-03T08:17:25Z</time></trkpt><trkpt lat="42.13770840022206" lon="-3.5818992255944666"><ele>1045.0</ele><time>2026-05-03T08:17:26Z</time></trkpt><trkpt lat="42.13764359236148" lon="-3.5817869007247465"><ele>1044.8</ele><time>2026-05-03T08:17:27Z</time></trkpt><trkpt lat="42.13757989309689" lon="-3.581671286492924"><ele>1044.6</ele><time>2026-05-03T08:17:28Z</time></trkpt><trkpt lat="42.13751477506215" lon="-3.5815562901197846"><ele>1044.4</ele><time>2026-05-03T08:17:29Z</time></trkpt><trkpt lat="42.13745064075809" lon="-3.5814447300637497"><ele>1044.2</ele><time>2026-05-03T08:17:30Z</time></trkpt><trkpt lat="42.137388786027884" lon="-3.581326217856943"><ele>1044.0</ele><time>2026-05-03T08:17:31Z</time></trkpt><trkpt lat="42.1373257492217" lon="-3.5812075661752"><ele>1044.6000000000001</ele><time>2026-05-03T08:17:32Z</time></trkpt><trkpt lat="42.13726184537806" lon="-3.581087508705682"><ele>1045.2</ele><time>2026-05-03T08:17:33Z</time></trkpt><trkpt lat="42.13719689060667" lon="-3.580965848954757"><ele>1045.8000000000002</ele><time>2026-05-03T08:17:34Z</time></trkpt><trkpt lat="42.137130213437736" lon="-3.580845119959765"><ele>1046.4</ele><time>2026-05-03T08:17:35Z</time></trkpt><trkpt lat="42.137062039311175" lon="-3.5807222420051756"><ele>1047.0</ele><time>2026-05-03T08:17:36Z</time></trkpt><trkpt lat="42.136999630872964" lon="-3.580598611208777"><ele>1047.0</ele><time>2026-05-03T08:17:37Z</time></trkpt><trkpt lat="42.13692926268426" lon="-3.5804759420161623"><ele>1047.0</ele><time>2026-05-03T08:17:38Z</time></trkpt><trkpt lat="42.136860849347094" lon="-3.5803540321853715"><ele>1047.0</ele><time>2026-05-03T08:17:39Z</time></trkpt><trkpt lat="42.13679331633476" lon="-3.5802328687191403"><ele>1047.0</ele><time>2026-05-03T08:17:40Z</time></trkpt><trkpt lat="42.136727647876874" lon="-3.580111845745172"><ele>1046.0</ele><time>2026-05-03T08:17:41Z</time></trkpt><trkpt lat="42.1366603569614" lon="-3.5799891032577267"><ele>1045.0</ele><time>2026-05-03T08:17:42Z</time></trkpt><trkpt lat="42.13659506967277" lon="-3.5798667548694927"><ele>1044.0</ele><time>2026-05-03T08:17:43Z</time></trkpt><trkpt lat="42.13652601908072" lon="-3.5797439075631012"><ele>1043.0</ele><time>2026-05-03T08:17:44Z</time></trkpt><trkpt lat="42.13646096016033" lon="-3.5796222554998756"><ele>1043.2</ele><time>2026-05-03T08:17:45Z</time></trkpt><trkpt lat="42.136395437911425" lon="-3.5795027250627514"><ele>1043.4</ele><time>2026-05-03T08:17:46Z</time></trkpt><trkpt lat="42.136328742450935" lon="-3.579381784875266"><ele>1043.6000000000001</ele><time>2026-05-03T08:17:47Z</time></trkpt><trkpt lat="42.13626300277185" lon="-3.579260179708875"><ele>1043.8</ele><time>2026-05-03T08:17:48Z</time></trkpt><trkpt lat="42.13619602071741" lon="-3.5791381002103857"><ele>1044.0</ele><time>2026-05-03T08:17:49Z</time></trkpt><trkpt lat="42.136131742138986" lon="-3.579015725647367"><ele>1044.0</ele><time>2026-05-03T08:17:50Z</time></trkpt><trkpt lat="42.13606451683172" lon="-3.578895569179631"><ele>1044.0</ele><time>2026-05-03T08:17:51Z</time></trkpt><trkpt lat="42.13599614334096" lon="-3.578775615998584"><ele>1044.0</ele><time>2026-05-03T08:17:52Z</time></trkpt><trkpt lat="42.135931499245835" lon="-3.578651636384871"><ele>1044.0</ele><time>2026-05-03T08:17:53Z</time></trkpt><trkpt lat="42.13586741080781" lon="-3.578528236142707"><ele>1044.0</ele><time>2026-05-03T08:17:54Z</time></trkpt><trkpt lat="42.13580045955596" lon="-3.57840937563179"><ele>1044.2</ele><time>2026-05-03T08:17:55Z</time></trkpt><trkpt lat="42.135733646698554" lon="-3.5782908568824148"><ele>1044.4</ele><time>2026-05-03T08:17:56Z</time></trkpt><trkpt lat="42.13566705098171" lon="-3.5781711556989566"><ele>1044.6</ele><time>2026-05-03T08:17:57Z</time></trkpt><trkpt lat="42.1356012718745" lon="-3.57805123179288"><ele>1044.8</ele><time>2026-05-03T08:17:58Z</time></trkpt><trkpt lat="42.13553454675249" lon="-3.5779311949162764"><ele>1045.0</ele><time>2026-05-03T08:17:59Z</time></trkpt><trkpt lat="42.135469376924966" lon="-3.577808743833174"><ele>1043.0</ele><time>2026-05-03T08:18:00Z</time></trkpt><trkpt lat="42.13540465713018" lon="-3.5776854885359692"><ele>1041.0</ele><time>2026-05-03T08:18:01Z</time></trkpt><trkpt lat="42.13533873107939" lon="-3.5775627558892955"><ele>1039.0</ele><time>2026-05-03T08:18:02Z</time></trkpt><trkpt lat="42.135272449785965" lon="-3.5774397731752727"><ele>1037.0</ele><time>2026-05-03T08:18:03Z</time></trkpt><trkpt lat="42.135206648074266" lon="-3.577313939946454"><ele>1037.0</ele><time>2026-05-03T08:18:04Z</time></trkpt><trkpt lat="42.13513849966852" lon="-3.577198789503721"><ele>1037.0</ele><time>2026-05-03T08:18:05Z</time></trkpt><trkpt lat="42.13507597892549" lon="-3.577076019721257"><ele>1037.0</ele><time>2026-05-03T08:18:06Z</time></trkpt><trkpt lat="42.13501381671629" lon="-3.5769597476248602"><ele>1037.0</ele><time>2026-05-03T08:18:07Z</time></trkpt><trkpt lat="42.13494792434728" lon="-3.5768353382652935"><ele>1037.0</ele><time>2026-05-03T08:18:08Z</time></trkpt><trkpt lat="42.13487801940465" lon="-3.5767152009936245"><ele>1037.0</ele><time>2026-05-03T08:18:09Z</time></trkpt><trkpt lat="42.134811679242056" lon="-3.5765939229806096"><ele>1037.0</ele><time>2026-05-03T08:18:10Z</time></trkpt><trkpt lat="42.134745651702445" lon="-3.5764699882269406"><ele>1037.0</ele><time>2026-05-03T08:18:11Z</time></trkpt><trkpt lat="42.134680660333345" lon="-3.5763471856915645"><ele>1037.0</ele><time>2026-05-03T08:18:12Z</time></trkpt><trkpt lat="42.13461297934678" lon="-3.5762256904138114"><ele>1037.0</ele><time>2026-05-03T08:18:13Z</time></trkpt><trkpt lat="42.134549290696576" lon="-3.576105720798312"><ele>1036.4</ele><time>2026-05-03T08:18:14Z</time></trkpt><trkpt lat="42.13448454745495" lon="-3.5759883003904753"><ele>1035.8000000000002</ele><time>2026-05-03T08:18:15Z</time></trkpt><trkpt lat="42.134417965925294" lon="-3.575866049913086"><ele>1035.2</ele><time>2026-05-03T08:18:16Z</time></trkpt><trkpt lat="42.13435244493943" lon="-3.575746384480361"><ele>1034.6000000000001</ele><time>2026-05-03T08:18:17Z</time></trkpt><trkpt lat="42.13428851759802" lon="-3.575626800341718"><ele>1034.0</ele><time>2026-05-03T08:18:18Z</time></trkpt><trkpt lat="42.134225237521626" lon="-3.575506609402453"><ele>1034.0</ele><time>2026-05-03T08:18:19Z</time></trkpt><trkpt lat="42.134158082005584" lon="-3.575385287898514"><ele>1034.0</ele><time>2026-05-03T08:18:20Z</time></trkpt><trkpt lat="42.134095056211684" lon="-3.57526410423641"><ele>1034.0</ele><time>2026-05-03T08:18:21Z</time></trkpt><trkpt lat="42.13402817840585" lon="-3.575145826269468"><ele>1034.0</ele><time>2026-05-03T08:18:22Z</time></trkpt><trkpt lat="42.133960624736154" lon="-3.57502113173485"><ele>1034.0</ele><time>2026-05-03T08:18:23Z</time></trkpt><trkpt lat="42.133894864235685" lon="-3.574897659352556"><ele>1033.6000000000001</ele><time>2026-05-03T08:18:24Z</time></trkpt><trkpt lat="42.133830835909286" lon="-3.574779185277811"><ele>1033.2</ele><time>2026-05-03T08:18:25Z</time></trkpt><trkpt lat="42.13376505112538" lon="-3.5746609305642405"><ele>1032.8000000000002</ele><time>2026-05-03T08:18:26Z</time></trkpt><trkpt lat="42.133699574397696" lon="-3.57454431644972"><ele>1032.4</ele><time>2026-05-03T08:18:27Z</time></trkpt><trkpt lat="42.13363421910932" lon="-3.5744247101986018"><ele>1032.0</ele><time>2026-05-03T08:18:28Z</time></trkpt><trkpt lat="42.1335673010102" lon="-3.5743071528867296"><ele>1031.8</ele><time>2026-05-03T08:18:29Z</time></trkpt><trkpt lat="42.13350583046895" lon="-3.5741905264257405"><ele>1031.6</ele><time>2026-05-03T08:18:30Z</time></trkpt><trkpt lat="42.13343891224668" lon="-3.574073858165028"><ele>1031.3999999999999</ele><time>2026-05-03T08:18:31Z</time></trkpt><trkpt lat="42.133377081385476" lon="-3.5739570032414365"><ele>1031.2</ele><time>2026-05-03T08:18:32Z</time></trkpt><trkpt lat="42.13331344196706" lon="-3.573837592335321"><ele>1031.0</ele><time>2026-05-03T08:18:33Z</time></trkpt><trkpt lat="42.13325111825814" lon="-3.5737204395973587"><ele>1030.3999999999999</ele><time>2026-05-03T08:18:34Z</time></trkpt><trkpt lat="42.133187454091534" lon="-3.5736021239560443"><ele>1029.8</ele><time>2026-05-03T08:18:35Z</time></trkpt><trkpt lat="42.13312388309687" lon="-3.5734848820463903"><ele>1029.1999999999998</ele><time>2026-05-03T08:18:36Z</time></trkpt><trkpt lat="42.133059471925144" lon="-3.5733640311676704"><ele>1028.6</ele><time>2026-05-03T08:18:37Z</time></trkpt><trkpt lat="42.13299551045256" lon="-3.5732434829736417"><ele>1028.0</ele><time>2026-05-03T08:18:38Z</time></trkpt><trkpt lat="42.13293381416345" lon="-3.57312116032212"><ele>1028.0</ele><time>2026-05-03T08:18:39Z</time></trkpt><trkpt lat="42.132870821787954" lon="-3.572992722279826"><ele>1028.0</ele><time>2026-05-03T08:18:40Z</time></trkpt><trkpt lat="42.13281081978643" lon="-3.572865886740415"><ele>1028.0</ele><time>2026-05-03T08:18:41Z</time></trkpt><trkpt lat="42.132750237608185" lon="-3.57273656424363"><ele>1028.0</ele><time>2026-05-03T08:18:42Z</time></trkpt><trkpt lat="42.13269014112619" lon="-3.57260628460851"><ele>1028.5</ele><time>2026-05-03T08:18:43Z</time></trkpt><trkpt lat="42.132633111931035" lon="-3.572475819283323"><ele>1029.0</ele><time>2026-05-03T08:18:44Z</time></trkpt><trkpt lat="42.13257536480834" lon="-3.5723419381030475"><ele>1029.5</ele><time>2026-05-03T08:18:45Z</time></trkpt><trkpt lat="42.13252053635749" lon="-3.5722088704955364"><ele>1030.0</ele><time>2026-05-03T08:18:46Z</time></trkpt><trkpt lat="42.13246614742062" lon="-3.572077214983117"><ele>1030.0</ele><time>2026-05-03T08:18:47Z</time></trkpt><trkpt lat="42.13241090785141" lon="-3.571945287729874"><ele>1030.0</ele><time>2026-05-03T08:18:48Z</time></trkpt><trkpt lat="42.1323563267805" lon="-3.5718159269062877"><ele>1030.0</ele><time>2026-05-03T08:18:49Z</time></trkpt><trkpt lat="42.13230365952741" lon="-3.5716891895038922"><ele>1030.0</ele><time>2026-05-03T08:18:50Z</time></trkpt><trkpt lat="42.132248650467446" lon="-3.5715623582882197"><ele>1030.0</ele><time>2026-05-03T08:18:51Z</time></trkpt><trkpt lat="42.132197181398475" lon="-3.571433663143186"><ele>1029.5</ele><time>2026-05-03T08:18:52Z</time></trkpt><trkpt lat="42.13214263176216" lon="-3.5713037792866404"><ele>1029.0</ele><time>2026-05-03T08:18:53Z</time></trkpt><trkpt lat="42.13210980800362" lon="-3.5710812558872034"><ele>1028.5</ele><time>2026-05-03T08:18:54Z</time></trkpt><trkpt lat="42.132036664523554" lon="-3.5710486435633744"><ele>1028.0</ele><time>2026-05-03T08:18:55Z</time></trkpt><trkpt lat="42.13198022041457" lon="-3.5709207816453143"><ele>1027.8</ele><time>2026-05-03T08:18:56Z</time></trkpt><trkpt lat="42.131924781516275" lon="-3.570791900017109"><ele>1027.6</ele><time>2026-05-03T08:18:57Z</time></trkpt><trkpt lat="42.1318720141497" lon="-3.5706634519069542"><ele>1027.4</ele><time>2026-05-03T08:18:58Z</time></trkpt><trkpt lat="42.13181784495955" lon="-3.5705326590174282"><ele>1027.2</ele><time>2026-05-03T08:18:59Z</time></trkpt><trkpt lat="42.1317627601402" lon="-3.570394013574422"><ele>1027.0</ele><time>2026-05-03T08:19:00Z</time></trkpt><trkpt lat="42.131708759969285" lon="-3.570259593647912"><ele>1026.75</ele><time>2026-05-03T08:19:01Z</time></trkpt><trkpt lat="42.13165274630198" lon="-3.5701282084896473"><ele>1026.5</ele><time>2026-05-03T08:19:02Z</time></trkpt><trkpt lat="42.131595458220175" lon="-3.569991228066514"><ele>1026.25</ele><time>2026-05-03T08:19:03Z</time></trkpt><trkpt lat="42.131539527495036" lon="-3.569855065908348"><ele>1026.0</ele><time>2026-05-03T08:19:04Z</time></trkpt><trkpt lat="42.131486472591305" lon="-3.569723055896204"><ele>1026.0</ele><time>2026-05-03T08:19:05Z</time></trkpt><trkpt lat="42.131428798193085" lon="-3.5695870911897725"><ele>1026.0</ele><time>2026-05-03T08:19:06Z</time></trkpt><trkpt lat="42.13137467008055" lon="-3.569455843170371"><ele>1026.0</ele><time>2026-05-03T08:19:07Z</time></trkpt><trkpt lat="42.131320797438555" lon="-3.569327516367839"><ele>1026.0</ele><time>2026-05-03T08:19:08Z</time></trkpt><trkpt lat="42.13126812658556" lon="-3.5692024065782313"><ele>1026.0</ele><time>2026-05-03T08:19:09Z</time></trkpt><trkpt lat="42.1312156627741" lon="-3.5690778503665666"><ele>1027.0</ele><time>2026-05-03T08:19:10Z</time></trkpt><trkpt lat="42.13116721987909" lon="-3.5689578991442525"><ele>1028.0</ele><time>2026-05-03T08:19:11Z</time></trkpt><trkpt lat="42.131120378913685" lon="-3.5688391035759666"><ele>1029.0</ele><time>2026-05-03T08:19:12Z</time></trkpt><trkpt lat="42.131072917018614" lon="-3.568724315638575"><ele>1030.0</ele><time>2026-05-03T08:19:13Z</time></trkpt><trkpt lat="42.131024963748914" lon="-3.5686087788130676"><ele>1031.0</ele><time>2026-05-03T08:19:14Z</time></trkpt><trkpt lat="42.13097595172898" lon="-3.5684908823443853"><ele>1031.2</ele><time>2026-05-03T08:19:15Z</time></trkpt><trkpt lat="42.130929064286136" lon="-3.5683772624041947"><ele>1031.3999999999999</ele><time>2026-05-03T08:19:16Z</time></trkpt><trkpt lat="42.13088276190069" lon="-3.5682634199779915"><ele>1031.6</ele><time>2026-05-03T08:19:17Z</time></trkpt><trkpt lat="42.13083745637787" lon="-3.5681509645591394"><ele>1031.8</ele><time>2026-05-03T08:19:18Z</time></trkpt><trkpt lat="42.13078774075953" lon="-3.5680398079964006"><ele>1032.0</ele><time>2026-05-03T08:19:19Z</time></trkpt><trkpt lat="42.1307307071596" lon="-3.5679320337170206"><ele>1031.8</ele><time>2026-05-03T08:19:20Z</time></trkpt><trkpt lat="42.13066810964163" lon="-3.567825804104961"><ele>1031.6</ele><time>2026-05-03T08:19:21Z</time></trkpt><trkpt lat="42.13060263254979" lon="-3.567717778946774"><ele>1031.3999999999999</ele><time>2026-05-03T08:19:22Z</time></trkpt><trkpt lat="42.130526785282896" lon="-3.5676135293366573"><ele>1031.2</ele><time>2026-05-03T08:19:23Z</time></trkpt><trkpt lat="42.13044059524995" lon="-3.5675140996943555"><ele>1031.0</ele><time>2026-05-03T08:19:24Z</time></trkpt><trkpt lat="42.13035316895825" lon="-3.5674252628917276"><ele>1031.0</ele><time>2026-05-03T08:19:25Z</time></trkpt><trkpt lat="42.13026625433757" lon="-3.5673336769796467"><ele>1031.0</ele><time>2026-05-03T08:19:26Z</time></trkpt><trkpt lat="42.13016899707655" lon="-3.5672398551715108"><ele>1031.0</ele><time>2026-05-03T08:19:27Z</time></trkpt><trkpt lat="42.13008587662143" lon="-3.567143796775687"><ele>1031.0</ele><time>2026-05-03T08:19:28Z</time></trkpt><trkpt lat="42.13000617632239" lon="-3.56705671840276"><ele>1031.0</ele><time>2026-05-03T08:19:29Z</time></trkpt><trkpt lat="42.12992905217125" lon="-3.566978429505073"><ele>1029.5</ele><time>2026-05-03T08:19:30Z</time></trkpt><trkpt lat="42.12987026713511" lon="-3.5669310044297777"><ele>1028.0</ele><time>2026-05-03T08:19:31Z</time></trkpt><trkpt lat="42.1298093354507" lon="-3.5668334014793226"><ele>1026.5</ele><time>2026-05-03T08:19:32Z</time></trkpt><trkpt lat="42.12967353698286" lon="-3.5666755407129513"><ele>1025.0</ele><time>2026-05-03T08:19:33Z</time></trkpt><trkpt lat="42.12958930890424" lon="-3.5665744295821065"><ele>1025.0</ele><time>2026-05-03T08:19:34Z</time></trkpt><trkpt lat="42.12951336130811" lon="-3.566478208704928"><ele>1025.0</ele><time>2026-05-03T08:19:35Z</time></trkpt><trkpt lat="42.12942779960847" lon="-3.5663575989407805"><ele>1025.0</ele><time>2026-05-03T08:19:36Z</time></trkpt><trkpt lat="42.12936606223424" lon="-3.5662558771502884"><ele>1025.0</ele><time>2026-05-03T08:19:37Z</time></trkpt><trkpt lat="42.129291051999466" lon="-3.5661541683627758"><ele>1025.0</ele><time>2026-05-03T08:19:38Z</time></trkpt><trkpt lat="42.12922018434554" lon="-3.566045263640219"><ele>1024.8</ele><time>2026-05-03T08:19:39Z</time></trkpt><trkpt lat="42.12915471210051" lon="-3.5659291665285733"><ele>1024.6</ele><time>2026-05-03T08:19:40Z</time></trkpt><trkpt lat="42.1290950559023" lon="-3.565806657247359"><ele>1024.4</ele><time>2026-05-03T08:19:41Z</time></trkpt><trkpt lat="42.12904119888783" lon="-3.5656843500325293"><ele>1024.2</ele><time>2026-05-03T08:19:42Z</time></trkpt><trkpt lat="42.12898954863984" lon="-3.5655608592157617"><ele>1024.0</ele><time>2026-05-03T08:19:43Z</time></trkpt><trkpt lat="42.12893713403138" lon="-3.565433741162507"><ele>1023.8000000000001</ele><time>2026-05-03T08:19:44Z</time></trkpt><trkpt lat="42.128892594453646" lon="-3.565305196600517"><ele>1023.6000000000001</ele><time>2026-05-03T08:19:45Z</time></trkpt><trkpt lat="42.128850688689695" lon="-3.5651692589695982"><ele>1023.4</ele><time>2026-05-03T08:19:46Z</time></trkpt><trkpt lat="42.12881431060988" lon="-3.5650301041827768"><ele>1023.2</ele><time>2026-05-03T08:19:47Z</time></trkpt><trkpt lat="42.1287868178215" lon="-3.564888781540556"><ele>1023.0</ele><time>2026-05-03T08:19:48Z</time></trkpt><trkpt lat="42.128758165108955" lon="-3.564745074947903"><ele>1023.0</ele><time>2026-05-03T08:19:49Z</time></trkpt><trkpt lat="42.12873268436023" lon="-3.564603414934307"><ele>1023.0</ele><time>2026-05-03T08:19:50Z</time></trkpt><trkpt lat="42.12870970421305" lon="-3.5644620476395796"><ele>1023.0</ele><time>2026-05-03T08:19:51Z</time></trkpt><trkpt lat="42.128686388133346" lon="-3.564319485298691"><ele>1023.0</ele><time>2026-05-03T08:19:52Z</time></trkpt><trkpt lat="42.128663834765725" lon="-3.564178107599146"><ele>1023.0</ele><time>2026-05-03T08:19:53Z</time></trkpt><trkpt lat="42.12864201332553" lon="-3.564033739583259"><ele>1023.0</ele><time>2026-05-03T08:19:54Z</time></trkpt><trkpt lat="42.12862018595756" lon="-3.5638910768174106"><ele>1023.0</ele><time>2026-05-03T08:19:55Z</time></trkpt><trkpt lat="42.12859917101684" lon="-3.563748099264553"><ele>1023.0</ele><time>2026-05-03T08:19:56Z</time></trkpt><trkpt lat="42.128578264544224" lon="-3.5636045230514646"><ele>1023.0</ele><time>2026-05-03T08:19:57Z</time></trkpt><trkpt lat="42.1285555766385" lon="-3.563460091485428"><ele>1023.0</ele><time>2026-05-03T08:19:58Z</time></trkpt><trkpt lat="42.128534691445736" lon="-3.563316007995684"><ele>1023.0</ele><time>2026-05-03T08:19:59Z</time></trkpt><trkpt lat="42.12851188218444" lon="-3.5631714585125702"><ele>1023.0</ele><time>2026-05-03T08:20:00Z</time></trkpt><trkpt lat="42.1284931133776" lon="-3.563025013458197"><ele>1023.0</ele><time>2026-05-03T08:20:01Z</time></trkpt><trkpt lat="42.12847190164673" lon="-3.562881157613269"><ele>1023.0</ele><time>2026-05-03T08:20:02Z</time></trkpt><trkpt lat="42.12844943446738" lon="-3.5627376504259325"><ele>1023.0</ele><time>2026-05-03T08:20:03Z</time></trkpt><trkpt lat="42.12842973594651" lon="-3.5625919342376817"><ele>1023.0</ele><time>2026-05-03T08:20:04Z</time></trkpt><trkpt lat="42.12840913500688" lon="-3.562444917509606"><ele>1023.0</ele><time>2026-05-03T08:20:05Z</time></trkpt><trkpt lat="42.12838487536358" lon="-3.562301693917659"><ele>1023.0</ele><time>2026-05-03T08:20:06Z</time></trkpt><trkpt lat="42.12836406286369" lon="-3.562156960631963"><ele>1023.0</ele><time>2026-05-03T08:20:07Z</time></trkpt><trkpt lat="42.128344507561" lon="-3.562015499907896"><ele>1023.0</ele><time>2026-05-03T08:20:08Z</time></trkpt><trkpt lat="42.128324859165964" lon="-3.5618721766740866"><ele>1023.2</ele><time>2026-05-03T08:20:09Z</time></trkpt><trkpt lat="42.12830373413168" lon="-3.5617288361582804"><ele>1023.4</ele><time>2026-05-03T08:20:10Z</time></trkpt><trkpt lat="42.128284028711455" lon="-3.561584341482002"><ele>1023.6000000000001</ele><time>2026-05-03T08:20:11Z</time></trkpt><trkpt lat="42.12826264094062" lon="-3.5614379632519957"><ele>1023.8000000000001</ele><time>2026-05-03T08:20:12Z</time></trkpt><trkpt lat="42.12824022916684" lon="-3.561292022483734"><ele>1024.0</ele><time>2026-05-03T08:20:13Z</time></trkpt><trkpt lat="42.1282194129501" lon="-3.5611498039150997"><ele>1024.6000000000001</ele><time>2026-05-03T08:20:14Z</time></trkpt><trkpt lat="42.12819828571972" lon="-3.5610155715192717"><ele>1025.2</ele><time>2026-05-03T08:20:15Z</time></trkpt><trkpt lat="42.12817645528158" lon="-3.560882596605163"><ele>1025.8000000000002</ele><time>2026-05-03T08:20:16Z</time></trkpt><trkpt lat="42.12815677279359" lon="-3.560751389936569"><ele>1026.4</ele><time>2026-05-03T08:20:17Z</time></trkpt><trkpt lat="42.12813671316449" lon="-3.5606185446338237"><ele>1027.0</ele><time>2026-05-03T08:20:18Z</time></trkpt><trkpt lat="42.12811673310478" lon="-3.5604895362631592"><ele>1027.0</ele><time>2026-05-03T08:20:19Z</time></trkpt><trkpt lat="42.12809853553914" lon="-3.560360991988461"><ele>1027.0</ele><time>2026-05-03T08:20:20Z</time></trkpt><trkpt lat="42.12807710749262" lon="-3.5602268120968628"><ele>1027.0</ele><time>2026-05-03T08:20:21Z</time></trkpt><trkpt lat="42.12805553262913" lon="-3.5600920323245164"><ele>1027.0</ele><time>2026-05-03T08:20:22Z</time></trkpt><trkpt lat="42.12803570612098" lon="-3.559956106839724"><ele>1027.0</ele><time>2026-05-03T08:20:23Z</time></trkpt><trkpt lat="42.12801395537212" lon="-3.5598186119942317"><ele>1027.0</ele><time>2026-05-03T08:20:24Z</time></trkpt><trkpt lat="42.127991495230354" lon="-3.5596825437164274"><ele>1027.0</ele><time>2026-05-03T08:20:25Z</time></trkpt><trkpt lat="42.12796709866454" lon="-3.5595475721829626"><ele>1027.0</ele><time>2026-05-03T08:20:26Z</time></trkpt><trkpt lat="42.127942766619114" lon="-3.559413706903443"><ele>1027.0</ele><time>2026-05-03T08:20:27Z</time></trkpt><trkpt lat="42.1279155618504" lon="-3.5592799548411262"><ele>1027.0</ele><time>2026-05-03T08:20:28Z</time></trkpt><trkpt lat="42.12789074230197" lon="-3.559140841228454"><ele>1027.6</ele><time>2026-05-03T08:20:29Z</time></trkpt><trkpt lat="42.127866214907066" lon="-3.559005171610676"><ele>1028.2</ele><time>2026-05-03T08:20:30Z</time></trkpt><trkpt lat="42.127841129158455" lon="-3.558869631523429"><ele>1028.8</ele><time>2026-05-03T08:20:31Z</time></trkpt><trkpt lat="42.127812486815266" lon="-3.5587361060902185"><ele>1029.4</ele><time>2026-05-03T08:20:32Z</time></trkpt><trkpt lat="42.12778393238872" lon="-3.558601779834547"><ele>1030.0</ele><time>2026-05-03T08:20:33Z</time></trkpt><trkpt lat="42.12775564422708" lon="-3.558467295998918"><ele>1030.6</ele><time>2026-05-03T08:20:34Z</time></trkpt><trkpt lat="42.127726172403726" lon="-3.5583350804413287"><ele>1031.2</ele><time>2026-05-03T08:20:35Z</time></trkpt><trkpt lat="42.127694910095755" lon="-3.5582022639002053"><ele>1031.8</ele><time>2026-05-03T08:20:36Z</time></trkpt><trkpt lat="42.12766644402851" lon="-3.5580668585912045"><ele>1032.4</ele><time>2026-05-03T08:20:37Z</time></trkpt><trkpt lat="42.127635824572174" lon="-3.557934118553789"><ele>1033.0</ele><time>2026-05-03T08:20:38Z</time></trkpt><trkpt lat="42.12760681538151" lon="-3.557801460975058"><ele>1033.0</ele><time>2026-05-03T08:20:39Z</time></trkpt><trkpt lat="42.127575666547976" lon="-3.5576704820826945"><ele>1033.0</ele><time>2026-05-03T08:20:40Z</time></trkpt><trkpt lat="42.12754144053378" lon="-3.5575412993227813"><ele>1033.0</ele><time>2026-05-03T08:20:41Z</time></trkpt><trkpt lat="42.1275092769641" lon="-3.557411050741504"><ele>1033.0</ele><time>2026-05-03T08:20:42Z</time></trkpt><trkpt lat="42.127476251837024" lon="-3.5572797036272066"><ele>1033.0</ele><time>2026-05-03T08:20:43Z</time></trkpt><trkpt lat="42.12744246195365" lon="-3.5571480656327763"><ele>1033.0</ele><time>2026-05-03T08:20:44Z</time></trkpt><trkpt lat="42.12740559793666" lon="-3.5570188755548346"><ele>1033.0</ele><time>2026-05-03T08:20:45Z</time></trkpt><trkpt lat="42.12737050110247" lon="-3.556890231861337"><ele>1033.0</ele><time>2026-05-03T08:20:46Z</time></trkpt><trkpt lat="42.12733553800121" lon="-3.5567575781662204"><ele>1033.0</ele><time>2026-05-03T08:20:47Z</time></trkpt><trkpt lat="42.12729828946923" lon="-3.5566311154854318"><ele>1033.0</ele><time>2026-05-03T08:20:48Z</time></trkpt><trkpt lat="42.127261044116" lon="-3.5565025712129295"><ele>1033.0</ele><time>2026-05-03T08:20:49Z</time></trkpt><trkpt lat="42.12722648186358" lon="-3.5563696973715717"><ele>1033.0</ele><time>2026-05-03T08:20:50Z</time></trkpt><trkpt lat="42.12718986790883" lon="-3.5562411484837413"><ele>1033.0</ele><time>2026-05-03T08:20:51Z</time></trkpt><trkpt lat="42.12715045474941" lon="-3.556113889415494"><ele>1033.0</ele><time>2026-05-03T08:20:52Z</time></trkpt><trkpt lat="42.12711387938083" lon="-3.555987015334517"><ele>1033.0</ele><time>2026-05-03T08:20:53Z</time></trkpt><trkpt lat="42.12707691181362" lon="-3.5558577003098444"><ele>1033.4</ele><time>2026-05-03T08:20:54Z</time></trkpt><trkpt lat="42.127041942130575" lon="-3.555726421050085"><ele>1033.8</ele><time>2026-05-03T08:20:55Z</time></trkpt><trkpt lat="42.1270033883121" lon="-3.555599787676866"><ele>1034.2</ele><time>2026-05-03T08:20:56Z</time></trkpt><trkpt lat="42.126966969896834" lon="-3.555472629480506"><ele>1034.6</ele><time>2026-05-03T08:20:57Z</time></trkpt><trkpt lat="42.126928807431845" lon="-3.5553448954386897"><ele>1035.0</ele><time>2026-05-03T08:20:58Z</time></trkpt><trkpt lat="42.12689208023734" lon="-3.5552170415146174"><ele>1035.0</ele><time>2026-05-03T08:20:59Z</time></trkpt><trkpt lat="42.126854601954705" lon="-3.5550889035939774"><ele>1035.0</ele><time>2026-05-03T08:21:00Z</time></trkpt><trkpt lat="42.12681646391086" lon="-3.5549628019570823"><ele>1035.0</ele><time>2026-05-03T08:21:01Z</time></trkpt><trkpt lat="42.12678024349207" lon="-3.5548362481008176"><ele>1035.0</ele><time>2026-05-03T08:21:02Z</time></trkpt><trkpt lat="42.126742771663764" lon="-3.554709158423016"><ele>1035.0</ele><time>2026-05-03T08:21:03Z</time></trkpt><trkpt lat="42.12670412253813" lon="-3.5545863944594394"><ele>1035.2</ele><time>2026-05-03T08:21:04Z</time></trkpt><trkpt lat="42.12666734482198" lon="-3.554459224547714"><ele>1035.4</ele><time>2026-05-03T08:21:05Z</time></trkpt><trkpt lat="42.12662834086845" lon="-3.5543326435169753"><ele>1035.6</ele><time>2026-05-03T08:21:06Z</time></trkpt><trkpt lat="42.12659053250949" lon="-3.5542078871988734"><ele>1035.8</ele><time>2026-05-03T08:21:07Z</time></trkpt><trkpt lat="42.12655024881505" lon="-3.5540846115943285"><ele>1036.0</ele><time>2026-05-03T08:21:08Z</time></trkpt><trkpt lat="42.12650972992381" lon="-3.553958631286114"><ele>1036.0</ele><time>2026-05-03T08:21:09Z</time></trkpt><trkpt lat="42.126469864854755" lon="-3.5538367025774513"><ele>1036.0</ele><time>2026-05-03T08:21:10Z</time></trkpt><trkpt lat="42.12643040466119" lon="-3.553715406777418"><ele>1036.0</ele><time>2026-05-03T08:21:11Z</time></trkpt><trkpt lat="42.12639121192024" lon="-3.553591011700678"><ele>1036.0</ele><time>2026-05-03T08:21:12Z</time></trkpt><trkpt lat="42.12634954608688" lon="-3.553472045756314"><ele>1036.0</ele><time>2026-05-03T08:21:13Z</time></trkpt><trkpt lat="42.12630976078507" lon="-3.5533541679685827"><ele>1036.0</ele><time>2026-05-03T08:21:14Z</time></trkpt><trkpt lat="42.12626622496019" lon="-3.5532308565516715"><ele>1036.0</ele><time>2026-05-03T08:21:15Z</time></trkpt><trkpt lat="42.12622393519942" lon="-3.5531103605157246"><ele>1036.0</ele><time>2026-05-03T08:21:16Z</time></trkpt><trkpt lat="42.1261810195781" lon="-3.5530026849532836"><ele>1036.0</ele><time>2026-05-03T08:21:17Z</time></trkpt><trkpt lat="42.12615057890598" lon="-3.5529029044192613"><ele>1036.0</ele><time>2026-05-03T08:21:18Z</time></trkpt><trkpt lat="42.12611445242984" lon="-3.5528093866405928"><ele>1036.0</ele><time>2026-05-03T08:21:19Z</time></trkpt><trkpt lat="42.12607852606541" lon="-3.5527245793370157"><ele>1036.1666666666665</ele><time>2026-05-03T08:21:20Z</time></trkpt><trkpt lat="42.12604790946252" lon="-3.5526482879312944"><ele>1036.3333333333333</ele><time>2026-05-03T08:21:21Z</time></trkpt><trkpt lat="42.12600228897956" lon="-3.5525255033129866"><ele>1036.5</ele><time>2026-05-03T08:21:23Z</time></trkpt><trkpt lat="42.125966808903755" lon="-3.5524250561575803"><ele>1036.6666666666667</ele><time>2026-05-03T08:35:40Z</time></trkpt><trkpt lat="42.1259242563469" lon="-3.552322299182719"><ele>1036.8333333333335</ele><time>2026-05-03T08:35:45Z</time></trkpt><trkpt lat="42.12589002105364" lon="-3.5522441309202413"><ele>1037.0</ele><time>2026-05-03T08:35:47Z</time></trkpt><trkpt lat="42.125843164814334" lon="-3.5521118839008214"><ele>1036.857142857143</ele><time>2026-05-03T08:35:49Z</time></trkpt><trkpt lat="42.12581351833346" lon="-3.5520364059228613"><ele>1036.7142857142858</ele><time>2026-05-03T08:35:50Z</time></trkpt><trkpt lat="42.1257842265574" lon="-3.5519601381669186"><ele>1036.5714285714284</ele><time>2026-05-03T08:35:51Z</time></trkpt><trkpt lat="42.12575262593001" lon="-3.5518800522664433"><ele>1036.4285714285716</ele><time>2026-05-03T08:35:52Z</time></trkpt><trkpt lat="42.125719699740685" lon="-3.551795933875525"><ele>1036.2857142857142</ele><time>2026-05-03T08:35:53Z</time></trkpt><trkpt lat="42.12568482086869" lon="-3.55170674877768"><ele>1036.142857142857</ele><time>2026-05-03T08:35:54Z</time></trkpt><trkpt lat="42.125647246397726" lon="-3.551614303182104"><ele>1036.0</ele><time>2026-05-03T08:35:55Z</time></trkpt><trkpt lat="42.12560792454278" lon="-3.5515216450964524"><ele>1036.3333333333333</ele><time>2026-05-03T08:35:56Z</time></trkpt><trkpt lat="42.12556729662541" lon="-3.5514280535172134"><ele>1036.6666666666665</ele><time>2026-05-03T08:35:57Z</time></trkpt><trkpt lat="42.12552511284505" lon="-3.5513326561816547"><ele>1037.0</ele><time>2026-05-03T08:35:58Z</time></trkpt><trkpt lat="42.12548045868118" lon="-3.5512353649611383"><ele>1037.3333333333333</ele><time>2026-05-03T08:35:59Z</time></trkpt><trkpt lat="42.12543576544398" lon="-3.551137974986922"><ele>1037.6666666666667</ele><time>2026-05-03T08:36:00Z</time></trkpt><trkpt lat="42.12539085793031" lon="-3.551039826637285"><ele>1038.0</ele><time>2026-05-03T08:36:01Z</time></trkpt><trkpt lat="42.12534495377948" lon="-3.550938275518297"><ele>1038.0</ele><time>2026-05-03T08:36:02Z</time></trkpt><trkpt lat="42.125295562300735" lon="-3.5508384014785705"><ele>1038.0</ele><time>2026-05-03T08:36:03Z</time></trkpt><trkpt lat="42.125247021677126" lon="-3.5507369146676324"><ele>1038.0</ele><time>2026-05-03T08:36:04Z</time></trkpt><trkpt lat="42.125200822001325" lon="-3.550634465287844"><ele>1038.0</ele><time>2026-05-03T08:36:05Z</time></trkpt><trkpt lat="42.12515534002508" lon="-3.5505327880662905"><ele>1038.0</ele><time>2026-05-03T08:36:06Z</time></trkpt><trkpt lat="42.125107892856654" lon="-3.5504309293458483"><ele>1038.0</ele><time>2026-05-03T08:36:07Z</time></trkpt><trkpt lat="42.125058830241024" lon="-3.5503263100101945"><ele>1038.4</ele><time>2026-05-03T08:36:08Z</time></trkpt><trkpt lat="42.12501186768248" lon="-3.550221011126763"><ele>1038.8</ele><time>2026-05-03T08:36:09Z</time></trkpt><trkpt lat="42.12495992289997" lon="-3.550114053529688"><ele>1039.2</ele><time>2026-05-03T08:36:10Z</time></trkpt><trkpt lat="42.12491086779851" lon="-3.550008204638421"><ele>1039.6</ele><time>2026-05-03T08:36:11Z</time></trkpt><trkpt lat="42.1248602591744" lon="-3.549897323914994"><ele>1040.0</ele><time>2026-05-03T08:36:12Z</time></trkpt><trkpt lat="42.1248094654982" lon="-3.5497926980776637"><ele>1040.6</ele><time>2026-05-03T08:36:13Z</time></trkpt><trkpt lat="42.12475919292717" lon="-3.549684923455492"><ele>1041.2</ele><time>2026-05-03T08:36:14Z</time></trkpt><trkpt lat="42.12470961159547" lon="-3.5495750253620058"><ele>1041.8</ele><time>2026-05-03T08:36:15Z</time></trkpt><trkpt lat="42.1246582219639" lon="-3.549461080407155"><ele>1042.4</ele><time>2026-05-03T08:36:16Z</time></trkpt><trkpt lat="42.12460599850597" lon="-3.5493487392404237"><ele>1043.0</ele><time>2026-05-03T08:36:17Z</time></trkpt><trkpt lat="42.124553468271195" lon="-3.5492377964803814"><ele>1043.0</ele><time>2026-05-03T08:36:18Z</time></trkpt><trkpt lat="42.12450307570104" lon="-3.549125639767874"><ele>1043.0</ele><time>2026-05-03T08:36:19Z</time></trkpt><trkpt lat="42.124452475244716" lon="-3.549014769205927"><ele>1043.0</ele><time>2026-05-03T08:36:20Z</time></trkpt><trkpt lat="42.12439994967144" lon="-3.5489037360371323"><ele>1043.0</ele><time>2026-05-03T08:36:21Z</time></trkpt><trkpt lat="42.124347830109045" lon="-3.548795357281714"><ele>1043.0</ele><time>2026-05-03T08:36:22Z</time></trkpt><trkpt lat="42.12429613711684" lon="-3.548683435416798"><ele>1042.8</ele><time>2026-05-03T08:36:23Z</time></trkpt><trkpt lat="42.12424303005528" lon="-3.548569520865554"><ele>1042.6</ele><time>2026-05-03T08:36:24Z</time></trkpt><trkpt lat="42.12418984000312" lon="-3.548456005166101"><ele>1042.4</ele><time>2026-05-03T08:36:25Z</time></trkpt><trkpt lat="42.12413770876266" lon="-3.5483428685723495"><ele>1042.2</ele><time>2026-05-03T08:36:26Z</time></trkpt><trkpt lat="42.12408464997417" lon="-3.5482266207427804"><ele>1042.0</ele><time>2026-05-03T08:36:27Z</time></trkpt><trkpt lat="42.12403093274066" lon="-3.5481152402630136"><ele>1042.6</ele><time>2026-05-03T08:36:28Z</time></trkpt><trkpt lat="42.1239801528983" lon="-3.5480050286951115"><ele>1043.2</ele><time>2026-05-03T08:36:29Z</time></trkpt><trkpt lat="42.123927334965124" lon="-3.5478931273202963"><ele>1043.8</ele><time>2026-05-03T08:36:30Z</time></trkpt><trkpt lat="42.12387590949516" lon="-3.5477818974620665"><ele>1044.4</ele><time>2026-05-03T08:36:31Z</time></trkpt><trkpt lat="42.12382314786029" lon="-3.547668820312394"><ele>1045.0</ele><time>2026-05-03T08:36:32Z</time></trkpt><trkpt lat="42.12377109856664" lon="-3.547558379414086"><ele>1045.2</ele><time>2026-05-03T08:36:33Z</time></trkpt><trkpt lat="42.12372052599424" lon="-3.547448720304706"><ele>1045.4</ele><time>2026-05-03T08:36:34Z</time></trkpt><trkpt lat="42.12367007604464" lon="-3.547337229249337"><ele>1045.6</ele><time>2026-05-03T08:36:35Z</time></trkpt><trkpt lat="42.12361932919915" lon="-3.5472252322525377"><ele>1045.8</ele><time>2026-05-03T08:36:36Z</time></trkpt><trkpt lat="42.12356783352459" lon="-3.547112512592436"><ele>1046.0</ele><time>2026-05-03T08:36:37Z</time></trkpt><trkpt lat="42.12351716127182" lon="-3.54699951750794"><ele>1045.6</ele><time>2026-05-03T08:36:38Z</time></trkpt><trkpt lat="42.12346357699364" lon="-3.5468856617869986"><ele>1045.1999999999998</ele><time>2026-05-03T08:36:39Z</time></trkpt><trkpt lat="42.123411606693445" lon="-3.5467763511947172"><ele>1044.8000000000002</ele><time>2026-05-03T08:36:40Z</time></trkpt><trkpt lat="42.123359266428835" lon="-3.546663520757931"><ele>1044.4</ele><time>2026-05-03T08:36:41Z</time></trkpt><trkpt lat="42.123306242098316" lon="-3.5465513158255018"><ele>1044.0</ele><time>2026-05-03T08:36:42Z</time></trkpt><trkpt lat="42.12325245998865" lon="-3.5464393604756994"><ele>1044.6000000000001</ele><time>2026-05-03T08:36:43Z</time></trkpt><trkpt lat="42.123199794358634" lon="-3.5463263123898123"><ele>1045.2</ele><time>2026-05-03T08:36:44Z</time></trkpt><trkpt lat="42.123149918742065" lon="-3.5462123599682513"><ele>1045.8000000000002</ele><time>2026-05-03T08:36:45Z</time></trkpt><trkpt lat="42.12309896190858" lon="-3.546098664833746"><ele>1046.4</ele><time>2026-05-03T08:36:46Z</time></trkpt><trkpt lat="42.123047470853436" lon="-3.5459873887174953"><ele>1047.0</ele><time>2026-05-03T08:36:47Z</time></trkpt><trkpt lat="42.1229935454114" lon="-3.545875033815076"><ele>1047.0</ele><time>2026-05-03T08:36:48Z</time></trkpt><trkpt lat="42.122940791253626" lon="-3.545763743095978"><ele>1047.0</ele><time>2026-05-03T08:36:49Z</time></trkpt><trkpt lat="42.12288842991611" lon="-3.5456468559009395"><ele>1047.0</ele><time>2026-05-03T08:36:50Z</time></trkpt><trkpt lat="42.12283386639039" lon="-3.545531039374467"><ele>1047.0</ele><time>2026-05-03T08:36:51Z</time></trkpt><trkpt lat="42.12277826032427" lon="-3.5454149276027445"><ele>1047.0</ele><time>2026-05-03T08:36:52Z</time></trkpt><trkpt lat="42.12272216404474" lon="-3.5452992746300733"><ele>1046.8</ele><time>2026-05-03T08:36:53Z</time></trkpt><trkpt lat="42.1226684666186" lon="-3.545183778408433"><ele>1046.6</ele><time>2026-05-03T08:36:54Z</time></trkpt><trkpt lat="42.122614907452196" lon="-3.5450655777640834"><ele>1046.3999999999999</ele><time>2026-05-03T08:36:55Z</time></trkpt><trkpt lat="42.12256012229694" lon="-3.5449492315095643"><ele>1046.2</ele><time>2026-05-03T08:36:56Z</time></trkpt><trkpt lat="42.122507060025896" lon="-3.544834923296641"><ele>1046.0</ele><time>2026-05-03T08:36:57Z</time></trkpt><trkpt lat="42.12245183058802" lon="-3.5447186030614"><ele>1046.0</ele><time>2026-05-03T08:36:58Z</time></trkpt><trkpt lat="42.122398230642126" lon="-3.544605315888964"><ele>1046.0</ele><time>2026-05-03T08:36:59Z</time></trkpt><trkpt lat="42.12234630926642" lon="-3.5444902034757053"><ele>1046.0</ele><time>2026-05-03T08:37:00Z</time></trkpt><trkpt lat="42.122291758493134" lon="-3.5443738494607766"><ele>1046.0</ele><time>2026-05-03T08:37:01Z</time></trkpt><trkpt lat="42.12223863363162" lon="-3.5442583408101993"><ele>1046.0</ele><time>2026-05-03T08:37:02Z</time></trkpt><trkpt lat="42.12218507650996" lon="-3.5441434700945833"><ele>1046.3999999999999</ele><time>2026-05-03T08:37:03Z</time></trkpt><trkpt lat="42.12213209371097" lon="-3.544026787719119"><ele>1046.8</ele><time>2026-05-03T08:37:04Z</time></trkpt><trkpt lat="42.122079381589735" lon="-3.543910023156069"><ele>1047.1999999999998</ele><time>2026-05-03T08:37:05Z</time></trkpt><trkpt lat="42.12202728243971" lon="-3.5437945117260496"><ele>1047.6</ele><time>2026-05-03T08:37:06Z</time></trkpt><trkpt lat="42.12197441137815" lon="-3.543677796699599"><ele>1048.0</ele><time>2026-05-03T08:37:07Z</time></trkpt><trkpt lat="42.12191998468255" lon="-3.5435616722025247"><ele>1048.0</ele><time>2026-05-03T08:37:08Z</time></trkpt><trkpt lat="42.12186565256727" lon="-3.5434454621355354"><ele>1048.0</ele><time>2026-05-03T08:37:09Z</time></trkpt><trkpt lat="42.1218125423761" lon="-3.5433285448032925"><ele>1048.0</ele><time>2026-05-03T08:37:10Z</time></trkpt><trkpt lat="42.121759055622405" lon="-3.5432121992032695"><ele>1048.0</ele><time>2026-05-03T08:37:11Z</time></trkpt><trkpt lat="42.121706154810035" lon="-3.543097465110285"><ele>1048.0</ele><time>2026-05-03T08:37:12Z</time></trkpt><trkpt lat="42.121653514216796" lon="-3.542982273904373"><ele>1048.0</ele><time>2026-05-03T08:37:13Z</time></trkpt><trkpt lat="42.121600471567255" lon="-3.542867663949376"><ele>1048.0</ele><time>2026-05-03T08:37:14Z</time></trkpt><trkpt lat="42.12154867195277" lon="-3.5427531137739123"><ele>1048.0</ele><time>2026-05-03T08:37:15Z</time></trkpt><trkpt lat="42.12149530822468" lon="-3.542636964440317"><ele>1048.0</ele><time>2026-05-03T08:37:16Z</time></trkpt><trkpt lat="42.121440955707854" lon="-3.542522675391929"><ele>1048.0</ele><time>2026-05-03T08:37:17Z</time></trkpt><trkpt lat="42.121387769882304" lon="-3.5424081994198913"><ele>1048.4</ele><time>2026-05-03T08:37:18Z</time></trkpt><trkpt lat="42.12133364017605" lon="-3.5422947726186464"><ele>1048.8</ele><time>2026-05-03T08:37:19Z</time></trkpt><trkpt lat="42.12127778274348" lon="-3.5421813129505013"><ele>1049.2</ele><time>2026-05-03T08:37:20Z</time></trkpt><trkpt lat="42.12122397802264" lon="-3.542065961263997"><ele>1049.6</ele><time>2026-05-03T08:37:21Z</time></trkpt><trkpt lat="42.121170916172055" lon="-3.5419497170204854"><ele>1050.0</ele><time>2026-05-03T08:37:22Z</time></trkpt><trkpt lat="42.12111778235287" lon="-3.5418336206999568"><ele>1050.0</ele><time>2026-05-03T08:37:23Z</time></trkpt><trkpt lat="42.12106507750344" lon="-3.5417199807831627"><ele>1050.0</ele><time>2026-05-03T08:37:24Z</time></trkpt><trkpt lat="42.12101246352523" lon="-3.5416060745991667"><ele>1050.0</ele><time>2026-05-03T08:37:25Z</time></trkpt><trkpt lat="42.120959592434865" lon="-3.5414926966161993"><ele>1050.0</ele><time>2026-05-03T08:37:26Z</time></trkpt><trkpt lat="42.12090736115103" lon="-3.541379276521746"><ele>1050.0</ele><time>2026-05-03T08:37:27Z</time></trkpt><trkpt lat="42.120854453714244" lon="-3.541266220140601"><ele>1050.4</ele><time>2026-05-03T08:37:28Z</time></trkpt><trkpt lat="42.12080280293685" lon="-3.541153275475237"><ele>1050.8</ele><time>2026-05-03T08:37:29Z</time></trkpt><trkpt lat="42.12075224906349" lon="-3.541039541773281"><ele>1051.2</ele><time>2026-05-03T08:37:30Z</time></trkpt><trkpt lat="42.120700227199094" lon="-3.540926114865636"><ele>1051.6</ele><time>2026-05-03T08:37:31Z</time></trkpt><trkpt lat="42.12064787903731" lon="-3.5408135829509133"><ele>1052.0</ele><time>2026-05-03T08:37:32Z</time></trkpt><trkpt lat="42.12059580523253" lon="-3.540702211016122"><ele>1052.4</ele><time>2026-05-03T08:37:33Z</time></trkpt><trkpt lat="42.12054449423306" lon="-3.5405911809378847"><ele>1052.8000000000002</ele><time>2026-05-03T08:37:34Z</time></trkpt><trkpt lat="42.12049107623344" lon="-3.5404802018869908"><ele>1053.2</ele><time>2026-05-03T08:37:35Z</time></trkpt><trkpt lat="42.12043840376449" lon="-3.5403689334037685"><ele>1053.6000000000001</ele><time>2026-05-03T08:37:36Z</time></trkpt><trkpt lat="42.12038704693002" lon="-3.540258037896992"><ele>1054.0</ele><time>2026-05-03T08:37:37Z</time></trkpt><trkpt lat="42.12033502628827" lon="-3.5401463570163374"><ele>1054.0</ele><time>2026-05-03T08:37:38Z</time></trkpt><trkpt lat="42.12028133808268" lon="-3.5400342546878454"><ele>1054.0</ele><time>2026-05-03T08:37:39Z</time></trkpt><trkpt lat="42.12022962648409" lon="-3.5399231317572126"><ele>1054.0</ele><time>2026-05-03T08:37:40Z</time></trkpt><trkpt lat="42.120177518833714" lon="-3.5398096099861562"><ele>1054.0</ele><time>2026-05-03T08:37:41Z</time></trkpt><trkpt lat="42.12012530799007" lon="-3.5396971902090013"><ele>1054.0</ele><time>2026-05-03T08:37:42Z</time></trkpt><trkpt lat="42.12007359031554" lon="-3.53958364176429"><ele>1053.8</ele><time>2026-05-03T08:37:43Z</time></trkpt><trkpt lat="42.12002153647756" lon="-3.539471409866725"><ele>1053.6000000000001</ele><time>2026-05-03T08:37:44Z</time></trkpt><trkpt lat="42.11996786140316" lon="-3.5393557303465153"><ele>1053.4</ele><time>2026-05-03T08:37:45Z</time></trkpt><trkpt lat="42.11991360091021" lon="-3.5392398344029106"><ele>1053.2</ele><time>2026-05-03T08:37:46Z</time></trkpt><trkpt lat="42.119858569345844" lon="-3.539122411589596"><ele>1053.0</ele><time>2026-05-03T08:37:47Z</time></trkpt><trkpt lat="42.11980257714729" lon="-3.539003638327944"><ele>1053.4</ele><time>2026-05-03T08:37:48Z</time></trkpt><trkpt lat="42.119747199481225" lon="-3.53888602929499"><ele>1053.8</ele><time>2026-05-03T08:37:49Z</time></trkpt><trkpt lat="42.119691351283066" lon="-3.5387675271850627"><ele>1054.2</ele><time>2026-05-03T08:37:50Z</time></trkpt><trkpt lat="42.11963605976726" lon="-3.538648978297768"><ele>1054.6</ele><time>2026-05-03T08:37:51.001Z</time></trkpt><trkpt lat="42.1195815573328" lon="-3.538531429253839"><ele>1055.0</ele><time>2026-05-03T08:37:52.001Z</time></trkpt><trkpt lat="42.119527382139474" lon="-3.5384135410170146"><ele>1055.0</ele><time>2026-05-03T08:37:53.001Z</time></trkpt><trkpt lat="42.119472301244905" lon="-3.5382953673283524"><ele>1055.0</ele><time>2026-05-03T08:37:54.001Z</time></trkpt><trkpt lat="42.119417737574715" lon="-3.538176820347529"><ele>1055.0</ele><time>2026-05-03T08:37:55.001Z</time></trkpt><trkpt lat="42.11936236867084" lon="-3.538059427146596"><ele>1055.0</ele><time>2026-05-03T08:37:56.001Z</time></trkpt><trkpt lat="42.119308772867214" lon="-3.537941928145342"><ele>1055.0</ele><time>2026-05-03T08:37:57.001Z</time></trkpt><trkpt lat="42.119253787502046" lon="-3.537823116558765"><ele>1055.0</ele><time>2026-05-03T08:37:58.001Z</time></trkpt><trkpt lat="42.1191992922713" lon="-3.5377060739051625"><ele>1055.0</ele><time>2026-05-03T08:37:59.001Z</time></trkpt><trkpt lat="42.119144691337446" lon="-3.5375888041871963"><ele>1055.0</ele><time>2026-05-03T08:38:00.001Z</time></trkpt><trkpt lat="42.11908915539852" lon="-3.5374702419794"><ele>1055.0</ele><time>2026-05-03T08:38:01.001Z</time></trkpt><trkpt lat="42.11903402943453" lon="-3.5373521591255517"><ele>1055.0</ele><time>2026-05-03T08:38:02.001Z</time></trkpt><trkpt lat="42.1189784998997" lon="-3.5372335085768616"><ele>1055.0</ele><time>2026-05-03T08:38:03.001Z</time></trkpt><trkpt lat="42.11892429891287" lon="-3.537113843650128"><ele>1055.0</ele><time>2026-05-03T08:38:04.001Z</time></trkpt><trkpt lat="42.11887045493104" lon="-3.536995199836338"><ele>1055.0</ele><time>2026-05-03T08:38:05Z</time></trkpt><trkpt lat="42.118816479466155" lon="-3.5368774333451274"><ele>1055.0</ele><time>2026-05-03T08:38:06Z</time></trkpt><trkpt lat="42.11876257249786" lon="-3.5367602644763876"><ele>1055.0</ele><time>2026-05-03T08:38:07Z</time></trkpt><trkpt lat="42.11870830772383" lon="-3.53664333953529"><ele>1054.8</ele><time>2026-05-03T08:38:08Z</time></trkpt><trkpt lat="42.11865311925671" lon="-3.5365273108620796"><ele>1054.6</ele><time>2026-05-03T08:38:09Z</time></trkpt><trkpt lat="42.11859837449617" lon="-3.5364100224996187"><ele>1054.4</ele><time>2026-05-03T08:38:10Z</time></trkpt><trkpt lat="42.11854591476957" lon="-3.536293601370157"><ele>1054.2</ele><time>2026-05-03T08:38:11Z</time></trkpt><trkpt lat="42.11849167027186" lon="-3.5361783168902883"><ele>1054.0</ele><time>2026-05-03T08:38:12Z</time></trkpt><trkpt lat="42.11843755399208" lon="-3.5360624406458596"><ele>1054.4</ele><time>2026-05-03T08:38:13Z</time></trkpt><trkpt lat="42.11838384787823" lon="-3.535947642083738"><ele>1054.8000000000002</ele><time>2026-05-03T08:38:14Z</time></trkpt><trkpt lat="42.118328930190415" lon="-3.535832002247334"><ele>1055.1999999999998</ele><time>2026-05-03T08:38:15Z</time></trkpt><trkpt lat="42.11827508288528" lon="-3.5357169947477995"><ele>1055.6</ele><time>2026-05-03T08:38:16Z</time></trkpt><trkpt lat="42.11822182564093" lon="-3.5356007002212224"><ele>1056.0</ele><time>2026-05-03T08:38:17Z</time></trkpt><trkpt lat="42.118169398329556" lon="-3.535486198703797"><ele>1057.2</ele><time>2026-05-03T08:38:18Z</time></trkpt><trkpt lat="42.11811604827257" lon="-3.535371789955085"><ele>1058.3999999999999</ele><time>2026-05-03T08:38:19Z</time></trkpt><trkpt lat="42.118061059895865" lon="-3.5352565578858255"><ele>1059.6</ele><time>2026-05-03T08:38:20Z</time></trkpt><trkpt lat="42.1180077032218" lon="-3.5351420727616882"><ele>1060.8</ele><time>2026-05-03T08:38:21Z</time></trkpt><trkpt lat="42.11795349167338" lon="-3.5350250322672223"><ele>1062.0</ele><time>2026-05-03T08:38:22Z</time></trkpt><trkpt lat="42.11790198850451" lon="-3.534908832820231"><ele>1062.0</ele><time>2026-05-03T08:38:23Z</time></trkpt><trkpt lat="42.117850257857754" lon="-3.5347940945423466"><ele>1062.0</ele><time>2026-05-03T08:38:24Z</time></trkpt><trkpt lat="42.117797634421954" lon="-3.534679958012653"><ele>1062.0</ele><time>2026-05-03T08:38:25Z</time></trkpt><trkpt lat="42.11774316501488" lon="-3.534563693752222"><ele>1062.0</ele><time>2026-05-03T08:38:26Z</time></trkpt><trkpt lat="42.11769040576161" lon="-3.53444825329514"><ele>1062.0</ele><time>2026-05-03T08:38:27Z</time></trkpt><trkpt lat="42.117637794918835" lon="-3.5343325890901"><ele>1061.8</ele><time>2026-05-03T08:38:28Z</time></trkpt><trkpt lat="42.11758423445636" lon="-3.5342174359466876"><ele>1061.6</ele><time>2026-05-03T08:38:29Z</time></trkpt><trkpt lat="42.117529819935555" lon="-3.534102080096601"><ele>1061.3999999999999</ele><time>2026-05-03T08:38:30Z</time></trkpt><trkpt lat="42.11747591642775" lon="-3.5339868881292062"><ele>1061.2</ele><time>2026-05-03T08:38:31Z</time></trkpt><trkpt lat="42.11742082618212" lon="-3.5338713933483046"><ele>1061.0</ele><time>2026-05-03T08:38:32Z</time></trkpt><trkpt lat="42.117366332639115" lon="-3.5337558893385745"><ele>1061.2</ele><time>2026-05-03T08:38:33Z</time></trkpt><trkpt lat="42.11731368712804" lon="-3.533639330729461"><ele>1061.3999999999999</ele><time>2026-05-03T08:38:34Z</time></trkpt><trkpt lat="42.11726033702815" lon="-3.5335222612374673"><ele>1061.6</ele><time>2026-05-03T08:38:35Z</time></trkpt><trkpt lat="42.117206681028684" lon="-3.5334062710801373"><ele>1061.8</ele><time>2026-05-03T08:38:36Z</time></trkpt><trkpt lat="42.11715368911648" lon="-3.5332926198937433"><ele>1062.0</ele><time>2026-05-03T08:38:37Z</time></trkpt><trkpt lat="42.11709908453365" lon="-3.533177711686416"><ele>1062.0</ele><time>2026-05-03T08:38:38Z</time></trkpt><trkpt lat="42.117044150199966" lon="-3.5330637571535086"><ele>1062.0</ele><time>2026-05-03T08:38:39Z</time></trkpt><trkpt lat="42.116990329609386" lon="-3.5329502556550576"><ele>1062.0</ele><time>2026-05-03T08:38:40Z</time></trkpt><trkpt lat="42.11693939445156" lon="-3.532837451417925"><ele>1062.0</ele><time>2026-05-03T08:38:41Z</time></trkpt><trkpt lat="42.116886142443505" lon="-3.5327252089182637"><ele>1062.0</ele><time>2026-05-03T08:38:42Z</time></trkpt><trkpt lat="42.116831697319626" lon="-3.5326117689760737"><ele>1062.0</ele><time>2026-05-03T08:38:43Z</time></trkpt><trkpt lat="42.116778457810824" lon="-3.532497017498406"><ele>1062.0</ele><time>2026-05-03T08:38:44Z</time></trkpt><trkpt lat="42.116727141504924" lon="-3.532382710234963"><ele>1062.0</ele><time>2026-05-03T08:38:45Z</time></trkpt><trkpt lat="42.11667315012391" lon="-3.5322679852543204"><ele>1062.0</ele><time>2026-05-03T08:38:46Z</time></trkpt><trkpt lat="42.11661903668922" lon="-3.5321531229935186"><ele>1062.0</ele><time>2026-05-03T08:38:47Z</time></trkpt><trkpt lat="42.11656695139392" lon="-3.5320394105117585"><ele>1062.6</ele><time>2026-05-03T08:38:48Z</time></trkpt><trkpt lat="42.116513662323285" lon="-3.5319241144935387"><ele>1063.2</ele><time>2026-05-03T08:38:49Z</time></trkpt><trkpt lat="42.116463184430856" lon="-3.5318100673906985"><ele>1063.8</ele><time>2026-05-03T08:38:50Z</time></trkpt><trkpt lat="42.116411240990416" lon="-3.531695590945143"><ele>1064.4</ele><time>2026-05-03T08:38:51Z</time></trkpt><trkpt lat="42.11635968286405" lon="-3.5315812372211597"><ele>1065.0</ele><time>2026-05-03T08:38:52Z</time></trkpt><trkpt lat="42.11630630461759" lon="-3.531465243206181"><ele>1065.0</ele><time>2026-05-03T08:38:53Z</time></trkpt><trkpt lat="42.11625220045986" lon="-3.5313496262680357"><ele>1065.0</ele><time>2026-05-03T08:38:54Z</time></trkpt><trkpt lat="42.11619923897663" lon="-3.531235965627165"><ele>1065.0</ele><time>2026-05-03T08:38:55Z</time></trkpt><trkpt lat="42.11614480724366" lon="-3.531120894210653"><ele>1065.0</ele><time>2026-05-03T08:38:56Z</time></trkpt><trkpt lat="42.11609099269188" lon="-3.5310067935979674"><ele>1065.0</ele><time>2026-05-03T08:38:57Z</time></trkpt><trkpt lat="42.11603657566755" lon="-3.5308918345138474"><ele>1065.0</ele><time>2026-05-03T08:38:58Z</time></trkpt><trkpt lat="42.1159827382618" lon="-3.530776283175247"><ele>1065.0</ele><time>2026-05-03T08:38:59Z</time></trkpt><trkpt lat="42.11593018965746" lon="-3.5306621480315115"><ele>1065.0</ele><time>2026-05-03T08:39:00Z</time></trkpt><trkpt lat="42.11587810872369" lon="-3.530548530758683"><ele>1065.0</ele><time>2026-05-03T08:39:01Z</time></trkpt><trkpt lat="42.11582526278529" lon="-3.530433037725147"><ele>1065.0</ele><time>2026-05-03T08:39:02Z</time></trkpt><trkpt lat="42.11577237707337" lon="-3.530319430403348"><ele>1065.6</ele><time>2026-05-03T08:39:03Z</time></trkpt><trkpt lat="42.115719942767726" lon="-3.5302068997837397"><ele>1066.2</ele><time>2026-05-03T08:39:04Z</time></trkpt><trkpt lat="42.11566668767315" lon="-3.5300926320725536"><ele>1066.8</ele><time>2026-05-03T08:39:05Z</time></trkpt><trkpt lat="42.1156120693958" lon="-3.5299776708232273"><ele>1067.4</ele><time>2026-05-03T08:39:06Z</time></trkpt><trkpt lat="42.115557685096704" lon="-3.529862645186853"><ele>1068.0</ele><time>2026-05-03T08:39:07Z</time></trkpt><trkpt lat="42.11550520305638" lon="-3.5297482088941523"><ele>1068.0</ele><time>2026-05-03T08:39:08Z</time></trkpt><trkpt lat="42.115450844372056" lon="-3.529633865808157"><ele>1068.0</ele><time>2026-05-03T08:39:09Z</time></trkpt><trkpt lat="42.11539691225876" lon="-3.529520530113878"><ele>1068.0</ele><time>2026-05-03T08:39:10Z</time></trkpt><trkpt lat="42.11534422660738" lon="-3.5294064025565786"><ele>1068.0</ele><time>2026-05-03T08:39:11Z</time></trkpt><trkpt lat="42.115291170656725" lon="-3.529293820864086"><ele>1068.0</ele><time>2026-05-03T08:39:12Z</time></trkpt><trkpt lat="42.115239394139465" lon="-3.529178609938808"><ele>1068.2</ele><time>2026-05-03T08:39:13Z</time></trkpt><trkpt lat="42.11518731229249" lon="-3.5290661159271988"><ele>1068.4</ele><time>2026-05-03T08:39:14Z</time></trkpt><trkpt lat="42.11513486541836" lon="-3.5289528476286116"><ele>1068.6000000000001</ele><time>2026-05-03T08:39:15Z</time></trkpt><trkpt lat="42.11508381360189" lon="-3.5288384455300283"><ele>1068.8</ele><time>2026-05-03T08:39:16Z</time></trkpt><trkpt lat="42.11503115133536" lon="-3.5287240997360874"><ele>1069.0</ele><time>2026-05-03T08:39:17Z</time></trkpt><trkpt lat="42.11497646087126" lon="-3.5286102200620824"><ele>1069.0</ele><time>2026-05-03T08:39:18Z</time></trkpt><trkpt lat="42.11492188703416" lon="-3.5284974169557093"><ele>1069.0</ele><time>2026-05-03T08:39:19Z</time></trkpt><trkpt lat="42.11486590894783" lon="-3.5283837381213434"><ele>1069.0</ele><time>2026-05-03T08:39:20Z</time></trkpt><trkpt lat="42.11480601895933" lon="-3.5282686076189664"><ele>1069.0</ele><time>2026-05-03T08:39:21Z</time></trkpt><trkpt lat="42.11474737771385" lon="-3.5281515986172214"><ele>1069.0</ele><time>2026-05-03T08:39:22Z</time></trkpt><trkpt lat="42.11468727560178" lon="-3.528036020746703"><ele>1068.6000000000001</ele><time>2026-05-03T08:39:23Z</time></trkpt><trkpt lat="42.11462678721939" lon="-3.5279197501166983"><ele>1068.2</ele><time>2026-05-03T08:39:24Z</time></trkpt><trkpt lat="42.11456695505113" lon="-3.5278028700278106"><ele>1067.8000000000002</ele><time>2026-05-03T08:39:25Z</time></trkpt><trkpt lat="42.11450672947285" lon="-3.527688406962385"><ele>1067.4</ele><time>2026-05-03T08:39:26Z</time></trkpt><trkpt lat="42.114444448238054" lon="-3.5275749514573733"><ele>1067.0</ele><time>2026-05-03T08:39:27Z</time></trkpt><trkpt lat="42.11438160615529" lon="-3.527459111189685"><ele>1066.8</ele><time>2026-05-03T08:39:28Z</time></trkpt><trkpt lat="42.114319921477325" lon="-3.5273432582618116"><ele>1066.6</ele><time>2026-05-03T08:39:29Z</time></trkpt><trkpt lat="42.114260336221456" lon="-3.5272266268087216"><ele>1066.3999999999999</ele><time>2026-05-03T08:39:30Z</time></trkpt><trkpt lat="42.114199323837035" lon="-3.5271114495836877"><ele>1066.2</ele><time>2026-05-03T08:39:31Z</time></trkpt><trkpt lat="42.11413675891413" lon="-3.5269945054199474"><ele>1066.0</ele><time>2026-05-03T08:39:32Z</time></trkpt><trkpt lat="42.114074902029174" lon="-3.526875864789402"><ele>1065.6</ele><time>2026-05-03T08:39:33Z</time></trkpt><trkpt lat="42.114013638643364" lon="-3.5267599106593277"><ele>1065.1999999999998</ele><time>2026-05-03T08:39:34Z</time></trkpt><trkpt lat="42.11394913622767" lon="-3.526642361337312"><ele>1064.8000000000002</ele><time>2026-05-03T08:39:35Z</time></trkpt><trkpt lat="42.11388462720454" lon="-3.5265237451925233"><ele>1064.4</ele><time>2026-05-03T08:39:36Z</time></trkpt><trkpt lat="42.113822886154544" lon="-3.526406254824347"><ele>1064.0</ele><time>2026-05-03T08:39:37Z</time></trkpt><trkpt lat="42.11376022949963" lon="-3.526289450976858"><ele>1063.8</ele><time>2026-05-03T08:39:38Z</time></trkpt><trkpt lat="42.113695862371486" lon="-3.5261733370553223"><ele>1063.6000000000001</ele><time>2026-05-03T08:39:39Z</time></trkpt><trkpt lat="42.11363027937675" lon="-3.5260551535071616"><ele>1063.4</ele><time>2026-05-03T08:39:40Z</time></trkpt><trkpt lat="42.113567612708955" lon="-3.5259354363195343"><ele>1063.2</ele><time>2026-05-03T08:39:41Z</time></trkpt><trkpt lat="42.113505461925236" lon="-3.525816311791762"><ele>1063.0</ele><time>2026-05-03T08:39:42Z</time></trkpt><trkpt lat="42.11344259142649" lon="-3.525696114217399"><ele>1063.0</ele><time>2026-05-03T08:39:43Z</time></trkpt><trkpt lat="42.113380184054975" lon="-3.52557566237602"><ele>1063.0</ele><time>2026-05-03T08:39:44Z</time></trkpt><trkpt lat="42.11331840589116" lon="-3.525458105232577"><ele>1063.0</ele><time>2026-05-03T08:39:45Z</time></trkpt><trkpt lat="42.11325662619836" lon="-3.525344483488479"><ele>1063.0</ele><time>2026-05-03T08:39:46Z</time></trkpt><trkpt lat="42.113192233795225" lon="-3.5252290010853526"><ele>1063.0</ele><time>2026-05-03T08:39:47Z</time></trkpt><trkpt lat="42.113127354846895" lon="-3.525113756234335"><ele>1062.8</ele><time>2026-05-03T08:39:48Z</time></trkpt><trkpt lat="42.113065231429324" lon="-3.524997744468508"><ele>1062.6</ele><time>2026-05-03T08:39:49Z</time></trkpt><trkpt lat="42.113004060163846" lon="-3.524880846044456"><ele>1062.4</ele><time>2026-05-03T08:39:50Z</time></trkpt><trkpt lat="42.11294273929443" lon="-3.5247656141249313"><ele>1062.2</ele><time>2026-05-03T08:39:51Z</time></trkpt><trkpt lat="42.112880156428865" lon="-3.52465083121447"><ele>1062.0</ele><time>2026-05-03T08:39:52Z</time></trkpt><trkpt lat="42.112818266751965" lon="-3.5245363002697814"><ele>1061.8</ele><time>2026-05-03T08:39:53Z</time></trkpt><trkpt lat="42.112756802762576" lon="-3.52442049342194"><ele>1061.6</ele><time>2026-05-03T08:39:54Z</time></trkpt><trkpt lat="42.112696008271264" lon="-3.524305879675064"><ele>1061.3999999999999</ele><time>2026-05-03T08:39:55Z</time></trkpt><trkpt lat="42.11263628793186" lon="-3.524191986298587"><ele>1061.2</ele><time>2026-05-03T08:39:56Z</time></trkpt><trkpt lat="42.11257722124304" lon="-3.524081614175513"><ele>1061.0</ele><time>2026-05-03T08:39:57Z</time></trkpt><trkpt lat="42.11251873362351" lon="-3.5239707122330834"><ele>1061.0</ele><time>2026-05-03T08:39:58Z</time></trkpt><trkpt lat="42.11245825150681" lon="-3.523859218396763"><ele>1061.0</ele><time>2026-05-03T08:39:59Z</time></trkpt><trkpt lat="42.112400593778545" lon="-3.52374863935711"><ele>1061.0</ele><time>2026-05-03T08:40:00Z</time></trkpt><trkpt lat="42.11234228283712" lon="-3.523640903997567"><ele>1061.0</ele><time>2026-05-03T08:40:01Z</time></trkpt><trkpt lat="42.11228226382612" lon="-3.523532159374572"><ele>1061.0</ele><time>2026-05-03T08:40:02Z</time></trkpt><trkpt lat="42.11222350439203" lon="-3.523424558542176"><ele>1061.3999999999999</ele><time>2026-05-03T08:40:03Z</time></trkpt><trkpt lat="42.112164623851534" lon="-3.523316518565867"><ele>1061.8</ele><time>2026-05-03T08:40:04Z</time></trkpt><trkpt lat="42.11210809292164" lon="-3.523209770256689"><ele>1062.1999999999998</ele><time>2026-05-03T08:40:05Z</time></trkpt><trkpt lat="42.112049021480885" lon="-3.523102579413484"><ele>1062.6</ele><time>2026-05-03T08:40:06Z</time></trkpt><trkpt lat="42.1119899220859" lon="-3.5229942944636643"><ele>1063.0</ele><time>2026-05-03T08:40:07Z</time></trkpt><trkpt lat="42.111932228167156" lon="-3.522885330256654"><ele>1063.2</ele><time>2026-05-03T08:40:08Z</time></trkpt><trkpt lat="42.111876205764965" lon="-3.5227777200257813"><ele>1063.4</ele><time>2026-05-03T08:40:09Z</time></trkpt><trkpt lat="42.11181929779354" lon="-3.5226692210139374"><ele>1063.6000000000001</ele><time>2026-05-03T08:40:10Z</time></trkpt><trkpt lat="42.1117619244366" lon="-3.5225606753328167"><ele>1063.8</ele><time>2026-05-03T08:40:11Z</time></trkpt><trkpt lat="42.11170305772502" lon="-3.5224529698980134"><ele>1064.0</ele><time>2026-05-03T08:40:12Z</time></trkpt><trkpt lat="42.11164635249679" lon="-3.522344415682381"><ele>1064.0</ele><time>2026-05-03T08:40:13Z</time></trkpt><trkpt lat="42.11158861383648" lon="-3.5222360659040706"><ele>1064.0</ele><time>2026-05-03T08:40:14Z</time></trkpt><trkpt lat="42.11152921690953" lon="-3.522127137614345"><ele>1064.0</ele><time>2026-05-03T08:40:15Z</time></trkpt><trkpt lat="42.111470447408635" lon="-3.5220181241769617"><ele>1064.0</ele><time>2026-05-03T08:40:16Z</time></trkpt><trkpt lat="42.111411762583714" lon="-3.5219088230943716"><ele>1064.0</ele><time>2026-05-03T08:40:17Z</time></trkpt><trkpt lat="42.111353250642" lon="-3.5217983711161067"><ele>1065.2</ele><time>2026-05-03T08:40:18Z</time></trkpt><trkpt lat="42.1112950607364" lon="-3.5216866454510756"><ele>1066.4</ele><time>2026-05-03T08:40:19Z</time></trkpt><trkpt lat="42.111236093165246" lon="-3.5215743497413734"><ele>1067.6</ele><time>2026-05-03T08:40:20Z</time></trkpt><trkpt lat="42.11117757506525" lon="-3.521462738317141"><ele>1068.8</ele><time>2026-05-03T08:40:21Z</time></trkpt><trkpt lat="42.1111204237049" lon="-3.521351744091479"><ele>1070.0</ele><time>2026-05-03T08:40:22Z</time></trkpt><trkpt lat="42.11106069435015" lon="-3.5212424417849495"><ele>1070.2</ele><time>2026-05-03T08:40:23Z</time></trkpt><trkpt lat="42.11100091488337" lon="-3.521131162343893"><ele>1070.4</ele><time>2026-05-03T08:40:24Z</time></trkpt><trkpt lat="42.110941099569565" lon="-3.521021935002634"><ele>1070.6</ele><time>2026-05-03T08:40:25Z</time></trkpt><trkpt lat="42.11088226562592" lon="-3.5209120469357136"><ele>1070.8</ele><time>2026-05-03T08:40:26Z</time></trkpt><trkpt lat="42.11082277651927" lon="-3.5208034995843276"><ele>1071.0</ele><time>2026-05-03T08:40:27Z</time></trkpt><trkpt lat="42.110761533701876" lon="-3.520692777587855"><ele>1071.0</ele><time>2026-05-03T08:40:28Z</time></trkpt><trkpt lat="42.11069793978533" lon="-3.52057879599403"><ele>1071.0</ele><time>2026-05-03T08:40:29Z</time></trkpt><trkpt lat="42.11063388325719" lon="-3.5204633266256713"><ele>1071.0</ele><time>2026-05-03T08:40:30Z</time></trkpt><trkpt lat="42.11057014561192" lon="-3.5203478494942853"><ele>1071.0</ele><time>2026-05-03T08:40:31Z</time></trkpt><trkpt lat="42.11050261048958" lon="-3.5202331554036075"><ele>1071.0</ele><time>2026-05-03T08:40:32Z</time></trkpt><trkpt lat="42.11043530417394" lon="-3.5201195315053466"><ele>1070.3999999999999</ele><time>2026-05-03T08:40:33Z</time></trkpt><trkpt lat="42.110369579124715" lon="-3.5200062122720905"><ele>1069.8</ele><time>2026-05-03T08:40:34Z</time></trkpt><trkpt lat="42.110306031873584" lon="-3.5198901815699917"><ele>1069.1999999999998</ele><time>2026-05-03T08:40:35Z</time></trkpt><trkpt lat="42.11024003140598" lon="-3.5197769461843267"><ele>1068.6</ele><time>2026-05-03T08:40:36Z</time></trkpt><trkpt lat="42.11017204956949" lon="-3.5196645958861805"><ele>1068.0</ele><time>2026-05-03T08:40:37Z</time></trkpt><trkpt lat="42.110104789250464" lon="-3.5195529029136363"><ele>1067.6</ele><time>2026-05-03T08:40:38Z</time></trkpt><trkpt lat="42.110038265239226" lon="-3.5194385108410384"><ele>1067.1999999999998</ele><time>2026-05-03T08:40:39Z</time></trkpt><trkpt lat="42.10997231002964" lon="-3.5193256793238357"><ele>1066.8</ele><time>2026-05-03T08:40:40Z</time></trkpt><trkpt lat="42.109905644871205" lon="-3.51920951701872"><ele>1066.3999999999999</ele><time>2026-05-03T08:40:41Z</time></trkpt><trkpt lat="42.109837919613526" lon="-3.5190947310089253"><ele>1066.0</ele><time>2026-05-03T08:40:42Z</time></trkpt><trkpt lat="42.10977258331546" lon="-3.5189785191856964"><ele>1066.0</ele><time>2026-05-03T08:40:43Z</time></trkpt><trkpt lat="42.109709431100185" lon="-3.518863351059959"><ele>1066.0</ele><time>2026-05-03T08:40:44Z</time></trkpt><trkpt lat="42.10964721921636" lon="-3.518748413078576"><ele>1066.0</ele><time>2026-05-03T08:40:45Z</time></trkpt><trkpt lat="42.1095827903816" lon="-3.518632999005227"><ele>1066.0</ele><time>2026-05-03T08:40:46Z</time></trkpt><trkpt lat="42.1095216161723" lon="-3.518518046106944"><ele>1066.0</ele><time>2026-05-03T08:40:47Z</time></trkpt><trkpt lat="42.10946203330359" lon="-3.5184027199273626"><ele>1066.0</ele><time>2026-05-03T08:40:48Z</time></trkpt><trkpt lat="42.1094005043047" lon="-3.5182862286537766"><ele>1066.0</ele><time>2026-05-03T08:40:49Z</time></trkpt><trkpt lat="42.109339327059985" lon="-3.518169486419793"><ele>1066.0</ele><time>2026-05-03T08:40:50Z</time></trkpt><trkpt lat="42.10927869255012" lon="-3.5180531325666697"><ele>1066.0</ele><time>2026-05-03T08:40:51Z</time></trkpt><trkpt lat="42.10921917415373" lon="-3.5179342964662834"><ele>1066.0</ele><time>2026-05-03T08:40:52Z</time></trkpt><trkpt lat="42.10916166140506" lon="-3.5178147892662763"><ele>1065.6</ele><time>2026-05-03T08:40:53Z</time></trkpt><trkpt lat="42.10910552268731" lon="-3.517695577971518"><ele>1065.1999999999998</ele><time>2026-05-03T08:40:54Z</time></trkpt><trkpt lat="42.1090497063325" lon="-3.5175757219236843"><ele>1064.8000000000002</ele><time>2026-05-03T08:40:55Z</time></trkpt><trkpt lat="42.10899155855391" lon="-3.5174557139901896"><ele>1064.4</ele><time>2026-05-03T08:40:56Z</time></trkpt><trkpt lat="42.108935271460076" lon="-3.517337595240316"><ele>1064.0</ele><time>2026-05-03T08:40:57Z</time></trkpt><trkpt lat="42.108879563762805" lon="-3.5172188675748"><ele>1064.6000000000001</ele><time>2026-05-03T08:40:58Z</time></trkpt><trkpt lat="42.1088249209335" lon="-3.5170989108832034"><ele>1065.2</ele><time>2026-05-03T08:40:59Z</time></trkpt><trkpt lat="42.10876819399235" lon="-3.516979075451214"><ele>1065.8000000000002</ele><time>2026-05-03T08:41:00Z</time></trkpt><trkpt lat="42.108711374165665" lon="-3.516857876464981"><ele>1066.4</ele><time>2026-05-03T08:41:01Z</time></trkpt><trkpt lat="42.10865434003209" lon="-3.516735567163993"><ele>1067.0</ele><time>2026-05-03T08:41:02Z</time></trkpt><trkpt lat="42.108598630557935" lon="-3.5166133808481557"><ele>1067.0</ele><time>2026-05-03T08:41:03Z</time></trkpt><trkpt lat="42.10854217953756" lon="-3.516491540312166"><ele>1067.0</ele><time>2026-05-03T08:41:04Z</time></trkpt><trkpt lat="42.10848727368361" lon="-3.5163714031589057"><ele>1067.0</ele><time>2026-05-03T08:41:05Z</time></trkpt><trkpt lat="42.1084314445737" lon="-3.516250459368571"><ele>1067.0</ele><time>2026-05-03T08:41:06Z</time></trkpt><trkpt lat="42.108374982493935" lon="-3.5161287699702886"><ele>1067.0</ele><time>2026-05-03T08:41:07Z</time></trkpt><trkpt lat="42.108318519014794" lon="-3.5160078390074463"><ele>1067.0</ele><time>2026-05-03T08:41:08Z</time></trkpt><trkpt lat="42.10826362106436" lon="-3.5158878456694826"><ele>1067.0</ele><time>2026-05-03T08:41:09Z</time></trkpt><trkpt lat="42.108207224109485" lon="-3.515766200309932"><ele>1067.0</ele><time>2026-05-03T08:41:10Z</time></trkpt><trkpt lat="42.1081494600224" lon="-3.5156450832553587"><ele>1067.0</ele><time>2026-05-03T08:41:11Z</time></trkpt><trkpt lat="42.108091866671245" lon="-3.515522513172973"><ele>1067.0</ele><time>2026-05-03T08:41:12Z</time></trkpt><trkpt lat="42.10803434951632" lon="-3.5154013105716966"><ele>1067.0</ele><time>2026-05-03T08:41:13Z</time></trkpt><trkpt lat="42.10797888907491" lon="-3.515281631922762"><ele>1067.0</ele><time>2026-05-03T08:41:14Z</time></trkpt><trkpt lat="42.10792134600827" lon="-3.515160334372162"><ele>1067.0</ele><time>2026-05-03T08:41:15Z</time></trkpt><trkpt lat="42.10786401976559" lon="-3.515038423839452"><ele>1067.0</ele><time>2026-05-03T08:41:16Z</time></trkpt><trkpt lat="42.10780708494698" lon="-3.5149170130213534"><ele>1067.0</ele><time>2026-05-03T08:41:17Z</time></trkpt><trkpt lat="42.10775034374023" lon="-3.5147937578926944"><ele>1067.0</ele><time>2026-05-03T08:41:18Z</time></trkpt><trkpt lat="42.10769428023386" lon="-3.514670703118067"><ele>1067.0</ele><time>2026-05-03T08:41:19Z</time></trkpt><trkpt lat="42.107639234461324" lon="-3.5145479202698175"><ele>1067.0</ele><time>2026-05-03T08:41:20Z</time></trkpt><trkpt lat="42.107585587306794" lon="-3.514424301555852"><ele>1067.0</ele><time>2026-05-03T08:41:21Z</time></trkpt><trkpt lat="42.10753073746334" lon="-3.5143045467864678"><ele>1067.0</ele><time>2026-05-03T08:41:22Z</time></trkpt><trkpt lat="42.107473601950694" lon="-3.5141861442265805"><ele>1066.6</ele><time>2026-05-03T08:41:23Z</time></trkpt><trkpt lat="42.10741376110131" lon="-3.5140674502470044"><ele>1066.2</ele><time>2026-05-03T08:41:24Z</time></trkpt><trkpt lat="42.10735681554218" lon="-3.513948974979351"><ele>1065.8</ele><time>2026-05-03T08:41:25Z</time></trkpt><trkpt lat="42.107300791173316" lon="-3.513829945460154"><ele>1065.4</ele><time>2026-05-03T08:41:26Z</time></trkpt><trkpt lat="42.107244109918376" lon="-3.5137093767580225"><ele>1065.0</ele><time>2026-05-03T08:41:27Z</time></trkpt><trkpt lat="42.107189068129564" lon="-3.5135882096433155"><ele>1065.0</ele><time>2026-05-03T08:41:28Z</time></trkpt><trkpt lat="42.10713151111247" lon="-3.513467764731084"><ele>1065.0</ele><time>2026-05-03T08:41:29Z</time></trkpt><trkpt lat="42.107076454174305" lon="-3.5133470809835816"><ele>1065.0</ele><time>2026-05-03T08:41:30Z</time></trkpt><trkpt lat="42.10701896654386" lon="-3.5132284256776485"><ele>1065.0</ele><time>2026-05-03T08:41:31Z</time></trkpt><trkpt lat="42.10696309308595" lon="-3.513109179838629"><ele>1065.0</ele><time>2026-05-03T08:41:32Z</time></trkpt><trkpt lat="42.10690683309736" lon="-3.512988663366182"><ele>1064.8</ele><time>2026-05-03T08:41:33Z</time></trkpt><trkpt lat="42.106850604333964" lon="-3.5128675702484347"><ele>1064.6</ele><time>2026-05-03T08:41:34Z</time></trkpt><trkpt lat="42.10679573602182" lon="-3.5127456263423684"><ele>1064.4</ele><time>2026-05-03T08:41:35Z</time></trkpt><trkpt lat="42.106743134638535" lon="-3.5126265006102524"><ele>1064.2</ele><time>2026-05-03T08:41:36Z</time></trkpt><trkpt lat="42.10668698163522" lon="-3.512507387814852"><ele>1064.0</ele><time>2026-05-03T08:41:37Z</time></trkpt><trkpt lat="42.106629200588" lon="-3.5123873207742613"><ele>1064.6000000000001</ele><time>2026-05-03T08:41:38Z</time></trkpt><trkpt lat="42.10657165918273" lon="-3.512264882601418"><ele>1065.2</ele><time>2026-05-03T08:41:39Z</time></trkpt><trkpt lat="42.10651547308659" lon="-3.5121412754432684"><ele>1065.8000000000002</ele><time>2026-05-03T08:41:40Z</time></trkpt><trkpt lat="42.106460243137654" lon="-3.5120159963831004"><ele>1066.4</ele><time>2026-05-03T08:41:41Z</time></trkpt><trkpt lat="42.10640592467414" lon="-3.511892344480082"><ele>1067.0</ele><time>2026-05-03T08:41:42Z</time></trkpt><trkpt lat="42.10634890204336" lon="-3.5117680594154974"><ele>1065.6</ele><time>2026-05-03T08:41:43Z</time></trkpt><trkpt lat="42.10629282118782" lon="-3.511644604329304"><ele>1064.2</ele><time>2026-05-03T08:41:44Z</time></trkpt><trkpt lat="42.1062347092326" lon="-3.5115212280155523"><ele>1062.8</ele><time>2026-05-03T08:41:45Z</time></trkpt><trkpt lat="42.10617805265938" lon="-3.511396111299769"><ele>1061.4</ele><time>2026-05-03T08:41:46Z</time></trkpt><trkpt lat="42.1061224009524" lon="-3.5112714482528977"><ele>1060.0</ele><time>2026-05-03T08:41:47Z</time></trkpt><trkpt lat="42.10606558513147" lon="-3.5111491439972426"><ele>1059.6</ele><time>2026-05-03T08:41:48Z</time></trkpt><trkpt lat="42.10600811396427" lon="-3.511029695240718"><ele>1059.2</ele><time>2026-05-03T08:41:49Z</time></trkpt><trkpt lat="42.10594904014822" lon="-3.510906597366612"><ele>1058.8</ele><time>2026-05-03T08:41:50Z</time></trkpt><trkpt lat="42.10588934054739" lon="-3.510783815460139"><ele>1058.4</ele><time>2026-05-03T08:41:51Z</time></trkpt><trkpt lat="42.105833209830145" lon="-3.51066020808988"><ele>1058.0</ele><time>2026-05-03T08:41:52Z</time></trkpt><trkpt lat="42.10577697877738" lon="-3.510535017715428"><ele>1058.4</ele><time>2026-05-03T08:41:53Z</time></trkpt><trkpt lat="42.10572103700509" lon="-3.510405661869441"><ele>1058.8</ele><time>2026-05-03T08:41:54Z</time></trkpt><trkpt lat="42.10566958180017" lon="-3.5102767694410977"><ele>1059.2</ele><time>2026-05-03T08:41:55Z</time></trkpt><trkpt lat="42.10562041560231" lon="-3.5101509031321774"><ele>1059.6</ele><time>2026-05-03T08:41:56Z</time></trkpt><trkpt lat="42.10556764848346" lon="-3.5100249476032155"><ele>1060.0</ele><time>2026-05-03T08:41:57Z</time></trkpt><trkpt lat="42.10551444267198" lon="-3.5098967943695474"><ele>1060.0</ele><time>2026-05-03T08:41:58Z</time></trkpt><trkpt lat="42.105462651756675" lon="-3.509769392177573"><ele>1060.0</ele><time>2026-05-03T08:41:59Z</time></trkpt><trkpt lat="42.10541203451707" lon="-3.509640473641321"><ele>1060.0</ele><time>2026-05-03T08:42:00Z</time></trkpt><trkpt lat="42.10536321738697" lon="-3.5095131882467285"><ele>1060.0</ele><time>2026-05-03T08:42:01Z</time></trkpt><trkpt lat="42.10531369413562" lon="-3.509385643957577"><ele>1060.0</ele><time>2026-05-03T08:42:02Z</time></trkpt><trkpt lat="42.1052662470001" lon="-3.5092601304381623"><ele>1059.8</ele><time>2026-05-03T08:42:03Z</time></trkpt><trkpt lat="42.1052200235839" lon="-3.509135176703095"><ele>1059.6</ele><time>2026-05-03T08:42:04Z</time></trkpt><trkpt lat="42.10516947961464" lon="-3.5090086906122564"><ele>1059.4</ele><time>2026-05-03T08:42:05Z</time></trkpt><trkpt lat="42.1051218223024" lon="-3.5088832031350594"><ele>1059.2</ele><time>2026-05-03T08:42:06Z</time></trkpt><trkpt lat="42.10507399618945" lon="-3.508758682975411"><ele>1059.0</ele><time>2026-05-03T08:42:07Z</time></trkpt><trkpt lat="42.10502625811608" lon="-3.508631544539709"><ele>1058.6000000000001</ele><time>2026-05-03T08:42:08Z</time></trkpt><trkpt lat="42.10497913592778" lon="-3.5085052078702232"><ele>1058.2</ele><time>2026-05-03T08:42:09Z</time></trkpt><trkpt lat="42.10492966081339" lon="-3.508373811052214"><ele>1057.8000000000002</ele><time>2026-05-03T08:42:10Z</time></trkpt><trkpt lat="42.10488012794679" lon="-3.5082414907588273"><ele>1057.4</ele><time>2026-05-03T08:42:11Z</time></trkpt><trkpt lat="42.104835737816025" lon="-3.508110540041118"><ele>1057.0</ele><time>2026-05-03T08:42:12Z</time></trkpt><trkpt lat="42.104790310892625" lon="-3.507981745184334"><ele>1055.6</ele><time>2026-05-03T08:42:13Z</time></trkpt><trkpt lat="42.10474482550257" lon="-3.5078536219924286"><ele>1054.2</ele><time>2026-05-03T08:42:14Z</time></trkpt><trkpt lat="42.104698090136" lon="-3.507724280430086"><ele>1052.8</ele><time>2026-05-03T08:42:15Z</time></trkpt><trkpt lat="42.10464938184538" lon="-3.507595031354295"><ele>1051.4</ele><time>2026-05-03T08:42:16Z</time></trkpt><trkpt lat="42.10459917320001" lon="-3.507465127928596"><ele>1050.0</ele><time>2026-05-03T08:42:17Z</time></trkpt><trkpt lat="42.104554153940136" lon="-3.50734008414421"><ele>1050.0</ele><time>2026-05-03T08:42:18Z</time></trkpt><trkpt lat="42.10450472969443" lon="-3.5072132292356173"><ele>1050.0</ele><time>2026-05-03T08:42:19Z</time></trkpt><trkpt lat="42.104455656222875" lon="-3.507085106779175"><ele>1050.0</ele><time>2026-05-03T08:42:20Z</time></trkpt><trkpt lat="42.104409234184935" lon="-3.506951245755314"><ele>1050.0</ele><time>2026-05-03T08:42:21Z</time></trkpt><trkpt lat="42.10436334900495" lon="-3.5068182135981907"><ele>1050.0</ele><time>2026-05-03T08:42:22Z</time></trkpt><trkpt lat="42.10431763857265" lon="-3.506688859476639"><ele>1050.2</ele><time>2026-05-03T08:42:23Z</time></trkpt><trkpt lat="42.10426756078485" lon="-3.5065587522295334"><ele>1050.4</ele><time>2026-05-03T08:42:24Z</time></trkpt><trkpt lat="42.104221770369776" lon="-3.5064332917222334"><ele>1050.6</ele><time>2026-05-03T08:42:25Z</time></trkpt><trkpt lat="42.10417674129505" lon="-3.5063110677130163"><ele>1050.8</ele><time>2026-05-03T08:42:26Z</time></trkpt><trkpt lat="42.10412800879648" lon="-3.5061894322961504"><ele>1051.0</ele><time>2026-05-03T08:42:27Z</time></trkpt><trkpt lat="42.1040817397871" lon="-3.5060683698786623"><ele>1052.8</ele><time>2026-05-03T08:42:28Z</time></trkpt><trkpt lat="42.10403724619883" lon="-3.5059508145099225"><ele>1054.6</ele><time>2026-05-03T08:42:29Z</time></trkpt><trkpt lat="42.10399102141596" lon="-3.5058345057989477"><ele>1056.4</ele><time>2026-05-03T08:42:30Z</time></trkpt><trkpt lat="42.10394443077509" lon="-3.50571665582765"><ele>1058.2</ele><time>2026-05-03T08:42:31Z</time></trkpt><trkpt lat="42.10390065394727" lon="-3.505597387103479"><ele>1060.0</ele><time>2026-05-03T08:42:32Z</time></trkpt><trkpt lat="42.103858100750216" lon="-3.50547607077452"><ele>1059.2</ele><time>2026-05-03T08:42:33Z</time></trkpt><trkpt lat="42.10381738221813" lon="-3.505357074368289"><ele>1058.4</ele><time>2026-05-03T08:42:34Z</time></trkpt><trkpt lat="42.103773188360094" lon="-3.5052398966747575"><ele>1057.6</ele><time>2026-05-03T08:42:35Z</time></trkpt><trkpt lat="42.10372793359667" lon="-3.5051226479345523"><ele>1056.8</ele><time>2026-05-03T08:42:36Z</time></trkpt><trkpt lat="42.10368235128666" lon="-3.505002928509221"><ele>1056.0</ele><time>2026-05-03T08:42:37Z</time></trkpt><trkpt lat="42.10363600202624" lon="-3.504883630252263"><ele>1056.0</ele><time>2026-05-03T08:42:38Z</time></trkpt><trkpt lat="42.10359094169036" lon="-3.5047657466206448"><ele>1056.0</ele><time>2026-05-03T08:42:39Z</time></trkpt><trkpt lat="42.10354660712639" lon="-3.5046465721419264"><ele>1056.0</ele><time>2026-05-03T08:42:40Z</time></trkpt><trkpt lat="42.103501095342445" lon="-3.5045240536181006"><ele>1056.0</ele><time>2026-05-03T08:42:41Z</time></trkpt><trkpt lat="42.10345666035615" lon="-3.5044049749540473"><ele>1056.0</ele><time>2026-05-03T08:42:42Z</time></trkpt><trkpt lat="42.10341022116224" lon="-3.5042900511279313"><ele>1056.3999999999999</ele><time>2026-05-03T08:42:43Z</time></trkpt><trkpt lat="42.10335667383187" lon="-3.5041700234338595"><ele>1056.8</ele><time>2026-05-03T08:42:44Z</time></trkpt><trkpt lat="42.10330804387316" lon="-3.504045712513542"><ele>1057.1999999999998</ele><time>2026-05-03T08:42:45Z</time></trkpt><trkpt lat="42.10326506687349" lon="-3.503927336424344"><ele>1057.6</ele><time>2026-05-03T08:42:46Z</time></trkpt><trkpt lat="42.10321964806019" lon="-3.503806262626909"><ele>1058.0</ele><time>2026-05-03T08:42:47Z</time></trkpt><trkpt lat="42.10316932659595" lon="-3.5036876134544133"><ele>1058.0</ele><time>2026-05-03T08:42:48Z</time></trkpt><trkpt lat="42.10311599789802" lon="-3.5035686156172052"><ele>1058.0</ele><time>2026-05-03T08:42:49Z</time></trkpt><trkpt lat="42.103060607311264" lon="-3.503450915934122"><ele>1058.0</ele><time>2026-05-03T08:42:50Z</time></trkpt><trkpt lat="42.103004929554444" lon="-3.503331039586509"><ele>1058.0</ele><time>2026-05-03T08:42:51Z</time></trkpt><trkpt lat="42.102942936859755" lon="-3.5032101091747765"><ele>1058.0</ele><time>2026-05-03T08:42:52Z</time></trkpt><trkpt lat="42.10288573032358" lon="-3.5030898912870065"><ele>1058.0</ele><time>2026-05-03T08:42:53Z</time></trkpt><trkpt lat="42.10283543214878" lon="-3.502963893416668"><ele>1058.0</ele><time>2026-05-03T08:42:54Z</time></trkpt><trkpt lat="42.10277750439447" lon="-3.5028417990611844"><ele>1058.0</ele><time>2026-05-03T08:42:55Z</time></trkpt><trkpt lat="42.10271695773358" lon="-3.502714516937392"><ele>1058.0</ele><time>2026-05-03T08:42:56Z</time></trkpt><trkpt lat="42.10266305118915" lon="-3.5025901841527727"><ele>1058.0</ele><time>2026-05-03T08:42:57Z</time></trkpt><trkpt lat="42.10261006958997" lon="-3.5024667888517946"><ele>1058.0</ele><time>2026-05-03T08:42:58Z</time></trkpt><trkpt lat="42.10255335680966" lon="-3.5023467010916427"><ele>1058.0</ele><time>2026-05-03T08:42:59Z</time></trkpt><trkpt lat="42.102496025701235" lon="-3.502223789222373"><ele>1058.0</ele><time>2026-05-03T08:43:00Z</time></trkpt><trkpt lat="42.102437671182045" lon="-3.502103740504646"><ele>1058.0</ele><time>2026-05-03T08:43:01Z</time></trkpt><trkpt lat="42.10237713833286" lon="-3.501990761179987"><ele>1058.0</ele><time>2026-05-03T08:43:02Z</time></trkpt><trkpt lat="42.102326666416936" lon="-3.5018981233043722"><ele>1058.0</ele><time>2026-05-03T08:43:03Z</time></trkpt><trkpt lat="42.1022488161162" lon="-3.5017400861372363"><ele>1058.0</ele><time>2026-05-03T08:43:04Z</time></trkpt><trkpt lat="42.102187955597536" lon="-3.5016026643308082"><ele>1058.0</ele><time>2026-05-03T08:43:05Z</time></trkpt><trkpt lat="42.10212889392095" lon="-3.501478165467563"><ele>1058.0</ele><time>2026-05-03T08:43:06Z</time></trkpt><trkpt lat="42.102068446242185" lon="-3.501353766274082"><ele>1057.8</ele><time>2026-05-03T08:43:07Z</time></trkpt><trkpt lat="42.10201129795126" lon="-3.501232339606516"><ele>1057.6</ele><time>2026-05-03T08:43:08Z</time></trkpt><trkpt lat="42.10195363034419" lon="-3.501111132914827"><ele>1057.4</ele><time>2026-05-03T08:43:09Z</time></trkpt><trkpt lat="42.101899485038516" lon="-3.50098604453698"><ele>1057.2</ele><time>2026-05-03T08:43:10Z</time></trkpt><trkpt lat="42.10184409619149" lon="-3.5008642767291067"><ele>1057.0</ele><time>2026-05-03T08:43:11Z</time></trkpt><trkpt lat="42.101785862706" lon="-3.500739984330288"><ele>1057.0</ele><time>2026-05-03T08:43:12Z</time></trkpt><trkpt lat="42.101729059161435" lon="-3.5006166868644826"><ele>1057.0</ele><time>2026-05-03T08:43:13Z</time></trkpt><trkpt lat="42.10167548839876" lon="-3.5004930254564024"><ele>1057.0</ele><time>2026-05-03T08:43:14Z</time></trkpt><trkpt lat="42.10162523900497" lon="-3.50036844588556"><ele>1057.0</ele><time>2026-05-03T08:43:15Z</time></trkpt><trkpt lat="42.1015706445908" lon="-3.500244136998722"><ele>1057.0</ele><time>2026-05-03T08:43:16Z</time></trkpt><trkpt lat="42.101517904391216" lon="-3.5001164166543095"><ele>1056.8</ele><time>2026-05-03T08:43:17Z</time></trkpt><trkpt lat="42.101466439940076" lon="-3.499986940665652"><ele>1056.6</ele><time>2026-05-03T08:43:18Z</time></trkpt><trkpt lat="42.101420893371106" lon="-3.4998544102875995"><ele>1056.3999999999999</ele><time>2026-05-03T08:43:19Z</time></trkpt><trkpt lat="42.10137250485838" lon="-3.499721553980876"><ele>1056.2</ele><time>2026-05-03T08:43:20Z</time></trkpt><trkpt lat="42.10132692313479" lon="-3.499587244508195"><ele>1056.0</ele><time>2026-05-03T08:43:21Z</time></trkpt><trkpt lat="42.10128223937372" lon="-3.4994519683772456"><ele>1056.0</ele><time>2026-05-03T08:43:22Z</time></trkpt><trkpt lat="42.1012388154972" lon="-3.4993188759160283"><ele>1056.0</ele><time>2026-05-03T08:43:23Z</time></trkpt><trkpt lat="42.10119701796079" lon="-3.4991839306452057"><ele>1056.0</ele><time>2026-05-03T08:43:24Z</time></trkpt><trkpt lat="42.10115358555443" lon="-3.4990476161400994"><ele>1056.0</ele><time>2026-05-03T08:43:25Z</time></trkpt><trkpt lat="42.10111320605997" lon="-3.4989146779535076"><ele>1056.0</ele><time>2026-05-03T08:43:26Z</time></trkpt><trkpt lat="42.10107412012639" lon="-3.49878012993729"><ele>1055.6</ele><time>2026-05-03T08:43:27Z</time></trkpt><trkpt lat="42.10103100614473" lon="-3.4986421807497345"><ele>1055.1999999999998</ele><time>2026-05-03T08:43:28Z</time></trkpt><trkpt lat="42.100990378628055" lon="-3.4985056285854874"><ele>1054.8000000000002</ele><time>2026-05-03T08:43:29Z</time></trkpt><trkpt lat="42.10095137140783" lon="-3.4983720873192707"><ele>1054.4</ele><time>2026-05-03T08:43:30Z</time></trkpt><trkpt lat="42.10091136041555" lon="-3.4982397368992078"><ele>1054.0</ele><time>2026-05-03T08:43:31Z</time></trkpt><trkpt lat="42.10087025498004" lon="-3.4981088332863193"><ele>1054.0</ele><time>2026-05-03T08:43:32Z</time></trkpt><trkpt lat="42.100830999063895" lon="-3.4979760332643077"><ele>1054.0</ele><time>2026-05-03T08:43:33Z</time></trkpt><trkpt lat="42.10078886397731" lon="-3.497844702381064"><ele>1054.0</ele><time>2026-05-03T08:43:34Z</time></trkpt><trkpt lat="42.10074552384786" lon="-3.497715838203181"><ele>1054.0</ele><time>2026-05-03T08:43:35Z</time></trkpt><trkpt lat="42.10070243349721" lon="-3.4975861005014273"><ele>1054.0</ele><time>2026-05-03T08:43:36Z</time></trkpt><trkpt lat="42.10065935610098" lon="-3.4974564230714056"><ele>1055.6000000000001</ele><time>2026-05-03T08:43:37Z</time></trkpt><trkpt lat="42.10061460402309" lon="-3.4973252107637793"><ele>1057.2</ele><time>2026-05-03T08:43:38Z</time></trkpt><trkpt lat="42.10056701477187" lon="-3.4971970362502516"><ele>1058.8000000000002</ele><time>2026-05-03T08:43:39Z</time></trkpt><trkpt lat="42.10051759590082" lon="-3.4970714049014933"><ele>1060.4</ele><time>2026-05-03T08:43:40Z</time></trkpt><trkpt lat="42.10046842512339" lon="-3.4969442883377"><ele>1062.0</ele><time>2026-05-03T08:43:41Z</time></trkpt><trkpt lat="42.100420684028116" lon="-3.4968156675059308"><ele>1062.0</ele><time>2026-05-03T08:43:42Z</time></trkpt><trkpt lat="42.10036831507259" lon="-3.4966895537179403"><ele>1062.0</ele><time>2026-05-03T08:43:43Z</time></trkpt><trkpt lat="42.10031326895323" lon="-3.496563263599942"><ele>1062.0</ele><time>2026-05-03T08:43:44Z</time></trkpt><trkpt lat="42.10025805213718" lon="-3.4964370838995"><ele>1062.0</ele><time>2026-05-03T08:43:45Z</time></trkpt><trkpt lat="42.1002032103858" lon="-3.4963135825545444"><ele>1062.0</ele><time>2026-05-03T08:43:46Z</time></trkpt><trkpt lat="42.100145699721196" lon="-3.4961895412879502"><ele>1061.4</ele><time>2026-05-03T08:43:47Z</time></trkpt><trkpt lat="42.10008657751312" lon="-3.4960657234720056"><ele>1060.8000000000002</ele><time>2026-05-03T08:43:48Z</time></trkpt><trkpt lat="42.10002776616664" lon="-3.4959437782038774"><ele>1060.2</ele><time>2026-05-03T08:43:49Z</time></trkpt><trkpt lat="42.09997034997656" lon="-3.495821481335179"><ele>1059.6000000000001</ele><time>2026-05-03T08:43:50Z</time></trkpt><trkpt lat="42.09990714100293" lon="-3.49570341746065"><ele>1059.0</ele><time>2026-05-03T08:43:51Z</time></trkpt><trkpt lat="42.09984127652345" lon="-3.4955849084320016"><ele>1058.4</ele><time>2026-05-03T08:43:52Z</time></trkpt><trkpt lat="42.09977830443247" lon="-3.4954691390529864"><ele>1057.8000000000002</ele><time>2026-05-03T08:43:53Z</time></trkpt><trkpt lat="42.09971457261425" lon="-3.4953506906177"><ele>1057.1999999999998</ele><time>2026-05-03T08:43:54Z</time></trkpt><trkpt lat="42.09965335892505" lon="-3.495234258534586"><ele>1056.6</ele><time>2026-05-03T08:43:55Z</time></trkpt><trkpt lat="42.09959337225581" lon="-3.4951175349843906"><ele>1056.0</ele><time>2026-05-03T08:43:56Z</time></trkpt><trkpt lat="42.09952780111812" lon="-3.4950026225397868"><ele>1055.3999999999999</ele><time>2026-05-03T08:43:57Z</time></trkpt><trkpt lat="42.099463985505196" lon="-3.4948831627771835"><ele>1054.8</ele><time>2026-05-03T08:43:58Z</time></trkpt><trkpt lat="42.099400525334445" lon="-3.4947666868117864"><ele>1054.1999999999998</ele><time>2026-05-03T08:43:59Z</time></trkpt><trkpt lat="42.09933811467852" lon="-3.4946546998448604"><ele>1053.6</ele><time>2026-05-03T08:44:00Z</time></trkpt><trkpt lat="42.09927696452909" lon="-3.49454161501649"><ele>1053.0</ele><time>2026-05-03T08:44:01Z</time></trkpt><trkpt lat="42.09921654555627" lon="-3.494426748174874"><ele>1052.6</ele><time>2026-05-03T08:44:02Z</time></trkpt><trkpt lat="42.0991532701636" lon="-3.494308622833887"><ele>1052.1999999999998</ele><time>2026-05-03T08:44:03Z</time></trkpt><trkpt lat="42.099087168724395" lon="-3.494199358861163"><ele>1051.8</ele><time>2026-05-03T08:44:04Z</time></trkpt><trkpt lat="42.09902730341792" lon="-3.4940837169279715"><ele>1051.3999999999999</ele><time>2026-05-03T08:44:05Z</time></trkpt><trkpt lat="42.098966703288625" lon="-3.4939679613375114"><ele>1051.0</ele><time>2026-05-03T08:44:06Z</time></trkpt><trkpt lat="42.09890143800045" lon="-3.493856893308837"><ele>1052.25</ele><time>2026-05-03T08:44:07Z</time></trkpt><trkpt lat="42.09883958075191" lon="-3.49374209149876"><ele>1053.5</ele><time>2026-05-03T08:44:08Z</time></trkpt><trkpt lat="42.09878414909512" lon="-3.4936246205283408"><ele>1054.75</ele><time>2026-05-03T08:44:09Z</time></trkpt><trkpt lat="42.09865416209008" lon="-3.493400157743319"><ele>1056.0</ele><time>2026-05-03T08:44:11Z</time></trkpt><trkpt lat="42.098591444763734" lon="-3.4932869843806387"><ele>1056.0</ele><time>2026-05-03T08:44:12Z</time></trkpt><trkpt lat="42.09853206491367" lon="-3.493171631935853"><ele>1056.0</ele><time>2026-05-03T08:44:13Z</time></trkpt><trkpt lat="42.09846926481924" lon="-3.4930547413387947"><ele>1056.0</ele><time>2026-05-03T08:44:14Z</time></trkpt><trkpt lat="42.098407574360515" lon="-3.492940387978076"><ele>1056.0</ele><time>2026-05-03T08:44:15Z</time></trkpt><trkpt lat="42.09834714046304" lon="-3.4928246028688434"><ele>1056.0</ele><time>2026-05-03T08:44:16Z</time></trkpt><trkpt lat="42.098286061117086" lon="-3.4927068664570835"><ele>1056.2</ele><time>2026-05-03T08:44:17Z</time></trkpt><trkpt lat="42.0982195787505" lon="-3.492591859755568"><ele>1056.3999999999999</ele><time>2026-05-03T08:44:18Z</time></trkpt><trkpt lat="42.09815410023851" lon="-3.4924789888667"><ele>1056.6</ele><time>2026-05-03T08:44:19Z</time></trkpt><trkpt lat="42.09809396079727" lon="-3.4923623557933183"><ele>1056.8</ele><time>2026-05-03T08:44:20Z</time></trkpt><trkpt lat="42.09803478082192" lon="-3.4922494094915533"><ele>1057.0</ele><time>2026-05-03T08:44:21Z</time></trkpt><trkpt lat="42.097972348756926" lon="-3.492136493178398"><ele>1056.6</ele><time>2026-05-03T08:44:22Z</time></trkpt><trkpt lat="42.09791097132678" lon="-3.4920207262937915"><ele>1056.2</ele><time>2026-05-03T08:44:22.999Z</time></trkpt><trkpt lat="42.097851850633575" lon="-3.491906216972044"><ele>1055.8</ele><time>2026-05-03T08:44:23.999Z</time></trkpt><trkpt lat="42.097791052367405" lon="-3.4917913363249533"><ele>1055.4</ele><time>2026-05-03T08:44:24.999Z</time></trkpt><trkpt lat="42.097729156962174" lon="-3.4916749588639058"><ele>1055.0</ele><time>2026-05-03T08:44:25.999Z</time></trkpt><trkpt lat="42.09766817822868" lon="-3.491559025057282"><ele>1055.0</ele><time>2026-05-03T08:44:26.999Z</time></trkpt><trkpt lat="42.097608102831174" lon="-3.491442428057765"><ele>1055.0</ele><time>2026-05-03T08:44:27.999Z</time></trkpt><trkpt lat="42.097554342515366" lon="-3.4913225922477804"><ele>1055.0</ele><time>2026-05-03T08:44:28.999Z</time></trkpt><trkpt lat="42.09750092586069" lon="-3.4911995687961355"><ele>1055.0</ele><time>2026-05-03T08:44:29.999Z</time></trkpt><trkpt lat="42.09744460351234" lon="-3.491078349970052"><ele>1055.0</ele><time>2026-05-03T08:44:30.999Z</time></trkpt><trkpt lat="42.097390003559724" lon="-3.4909551772317164"><ele>1055.0</ele><time>2026-05-03T08:44:31.999Z</time></trkpt><trkpt lat="42.09733437295427" lon="-3.4908276039207333"><ele>1055.0</ele><time>2026-05-03T08:44:32.999Z</time></trkpt><trkpt lat="42.097280047341876" lon="-3.4907020391970334"><ele>1055.0</ele><time>2026-05-03T08:44:33.999Z</time></trkpt><trkpt lat="42.097228756405535" lon="-3.4905737622975384"><ele>1055.0</ele><time>2026-05-03T08:44:34.999Z</time></trkpt><trkpt lat="42.09717941978221" lon="-3.490444110981158"><ele>1055.0</ele><time>2026-05-03T08:44:35.999Z</time></trkpt><trkpt lat="42.097130359974685" lon="-3.4903159671637165"><ele>1054.8</ele><time>2026-05-03T08:44:36.999Z</time></trkpt><trkpt lat="42.09708222235821" lon="-3.490183808396844"><ele>1054.6</ele><time>2026-05-03T08:44:37.999Z</time></trkpt><trkpt lat="42.097037598900066" lon="-3.4900506411085406"><ele>1054.4</ele><time>2026-05-03T08:44:38.999Z</time></trkpt><trkpt lat="42.096993028497025" lon="-3.4899179411998915"><ele>1054.2</ele><time>2026-05-03T08:44:39.999Z</time></trkpt><trkpt lat="42.09694280321749" lon="-3.489789178616235"><ele>1054.0</ele><time>2026-05-03T08:44:40.999Z</time></trkpt><trkpt lat="42.09689451261237" lon="-3.489655871631748"><ele>1053.6000000000001</ele><time>2026-05-03T08:44:41.999Z</time></trkpt><trkpt lat="42.09684651998316" lon="-3.4895285184953324"><ele>1053.2</ele><time>2026-05-03T08:44:42.999Z</time></trkpt><trkpt lat="42.09679647589422" lon="-3.4894031433764674"><ele>1052.8000000000002</ele><time>2026-05-03T08:44:44Z</time></trkpt><trkpt lat="42.096745574485084" lon="-3.489276029999657"><ele>1052.4</ele><time>2026-05-03T08:44:45Z</time></trkpt><trkpt lat="42.09669331152186" lon="-3.4891474978613295"><ele>1052.0</ele><time>2026-05-03T08:44:46Z</time></trkpt><trkpt lat="42.096644934315215" lon="-3.4890150819468126"><ele>1052.0</ele><time>2026-05-03T08:44:47Z</time></trkpt><trkpt lat="42.0965905777897" lon="-3.488892448491784"><ele>1052.0</ele><time>2026-05-03T08:44:48Z</time></trkpt><trkpt lat="42.09653761058302" lon="-3.4887666951352694"><ele>1052.0</ele><time>2026-05-03T08:44:49Z</time></trkpt><trkpt lat="42.09648070893607" lon="-3.4886411542649425"><ele>1052.0</ele><time>2026-05-03T08:44:50Z</time></trkpt><trkpt lat="42.0964252531795" lon="-3.488517554587456"><ele>1052.0</ele><time>2026-05-03T08:44:51Z</time></trkpt><trkpt lat="42.09637368567405" lon="-3.488392283028202"><ele>1052.0</ele><time>2026-05-03T08:44:52Z</time></trkpt><trkpt lat="42.0963177566547" lon="-3.4882684306967477"><ele>1052.0</ele><time>2026-05-03T08:44:53Z</time></trkpt><trkpt lat="42.096256161571084" lon="-3.4881483446316826"><ele>1052.0</ele><time>2026-05-03T08:44:54Z</time></trkpt><trkpt lat="42.09619880116325" lon="-3.4880265257943694"><ele>1052.0</ele><time>2026-05-03T08:44:55Z</time></trkpt><trkpt lat="42.09614284167869" lon="-3.4879044696690342"><ele>1052.0</ele><time>2026-05-03T08:44:56Z</time></trkpt><trkpt lat="42.096080885316915" lon="-3.4877853154000373"><ele>1051.2</ele><time>2026-05-03T08:44:57Z</time></trkpt><trkpt lat="42.09601781189471" lon="-3.487665017471254"><ele>1050.4</ele><time>2026-05-03T08:44:58Z</time></trkpt><trkpt lat="42.095951739970786" lon="-3.4875457709032767"><ele>1049.6</ele><time>2026-05-03T08:44:59Z</time></trkpt><trkpt lat="42.09589455639795" lon="-3.487423191280351"><ele>1048.8</ele><time>2026-05-03T08:45:00Z</time></trkpt><trkpt lat="42.09583168278835" lon="-3.487304691142592"><ele>1048.0</ele><time>2026-05-03T08:45:01Z</time></trkpt><trkpt lat="42.09577019601082" lon="-3.4871830727654"><ele>1049.0</ele><time>2026-05-03T08:45:02Z</time></trkpt><trkpt lat="42.095709360792085" lon="-3.4870622996700256"><ele>1050.0</ele><time>2026-05-03T08:45:03Z</time></trkpt><trkpt lat="42.09564313056513" lon="-3.4869495641750294"><ele>1051.0</ele><time>2026-05-03T08:45:04Z</time></trkpt><trkpt lat="42.09558206153106" lon="-3.4868236189398574"><ele>1052.0</ele><time>2026-05-03T08:45:05Z</time></trkpt><trkpt lat="42.09551707086432" lon="-3.4867036435308476"><ele>1053.0</ele><time>2026-05-03T08:45:06Z</time></trkpt><trkpt lat="42.09545590433495" lon="-3.486584936973555"><ele>1053.0</ele><time>2026-05-03T08:45:07Z</time></trkpt><trkpt lat="42.09539538283758" lon="-3.4864652246172168"><ele>1053.0</ele><time>2026-05-03T08:45:08Z</time></trkpt><trkpt lat="42.09533133955022" lon="-3.486346399417216"><ele>1053.0</ele><time>2026-05-03T08:45:09Z</time></trkpt><trkpt lat="42.095266923136045" lon="-3.4862268221026778"><ele>1053.0</ele><time>2026-05-03T08:45:10Z</time></trkpt><trkpt lat="42.095203919228524" lon="-3.4861091101642336"><ele>1053.0</ele><time>2026-05-03T08:45:11Z</time></trkpt><trkpt lat="42.09514280613848" lon="-3.4859761138752954"><ele>1052.8</ele><time>2026-05-03T08:45:12Z</time></trkpt><trkpt lat="42.09507111163759" lon="-3.4858590063512125"><ele>1052.6</ele><time>2026-05-03T08:45:13Z</time></trkpt><trkpt lat="42.09499528115487" lon="-3.485714458846811"><ele>1052.4</ele><time>2026-05-03T08:45:14Z</time></trkpt><trkpt lat="42.094958130441185" lon="-3.4856096156643304"><ele>1052.2</ele><time>2026-05-03T08:45:15Z</time></trkpt><trkpt lat="42.09489127937085" lon="-3.4854903389246497"><ele>1052.0</ele><time>2026-05-03T08:45:16Z</time></trkpt><trkpt lat="42.09482584223985" lon="-3.4853702280977084"><ele>1050.8</ele><time>2026-05-03T08:45:17Z</time></trkpt><trkpt lat="42.09476191490304" lon="-3.4852520546415096"><ele>1049.6</ele><time>2026-05-03T08:45:18Z</time></trkpt><trkpt lat="42.09469560101942" lon="-3.485131432774457"><ele>1048.3999999999999</ele><time>2026-05-03T08:45:19Z</time></trkpt><trkpt lat="42.094632990066835" lon="-3.4850102766452262"><ele>1047.2</ele><time>2026-05-03T08:45:20Z</time></trkpt><trkpt lat="42.094568997014136" lon="-3.4848881929671336"><ele>1046.0</ele><time>2026-05-03T08:45:21Z</time></trkpt><trkpt lat="42.09450382426404" lon="-3.4847675886010827"><ele>1046.0</ele><time>2026-05-03T08:45:22Z</time></trkpt><trkpt lat="42.09444156801044" lon="-3.4846471493666993"><ele>1046.0</ele><time>2026-05-03T08:45:23Z</time></trkpt><trkpt lat="42.09437764386233" lon="-3.4845263103273596"><ele>1046.0</ele><time>2026-05-03T08:45:24Z</time></trkpt><trkpt lat="42.09431843124659" lon="-3.4844047003434295"><ele>1046.0</ele><time>2026-05-03T08:45:25Z</time></trkpt><trkpt lat="42.094257446901494" lon="-3.4842837429422944"><ele>1046.0</ele><time>2026-05-03T08:45:26Z</time></trkpt><trkpt lat="42.09419183800113" lon="-3.4841618412669035"><ele>1045.6</ele><time>2026-05-03T08:45:27Z</time></trkpt><trkpt lat="42.09412643398162" lon="-3.484043018496938"><ele>1045.1999999999998</ele><time>2026-05-03T08:45:28Z</time></trkpt><trkpt lat="42.09406462655452" lon="-3.4839222516348674"><ele>1044.8000000000002</ele><time>2026-05-03T08:45:29Z</time></trkpt><trkpt lat="42.094002485736794" lon="-3.4838001648295642"><ele>1044.4</ele><time>2026-05-03T08:45:30Z</time></trkpt><trkpt lat="42.093940449345425" lon="-3.483681291631019"><ele>1044.0</ele><time>2026-05-03T08:45:31Z</time></trkpt><trkpt lat="42.093878467610395" lon="-3.483562158588977"><ele>1044.0</ele><time>2026-05-03T08:45:32Z</time></trkpt><trkpt lat="42.09381641069761" lon="-3.4834442866811943"><ele>1044.0</ele><time>2026-05-03T08:45:33Z</time></trkpt><trkpt lat="42.09375633593779" lon="-3.4833290055011386"><ele>1044.0</ele><time>2026-05-03T08:45:34Z</time></trkpt><trkpt lat="42.09369289972485" lon="-3.483211479071832"><ele>1044.0</ele><time>2026-05-03T08:45:35Z</time></trkpt><trkpt lat="42.09363234004911" lon="-3.483096237802803"><ele>1044.0</ele><time>2026-05-03T08:45:36Z</time></trkpt><trkpt lat="42.09356999290722" lon="-3.4829766967696245"><ele>1044.8</ele><time>2026-05-03T08:45:37Z</time></trkpt><trkpt lat="42.09350849343713" lon="-3.482863681568476"><ele>1045.6000000000001</ele><time>2026-05-03T08:45:38Z</time></trkpt><trkpt lat="42.093446724349945" lon="-3.482749914893286"><ele>1046.4</ele><time>2026-05-03T08:45:39Z</time></trkpt><trkpt lat="42.09338913351005" lon="-3.4826350682306977"><ele>1047.2</ele><time>2026-05-03T08:45:40Z</time></trkpt><trkpt lat="42.09333005487493" lon="-3.4825192057421153"><ele>1048.0</ele><time>2026-05-03T08:45:41Z</time></trkpt><trkpt lat="42.09327154593142" lon="-3.4824017020765585"><ele>1048.0</ele><time>2026-05-03T08:45:42Z</time></trkpt><trkpt lat="42.093211550388276" lon="-3.482283024704737"><ele>1048.0</ele><time>2026-05-03T08:45:43Z</time></trkpt><trkpt lat="42.093150700814185" lon="-3.482162283561526"><ele>1048.0</ele><time>2026-05-03T08:45:44Z</time></trkpt><trkpt lat="42.0930903725117" lon="-3.4820423283180215"><ele>1048.0</ele><time>2026-05-03T08:45:45Z</time></trkpt><trkpt lat="42.093030814692526" lon="-3.4819233641591447"><ele>1048.0</ele><time>2026-05-03T08:45:46Z</time></trkpt><trkpt lat="42.092973904971295" lon="-3.481803895768423"><ele>1048.0</ele><time>2026-05-03T08:45:47Z</time></trkpt><trkpt lat="42.092917570896454" lon="-3.481683687422072"><ele>1048.0</ele><time>2026-05-03T08:45:48Z</time></trkpt><trkpt lat="42.09286177638395" lon="-3.481558039040734"><ele>1048.0</ele><time>2026-05-03T08:45:49Z</time></trkpt><trkpt lat="42.092810029694064" lon="-3.4814316291281795"><ele>1048.0</ele><time>2026-05-03T08:45:50Z</time></trkpt><trkpt lat="42.092759076374435" lon="-3.481302272940704"><ele>1048.0</ele><time>2026-05-03T08:45:51Z</time></trkpt><trkpt lat="42.09271212609697" lon="-3.4811697636396413"><ele>1047.6</ele><time>2026-05-03T08:45:52Z</time></trkpt><trkpt lat="42.092667270127215" lon="-3.4810366460665105"><ele>1047.1999999999998</ele><time>2026-05-03T08:45:53Z</time></trkpt><trkpt lat="42.092623659902465" lon="-3.4809043935126223"><ele>1046.8</ele><time>2026-05-03T08:45:54Z</time></trkpt><trkpt lat="42.09258303685145" lon="-3.480769933465113"><ele>1046.3999999999999</ele><time>2026-05-03T08:45:55Z</time></trkpt><trkpt lat="42.092546867198315" lon="-3.480634763582097"><ele>1046.0</ele><time>2026-05-03T08:45:56Z</time></trkpt><trkpt lat="42.09251235416873" lon="-3.4804974200241423"><ele>1045.3999999999999</ele><time>2026-05-03T08:45:57Z</time></trkpt><trkpt lat="42.09248033024405" lon="-3.4803599496850492"><ele>1044.8</ele><time>2026-05-03T08:45:58Z</time></trkpt><trkpt lat="42.09245103120232" lon="-3.4802183527617085"><ele>1044.1999999999998</ele><time>2026-05-03T08:45:59Z</time></trkpt><trkpt lat="42.09242090258652" lon="-3.480078500197043"><ele>1043.6</ele><time>2026-05-03T08:46:00Z</time></trkpt><trkpt lat="42.09239259089212" lon="-3.4799373354064644"><ele>1043.0</ele><time>2026-05-03T08:46:01Z</time></trkpt><trkpt lat="42.09236913880444" lon="-3.4797931984802135"><ele>1042.6</ele><time>2026-05-03T08:46:02Z</time></trkpt><trkpt lat="42.092346245141584" lon="-3.479641577105986"><ele>1042.1999999999998</ele><time>2026-05-03T08:46:03Z</time></trkpt><trkpt lat="42.09232159361483" lon="-3.4794939676548964"><ele>1041.8</ele><time>2026-05-03T08:46:04Z</time></trkpt><trkpt lat="42.09230718209829" lon="-3.4793522191924655"><ele>1041.3999999999999</ele><time>2026-05-03T08:46:05Z</time></trkpt><trkpt lat="42.092293334252304" lon="-3.4792066407772153"><ele>1041.0</ele><time>2026-05-03T08:46:06Z</time></trkpt><trkpt lat="42.092291151551755" lon="-3.4790590297044948"><ele>1040.2</ele><time>2026-05-03T08:46:07Z</time></trkpt><trkpt lat="42.092283905425" lon="-3.478913767749844"><ele>1039.3999999999999</ele><time>2026-05-03T08:46:08Z</time></trkpt><trkpt lat="42.092275020692874" lon="-3.4787686944701695"><ele>1038.6</ele><time>2026-05-03T08:46:09Z</time></trkpt><trkpt lat="42.09227033402808" lon="-3.478620340282602"><ele>1037.8</ele><time>2026-05-03T08:46:10Z</time></trkpt><trkpt lat="42.092273609241104" lon="-3.4784725884639394"><ele>1037.0</ele><time>2026-05-03T08:46:11Z</time></trkpt><trkpt lat="42.09227709839465" lon="-3.478323544008202"><ele>1037.0</ele><time>2026-05-03T08:46:12Z</time></trkpt><trkpt lat="42.09228133556618" lon="-3.478174322681176"><ele>1037.0</ele><time>2026-05-03T08:46:13Z</time></trkpt><trkpt lat="42.09228873523825" lon="-3.478029467963449"><ele>1037.0</ele><time>2026-05-03T08:46:14Z</time></trkpt><trkpt lat="42.092296709045684" lon="-3.4778871633369683"><ele>1037.0</ele><time>2026-05-03T08:46:15Z</time></trkpt><trkpt lat="42.09230529774305" lon="-3.4777427684751223"><ele>1037.0</ele><time>2026-05-03T08:46:16Z</time></trkpt><trkpt lat="42.09231887564313" lon="-3.4775980460877305"><ele>1036.8</ele><time>2026-05-03T08:46:17Z</time></trkpt><trkpt lat="42.092342005726834" lon="-3.4774531313868406"><ele>1036.6</ele><time>2026-05-03T08:46:18Z</time></trkpt><trkpt lat="42.092364433426496" lon="-3.477310914484819"><ele>1036.3999999999999</ele><time>2026-05-03T08:46:19Z</time></trkpt><trkpt lat="42.09238654434573" lon="-3.477166469441498"><ele>1036.2</ele><time>2026-05-03T08:46:20Z</time></trkpt><trkpt lat="42.09241452781121" lon="-3.47702659540558"><ele>1036.0</ele><time>2026-05-03T08:46:21Z</time></trkpt><trkpt lat="42.09244085040614" lon="-3.476884734023722"><ele>1034.75</ele><time>2026-05-03T08:46:22.001Z</time></trkpt><trkpt lat="42.09246933041445" lon="-3.4767402522292365"><ele>1033.5</ele><time>2026-05-03T08:46:23.001Z</time></trkpt><trkpt lat="42.09250278311642" lon="-3.4765998526601147"><ele>1032.25</ele><time>2026-05-03T08:46:24.001Z</time></trkpt><trkpt lat="42.09254798804" lon="-3.476459735674895"><ele>1031.0</ele><time>2026-05-03T08:46:25.001Z</time></trkpt><trkpt lat="42.092583179416216" lon="-3.476298671031059"><ele>1029.8</ele><time>2026-05-03T08:46:26.001Z</time></trkpt><trkpt lat="42.09261169966618" lon="-3.476181390309132"><ele>1028.6</ele><time>2026-05-03T08:46:27.001Z</time></trkpt><trkpt lat="42.092647243967335" lon="-3.4760284293352597"><ele>1027.4</ele><time>2026-05-03T08:46:28.001Z</time></trkpt><trkpt lat="42.09268156995553" lon="-3.4758835048929986"><ele>1026.2</ele><time>2026-05-03T08:46:29Z</time></trkpt><trkpt lat="42.09271819809016" lon="-3.475737023972117"><ele>1025.0</ele><time>2026-05-03T08:46:30Z</time></trkpt><trkpt lat="42.09275107905681" lon="-3.475597103493525"><ele>1025.0</ele><time>2026-05-03T08:46:31Z</time></trkpt><trkpt lat="42.09278758490851" lon="-3.4754576557186687"><ele>1025.0</ele><time>2026-05-03T08:46:32Z</time></trkpt><trkpt lat="42.09281060699418" lon="-3.4753177577581966"><ele>1025.0</ele><time>2026-05-03T08:46:33Z</time></trkpt><trkpt lat="42.09285020694015" lon="-3.475181901171241"><ele>1025.0</ele><time>2026-05-03T08:46:34Z</time></trkpt><trkpt lat="42.09289404960901" lon="-3.475056398173302"><ele>1025.0</ele><time>2026-05-03T08:46:35Z</time></trkpt><trkpt lat="42.09291960615119" lon="-3.4749139578973507"><ele>1025.2</ele><time>2026-05-03T08:46:36Z</time></trkpt><trkpt lat="42.09293946107116" lon="-3.474763639885615"><ele>1025.4</ele><time>2026-05-03T08:46:37Z</time></trkpt><trkpt lat="42.09297615927986" lon="-3.4746261474450577"><ele>1025.6</ele><time>2026-05-03T08:46:38Z</time></trkpt><trkpt lat="42.09301029080242" lon="-3.4744871463660645"><ele>1025.8</ele><time>2026-05-03T08:46:39Z</time></trkpt><trkpt lat="42.09304310741067" lon="-3.4743506294742144"><ele>1026.0</ele><time>2026-05-03T08:46:40Z</time></trkpt><trkpt lat="42.093078041218455" lon="-3.474213511237669"><ele>1026.0</ele><time>2026-05-03T08:46:41Z</time></trkpt><trkpt lat="42.09311087307187" lon="-3.4740784446876356"><ele>1026.0</ele><time>2026-05-03T08:46:42Z</time></trkpt><trkpt lat="42.09314301753575" lon="-3.4739447783589754"><ele>1026.0</ele><time>2026-05-03T08:46:43Z</time></trkpt><trkpt lat="42.093178550682836" lon="-3.4738081563555823"><ele>1026.0</ele><time>2026-05-03T08:46:44Z</time></trkpt><trkpt lat="42.09321202036245" lon="-3.4736675948646614"><ele>1026.0</ele><time>2026-05-03T08:46:45Z</time></trkpt><trkpt lat="42.093242097075965" lon="-3.473529930694372"><ele>1026.0</ele><time>2026-05-03T08:46:46Z</time></trkpt><trkpt lat="42.093273709424885" lon="-3.4733955983462974"><ele>1026.0</ele><time>2026-05-03T08:46:47Z</time></trkpt><trkpt lat="42.09330643142531" lon="-3.473258808384195"><ele>1026.0</ele><time>2026-05-03T08:46:48Z</time></trkpt><trkpt lat="42.093339929359296" lon="-3.4731206489147444"><ele>1026.0</ele><time>2026-05-03T08:46:49Z</time></trkpt><trkpt lat="42.093373114201725" lon="-3.4729854207136808"><ele>1026.0</ele><time>2026-05-03T08:46:50Z</time></trkpt><trkpt lat="42.093407667071595" lon="-3.4728472866860796"><ele>1026.0</ele><time>2026-05-03T08:46:51Z</time></trkpt><trkpt lat="42.09344116910916" lon="-3.472710285531219"><ele>1026.0</ele><time>2026-05-03T08:46:52Z</time></trkpt><trkpt lat="42.093474198066104" lon="-3.472572348774675"><ele>1026.0</ele><time>2026-05-03T08:46:53Z</time></trkpt><trkpt lat="42.09350398240012" lon="-3.472435359058366"><ele>1026.0</ele><time>2026-05-03T08:46:54Z</time></trkpt><trkpt lat="42.093533154432315" lon="-3.472297482599291"><ele>1026.0</ele><time>2026-05-03T08:46:55Z</time></trkpt><trkpt lat="42.093562645365914" lon="-3.4721613322517952"><ele>1025.8</ele><time>2026-05-03T08:46:56Z</time></trkpt><trkpt lat="42.093595749866466" lon="-3.4720226074996074"><ele>1025.6</ele><time>2026-05-03T08:46:57Z</time></trkpt><trkpt lat="42.09362397159297" lon="-3.471884532996656"><ele>1025.4</ele><time>2026-05-03T08:46:58Z</time></trkpt><trkpt lat="42.09364999474078" lon="-3.471742682344709"><ele>1025.2</ele><time>2026-05-03T08:46:59Z</time></trkpt><trkpt lat="42.09367630561085" lon="-3.471600993730415"><ele>1025.0</ele><time>2026-05-03T08:47:00Z</time></trkpt><trkpt lat="42.09369998793232" lon="-3.4714609106401704"><ele>1025.0</ele><time>2026-05-03T08:47:01Z</time></trkpt><trkpt lat="42.09371889212876" lon="-3.4713185877263473"><ele>1025.0</ele><time>2026-05-03T08:47:02Z</time></trkpt><trkpt lat="42.09373652402777" lon="-3.4711775873851938"><ele>1025.0</ele><time>2026-05-03T08:47:03Z</time></trkpt><trkpt lat="42.093754112548986" lon="-3.4710340946380294"><ele>1025.0</ele><time>2026-05-03T08:47:04Z</time></trkpt><trkpt lat="42.093769046559466" lon="-3.470886604066282"><ele>1025.0</ele><time>2026-05-03T08:47:05Z</time></trkpt><trkpt lat="42.09377720469653" lon="-3.470739651986861"><ele>1024.8</ele><time>2026-05-03T08:47:06Z</time></trkpt><trkpt lat="42.09378489627516" lon="-3.470591786804959"><ele>1024.6</ele><time>2026-05-03T08:47:07Z</time></trkpt><trkpt lat="42.09378797142058" lon="-3.470444358718768"><ele>1024.4</ele><time>2026-05-03T08:47:08Z</time></trkpt><trkpt lat="42.093788613903605" lon="-3.4702960547267203"><ele>1024.2</ele><time>2026-05-03T08:47:09Z</time></trkpt><trkpt lat="42.09378482123811" lon="-3.4701483613959248"><ele>1024.0</ele><time>2026-05-03T08:47:10Z</time></trkpt><trkpt lat="42.093781072216565" lon="-3.470000509450248"><ele>1023.2</ele><time>2026-05-03T08:47:11Z</time></trkpt><trkpt lat="42.093774508422236" lon="-3.4698515161438666"><ele>1022.4000000000001</ele><time>2026-05-03T08:47:12Z</time></trkpt><trkpt lat="42.09376554557674" lon="-3.46970636352384"><ele>1021.6</ele><time>2026-05-03T08:47:13Z</time></trkpt><trkpt lat="42.09375056448546" lon="-3.4695611999736204"><ele>1020.8</ele><time>2026-05-03T08:47:14Z</time></trkpt><trkpt lat="42.09373488987386" lon="-3.4694154642360187"><ele>1020.0</ele><time>2026-05-03T08:47:15Z</time></trkpt><trkpt lat="42.09371682158673" lon="-3.46927082824041"><ele>1019.6</ele><time>2026-05-03T08:47:16Z</time></trkpt><trkpt lat="42.09369636090172" lon="-3.4691277382388988"><ele>1019.2</ele><time>2026-05-03T08:47:17Z</time></trkpt><trkpt lat="42.09366908712919" lon="-3.4689858581266986"><ele>1018.8</ele><time>2026-05-03T08:47:18Z</time></trkpt><trkpt lat="42.09364455791152" lon="-3.468844051476863"><ele>1018.4</ele><time>2026-05-03T08:47:19Z</time></trkpt><trkpt lat="42.09361507471238" lon="-3.4687028197866243"><ele>1018.0</ele><time>2026-05-03T08:47:20Z</time></trkpt><trkpt lat="42.09358213037412" lon="-3.4685625734183487"><ele>1017.4</ele><time>2026-05-03T08:47:21Z</time></trkpt><trkpt lat="42.09354480458596" lon="-3.4684256156976536"><ele>1016.8</ele><time>2026-05-03T08:47:22Z</time></trkpt><trkpt lat="42.09350355221155" lon="-3.4682809352328645"><ele>1016.2</ele><time>2026-05-03T08:47:23Z</time></trkpt><trkpt lat="42.093462306892356" lon="-3.4681507735743713"><ele>1015.6</ele><time>2026-05-03T08:47:24Z</time></trkpt><trkpt lat="42.09341804746242" lon="-3.468016428247778"><ele>1015.0</ele><time>2026-05-03T08:47:25Z</time></trkpt><trkpt lat="42.09337097968445" lon="-3.4678832756353684"><ele>1013.75</ele><time>2026-05-03T08:47:26Z</time></trkpt><trkpt lat="42.093321123284426" lon="-3.4677515322629127"><ele>1012.5</ele><time>2026-05-03T08:47:27Z</time></trkpt><trkpt lat="42.09327159611102" lon="-3.467614576556861"><ele>1011.25</ele><time>2026-05-03T08:47:28Z</time></trkpt><trkpt lat="42.093210346245556" lon="-3.4674714491151386"><ele>1010.0</ele><time>2026-05-03T08:47:29Z</time></trkpt><trkpt lat="42.093102150552596" lon="-3.4673137480227894"><ele>1010.0</ele><time>2026-05-03T08:47:30Z</time></trkpt><trkpt lat="42.0930292807809" lon="-3.4671933389177565"><ele>1010.0</ele><time>2026-05-03T08:47:31Z</time></trkpt><trkpt lat="42.092976555569436" lon="-3.466997786797354"><ele>1010.0</ele><time>2026-05-03T08:47:33Z</time></trkpt><trkpt lat="42.09291498862464" lon="-3.466865846222673"><ele>1010.0</ele><time>2026-05-03T08:47:34Z</time></trkpt><trkpt lat="42.092857555111216" lon="-3.466743460233906"><ele>1009.4</ele><time>2026-05-03T08:47:35Z</time></trkpt><trkpt lat="42.09279439002239" lon="-3.4666150776599896"><ele>1008.8</ele><time>2026-05-03T08:47:36Z</time></trkpt><trkpt lat="42.09273731766647" lon="-3.4664913513946507"><ele>1008.2</ele><time>2026-05-03T08:47:37Z</time></trkpt><trkpt lat="42.0926761128049" lon="-3.4663716166034764"><ele>1007.6</ele><time>2026-05-03T08:47:38Z</time></trkpt><trkpt lat="42.09261308231953" lon="-3.4662439772836318"><ele>1007.0</ele><time>2026-05-03T08:47:39Z</time></trkpt><trkpt lat="42.09255520594801" lon="-3.4661244295484406"><ele>1006.4000000000001</ele><time>2026-05-03T08:47:40Z</time></trkpt><trkpt lat="42.09249079416607" lon="-3.4659975018352127"><ele>1005.8000000000001</ele><time>2026-05-03T08:47:41Z</time></trkpt><trkpt lat="42.09243181229296" lon="-3.46587470013702"><ele>1005.2</ele><time>2026-05-03T08:47:42Z</time></trkpt><trkpt lat="42.0923733145285" lon="-3.465761804738447"><ele>1004.6</ele><time>2026-05-03T08:47:43Z</time></trkpt><trkpt lat="42.09231557874979" lon="-3.4656408893326036"><ele>1004.0</ele><time>2026-05-03T08:47:44Z</time></trkpt><trkpt lat="42.092268026951885" lon="-3.465534917188567"><ele>1003.0</ele><time>2026-05-03T08:47:45Z</time></trkpt><trkpt lat="42.092122903398035" lon="-3.4652824412633967"><ele>1002.0</ele><time>2026-05-03T08:47:47Z</time></trkpt><trkpt lat="42.0920567924773" lon="-3.465164069155118"><ele>1001.0</ele><time>2026-05-03T08:47:48Z</time></trkpt><trkpt lat="42.09198343653957" lon="-3.465046072196136"><ele>1001.0</ele><time>2026-05-03T08:47:49Z</time></trkpt><trkpt lat="42.09192488823876" lon="-3.4649286366196494"><ele>1000.9999999999999</ele><time>2026-05-03T08:47:50Z</time></trkpt><trkpt lat="42.09186298355171" lon="-3.464801349353467"><ele>1000.9999999999999</ele><time>2026-05-03T08:47:51Z</time></trkpt><trkpt lat="42.09179670384318" lon="-3.4646775650007178"><ele>1001.0</ele><time>2026-05-03T08:47:52Z</time></trkpt><trkpt lat="42.0917397511882" lon="-3.4645572861385636"><ele>1001.0</ele><time>2026-05-03T08:47:53Z</time></trkpt><trkpt lat="42.09167598697562" lon="-3.464417574489725"><ele>1000.8</ele><time>2026-05-03T08:47:54Z</time></trkpt><trkpt lat="42.09161387029479" lon="-3.4642932497500514"><ele>1000.5999999999999</ele><time>2026-05-03T08:47:55Z</time></trkpt><trkpt lat="42.09155077696947" lon="-3.464167922608574"><ele>1000.4</ele><time>2026-05-03T08:47:56Z</time></trkpt><trkpt lat="42.09148571579435" lon="-3.464047398052641"><ele>1000.2</ele><time>2026-05-03T08:47:57Z</time></trkpt><trkpt lat="42.091422196086114" lon="-3.463925470787735"><ele>1000.0</ele><time>2026-05-03T08:47:58.001Z</time></trkpt><trkpt lat="42.09136152998317" lon="-3.4637932497607493"><ele>999.8</ele><time>2026-05-03T08:47:59.001Z</time></trkpt><trkpt lat="42.0913026997707" lon="-3.463672369924108"><ele>999.6</ele><time>2026-05-03T08:48:00.001Z</time></trkpt><trkpt lat="42.09124864584059" lon="-3.463531149693736"><ele>999.4000000000001</ele><time>2026-05-03T08:48:01.001Z</time></trkpt><trkpt lat="42.09119010118717" lon="-3.4633751013915632"><ele>999.2</ele><time>2026-05-03T08:48:02.001Z</time></trkpt><trkpt lat="42.09112569998004" lon="-3.4632942872205352"><ele>999.0</ele><time>2026-05-03T08:48:03.001Z</time></trkpt><trkpt lat="42.091070810405135" lon="-3.4631717726220823"><ele>999.0</ele><time>2026-05-03T08:48:04.001Z</time></trkpt><trkpt lat="42.09101552043825" lon="-3.463043732712455"><ele>999.0000000000001</ele><time>2026-05-03T08:48:05.001Z</time></trkpt><trkpt lat="42.090957207924475" lon="-3.462920363021271"><ele>999.0000000000001</ele><time>2026-05-03T08:48:06.001Z</time></trkpt><trkpt lat="42.09089969280157" lon="-3.462796420502385"><ele>999.0</ele><time>2026-05-03T08:48:07.001Z</time></trkpt><trkpt lat="42.090840499795604" lon="-3.462669855087197"><ele>999.0</ele><time>2026-05-03T08:48:08.001Z</time></trkpt><trkpt lat="42.09078240110309" lon="-3.462548698805621"><ele>998.8000000000001</ele><time>2026-05-03T08:48:09.001Z</time></trkpt><trkpt lat="42.090720997140295" lon="-3.4624250626761586"><ele>998.6000000000001</ele><time>2026-05-03T08:48:10.001Z</time></trkpt><trkpt lat="42.09065909997131" lon="-3.462301223900195"><ele>998.4</ele><time>2026-05-03T08:48:11.001Z</time></trkpt><trkpt lat="42.09059657922877" lon="-3.4621796514212893"><ele>998.2</ele><time>2026-05-03T08:48:12.001Z</time></trkpt><trkpt lat="42.090535838014205" lon="-3.46205760099379"><ele>998.0</ele><time>2026-05-03T08:48:13.001Z</time></trkpt><trkpt lat="42.09047514966343" lon="-3.461932746081464"><ele>998.0</ele><time>2026-05-03T08:48:14.001Z</time></trkpt><trkpt lat="42.090411956810726" lon="-3.461811500838395"><ele>998.0</ele><time>2026-05-03T08:48:15.001Z</time></trkpt><trkpt lat="42.09035061439099" lon="-3.461687406997019"><ele>998.0</ele><time>2026-05-03T08:48:16.001Z</time></trkpt><trkpt lat="42.0902884894886" lon="-3.46156447908837"><ele>998.0</ele><time>2026-05-03T08:48:17.001Z</time></trkpt><trkpt lat="42.09022479224676" lon="-3.4614444075504176"><ele>998.0</ele><time>2026-05-03T08:48:18.001Z</time></trkpt><trkpt lat="42.09015990028411" lon="-3.461321503392007"><ele>998.0</ele><time>2026-05-03T08:48:19.001Z</time></trkpt><trkpt lat="42.09009689795166" lon="-3.46119981008666"><ele>998.0</ele><time>2026-05-03T08:48:20.001Z</time></trkpt><trkpt lat="42.09003334599137" lon="-3.461076899578279"><ele>998.0</ele><time>2026-05-03T08:48:21.001Z</time></trkpt><trkpt lat="42.08996824553436" lon="-3.460956242950479"><ele>998.0</ele><time>2026-05-03T08:48:22.001Z</time></trkpt><trkpt lat="42.08990282989627" lon="-3.4608372382008175"><ele>998.0</ele><time>2026-05-03T08:48:23.001Z</time></trkpt><trkpt lat="42.08983622408294" lon="-3.4607170297031553"><ele>998.0</ele><time>2026-05-03T08:48:24.001Z</time></trkpt><trkpt lat="42.08976933097127" lon="-3.4605957087960206"><ele>998.0</ele><time>2026-05-03T08:48:25.001Z</time></trkpt><trkpt lat="42.0897048489589" lon="-3.4604744494364574"><ele>998.0</ele><time>2026-05-03T08:48:26.001Z</time></trkpt><trkpt lat="42.089638070059856" lon="-3.4603544312604377"><ele>998.0</ele><time>2026-05-03T08:48:27.001Z</time></trkpt><trkpt lat="42.08957426859532" lon="-3.460234951391618"><ele>998.0</ele><time>2026-05-03T08:48:28.001Z</time></trkpt><trkpt lat="42.08950875798123" lon="-3.4601134313234208"><ele>997.8</ele><time>2026-05-03T08:48:29.001Z</time></trkpt><trkpt lat="42.08944338573895" lon="-3.4599936921432772"><ele>997.5999999999999</ele><time>2026-05-03T08:48:30.001Z</time></trkpt><trkpt lat="42.08937869803958" lon="-3.459875003571336"><ele>997.4000000000001</ele><time>2026-05-03T08:48:31.001Z</time></trkpt><trkpt lat="42.08931378612767" lon="-3.459756635532691"><ele>997.2</ele><time>2026-05-03T08:48:32.001Z</time></trkpt><trkpt lat="42.089248199246164" lon="-3.4596402644499586"><ele>997.0</ele><time>2026-05-03T08:48:33.001Z</time></trkpt><trkpt lat="42.089184126589835" lon="-3.4595222976435416"><ele>996.6</ele><time>2026-05-03T08:48:34.001Z</time></trkpt><trkpt lat="42.08911965682189" lon="-3.4594026063777354"><ele>996.2</ele><time>2026-05-03T08:48:35Z</time></trkpt><trkpt lat="42.08905547620012" lon="-3.4592809072038286"><ele>995.8</ele><time>2026-05-03T08:48:36Z</time></trkpt><trkpt lat="42.08899155676732" lon="-3.4591605644966297"><ele>995.4</ele><time>2026-05-03T08:48:37Z</time></trkpt><trkpt lat="42.08892634594911" lon="-3.4590414924996447"><ele>995.0</ele><time>2026-05-03T08:48:38Z</time></trkpt><trkpt lat="42.08886185410154" lon="-3.4589213485543597"><ele>995.0</ele><time>2026-05-03T08:48:39Z</time></trkpt><trkpt lat="42.08879678433933" lon="-3.458802686460659"><ele>995.0</ele><time>2026-05-03T08:48:40Z</time></trkpt><trkpt lat="42.08873446896732" lon="-3.458682869781406"><ele>995.0</ele><time>2026-05-03T08:48:41Z</time></trkpt><trkpt lat="42.08867003685353" lon="-3.4585661966150942"><ele>995.0</ele><time>2026-05-03T08:48:42Z</time></trkpt><trkpt lat="42.08860406339343" lon="-3.4584489079093292"><ele>995.0</ele><time>2026-05-03T08:48:43Z</time></trkpt><trkpt lat="42.088541873837" lon="-3.458327656498843"><ele>994.6</ele><time>2026-05-03T08:48:44Z</time></trkpt><trkpt lat="42.08848096481386" lon="-3.4582079199969353"><ele>994.2</ele><time>2026-05-03T08:48:45Z</time></trkpt><trkpt lat="42.088418197458175" lon="-3.458082373133544"><ele>993.8</ele><time>2026-05-03T08:48:46Z</time></trkpt><trkpt lat="42.08835433312939" lon="-3.4579646444929613"><ele>993.4</ele><time>2026-05-03T08:48:47Z</time></trkpt><trkpt lat="42.08828950244677" lon="-3.457846178312277"><ele>993.0</ele><time>2026-05-03T08:48:48Z</time></trkpt><trkpt lat="42.08821470561597" lon="-3.4577276273927358"><ele>992.25</ele><time>2026-05-03T08:48:49Z</time></trkpt><trkpt lat="42.08814419697055" lon="-3.457605043774118"><ele>991.5</ele><time>2026-05-03T08:48:50Z</time></trkpt><trkpt lat="42.08803439858665" lon="-3.457501562840739"><ele>990.75</ele><time>2026-05-03T08:48:51Z</time></trkpt><trkpt lat="42.08802074979595" lon="-3.4573599775897326"><ele>990.0</ele><time>2026-05-03T08:48:52Z</time></trkpt><trkpt lat="42.08795973585663" lon="-3.4572417577049905"><ele>989.4</ele><time>2026-05-03T08:48:53Z</time></trkpt><trkpt lat="42.08789118189604" lon="-3.4571181538769515"><ele>988.8</ele><time>2026-05-03T08:48:54Z</time></trkpt><trkpt lat="42.08782672270329" lon="-3.4569987570327454"><ele>988.2</ele><time>2026-05-03T08:48:55Z</time></trkpt><trkpt lat="42.08776112865979" lon="-3.4568755953295125"><ele>987.6</ele><time>2026-05-03T08:48:56Z</time></trkpt><trkpt lat="42.08770429665922" lon="-3.4567692592508683"><ele>987.0</ele><time>2026-05-03T08:48:57Z</time></trkpt><trkpt lat="42.08756935743152" lon="-3.4565182857739805"><ele>987.0</ele><time>2026-05-03T08:48:59Z</time></trkpt><trkpt lat="42.08750365809246" lon="-3.456397164318564"><ele>987.0</ele><time>2026-05-03T08:49:00Z</time></trkpt><trkpt lat="42.08743917440565" lon="-3.456278963205176"><ele>987.0</ele><time>2026-05-03T08:49:01Z</time></trkpt><trkpt lat="42.08737684484915" lon="-3.456160038747054"><ele>987.0</ele><time>2026-05-03T08:49:02Z</time></trkpt><trkpt lat="42.08731121316085" lon="-3.456039631053006"><ele>987.0</ele><time>2026-05-03T08:49:03Z</time></trkpt><trkpt lat="42.08724599678967" lon="-3.4559198250063212"><ele>986.4000000000001</ele><time>2026-05-03T08:49:04Z</time></trkpt><trkpt lat="42.08718096688009" lon="-3.455799506630433"><ele>985.8000000000001</ele><time>2026-05-03T08:49:05Z</time></trkpt><trkpt lat="42.08711653303572" lon="-3.455676388303165"><ele>985.2</ele><time>2026-05-03T08:49:06Z</time></trkpt><trkpt lat="42.08705039516396" lon="-3.455552775840909"><ele>984.6</ele><time>2026-05-03T08:49:07Z</time></trkpt><trkpt lat="42.08698482141696" lon="-3.4554303655332994"><ele>984.0</ele><time>2026-05-03T08:49:08Z</time></trkpt><trkpt lat="42.086918392028416" lon="-3.4553085498983807"><ele>983.8000000000001</ele><time>2026-05-03T08:49:09Z</time></trkpt><trkpt lat="42.08685283694481" lon="-3.455186662781863"><ele>983.6000000000001</ele><time>2026-05-03T08:49:10Z</time></trkpt><trkpt lat="42.08678648171583" lon="-3.4550637322241844"><ele>983.4</ele><time>2026-05-03T08:49:11Z</time></trkpt><trkpt lat="42.08672145763845" lon="-3.454942917304529"><ele>983.2</ele><time>2026-05-03T08:49:12Z</time></trkpt><trkpt lat="42.08665562333854" lon="-3.454821972221946"><ele>983.0</ele><time>2026-05-03T08:49:13Z</time></trkpt><trkpt lat="42.0865904739195" lon="-3.4547002912608646"><ele>983.0</ele><time>2026-05-03T08:49:14Z</time></trkpt><trkpt lat="42.086525359510894" lon="-3.4545798045436706"><ele>983.0</ele><time>2026-05-03T08:49:15Z</time></trkpt><trkpt lat="42.08646059889603" lon="-3.4544585276220343"><ele>983.0</ele><time>2026-05-03T08:49:16Z</time></trkpt><trkpt lat="42.086396325162156" lon="-3.4543415629390926"><ele>983.0</ele><time>2026-05-03T08:49:17Z</time></trkpt><trkpt lat="42.086330782966066" lon="-3.4542204564262917"><ele>983.0</ele><time>2026-05-03T08:49:18Z</time></trkpt><trkpt lat="42.08626539764141" lon="-3.4540998792359834"><ele>983.0</ele><time>2026-05-03T08:49:19Z</time></trkpt><trkpt lat="42.086201807773634" lon="-3.4539836837960936"><ele>983.0</ele><time>2026-05-03T08:49:20Z</time></trkpt><trkpt lat="42.086137247720636" lon="-3.45386776644443"><ele>983.0</ele><time>2026-05-03T08:49:21Z</time></trkpt><trkpt lat="42.086080835490414" lon="-3.4537540214593223"><ele>983.0</ele><time>2026-05-03T08:49:22Z</time></trkpt><trkpt lat="42.086015645338655" lon="-3.453636586749527"><ele>983.0</ele><time>2026-05-03T08:49:23Z</time></trkpt><trkpt lat="42.085952722642446" lon="-3.453516111984374"><ele>983.0</ele><time>2026-05-03T08:49:24Z</time></trkpt><trkpt lat="42.08588900691538" lon="-3.453397336676837"><ele>983.0</ele><time>2026-05-03T08:49:25Z</time></trkpt><trkpt lat="42.0858261781632" lon="-3.4532808499309016"><ele>983.0</ele><time>2026-05-03T08:49:26Z</time></trkpt><trkpt lat="42.08576144237262" lon="-3.4531601814857296"><ele>983.0</ele><time>2026-05-03T08:49:27Z</time></trkpt><trkpt lat="42.085697561693635" lon="-3.4530443971631173"><ele>983.0</ele><time>2026-05-03T08:49:28Z</time></trkpt><trkpt lat="42.085633044874875" lon="-3.4529265858862646"><ele>982.8</ele><time>2026-05-03T08:49:29Z</time></trkpt><trkpt lat="42.08556834919403" lon="-3.452809643419628"><ele>982.5999999999999</ele><time>2026-05-03T08:49:30Z</time></trkpt><trkpt lat="42.08550494493184" lon="-3.452688777844961"><ele>982.4000000000001</ele><time>2026-05-03T08:49:31Z</time></trkpt><trkpt lat="42.085441314423456" lon="-3.4525706133093306"><ele>982.2</ele><time>2026-05-03T08:49:32Z</time></trkpt><trkpt lat="42.085377601586515" lon="-3.4524574865049167"><ele>982.0</ele><time>2026-05-03T08:49:33Z</time></trkpt><trkpt lat="42.08531307899651" lon="-3.452336133606204"><ele>982.0</ele><time>2026-05-03T08:49:34Z</time></trkpt><trkpt lat="42.08524825105282" lon="-3.4522022998395703"><ele>982.0</ele><time>2026-05-03T08:49:35Z</time></trkpt><trkpt lat="42.08518212469761" lon="-3.452072315096671"><ele>982.0</ele><time>2026-05-03T08:49:36Z</time></trkpt><trkpt lat="42.085095854143155" lon="-3.4519428227104947"><ele>982.0</ele><time>2026-05-03T08:49:37Z</time></trkpt><trkpt lat="42.08504939501098" lon="-3.4518454526034157"><ele>981.8</ele><time>2026-05-03T08:49:38Z</time></trkpt><trkpt lat="42.08498320604105" lon="-3.451727393726284"><ele>981.6</ele><time>2026-05-03T08:49:39Z</time></trkpt><trkpt lat="42.084919378910755" lon="-3.4516090019362946"><ele>981.3999999999999</ele><time>2026-05-03T08:49:40Z</time></trkpt><trkpt lat="42.084856099485464" lon="-3.4514899869018953"><ele>981.1999999999999</ele><time>2026-05-03T08:49:41Z</time></trkpt><trkpt lat="42.084793462272856" lon="-3.4513726766035377"><ele>981.0</ele><time>2026-05-03T08:49:42Z</time></trkpt><trkpt lat="42.084730030282884" lon="-3.4512546079967428"><ele>981.8</ele><time>2026-05-03T08:49:43Z</time></trkpt><trkpt lat="42.08466553007152" lon="-3.4511396603928106"><ele>982.5999999999999</ele><time>2026-05-03T08:49:44Z</time></trkpt><trkpt lat="42.08460022178015" lon="-3.4510245011661382"><ele>983.4</ele><time>2026-05-03T08:49:45Z</time></trkpt><trkpt lat="42.084536696851224" lon="-3.450909184510473"><ele>984.2</ele><time>2026-05-03T08:49:46Z</time></trkpt><trkpt lat="42.08447438088658" lon="-3.4507954916893735"><ele>985.0</ele><time>2026-05-03T08:49:47Z</time></trkpt><trkpt lat="42.084411452919966" lon="-3.450678800463362"><ele>985.0</ele><time>2026-05-03T08:49:48Z</time></trkpt><trkpt lat="42.084348354244355" lon="-3.4505620865818267"><ele>985.0</ele><time>2026-05-03T08:49:49Z</time></trkpt><trkpt lat="42.08428702593463" lon="-3.450444613176726"><ele>985.0</ele><time>2026-05-03T08:49:50Z</time></trkpt><trkpt lat="42.08422514126871" lon="-3.450329799764698"><ele>985.0</ele><time>2026-05-03T08:49:51.001Z</time></trkpt><trkpt lat="42.084161546892915" lon="-3.450211381334979"><ele>985.0</ele><time>2026-05-03T08:49:52.001Z</time></trkpt><trkpt lat="42.08409574978191" lon="-3.4500916529226155"><ele>985.2</ele><time>2026-05-03T08:49:53.001Z</time></trkpt><trkpt lat="42.08403245160042" lon="-3.449971938459661"><ele>985.4</ele><time>2026-05-03T08:49:54.001Z</time></trkpt><trkpt lat="42.083969088958156" lon="-3.4498518074436726"><ele>985.5999999999999</ele><time>2026-05-03T08:49:55.001Z</time></trkpt><trkpt lat="42.08390485228834" lon="-3.449733327134867"><ele>985.8</ele><time>2026-05-03T08:49:56.001Z</time></trkpt><trkpt lat="42.08384310756865" lon="-3.449611365121817"><ele>986.0</ele><time>2026-05-03T08:49:57.001Z</time></trkpt><trkpt lat="42.08377809076642" lon="-3.449492186351296"><ele>985.5999999999999</ele><time>2026-05-03T08:49:58.001Z</time></trkpt><trkpt lat="42.08371368167378" lon="-3.4493697974133113"><ele>985.1999999999999</ele><time>2026-05-03T08:49:59.001Z</time></trkpt><trkpt lat="42.0836456628808" lon="-3.449251495474008"><ele>984.8000000000001</ele><time>2026-05-03T08:50:00.001Z</time></trkpt><trkpt lat="42.083578194021335" lon="-3.4491314165174343"><ele>984.4000000000001</ele><time>2026-05-03T08:50:01.001Z</time></trkpt><trkpt lat="42.08350506091505" lon="-3.449016211728836"><ele>984.0</ele><time>2026-05-03T08:50:02.001Z</time></trkpt><trkpt lat="42.08341165735938" lon="-3.448912186336149"><ele>983.0</ele><time>2026-05-03T08:50:03.001Z</time></trkpt><trkpt lat="42.08338629422021" lon="-3.448768020416821"><ele>982.0000000000001</ele><time>2026-05-03T08:50:04.001Z</time></trkpt><trkpt lat="42.08332091741825" lon="-3.4486484364382775"><ele>981.0000000000001</ele><time>2026-05-03T08:50:05.001Z</time></trkpt><trkpt lat="42.083256977872175" lon="-3.448528118743754"><ele>980.0</ele><time>2026-05-03T08:50:06.001Z</time></trkpt><trkpt lat="42.083192739906785" lon="-3.448407348458269"><ele>979.0</ele><time>2026-05-03T08:50:07.001Z</time></trkpt><trkpt lat="42.08312694827593" lon="-3.4482903662130133"><ele>979.0</ele><time>2026-05-03T08:50:08.001Z</time></trkpt><trkpt lat="42.08306031839096" lon="-3.448170467625605"><ele>979.0000000000001</ele><time>2026-05-03T08:50:09.001Z</time></trkpt><trkpt lat="42.08299655819254" lon="-3.4480493746025402"><ele>979.0000000000001</ele><time>2026-05-03T08:50:10.001Z</time></trkpt><trkpt lat="42.082930581371514" lon="-3.4479327679464973"><ele>979.0</ele><time>2026-05-03T08:50:11.001Z</time></trkpt><trkpt lat="42.0828642844929" lon="-3.4478119244450207"><ele>979.0</ele><time>2026-05-03T08:50:12.001Z</time></trkpt><trkpt lat="42.08279874913136" lon="-3.4476941529324985"><ele>978.6</ele><time>2026-05-03T08:50:13.001Z</time></trkpt><trkpt lat="42.08273076169616" lon="-3.4475796276465185"><ele>978.2</ele><time>2026-05-03T08:50:14.001Z</time></trkpt><trkpt lat="42.0826606368317" lon="-3.447461012860327"><ele>977.8000000000001</ele><time>2026-05-03T08:50:15.001Z</time></trkpt><trkpt lat="42.08258920579205" lon="-3.4473447514150486"><ele>977.4000000000001</ele><time>2026-05-03T08:50:16.001Z</time></trkpt><trkpt lat="42.08252192150264" lon="-3.447229344136873"><ele>977.0</ele><time>2026-05-03T08:50:17.001Z</time></trkpt><trkpt lat="42.082451655479524" lon="-3.447113953907474"><ele>976.8</ele><time>2026-05-03T08:50:18.001Z</time></trkpt><trkpt lat="42.082382341175645" lon="-3.4469998962474806"><ele>976.6</ele><time>2026-05-03T08:50:19.001Z</time></trkpt><trkpt lat="42.082311908277795" lon="-3.4468832738610864"><ele>976.3999999999999</ele><time>2026-05-03T08:50:20.001Z</time></trkpt><trkpt lat="42.082239771970755" lon="-3.44677174794648"><ele>976.1999999999999</ele><time>2026-05-03T08:50:21.001Z</time></trkpt><trkpt lat="42.08216750129033" lon="-3.446659348872134"><ele>976.0</ele><time>2026-05-03T08:50:22.001Z</time></trkpt><trkpt lat="42.082095543370734" lon="-3.446547752505529"><ele>976.0</ele><time>2026-05-03T08:50:23.001Z</time></trkpt><trkpt lat="42.082020596924" lon="-3.4464356519342565"><ele>975.9999999999999</ele><time>2026-05-03T08:50:24.001Z</time></trkpt><trkpt lat="42.08194642787439" lon="-3.4463253422910527"><ele>975.9999999999999</ele><time>2026-05-03T08:50:25.001Z</time></trkpt><trkpt lat="42.081871470794184" lon="-3.4462158259920805"><ele>976.0</ele><time>2026-05-03T08:50:26.001Z</time></trkpt><trkpt lat="42.081795283325086" lon="-3.4461076920879004"><ele>976.0</ele><time>2026-05-03T08:50:27.001Z</time></trkpt><trkpt lat="42.08171982555039" lon="-3.4460006185683074"><ele>975.1999999999999</ele><time>2026-05-03T08:50:28.001Z</time></trkpt><trkpt lat="42.08164405086179" lon="-3.4458953142054582"><ele>974.3999999999999</ele><time>2026-05-03T08:50:29.001Z</time></trkpt><trkpt lat="42.081571231986615" lon="-3.4457902854441085"><ele>973.6</ele><time>2026-05-03T08:50:30.001Z</time></trkpt><trkpt lat="42.08149547399526" lon="-3.445681569246149"><ele>972.8</ele><time>2026-05-03T08:50:31.001Z</time></trkpt><trkpt lat="42.08142019318218" lon="-3.4455741612644877"><ele>972.0</ele><time>2026-05-03T08:50:32.001Z</time></trkpt><trkpt lat="42.08134804697954" lon="-3.445463507550025"><ele>971.2</ele><time>2026-05-03T08:50:33.001Z</time></trkpt><trkpt lat="42.081273048455245" lon="-3.4453521331364687"><ele>970.4000000000001</ele><time>2026-05-03T08:50:34.001Z</time></trkpt><trkpt lat="42.08120055657037" lon="-3.4452400134160355"><ele>969.5999999999999</ele><time>2026-05-03T08:50:35.001Z</time></trkpt><trkpt lat="42.08113025999977" lon="-3.4451303224634975"><ele>968.8</ele><time>2026-05-03T08:50:36.001Z</time></trkpt><trkpt lat="42.08105705658922" lon="-3.445015026535092"><ele>968.0</ele><time>2026-05-03T08:50:37.001Z</time></trkpt><trkpt lat="42.0809859758834" lon="-3.444901006958366"><ele>968.0</ele><time>2026-05-03T08:50:38.001Z</time></trkpt><trkpt lat="42.080915419025445" lon="-3.4447844623381547"><ele>968.0</ele><time>2026-05-03T08:50:39.001Z</time></trkpt><trkpt lat="42.080844620575114" lon="-3.444666240280965"><ele>968.0</ele><time>2026-05-03T08:50:40.001Z</time></trkpt><trkpt lat="42.08077433617574" lon="-3.444546214596083"><ele>968.0</ele><time>2026-05-03T08:50:41Z</time></trkpt><trkpt lat="42.08070897905406" lon="-3.4444264644110847"><ele>968.0</ele><time>2026-05-03T08:50:42Z</time></trkpt><trkpt lat="42.08064000368069" lon="-3.444306765463123"><ele>968.0</ele><time>2026-05-03T08:50:43Z</time></trkpt><trkpt lat="42.080572162094406" lon="-3.4441904466631916"><ele>968.0</ele><time>2026-05-03T08:50:44Z</time></trkpt><trkpt lat="42.08050590151534" lon="-3.4440718484843464"><ele>968.0</ele><time>2026-05-03T08:50:45Z</time></trkpt><trkpt lat="42.08044199528761" lon="-3.4439512015910756"><ele>968.0</ele><time>2026-05-03T08:50:46Z</time></trkpt><trkpt lat="42.080376635508365" lon="-3.4438314561654653"><ele>968.0</ele><time>2026-05-03T08:50:47Z</time></trkpt><trkpt lat="42.08031133685194" lon="-3.443707683293004"><ele>968.0</ele><time>2026-05-03T08:50:48Z</time></trkpt><trkpt lat="42.080250234196356" lon="-3.44358156356317"><ele>968.0</ele><time>2026-05-03T08:50:49Z</time></trkpt><trkpt lat="42.08019106444948" lon="-3.443456423463683"><ele>968.0</ele><time>2026-05-03T08:50:50Z</time></trkpt><trkpt lat="42.08013177667643" lon="-3.4433313645647083"><ele>968.0</ele><time>2026-05-03T08:50:51Z</time></trkpt><trkpt lat="42.08007219005854" lon="-3.4432039641491623"><ele>968.0</ele><time>2026-05-03T08:50:52Z</time></trkpt><trkpt lat="42.080009904574496" lon="-3.443078362627535"><ele>967.5999999999999</ele><time>2026-05-03T08:50:53Z</time></trkpt><trkpt lat="42.07994724169539" lon="-3.442952865629275"><ele>967.1999999999999</ele><time>2026-05-03T08:50:54Z</time></trkpt><trkpt lat="42.079885980899675" lon="-3.442827765388962"><ele>966.8</ele><time>2026-05-03T08:50:55Z</time></trkpt><trkpt lat="42.07982303832185" lon="-3.442699934559961"><ele>966.4</ele><time>2026-05-03T08:50:56Z</time></trkpt><trkpt lat="42.079761635334634" lon="-3.4425755014531068"><ele>966.0</ele><time>2026-05-03T08:50:57Z</time></trkpt><trkpt lat="42.07970215221189" lon="-3.4424507354949765"><ele>966.0</ele><time>2026-05-03T08:50:58Z</time></trkpt><trkpt lat="42.07964035342507" lon="-3.442327870605216"><ele>965.9999999999999</ele><time>2026-05-03T08:50:59Z</time></trkpt><trkpt lat="42.07957912244593" lon="-3.4422029849174915"><ele>965.9999999999999</ele><time>2026-05-03T08:51:00Z</time></trkpt><trkpt lat="42.07951711165702" lon="-3.442080790535235"><ele>966.0</ele><time>2026-05-03T08:51:01Z</time></trkpt><trkpt lat="42.07945833641761" lon="-3.4419564552408035"><ele>966.0</ele><time>2026-05-03T08:51:02Z</time></trkpt><trkpt lat="42.079395246679994" lon="-3.441833224244936"><ele>965.5</ele><time>2026-05-03T08:51:03Z</time></trkpt><trkpt lat="42.0793364797596" lon="-3.441707773100166"><ele>965.0</ele><time>2026-05-03T08:51:04Z</time></trkpt><trkpt lat="42.07927543344426" lon="-3.441581055385764"><ele>964.5</ele><time>2026-05-03T08:51:05Z</time></trkpt><trkpt lat="42.07921111328219" lon="-3.441453312719792"><ele>964.0</ele><time>2026-05-03T08:51:06Z</time></trkpt><trkpt lat="42.07914646280043" lon="-3.4413268941676987"><ele>964.0</ele><time>2026-05-03T08:51:07Z</time></trkpt><trkpt lat="42.0790851087972" lon="-3.4411997334858153"><ele>964.0000000000001</ele><time>2026-05-03T08:51:08Z</time></trkpt><trkpt lat="42.07902504084164" lon="-3.441073366031209"><ele>964.0000000000001</ele><time>2026-05-03T08:51:09Z</time></trkpt><trkpt lat="42.078964935381286" lon="-3.4409501756887306"><ele>964.0</ele><time>2026-05-03T08:51:10Z</time></trkpt><trkpt lat="42.07890279027265" lon="-3.4408278328110424"><ele>964.0</ele><time>2026-05-03T08:51:11Z</time></trkpt><trkpt lat="42.078840136006015" lon="-3.440702952490751"><ele>964.0</ele><time>2026-05-03T08:51:12Z</time></trkpt><trkpt lat="42.078780868834805" lon="-3.4405752676527337"><ele>964.0</ele><time>2026-05-03T08:51:13Z</time></trkpt><trkpt lat="42.07871494163231" lon="-3.4404490948521818"><ele>964.0</ele><time>2026-05-03T08:51:14Z</time></trkpt><trkpt lat="42.078651717711274" lon="-3.4403264791337897"><ele>964.0</ele><time>2026-05-03T08:51:15Z</time></trkpt><trkpt lat="42.07859145637225" lon="-3.4401967770049264"><ele>963.6</ele><time>2026-05-03T08:51:16Z</time></trkpt><trkpt lat="42.07853183907677" lon="-3.4400720610853592"><ele>963.2</ele><time>2026-05-03T08:51:17Z</time></trkpt><trkpt lat="42.0784699276023" lon="-3.4399520202678326"><ele>962.8000000000001</ele><time>2026-05-03T08:51:18Z</time></trkpt><trkpt lat="42.07840658219213" lon="-3.4398296133746666"><ele>962.4000000000001</ele><time>2026-05-03T08:51:19Z</time></trkpt><trkpt lat="42.07834635328487" lon="-3.4397009981112006"><ele>962.0</ele><time>2026-05-03T08:51:20Z</time></trkpt><trkpt lat="42.07828734444633" lon="-3.4395787521499845"><ele>962.0</ele><time>2026-05-03T08:51:21Z</time></trkpt><trkpt lat="42.0782249055971" lon="-3.4394499734216177"><ele>962.0</ele><time>2026-05-03T08:51:22Z</time></trkpt><trkpt lat="42.07816573112854" lon="-3.4393336526284086"><ele>962.0</ele><time>2026-05-03T08:51:23Z</time></trkpt><trkpt lat="42.078103854995696" lon="-3.439211583511484"><ele>962.0</ele><time>2026-05-03T08:51:24Z</time></trkpt><trkpt lat="42.07803735933142" lon="-3.439098288679832"><ele>962.0</ele><time>2026-05-03T08:51:25Z</time></trkpt><trkpt lat="42.07794450362109" lon="-3.439020988408191"><ele>962.0</ele><time>2026-05-03T08:51:26.001Z</time></trkpt><trkpt lat="42.0779256803149" lon="-3.4388372192344563"><ele>962.0</ele><time>2026-05-03T08:51:27.001Z</time></trkpt><trkpt lat="42.07785983730838" lon="-3.438712626018828"><ele>962.0</ele><time>2026-05-03T08:51:28.001Z</time></trkpt><trkpt lat="42.07779670856559" lon="-3.4385884238788744"><ele>962.0</ele><time>2026-05-03T08:51:29.001Z</time></trkpt><trkpt lat="42.07773703050412" lon="-3.438467113041198"><ele>961.6</ele><time>2026-05-03T08:51:30.001Z</time></trkpt><trkpt lat="42.07767710227966" lon="-3.4383450365422807"><ele>961.2</ele><time>2026-05-03T08:51:31.001Z</time></trkpt><trkpt lat="42.07761276744764" lon="-3.438223916116508"><ele>960.8</ele><time>2026-05-03T08:51:32.001Z</time></trkpt><trkpt lat="42.07755199482707" lon="-3.4381015879416115"><ele>960.4</ele><time>2026-05-03T08:51:33.001Z</time></trkpt><trkpt lat="42.07748595508289" lon="-3.4379821799302084"><ele>960.0</ele><time>2026-05-03T08:51:34.001Z</time></trkpt><trkpt lat="42.0774226529154" lon="-3.437861633951409"><ele>959.8</ele><time>2026-05-03T08:51:35.001Z</time></trkpt><trkpt lat="42.07735710220724" lon="-3.4377406990366666"><ele>959.6</ele><time>2026-05-03T08:51:36.001Z</time></trkpt><trkpt lat="42.07729141589619" lon="-3.4376216228222702"><ele>959.4000000000001</ele><time>2026-05-03T08:51:37.001Z</time></trkpt><trkpt lat="42.07722340588284" lon="-3.4375003858445337"><ele>959.2</ele><time>2026-05-03T08:51:38.001Z</time></trkpt><trkpt lat="42.07715379977071" lon="-3.4373788862541623"><ele>959.0</ele><time>2026-05-03T08:51:39.001Z</time></trkpt><trkpt lat="42.07708218937577" lon="-3.4372576555608894"><ele>958.25</ele><time>2026-05-03T08:51:40.001Z</time></trkpt><trkpt lat="42.07701390011327" lon="-3.4371330778034777"><ele>957.5</ele><time>2026-05-03T08:51:41.001Z</time></trkpt><trkpt lat="42.07694187345766" lon="-3.4370132720742044"><ele>956.75</ele><time>2026-05-03T08:51:42.001Z</time></trkpt><trkpt lat="42.076868620286106" lon="-3.436892666567606"><ele>956.0</ele><time>2026-05-03T08:51:43.001Z</time></trkpt><trkpt lat="42.076798339986084" lon="-3.436775205150231"><ele>956.0</ele><time>2026-05-03T08:51:44.001Z</time></trkpt><trkpt lat="42.07672810794867" lon="-3.436658395545363"><ele>955.9999999999999</ele><time>2026-05-03T08:51:45.001Z</time></trkpt><trkpt lat="42.07665680816324" lon="-3.43654167799722"><ele>955.9999999999999</ele><time>2026-05-03T08:51:46.001Z</time></trkpt><trkpt lat="42.0765856401334" lon="-3.436426371229262"><ele>956.0</ele><time>2026-05-03T08:51:47.001Z</time></trkpt><trkpt lat="42.07651628153021" lon="-3.436311594060055"><ele>956.0</ele><time>2026-05-03T08:51:48.001Z</time></trkpt><trkpt lat="42.07644399069985" lon="-3.436196091419868"><ele>955.4</ele><time>2026-05-03T08:51:49.001Z</time></trkpt><trkpt lat="42.07637380623095" lon="-3.436081334911426"><ele>954.8</ele><time>2026-05-03T08:51:50.001Z</time></trkpt><trkpt lat="42.07630370849799" lon="-3.435969069170038"><ele>954.1999999999999</ele><time>2026-05-03T08:51:51.001Z</time></trkpt><trkpt lat="42.07623506206823" lon="-3.4358573898662153"><ele>953.5999999999999</ele><time>2026-05-03T08:51:52.001Z</time></trkpt><trkpt lat="42.07616531747346" lon="-3.435742712481705"><ele>953.0</ele><time>2026-05-03T08:51:53.001Z</time></trkpt><trkpt lat="42.076097130373675" lon="-3.4356295102930097"><ele>953.0</ele><time>2026-05-03T08:51:54.001Z</time></trkpt><trkpt lat="42.07602628359801" lon="-3.435512858923498"><ele>953.0</ele><time>2026-05-03T08:51:55.001Z</time></trkpt><trkpt lat="42.07595934371146" lon="-3.435397715898806"><ele>953.0</ele><time>2026-05-03T08:51:56.001Z</time></trkpt><trkpt lat="42.07588963285717" lon="-3.4352798694408517"><ele>953.0</ele><time>2026-05-03T08:51:57.001Z</time></trkpt><trkpt lat="42.07581983544674" lon="-3.4351603715860386"><ele>953.0</ele><time>2026-05-03T08:51:58.001Z</time></trkpt><trkpt lat="42.07575216284568" lon="-3.435039159943773"><ele>953.2</ele><time>2026-05-03T08:51:59.001Z</time></trkpt><trkpt lat="42.07568510223281" lon="-3.434921032918589"><ele>953.4</ele><time>2026-05-03T08:52:00.001Z</time></trkpt><trkpt lat="42.075619844539894" lon="-3.4348028138656113"><ele>953.6000000000001</ele><time>2026-05-03T08:52:01.001Z</time></trkpt><trkpt lat="42.075553121678766" lon="-3.434678031628609"><ele>953.8000000000001</ele><time>2026-05-03T08:52:02.001Z</time></trkpt><trkpt lat="42.07548760856231" lon="-3.4345530759953666"><ele>954.0</ele><time>2026-05-03T08:52:03.001Z</time></trkpt><trkpt lat="42.07542517795444" lon="-3.4344275167184635"><ele>953.4000000000001</ele><time>2026-05-03T08:52:04.001Z</time></trkpt><trkpt lat="42.075363191020514" lon="-3.434302355289069"><ele>952.8000000000001</ele><time>2026-05-03T08:52:05.001Z</time></trkpt><trkpt lat="42.07530142521198" lon="-3.43417711406907"><ele>952.1999999999999</ele><time>2026-05-03T08:52:06.001Z</time></trkpt><trkpt lat="42.07523977375101" lon="-3.4340507267418414"><ele>951.5999999999999</ele><time>2026-05-03T08:52:07.001Z</time></trkpt><trkpt lat="42.07517967571947" lon="-3.4339230447644122"><ele>951.0</ele><time>2026-05-03T08:52:08.001Z</time></trkpt><trkpt lat="42.07512161502145" lon="-3.43380155632568"><ele>950.8</ele><time>2026-05-03T08:52:09.001Z</time></trkpt><trkpt lat="42.07506551039524" lon="-3.433665740357413"><ele>950.5999999999999</ele><time>2026-05-03T08:52:10.001Z</time></trkpt><trkpt lat="42.07500869066682" lon="-3.4335430101371807"><ele>950.4</ele><time>2026-05-03T08:52:11.001Z</time></trkpt><trkpt lat="42.07495132291134" lon="-3.4334162329545688"><ele>950.2</ele><time>2026-05-03T08:52:12.001Z</time></trkpt><trkpt lat="42.07490073725083" lon="-3.433277603328682"><ele>950.0</ele><time>2026-05-03T08:52:13.001Z</time></trkpt><trkpt lat="42.07484082963607" lon="-3.433156608205155"><ele>950.0</ele><time>2026-05-03T08:52:14.001Z</time></trkpt><trkpt lat="42.074770304270935" lon="-3.4330371209454476"><ele>950.0</ele><time>2026-05-03T08:52:15.001Z</time></trkpt><trkpt lat="42.074663478927604" lon="-3.432949936082524"><ele>950.0</ele><time>2026-05-03T08:52:16.001Z</time></trkpt><trkpt lat="42.07467279709712" lon="-3.4327698050727675"><ele>950.0</ele><time>2026-05-03T08:52:17.001Z</time></trkpt><trkpt lat="42.074617708878215" lon="-3.4326437198187993"><ele>950.0</ele><time>2026-05-03T08:52:18.001Z</time></trkpt><trkpt lat="42.07456230016033" lon="-3.4325192289179594"><ele>950.0</ele><time>2026-05-03T08:52:19.001Z</time></trkpt><trkpt lat="42.07451024080092" lon="-3.43239441864027"><ele>950.0</ele><time>2026-05-03T08:52:20.001Z</time></trkpt><trkpt lat="42.07445557978229" lon="-3.4322715095356067"><ele>950.0</ele><time>2026-05-03T08:52:21.001Z</time></trkpt><trkpt lat="42.07440229693535" lon="-3.432147128591932"><ele>950.0</ele><time>2026-05-03T08:52:22.001Z</time></trkpt><trkpt lat="42.0743479541035" lon="-3.4320253587348892"><ele>950.0</ele><time>2026-05-03T08:52:23.001Z</time></trkpt><trkpt lat="42.074295001819046" lon="-3.431901303216419"><ele>950.0</ele><time>2026-05-03T08:52:24.001Z</time></trkpt><trkpt lat="42.07424119258735" lon="-3.4317756335009753"><ele>950.0</ele><time>2026-05-03T08:52:25.001Z</time></trkpt><trkpt lat="42.074187254589184" lon="-3.4316518528357447"><ele>950.0</ele><time>2026-05-03T08:52:26.001Z</time></trkpt><trkpt lat="42.07413272958062" lon="-3.431527411095571"><ele>950.0</ele><time>2026-05-03T08:52:27.001Z</time></trkpt><trkpt lat="42.07407820447924" lon="-3.4313995009126588"><ele>950.2</ele><time>2026-05-03T08:52:28.001Z</time></trkpt><trkpt lat="42.074022613356455" lon="-3.4312703435866103"><ele>950.4</ele><time>2026-05-03T08:52:29.001Z</time></trkpt><trkpt lat="42.073965216685416" lon="-3.4311415930993543"><ele>950.5999999999999</ele><time>2026-05-03T08:52:30.001Z</time></trkpt><trkpt lat="42.07391042887042" lon="-3.4310134956948133"><ele>950.8</ele><time>2026-05-03T08:52:31.001Z</time></trkpt><trkpt lat="42.07385452094974" lon="-3.4308835034655303"><ele>951.0</ele><time>2026-05-03T08:52:32.001Z</time></trkpt><trkpt lat="42.07379861855433" lon="-3.4307567116674975"><ele>951.0</ele><time>2026-05-03T08:52:33.001Z</time></trkpt><trkpt lat="42.07374527223718" lon="-3.430630800788765"><ele>950.9999999999999</ele><time>2026-05-03T08:52:34.001Z</time></trkpt><trkpt lat="42.073691808483225" lon="-3.430503920949535"><ele>950.9999999999999</ele><time>2026-05-03T08:52:35.001Z</time></trkpt><trkpt lat="42.073639992789445" lon="-3.430376902433111"><ele>951.0</ele><time>2026-05-03T08:52:36.001Z</time></trkpt><trkpt lat="42.07358702096492" lon="-3.4302487128023325"><ele>951.0</ele><time>2026-05-03T08:52:37.001Z</time></trkpt><trkpt lat="42.07353328484215" lon="-3.430124433118929"><ele>950.1999999999999</ele><time>2026-05-03T08:52:38.001Z</time></trkpt><trkpt lat="42.07348208877313" lon="-3.429997197860769"><ele>949.3999999999999</ele><time>2026-05-03T08:52:39.001Z</time></trkpt><trkpt lat="42.07343165928067" lon="-3.4298662073929975"><ele>948.6</ele><time>2026-05-03T08:52:40.001Z</time></trkpt><trkpt lat="42.07338107868811" lon="-3.429734939492414"><ele>947.8</ele><time>2026-05-03T08:52:41.001Z</time></trkpt><trkpt lat="42.073330648144044" lon="-3.4296043205960025"><ele>947.0</ele><time>2026-05-03T08:52:42.001Z</time></trkpt><trkpt lat="42.07328322595174" lon="-3.4294719114747654"><ele>946.2</ele><time>2026-05-03T08:52:43.001Z</time></trkpt><trkpt lat="42.07323517636298" lon="-3.429338249950873"><ele>945.4000000000001</ele><time>2026-05-03T08:52:44.001Z</time></trkpt><trkpt lat="42.073189556410235" lon="-3.42920256321312"><ele>944.5999999999999</ele><time>2026-05-03T08:52:45.001Z</time></trkpt><trkpt lat="42.07314294886047" lon="-3.4290668575935492"><ele>943.8</ele><time>2026-05-03T08:52:46.001Z</time></trkpt><trkpt lat="42.07309271371718" lon="-3.428932498145922"><ele>943.0</ele><time>2026-05-03T08:52:47Z</time></trkpt><trkpt lat="42.07304339306166" lon="-3.4287959995066943"><ele>942.0</ele><time>2026-05-03T08:52:48Z</time></trkpt><trkpt lat="42.0729938416573" lon="-3.428659334539278"><ele>941.0</ele><time>2026-05-03T08:52:49Z</time></trkpt><trkpt lat="42.07294627890705" lon="-3.42852205616711"><ele>940.0</ele><time>2026-05-03T08:52:50Z</time></trkpt><trkpt lat="42.0728980148629" lon="-3.4283849076699355"><ele>939.0</ele><time>2026-05-03T08:52:51Z</time></trkpt><trkpt lat="42.07284986276705" lon="-3.4282469728238376"><ele>939.0</ele><time>2026-05-03T08:52:52Z</time></trkpt><trkpt lat="42.07280330341145" lon="-3.4281101384546573"><ele>939.0</ele><time>2026-05-03T08:52:53Z</time></trkpt><trkpt lat="42.072755259379406" lon="-3.427970011233719"><ele>939.0</ele><time>2026-05-03T08:52:54Z</time></trkpt><trkpt lat="42.07270686964907" lon="-3.4278332186701332"><ele>939.0</ele><time>2026-05-03T08:52:55Z</time></trkpt><trkpt lat="42.072659667588496" lon="-3.427697615259213"><ele>938.5</ele><time>2026-05-03T08:52:56Z</time></trkpt><trkpt lat="42.072607648805075" lon="-3.427557438237394"><ele>938.0</ele><time>2026-05-03T08:52:57Z</time></trkpt><trkpt lat="42.07255650791767" lon="-3.4274236783166603"><ele>937.5</ele><time>2026-05-03T08:52:58Z</time></trkpt><trkpt lat="42.072507764394985" lon="-3.427288380319215"><ele>937.0</ele><time>2026-05-03T08:52:59Z</time></trkpt><trkpt lat="42.07245934461677" lon="-3.427148574100429"><ele>936.6</ele><time>2026-05-03T08:53:00Z</time></trkpt><trkpt lat="42.072410354724035" lon="-3.4270116937291903"><ele>936.2</ele><time>2026-05-03T08:53:01Z</time></trkpt><trkpt lat="42.07236317082136" lon="-3.4268763850840047"><ele>935.8</ele><time>2026-05-03T08:53:02Z</time></trkpt><trkpt lat="42.072315611095334" lon="-3.426740824868065"><ele>935.4</ele><time>2026-05-03T08:53:03Z</time></trkpt><trkpt lat="42.07226859462061" lon="-3.426603770624831"><ele>935.0</ele><time>2026-05-03T08:53:04Z</time></trkpt><trkpt lat="42.072219817816446" lon="-3.4264687196071044"><ele>935.0</ele><time>2026-05-03T08:53:05Z</time></trkpt><trkpt lat="42.072172284028255" lon="-3.426332434600674"><ele>935.0</ele><time>2026-05-03T08:53:06Z</time></trkpt><trkpt lat="42.0721219011148" lon="-3.4261959342369335"><ele>935.0</ele><time>2026-05-03T08:53:07Z</time></trkpt><trkpt lat="42.07207383072236" lon="-3.42606013256139"><ele>935.0</ele><time>2026-05-03T08:53:08Z</time></trkpt><trkpt lat="42.07203208022077" lon="-3.425931971593201"><ele>935.0</ele><time>2026-05-03T08:53:09Z</time></trkpt><trkpt lat="42.07197871649378" lon="-3.425786558182966"><ele>934.4</ele><time>2026-05-03T08:53:10Z</time></trkpt><trkpt lat="42.07193033420575" lon="-3.425667896424579"><ele>933.8</ele><time>2026-05-03T08:53:11Z</time></trkpt><trkpt lat="42.07188169835272" lon="-3.425522414715207"><ele>933.2</ele><time>2026-05-03T08:53:12Z</time></trkpt><trkpt lat="42.07183409393562" lon="-3.4253911873361766"><ele>932.6</ele><time>2026-05-03T08:53:13Z</time></trkpt><trkpt lat="42.07178664329536" lon="-3.425251224471757"><ele>932.0</ele><time>2026-05-03T08:53:14Z</time></trkpt><trkpt lat="42.07173243324337" lon="-3.425133750569703"><ele>931.5</ele><time>2026-05-03T08:53:15Z</time></trkpt><trkpt lat="42.071649104712485" lon="-3.425050556383677"><ele>931.0</ele><time>2026-05-03T08:53:16Z</time></trkpt><trkpt lat="42.07161073761493" lon="-3.4249481751272217"><ele>930.5</ele><time>2026-05-03T08:53:17Z</time></trkpt><trkpt lat="42.07159235048624" lon="-3.424716555532428"><ele>930.0</ele><time>2026-05-03T08:53:18Z</time></trkpt><trkpt lat="42.07153699121368" lon="-3.4245831589312274"><ele>931.0</ele><time>2026-05-03T08:53:19Z</time></trkpt><trkpt lat="42.07148007962401" lon="-3.424451613847581"><ele>932.0</ele><time>2026-05-03T08:53:20Z</time></trkpt><trkpt lat="42.071419868149164" lon="-3.4243210560975728"><ele>933.0</ele><time>2026-05-03T08:53:21Z</time></trkpt><trkpt lat="42.07135990872118" lon="-3.424194912953217"><ele>934.0</ele><time>2026-05-03T08:53:22Z</time></trkpt><trkpt lat="42.071295081434535" lon="-3.424071931530233"><ele>934.0</ele><time>2026-05-03T08:53:23Z</time></trkpt><trkpt lat="42.07123168373021" lon="-3.423950693327105"><ele>934.0000000000001</ele><time>2026-05-03T08:53:24Z</time></trkpt><trkpt lat="42.071167853213325" lon="-3.4238304685068455"><ele>934.0000000000001</ele><time>2026-05-03T08:53:25Z</time></trkpt><trkpt lat="42.07109222941594" lon="-3.4237247967988047"><ele>934.0</ele><time>2026-05-03T08:53:26Z</time></trkpt><trkpt lat="42.07101919833468" lon="-3.4236118423088318"><ele>934.0</ele><time>2026-05-03T08:53:27Z</time></trkpt><trkpt lat="42.07094316843289" lon="-3.423500003814227"><ele>934.0</ele><time>2026-05-03T08:53:28Z</time></trkpt><trkpt lat="42.07086883079994" lon="-3.4233931351258313"><ele>934.0000000000001</ele><time>2026-05-03T08:53:29Z</time></trkpt><trkpt lat="42.07079263147191" lon="-3.4232905449844884"><ele>934.0000000000001</ele><time>2026-05-03T08:53:30Z</time></trkpt><trkpt lat="42.070714048172945" lon="-3.4231936953081092"><ele>934.0</ele><time>2026-05-03T08:53:31Z</time></trkpt><trkpt lat="42.070630686484954" lon="-3.4230958035301255"><ele>934.0</ele><time>2026-05-03T08:53:32Z</time></trkpt><trkpt lat="42.07054217176972" lon="-3.4229974476903746"><ele>933.6</ele><time>2026-05-03T08:53:33Z</time></trkpt><trkpt lat="42.070458421878065" lon="-3.4229113849352535"><ele>933.2</ele><time>2026-05-03T08:53:34Z</time></trkpt><trkpt lat="42.07036974749862" lon="-3.4228286828852794"><ele>932.8000000000001</ele><time>2026-05-03T08:53:35Z</time></trkpt><trkpt lat="42.070283314076946" lon="-3.422745458046317"><ele>932.4000000000001</ele><time>2026-05-03T08:53:36Z</time></trkpt><trkpt lat="42.07019266861272" lon="-3.4226674285136762"><ele>932.0</ele><time>2026-05-03T08:53:37Z</time></trkpt><trkpt lat="42.070100654041866" lon="-3.422596286002521"><ele>932.0</ele><time>2026-05-03T08:53:38Z</time></trkpt><trkpt lat="42.07000655009084" lon="-3.422524905747033"><ele>932.0</ele><time>2026-05-03T08:53:39Z</time></trkpt><trkpt lat="42.06991125938011" lon="-3.4224552155258334"><ele>932.0</ele><time>2026-05-03T08:53:40Z</time></trkpt><trkpt lat="42.06981486442723" lon="-3.422389109692106"><ele>932.0</ele><time>2026-05-03T08:53:41Z</time></trkpt><trkpt lat="42.06971808055182" lon="-3.422323763628449"><ele>932.0</ele><time>2026-05-03T08:53:42Z</time></trkpt><trkpt lat="42.06962171846724" lon="-3.4222584789245944"><ele>931.4000000000001</ele><time>2026-05-03T08:53:43Z</time></trkpt><trkpt lat="42.069520339428244" lon="-3.422199046667411"><ele>930.8000000000001</ele><time>2026-05-03T08:53:44Z</time></trkpt><trkpt lat="42.069417342327576" lon="-3.4221431740530504"><ele>930.2</ele><time>2026-05-03T08:53:45Z</time></trkpt><trkpt lat="42.06931448845725" lon="-3.422092929205879"><ele>929.6</ele><time>2026-05-03T08:53:46Z</time></trkpt><trkpt lat="42.0692109397394" lon="-3.4220466086870815"><ele>929.0</ele><time>2026-05-03T08:53:47Z</time></trkpt><trkpt lat="42.069110368394654" lon="-3.4220026145143083"><ele>928.8000000000001</ele><time>2026-05-03T08:53:48Z</time></trkpt><trkpt lat="42.06900910583331" lon="-3.421957108586167"><ele>928.6000000000001</ele><time>2026-05-03T08:53:49Z</time></trkpt><trkpt lat="42.06890453378216" lon="-3.4219129148381695"><ele>928.4</ele><time>2026-05-03T08:53:50.001Z</time></trkpt><trkpt lat="42.06880364035007" lon="-3.4218718144012805"><ele>928.2</ele><time>2026-05-03T08:53:51.001Z</time></trkpt><trkpt lat="42.06869854789431" lon="-3.4218342411791696"><ele>928.0</ele><time>2026-05-03T08:53:52.001Z</time></trkpt><trkpt lat="42.0685947768913" lon="-3.421797663856275"><ele>928.0</ele><time>2026-05-03T08:53:53.001Z</time></trkpt><trkpt lat="42.06848969762822" lon="-3.4217626073532648"><ele>928.0</ele><time>2026-05-03T08:53:54.001Z</time></trkpt><trkpt lat="42.06838504064897" lon="-3.421722915232207"><ele>928.0</ele><time>2026-05-03T08:53:55.001Z</time></trkpt><trkpt lat="42.06828315941806" lon="-3.421683605712548"><ele>928.0</ele><time>2026-05-03T08:53:56.001Z</time></trkpt><trkpt lat="42.06818042786586" lon="-3.4216413111033543"><ele>928.0</ele><time>2026-05-03T08:53:57.001Z</time></trkpt><trkpt lat="42.06807634145957" lon="-3.421599568458383"><ele>927.4</ele><time>2026-05-03T08:53:58.001Z</time></trkpt><trkpt lat="42.0679754394748" lon="-3.4215490477646795"><ele>926.8</ele><time>2026-05-03T08:53:59.001Z</time></trkpt><trkpt lat="42.06787018541909" lon="-3.421501190092779"><ele>926.2</ele><time>2026-05-03T08:54:00.001Z</time></trkpt><trkpt lat="42.067768652540146" lon="-3.421456262109135"><ele>925.6</ele><time>2026-05-03T08:54:01.001Z</time></trkpt><trkpt lat="42.06766682379492" lon="-3.4213993511427403"><ele>925.0</ele><time>2026-05-03T08:54:02.001Z</time></trkpt><trkpt lat="42.06756382008149" lon="-3.4213428246401274"><ele>925.0</ele><time>2026-05-03T08:54:03.001Z</time></trkpt><trkpt lat="42.067465800850854" lon="-3.421286805582249"><ele>925.0</ele><time>2026-05-03T08:54:04.001Z</time></trkpt><trkpt lat="42.0673670932015" lon="-3.4212261293019006"><ele>925.0</ele><time>2026-05-03T08:54:05.001Z</time></trkpt><trkpt lat="42.06727051090436" lon="-3.421166002886866"><ele>925.0</ele><time>2026-05-03T08:54:06.001Z</time></trkpt><trkpt lat="42.06717414657329" lon="-3.4210876582991125"><ele>925.0</ele><time>2026-05-03T08:54:07.001Z</time></trkpt><trkpt lat="42.06708356531433" lon="-3.4210139171763063"><ele>925.0</ele><time>2026-05-03T08:54:08.001Z</time></trkpt><trkpt lat="42.06699134095214" lon="-3.4209347939889847"><ele>925.0</ele><time>2026-05-03T08:54:09.001Z</time></trkpt><trkpt lat="42.06690368750637" lon="-3.4208552603243088"><ele>925.0</ele><time>2026-05-03T08:54:10.001Z</time></trkpt><trkpt lat="42.0668146472638" lon="-3.4207721786760112"><ele>925.0</ele><time>2026-05-03T08:54:11.001Z</time></trkpt><trkpt lat="42.066728959706055" lon="-3.420686428861524"><ele>925.0</ele><time>2026-05-03T08:54:12.001Z</time></trkpt><trkpt lat="42.06664637257098" lon="-3.4205975445410566"><ele>924.2</ele><time>2026-05-03T08:54:13.001Z</time></trkpt><trkpt lat="42.0665634942118" lon="-3.420504451607157"><ele>923.4</ele><time>2026-05-03T08:54:14.001Z</time></trkpt><trkpt lat="42.066482734796786" lon="-3.4204091719447316"><ele>922.5999999999999</ele><time>2026-05-03T08:54:15.001Z</time></trkpt><trkpt lat="42.06640297135875" lon="-3.420312493175043"><ele>921.8</ele><time>2026-05-03T08:54:16.001Z</time></trkpt><trkpt lat="42.0663248467196" lon="-3.420212602323098"><ele>921.0</ele><time>2026-05-03T08:54:17.001Z</time></trkpt><trkpt lat="42.06625027688053" lon="-3.4201093636580957"><ele>921.0</ele><time>2026-05-03T08:54:18.001Z</time></trkpt><trkpt lat="42.0661745758224" lon="-3.420001861900456"><ele>920.9999999999999</ele><time>2026-05-03T08:54:19.001Z</time></trkpt><trkpt lat="42.066102728604136" lon="-3.4198959151933783"><ele>920.9999999999999</ele><time>2026-05-03T08:54:20.001Z</time></trkpt><trkpt lat="42.06603432408527" lon="-3.4197853341476665"><ele>921.0</ele><time>2026-05-03T08:54:21.001Z</time></trkpt><trkpt lat="42.06596722325016" lon="-3.4196680775059485"><ele>921.0</ele><time>2026-05-03T08:54:22.001Z</time></trkpt><trkpt lat="42.06590288147401" lon="-3.419552130055778"><ele>921.0</ele><time>2026-05-03T08:54:23.001Z</time></trkpt><trkpt lat="42.06583816037856" lon="-3.4194336540047208"><ele>920.9999999999999</ele><time>2026-05-03T08:54:24.001Z</time></trkpt><trkpt lat="42.065779844840364" lon="-3.4193144884624385"><ele>920.9999999999999</ele><time>2026-05-03T08:54:25.001Z</time></trkpt><trkpt lat="42.06571908560738" lon="-3.4191891539996258"><ele>921.0</ele><time>2026-05-03T08:54:26.001Z</time></trkpt><trkpt lat="42.065662964274665" lon="-3.419060933904013"><ele>921.0</ele><time>2026-05-03T08:54:27.001Z</time></trkpt><trkpt lat="42.065600824639894" lon="-3.418933995536082"><ele>921.0</ele><time>2026-05-03T08:54:28.001Z</time></trkpt><trkpt lat="42.0655662325822" lon="-3.4188140464861903"><ele>920.9999999999999</ele><time>2026-05-03T08:54:29.001Z</time></trkpt><trkpt lat="42.0655235476439" lon="-3.41870664977113"><ele>920.9999999999999</ele><time>2026-05-03T08:54:30.001Z</time></trkpt><trkpt lat="42.06548185367077" lon="-3.4185922692173216"><ele>921.0</ele><time>2026-05-03T08:54:31.001Z</time></trkpt><trkpt lat="42.06541991190806" lon="-3.4184195486843088"><ele>921.0</ele><time>2026-05-03T08:54:32.001Z</time></trkpt><trkpt lat="42.06537636795646" lon="-3.418287565778093"><ele>921.0</ele><time>2026-05-03T08:54:33.001Z</time></trkpt><trkpt lat="42.06533329401642" lon="-3.418153723915226"><ele>920.9999999999999</ele><time>2026-05-03T08:54:34.001Z</time></trkpt><trkpt lat="42.06529081999184" lon="-3.4180176667142987"><ele>920.9999999999999</ele><time>2026-05-03T08:54:35.001Z</time></trkpt><trkpt lat="42.06524752340128" lon="-3.4178797315373832"><ele>921.0</ele><time>2026-05-03T08:54:36.001Z</time></trkpt><trkpt lat="42.06520453242686" lon="-3.417743626933324"><ele>921.0</ele><time>2026-05-03T08:54:37.001Z</time></trkpt><trkpt lat="42.0651742669317" lon="-3.4175990222450983"><ele>921.0</ele><time>2026-05-03T08:54:38.001Z</time></trkpt><trkpt lat="42.06513274321662" lon="-3.4174653463412485"><ele>920.9999999999999</ele><time>2026-05-03T08:54:39.001Z</time></trkpt><trkpt lat="42.06508542372757" lon="-3.4173307261749097"><ele>920.9999999999999</ele><time>2026-05-03T08:54:40.001Z</time></trkpt><trkpt lat="42.06504185577981" lon="-3.417201782575846"><ele>921.0</ele><time>2026-05-03T08:54:41.001Z</time></trkpt><trkpt lat="42.06500049364955" lon="-3.4170560524906937"><ele>921.0</ele><time>2026-05-03T08:54:42.001Z</time></trkpt><trkpt lat="42.06495577386765" lon="-3.416922014653452"><ele>921.25</ele><time>2026-05-03T08:54:43.001Z</time></trkpt><trkpt lat="42.064913628159914" lon="-3.4168070603560836"><ele>921.5</ele><time>2026-05-03T08:54:44.001Z</time></trkpt><trkpt lat="42.06481538051024" lon="-3.416509263192055"><ele>921.75</ele><time>2026-05-03T08:54:46.001Z</time></trkpt><trkpt lat="42.06477376334959" lon="-3.416374351938815"><ele>922.0</ele><time>2026-05-03T08:54:47.001Z</time></trkpt><trkpt lat="42.06473228559539" lon="-3.416237823908499"><ele>922.2</ele><time>2026-05-03T08:54:48.001Z</time></trkpt><trkpt lat="42.064689215031315" lon="-3.416101865045007"><ele>922.4000000000001</ele><time>2026-05-03T08:54:49.001Z</time></trkpt><trkpt lat="42.0646485629398" lon="-3.415963823229818"><ele>922.5999999999999</ele><time>2026-05-03T08:54:50.001Z</time></trkpt><trkpt lat="42.064609694229006" lon="-3.4158241960117803"><ele>922.8</ele><time>2026-05-03T08:54:51.001Z</time></trkpt><trkpt lat="42.06457315474152" lon="-3.4156839295477144"><ele>923.0</ele><time>2026-05-03T08:54:52.001Z</time></trkpt><trkpt lat="42.06453673663664" lon="-3.4155459528603735"><ele>923.0</ele><time>2026-05-03T08:54:53Z</time></trkpt><trkpt lat="42.06450206939048" lon="-3.4154047669934116"><ele>923.0</ele><time>2026-05-03T08:54:54Z</time></trkpt><trkpt lat="42.064466630318606" lon="-3.4152642703243865"><ele>923.0</ele><time>2026-05-03T08:54:55Z</time></trkpt><trkpt lat="42.06443492192437" lon="-3.4151222391005946"><ele>923.0</ele><time>2026-05-03T08:54:56Z</time></trkpt><trkpt lat="42.0644021346767" lon="-3.4149824879881865"><ele>923.0</ele><time>2026-05-03T08:54:57Z</time></trkpt><trkpt lat="42.064369748550085" lon="-3.414840483520951"><ele>923.0</ele><time>2026-05-03T08:54:58Z</time></trkpt><trkpt lat="42.06433618383229" lon="-3.4146964148440997"><ele>923.0</ele><time>2026-05-03T08:54:59Z</time></trkpt><trkpt lat="42.064303713346" lon="-3.4145564679958946"><ele>923.0</ele><time>2026-05-03T08:55:00Z</time></trkpt><trkpt lat="42.06427044335539" lon="-3.414418292515257"><ele>923.0</ele><time>2026-05-03T08:55:01Z</time></trkpt><trkpt lat="42.06423795664344" lon="-3.414279307604275"><ele>923.0</ele><time>2026-05-03T08:55:02Z</time></trkpt><trkpt lat="42.064204844439274" lon="-3.4141365286200887"><ele>922.8</ele><time>2026-05-03T08:55:03Z</time></trkpt><trkpt lat="42.06417097733847" lon="-3.4139945057619334"><ele>922.5999999999999</ele><time>2026-05-03T08:55:04Z</time></trkpt><trkpt lat="42.064136899953695" lon="-3.413853615347892"><ele>922.4000000000001</ele><time>2026-05-03T08:55:05Z</time></trkpt><trkpt lat="42.06410147209903" lon="-3.4137151623873074"><ele>922.2</ele><time>2026-05-03T08:55:06Z</time></trkpt><trkpt lat="42.064066308231894" lon="-3.4135749135713818"><ele>922.0</ele><time>2026-05-03T08:55:07Z</time></trkpt><trkpt lat="42.06403607785745" lon="-3.413438233539474"><ele>922.0</ele><time>2026-05-03T08:55:08Z</time></trkpt><trkpt lat="42.06400371396119" lon="-3.413298921281464"><ele>922.0</ele><time>2026-05-03T08:55:09Z</time></trkpt><trkpt lat="42.06397048764369" lon="-3.413158836588638"><ele>922.0</ele><time>2026-05-03T08:55:10Z</time></trkpt><trkpt lat="42.0639400765953" lon="-3.413019017947826"><ele>922.0</ele><time>2026-05-03T08:55:11Z</time></trkpt><trkpt lat="42.063908416137444" lon="-3.4128782231608423"><ele>922.0</ele><time>2026-05-03T08:55:12Z</time></trkpt><trkpt lat="42.06387766015783" lon="-3.4127367407996982"><ele>922.0</ele><time>2026-05-03T08:55:13Z</time></trkpt><trkpt lat="42.06384642087633" lon="-3.412599358089817"><ele>922.0</ele><time>2026-05-03T08:55:14Z</time></trkpt><trkpt lat="42.06381506293554" lon="-3.412461483739797"><ele>922.0</ele><time>2026-05-03T08:55:15Z</time></trkpt><trkpt lat="42.0637839171874" lon="-3.412324278801495"><ele>922.0</ele><time>2026-05-03T08:55:16Z</time></trkpt><trkpt lat="42.06374730666493" lon="-3.4121810865781597"><ele>922.0</ele><time>2026-05-03T08:55:17Z</time></trkpt><trkpt lat="42.063715660835314" lon="-3.4120396419376973"><ele>922.0</ele><time>2026-05-03T08:55:18Z</time></trkpt><trkpt lat="42.063682196826186" lon="-3.4118996227790372"><ele>922.0</ele><time>2026-05-03T08:55:19Z</time></trkpt><trkpt lat="42.063649084810834" lon="-3.4117583486718415"><ele>922.0</ele><time>2026-05-03T08:55:20Z</time></trkpt><trkpt lat="42.06361623357759" lon="-3.411616971214558"><ele>922.0</ele><time>2026-05-03T08:55:21Z</time></trkpt><trkpt lat="42.06358534638117" lon="-3.411478537514657"><ele>922.0</ele><time>2026-05-03T08:55:22Z</time></trkpt><trkpt lat="42.06355453527668" lon="-3.4113377913498533"><ele>922.0</ele><time>2026-05-03T08:55:23Z</time></trkpt><trkpt lat="42.06352361015239" lon="-3.411195776585858"><ele>922.0</ele><time>2026-05-03T08:55:24Z</time></trkpt><trkpt lat="42.06349061962458" lon="-3.411056776133534"><ele>922.0</ele><time>2026-05-03T08:55:25Z</time></trkpt><trkpt lat="42.063457289005484" lon="-3.410917243282046"><ele>922.0</ele><time>2026-05-03T08:55:26Z</time></trkpt><trkpt lat="42.06342329929881" lon="-3.410778666154615"><ele>922.0</ele><time>2026-05-03T08:55:27Z</time></trkpt><trkpt lat="42.063391301739735" lon="-3.410640603800298"><ele>922.0</ele><time>2026-05-03T08:55:28Z</time></trkpt><trkpt lat="42.06335703527659" lon="-3.4105005885208857"><ele>922.0</ele><time>2026-05-03T08:55:29Z</time></trkpt><trkpt lat="42.06332542311158" lon="-3.410362222927907"><ele>922.0</ele><time>2026-05-03T08:55:30Z</time></trkpt><trkpt lat="42.06329304210347" lon="-3.410220166939191"><ele>922.0</ele><time>2026-05-03T08:55:31Z</time></trkpt><trkpt lat="42.06326107047154" lon="-3.410079993281615"><ele>922.0</ele><time>2026-05-03T08:55:32Z</time></trkpt><trkpt lat="42.06323208135916" lon="-3.4099415257367425"><ele>922.0</ele><time>2026-05-03T08:55:33Z</time></trkpt><trkpt lat="42.06319640814297" lon="-3.4098016162388003"><ele>922.0</ele><time>2026-05-03T08:55:34Z</time></trkpt><trkpt lat="42.06316400941271" lon="-3.40966073976963"><ele>922.0</ele><time>2026-05-03T08:55:35Z</time></trkpt><trkpt lat="42.06313177782277" lon="-3.409520340376599"><ele>922.0</ele><time>2026-05-03T08:55:36Z</time></trkpt><trkpt lat="42.063098751540586" lon="-3.4093800399025955"><ele>922.0</ele><time>2026-05-03T08:55:37Z</time></trkpt><trkpt lat="42.06306670858264" lon="-3.409238169515581"><ele>922.2</ele><time>2026-05-03T08:55:38Z</time></trkpt><trkpt lat="42.06303414046361" lon="-3.409099414238459"><ele>922.4000000000001</ele><time>2026-05-03T08:55:39Z</time></trkpt><trkpt lat="42.06300290865398" lon="-3.40895409023361"><ele>922.5999999999999</ele><time>2026-05-03T08:55:40Z</time></trkpt><trkpt lat="42.062968847842036" lon="-3.408813632103192"><ele>922.8</ele><time>2026-05-03T08:55:41Z</time></trkpt><trkpt lat="42.0629374634789" lon="-3.4086738575597946"><ele>923.0</ele><time>2026-05-03T08:55:42Z</time></trkpt><trkpt lat="42.06290444245928" lon="-3.4085386615886404"><ele>923.2</ele><time>2026-05-03T08:55:43Z</time></trkpt><trkpt lat="42.06288097771957" lon="-3.4084020008682208"><ele>923.4</ele><time>2026-05-03T08:55:44Z</time></trkpt><trkpt lat="42.062846488017854" lon="-3.408263557514701"><ele>923.6000000000001</ele><time>2026-05-03T08:55:45Z</time></trkpt><trkpt lat="42.062813959322256" lon="-3.4081240603242793"><ele>923.8000000000001</ele><time>2026-05-03T08:55:46Z</time></trkpt><trkpt lat="42.06277880792102" lon="-3.4079830836337934"><ele>924.0</ele><time>2026-05-03T08:55:47Z</time></trkpt><trkpt lat="42.062746992292105" lon="-3.407845649938897"><ele>923.8000000000001</ele><time>2026-05-03T08:55:48Z</time></trkpt><trkpt lat="42.06271177174878" lon="-3.407705691682866"><ele>923.6000000000001</ele><time>2026-05-03T08:55:49Z</time></trkpt><trkpt lat="42.06267795858461" lon="-3.407567952847735"><ele>923.4</ele><time>2026-05-03T08:55:50Z</time></trkpt><trkpt lat="42.06264263759275" lon="-3.407431080575454"><ele>923.2</ele><time>2026-05-03T08:55:51Z</time></trkpt><trkpt lat="42.062611295243464" lon="-3.407291619812155"><ele>923.0</ele><time>2026-05-03T08:55:52Z</time></trkpt><trkpt lat="42.06258055238557" lon="-3.407153658077295"><ele>923.0</ele><time>2026-05-03T08:55:53Z</time></trkpt><trkpt lat="42.06254711952349" lon="-3.4070151740580714"><ele>923.0</ele><time>2026-05-03T08:55:54Z</time></trkpt><trkpt lat="42.06251274123175" lon="-3.4068762947140914"><ele>923.0</ele><time>2026-05-03T08:55:55Z</time></trkpt><trkpt lat="42.06248144520132" lon="-3.406736970094109"><ele>923.0</ele><time>2026-05-03T08:55:56Z</time></trkpt><trkpt lat="42.06244915381084" lon="-3.4065976288019466"><ele>923.0</ele><time>2026-05-03T08:55:57Z</time></trkpt><trkpt lat="42.062417381992425" lon="-3.4064595469088728"><ele>923.4</ele><time>2026-05-03T08:55:58Z</time></trkpt><trkpt lat="42.062385876299246" lon="-3.406318848125148"><ele>923.8</ele><time>2026-05-03T08:55:59Z</time></trkpt><trkpt lat="42.062353749684654" lon="-3.406180070180072"><ele>924.2</ele><time>2026-05-03T08:56:00Z</time></trkpt><trkpt lat="42.062319376591375" lon="-3.406042360857532"><ele>924.6</ele><time>2026-05-03T08:56:01Z</time></trkpt><trkpt lat="42.062286157016416" lon="-3.4059045788129847"><ele>925.0</ele><time>2026-05-03T08:56:02Z</time></trkpt><trkpt lat="42.062254366042396" lon="-3.4057646057377706"><ele>925.0</ele><time>2026-05-03T08:56:03Z</time></trkpt><trkpt lat="42.06222402321834" lon="-3.405626956548589"><ele>925.0</ele><time>2026-05-03T08:56:04Z</time></trkpt><trkpt lat="42.06219106905044" lon="-3.405486153401657"><ele>925.0</ele><time>2026-05-03T08:56:05Z</time></trkpt><trkpt lat="42.062159624944265" lon="-3.4053490432113485"><ele>925.0</ele><time>2026-05-03T08:56:06.001Z</time></trkpt><trkpt lat="42.06212773187395" lon="-3.405209250806633"><ele>925.0</ele><time>2026-05-03T08:56:07.001Z</time></trkpt><trkpt lat="42.062095173505625" lon="-3.4050707350107476"><ele>924.8</ele><time>2026-05-03T08:56:08.001Z</time></trkpt><trkpt lat="42.06206017200845" lon="-3.4049288296423685"><ele>924.6</ele><time>2026-05-03T08:56:09.001Z</time></trkpt><trkpt lat="42.06202774368861" lon="-3.404791777312619"><ele>924.4000000000001</ele><time>2026-05-03T08:56:10.001Z</time></trkpt><trkpt lat="42.061995635904296" lon="-3.4046515362734304"><ele>924.2</ele><time>2026-05-03T08:56:11.001Z</time></trkpt><trkpt lat="42.06196506594958" lon="-3.4045099975152264"><ele>924.0</ele><time>2026-05-03T08:56:12.001Z</time></trkpt><trkpt lat="42.06193467600022" lon="-3.4043719212125816"><ele>924.0</ele><time>2026-05-03T08:56:13.001Z</time></trkpt><trkpt lat="42.061902600813106" lon="-3.4042318233658158"><ele>924.0000000000001</ele><time>2026-05-03T08:56:14.001Z</time></trkpt><trkpt lat="42.06186953334992" lon="-3.4040953386421284"><ele>924.0000000000001</ele><time>2026-05-03T08:56:15.001Z</time></trkpt><trkpt lat="42.06183728645291" lon="-3.403953091146806"><ele>924.0</ele><time>2026-05-03T08:56:16.001Z</time></trkpt><trkpt lat="42.061803102765836" lon="-3.403814542015379"><ele>924.0</ele><time>2026-05-03T08:56:17.001Z</time></trkpt><trkpt lat="42.06177097259747" lon="-3.4036768697462496"><ele>924.0</ele><time>2026-05-03T08:56:18.001Z</time></trkpt><trkpt lat="42.0617394898336" lon="-3.4035371186545116"><ele>924.0000000000001</ele><time>2026-05-03T08:56:19.001Z</time></trkpt><trkpt lat="42.061706694945705" lon="-3.403397507630812"><ele>924.0000000000001</ele><time>2026-05-03T08:56:20.001Z</time></trkpt><trkpt lat="42.06167624689713" lon="-3.403258635610389"><ele>924.0</ele><time>2026-05-03T08:56:21.001Z</time></trkpt><trkpt lat="42.06164332489408" lon="-3.4031179466255854"><ele>924.0</ele><time>2026-05-03T08:56:22.001Z</time></trkpt><trkpt lat="42.06160932511896" lon="-3.4029774582893593"><ele>923.8000000000001</ele><time>2026-05-03T08:56:23.001Z</time></trkpt><trkpt lat="42.061577047189566" lon="-3.4028393064233446"><ele>923.6000000000001</ele><time>2026-05-03T08:56:24.001Z</time></trkpt><trkpt lat="42.06154059072658" lon="-3.4026968144648655"><ele>923.4</ele><time>2026-05-03T08:56:25.001Z</time></trkpt><trkpt lat="42.061512859329014" lon="-3.4025621615551334"><ele>923.2</ele><time>2026-05-03T08:56:26.001Z</time></trkpt><trkpt lat="42.06147908612372" lon="-3.402419551485047"><ele>923.0</ele><time>2026-05-03T08:56:27.001Z</time></trkpt><trkpt lat="42.061447517254045" lon="-3.4022797558345226"><ele>922.8</ele><time>2026-05-03T08:56:28.001Z</time></trkpt><trkpt lat="42.061416652655986" lon="-3.4021409795291917"><ele>922.5999999999999</ele><time>2026-05-03T08:56:29.001Z</time></trkpt><trkpt lat="42.06138628210047" lon="-3.4020096549786696"><ele>922.4000000000001</ele><time>2026-05-03T08:56:30.001Z</time></trkpt><trkpt lat="42.06135520717203" lon="-3.4018759992990186"><ele>922.2</ele><time>2026-05-03T08:56:31.001Z</time></trkpt><trkpt lat="42.06132088433238" lon="-3.4017343251391186"><ele>922.0</ele><time>2026-05-03T08:56:32.001Z</time></trkpt><trkpt lat="42.06128845658164" lon="-3.401596460156878"><ele>922.0</ele><time>2026-05-03T08:56:33.001Z</time></trkpt><trkpt lat="42.061254488245005" lon="-3.401462007006792"><ele>922.0</ele><time>2026-05-03T08:56:34.001Z</time></trkpt><trkpt lat="42.06122060257396" lon="-3.4013277907554222"><ele>922.0</ele><time>2026-05-03T08:56:35.001Z</time></trkpt><trkpt lat="42.06118241158657" lon="-3.401195337590238"><ele>922.0</ele><time>2026-05-03T08:56:36.001Z</time></trkpt><trkpt lat="42.061144582593606" lon="-3.401061340460341"><ele>922.0</ele><time>2026-05-03T08:56:37.001Z</time></trkpt><trkpt lat="42.06110827703156" lon="-3.400927213264574"><ele>922.2</ele><time>2026-05-03T08:56:38.001Z</time></trkpt><trkpt lat="42.061070640315236" lon="-3.4007921119409503"><ele>922.4000000000001</ele><time>2026-05-03T08:56:39.001Z</time></trkpt><trkpt lat="42.061036332098695" lon="-3.4006561137368467"><ele>922.5999999999999</ele><time>2026-05-03T08:56:40.001Z</time></trkpt><trkpt lat="42.061001488706985" lon="-3.4005189876063686"><ele>922.8</ele><time>2026-05-03T08:56:41.001Z</time></trkpt><trkpt lat="42.060965761945" lon="-3.4003821135019363"><ele>923.0</ele><time>2026-05-03T08:56:42.001Z</time></trkpt><trkpt lat="42.06093031959059" lon="-3.4002428337291346"><ele>923.2</ele><time>2026-05-03T08:56:43.001Z</time></trkpt><trkpt lat="42.06089507381575" lon="-3.400106771198763"><ele>923.4</ele><time>2026-05-03T08:56:44.001Z</time></trkpt><trkpt lat="42.0608582931726" lon="-3.3999701484247775"><ele>923.6000000000001</ele><time>2026-05-03T08:56:45.001Z</time></trkpt><trkpt lat="42.060818520405284" lon="-3.3998344318991585"><ele>923.8000000000001</ele><time>2026-05-03T08:56:46.001Z</time></trkpt><trkpt lat="42.06077409444167" lon="-3.3996861625868524"><ele>924.0</ele><time>2026-05-03T08:56:47.001Z</time></trkpt><trkpt lat="42.060729185018076" lon="-3.3995636857462537"><ele>924.0</ele><time>2026-05-03T08:56:48.001Z</time></trkpt><trkpt lat="42.06068046256369" lon="-3.3994342164523768"><ele>924.0000000000001</ele><time>2026-05-03T08:56:49.001Z</time></trkpt><trkpt lat="42.0606335236385" lon="-3.3993034334775314"><ele>924.0000000000001</ele><time>2026-05-03T08:56:50.001Z</time></trkpt><trkpt lat="42.06058487838337" lon="-3.399179204570698"><ele>924.0</ele><time>2026-05-03T08:56:51.001Z</time></trkpt><trkpt lat="42.060531222384576" lon="-3.3990525581046684"><ele>924.0</ele><time>2026-05-03T08:56:52.001Z</time></trkpt><trkpt lat="42.06047481544437" lon="-3.398931353792479"><ele>924.0</ele><time>2026-05-03T08:56:53.001Z</time></trkpt><trkpt lat="42.06041665097932" lon="-3.398808163360596"><ele>924.0000000000001</ele><time>2026-05-03T08:56:54.001Z</time></trkpt><trkpt lat="42.06035902570069" lon="-3.398685755406775"><ele>924.0000000000001</ele><time>2026-05-03T08:56:55.001Z</time></trkpt><trkpt lat="42.06029896107341" lon="-3.398561055842906"><ele>924.0</ele><time>2026-05-03T08:56:56.001Z</time></trkpt><trkpt lat="42.06024222012861" lon="-3.3984392708586206"><ele>924.0</ele><time>2026-05-03T08:56:57.001Z</time></trkpt><trkpt lat="42.06018141062323" lon="-3.3983164655947333"><ele>924.0</ele><time>2026-05-03T08:56:58.001Z</time></trkpt><trkpt lat="42.06012261453469" lon="-3.398191244201154"><ele>924.0000000000001</ele><time>2026-05-03T08:56:59Z</time></trkpt><trkpt lat="42.06006458502944" lon="-3.3980662559588977"><ele>924.0000000000001</ele><time>2026-05-03T08:57:00Z</time></trkpt><trkpt lat="42.0600107073605" lon="-3.397940428041084"><ele>924.0</ele><time>2026-05-03T08:57:01Z</time></trkpt><trkpt lat="42.059949429981295" lon="-3.3978120704087647"><ele>924.0</ele><time>2026-05-03T08:57:02Z</time></trkpt><trkpt lat="42.059901418310986" lon="-3.3976931675703987"><ele>924.0</ele><time>2026-05-03T08:57:03Z</time></trkpt><trkpt lat="42.05985665010914" lon="-3.3975656480557515"><ele>924.0000000000001</ele><time>2026-05-03T08:57:04Z</time></trkpt><trkpt lat="42.059819871626985" lon="-3.397473366293679"><ele>924.0000000000001</ele><time>2026-05-03T08:57:05Z</time></trkpt><trkpt lat="42.059728465417386" lon="-3.3973030709592402"><ele>924.0</ele><time>2026-05-03T08:57:06Z</time></trkpt><trkpt lat="42.05967250014796" lon="-3.3971758074958682"><ele>924.0</ele><time>2026-05-03T08:57:07Z</time></trkpt><trkpt lat="42.059614289140335" lon="-3.3970522275119435"><ele>924.0</ele><time>2026-05-03T08:57:08Z</time></trkpt><trkpt lat="42.05955805256193" lon="-3.3969318420378607"><ele>924.0000000000001</ele><time>2026-05-03T08:57:09Z</time></trkpt><trkpt lat="42.05950069256221" lon="-3.396809373348902"><ele>924.0000000000001</ele><time>2026-05-03T08:57:10Z</time></trkpt><trkpt lat="42.05944388781569" lon="-3.3966860611662772"><ele>924.0</ele><time>2026-05-03T08:57:11Z</time></trkpt><trkpt lat="42.05938655459453" lon="-3.3965633793320804"><ele>924.0</ele><time>2026-05-03T08:57:12Z</time></trkpt><trkpt lat="42.05932822443426" lon="-3.3964397886112847"><ele>924.0</ele><time>2026-05-03T08:57:13Z</time></trkpt><trkpt lat="42.05927223780526" lon="-3.396316217465357"><ele>924.0000000000001</ele><time>2026-05-03T08:57:14Z</time></trkpt><trkpt lat="42.05921350152802" lon="-3.396193179815121"><ele>924.0000000000001</ele><time>2026-05-03T08:57:15Z</time></trkpt><trkpt lat="42.05915605586382" lon="-3.3960710923752964"><ele>924.0</ele><time>2026-05-03T08:57:16Z</time></trkpt><trkpt lat="42.059099193008606" lon="-3.3959490335825797"><ele>924.0</ele><time>2026-05-03T08:57:17Z</time></trkpt><trkpt lat="42.05904157957769" lon="-3.3958261553719082"><ele>924.0</ele><time>2026-05-03T08:57:18Z</time></trkpt><trkpt lat="42.05898526416627" lon="-3.3957041206970646"><ele>924.0000000000001</ele><time>2026-05-03T08:57:19Z</time></trkpt><trkpt lat="42.05892754567279" lon="-3.3955850471018474"><ele>924.0000000000001</ele><time>2026-05-03T08:57:20Z</time></trkpt><trkpt lat="42.05887109436352" lon="-3.395466166880325"><ele>924.0</ele><time>2026-05-03T08:57:21Z</time></trkpt><trkpt lat="42.0588134773637" lon="-3.395347660604847"><ele>924.0</ele><time>2026-05-03T08:57:22Z</time></trkpt><trkpt lat="42.05875573393787" lon="-3.395230436868721"><ele>924.2</ele><time>2026-05-03T08:57:23Z</time></trkpt><trkpt lat="42.058699849453504" lon="-3.3951123148694182"><ele>924.4000000000001</ele><time>2026-05-03T08:57:24Z</time></trkpt><trkpt lat="42.05864263323227" lon="-3.394997405371528"><ele>924.6</ele><time>2026-05-03T08:57:25Z</time></trkpt><trkpt lat="42.058586682791066" lon="-3.3948790226975682"><ele>924.8</ele><time>2026-05-03T08:57:26Z</time></trkpt><trkpt lat="42.05853086297606" lon="-3.394762587601541"><ele>925.0</ele><time>2026-05-03T08:57:27Z</time></trkpt><trkpt lat="42.058478654564695" lon="-3.3946472729841926"><ele>925.2</ele><time>2026-05-03T08:57:28Z</time></trkpt><trkpt lat="42.05842421130427" lon="-3.394533156206515"><ele>925.4</ele><time>2026-05-03T08:57:29Z</time></trkpt><trkpt lat="42.05836893626154" lon="-3.3944159028349294"><ele>925.5999999999999</ele><time>2026-05-03T08:57:30Z</time></trkpt><trkpt lat="42.058313221814686" lon="-3.3942994464274507"><ele>925.8</ele><time>2026-05-03T08:57:31Z</time></trkpt><trkpt lat="42.05825602972482" lon="-3.394186350890376"><ele>926.0</ele><time>2026-05-03T08:57:32Z</time></trkpt><trkpt lat="42.05820036864855" lon="-3.3940738614429753"><ele>926.0</ele><time>2026-05-03T08:57:33Z</time></trkpt><trkpt lat="42.058144557756535" lon="-3.3939540379021746"><ele>925.9999999999999</ele><time>2026-05-03T08:57:34Z</time></trkpt><trkpt lat="42.0580887656691" lon="-3.393838272148581"><ele>925.9999999999999</ele><time>2026-05-03T08:57:35Z</time></trkpt><trkpt lat="42.058035923243295" lon="-3.39371978050147"><ele>926.0</ele><time>2026-05-03T08:57:36Z</time></trkpt><trkpt lat="42.057983402318335" lon="-3.3935990699908034"><ele>926.0</ele><time>2026-05-03T08:57:37Z</time></trkpt><trkpt lat="42.05792912150555" lon="-3.393485261044787"><ele>926.0</ele><time>2026-05-03T08:57:38Z</time></trkpt><trkpt lat="42.057871405590994" lon="-3.393371650435053"><ele>925.9999999999999</ele><time>2026-05-03T08:57:39Z</time></trkpt><trkpt lat="42.057816104491195" lon="-3.3932538780737502"><ele>925.9999999999999</ele><time>2026-05-03T08:57:40Z</time></trkpt><trkpt lat="42.057761195814656" lon="-3.393133100348607"><ele>926.0</ele><time>2026-05-03T08:57:41Z</time></trkpt><trkpt lat="42.05770543712475" lon="-3.3930148119504677"><ele>926.0</ele><time>2026-05-03T08:57:42Z</time></trkpt><trkpt lat="42.05764888244856" lon="-3.3928948920975386"><ele>926.0</ele><time>2026-05-03T08:57:43Z</time></trkpt><trkpt lat="42.05758987145527" lon="-3.3927788958119995"><ele>925.9999999999999</ele><time>2026-05-03T08:57:44Z</time></trkpt><trkpt lat="42.05752991885573" lon="-3.392658979940187"><ele>925.9999999999999</ele><time>2026-05-03T08:57:45Z</time></trkpt><trkpt lat="42.05747047521022" lon="-3.3925360978445376"><ele>926.0</ele><time>2026-05-03T08:57:46Z</time></trkpt><trkpt lat="42.057411100596504" lon="-3.392415987943067"><ele>926.0</ele><time>2026-05-03T08:57:47Z</time></trkpt><trkpt lat="42.057355076900485" lon="-3.3922882656460547"><ele>926.1999999999999</ele><time>2026-05-03T08:57:48Z</time></trkpt><trkpt lat="42.057298300365616" lon="-3.392160986509114"><ele>926.3999999999999</ele><time>2026-05-03T08:57:49Z</time></trkpt><trkpt lat="42.05723751247007" lon="-3.3920390643422116"><ele>926.6</ele><time>2026-05-03T08:57:50Z</time></trkpt><trkpt lat="42.05717601277948" lon="-3.391918835868771"><ele>926.8</ele><time>2026-05-03T08:57:51Z</time></trkpt><trkpt lat="42.05711857576387" lon="-3.391794173202576"><ele>927.0</ele><time>2026-05-03T08:57:52Z</time></trkpt><trkpt lat="42.05705791387595" lon="-3.3916689774762445"><ele>927.0</ele><time>2026-05-03T08:57:53Z</time></trkpt><trkpt lat="42.05700259278711" lon="-3.3915474143091617"><ele>927.0</ele><time>2026-05-03T08:57:54Z</time></trkpt><trkpt lat="42.056945579292204" lon="-3.391425951183909"><ele>927.0</ele><time>2026-05-03T08:57:55Z</time></trkpt><trkpt lat="42.05688638429056" lon="-3.3913044644847052"><ele>927.0</ele><time>2026-05-03T08:57:56Z</time></trkpt><trkpt lat="42.056827574497" lon="-3.3911845329748913"><ele>927.0</ele><time>2026-05-03T08:57:57Z</time></trkpt><trkpt lat="42.05677115480677" lon="-3.3910660364917784"><ele>927.0</ele><time>2026-05-03T08:57:58Z</time></trkpt><trkpt lat="42.05671327682683" lon="-3.390946535079764"><ele>927.0</ele><time>2026-05-03T08:57:59Z</time></trkpt><trkpt lat="42.05665553238439" lon="-3.3908259116771085"><ele>927.0</ele><time>2026-05-03T08:58:00Z</time></trkpt><trkpt lat="42.05659561937999" lon="-3.3907040332307963"><ele>927.0</ele><time>2026-05-03T08:58:01Z</time></trkpt><trkpt lat="42.056538782248154" lon="-3.3905834281952005"><ele>927.0</ele><time>2026-05-03T08:58:02Z</time></trkpt><trkpt lat="42.05648208006807" lon="-3.3904612701079535"><ele>926.8</ele><time>2026-05-03T08:58:03Z</time></trkpt><trkpt lat="42.056424889222434" lon="-3.390341090087986"><ele>926.6</ele><time>2026-05-03T08:58:04Z</time></trkpt><trkpt lat="42.05636647377305" lon="-3.3902184942471827"><ele>926.3999999999999</ele><time>2026-05-03T08:58:05Z</time></trkpt><trkpt lat="42.05630871121112" lon="-3.3900971623277494"><ele>926.1999999999999</ele><time>2026-05-03T08:58:06Z</time></trkpt><trkpt lat="42.056251797203814" lon="-3.3899759574986743"><ele>926.0</ele><time>2026-05-03T08:58:07Z</time></trkpt><trkpt lat="42.05620011944823" lon="-3.389850510580803"><ele>926.0</ele><time>2026-05-03T08:58:08Z</time></trkpt><trkpt lat="42.05614590395614" lon="-3.389723690808587"><ele>925.9999999999999</ele><time>2026-05-03T08:58:09Z</time></trkpt><trkpt lat="42.05609185612395" lon="-3.389600029440487"><ele>925.9999999999999</ele><time>2026-05-03T08:58:10Z</time></trkpt><trkpt lat="42.05603817895153" lon="-3.389476961439768"><ele>926.0</ele><time>2026-05-03T08:58:11Z</time></trkpt><trkpt lat="42.05598365070388" lon="-3.3893508194317796"><ele>926.0</ele><time>2026-05-03T08:58:12Z</time></trkpt><trkpt lat="42.05592945189263" lon="-3.389224289107959"><ele>926.1999999999999</ele><time>2026-05-03T08:58:13Z</time></trkpt><trkpt lat="42.05587482508008" lon="-3.3891009226302455"><ele>926.3999999999999</ele><time>2026-05-03T08:58:14Z</time></trkpt><trkpt lat="42.05582333840249" lon="-3.3889737766392587"><ele>926.6</ele><time>2026-05-03T08:58:15Z</time></trkpt><trkpt lat="42.05576962626977" lon="-3.3888473056272814"><ele>926.8</ele><time>2026-05-03T08:58:16Z</time></trkpt><trkpt lat="42.055715987331965" lon="-3.3887225558658147"><ele>927.0</ele><time>2026-05-03T08:58:17Z</time></trkpt><trkpt lat="42.05566728931993" lon="-3.3885950513149745"><ele>927.0</ele><time>2026-05-03T08:58:18Z</time></trkpt><trkpt lat="42.055617955378366" lon="-3.3884649182000524"><ele>927.0</ele><time>2026-05-03T08:58:19Z</time></trkpt><trkpt lat="42.05556833991146" lon="-3.388337441289064"><ele>927.0</ele><time>2026-05-03T08:58:20Z</time></trkpt><trkpt lat="42.05552072271531" lon="-3.388208624615006"><ele>927.0</ele><time>2026-05-03T08:58:21Z</time></trkpt><trkpt lat="42.05547049473315" lon="-3.388080159835665"><ele>927.0</ele><time>2026-05-03T08:58:22Z</time></trkpt><trkpt lat="42.05542090574462" lon="-3.3879535101643206"><ele>927.2</ele><time>2026-05-03T08:58:23Z</time></trkpt><trkpt lat="42.055375313844934" lon="-3.387822515093586"><ele>927.4000000000001</ele><time>2026-05-03T08:58:24Z</time></trkpt><trkpt lat="42.05532511034013" lon="-3.387695390608127"><ele>927.5999999999999</ele><time>2026-05-03T08:58:25Z</time></trkpt><trkpt lat="42.05527632333926" lon="-3.3875661147089833"><ele>927.8</ele><time>2026-05-03T08:58:26Z</time></trkpt><trkpt lat="42.05523065643657" lon="-3.387438539779906"><ele>928.0</ele><time>2026-05-03T08:58:27Z</time></trkpt><trkpt lat="42.05518415456745" lon="-3.3873089735940813"><ele>928.0</ele><time>2026-05-03T08:58:28Z</time></trkpt><trkpt lat="42.05514029890855" lon="-3.387178417030617"><ele>928.0</ele><time>2026-05-03T08:58:29Z</time></trkpt><trkpt lat="42.05509612856666" lon="-3.3870506071021915"><ele>928.0</ele><time>2026-05-03T08:58:30Z</time></trkpt><trkpt lat="42.05504996725833" lon="-3.386926485700343"><ele>928.0</ele><time>2026-05-03T08:58:31Z</time></trkpt><trkpt lat="42.05500813502904" lon="-3.3867965548139476"><ele>928.0</ele><time>2026-05-03T08:58:32Z</time></trkpt><trkpt lat="42.05496460040587" lon="-3.3866709798752934"><ele>928.4</ele><time>2026-05-03T08:58:33Z</time></trkpt><trkpt lat="42.054924319409224" lon="-3.3865475410643286"><ele>928.8</ele><time>2026-05-03T08:58:34Z</time></trkpt><trkpt lat="42.054883875817346" lon="-3.386419148130556"><ele>929.2</ele><time>2026-05-03T08:58:35Z</time></trkpt><trkpt lat="42.05484341636013" lon="-3.386298264978588"><ele>929.6</ele><time>2026-05-03T08:58:36Z</time></trkpt><trkpt lat="42.05480236769462" lon="-3.3861753586792878"><ele>930.0</ele><time>2026-05-03T08:58:37Z</time></trkpt><trkpt lat="42.05475686807902" lon="-3.3860506295906396"><ele>930.2</ele><time>2026-05-03T08:58:38Z</time></trkpt><trkpt lat="42.05471956549722" lon="-3.385933797848448"><ele>930.4</ele><time>2026-05-03T08:58:39Z</time></trkpt><trkpt lat="42.05467574645262" lon="-3.3858011064131133"><ele>930.5999999999999</ele><time>2026-05-03T08:58:40.001Z</time></trkpt><trkpt lat="42.05463191204702" lon="-3.385683434988881"><ele>930.8</ele><time>2026-05-03T08:58:41.001Z</time></trkpt><trkpt lat="42.05458835074018" lon="-3.3855636716732165"><ele>931.0</ele><time>2026-05-03T08:58:42.001Z</time></trkpt><trkpt lat="42.054545354160666" lon="-3.385440695236673"><ele>931.4</ele><time>2026-05-03T08:58:43.001Z</time></trkpt><trkpt lat="42.05450049902095" lon="-3.3853196304475297"><ele>931.8</ele><time>2026-05-03T08:58:44.001Z</time></trkpt><trkpt lat="42.054455476614756" lon="-3.385201293302031"><ele>932.1999999999999</ele><time>2026-05-03T08:58:45.001Z</time></trkpt><trkpt lat="42.05441174398606" lon="-3.385079929542885"><ele>932.5999999999999</ele><time>2026-05-03T08:58:46.001Z</time></trkpt><trkpt lat="42.05436683885646" lon="-3.3849593138005605"><ele>933.0</ele><time>2026-05-03T08:58:47.001Z</time></trkpt><trkpt lat="42.054323913930965" lon="-3.384841909144304"><ele>933.0</ele><time>2026-05-03T08:58:48.001Z</time></trkpt><trkpt lat="42.05428449592673" lon="-3.384722965838411"><ele>933.0</ele><time>2026-05-03T08:58:49.001Z</time></trkpt><trkpt lat="42.05423620447844" lon="-3.384602172213479"><ele>933.0</ele><time>2026-05-03T08:58:50.001Z</time></trkpt><trkpt lat="42.05418845919836" lon="-3.3844779591370866"><ele>933.0</ele><time>2026-05-03T08:58:51.001Z</time></trkpt><trkpt lat="42.05414314320773" lon="-3.3843679364987804"><ele>933.0</ele><time>2026-05-03T08:58:52.001Z</time></trkpt><trkpt lat="42.05409684117688" lon="-3.3842464385486695"><ele>933.8</ele><time>2026-05-03T08:58:53.001Z</time></trkpt><trkpt lat="42.05405034318354" lon="-3.3841259086469013"><ele>934.5999999999999</ele><time>2026-05-03T08:58:54.001Z</time></trkpt><trkpt lat="42.05400274973943" lon="-3.3840077733786718"><ele>935.4000000000001</ele><time>2026-05-03T08:58:55.001Z</time></trkpt><trkpt lat="42.05395459009933" lon="-3.3838894044056653"><ele>936.2</ele><time>2026-05-03T08:58:56.001Z</time></trkpt><trkpt lat="42.053904617003525" lon="-3.383770197566397"><ele>937.0</ele><time>2026-05-03T08:58:57.001Z</time></trkpt><trkpt lat="42.05385517582006" lon="-3.3836548761883933"><ele>937.2</ele><time>2026-05-03T08:58:58.001Z</time></trkpt><trkpt lat="42.053806947545304" lon="-3.383532988274186"><ele>937.4000000000001</ele><time>2026-05-03T08:58:59.001Z</time></trkpt><trkpt lat="42.05375723984407" lon="-3.3834173440677175"><ele>937.5999999999999</ele><time>2026-05-03T08:59:00.001Z</time></trkpt><trkpt lat="42.053703469635686" lon="-3.3832988446350294"><ele>937.8</ele><time>2026-05-03T08:59:01.001Z</time></trkpt><trkpt lat="42.05365259535452" lon="-3.3831814909522007"><ele>938.0</ele><time>2026-05-03T08:59:02.001Z</time></trkpt><trkpt lat="42.053600446622866" lon="-3.3830607562668096"><ele>938.0</ele><time>2026-05-03T08:59:03.001Z</time></trkpt><trkpt lat="42.05354786621526" lon="-3.382946057994995"><ele>938.0</ele><time>2026-05-03T08:59:04.001Z</time></trkpt><trkpt lat="42.053495275189846" lon="-3.3828254326811438"><ele>938.0</ele><time>2026-05-03T08:59:05Z</time></trkpt><trkpt lat="42.05344238879136" lon="-3.382711338894872"><ele>938.0</ele><time>2026-05-03T08:59:06Z</time></trkpt><trkpt lat="42.05338701725968" lon="-3.382594037310078"><ele>938.0</ele><time>2026-05-03T08:59:07Z</time></trkpt><trkpt lat="42.05333222412626" lon="-3.3824777964664436"><ele>938.0</ele><time>2026-05-03T08:59:08Z</time></trkpt><trkpt lat="42.0532770106269" lon="-3.3823583709423874"><ele>938.0</ele><time>2026-05-03T08:59:09Z</time></trkpt><trkpt lat="42.053221496388666" lon="-3.3822381800271124"><ele>938.0</ele><time>2026-05-03T08:59:10Z</time></trkpt><trkpt lat="42.05316628446094" lon="-3.3821246228310486"><ele>938.0</ele><time>2026-05-03T08:59:11Z</time></trkpt><trkpt lat="42.05311030821296" lon="-3.3820058550401146"><ele>938.0</ele><time>2026-05-03T08:59:12Z</time></trkpt><trkpt lat="42.05305256415381" lon="-3.3818892184569322"><ele>938.0</ele><time>2026-05-03T08:59:13Z</time></trkpt><trkpt lat="42.052995486356544" lon="-3.38177610344117"><ele>938.0</ele><time>2026-05-03T08:59:14Z</time></trkpt><trkpt lat="42.052938186520834" lon="-3.3816612151667234"><ele>938.0</ele><time>2026-05-03T08:59:15Z</time></trkpt><trkpt lat="42.05288307523563" lon="-3.381547323174506"><ele>938.0</ele><time>2026-05-03T08:59:16Z</time></trkpt><trkpt lat="42.05282629234978" lon="-3.3814294549262063"><ele>938.0</ele><time>2026-05-03T08:59:17Z</time></trkpt><trkpt lat="42.05276921844221" lon="-3.38131617498234"><ele>938.4</ele><time>2026-05-03T08:59:18Z</time></trkpt><trkpt lat="42.05271178299837" lon="-3.381201354880898"><ele>938.8</ele><time>2026-05-03T08:59:19Z</time></trkpt><trkpt lat="42.05265483050637" lon="-3.381092253328699"><ele>939.2</ele><time>2026-05-03T08:59:20Z</time></trkpt><trkpt lat="42.052595880144295" lon="-3.3809776488204015"><ele>939.6</ele><time>2026-05-03T08:59:21Z</time></trkpt><trkpt lat="42.05253525499322" lon="-3.3808673478163236"><ele>940.0</ele><time>2026-05-03T08:59:22Z</time></trkpt><trkpt lat="42.05247600065838" lon="-3.380752631740335"><ele>940.0</ele><time>2026-05-03T08:59:23Z</time></trkpt><trkpt lat="42.052415532854035" lon="-3.3806425308264387"><ele>940.0</ele><time>2026-05-03T08:59:24Z</time></trkpt><trkpt lat="42.05235243667679" lon="-3.3805320214389756"><ele>940.0</ele><time>2026-05-03T08:59:25Z</time></trkpt><trkpt lat="42.05228950180421" lon="-3.380415323915251"><ele>940.0</ele><time>2026-05-03T08:59:26Z</time></trkpt><trkpt lat="42.052225959235" lon="-3.380302282624088"><ele>940.0</ele><time>2026-05-03T08:59:27Z</time></trkpt><trkpt lat="42.05216541886612" lon="-3.380190141524403"><ele>940.0</ele><time>2026-05-03T08:59:28Z</time></trkpt><trkpt lat="42.05210426795361" lon="-3.380077055869251"><ele>940.0</ele><time>2026-05-03T08:59:29Z</time></trkpt><trkpt lat="42.05203968131209" lon="-3.379967913074154"><ele>940.0</ele><time>2026-05-03T08:59:30Z</time></trkpt><trkpt lat="42.0519756295303" lon="-3.3798604877389793"><ele>940.0</ele><time>2026-05-03T08:59:31Z</time></trkpt><trkpt lat="42.05191317811444" lon="-3.3797542843091763"><ele>940.0</ele><time>2026-05-03T08:59:32Z</time></trkpt><trkpt lat="42.05184903347473" lon="-3.3796423466923833"><ele>940.8</ele><time>2026-05-03T08:59:33Z</time></trkpt><trkpt lat="42.051786816648466" lon="-3.379534948043516"><ele>941.6</ele><time>2026-05-03T08:59:34Z</time></trkpt><trkpt lat="42.051723746505395" lon="-3.3794221594859257"><ele>942.4000000000001</ele><time>2026-05-03T08:59:35Z</time></trkpt><trkpt lat="42.051656714408914" lon="-3.3793166116854954"><ele>943.2</ele><time>2026-05-03T08:59:36Z</time></trkpt><trkpt lat="42.051592621306206" lon="-3.3792074689693217"><ele>944.0</ele><time>2026-05-03T08:59:37Z</time></trkpt><trkpt lat="42.051528688606595" lon="-3.379101691974399"><ele>944.2</ele><time>2026-05-03T08:59:38Z</time></trkpt><trkpt lat="42.05146573341248" lon="-3.378991846076547"><ele>944.4000000000001</ele><time>2026-05-03T08:59:39Z</time></trkpt><trkpt lat="42.05140441425839" lon="-3.3788844063535297"><ele>944.6</ele><time>2026-05-03T08:59:40Z</time></trkpt><trkpt lat="42.05134195857955" lon="-3.378773282048105"><ele>944.8</ele><time>2026-05-03T08:59:41Z</time></trkpt><trkpt lat="42.05128125338229" lon="-3.3786593866533603"><ele>945.0</ele><time>2026-05-03T08:59:42Z</time></trkpt><trkpt lat="42.05122329841285" lon="-3.3785441886059453"><ele>945.0</ele><time>2026-05-03T08:59:43Z</time></trkpt><trkpt lat="42.05116609918259" lon="-3.37842767870228"><ele>945.0</ele><time>2026-05-03T08:59:44Z</time></trkpt><trkpt lat="42.05111105024413" lon="-3.378309035666933"><ele>945.0</ele><time>2026-05-03T08:59:45Z</time></trkpt><trkpt lat="42.051056032195255" lon="-3.3781904440121218"><ele>945.0</ele><time>2026-05-03T08:59:46Z</time></trkpt><trkpt lat="42.05100395158523" lon="-3.378067012450139"><ele>945.0</ele><time>2026-05-03T08:59:47Z</time></trkpt><trkpt lat="42.050954039886804" lon="-3.377939151468327"><ele>945.0</ele><time>2026-05-03T08:59:48Z</time></trkpt><trkpt lat="42.05090554346601" lon="-3.3778096369308446"><ele>945.0</ele><time>2026-05-03T08:59:49Z</time></trkpt><trkpt lat="42.05085715597111" lon="-3.377678041109991"><ele>945.0</ele><time>2026-05-03T08:59:50Z</time></trkpt><trkpt lat="42.050811159713234" lon="-3.377547151855492"><ele>945.0</ele><time>2026-05-03T08:59:51Z</time></trkpt><trkpt lat="42.05077086433636" lon="-3.3774175443822703"><ele>945.0</ele><time>2026-05-03T08:59:52Z</time></trkpt><trkpt lat="42.050730579514735" lon="-3.3772856341318374"><ele>943.2</ele><time>2026-05-03T08:59:53Z</time></trkpt><trkpt lat="42.050694486857566" lon="-3.3771516369502086"><ele>941.4</ele><time>2026-05-03T08:59:54Z</time></trkpt><trkpt lat="42.05066190065841" lon="-3.3770170276739027"><ele>939.5999999999999</ele><time>2026-05-03T08:59:55Z</time></trkpt><trkpt lat="42.05062908679904" lon="-3.376879608383756"><ele>937.8</ele><time>2026-05-03T08:59:56Z</time></trkpt><trkpt lat="42.05060080540973" lon="-3.376738581958498"><ele>936.0</ele><time>2026-05-03T08:59:57Z</time></trkpt><trkpt lat="42.05057488388709" lon="-3.376598717716141"><ele>936.0</ele><time>2026-05-03T08:59:58Z</time></trkpt><trkpt lat="42.05055137386439" lon="-3.3764577682211514"><ele>935.9999999999999</ele><time>2026-05-03T08:59:59Z</time></trkpt><trkpt lat="42.05052795683321" lon="-3.3763202286581695"><ele>935.9999999999999</ele><time>2026-05-03T09:00:00Z</time></trkpt><trkpt lat="42.050504307223775" lon="-3.3761813359865442"><ele>936.0</ele><time>2026-05-03T09:00:01Z</time></trkpt><trkpt lat="42.05048016745036" lon="-3.376041081338225"><ele>936.0</ele><time>2026-05-03T09:00:02Z</time></trkpt><trkpt lat="42.05045411738411" lon="-3.3758978492970884"><ele>935.8</ele><time>2026-05-03T09:00:03Z</time></trkpt><trkpt lat="42.050430852273315" lon="-3.3757570751521717"><ele>935.5999999999999</ele><time>2026-05-03T09:00:04Z</time></trkpt><trkpt lat="42.05040846215761" lon="-3.3756130824797492"><ele>935.4</ele><time>2026-05-03T09:00:05Z</time></trkpt><trkpt lat="42.0503857150258" lon="-3.3754724597071855"><ele>935.2</ele><time>2026-05-03T09:00:06Z</time></trkpt><trkpt lat="42.05036231113691" lon="-3.375331587861417"><ele>935.0</ele><time>2026-05-03T09:00:07Z</time></trkpt><trkpt lat="42.05034615720883" lon="-3.3751869052567987"><ele>934.6</ele><time>2026-05-03T09:00:08Z</time></trkpt><trkpt lat="42.050328077174576" lon="-3.3750456019808377"><ele>934.2</ele><time>2026-05-03T09:00:09Z</time></trkpt><trkpt lat="42.05030713439574" lon="-3.3749063845217973"><ele>933.8</ele><time>2026-05-03T09:00:10Z</time></trkpt><trkpt lat="42.05028646164957" lon="-3.3747652230804155"><ele>933.4</ele><time>2026-05-03T09:00:11Z</time></trkpt><trkpt lat="42.0502678106236" lon="-3.374626715249242"><ele>933.0</ele><time>2026-05-03T09:00:12Z</time></trkpt><trkpt lat="42.05024415141363" lon="-3.3744883926397806"><ele>933.0</ele><time>2026-05-03T09:00:13Z</time></trkpt><trkpt lat="42.050222259353234" lon="-3.3743501009970926"><ele>933.0</ele><time>2026-05-03T09:00:14Z</time></trkpt><trkpt lat="42.050201725751656" lon="-3.3742117533472253"><ele>933.0</ele><time>2026-05-03T09:00:15Z</time></trkpt><trkpt lat="42.05017846203199" lon="-3.3740736687249244"><ele>933.0</ele><time>2026-05-03T09:00:16Z</time></trkpt><trkpt lat="42.050157551293125" lon="-3.3739344786837404"><ele>933.0</ele><time>2026-05-03T09:00:17Z</time></trkpt><trkpt lat="42.05013737904158" lon="-3.3737974620555766"><ele>933.4</ele><time>2026-05-03T09:00:18Z</time></trkpt><trkpt lat="42.050116586326844" lon="-3.373659699078881"><ele>933.8</ele><time>2026-05-03T09:00:19Z</time></trkpt><trkpt lat="42.05009498265764" lon="-3.37352177294977"><ele>934.2</ele><time>2026-05-03T09:00:20Z</time></trkpt><trkpt lat="42.05007393297554" lon="-3.3733828237760393"><ele>934.6</ele><time>2026-05-03T09:00:21Z</time></trkpt><trkpt lat="42.050054501754424" lon="-3.3732426348510343"><ele>935.0</ele><time>2026-05-03T09:00:22Z</time></trkpt><trkpt lat="42.05003268741062" lon="-3.3731037130500954"><ele>935.0</ele><time>2026-05-03T09:00:23Z</time></trkpt><trkpt lat="42.05001042368684" lon="-3.3729654359236956"><ele>935.0</ele><time>2026-05-03T09:00:24Z</time></trkpt><trkpt lat="42.04998701642716" lon="-3.3728276582824033"><ele>935.0</ele><time>2026-05-03T09:00:25Z</time></trkpt><trkpt lat="42.04996534546715" lon="-3.3726874770192765"><ele>935.0</ele><time>2026-05-03T09:00:26Z</time></trkpt><trkpt lat="42.04994513968432" lon="-3.3725497957876454"><ele>935.0</ele><time>2026-05-03T09:00:27Z</time></trkpt><trkpt lat="42.04992564768123" lon="-3.3724111227119686"><ele>935.0</ele><time>2026-05-03T09:00:28Z</time></trkpt><trkpt lat="42.049905554134405" lon="-3.372274136525524"><ele>935.0</ele><time>2026-05-03T09:00:29Z</time></trkpt><trkpt lat="42.04988382926721" lon="-3.3721358739872023"><ele>935.0</ele><time>2026-05-03T09:00:30Z</time></trkpt><trkpt lat="42.04986266151229" lon="-3.37199623162739"><ele>935.0</ele><time>2026-05-03T09:00:31Z</time></trkpt><trkpt lat="42.049841049646325" lon="-3.3718579562762847"><ele>935.0</ele><time>2026-05-03T09:00:32Z</time></trkpt><trkpt lat="42.04981896827468" lon="-3.3717212941056345"><ele>935.2</ele><time>2026-05-03T09:00:33Z</time></trkpt><trkpt lat="42.04979591909573" lon="-3.3715822540934344"><ele>935.4</ele><time>2026-05-03T09:00:34Z</time></trkpt><trkpt lat="42.04977421399015" lon="-3.3714433179533874"><ele>935.5999999999999</ele><time>2026-05-03T09:00:35Z</time></trkpt><trkpt lat="42.049753320803966" lon="-3.371303862354847"><ele>935.8</ele><time>2026-05-03T09:00:36Z</time></trkpt><trkpt lat="42.04973308794666" lon="-3.371167123580005"><ele>936.0</ele><time>2026-05-03T09:00:37Z</time></trkpt><trkpt lat="42.04971219208506" lon="-3.37102970335149"><ele>936.0</ele><time>2026-05-03T09:00:38Z</time></trkpt><trkpt lat="42.04969088961405" lon="-3.3708928778260376"><ele>935.9999999999999</ele><time>2026-05-03T09:00:39Z</time></trkpt><trkpt lat="42.04966967309193" lon="-3.370754794687044"><ele>935.9999999999999</ele><time>2026-05-03T09:00:40Z</time></trkpt><trkpt lat="42.04964943507508" lon="-3.370618861468787"><ele>936.0</ele><time>2026-05-03T09:00:41Z</time></trkpt><trkpt lat="42.04962744674177" lon="-3.3704807403394113"><ele>936.0</ele><time>2026-05-03T09:00:42Z</time></trkpt><trkpt lat="42.049607080864654" lon="-3.370342770872654"><ele>935.8</ele><time>2026-05-03T09:00:43Z</time></trkpt><trkpt lat="42.04958544071013" lon="-3.370207628201792"><ele>935.5999999999999</ele><time>2026-05-03T09:00:44Z</time></trkpt><trkpt lat="42.04956269844689" lon="-3.3700685867366182"><ele>935.4</ele><time>2026-05-03T09:00:45Z</time></trkpt><trkpt lat="42.049539965358946" lon="-3.369930465021157"><ele>935.2</ele><time>2026-05-03T09:00:46Z</time></trkpt><trkpt lat="42.04951986442037" lon="-3.369792226810754"><ele>935.0</ele><time>2026-05-03T09:00:47Z</time></trkpt><trkpt lat="42.04949880487893" lon="-3.369653764448627"><ele>935.4</ele><time>2026-05-03T09:00:48Z</time></trkpt><trkpt lat="42.049477442546845" lon="-3.369516590151505"><ele>935.8</ele><time>2026-05-03T09:00:49Z</time></trkpt><trkpt lat="42.0494568848669" lon="-3.3693802202031846"><ele>936.2</ele><time>2026-05-03T09:00:50.001Z</time></trkpt><trkpt lat="42.049434889534254" lon="-3.3692431816775352"><ele>936.6</ele><time>2026-05-03T09:00:51.001Z</time></trkpt><trkpt lat="42.04941255318113" lon="-3.3691029966181607"><ele>937.0</ele><time>2026-05-03T09:00:52.001Z</time></trkpt><trkpt lat="42.049392878390975" lon="-3.3689643174765984"><ele>937.2</ele><time>2026-05-03T09:00:53.001Z</time></trkpt><trkpt lat="42.04937231967651" lon="-3.3688256723307624"><ele>937.4000000000001</ele><time>2026-05-03T09:00:54.001Z</time></trkpt><trkpt lat="42.04935061904661" lon="-3.3686871088632095"><ele>937.5999999999999</ele><time>2026-05-03T09:00:55.001Z</time></trkpt><trkpt lat="42.04932967312173" lon="-3.3685499622081125"><ele>937.8</ele><time>2026-05-03T09:00:56.001Z</time></trkpt><trkpt lat="42.04930731803639" lon="-3.368413367121948"><ele>938.0</ele><time>2026-05-03T09:00:57.001Z</time></trkpt><trkpt lat="42.049284180489394" lon="-3.3682750326978903"><ele>938.0</ele><time>2026-05-03T09:00:58.001Z</time></trkpt><trkpt lat="42.04926072368605" lon="-3.3681348650507292"><ele>938.0</ele><time>2026-05-03T09:00:59.001Z</time></trkpt><trkpt lat="42.04924007073802" lon="-3.36799600443415"><ele>938.0</ele><time>2026-05-03T09:01:00.001Z</time></trkpt><trkpt lat="42.04922230901249" lon="-3.3678583942107396"><ele>938.0</ele><time>2026-05-03T09:01:01.001Z</time></trkpt><trkpt lat="42.04920386489095" lon="-3.3677227897766313"><ele>938.0</ele><time>2026-05-03T09:01:02.001Z</time></trkpt><trkpt lat="42.04918260341147" lon="-3.3675885927856712"><ele>938.2</ele><time>2026-05-03T09:01:03.001Z</time></trkpt><trkpt lat="42.049159927381545" lon="-3.367450318948202"><ele>938.4</ele><time>2026-05-03T09:01:04.001Z</time></trkpt><trkpt lat="42.04913785284624" lon="-3.367311832834926"><ele>938.6000000000001</ele><time>2026-05-03T09:01:05.001Z</time></trkpt><trkpt lat="42.04911557812953" lon="-3.367174644454591"><ele>938.8000000000001</ele><time>2026-05-03T09:01:06.001Z</time></trkpt><trkpt lat="42.04909442784069" lon="-3.3670350312584647"><ele>939.0</ele><time>2026-05-03T09:01:07.001Z</time></trkpt><trkpt lat="42.04907264787164" lon="-3.3668948497760507"><ele>939.2</ele><time>2026-05-03T09:01:08.001Z</time></trkpt><trkpt lat="42.04904949171351" lon="-3.3667600527174035"><ele>939.4000000000001</ele><time>2026-05-03T09:01:09.001Z</time></trkpt><trkpt lat="42.04902483454495" lon="-3.366622053669869"><ele>939.6</ele><time>2026-05-03T09:01:10.001Z</time></trkpt><trkpt lat="42.04900010897104" lon="-3.3664875793157707"><ele>939.8</ele><time>2026-05-03T09:01:11Z</time></trkpt><trkpt lat="42.048975622608005" lon="-3.366352520507458"><ele>940.0</ele><time>2026-05-03T09:01:12Z</time></trkpt><trkpt lat="42.048950464018" lon="-3.366215173426189"><ele>940.0</ele><time>2026-05-03T09:01:13Z</time></trkpt><trkpt lat="42.048927499877415" lon="-3.3660811670873216"><ele>940.0</ele><time>2026-05-03T09:01:14Z</time></trkpt><trkpt lat="42.04890259334914" lon="-3.3659498389090685"><ele>940.0</ele><time>2026-05-03T09:01:15Z</time></trkpt><trkpt lat="42.04887347163335" lon="-3.365816900693208"><ele>940.0</ele><time>2026-05-03T09:01:16Z</time></trkpt><trkpt lat="42.04884105462286" lon="-3.3656835013464885"><ele>940.0</ele><time>2026-05-03T09:01:17Z</time></trkpt><trkpt lat="42.04880596801691" lon="-3.3655510406965963"><ele>940.0</ele><time>2026-05-03T09:01:18Z</time></trkpt><trkpt lat="42.04876622568177" lon="-3.3654217267113946"><ele>940.0</ele><time>2026-05-03T09:01:19Z</time></trkpt><trkpt lat="42.048721679718476" lon="-3.3652940340611712"><ele>940.0</ele><time>2026-05-03T09:01:20Z</time></trkpt><trkpt lat="42.048673400935954" lon="-3.365167381639308"><ele>940.0</ele><time>2026-05-03T09:01:21Z</time></trkpt><trkpt lat="42.04862358446607" lon="-3.3650478589844712"><ele>940.0</ele><time>2026-05-03T09:01:22Z</time></trkpt><trkpt lat="42.04856837858135" lon="-3.36493283259501"><ele>940.0</ele><time>2026-05-03T09:01:23Z</time></trkpt><trkpt lat="42.048507981265274" lon="-3.3648213196542778"><ele>940.0</ele><time>2026-05-03T09:01:24Z</time></trkpt><trkpt lat="42.04844517546499" lon="-3.364713017603954"><ele>940.0</ele><time>2026-05-03T09:01:25Z</time></trkpt><trkpt lat="42.048378173073246" lon="-3.364604721323384"><ele>940.0</ele><time>2026-05-03T09:01:26Z</time></trkpt><trkpt lat="42.048312303479854" lon="-3.364507866183911"><ele>940.0</ele><time>2026-05-03T09:01:27Z</time></trkpt><trkpt lat="42.048241770457764" lon="-3.3644052826120703"><ele>940.0</ele><time>2026-05-03T09:01:28Z</time></trkpt><trkpt lat="42.0481686861215" lon="-3.3643116765369636"><ele>940.0</ele><time>2026-05-03T09:01:29Z</time></trkpt><trkpt lat="42.048092702101876" lon="-3.364218429749543"><ele>940.0</ele><time>2026-05-03T09:01:30Z</time></trkpt><trkpt lat="42.04801581431478" lon="-3.36412563267661"><ele>940.0</ele><time>2026-05-03T09:01:31Z</time></trkpt><trkpt lat="42.04793751295502" lon="-3.364033285620443"><ele>940.0</ele><time>2026-05-03T09:01:32Z</time></trkpt><trkpt lat="42.04785806122621" lon="-3.3639411738164964"><ele>939.8</ele><time>2026-05-03T09:01:33Z</time></trkpt><trkpt lat="42.04778234007657" lon="-3.3638461633788164"><ele>939.6</ele><time>2026-05-03T09:01:34Z</time></trkpt><trkpt lat="42.04770827162739" lon="-3.363754929129128"><ele>939.4000000000001</ele><time>2026-05-03T09:01:35Z</time></trkpt><trkpt lat="42.047630389665784" lon="-3.3636622789024764"><ele>939.2</ele><time>2026-05-03T09:01:36Z</time></trkpt><trkpt lat="42.04755152503976" lon="-3.3635703486264994"><ele>939.0</ele><time>2026-05-03T09:01:37Z</time></trkpt><trkpt lat="42.047474713846086" lon="-3.3634774074963887"><ele>938.8000000000001</ele><time>2026-05-03T09:01:38Z</time></trkpt><trkpt lat="42.04739601154175" lon="-3.363385135685448"><ele>938.6000000000001</ele><time>2026-05-03T09:01:39Z</time></trkpt><trkpt lat="42.04731710630848" lon="-3.363290631312768"><ele>938.4</ele><time>2026-05-03T09:01:40Z</time></trkpt><trkpt lat="42.04724001027406" lon="-3.3631948738200634"><ele>938.2</ele><time>2026-05-03T09:01:41Z</time></trkpt><trkpt lat="42.04716172858218" lon="-3.363102198612274"><ele>938.0</ele><time>2026-05-03T09:01:42Z</time></trkpt><trkpt lat="42.047079933376196" lon="-3.363011104387944"><ele>937.8</ele><time>2026-05-03T09:01:43Z</time></trkpt><trkpt lat="42.04699790205726" lon="-3.3629219411418885"><ele>937.5999999999999</ele><time>2026-05-03T09:01:44Z</time></trkpt><trkpt lat="42.0469151470866" lon="-3.3628348287831535"><ele>937.4000000000001</ele><time>2026-05-03T09:01:45Z</time></trkpt><trkpt lat="42.04682842995348" lon="-3.36274975612382"><ele>937.2</ele><time>2026-05-03T09:01:46Z</time></trkpt><trkpt lat="42.046743750485305" lon="-3.3626635312132103"><ele>937.0</ele><time>2026-05-03T09:01:47Z</time></trkpt><trkpt lat="42.0466576287044" lon="-3.362578955424675"><ele>937.0</ele><time>2026-05-03T09:01:48Z</time></trkpt><trkpt lat="42.046571426082366" lon="-3.3624989447521574"><ele>937.0</ele><time>2026-05-03T09:01:49Z</time></trkpt><trkpt lat="42.046484801248816" lon="-3.362418677797875"><ele>937.0</ele><time>2026-05-03T09:01:50Z</time></trkpt><trkpt lat="42.04640002040681" lon="-3.3623402176750505"><ele>937.0</ele><time>2026-05-03T09:01:51Z</time></trkpt><trkpt lat="42.04631231914739" lon="-3.362266140992195"><ele>937.0</ele><time>2026-05-03T09:01:52Z</time></trkpt><trkpt lat="42.046224375449654" lon="-3.362193430023934"><ele>937.0</ele><time>2026-05-03T09:01:53Z</time></trkpt><trkpt lat="42.04613512863765" lon="-3.362121493875547"><ele>937.0</ele><time>2026-05-03T09:01:54Z</time></trkpt><trkpt lat="42.04604573428321" lon="-3.3620512005784717"><ele>937.0</ele><time>2026-05-03T09:01:55Z</time></trkpt><trkpt lat="42.04595466338284" lon="-3.361980466170358"><ele>937.0</ele><time>2026-05-03T09:01:56Z</time></trkpt><trkpt lat="42.04586482912162" lon="-3.3619086211349383"><ele>937.0</ele><time>2026-05-03T09:01:57Z</time></trkpt><trkpt lat="42.04577196967232" lon="-3.361841744357198"><ele>938.0</ele><time>2026-05-03T09:01:58Z</time></trkpt><trkpt lat="42.04567925286198" lon="-3.3617756956786025"><ele>939.0</ele><time>2026-05-03T09:01:59Z</time></trkpt><trkpt lat="42.04558550283355" lon="-3.3617123966231235"><ele>940.0</ele><time>2026-05-03T09:02:00Z</time></trkpt><trkpt lat="42.04549102279969" lon="-3.3616481707397132"><ele>941.0</ele><time>2026-05-03T09:02:01Z</time></trkpt><trkpt lat="42.045395916427616" lon="-3.361585540312537"><ele>942.0</ele><time>2026-05-03T09:02:02Z</time></trkpt><trkpt lat="42.04529902287942" lon="-3.361521613784958"><ele>942.0</ele><time>2026-05-03T09:02:03Z</time></trkpt><trkpt lat="42.04520436097583" lon="-3.361455869483372"><ele>942.0</ele><time>2026-05-03T09:02:04Z</time></trkpt><trkpt lat="42.045113225362535" lon="-3.3613894660932178"><ele>942.0</ele><time>2026-05-03T09:02:05Z</time></trkpt><trkpt lat="42.045021227522135" lon="-3.361324011504597"><ele>942.0</ele><time>2026-05-03T09:02:06Z</time></trkpt><trkpt lat="42.04492942842738" lon="-3.361258375995391"><ele>942.0</ele><time>2026-05-03T09:02:07Z</time></trkpt><trkpt lat="42.04483730494499" lon="-3.3611916007429463"><ele>941.6</ele><time>2026-05-03T09:02:08Z</time></trkpt><trkpt lat="42.044743472597105" lon="-3.3611236533325197"><ele>941.2</ele><time>2026-05-03T09:02:09Z</time></trkpt><trkpt lat="42.04465238902389" lon="-3.361053647500216"><ele>940.8</ele><time>2026-05-03T09:02:10Z</time></trkpt><trkpt lat="42.044560078819785" lon="-3.360985281002966"><ele>940.4</ele><time>2026-05-03T09:02:11Z</time></trkpt><trkpt lat="42.04446352182144" lon="-3.3609183179327227"><ele>940.0</ele><time>2026-05-03T09:02:12Z</time></trkpt><trkpt lat="42.04437125778954" lon="-3.360850602201788"><ele>940.0</ele><time>2026-05-03T09:02:13Z</time></trkpt><trkpt lat="42.04427934049615" lon="-3.3607799301826566"><ele>940.0</ele><time>2026-05-03T09:02:14Z</time></trkpt><trkpt lat="42.04418663820502" lon="-3.360705269468718"><ele>940.0</ele><time>2026-05-03T09:02:15Z</time></trkpt><trkpt lat="42.044095023881944" lon="-3.3606324665354617"><ele>940.0</ele><time>2026-05-03T09:02:16Z</time></trkpt><trkpt lat="42.044002772036805" lon="-3.3605596231144252"><ele>940.0</ele><time>2026-05-03T09:02:17Z</time></trkpt><trkpt lat="42.043912439531155" lon="-3.360486120513315"><ele>940.2</ele><time>2026-05-03T09:02:18Z</time></trkpt><trkpt lat="42.04382298832441" lon="-3.3604103823211107"><ele>940.4</ele><time>2026-05-03T09:02:19Z</time></trkpt><trkpt lat="42.043733116599384" lon="-3.36033427233771"><ele>940.5999999999999</ele><time>2026-05-03T09:02:20Z</time></trkpt><trkpt lat="42.04364520560606" lon="-3.3602581222388164"><ele>940.8</ele><time>2026-05-03T09:02:21Z</time></trkpt><trkpt lat="42.04355664353089" lon="-3.360182935501284"><ele>941.0</ele><time>2026-05-03T09:02:22Z</time></trkpt><trkpt lat="42.043467661533356" lon="-3.360107435145972"><ele>941.0</ele><time>2026-05-03T09:02:23Z</time></trkpt><trkpt lat="42.04338056991122" lon="-3.360031944450215"><ele>940.9999999999999</ele><time>2026-05-03T09:02:24Z</time></trkpt><trkpt lat="42.043293688042674" lon="-3.359955520768302"><ele>940.9999999999999</ele><time>2026-05-03T09:02:25Z</time></trkpt><trkpt lat="42.04320974201833" lon="-3.3598768885397723"><ele>941.0</ele><time>2026-05-03T09:02:26Z</time></trkpt><trkpt lat="42.043126430411" lon="-3.3597999253300452"><ele>941.0</ele><time>2026-05-03T09:02:27Z</time></trkpt><trkpt lat="42.04304342321746" lon="-3.3597222338668007"><ele>941.5999999999999</ele><time>2026-05-03T09:02:28Z</time></trkpt><trkpt lat="42.04296106185832" lon="-3.359643921926896"><ele>942.1999999999999</ele><time>2026-05-03T09:02:29Z</time></trkpt><trkpt lat="42.04287957193757" lon="-3.359566405014786"><ele>942.8000000000001</ele><time>2026-05-03T09:02:30Z</time></trkpt><trkpt lat="42.042797045579505" lon="-3.359488720940709"><ele>943.4000000000001</ele><time>2026-05-03T09:02:31Z</time></trkpt><trkpt lat="42.04271722427723" lon="-3.359411405690873"><ele>944.0</ele><time>2026-05-03T09:02:32Z</time></trkpt><trkpt lat="42.0426360234813" lon="-3.3593379361503524"><ele>944.0</ele><time>2026-05-03T09:02:33Z</time></trkpt><trkpt lat="42.042557548792736" lon="-3.3592619847371754"><ele>944.0000000000001</ele><time>2026-05-03T09:02:34Z</time></trkpt><trkpt lat="42.04247989960302" lon="-3.3591847114195996"><ele>944.0000000000001</ele><time>2026-05-03T09:02:35Z</time></trkpt><trkpt lat="42.04241037227827" lon="-3.3591057649827625"><ele>944.0</ele><time>2026-05-03T09:02:36Z</time></trkpt><trkpt lat="42.04233628450487" lon="-3.35903279341185"><ele>944.0</ele><time>2026-05-03T09:02:37Z</time></trkpt><trkpt lat="42.042265920976725" lon="-3.3589574900659867"><ele>943.8000000000001</ele><time>2026-05-03T09:02:38Z</time></trkpt><trkpt lat="42.04219640174832" lon="-3.3588847412803338"><ele>943.6000000000001</ele><time>2026-05-03T09:02:39Z</time></trkpt><trkpt lat="42.04212239690733" lon="-3.3588059515988777"><ele>943.4</ele><time>2026-05-03T09:02:40Z</time></trkpt><trkpt lat="42.042050233174535" lon="-3.3587274128477764"><ele>943.2</ele><time>2026-05-03T09:02:41Z</time></trkpt><trkpt lat="42.041977516455596" lon="-3.3586486424839133"><ele>943.0</ele><time>2026-05-03T09:02:42Z</time></trkpt><trkpt lat="42.041905596666915" lon="-3.35857208519059"><ele>944.0</ele><time>2026-05-03T09:02:43Z</time></trkpt><trkpt lat="42.04183461871707" lon="-3.3584913098216282"><ele>945.0</ele><time>2026-05-03T09:02:44Z</time></trkpt><trkpt lat="42.0417646856747" lon="-3.358408069898531"><ele>946.0</ele><time>2026-05-03T09:02:45Z</time></trkpt><trkpt lat="42.04169298321424" lon="-3.358328040916024"><ele>947.0</ele><time>2026-05-03T09:02:46Z</time></trkpt><trkpt lat="42.041620939007686" lon="-3.358247528918164"><ele>948.0</ele><time>2026-05-03T09:02:47Z</time></trkpt><trkpt lat="42.04155005801341" lon="-3.358167712832301"><ele>949.0</ele><time>2026-05-03T09:02:48.001Z</time></trkpt><trkpt lat="42.04148121837428" lon="-3.358087719539863"><ele>950.0</ele><time>2026-05-03T09:02:49.001Z</time></trkpt><trkpt lat="42.04140958453147" lon="-3.358005891356924"><ele>951.0</ele><time>2026-05-03T09:02:50.001Z</time></trkpt><trkpt lat="42.041337741088476" lon="-3.357923122273186"><ele>952.0</ele><time>2026-05-03T09:02:51.001Z</time></trkpt><trkpt lat="42.04126443617504" lon="-3.357841300964596"><ele>953.0</ele><time>2026-05-03T09:02:52.001Z</time></trkpt><trkpt lat="42.04118956521263" lon="-3.3577600340989564"><ele>953.0</ele><time>2026-05-03T09:02:53.001Z</time></trkpt><trkpt lat="42.041114377305085" lon="-3.3576789980768336"><ele>953.0</ele><time>2026-05-03T09:02:54.001Z</time></trkpt><trkpt lat="42.04103735655623" lon="-3.3575931998510775"><ele>953.0</ele><time>2026-05-03T09:02:55.001Z</time></trkpt><trkpt lat="42.040964701815135" lon="-3.357506386695106"><ele>953.0</ele><time>2026-05-03T09:02:56.001Z</time></trkpt><trkpt lat="42.04089392618293" lon="-3.3574179980878336"><ele>953.0</ele><time>2026-05-03T09:02:57.001Z</time></trkpt><trkpt lat="42.04082210406405" lon="-3.3573252049514313"><ele>953.2</ele><time>2026-05-03T09:02:58.001Z</time></trkpt><trkpt lat="42.040748831856135" lon="-3.3572286104929514"><ele>953.4</ele><time>2026-05-03T09:02:59.001Z</time></trkpt><trkpt lat="42.04067503965965" lon="-3.357131507093642"><ele>953.6000000000001</ele><time>2026-05-03T09:03:00.001Z</time></trkpt><trkpt lat="42.04060120877456" lon="-3.357030952757198"><ele>953.8000000000001</ele><time>2026-05-03T09:03:01.001Z</time></trkpt><trkpt lat="42.040528876916575" lon="-3.3569323144939034"><ele>954.0</ele><time>2026-05-03T09:03:02.001Z</time></trkpt><trkpt lat="42.0404546945982" lon="-3.356830642945631"><ele>954.0</ele><time>2026-05-03T09:03:03.001Z</time></trkpt><trkpt lat="42.0403815527549" lon="-3.3567309839104276"><ele>954.0000000000001</ele><time>2026-05-03T09:03:04.001Z</time></trkpt><trkpt lat="42.04030623734345" lon="-3.3566308384629147"><ele>954.0000000000001</ele><time>2026-05-03T09:03:05.001Z</time></trkpt><trkpt lat="42.04022862763935" lon="-3.356533738950042"><ele>954.0</ele><time>2026-05-03T09:03:06.001Z</time></trkpt><trkpt lat="42.04015163934383" lon="-3.3564356992721947"><ele>954.0</ele><time>2026-05-03T09:03:07.001Z</time></trkpt><trkpt lat="42.040077546799694" lon="-3.356337358494656"><ele>954.0</ele><time>2026-05-03T09:03:08.001Z</time></trkpt><trkpt lat="42.04000167728228" lon="-3.35624223207658"><ele>954.0000000000001</ele><time>2026-05-03T09:03:09.001Z</time></trkpt><trkpt lat="42.03992558629178" lon="-3.3561449324066412"><ele>954.0000000000001</ele><time>2026-05-03T09:03:10.001Z</time></trkpt><trkpt lat="42.03984936561994" lon="-3.356042257199682"><ele>954.0</ele><time>2026-05-03T09:03:11.001Z</time></trkpt><trkpt lat="42.03977469937942" lon="-3.3559443404967384"><ele>954.0</ele><time>2026-05-03T09:03:12.001Z</time></trkpt><trkpt lat="42.039701883631004" lon="-3.3558484764209524"><ele>954.0</ele><time>2026-05-03T09:03:13.001Z</time></trkpt><trkpt lat="42.03962580703917" lon="-3.355753712125577"><ele>954.0000000000001</ele><time>2026-05-03T09:03:14.001Z</time></trkpt><trkpt lat="42.039550063009145" lon="-3.3556581227318496"><ele>954.0000000000001</ele><time>2026-05-03T09:03:15.001Z</time></trkpt><trkpt lat="42.03947418650929" lon="-3.3555625223696546"><ele>954.0</ele><time>2026-05-03T09:03:16.001Z</time></trkpt><trkpt lat="42.03939813064209" lon="-3.355466522914566"><ele>954.0</ele><time>2026-05-03T09:03:17Z</time></trkpt><trkpt lat="42.03931996640102" lon="-3.355368460770568"><ele>953.6</ele><time>2026-05-03T09:03:18Z</time></trkpt><trkpt lat="42.03924370464273" lon="-3.3552709877067066"><ele>953.2</ele><time>2026-05-03T09:03:19Z</time></trkpt><trkpt lat="42.03916780775961" lon="-3.3551743019552203"><ele>952.8000000000001</ele><time>2026-05-03T09:03:20Z</time></trkpt><trkpt lat="42.03909193166464" lon="-3.3550775890425446"><ele>952.4000000000001</ele><time>2026-05-03T09:03:21Z</time></trkpt><trkpt lat="42.039018776656825" lon="-3.35498214770973"><ele>952.0</ele><time>2026-05-03T09:03:22Z</time></trkpt><trkpt lat="42.03894507529339" lon="-3.3548866846005456"><ele>951.8</ele><time>2026-05-03T09:03:23Z</time></trkpt><trkpt lat="42.03887059603623" lon="-3.354790595861822"><ele>951.6</ele><time>2026-05-03T09:03:24Z</time></trkpt><trkpt lat="42.03879515375546" lon="-3.3546949987806944"><ele>951.3999999999999</ele><time>2026-05-03T09:03:25Z</time></trkpt><trkpt lat="42.03871997851456" lon="-3.354599330672039"><ele>951.1999999999999</ele><time>2026-05-03T09:03:26Z</time></trkpt><trkpt lat="42.038646065903976" lon="-3.354502200288834"><ele>951.0</ele><time>2026-05-03T09:03:27Z</time></trkpt><trkpt lat="42.038572437695606" lon="-3.3544051437222975"><ele>950.8</ele><time>2026-05-03T09:03:28Z</time></trkpt><trkpt lat="42.03850021622867" lon="-3.354307405690377"><ele>950.5999999999999</ele><time>2026-05-03T09:03:29Z</time></trkpt><trkpt lat="42.03842784565771" lon="-3.3542099332474464"><ele>950.4</ele><time>2026-05-03T09:03:30Z</time></trkpt><trkpt lat="42.03835592781972" lon="-3.354109155887467"><ele>950.2</ele><time>2026-05-03T09:03:31Z</time></trkpt><trkpt lat="42.03828516309808" lon="-3.354003925478056"><ele>950.0</ele><time>2026-05-03T09:03:32Z</time></trkpt><trkpt lat="42.03821682113396" lon="-3.3538973327616133"><ele>949.4</ele><time>2026-05-03T09:03:33Z</time></trkpt><trkpt lat="42.03815052190026" lon="-3.3537863746486014"><ele>948.8</ele><time>2026-05-03T09:03:34Z</time></trkpt><trkpt lat="42.03808616562945" lon="-3.3536758507499034"><ele>948.2</ele><time>2026-05-03T09:03:35Z</time></trkpt><trkpt lat="42.03802480697634" lon="-3.353562945569213"><ele>947.6</ele><time>2026-05-03T09:03:36Z</time></trkpt><trkpt lat="42.037966929914724" lon="-3.3534481480041687"><ele>947.0</ele><time>2026-05-03T09:03:37Z</time></trkpt><trkpt lat="42.037911263784764" lon="-3.353330939056246"><ele>947.0</ele><time>2026-05-03T09:03:38Z</time></trkpt><trkpt lat="42.03785715728365" lon="-3.3532126004894267"><ele>947.0</ele><time>2026-05-03T09:03:39Z</time></trkpt><trkpt lat="42.0378057463142" lon="-3.353092079720299"><ele>947.0</ele><time>2026-05-03T09:03:40Z</time></trkpt><trkpt lat="42.03775562052696" lon="-3.3529684489261204"><ele>947.0</ele><time>2026-05-03T09:03:41Z</time></trkpt><trkpt lat="42.03770608507328" lon="-3.352840694309046"><ele>947.0</ele><time>2026-05-03T09:03:42Z</time></trkpt><trkpt lat="42.03765883107804" lon="-3.352708329840827"><ele>946.6</ele><time>2026-05-03T09:03:43Z</time></trkpt><trkpt lat="42.03761487517748" lon="-3.352574412965088"><ele>946.2</ele><time>2026-05-03T09:03:44Z</time></trkpt><trkpt lat="42.0375749897392" lon="-3.352438478441841"><ele>945.8</ele><time>2026-05-03T09:03:45Z</time></trkpt><trkpt lat="42.037537071915395" lon="-3.35230132518379"><ele>945.4</ele><time>2026-05-03T09:03:46Z</time></trkpt><trkpt lat="42.03750618171362" lon="-3.3521588198749286"><ele>945.0</ele><time>2026-05-03T09:03:47Z</time></trkpt><trkpt lat="42.037480712790206" lon="-3.3520252793765817"><ele>943.5</ele><time>2026-05-03T09:03:48Z</time></trkpt><trkpt lat="42.037451103447694" lon="-3.3518714743097062"><ele>942.0</ele><time>2026-05-03T09:03:49Z</time></trkpt><trkpt lat="42.03742686439394" lon="-3.3517231799650355"><ele>940.5</ele><time>2026-05-03T09:03:50Z</time></trkpt><trkpt lat="42.0374043830021" lon="-3.351575343115203"><ele>939.0</ele><time>2026-05-03T09:03:51Z</time></trkpt><trkpt lat="42.03738251513632" lon="-3.3514278250938125"><ele>939.5</ele><time>2026-05-03T09:03:52Z</time></trkpt><trkpt lat="42.03736590964336" lon="-3.35127795831592"><ele>940.0</ele><time>2026-05-03T09:03:53Z</time></trkpt><trkpt lat="42.03734714541553" lon="-3.351127565652607"><ele>940.5</ele><time>2026-05-03T09:03:54Z</time></trkpt><trkpt lat="42.037327679677624" lon="-3.350975009383767"><ele>941.0</ele><time>2026-05-03T09:03:55Z</time></trkpt><trkpt lat="42.03730863804699" lon="-3.3508216809261775"><ele>941.0</ele><time>2026-05-03T09:03:56Z</time></trkpt><trkpt lat="42.037290311692665" lon="-3.3506688642566997"><ele>940.9999999999999</ele><time>2026-05-03T09:03:57Z</time></trkpt><trkpt lat="42.03727235303066" lon="-3.3505184346754655"><ele>940.9999999999999</ele><time>2026-05-03T09:03:58Z</time></trkpt><trkpt lat="42.03725161851064" lon="-3.3503730186882774"><ele>941.0</ele><time>2026-05-03T09:03:59Z</time></trkpt><trkpt lat="42.03723092701374" lon="-3.3502296682945754"><ele>941.0</ele><time>2026-05-03T09:04:00Z</time></trkpt><trkpt lat="42.0372092688715" lon="-3.3500838567243343"><ele>940.0</ele><time>2026-05-03T09:04:01Z</time></trkpt><trkpt lat="42.03718723194788" lon="-3.3499395973667383"><ele>938.9999999999999</ele><time>2026-05-03T09:04:02Z</time></trkpt><trkpt lat="42.03716249949437" lon="-3.349793473788221"><ele>937.9999999999999</ele><time>2026-05-03T09:04:03Z</time></trkpt><trkpt lat="42.03713226332209" lon="-3.3496466623737207"><ele>937.0</ele><time>2026-05-03T09:04:04Z</time></trkpt><trkpt lat="42.0370969741399" lon="-3.34949867927286"><ele>936.0</ele><time>2026-05-03T09:04:05Z</time></trkpt><trkpt lat="42.037056877981584" lon="-3.3493507147927253"><ele>935.75</ele><time>2026-05-03T09:04:06Z</time></trkpt><trkpt lat="42.03701484393233" lon="-3.349210444719206"><ele>935.5</ele><time>2026-05-03T09:04:07Z</time></trkpt><trkpt lat="42.03696954232185" lon="-3.349066229624434"><ele>935.25</ele><time>2026-05-03T09:04:08Z</time></trkpt><trkpt lat="42.03692048627592" lon="-3.348928476048486"><ele>935.0</ele><time>2026-05-03T09:04:09Z</time></trkpt><trkpt lat="42.03687206690445" lon="-3.34879573166718"><ele>934.4</ele><time>2026-05-03T09:04:10Z</time></trkpt><trkpt lat="42.036819466285515" lon="-3.3486671375044135"><ele>933.8</ele><time>2026-05-03T09:04:11Z</time></trkpt><trkpt lat="42.036768666317386" lon="-3.348548316059333"><ele>933.2</ele><time>2026-05-03T09:04:12Z</time></trkpt><trkpt lat="42.03671261489127" lon="-3.3484171108142267"><ele>932.6</ele><time>2026-05-03T09:04:13Z</time></trkpt><trkpt lat="42.03665068161257" lon="-3.348301214373129"><ele>932.0</ele><time>2026-05-03T09:04:14Z</time></trkpt><trkpt lat="42.03658976559964" lon="-3.34818430087299"><ele>932.0</ele><time>2026-05-03T09:04:15Z</time></trkpt><trkpt lat="42.036526826662616" lon="-3.3480685881795025"><ele>932.0</ele><time>2026-05-03T09:04:16Z</time></trkpt><trkpt lat="42.03646223970405" lon="-3.3479527903967385"><ele>932.0</ele><time>2026-05-03T09:04:17Z</time></trkpt><trkpt lat="42.036401657406785" lon="-3.3478332204061885"><ele>932.0</ele><time>2026-05-03T09:04:18Z</time></trkpt><trkpt lat="42.03634088576275" lon="-3.347717667292478"><ele>932.0</ele><time>2026-05-03T09:04:19Z</time></trkpt><trkpt lat="42.03628040493945" lon="-3.3476037309868096"><ele>932.6</ele><time>2026-05-03T09:04:20Z</time></trkpt><trkpt lat="42.03621790579015" lon="-3.347490303101834"><ele>933.2</ele><time>2026-05-03T09:04:21Z</time></trkpt><trkpt lat="42.036157250136434" lon="-3.3473751430190646"><ele>933.8</ele><time>2026-05-03T09:04:22Z</time></trkpt><trkpt lat="42.036095131032624" lon="-3.347264604473832"><ele>934.4</ele><time>2026-05-03T09:04:23Z</time></trkpt><trkpt lat="42.036034554907204" lon="-3.3471489086133097"><ele>935.0</ele><time>2026-05-03T09:04:24Z</time></trkpt><trkpt lat="42.03597473516408" lon="-3.347034144126126"><ele>934.8</ele><time>2026-05-03T09:04:25Z</time></trkpt><trkpt lat="42.035912159054284" lon="-3.3469165549838404"><ele>934.6</ele><time>2026-05-03T09:04:26Z</time></trkpt><trkpt lat="42.03585022062929" lon="-3.346797299541354"><ele>934.4000000000001</ele><time>2026-05-03T09:04:27Z</time></trkpt><trkpt lat="42.035791124695756" lon="-3.346680883827523"><ele>934.2</ele><time>2026-05-03T09:04:28Z</time></trkpt><trkpt lat="42.03572924148085" lon="-3.3465646881673234"><ele>934.0</ele><time>2026-05-03T09:04:29Z</time></trkpt><trkpt lat="42.0356691038523" lon="-3.3464496103383254"><ele>934.2</ele><time>2026-05-03T09:04:30Z</time></trkpt><trkpt lat="42.03560746592362" lon="-3.346337429647817"><ele>934.4000000000001</ele><time>2026-05-03T09:04:31Z</time></trkpt><trkpt lat="42.035549889449115" lon="-3.3462220637227817"><ele>934.6</ele><time>2026-05-03T09:04:32Z</time></trkpt><trkpt lat="42.03549453923801" lon="-3.3461037651249796"><ele>934.8</ele><time>2026-05-03T09:04:33Z</time></trkpt><trkpt lat="42.03543519921599" lon="-3.3459974071536944"><ele>935.0</ele><time>2026-05-03T09:04:34Z</time></trkpt><trkpt lat="42.03537452517523" lon="-3.345877674109662"><ele>935.0</ele><time>2026-05-03T09:04:35Z</time></trkpt><trkpt lat="42.03531204925304" lon="-3.3457537856763775"><ele>935.0</ele><time>2026-05-03T09:04:36Z</time></trkpt><trkpt lat="42.03525247583283" lon="-3.3456408362169463"><ele>935.0</ele><time>2026-05-03T09:04:37Z</time></trkpt><trkpt lat="42.035196698987704" lon="-3.345524568253159"><ele>935.0</ele><time>2026-05-03T09:04:38Z</time></trkpt><trkpt lat="42.03514034375033" lon="-3.3453976560444723"><ele>935.0</ele><time>2026-05-03T09:04:39Z</time></trkpt><trkpt lat="42.03507966133881" lon="-3.345279339313485"><ele>935.4</ele><time>2026-05-03T09:04:40Z</time></trkpt><trkpt lat="42.03501598975507" lon="-3.345161723004059"><ele>935.8</ele><time>2026-05-03T09:04:41Z</time></trkpt><trkpt lat="42.03495941629519" lon="-3.3450411434384635"><ele>936.2</ele><time>2026-05-03T09:04:42Z</time></trkpt><trkpt lat="42.0349038186941" lon="-3.3449170115043967"><ele>936.6</ele><time>2026-05-03T09:04:43Z</time></trkpt><trkpt lat="42.03484653796826" lon="-3.3447946779608797"><ele>937.0</ele><time>2026-05-03T09:04:44Z</time></trkpt><trkpt lat="42.034786681263704" lon="-3.3446785186362953"><ele>937.2</ele><time>2026-05-03T09:04:45Z</time></trkpt><trkpt lat="42.03472794180267" lon="-3.3445523689478205"><ele>937.4000000000001</ele><time>2026-05-03T09:04:46Z</time></trkpt><trkpt lat="42.03466897457122" lon="-3.344430554366651"><ele>937.5999999999999</ele><time>2026-05-03T09:04:47Z</time></trkpt><trkpt lat="42.03461214272167" lon="-3.3443081903957093"><ele>937.8</ele><time>2026-05-03T09:04:48Z</time></trkpt><trkpt lat="42.03455672621875" lon="-3.344187299407304"><ele>938.0</ele><time>2026-05-03T09:04:49Z</time></trkpt><trkpt lat="42.03449706486282" lon="-3.344063341626326"><ele>938.0</ele><time>2026-05-03T09:04:50Z</time></trkpt><trkpt lat="42.03444102836575" lon="-3.34394620039024"><ele>938.0</ele><time>2026-05-03T09:04:51Z</time></trkpt><trkpt lat="42.03438523739991" lon="-3.3438176640519996"><ele>938.0</ele><time>2026-05-03T09:04:52Z</time></trkpt><trkpt lat="42.034331370310156" lon="-3.3436947725472455"><ele>938.0</ele><time>2026-05-03T09:04:53Z</time></trkpt><trkpt lat="42.03427233349902" lon="-3.3435715675610953"><ele>938.0</ele><time>2026-05-03T09:04:54Z</time></trkpt><trkpt lat="42.03421546738897" lon="-3.3434521204199936"><ele>938.2</ele><time>2026-05-03T09:04:55Z</time></trkpt><trkpt lat="42.034158288510625" lon="-3.343331252967819"><ele>938.4</ele><time>2026-05-03T09:04:56Z</time></trkpt><trkpt lat="42.034100117924865" lon="-3.343210259256577"><ele>938.6000000000001</ele><time>2026-05-03T09:04:57Z</time></trkpt><trkpt lat="42.034046287940754" lon="-3.3430881123360074"><ele>938.8000000000001</ele><time>2026-05-03T09:04:58.001Z</time></trkpt><trkpt lat="42.03399075403211" lon="-3.3429636978875505"><ele>939.0</ele><time>2026-05-03T09:04:59.001Z</time></trkpt><trkpt lat="42.03393363943423" lon="-3.3428482056840045"><ele>939.4000000000001</ele><time>2026-05-03T09:05:00.001Z</time></trkpt><trkpt lat="42.033882433373606" lon="-3.3427274238972227"><ele>939.8000000000001</ele><time>2026-05-03T09:05:01.001Z</time></trkpt><trkpt lat="42.033826586543924" lon="-3.3426020722345218"><ele>940.1999999999999</ele><time>2026-05-03T09:05:02.001Z</time></trkpt><trkpt lat="42.03376975626343" lon="-3.342480319381262"><ele>940.5999999999999</ele><time>2026-05-03T09:05:03.001Z</time></trkpt><trkpt lat="42.033716392576096" lon="-3.342365158854619"><ele>941.0</ele><time>2026-05-03T09:05:04.001Z</time></trkpt><trkpt lat="42.03365796122384" lon="-3.342240900677567"><ele>941.0</ele><time>2026-05-03T09:05:05.001Z</time></trkpt><trkpt lat="42.033602803590774" lon="-3.342116931045238"><ele>940.9999999999999</ele><time>2026-05-03T09:05:06.001Z</time></trkpt><trkpt lat="42.033544829506255" lon="-3.3419993463265394"><ele>940.9999999999999</ele><time>2026-05-03T09:05:07.001Z</time></trkpt><trkpt lat="42.03348756166221" lon="-3.3418742281726836"><ele>941.0</ele><time>2026-05-03T09:05:08.001Z</time></trkpt><trkpt lat="42.03342987912918" lon="-3.341748900939582"><ele>941.0</ele><time>2026-05-03T09:05:09.001Z</time></trkpt><trkpt lat="42.033371444413" lon="-3.3416245546554277"><ele>941.0</ele><time>2026-05-03T09:05:10.001Z</time></trkpt><trkpt lat="42.03331340016978" lon="-3.3415008348281035"><ele>940.9999999999999</ele><time>2026-05-03T09:05:11.001Z</time></trkpt><trkpt lat="42.03325608613821" lon="-3.3413746896973024"><ele>940.9999999999999</ele><time>2026-05-03T09:05:12.001Z</time></trkpt><trkpt lat="42.03319937422036" lon="-3.3412517852246193"><ele>941.0</ele><time>2026-05-03T09:05:13.001Z</time></trkpt><trkpt lat="42.03314445383669" lon="-3.3411294580197426"><ele>941.0</ele><time>2026-05-03T09:05:14.001Z</time></trkpt><trkpt lat="42.03308819441527" lon="-3.3410060504097374"><ele>941.0</ele><time>2026-05-03T09:05:15.001Z</time></trkpt><trkpt lat="42.03303302101112" lon="-3.3408827973207447"><ele>940.9999999999999</ele><time>2026-05-03T09:05:16.001Z</time></trkpt><trkpt lat="42.03297614884697" lon="-3.3407592839337665"><ele>940.9999999999999</ele><time>2026-05-03T09:05:17.001Z</time></trkpt><trkpt lat="42.03291941722847" lon="-3.3406350857109333"><ele>941.0</ele><time>2026-05-03T09:05:18.001Z</time></trkpt><trkpt lat="42.03286310914019" lon="-3.340512852634676"><ele>941.0</ele><time>2026-05-03T09:05:19.001Z</time></trkpt><trkpt lat="42.032804577949875" lon="-3.3403901572319796"><ele>941.1999999999999</ele><time>2026-05-03T09:05:20.001Z</time></trkpt><trkpt lat="42.03274553387105" lon="-3.340271179868923"><ele>941.3999999999999</ele><time>2026-05-03T09:05:21.001Z</time></trkpt><trkpt lat="42.032689473853054" lon="-3.340147420393387"><ele>941.6</ele><time>2026-05-03T09:05:22.001Z</time></trkpt><trkpt lat="42.03263255132955" lon="-3.340026977153485"><ele>941.8</ele><time>2026-05-03T09:05:23Z</time></trkpt><trkpt lat="42.03257656909782" lon="-3.339903924004597"><ele>942.0</ele><time>2026-05-03T09:05:24Z</time></trkpt><trkpt lat="42.03252086978726" lon="-3.3397834741622523"><ele>942.4000000000001</ele><time>2026-05-03T09:05:25Z</time></trkpt><trkpt lat="42.03246387183473" lon="-3.33965562133628"><ele>942.8000000000001</ele><time>2026-05-03T09:05:26Z</time></trkpt><trkpt lat="42.03240762569233" lon="-3.339531886210443"><ele>943.2</ele><time>2026-05-03T09:05:27Z</time></trkpt><trkpt lat="42.032350077463846" lon="-3.3394076693325463"><ele>943.6</ele><time>2026-05-03T09:05:28Z</time></trkpt><trkpt lat="42.03229205257655" lon="-3.339286270255789"><ele>944.0</ele><time>2026-05-03T09:05:29Z</time></trkpt><trkpt lat="42.032235276133974" lon="-3.339165411282039"><ele>944.0</ele><time>2026-05-03T09:05:30Z</time></trkpt><trkpt lat="42.03217688362379" lon="-3.33904372508142"><ele>944.0000000000001</ele><time>2026-05-03T09:05:31Z</time></trkpt><trkpt lat="42.03211874745093" lon="-3.3389239224977882"><ele>944.0000000000001</ele><time>2026-05-03T09:05:32Z</time></trkpt><trkpt lat="42.032062363991706" lon="-3.3388035365658895"><ele>944.0</ele><time>2026-05-03T09:05:33Z</time></trkpt><trkpt lat="42.03200509735694" lon="-3.338677897257559"><ele>944.0</ele><time>2026-05-03T09:05:34Z</time></trkpt><trkpt lat="42.03194873668471" lon="-3.338555428637196"><ele>944.0</ele><time>2026-05-03T09:05:35Z</time></trkpt><trkpt lat="42.03189416652405" lon="-3.33843178753915"><ele>944.0000000000001</ele><time>2026-05-03T09:05:36Z</time></trkpt><trkpt lat="42.03183670551996" lon="-3.338309030230471"><ele>944.0000000000001</ele><time>2026-05-03T09:05:37Z</time></trkpt><trkpt lat="42.03177790933937" lon="-3.338189667667401"><ele>944.0</ele><time>2026-05-03T09:05:38Z</time></trkpt><trkpt lat="42.031718872028236" lon="-3.338069854143747"><ele>944.0</ele><time>2026-05-03T09:05:39Z</time></trkpt><trkpt lat="42.03166616399323" lon="-3.3379484595716176"><ele>943.2</ele><time>2026-05-03T09:05:40Z</time></trkpt><trkpt lat="42.03161092236593" lon="-3.3378262037645063"><ele>942.4000000000001</ele><time>2026-05-03T09:05:41Z</time></trkpt><trkpt lat="42.031551531560055" lon="-3.3377104266446547"><ele>941.6</ele><time>2026-05-03T09:05:42Z</time></trkpt><trkpt lat="42.03149694816208" lon="-3.3375821321377277"><ele>940.8</ele><time>2026-05-03T09:05:43Z</time></trkpt><trkpt lat="42.03143906099403" lon="-3.337464568886504"><ele>940.0</ele><time>2026-05-03T09:05:44Z</time></trkpt><trkpt lat="42.03137866647179" lon="-3.3373301235183237"><ele>940.0</ele><time>2026-05-03T09:05:45Z</time></trkpt><trkpt lat="42.031323067755224" lon="-3.337220561716059"><ele>940.0</ele><time>2026-05-03T09:05:46Z</time></trkpt><trkpt lat="42.03127072659911" lon="-3.3370961330704665"><ele>940.0</ele><time>2026-05-03T09:05:47Z</time></trkpt><trkpt lat="42.031210411140115" lon="-3.3369706644603068"><ele>940.0</ele><time>2026-05-03T09:05:48Z</time></trkpt><trkpt lat="42.031155246053046" lon="-3.336846688290032"><ele>940.0</ele><time>2026-05-03T09:05:49Z</time></trkpt><trkpt lat="42.03110236298416" lon="-3.336728239380047"><ele>940.2</ele><time>2026-05-03T09:05:50Z</time></trkpt><trkpt lat="42.03104549471313" lon="-3.3365990256765183"><ele>940.4</ele><time>2026-05-03T09:05:51Z</time></trkpt><trkpt lat="42.03098303961632" lon="-3.336482454207984"><ele>940.5999999999999</ele><time>2026-05-03T09:05:52Z</time></trkpt><trkpt lat="42.030925148525675" lon="-3.3363534255059215"><ele>940.8</ele><time>2026-05-03T09:05:53Z</time></trkpt><trkpt lat="42.030867727238395" lon="-3.3362354045332596"><ele>941.0</ele><time>2026-05-03T09:05:54Z</time></trkpt><trkpt lat="42.030815253563574" lon="-3.336114576383431"><ele>940.8</ele><time>2026-05-03T09:05:55Z</time></trkpt><trkpt lat="42.030761132187735" lon="-3.335992096713395"><ele>940.5999999999999</ele><time>2026-05-03T09:05:56Z</time></trkpt><trkpt lat="42.03070328444506" lon="-3.3358638989211573"><ele>940.4</ele><time>2026-05-03T09:05:57Z</time></trkpt><trkpt lat="42.030646007453825" lon="-3.335744547501036"><ele>940.2</ele><time>2026-05-03T09:05:58Z</time></trkpt><trkpt lat="42.030583443515425" lon="-3.3356225757358002"><ele>940.0</ele><time>2026-05-03T09:05:59Z</time></trkpt><trkpt lat="42.03053013272828" lon="-3.33549957876127"><ele>940.0</ele><time>2026-05-03T09:06:00Z</time></trkpt><trkpt lat="42.03047327426868" lon="-3.335377804924345"><ele>940.0</ele><time>2026-05-03T09:06:01Z</time></trkpt><trkpt lat="42.03042041576989" lon="-3.3352592157746916"><ele>940.0</ele><time>2026-05-03T09:06:02Z</time></trkpt><trkpt lat="42.03036496627575" lon="-3.3351329454104275"><ele>940.0</ele><time>2026-05-03T09:06:03Z</time></trkpt><trkpt lat="42.030307142872395" lon="-3.335022311574113"><ele>940.0</ele><time>2026-05-03T09:06:04Z</time></trkpt><trkpt lat="42.0302497899288" lon="-3.3348946483127913"><ele>940.0</ele><time>2026-05-03T09:06:05Z</time></trkpt><trkpt lat="42.03019141239574" lon="-3.3347730930333017"><ele>940.0</ele><time>2026-05-03T09:06:06Z</time></trkpt><trkpt lat="42.03013820292028" lon="-3.3346530679638473"><ele>940.0</ele><time>2026-05-03T09:06:07Z</time></trkpt><trkpt lat="42.03008855705581" lon="-3.3345306991956636"><ele>940.0</ele><time>2026-05-03T09:06:08Z</time></trkpt><trkpt lat="42.03002848166164" lon="-3.3344102313063306"><ele>940.0</ele><time>2026-05-03T09:06:09Z</time></trkpt><trkpt lat="42.02997222391041" lon="-3.3342919277310044"><ele>940.0</ele><time>2026-05-03T09:06:10Z</time></trkpt><trkpt lat="42.02991686537988" lon="-3.3341614979997587"><ele>940.0</ele><time>2026-05-03T09:06:11Z</time></trkpt><trkpt lat="42.029860730588894" lon="-3.3340493700422162"><ele>940.0</ele><time>2026-05-03T09:06:12Z</time></trkpt><trkpt lat="42.02980787431983" lon="-3.3339384715365643"><ele>940.0</ele><time>2026-05-03T09:06:13Z</time></trkpt><trkpt lat="42.02975306957411" lon="-3.3337999419115025"><ele>940.0</ele><time>2026-05-03T09:06:14Z</time></trkpt><trkpt lat="42.02969001941426" lon="-3.333687843076735"><ele>940.2</ele><time>2026-05-03T09:06:15Z</time></trkpt><trkpt lat="42.02963608424961" lon="-3.3335687301871415"><ele>940.4</ele><time>2026-05-03T09:06:16Z</time></trkpt><trkpt lat="42.0295754941677" lon="-3.333442527443511"><ele>940.5999999999999</ele><time>2026-05-03T09:06:17Z</time></trkpt><trkpt lat="42.02952156105901" lon="-3.333323184698188"><ele>940.8</ele><time>2026-05-03T09:06:18Z</time></trkpt><trkpt lat="42.02946683179574" lon="-3.3331992124236383"><ele>941.0</ele><time>2026-05-03T09:06:19Z</time></trkpt><trkpt lat="42.02940944039996" lon="-3.3330801557189975"><ele>940.8</ele><time>2026-05-03T09:06:20Z</time></trkpt><trkpt lat="42.029358140735305" lon="-3.3330049771156998"><ele>940.5999999999999</ele><time>2026-05-03T09:06:21Z</time></trkpt><trkpt lat="42.02930107725231" lon="-3.3328446572938444"><ele>940.4</ele><time>2026-05-03T09:06:22Z</time></trkpt><trkpt lat="42.029237828883694" lon="-3.332715760957487"><ele>940.2</ele><time>2026-05-03T09:06:23Z</time></trkpt><trkpt lat="42.02918281538609" lon="-3.332593712919734"><ele>940.0</ele><time>2026-05-03T09:06:24Z</time></trkpt><trkpt lat="42.02912532290036" lon="-3.3324679366284897"><ele>940.0</ele><time>2026-05-03T09:06:25Z</time></trkpt><trkpt lat="42.02906711375527" lon="-3.33233568259359"><ele>940.0</ele><time>2026-05-03T09:06:26Z</time></trkpt><trkpt lat="42.02901109623402" lon="-3.332216896207027"><ele>940.0</ele><time>2026-05-03T09:06:27Z</time></trkpt><trkpt lat="42.02895495719774" lon="-3.3320865199949177"><ele>940.0</ele><time>2026-05-03T09:06:28Z</time></trkpt><trkpt lat="42.02889548761986" lon="-3.3319618106509394"><ele>940.0</ele><time>2026-05-03T09:06:29Z</time></trkpt><trkpt lat="42.02883570242292" lon="-3.331839723536415"><ele>940.0</ele><time>2026-05-03T09:06:30Z</time></trkpt><trkpt lat="42.02877156579123" lon="-3.3317055556145956"><ele>940.0</ele><time>2026-05-03T09:06:31Z</time></trkpt><trkpt lat="42.02871861540624" lon="-3.331595157314131"><ele>940.0</ele><time>2026-05-03T09:06:32Z</time></trkpt><trkpt lat="42.028659782814984" lon="-3.3314602551711454"><ele>940.0</ele><time>2026-05-03T09:06:33Z</time></trkpt><trkpt lat="42.02860127743503" lon="-3.33134163948828"><ele>940.0</ele><time>2026-05-03T09:06:34Z</time></trkpt><trkpt lat="42.02854287303388" lon="-3.331220941978721"><ele>940.0</ele><time>2026-05-03T09:06:35Z</time></trkpt><trkpt lat="42.028487396524596" lon="-3.331099700509806"><ele>940.0</ele><time>2026-05-03T09:06:36Z</time></trkpt><trkpt lat="42.028434398946274" lon="-3.330974724830792"><ele>940.0</ele><time>2026-05-03T09:06:37Z</time></trkpt><trkpt lat="42.0283777536275" lon="-3.330853350611222"><ele>940.0</ele><time>2026-05-03T09:06:38Z</time></trkpt><trkpt lat="42.02831907079168" lon="-3.3307366271078145"><ele>940.0</ele><time>2026-05-03T09:06:39Z</time></trkpt><trkpt lat="42.028262345236385" lon="-3.330615666920835"><ele>941.2</ele><time>2026-05-03T09:06:40Z</time></trkpt><trkpt lat="42.02820926400178" lon="-3.3305008305089245"><ele>942.4</ele><time>2026-05-03T09:06:41Z</time></trkpt><trkpt lat="42.02815257350509" lon="-3.3303837184828695"><ele>943.5999999999999</ele><time>2026-05-03T09:06:42Z</time></trkpt><trkpt lat="42.028095478113364" lon="-3.3302636081891093"><ele>944.8</ele><time>2026-05-03T09:06:43Z</time></trkpt><trkpt lat="42.02804436447278" lon="-3.3301477795554737"><ele>946.0</ele><time>2026-05-03T09:06:44Z</time></trkpt><trkpt lat="42.02798851337898" lon="-3.3300332406437794"><ele>946.0</ele><time>2026-05-03T09:06:45Z</time></trkpt><trkpt lat="42.02793555274287" lon="-3.329917590499993"><ele>945.9999999999999</ele><time>2026-05-03T09:06:46Z</time></trkpt><trkpt lat="42.02788353232118" lon="-3.329805207655714"><ele>945.9999999999999</ele><time>2026-05-03T09:06:47Z</time></trkpt><trkpt lat="42.027834022840466" lon="-3.3296937897646264"><ele>946.0</ele><time>2026-05-03T09:06:48Z</time></trkpt><trkpt lat="42.02778340518081" lon="-3.3295810049723467"><ele>946.0</ele><time>2026-05-03T09:06:49Z</time></trkpt><trkpt lat="42.02773470087259" lon="-3.329469669993035"><ele>946.4</ele><time>2026-05-03T09:06:50Z</time></trkpt><trkpt lat="42.02768410636968" lon="-3.329358763225872"><ele>946.8</ele><time>2026-05-03T09:06:51Z</time></trkpt><trkpt lat="42.0276372499643" lon="-3.3292501237633023"><ele>947.1999999999999</ele><time>2026-05-03T09:06:52Z</time></trkpt><trkpt lat="42.02758402615784" lon="-3.3291438902871127"><ele>947.5999999999999</ele><time>2026-05-03T09:06:53Z</time></trkpt><trkpt lat="42.027532149061976" lon="-3.3290382944437686"><ele>948.0</ele><time>2026-05-03T09:06:54Z</time></trkpt><trkpt lat="42.02748569657318" lon="-3.3289288730686275"><ele>948.5999999999999</ele><time>2026-05-03T09:06:55Z</time></trkpt><trkpt lat="42.02744166912728" lon="-3.328816152304914"><ele>949.1999999999999</ele><time>2026-05-03T09:06:56Z</time></trkpt><trkpt lat="42.027397478860316" lon="-3.328704632265329"><ele>949.8</ele><time>2026-05-03T09:06:57Z</time></trkpt><trkpt lat="42.02735000213662" lon="-3.3285948657133004"><ele>950.4</ele><time>2026-05-03T09:06:58Z</time></trkpt><trkpt lat="42.02730320501005" lon="-3.3284820929718015"><ele>951.0</ele><time>2026-05-03T09:06:59Z</time></trkpt><trkpt lat="42.02725992537717" lon="-3.328363859242049"><ele>951.0</ele><time>2026-05-03T09:07:00Z</time></trkpt><trkpt lat="42.02721556053246" lon="-3.328255510704075"><ele>950.9999999999999</ele><time>2026-05-03T09:07:01Z</time></trkpt><trkpt lat="42.02716642198829" lon="-3.32814414698693"><ele>950.9999999999999</ele><time>2026-05-03T09:07:02Z</time></trkpt><trkpt lat="42.02712129746916" lon="-3.3280301502456546"><ele>951.0</ele><time>2026-05-03T09:07:03Z</time></trkpt><trkpt lat="42.027076629416705" lon="-3.327916729061726"><ele>951.0</ele><time>2026-05-03T09:07:04Z</time></trkpt><trkpt lat="42.02703513712211" lon="-3.3278050850736447"><ele>952.1999999999999</ele><time>2026-05-03T09:07:05Z</time></trkpt><trkpt lat="42.026976509885394" lon="-3.3276516429259124"><ele>953.3999999999999</ele><time>2026-05-03T09:07:06Z</time></trkpt><trkpt lat="42.02694296762797" lon="-3.327578277206435"><ele>954.6</ele><time>2026-05-03T09:07:07Z</time></trkpt><trkpt lat="42.02689864033754" lon="-3.3274645689953504"><ele>955.8</ele><time>2026-05-03T09:07:08Z</time></trkpt><trkpt lat="42.02685452772539" lon="-3.3273569729727153"><ele>957.0</ele><time>2026-05-03T09:07:09Z</time></trkpt><trkpt lat="42.026814314956255" lon="-3.3272456481148125"><ele>956.8</ele><time>2026-05-03T09:07:10Z</time></trkpt><trkpt lat="42.02677415294173" lon="-3.3271358101299597"><ele>956.6</ele><time>2026-05-03T09:07:11Z</time></trkpt><trkpt lat="42.02673232516715" lon="-3.327024789263411"><ele>956.3999999999999</ele><time>2026-05-03T09:07:12Z</time></trkpt><trkpt lat="42.02668862414639" lon="-3.3269129922558807"><ele>956.1999999999999</ele><time>2026-05-03T09:07:13Z</time></trkpt><trkpt lat="42.026641943284794" lon="-3.3268015391246726"><ele>956.0</ele><time>2026-05-03T09:07:14Z</time></trkpt><trkpt lat="42.0266017210572" lon="-3.3266895474477733"><ele>956.0</ele><time>2026-05-03T09:07:15Z</time></trkpt><trkpt lat="42.02655701768234" lon="-3.326574567778203"><ele>955.9999999999999</ele><time>2026-05-03T09:07:16.001Z</time></trkpt><trkpt lat="42.02651287270161" lon="-3.3264591368785794"><ele>955.9999999999999</ele><time>2026-05-03T09:07:17.001Z</time></trkpt><trkpt lat="42.026469482005645" lon="-3.3263420426680868"><ele>956.0</ele><time>2026-05-03T09:07:18.001Z</time></trkpt><trkpt lat="42.02642568301868" lon="-3.3262225628388236"><ele>956.0</ele><time>2026-05-03T09:07:19.001Z</time></trkpt><trkpt lat="42.02638162390318" lon="-3.326101330169742"><ele>956.0</ele><time>2026-05-03T09:07:20.001Z</time></trkpt><trkpt lat="42.02633678252019" lon="-3.3259808722380644"><ele>955.9999999999999</ele><time>2026-05-03T09:07:21.001Z</time></trkpt><trkpt lat="42.026290045742975" lon="-3.325850858792799"><ele>955.9999999999999</ele><time>2026-05-03T09:07:22.001Z</time></trkpt><trkpt lat="42.0262441743417" lon="-3.3257263195170736"><ele>956.0</ele><time>2026-05-03T09:07:23.001Z</time></trkpt><trkpt lat="42.02619972371447" lon="-3.3255999042878037"><ele>956.0</ele><time>2026-05-03T09:07:24.001Z</time></trkpt><trkpt lat="42.02615305251774" lon="-3.3254695852735296"><ele>956.0</ele><time>2026-05-03T09:07:25.001Z</time></trkpt><trkpt lat="42.026107660744444" lon="-3.325340859614899"><ele>955.9999999999999</ele><time>2026-05-03T09:07:26.001Z</time></trkpt><trkpt lat="42.02606001912767" lon="-3.3252101709787336"><ele>955.9999999999999</ele><time>2026-05-03T09:07:27.001Z</time></trkpt><trkpt lat="42.02601419318671" lon="-3.3250794978408718"><ele>956.0</ele><time>2026-05-03T09:07:28.001Z</time></trkpt><trkpt lat="42.02596589856109" lon="-3.3249490247889057"><ele>956.0</ele><time>2026-05-03T09:07:29Z</time></trkpt><trkpt lat="42.02591786057785" lon="-3.3248185905704775"><ele>956.0</ele><time>2026-05-03T09:07:30Z</time></trkpt><trkpt lat="42.02587092032987" lon="-3.324686818153465"><ele>955.9999999999999</ele><time>2026-05-03T09:07:31Z</time></trkpt><trkpt lat="42.02582539945" lon="-3.3245519332784776"><ele>955.9999999999999</ele><time>2026-05-03T09:07:32Z</time></trkpt><trkpt lat="42.02578252847395" lon="-3.3244210419020397"><ele>956.0</ele><time>2026-05-03T09:07:33Z</time></trkpt><trkpt lat="42.025733255164106" lon="-3.324287129630367"><ele>956.0</ele><time>2026-05-03T09:07:34Z</time></trkpt><trkpt lat="42.02568363707497" lon="-3.324157978503168"><ele>956.0</ele><time>2026-05-03T09:07:35Z</time></trkpt><trkpt lat="42.025638535884234" lon="-3.3240292319845888"><ele>955.9999999999999</ele><time>2026-05-03T09:07:36Z</time></trkpt><trkpt lat="42.02559107118204" lon="-3.323899871392188"><ele>955.9999999999999</ele><time>2026-05-03T09:07:37Z</time></trkpt><trkpt lat="42.02554185824139" lon="-3.3237733002580376"><ele>956.0</ele><time>2026-05-03T09:07:38Z</time></trkpt><trkpt lat="42.02549652209114" lon="-3.323645843946295"><ele>956.0</ele><time>2026-05-03T09:07:39Z</time></trkpt><trkpt lat="42.02545619268817" lon="-3.323518195141272"><ele>955.6666666666667</ele><time>2026-05-03T09:07:40Z</time></trkpt><trkpt lat="42.02541635193718" lon="-3.3233950252471938"><ele>955.3333333333334</ele><time>2026-05-03T09:07:41Z</time></trkpt><trkpt lat="42.0253797679664" lon="-3.323282915155498"><ele>955.0</ele><time>2026-05-03T09:07:42Z</time></trkpt><trkpt lat="42.02534198021167" lon="-3.3231724602609636"><ele>954.6666666666667</ele><time>2026-05-03T09:07:43Z</time></trkpt><trkpt lat="42.025302328739706" lon="-3.3230708580165764"><ele>954.3333333333334</ele><time>2026-05-03T09:07:44Z</time></trkpt><trkpt lat="42.02526344610131" lon="-3.322984243301503"><ele>954.0</ele><time>2026-05-03T09:07:45Z</time></trkpt><trkpt lat="42.02521028150756" lon="-3.322860938477888"><ele>954.0</ele><time>2026-05-03T09:07:47Z</time></trkpt><trkpt lat="42.02532246567249" lon="-3.322982273925854"><ele>954.0</ele><time>2026-05-03T09:07:59Z</time></trkpt><trkpt lat="42.02535242124265" lon="-3.3230641589825742"><ele>954.0</ele><time>2026-05-03T09:08:00Z</time></trkpt><trkpt lat="42.025387052583206" lon="-3.323148363631184"><ele>954.0</ele><time>2026-05-03T09:08:01Z</time></trkpt><trkpt lat="42.02542513584223" lon="-3.3232436686314104"><ele>954.0</ele><time>2026-05-03T09:08:02Z</time></trkpt><trkpt lat="42.0254599316325" lon="-3.3233419233618946"><ele>954.0</ele><time>2026-05-03T09:08:03Z</time></trkpt><trkpt lat="42.02550026765845" lon="-3.3234400591316953"><ele>954.0</ele><time>2026-05-03T09:08:04Z</time></trkpt><trkpt lat="42.025540881571665" lon="-3.323542786883129"><ele>954.0</ele><time>2026-05-03T09:08:05Z</time></trkpt><trkpt lat="42.02558279213424" lon="-3.323650902388733"><ele>954.0</ele><time>2026-05-03T09:08:06Z</time></trkpt><trkpt lat="42.025624860155986" lon="-3.3237576924102172"><ele>954.0</ele><time>2026-05-03T09:08:07Z</time></trkpt><trkpt lat="42.02566635044981" lon="-3.3238551950947497"><ele>954.0</ele><time>2026-05-03T09:08:08Z</time></trkpt><trkpt lat="42.025706328922645" lon="-3.3239362849452503"><ele>954.0</ele><time>2026-05-03T09:08:09Z</time></trkpt><trkpt lat="42.025792032865944" lon="-3.324044587407968"><ele>954.8000000000001</ele><time>2026-05-03T09:08:11Z</time></trkpt><trkpt lat="42.025870876937645" lon="-3.3241194284188884"><ele>955.6000000000001</ele><time>2026-05-03T09:08:13Z</time></trkpt><trkpt lat="42.02596179907871" lon="-3.3240823974054026"><ele>956.4</ele><time>2026-05-03T09:08:16Z</time></trkpt><trkpt lat="42.026036262133445" lon="-3.323988195732486"><ele>957.2</ele><time>2026-05-03T09:08:18Z</time></trkpt><trkpt lat="42.026129993451065" lon="-3.3238755015718597"><ele>958.0</ele><time>2026-05-03T09:08:20Z</time></trkpt><trkpt lat="42.02619005884907" lon="-3.323826040664545"><ele>958.4999999999999</ele><time>2026-05-03T09:08:21Z</time></trkpt><trkpt lat="42.02625412870267" lon="-3.323770966624562"><ele>959.0</ele><time>2026-05-03T09:08:22Z</time></trkpt><trkpt lat="42.02631669902841" lon="-3.3237016409485696"><ele>959.5</ele><time>2026-05-03T09:08:23Z</time></trkpt><trkpt lat="42.02637740000492" lon="-3.3236312843500073"><ele>960.0</ele><time>2026-05-03T09:08:24Z</time></trkpt><trkpt lat="42.02643660048506" lon="-3.3235517776324914"><ele>960.4999999999999</ele><time>2026-05-03T09:08:25Z</time></trkpt><trkpt lat="42.02650218046705" lon="-3.323477006764751"><ele>961.0</ele><time>2026-05-03T09:08:26Z</time></trkpt><trkpt lat="42.026572126945055" lon="-3.3234018168697017"><ele>960.0</ele><time>2026-05-03T09:08:27Z</time></trkpt><trkpt lat="42.02664595744913" lon="-3.323331439352532"><ele>958.9999999999999</ele><time>2026-05-03T09:08:28Z</time></trkpt><trkpt lat="42.02672351036822" lon="-3.323264239804726"><ele>957.9999999999999</ele><time>2026-05-03T09:08:29Z</time></trkpt><trkpt lat="42.02679796584041" lon="-3.323194826427728"><ele>957.0</ele><time>2026-05-03T09:08:30Z</time></trkpt><trkpt lat="42.026877726636265" lon="-3.3231301075652175"><ele>956.0</ele><time>2026-05-03T09:08:31Z</time></trkpt><trkpt lat="42.02695880939301" lon="-3.3230717406487957"><ele>955.8333333333334</ele><time>2026-05-03T09:08:32Z</time></trkpt><trkpt lat="42.027037459941525" lon="-3.323017861613901"><ele>955.6666666666667</ele><time>2026-05-03T09:08:33Z</time></trkpt><trkpt lat="42.02711256123789" lon="-3.3229735432909555"><ele>955.5</ele><time>2026-05-03T09:08:34Z</time></trkpt><trkpt lat="42.02718018157723" lon="-3.3229354415515098"><ele>955.3333333333333</ele><time>2026-05-03T09:08:35Z</time></trkpt><trkpt lat="42.027226182174246" lon="-3.3228722334987983"><ele>955.1666666666666</ele><time>2026-05-03T09:08:36Z</time></trkpt><trkpt lat="42.02730524903134" lon="-3.3227960986146643"><ele>955.0</ele><time>2026-05-03T09:08:38Z</time></trkpt><trkpt lat="42.02739877400814" lon="-3.3228996592830544"><ele>954.9999999999999</ele><time>2026-05-03T09:08:39Z</time></trkpt><trkpt lat="42.02747695316474" lon="-3.322948542279954"><ele>955.0</ele><time>2026-05-03T09:08:41Z</time></trkpt><trkpt lat="42.02754451621187" lon="-3.3229777935499207"><ele>955.0</ele><time>2026-05-03T09:08:43Z</time></trkpt><trkpt lat="42.027630836561805" lon="-3.3229681043839716"><ele>955.0</ele><time>2026-05-03T09:08:46Z</time></trkpt><trkpt lat="42.027688053559054" lon="-3.3229257314945477"><ele>954.9999999999999</ele><time>2026-05-03T09:08:49Z</time></trkpt><trkpt lat="42.02761552338623" lon="-3.3229349557111187"><ele>955.0</ele><time>2026-05-03T09:21:07Z</time></trkpt><trkpt lat="42.02755325269288" lon="-3.3229728822351836"><ele>954.9999999999999</ele><time>2026-05-03T09:21:34Z</time></trkpt><trkpt lat="42.02748325308822" lon="-3.3229292780658306"><ele>955.0</ele><time>2026-05-03T09:21:37Z</time></trkpt><trkpt lat="42.027404949162886" lon="-3.3228832873098084"><ele>955.0</ele><time>2026-05-03T09:21:40Z</time></trkpt><trkpt lat="42.02733351324891" lon="-3.3229015790027585"><ele>955.0</ele><time>2026-05-03T09:21:42Z</time></trkpt><trkpt lat="42.02726343188819" lon="-3.3229310121183295"><ele>954.9999999999999</ele><time>2026-05-03T09:21:44Z</time></trkpt><trkpt lat="42.0271876667683" lon="-3.322970580364696"><ele>955.0</ele><time>2026-05-03T09:21:46Z</time></trkpt><trkpt lat="42.02710256031711" lon="-3.3230244364745958"><ele>955.1666666666666</ele><time>2026-05-03T09:21:48Z</time></trkpt><trkpt lat="42.027009922737754" lon="-3.323094255809555"><ele>955.3333333333333</ele><time>2026-05-03T09:21:50Z</time></trkpt><trkpt lat="42.026907001803465" lon="-3.32317332743743"><ele>955.5</ele><time>2026-05-03T09:21:52.001Z</time></trkpt><trkpt lat="42.026852251260344" lon="-3.3232168772809567"><ele>955.6666666666667</ele><time>2026-05-03T09:21:53.001Z</time></trkpt><trkpt lat="42.02679939847811" lon="-3.3232632837151526"><ele>955.8333333333334</ele><time>2026-05-03T09:21:54.001Z</time></trkpt><trkpt lat="42.02674781078274" lon="-3.3233136690861476"><ele>956.0</ele><time>2026-05-03T09:21:55.001Z</time></trkpt><trkpt lat="42.02664697719776" lon="-3.323410639524551"><ele>956.7142857142858</ele><time>2026-05-03T09:21:57.001Z</time></trkpt><trkpt lat="42.026594476283634" lon="-3.3234629596728023"><ele>957.4285714285714</ele><time>2026-05-03T09:21:58.001Z</time></trkpt><trkpt lat="42.02654557679577" lon="-3.323516536127725"><ele>958.1428571428571</ele><time>2026-05-03T09:21:59.001Z</time></trkpt><trkpt lat="42.0264954919254" lon="-3.323570921994963"><ele>958.8571428571429</ele><time>2026-05-03T09:22:00.001Z</time></trkpt><trkpt lat="42.0264454380319" lon="-3.3236280323880383"><ele>959.5714285714284</ele><time>2026-05-03T09:22:01.001Z</time></trkpt><trkpt lat="42.02639446152618" lon="-3.3236811021723534"><ele>960.2857142857142</ele><time>2026-05-03T09:22:02.001Z</time></trkpt><trkpt lat="42.026343104903226" lon="-3.3237321394038895"><ele>961.0</ele><time>2026-05-03T09:22:03.001Z</time></trkpt><trkpt lat="42.02629397842204" lon="-3.323787996925822"><ele>960.9999999999999</ele><time>2026-05-03T09:22:04.001Z</time></trkpt><trkpt lat="42.02624492359815" lon="-3.323844510655617"><ele>961.0</ele><time>2026-05-03T09:22:05.001Z</time></trkpt><trkpt lat="42.02619789753749" lon="-3.3239029803251614"><ele>961.0</ele><time>2026-05-03T09:22:06.001Z</time></trkpt><trkpt lat="42.02614976700625" lon="-3.3239616588017067"><ele>961.0</ele><time>2026-05-03T09:22:07.001Z</time></trkpt><trkpt lat="42.02605486855428" lon="-3.324059869069512"><ele>960.9999999999999</ele><time>2026-05-03T09:22:09.001Z</time></trkpt><trkpt lat="42.025974753241435" lon="-3.3241510266185186"><ele>961.0</ele><time>2026-05-03T09:22:11Z</time></trkpt><trkpt lat="42.02592396683184" lon="-3.324241157089016"><ele>960.4999999999999</ele><time>2026-05-03T09:22:13Z</time></trkpt><trkpt lat="42.02592557773984" lon="-3.3243375139172318"><ele>960.0</ele><time>2026-05-03T09:22:15Z</time></trkpt><trkpt lat="42.025941569508326" lon="-3.324438807188007"><ele>959.5</ele><time>2026-05-03T09:22:17Z</time></trkpt><trkpt lat="42.02593096467376" lon="-3.3245267956175657"><ele>959.0</ele><time>2026-05-03T09:22:19Z</time></trkpt><trkpt lat="42.02586831140981" lon="-3.324561480419479"><ele>958.4999999999999</ele><time>2026-05-03T09:22:22Z</time></trkpt><trkpt lat="42.02581061882967" lon="-3.3244644530287255"><ele>958.0</ele><time>2026-05-03T09:22:24Z</time></trkpt><trkpt lat="42.02577337914827" lon="-3.3243507115245836"><ele>957.6666666666666</ele><time>2026-05-03T09:22:26Z</time></trkpt><trkpt lat="42.025724893317374" lon="-3.3242374356062885"><ele>957.3333333333333</ele><time>2026-05-03T09:22:28Z</time></trkpt><trkpt lat="42.02569002902333" lon="-3.3241216452172506"><ele>957.0</ele><time>2026-05-03T09:22:30Z</time></trkpt><trkpt lat="42.02565938096294" lon="-3.324031640310616"><ele>956.6666666666667</ele><time>2026-05-03T09:22:32Z</time></trkpt><trkpt lat="42.02562644949223" lon="-3.323945725647845"><ele>956.3333333333334</ele><time>2026-05-03T09:22:34Z</time></trkpt><trkpt lat="42.02558765482942" lon="-3.323849215417712"><ele>956.0</ele><time>2026-05-03T09:22:36Z</time></trkpt><trkpt lat="42.02554590612422" lon="-3.323727544773064"><ele>955.5999999999999</ele><time>2026-05-03T09:22:38Z</time></trkpt><trkpt lat="42.02548525213207" lon="-3.3236073149728926"><ele>955.1999999999999</ele><time>2026-05-03T09:22:40Z</time></trkpt><trkpt lat="42.02544592032757" lon="-3.323451837359967"><ele>954.8000000000001</ele><time>2026-05-03T09:22:42Z</time></trkpt><trkpt lat="42.025392214575646" lon="-3.3233025938504768"><ele>954.4000000000001</ele><time>2026-05-03T09:22:44Z</time></trkpt><trkpt lat="42.0253640526093" lon="-3.3232223767888236"><ele>954.0</ele><time>2026-05-03T09:22:45Z</time></trkpt><trkpt lat="42.02532079697343" lon="-3.323149139925348"><ele>954.0</ele><time>2026-05-03T09:22:46Z</time></trkpt><trkpt lat="42.0252910556073" lon="-3.323066222336103"><ele>953.9999999999999</ele><time>2026-05-03T09:22:47Z</time></trkpt><trkpt lat="42.02526069489279" lon="-3.322981578051784"><ele>954.0</ele><time>2026-05-03T09:22:48Z</time></trkpt><trkpt lat="42.02522974328329" lon="-3.322895286375114"><ele>954.0</ele><time>2026-05-03T09:22:49Z</time></trkpt><trkpt lat="42.025198159048855" lon="-3.3228072309662635"><ele>953.9999999999999</ele><time>2026-05-03T09:22:50Z</time></trkpt><trkpt lat="42.02516654295667" lon="-3.3227172987566274"><ele>954.0</ele><time>2026-05-03T09:22:51Z</time></trkpt><trkpt lat="42.02513532602948" lon="-3.3226272669973906"><ele>954.0</ele><time>2026-05-03T09:22:52Z</time></trkpt><trkpt lat="42.02510345940015" lon="-3.3225353615177067"><ele>954.1666666666666</ele><time>2026-05-03T09:22:53Z</time></trkpt><trkpt lat="42.02507176603368" lon="-3.3224439556746983"><ele>954.3333333333333</ele><time>2026-05-03T09:22:54Z</time></trkpt><trkpt lat="42.02503902460334" lon="-3.322349527225551"><ele>954.5</ele><time>2026-05-03T09:22:55Z</time></trkpt><trkpt lat="42.025007000227205" lon="-3.3222541510509056"><ele>954.6666666666666</ele><time>2026-05-03T09:22:56Z</time></trkpt><trkpt lat="42.024975385230746" lon="-3.3221589386616044"><ele>954.8333333333333</ele><time>2026-05-03T09:22:57Z</time></trkpt><trkpt lat="42.024942958049785" lon="-3.3220612802483944"><ele>955.0</ele><time>2026-05-03T09:22:58Z</time></trkpt><trkpt lat="42.024926236921516" lon="-3.3219561844291197"><ele>954.9999999999999</ele><time>2026-05-03T09:22:59Z</time></trkpt><trkpt lat="42.02489341124572" lon="-3.3218609017765792"><ele>955.0</ele><time>2026-05-03T09:23:00Z</time></trkpt><trkpt lat="42.024860683800064" lon="-3.3217645085415817"><ele>955.0</ele><time>2026-05-03T09:23:01Z</time></trkpt><trkpt lat="42.02482715257145" lon="-3.3216657516575987"><ele>955.0</ele><time>2026-05-03T09:23:02Z</time></trkpt><trkpt lat="42.024795007507954" lon="-3.321567229100935"><ele>954.9999999999999</ele><time>2026-05-03T09:23:03Z</time></trkpt><trkpt lat="42.02476366903179" lon="-3.3214701089042835"><ele>955.0</ele><time>2026-05-03T09:23:04Z</time></trkpt><trkpt lat="42.02472011414591" lon="-3.321380152173521"><ele>954.9999999999999</ele><time>2026-05-03T09:23:05Z</time></trkpt><trkpt lat="42.02468882802165" lon="-3.3212833689778765"><ele>955.0</ele><time>2026-05-03T09:23:06Z</time></trkpt><trkpt lat="42.024671551455114" lon="-3.3211753848054926"><ele>955.0</ele><time>2026-05-03T09:23:07Z</time></trkpt><trkpt lat="42.02463882533213" lon="-3.3210754170503836"><ele>955.0</ele><time>2026-05-03T09:23:08Z</time></trkpt><trkpt lat="42.02460736883443" lon="-3.3209745949024465"><ele>954.9999999999999</ele><time>2026-05-03T09:23:09Z</time></trkpt><trkpt lat="42.02457666283582" lon="-3.320871797602942"><ele>955.0</ele><time>2026-05-03T09:23:10Z</time></trkpt><trkpt lat="42.02454424691927" lon="-3.3207700384093295"><ele>954.9999999999999</ele><time>2026-05-03T09:23:11Z</time></trkpt><trkpt lat="42.02451218815828" lon="-3.3206710762435363"><ele>955.0</ele><time>2026-05-03T09:23:12Z</time></trkpt><trkpt lat="42.02448108900637" lon="-3.3205738215241536"><ele>955.0</ele><time>2026-05-03T09:23:13Z</time></trkpt><trkpt lat="42.02445105021231" lon="-3.3204763085477538"><ele>955.0</ele><time>2026-05-03T09:23:14Z</time></trkpt><trkpt lat="42.024420788737295" lon="-3.320377856946741"><ele>954.9999999999999</ele><time>2026-05-03T09:23:15Z</time></trkpt><trkpt lat="42.024392497935736" lon="-3.320279893594289"><ele>955.0</ele><time>2026-05-03T09:23:16Z</time></trkpt><trkpt lat="42.02436315552352" lon="-3.320180932173975"><ele>955.9999999999999</ele><time>2026-05-03T09:23:17Z</time></trkpt><trkpt lat="42.02433394580499" lon="-3.3200830350959794"><ele>957.0</ele><time>2026-05-03T09:23:18Z</time></trkpt><trkpt lat="42.02430429051588" lon="-3.3199860899955285"><ele>958.0</ele><time>2026-05-03T09:23:19Z</time></trkpt><trkpt lat="42.024276576577286" lon="-3.319887601556316"><ele>959.0</ele><time>2026-05-03T09:23:20Z</time></trkpt><trkpt lat="42.02424705516135" lon="-3.319788363327364"><ele>959.9999999999999</ele><time>2026-05-03T09:23:21Z</time></trkpt><trkpt lat="42.02421759222945" lon="-3.319685525470437"><ele>961.0</ele><time>2026-05-03T09:23:22Z</time></trkpt><trkpt lat="42.024184948423546" lon="-3.3195833282379406"><ele>961.1666666666666</ele><time>2026-05-03T09:23:23Z</time></trkpt><trkpt lat="42.02415544113278" lon="-3.3194784537471618"><ele>961.3333333333333</ele><time>2026-05-03T09:23:24Z</time></trkpt><trkpt lat="42.02412597321292" lon="-3.319374128272575"><ele>961.5</ele><time>2026-05-03T09:23:25Z</time></trkpt><trkpt lat="42.02409533532501" lon="-3.3192723082342894"><ele>961.6666666666667</ele><time>2026-05-03T09:23:26Z</time></trkpt><trkpt lat="42.0240644824668" lon="-3.319172961480514"><ele>961.8333333333334</ele><time>2026-05-03T09:23:27Z</time></trkpt><trkpt lat="42.024035493779" lon="-3.319071518253169"><ele>962.0</ele><time>2026-05-03T09:23:28Z</time></trkpt><trkpt lat="42.02400939514379" lon="-3.3189709252240194"><ele>962.5000000000001</ele><time>2026-05-03T09:23:29Z</time></trkpt><trkpt lat="42.02398160663279" lon="-3.3188706973743027"><ele>963.0</ele><time>2026-05-03T09:23:30Z</time></trkpt><trkpt lat="42.023954150118136" lon="-3.3187721217597947"><ele>963.5</ele><time>2026-05-03T09:23:31Z</time></trkpt><trkpt lat="42.02392682654859" lon="-3.3186711366637778"><ele>964.0</ele><time>2026-05-03T09:23:32Z</time></trkpt><trkpt lat="42.02389864344464" lon="-3.318570926538982"><ele>964.5000000000001</ele><time>2026-05-03T09:23:33Z</time></trkpt><trkpt lat="42.02386966935686" lon="-3.3184698908479873"><ele>965.0</ele><time>2026-05-03T09:23:34.001Z</time></trkpt><trkpt lat="42.02384458080118" lon="-3.318368037741313"><ele>965.0000000000001</ele><time>2026-05-03T09:23:35.001Z</time></trkpt><trkpt lat="42.02381725287026" lon="-3.3182676983692194"><ele>965.0</ele><time>2026-05-03T09:23:36.001Z</time></trkpt><trkpt lat="42.02378874912355" lon="-3.3181674010965687"><ele>965.0</ele><time>2026-05-03T09:23:37.001Z</time></trkpt><trkpt lat="42.02375999464526" lon="-3.3180662014362374"><ele>965.0</ele><time>2026-05-03T09:23:38.001Z</time></trkpt><trkpt lat="42.02373242364354" lon="-3.3179658949907576"><ele>965.0000000000001</ele><time>2026-05-03T09:23:39.001Z</time></trkpt><trkpt lat="42.023705643958024" lon="-3.3178618812093257"><ele>965.0</ele><time>2026-05-03T09:23:40.001Z</time></trkpt><trkpt lat="42.02367925023876" lon="-3.3177577318390576"><ele>965.0000000000001</ele><time>2026-05-03T09:23:41.001Z</time></trkpt><trkpt lat="42.02365203335715" lon="-3.3176534095403487"><ele>965.0</ele><time>2026-05-03T09:23:42.001Z</time></trkpt><trkpt lat="42.023625835412346" lon="-3.31754868720418"><ele>965.0</ele><time>2026-05-03T09:23:43.001Z</time></trkpt><trkpt lat="42.02359941312531" lon="-3.3174430749066306"><ele>965.0</ele><time>2026-05-03T09:23:44.001Z</time></trkpt><trkpt lat="42.02357418098455" lon="-3.317336041884405"><ele>965.0000000000001</ele><time>2026-05-03T09:23:45.001Z</time></trkpt><trkpt lat="42.023547610178476" lon="-3.317228994666103"><ele>965.0</ele><time>2026-05-03T09:23:46.001Z</time></trkpt><trkpt lat="42.02352197737455" lon="-3.317123472579361"><ele>965.0000000000001</ele><time>2026-05-03T09:23:47.001Z</time></trkpt><trkpt lat="42.02349644816917" lon="-3.3170165363363586"><ele>965.0</ele><time>2026-05-03T09:23:48.001Z</time></trkpt><trkpt lat="42.02347241052631" lon="-3.316909273492439"><ele>965.0</ele><time>2026-05-03T09:23:49.001Z</time></trkpt><trkpt lat="42.023447934564814" lon="-3.316802622491418"><ele>965.0</ele><time>2026-05-03T09:23:50.001Z</time></trkpt><trkpt lat="42.023421727955295" lon="-3.3166969790468883"><ele>965.0000000000001</ele><time>2026-05-03T09:23:51.001Z</time></trkpt><trkpt lat="42.023399475742906" lon="-3.3165907297744113"><ele>965.0</ele><time>2026-05-03T09:23:52.001Z</time></trkpt><trkpt lat="42.0233777805593" lon="-3.3164833932571844"><ele>964.8333333333334</ele><time>2026-05-03T09:23:53.001Z</time></trkpt><trkpt lat="42.02335215090543" lon="-3.3163735069030515"><ele>964.6666666666667</ele><time>2026-05-03T09:23:54.001Z</time></trkpt><trkpt lat="42.023328151789364" lon="-3.3162665312728397"><ele>964.5</ele><time>2026-05-03T09:23:55.001Z</time></trkpt><trkpt lat="42.02330280866761" lon="-3.3161584538970383"><ele>964.3333333333333</ele><time>2026-05-03T09:23:56.001Z</time></trkpt><trkpt lat="42.023277203276734" lon="-3.3160517334253443"><ele>964.1666666666666</ele><time>2026-05-03T09:23:57.001Z</time></trkpt><trkpt lat="42.02325307848264" lon="-3.315943543000134"><ele>964.0</ele><time>2026-05-03T09:23:58.001Z</time></trkpt><trkpt lat="42.023228543235554" lon="-3.3158376610073295"><ele>963.9999999999999</ele><time>2026-05-03T09:23:59.001Z</time></trkpt><trkpt lat="42.02320518324622" lon="-3.3157321757363962"><ele>964.0</ele><time>2026-05-03T09:24:00.001Z</time></trkpt><trkpt lat="42.023182033504604" lon="-3.3156269628905175"><ele>964.0</ele><time>2026-05-03T09:24:01.001Z</time></trkpt><trkpt lat="42.023159338995214" lon="-3.315520936449203"><ele>964.0</ele><time>2026-05-03T09:24:02.001Z</time></trkpt><trkpt lat="42.02313822410345" lon="-3.3154137844334253"><ele>963.9999999999999</ele><time>2026-05-03T09:24:03.001Z</time></trkpt><trkpt lat="42.02311323335626" lon="-3.315307865944158"><ele>964.0</ele><time>2026-05-03T09:24:04.001Z</time></trkpt><trkpt lat="42.02308860657675" lon="-3.315203821706745"><ele>964.4999999999999</ele><time>2026-05-03T09:24:05.001Z</time></trkpt><trkpt lat="42.02306391566913" lon="-3.315097867006651"><ele>965.0</ele><time>2026-05-03T09:24:06.001Z</time></trkpt><trkpt lat="42.02303870986597" lon="-3.3149900737456646"><ele>965.5</ele><time>2026-05-03T09:24:07.001Z</time></trkpt><trkpt lat="42.02301636863957" lon="-3.314882419936825"><ele>966.0</ele><time>2026-05-03T09:24:08.001Z</time></trkpt><trkpt lat="42.02299227286501" lon="-3.3147736186739647"><ele>966.4999999999999</ele><time>2026-05-03T09:24:09.001Z</time></trkpt><trkpt lat="42.02296688930028" lon="-3.3146660476428225"><ele>967.0</ele><time>2026-05-03T09:24:10.001Z</time></trkpt><trkpt lat="42.02294141926666" lon="-3.314556566673345"><ele>966.9999999999999</ele><time>2026-05-03T09:24:11.001Z</time></trkpt><trkpt lat="42.02291791625107" lon="-3.314446883396176"><ele>967.0</ele><time>2026-05-03T09:24:12.001Z</time></trkpt><trkpt lat="42.022893807629366" lon="-3.3143376845510413"><ele>967.0</ele><time>2026-05-03T09:24:13.001Z</time></trkpt><trkpt lat="42.02286871761313" lon="-3.314228284246192"><ele>967.0</ele><time>2026-05-03T09:24:14.001Z</time></trkpt><trkpt lat="42.02284476850292" lon="-3.3141188224946294"><ele>966.9999999999999</ele><time>2026-05-03T09:24:15.001Z</time></trkpt><trkpt lat="42.022818448662484" lon="-3.3140099409813786"><ele>967.0</ele><time>2026-05-03T09:24:16.001Z</time></trkpt><trkpt lat="42.02279437909353" lon="-3.313901485505207"><ele>966.9999999999999</ele><time>2026-05-03T09:24:17Z</time></trkpt><trkpt lat="42.02277285169491" lon="-3.313793580727149"><ele>967.0</ele><time>2026-05-03T09:24:18Z</time></trkpt><trkpt lat="42.02275008558185" lon="-3.313687619142737"><ele>967.0</ele><time>2026-05-03T09:24:19Z</time></trkpt><trkpt lat="42.02272636889251" lon="-3.3135822534606176"><ele>967.0</ele><time>2026-05-03T09:24:20Z</time></trkpt><trkpt lat="42.02270183561503" lon="-3.3134756588699528"><ele>966.9999999999999</ele><time>2026-05-03T09:24:21Z</time></trkpt><trkpt lat="42.022677639106114" lon="-3.3133720605244594"><ele>967.0</ele><time>2026-05-03T09:24:22Z</time></trkpt><trkpt lat="42.02265580439576" lon="-3.3132697141905845"><ele>967.0</ele><time>2026-05-03T09:24:23Z</time></trkpt><trkpt lat="42.0226352507641" lon="-3.313168268316644"><ele>967.0</ele><time>2026-05-03T09:24:24Z</time></trkpt><trkpt lat="42.02261494378433" lon="-3.3130712932552946"><ele>967.0</ele><time>2026-05-03T09:24:25Z</time></trkpt><trkpt lat="42.02259478945859" lon="-3.3129778021579708"><ele>967.0</ele><time>2026-05-03T09:24:26Z</time></trkpt><trkpt lat="42.02257291071756" lon="-3.312882426288221"><ele>967.0</ele><time>2026-05-03T09:24:27Z</time></trkpt><trkpt lat="42.022552668686146" lon="-3.3127931400421637"><ele>967.0</ele><time>2026-05-03T09:24:28Z</time></trkpt><trkpt lat="42.022533487277364" lon="-3.312706211660804"><ele>967.0</ele><time>2026-05-03T09:24:29Z</time></trkpt><trkpt lat="42.02249571416483" lon="-3.31255913948312"><ele>967.1666666666666</ele><time>2026-05-03T09:24:31Z</time></trkpt><trkpt lat="42.02244952445656" lon="-3.312443564160151"><ele>967.3333333333333</ele><time>2026-05-03T09:24:33Z</time></trkpt><trkpt lat="42.02239914039203" lon="-3.312386898527137"><ele>967.5</ele><time>2026-05-03T09:24:35Z</time></trkpt><trkpt lat="42.02228456758822" lon="-3.31239360692519"><ele>967.6666666666667</ele><time>2026-05-03T09:24:41Z</time></trkpt><trkpt lat="42.022237347940504" lon="-3.312324444389685"><ele>967.8333333333334</ele><time>2026-05-03T09:24:55Z</time></trkpt><trkpt lat="42.022263602433036" lon="-3.312221862747198"><ele>968.0</ele><time>2026-05-03T09:24:58Z</time></trkpt><trkpt lat="42.02232316468354" lon="-3.3121456701510255"><ele>968.1666666666667</ele><time>2026-05-03T09:25:01Z</time></trkpt><trkpt lat="42.022360226069345" lon="-3.312073360069457"><ele>968.3333333333334</ele><time>2026-05-03T09:25:04Z</time></trkpt><trkpt lat="42.02236966018522" lon="-3.3119851564990936"><ele>968.5</ele><time>2026-05-03T09:25:07Z</time></trkpt><trkpt lat="42.02234380869147" lon="-3.311838596308559"><ele>968.6666666666667</ele><time>2026-05-03T09:25:09Z</time></trkpt><trkpt lat="42.022308689501955" lon="-3.3116855857821457"><ele>968.8333333333334</ele><time>2026-05-03T09:25:11Z</time></trkpt><trkpt lat="42.02228646259487" lon="-3.311601225553109"><ele>969.0</ele><time>2026-05-03T09:25:12Z</time></trkpt><trkpt lat="42.022265290479545" lon="-3.3115129895517588"><ele>969.0</ele><time>2026-05-03T09:25:13Z</time></trkpt><trkpt lat="42.02224503453247" lon="-3.311421534190059"><ele>969.0</ele><time>2026-05-03T09:25:14Z</time></trkpt><trkpt lat="42.0222229532352" lon="-3.3113248621213063"><ele>969.0</ele><time>2026-05-03T09:25:15Z</time></trkpt><trkpt lat="42.022200358414715" lon="-3.3112249062986336"><ele>969.0</ele><time>2026-05-03T09:25:16Z</time></trkpt><trkpt lat="42.02217692995483" lon="-3.3111238233448974"><ele>969.0</ele><time>2026-05-03T09:25:17Z</time></trkpt><trkpt lat="42.022153803521135" lon="-3.311016977525625"><ele>969.0</ele><time>2026-05-03T09:25:18Z</time></trkpt><trkpt lat="42.022128812185855" lon="-3.3109054430108498"><ele>968.3333333333334</ele><time>2026-05-03T09:25:19Z</time></trkpt><trkpt lat="42.02210514109239" lon="-3.3107927719353882"><ele>967.6666666666667</ele><time>2026-05-03T09:25:20Z</time></trkpt><trkpt lat="42.022081017737726" lon="-3.310677273644306"><ele>967.0</ele><time>2026-05-03T09:25:21Z</time></trkpt><trkpt lat="42.022054419124096" lon="-3.3105622037011755"><ele>966.3333333333334</ele><time>2026-05-03T09:25:22Z</time></trkpt><trkpt lat="42.02202678161414" lon="-3.310445434529499"><ele>965.6666666666667</ele><time>2026-05-03T09:25:23Z</time></trkpt><trkpt lat="42.021999688747" lon="-3.3103262513650975"><ele>965.0</ele><time>2026-05-03T09:25:24Z</time></trkpt><trkpt lat="42.021973766963875" lon="-3.3102073618040397"><ele>965.0</ele><time>2026-05-03T09:25:25Z</time></trkpt><trkpt lat="42.02194897691392" lon="-3.310085527797897"><ele>965.0</ele><time>2026-05-03T09:25:26Z</time></trkpt><trkpt lat="42.02192261600353" lon="-3.3099667288698345"><ele>965.0</ele><time>2026-05-03T09:25:27Z</time></trkpt><trkpt lat="42.02189759341652" lon="-3.309847570833208"><ele>965.0</ele><time>2026-05-03T09:25:28Z</time></trkpt><trkpt lat="42.021871487761246" lon="-3.3097292261505586"><ele>965.0</ele><time>2026-05-03T09:25:29Z</time></trkpt><trkpt lat="42.02184376293426" lon="-3.3096113335987036"><ele>965.4</ele><time>2026-05-03T09:25:30Z</time></trkpt><trkpt lat="42.021815382114525" lon="-3.3094917917435187"><ele>965.8</ele><time>2026-05-03T09:25:31Z</time></trkpt><trkpt lat="42.02178901710396" lon="-3.309371082111138"><ele>966.2</ele><time>2026-05-03T09:25:32Z</time></trkpt><trkpt lat="42.021763905066706" lon="-3.3092501753803387"><ele>966.6</ele><time>2026-05-03T09:25:33Z</time></trkpt><trkpt lat="42.02173788840232" lon="-3.3091291232899183"><ele>967.0</ele><time>2026-05-03T09:25:34Z</time></trkpt><trkpt lat="42.021712672507924" lon="-3.3090082377791132"><ele>967.0</ele><time>2026-05-03T09:25:35Z</time></trkpt><trkpt lat="42.021688389029535" lon="-3.3088875273759903"><ele>967.0</ele><time>2026-05-03T09:25:36Z</time></trkpt><trkpt lat="42.021663409448735" lon="-3.3087695552375385"><ele>967.0</ele><time>2026-05-03T09:25:37Z</time></trkpt><trkpt lat="42.02163288970748" lon="-3.308643280151765"><ele>967.0</ele><time>2026-05-03T09:25:38Z</time></trkpt><trkpt lat="42.021602809795546" lon="-3.308520695082492"><ele>967.0</ele><time>2026-05-03T09:25:39Z</time></trkpt><trkpt lat="42.02157010274191" lon="-3.3083943341195168"><ele>966.8</ele><time>2026-05-03T09:25:40Z</time></trkpt><trkpt lat="42.02154075009199" lon="-3.3082692320403386"><ele>966.6</ele><time>2026-05-03T09:25:41Z</time></trkpt><trkpt lat="42.02150987044681" lon="-3.308144015939976"><ele>966.3999999999999</ele><time>2026-05-03T09:25:42Z</time></trkpt><trkpt lat="42.021477432473226" lon="-3.30801909816594"><ele>966.1999999999999</ele><time>2026-05-03T09:25:43Z</time></trkpt><trkpt lat="42.02143964339655" lon="-3.30789603922425"><ele>966.0</ele><time>2026-05-03T09:25:44Z</time></trkpt><trkpt lat="42.02140194498585" lon="-3.307769871266011"><ele>966.4</ele><time>2026-05-03T09:25:45Z</time></trkpt><trkpt lat="42.02136439991454" lon="-3.307642254127181"><ele>966.8</ele><time>2026-05-03T09:25:46.001Z</time></trkpt><trkpt lat="42.02132179476179" lon="-3.3075154433839735"><ele>967.1999999999999</ele><time>2026-05-03T09:25:47.001Z</time></trkpt><trkpt lat="42.021278032754154" lon="-3.3073900495749493"><ele>967.5999999999999</ele><time>2026-05-03T09:25:48.001Z</time></trkpt><trkpt lat="42.02123099013374" lon="-3.3072678276352176"><ele>968.0</ele><time>2026-05-03T09:25:49.001Z</time></trkpt><trkpt lat="42.02118385894747" lon="-3.3071440215444214"><ele>968.0</ele><time>2026-05-03T09:25:50.001Z</time></trkpt><trkpt lat="42.02113515406004" lon="-3.3070233041930903"><ele>968.0</ele><time>2026-05-03T09:25:51.001Z</time></trkpt><trkpt lat="42.02108458044058" lon="-3.3069027177348036"><ele>968.0</ele><time>2026-05-03T09:25:52.001Z</time></trkpt><trkpt lat="42.02103061518745" lon="-3.3067842333415602"><ele>968.0</ele><time>2026-05-03T09:25:53.001Z</time></trkpt><trkpt lat="42.02097414295743" lon="-3.3066669069836885"><ele>968.0</ele><time>2026-05-03T09:25:54.001Z</time></trkpt><trkpt lat="42.0209166685762" lon="-3.3065491645724947"><ele>968.0</ele><time>2026-05-03T09:25:55.001Z</time></trkpt><trkpt lat="42.02085804587025" lon="-3.306431193942699"><ele>968.0</ele><time>2026-05-03T09:25:56.001Z</time></trkpt><trkpt lat="42.02079756071779" lon="-3.306313315114387"><ele>968.0</ele><time>2026-05-03T09:25:57.001Z</time></trkpt><trkpt lat="42.0207345957849" lon="-3.306199133948478"><ele>968.0</ele><time>2026-05-03T09:25:58.001Z</time></trkpt><trkpt lat="42.020671463122575" lon="-3.3060881080512234"><ele>968.0</ele><time>2026-05-03T09:25:59.001Z</time></trkpt><trkpt lat="42.02060355182083" lon="-3.3059770265631236"><ele>968.2</ele><time>2026-05-03T09:26:00.001Z</time></trkpt><trkpt lat="42.02053532664783" lon="-3.3058686746164967"><ele>968.4</ele><time>2026-05-03T09:26:01.001Z</time></trkpt><trkpt lat="42.020464135614965" lon="-3.3057621232922316"><ele>968.6000000000001</ele><time>2026-05-03T09:26:02.001Z</time></trkpt><trkpt lat="42.0203938657463" lon="-3.3056580961057436"><ele>968.8000000000001</ele><time>2026-05-03T09:26:03.001Z</time></trkpt><trkpt lat="42.020323247420606" lon="-3.30555390959479"><ele>969.0</ele><time>2026-05-03T09:26:04.001Z</time></trkpt><trkpt lat="42.02024910407511" lon="-3.3054533936232886"><ele>969.0</ele><time>2026-05-03T09:26:05.001Z</time></trkpt><trkpt lat="42.02017487726535" lon="-3.30535327150487"><ele>969.0000000000001</ele><time>2026-05-03T09:26:06.001Z</time></trkpt><trkpt lat="42.02010005447845" lon="-3.3052561759714356"><ele>969.0000000000001</ele><time>2026-05-03T09:26:07.001Z</time></trkpt><trkpt lat="42.02002231305136" lon="-3.3051584232186557"><ele>969.0</ele><time>2026-05-03T09:26:08.001Z</time></trkpt><trkpt lat="42.01994417377099" lon="-3.3050628353082403"><ele>969.0</ele><time>2026-05-03T09:26:09.001Z</time></trkpt><trkpt lat="42.01986422655562" lon="-3.304971545879462"><ele>968.0</ele><time>2026-05-03T09:26:10.001Z</time></trkpt><trkpt lat="42.019782028735676" lon="-3.3048830722993765"><ele>967.0000000000001</ele><time>2026-05-03T09:26:11.001Z</time></trkpt><trkpt lat="42.019700269991695" lon="-3.3047965259332552"><ele>966.0000000000001</ele><time>2026-05-03T09:26:12.001Z</time></trkpt><trkpt lat="42.019615636130155" lon="-3.304708541291693"><ele>965.0</ele><time>2026-05-03T09:26:13.001Z</time></trkpt><trkpt lat="42.01952401949248" lon="-3.3046297769449873"><ele>964.0</ele><time>2026-05-03T09:26:14.001Z</time></trkpt><trkpt lat="42.01943269570054" lon="-3.3045497212803703"><ele>963.4000000000001</ele><time>2026-05-03T09:26:15.001Z</time></trkpt><trkpt lat="42.0193427501276" lon="-3.304471543882547"><ele>962.8000000000001</ele><time>2026-05-03T09:26:16.001Z</time></trkpt><trkpt lat="42.01925270101388" lon="-3.304396149454649"><ele>962.1999999999999</ele><time>2026-05-03T09:26:17.001Z</time></trkpt><trkpt lat="42.01916346237135" lon="-3.304322052258993"><ele>961.5999999999999</ele><time>2026-05-03T09:26:18.001Z</time></trkpt><trkpt lat="42.01907353024158" lon="-3.3042522545236057"><ele>961.0</ele><time>2026-05-03T09:26:19.001Z</time></trkpt><trkpt lat="42.01897821658833" lon="-3.3041826765602007"><ele>961.1999999999999</ele><time>2026-05-03T09:26:20.001Z</time></trkpt><trkpt lat="42.018883917509136" lon="-3.304115105452329"><ele>961.3999999999999</ele><time>2026-05-03T09:26:21.001Z</time></trkpt><trkpt lat="42.018787705233" lon="-3.3040502347894636"><ele>961.6</ele><time>2026-05-03T09:26:22.001Z</time></trkpt><trkpt lat="42.018691418053415" lon="-3.3039887076753582"><ele>961.8</ele><time>2026-05-03T09:26:23Z</time></trkpt><trkpt lat="42.01859426457927" lon="-3.303927681847809"><ele>962.0</ele><time>2026-05-03T09:26:24Z</time></trkpt><trkpt lat="42.018494728586255" lon="-3.3038727435891144"><ele>962.0</ele><time>2026-05-03T09:26:25Z</time></trkpt><trkpt lat="42.018393656752906" lon="-3.3038189193420395"><ele>962.0</ele><time>2026-05-03T09:26:26Z</time></trkpt><trkpt lat="42.018291483368635" lon="-3.303772861645409"><ele>962.0</ele><time>2026-05-03T09:26:27Z</time></trkpt><trkpt lat="42.01818507979433" lon="-3.3037358513900497"><ele>962.0</ele><time>2026-05-03T09:26:28Z</time></trkpt><trkpt lat="42.01807828809988" lon="-3.303702204715514"><ele>962.0</ele><time>2026-05-03T09:26:29Z</time></trkpt><trkpt lat="42.01797144665325" lon="-3.303667555096186"><ele>961.4000000000001</ele><time>2026-05-03T09:26:30Z</time></trkpt><trkpt lat="42.01786746846605" lon="-3.303630693589731"><ele>960.8000000000001</ele><time>2026-05-03T09:26:31Z</time></trkpt><trkpt lat="42.01776540760778" lon="-3.303591078897528"><ele>960.2</ele><time>2026-05-03T09:26:32Z</time></trkpt><trkpt lat="42.01766174275433" lon="-3.3035515896145395"><ele>959.6</ele><time>2026-05-03T09:26:33Z</time></trkpt><trkpt lat="42.01755799291126" lon="-3.3035164578028056"><ele>959.0</ele><time>2026-05-03T09:26:34Z</time></trkpt><trkpt lat="42.01745462588897" lon="-3.3034778664755082"><ele>959.0</ele><time>2026-05-03T09:26:35Z</time></trkpt><trkpt lat="42.01735144669411" lon="-3.303440377937419"><ele>959.0000000000001</ele><time>2026-05-03T09:26:36Z</time></trkpt><trkpt lat="42.017250092061865" lon="-3.3033999881351477"><ele>959.0000000000001</ele><time>2026-05-03T09:26:37Z</time></trkpt><trkpt lat="42.01714959016288" lon="-3.3033598263547383"><ele>959.0</ele><time>2026-05-03T09:26:38Z</time></trkpt><trkpt lat="42.01704909588803" lon="-3.3033190622819335"><ele>959.0</ele><time>2026-05-03T09:26:39Z</time></trkpt><trkpt lat="42.016947725913106" lon="-3.3032787818556515"><ele>959.0</ele><time>2026-05-03T09:26:40Z</time></trkpt><trkpt lat="42.01684490070982" lon="-3.3032398160793957"><ele>959.0000000000001</ele><time>2026-05-03T09:26:41Z</time></trkpt><trkpt lat="42.0167425091852" lon="-3.3032005364585024"><ele>959.0000000000001</ele><time>2026-05-03T09:26:42Z</time></trkpt><trkpt lat="42.01663766670014" lon="-3.3031623419575507"><ele>959.0</ele><time>2026-05-03T09:26:43Z</time></trkpt><trkpt lat="42.016531829770145" lon="-3.303124382976773"><ele>959.0</ele><time>2026-05-03T09:26:44Z</time></trkpt><trkpt lat="42.01642904216039" lon="-3.3030868606209998"><ele>955.8000000000001</ele><time>2026-05-03T09:26:45Z</time></trkpt><trkpt lat="42.016325679341165" lon="-3.3030482445497404"><ele>952.6000000000001</ele><time>2026-05-03T09:26:46Z</time></trkpt><trkpt lat="42.016224175417626" lon="-3.303008042454045"><ele>949.4</ele><time>2026-05-03T09:26:47Z</time></trkpt><trkpt lat="42.01612314117329" lon="-3.3029713997201915"><ele>946.2</ele><time>2026-05-03T09:26:48Z</time></trkpt><trkpt lat="42.01601957661362" lon="-3.302936314240956"><ele>943.0</ele><time>2026-05-03T09:26:49Z</time></trkpt><trkpt lat="42.015913668857756" lon="-3.3029021266915617"><ele>944.2</ele><time>2026-05-03T09:26:50Z</time></trkpt><trkpt lat="42.015810272345085" lon="-3.3028636431949705"><ele>945.4</ele><time>2026-05-03T09:26:51Z</time></trkpt><trkpt lat="42.015704944266176" lon="-3.3028242107277346"><ele>946.6000000000001</ele><time>2026-05-03T09:26:52Z</time></trkpt><trkpt lat="42.01559734339004" lon="-3.302791785547384"><ele>947.8000000000001</ele><time>2026-05-03T09:26:53Z</time></trkpt><trkpt lat="42.01549202314006" lon="-3.302761481228864"><ele>949.0</ele><time>2026-05-03T09:26:54Z</time></trkpt><trkpt lat="42.01538664954937" lon="-3.3027251468316967"><ele>949.0</ele><time>2026-05-03T09:26:55Z</time></trkpt><trkpt lat="42.0152811846883" lon="-3.3026851214155917"><ele>949.0000000000001</ele><time>2026-05-03T09:26:56Z</time></trkpt><trkpt lat="42.01517355398386" lon="-3.302647160311502"><ele>949.0000000000001</ele><time>2026-05-03T09:26:57Z</time></trkpt><trkpt lat="42.01507001392542" lon="-3.3026108981149385"><ele>949.0</ele><time>2026-05-03T09:26:58Z</time></trkpt><trkpt lat="42.01496413663659" lon="-3.302571823464762"><ele>949.0</ele><time>2026-05-03T09:26:59Z</time></trkpt><trkpt lat="42.01485373463724" lon="-3.3025338341907258"><ele>947.8000000000001</ele><time>2026-05-03T09:27:00Z</time></trkpt><trkpt lat="42.01474969139556" lon="-3.302495512520847"><ele>946.6000000000001</ele><time>2026-05-03T09:27:01Z</time></trkpt><trkpt lat="42.01464077619735" lon="-3.3024579262262574"><ele>945.4</ele><time>2026-05-03T09:27:02Z</time></trkpt><trkpt lat="42.01453387848407" lon="-3.302420055458073"><ele>944.2</ele><time>2026-05-03T09:27:03Z</time></trkpt><trkpt lat="42.01442857897104" lon="-3.302378123139214"><ele>943.0</ele><time>2026-05-03T09:27:04Z</time></trkpt><trkpt lat="42.01432395533241" lon="-3.3023371888883912"><ele>943.0</ele><time>2026-05-03T09:27:05Z</time></trkpt><trkpt lat="42.01421794515771" lon="-3.302297029087574"><ele>943.0</ele><time>2026-05-03T09:27:06Z</time></trkpt><trkpt lat="42.014111401116445" lon="-3.302264090368891"><ele>943.0</ele><time>2026-05-03T09:27:07Z</time></trkpt><trkpt lat="42.014005311673515" lon="-3.30222285027677"><ele>943.0</ele><time>2026-05-03T09:27:08Z</time></trkpt><trkpt lat="42.01390253216786" lon="-3.3021828077659663"><ele>943.0</ele><time>2026-05-03T09:27:09Z</time></trkpt><trkpt lat="42.01379840143497" lon="-3.3021422589180784"><ele>944.4</ele><time>2026-05-03T09:27:10Z</time></trkpt><trkpt lat="42.013693178524406" lon="-3.302099135005127"><ele>945.8</ele><time>2026-05-03T09:27:11Z</time></trkpt><trkpt lat="42.013586417887424" lon="-3.302056812112291"><ele>947.2</ele><time>2026-05-03T09:27:12Z</time></trkpt><trkpt lat="42.01347997132249" lon="-3.3020101173626806"><ele>948.6</ele><time>2026-05-03T09:27:13Z</time></trkpt><trkpt lat="42.01337526641503" lon="-3.3019655084367505"><ele>950.0</ele><time>2026-05-03T09:27:14Z</time></trkpt><trkpt lat="42.01326831072567" lon="-3.3019206941962653"><ele>950.0</ele><time>2026-05-03T09:27:15Z</time></trkpt><trkpt lat="42.0131638100688" lon="-3.3018748412727383"><ele>950.0</ele><time>2026-05-03T09:27:16Z</time></trkpt><trkpt lat="42.01306221512835" lon="-3.301829415060528"><ele>950.0</ele><time>2026-05-03T09:27:17Z</time></trkpt><trkpt lat="42.01295927998199" lon="-3.3017836737917747"><ele>950.0</ele><time>2026-05-03T09:27:18Z</time></trkpt><trkpt lat="42.012855794868116" lon="-3.30174085185597"><ele>950.0</ele><time>2026-05-03T09:27:19Z</time></trkpt><trkpt lat="42.01275437278782" lon="-3.301696500625452"><ele>950.0</ele><time>2026-05-03T09:27:20Z</time></trkpt><trkpt lat="42.012654332752575" lon="-3.3016454629911354"><ele>950.0</ele><time>2026-05-03T09:27:21Z</time></trkpt><trkpt lat="42.01255650359888" lon="-3.3016109718785196"><ele>950.0</ele><time>2026-05-03T09:27:22Z</time></trkpt><trkpt lat="42.01245775642624" lon="-3.301564349235539"><ele>950.0</ele><time>2026-05-03T09:27:23Z</time></trkpt><trkpt lat="42.012360018124596" lon="-3.3015159374258367"><ele>950.0</ele><time>2026-05-03T09:27:24Z</time></trkpt><trkpt lat="42.01225995618283" lon="-3.3014667997773426"><ele>949.2</ele><time>2026-05-03T09:27:25Z</time></trkpt><trkpt lat="42.0121591620893" lon="-3.301417258670389"><ele>948.4</ele><time>2026-05-03T09:27:26Z</time></trkpt><trkpt lat="42.012056103266374" lon="-3.3013706380731054"><ele>947.5999999999999</ele><time>2026-05-03T09:27:27Z</time></trkpt><trkpt lat="42.011951928460945" lon="-3.301318263792814"><ele>946.8</ele><time>2026-05-03T09:27:28Z</time></trkpt><trkpt lat="42.01184938749884" lon="-3.301265772177029"><ele>946.0</ele><time>2026-05-03T09:27:29Z</time></trkpt><trkpt lat="42.01174487092849" lon="-3.3012142024239823"><ele>946.1999999999999</ele><time>2026-05-03T09:27:30Z</time></trkpt><trkpt lat="42.01164216377812" lon="-3.301161764377248"><ele>946.3999999999999</ele><time>2026-05-03T09:27:31Z</time></trkpt><trkpt lat="42.011543237290866" lon="-3.3011073655636145"><ele>946.6</ele><time>2026-05-03T09:27:32Z</time></trkpt><trkpt lat="42.01144447384461" lon="-3.3010577574646427"><ele>946.8</ele><time>2026-05-03T09:27:33Z</time></trkpt><trkpt lat="42.01134489903391" lon="-3.3010004766440635"><ele>947.0</ele><time>2026-05-03T09:27:34Z</time></trkpt><trkpt lat="42.01124415944791" lon="-3.3009430342256962"><ele>947.0</ele><time>2026-05-03T09:27:35Z</time></trkpt><trkpt lat="42.01114345421015" lon="-3.3008914842083334"><ele>947.0</ele><time>2026-05-03T09:27:36Z</time></trkpt><trkpt lat="42.01104726880054" lon="-3.300834156305678"><ele>947.0</ele><time>2026-05-03T09:27:37Z</time></trkpt><trkpt lat="42.010949391563095" lon="-3.3007797938458654"><ele>947.0</ele><time>2026-05-03T09:27:38Z</time></trkpt><trkpt lat="42.01084805958095" lon="-3.300723085404053"><ele>947.0</ele><time>2026-05-03T09:27:39Z</time></trkpt><trkpt lat="42.01074678833704" lon="-3.3006691996442465"><ele>947.8</ele><time>2026-05-03T09:27:40Z</time></trkpt><trkpt lat="42.01064829707669" lon="-3.30061257709649"><ele>948.6</ele><time>2026-05-03T09:27:41Z</time></trkpt><trkpt lat="42.01054955568069" lon="-3.3005557623526958"><ele>949.3999999999999</ele><time>2026-05-03T09:27:42Z</time></trkpt><trkpt lat="42.010448742086666" lon="-3.3004980261110326"><ele>950.1999999999999</ele><time>2026-05-03T09:27:43Z</time></trkpt><trkpt lat="42.01034955129863" lon="-3.3004366442000457"><ele>951.0</ele><time>2026-05-03T09:27:44Z</time></trkpt><trkpt lat="42.01025276067726" lon="-3.300375294949191"><ele>951.1999999999999</ele><time>2026-05-03T09:27:45Z</time></trkpt><trkpt lat="42.01015466162519" lon="-3.300315201546026"><ele>951.3999999999999</ele><time>2026-05-03T09:27:46Z</time></trkpt><trkpt lat="42.010056842202644" lon="-3.300256917758084"><ele>951.6</ele><time>2026-05-03T09:27:47Z</time></trkpt><trkpt lat="42.00995649378232" lon="-3.3001978606493103"><ele>951.8</ele><time>2026-05-03T09:27:48Z</time></trkpt><trkpt lat="42.009860144265836" lon="-3.300139405160089"><ele>952.0</ele><time>2026-05-03T09:27:49Z</time></trkpt><trkpt lat="42.009763418789305" lon="-3.300080057016054"><ele>950.8</ele><time>2026-05-03T09:27:50Z</time></trkpt><trkpt lat="42.009666776013894" lon="-3.300019909493248"><ele>949.6</ele><time>2026-05-03T09:27:51Z</time></trkpt><trkpt lat="42.00956663650041" lon="-3.299959260674213"><ele>948.3999999999999</ele><time>2026-05-03T09:27:52Z</time></trkpt><trkpt lat="42.00947036534944" lon="-3.2999015841637793"><ele>947.1999999999999</ele><time>2026-05-03T09:27:53.001Z</time></trkpt><trkpt lat="42.009373287059574" lon="-3.2998452519658668"><ele>946.0</ele><time>2026-05-03T09:27:54.001Z</time></trkpt><trkpt lat="42.0092760470918" lon="-3.2997870147492976"><ele>946.8</ele><time>2026-05-03T09:27:55.001Z</time></trkpt><trkpt lat="42.0091822761767" lon="-3.2997286960443106"><ele>947.5999999999999</ele><time>2026-05-03T09:27:56.001Z</time></trkpt><trkpt lat="42.00908447497932" lon="-3.299667811189421"><ele>948.4</ele><time>2026-05-03T09:27:57.001Z</time></trkpt><trkpt lat="42.008989507698836" lon="-3.2996087849416003"><ele>949.2</ele><time>2026-05-03T09:27:58.001Z</time></trkpt><trkpt lat="42.00888986263162" lon="-3.2995537196188667"><ele>950.0</ele><time>2026-05-03T09:27:59.001Z</time></trkpt><trkpt lat="42.008793673510695" lon="-3.2994894474305876"><ele>950.0</ele><time>2026-05-03T09:28:00.001Z</time></trkpt><trkpt lat="42.00869556599592" lon="-3.2994322920158736"><ele>950.0</ele><time>2026-05-03T09:28:01.001Z</time></trkpt><trkpt lat="42.00859702846543" lon="-3.299370284368386"><ele>950.0</ele><time>2026-05-03T09:28:02.001Z</time></trkpt><trkpt lat="42.00849630270402" lon="-3.2993145396178254"><ele>950.0</ele><time>2026-05-03T09:28:03.001Z</time></trkpt><trkpt lat="42.00839538235292" lon="-3.299257606714809"><ele>950.0</ele><time>2026-05-03T09:28:04.001Z</time></trkpt><trkpt lat="42.00829619869964" lon="-3.2991949107661154"><ele>950.8</ele><time>2026-05-03T09:28:05.001Z</time></trkpt><trkpt lat="42.008198927859766" lon="-3.2991341513580497"><ele>951.6</ele><time>2026-05-03T09:28:06.001Z</time></trkpt><trkpt lat="42.00809992788719" lon="-3.299071894480216"><ele>952.4000000000001</ele><time>2026-05-03T09:28:07.001Z</time></trkpt><trkpt lat="42.008001798151525" lon="-3.2990085907576496"><ele>953.2</ele><time>2026-05-03T09:28:08.001Z</time></trkpt><trkpt lat="42.00790316352027" lon="-3.2989485049116185"><ele>954.0</ele><time>2026-05-03T09:28:09.001Z</time></trkpt><trkpt lat="42.00780394470341" lon="-3.298886699582794"><ele>954.0</ele><time>2026-05-03T09:28:10.001Z</time></trkpt><trkpt lat="42.00770288662007" lon="-3.298828809322411"><ele>954.0000000000001</ele><time>2026-05-03T09:28:11.001Z</time></trkpt><trkpt lat="42.00760335899131" lon="-3.2987715038988004"><ele>954.0000000000001</ele><time>2026-05-03T09:28:12.001Z</time></trkpt><trkpt lat="42.0075039487858" lon="-3.29871237797749"><ele>954.0</ele><time>2026-05-03T09:28:13.001Z</time></trkpt><trkpt lat="42.00740251948188" lon="-3.2986496350226204"><ele>954.0</ele><time>2026-05-03T09:28:14.001Z</time></trkpt><trkpt lat="42.00730473649465" lon="-3.2985882369642168"><ele>954.0</ele><time>2026-05-03T09:28:15.001Z</time></trkpt><trkpt lat="42.00720585630769" lon="-3.298527682889443"><ele>954.0000000000001</ele><time>2026-05-03T09:28:16.001Z</time></trkpt><trkpt lat="42.00710090775254" lon="-3.2984663182544725"><ele>954.0000000000001</ele><time>2026-05-03T09:28:17.001Z</time></trkpt><trkpt lat="42.007001743365834" lon="-3.2984062201805413"><ele>954.0</ele><time>2026-05-03T09:28:18.001Z</time></trkpt><trkpt lat="42.00690127197765" lon="-3.298348617184129"><ele>954.0</ele><time>2026-05-03T09:28:19.001Z</time></trkpt><trkpt lat="42.006799334054215" lon="-3.2982886671884537"><ele>954.0</ele><time>2026-05-03T09:28:20.001Z</time></trkpt><trkpt lat="42.00670009667203" lon="-3.298228977987733"><ele>954.0000000000001</ele><time>2026-05-03T09:28:21.001Z</time></trkpt><trkpt lat="42.00660128932297" lon="-3.298168849423841"><ele>954.0000000000001</ele><time>2026-05-03T09:28:22.001Z</time></trkpt><trkpt lat="42.00650029018713" lon="-3.298104894911038"><ele>954.0</ele><time>2026-05-03T09:28:23.001Z</time></trkpt><trkpt lat="42.00640225278878" lon="-3.2980479504726428"><ele>954.0</ele><time>2026-05-03T09:28:24.001Z</time></trkpt><trkpt lat="42.00630134820663" lon="-3.297986078742756"><ele>953.4000000000001</ele><time>2026-05-03T09:28:25.001Z</time></trkpt><trkpt lat="42.0062021331901" lon="-3.2979244421297453"><ele>952.8000000000001</ele><time>2026-05-03T09:28:26.001Z</time></trkpt><trkpt lat="42.006104141114456" lon="-3.2978616687599542"><ele>952.1999999999999</ele><time>2026-05-03T09:28:27.001Z</time></trkpt><trkpt lat="42.006003811129055" lon="-3.297798736734448"><ele>951.5999999999999</ele><time>2026-05-03T09:28:28.001Z</time></trkpt><trkpt lat="42.00590674391338" lon="-3.297741359167203"><ele>951.0</ele><time>2026-05-03T09:28:29Z</time></trkpt><trkpt lat="42.0058065604355" lon="-3.2976819549657432"><ele>951.0</ele><time>2026-05-03T09:28:30Z</time></trkpt><trkpt lat="42.00570754321159" lon="-3.29762291973626"><ele>950.9999999999999</ele><time>2026-05-03T09:28:31Z</time></trkpt><trkpt lat="42.00560506529523" lon="-3.297561349140128"><ele>950.9999999999999</ele><time>2026-05-03T09:28:32Z</time></trkpt><trkpt lat="42.00550681602408" lon="-3.2975047132138915"><ele>951.0</ele><time>2026-05-03T09:28:33Z</time></trkpt><trkpt lat="42.005407697435274" lon="-3.2974425093132473"><ele>951.0</ele><time>2026-05-03T09:28:34Z</time></trkpt><trkpt lat="42.00530898017818" lon="-3.297383382368692"><ele>951.0</ele><time>2026-05-03T09:28:35Z</time></trkpt><trkpt lat="42.00521262550177" lon="-3.297322700699102"><ele>950.9999999999999</ele><time>2026-05-03T09:28:36Z</time></trkpt><trkpt lat="42.00511453675359" lon="-3.297260928997363"><ele>950.9999999999999</ele><time>2026-05-03T09:28:37Z</time></trkpt><trkpt lat="42.005015165930494" lon="-3.297199639566247"><ele>951.0</ele><time>2026-05-03T09:28:38Z</time></trkpt><trkpt lat="42.00491619534147" lon="-3.29714204741631"><ele>951.0</ele><time>2026-05-03T09:28:39Z</time></trkpt><trkpt lat="42.00481992779699" lon="-3.2970838789675274"><ele>951.0</ele><time>2026-05-03T09:28:40Z</time></trkpt><trkpt lat="42.00471937929347" lon="-3.2970218313447233"><ele>950.9999999999999</ele><time>2026-05-03T09:28:41Z</time></trkpt><trkpt lat="42.004622441796954" lon="-3.2969644370382394"><ele>950.9999999999999</ele><time>2026-05-03T09:28:42Z</time></trkpt><trkpt lat="42.00452444758988" lon="-3.2969036517695147"><ele>951.0</ele><time>2026-05-03T09:28:43Z</time></trkpt><trkpt lat="42.00442665230415" lon="-3.2968451122751485"><ele>951.0</ele><time>2026-05-03T09:28:44Z</time></trkpt><trkpt lat="42.00432950588127" lon="-3.296785353622224"><ele>951.0</ele><time>2026-05-03T09:28:45Z</time></trkpt><trkpt lat="42.00423183527794" lon="-3.2967238389611007"><ele>950.9999999999999</ele><time>2026-05-03T09:28:46Z</time></trkpt><trkpt lat="42.00413612261594" lon="-3.296665813738198"><ele>950.9999999999999</ele><time>2026-05-03T09:28:47Z</time></trkpt><trkpt lat="42.004038465643106" lon="-3.2966075496428426"><ele>951.0</ele><time>2026-05-03T09:28:48Z</time></trkpt><trkpt lat="42.003940478678764" lon="-3.2965504446996663"><ele>951.0</ele><time>2026-05-03T09:28:49Z</time></trkpt><trkpt lat="42.00384208420503" lon="-3.2964913290591036"><ele>950.8</ele><time>2026-05-03T09:28:50Z</time></trkpt><trkpt lat="42.00374460291319" lon="-3.2964305472805426"><ele>950.5999999999999</ele><time>2026-05-03T09:28:51Z</time></trkpt><trkpt lat="42.00364635346653" lon="-3.2963711532617235"><ele>950.4</ele><time>2026-05-03T09:28:52Z</time></trkpt><trkpt lat="42.00355046491688" lon="-3.2963135002674795"><ele>950.2</ele><time>2026-05-03T09:28:53Z</time></trkpt><trkpt lat="42.00345342804091" lon="-3.2962533355559103"><ele>950.0</ele><time>2026-05-03T09:28:54Z</time></trkpt><trkpt lat="42.00335629145604" lon="-3.296196130166945"><ele>949.8</ele><time>2026-05-03T09:28:55Z</time></trkpt><trkpt lat="42.003260601577736" lon="-3.2961367654931752"><ele>949.6</ele><time>2026-05-03T09:28:56Z</time></trkpt><trkpt lat="42.003163712617464" lon="-3.2960785136159183"><ele>949.4000000000001</ele><time>2026-05-03T09:28:57Z</time></trkpt><trkpt lat="42.003068268228944" lon="-3.296016884786486"><ele>949.2</ele><time>2026-05-03T09:28:58Z</time></trkpt><trkpt lat="42.00297448596679" lon="-3.2959591321534583"><ele>949.0</ele><time>2026-05-03T09:28:59Z</time></trkpt><trkpt lat="42.00287425496852" lon="-3.2959017742542054"><ele>949.0</ele><time>2026-05-03T09:29:00Z</time></trkpt><trkpt lat="42.00277626717323" lon="-3.295839249858023"><ele>949.0000000000001</ele><time>2026-05-03T09:29:01Z</time></trkpt><trkpt lat="42.002680943731676" lon="-3.295781589007392"><ele>949.0000000000001</ele><time>2026-05-03T09:29:02Z</time></trkpt><trkpt lat="42.00258243381501" lon="-3.2957232812211523"><ele>949.0</ele><time>2026-05-03T09:29:03Z</time></trkpt><trkpt lat="42.002483882833126" lon="-3.295667145372906"><ele>949.0</ele><time>2026-05-03T09:29:04Z</time></trkpt><trkpt lat="42.00238301245119" lon="-3.2956071231445567"><ele>949.8000000000001</ele><time>2026-05-03T09:29:05Z</time></trkpt><trkpt lat="42.00228887269759" lon="-3.2955509910192666"><ele>950.6000000000001</ele><time>2026-05-03T09:29:06Z</time></trkpt><trkpt lat="42.002188725501455" lon="-3.2954912650421138"><ele>951.4</ele><time>2026-05-03T09:29:07Z</time></trkpt><trkpt lat="42.002089613693045" lon="-3.295435018664338"><ele>952.2</ele><time>2026-05-03T09:29:08Z</time></trkpt><trkpt lat="42.00198985057267" lon="-3.2953777851937094"><ele>953.0</ele><time>2026-05-03T09:29:09Z</time></trkpt><trkpt lat="42.00189292180903" lon="-3.2953223854332845"><ele>953.0</ele><time>2026-05-03T09:29:10Z</time></trkpt><trkpt lat="42.001795169055974" lon="-3.2952669514348356"><ele>953.0</ele><time>2026-05-03T09:29:11Z</time></trkpt><trkpt lat="42.00169738064308" lon="-3.2952165137158267"><ele>953.0</ele><time>2026-05-03T09:29:12Z</time></trkpt><trkpt lat="42.00159512230366" lon="-3.2951637508914917"><ele>953.0</ele><time>2026-05-03T09:29:13Z</time></trkpt><trkpt lat="42.0014962257592" lon="-3.295113798481594"><ele>953.0</ele><time>2026-05-03T09:29:14Z</time></trkpt><trkpt lat="42.00139554177346" lon="-3.295062544354915"><ele>953.2</ele><time>2026-05-03T09:29:15Z</time></trkpt><trkpt lat="42.00129618583237" lon="-3.2950145178267403"><ele>953.4</ele><time>2026-05-03T09:29:16Z</time></trkpt><trkpt lat="42.0011953516297" lon="-3.2949620498259553"><ele>953.6000000000001</ele><time>2026-05-03T09:29:17Z</time></trkpt><trkpt lat="42.00109327540999" lon="-3.294910968844478"><ele>953.8000000000001</ele><time>2026-05-03T09:29:18Z</time></trkpt><trkpt lat="42.000989808406416" lon="-3.294862523761552"><ele>954.0</ele><time>2026-05-03T09:29:19Z</time></trkpt><trkpt lat="42.000888371370586" lon="-3.2948148568178888"><ele>954.2</ele><time>2026-05-03T09:29:20Z</time></trkpt><trkpt lat="42.00078591859886" lon="-3.294771217323112"><ele>954.4000000000001</ele><time>2026-05-03T09:29:21Z</time></trkpt><trkpt lat="42.000683516524624" lon="-3.2947221382468057"><ele>954.6</ele><time>2026-05-03T09:29:22Z</time></trkpt><trkpt lat="42.00058122836743" lon="-3.2946774631507396"><ele>954.8</ele><time>2026-05-03T09:29:23Z</time></trkpt><trkpt lat="42.000476608106545" lon="-3.2946320598741488"><ele>955.0</ele><time>2026-05-03T09:29:24Z</time></trkpt><trkpt lat="42.000369652693614" lon="-3.294586018540022"><ele>955.0</ele><time>2026-05-03T09:29:25Z</time></trkpt><trkpt lat="42.00026539079431" lon="-3.2945433351739783"><ele>955.0</ele><time>2026-05-03T09:29:26Z</time></trkpt><trkpt lat="42.00015721651422" lon="-3.294501900352142"><ele>955.0</ele><time>2026-05-03T09:29:27Z</time></trkpt><trkpt lat="42.0000551214996" lon="-3.2944562864058247"><ele>955.0</ele><time>2026-05-03T09:29:28Z</time></trkpt><trkpt lat="41.999949463833254" lon="-3.2944161533635072"><ele>955.0</ele><time>2026-05-03T09:29:29Z</time></trkpt><trkpt lat="41.999837033916094" lon="-3.2943737023770465"><ele>955.0</ele><time>2026-05-03T09:29:30Z</time></trkpt><trkpt lat="41.99973857330687" lon="-3.294342308639374"><ele>955.0</ele><time>2026-05-03T09:29:31Z</time></trkpt><trkpt lat="41.999628845795094" lon="-3.294298988817304"><ele>955.0</ele><time>2026-05-03T09:29:32Z</time></trkpt><trkpt lat="41.999522092392" lon="-3.2942579321021324"><ele>955.0</ele><time>2026-05-03T09:29:33Z</time></trkpt><trkpt lat="41.99941575572638" lon="-3.294223269183801"><ele>955.0</ele><time>2026-05-03T09:29:34Z</time></trkpt><trkpt lat="41.99930935995692" lon="-3.294185624271558"><ele>955.0</ele><time>2026-05-03T09:29:35Z</time></trkpt><trkpt lat="41.99920366653909" lon="-3.2941534556776926"><ele>955.0</ele><time>2026-05-03T09:29:36Z</time></trkpt><trkpt lat="41.99909714125447" lon="-3.294117711976375"><ele>955.0</ele><time>2026-05-03T09:29:37Z</time></trkpt><trkpt lat="41.99899103797557" lon="-3.29408497530983"><ele>955.0</ele><time>2026-05-03T09:29:38Z</time></trkpt><trkpt lat="41.998884419469455" lon="-3.294053203306497"><ele>955.0</ele><time>2026-05-03T09:29:39Z</time></trkpt><trkpt lat="41.998778264563164" lon="-3.2940209233198576"><ele>955.0</ele><time>2026-05-03T09:29:40Z</time></trkpt><trkpt lat="41.99867424475099" lon="-3.2939938130677513"><ele>955.0</ele><time>2026-05-03T09:29:41Z</time></trkpt><trkpt lat="41.99856932024212" lon="-3.293963817456219"><ele>955.0</ele><time>2026-05-03T09:29:42Z</time></trkpt><trkpt lat="41.99846386351307" lon="-3.293935261441076"><ele>955.0</ele><time>2026-05-03T09:29:43Z</time></trkpt><trkpt lat="41.99835946996883" lon="-3.2939044836542655"><ele>955.0</ele><time>2026-05-03T09:29:44Z</time></trkpt><trkpt lat="41.998255071276915" lon="-3.2938801290950357"><ele>955.0</ele><time>2026-05-03T09:29:45Z</time></trkpt><trkpt lat="41.99815030480736" lon="-3.2938560423910945"><ele>955.0</ele><time>2026-05-03T09:29:46Z</time></trkpt><trkpt lat="41.998045535483506" lon="-3.2938293246977186"><ele>955.0</ele><time>2026-05-03T09:29:47Z</time></trkpt><trkpt lat="41.99794027740173" lon="-3.293801606225592"><ele>955.0</ele><time>2026-05-03T09:29:48Z</time></trkpt><trkpt lat="41.99783373199917" lon="-3.293778806718298"><ele>955.0</ele><time>2026-05-03T09:29:49Z</time></trkpt><trkpt lat="41.997728717731995" lon="-3.2937604398710074"><ele>955.0</ele><time>2026-05-03T09:29:50Z</time></trkpt><trkpt lat="41.997623179637465" lon="-3.2937390813726455"><ele>955.0</ele><time>2026-05-03T09:29:51Z</time></trkpt><trkpt lat="41.997517732456224" lon="-3.2937181449220985"><ele>955.0</ele><time>2026-05-03T09:29:52Z</time></trkpt><trkpt lat="41.99741022480909" lon="-3.2936966733474096"><ele>955.0</ele><time>2026-05-03T09:29:53Z</time></trkpt><trkpt lat="41.99730284902308" lon="-3.293677155290932"><ele>955.0</ele><time>2026-05-03T09:29:54Z</time></trkpt><trkpt lat="41.99719734351099" lon="-3.2936609018169163"><ele>955.8</ele><time>2026-05-03T09:29:55Z</time></trkpt><trkpt lat="41.99709317858462" lon="-3.293639739948632"><ele>956.6</ele><time>2026-05-03T09:29:56Z</time></trkpt><trkpt lat="41.996984862722684" lon="-3.2936241086666636"><ele>957.4000000000001</ele><time>2026-05-03T09:29:57.001Z</time></trkpt><trkpt lat="41.996876641325564" lon="-3.2936111449014995"><ele>958.2</ele><time>2026-05-03T09:29:58.001Z</time></trkpt><trkpt lat="41.99676969004144" lon="-3.2935932587325256"><ele>959.0</ele><time>2026-05-03T09:29:59.001Z</time></trkpt><trkpt lat="41.99666508168644" lon="-3.293579004729242"><ele>959.6</ele><time>2026-05-03T09:30:00.001Z</time></trkpt><trkpt lat="41.996558427301366" lon="-3.293565358574408"><ele>960.2</ele><time>2026-05-03T09:30:01.001Z</time></trkpt><trkpt lat="41.99644817264741" lon="-3.2935534674191693"><ele>960.8000000000001</ele><time>2026-05-03T09:30:02.001Z</time></trkpt><trkpt lat="41.99634315320442" lon="-3.293542521236638"><ele>961.4000000000001</ele><time>2026-05-03T09:30:03.001Z</time></trkpt><trkpt lat="41.99623621794419" lon="-3.2935321709015546"><ele>962.0</ele><time>2026-05-03T09:30:04.001Z</time></trkpt><trkpt lat="41.9961290544" lon="-3.29352310643048"><ele>962.0</ele><time>2026-05-03T09:30:05.001Z</time></trkpt><trkpt lat="41.99602004827811" lon="-3.2935163773701315"><ele>962.0</ele><time>2026-05-03T09:30:06.001Z</time></trkpt><trkpt lat="41.99591329866886" lon="-3.293507515661805"><ele>962.0</ele><time>2026-05-03T09:30:07.001Z</time></trkpt><trkpt lat="41.99580506532442" lon="-3.2935009105729898"><ele>962.0</ele><time>2026-05-03T09:30:08.001Z</time></trkpt><trkpt lat="41.995696832844054" lon="-3.293495657565173"><ele>962.0</ele><time>2026-05-03T09:30:09.001Z</time></trkpt><trkpt lat="41.99558993044231" lon="-3.2934884886338383"><ele>961.6</ele><time>2026-05-03T09:30:10.001Z</time></trkpt><trkpt lat="41.99548412598077" lon="-3.2934808686178743"><ele>961.2</ele><time>2026-05-03T09:30:11.001Z</time></trkpt><trkpt lat="41.995374254083536" lon="-3.2934755010597243"><ele>960.8</ele><time>2026-05-03T09:30:12.001Z</time></trkpt><trkpt lat="41.99526512741992" lon="-3.29347052514382"><ele>960.4</ele><time>2026-05-03T09:30:13.001Z</time></trkpt><trkpt lat="41.99515608056419" lon="-3.293464486405218"><ele>960.0</ele><time>2026-05-03T09:30:14.001Z</time></trkpt><trkpt lat="41.995048613017396" lon="-3.29345827402584"><ele>960.0</ele><time>2026-05-03T09:30:15.001Z</time></trkpt><trkpt lat="41.994942959457035" lon="-3.29345287237511"><ele>960.0</ele><time>2026-05-03T09:30:16.001Z</time></trkpt><trkpt lat="41.99483710625164" lon="-3.2934479933218923"><ele>960.0</ele><time>2026-05-03T09:30:17.001Z</time></trkpt><trkpt lat="41.99472987043769" lon="-3.293439836761642"><ele>960.0</ele><time>2026-05-03T09:30:18.001Z</time></trkpt><trkpt lat="41.99462202578571" lon="-3.2934318495408363"><ele>960.0</ele><time>2026-05-03T09:30:19.001Z</time></trkpt><trkpt lat="41.99451462166887" lon="-3.293424288094007"><ele>960.0</ele><time>2026-05-03T09:30:20.001Z</time></trkpt><trkpt lat="41.99440629696274" lon="-3.293418489839858"><ele>960.0</ele><time>2026-05-03T09:30:21.001Z</time></trkpt><trkpt lat="41.99429598697158" lon="-3.2934115557558976"><ele>960.0</ele><time>2026-05-03T09:30:22.001Z</time></trkpt><trkpt lat="41.994186493974745" lon="-3.293407308403547"><ele>960.0</ele><time>2026-05-03T09:30:23.001Z</time></trkpt><trkpt lat="41.99407835971576" lon="-3.2934013338025014"><ele>960.0</ele><time>2026-05-03T09:30:24.001Z</time></trkpt><trkpt lat="41.99396896520025" lon="-3.2933935879197667"><ele>960.0</ele><time>2026-05-03T09:30:25.001Z</time></trkpt><trkpt lat="41.99385837582842" lon="-3.293387193758213"><ele>960.0</ele><time>2026-05-03T09:30:26.001Z</time></trkpt><trkpt lat="41.99374774174239" lon="-3.2933833045476124"><ele>960.0</ele><time>2026-05-03T09:30:27.001Z</time></trkpt><trkpt lat="41.993638821680825" lon="-3.2933803191635445"><ele>960.0</ele><time>2026-05-03T09:30:28.001Z</time></trkpt><trkpt lat="41.99353185349713" lon="-3.293374339591964"><ele>960.0</ele><time>2026-05-03T09:30:29.001Z</time></trkpt><trkpt lat="41.99342510884561" lon="-3.2933649033907653"><ele>960.8</ele><time>2026-05-03T09:30:30.001Z</time></trkpt><trkpt lat="41.99331898422027" lon="-3.2933576568146323"><ele>961.6</ele><time>2026-05-03T09:30:31.001Z</time></trkpt><trkpt lat="41.99321008525376" lon="-3.2933501468345545"><ele>962.4000000000001</ele><time>2026-05-03T09:30:32.001Z</time></trkpt><trkpt lat="41.993099872342945" lon="-3.2933487273805357"><ele>963.2</ele><time>2026-05-03T09:30:33.001Z</time></trkpt><trkpt lat="41.99298674332688" lon="-3.2933331614302945"><ele>964.0</ele><time>2026-05-03T09:30:34.001Z</time></trkpt><trkpt lat="41.99286968899607" lon="-3.293312823638332"><ele>964.0</ele><time>2026-05-03T09:30:35Z</time></trkpt><trkpt lat="41.992774893823416" lon="-3.2933200573993564"><ele>964.0000000000001</ele><time>2026-05-03T09:30:36Z</time></trkpt><trkpt lat="41.99269684651765" lon="-3.2933137113190996"><ele>964.0000000000001</ele><time>2026-05-03T09:30:37Z</time></trkpt><trkpt lat="41.99260201070179" lon="-3.293306000157814"><ele>964.0</ele><time>2026-05-03T09:30:38Z</time></trkpt><trkpt lat="41.99247168599714" lon="-3.29328639905941"><ele>964.0</ele><time>2026-05-03T09:30:39Z</time></trkpt><trkpt lat="41.99242074356462" lon="-3.293352362429899"><ele>964.0</ele><time>2026-05-03T09:30:40Z</time></trkpt><trkpt lat="41.99242160419309" lon="-3.2935294455529234"><ele>964.0</ele><time>2026-05-03T09:30:41Z</time></trkpt><trkpt lat="41.99244632525118" lon="-3.2937606230472576"><ele>964.0</ele><time>2026-05-03T09:30:42Z</time></trkpt><trkpt lat="41.99199483610295" lon="-3.2932502010428517"><ele>964.0</ele><time>2026-05-03T09:30:43Z</time></trkpt><trkpt lat="41.99188623909823" lon="-3.293239355504695"><ele>964.0000000000001</ele><time>2026-05-03T09:30:44Z</time></trkpt><trkpt lat="41.99177818066381" lon="-3.2932253926579436"><ele>964.0000000000001</ele><time>2026-05-03T09:30:45Z</time></trkpt><trkpt lat="41.99166785686886" lon="-3.293211031942447"><ele>964.0</ele><time>2026-05-03T09:30:46Z</time></trkpt><trkpt lat="41.99156073987286" lon="-3.293198825826212"><ele>964.0</ele><time>2026-05-03T09:30:47Z</time></trkpt><trkpt lat="41.99144933284088" lon="-3.2931886541606255"><ele>963.6</ele><time>2026-05-03T09:30:48Z</time></trkpt><trkpt lat="41.99134171549091" lon="-3.293174938771307"><ele>963.2</ele><time>2026-05-03T09:30:49Z</time></trkpt><trkpt lat="41.99123025413975" lon="-3.2931609261749104"><ele>962.8000000000001</ele><time>2026-05-03T09:30:50Z</time></trkpt><trkpt lat="41.99111833338974" lon="-3.293148462388267"><ele>962.4000000000001</ele><time>2026-05-03T09:30:51Z</time></trkpt><trkpt lat="41.99100989234108" lon="-3.293131836879809"><ele>962.0</ele><time>2026-05-03T09:30:52Z</time></trkpt><trkpt lat="41.99089922541367" lon="-3.293119241867699"><ele>962.4000000000001</ele><time>2026-05-03T09:30:53Z</time></trkpt><trkpt lat="41.990788277928836" lon="-3.293104480549106"><ele>962.8000000000001</ele><time>2026-05-03T09:30:54Z</time></trkpt><trkpt lat="41.99067668619965" lon="-3.293092306932811"><ele>963.2</ele><time>2026-05-03T09:30:55Z</time></trkpt><trkpt lat="41.990566728094905" lon="-3.2930776008130036"><ele>963.6</ele><time>2026-05-03T09:30:56Z</time></trkpt><trkpt lat="41.99045526476379" lon="-3.2930613378840157"><ele>964.0</ele><time>2026-05-03T09:30:57Z</time></trkpt><trkpt lat="41.99034666726689" lon="-3.2930430285696617"><ele>964.4000000000001</ele><time>2026-05-03T09:30:58Z</time></trkpt><trkpt lat="41.99023123140236" lon="-3.293027514696489"><ele>964.8000000000001</ele><time>2026-05-03T09:30:59Z</time></trkpt><trkpt lat="41.990121795274526" lon="-3.293005536739564"><ele>965.1999999999999</ele><time>2026-05-03T09:31:00Z</time></trkpt><trkpt lat="41.99001346799259" lon="-3.292986550636547"><ele>965.5999999999999</ele><time>2026-05-03T09:31:01Z</time></trkpt><trkpt lat="41.9899062762318" lon="-3.2929689205643653"><ele>966.0</ele><time>2026-05-03T09:31:02Z</time></trkpt><trkpt lat="41.989798920458036" lon="-3.2929510428180566"><ele>966.5999999999999</ele><time>2026-05-03T09:31:03Z</time></trkpt><trkpt lat="41.98969182519537" lon="-3.2929327650968725"><ele>967.1999999999999</ele><time>2026-05-03T09:31:04Z</time></trkpt><trkpt lat="41.989584471442555" lon="-3.2929128861103885"><ele>967.8000000000001</ele><time>2026-05-03T09:31:05Z</time></trkpt><trkpt lat="41.98947698672939" lon="-3.2928909114881666"><ele>968.4000000000001</ele><time>2026-05-03T09:31:06Z</time></trkpt><trkpt lat="41.98936695857952" lon="-3.292882215290087"><ele>969.0</ele><time>2026-05-03T09:31:07Z</time></trkpt><trkpt lat="41.989261289820746" lon="-3.292856236268107"><ele>969.0</ele><time>2026-05-03T09:31:08Z</time></trkpt><trkpt lat="41.98915366024882" lon="-3.292837368826762"><ele>969.0000000000001</ele><time>2026-05-03T09:31:09Z</time></trkpt><trkpt lat="41.98904744191039" lon="-3.2928167863366933"><ele>969.0000000000001</ele><time>2026-05-03T09:31:10Z</time></trkpt><trkpt lat="41.988940630226274" lon="-3.292801358635547"><ele>969.0</ele><time>2026-05-03T09:31:11Z</time></trkpt><trkpt lat="41.98883589605311" lon="-3.292777727735534"><ele>969.0</ele><time>2026-05-03T09:31:12Z</time></trkpt><trkpt lat="41.98873202163063" lon="-3.2927604706407734"><ele>969.0</ele><time>2026-05-03T09:31:13Z</time></trkpt><trkpt lat="41.98862454500305" lon="-3.2927435026809695"><ele>969.0000000000001</ele><time>2026-05-03T09:31:14Z</time></trkpt><trkpt lat="41.98851937796388" lon="-3.292724674547503"><ele>969.0000000000001</ele><time>2026-05-03T09:31:15Z</time></trkpt><trkpt lat="41.98841075790041" lon="-3.2927027996260874"><ele>969.0</ele><time>2026-05-03T09:31:16Z</time></trkpt><trkpt lat="41.98830301128187" lon="-3.292686135194101"><ele>969.0</ele><time>2026-05-03T09:31:17Z</time></trkpt><trkpt lat="41.98819601191439" lon="-3.292672509177178"><ele>969.0</ele><time>2026-05-03T09:31:18Z</time></trkpt><trkpt lat="41.98808836609991" lon="-3.292657985671929"><ele>969.0000000000001</ele><time>2026-05-03T09:31:19Z</time></trkpt><trkpt lat="41.98798098017573" lon="-3.292640167524551"><ele>969.0000000000001</ele><time>2026-05-03T09:31:20Z</time></trkpt><trkpt lat="41.98787355627946" lon="-3.2926261771765843"><ele>969.0</ele><time>2026-05-03T09:31:21Z</time></trkpt><trkpt lat="41.98776897167144" lon="-3.2926161188527994"><ele>969.0</ele><time>2026-05-03T09:31:22Z</time></trkpt><trkpt lat="41.98766348992574" lon="-3.292605486480332"><ele>969.0</ele><time>2026-05-03T09:31:23Z</time></trkpt><trkpt lat="41.98755794328383" lon="-3.2925932698324116"><ele>969.0000000000001</ele><time>2026-05-03T09:31:24Z</time></trkpt><trkpt lat="41.98745398737815" lon="-3.2925824390495833"><ele>969.0000000000001</ele><time>2026-05-03T09:31:25Z</time></trkpt><trkpt lat="41.98734924652306" lon="-3.2925709491199884"><ele>969.0</ele><time>2026-05-03T09:31:26Z</time></trkpt><trkpt lat="41.987244119197626" lon="-3.2925605580203263"><ele>969.0</ele><time>2026-05-03T09:31:27Z</time></trkpt><trkpt lat="41.9871400813808" lon="-3.2925561162574155"><ele>969.6</ele><time>2026-05-03T09:31:28Z</time></trkpt><trkpt lat="41.987034425147314" lon="-3.292551261082957"><ele>970.2</ele><time>2026-05-03T09:31:29Z</time></trkpt><trkpt lat="41.98693039588037" lon="-3.2925449478049575"><ele>970.8000000000001</ele><time>2026-05-03T09:31:30Z</time></trkpt><trkpt lat="41.98682486140555" lon="-3.292536912629926"><ele>971.4000000000001</ele><time>2026-05-03T09:31:31Z</time></trkpt><trkpt lat="41.986719362656764" lon="-3.292529824347278"><ele>972.0</ele><time>2026-05-03T09:31:32Z</time></trkpt><trkpt lat="41.9866186308757" lon="-3.2925286477010482"><ele>972.2</ele><time>2026-05-03T09:31:33Z</time></trkpt><trkpt lat="41.98651379911847" lon="-3.2925246873486014"><ele>972.4000000000001</ele><time>2026-05-03T09:31:34Z</time></trkpt><trkpt lat="41.986411604677535" lon="-3.29252151368332"><ele>972.5999999999999</ele><time>2026-05-03T09:31:35Z</time></trkpt><trkpt lat="41.986310028697595" lon="-3.2925219961253247"><ele>972.8</ele><time>2026-05-03T09:31:36Z</time></trkpt><trkpt lat="41.98620694520032" lon="-3.2925204562486843"><ele>973.0</ele><time>2026-05-03T09:31:37Z</time></trkpt><trkpt lat="41.986106510320205" lon="-3.292521846379574"><ele>973.0</ele><time>2026-05-03T09:31:38Z</time></trkpt><trkpt lat="41.98600157576903" lon="-3.2925255501461343"><ele>973.0</ele><time>2026-05-03T09:31:39Z</time></trkpt><trkpt lat="41.985894742665835" lon="-3.2925271397274156"><ele>973.0</ele><time>2026-05-03T09:31:40Z</time></trkpt><trkpt lat="41.98578933016987" lon="-3.29252866452324"><ele>973.0</ele><time>2026-05-03T09:31:41Z</time></trkpt><trkpt lat="41.98568283859582" lon="-3.29252969545138"><ele>973.0</ele><time>2026-05-03T09:31:42Z</time></trkpt><trkpt lat="41.98557333036764" lon="-3.292530119273136"><ele>973.2</ele><time>2026-05-03T09:31:43Z</time></trkpt><trkpt lat="41.98546686987932" lon="-3.292535286424952"><ele>973.4</ele><time>2026-05-03T09:31:44Z</time></trkpt><trkpt lat="41.98536068016712" lon="-3.2925348463043638"><ele>973.6000000000001</ele><time>2026-05-03T09:31:45.001Z</time></trkpt><trkpt lat="41.98525248888297" lon="-3.29253538645046"><ele>973.8000000000001</ele><time>2026-05-03T09:31:46.001Z</time></trkpt><trkpt lat="41.9851405813044" lon="-3.2925361636918273"><ele>974.0</ele><time>2026-05-03T09:31:47.001Z</time></trkpt><trkpt lat="41.98503035213176" lon="-3.2925364597666458"><ele>974.2</ele><time>2026-05-03T09:31:48.001Z</time></trkpt><trkpt lat="41.98492249034179" lon="-3.292540401206418"><ele>974.4000000000001</ele><time>2026-05-03T09:31:49.001Z</time></trkpt><trkpt lat="41.98481588376617" lon="-3.2925400928785225"><ele>974.6</ele><time>2026-05-03T09:31:50.001Z</time></trkpt><trkpt lat="41.98470845971964" lon="-3.2925429236456183"><ele>974.8</ele><time>2026-05-03T09:31:51.001Z</time></trkpt><trkpt lat="41.984601467050936" lon="-3.2925434502674054"><ele>975.0</ele><time>2026-05-03T09:31:52.001Z</time></trkpt><trkpt lat="41.984495204915355" lon="-3.2925445932146773"><ele>975.0</ele><time>2026-05-03T09:31:53.001Z</time></trkpt><trkpt lat="41.98438853555421" lon="-3.2925468561599684"><ele>975.0</ele><time>2026-05-03T09:31:54.001Z</time></trkpt><trkpt lat="41.98427885546236" lon="-3.2925446160509764"><ele>975.0</ele><time>2026-05-03T09:31:55.001Z</time></trkpt><trkpt lat="41.98417284945275" lon="-3.292545772846669"><ele>975.0</ele><time>2026-05-03T09:31:56.001Z</time></trkpt><trkpt lat="41.98406687024288" lon="-3.292551471392577"><ele>975.0</ele><time>2026-05-03T09:31:57.001Z</time></trkpt><trkpt lat="41.98395801457077" lon="-3.2925537965628036"><ele>974.8</ele><time>2026-05-03T09:31:58.001Z</time></trkpt><trkpt lat="41.98385320008583" lon="-3.292561148098848"><ele>974.6</ele><time>2026-05-03T09:31:59.001Z</time></trkpt><trkpt lat="41.98374732598287" lon="-3.2925700158357993"><ele>974.4000000000001</ele><time>2026-05-03T09:32:00.001Z</time></trkpt><trkpt lat="41.983641434357295" lon="-3.2925815405013212"><ele>974.2</ele><time>2026-05-03T09:32:01.001Z</time></trkpt><trkpt lat="41.983534148699185" lon="-3.2925922057654877"><ele>974.0</ele><time>2026-05-03T09:32:02.001Z</time></trkpt><trkpt lat="41.98342672017379" lon="-3.2926082277042994"><ele>973.8000000000001</ele><time>2026-05-03T09:32:03.001Z</time></trkpt><trkpt lat="41.983318750206145" lon="-3.2926282137252803"><ele>973.6000000000001</ele><time>2026-05-03T09:32:04.001Z</time></trkpt><trkpt lat="41.98321169522799" lon="-3.292650352155748"><ele>973.4</ele><time>2026-05-03T09:32:05.001Z</time></trkpt><trkpt lat="41.98310699212747" lon="-3.2926801747933694"><ele>973.2</ele><time>2026-05-03T09:32:06.001Z</time></trkpt><trkpt lat="41.98300301554112" lon="-3.2927092205482515"><ele>973.0</ele><time>2026-05-03T09:32:07.001Z</time></trkpt><trkpt lat="41.982898939703155" lon="-3.292741277865849"><ele>973.0</ele><time>2026-05-03T09:32:08.001Z</time></trkpt><trkpt lat="41.982795083631295" lon="-3.2927727343911477"><ele>973.0</ele><time>2026-05-03T09:32:09.001Z</time></trkpt><trkpt lat="41.98269089380608" lon="-3.2928099551222116"><ele>973.0</ele><time>2026-05-03T09:32:10.001Z</time></trkpt><trkpt lat="41.98258572219806" lon="-3.2928476600094077"><ele>973.0</ele><time>2026-05-03T09:32:11.001Z</time></trkpt><trkpt lat="41.98248069253286" lon="-3.2928867042104657"><ele>973.0</ele><time>2026-05-03T09:32:12.001Z</time></trkpt><trkpt lat="41.98237686598416" lon="-3.292927510504273"><ele>973.0</ele><time>2026-05-03T09:32:13.001Z</time></trkpt><trkpt lat="41.9822725385288" lon="-3.292967160571651"><ele>973.0</ele><time>2026-05-03T09:32:14.001Z</time></trkpt><trkpt lat="41.98216937485631" lon="-3.2930076608816554"><ele>973.0</ele><time>2026-05-03T09:32:15.001Z</time></trkpt><trkpt lat="41.98206558734161" lon="-3.293050226027454"><ele>973.0</ele><time>2026-05-03T09:32:16.001Z</time></trkpt><trkpt lat="41.981961586962946" lon="-3.2930883238734445"><ele>973.0</ele><time>2026-05-03T09:32:17.001Z</time></trkpt><trkpt lat="41.9818593726838" lon="-3.293126471831415"><ele>972.8</ele><time>2026-05-03T09:32:18.001Z</time></trkpt><trkpt lat="41.98175240236584" lon="-3.2931672167928103"><ele>972.5999999999999</ele><time>2026-05-03T09:32:19.001Z</time></trkpt><trkpt lat="41.98164968147504" lon="-3.2932093185251956"><ele>972.4000000000001</ele><time>2026-05-03T09:32:20.001Z</time></trkpt><trkpt lat="41.9815452467312" lon="-3.293248666789395"><ele>972.2</ele><time>2026-05-03T09:32:21.001Z</time></trkpt><trkpt lat="41.981440604395125" lon="-3.29328835216214"><ele>972.0</ele><time>2026-05-03T09:32:22.001Z</time></trkpt><trkpt lat="41.98133695318056" lon="-3.293326177578449"><ele>972.0</ele><time>2026-05-03T09:32:23.001Z</time></trkpt><trkpt lat="41.981235847054165" lon="-3.293362974077289"><ele>972.0</ele><time>2026-05-03T09:32:24.001Z</time></trkpt><trkpt lat="41.981134489409634" lon="-3.2934007581138594"><ele>972.0</ele><time>2026-05-03T09:32:25.001Z</time></trkpt><trkpt lat="41.98103490678183" lon="-3.2934391859209344"><ele>972.0</ele><time>2026-05-03T09:32:26.001Z</time></trkpt><trkpt lat="41.98093415076875" lon="-3.2934774191735787"><ele>972.0</ele><time>2026-05-03T09:32:27.001Z</time></trkpt><trkpt lat="41.980835179420914" lon="-3.2935136265669933"><ele>972.6</ele><time>2026-05-03T09:32:28.001Z</time></trkpt><trkpt lat="41.98073596548627" lon="-3.2935503337116527"><ele>973.2</ele><time>2026-05-03T09:32:29.001Z</time></trkpt><trkpt lat="41.980639566389776" lon="-3.293591595916848"><ele>973.8</ele><time>2026-05-03T09:32:30.001Z</time></trkpt><trkpt lat="41.98054037089267" lon="-3.29362714966537"><ele>974.4</ele><time>2026-05-03T09:32:31.001Z</time></trkpt><trkpt lat="41.98043900657293" lon="-3.293664225547682"><ele>975.0</ele><time>2026-05-03T09:32:32.001Z</time></trkpt><trkpt lat="41.98034202430497" lon="-3.293701986446069"><ele>975.0</ele><time>2026-05-03T09:32:33.001Z</time></trkpt><trkpt lat="41.98024199583604" lon="-3.2937389793211826"><ele>975.0</ele><time>2026-05-03T09:32:34.001Z</time></trkpt><trkpt lat="41.98014155369964" lon="-3.293775660466098"><ele>975.0</ele><time>2026-05-03T09:32:35.001Z</time></trkpt><trkpt lat="41.9800432744608" lon="-3.2938147118254872"><ele>975.0</ele><time>2026-05-03T09:32:36.001Z</time></trkpt><trkpt lat="41.979943164504505" lon="-3.2938533013391953"><ele>975.0</ele><time>2026-05-03T09:32:37.001Z</time></trkpt><trkpt lat="41.97984309480213" lon="-3.2938910910801247"><ele>975.4</ele><time>2026-05-03T09:32:38.001Z</time></trkpt><trkpt lat="41.97974286268894" lon="-3.293929017260281"><ele>975.8</ele><time>2026-05-03T09:32:39.001Z</time></trkpt><trkpt lat="41.97964418761997" lon="-3.293966497666735"><ele>976.2</ele><time>2026-05-03T09:32:40.001Z</time></trkpt><trkpt lat="41.9795461305434" lon="-3.29400476469398"><ele>976.6</ele><time>2026-05-03T09:32:41Z</time></trkpt><trkpt lat="41.97944652178101" lon="-3.294040752995491"><ele>977.0</ele><time>2026-05-03T09:32:42Z</time></trkpt><trkpt lat="41.97934758242156" lon="-3.294079393111658"><ele>977.0</ele><time>2026-05-03T09:32:43Z</time></trkpt><trkpt lat="41.97924963379282" lon="-3.294113872724203"><ele>977.0</ele><time>2026-05-03T09:32:44Z</time></trkpt><trkpt lat="41.97915124268352" lon="-3.294152644718259"><ele>977.0</ele><time>2026-05-03T09:32:45Z</time></trkpt><trkpt lat="41.979052297721914" lon="-3.294187546489768"><ele>977.0</ele><time>2026-05-03T09:32:46Z</time></trkpt><trkpt lat="41.97895313909477" lon="-3.2942224624936105"><ele>977.0</ele><time>2026-05-03T09:32:47Z</time></trkpt><trkpt lat="41.97885767056714" lon="-3.294260209067505"><ele>976.4000000000001</ele><time>2026-05-03T09:32:48Z</time></trkpt><trkpt lat="41.97876225118906" lon="-3.294298211683283"><ele>975.8000000000001</ele><time>2026-05-03T09:32:49Z</time></trkpt><trkpt lat="41.97866330197781" lon="-3.294338057564238"><ele>975.2</ele><time>2026-05-03T09:32:50Z</time></trkpt><trkpt lat="41.978567340938106" lon="-3.2943752917757645"><ele>974.6</ele><time>2026-05-03T09:32:51Z</time></trkpt><trkpt lat="41.97847309875315" lon="-3.294416291229498"><ele>974.0</ele><time>2026-05-03T09:32:52Z</time></trkpt><trkpt lat="41.97837644379397" lon="-3.294455070246982"><ele>976.8000000000001</ele><time>2026-05-03T09:32:53Z</time></trkpt><trkpt lat="41.97828188839506" lon="-3.2944956042123685"><ele>979.6000000000001</ele><time>2026-05-03T09:32:54Z</time></trkpt><trkpt lat="41.97818970199054" lon="-3.2945400186284015"><ele>982.4</ele><time>2026-05-03T09:32:55Z</time></trkpt><trkpt lat="41.97809372725685" lon="-3.2945809650608364"><ele>985.2</ele><time>2026-05-03T09:32:56Z</time></trkpt><trkpt lat="41.97800445523293" lon="-3.294627457768558"><ele>988.0</ele><time>2026-05-03T09:32:57Z</time></trkpt><trkpt lat="41.977912076056484" lon="-3.2946693362679227"><ele>988.0</ele><time>2026-05-03T09:32:58Z</time></trkpt><trkpt lat="41.97781769745247" lon="-3.2947126948095704"><ele>988.0</ele><time>2026-05-03T09:32:59Z</time></trkpt><trkpt lat="41.977725160830744" lon="-3.2947565575184963"><ele>988.0</ele><time>2026-05-03T09:33:00Z</time></trkpt><trkpt lat="41.977633134220746" lon="-3.2948061114228353"><ele>988.0</ele><time>2026-05-03T09:33:01Z</time></trkpt><trkpt lat="41.977540959590854" lon="-3.2948574321418262"><ele>988.0</ele><time>2026-05-03T09:33:02Z</time></trkpt><trkpt lat="41.977447116100045" lon="-3.2949103971451263"><ele>987.8</ele><time>2026-05-03T09:33:03Z</time></trkpt><trkpt lat="41.9773493666241" lon="-3.294963240592636"><ele>987.5999999999999</ele><time>2026-05-03T09:33:04Z</time></trkpt><trkpt lat="41.977252986948486" lon="-3.2950173154321036"><ele>987.4000000000001</ele><time>2026-05-03T09:33:05Z</time></trkpt><trkpt lat="41.977156723528836" lon="-3.2950724827560833"><ele>987.2</ele><time>2026-05-03T09:33:06Z</time></trkpt><trkpt lat="41.97706065253099" lon="-3.295127972803361"><ele>987.0</ele><time>2026-05-03T09:33:07Z</time></trkpt><trkpt lat="41.97696065254057" lon="-3.295184245869894"><ele>987.0</ele><time>2026-05-03T09:33:08Z</time></trkpt><trkpt lat="41.97686168030457" lon="-3.2952441177455682"><ele>987.0</ele><time>2026-05-03T09:33:09Z</time></trkpt><trkpt lat="41.97676421012274" lon="-3.2953075368105678"><ele>987.0</ele><time>2026-05-03T09:33:10Z</time></trkpt><trkpt lat="41.9766679901589" lon="-3.2953715178389733"><ele>987.0</ele><time>2026-05-03T09:33:11Z</time></trkpt><trkpt lat="41.97656889826403" lon="-3.2954359222201095"><ele>987.0</ele><time>2026-05-03T09:33:12Z</time></trkpt><trkpt lat="41.976471160325225" lon="-3.2954991488318996"><ele>987.0</ele><time>2026-05-03T09:33:13Z</time></trkpt><trkpt lat="41.976371927849755" lon="-3.2955591246438716"><ele>987.0</ele><time>2026-05-03T09:33:14Z</time></trkpt><trkpt lat="41.97627095736614" lon="-3.2956193996229954"><ele>987.0</ele><time>2026-05-03T09:33:15Z</time></trkpt><trkpt lat="41.97616899917975" lon="-3.2956741447282547"><ele>987.0</ele><time>2026-05-03T09:33:16Z</time></trkpt><trkpt lat="41.976071206903185" lon="-3.295725985578776"><ele>987.0</ele><time>2026-05-03T09:33:17Z</time></trkpt><trkpt lat="41.975969866202014" lon="-3.2957731370130436"><ele>987.0</ele><time>2026-05-03T09:33:18Z</time></trkpt><trkpt lat="41.9758751676215" lon="-3.2958256633467706"><ele>987.0</ele><time>2026-05-03T09:33:19Z</time></trkpt><trkpt lat="41.97577634620985" lon="-3.295874424240788"><ele>987.0</ele><time>2026-05-03T09:33:20Z</time></trkpt><trkpt lat="41.975679281350764" lon="-3.2959217301275108"><ele>987.0</ele><time>2026-05-03T09:33:21Z</time></trkpt><trkpt lat="41.97558376305385" lon="-3.295967160972696"><ele>987.0</ele><time>2026-05-03T09:33:22Z</time></trkpt><trkpt lat="41.975489435867445" lon="-3.29600985532019"><ele>987.0</ele><time>2026-05-03T09:33:23Z</time></trkpt><trkpt lat="41.975392726795505" lon="-3.296048191832587"><ele>987.0</ele><time>2026-05-03T09:33:24Z</time></trkpt><trkpt lat="41.97529577179184" lon="-3.296085745278569"><ele>987.0</ele><time>2026-05-03T09:33:25Z</time></trkpt><trkpt lat="41.97519569474005" lon="-3.2961245591122412"><ele>987.0</ele><time>2026-05-03T09:33:26Z</time></trkpt><trkpt lat="41.97510194790889" lon="-3.2961560360265953"><ele>987.0</ele><time>2026-05-03T09:33:27Z</time></trkpt><trkpt lat="41.97500880643065" lon="-3.2961988178386235"><ele>987.0</ele><time>2026-05-03T09:33:28Z</time></trkpt><trkpt lat="41.97491550707936" lon="-3.2962320363087265"><ele>987.0</ele><time>2026-05-03T09:33:29Z</time></trkpt><trkpt lat="41.974821111885646" lon="-3.2962568632671805"><ele>987.0</ele><time>2026-05-03T09:33:30Z</time></trkpt><trkpt lat="41.97472924409179" lon="-3.2962920703507277"><ele>987.0</ele><time>2026-05-03T09:33:31Z</time></trkpt><trkpt lat="41.97463394338307" lon="-3.2963155066828262"><ele>987.0</ele><time>2026-05-03T09:33:32Z</time></trkpt><trkpt lat="41.9745377069842" lon="-3.296340905625439"><ele>987.0</ele><time>2026-05-03T09:33:33Z</time></trkpt><trkpt lat="41.97444111911518" lon="-3.2963653013433003"><ele>987.0</ele><time>2026-05-03T09:33:34Z</time></trkpt><trkpt lat="41.97434154402397" lon="-3.296390180061302"><ele>987.0</ele><time>2026-05-03T09:33:35Z</time></trkpt><trkpt lat="41.974245102789794" lon="-3.2964128803685706"><ele>987.0</ele><time>2026-05-03T09:33:36Z</time></trkpt><trkpt lat="41.974150170302515" lon="-3.2964413831148907"><ele>987.0</ele><time>2026-05-03T09:33:37Z</time></trkpt><trkpt lat="41.97404491893799" lon="-3.296459425138641"><ele>988.6</ele><time>2026-05-03T09:33:38Z</time></trkpt><trkpt lat="41.97395021367021" lon="-3.2964781613395964"><ele>990.2</ele><time>2026-05-03T09:33:39Z</time></trkpt><trkpt lat="41.973843963490765" lon="-3.296493651487616"><ele>991.8</ele><time>2026-05-03T09:33:40Z</time></trkpt><trkpt lat="41.973739400792596" lon="-3.296511056696758"><ele>993.4</ele><time>2026-05-03T09:33:41Z</time></trkpt><trkpt lat="41.97363374235405" lon="-3.2965248965426874"><ele>995.0</ele><time>2026-05-03T09:33:42Z</time></trkpt><trkpt lat="41.97352947376388" lon="-3.296539021216972"><ele>995.0</ele><time>2026-05-03T09:33:43Z</time></trkpt><trkpt lat="41.973420752027124" lon="-3.296551247614132"><ele>995.0</ele><time>2026-05-03T09:33:44Z</time></trkpt><trkpt lat="41.97331329049348" lon="-3.2965615822626178"><ele>995.0</ele><time>2026-05-03T09:33:45Z</time></trkpt><trkpt lat="41.973206717343686" lon="-3.296574314625754"><ele>995.0</ele><time>2026-05-03T09:33:46Z</time></trkpt><trkpt lat="41.9730965687918" lon="-3.2965824697762076"><ele>995.0</ele><time>2026-05-03T09:33:47Z</time></trkpt><trkpt lat="41.97298825919448" lon="-3.2965849575375814"><ele>995.0</ele><time>2026-05-03T09:33:48Z</time></trkpt><trkpt lat="41.97288441826799" lon="-3.296592653135802"><ele>995.0</ele><time>2026-05-03T09:33:49Z</time></trkpt><trkpt lat="41.97277464580975" lon="-3.2965940733567485"><ele>995.0</ele><time>2026-05-03T09:33:50Z</time></trkpt><trkpt lat="41.972666291611226" lon="-3.296593481986627"><ele>995.0</ele><time>2026-05-03T09:33:51Z</time></trkpt><trkpt lat="41.97255495995258" lon="-3.296591054375243"><ele>995.0</ele><time>2026-05-03T09:33:52Z</time></trkpt><trkpt lat="41.972447743018805" lon="-3.2965865371525385"><ele>994.4</ele><time>2026-05-03T09:33:53Z</time></trkpt><trkpt lat="41.97233486946241" lon="-3.2965811718242946"><ele>993.8</ele><time>2026-05-03T09:33:54Z</time></trkpt><trkpt lat="41.9722259055957" lon="-3.2965778919991466"><ele>993.2</ele><time>2026-05-03T09:33:55Z</time></trkpt><trkpt lat="41.97211570498441" lon="-3.2965692982237162"><ele>992.6</ele><time>2026-05-03T09:33:56.001Z</time></trkpt><trkpt lat="41.97200938800372" lon="-3.2965561480905405"><ele>992.0</ele><time>2026-05-03T09:33:57.001Z</time></trkpt><trkpt lat="41.9718950345422" lon="-3.296549865715237"><ele>992.0</ele><time>2026-05-03T09:33:58.001Z</time></trkpt><trkpt lat="41.971785813097355" lon="-3.2965339291635294"><ele>992.0</ele><time>2026-05-03T09:33:59.001Z</time></trkpt><trkpt lat="41.97167787647294" lon="-3.2965217541468355"><ele>992.0</ele><time>2026-05-03T09:34:00.001Z</time></trkpt><trkpt lat="41.971573162289786" lon="-3.2965077963027953"><ele>992.0</ele><time>2026-05-03T09:34:01.001Z</time></trkpt><trkpt lat="41.9714661524535" lon="-3.2964911707164077"><ele>992.0</ele><time>2026-05-03T09:34:02.001Z</time></trkpt><trkpt lat="41.97135931349411" lon="-3.29647858432555"><ele>992.0</ele><time>2026-05-03T09:34:03.001Z</time></trkpt><trkpt lat="41.97125414400678" lon="-3.296464936728414"><ele>992.0</ele><time>2026-05-03T09:34:04.001Z</time></trkpt><trkpt lat="41.971150844443905" lon="-3.2964477768455964"><ele>992.0</ele><time>2026-05-03T09:34:05.001Z</time></trkpt><trkpt lat="41.97104444809883" lon="-3.2964261065718232"><ele>992.0</ele><time>2026-05-03T09:34:06.001Z</time></trkpt><trkpt lat="41.97094069936232" lon="-3.296407219364892"><ele>992.0</ele><time>2026-05-03T09:34:07.001Z</time></trkpt><trkpt lat="41.97083676969939" lon="-3.296382450603344"><ele>992.8</ele><time>2026-05-03T09:34:08.001Z</time></trkpt><trkpt lat="41.97073297655905" lon="-3.2963567221591594"><ele>993.6</ele><time>2026-05-03T09:34:09.001Z</time></trkpt><trkpt lat="41.97062953848038" lon="-3.296329757267067"><ele>994.3999999999999</ele><time>2026-05-03T09:34:10.001Z</time></trkpt><trkpt lat="41.97052771149454" lon="-3.2963019031977083"><ele>995.1999999999999</ele><time>2026-05-03T09:34:11.001Z</time></trkpt><trkpt lat="41.97042378705342" lon="-3.2962745997319214"><ele>996.0</ele><time>2026-05-03T09:34:12.001Z</time></trkpt><trkpt lat="41.970321769484684" lon="-3.2962468526817355"><ele>996.0</ele><time>2026-05-03T09:34:13.001Z</time></trkpt><trkpt lat="41.97022245388184" lon="-3.2962188490428583"><ele>995.9999999999999</ele><time>2026-05-03T09:34:14.001Z</time></trkpt><trkpt lat="41.97011880640519" lon="-3.296180870396505"><ele>995.9999999999999</ele><time>2026-05-03T09:34:15.001Z</time></trkpt><trkpt lat="41.97001676211822" lon="-3.2961444381601"><ele>996.0</ele><time>2026-05-03T09:34:16.001Z</time></trkpt><trkpt lat="41.969916797677904" lon="-3.296108585279684"><ele>996.0</ele><time>2026-05-03T09:34:17.001Z</time></trkpt><trkpt lat="41.969817293071486" lon="-3.2960715816773822"><ele>997.0</ele><time>2026-05-03T09:34:18.001Z</time></trkpt><trkpt lat="41.969716787288206" lon="-3.29603343813825"><ele>997.9999999999999</ele><time>2026-05-03T09:34:19.001Z</time></trkpt><trkpt lat="41.96961407822031" lon="-3.29599051769864"><ele>998.9999999999999</ele><time>2026-05-03T09:34:20.001Z</time></trkpt><trkpt lat="41.969512991887456" lon="-3.295949806528728"><ele>1000.0</ele><time>2026-05-03T09:34:21.001Z</time></trkpt><trkpt lat="41.96941196435544" lon="-3.295901976694152"><ele>1001.0</ele><time>2026-05-03T09:34:22.001Z</time></trkpt><trkpt lat="41.969311911364485" lon="-3.295851790467602"><ele>1001.0</ele><time>2026-05-03T09:34:23.001Z</time></trkpt><trkpt lat="41.96920953384954" lon="-3.295801837239229"><ele>1000.9999999999999</ele><time>2026-05-03T09:34:24.001Z</time></trkpt><trkpt lat="41.969108523166064" lon="-3.2957491002986354"><ele>1000.9999999999999</ele><time>2026-05-03T09:34:25.001Z</time></trkpt><trkpt lat="41.96900606510089" lon="-3.2956957182727207"><ele>1001.0</ele><time>2026-05-03T09:34:26.001Z</time></trkpt><trkpt lat="41.968898461349106" lon="-3.2956409272701013"><ele>1001.0</ele><time>2026-05-03T09:34:27.001Z</time></trkpt><trkpt lat="41.96880172294878" lon="-3.2955946367256383"><ele>1000.5</ele><time>2026-05-03T09:34:28.001Z</time></trkpt><trkpt lat="41.96869975728689" lon="-3.2955208303841648"><ele>1000.0</ele><time>2026-05-03T09:34:29.001Z</time></trkpt><trkpt lat="41.968591506421824" lon="-3.295464621865702"><ele>999.5</ele><time>2026-05-03T09:34:30.001Z</time></trkpt><trkpt lat="41.968488157542446" lon="-3.295405591652483"><ele>999.0</ele><time>2026-05-03T09:34:31.001Z</time></trkpt><trkpt lat="41.96838754948407" lon="-3.295348493157662"><ele>999.0</ele><time>2026-05-03T09:34:32.001Z</time></trkpt><trkpt lat="41.968285825153" lon="-3.2952930117543047"><ele>999.0000000000001</ele><time>2026-05-03T09:34:33.001Z</time></trkpt><trkpt lat="41.96818371919595" lon="-3.2952312789184397"><ele>999.0000000000001</ele><time>2026-05-03T09:34:34.001Z</time></trkpt><trkpt lat="41.96808053566032" lon="-3.295175262594969"><ele>999.0</ele><time>2026-05-03T09:34:35.001Z</time></trkpt><trkpt lat="41.96797548703045" lon="-3.2951214618713505"><ele>999.0</ele><time>2026-05-03T09:34:36.001Z</time></trkpt><trkpt lat="41.96787673634323" lon="-3.29506499489895"><ele>999.0</ele><time>2026-05-03T09:34:37.001Z</time></trkpt><trkpt lat="41.96777494164543" lon="-3.2950076641445563"><ele>999.0000000000001</ele><time>2026-05-03T09:34:38.001Z</time></trkpt><trkpt lat="41.96767575818778" lon="-3.294951750107955"><ele>999.0000000000001</ele><time>2026-05-03T09:34:39.001Z</time></trkpt><trkpt lat="41.96757694461467" lon="-3.294898675877576"><ele>999.0</ele><time>2026-05-03T09:34:40.001Z</time></trkpt><trkpt lat="41.96747571461267" lon="-3.2948414546347418"><ele>999.0</ele><time>2026-05-03T09:34:41.001Z</time></trkpt><trkpt lat="41.96737597013726" lon="-3.29478494052918"><ele>998.4000000000001</ele><time>2026-05-03T09:34:42.001Z</time></trkpt><trkpt lat="41.96727756061737" lon="-3.294727473321243"><ele>997.8000000000001</ele><time>2026-05-03T09:34:43.001Z</time></trkpt><trkpt lat="41.96717433446928" lon="-3.2946692907033017"><ele>997.1999999999999</ele><time>2026-05-03T09:34:44.001Z</time></trkpt><trkpt lat="41.96707363886057" lon="-3.294610336477326"><ele>996.5999999999999</ele><time>2026-05-03T09:34:45.001Z</time></trkpt><trkpt lat="41.96697175464694" lon="-3.2945544278914243"><ele>996.0</ele><time>2026-05-03T09:34:46.001Z</time></trkpt><trkpt lat="41.96687170922734" lon="-3.294496873803641"><ele>996.0</ele><time>2026-05-03T09:34:46.999Z</time></trkpt><trkpt lat="41.96677178256945" lon="-3.294443951535028"><ele>995.9999999999999</ele><time>2026-05-03T09:34:47.999Z</time></trkpt><trkpt lat="41.966669494457854" lon="-3.2943927576730965"><ele>995.9999999999999</ele><time>2026-05-03T09:34:48.999Z</time></trkpt><trkpt lat="41.96657030909018" lon="-3.2943379838410007"><ele>996.0</ele><time>2026-05-03T09:34:49.999Z</time></trkpt><trkpt lat="41.96646772859117" lon="-3.2942802757972993"><ele>996.0</ele><time>2026-05-03T09:34:50.999Z</time></trkpt><trkpt lat="41.96637040232873" lon="-3.29422543124173"><ele>995.8</ele><time>2026-05-03T09:34:51.999Z</time></trkpt><trkpt lat="41.96627226940532" lon="-3.294172215702817"><ele>995.5999999999999</ele><time>2026-05-03T09:34:52.999Z</time></trkpt><trkpt lat="41.9661668101023" lon="-3.294125088247869"><ele>995.4</ele><time>2026-05-03T09:34:53.999Z</time></trkpt><trkpt lat="41.966064974576746" lon="-3.294071455528971"><ele>995.2</ele><time>2026-05-03T09:34:54.999Z</time></trkpt><trkpt lat="41.965965097929335" lon="-3.2940078237988852"><ele>995.0</ele><time>2026-05-03T09:34:55.999Z</time></trkpt><trkpt lat="41.96586610002362" lon="-3.2939489362771575"><ele>993.8</ele><time>2026-05-03T09:34:56.999Z</time></trkpt><trkpt lat="41.96576482711799" lon="-3.293891547010579"><ele>992.6</ele><time>2026-05-03T09:34:57.999Z</time></trkpt><trkpt lat="41.96566071930867" lon="-3.293842121388078"><ele>991.4000000000001</ele><time>2026-05-03T09:34:58.999Z</time></trkpt><trkpt lat="41.96555890777997" lon="-3.293786232953168"><ele>990.2</ele><time>2026-05-03T09:34:59.999Z</time></trkpt><trkpt lat="41.965458927075176" lon="-3.293729162906833"><ele>989.0</ele><time>2026-05-03T09:35:00.999Z</time></trkpt><trkpt lat="41.96535676383563" lon="-3.2936722111667995"><ele>989.0</ele><time>2026-05-03T09:35:01.999Z</time></trkpt><trkpt lat="41.9652593005731" lon="-3.2936121832622507"><ele>989.0000000000001</ele><time>2026-05-03T09:35:03Z</time></trkpt><trkpt lat="41.965157657267895" lon="-3.293558794892827"><ele>989.0000000000001</ele><time>2026-05-03T09:35:04Z</time></trkpt><trkpt lat="41.96505632322186" lon="-3.2935028297821844"><ele>989.0</ele><time>2026-05-03T09:35:05Z</time></trkpt><trkpt lat="41.96495571707498" lon="-3.2934488299748708"><ele>989.0</ele><time>2026-05-03T09:35:06Z</time></trkpt><trkpt lat="41.964853991189635" lon="-3.293391951526241"><ele>990.0</ele><time>2026-05-03T09:35:07Z</time></trkpt><trkpt lat="41.96475243024067" lon="-3.293332894082912"><ele>991.0000000000001</ele><time>2026-05-03T09:35:08Z</time></trkpt><trkpt lat="41.964652012834684" lon="-3.293276339536092"><ele>992.0000000000001</ele><time>2026-05-03T09:35:09Z</time></trkpt><trkpt lat="41.96455280298249" lon="-3.2932179823207393"><ele>993.0</ele><time>2026-05-03T09:35:10Z</time></trkpt><trkpt lat="41.964451101965636" lon="-3.293164618198757"><ele>994.0</ele><time>2026-05-03T09:35:11Z</time></trkpt><trkpt lat="41.96434880048677" lon="-3.2931155519864435"><ele>993.6</ele><time>2026-05-03T09:35:12Z</time></trkpt><trkpt lat="41.96424748931616" lon="-3.2930582105950545"><ele>993.2</ele><time>2026-05-03T09:35:13Z</time></trkpt><trkpt lat="41.96415184709154" lon="-3.2929987193010217"><ele>992.8000000000001</ele><time>2026-05-03T09:35:14Z</time></trkpt><trkpt lat="41.96405321954032" lon="-3.292944463080921"><ele>992.4000000000001</ele><time>2026-05-03T09:35:15Z</time></trkpt><trkpt lat="41.96395586469825" lon="-3.2928923661478198"><ele>992.0</ele><time>2026-05-03T09:35:16Z</time></trkpt><trkpt lat="41.96385795310596" lon="-3.2928411083450557"><ele>993.0</ele><time>2026-05-03T09:35:17Z</time></trkpt><trkpt lat="41.96376754939918" lon="-3.292780076009377"><ele>994.0</ele><time>2026-05-03T09:35:18Z</time></trkpt><trkpt lat="41.9636732376321" lon="-3.292727595703532"><ele>995.0</ele><time>2026-05-03T09:35:19Z</time></trkpt><trkpt lat="41.96358048443859" lon="-3.2926752748034183"><ele>996.0</ele><time>2026-05-03T09:35:20Z</time></trkpt><trkpt lat="41.96348796244756" lon="-3.2926256091301327"><ele>997.0</ele><time>2026-05-03T09:35:21Z</time></trkpt><trkpt lat="41.96339663926692" lon="-3.292577721368808"><ele>997.2</ele><time>2026-05-03T09:35:22Z</time></trkpt><trkpt lat="41.96330522797938" lon="-3.292529306522045"><ele>997.4000000000001</ele><time>2026-05-03T09:35:23Z</time></trkpt><trkpt lat="41.963214835919196" lon="-3.2924782084670485"><ele>997.5999999999999</ele><time>2026-05-03T09:35:24Z</time></trkpt><trkpt lat="41.96312566667861" lon="-3.292430624000676"><ele>997.8</ele><time>2026-05-03T09:35:25Z</time></trkpt><trkpt lat="41.96303356131461" lon="-3.2923761389905803"><ele>998.0</ele><time>2026-05-03T09:35:26Z</time></trkpt><trkpt lat="41.962947040330626" lon="-3.2923219784874433"><ele>998.0</ele><time>2026-05-03T09:35:27Z</time></trkpt><trkpt lat="41.96285858220418" lon="-3.2922722368045894"><ele>998.0</ele><time>2026-05-03T09:35:28Z</time></trkpt><trkpt lat="41.96276655012354" lon="-3.29222528436541"><ele>998.0</ele><time>2026-05-03T09:35:29Z</time></trkpt><trkpt lat="41.96267779719415" lon="-3.2921759080779505"><ele>998.0</ele><time>2026-05-03T09:35:30Z</time></trkpt><trkpt lat="41.96258542378292" lon="-3.2921257971015945"><ele>998.0</ele><time>2026-05-03T09:35:31Z</time></trkpt><trkpt lat="41.96249464631844" lon="-3.2920748395295854"><ele>997.8</ele><time>2026-05-03T09:35:32Z</time></trkpt><trkpt lat="41.96240138463556" lon="-3.292025746421492"><ele>997.5999999999999</ele><time>2026-05-03T09:35:33Z</time></trkpt><trkpt lat="41.96230990393103" lon="-3.2919797351420397"><ele>997.4000000000001</ele><time>2026-05-03T09:35:34Z</time></trkpt><trkpt lat="41.96221764512459" lon="-3.291927603234822"><ele>997.2</ele><time>2026-05-03T09:35:35Z</time></trkpt><trkpt lat="41.962128647830625" lon="-3.291872281480423"><ele>997.0</ele><time>2026-05-03T09:35:36Z</time></trkpt><trkpt lat="41.96203370132195" lon="-3.291830858721126"><ele>997.0</ele><time>2026-05-03T09:35:37Z</time></trkpt><trkpt lat="41.96193884018034" lon="-3.291792448621526"><ele>997.0</ele><time>2026-05-03T09:35:38Z</time></trkpt><trkpt lat="41.961842421434646" lon="-3.2917483875201072"><ele>997.0</ele><time>2026-05-03T09:35:39Z</time></trkpt><trkpt lat="41.961745499138054" lon="-3.291700737853042"><ele>997.0</ele><time>2026-05-03T09:35:40Z</time></trkpt><trkpt lat="41.961648852414996" lon="-3.291660650866427"><ele>997.0</ele><time>2026-05-03T09:35:41Z</time></trkpt><trkpt lat="41.96155001739205" lon="-3.2916157975126357"><ele>998.4000000000001</ele><time>2026-05-03T09:35:42Z</time></trkpt><trkpt lat="41.96144923950387" lon="-3.2915844963309517"><ele>999.8000000000001</ele><time>2026-05-03T09:35:43Z</time></trkpt><trkpt lat="41.96134768196459" lon="-3.2915569005983407"><ele>1001.2</ele><time>2026-05-03T09:35:44Z</time></trkpt><trkpt lat="41.961241463788724" lon="-3.2915233925564786"><ele>1002.6</ele><time>2026-05-03T09:35:45Z</time></trkpt><trkpt lat="41.96113304981324" lon="-3.291493331782374"><ele>1004.0</ele><time>2026-05-03T09:35:46Z</time></trkpt><trkpt lat="41.961026083439876" lon="-3.2914690132139874"><ele>1004.0</ele><time>2026-05-03T09:35:47Z</time></trkpt><trkpt lat="41.96091935496893" lon="-3.291444241723519"><ele>1004.0000000000001</ele><time>2026-05-03T09:35:48Z</time></trkpt><trkpt lat="41.9608110944469" lon="-3.2914341237461313"><ele>1004.0000000000001</ele><time>2026-05-03T09:35:49Z</time></trkpt><trkpt lat="41.96069730540278" lon="-3.291415055072959"><ele>1004.0</ele><time>2026-05-03T09:35:50Z</time></trkpt><trkpt lat="41.96059366506889" lon="-3.291403606119877"><ele>1004.0</ele><time>2026-05-03T09:35:51Z</time></trkpt><trkpt lat="41.960471015981675" lon="-3.2913889106763254"><ele>1003.6</ele><time>2026-05-03T09:35:52Z</time></trkpt><trkpt lat="41.96035943403273" lon="-3.2913804100131228"><ele>1003.2</ele><time>2026-05-03T09:35:53Z</time></trkpt><trkpt lat="41.96024921364291" lon="-3.291378766287104"><ele>1002.8000000000001</ele><time>2026-05-03T09:35:54Z</time></trkpt><trkpt lat="41.96013764466207" lon="-3.291377916149739"><ele>1002.4000000000001</ele><time>2026-05-03T09:35:55Z</time></trkpt><trkpt lat="41.960023593358706" lon="-3.2913754174055994"><ele>1002.0</ele><time>2026-05-03T09:35:56Z</time></trkpt><trkpt lat="41.95990763247341" lon="-3.29137219366872"><ele>1001.75</ele><time>2026-05-03T09:35:57Z</time></trkpt><trkpt lat="41.95979393905823" lon="-3.2913743155935125"><ele>1001.5</ele><time>2026-05-03T09:35:58Z</time></trkpt><trkpt lat="41.95967870573499" lon="-3.291370005526424"><ele>1001.25</ele><time>2026-05-03T09:35:59Z</time></trkpt><trkpt lat="41.959560864027104" lon="-3.2913686088748157"><ele>1001.0</ele><time>2026-05-03T09:36:00Z</time></trkpt><trkpt lat="41.95944648010192" lon="-3.291373325887213"><ele>1001.0</ele><time>2026-05-03T09:36:01Z</time></trkpt><trkpt lat="41.95933167883788" lon="-3.2913774223069137"><ele>1001.0</ele><time>2026-05-03T09:36:02Z</time></trkpt><trkpt lat="41.95921683337752" lon="-3.2913788106718793"><ele>1001.0</ele><time>2026-05-03T09:36:03Z</time></trkpt><trkpt lat="41.95910284790634" lon="-3.291380603612566"><ele>1001.0</ele><time>2026-05-03T09:36:04.001Z</time></trkpt><trkpt lat="41.958988564135495" lon="-3.2913756372698244"><ele>1000.25</ele><time>2026-05-03T09:36:05.001Z</time></trkpt><trkpt lat="41.95887455288116" lon="-3.2913705652430534"><ele>999.5</ele><time>2026-05-03T09:36:06.001Z</time></trkpt><trkpt lat="41.958762767065544" lon="-3.2913715413747555"><ele>998.75</ele><time>2026-05-03T09:36:07.001Z</time></trkpt><trkpt lat="41.958651604159016" lon="-3.2913771754002674"><ele>998.0</ele><time>2026-05-03T09:36:08.001Z</time></trkpt><trkpt lat="41.958538166643784" lon="-3.2913765421550303"><ele>998.0</ele><time>2026-05-03T09:36:09.001Z</time></trkpt><trkpt lat="41.95842598008857" lon="-3.291377163417092"><ele>998.0</ele><time>2026-05-03T09:36:10.001Z</time></trkpt><trkpt lat="41.95831376612184" lon="-3.291375901188749"><ele>998.0</ele><time>2026-05-03T09:36:11.001Z</time></trkpt><trkpt lat="41.9582021454798" lon="-3.291377832245219"><ele>998.0</ele><time>2026-05-03T09:36:12.001Z</time></trkpt><trkpt lat="41.95809028725729" lon="-3.291378953371169"><ele>998.0</ele><time>2026-05-03T09:36:13.001Z</time></trkpt><trkpt lat="41.95797978741331" lon="-3.291380101392403"><ele>997.8</ele><time>2026-05-03T09:36:14.001Z</time></trkpt><trkpt lat="41.95786733615912" lon="-3.291380042061444"><ele>997.5999999999999</ele><time>2026-05-03T09:36:15.001Z</time></trkpt><trkpt lat="41.957757439188455" lon="-3.291382897781643"><ele>997.4000000000001</ele><time>2026-05-03T09:36:16.001Z</time></trkpt><trkpt lat="41.95764519114877" lon="-3.291382484459741"><ele>997.2</ele><time>2026-05-03T09:36:17.001Z</time></trkpt><trkpt lat="41.957533962204124" lon="-3.2913826996513045"><ele>997.0</ele><time>2026-05-03T09:36:18.001Z</time></trkpt><trkpt lat="41.95742318811326" lon="-3.2913836347094234"><ele>996.4000000000001</ele><time>2026-05-03T09:36:19.001Z</time></trkpt><trkpt lat="41.95731142828709" lon="-3.2913793807108593"><ele>995.8000000000001</ele><time>2026-05-03T09:36:20.001Z</time></trkpt><trkpt lat="41.957202063553915" lon="-3.2913856854471044"><ele>995.2</ele><time>2026-05-03T09:36:21.001Z</time></trkpt><trkpt lat="41.95709028507275" lon="-3.2913831417636157"><ele>994.6</ele><time>2026-05-03T09:36:22.001Z</time></trkpt><trkpt lat="41.95698145760041" lon="-3.291384127794539"><ele>994.0</ele><time>2026-05-03T09:36:23.001Z</time></trkpt><trkpt lat="41.95686675535143" lon="-3.2913853993128055"><ele>994.0</ele><time>2026-05-03T09:36:24.001Z</time></trkpt><trkpt lat="41.956757548519846" lon="-3.2913857562912763"><ele>994.0000000000001</ele><time>2026-05-03T09:36:25.001Z</time></trkpt><trkpt lat="41.95664754595211" lon="-3.2913869734667607"><ele>994.0000000000001</ele><time>2026-05-03T09:36:26.001Z</time></trkpt><trkpt lat="41.95653770416807" lon="-3.291386437610194"><ele>994.0</ele><time>2026-05-03T09:36:27.001Z</time></trkpt><trkpt lat="41.95642938734677" lon="-3.2913841993714845"><ele>994.0</ele><time>2026-05-03T09:36:28.001Z</time></trkpt><trkpt lat="41.95631761373876" lon="-3.2913862876867195"><ele>993.4000000000001</ele><time>2026-05-03T09:36:29.001Z</time></trkpt><trkpt lat="41.95620652708734" lon="-3.291388804340699"><ele>992.8000000000001</ele><time>2026-05-03T09:36:30.001Z</time></trkpt><trkpt lat="41.9560946105528" lon="-3.291391986907247"><ele>992.1999999999999</ele><time>2026-05-03T09:36:31.001Z</time></trkpt><trkpt lat="41.95598206755646" lon="-3.2913978054562745"><ele>991.5999999999999</ele><time>2026-05-03T09:36:32.001Z</time></trkpt><trkpt lat="41.95587196267981" lon="-3.2913969692928675"><ele>991.0</ele><time>2026-05-03T09:36:33.001Z</time></trkpt><trkpt lat="41.95576426106931" lon="-3.2913952832294298"><ele>991.0</ele><time>2026-05-03T09:36:34.001Z</time></trkpt><trkpt lat="41.95565852430388" lon="-3.2913967123175545"><ele>990.9999999999999</ele><time>2026-05-03T09:36:35.001Z</time></trkpt><trkpt lat="41.955552379457586" lon="-3.291395960106346"><ele>990.9999999999999</ele><time>2026-05-03T09:36:36.001Z</time></trkpt><trkpt lat="41.95544683533044" lon="-3.2913949729381304"><ele>991.0</ele><time>2026-05-03T09:36:37.001Z</time></trkpt><trkpt lat="41.95534406526183" lon="-3.291394329550597"><ele>991.0</ele><time>2026-05-03T09:36:38.001Z</time></trkpt><trkpt lat="41.955239935494774" lon="-3.2913946107335947"><ele>991.0</ele><time>2026-05-03T09:36:39.001Z</time></trkpt><trkpt lat="41.955137410309064" lon="-3.2913951254395575"><ele>990.9999999999999</ele><time>2026-05-03T09:36:40.001Z</time></trkpt><trkpt lat="41.955036390968885" lon="-3.2913953994563885"><ele>990.9999999999999</ele><time>2026-05-03T09:36:41.001Z</time></trkpt><trkpt lat="41.95493403704182" lon="-3.2913966824827057"><ele>991.0</ele><time>2026-05-03T09:36:42.001Z</time></trkpt><trkpt lat="41.954832760192" lon="-3.2914020793715917"><ele>991.0</ele><time>2026-05-03T09:36:43.001Z</time></trkpt><trkpt lat="41.954733274402024" lon="-3.2914086678264463"><ele>991.0</ele><time>2026-05-03T09:36:44.001Z</time></trkpt><trkpt lat="41.95462967560823" lon="-3.291415386839698"><ele>990.9999999999999</ele><time>2026-05-03T09:36:45.001Z</time></trkpt><trkpt lat="41.954526894771426" lon="-3.2914220464525856"><ele>990.9999999999999</ele><time>2026-05-03T09:36:46.001Z</time></trkpt><trkpt lat="41.95442089855127" lon="-3.2914291795100468"><ele>991.0</ele><time>2026-05-03T09:36:47.001Z</time></trkpt><trkpt lat="41.95431582032444" lon="-3.2914346279423143"><ele>991.0</ele><time>2026-05-03T09:36:48.001Z</time></trkpt><trkpt lat="41.95421378193339" lon="-3.2914423070586944"><ele>992.0</ele><time>2026-05-03T09:36:49.001Z</time></trkpt><trkpt lat="41.954110395718416" lon="-3.2914490021621168"><ele>992.9999999999999</ele><time>2026-05-03T09:36:50.001Z</time></trkpt><trkpt lat="41.9540045001642" lon="-3.2914560380569"><ele>993.9999999999999</ele><time>2026-05-03T09:36:51.001Z</time></trkpt><trkpt lat="41.953899116047765" lon="-3.2914634304134824"><ele>995.0</ele><time>2026-05-03T09:36:52.001Z</time></trkpt><trkpt lat="41.95379118673536" lon="-3.29147031889319"><ele>996.0</ele><time>2026-05-03T09:36:53Z</time></trkpt><trkpt lat="41.95368036100666" lon="-3.291477789963774"><ele>996.0</ele><time>2026-05-03T09:36:54Z</time></trkpt><trkpt lat="41.953572610724045" lon="-3.2914785694201254"><ele>995.9999999999999</ele><time>2026-05-03T09:36:55Z</time></trkpt><trkpt lat="41.95346174385891" lon="-3.2914858621720273"><ele>995.9999999999999</ele><time>2026-05-03T09:36:56Z</time></trkpt><trkpt lat="41.95335657484518" lon="-3.2914998197891525"><ele>996.0</ele><time>2026-05-03T09:36:57Z</time></trkpt><trkpt lat="41.95324524329056" lon="-3.291502667721681"><ele>996.0</ele><time>2026-05-03T09:36:58Z</time></trkpt><trkpt lat="41.95312391689493" lon="-3.291505235251185"><ele>996.3333333333333</ele><time>2026-05-03T09:36:59Z</time></trkpt><trkpt lat="41.95294273696859" lon="-3.2915206832056008"><ele>996.6666666666666</ele><time>2026-05-03T09:37:00Z</time></trkpt><trkpt lat="41.95274437968303" lon="-3.2915337695611298"><ele>997.0</ele><time>2026-05-03T09:37:01Z</time></trkpt><trkpt lat="41.95257297062516" lon="-3.2915430776978787"><ele>996.0</ele><time>2026-05-03T09:37:04Z</time></trkpt><trkpt lat="41.952458878455076" lon="-3.291547420610312"><ele>995.0</ele><time>2026-05-03T09:37:05Z</time></trkpt><trkpt lat="41.95234433732461" lon="-3.2915531247264087"><ele>994.0</ele><time>2026-05-03T09:37:06Z</time></trkpt><trkpt lat="41.95223137494318" lon="-3.2915667677008686"><ele>993.0</ele><time>2026-05-03T09:37:07Z</time></trkpt><trkpt lat="41.95212303083966" lon="-3.291573115552849"><ele>993.0</ele><time>2026-05-03T09:37:08Z</time></trkpt><trkpt lat="41.95201125487909" lon="-3.291579885438195"><ele>993.0</ele><time>2026-05-03T09:37:09Z</time></trkpt><trkpt lat="41.95190296662355" lon="-3.2915861951907335"><ele>993.0</ele><time>2026-05-03T09:37:10Z</time></trkpt><trkpt lat="41.951792373655444" lon="-3.2915910162773585"><ele>993.0</ele><time>2026-05-03T09:37:11Z</time></trkpt><trkpt lat="41.951681183300806" lon="-3.2915994625587404"><ele>993.0</ele><time>2026-05-03T09:37:12Z</time></trkpt><trkpt lat="41.951573786620166" lon="-3.291608311487455"><ele>993.8</ele><time>2026-05-03T09:37:13Z</time></trkpt><trkpt lat="41.951466416946204" lon="-3.2916144869192854"><ele>994.5999999999999</ele><time>2026-05-03T09:37:14Z</time></trkpt><trkpt lat="41.95135749119837" lon="-3.2916199592051267"><ele>995.4000000000001</ele><time>2026-05-03T09:37:15Z</time></trkpt><trkpt lat="41.95124778804451" lon="-3.2916265505543563"><ele>996.2</ele><time>2026-05-03T09:37:16Z</time></trkpt><trkpt lat="41.95114149989467" lon="-3.2916350796124605"><ele>997.0</ele><time>2026-05-03T09:37:17Z</time></trkpt><trkpt lat="41.951031511075136" lon="-3.291642815889321"><ele>997.0</ele><time>2026-05-03T09:37:18Z</time></trkpt><trkpt lat="41.95092402274449" lon="-3.291652455478765"><ele>997.0</ele><time>2026-05-03T09:37:19Z</time></trkpt><trkpt lat="41.950817585432844" lon="-3.2916589256035533"><ele>997.0</ele><time>2026-05-03T09:37:20Z</time></trkpt><trkpt lat="41.95070998337658" lon="-3.2916637060972183"><ele>997.0</ele><time>2026-05-03T09:37:21Z</time></trkpt><trkpt lat="41.950605129713175" lon="-3.291670230852146"><ele>997.0</ele><time>2026-05-03T09:37:22Z</time></trkpt><trkpt lat="41.9504994561544" lon="-3.2916766478681376"><ele>996.6</ele><time>2026-05-03T09:37:23Z</time></trkpt><trkpt lat="41.950396195136335" lon="-3.2916861509770547"><ele>996.2</ele><time>2026-05-03T09:37:24Z</time></trkpt><trkpt lat="41.95029287860702" lon="-3.2916946456948106"><ele>995.8</ele><time>2026-05-03T09:37:25Z</time></trkpt><trkpt lat="41.95018784425683" lon="-3.291705407780598"><ele>995.4</ele><time>2026-05-03T09:37:26Z</time></trkpt><trkpt lat="41.95008262152638" lon="-3.2917117504899953"><ele>995.0</ele><time>2026-05-03T09:37:27Z</time></trkpt><trkpt lat="41.9499774873853" lon="-3.29171802407554"><ele>996.4</ele><time>2026-05-03T09:37:28Z</time></trkpt><trkpt lat="41.94987361702119" lon="-3.2917247193646246"><ele>997.8</ele><time>2026-05-03T09:37:29Z</time></trkpt><trkpt lat="41.94976955369825" lon="-3.291731598803593"><ele>999.2</ele><time>2026-05-03T09:37:30Z</time></trkpt><trkpt lat="41.949666953001575" lon="-3.2917394187588944"><ele>1000.6</ele><time>2026-05-03T09:37:31Z</time></trkpt><trkpt lat="41.94956358792923" lon="-3.291743203489559"><ele>1002.0</ele><time>2026-05-03T09:37:32Z</time></trkpt><trkpt lat="41.94945934392246" lon="-3.2917490228033297"><ele>1002.0</ele><time>2026-05-03T09:37:33Z</time></trkpt><trkpt lat="41.949355848493354" lon="-3.2917557690400474"><ele>1002.0</ele><time>2026-05-03T09:37:34Z</time></trkpt><trkpt lat="41.949253827860176" lon="-3.2917660809085794"><ele>1002.0</ele><time>2026-05-03T09:37:35Z</time></trkpt><trkpt lat="41.949148922548055" lon="-3.291770878999941"><ele>1002.0</ele><time>2026-05-03T09:37:36Z</time></trkpt><trkpt lat="41.94904640741757" lon="-3.291780213717731"><ele>1002.0</ele><time>2026-05-03T09:37:37Z</time></trkpt><trkpt lat="41.94894188692472" lon="-3.2917890210485594"><ele>1003.0</ele><time>2026-05-03T09:37:38Z</time></trkpt><trkpt lat="41.94883727460873" lon="-3.2917965005922403"><ele>1004.0</ele><time>2026-05-03T09:37:39Z</time></trkpt><trkpt lat="41.948743105370085" lon="-3.291807990442583"><ele>1005.0</ele><time>2026-05-03T09:37:40Z</time></trkpt><trkpt lat="41.948634301985145" lon="-3.2918097917319615"><ele>1006.0</ele><time>2026-05-03T09:37:41Z</time></trkpt><trkpt lat="41.948529794878674" lon="-3.2918169299055244"><ele>1007.0</ele><time>2026-05-03T09:37:42Z</time></trkpt><trkpt lat="41.94842613757484" lon="-3.2918225609177454"><ele>1006.8</ele><time>2026-05-03T09:37:43Z</time></trkpt><trkpt lat="41.948321532026384" lon="-3.2918293714074203"><ele>1006.6</ele><time>2026-05-03T09:37:44Z</time></trkpt><trkpt lat="41.94821900130728" lon="-3.291840065288358"><ele>1006.3999999999999</ele><time>2026-05-03T09:37:45Z</time></trkpt><trkpt lat="41.94811592995581" lon="-3.2918454451498036"><ele>1006.1999999999999</ele><time>2026-05-03T09:37:46Z</time></trkpt><trkpt lat="41.948010739185776" lon="-3.291852315668665"><ele>1006.0</ele><time>2026-05-03T09:37:47Z</time></trkpt><trkpt lat="41.94790671970669" lon="-3.291857746647249"><ele>1006.0</ele><time>2026-05-03T09:37:48Z</time></trkpt><trkpt lat="41.94780470215054" lon="-3.2918646635193674"><ele>1005.9999999999999</ele><time>2026-05-03T09:37:49Z</time></trkpt><trkpt lat="41.947702492443035" lon="-3.291872083532421"><ele>1005.9999999999999</ele><time>2026-05-03T09:37:50Z</time></trkpt><trkpt lat="41.9476027250831" lon="-3.2918796500364165"><ele>1006.0</ele><time>2026-05-03T09:37:51Z</time></trkpt><trkpt lat="41.94750374349697" lon="-3.2918863260855327"><ele>1006.0</ele><time>2026-05-03T09:37:52Z</time></trkpt><trkpt lat="41.947405926977886" lon="-3.2918939963865275"><ele>1006.5999999999999</ele><time>2026-05-03T09:37:53Z</time></trkpt><trkpt lat="41.947308992100304" lon="-3.2918971564951693"><ele>1007.1999999999999</ele><time>2026-05-03T09:37:54Z</time></trkpt><trkpt lat="41.947216293161375" lon="-3.2919020224835394"><ele>1007.8000000000001</ele><time>2026-05-03T09:37:55Z</time></trkpt><trkpt lat="41.947121282068046" lon="-3.2919055680223313"><ele>1008.4000000000001</ele><time>2026-05-03T09:37:56Z</time></trkpt><trkpt lat="41.94703111460037" lon="-3.2919183830774577"><ele>1009.0</ele><time>2026-05-03T09:37:57Z</time></trkpt><trkpt lat="41.94693856433078" lon="-3.2919224019076125"><ele>1008.9999999999999</ele><time>2026-05-03T09:37:58.001Z</time></trkpt><trkpt lat="41.94684708669161" lon="-3.2919255305459383"><ele>1009.0</ele><time>2026-05-03T09:37:59.001Z</time></trkpt><trkpt lat="41.946757997677956" lon="-3.2919298457021307"><ele>1009.0</ele><time>2026-05-03T09:38:00.001Z</time></trkpt><trkpt lat="41.94666454132472" lon="-3.2919290252074522"><ele>1009.0</ele><time>2026-05-03T09:38:01.001Z</time></trkpt><trkpt lat="41.946577031615185" lon="-3.29193089633498"><ele>1008.9999999999999</ele><time>2026-05-03T09:38:02.001Z</time></trkpt><trkpt lat="41.94648923500858" lon="-3.2919296454340032"><ele>1009.0</ele><time>2026-05-03T09:38:03.001Z</time></trkpt><trkpt lat="41.94639418229826" lon="-3.2919258483536256"><ele>1011.0</ele><time>2026-05-03T09:38:04.001Z</time></trkpt><trkpt lat="41.94630395908859" lon="-3.291922777887977"><ele>1013.0000000000001</ele><time>2026-05-03T09:38:05.001Z</time></trkpt><trkpt lat="41.94621073695194" lon="-3.2919176495998212"><ele>1015.0000000000001</ele><time>2026-05-03T09:38:06.001Z</time></trkpt><trkpt lat="41.94612194983247" lon="-3.2919170068561288"><ele>1017.0</ele><time>2026-05-03T09:38:07.001Z</time></trkpt><trkpt lat="41.94603262528348" lon="-3.291913124943844"><ele>1019.0</ele><time>2026-05-03T09:38:08.001Z</time></trkpt><trkpt lat="41.945941054307916" lon="-3.291902376306593"><ele>1018.6</ele><time>2026-05-03T09:38:09.001Z</time></trkpt><trkpt lat="41.94584404068874" lon="-3.291887081006812"><ele>1018.2</ele><time>2026-05-03T09:38:10.001Z</time></trkpt><trkpt lat="41.94575360973414" lon="-3.2918809913300633"><ele>1017.8000000000001</ele><time>2026-05-03T09:38:11.001Z</time></trkpt><trkpt lat="41.94566166007195" lon="-3.2918683720778903"><ele>1017.4000000000001</ele><time>2026-05-03T09:38:12.001Z</time></trkpt><trkpt lat="41.94556732412485" lon="-3.291855859140457"><ele>1017.0</ele><time>2026-05-03T09:38:13.001Z</time></trkpt><trkpt lat="41.945478140412966" lon="-3.2918484908373054"><ele>1017.0</ele><time>2026-05-03T09:38:14.001Z</time></trkpt><trkpt lat="41.94538522422557" lon="-3.2918341081880027"><ele>1017.0</ele><time>2026-05-03T09:38:15.001Z</time></trkpt><trkpt lat="41.945286365965515" lon="-3.2918128783736913"><ele>1017.0</ele><time>2026-05-03T09:38:16.001Z</time></trkpt><trkpt lat="41.945195021471726" lon="-3.2917948817515614"><ele>1017.0</ele><time>2026-05-03T09:38:17.001Z</time></trkpt><trkpt lat="41.94510333725124" lon="-3.2917765469856075"><ele>1017.0</ele><time>2026-05-03T09:38:18.001Z</time></trkpt><trkpt lat="41.94500958299436" lon="-3.291756494143981"><ele>1018.2</ele><time>2026-05-03T09:38:19.001Z</time></trkpt><trkpt lat="41.944915343862846" lon="-3.2917331697414443"><ele>1019.4000000000001</ele><time>2026-05-03T09:38:20.001Z</time></trkpt><trkpt lat="41.944822639496564" lon="-3.2917112811632916"><ele>1020.5999999999999</ele><time>2026-05-03T09:38:21.001Z</time></trkpt><trkpt lat="41.94473088085322" lon="-3.291682273807735"><ele>1021.8</ele><time>2026-05-03T09:38:22.001Z</time></trkpt><trkpt lat="41.944634928679534" lon="-3.2916549314034222"><ele>1023.0</ele><time>2026-05-03T09:38:23.001Z</time></trkpt><trkpt lat="41.94454297339631" lon="-3.2916293504164154"><ele>1023.0</ele><time>2026-05-03T09:38:24.001Z</time></trkpt><trkpt lat="41.94445604214181" lon="-3.2916018477501767"><ele>1023.0</ele><time>2026-05-03T09:38:25.001Z</time></trkpt><trkpt lat="41.94435926959592" lon="-3.291566008098446"><ele>1023.0</ele><time>2026-05-03T09:38:26.001Z</time></trkpt><trkpt lat="41.944271265748355" lon="-3.291538937614372"><ele>1023.0</ele><time>2026-05-03T09:38:27.001Z</time></trkpt><trkpt lat="41.94417581364931" lon="-3.2915054599905713"><ele>1023.0</ele><time>2026-05-03T09:38:28.001Z</time></trkpt><trkpt lat="41.94408790532516" lon="-3.2914730244042785"><ele>1023.2</ele><time>2026-05-03T09:38:29.001Z</time></trkpt><trkpt lat="41.94400003097041" lon="-3.2914365911836216"><ele>1023.4</ele><time>2026-05-03T09:38:30.001Z</time></trkpt><trkpt lat="41.94390167746175" lon="-3.2913957208942737"><ele>1023.6000000000001</ele><time>2026-05-03T09:38:31.001Z</time></trkpt><trkpt lat="41.943813325206406" lon="-3.291363227442684"><ele>1023.8000000000001</ele><time>2026-05-03T09:38:32.001Z</time></trkpt><trkpt lat="41.94372448086352" lon="-3.2913276073230064"><ele>1024.0</ele><time>2026-05-03T09:38:33.001Z</time></trkpt><trkpt lat="41.94363292935985" lon="-3.2912892220986683"><ele>1025.4</ele><time>2026-05-03T09:38:34.001Z</time></trkpt><trkpt lat="41.94354510766042" lon="-3.2912488996062503"><ele>1026.8000000000002</ele><time>2026-05-03T09:38:35.001Z</time></trkpt><trkpt lat="41.94345437015943" lon="-3.291205706295396"><ele>1028.1999999999998</ele><time>2026-05-03T09:38:36.001Z</time></trkpt><trkpt lat="41.94336764384421" lon="-3.291161009676481"><ele>1029.6</ele><time>2026-05-03T09:38:37.001Z</time></trkpt><trkpt lat="41.94327608627276" lon="-3.2911126657717182"><ele>1031.0</ele><time>2026-05-03T09:38:38.001Z</time></trkpt><trkpt lat="41.94319118263124" lon="-3.291069948441186"><ele>1031.0</ele><time>2026-05-03T09:38:39.001Z</time></trkpt><trkpt lat="41.94310344718679" lon="-3.2910205007650135"><ele>1031.0</ele><time>2026-05-03T09:38:40.001Z</time></trkpt><trkpt lat="41.943014161579214" lon="-3.290970278714324"><ele>1031.0</ele><time>2026-05-03T09:38:41.001Z</time></trkpt><trkpt lat="41.94292201234552" lon="-3.290918151024798"><ele>1031.0</ele><time>2026-05-03T09:38:42.001Z</time></trkpt><trkpt lat="41.94283170156836" lon="-3.29086379121459"><ele>1031.0</ele><time>2026-05-03T09:38:43.001Z</time></trkpt><trkpt lat="41.94274049016616" lon="-3.2908091147311613"><ele>1031.0</ele><time>2026-05-03T09:38:44.001Z</time></trkpt><trkpt lat="41.94264662062868" lon="-3.290745903546503"><ele>1031.0</ele><time>2026-05-03T09:38:45.001Z</time></trkpt><trkpt lat="41.94255238879953" lon="-3.2906890006336376"><ele>1031.0</ele><time>2026-05-03T09:38:46.001Z</time></trkpt><trkpt lat="41.94245759727847" lon="-3.290629787717415"><ele>1031.0</ele><time>2026-05-03T09:38:47.001Z</time></trkpt><trkpt lat="41.942359641662" lon="-3.2905648573979587"><ele>1031.0</ele><time>2026-05-03T09:38:48.001Z</time></trkpt><trkpt lat="41.94225959820333" lon="-3.290503284716519"><ele>1029.8</ele><time>2026-05-03T09:38:49.001Z</time></trkpt><trkpt lat="41.942165349009194" lon="-3.290443646128454"><ele>1028.6</ele><time>2026-05-03T09:38:50.001Z</time></trkpt><trkpt lat="41.94207153159879" lon="-3.2903782889893423"><ele>1027.4</ele><time>2026-05-03T09:38:51.001Z</time></trkpt><trkpt lat="41.94197436596457" lon="-3.290316094640306"><ele>1026.2</ele><time>2026-05-03T09:38:52.001Z</time></trkpt><trkpt lat="41.94187696073537" lon="-3.2902545371994716"><ele>1025.0</ele><time>2026-05-03T09:38:53.001Z</time></trkpt><trkpt lat="41.941779254747175" lon="-3.290197079063876"><ele>1024.2</ele><time>2026-05-03T09:38:54.001Z</time></trkpt><trkpt lat="41.941682543282035" lon="-3.290138714508895"><ele>1023.4</ele><time>2026-05-03T09:38:55.001Z</time></trkpt><trkpt lat="41.94158705879244" lon="-3.29008055752825"><ele>1022.5999999999999</ele><time>2026-05-03T09:38:56.001Z</time></trkpt><trkpt lat="41.94149029879491" lon="-3.2900227716450927"><ele>1021.8</ele><time>2026-05-03T09:38:57.001Z</time></trkpt><trkpt lat="41.94139234754827" lon="-3.2899638629353385"><ele>1021.0</ele><time>2026-05-03T09:38:58.001Z</time></trkpt><trkpt lat="41.94129599641905" lon="-3.2899033794098864"><ele>1021.0</ele><time>2026-05-03T09:38:59Z</time></trkpt><trkpt lat="41.941198932003445" lon="-3.2898455204579395"><ele>1020.9999999999999</ele><time>2026-05-03T09:39:00Z</time></trkpt><trkpt lat="41.94110380266865" lon="-3.289790372497241"><ele>1020.9999999999999</ele><time>2026-05-03T09:39:01Z</time></trkpt><trkpt lat="41.94101037835194" lon="-3.289730680831219"><ele>1021.0</ele><time>2026-05-03T09:39:02Z</time></trkpt><trkpt lat="41.940916833963016" lon="-3.2896690145851157"><ele>1021.0</ele><time>2026-05-03T09:39:03Z</time></trkpt><trkpt lat="41.94082419399001" lon="-3.289607938521644"><ele>1021.4</ele><time>2026-05-03T09:39:04Z</time></trkpt><trkpt lat="41.94072866189595" lon="-3.2895451981586223"><ele>1021.8</ele><time>2026-05-03T09:39:05Z</time></trkpt><trkpt lat="41.94063747632542" lon="-3.2894796653289453"><ele>1022.1999999999999</ele><time>2026-05-03T09:39:06Z</time></trkpt><trkpt lat="41.94054467220894" lon="-3.2894145526002756"><ele>1022.5999999999999</ele><time>2026-05-03T09:39:07Z</time></trkpt><trkpt lat="41.94045176903275" lon="-3.289347089095136"><ele>1023.0</ele><time>2026-05-03T09:39:08Z</time></trkpt><trkpt lat="41.94035921235527" lon="-3.2892741391952134"><ele>1023.0</ele><time>2026-05-03T09:39:09Z</time></trkpt><trkpt lat="41.940266953756996" lon="-3.289202929450332"><ele>1023.0</ele><time>2026-05-03T09:39:10Z</time></trkpt><trkpt lat="41.940177491084576" lon="-3.289122857570582"><ele>1023.0</ele><time>2026-05-03T09:39:11Z</time></trkpt><trkpt lat="41.94008765663334" lon="-3.289040592740184"><ele>1023.0</ele><time>2026-05-03T09:39:12Z</time></trkpt><trkpt lat="41.93998976406555" lon="-3.2889409211453384"><ele>1023.0</ele><time>2026-05-03T09:39:13Z</time></trkpt><trkpt lat="41.939915127491766" lon="-3.2888592897105133"><ele>1022.5</ele><time>2026-05-03T09:39:14Z</time></trkpt><trkpt lat="41.93982519396349" lon="-3.2887604527102194"><ele>1022.0</ele><time>2026-05-03T09:39:15Z</time></trkpt><trkpt lat="41.93973761134857" lon="-3.288659576493269"><ele>1021.5</ele><time>2026-05-03T09:39:16Z</time></trkpt><trkpt lat="41.93965567188592" lon="-3.2885504089353255"><ele>1021.0</ele><time>2026-05-03T09:39:17Z</time></trkpt><trkpt lat="41.93957409113773" lon="-3.288444142040868"><ele>1021.0</ele><time>2026-05-03T09:39:18Z</time></trkpt><trkpt lat="41.93949641332104" lon="-3.2883363616589247"><ele>1021.0</ele><time>2026-05-03T09:39:19Z</time></trkpt><trkpt lat="41.939419188335606" lon="-3.288220657686112"><ele>1021.0</ele><time>2026-05-03T09:39:20Z</time></trkpt><trkpt lat="41.93934243503462" lon="-3.2881085230480385"><ele>1021.0</ele><time>2026-05-03T09:39:21Z</time></trkpt><trkpt lat="41.93926755685272" lon="-3.287995398950205"><ele>1019.0</ele><time>2026-05-03T09:39:22Z</time></trkpt><trkpt lat="41.939193980275405" lon="-3.2878787570700005"><ele>1017.0</ele><time>2026-05-03T09:39:23Z</time></trkpt><trkpt lat="41.9391204354774" lon="-3.2877600136462655"><ele>1015.0</ele><time>2026-05-03T09:39:24Z</time></trkpt><trkpt lat="41.939040628242104" lon="-3.287644707088133"><ele>1013.0</ele><time>2026-05-03T09:39:25Z</time></trkpt><trkpt lat="41.93896777423101" lon="-3.287529889202646"><ele>1013.0</ele><time>2026-05-03T09:39:26Z</time></trkpt><trkpt lat="41.938893707526155" lon="-3.287413057192596"><ele>1013.0</ele><time>2026-05-03T09:39:27Z</time></trkpt><trkpt lat="41.93881944451637" lon="-3.2872945425645335"><ele>1013.0</ele><time>2026-05-03T09:39:28Z</time></trkpt><trkpt lat="41.93874595477576" lon="-3.2871779688376"><ele>1013.0</ele><time>2026-05-03T09:39:29Z</time></trkpt><trkpt lat="41.938669291834984" lon="-3.2870636064855376"><ele>1012.75</ele><time>2026-05-03T09:39:30Z</time></trkpt><trkpt lat="41.938595771927716" lon="-3.286946061171333"><ele>1012.5</ele><time>2026-05-03T09:39:31Z</time></trkpt><trkpt lat="41.93852298438283" lon="-3.2868274818440413"><ele>1012.25</ele><time>2026-05-03T09:39:32Z</time></trkpt><trkpt lat="41.93844907792746" lon="-3.286709272679704"><ele>1012.0</ele><time>2026-05-03T09:39:33Z</time></trkpt><trkpt lat="41.938374405495246" lon="-3.286588858873196"><ele>1012.0</ele><time>2026-05-03T09:39:34Z</time></trkpt><trkpt lat="41.93829934970878" lon="-3.2864713309292353"><ele>1012.0</ele><time>2026-05-03T09:39:35Z</time></trkpt><trkpt lat="41.938226371069426" lon="-3.2863534975784416"><ele>1012.0</ele><time>2026-05-03T09:39:36Z</time></trkpt><trkpt lat="41.93815108695601" lon="-3.2862385774715723"><ele>1012.0</ele><time>2026-05-03T09:39:37Z</time></trkpt><trkpt lat="41.938075356746815" lon="-3.2861175463350274"><ele>1011.5</ele><time>2026-05-03T09:39:38Z</time></trkpt><trkpt lat="41.93799532723984" lon="-3.2860073581567337"><ele>1011.0</ele><time>2026-05-03T09:39:39Z</time></trkpt><trkpt lat="41.93791600305098" lon="-3.2858985145364823"><ele>1010.5</ele><time>2026-05-03T09:39:40Z</time></trkpt><trkpt lat="41.93783663013726" lon="-3.285787179982309"><ele>1010.0</ele><time>2026-05-03T09:39:41Z</time></trkpt><trkpt lat="41.93775389476269" lon="-3.285679612868245"><ele>1008.5</ele><time>2026-05-03T09:39:42Z</time></trkpt><trkpt lat="41.937666493574845" lon="-3.2855796735154974"><ele>1007.0</ele><time>2026-05-03T09:39:43Z</time></trkpt><trkpt lat="41.93757604604142" lon="-3.285482029693493"><ele>1005.5</ele><time>2026-05-03T09:39:44Z</time></trkpt><trkpt lat="41.93748661517528" lon="-3.2853928963721923"><ele>1004.0</ele><time>2026-05-03T09:39:45Z</time></trkpt><trkpt lat="41.93739672842094" lon="-3.2853063601985437"><ele>1003.5</ele><time>2026-05-03T09:39:46Z</time></trkpt><trkpt lat="41.937289464045726" lon="-3.285247684275362"><ele>1003.0</ele><time>2026-05-03T09:39:47Z</time></trkpt><trkpt lat="41.93718886251557" lon="-3.285179089191267"><ele>1002.5</ele><time>2026-05-03T09:39:48Z</time></trkpt><trkpt lat="41.93708424304685" lon="-3.28511855784209"><ele>1002.0</ele><time>2026-05-03T09:39:49Z</time></trkpt><trkpt lat="41.936980416483905" lon="-3.2850626415696453"><ele>1002.0</ele><time>2026-05-03T09:39:50Z</time></trkpt><trkpt lat="41.93687512288207" lon="-3.28501033674865"><ele>1002.0</ele><time>2026-05-03T09:39:51Z</time></trkpt><trkpt lat="41.93677253018783" lon="-3.2849542798393494"><ele>1002.0</ele><time>2026-05-03T09:39:52Z</time></trkpt><trkpt lat="41.93666731198753" lon="-3.284908233851254"><ele>1002.0</ele><time>2026-05-03T09:39:53Z</time></trkpt><trkpt lat="41.93656047144638" lon="-3.2848633222373933"><ele>1002.0</ele><time>2026-05-03T09:39:54Z</time></trkpt><trkpt lat="41.93645484693399" lon="-3.2848205802599053"><ele>1002.0</ele><time>2026-05-03T09:39:55.001Z</time></trkpt><trkpt lat="41.93634642493766" lon="-3.28477827982866"><ele>1002.0</ele><time>2026-05-03T09:39:56.001Z</time></trkpt><trkpt lat="41.9362360288251" lon="-3.284734633654652"><ele>1002.0</ele><time>2026-05-03T09:39:57.001Z</time></trkpt><trkpt lat="41.936128422113896" lon="-3.2846976396356418"><ele>1002.0</ele><time>2026-05-03T09:39:58.001Z</time></trkpt><trkpt lat="41.93602365023164" lon="-3.284654661670528"><ele>1002.0</ele><time>2026-05-03T09:39:59.001Z</time></trkpt><trkpt lat="41.935916831173074" lon="-3.2846142523608304"><ele>1003.0</ele><time>2026-05-03T09:40:00.001Z</time></trkpt><trkpt lat="41.93581076013963" lon="-3.2845729450452192"><ele>1004.0</ele><time>2026-05-03T09:40:01.001Z</time></trkpt><trkpt lat="41.93570117122292" lon="-3.2845332343948734"><ele>1005.0</ele><time>2026-05-03T09:40:02.001Z</time></trkpt><trkpt lat="41.935595898623546" lon="-3.2844917249216223"><ele>1006.0</ele><time>2026-05-03T09:40:03.001Z</time></trkpt><trkpt lat="41.935490915944726" lon="-3.2844504579028855"><ele>1007.0</ele><time>2026-05-03T09:40:04.001Z</time></trkpt><trkpt lat="41.93538475949077" lon="-3.2844097603277254"><ele>1007.0</ele><time>2026-05-03T09:40:05.001Z</time></trkpt><trkpt lat="41.93528164137118" lon="-3.284369692428278"><ele>1007.0</ele><time>2026-05-03T09:40:06.001Z</time></trkpt><trkpt lat="41.935177521805" lon="-3.2843291299609785"><ele>1007.0</ele><time>2026-05-03T09:40:07.001Z</time></trkpt><trkpt lat="41.93507410349768" lon="-3.2842920619032427"><ele>1007.0</ele><time>2026-05-03T09:40:08.001Z</time></trkpt><trkpt lat="41.93497185324531" lon="-3.2842529390582382"><ele>1007.0</ele><time>2026-05-03T09:40:09.001Z</time></trkpt><trkpt lat="41.93486825497783" lon="-3.2842145311705453"><ele>1006.4000000000001</ele><time>2026-05-03T09:40:10.001Z</time></trkpt><trkpt lat="41.93476446969275" lon="-3.284178989040659"><ele>1005.8000000000001</ele><time>2026-05-03T09:40:11.001Z</time></trkpt><trkpt lat="41.93466571742022" lon="-3.2841413779161286"><ele>1005.2</ele><time>2026-05-03T09:40:12.001Z</time></trkpt><trkpt lat="41.93456853894663" lon="-3.28410360256769"><ele>1004.6</ele><time>2026-05-03T09:40:13.001Z</time></trkpt><trkpt lat="41.934471657185505" lon="-3.284066799553388"><ele>1004.0</ele><time>2026-05-03T09:40:14.001Z</time></trkpt><trkpt lat="41.934378050867494" lon="-3.284028007041157"><ele>1004.0</ele><time>2026-05-03T09:40:15.001Z</time></trkpt><trkpt lat="41.93428516371441" lon="-3.2839920415254333"><ele>1004.0000000000001</ele><time>2026-05-03T09:40:16.001Z</time></trkpt><trkpt lat="41.934191451760164" lon="-3.2839551283056716"><ele>1004.0000000000001</ele><time>2026-05-03T09:40:17.001Z</time></trkpt><trkpt lat="41.93409867354104" lon="-3.283920221358976"><ele>1004.0</ele><time>2026-05-03T09:40:18.001Z</time></trkpt><trkpt lat="41.934004236285915" lon="-3.2838823565826845"><ele>1004.0</ele><time>2026-05-03T09:40:19.001Z</time></trkpt><trkpt lat="41.933912901430055" lon="-3.283845362288609"><ele>1004.8000000000001</ele><time>2026-05-03T09:40:20.001Z</time></trkpt><trkpt lat="41.93381907504568" lon="-3.28381226759702"><ele>1005.6000000000001</ele><time>2026-05-03T09:40:21.001Z</time></trkpt><trkpt lat="41.933727470538756" lon="-3.2837779391493673"><ele>1006.4</ele><time>2026-05-03T09:40:22.001Z</time></trkpt><trkpt lat="41.9336362582708" lon="-3.2837418328052634"><ele>1007.2</ele><time>2026-05-03T09:40:23.001Z</time></trkpt><trkpt lat="41.93354504850721" lon="-3.2837065255366564"><ele>1008.0</ele><time>2026-05-03T09:40:24.001Z</time></trkpt><trkpt lat="41.93345252203038" lon="-3.283671145780784"><ele>1009.4</ele><time>2026-05-03T09:40:25.001Z</time></trkpt><trkpt lat="41.93336142216874" lon="-3.283635932333594"><ele>1010.8</ele><time>2026-05-03T09:40:26.001Z</time></trkpt><trkpt lat="41.93327123210547" lon="-3.283599557268593"><ele>1012.2</ele><time>2026-05-03T09:40:27.001Z</time></trkpt><trkpt lat="41.93318147297848" lon="-3.2835645994068052"><ele>1013.6</ele><time>2026-05-03T09:40:28.001Z</time></trkpt><trkpt lat="41.93309101096709" lon="-3.2835300721155094"><ele>1015.0</ele><time>2026-05-03T09:40:29.001Z</time></trkpt><trkpt lat="41.93299924025694" lon="-3.2834964976144243"><ele>1015.0</ele><time>2026-05-03T09:40:30.001Z</time></trkpt><trkpt lat="41.932908322494974" lon="-3.283464266641714"><ele>1015.0</ele><time>2026-05-03T09:40:31.001Z</time></trkpt><trkpt lat="41.93281904102993" lon="-3.2834278393457943"><ele>1015.0</ele><time>2026-05-03T09:40:32.001Z</time></trkpt><trkpt lat="41.93272887328575" lon="-3.2833938276870573"><ele>1015.0</ele><time>2026-05-03T09:40:33.001Z</time></trkpt><trkpt lat="41.932639654292544" lon="-3.2833634257210336"><ele>1015.0</ele><time>2026-05-03T09:40:34.001Z</time></trkpt><trkpt lat="41.93254910082476" lon="-3.2833282704045716"><ele>1015.4</ele><time>2026-05-03T09:40:35.001Z</time></trkpt><trkpt lat="41.932460669673844" lon="-3.2832931172326556"><ele>1015.8</ele><time>2026-05-03T09:40:36.001Z</time></trkpt><trkpt lat="41.932370627512064" lon="-3.283257226522433"><ele>1016.2</ele><time>2026-05-03T09:40:37.001Z</time></trkpt><trkpt lat="41.93228013071887" lon="-3.2832232384014506"><ele>1016.6</ele><time>2026-05-03T09:40:38.001Z</time></trkpt><trkpt lat="41.93218956182556" lon="-3.283189895750145"><ele>1017.0</ele><time>2026-05-03T09:40:39.001Z</time></trkpt><trkpt lat="41.9320985312845" lon="-3.2831537065400873"><ele>1017.0</ele><time>2026-05-03T09:40:40.001Z</time></trkpt><trkpt lat="41.93200673819664" lon="-3.283118984642006"><ele>1017.0</ele><time>2026-05-03T09:40:41.001Z</time></trkpt><trkpt lat="41.931917144096964" lon="-3.28308244760503"><ele>1017.0</ele><time>2026-05-03T09:40:42.001Z</time></trkpt><trkpt lat="41.93182332095282" lon="-3.283049874735255"><ele>1017.0</ele><time>2026-05-03T09:40:43.001Z</time></trkpt><trkpt lat="41.93173173432096" lon="-3.2830173536002927"><ele>1017.0</ele><time>2026-05-03T09:40:44.001Z</time></trkpt><trkpt lat="41.931642756562944" lon="-3.282982711988259"><ele>1018.0</ele><time>2026-05-03T09:40:45.001Z</time></trkpt><trkpt lat="41.93155195143034" lon="-3.282950623018963"><ele>1019.0</ele><time>2026-05-03T09:40:46.001Z</time></trkpt><trkpt lat="41.93146237093126" lon="-3.2829153205089545"><ele>1020.0</ele><time>2026-05-03T09:40:47.001Z</time></trkpt><trkpt lat="41.93137191149989" lon="-3.282879344744595"><ele>1021.0</ele><time>2026-05-03T09:40:48.001Z</time></trkpt><trkpt lat="41.931282231620784" lon="-3.282846192466644"><ele>1022.0</ele><time>2026-05-03T09:40:49.001Z</time></trkpt><trkpt lat="41.9311931967062" lon="-3.2828123169382195"><ele>1022.0</ele><time>2026-05-03T09:40:50.001Z</time></trkpt><trkpt lat="41.93110313527856" lon="-3.282777781484812"><ele>1022.0</ele><time>2026-05-03T09:40:51.001Z</time></trkpt><trkpt lat="41.93101203298488" lon="-3.28274099725651"><ele>1022.0</ele><time>2026-05-03T09:40:52.001Z</time></trkpt><trkpt lat="41.93092342881723" lon="-3.2827087877055012"><ele>1022.0</ele><time>2026-05-03T09:40:53.001Z</time></trkpt><trkpt lat="41.93083523862668" lon="-3.2826742796327855"><ele>1022.0</ele><time>2026-05-03T09:40:54.001Z</time></trkpt><trkpt lat="41.93074467742487" lon="-3.282638503875287"><ele>1022.4000000000001</ele><time>2026-05-03T09:40:55.001Z</time></trkpt><trkpt lat="41.930651863535175" lon="-3.282608799361274"><ele>1022.8000000000001</ele><time>2026-05-03T09:40:56.001Z</time></trkpt><trkpt lat="41.93056428401559" lon="-3.2825739823914555"><ele>1023.2</ele><time>2026-05-03T09:40:57.001Z</time></trkpt><trkpt lat="41.930475920139465" lon="-3.2825401671442083"><ele>1023.6</ele><time>2026-05-03T09:40:58.001Z</time></trkpt><trkpt lat="41.93038317128292" lon="-3.2825057372410362"><ele>1024.0</ele><time>2026-05-03T09:40:59.001Z</time></trkpt><trkpt lat="41.93029522526736" lon="-3.282472648997654"><ele>1024.0</ele><time>2026-05-03T09:41:00.001Z</time></trkpt><trkpt lat="41.930206052536256" lon="-3.2824385034702748"><ele>1024.0</ele><time>2026-05-03T09:41:01.002Z</time></trkpt><trkpt lat="41.930117579380656" lon="-3.2824052048148378"><ele>1024.0</ele><time>2026-05-03T09:41:02.002Z</time></trkpt><trkpt lat="41.93002881341704" lon="-3.282372787617915"><ele>1024.0</ele><time>2026-05-03T09:41:03.002Z</time></trkpt><trkpt lat="41.92994234943107" lon="-3.282339737532854"><ele>1024.0</ele><time>2026-05-03T09:41:04.002Z</time></trkpt><trkpt lat="41.92985605631002" lon="-3.282304843404937"><ele>1024.3333333333333</ele><time>2026-05-03T09:41:05Z</time></trkpt><trkpt lat="41.9297699290007" lon="-3.2822724073437803"><ele>1024.6666666666665</ele><time>2026-05-03T09:41:06Z</time></trkpt><trkpt lat="41.929683390059125" lon="-3.282238997522205"><ele>1025.0</ele><time>2026-05-03T09:41:07Z</time></trkpt><trkpt lat="41.92959962468129" lon="-3.2822045473503882"><ele>1025.3333333333333</ele><time>2026-05-03T09:41:08Z</time></trkpt><trkpt lat="41.929514106621646" lon="-3.282165622927125"><ele>1025.6666666666667</ele><time>2026-05-03T09:41:09Z</time></trkpt><trkpt lat="41.9294320284804" lon="-3.28212761524774"><ele>1026.0</ele><time>2026-05-03T09:41:10Z</time></trkpt><trkpt lat="41.929349073251835" lon="-3.2820855990747435"><ele>1026.2</ele><time>2026-05-03T09:41:11Z</time></trkpt><trkpt lat="41.92926405750115" lon="-3.282044225260265"><ele>1026.3999999999999</ele><time>2026-05-03T09:41:12Z</time></trkpt><trkpt lat="41.92917715505168" lon="-3.281999558626969"><ele>1026.6</ele><time>2026-05-03T09:41:13Z</time></trkpt><trkpt lat="41.92909457414443" lon="-3.2819581494701917"><ele>1026.8</ele><time>2026-05-03T09:41:14Z</time></trkpt><trkpt lat="41.92900960755319" lon="-3.281915544823421"><ele>1027.0</ele><time>2026-05-03T09:41:15Z</time></trkpt><trkpt lat="41.92892500508365" lon="-3.281869895185817"><ele>1027.0</ele><time>2026-05-03T09:41:16Z</time></trkpt><trkpt lat="41.928840896482036" lon="-3.281824935699808"><ele>1027.0</ele><time>2026-05-03T09:41:17Z</time></trkpt><trkpt lat="41.92875859896297" lon="-3.2817753299548316"><ele>1027.0</ele><time>2026-05-03T09:41:18Z</time></trkpt><trkpt lat="41.928675640732976" lon="-3.281721525916193"><ele>1027.0</ele><time>2026-05-03T09:41:19Z</time></trkpt><trkpt lat="41.928592870635384" lon="-3.281673082694489"><ele>1027.0</ele><time>2026-05-03T09:41:20Z</time></trkpt><trkpt lat="41.928511009161376" lon="-3.281622294600808"><ele>1027.0</ele><time>2026-05-03T09:41:21Z</time></trkpt><trkpt lat="41.92843013373311" lon="-3.2815705258562775"><ele>1027.0</ele><time>2026-05-03T09:41:22Z</time></trkpt><trkpt lat="41.928349732339925" lon="-3.281517853675519"><ele>1027.0</ele><time>2026-05-03T09:41:23Z</time></trkpt><trkpt lat="41.92826797809951" lon="-3.281462967007811"><ele>1027.0</ele><time>2026-05-03T09:41:24Z</time></trkpt><trkpt lat="41.92818756892052" lon="-3.281406503142272"><ele>1027.0</ele><time>2026-05-03T09:41:25Z</time></trkpt><trkpt lat="41.92810699522505" lon="-3.2813467587820426"><ele>1028.8</ele><time>2026-05-03T09:41:26Z</time></trkpt><trkpt lat="41.92802814269371" lon="-3.281288342989916"><ele>1030.6</ele><time>2026-05-03T09:41:27Z</time></trkpt><trkpt lat="41.92794953894456" lon="-3.2812254478320813"><ele>1032.3999999999999</ele><time>2026-05-03T09:41:28Z</time></trkpt><trkpt lat="41.92786857617823" lon="-3.2811705363644137"><ele>1034.2</ele><time>2026-05-03T09:41:29Z</time></trkpt><trkpt lat="41.92778797997644" lon="-3.281116168000337"><ele>1036.0</ele><time>2026-05-03T09:41:30Z</time></trkpt><trkpt lat="41.92770614257607" lon="-3.281057183961276"><ele>1036.0</ele><time>2026-05-03T09:41:31Z</time></trkpt><trkpt lat="41.92762591902519" lon="-3.280995913933697"><ele>1036.0</ele><time>2026-05-03T09:41:32Z</time></trkpt><trkpt lat="41.92753585168285" lon="-3.280941190926143"><ele>1036.0</ele><time>2026-05-03T09:41:33Z</time></trkpt><trkpt lat="41.92746591639258" lon="-3.280870735834756"><ele>1036.0</ele><time>2026-05-03T09:41:34Z</time></trkpt><trkpt lat="41.927382716259295" lon="-3.28081006927087"><ele>1036.0</ele><time>2026-05-03T09:41:35Z</time></trkpt><trkpt lat="41.927295796839374" lon="-3.2807513075581474"><ele>1036.3999999999999</ele><time>2026-05-03T09:41:36Z</time></trkpt><trkpt lat="41.927211279831155" lon="-3.280692893749417"><ele>1036.8</ele><time>2026-05-03T09:41:37Z</time></trkpt><trkpt lat="41.927127802471595" lon="-3.2806326200466702"><ele>1037.1999999999998</ele><time>2026-05-03T09:41:38Z</time></trkpt><trkpt lat="41.92704515509027" lon="-3.2805683781308703"><ele>1037.6</ele><time>2026-05-03T09:41:39Z</time></trkpt><trkpt lat="41.926957478711245" lon="-3.2805063696048697"><ele>1038.0</ele><time>2026-05-03T09:41:40Z</time></trkpt><trkpt lat="41.92687104852744" lon="-3.28044495699609"><ele>1038.2</ele><time>2026-05-03T09:41:41Z</time></trkpt><trkpt lat="41.92678221584622" lon="-3.2803836707008327"><ele>1038.4</ele><time>2026-05-03T09:41:42Z</time></trkpt><trkpt lat="41.926692007930626" lon="-3.280321964611695"><ele>1038.6000000000001</ele><time>2026-05-03T09:41:43Z</time></trkpt><trkpt lat="41.92660276954876" lon="-3.2802670578119875"><ele>1038.8</ele><time>2026-05-03T09:41:44Z</time></trkpt><trkpt lat="41.92650887929016" lon="-3.2802083145731333"><ele>1039.0</ele><time>2026-05-03T09:41:45Z</time></trkpt><trkpt lat="41.92641707299531" lon="-3.2801488879599425"><ele>1038.2</ele><time>2026-05-03T09:41:46Z</time></trkpt><trkpt lat="41.92632113615973" lon="-3.280093821533129"><ele>1037.4</ele><time>2026-05-03T09:41:47Z</time></trkpt><trkpt lat="41.92622337704639" lon="-3.280036684364095"><ele>1036.6</ele><time>2026-05-03T09:41:48Z</time></trkpt><trkpt lat="41.926126306383395" lon="-3.279988390784542"><ele>1035.8</ele><time>2026-05-03T09:41:49.001Z</time></trkpt><trkpt lat="41.92602583264882" lon="-3.279936877361584"><ele>1035.0</ele><time>2026-05-03T09:41:50.001Z</time></trkpt><trkpt lat="41.92592519160446" lon="-3.2798838972013784"><ele>1034.6</ele><time>2026-05-03T09:41:51.001Z</time></trkpt><trkpt lat="41.92582343252784" lon="-3.279834293134925"><ele>1034.2</ele><time>2026-05-03T09:41:52.001Z</time></trkpt><trkpt lat="41.925718850064655" lon="-3.2797803718935157"><ele>1033.8</ele><time>2026-05-03T09:41:53.001Z</time></trkpt><trkpt lat="41.92561661113812" lon="-3.2797326757838197"><ele>1033.4</ele><time>2026-05-03T09:41:54.001Z</time></trkpt><trkpt lat="41.925513468236886" lon="-3.2796939912880885"><ele>1033.0</ele><time>2026-05-03T09:41:55.001Z</time></trkpt><trkpt lat="41.92540952734721" lon="-3.279646271735288"><ele>1033.0</ele><time>2026-05-03T09:41:56.001Z</time></trkpt><trkpt lat="41.92530651141091" lon="-3.279605104296073"><ele>1033.0</ele><time>2026-05-03T09:41:57.001Z</time></trkpt><trkpt lat="41.92520229081422" lon="-3.2795639525096876"><ele>1033.0</ele><time>2026-05-03T09:41:58.001Z</time></trkpt><trkpt lat="41.9250960407111" lon="-3.279524613178199"><ele>1033.0</ele><time>2026-05-03T09:41:59.001Z</time></trkpt><trkpt lat="41.924990882427714" lon="-3.2794872456451314"><ele>1033.0</ele><time>2026-05-03T09:42:00.001Z</time></trkpt><trkpt lat="41.9248848604507" lon="-3.2794528700232664"><ele>1033.0</ele><time>2026-05-03T09:42:01.001Z</time></trkpt><trkpt lat="41.924779367672976" lon="-3.279419578091002"><ele>1033.0</ele><time>2026-05-03T09:42:02.001Z</time></trkpt><trkpt lat="41.9246711684612" lon="-3.2793931473852855"><ele>1033.0</ele><time>2026-05-03T09:42:03.001Z</time></trkpt><trkpt lat="41.92455817943873" lon="-3.2793653621747243"><ele>1033.0</ele><time>2026-05-03T09:42:04.001Z</time></trkpt><trkpt lat="41.92445191170123" lon="-3.2793346963386774"><ele>1033.0</ele><time>2026-05-03T09:42:05.001Z</time></trkpt><trkpt lat="41.92435139850524" lon="-3.2793047213634794"><ele>1033.0</ele><time>2026-05-03T09:42:06.001Z</time></trkpt><trkpt lat="41.92424164973907" lon="-3.2792751838059595"><ele>1033.0</ele><time>2026-05-03T09:42:07.001Z</time></trkpt><trkpt lat="41.924140323571" lon="-3.279248670727482"><ele>1033.0</ele><time>2026-05-03T09:42:08.001Z</time></trkpt><trkpt lat="41.92407113298352" lon="-3.2792526793778634"><ele>1033.0</ele><time>2026-05-03T09:42:09.001Z</time></trkpt><trkpt lat="41.92396661666046" lon="-3.2792316224742777"><ele>1033.0</ele><time>2026-05-03T09:42:10.001Z</time></trkpt><trkpt lat="41.923802676072434" lon="-3.2791904986420266"><ele>1033.0</ele><time>2026-05-03T09:42:11.001Z</time></trkpt><trkpt lat="41.923693391987236" lon="-3.2791757546696556"><ele>1033.0</ele><time>2026-05-03T09:42:12.001Z</time></trkpt><trkpt lat="41.923581180054626" lon="-3.27916461065918"><ele>1033.0</ele><time>2026-05-03T09:42:13.001Z</time></trkpt><trkpt lat="41.92347361008071" lon="-3.2791538262394604"><ele>1033.0</ele><time>2026-05-03T09:42:14.001Z</time></trkpt><trkpt lat="41.92335795132851" lon="-3.2791443992784175"><ele>1033.0</ele><time>2026-05-03T09:42:15.001Z</time></trkpt><trkpt lat="41.923248136261215" lon="-3.2791339587071073"><ele>1033.0</ele><time>2026-05-03T09:42:16.001Z</time></trkpt><trkpt lat="41.923136076692494" lon="-3.2791270075281833"><ele>1033.0</ele><time>2026-05-03T09:42:17.001Z</time></trkpt><trkpt lat="41.9230262418689" lon="-3.279121470724948"><ele>1033.0</ele><time>2026-05-03T09:42:18.001Z</time></trkpt><trkpt lat="41.92291196116819" lon="-3.2791209390027163"><ele>1033.0</ele><time>2026-05-03T09:42:19.001Z</time></trkpt><trkpt lat="41.92280137424993" lon="-3.279124618718892"><ele>1033.0</ele><time>2026-05-03T09:42:20.001Z</time></trkpt><trkpt lat="41.92268880927838" lon="-3.27911852374115"><ele>1033.0</ele><time>2026-05-03T09:42:21.001Z</time></trkpt><trkpt lat="41.92257724367829" lon="-3.2791202259992054"><ele>1033.0</ele><time>2026-05-03T09:42:22.001Z</time></trkpt><trkpt lat="41.92246453166363" lon="-3.2791224353500086"><ele>1033.0</ele><time>2026-05-03T09:42:23.001Z</time></trkpt><trkpt lat="41.92235403913946" lon="-3.2791269132395375"><ele>1033.0</ele><time>2026-05-03T09:42:24.001Z</time></trkpt><trkpt lat="41.92224384334937" lon="-3.279136418474988"><ele>1033.0</ele><time>2026-05-03T09:42:25.001Z</time></trkpt><trkpt lat="41.92213224519309" lon="-3.279146741648549"><ele>1032.8</ele><time>2026-05-03T09:42:26.001Z</time></trkpt><trkpt lat="41.92202157765395" lon="-3.279157341884057"><ele>1032.6</ele><time>2026-05-03T09:42:27.001Z</time></trkpt><trkpt lat="41.9219114677197" lon="-3.279171717570382"><ele>1032.4</ele><time>2026-05-03T09:42:28.001Z</time></trkpt><trkpt lat="41.921800955229514" lon="-3.2791860198835794"><ele>1032.2</ele><time>2026-05-03T09:42:29.001Z</time></trkpt><trkpt lat="41.921693657158954" lon="-3.2791981110342863"><ele>1032.0</ele><time>2026-05-03T09:42:30.001Z</time></trkpt><trkpt lat="41.921589011218884" lon="-3.279209804760324"><ele>1031.6</ele><time>2026-05-03T09:42:31.001Z</time></trkpt><trkpt lat="41.92148206176789" lon="-3.2792222010368093"><ele>1031.2</ele><time>2026-05-03T09:42:32.001Z</time></trkpt><trkpt lat="41.92137331162716" lon="-3.2792380174546136"><ele>1030.8</ele><time>2026-05-03T09:42:33.001Z</time></trkpt><trkpt lat="41.92126505578349" lon="-3.2792527681568315"><ele>1030.4</ele><time>2026-05-03T09:42:34.001Z</time></trkpt><trkpt lat="41.9211569357062" lon="-3.279265708401877"><ele>1030.0</ele><time>2026-05-03T09:42:35.001Z</time></trkpt><trkpt lat="41.921051681083966" lon="-3.2792793283105017"><ele>1030.0</ele><time>2026-05-03T09:42:36.001Z</time></trkpt><trkpt lat="41.920946986556544" lon="-3.2792917581635637"><ele>1030.0</ele><time>2026-05-03T09:42:37.001Z</time></trkpt><trkpt lat="41.92083999077187" lon="-3.2793035843691083"><ele>1030.0</ele><time>2026-05-03T09:42:38.001Z</time></trkpt><trkpt lat="41.920730573299764" lon="-3.2793150665917246"><ele>1030.0</ele><time>2026-05-03T09:42:39.001Z</time></trkpt><trkpt lat="41.92062370956081" lon="-3.2793274562979873"><ele>1030.0</ele><time>2026-05-03T09:42:40.001Z</time></trkpt><trkpt lat="41.920517107234865" lon="-3.2793395323360373"><ele>1029.8</ele><time>2026-05-03T09:42:41.001Z</time></trkpt><trkpt lat="41.92040959667294" lon="-3.279351466536702"><ele>1029.6</ele><time>2026-05-03T09:42:42.001Z</time></trkpt><trkpt lat="41.92030013690756" lon="-3.27936304194227"><ele>1029.4</ele><time>2026-05-03T09:42:43.001Z</time></trkpt><trkpt lat="41.9201936677696" lon="-3.2793760049435177"><ele>1029.2</ele><time>2026-05-03T09:42:44.001Z</time></trkpt><trkpt lat="41.920086542573735" lon="-3.2793881783930883"><ele>1029.0</ele><time>2026-05-03T09:42:45.001Z</time></trkpt><trkpt lat="41.91997959869167" lon="-3.279401777062031"><ele>1030.4</ele><time>2026-05-03T09:42:46.001Z</time></trkpt><trkpt lat="41.91987381085157" lon="-3.279412108396812"><ele>1031.8000000000002</ele><time>2026-05-03T09:42:47.001Z</time></trkpt><trkpt lat="41.919771592491394" lon="-3.2794247641533096"><ele>1033.1999999999998</ele><time>2026-05-03T09:42:48.001Z</time></trkpt><trkpt lat="41.91966605575407" lon="-3.27943680310643"><ele>1034.6</ele><time>2026-05-03T09:42:49.001Z</time></trkpt><trkpt lat="41.91955874398753" lon="-3.2794508789718586"><ele>1036.0</ele><time>2026-05-03T09:42:50.001Z</time></trkpt><trkpt lat="41.919455903943245" lon="-3.2794612557995095"><ele>1036.0</ele><time>2026-05-03T09:42:51.001Z</time></trkpt><trkpt lat="41.91934968446613" lon="-3.279469682006007"><ele>1036.0</ele><time>2026-05-03T09:42:52.001Z</time></trkpt><trkpt lat="41.91924428770725" lon="-3.2794771537227874"><ele>1036.0</ele><time>2026-05-03T09:42:53.002Z</time></trkpt><trkpt lat="41.919140086706456" lon="-3.27948204270985"><ele>1036.0</ele><time>2026-05-03T09:42:54.002Z</time></trkpt><trkpt lat="41.919040424727" lon="-3.2794866685347044"><ele>1036.0</ele><time>2026-05-03T09:42:55.002Z</time></trkpt><trkpt lat="41.918939259969946" lon="-3.279492095044769"><ele>1035.3999999999999</ele><time>2026-05-03T09:42:56.002Z</time></trkpt><trkpt lat="41.91883656818193" lon="-3.2794958898903914"><ele>1034.8</ele><time>2026-05-03T09:42:57.002Z</time></trkpt><trkpt lat="41.918735992473614" lon="-3.279499395562988"><ele>1034.1999999999998</ele><time>2026-05-03T09:42:58.002Z</time></trkpt><trkpt lat="41.91863727565753" lon="-3.2795028487816134"><ele>1033.6</ele><time>2026-05-03T09:42:59.002Z</time></trkpt><trkpt lat="41.918540170523485" lon="-3.2795037288318523"><ele>1033.0</ele><time>2026-05-03T09:43:00.002Z</time></trkpt><trkpt lat="41.918443551504026" lon="-3.2795070208967063"><ele>1035.0</ele><time>2026-05-03T09:43:01.002Z</time></trkpt><trkpt lat="41.91834821157982" lon="-3.279508565683405"><ele>1037.0</ele><time>2026-05-03T09:43:02.002Z</time></trkpt><trkpt lat="41.91825753256225" lon="-3.2795047671874538"><ele>1039.0</ele><time>2026-05-03T09:43:03.002Z</time></trkpt><trkpt lat="41.91816360501268" lon="-3.279504802751397"><ele>1041.0</ele><time>2026-05-03T09:43:04.002Z</time></trkpt><trkpt lat="41.9180733720231" lon="-3.279507046642683"><ele>1043.0</ele><time>2026-05-03T09:43:05.002Z</time></trkpt><trkpt lat="41.91798490319802" lon="-3.279501745803629"><ele>1043.0</ele><time>2026-05-03T09:43:06.002Z</time></trkpt><trkpt lat="41.91789793902695" lon="-3.279496045044661"><ele>1043.0</ele><time>2026-05-03T09:43:07.002Z</time></trkpt><trkpt lat="41.917813031716236" lon="-3.279493202774501"><ele>1043.0</ele><time>2026-05-03T09:43:08.002Z</time></trkpt><trkpt lat="41.91772982625176" lon="-3.2794917948953035"><ele>1043.0</ele><time>2026-05-03T09:43:09.002Z</time></trkpt><trkpt lat="41.91764711442173" lon="-3.2794855683571527"><ele>1043.0</ele><time>2026-05-03T09:43:10.002Z</time></trkpt><trkpt lat="41.9175668811973" lon="-3.2794813753664966"><ele>1043.0</ele><time>2026-05-03T09:43:11Z</time></trkpt><trkpt lat="41.917486038234046" lon="-3.2794746614297847"><ele>1043.8333333333335</ele><time>2026-05-03T09:43:12Z</time></trkpt><trkpt lat="41.91740601586906" lon="-3.2794735161505133"><ele>1044.6666666666667</ele><time>2026-05-03T09:43:13Z</time></trkpt><trkpt lat="41.91732529491447" lon="-3.279468644746743"><ele>1045.5</ele><time>2026-05-03T09:43:14Z</time></trkpt><trkpt lat="41.917245833490846" lon="-3.2794638059017864"><ele>1046.3333333333333</ele><time>2026-05-03T09:43:15Z</time></trkpt><trkpt lat="41.9171639466577" lon="-3.2794576237955697"><ele>1047.1666666666665</ele><time>2026-05-03T09:43:16Z</time></trkpt><trkpt lat="41.917084400110475" lon="-3.2794523733239704"><ele>1048.0</ele><time>2026-05-03T09:43:17Z</time></trkpt><trkpt lat="41.91700226548661" lon="-3.2794424941872675"><ele>1048.0</ele><time>2026-05-03T09:43:18Z</time></trkpt><trkpt lat="41.91692248910538" lon="-3.27944120889122"><ele>1048.0</ele><time>2026-05-03T09:43:19Z</time></trkpt><trkpt lat="41.91684114368323" lon="-3.279435048250988"><ele>1048.0</ele><time>2026-05-03T09:43:20Z</time></trkpt><trkpt lat="41.9167612184018" lon="-3.2794293904493608"><ele>1048.0</ele><time>2026-05-03T09:43:21Z</time></trkpt><trkpt lat="41.916677341096985" lon="-3.2794216044108806"><ele>1048.0</ele><time>2026-05-03T09:43:22Z</time></trkpt><trkpt lat="41.916593283171125" lon="-3.279414825096848"><ele>1048.0</ele><time>2026-05-03T09:43:23Z</time></trkpt><trkpt lat="41.91651011484071" lon="-3.2794065021404473"><ele>1048.8333333333333</ele><time>2026-05-03T09:43:24Z</time></trkpt><trkpt lat="41.916426777835" lon="-3.279393915412647"><ele>1049.6666666666665</ele><time>2026-05-03T09:43:25Z</time></trkpt><trkpt lat="41.91634416232291" lon="-3.2793856906765373"><ele>1050.5</ele><time>2026-05-03T09:43:26Z</time></trkpt><trkpt lat="41.916256022530774" lon="-3.2793666242296067"><ele>1051.3333333333333</ele><time>2026-05-03T09:43:27Z</time></trkpt><trkpt lat="41.916171113760534" lon="-3.2793462389210175"><ele>1052.1666666666667</ele><time>2026-05-03T09:43:28Z</time></trkpt><trkpt lat="41.91608514353663" lon="-3.2793275660999837"><ele>1053.0</ele><time>2026-05-03T09:43:29Z</time></trkpt><trkpt lat="41.916001638425485" lon="-3.279299913316043"><ele>1053.0</ele><time>2026-05-03T09:43:30Z</time></trkpt><trkpt lat="41.91591439920762" lon="-3.279263933319606"><ele>1053.0</ele><time>2026-05-03T09:43:31Z</time></trkpt><trkpt lat="41.91582515000999" lon="-3.2792364005403067"><ele>1053.0</ele><time>2026-05-03T09:43:32Z</time></trkpt><trkpt lat="41.915737836236865" lon="-3.2791966400622035"><ele>1053.0</ele><time>2026-05-03T09:43:33Z</time></trkpt><trkpt lat="41.915651854593634" lon="-3.279146209559493"><ele>1053.0</ele><time>2026-05-03T09:43:34Z</time></trkpt><trkpt lat="41.91557398471106" lon="-3.279097883762606"><ele>1053.0</ele><time>2026-05-03T09:43:35Z</time></trkpt><trkpt lat="41.91548970138767" lon="-3.279038673428722"><ele>1053.0</ele><time>2026-05-03T09:43:36Z</time></trkpt><trkpt lat="41.91540232265056" lon="-3.278972852656634"><ele>1053.0</ele><time>2026-05-03T09:43:37Z</time></trkpt><trkpt lat="41.915317048381105" lon="-3.278907523776808"><ele>1053.0</ele><time>2026-05-03T09:43:38Z</time></trkpt><trkpt lat="41.91523469785649" lon="-3.278835949909397"><ele>1053.0</ele><time>2026-05-03T09:43:39Z</time></trkpt><trkpt lat="41.91515380893994" lon="-3.2787590251671146"><ele>1052.6</ele><time>2026-05-03T09:43:40Z</time></trkpt><trkpt lat="41.91507080697018" lon="-3.2786768999037523"><ele>1052.1999999999998</ele><time>2026-05-03T09:43:41Z</time></trkpt><trkpt lat="41.914990384716575" lon="-3.2785834840166705"><ele>1051.8</ele><time>2026-05-03T09:43:42Z</time></trkpt><trkpt lat="41.91491345310559" lon="-3.2784871537236917"><ele>1051.3999999999999</ele><time>2026-05-03T09:43:43Z</time></trkpt><trkpt lat="41.91483830488945" lon="-3.278388736157054"><ele>1051.0</ele><time>2026-05-03T09:43:44Z</time></trkpt><trkpt lat="41.91476324335056" lon="-3.278285458299575"><ele>1050.6</ele><time>2026-05-03T09:43:45Z</time></trkpt><trkpt lat="41.91468978916917" lon="-3.278187186684042"><ele>1050.1999999999998</ele><time>2026-05-03T09:43:46Z</time></trkpt><trkpt lat="41.91461865464459" lon="-3.2780845239515015"><ele>1049.8000000000002</ele><time>2026-05-03T09:43:47Z</time></trkpt><trkpt lat="41.91454587311666" lon="-3.277977044835549"><ele>1049.4</ele><time>2026-05-03T09:43:48Z</time></trkpt><trkpt lat="41.91447119763352" lon="-3.277874869229271"><ele>1049.0</ele><time>2026-05-03T09:43:49Z</time></trkpt><trkpt lat="41.9144000148311" lon="-3.2777716788742275"><ele>1049.4</ele><time>2026-05-03T09:43:50Z</time></trkpt><trkpt lat="41.914328416878845" lon="-3.2776614289843047"><ele>1049.8000000000002</ele><time>2026-05-03T09:43:51Z</time></trkpt><trkpt lat="41.9142562047043" lon="-3.277551653058664"><ele>1050.1999999999998</ele><time>2026-05-03T09:43:52Z</time></trkpt><trkpt lat="41.91418461568587" lon="-3.2774461827767727"><ele>1050.6</ele><time>2026-05-03T09:43:53Z</time></trkpt><trkpt lat="41.91411290530183" lon="-3.277340323642588"><ele>1051.0</ele><time>2026-05-03T09:43:54Z</time></trkpt><trkpt lat="41.914042355700055" lon="-3.277235615065371"><ele>1051.8</ele><time>2026-05-03T09:43:55Z</time></trkpt><trkpt lat="41.91397204324698" lon="-3.277124523828545"><ele>1052.6</ele><time>2026-05-03T09:43:56.001Z</time></trkpt><trkpt lat="41.91389905528057" lon="-3.2770207865158043"><ele>1053.4</ele><time>2026-05-03T09:43:57.001Z</time></trkpt><trkpt lat="41.913826082178026" lon="-3.2769145607761967"><ele>1054.2</ele><time>2026-05-03T09:43:58.001Z</time></trkpt><trkpt lat="41.91375287382282" lon="-3.2768144839119966"><ele>1055.0</ele><time>2026-05-03T09:43:59.001Z</time></trkpt><trkpt lat="41.913680557086074" lon="-3.2767087561202115"><ele>1055.0</ele><time>2026-05-03T09:44:00.001Z</time></trkpt><trkpt lat="41.91360778040547" lon="-3.2766049442652148"><ele>1055.0</ele><time>2026-05-03T09:44:01.001Z</time></trkpt><trkpt lat="41.91353640081081" lon="-3.2764973131093758"><ele>1055.0</ele><time>2026-05-03T09:44:02.001Z</time></trkpt><trkpt lat="41.91346443623884" lon="-3.2763914345802156"><ele>1055.0</ele><time>2026-05-03T09:44:03.001Z</time></trkpt><trkpt lat="41.913390894893574" lon="-3.2762901658454675"><ele>1055.0</ele><time>2026-05-03T09:44:04.001Z</time></trkpt><trkpt lat="41.913316881743185" lon="-3.2761857358092024"><ele>1055.4</ele><time>2026-05-03T09:44:05.001Z</time></trkpt><trkpt lat="41.913238220635954" lon="-3.2760919126218964"><ele>1055.8</ele><time>2026-05-03T09:44:06.001Z</time></trkpt><trkpt lat="41.91316041257781" lon="-3.2759929481070036"><ele>1056.2</ele><time>2026-05-03T09:44:07.001Z</time></trkpt><trkpt lat="41.913076959047594" lon="-3.275901438796118"><ele>1056.6</ele><time>2026-05-03T09:44:08.001Z</time></trkpt><trkpt lat="41.912993467578936" lon="-3.2758159007952465"><ele>1057.0</ele><time>2026-05-03T09:44:09.001Z</time></trkpt><trkpt lat="41.91290496395426" lon="-3.275735261522495"><ele>1057.0</ele><time>2026-05-03T09:44:10.001Z</time></trkpt><trkpt lat="41.912813760342836" lon="-3.275659577038426"><ele>1057.0</ele><time>2026-05-03T09:44:11.001Z</time></trkpt><trkpt lat="41.91272100331582" lon="-3.2755900155303137"><ele>1057.0</ele><time>2026-05-03T09:44:12.001Z</time></trkpt><trkpt lat="41.91262532014332" lon="-3.2755234571338026"><ele>1057.0</ele><time>2026-05-03T09:44:13.001Z</time></trkpt><trkpt lat="41.91252679450566" lon="-3.275465694642343"><ele>1057.0</ele><time>2026-05-03T09:44:14.001Z</time></trkpt><trkpt lat="41.912428886246346" lon="-3.2754128936866187"><ele>1056.8</ele><time>2026-05-03T09:44:15.001Z</time></trkpt><trkpt lat="41.91232505286595" lon="-3.2753651096524363"><ele>1056.6</ele><time>2026-05-03T09:44:16.001Z</time></trkpt><trkpt lat="41.91222158315947" lon="-3.2753265754633794"><ele>1056.3999999999999</ele><time>2026-05-03T09:44:17.001Z</time></trkpt><trkpt lat="41.912117766859986" lon="-3.275294088588265"><ele>1056.2</ele><time>2026-05-03T09:44:18.001Z</time></trkpt><trkpt lat="41.9120155204079" lon="-3.2752653014920585"><ele>1056.0</ele><time>2026-05-03T09:44:19.001Z</time></trkpt><trkpt lat="41.91191005667981" lon="-3.275245080448446"><ele>1056.0</ele><time>2026-05-03T09:44:20.001Z</time></trkpt><trkpt lat="41.91180363158109" lon="-3.275233947786367"><ele>1056.0</ele><time>2026-05-03T09:44:21.001Z</time></trkpt><trkpt lat="41.911697670057855" lon="-3.2752280765443733"><ele>1056.0</ele><time>2026-05-03T09:44:22.001Z</time></trkpt><trkpt lat="41.91159017780968" lon="-3.2752272880426503"><ele>1056.0</ele><time>2026-05-03T09:44:23.001Z</time></trkpt><trkpt lat="41.91148631015931" lon="-3.2752366480791633"><ele>1056.0</ele><time>2026-05-03T09:44:24.001Z</time></trkpt><trkpt lat="41.91138393391365" lon="-3.275254193560164"><ele>1056.3999999999999</ele><time>2026-05-03T09:44:25.001Z</time></trkpt><trkpt lat="41.911274503260366" lon="-3.2752724045247956"><ele>1056.8</ele><time>2026-05-03T09:44:26.001Z</time></trkpt><trkpt lat="41.911171637203715" lon="-3.2752978355526876"><ele>1057.1999999999998</ele><time>2026-05-03T09:44:27.001Z</time></trkpt><trkpt lat="41.91107004381962" lon="-3.2753232393540315"><ele>1057.6</ele><time>2026-05-03T09:44:28.001Z</time></trkpt><trkpt lat="41.910966808384174" lon="-3.275348127043236"><ele>1058.0</ele><time>2026-05-03T09:44:29.001Z</time></trkpt><trkpt lat="41.91086132933111" lon="-3.2753764925685664"><ele>1058.2</ele><time>2026-05-03T09:44:30.001Z</time></trkpt><trkpt lat="41.91076151848136" lon="-3.275406848501769"><ele>1058.4</ele><time>2026-05-03T09:44:31.001Z</time></trkpt><trkpt lat="41.91066030611829" lon="-3.2754377702755635"><ele>1058.6000000000001</ele><time>2026-05-03T09:44:32.001Z</time></trkpt><trkpt lat="41.910556559957286" lon="-3.275468376210882"><ele>1058.8</ele><time>2026-05-03T09:44:33.001Z</time></trkpt><trkpt lat="41.91045649635541" lon="-3.2755016883817136"><ele>1059.0</ele><time>2026-05-03T09:44:34.001Z</time></trkpt><trkpt lat="41.910356546060555" lon="-3.2755349155012254"><ele>1059.0</ele><time>2026-05-03T09:44:35.001Z</time></trkpt><trkpt lat="41.910256733597215" lon="-3.275567309689492"><ele>1059.0</ele><time>2026-05-03T09:44:36.001Z</time></trkpt><trkpt lat="41.91015638685922" lon="-3.275596818964535"><ele>1059.0</ele><time>2026-05-03T09:44:37.001Z</time></trkpt><trkpt lat="41.91005531018226" lon="-3.275626172916843"><ele>1059.0</ele><time>2026-05-03T09:44:38.001Z</time></trkpt><trkpt lat="41.90995440299781" lon="-3.2756565129832564"><ele>1059.0</ele><time>2026-05-03T09:44:39.001Z</time></trkpt><trkpt lat="41.909854667614795" lon="-3.275686693668359"><ele>1060.6000000000001</ele><time>2026-05-03T09:44:40.001Z</time></trkpt><trkpt lat="41.90975277602706" lon="-3.2757157490484867"><ele>1062.2</ele><time>2026-05-03T09:44:41.001Z</time></trkpt><trkpt lat="41.909653042504154" lon="-3.275746891125647"><ele>1063.8000000000002</ele><time>2026-05-03T09:44:42.001Z</time></trkpt><trkpt lat="41.909553161942135" lon="-3.275776919735663"><ele>1065.4</ele><time>2026-05-03T09:44:43.001Z</time></trkpt><trkpt lat="41.9094521154936" lon="-3.2758105850517856"><ele>1067.0</ele><time>2026-05-03T09:44:44.001Z</time></trkpt><trkpt lat="41.90935109590292" lon="-3.2758431854458876"><ele>1067.0</ele><time>2026-05-03T09:44:45.001Z</time></trkpt><trkpt lat="41.90925004756649" lon="-3.2758788897725757"><ele>1067.0</ele><time>2026-05-03T09:44:46.001Z</time></trkpt><trkpt lat="41.90915046825194" lon="-3.2759079768826784"><ele>1067.0</ele><time>2026-05-03T09:44:47.001Z</time></trkpt><trkpt lat="41.909048122086624" lon="-3.275940549514131"><ele>1067.0</ele><time>2026-05-03T09:44:48.001Z</time></trkpt><trkpt lat="41.908949614768254" lon="-3.275972182111772"><ele>1067.0</ele><time>2026-05-03T09:44:49.001Z</time></trkpt><trkpt lat="41.90884833057801" lon="-3.276003576426923"><ele>1066.8</ele><time>2026-05-03T09:44:50.001Z</time></trkpt><trkpt lat="41.90874805157233" lon="-3.2760329525844076"><ele>1066.6</ele><time>2026-05-03T09:44:51.001Z</time></trkpt><trkpt lat="41.908649892928814" lon="-3.2760602072229266"><ele>1066.3999999999999</ele><time>2026-05-03T09:44:52.001Z</time></trkpt><trkpt lat="41.9085539049447" lon="-3.2760937614898102"><ele>1066.2</ele><time>2026-05-03T09:44:53.001Z</time></trkpt><trkpt lat="41.90846042499993" lon="-3.2761199561045324"><ele>1066.0</ele><time>2026-05-03T09:44:54.001Z</time></trkpt><trkpt lat="41.908366665375226" lon="-3.276150375581979"><ele>1067.0</ele><time>2026-05-03T09:44:55.001Z</time></trkpt><trkpt lat="41.90827284251676" lon="-3.276181063583297"><ele>1068.0</ele><time>2026-05-03T09:44:56.001Z</time></trkpt><trkpt lat="41.90818703889232" lon="-3.276201537525624"><ele>1069.0</ele><time>2026-05-03T09:44:57.001Z</time></trkpt><trkpt lat="41.90809335742979" lon="-3.2762283171559643"><ele>1070.0</ele><time>2026-05-03T09:44:58.001Z</time></trkpt><trkpt lat="41.90800188985821" lon="-3.276257058570064"><ele>1071.0</ele><time>2026-05-03T09:44:59.001Z</time></trkpt><trkpt lat="41.907912615194256" lon="-3.2762809019198027"><ele>1071.0</ele><time>2026-05-03T09:45:00.001Z</time></trkpt><trkpt lat="41.9078246947761" lon="-3.2763104513732557"><ele>1071.0</ele><time>2026-05-03T09:45:01.001Z</time></trkpt><trkpt lat="41.9077369618597" lon="-3.2763341010952423"><ele>1071.0</ele><time>2026-05-03T09:45:02.002Z</time></trkpt><trkpt lat="41.90764962636958" lon="-3.2763679946153825"><ele>1071.0</ele><time>2026-05-03T09:45:03.002Z</time></trkpt><trkpt lat="41.907561397792364" lon="-3.2763945698734642"><ele>1071.0</ele><time>2026-05-03T09:45:04.002Z</time></trkpt><trkpt lat="41.90747213507869" lon="-3.276424523868316"><ele>1071.2</ele><time>2026-05-03T09:45:05.002Z</time></trkpt><trkpt lat="41.90738269569615" lon="-3.2764518600198316"><ele>1071.3999999999999</ele><time>2026-05-03T09:45:06.002Z</time></trkpt><trkpt lat="41.90729678997913" lon="-3.2764792458884995"><ele>1071.6</ele><time>2026-05-03T09:45:07.002Z</time></trkpt><trkpt lat="41.90720753510488" lon="-3.2765075367546297"><ele>1071.8</ele><time>2026-05-03T09:45:08.002Z</time></trkpt><trkpt lat="41.907115432670025" lon="-3.276532744302249"><ele>1072.0</ele><time>2026-05-03T09:45:09.002Z</time></trkpt><trkpt lat="41.907026956428204" lon="-3.2765599139633075"><ele>1072.0</ele><time>2026-05-03T09:45:10.002Z</time></trkpt><trkpt lat="41.906937752779456" lon="-3.2765825843232497"><ele>1072.0</ele><time>2026-05-03T09:45:11.002Z</time></trkpt><trkpt lat="41.90684775296564" lon="-3.2765981678565312"><ele>1072.0</ele><time>2026-05-03T09:45:12.002Z</time></trkpt><trkpt lat="41.906755525392306" lon="-3.276610364256645"><ele>1072.0</ele><time>2026-05-03T09:45:13.002Z</time></trkpt><trkpt lat="41.90666358731712" lon="-3.2766187289686624"><ele>1072.0</ele><time>2026-05-03T09:45:14.002Z</time></trkpt><trkpt lat="41.906571532994874" lon="-3.2766240301787626"><ele>1072.6</ele><time>2026-05-03T09:45:15.002Z</time></trkpt><trkpt lat="41.90647990225573" lon="-3.2766199991527287"><ele>1073.2</ele><time>2026-05-03T09:45:16.002Z</time></trkpt><trkpt lat="41.9063897451943" lon="-3.2766080150193346"><ele>1073.8</ele><time>2026-05-03T09:45:17Z</time></trkpt><trkpt lat="41.906298639540445" lon="-3.2765925057070744"><ele>1074.4</ele><time>2026-05-03T09:45:18Z</time></trkpt><trkpt lat="41.906207043182654" lon="-3.2765733145752636"><ele>1075.0</ele><time>2026-05-03T09:45:19Z</time></trkpt><trkpt lat="41.90611546635519" lon="-3.2765510678865013"><ele>1075.0</ele><time>2026-05-03T09:45:20Z</time></trkpt><trkpt lat="41.906025932406244" lon="-3.2765260045008064"><ele>1075.0</ele><time>2026-05-03T09:45:21Z</time></trkpt><trkpt lat="41.90593551691084" lon="-3.2764984227093947"><ele>1075.0</ele><time>2026-05-03T09:45:22Z</time></trkpt><trkpt lat="41.90584702844728" lon="-3.276464794621495"><ele>1075.0</ele><time>2026-05-03T09:45:23Z</time></trkpt><trkpt lat="41.905760712625224" lon="-3.2764213032751015"><ele>1075.0</ele><time>2026-05-03T09:45:24Z</time></trkpt><trkpt lat="41.90567483628581" lon="-3.2763758180682743"><ele>1074.0</ele><time>2026-05-03T09:45:25Z</time></trkpt><trkpt lat="41.90558926000932" lon="-3.2763256193459265"><ele>1073.0</ele><time>2026-05-03T09:45:26Z</time></trkpt><trkpt lat="41.90550766793455" lon="-3.276269350492946"><ele>1072.0</ele><time>2026-05-03T09:45:27Z</time></trkpt><trkpt lat="41.90542559240443" lon="-3.276208471759903"><ele>1071.0</ele><time>2026-05-03T09:45:28Z</time></trkpt><trkpt lat="41.905342639932876" lon="-3.276145101789774"><ele>1070.0</ele><time>2026-05-03T09:45:29Z</time></trkpt><trkpt lat="41.905264279811796" lon="-3.2760788308214455"><ele>1070.0</ele><time>2026-05-03T09:45:30Z</time></trkpt><trkpt lat="41.90519098755407" lon="-3.2760077051675682"><ele>1070.0</ele><time>2026-05-03T09:45:31Z</time></trkpt><trkpt lat="41.90511665964652" lon="-3.2759302083375625"><ele>1070.0</ele><time>2026-05-03T09:45:32Z</time></trkpt><trkpt lat="41.90504417795733" lon="-3.275849356862351"><ele>1070.0</ele><time>2026-05-03T09:45:33Z</time></trkpt><trkpt lat="41.9049727195703" lon="-3.2757660015933294"><ele>1070.0</ele><time>2026-05-03T09:45:34Z</time></trkpt><trkpt lat="41.90490113847014" lon="-3.275679514629814"><ele>1069.6</ele><time>2026-05-03T09:45:35Z</time></trkpt><trkpt lat="41.904830914973665" lon="-3.2755916633680773"><ele>1069.2</ele><time>2026-05-03T09:45:36Z</time></trkpt><trkpt lat="41.90476546822589" lon="-3.275503551497538"><ele>1068.8</ele><time>2026-05-03T09:45:37Z</time></trkpt><trkpt lat="41.90469592092525" lon="-3.2754172412883458"><ele>1068.4</ele><time>2026-05-03T09:45:38Z</time></trkpt><trkpt lat="41.90463342413232" lon="-3.2753292770499507"><ele>1068.0</ele><time>2026-05-03T09:45:39Z</time></trkpt><trkpt lat="41.90456893070214" lon="-3.2752375801299154"><ele>1068.0</ele><time>2026-05-03T09:45:40Z</time></trkpt><trkpt lat="41.9045038745254" lon="-3.275146381947302"><ele>1068.0</ele><time>2026-05-03T09:45:41Z</time></trkpt><trkpt lat="41.904440420798956" lon="-3.2750558176300197"><ele>1068.0</ele><time>2026-05-03T09:45:42Z</time></trkpt><trkpt lat="41.90437752189683" lon="-3.274967505107114"><ele>1068.0</ele><time>2026-05-03T09:45:43Z</time></trkpt><trkpt lat="41.904313961625654" lon="-3.274880145272624"><ele>1068.0</ele><time>2026-05-03T09:45:44Z</time></trkpt><trkpt lat="41.9042539669008" lon="-3.2747925231065533"><ele>1069.8333333333333</ele><time>2026-05-03T09:45:45Z</time></trkpt><trkpt lat="41.90419293879466" lon="-3.2747062295877236"><ele>1071.6666666666667</ele><time>2026-05-03T09:45:46Z</time></trkpt><trkpt lat="41.904133989527544" lon="-3.2746215247240915"><ele>1073.5</ele><time>2026-05-03T09:45:47Z</time></trkpt><trkpt lat="41.90407249777662" lon="-3.2745376683534544"><ele>1075.3333333333335</ele><time>2026-05-03T09:45:48Z</time></trkpt><trkpt lat="41.90401211925193" lon="-3.274455202967747"><ele>1077.1666666666667</ele><time>2026-05-03T09:45:49Z</time></trkpt><trkpt lat="41.90395403730507" lon="-3.274372411010269"><ele>1079.0</ele><time>2026-05-03T09:45:50Z</time></trkpt><trkpt lat="41.903897498435065" lon="-3.2742912095731898"><ele>1079.0</ele><time>2026-05-03T09:45:51Z</time></trkpt><trkpt lat="41.90384045999667" lon="-3.274211310256304"><ele>1079.0</ele><time>2026-05-03T09:45:52Z</time></trkpt><trkpt lat="41.90378301435091" lon="-3.2741298647957584"><ele>1079.0</ele><time>2026-05-03T09:45:53Z</time></trkpt><trkpt lat="41.903724362632865" lon="-3.274049927774953"><ele>1079.0</ele><time>2026-05-03T09:45:54Z</time></trkpt><trkpt lat="41.9036664858811" lon="-3.273968307680917"><ele>1079.0</ele><time>2026-05-03T09:45:55Z</time></trkpt><trkpt lat="41.903610065833746" lon="-3.2738867038853354"><ele>1079.0</ele><time>2026-05-03T09:45:56Z</time></trkpt><trkpt lat="41.90355447637816" lon="-3.273806769273839"><ele>1079.1666666666667</ele><time>2026-05-03T09:45:57.001Z</time></trkpt><trkpt lat="41.90349652235808" lon="-3.273728496933315"><ele>1079.3333333333335</ele><time>2026-05-03T09:45:58.001Z</time></trkpt><trkpt lat="41.90343784085605" lon="-3.273648387599017"><ele>1079.5</ele><time>2026-05-03T09:45:59.001Z</time></trkpt><trkpt lat="41.90337848053559" lon="-3.27356980176329"><ele>1079.6666666666667</ele><time>2026-05-03T09:46:00.001Z</time></trkpt><trkpt lat="41.903321009868485" lon="-3.273491508389303"><ele>1079.8333333333333</ele><time>2026-05-03T09:46:01.001Z</time></trkpt><trkpt lat="41.90326752394154" lon="-3.273411521325056"><ele>1080.0</ele><time>2026-05-03T09:46:02.001Z</time></trkpt><trkpt lat="41.90321389482154" lon="-3.2733338126170834"><ele>1081.6666666666667</ele><time>2026-05-03T09:46:03.001Z</time></trkpt><trkpt lat="41.90315706145127" lon="-3.273255453881538"><ele>1083.3333333333333</ele><time>2026-05-03T09:46:04.001Z</time></trkpt><trkpt lat="41.90309718795431" lon="-3.273179629200925"><ele>1085.0</ele><time>2026-05-03T09:46:05.001Z</time></trkpt><trkpt lat="41.903033568985556" lon="-3.2731056093678235"><ele>1086.6666666666665</ele><time>2026-05-03T09:46:06.001Z</time></trkpt><trkpt lat="41.902972052658804" lon="-3.2730324629412326"><ele>1088.3333333333333</ele><time>2026-05-03T09:46:07.001Z</time></trkpt><trkpt lat="41.902908821999965" lon="-3.2729553528585336"><ele>1090.0</ele><time>2026-05-03T09:46:08.001Z</time></trkpt><trkpt lat="41.90284749105513" lon="-3.272883539883176"><ele>1090.1666666666665</ele><time>2026-05-03T09:46:09.001Z</time></trkpt><trkpt lat="41.90278328261918" lon="-3.2728117866836848"><ele>1090.3333333333333</ele><time>2026-05-03T09:46:10.001Z</time></trkpt><trkpt lat="41.90272081684576" lon="-3.2727414141375233"><ele>1090.5</ele><time>2026-05-03T09:46:11.001Z</time></trkpt><trkpt lat="41.90266177451696" lon="-3.2726726195798097"><ele>1090.6666666666667</ele><time>2026-05-03T09:46:12.001Z</time></trkpt><trkpt lat="41.902599024104035" lon="-3.272606669622044"><ele>1090.8333333333335</ele><time>2026-05-03T09:46:13.001Z</time></trkpt><trkpt lat="41.90253481875175" lon="-3.2725409633544422"><ele>1091.0</ele><time>2026-05-03T09:46:14.001Z</time></trkpt><trkpt lat="41.90247028190761" lon="-3.272479561883634"><ele>1091.6666666666667</ele><time>2026-05-03T09:46:15.001Z</time></trkpt><trkpt lat="41.902404316657524" lon="-3.272421259569426"><ele>1092.3333333333335</ele><time>2026-05-03T09:46:16.001Z</time></trkpt><trkpt lat="41.902334639694224" lon="-3.2723641967174952"><ele>1093.0</ele><time>2026-05-03T09:46:17.001Z</time></trkpt><trkpt lat="41.90226661873567" lon="-3.2723058537180365"><ele>1093.6666666666667</ele><time>2026-05-03T09:46:18.001Z</time></trkpt><trkpt lat="41.90219727931662" lon="-3.2722498558758435"><ele>1094.3333333333333</ele><time>2026-05-03T09:46:19.001Z</time></trkpt><trkpt lat="41.90212887077198" lon="-3.2721929439269153"><ele>1095.0</ele><time>2026-05-03T09:46:20.001Z</time></trkpt><trkpt lat="41.902062017884774" lon="-3.2721401070032936"><ele>1095.0</ele><time>2026-05-03T09:46:21.001Z</time></trkpt><trkpt lat="41.90199241730845" lon="-3.272087705423566"><ele>1095.0</ele><time>2026-05-03T09:46:22.001Z</time></trkpt><trkpt lat="41.90192187146104" lon="-3.2720397829563215"><ele>1095.0</ele><time>2026-05-03T09:46:23.001Z</time></trkpt><trkpt lat="41.90184941498277" lon="-3.2719953930616494"><ele>1095.0</ele><time>2026-05-03T09:46:24.001Z</time></trkpt><trkpt lat="41.901775498390464" lon="-3.2719517707135872"><ele>1095.0</ele><time>2026-05-03T09:46:25.001Z</time></trkpt><trkpt lat="41.901704495516654" lon="-3.2719081861622006"><ele>1095.0</ele><time>2026-05-03T09:46:26.001Z</time></trkpt><trkpt lat="41.90163287205735" lon="-3.271866997043188"><ele>1095.5</ele><time>2026-05-03T09:46:27.001Z</time></trkpt><trkpt lat="41.9015603199829" lon="-3.2718254333828964"><ele>1096.0</ele><time>2026-05-03T09:46:28.001Z</time></trkpt><trkpt lat="41.90149070534891" lon="-3.2717824368033743"><ele>1096.5</ele><time>2026-05-03T09:46:29.001Z</time></trkpt><trkpt lat="41.901417981482176" lon="-3.2717412259424337"><ele>1097.0</ele><time>2026-05-03T09:46:30.001Z</time></trkpt><trkpt lat="41.90134596831945" lon="-3.2717007659791553"><ele>1097.5</ele><time>2026-05-03T09:46:31.001Z</time></trkpt><trkpt lat="41.9012727500035" lon="-3.2716597485036245"><ele>1098.0</ele><time>2026-05-03T09:46:32.001Z</time></trkpt><trkpt lat="41.901202605086574" lon="-3.27161986814469"><ele>1098.0</ele><time>2026-05-03T09:46:33.001Z</time></trkpt><trkpt lat="41.90112565397086" lon="-3.2715807059087316"><ele>1098.0</ele><time>2026-05-03T09:46:34.001Z</time></trkpt><trkpt lat="41.901055519529464" lon="-3.271535087322237"><ele>1098.0</ele><time>2026-05-03T09:46:35.001Z</time></trkpt><trkpt lat="41.900985336368315" lon="-3.271490963763294"><ele>1098.0</ele><time>2026-05-03T09:46:36.001Z</time></trkpt><trkpt lat="41.90091660443856" lon="-3.271448508864103"><ele>1098.0</ele><time>2026-05-03T09:46:37.001Z</time></trkpt><trkpt lat="41.90084385022204" lon="-3.2714101073875113"><ele>1098.0</ele><time>2026-05-03T09:46:38.001Z</time></trkpt><trkpt lat="41.900770930901935" lon="-3.2713691417472193"><ele>1099.3333333333333</ele><time>2026-05-03T09:46:39.001Z</time></trkpt><trkpt lat="41.90069706364475" lon="-3.2713299032090495"><ele>1100.6666666666667</ele><time>2026-05-03T09:46:40.001Z</time></trkpt><trkpt lat="41.90062620526622" lon="-3.2712880837726663"><ele>1102.0</ele><time>2026-05-03T09:46:41.001Z</time></trkpt><trkpt lat="41.90055378255445" lon="-3.2712512300290832"><ele>1103.3333333333335</ele><time>2026-05-03T09:46:42.001Z</time></trkpt><trkpt lat="41.90047786494344" lon="-3.271212720831744"><ele>1104.6666666666667</ele><time>2026-05-03T09:46:43.001Z</time></trkpt><trkpt lat="41.900409875660934" lon="-3.2711750382161973"><ele>1106.0</ele><time>2026-05-03T09:46:44.001Z</time></trkpt><trkpt lat="41.900346336810124" lon="-3.2711346173479416"><ele>1106.0</ele><time>2026-05-03T09:46:45.001Z</time></trkpt><trkpt lat="41.900278352247696" lon="-3.271105240169935"><ele>1106.0</ele><time>2026-05-03T09:46:46.001Z</time></trkpt><trkpt lat="41.900211848534205" lon="-3.2710678868970198"><ele>1106.0</ele><time>2026-05-03T09:46:47.001Z</time></trkpt><trkpt lat="41.900145300871955" lon="-3.2710310753664094"><ele>1106.0</ele><time>2026-05-03T09:46:48.001Z</time></trkpt><trkpt lat="41.90007428717652" lon="-3.270995713746555"><ele>1106.0</ele><time>2026-05-03T09:46:49.001Z</time></trkpt><trkpt lat="41.90000521712278" lon="-3.27094963187204"><ele>1106.0</ele><time>2026-05-03T09:46:50.001Z</time></trkpt><trkpt lat="41.89993781703625" lon="-3.270907686453641"><ele>1106.0</ele><time>2026-05-03T09:46:51.001Z</time></trkpt><trkpt lat="41.8998723507441" lon="-3.270860487757495"><ele>1107.5</ele><time>2026-05-03T09:46:52.001Z</time></trkpt><trkpt lat="41.89980911614348" lon="-3.27081657098812"><ele>1109.0</ele><time>2026-05-03T09:46:53.001Z</time></trkpt><trkpt lat="41.899746876360325" lon="-3.270763588761561"><ele>1110.5</ele><time>2026-05-03T09:46:54.001Z</time></trkpt><trkpt lat="41.89967789331669" lon="-3.2707181580756606"><ele>1112.0</ele><time>2026-05-03T09:46:55.001Z</time></trkpt><trkpt lat="41.899612282387544" lon="-3.2706628645595814"><ele>1113.5</ele><time>2026-05-03T09:46:56.001Z</time></trkpt><trkpt lat="41.89954900150822" lon="-3.270606901867069"><ele>1115.0</ele><time>2026-05-03T09:46:57.001Z</time></trkpt><trkpt lat="41.89948549050958" lon="-3.270553569552174"><ele>1115.6666666666667</ele><time>2026-05-03T09:46:58.001Z</time></trkpt><trkpt lat="41.89942228183126" lon="-3.2704963400292644"><ele>1116.3333333333335</ele><time>2026-05-03T09:46:59.001Z</time></trkpt><trkpt lat="41.89936432048746" lon="-3.2704346442685295"><ele>1117.0</ele><time>2026-05-03T09:47:00.001Z</time></trkpt><trkpt lat="41.899315618258385" lon="-3.270377266920275"><ele>1117.6666666666667</ele><time>2026-05-03T09:47:01.002Z</time></trkpt><trkpt lat="41.89923934959686" lon="-3.270306072551802"><ele>1118.3333333333333</ele><time>2026-05-03T09:47:02.002Z</time></trkpt><trkpt lat="41.89918103668578" lon="-3.270231461719543"><ele>1119.0</ele><time>2026-05-03T09:47:03.002Z</time></trkpt><trkpt lat="41.899127368740345" lon="-3.270151741282822"><ele>1119.5</ele><time>2026-05-03T09:47:04.002Z</time></trkpt><trkpt lat="41.89906723226577" lon="-3.2700753057263823"><ele>1120.0</ele><time>2026-05-03T09:47:05.002Z</time></trkpt><trkpt lat="41.89900971761534" lon="-3.2699891830009395"><ele>1120.5</ele><time>2026-05-03T09:47:06.002Z</time></trkpt><trkpt lat="41.898956358407005" lon="-3.269899197835666"><ele>1121.0</ele><time>2026-05-03T09:47:07.002Z</time></trkpt><trkpt lat="41.89890215573785" lon="-3.2698053509037837"><ele>1121.5</ele><time>2026-05-03T09:47:08.002Z</time></trkpt><trkpt lat="41.898852776050006" lon="-3.269707498438164"><ele>1122.0</ele><time>2026-05-03T09:47:09.002Z</time></trkpt><trkpt lat="41.8987985406718" lon="-3.269613191140768"><ele>1122.0</ele><time>2026-05-03T09:47:10.002Z</time></trkpt><trkpt lat="41.89874546649865" lon="-3.2695032381758216"><ele>1122.0</ele><time>2026-05-03T09:47:11.002Z</time></trkpt><trkpt lat="41.89869484805537" lon="-3.269395018147408"><ele>1122.0</ele><time>2026-05-03T09:47:12.002Z</time></trkpt><trkpt lat="41.89864489404754" lon="-3.269285744493196"><ele>1122.0</ele><time>2026-05-03T09:47:13.002Z</time></trkpt><trkpt lat="41.898595547859905" lon="-3.269170999149115"><ele>1122.0</ele><time>2026-05-03T09:47:14.002Z</time></trkpt><trkpt lat="41.89854501677919" lon="-3.2690551875093856"><ele>1121.2</ele><time>2026-05-03T09:47:15.002Z</time></trkpt><trkpt lat="41.89850115051396" lon="-3.268935283960597"><ele>1120.4</ele><time>2026-05-03T09:47:16.002Z</time></trkpt><trkpt lat="41.898457800659486" lon="-3.2688099501306653"><ele>1119.6</ele><time>2026-05-03T09:47:17.002Z</time></trkpt><trkpt lat="41.89840823704734" lon="-3.268687361258113"><ele>1118.8</ele><time>2026-05-03T09:47:18.002Z</time></trkpt><trkpt lat="41.89836129121946" lon="-3.268557946003318"><ele>1118.0</ele><time>2026-05-03T09:47:19.002Z</time></trkpt><trkpt lat="41.898308307352345" lon="-3.2684338435270353"><ele>1117.4</ele><time>2026-05-03T09:47:20.002Z</time></trkpt><trkpt lat="41.89825781402957" lon="-3.2683019712649366"><ele>1116.8</ele><time>2026-05-03T09:47:21.002Z</time></trkpt><trkpt lat="41.89821066625721" lon="-3.2681736748072825"><ele>1116.2</ele><time>2026-05-03T09:47:22.002Z</time></trkpt><trkpt lat="41.898146094024554" lon="-3.2680404986953335"><ele>1115.6</ele><time>2026-05-03T09:47:23Z</time></trkpt><trkpt lat="41.89810664803828" lon="-3.2679041001215903"><ele>1115.0</ele><time>2026-05-03T09:47:24Z</time></trkpt><trkpt lat="41.898040916294946" lon="-3.2677692042344084"><ele>1114.5</ele><time>2026-05-03T09:47:25Z</time></trkpt><trkpt lat="41.897996043264975" lon="-3.267658127118974"><ele>1114.0</ele><time>2026-05-03T09:47:26Z</time></trkpt><trkpt lat="41.897928504543" lon="-3.2675122037438746"><ele>1113.5</ele><time>2026-05-03T09:47:27Z</time></trkpt><trkpt lat="41.89781679227239" lon="-3.2673755366027266"><ele>1113.0</ele><time>2026-05-03T09:47:28Z</time></trkpt><trkpt lat="41.89784089324418" lon="-3.267256343207667"><ele>1113.0</ele><time>2026-05-03T09:47:29Z</time></trkpt><trkpt lat="41.89778836446423" lon="-3.2671251627485183"><ele>1113.0</ele><time>2026-05-03T09:47:30Z</time></trkpt><trkpt lat="41.89773576693029" lon="-3.2669946371128757"><ele>1113.0</ele><time>2026-05-03T09:47:31Z</time></trkpt><trkpt lat="41.8976821399442" lon="-3.266862833256364"><ele>1113.0</ele><time>2026-05-03T09:47:32Z</time></trkpt><trkpt lat="41.89763049474193" lon="-3.266733833491036"><ele>1113.0</ele><time>2026-05-03T09:47:33Z</time></trkpt><trkpt lat="41.897571248437" lon="-3.2666052661412204"><ele>1113.0</ele><time>2026-05-03T09:47:34Z</time></trkpt><trkpt lat="41.89751925220394" lon="-3.2664729785809135"><ele>1113.0</ele><time>2026-05-03T09:47:35Z</time></trkpt><trkpt lat="41.89746665805015" lon="-3.2663403835552702"><ele>1113.0</ele><time>2026-05-03T09:47:36Z</time></trkpt><trkpt lat="41.89741147672361" lon="-3.2662069454308704"><ele>1113.0</ele><time>2026-05-03T09:47:37Z</time></trkpt><trkpt lat="41.89735584384351" lon="-3.266073562825869"><ele>1112.25</ele><time>2026-05-03T09:47:38Z</time></trkpt><trkpt lat="41.89730241594416" lon="-3.2659395196944954"><ele>1111.5</ele><time>2026-05-03T09:47:39Z</time></trkpt><trkpt lat="41.8972479579269" lon="-3.2658058152492044"><ele>1110.75</ele><time>2026-05-03T09:47:40Z</time></trkpt><trkpt lat="41.897193353299336" lon="-3.2656692650335764"><ele>1110.0</ele><time>2026-05-03T09:47:41Z</time></trkpt><trkpt lat="41.89713930147379" lon="-3.2655351382239415"><ele>1109.75</ele><time>2026-05-03T09:47:42Z</time></trkpt><trkpt lat="41.89708494781199" lon="-3.265399609285128"><ele>1109.5</ele><time>2026-05-03T09:47:43Z</time></trkpt><trkpt lat="41.89702877687723" lon="-3.2652664856125866"><ele>1109.25</ele><time>2026-05-03T09:47:44Z</time></trkpt><trkpt lat="41.89697343510832" lon="-3.265131319380668"><ele>1109.0</ele><time>2026-05-03T09:47:45Z</time></trkpt><trkpt lat="41.896920504828365" lon="-3.2649971054086135"><ele>1109.0</ele><time>2026-05-03T09:47:46Z</time></trkpt><trkpt lat="41.896864607721575" lon="-3.2648604702157655"><ele>1109.0</ele><time>2026-05-03T09:47:47Z</time></trkpt><trkpt lat="41.89681054767136" lon="-3.2647234215975898"><ele>1109.0</ele><time>2026-05-03T09:47:48Z</time></trkpt><trkpt lat="41.896757162261586" lon="-3.264588050971093"><ele>1109.0</ele><time>2026-05-03T09:47:49Z</time></trkpt><trkpt lat="41.89670632686068" lon="-3.2644509483730615"><ele>1107.0</ele><time>2026-05-03T09:47:50Z</time></trkpt><trkpt lat="41.896651522659454" lon="-3.264316216566244"><ele>1105.0</ele><time>2026-05-03T09:47:51Z</time></trkpt><trkpt lat="41.896594402168134" lon="-3.264189258268942"><ele>1103.0</ele><time>2026-05-03T09:47:52Z</time></trkpt><trkpt lat="41.896541466925754" lon="-3.2640551166619196"><ele>1101.0</ele><time>2026-05-03T09:47:53Z</time></trkpt><trkpt lat="41.89649070092814" lon="-3.263919843642903"><ele>1101.0</ele><time>2026-05-03T09:47:54Z</time></trkpt><trkpt lat="41.89643523655172" lon="-3.2637867319347498"><ele>1101.0</ele><time>2026-05-03T09:47:55Z</time></trkpt><trkpt lat="41.896379017475475" lon="-3.263653789537178"><ele>1101.0</ele><time>2026-05-03T09:47:56Z</time></trkpt><trkpt lat="41.896324549043534" lon="-3.2635234522966714"><ele>1101.0</ele><time>2026-05-03T09:47:57Z</time></trkpt><trkpt lat="41.89627115195149" lon="-3.2633890869385325"><ele>1101.0</ele><time>2026-05-03T09:47:58Z</time></trkpt><trkpt lat="41.896216713099946" lon="-3.263257689728256"><ele>1101.0</ele><time>2026-05-03T09:47:59Z</time></trkpt><trkpt lat="41.89616329148389" lon="-3.2631254072832157"><ele>1101.0</ele><time>2026-05-03T09:48:00Z</time></trkpt><trkpt lat="41.89611367659751" lon="-3.2629896622388364"><ele>1101.0</ele><time>2026-05-03T09:48:01Z</time></trkpt><trkpt lat="41.89605762227562" lon="-3.262857547279317"><ele>1100.25</ele><time>2026-05-03T09:48:02Z</time></trkpt><trkpt lat="41.8960010260727" lon="-3.2627267294199873"><ele>1099.5</ele><time>2026-05-03T09:48:03Z</time></trkpt><trkpt lat="41.8959451432287" lon="-3.2625882583325763"><ele>1098.75</ele><time>2026-05-03T09:48:04Z</time></trkpt><trkpt lat="41.89589008239179" lon="-3.262448781135089"><ele>1098.0</ele><time>2026-05-03T09:48:05Z</time></trkpt><trkpt lat="41.895837290178086" lon="-3.2623108702394332"><ele>1096.25</ele><time>2026-05-03T09:48:06Z</time></trkpt><trkpt lat="41.89578083049236" lon="-3.2621730774510826"><ele>1094.5</ele><time>2026-05-03T09:48:07Z</time></trkpt><trkpt lat="41.895727632580574" lon="-3.262035539384183"><ele>1092.75</ele><time>2026-05-03T09:48:08Z</time></trkpt><trkpt lat="41.89567490333593" lon="-3.2618963440296733"><ele>1091.0</ele><time>2026-05-03T09:48:09Z</time></trkpt><trkpt lat="41.89562524066775" lon="-3.2617582122784365"><ele>1091.0</ele><time>2026-05-03T09:48:10Z</time></trkpt><trkpt lat="41.89557567574372" lon="-3.261622068295969"><ele>1091.0</ele><time>2026-05-03T09:48:11Z</time></trkpt><trkpt lat="41.895526445990704" lon="-3.2614828812380914"><ele>1091.0</ele><time>2026-05-03T09:48:12Z</time></trkpt><trkpt lat="41.895477001259565" lon="-3.261347028830197"><ele>1091.0</ele><time>2026-05-03T09:48:13.001Z</time></trkpt><trkpt lat="41.89542551272654" lon="-3.261208142455128"><ele>1091.75</ele><time>2026-05-03T09:48:14.001Z</time></trkpt><trkpt lat="41.89538161126463" lon="-3.2610686533242887"><ele>1092.5</ele><time>2026-05-03T09:48:15.001Z</time></trkpt><trkpt lat="41.89533614121268" lon="-3.2609290000168882"><ele>1093.25</ele><time>2026-05-03T09:48:16.001Z</time></trkpt><trkpt lat="41.89529084480184" lon="-3.2607863318961243"><ele>1094.0</ele><time>2026-05-03T09:48:17.001Z</time></trkpt><trkpt lat="41.89524657762847" lon="-3.2606462660372006"><ele>1094.25</ele><time>2026-05-03T09:48:18.001Z</time></trkpt><trkpt lat="41.89519675720742" lon="-3.2605058330004293"><ele>1094.5</ele><time>2026-05-03T09:48:19.001Z</time></trkpt><trkpt lat="41.8951554365091" lon="-3.2603653862451085"><ele>1094.75</ele><time>2026-05-03T09:48:20.001Z</time></trkpt><trkpt lat="41.89511476694446" lon="-3.2602255662551807"><ele>1095.0</ele><time>2026-05-03T09:48:21.001Z</time></trkpt><trkpt lat="41.895074695696195" lon="-3.2600864701182237"><ele>1095.0</ele><time>2026-05-03T09:48:22.001Z</time></trkpt><trkpt lat="41.895038111297644" lon="-3.259947259838318"><ele>1095.0</ele><time>2026-05-03T09:48:23.001Z</time></trkpt><trkpt lat="41.89499763996" lon="-3.259814593707119"><ele>1095.0</ele><time>2026-05-03T09:48:24.001Z</time></trkpt><trkpt lat="41.8949543523203" lon="-3.259689104353918"><ele>1095.0</ele><time>2026-05-03T09:48:25.001Z</time></trkpt><trkpt lat="41.89491726690837" lon="-3.259564411818018"><ele>1095.0</ele><time>2026-05-03T09:48:26.001Z</time></trkpt><trkpt lat="41.894880442660885" lon="-3.259441319719852"><ele>1094.8</ele><time>2026-05-03T09:48:27.001Z</time></trkpt><trkpt lat="41.89484438208571" lon="-3.2593213138519026"><ele>1094.6</ele><time>2026-05-03T09:48:28.001Z</time></trkpt><trkpt lat="41.894804028115615" lon="-3.2592029887967557"><ele>1094.4</ele><time>2026-05-03T09:48:29.001Z</time></trkpt><trkpt lat="41.89476668486392" lon="-3.2590869059649856"><ele>1094.2</ele><time>2026-05-03T09:48:30.001Z</time></trkpt><trkpt lat="41.89472770375696" lon="-3.258974685165227"><ele>1094.0</ele><time>2026-05-03T09:48:31.001Z</time></trkpt><trkpt lat="41.894689835348046" lon="-3.2588589860601513"><ele>1095.2</ele><time>2026-05-03T09:48:32.001Z</time></trkpt><trkpt lat="41.894653262540245" lon="-3.2587481505996743"><ele>1096.4</ele><time>2026-05-03T09:48:33.001Z</time></trkpt><trkpt lat="41.89461473462547" lon="-3.2586386148339863"><ele>1097.6</ele><time>2026-05-03T09:48:34.001Z</time></trkpt><trkpt lat="41.89457248378752" lon="-3.258530427563874"><ele>1098.8</ele><time>2026-05-03T09:48:35.001Z</time></trkpt><trkpt lat="41.894532409914" lon="-3.2584222597659944"><ele>1100.0</ele><time>2026-05-03T09:48:36.001Z</time></trkpt><trkpt lat="41.894497370508866" lon="-3.2583091864753237"><ele>1100.0</ele><time>2026-05-03T09:48:37.001Z</time></trkpt><trkpt lat="41.894454211205684" lon="-3.2582037699087945"><ele>1100.0</ele><time>2026-05-03T09:48:38.001Z</time></trkpt><trkpt lat="41.89441225747563" lon="-3.2580975118910414"><ele>1100.0</ele><time>2026-05-03T09:48:39.001Z</time></trkpt><trkpt lat="41.89436800327382" lon="-3.2579882555801394"><ele>1100.0</ele><time>2026-05-03T09:48:40.001Z</time></trkpt><trkpt lat="41.89432348507675" lon="-3.257879199552648"><ele>1100.0</ele><time>2026-05-03T09:48:41.001Z</time></trkpt><trkpt lat="41.894279844875825" lon="-3.257767254031834"><ele>1100.6</ele><time>2026-05-03T09:48:42.001Z</time></trkpt><trkpt lat="41.89423046299057" lon="-3.2576619933923663"><ele>1101.2</ele><time>2026-05-03T09:48:43.001Z</time></trkpt><trkpt lat="41.89418278120792" lon="-3.2575558952026187"><ele>1101.8</ele><time>2026-05-03T09:48:44.001Z</time></trkpt><trkpt lat="41.89413677854184" lon="-3.257439704427323"><ele>1102.4</ele><time>2026-05-03T09:48:45.001Z</time></trkpt><trkpt lat="41.894081658502834" lon="-3.257332271736458"><ele>1103.0</ele><time>2026-05-03T09:48:46.001Z</time></trkpt><trkpt lat="41.89403100157159" lon="-3.257220881226662"><ele>1104.2</ele><time>2026-05-03T09:48:47.001Z</time></trkpt><trkpt lat="41.8939781064031" lon="-3.2571109120686015"><ele>1105.4</ele><time>2026-05-03T09:48:48.001Z</time></trkpt><trkpt lat="41.89392396865208" lon="-3.256998656405257"><ele>1106.6000000000001</ele><time>2026-05-03T09:48:49.001Z</time></trkpt><trkpt lat="41.89386622405035" lon="-3.2568874882008925"><ele>1107.8</ele><time>2026-05-03T09:48:50.001Z</time></trkpt><trkpt lat="41.89381037988079" lon="-3.2567681573684197"><ele>1109.0</ele><time>2026-05-03T09:48:51.001Z</time></trkpt><trkpt lat="41.893752745401954" lon="-3.2566525110226476"><ele>1109.0</ele><time>2026-05-03T09:48:52.001Z</time></trkpt><trkpt lat="41.89369268276023" lon="-3.2565394024172294"><ele>1109.0</ele><time>2026-05-03T09:48:53.001Z</time></trkpt><trkpt lat="41.893633939298276" lon="-3.256424703843928"><ele>1109.0</ele><time>2026-05-03T09:48:54.001Z</time></trkpt><trkpt lat="41.893570433901225" lon="-3.2563050960715425"><ele>1109.0</ele><time>2026-05-03T09:48:55.001Z</time></trkpt><trkpt lat="41.89350561933834" lon="-3.256191654284465"><ele>1109.0</ele><time>2026-05-03T09:48:56.001Z</time></trkpt><trkpt lat="41.893437109276945" lon="-3.2560817828359934"><ele>1107.8</ele><time>2026-05-03T09:48:57.001Z</time></trkpt><trkpt lat="41.893372247036595" lon="-3.2559600985515296"><ele>1106.6000000000001</ele><time>2026-05-03T09:48:58.001Z</time></trkpt><trkpt lat="41.89330678795701" lon="-3.2558417380864335"><ele>1105.4</ele><time>2026-05-03T09:48:59.001Z</time></trkpt><trkpt lat="41.893242415471015" lon="-3.2557203533018146"><ele>1104.2</ele><time>2026-05-03T09:49:00.001Z</time></trkpt><trkpt lat="41.89317741793078" lon="-3.255606379250318"><ele>1103.0</ele><time>2026-05-03T09:49:01.001Z</time></trkpt><trkpt lat="41.89311133325111" lon="-3.2554854301947382"><ele>1103.0</ele><time>2026-05-03T09:49:02.001Z</time></trkpt><trkpt lat="41.89303908475129" lon="-3.2553738078236103"><ele>1103.0</ele><time>2026-05-03T09:49:03.001Z</time></trkpt><trkpt lat="41.89296301872719" lon="-3.255237467183316"><ele>1103.0</ele><time>2026-05-03T09:49:04.001Z</time></trkpt><trkpt lat="41.89290422649153" lon="-3.2551320879327825"><ele>1103.0</ele><time>2026-05-03T09:49:05.001Z</time></trkpt><trkpt lat="41.89284114304235" lon="-3.2550182227845714"><ele>1103.0</ele><time>2026-05-03T09:49:06.001Z</time></trkpt><trkpt lat="41.8927820993765" lon="-3.254889323397287"><ele>1103.6</ele><time>2026-05-03T09:49:07.001Z</time></trkpt><trkpt lat="41.89271811893053" lon="-3.2547695250871085"><ele>1104.1999999999998</ele><time>2026-05-03T09:49:08.001Z</time></trkpt><trkpt lat="41.89264917119775" lon="-3.2546545461799514"><ele>1104.8</ele><time>2026-05-03T09:49:09.001Z</time></trkpt><trkpt lat="41.89258399495891" lon="-3.2545324244010208"><ele>1105.3999999999999</ele><time>2026-05-03T09:49:10.001Z</time></trkpt><trkpt lat="41.892518885500515" lon="-3.254409643162067"><ele>1106.0</ele><time>2026-05-03T09:49:11.001Z</time></trkpt><trkpt lat="41.89245083883501" lon="-3.2542886454694457"><ele>1104.8</ele><time>2026-05-03T09:49:12.001Z</time></trkpt><trkpt lat="41.892384176060226" lon="-3.254167227247945"><ele>1103.6</ele><time>2026-05-03T09:49:13.001Z</time></trkpt><trkpt lat="41.89231702303766" lon="-3.254044952186499"><ele>1102.4</ele><time>2026-05-03T09:49:14.001Z</time></trkpt><trkpt lat="41.89224847526063" lon="-3.253924429070038"><ele>1101.2</ele><time>2026-05-03T09:49:15.001Z</time></trkpt><trkpt lat="41.89218260799042" lon="-3.2538044565421074"><ele>1100.0</ele><time>2026-05-03T09:49:16.001Z</time></trkpt><trkpt lat="41.89211465196465" lon="-3.2536792687429745"><ele>1100.0</ele><time>2026-05-03T09:49:17.001Z</time></trkpt><trkpt lat="41.89205085728538" lon="-3.253555590594278"><ele>1100.0</ele><time>2026-05-03T09:49:18.002Z</time></trkpt><trkpt lat="41.891985369611525" lon="-3.2534341524381274"><ele>1100.0</ele><time>2026-05-03T09:49:19.002Z</time></trkpt><trkpt lat="41.89191593676827" lon="-3.253313105151476"><ele>1100.0</ele><time>2026-05-03T09:49:20.002Z</time></trkpt><trkpt lat="41.89184916690315" lon="-3.253193105898339"><ele>1100.0</ele><time>2026-05-03T09:49:21.002Z</time></trkpt><trkpt lat="41.89178257942997" lon="-3.2530749332314666"><ele>1097.75</ele><time>2026-05-03T09:49:22.002Z</time></trkpt><trkpt lat="41.89171811163027" lon="-3.252952621770722"><ele>1095.5</ele><time>2026-05-03T09:49:23.002Z</time></trkpt><trkpt lat="41.891649332294946" lon="-3.2528303925363313"><ele>1093.25</ele><time>2026-05-03T09:49:24.002Z</time></trkpt><trkpt lat="41.89158309384478" lon="-3.252708988322738"><ele>1091.0</ele><time>2026-05-03T09:49:25.002Z</time></trkpt><trkpt lat="41.891513537488045" lon="-3.2525859082652526"><ele>1091.0</ele><time>2026-05-03T09:49:26.002Z</time></trkpt><trkpt lat="41.89144631951175" lon="-3.2524604668517574"><ele>1091.0</ele><time>2026-05-03T09:49:27.002Z</time></trkpt><trkpt lat="41.89137749880181" lon="-3.2523365444474885"><ele>1091.0</ele><time>2026-05-03T09:49:28.002Z</time></trkpt><trkpt lat="41.891311701124536" lon="-3.2522182741148327"><ele>1091.0</ele><time>2026-05-03T09:49:29Z</time></trkpt><trkpt lat="41.8912433803633" lon="-3.252096409351073"><ele>1091.5</ele><time>2026-05-03T09:49:30Z</time></trkpt><trkpt lat="41.89117741208962" lon="-3.2519742657293786"><ele>1092.0</ele><time>2026-05-03T09:49:31Z</time></trkpt><trkpt lat="41.89111106384617" lon="-3.2518468820644437"><ele>1092.5</ele><time>2026-05-03T09:49:32Z</time></trkpt><trkpt lat="41.89104292874542" lon="-3.251728345784877"><ele>1093.0</ele><time>2026-05-03T09:49:33Z</time></trkpt><trkpt lat="41.89097518586492" lon="-3.251607542749637"><ele>1092.8</ele><time>2026-05-03T09:49:34Z</time></trkpt><trkpt lat="41.890908678232016" lon="-3.2514876338162537"><ele>1092.6</ele><time>2026-05-03T09:49:35Z</time></trkpt><trkpt lat="41.89084193049133" lon="-3.251361099215379"><ele>1092.4</ele><time>2026-05-03T09:49:36Z</time></trkpt><trkpt lat="41.89077671077941" lon="-3.251241970949374"><ele>1092.2</ele><time>2026-05-03T09:49:37Z</time></trkpt><trkpt lat="41.89070972748402" lon="-3.2511228938578047"><ele>1092.0</ele><time>2026-05-03T09:49:38Z</time></trkpt><trkpt lat="41.89064741590872" lon="-3.2510056811166663"><ele>1092.6</ele><time>2026-05-03T09:49:39Z</time></trkpt><trkpt lat="41.89057590765369" lon="-3.2508789425220614"><ele>1093.2</ele><time>2026-05-03T09:49:40Z</time></trkpt><trkpt lat="41.89049494782807" lon="-3.2507322327194026"><ele>1093.8</ele><time>2026-05-03T09:49:41Z</time></trkpt><trkpt lat="41.890456530036666" lon="-3.250643590664946"><ele>1094.4</ele><time>2026-05-03T09:49:42Z</time></trkpt><trkpt lat="41.89039983672244" lon="-3.250519322750698"><ele>1095.0</ele><time>2026-05-03T09:49:43Z</time></trkpt><trkpt lat="41.89034518434081" lon="-3.250394060286716"><ele>1096.0</ele><time>2026-05-03T09:49:44Z</time></trkpt><trkpt lat="41.89028596752853" lon="-3.250275714554108"><ele>1097.0</ele><time>2026-05-03T09:49:45Z</time></trkpt><trkpt lat="41.8902341637538" lon="-3.2501521899843797"><ele>1098.0</ele><time>2026-05-03T09:49:46Z</time></trkpt><trkpt lat="41.8901825855313" lon="-3.2500271964522742"><ele>1099.0</ele><time>2026-05-03T09:49:47Z</time></trkpt><trkpt lat="41.89013167624016" lon="-3.2499042119987878"><ele>1100.0</ele><time>2026-05-03T09:49:48Z</time></trkpt><trkpt lat="41.89008227025801" lon="-3.2497786499716166"><ele>1100.0</ele><time>2026-05-03T09:49:49Z</time></trkpt><trkpt lat="41.89003381391631" lon="-3.2496587733096076"><ele>1100.0</ele><time>2026-05-03T09:49:50Z</time></trkpt><trkpt lat="41.88998455083998" lon="-3.2495388156714453"><ele>1100.0</ele><time>2026-05-03T09:49:51Z</time></trkpt><trkpt lat="41.88993900137405" lon="-3.24941775619475"><ele>1100.0</ele><time>2026-05-03T09:49:52Z</time></trkpt><trkpt lat="41.88989500233713" lon="-3.249294159051942"><ele>1100.0</ele><time>2026-05-03T09:49:53Z</time></trkpt><trkpt lat="41.889851140803486" lon="-3.2491704631289235"><ele>1100.0</ele><time>2026-05-03T09:49:54Z</time></trkpt><trkpt lat="41.88980964035214" lon="-3.249045804693364"><ele>1100.0</ele><time>2026-05-03T09:49:55Z</time></trkpt><trkpt lat="41.88977027882285" lon="-3.2489242286212394"><ele>1100.0</ele><time>2026-05-03T09:49:56Z</time></trkpt><trkpt lat="41.889730259088246" lon="-3.248802982639926"><ele>1100.0</ele><time>2026-05-03T09:49:57Z</time></trkpt><trkpt lat="41.889689522855036" lon="-3.248678524967164"><ele>1100.0</ele><time>2026-05-03T09:49:58Z</time></trkpt><trkpt lat="41.889650947946144" lon="-3.2485513136854918"><ele>1100.8</ele><time>2026-05-03T09:49:59Z</time></trkpt><trkpt lat="41.88961355880303" lon="-3.248428627580017"><ele>1101.6</ele><time>2026-05-03T09:50:00Z</time></trkpt><trkpt lat="41.889576697656324" lon="-3.248305053840272"><ele>1102.4</ele><time>2026-05-03T09:50:01Z</time></trkpt><trkpt lat="41.88954309748107" lon="-3.248181069648726"><ele>1103.2</ele><time>2026-05-03T09:50:02Z</time></trkpt><trkpt lat="41.88950766521372" lon="-3.248057676215014"><ele>1104.0</ele><time>2026-05-03T09:50:03Z</time></trkpt><trkpt lat="41.88946857419957" lon="-3.2479315430520193"><ele>1104.8</ele><time>2026-05-03T09:50:04Z</time></trkpt><trkpt lat="41.88943361326597" lon="-3.2478080608335316"><ele>1105.6000000000001</ele><time>2026-05-03T09:50:05Z</time></trkpt><trkpt lat="41.88940094366561" lon="-3.2476836948273315"><ele>1106.4</ele><time>2026-05-03T09:50:06Z</time></trkpt><trkpt lat="41.88936656541743" lon="-3.247558154282378"><ele>1107.2</ele><time>2026-05-03T09:50:07Z</time></trkpt><trkpt lat="41.88933648372964" lon="-3.2474325341616517"><ele>1108.0</ele><time>2026-05-03T09:50:08Z</time></trkpt><trkpt lat="41.88930958238901" lon="-3.247304181605898"><ele>1107.0</ele><time>2026-05-03T09:50:09Z</time></trkpt><trkpt lat="41.889281137085625" lon="-3.247175922575518"><ele>1106.0</ele><time>2026-05-03T09:50:10Z</time></trkpt><trkpt lat="41.88925275560182" lon="-3.247048932513575"><ele>1105.0</ele><time>2026-05-03T09:50:11Z</time></trkpt><trkpt lat="41.88922361701685" lon="-3.2469197676985275"><ele>1104.0</ele><time>2026-05-03T09:50:12Z</time></trkpt><trkpt lat="41.88919853458577" lon="-3.2467908723233188"><ele>1103.0</ele><time>2026-05-03T09:50:13Z</time></trkpt><trkpt lat="41.88917310985366" lon="-3.2466584741729574"><ele>1103.0</ele><time>2026-05-03T09:50:14.001Z</time></trkpt><trkpt lat="41.88915199661147" lon="-3.2465237564783744"><ele>1103.0</ele><time>2026-05-03T09:50:15.001Z</time></trkpt><trkpt lat="41.88911982986239" lon="-3.246392327569107"><ele>1103.0</ele><time>2026-05-03T09:50:16.001Z</time></trkpt><trkpt lat="41.88909496134175" lon="-3.246254850574292"><ele>1103.0</ele><time>2026-05-03T09:50:17.001Z</time></trkpt><trkpt lat="41.88906908178401" lon="-3.246117516415516"><ele>1103.0</ele><time>2026-05-03T09:50:18.001Z</time></trkpt><trkpt lat="41.88904516180339" lon="-3.2459783756638587"><ele>1104.2</ele><time>2026-05-03T09:50:19.001Z</time></trkpt><trkpt lat="41.88901644819188" lon="-3.245837127942723"><ele>1105.4</ele><time>2026-05-03T09:50:20.001Z</time></trkpt><trkpt lat="41.88898989239072" lon="-3.2456973740992967"><ele>1106.6000000000001</ele><time>2026-05-03T09:50:21.001Z</time></trkpt><trkpt lat="41.88896197652105" lon="-3.2455565395665213"><ele>1107.8</ele><time>2026-05-03T09:50:22.001Z</time></trkpt><trkpt lat="41.88893768504512" lon="-3.2454150740649417"><ele>1109.0</ele><time>2026-05-03T09:50:23.001Z</time></trkpt><trkpt lat="41.888903204887214" lon="-3.245266245573341"><ele>1109.0</ele><time>2026-05-03T09:50:24.001Z</time></trkpt><trkpt lat="41.8888697738096" lon="-3.2451276937018334"><ele>1109.0</ele><time>2026-05-03T09:50:25.001Z</time></trkpt><trkpt lat="41.88884931631599" lon="-3.244990186653845"><ele>1109.0</ele><time>2026-05-03T09:50:26.001Z</time></trkpt><trkpt lat="41.88882226990359" lon="-3.244844509320558"><ele>1109.0</ele><time>2026-05-03T09:50:27.001Z</time></trkpt><trkpt lat="41.88879297629184" lon="-3.244696764646142"><ele>1109.0</ele><time>2026-05-03T09:50:28.001Z</time></trkpt><trkpt lat="41.88876253346997" lon="-3.244551490035261"><ele>1108.0</ele><time>2026-05-03T09:50:29.001Z</time></trkpt><trkpt lat="41.88873069176482" lon="-3.244403828066254"><ele>1107.0</ele><time>2026-05-03T09:50:30.001Z</time></trkpt><trkpt lat="41.88869586810216" lon="-3.2442558931368133"><ele>1106.0</ele><time>2026-05-03T09:50:31.001Z</time></trkpt><trkpt lat="41.888660514776724" lon="-3.2441079967280078"><ele>1105.0</ele><time>2026-05-03T09:50:32.001Z</time></trkpt><trkpt lat="41.88862527894615" lon="-3.2439611911059707"><ele>1104.75</ele><time>2026-05-03T09:50:33.001Z</time></trkpt><trkpt lat="41.888589350399904" lon="-3.2438164917486616"><ele>1104.5</ele><time>2026-05-03T09:50:34.001Z</time></trkpt><trkpt lat="41.88855258885681" lon="-3.243673770490161"><ele>1104.25</ele><time>2026-05-03T09:50:35.001Z</time></trkpt><trkpt lat="41.88851529404858" lon="-3.2435286579666465"><ele>1104.0</ele><time>2026-05-03T09:50:36.001Z</time></trkpt><trkpt lat="41.88847818350927" lon="-3.24338142526435"><ele>1104.0</ele><time>2026-05-03T09:50:37.001Z</time></trkpt><trkpt lat="41.88843781153584" lon="-3.243234600343616"><ele>1104.0</ele><time>2026-05-03T09:50:38.001Z</time></trkpt><trkpt lat="41.88840037470673" lon="-3.2430855111009116"><ele>1104.0</ele><time>2026-05-03T09:50:39.001Z</time></trkpt><trkpt lat="41.88835939626136" lon="-3.2429394150215143"><ele>1104.0</ele><time>2026-05-03T09:50:40.001Z</time></trkpt><trkpt lat="41.88831797708717" lon="-3.242794133497765"><ele>1103.0</ele><time>2026-05-03T09:50:41.001Z</time></trkpt><trkpt lat="41.88827628467682" lon="-3.2426454607409294"><ele>1102.0</ele><time>2026-05-03T09:50:42.001Z</time></trkpt><trkpt lat="41.888235732970934" lon="-3.2424981250892446"><ele>1101.0</ele><time>2026-05-03T09:50:43.001Z</time></trkpt><trkpt lat="41.88819527569476" lon="-3.242350366814177"><ele>1100.0</ele><time>2026-05-03T09:50:44.001Z</time></trkpt><trkpt lat="41.888153811478674" lon="-3.242201897422122"><ele>1098.5</ele><time>2026-05-03T09:50:45.001Z</time></trkpt><trkpt lat="41.888112321408464" lon="-3.242055184589587"><ele>1097.0</ele><time>2026-05-03T09:50:46.001Z</time></trkpt><trkpt lat="41.88806913875049" lon="-3.241906650965168"><ele>1095.5</ele><time>2026-05-03T09:50:47.001Z</time></trkpt><trkpt lat="41.88802760535299" lon="-3.24175773515805"><ele>1094.0</ele><time>2026-05-03T09:50:48.001Z</time></trkpt><trkpt lat="41.88798447272218" lon="-3.241608076194599"><ele>1093.75</ele><time>2026-05-03T09:50:49.001Z</time></trkpt><trkpt lat="41.88794464317263" lon="-3.241459215924509"><ele>1093.5</ele><time>2026-05-03T09:50:50.001Z</time></trkpt><trkpt lat="41.88790432080933" lon="-3.241309742773079"><ele>1093.25</ele><time>2026-05-03T09:50:51.001Z</time></trkpt><trkpt lat="41.88786289184005" lon="-3.2411635070193703"><ele>1093.0</ele><time>2026-05-03T09:50:52.001Z</time></trkpt><trkpt lat="41.88782043195031" lon="-3.24101462981932"><ele>1093.0</ele><time>2026-05-03T09:50:53.001Z</time></trkpt><trkpt lat="41.88778036361162" lon="-3.2408699054732057"><ele>1093.0</ele><time>2026-05-03T09:50:54.001Z</time></trkpt><trkpt lat="41.887738696456644" lon="-3.240725401547603"><ele>1093.0</ele><time>2026-05-03T09:50:55.001Z</time></trkpt><trkpt lat="41.88769823843229" lon="-3.240580898684697"><ele>1093.0</ele><time>2026-05-03T09:50:56.001Z</time></trkpt><trkpt lat="41.88765624931637" lon="-3.2404372727170907"><ele>1093.0</ele><time>2026-05-03T09:50:57.001Z</time></trkpt><trkpt lat="41.88761646186865" lon="-3.240290984508534"><ele>1093.0</ele><time>2026-05-03T09:50:58.001Z</time></trkpt><trkpt lat="41.88757760159662" lon="-3.2401421825980288"><ele>1093.0</ele><time>2026-05-03T09:50:59.001Z</time></trkpt><trkpt lat="41.88753697635796" lon="-3.2400009238064342"><ele>1093.0</ele><time>2026-05-03T09:51:00.001Z</time></trkpt><trkpt lat="41.887496553990516" lon="-3.2398594243038725"><ele>1091.75</ele><time>2026-05-03T09:51:01.001Z</time></trkpt><trkpt lat="41.88745393903136" lon="-3.2397135048979613"><ele>1090.5</ele><time>2026-05-03T09:51:02.001Z</time></trkpt><trkpt lat="41.88741512930669" lon="-3.2395697147731535"><ele>1089.25</ele><time>2026-05-03T09:51:03.001Z</time></trkpt><trkpt lat="41.88737391818177" lon="-3.239422615216723"><ele>1088.0</ele><time>2026-05-03T09:51:04.001Z</time></trkpt><trkpt lat="41.88733315207778" lon="-3.2392810953684803"><ele>1088.0</ele><time>2026-05-03T09:51:05.001Z</time></trkpt><trkpt lat="41.887294591426375" lon="-3.2391334800896674"><ele>1088.0</ele><time>2026-05-03T09:51:06.001Z</time></trkpt><trkpt lat="41.887254614088214" lon="-3.2389892264129942"><ele>1088.0</ele><time>2026-05-03T09:51:07.001Z</time></trkpt><trkpt lat="41.88721422632202" lon="-3.2388423054398383"><ele>1088.0</ele><time>2026-05-03T09:51:08.001Z</time></trkpt><trkpt lat="41.887172101092084" lon="-3.238696046729915"><ele>1087.5</ele><time>2026-05-03T09:51:09.001Z</time></trkpt><trkpt lat="41.88713129941689" lon="-3.2385520692066576"><ele>1087.0</ele><time>2026-05-03T09:51:10.001Z</time></trkpt><trkpt lat="41.88709047889458" lon="-3.238407600447236"><ele>1086.5</ele><time>2026-05-03T09:51:11.001Z</time></trkpt><trkpt lat="41.887051682451514" lon="-3.238260161047307"><ele>1086.0</ele><time>2026-05-03T09:51:12.001Z</time></trkpt><trkpt lat="41.887007686450836" lon="-3.238116514822141"><ele>1086.0</ele><time>2026-05-03T09:51:13.001Z</time></trkpt><trkpt lat="41.88696656688906" lon="-3.2379769028942835"><ele>1086.0</ele><time>2026-05-03T09:51:14.001Z</time></trkpt><trkpt lat="41.88693291474305" lon="-3.2378290187917513"><ele>1086.0</ele><time>2026-05-03T09:51:15.001Z</time></trkpt><trkpt lat="41.88689809237418" lon="-3.2376825437158816"><ele>1086.0</ele><time>2026-05-03T09:51:16.001Z</time></trkpt><trkpt lat="41.88685621913672" lon="-3.2375412805194497"><ele>1086.0</ele><time>2026-05-03T09:51:17.001Z</time></trkpt><trkpt lat="41.88681072311114" lon="-3.237401892546086"><ele>1086.0</ele><time>2026-05-03T09:51:18.002Z</time></trkpt><trkpt lat="41.88677319202647" lon="-3.2372524273126784"><ele>1086.0</ele><time>2026-05-03T09:51:19.002Z</time></trkpt><trkpt lat="41.88673834332265" lon="-3.237107904418859"><ele>1086.0</ele><time>2026-05-03T09:51:20.002Z</time></trkpt><trkpt lat="41.886692585604045" lon="-3.2369603831495817"><ele>1086.0</ele><time>2026-05-03T09:51:21.002Z</time></trkpt><trkpt lat="41.886657398871286" lon="-3.2368170822585367"><ele>1086.0</ele><time>2026-05-03T09:51:22.002Z</time></trkpt><trkpt lat="41.886614004678265" lon="-3.2366712985850823"><ele>1086.0</ele><time>2026-05-03T09:51:23.002Z</time></trkpt><trkpt lat="41.8865693280925" lon="-3.2365280980466338"><ele>1086.0</ele><time>2026-05-03T09:51:24.002Z</time></trkpt><trkpt lat="41.88653328619601" lon="-3.236380198893105"><ele>1086.0</ele><time>2026-05-03T09:51:25.002Z</time></trkpt><trkpt lat="41.88649419728268" lon="-3.2362338357386995"><ele>1086.0</ele><time>2026-05-03T09:51:26.002Z</time></trkpt><trkpt lat="41.886449731640134" lon="-3.2360922983239084"><ele>1086.0</ele><time>2026-05-03T09:51:27.002Z</time></trkpt><trkpt lat="41.88640854197768" lon="-3.2359485344862127"><ele>1086.0</ele><time>2026-05-03T09:51:28.002Z</time></trkpt><trkpt lat="41.88637218332997" lon="-3.2357995648258844"><ele>1086.0</ele><time>2026-05-03T09:51:29.002Z</time></trkpt><trkpt lat="41.886331997494814" lon="-3.235655141979146"><ele>1086.0</ele><time>2026-05-03T09:51:30.002Z</time></trkpt><trkpt lat="41.88628665677553" lon="-3.2355083277539203"><ele>1086.0</ele><time>2026-05-03T09:51:31.002Z</time></trkpt><trkpt lat="41.886244136874275" lon="-3.2353647372349865"><ele>1086.0</ele><time>2026-05-03T09:51:32.002Z</time></trkpt><trkpt lat="41.88620247889429" lon="-3.2352175937027567"><ele>1086.0</ele><time>2026-05-03T09:51:33.002Z</time></trkpt><trkpt lat="41.8861657666525" lon="-3.23507046748743"><ele>1086.0</ele><time>2026-05-03T09:51:34.002Z</time></trkpt><trkpt lat="41.8861245834837" lon="-3.2349230336072567"><ele>1086.0</ele><time>2026-05-03T09:51:35Z</time></trkpt><trkpt lat="41.886085224930305" lon="-3.2347755193053604"><ele>1086.0</ele><time>2026-05-03T09:51:36Z</time></trkpt><trkpt lat="41.88604534019424" lon="-3.23463390711504"><ele>1086.0</ele><time>2026-05-03T09:51:37Z</time></trkpt><trkpt lat="41.88600488974636" lon="-3.234490303802551"><ele>1086.0</ele><time>2026-05-03T09:51:38Z</time></trkpt><trkpt lat="41.885962795522715" lon="-3.23434742406138"><ele>1086.0</ele><time>2026-05-03T09:51:39Z</time></trkpt><trkpt lat="41.885921732893955" lon="-3.2342057388157173"><ele>1086.0</ele><time>2026-05-03T09:51:40Z</time></trkpt><trkpt lat="41.88588495875657" lon="-3.234061987578239"><ele>1085.0</ele><time>2026-05-03T09:51:41Z</time></trkpt><trkpt lat="41.88584706029006" lon="-3.2339232430092535"><ele>1084.0</ele><time>2026-05-03T09:51:42Z</time></trkpt><trkpt lat="41.88580446262012" lon="-3.2337803459669607"><ele>1083.0</ele><time>2026-05-03T09:51:43Z</time></trkpt><trkpt lat="41.885760933556035" lon="-3.233640706961704"><ele>1082.0</ele><time>2026-05-03T09:51:44Z</time></trkpt><trkpt lat="41.88572560580271" lon="-3.2334954146204957"><ele>1082.0</ele><time>2026-05-03T09:51:45Z</time></trkpt><trkpt lat="41.88568641678763" lon="-3.233356996383912"><ele>1082.0</ele><time>2026-05-03T09:51:46Z</time></trkpt><trkpt lat="41.88565094817384" lon="-3.233216060929819"><ele>1082.0</ele><time>2026-05-03T09:51:47Z</time></trkpt><trkpt lat="41.88560883926897" lon="-3.2330719251178284"><ele>1082.0</ele><time>2026-05-03T09:51:48Z</time></trkpt><trkpt lat="41.885566260973526" lon="-3.2329291558393543"><ele>1082.0</ele><time>2026-05-03T09:51:49Z</time></trkpt><trkpt lat="41.885531329599544" lon="-3.232793097418264"><ele>1082.0</ele><time>2026-05-03T09:51:50Z</time></trkpt><trkpt lat="41.88549065360922" lon="-3.2326502142215676"><ele>1082.0</ele><time>2026-05-03T09:51:51Z</time></trkpt><trkpt lat="41.88545275671862" lon="-3.2325098226899427"><ele>1082.0</ele><time>2026-05-03T09:51:52Z</time></trkpt><trkpt lat="41.88541234982569" lon="-3.232369230389304"><ele>1082.0</ele><time>2026-05-03T09:51:53Z</time></trkpt><trkpt lat="41.885370745197875" lon="-3.232227859673241"><ele>1081.2</ele><time>2026-05-03T09:51:54Z</time></trkpt><trkpt lat="41.885331191803466" lon="-3.2320860002655927"><ele>1080.4</ele><time>2026-05-03T09:51:55Z</time></trkpt><trkpt lat="41.88529435982173" lon="-3.2319451601931184"><ele>1079.6</ele><time>2026-05-03T09:51:56Z</time></trkpt><trkpt lat="41.885259288688495" lon="-3.2318021770365286"><ele>1078.8</ele><time>2026-05-03T09:51:57Z</time></trkpt><trkpt lat="41.885218128333264" lon="-3.23166240412194"><ele>1078.0</ele><time>2026-05-03T09:51:58Z</time></trkpt><trkpt lat="41.88517623796765" lon="-3.231523136915331"><ele>1078.0</ele><time>2026-05-03T09:51:59Z</time></trkpt><trkpt lat="41.88513891179562" lon="-3.2313841605103257"><ele>1078.0</ele><time>2026-05-03T09:52:00Z</time></trkpt><trkpt lat="41.885108383061315" lon="-3.231243196747326"><ele>1078.0</ele><time>2026-05-03T09:52:01Z</time></trkpt><trkpt lat="41.885069068698414" lon="-3.2311052214403206"><ele>1078.0</ele><time>2026-05-03T09:52:02Z</time></trkpt><trkpt lat="41.88502852753418" lon="-3.2309714277229324"><ele>1078.0</ele><time>2026-05-03T09:52:03Z</time></trkpt><trkpt lat="41.88496318699402" lon="-3.230831737170975"><ele>1078.0</ele><time>2026-05-03T09:52:04Z</time></trkpt><trkpt lat="41.88484018349832" lon="-3.230703388921852"><ele>1078.0</ele><time>2026-05-03T09:52:05Z</time></trkpt><trkpt lat="41.88477182037892" lon="-3.2305315105662507"><ele>1078.0</ele><time>2026-05-03T09:52:06Z</time></trkpt><trkpt lat="41.884824120753045" lon="-3.230438380125107"><ele>1078.0</ele><time>2026-05-03T09:52:07Z</time></trkpt><trkpt lat="41.884761669801975" lon="-3.2303085211781912"><ele>1078.0</ele><time>2026-05-03T09:52:08Z</time></trkpt><trkpt lat="41.88469514960516" lon="-3.230182473495807"><ele>1078.0</ele><time>2026-05-03T09:52:09Z</time></trkpt><trkpt lat="41.88462473034628" lon="-3.2300603064224687"><ele>1078.0</ele><time>2026-05-03T09:52:10Z</time></trkpt><trkpt lat="41.884554262382245" lon="-3.2299388221116563"><ele>1078.0</ele><time>2026-05-03T09:52:11Z</time></trkpt><trkpt lat="41.88445958863638" lon="-3.2298407089443955"><ele>1077.5</ele><time>2026-05-03T09:52:12Z</time></trkpt><trkpt lat="41.88438215541172" lon="-3.2297275306448148"><ele>1077.0</ele><time>2026-05-03T09:52:13Z</time></trkpt><trkpt lat="41.88430259449958" lon="-3.2296170106529836"><ele>1076.5</ele><time>2026-05-03T09:52:14Z</time></trkpt><trkpt lat="41.88423075267284" lon="-3.229494111012114"><ele>1076.0</ele><time>2026-05-03T09:52:15Z</time></trkpt><trkpt lat="41.88414457201564" lon="-3.229392326395367"><ele>1076.0</ele><time>2026-05-03T09:52:16Z</time></trkpt><trkpt lat="41.88404093224674" lon="-3.2293166754442684"><ele>1076.0</ele><time>2026-05-03T09:52:17Z</time></trkpt><trkpt lat="41.88395019165682" lon="-3.2292181510909574"><ele>1076.0</ele><time>2026-05-03T09:52:18Z</time></trkpt><trkpt lat="41.88385041586586" lon="-3.229136678573547"><ele>1076.0</ele><time>2026-05-03T09:52:19Z</time></trkpt><trkpt lat="41.88374520300708" lon="-3.229063119779674"><ele>1076.0</ele><time>2026-05-03T09:52:20Z</time></trkpt><trkpt lat="41.88364098953156" lon="-3.2289930554733854"><ele>1076.0</ele><time>2026-05-03T09:52:21.001Z</time></trkpt><trkpt lat="41.88353431727102" lon="-3.2289240520763105"><ele>1076.0</ele><time>2026-05-03T09:52:22.001Z</time></trkpt><trkpt lat="41.88342560464054" lon="-3.228854116111433"><ele>1076.0</ele><time>2026-05-03T09:52:23.001Z</time></trkpt><trkpt lat="41.88331847343889" lon="-3.2287882032489086"><ele>1075.0</ele><time>2026-05-03T09:52:24.001Z</time></trkpt><trkpt lat="41.88321162272705" lon="-3.228722413236876"><ele>1074.0</ele><time>2026-05-03T09:52:25.001Z</time></trkpt><trkpt lat="41.88310436983773" lon="-3.228658477908206"><ele>1073.0</ele><time>2026-05-03T09:52:26.001Z</time></trkpt><trkpt lat="41.88299468683446" lon="-3.228603026468584"><ele>1072.0</ele><time>2026-05-03T09:52:27.001Z</time></trkpt><trkpt lat="41.88288826331407" lon="-3.2285453122654637"><ele>1072.0</ele><time>2026-05-03T09:52:28.001Z</time></trkpt><trkpt lat="41.882776454279615" lon="-3.2284927058821506"><ele>1072.0</ele><time>2026-05-03T09:52:29.001Z</time></trkpt><trkpt lat="41.88267113118294" lon="-3.2284349691707934"><ele>1072.0</ele><time>2026-05-03T09:52:30.001Z</time></trkpt><trkpt lat="41.88256591593391" lon="-3.2283712555723016"><ele>1072.0</ele><time>2026-05-03T09:52:31.001Z</time></trkpt><trkpt lat="41.88246223381863" lon="-3.228322090671725"><ele>1071.4</ele><time>2026-05-03T09:52:32.001Z</time></trkpt><trkpt lat="41.88235789635224" lon="-3.228264246821065"><ele>1070.8000000000002</ele><time>2026-05-03T09:52:33.001Z</time></trkpt><trkpt lat="41.88225697630165" lon="-3.228199150644185"><ele>1070.2</ele><time>2026-05-03T09:52:34.001Z</time></trkpt><trkpt lat="41.88215599235264" lon="-3.2281308298421214"><ele>1069.6000000000001</ele><time>2026-05-03T09:52:35.001Z</time></trkpt><trkpt lat="41.88205618994981" lon="-3.2280637364349407"><ele>1069.0</ele><time>2026-05-03T09:52:36.001Z</time></trkpt><trkpt lat="41.88195774210463" lon="-3.227992958081916"><ele>1070.5</ele><time>2026-05-03T09:52:37.001Z</time></trkpt><trkpt lat="41.88185764332627" lon="-3.2279195949029673"><ele>1072.0</ele><time>2026-05-03T09:52:38.001Z</time></trkpt><trkpt lat="41.88176285909687" lon="-3.22784802346828"><ele>1073.5</ele><time>2026-05-03T09:52:39.001Z</time></trkpt><trkpt lat="41.88166660109261" lon="-3.22777039915714"><ele>1075.0</ele><time>2026-05-03T09:52:40.001Z</time></trkpt><trkpt lat="41.88157103087481" lon="-3.227683532502756"><ele>1075.0</ele><time>2026-05-03T09:52:41.001Z</time></trkpt><trkpt lat="41.881477401056586" lon="-3.2275956489046504"><ele>1075.0</ele><time>2026-05-03T09:52:42.001Z</time></trkpt><trkpt lat="41.88138654773076" lon="-3.227506895434793"><ele>1075.0</ele><time>2026-05-03T09:52:43.001Z</time></trkpt><trkpt lat="41.8812964840622" lon="-3.2274180242720996"><ele>1075.0</ele><time>2026-05-03T09:52:44.001Z</time></trkpt><trkpt lat="41.88120587160014" lon="-3.22732640155285"><ele>1073.75</ele><time>2026-05-03T09:52:45.001Z</time></trkpt><trkpt lat="41.88111714616058" lon="-3.2272333087049776"><ele>1072.5</ele><time>2026-05-03T09:52:46.001Z</time></trkpt><trkpt lat="41.881027568796846" lon="-3.227138611229782"><ele>1071.25</ele><time>2026-05-03T09:52:47.001Z</time></trkpt><trkpt lat="41.88094344448588" lon="-3.227033817189024"><ele>1070.0</ele><time>2026-05-03T09:52:48.001Z</time></trkpt><trkpt lat="41.88085612525407" lon="-3.226933549225181"><ele>1070.0</ele><time>2026-05-03T09:52:49.001Z</time></trkpt><trkpt lat="41.88076777905247" lon="-3.2268370890069606"><ele>1070.0</ele><time>2026-05-03T09:52:50.001Z</time></trkpt><trkpt lat="41.8806803195228" lon="-3.2267397187938385"><ele>1070.0</ele><time>2026-05-03T09:52:51.001Z</time></trkpt><trkpt lat="41.880596073979746" lon="-3.2266331863698743"><ele>1070.0</ele><time>2026-05-03T09:52:52.001Z</time></trkpt><trkpt lat="41.88051092294334" lon="-3.226532870109092"><ele>1071.75</ele><time>2026-05-03T09:52:53.001Z</time></trkpt><trkpt lat="41.88042551262247" lon="-3.226432440503654"><ele>1073.5</ele><time>2026-05-03T09:52:54.001Z</time></trkpt><trkpt lat="41.8803404967534" lon="-3.2263264207378755"><ele>1075.25</ele><time>2026-05-03T09:52:55.001Z</time></trkpt><trkpt lat="41.88025663030362" lon="-3.226224291785203"><ele>1077.0</ele><time>2026-05-03T09:52:56.001Z</time></trkpt><trkpt lat="41.88017373276159" lon="-3.22611974979359"><ele>1074.25</ele><time>2026-05-03T09:52:57.001Z</time></trkpt><trkpt lat="41.880090788544884" lon="-3.226014199844339"><ele>1071.5</ele><time>2026-05-03T09:52:58.001Z</time></trkpt><trkpt lat="41.880009787389845" lon="-3.2259088854176654"><ele>1068.75</ele><time>2026-05-03T09:52:59.001Z</time></trkpt><trkpt lat="41.87992850064825" lon="-3.225802979487092"><ele>1066.0</ele><time>2026-05-03T09:53:00.001Z</time></trkpt><trkpt lat="41.879848191128445" lon="-3.225698310601629"><ele>1065.5</ele><time>2026-05-03T09:53:01.001Z</time></trkpt><trkpt lat="41.87976720676238" lon="-3.2255915071780517"><ele>1065.0</ele><time>2026-05-03T09:53:02.001Z</time></trkpt><trkpt lat="41.87968996763298" lon="-3.2254830595959407"><ele>1064.5</ele><time>2026-05-03T09:53:03.001Z</time></trkpt><trkpt lat="41.87961244776402" lon="-3.2253712067369116"><ele>1064.0</ele><time>2026-05-03T09:53:04.001Z</time></trkpt><trkpt lat="41.879536864275046" lon="-3.225260849907518"><ele>1064.0</ele><time>2026-05-03T09:53:05.001Z</time></trkpt><trkpt lat="41.87946291733127" lon="-3.2251502675294317"><ele>1064.0</ele><time>2026-05-03T09:53:06.001Z</time></trkpt><trkpt lat="41.8793863958562" lon="-3.225038054735227"><ele>1064.0</ele><time>2026-05-03T09:53:07.001Z</time></trkpt><trkpt lat="41.87931860885037" lon="-3.2249269905436404"><ele>1064.0</ele><time>2026-05-03T09:53:08.001Z</time></trkpt><trkpt lat="41.879243456546504" lon="-3.2248290874411194"><ele>1064.0</ele><time>2026-05-03T09:53:09.001Z</time></trkpt><trkpt lat="41.87917112354535" lon="-3.2247045498424627"><ele>1064.4</ele><time>2026-05-03T09:53:10.001Z</time></trkpt><trkpt lat="41.87910215870469" lon="-3.224593610486572"><ele>1064.8000000000002</ele><time>2026-05-03T09:53:11.001Z</time></trkpt><trkpt lat="41.87903556771676" lon="-3.2244808041282353"><ele>1065.1999999999998</ele><time>2026-05-03T09:53:12.001Z</time></trkpt><trkpt lat="41.87896824266587" lon="-3.2243691297862607"><ele>1065.6</ele><time>2026-05-03T09:53:13.001Z</time></trkpt><trkpt lat="41.8789027821096" lon="-3.224251356369455"><ele>1066.0</ele><time>2026-05-03T09:53:14.001Z</time></trkpt><trkpt lat="41.878836071628804" lon="-3.224138239472289"><ele>1066.0</ele><time>2026-05-03T09:53:15.001Z</time></trkpt><trkpt lat="41.87877309771651" lon="-3.224024543484829"><ele>1066.0</ele><time>2026-05-03T09:53:16.001Z</time></trkpt><trkpt lat="41.87870820079156" lon="-3.2239089957221427"><ele>1066.0</ele><time>2026-05-03T09:53:17.001Z</time></trkpt><trkpt lat="41.87864725427014" lon="-3.2237923421431356"><ele>1066.0</ele><time>2026-05-03T09:53:18.001Z</time></trkpt><trkpt lat="41.878581313446965" lon="-3.223677203316317"><ele>1066.0</ele><time>2026-05-03T09:53:19.001Z</time></trkpt><trkpt lat="41.87852002891184" lon="-3.2235577215474023"><ele>1065.8</ele><time>2026-05-03T09:53:20.001Z</time></trkpt><trkpt lat="41.87845816883774" lon="-3.223433404221576"><ele>1065.6</ele><time>2026-05-03T09:53:21.001Z</time></trkpt><trkpt lat="41.87839795315814" lon="-3.2233118846217277"><ele>1065.4</ele><time>2026-05-03T09:53:22.001Z</time></trkpt><trkpt lat="41.878334479440134" lon="-3.2231878282564534"><ele>1065.2</ele><time>2026-05-03T09:53:23.002Z</time></trkpt><trkpt lat="41.878272525779664" lon="-3.223062317601285"><ele>1065.0</ele><time>2026-05-03T09:53:24.002Z</time></trkpt><trkpt lat="41.87820313157537" lon="-3.2229376421795024"><ele>1065.0</ele><time>2026-05-03T09:53:25.002Z</time></trkpt><trkpt lat="41.87813768229716" lon="-3.222814110451227"><ele>1065.0</ele><time>2026-05-03T09:53:26.002Z</time></trkpt><trkpt lat="41.87806913992862" lon="-3.222693516880144"><ele>1065.0</ele><time>2026-05-03T09:53:27.002Z</time></trkpt><trkpt lat="41.87799657530771" lon="-3.2225737977730966"><ele>1065.0</ele><time>2026-05-03T09:53:28.002Z</time></trkpt><trkpt lat="41.877921527772806" lon="-3.2224579035993615"><ele>1065.0</ele><time>2026-05-03T09:53:29.002Z</time></trkpt><trkpt lat="41.877846509468675" lon="-3.2223439052756153"><ele>1065.0</ele><time>2026-05-03T09:53:30.002Z</time></trkpt><trkpt lat="41.87776436550627" lon="-3.2222320125092994"><ele>1065.0</ele><time>2026-05-03T09:53:31.002Z</time></trkpt><trkpt lat="41.877684274159385" lon="-3.2221210754722134"><ele>1065.0</ele><time>2026-05-03T09:53:32.002Z</time></trkpt><trkpt lat="41.87759188373903" lon="-3.222018898197646"><ele>1064.75</ele><time>2026-05-03T09:53:33.002Z</time></trkpt><trkpt lat="41.87749829002949" lon="-3.2219256086936743"><ele>1064.5</ele><time>2026-05-03T09:53:34.002Z</time></trkpt><trkpt lat="41.877403481297186" lon="-3.2218390081094217"><ele>1064.25</ele><time>2026-05-03T09:53:35.002Z</time></trkpt><trkpt lat="41.8773024170165" lon="-3.2217567640105957"><ele>1064.0</ele><time>2026-05-03T09:53:36.002Z</time></trkpt><trkpt lat="41.87719752064537" lon="-3.2216880504002017"><ele>1064.0</ele><time>2026-05-03T09:53:37.002Z</time></trkpt><trkpt lat="41.877090892492156" lon="-3.2216263186713285"><ele>1064.0</ele><time>2026-05-03T09:53:38.002Z</time></trkpt><trkpt lat="41.87698192184276" lon="-3.2215719932834066"><ele>1064.0</ele><time>2026-05-03T09:53:39.002Z</time></trkpt><trkpt lat="41.876873970047946" lon="-3.2215187412837434"><ele>1064.0</ele><time>2026-05-03T09:53:40.002Z</time></trkpt><trkpt lat="41.876763436894215" lon="-3.221475795381915"><ele>1063.75</ele><time>2026-05-03T09:53:41Z</time></trkpt><trkpt lat="41.87665238137541" lon="-3.2214414782030105"><ele>1063.5</ele><time>2026-05-03T09:53:42Z</time></trkpt><trkpt lat="41.87653871717426" lon="-3.2214333042041865"><ele>1063.25</ele><time>2026-05-03T09:53:43Z</time></trkpt><trkpt lat="41.87642930411198" lon="-3.2213969648648746"><ele>1063.0</ele><time>2026-05-03T09:53:44Z</time></trkpt><trkpt lat="41.876316552105926" lon="-3.221384724769699"><ele>1063.0</ele><time>2026-05-03T09:53:45Z</time></trkpt><trkpt lat="41.87620340643486" lon="-3.221376046580866"><ele>1063.0</ele><time>2026-05-03T09:53:46Z</time></trkpt><trkpt lat="41.876090052780256" lon="-3.2213625069326146"><ele>1063.0</ele><time>2026-05-03T09:53:47Z</time></trkpt><trkpt lat="41.875978362580476" lon="-3.2213545740041916"><ele>1063.0</ele><time>2026-05-03T09:53:48Z</time></trkpt><trkpt lat="41.87586529505815" lon="-3.221350468080816"><ele>1063.0</ele><time>2026-05-03T09:53:49Z</time></trkpt><trkpt lat="41.875752290552235" lon="-3.221345018695003"><ele>1063.0</ele><time>2026-05-03T09:53:50Z</time></trkpt><trkpt lat="41.875645090142676" lon="-3.221351020982098"><ele>1063.0</ele><time>2026-05-03T09:53:51Z</time></trkpt><trkpt lat="41.87553636916138" lon="-3.2213446541082105"><ele>1063.0</ele><time>2026-05-03T09:53:52Z</time></trkpt><trkpt lat="41.87542227525923" lon="-3.2213355990631944"><ele>1063.0</ele><time>2026-05-03T09:53:53Z</time></trkpt><trkpt lat="41.875299511010795" lon="-3.2213177064404883"><ele>1062.3333333333333</ele><time>2026-05-03T09:53:54Z</time></trkpt><trkpt lat="41.87510006969301" lon="-3.2213070949339366"><ele>1061.6666666666667</ele><time>2026-05-03T09:53:55Z</time></trkpt><trkpt lat="41.87489599533154" lon="-3.221271813184329"><ele>1061.0</ele><time>2026-05-03T09:53:56Z</time></trkpt><trkpt lat="41.87498031313267" lon="-3.2212835190079705"><ele>1061.0</ele><time>2026-05-03T09:53:57Z</time></trkpt><trkpt lat="41.874868598251446" lon="-3.221260786756841"><ele>1061.0</ele><time>2026-05-03T09:53:58Z</time></trkpt><trkpt lat="41.87475967313366" lon="-3.2212286351365607"><ele>1061.0</ele><time>2026-05-03T09:53:59Z</time></trkpt><trkpt lat="41.874651524246325" lon="-3.221197258848805"><ele>1061.0</ele><time>2026-05-03T09:54:00Z</time></trkpt><trkpt lat="41.87453935216721" lon="-3.2211660912587976"><ele>1061.0</ele><time>2026-05-03T09:54:01Z</time></trkpt><trkpt lat="41.874434013228324" lon="-3.2211136417413715"><ele>1061.0</ele><time>2026-05-03T09:54:02Z</time></trkpt><trkpt lat="41.874332159035305" lon="-3.221056888806731"><ele>1061.0</ele><time>2026-05-03T09:54:03Z</time></trkpt><trkpt lat="41.874228128688685" lon="-3.2209916908986105"><ele>1061.0</ele><time>2026-05-03T09:54:04Z</time></trkpt><trkpt lat="41.87412593200729" lon="-3.220923803744277"><ele>1061.5</ele><time>2026-05-03T09:54:05Z</time></trkpt><trkpt lat="41.87402877344961" lon="-3.220846389272426"><ele>1062.0</ele><time>2026-05-03T09:54:06Z</time></trkpt><trkpt lat="41.87393284359731" lon="-3.2207591739231414"><ele>1062.5</ele><time>2026-05-03T09:54:07Z</time></trkpt><trkpt lat="41.873842074094284" lon="-3.2206638435010935"><ele>1063.0</ele><time>2026-05-03T09:54:08Z</time></trkpt><trkpt lat="41.873752865772786" lon="-3.220567878638211"><ele>1062.75</ele><time>2026-05-03T09:54:09Z</time></trkpt><trkpt lat="41.87366750844137" lon="-3.220465155315901"><ele>1062.5</ele><time>2026-05-03T09:54:10Z</time></trkpt><trkpt lat="41.873585378000286" lon="-3.2203602835681435"><ele>1062.25</ele><time>2026-05-03T09:54:11Z</time></trkpt><trkpt lat="41.87350724491695" lon="-3.2202496867167296"><ele>1062.0</ele><time>2026-05-03T09:54:12Z</time></trkpt><trkpt lat="41.87343043777582" lon="-3.220131011264903"><ele>1062.0</ele><time>2026-05-03T09:54:13Z</time></trkpt><trkpt lat="41.87335277273155" lon="-3.220017731446845"><ele>1062.0</ele><time>2026-05-03T09:54:14Z</time></trkpt><trkpt lat="41.87328019296446" lon="-3.2198987609132406"><ele>1062.0</ele><time>2026-05-03T09:54:15Z</time></trkpt><trkpt lat="41.87320796469918" lon="-3.219778194966942"><ele>1062.0</ele><time>2026-05-03T09:54:16Z</time></trkpt><trkpt lat="41.873133488952035" lon="-3.2196559255079156"><ele>1064.25</ele><time>2026-05-03T09:54:17Z</time></trkpt><trkpt lat="41.87306101749678" lon="-3.2195356892495433"><ele>1066.5</ele><time>2026-05-03T09:54:18Z</time></trkpt><trkpt lat="41.87298857498014" lon="-3.219411652084517"><ele>1068.75</ele><time>2026-05-03T09:54:19Z</time></trkpt><trkpt lat="41.87291571439456" lon="-3.21929078782471"><ele>1071.0</ele><time>2026-05-03T09:54:20Z</time></trkpt><trkpt lat="41.87283906176489" lon="-3.2191696474009044"><ele>1071.0</ele><time>2026-05-03T09:54:21Z</time></trkpt><trkpt lat="41.87276474834196" lon="-3.2190494861135326"><ele>1071.0</ele><time>2026-05-03T09:54:22Z</time></trkpt><trkpt lat="41.872692206630155" lon="-3.218928363802971"><ele>1071.0</ele><time>2026-05-03T09:54:23Z</time></trkpt><trkpt lat="41.87262006395283" lon="-3.2188091093505165"><ele>1071.0</ele><time>2026-05-03T09:54:24Z</time></trkpt><trkpt lat="41.872548465189155" lon="-3.2186883276642004"><ele>1069.0</ele><time>2026-05-03T09:54:25Z</time></trkpt><trkpt lat="41.872474480191265" lon="-3.218570375293633"><ele>1067.0</ele><time>2026-05-03T09:54:26Z</time></trkpt><trkpt lat="41.872401018293104" lon="-3.2184537661730315"><ele>1065.0</ele><time>2026-05-03T09:54:27Z</time></trkpt><trkpt lat="41.872330215585094" lon="-3.218335640354087"><ele>1063.0</ele><time>2026-05-03T09:54:28Z</time></trkpt><trkpt lat="41.87226028553892" lon="-3.218212188061002"><ele>1065.25</ele><time>2026-05-03T09:54:29Z</time></trkpt><trkpt lat="41.87219055151384" lon="-3.218098496045962"><ele>1067.5</ele><time>2026-05-03T09:54:30Z</time></trkpt><trkpt lat="41.87211788291206" lon="-3.2179797856750074"><ele>1069.75</ele><time>2026-05-03T09:54:31Z</time></trkpt><trkpt lat="41.872046223231244" lon="-3.2178642410618115"><ele>1072.0</ele><time>2026-05-03T09:54:32Z</time></trkpt><trkpt lat="41.871975892132916" lon="-3.2177441753744476"><ele>1072.0</ele><time>2026-05-03T09:54:33Z</time></trkpt><trkpt lat="41.87190473341063" lon="-3.217630409344377"><ele>1072.0</ele><time>2026-05-03T09:54:34.001Z</time></trkpt><trkpt lat="41.87183406058045" lon="-3.2175094770964994"><ele>1072.0</ele><time>2026-05-03T09:54:35.001Z</time></trkpt><trkpt lat="41.871764101215724" lon="-3.2173920948819057"><ele>1072.0</ele><time>2026-05-03T09:54:36.001Z</time></trkpt><trkpt lat="41.87169405278045" lon="-3.217274810151388"><ele>1072.0</ele><time>2026-05-03T09:54:37.001Z</time></trkpt><trkpt lat="41.87162307163503" lon="-3.217163123562694"><ele>1070.5</ele><time>2026-05-03T09:54:38.001Z</time></trkpt><trkpt lat="41.871550073044446" lon="-3.217045637442865"><ele>1069.0</ele><time>2026-05-03T09:54:39.001Z</time></trkpt><trkpt lat="41.871475389316046" lon="-3.2169359220905287"><ele>1067.5</ele><time>2026-05-03T09:54:40.001Z</time></trkpt><trkpt lat="41.87140050962238" lon="-3.216825649130525"><ele>1066.0</ele><time>2026-05-03T09:54:41.001Z</time></trkpt><trkpt lat="41.87132515196053" lon="-3.2167096288680783"><ele>1066.0</ele><time>2026-05-03T09:54:42.001Z</time></trkpt><trkpt lat="41.87124812777393" lon="-3.216597580344676"><ele>1066.0</ele><time>2026-05-03T09:54:43.001Z</time></trkpt><trkpt lat="41.871168831376536" lon="-3.2164888294111904"><ele>1066.0</ele><time>2026-05-03T09:54:44.001Z</time></trkpt><trkpt lat="41.871089416973255" lon="-3.21637893683009"><ele>1066.0</ele><time>2026-05-03T09:54:45.001Z</time></trkpt><trkpt lat="41.8710084757706" lon="-3.2162703086495954"><ele>1064.25</ele><time>2026-05-03T09:54:46.001Z</time></trkpt><trkpt lat="41.870925676064026" lon="-3.216163206596719"><ele>1062.5</ele><time>2026-05-03T09:54:47.001Z</time></trkpt><trkpt lat="41.870843437553425" lon="-3.216055898991573"><ele>1060.75</ele><time>2026-05-03T09:54:48.001Z</time></trkpt><trkpt lat="41.87075938930591" lon="-3.2159507443985027"><ele>1059.0</ele><time>2026-05-03T09:54:49.001Z</time></trkpt><trkpt lat="41.87067350354932" lon="-3.2158499571652923"><ele>1059.0</ele><time>2026-05-03T09:54:50.001Z</time></trkpt><trkpt lat="41.87058685074125" lon="-3.2157461567323327"><ele>1059.0</ele><time>2026-05-03T09:54:51.001Z</time></trkpt><trkpt lat="41.870497816558334" lon="-3.215650123874082"><ele>1059.0</ele><time>2026-05-03T09:54:52.001Z</time></trkpt><trkpt lat="41.87041193703134" lon="-3.21554774642177"><ele>1059.0</ele><time>2026-05-03T09:54:53.001Z</time></trkpt><trkpt lat="41.87032189402927" lon="-3.215454591330294"><ele>1060.0</ele><time>2026-05-03T09:54:54.001Z</time></trkpt><trkpt lat="41.870234065247665" lon="-3.2153557294111565"><ele>1061.0</ele><time>2026-05-03T09:54:55.001Z</time></trkpt><trkpt lat="41.87014528215251" lon="-3.2152619386836023"><ele>1062.0</ele><time>2026-05-03T09:54:56.001Z</time></trkpt><trkpt lat="41.870057092940385" lon="-3.215168615924795"><ele>1063.0</ele><time>2026-05-03T09:54:57.001Z</time></trkpt><trkpt lat="41.8699702156602" lon="-3.2150710988439246"><ele>1063.0</ele><time>2026-05-03T09:54:58.001Z</time></trkpt><trkpt lat="41.86988812296757" lon="-3.214968100852303"><ele>1063.0</ele><time>2026-05-03T09:54:59.001Z</time></trkpt><trkpt lat="41.86980550085213" lon="-3.2148675947810643"><ele>1063.0</ele><time>2026-05-03T09:55:00.001Z</time></trkpt><trkpt lat="41.86972577737935" lon="-3.2147613872517473"><ele>1063.0</ele><time>2026-05-03T09:55:01.001Z</time></trkpt><trkpt lat="41.869648117832455" lon="-3.214654208417625"><ele>1063.0</ele><time>2026-05-03T09:55:02.001Z</time></trkpt><trkpt lat="41.86956948056448" lon="-3.2145438730022686"><ele>1064.0</ele><time>2026-05-03T09:55:03.001Z</time></trkpt><trkpt lat="41.869493231738" lon="-3.2144394827833493"><ele>1065.0</ele><time>2026-05-03T09:55:04.001Z</time></trkpt><trkpt lat="41.86942058173839" lon="-3.2143206638752733"><ele>1066.0</ele><time>2026-05-03T09:55:05.001Z</time></trkpt><trkpt lat="41.869350774947165" lon="-3.2142012502300514"><ele>1067.0</ele><time>2026-05-03T09:55:06.001Z</time></trkpt><trkpt lat="41.86928034530695" lon="-3.2140885286265077"><ele>1068.0</ele><time>2026-05-03T09:55:07.001Z</time></trkpt><trkpt lat="41.86921036592102" lon="-3.213973904610853"><ele>1065.8</ele><time>2026-05-03T09:55:08.001Z</time></trkpt><trkpt lat="41.86914001354381" lon="-3.2138570102027564"><ele>1063.6</ele><time>2026-05-03T09:55:09.001Z</time></trkpt><trkpt lat="41.86906939199099" lon="-3.213736476605434"><ele>1061.4</ele><time>2026-05-03T09:55:10.001Z</time></trkpt><trkpt lat="41.86900285856583" lon="-3.213616194287285"><ele>1059.2</ele><time>2026-05-03T09:55:11.001Z</time></trkpt><trkpt lat="41.86893443109507" lon="-3.213500049306129"><ele>1057.0</ele><time>2026-05-03T09:55:12.001Z</time></trkpt><trkpt lat="41.86886762858166" lon="-3.2133796012726497"><ele>1057.0</ele><time>2026-05-03T09:55:13.001Z</time></trkpt><trkpt lat="41.86879959852891" lon="-3.213261550020251"><ele>1057.0</ele><time>2026-05-03T09:55:14.001Z</time></trkpt><trkpt lat="41.8687320484379" lon="-3.2131405074052397"><ele>1057.0</ele><time>2026-05-03T09:55:15.001Z</time></trkpt><trkpt lat="41.86866757911756" lon="-3.2130205622122947"><ele>1057.0</ele><time>2026-05-03T09:55:16.001Z</time></trkpt><trkpt lat="41.868600804870276" lon="-3.212896977310441"><ele>1057.0</ele><time>2026-05-03T09:55:17.001Z</time></trkpt><trkpt lat="41.86853312025662" lon="-3.2127773340752426"><ele>1057.0</ele><time>2026-05-03T09:55:18.001Z</time></trkpt><trkpt lat="41.868463418609146" lon="-3.212657252096734"><ele>1057.0</ele><time>2026-05-03T09:55:19.001Z</time></trkpt><trkpt lat="41.86839382469987" lon="-3.2125381347362096"><ele>1057.0</ele><time>2026-05-03T09:55:20.001Z</time></trkpt><trkpt lat="41.86832224838773" lon="-3.2124225653285863"><ele>1057.0</ele><time>2026-05-03T09:55:21.001Z</time></trkpt><trkpt lat="41.868251990726144" lon="-3.212304021178687"><ele>1057.0</ele><time>2026-05-03T09:55:22.001Z</time></trkpt><trkpt lat="41.86817913739043" lon="-3.2121848701223863"><ele>1057.0</ele><time>2026-05-03T09:55:23.001Z</time></trkpt><trkpt lat="41.86810455825305" lon="-3.2120687346036565"><ele>1057.0</ele><time>2026-05-03T09:55:24.001Z</time></trkpt><trkpt lat="41.8680291122138" lon="-3.2119556294073974"><ele>1057.0</ele><time>2026-05-03T09:55:25.001Z</time></trkpt><trkpt lat="41.86795066345488" lon="-3.211841160273549"><ele>1057.0</ele><time>2026-05-03T09:55:26.001Z</time></trkpt><trkpt lat="41.867869861093446" lon="-3.211731379408558"><ele>1057.0</ele><time>2026-05-03T09:55:27.001Z</time></trkpt><trkpt lat="41.86778856787168" lon="-3.211623396775792"><ele>1057.0</ele><time>2026-05-03T09:55:28.001Z</time></trkpt><trkpt lat="41.86770677692772" lon="-3.2115130687550617"><ele>1057.0</ele><time>2026-05-03T09:55:29.001Z</time></trkpt><trkpt lat="41.86762447387734" lon="-3.2114050639086757"><ele>1058.75</ele><time>2026-05-03T09:55:30.001Z</time></trkpt><trkpt lat="41.867542123166324" lon="-3.211296927221428"><ele>1060.5</ele><time>2026-05-03T09:55:31.001Z</time></trkpt><trkpt lat="41.86745847383102" lon="-3.211190261623041"><ele>1062.25</ele><time>2026-05-03T09:55:32.001Z</time></trkpt><trkpt lat="41.8673740821915" lon="-3.2110901695865968"><ele>1064.0</ele><time>2026-05-03T09:55:33.002Z</time></trkpt><trkpt lat="41.867291625106255" lon="-3.2109870116314125"><ele>1064.0</ele><time>2026-05-03T09:55:34.002Z</time></trkpt><trkpt lat="41.86720944938548" lon="-3.2108833119993205"><ele>1064.0</ele><time>2026-05-03T09:55:35.002Z</time></trkpt><trkpt lat="41.86712657906269" lon="-3.2107824610346034"><ele>1064.0</ele><time>2026-05-03T09:55:36.002Z</time></trkpt><trkpt lat="41.86704074251371" lon="-3.210687471071289"><ele>1064.0</ele><time>2026-05-03T09:55:37.002Z</time></trkpt><trkpt lat="41.866955943907286" lon="-3.2105890459985083"><ele>1064.0</ele><time>2026-05-03T09:55:38.002Z</time></trkpt><trkpt lat="41.86687306723684" lon="-3.210486487246591"><ele>1062.25</ele><time>2026-05-03T09:55:39.002Z</time></trkpt><trkpt lat="41.86678845805828" lon="-3.2103851283554317"><ele>1060.5</ele><time>2026-05-03T09:55:40.002Z</time></trkpt><trkpt lat="41.86670287064591" lon="-3.210284093596565"><ele>1058.75</ele><time>2026-05-03T09:55:41.002Z</time></trkpt><trkpt lat="41.86662080382797" lon="-3.210185765537894"><ele>1057.0</ele><time>2026-05-03T09:55:42.002Z</time></trkpt><trkpt lat="41.86653791549988" lon="-3.2100834035043455"><ele>1056.8</ele><time>2026-05-03T09:55:43.002Z</time></trkpt><trkpt lat="41.86645212261505" lon="-3.2099876724363092"><ele>1056.6</ele><time>2026-05-03T09:55:44.002Z</time></trkpt><trkpt lat="41.86637013382939" lon="-3.209884639283109"><ele>1056.3999999999999</ele><time>2026-05-03T09:55:45.002Z</time></trkpt><trkpt lat="41.86628854393216" lon="-3.20978306987869"><ele>1056.2</ele><time>2026-05-03T09:55:46.002Z</time></trkpt><trkpt lat="41.86620657602234" lon="-3.209681696694671"><ele>1056.0</ele><time>2026-05-03T09:55:47Z</time></trkpt><trkpt lat="41.86612177047713" lon="-3.209583271269543"><ele>1056.2</ele><time>2026-05-03T09:55:48Z</time></trkpt><trkpt lat="41.86604273880069" lon="-3.2094788804927736"><ele>1056.3999999999999</ele><time>2026-05-03T09:55:49Z</time></trkpt><trkpt lat="41.86596618193511" lon="-3.2093644032393547"><ele>1056.6</ele><time>2026-05-03T09:55:50Z</time></trkpt><trkpt lat="41.86588776286075" lon="-3.20925637647969"><ele>1056.8</ele><time>2026-05-03T09:55:51Z</time></trkpt><trkpt lat="41.865812608344946" lon="-3.209145590333772"><ele>1057.0</ele><time>2026-05-03T09:55:52Z</time></trkpt><trkpt lat="41.86574099809107" lon="-3.2090273040791693"><ele>1056.75</ele><time>2026-05-03T09:55:53Z</time></trkpt><trkpt lat="41.8656753137497" lon="-3.2088993168870403"><ele>1056.5</ele><time>2026-05-03T09:55:54Z</time></trkpt><trkpt lat="41.86560958502381" lon="-3.208777243637233"><ele>1056.25</ele><time>2026-05-03T09:55:55Z</time></trkpt><trkpt lat="41.865545863018816" lon="-3.2086518312300694"><ele>1056.0</ele><time>2026-05-03T09:55:56Z</time></trkpt><trkpt lat="41.865482945880935" lon="-3.208521771308159"><ele>1056.0</ele><time>2026-05-03T09:55:57Z</time></trkpt><trkpt lat="41.86541862769228" lon="-3.2083956038732353"><ele>1056.0</ele><time>2026-05-03T09:55:58Z</time></trkpt><trkpt lat="41.865354215853806" lon="-3.208270490869367"><ele>1056.0</ele><time>2026-05-03T09:55:59Z</time></trkpt><trkpt lat="41.86529225287466" lon="-3.2081377212238116"><ele>1056.0</ele><time>2026-05-03T09:56:00Z</time></trkpt><trkpt lat="41.86522810783984" lon="-3.2080117172476834"><ele>1056.0</ele><time>2026-05-03T09:56:01Z</time></trkpt><trkpt lat="41.86516564570295" lon="-3.2078835342843295"><ele>1056.0</ele><time>2026-05-03T09:56:02Z</time></trkpt><trkpt lat="41.86510293586407" lon="-3.2077547367134853"><ele>1056.0</ele><time>2026-05-03T09:56:03Z</time></trkpt><trkpt lat="41.86504272547679" lon="-3.207623644133523"><ele>1056.0</ele><time>2026-05-03T09:56:04Z</time></trkpt><trkpt lat="41.86498172609361" lon="-3.20749477135116"><ele>1056.0</ele><time>2026-05-03T09:56:05Z</time></trkpt><trkpt lat="41.86491761086617" lon="-3.2073692038638804"><ele>1056.0</ele><time>2026-05-03T09:56:06Z</time></trkpt><trkpt lat="41.864856576434356" lon="-3.2072443084582103"><ele>1056.0</ele><time>2026-05-03T09:56:07Z</time></trkpt><trkpt lat="41.86479574410753" lon="-3.2071146294453667"><ele>1056.0</ele><time>2026-05-03T09:56:08Z</time></trkpt><trkpt lat="41.864734976765654" lon="-3.20698894476162"><ele>1056.0</ele><time>2026-05-03T09:56:09Z</time></trkpt><trkpt lat="41.86467580685836" lon="-3.2068639543437674"><ele>1056.0</ele><time>2026-05-03T09:56:10Z</time></trkpt><trkpt lat="41.86461529820852" lon="-3.206737648059905"><ele>1056.0</ele><time>2026-05-03T09:56:11Z</time></trkpt><trkpt lat="41.864555432458474" lon="-3.2066080069815133"><ele>1056.0</ele><time>2026-05-03T09:56:12Z</time></trkpt><trkpt lat="41.8644965225066" lon="-3.206479254718487"><ele>1056.0</ele><time>2026-05-03T09:56:13Z</time></trkpt><trkpt lat="41.864435868697576" lon="-3.206358122847743"><ele>1056.0</ele><time>2026-05-03T09:56:14Z</time></trkpt><trkpt lat="41.86437611878177" lon="-3.2062320952066643"><ele>1056.0</ele><time>2026-05-03T09:56:15Z</time></trkpt><trkpt lat="41.86431511413762" lon="-3.206103576819461"><ele>1056.0</ele><time>2026-05-03T09:56:16Z</time></trkpt><trkpt lat="41.86425671921483" lon="-3.2059848187774627"><ele>1056.0</ele><time>2026-05-03T09:56:17Z</time></trkpt><trkpt lat="41.86419774292939" lon="-3.205852935779629"><ele>1056.0</ele><time>2026-05-03T09:56:18Z</time></trkpt><trkpt lat="41.86413675867383" lon="-3.2057330835550992"><ele>1055.0</ele><time>2026-05-03T09:56:19Z</time></trkpt><trkpt lat="41.8640660622989" lon="-3.20560391923175"><ele>1054.0</ele><time>2026-05-03T09:56:20Z</time></trkpt><trkpt lat="41.8639899916102" lon="-3.2054471149648855"><ele>1053.0</ele><time>2026-05-03T09:56:21Z</time></trkpt><trkpt lat="41.86391831914957" lon="-3.2052997107434087"><ele>1052.0</ele><time>2026-05-03T09:56:22Z</time></trkpt><trkpt lat="41.86383512687553" lon="-3.2051170598670504"><ele>1052.0</ele><time>2026-05-03T09:56:24Z</time></trkpt><trkpt lat="41.86377513772021" lon="-3.2049904920028185"><ele>1052.0</ele><time>2026-05-03T09:56:25Z</time></trkpt><trkpt lat="41.863717200718895" lon="-3.2048662513415893"><ele>1052.0</ele><time>2026-05-03T09:56:26Z</time></trkpt><trkpt lat="41.86365745710559" lon="-3.2047469500467303"><ele>1052.0</ele><time>2026-05-03T09:56:27Z</time></trkpt><trkpt lat="41.86359918964876" lon="-3.204624529676148"><ele>1052.0</ele><time>2026-05-03T09:56:28Z</time></trkpt><trkpt lat="41.86354084558544" lon="-3.204501101778009"><ele>1052.4</ele><time>2026-05-03T09:56:29Z</time></trkpt><trkpt lat="41.863477486340045" lon="-3.2043748827066105"><ele>1052.8000000000002</ele><time>2026-05-03T09:56:30Z</time></trkpt><trkpt lat="41.86341354275721" lon="-3.2042535118555833"><ele>1053.2</ele><time>2026-05-03T09:56:31Z</time></trkpt><trkpt lat="41.86334772981063" lon="-3.2041302391110404"><ele>1053.6000000000001</ele><time>2026-05-03T09:56:32Z</time></trkpt><trkpt lat="41.86328262814566" lon="-3.2040072928087513"><ele>1054.0</ele><time>2026-05-03T09:56:33Z</time></trkpt><trkpt lat="41.863216969233875" lon="-3.2038852933464455"><ele>1054.0</ele><time>2026-05-03T09:56:34Z</time></trkpt><trkpt lat="41.863152454998165" lon="-3.2037635436931677"><ele>1054.0</ele><time>2026-05-03T09:56:35Z</time></trkpt><trkpt lat="41.863087167535475" lon="-3.203641300401016"><ele>1054.0</ele><time>2026-05-03T09:56:36Z</time></trkpt><trkpt lat="41.86302449188199" lon="-3.203513769493429"><ele>1054.0</ele><time>2026-05-03T09:56:37.001Z</time></trkpt><trkpt lat="41.862963643612254" lon="-3.203387227482332"><ele>1054.0</ele><time>2026-05-03T09:56:38.001Z</time></trkpt><trkpt lat="41.862902045064956" lon="-3.2032589440827475"><ele>1054.75</ele><time>2026-05-03T09:56:39.001Z</time></trkpt><trkpt lat="41.86284241143575" lon="-3.2031307377493854"><ele>1055.5</ele><time>2026-05-03T09:56:40.001Z</time></trkpt><trkpt lat="41.862784297727806" lon="-3.2030008945307977"><ele>1056.25</ele><time>2026-05-03T09:56:41.001Z</time></trkpt><trkpt lat="41.86272663086756" lon="-3.202869433204044"><ele>1057.0</ele><time>2026-05-03T09:56:42.001Z</time></trkpt><trkpt lat="41.862666376901096" lon="-3.202739884251128"><ele>1056.6</ele><time>2026-05-03T09:56:43.001Z</time></trkpt><trkpt lat="41.8626104103816" lon="-3.2026089164967555"><ele>1056.2</ele><time>2026-05-03T09:56:44.001Z</time></trkpt><trkpt lat="41.86255522245269" lon="-3.2024775560096357"><ele>1055.8</ele><time>2026-05-03T09:56:45.001Z</time></trkpt><trkpt lat="41.86250311645354" lon="-3.2023435032473335"><ele>1055.4</ele><time>2026-05-03T09:56:46.001Z</time></trkpt><trkpt lat="41.86245777545062" lon="-3.2022222896587085"><ele>1055.0</ele><time>2026-05-03T09:56:47.001Z</time></trkpt><trkpt lat="41.86241221045304" lon="-3.2020703268492645"><ele>1055.0</ele><time>2026-05-03T09:56:48.001Z</time></trkpt><trkpt lat="41.86234738046341" lon="-3.2019335089531014"><ele>1055.0</ele><time>2026-05-03T09:56:49.001Z</time></trkpt><trkpt lat="41.862295808588904" lon="-3.201793412775857"><ele>1055.0</ele><time>2026-05-03T09:56:50.001Z</time></trkpt><trkpt lat="41.86225322734673" lon="-3.2016831331304947"><ele>1055.0</ele><time>2026-05-03T09:56:51.001Z</time></trkpt><trkpt lat="41.86220987775035" lon="-3.201547819811163"><ele>1055.0</ele><time>2026-05-03T09:56:52.001Z</time></trkpt><trkpt lat="41.86216556525454" lon="-3.2014139424936854"><ele>1054.6</ele><time>2026-05-03T09:56:53.001Z</time></trkpt><trkpt lat="41.86212223067959" lon="-3.201278345410803"><ele>1054.2</ele><time>2026-05-03T09:56:54.001Z</time></trkpt><trkpt lat="41.86208148633027" lon="-3.201144560653287"><ele>1053.8</ele><time>2026-05-03T09:56:55.001Z</time></trkpt><trkpt lat="41.86203527633167" lon="-3.20101193238515"><ele>1053.4</ele><time>2026-05-03T09:56:56.001Z</time></trkpt><trkpt lat="41.86199391893531" lon="-3.20087735481501"><ele>1053.0</ele><time>2026-05-03T09:56:57.001Z</time></trkpt><trkpt lat="41.861947931552" lon="-3.200744774326326"><ele>1053.0</ele><time>2026-05-03T09:56:58.001Z</time></trkpt><trkpt lat="41.8619070542331" lon="-3.200613532452463"><ele>1053.0</ele><time>2026-05-03T09:56:59.001Z</time></trkpt><trkpt lat="41.86186426776535" lon="-3.200485632967826"><ele>1053.0</ele><time>2026-05-03T09:57:00.001Z</time></trkpt><trkpt lat="41.861819704826246" lon="-3.2003562915292125"><ele>1053.0</ele><time>2026-05-03T09:57:01.001Z</time></trkpt><trkpt lat="41.86177216215249" lon="-3.200227757674846"><ele>1053.0</ele><time>2026-05-03T09:57:02.001Z</time></trkpt><trkpt lat="41.86172277578726" lon="-3.2001012036117484"><ele>1053.0</ele><time>2026-05-03T09:57:03.001Z</time></trkpt><trkpt lat="41.86167185811541" lon="-3.1999770587321676"><ele>1053.0</ele><time>2026-05-03T09:57:04.001Z</time></trkpt><trkpt lat="41.86161867133782" lon="-3.1998561580984677"><ele>1053.0</ele><time>2026-05-03T09:57:05.001Z</time></trkpt><trkpt lat="41.8615653358428" lon="-3.1997271357354977"><ele>1053.0</ele><time>2026-05-03T09:57:06.001Z</time></trkpt><trkpt lat="41.86150639628254" lon="-3.199599785663462"><ele>1053.0</ele><time>2026-05-03T09:57:07.001Z</time></trkpt><trkpt lat="41.86144149228781" lon="-3.199476227097324"><ele>1053.0</ele><time>2026-05-03T09:57:08.001Z</time></trkpt><trkpt lat="41.86135783498518" lon="-3.199368671618484"><ele>1053.0</ele><time>2026-05-03T09:57:09.001Z</time></trkpt><trkpt lat="41.861284271780185" lon="-3.1992573155355717"><ele>1053.0</ele><time>2026-05-03T09:57:10.001Z</time></trkpt><trkpt lat="41.86121160642909" lon="-3.199140182413216"><ele>1053.0</ele><time>2026-05-03T09:57:11.001Z</time></trkpt><trkpt lat="41.86112758372637" lon="-3.199033443551696"><ele>1053.25</ele><time>2026-05-03T09:57:12.001Z</time></trkpt><trkpt lat="41.86104311488032" lon="-3.1989325354953424"><ele>1053.5</ele><time>2026-05-03T09:57:13.001Z</time></trkpt><trkpt lat="41.86095448977167" lon="-3.1988339857739074"><ele>1053.75</ele><time>2026-05-03T09:57:14.001Z</time></trkpt><trkpt lat="41.86086735465764" lon="-3.1987374202234826"><ele>1054.0</ele><time>2026-05-03T09:57:15.001Z</time></trkpt><trkpt lat="41.86077657327373" lon="-3.1986439813193455"><ele>1054.0</ele><time>2026-05-03T09:57:16.001Z</time></trkpt><trkpt lat="41.8606855868981" lon="-3.198551350422338"><ele>1054.0</ele><time>2026-05-03T09:57:17.001Z</time></trkpt><trkpt lat="41.8605928388082" lon="-3.1984602340947808"><ele>1054.0</ele><time>2026-05-03T09:57:18.001Z</time></trkpt><trkpt lat="41.86050306629669" lon="-3.1983741046399192"><ele>1054.0</ele><time>2026-05-03T09:57:19.001Z</time></trkpt><trkpt lat="41.8604124282961" lon="-3.198285106465302"><ele>1054.0</ele><time>2026-05-03T09:57:20.001Z</time></trkpt><trkpt lat="41.86032301155032" lon="-3.198198383162882"><ele>1054.0</ele><time>2026-05-03T09:57:21.001Z</time></trkpt><trkpt lat="41.86022933881995" lon="-3.1981192568256254"><ele>1054.0</ele><time>2026-05-03T09:57:22.001Z</time></trkpt><trkpt lat="41.86013708166382" lon="-3.1980363513268393"><ele>1054.0</ele><time>2026-05-03T09:57:23.001Z</time></trkpt><trkpt lat="41.86005112121266" lon="-3.197954429422845"><ele>1054.0</ele><time>2026-05-03T09:57:24.001Z</time></trkpt><trkpt lat="41.85995754678449" lon="-3.197864415626045"><ele>1054.25</ele><time>2026-05-03T09:57:25.001Z</time></trkpt><trkpt lat="41.859863913122155" lon="-3.1977829713674004"><ele>1054.5</ele><time>2026-05-03T09:57:26.001Z</time></trkpt><trkpt lat="41.85976590442421" lon="-3.1977075552223373"><ele>1054.75</ele><time>2026-05-03T09:57:27.001Z</time></trkpt><trkpt lat="41.859672801378984" lon="-3.1976209810800986"><ele>1055.0</ele><time>2026-05-03T09:57:28.001Z</time></trkpt><trkpt lat="41.85956155852363" lon="-3.197517380821682"><ele>1055.0</ele><time>2026-05-03T09:57:29.001Z</time></trkpt><trkpt lat="41.8595021907414" lon="-3.1974507396404275"><ele>1055.0</ele><time>2026-05-03T09:57:30.001Z</time></trkpt><trkpt lat="41.85941445472" lon="-3.197362045084387"><ele>1055.0</ele><time>2026-05-03T09:57:31.001Z</time></trkpt><trkpt lat="41.85932985501615" lon="-3.197272162141571"><ele>1055.0</ele><time>2026-05-03T09:57:32.002Z</time></trkpt><trkpt lat="41.85924625606031" lon="-3.1971759586179305"><ele>1055.0</ele><time>2026-05-03T09:57:33.002Z</time></trkpt><trkpt lat="41.85916974021317" lon="-3.1970750232624465"><ele>1054.8</ele><time>2026-05-03T09:57:34.002Z</time></trkpt><trkpt lat="41.85909004662678" lon="-3.196970667743798"><ele>1054.6</ele><time>2026-05-03T09:57:35.002Z</time></trkpt><trkpt lat="41.85901725944581" lon="-3.196860117269206"><ele>1054.4</ele><time>2026-05-03T09:57:36.002Z</time></trkpt><trkpt lat="41.858949122742494" lon="-3.196745921237959"><ele>1054.2</ele><time>2026-05-03T09:57:37.002Z</time></trkpt><trkpt lat="41.85888807275862" lon="-3.1966221697915738"><ele>1054.0</ele><time>2026-05-03T09:57:38.002Z</time></trkpt><trkpt lat="41.85882826737409" lon="-3.196499082185907"><ele>1054.0</ele><time>2026-05-03T09:57:39.002Z</time></trkpt><trkpt lat="41.85876214941315" lon="-3.196379184515806"><ele>1054.0</ele><time>2026-05-03T09:57:40.002Z</time></trkpt><trkpt lat="41.8587024124885" lon="-3.196255733255187"><ele>1054.0</ele><time>2026-05-03T09:57:41.002Z</time></trkpt><trkpt lat="41.85864293418985" lon="-3.1961305906903275"><ele>1054.0</ele><time>2026-05-03T09:57:42.002Z</time></trkpt><trkpt lat="41.858586482307764" lon="-3.196002237225745"><ele>1054.0</ele><time>2026-05-03T09:57:43.002Z</time></trkpt><trkpt lat="41.8585262590184" lon="-3.195871749074661"><ele>1054.0</ele><time>2026-05-03T09:57:44.002Z</time></trkpt><trkpt lat="41.85846541311635" lon="-3.1957448253134153"><ele>1054.0</ele><time>2026-05-03T09:57:45.002Z</time></trkpt><trkpt lat="41.858404033356095" lon="-3.1956188791864397"><ele>1054.0</ele><time>2026-05-03T09:57:46.002Z</time></trkpt><trkpt lat="41.858333043819094" lon="-3.195500240286214"><ele>1054.0</ele><time>2026-05-03T09:57:47.002Z</time></trkpt><trkpt lat="41.858261521285826" lon="-3.1953831426652073"><ele>1054.25</ele><time>2026-05-03T09:57:48.002Z</time></trkpt><trkpt lat="41.85819020058483" lon="-3.195267473531339"><ele>1054.5</ele><time>2026-05-03T09:57:49.002Z</time></trkpt><trkpt lat="41.85809864076789" lon="-3.1951765735060365"><ele>1054.75</ele><time>2026-05-03T09:57:50.002Z</time></trkpt><trkpt lat="41.858017764780726" lon="-3.195075812643395"><ele>1055.0</ele><time>2026-05-03T09:57:51.002Z</time></trkpt><trkpt lat="41.85794087883745" lon="-3.1949565250281897"><ele>1055.0</ele><time>2026-05-03T09:57:52.002Z</time></trkpt><trkpt lat="41.85785593585336" lon="-3.1948608396334"><ele>1055.0</ele><time>2026-05-03T09:57:53Z</time></trkpt><trkpt lat="41.85777193242786" lon="-3.194759966164505"><ele>1055.0</ele><time>2026-05-03T09:57:54Z</time></trkpt><trkpt lat="41.857687789654356" lon="-3.1946596731205847"><ele>1055.0</ele><time>2026-05-03T09:57:55Z</time></trkpt><trkpt lat="41.85759767243995" lon="-3.194564749513448"><ele>1055.4</ele><time>2026-05-03T09:57:56Z</time></trkpt><trkpt lat="41.857508893354584" lon="-3.1944745610326732"><ele>1055.8</ele><time>2026-05-03T09:57:57Z</time></trkpt><trkpt lat="41.857423058978846" lon="-3.1943750859879922"><ele>1056.2</ele><time>2026-05-03T09:57:58Z</time></trkpt><trkpt lat="41.857333951777015" lon="-3.194283428872709"><ele>1056.6</ele><time>2026-05-03T09:57:59Z</time></trkpt><trkpt lat="41.85724961391258" lon="-3.194185670158352"><ele>1057.0</ele><time>2026-05-03T09:58:00Z</time></trkpt><trkpt lat="41.857161963128156" lon="-3.1940910963914373"><ele>1055.8</ele><time>2026-05-03T09:58:01Z</time></trkpt><trkpt lat="41.85707739352231" lon="-3.193992312794044"><ele>1054.6</ele><time>2026-05-03T09:58:02Z</time></trkpt><trkpt lat="41.85699355575249" lon="-3.1938927267711414"><ele>1053.3999999999999</ele><time>2026-05-03T09:58:03Z</time></trkpt><trkpt lat="41.856907738347815" lon="-3.193795517144445"><ele>1052.2</ele><time>2026-05-03T09:58:04Z</time></trkpt><trkpt lat="41.85682387689953" lon="-3.19369553927865"><ele>1051.0</ele><time>2026-05-03T09:58:05Z</time></trkpt><trkpt lat="41.856736482716" lon="-3.1935960999120576"><ele>1051.0</ele><time>2026-05-03T09:58:06Z</time></trkpt><trkpt lat="41.856648538683466" lon="-3.1934988187466447"><ele>1051.0</ele><time>2026-05-03T09:58:07Z</time></trkpt><trkpt lat="41.85656259693483" lon="-3.193397353113884"><ele>1051.0</ele><time>2026-05-03T09:58:08Z</time></trkpt><trkpt lat="41.856478391284945" lon="-3.1932926887276802"><ele>1051.0</ele><time>2026-05-03T09:58:09Z</time></trkpt><trkpt lat="41.85639444133571" lon="-3.1931890800925467"><ele>1054.75</ele><time>2026-05-03T09:58:10Z</time></trkpt><trkpt lat="41.8563080860045" lon="-3.1930853130292385"><ele>1058.5</ele><time>2026-05-03T09:58:11Z</time></trkpt><trkpt lat="41.85622434199737" lon="-3.1929800897515555"><ele>1062.25</ele><time>2026-05-03T09:58:12Z</time></trkpt><trkpt lat="41.85614066667082" lon="-3.192874611093242"><ele>1066.0</ele><time>2026-05-03T09:58:13Z</time></trkpt><trkpt lat="41.85605987700955" lon="-3.1927700220834"><ele>1066.0</ele><time>2026-05-03T09:58:14Z</time></trkpt><trkpt lat="41.8559801661944" lon="-3.192660184427619"><ele>1066.0</ele><time>2026-05-03T09:58:15Z</time></trkpt><trkpt lat="41.85590266831254" lon="-3.192552265033908"><ele>1066.0</ele><time>2026-05-03T09:58:16Z</time></trkpt><trkpt lat="41.8558283844076" lon="-3.1924404632422263"><ele>1066.0</ele><time>2026-05-03T09:58:17Z</time></trkpt><trkpt lat="41.85575741174752" lon="-3.1923236987580363"><ele>1063.6</ele><time>2026-05-03T09:58:18Z</time></trkpt><trkpt lat="41.855685622829874" lon="-3.192208892150908"><ele>1061.1999999999998</ele><time>2026-05-03T09:58:19Z</time></trkpt><trkpt lat="41.855615129855956" lon="-3.1920919881777823"><ele>1058.8000000000002</ele><time>2026-05-03T09:58:20Z</time></trkpt><trkpt lat="41.85554645461965" lon="-3.1919750574024146"><ele>1056.4</ele><time>2026-05-03T09:58:21Z</time></trkpt><trkpt lat="41.85547761301988" lon="-3.191855238904174"><ele>1054.0</ele><time>2026-05-03T09:58:22Z</time></trkpt><trkpt lat="41.85541717359055" lon="-3.191735596139602"><ele>1054.0</ele><time>2026-05-03T09:58:23Z</time></trkpt><trkpt lat="41.85536529521238" lon="-3.1915956228140687"><ele>1054.0</ele><time>2026-05-03T09:58:24Z</time></trkpt><trkpt lat="41.85529257484326" lon="-3.191484702977207"><ele>1054.0</ele><time>2026-05-03T09:58:25Z</time></trkpt><trkpt lat="41.85518885928437" lon="-3.1913441836119296"><ele>1054.0</ele><time>2026-05-03T09:58:26Z</time></trkpt><trkpt lat="41.855198170330716" lon="-3.1912308872829698"><ele>1054.2</ele><time>2026-05-03T09:58:27Z</time></trkpt><trkpt lat="41.85514895311594" lon="-3.1910984166953056"><ele>1054.4</ele><time>2026-05-03T09:58:28Z</time></trkpt><trkpt lat="41.855098037779015" lon="-3.190967044970261"><ele>1054.6</ele><time>2026-05-03T09:58:29Z</time></trkpt><trkpt lat="41.85505494987531" lon="-3.1908351784130597"><ele>1054.8</ele><time>2026-05-03T09:58:30Z</time></trkpt><trkpt lat="41.855012344264146" lon="-3.190704146082579"><ele>1055.0</ele><time>2026-05-03T09:58:31Z</time></trkpt><trkpt lat="41.85497049869738" lon="-3.190574570823929"><ele>1055.0</ele><time>2026-05-03T09:58:32Z</time></trkpt><trkpt lat="41.854929118159795" lon="-3.1904400847557945"><ele>1055.0</ele><time>2026-05-03T09:58:33Z</time></trkpt><trkpt lat="41.854889058553916" lon="-3.190305709987379"><ele>1055.0</ele><time>2026-05-03T09:58:34Z</time></trkpt><trkpt lat="41.854856235577216" lon="-3.1901715057941527"><ele>1055.0</ele><time>2026-05-03T09:58:35Z</time></trkpt><trkpt lat="41.85481872547563" lon="-3.1900364841585915"><ele>1055.0</ele><time>2026-05-03T09:58:36Z</time></trkpt><trkpt lat="41.85478545738591" lon="-3.189898504907336"><ele>1055.6</ele><time>2026-05-03T09:58:37Z</time></trkpt><trkpt lat="41.85475290961786" lon="-3.1897649362919593"><ele>1056.2</ele><time>2026-05-03T09:58:38Z</time></trkpt><trkpt lat="41.8547226014345" lon="-3.189628363963318"><ele>1056.8</ele><time>2026-05-03T09:58:39Z</time></trkpt><trkpt lat="41.854691306693155" lon="-3.189491725554366"><ele>1057.4</ele><time>2026-05-03T09:58:40Z</time></trkpt><trkpt lat="41.85466052495812" lon="-3.1893557076516443"><ele>1058.0</ele><time>2026-05-03T09:58:41Z</time></trkpt><trkpt lat="41.854628751989516" lon="-3.1892174860977804"><ele>1058.0</ele><time>2026-05-03T09:58:42.001Z</time></trkpt><trkpt lat="41.85459731449301" lon="-3.1890796320182515"><ele>1058.0</ele><time>2026-05-03T09:58:43.001Z</time></trkpt><trkpt lat="41.854566248490244" lon="-3.1889408670229105"><ele>1058.0</ele><time>2026-05-03T09:58:44.001Z</time></trkpt><trkpt lat="41.854533615935644" lon="-3.1888052575389634"><ele>1058.0</ele><time>2026-05-03T09:58:45.001Z</time></trkpt><trkpt lat="41.85449806553273" lon="-3.188667633336541"><ele>1058.0</ele><time>2026-05-03T09:58:46.001Z</time></trkpt><trkpt lat="41.8544619003586" lon="-3.1885292326294157"><ele>1058.8</ele><time>2026-05-03T09:58:47.001Z</time></trkpt><trkpt lat="41.854429868997066" lon="-3.188390504063594"><ele>1059.6</ele><time>2026-05-03T09:58:48.001Z</time></trkpt><trkpt lat="41.85440033028326" lon="-3.188251708822017"><ele>1060.4</ele><time>2026-05-03T09:58:49.001Z</time></trkpt><trkpt lat="41.854369544291956" lon="-3.1881147734084827"><ele>1061.2</ele><time>2026-05-03T09:58:50.001Z</time></trkpt><trkpt lat="41.854339854999544" lon="-3.187977013070119"><ele>1062.0</ele><time>2026-05-03T09:58:51.001Z</time></trkpt><trkpt lat="41.8543095048389" lon="-3.187841473344438"><ele>1062.0</ele><time>2026-05-03T09:58:52.001Z</time></trkpt><trkpt lat="41.85427701668196" lon="-3.1877054994484975"><ele>1062.0</ele><time>2026-05-03T09:58:53.001Z</time></trkpt><trkpt lat="41.85424366834139" lon="-3.187571111392421"><ele>1062.0</ele><time>2026-05-03T09:58:54.001Z</time></trkpt><trkpt lat="41.85421146967181" lon="-3.187431969059059"><ele>1062.0</ele><time>2026-05-03T09:58:55.001Z</time></trkpt><trkpt lat="41.8541812413971" lon="-3.1872939356518213"><ele>1062.0</ele><time>2026-05-03T09:58:56.001Z</time></trkpt><trkpt lat="41.85414927823314" lon="-3.187156919436896"><ele>1062.0</ele><time>2026-05-03T09:58:57.001Z</time></trkpt><trkpt lat="41.85411787234159" lon="-3.187019840795034"><ele>1062.0</ele><time>2026-05-03T09:58:58.001Z</time></trkpt><trkpt lat="41.85408667254993" lon="-3.186882275580379"><ele>1062.0</ele><time>2026-05-03T09:58:59.001Z</time></trkpt><trkpt lat="41.85405584976758" lon="-3.1867439277032585"><ele>1062.0</ele><time>2026-05-03T09:59:00.001Z</time></trkpt><trkpt lat="41.854023652323484" lon="-3.1866080751371006"><ele>1062.0</ele><time>2026-05-03T09:59:01.001Z</time></trkpt><trkpt lat="41.85399055072344" lon="-3.1864710236193456"><ele>1062.4</ele><time>2026-05-03T09:59:02.001Z</time></trkpt><trkpt lat="41.85395848448238" lon="-3.186334031972543"><ele>1062.8000000000002</ele><time>2026-05-03T09:59:03.001Z</time></trkpt><trkpt lat="41.853924941748126" lon="-3.1861998512996235"><ele>1063.2</ele><time>2026-05-03T09:59:04.001Z</time></trkpt><trkpt lat="41.8538928721057" lon="-3.186062898160862"><ele>1063.6000000000001</ele><time>2026-05-03T09:59:05.001Z</time></trkpt><trkpt lat="41.85386028454007" lon="-3.185923626312743"><ele>1064.0</ele><time>2026-05-03T09:59:06.001Z</time></trkpt><trkpt lat="41.853827192343346" lon="-3.185788214468718"><ele>1063.8</ele><time>2026-05-03T09:59:07.001Z</time></trkpt><trkpt lat="41.85379471388841" lon="-3.1856500114220188"><ele>1063.6000000000001</ele><time>2026-05-03T09:59:08.001Z</time></trkpt><trkpt lat="41.8537626485575" lon="-3.1855103403789617"><ele>1063.4</ele><time>2026-05-03T09:59:09.001Z</time></trkpt><trkpt lat="41.853731586071255" lon="-3.185372502032115"><ele>1063.2</ele><time>2026-05-03T09:59:10.001Z</time></trkpt><trkpt lat="41.85368912881965" lon="-3.1852279340001193"><ele>1063.0</ele><time>2026-05-03T09:59:11.001Z</time></trkpt><trkpt lat="41.85366691614614" lon="-3.185104864474681"><ele>1063.0</ele><time>2026-05-03T09:59:12.001Z</time></trkpt><trkpt lat="41.85363382093464" lon="-3.1849570917348182"><ele>1063.0</ele><time>2026-05-03T09:59:13.001Z</time></trkpt><trkpt lat="41.85359378653799" lon="-3.1848144230959297"><ele>1063.0</ele><time>2026-05-03T09:59:14.001Z</time></trkpt><trkpt lat="41.8535588628412" lon="-3.18467199278926"><ele>1063.0</ele><time>2026-05-03T09:59:15.001Z</time></trkpt><trkpt lat="41.8535407342988" lon="-3.1845281631013567"><ele>1063.0</ele><time>2026-05-03T09:59:16.001Z</time></trkpt><trkpt lat="41.853505163512494" lon="-3.184414495976026"><ele>1062.75</ele><time>2026-05-03T09:59:17.001Z</time></trkpt><trkpt lat="41.853459402615904" lon="-3.184243507662688"><ele>1062.5</ele><time>2026-05-03T09:59:18.001Z</time></trkpt><trkpt lat="41.85337160463044" lon="-3.1840863460581526"><ele>1062.25</ele><time>2026-05-03T09:59:19.001Z</time></trkpt><trkpt lat="41.85340087995549" lon="-3.183985261643721"><ele>1062.0</ele><time>2026-05-03T09:59:20.001Z</time></trkpt><trkpt lat="41.85333301601533" lon="-3.183683760381362"><ele>1061.8</ele><time>2026-05-03T09:59:22.001Z</time></trkpt><trkpt lat="41.85330352370358" lon="-3.1835414355049285"><ele>1061.6</ele><time>2026-05-03T09:59:23.001Z</time></trkpt><trkpt lat="41.853272209560934" lon="-3.183402976858494"><ele>1061.3999999999999</ele><time>2026-05-03T09:59:24.001Z</time></trkpt><trkpt lat="41.853239619804974" lon="-3.183264699334467"><ele>1061.2</ele><time>2026-05-03T09:59:25.001Z</time></trkpt><trkpt lat="41.85320671254992" lon="-3.1831285719521882"><ele>1061.0</ele><time>2026-05-03T09:59:26.001Z</time></trkpt><trkpt lat="41.85317604323399" lon="-3.1829943004003507"><ele>1061.0</ele><time>2026-05-03T09:59:27.001Z</time></trkpt><trkpt lat="41.85314517496752" lon="-3.1828625872029486"><ele>1061.0</ele><time>2026-05-03T09:59:28.001Z</time></trkpt><trkpt lat="41.853114477786036" lon="-3.182730022880323"><ele>1061.0</ele><time>2026-05-03T09:59:29.001Z</time></trkpt><trkpt lat="41.85308416752844" lon="-3.182598636594409"><ele>1061.0</ele><time>2026-05-03T09:59:30.001Z</time></trkpt><trkpt lat="41.853052283543036" lon="-3.1824737846257443"><ele>1061.0</ele><time>2026-05-03T09:59:31.001Z</time></trkpt><trkpt lat="41.85302121214624" lon="-3.182346710612856"><ele>1061.6</ele><time>2026-05-03T09:59:32.001Z</time></trkpt><trkpt lat="41.852991838115706" lon="-3.1822216106800196"><ele>1062.1999999999998</ele><time>2026-05-03T09:59:33.001Z</time></trkpt><trkpt lat="41.85296243235559" lon="-3.182098088919315"><ele>1062.8000000000002</ele><time>2026-05-03T09:59:34.002Z</time></trkpt><trkpt lat="41.85293484876142" lon="-3.1819728136130094"><ele>1063.4</ele><time>2026-05-03T09:59:35.002Z</time></trkpt><trkpt lat="41.85290695182683" lon="-3.181852854062756"><ele>1064.0</ele><time>2026-05-03T09:59:36.002Z</time></trkpt><trkpt lat="41.852878252048534" lon="-3.181732500936874"><ele>1064.0</ele><time>2026-05-03T09:59:37.002Z</time></trkpt><trkpt lat="41.85284725228304" lon="-3.181615408158498"><ele>1064.0</ele><time>2026-05-03T09:59:38.002Z</time></trkpt><trkpt lat="41.85281996255884" lon="-3.1814953230379976"><ele>1064.0</ele><time>2026-05-03T09:59:39.002Z</time></trkpt><trkpt lat="41.85279451160599" lon="-3.18137512002731"><ele>1064.0</ele><time>2026-05-03T09:59:40.002Z</time></trkpt><trkpt lat="41.85276746074846" lon="-3.181258804804059"><ele>1064.0</ele><time>2026-05-03T09:59:41.002Z</time></trkpt><trkpt lat="41.85273967003207" lon="-3.1811427648097257"><ele>1063.8</ele><time>2026-05-03T09:59:42.002Z</time></trkpt><trkpt lat="41.85271319850419" lon="-3.1810253020836416"><ele>1063.6000000000001</ele><time>2026-05-03T09:59:43.002Z</time></trkpt><trkpt lat="41.8526863915333" lon="-3.1809106596690677"><ele>1063.4</ele><time>2026-05-03T09:59:44.002Z</time></trkpt><trkpt lat="41.85266120359864" lon="-3.1807956535723587"><ele>1063.2</ele><time>2026-05-03T09:59:45.002Z</time></trkpt><trkpt lat="41.85263418892799" lon="-3.1806732942791585"><ele>1063.0</ele><time>2026-05-03T09:59:46.002Z</time></trkpt><trkpt lat="41.852601603993286" lon="-3.1805500609339687"><ele>1063.0</ele><time>2026-05-03T09:59:47.002Z</time></trkpt><trkpt lat="41.852573940150926" lon="-3.1804234962320392"><ele>1063.0</ele><time>2026-05-03T09:59:48.002Z</time></trkpt><trkpt lat="41.852544813439124" lon="-3.1802952280389563"><ele>1063.0</ele><time>2026-05-03T09:59:49.002Z</time></trkpt><trkpt lat="41.852515439806254" lon="-3.1801627273197637"><ele>1063.0</ele><time>2026-05-03T09:59:50.002Z</time></trkpt><trkpt lat="41.852483160918275" lon="-3.1800321667395943"><ele>1063.0</ele><time>2026-05-03T09:59:51.002Z</time></trkpt><trkpt lat="41.85245304107372" lon="-3.1798956221822383"><ele>1063.8</ele><time>2026-05-03T09:59:52.002Z</time></trkpt><trkpt lat="41.85242125482387" lon="-3.179760453880494"><ele>1064.6</ele><time>2026-05-03T09:59:53.002Z</time></trkpt><trkpt lat="41.85238709162848" lon="-3.179620595081973"><ele>1065.4</ele><time>2026-05-03T09:59:54.002Z</time></trkpt><trkpt lat="41.85235838047809" lon="-3.1794898515570544"><ele>1066.2</ele><time>2026-05-03T09:59:55.002Z</time></trkpt><trkpt lat="41.85233490179979" lon="-3.179359384131026"><ele>1067.0</ele><time>2026-05-03T09:59:56.002Z</time></trkpt><trkpt lat="41.85229655305467" lon="-3.17923671291557"><ele>1067.0</ele><time>2026-05-03T09:59:57.002Z</time></trkpt><trkpt lat="41.85226915165318" lon="-3.1791186835634595"><ele>1067.0</ele><time>2026-05-03T09:59:58.002Z</time></trkpt><trkpt lat="41.85223194842489" lon="-3.178923474438047"><ele>1067.0</ele><time>2026-05-03T09:59:59Z</time></trkpt><trkpt lat="41.8522018633209" lon="-3.1787846407615055"><ele>1067.0</ele><time>2026-05-03T10:00:00Z</time></trkpt><trkpt lat="41.85216132869223" lon="-3.178654245010815"><ele>1067.6</ele><time>2026-05-03T10:00:01Z</time></trkpt><trkpt lat="41.852131226593215" lon="-3.178521980963092"><ele>1068.2</ele><time>2026-05-03T10:00:02Z</time></trkpt><trkpt lat="41.852097994914025" lon="-3.1783609676748723"><ele>1068.8</ele><time>2026-05-03T10:00:03Z</time></trkpt><trkpt lat="41.852064983177364" lon="-3.178222845267638"><ele>1069.4</ele><time>2026-05-03T10:00:04Z</time></trkpt><trkpt lat="41.85203339876672" lon="-3.178086948467608"><ele>1070.0</ele><time>2026-05-03T10:00:05Z</time></trkpt><trkpt lat="41.852002010769546" lon="-3.177945744030666"><ele>1070.0</ele><time>2026-05-03T10:00:06Z</time></trkpt><trkpt lat="41.85197208004731" lon="-3.1778074025308003"><ele>1070.0</ele><time>2026-05-03T10:00:07Z</time></trkpt><trkpt lat="41.85193801619194" lon="-3.177668390634436"><ele>1070.0</ele><time>2026-05-03T10:00:08Z</time></trkpt><trkpt lat="41.85190434174676" lon="-3.1775302367876"><ele>1070.0</ele><time>2026-05-03T10:00:09Z</time></trkpt><trkpt lat="41.85187443037504" lon="-3.177391431637667"><ele>1070.0</ele><time>2026-05-03T10:00:10Z</time></trkpt><trkpt lat="41.851846016207325" lon="-3.177253246257336"><ele>1069.6</ele><time>2026-05-03T10:00:11Z</time></trkpt><trkpt lat="41.85181380675616" lon="-3.1771156531246247"><ele>1069.2</ele><time>2026-05-03T10:00:12Z</time></trkpt><trkpt lat="41.851782977873036" lon="-3.1769817169004524"><ele>1068.8</ele><time>2026-05-03T10:00:13Z</time></trkpt><trkpt lat="41.851750908799325" lon="-3.176846333338557"><ele>1068.4</ele><time>2026-05-03T10:00:14Z</time></trkpt><trkpt lat="41.85171783614286" lon="-3.176705604988419"><ele>1068.0</ele><time>2026-05-03T10:00:15Z</time></trkpt><trkpt lat="41.85168296688767" lon="-3.1765684683157676"><ele>1067.8</ele><time>2026-05-03T10:00:16Z</time></trkpt><trkpt lat="41.85164503816544" lon="-3.1764297554334244"><ele>1067.6</ele><time>2026-05-03T10:00:17Z</time></trkpt><trkpt lat="41.851613904554" lon="-3.1762884429786356"><ele>1067.4</ele><time>2026-05-03T10:00:18Z</time></trkpt><trkpt lat="41.85158331911192" lon="-3.1761481530511038"><ele>1067.2</ele><time>2026-05-03T10:00:19Z</time></trkpt><trkpt lat="41.851546854374206" lon="-3.1760103230128487"><ele>1067.0</ele><time>2026-05-03T10:00:20Z</time></trkpt><trkpt lat="41.851515733646664" lon="-3.1758684070765693"><ele>1067.0</ele><time>2026-05-03T10:00:21Z</time></trkpt><trkpt lat="41.85148305372909" lon="-3.175726786936294"><ele>1067.0</ele><time>2026-05-03T10:00:22Z</time></trkpt><trkpt lat="41.851449488341196" lon="-3.175584308117845"><ele>1067.0</ele><time>2026-05-03T10:00:23Z</time></trkpt><trkpt lat="41.8514169718049" lon="-3.175441195644283"><ele>1067.0</ele><time>2026-05-03T10:00:24Z</time></trkpt><trkpt lat="41.85138299158141" lon="-3.1752991151229524"><ele>1067.0</ele><time>2026-05-03T10:00:25Z</time></trkpt><trkpt lat="41.85135166152721" lon="-3.175154850314596"><ele>1066.8</ele><time>2026-05-03T10:00:26Z</time></trkpt><trkpt lat="41.85131548037701" lon="-3.175013836962346"><ele>1066.6</ele><time>2026-05-03T10:00:27Z</time></trkpt><trkpt lat="41.851280274083955" lon="-3.1748701838176"><ele>1066.3999999999999</ele><time>2026-05-03T10:00:28Z</time></trkpt><trkpt lat="41.85124580548929" lon="-3.174726924999823"><ele>1066.2</ele><time>2026-05-03T10:00:29Z</time></trkpt><trkpt lat="41.85121177675659" lon="-3.1745858163224354"><ele>1066.0</ele><time>2026-05-03T10:00:30Z</time></trkpt><trkpt lat="41.85117915248267" lon="-3.174441972753265"><ele>1066.0</ele><time>2026-05-03T10:00:31Z</time></trkpt><trkpt lat="41.85114844467152" lon="-3.174300422597204"><ele>1066.0</ele><time>2026-05-03T10:00:32Z</time></trkpt><trkpt lat="41.851117677379115" lon="-3.174159834980534"><ele>1066.0</ele><time>2026-05-03T10:00:33Z</time></trkpt><trkpt lat="41.8510838591493" lon="-3.17402086032073"><ele>1066.0</ele><time>2026-05-03T10:00:34Z</time></trkpt><trkpt lat="41.85104979687778" lon="-3.173879931116644"><ele>1066.0</ele><time>2026-05-03T10:00:35Z</time></trkpt><trkpt lat="41.8510180325913" lon="-3.1737367431146244"><ele>1066.0</ele><time>2026-05-03T10:00:36Z</time></trkpt><trkpt lat="41.85098370772334" lon="-3.173594385059008"><ele>1066.0</ele><time>2026-05-03T10:00:37Z</time></trkpt><trkpt lat="41.85095092266464" lon="-3.1734539832095856"><ele>1066.0</ele><time>2026-05-03T10:00:38Z</time></trkpt><trkpt lat="41.8509174401708" lon="-3.173314923314497"><ele>1066.0</ele><time>2026-05-03T10:00:39Z</time></trkpt><trkpt lat="41.850886182128065" lon="-3.1731787822323403"><ele>1066.0</ele><time>2026-05-03T10:00:40Z</time></trkpt><trkpt lat="41.85085584880614" lon="-3.173040830641626"><ele>1066.0</ele><time>2026-05-03T10:00:41Z</time></trkpt><trkpt lat="41.85082332055075" lon="-3.172901671282101"><ele>1066.0</ele><time>2026-05-03T10:00:42Z</time></trkpt><trkpt lat="41.85079087297932" lon="-3.1727634254773656"><ele>1066.0</ele><time>2026-05-03T10:00:43.001Z</time></trkpt><trkpt lat="41.85075834570483" lon="-3.1726220467494035"><ele>1066.0</ele><time>2026-05-03T10:00:44.001Z</time></trkpt><trkpt lat="41.85072686839482" lon="-3.172479017154081"><ele>1066.0</ele><time>2026-05-03T10:00:45.001Z</time></trkpt><trkpt lat="41.850694493829785" lon="-3.172337415590661"><ele>1066.2</ele><time>2026-05-03T10:00:46.001Z</time></trkpt><trkpt lat="41.85065874533337" lon="-3.1721948215918627"><ele>1066.3999999999999</ele><time>2026-05-03T10:00:47.001Z</time></trkpt><trkpt lat="41.85062522770141" lon="-3.1720574533125174"><ele>1066.6</ele><time>2026-05-03T10:00:48.001Z</time></trkpt><trkpt lat="41.850596325174216" lon="-3.171919860132884"><ele>1066.8</ele><time>2026-05-03T10:00:49.001Z</time></trkpt><trkpt lat="41.85056642396808" lon="-3.171782164028691"><ele>1067.0</ele><time>2026-05-03T10:00:50.001Z</time></trkpt><trkpt lat="41.85053235612113" lon="-3.1716447853946743"><ele>1066.8</ele><time>2026-05-03T10:00:51.001Z</time></trkpt><trkpt lat="41.85049961930984" lon="-3.1715096345072986"><ele>1066.6</ele><time>2026-05-03T10:00:52.001Z</time></trkpt><trkpt lat="41.85046699819813" lon="-3.171368570706727"><ele>1066.3999999999999</ele><time>2026-05-03T10:00:53.001Z</time></trkpt><trkpt lat="41.85043477671316" lon="-3.1712334892966876"><ele>1066.2</ele><time>2026-05-03T10:00:54.001Z</time></trkpt><trkpt lat="41.85040218983573" lon="-3.171093111978182"><ele>1066.0</ele><time>2026-05-03T10:00:55.001Z</time></trkpt><trkpt lat="41.85037097988617" lon="-3.1709538033851508"><ele>1066.0</ele><time>2026-05-03T10:00:56.001Z</time></trkpt><trkpt lat="41.85033991530279" lon="-3.1708123182493346"><ele>1066.0</ele><time>2026-05-03T10:00:57.001Z</time></trkpt><trkpt lat="41.85030536324372" lon="-3.1706721161317817"><ele>1066.0</ele><time>2026-05-03T10:00:58.001Z</time></trkpt><trkpt lat="41.85027600104271" lon="-3.1705328469869976"><ele>1066.0</ele><time>2026-05-03T10:00:59.001Z</time></trkpt><trkpt lat="41.85024494610089" lon="-3.1703940671269493"><ele>1066.0</ele><time>2026-05-03T10:01:00.001Z</time></trkpt><trkpt lat="41.85021044219614" lon="-3.170253916779978"><ele>1066.2</ele><time>2026-05-03T10:01:01.001Z</time></trkpt><trkpt lat="41.85017943206595" lon="-3.1701187394795673"><ele>1066.3999999999999</ele><time>2026-05-03T10:01:02.001Z</time></trkpt><trkpt lat="41.850145392133314" lon="-3.1699831976104997"><ele>1066.6</ele><time>2026-05-03T10:01:03.001Z</time></trkpt><trkpt lat="41.85011107666634" lon="-3.1698437807144884"><ele>1066.8</ele><time>2026-05-03T10:01:04.001Z</time></trkpt><trkpt lat="41.85007866401119" lon="-3.1697050569628344"><ele>1067.0</ele><time>2026-05-03T10:01:05.001Z</time></trkpt><trkpt lat="41.85004769421368" lon="-3.169569324478839"><ele>1066.4</ele><time>2026-05-03T10:01:06.001Z</time></trkpt><trkpt lat="41.850019212457674" lon="-3.169430661545717"><ele>1065.8000000000002</ele><time>2026-05-03T10:01:07.001Z</time></trkpt><trkpt lat="41.849986801671285" lon="-3.169291486636944"><ele>1065.2</ele><time>2026-05-03T10:01:08.001Z</time></trkpt><trkpt lat="41.84995560370036" lon="-3.1691488287923377"><ele>1064.6000000000001</ele><time>2026-05-03T10:01:09.001Z</time></trkpt><trkpt lat="41.84991822352749" lon="-3.169008917608394"><ele>1064.0</ele><time>2026-05-03T10:01:10.001Z</time></trkpt><trkpt lat="41.849888645518334" lon="-3.168866440258811"><ele>1064.0</ele><time>2026-05-03T10:01:11.001Z</time></trkpt><trkpt lat="41.84985171767645" lon="-3.1687249802863504"><ele>1064.0</ele><time>2026-05-03T10:01:12.001Z</time></trkpt><trkpt lat="41.849820086326346" lon="-3.1685834414325336"><ele>1064.0</ele><time>2026-05-03T10:01:13.001Z</time></trkpt><trkpt lat="41.84978742281319" lon="-3.1684501453850635"><ele>1064.0</ele><time>2026-05-03T10:01:14.001Z</time></trkpt><trkpt lat="41.84975971870358" lon="-3.1682821097040095"><ele>1064.5</ele><time>2026-05-03T10:01:15.001Z</time></trkpt><trkpt lat="41.84969868322912" lon="-3.1680799669966295"><ele>1065.0</ele><time>2026-05-03T10:01:16.001Z</time></trkpt><trkpt lat="41.84966448852742" lon="-3.1678853598723884"><ele>1065.5</ele><time>2026-05-03T10:01:18.001Z</time></trkpt><trkpt lat="41.84963114209035" lon="-3.1677492411231896"><ele>1066.0</ele><time>2026-05-03T10:01:19.001Z</time></trkpt><trkpt lat="41.84960091315093" lon="-3.1676115310206914"><ele>1066.0</ele><time>2026-05-03T10:01:20.001Z</time></trkpt><trkpt lat="41.84956915815411" lon="-3.167473358040617"><ele>1066.0</ele><time>2026-05-03T10:01:21.001Z</time></trkpt><trkpt lat="41.849537693540995" lon="-3.167337255253027"><ele>1066.0</ele><time>2026-05-03T10:01:22.001Z</time></trkpt><trkpt lat="41.84950449870961" lon="-3.1672031465583235"><ele>1066.0</ele><time>2026-05-03T10:01:23.001Z</time></trkpt><trkpt lat="41.84947356824258" lon="-3.1670696345548044"><ele>1066.0</ele><time>2026-05-03T10:01:24.001Z</time></trkpt><trkpt lat="41.849446057396534" lon="-3.166937306384988"><ele>1066.0</ele><time>2026-05-03T10:01:25.001Z</time></trkpt><trkpt lat="41.849412952295296" lon="-3.166807179954405"><ele>1066.0</ele><time>2026-05-03T10:01:26.001Z</time></trkpt><trkpt lat="41.84938478585998" lon="-3.166680562982814"><ele>1066.0</ele><time>2026-05-03T10:01:27.001Z</time></trkpt><trkpt lat="41.849352178333056" lon="-3.1665538751945834"><ele>1066.0</ele><time>2026-05-03T10:01:28.001Z</time></trkpt><trkpt lat="41.8493245797452" lon="-3.166428921392606"><ele>1066.0</ele><time>2026-05-03T10:01:29.001Z</time></trkpt><trkpt lat="41.84927428886541" lon="-3.1663170605818336"><ele>1065.2</ele><time>2026-05-03T10:01:30.001Z</time></trkpt><trkpt lat="41.84925493433121" lon="-3.1661952584885253"><ele>1064.3999999999999</ele><time>2026-05-03T10:01:31.001Z</time></trkpt><trkpt lat="41.84919414276436" lon="-3.166099432375648"><ele>1063.6</ele><time>2026-05-03T10:01:32.001Z</time></trkpt><trkpt lat="41.84914835039553" lon="-3.165995434858382"><ele>1062.8</ele><time>2026-05-03T10:01:33.002Z</time></trkpt><trkpt lat="41.849098532296225" lon="-3.1658932117156056"><ele>1062.0</ele><time>2026-05-03T10:01:34.002Z</time></trkpt><trkpt lat="41.84904680785733" lon="-3.1657903525402804"><ele>1062.0</ele><time>2026-05-03T10:01:35.002Z</time></trkpt><trkpt lat="41.848992761273394" lon="-3.1656839081001737"><ele>1062.0</ele><time>2026-05-03T10:01:36.002Z</time></trkpt><trkpt lat="41.84893654509515" lon="-3.1655794127901"><ele>1062.0</ele><time>2026-05-03T10:01:37.002Z</time></trkpt><trkpt lat="41.84887871560514" lon="-3.165473152492877"><ele>1062.0</ele><time>2026-05-03T10:01:38.002Z</time></trkpt><trkpt lat="41.848824297033396" lon="-3.1653731597072072"><ele>1062.0</ele><time>2026-05-03T10:01:39.002Z</time></trkpt><trkpt lat="41.84878653573594" lon="-3.1652716692168132"><ele>1062.0</ele><time>2026-05-03T10:01:40.002Z</time></trkpt><trkpt lat="41.848735241674596" lon="-3.165194912894955"><ele>1062.0</ele><time>2026-05-03T10:01:41.002Z</time></trkpt><trkpt lat="41.84870080188785" lon="-3.165107395136763"><ele>1062.0</ele><time>2026-05-03T10:01:42.002Z</time></trkpt><trkpt lat="41.84867361936205" lon="-3.1650216720640496"><ele>1062.0</ele><time>2026-05-03T10:01:43.002Z</time></trkpt><trkpt lat="41.848634154426605" lon="-3.1648776751587113"><ele>1062.0</ele><time>2026-05-03T10:01:45.002Z</time></trkpt><trkpt lat="41.84861195316745" lon="-3.1647930803988116"><ele>1062.0</ele><time>2026-05-03T10:01:47.002Z</time></trkpt><trkpt lat="41.848587946547" lon="-3.1646993259930136"><ele>1062.0</ele><time>2026-05-03T10:08:58Z</time></trkpt><trkpt lat="41.848562916235544" lon="-3.1646015722100604"><ele>1062.0</ele><time>2026-05-03T10:09:00Z</time></trkpt><trkpt lat="41.84853188020062" lon="-3.1644704363852156"><ele>1062.0</ele><time>2026-05-03T10:09:02Z</time></trkpt><trkpt lat="41.84849457471593" lon="-3.16431601713507"><ele>1062.0</ele><time>2026-05-03T10:09:04Z</time></trkpt><trkpt lat="41.84847296621441" lon="-3.164233125564169"><ele>1062.0</ele><time>2026-05-03T10:09:05.001Z</time></trkpt><trkpt lat="41.84845179927442" lon="-3.164151927757531"><ele>1062.0</ele><time>2026-05-03T10:09:06.001Z</time></trkpt><trkpt lat="41.84842963274308" lon="-3.1640640607521546"><ele>1061.4285714285716</ele><time>2026-05-03T10:09:07.001Z</time></trkpt><trkpt lat="41.848408010776694" lon="-3.163977044596324"><ele>1060.857142857143</ele><time>2026-05-03T10:09:08.001Z</time></trkpt><trkpt lat="41.84838563354661" lon="-3.163886988487309"><ele>1060.2857142857142</ele><time>2026-05-03T10:09:09.001Z</time></trkpt><trkpt lat="41.84836552585284" lon="-3.163791653221677"><ele>1059.7142857142858</ele><time>2026-05-03T10:09:10.001Z</time></trkpt><trkpt lat="41.848345549975484" lon="-3.163696378172597"><ele>1059.142857142857</ele><time>2026-05-03T10:09:11.001Z</time></trkpt><trkpt lat="41.84832811241235" lon="-3.1636014443246303"><ele>1058.5714285714287</ele><time>2026-05-03T10:09:12.001Z</time></trkpt><trkpt lat="41.848310874306065" lon="-3.163507839115383"><ele>1058.0</ele><time>2026-05-03T10:09:13.001Z</time></trkpt><trkpt lat="41.84829559066202" lon="-3.163412352387282"><ele>1058.0</ele><time>2026-05-03T10:09:14.001Z</time></trkpt><trkpt lat="41.848282420081645" lon="-3.1633154737629097"><ele>1058.0</ele><time>2026-05-03T10:09:15.001Z</time></trkpt><trkpt lat="41.84827130613312" lon="-3.1632162077905606"><ele>1058.0</ele><time>2026-05-03T10:09:16.001Z</time></trkpt><trkpt lat="41.84826345963881" lon="-3.163114229228982"><ele>1058.0</ele><time>2026-05-03T10:09:17.001Z</time></trkpt><trkpt lat="41.84825807554841" lon="-3.163009035694663"><ele>1058.0</ele><time>2026-05-03T10:09:18.001Z</time></trkpt><trkpt lat="41.848255521867564" lon="-3.1629012098852303"><ele>1058.0</ele><time>2026-05-03T10:09:19.001Z</time></trkpt><trkpt lat="41.84825624666052" lon="-3.162785369158245"><ele>1057.8</ele><time>2026-05-03T10:09:20.001Z</time></trkpt><trkpt lat="41.848259141284025" lon="-3.1626631300339683"><ele>1057.6</ele><time>2026-05-03T10:09:21.001Z</time></trkpt><trkpt lat="41.84826284296545" lon="-3.1625371489833456"><ele>1057.4</ele><time>2026-05-03T10:09:22.001Z</time></trkpt><trkpt lat="41.84826648210104" lon="-3.1624151057726877"><ele>1057.2</ele><time>2026-05-03T10:09:23.001Z</time></trkpt><trkpt lat="41.84827015466403" lon="-3.162291941258742"><ele>1057.0</ele><time>2026-05-03T10:09:24.001Z</time></trkpt><trkpt lat="41.84829721520275" lon="-3.1621674799166732"><ele>1057.0</ele><time>2026-05-03T10:09:25.001Z</time></trkpt><trkpt lat="41.848297131507074" lon="-3.1620370567130474"><ele>1057.0</ele><time>2026-05-03T10:09:26.001Z</time></trkpt><trkpt lat="41.84829863525055" lon="-3.1619109418302513"><ele>1057.0</ele><time>2026-05-03T10:09:27.001Z</time></trkpt><trkpt lat="41.848299406652096" lon="-3.1617801689464966"><ele>1057.0</ele><time>2026-05-03T10:09:28.001Z</time></trkpt><trkpt lat="41.848300251203376" lon="-3.1616513485578555"><ele>1057.0</ele><time>2026-05-03T10:09:29.001Z</time></trkpt><trkpt lat="41.84830079840095" lon="-3.1615278467326537"><ele>1057.6</ele><time>2026-05-03T10:09:30.001Z</time></trkpt><trkpt lat="41.84830210990017" lon="-3.1614047557119407"><ele>1058.2</ele><time>2026-05-03T10:09:31.001Z</time></trkpt><trkpt lat="41.848306920327474" lon="-3.161281411753161"><ele>1058.8</ele><time>2026-05-03T10:09:32.001Z</time></trkpt><trkpt lat="41.848310725454574" lon="-3.1611593496782704"><ele>1059.4</ele><time>2026-05-03T10:09:33.001Z</time></trkpt><trkpt lat="41.84831543639485" lon="-3.1610391416827057"><ele>1060.0</ele><time>2026-05-03T10:09:34.001Z</time></trkpt><trkpt lat="41.848300498544255" lon="-3.1609201975180463"><ele>1060.0</ele><time>2026-05-03T10:09:35.001Z</time></trkpt><trkpt lat="41.848320223171314" lon="-3.1608056795618618"><ele>1060.0</ele><time>2026-05-03T10:09:36.001Z</time></trkpt><trkpt lat="41.84832265900843" lon="-3.160690073553912"><ele>1060.0</ele><time>2026-05-03T10:09:37.001Z</time></trkpt><trkpt lat="41.84832333068847" lon="-3.160578570914653"><ele>1060.0</ele><time>2026-05-03T10:09:38.001Z</time></trkpt><trkpt lat="41.84832568493487" lon="-3.1604687160075002"><ele>1060.0</ele><time>2026-05-03T10:09:39.001Z</time></trkpt><trkpt lat="41.84832997458877" lon="-3.160354265225828"><ele>1060.0</ele><time>2026-05-03T10:09:40.001Z</time></trkpt><trkpt lat="41.84831958011348" lon="-3.1602360545157118"><ele>1060.0</ele><time>2026-05-03T10:09:41.001Z</time></trkpt><trkpt lat="41.84832179454514" lon="-3.1601168904772883"><ele>1060.0</ele><time>2026-05-03T10:09:42.001Z</time></trkpt><trkpt lat="41.84832406103775" lon="-3.159994924825211"><ele>1060.0</ele><time>2026-05-03T10:09:43.001Z</time></trkpt><trkpt lat="41.84832634683403" lon="-3.1598719160701796"><ele>1060.0</ele><time>2026-05-03T10:09:44.001Z</time></trkpt><trkpt lat="41.84835056554933" lon="-3.1597476950242926"><ele>1060.0</ele><time>2026-05-03T10:09:45.001Z</time></trkpt><trkpt lat="41.84835413009052" lon="-3.1596239414585336"><ele>1060.0</ele><time>2026-05-03T10:09:46.001Z</time></trkpt><trkpt lat="41.84835747388725" lon="-3.1595021713140823"><ele>1060.0</ele><time>2026-05-03T10:09:47.001Z</time></trkpt><trkpt lat="41.84836497602913" lon="-3.1593778819344602"><ele>1060.0</ele><time>2026-05-03T10:09:48.001Z</time></trkpt><trkpt lat="41.84836934074344" lon="-3.159249490825823"><ele>1060.0</ele><time>2026-05-03T10:09:49.001Z</time></trkpt><trkpt lat="41.8483636666051" lon="-3.159116479533458"><ele>1060.0</ele><time>2026-05-03T10:09:50.001Z</time></trkpt><trkpt lat="41.84835674841416" lon="-3.1589763091594714"><ele>1059.6</ele><time>2026-05-03T10:09:51.001Z</time></trkpt><trkpt lat="41.84835227747564" lon="-3.1588446891944244"><ele>1059.2</ele><time>2026-05-03T10:09:52.001Z</time></trkpt><trkpt lat="41.84834299501911" lon="-3.1587121859840614"><ele>1058.8</ele><time>2026-05-03T10:09:53.001Z</time></trkpt><trkpt lat="41.848332450651064" lon="-3.158580561532107"><ele>1058.4</ele><time>2026-05-03T10:09:54.001Z</time></trkpt><trkpt lat="41.8483238302501" lon="-3.158451072472961"><ele>1058.0</ele><time>2026-05-03T10:09:55.001Z</time></trkpt><trkpt lat="41.84831538802195" lon="-3.15832157347456"><ele>1057.6</ele><time>2026-05-03T10:09:56.002Z</time></trkpt><trkpt lat="41.848306307277156" lon="-3.158188995653708"><ele>1057.1999999999998</ele><time>2026-05-03T10:09:57.002Z</time></trkpt><trkpt lat="41.84827648147453" lon="-3.1580528076547885"><ele>1056.8</ele><time>2026-05-03T10:09:58.002Z</time></trkpt><trkpt lat="41.84826466020056" lon="-3.1579152349387116"><ele>1056.3999999999999</ele><time>2026-05-03T10:09:59.002Z</time></trkpt><trkpt lat="41.848252803195685" lon="-3.1577783124040586"><ele>1056.0</ele><time>2026-05-03T10:10:00.002Z</time></trkpt><trkpt lat="41.848256272463416" lon="-3.157644146705178"><ele>1056.0</ele><time>2026-05-03T10:10:01.002Z</time></trkpt><trkpt lat="41.84824536914379" lon="-3.1575057631127823"><ele>1056.0</ele><time>2026-05-03T10:10:02.002Z</time></trkpt><trkpt lat="41.848232414138884" lon="-3.157369761743215"><ele>1056.0</ele><time>2026-05-03T10:10:03.002Z</time></trkpt><trkpt lat="41.84822158931707" lon="-3.157227007510856"><ele>1056.0</ele><time>2026-05-03T10:10:04.002Z</time></trkpt><trkpt lat="41.848211459954705" lon="-3.1570889828677138"><ele>1056.0</ele><time>2026-05-03T10:10:05.002Z</time></trkpt><trkpt lat="41.848200400811386" lon="-3.1569502545425348"><ele>1055.3999999999999</ele><time>2026-05-03T10:10:06.002Z</time></trkpt><trkpt lat="41.8481892638374" lon="-3.1568078288362456"><ele>1054.8</ele><time>2026-05-03T10:10:07.002Z</time></trkpt><trkpt lat="41.84817800419045" lon="-3.156665496600854"><ele>1054.1999999999998</ele><time>2026-05-03T10:10:08.002Z</time></trkpt><trkpt lat="41.848166811102864" lon="-3.1565210523407803"><ele>1053.6</ele><time>2026-05-03T10:10:09.002Z</time></trkpt><trkpt lat="41.84815554766776" lon="-3.156376322583029"><ele>1053.0</ele><time>2026-05-03T10:10:10.002Z</time></trkpt><trkpt lat="41.84814156198379" lon="-3.156232733085788"><ele>1052.2</ele><time>2026-05-03T10:10:11.002Z</time></trkpt><trkpt lat="41.848125513992585" lon="-3.1560928714680943"><ele>1051.4</ele><time>2026-05-03T10:10:12.002Z</time></trkpt><trkpt lat="41.84811194129115" lon="-3.1559405183157163"><ele>1050.6000000000001</ele><time>2026-05-03T10:10:13.002Z</time></trkpt><trkpt lat="41.848097512307035" lon="-3.1557973656503053"><ele>1049.8</ele><time>2026-05-03T10:10:14.002Z</time></trkpt><trkpt lat="41.848084018500245" lon="-3.1556543595251343"><ele>1049.0</ele><time>2026-05-03T10:10:15.002Z</time></trkpt><trkpt lat="41.84807280634836" lon="-3.1555100437716037"><ele>1048.0</ele><time>2026-05-03T10:10:16.002Z</time></trkpt><trkpt lat="41.848065557724986" lon="-3.155365100539145"><ele>1047.0</ele><time>2026-05-03T10:10:17.002Z</time></trkpt><trkpt lat="41.84805432875618" lon="-3.15521982022161"><ele>1046.0</ele><time>2026-05-03T10:10:18.002Z</time></trkpt><trkpt lat="41.848042343339806" lon="-3.1550726208758775"><ele>1045.0</ele><time>2026-05-03T10:10:19.002Z</time></trkpt><trkpt lat="41.848031768904" lon="-3.15492627454279"><ele>1044.0</ele><time>2026-05-03T10:10:20.002Z</time></trkpt><trkpt lat="41.84801903194268" lon="-3.1547778162353395"><ele>1043.6000000000001</ele><time>2026-05-03T10:10:21.002Z</time></trkpt><trkpt lat="41.848006757775984" lon="-3.1546303336279427"><ele>1043.2</ele><time>2026-05-03T10:10:22.002Z</time></trkpt><trkpt lat="41.847995542655575" lon="-3.1544818791824496"><ele>1042.8000000000002</ele><time>2026-05-03T10:10:23.002Z</time></trkpt><trkpt lat="41.84798444119896" lon="-3.15433575364124"><ele>1042.4</ele><time>2026-05-03T10:10:24.002Z</time></trkpt><trkpt lat="41.84797257416452" lon="-3.1541924938579853"><ele>1042.0</ele><time>2026-05-03T10:10:25.002Z</time></trkpt><trkpt lat="41.84795808336715" lon="-3.1540420006747456"><ele>1042.0</ele><time>2026-05-03T10:10:26.002Z</time></trkpt><trkpt lat="41.84791989985716" lon="-3.1538765863560134"><ele>1042.0</ele><time>2026-05-03T10:10:27.002Z</time></trkpt><trkpt lat="41.847942116175474" lon="-3.153749435430648"><ele>1042.0</ele><time>2026-05-03T10:10:28.002Z</time></trkpt><trkpt lat="41.84793049483266" lon="-3.153600554499715"><ele>1042.0</ele><time>2026-05-03T10:10:28.999Z</time></trkpt><trkpt lat="41.84791835499923" lon="-3.1534544000971785"><ele>1042.0</ele><time>2026-05-03T10:10:29.999Z</time></trkpt><trkpt lat="41.84790588985958" lon="-3.153308234805666"><ele>1041.8</ele><time>2026-05-03T10:10:30.999Z</time></trkpt><trkpt lat="41.84789394247857" lon="-3.1531592039636185"><ele>1041.6</ele><time>2026-05-03T10:10:31.999Z</time></trkpt><trkpt lat="41.84788003287533" lon="-3.1530119401300674"><ele>1041.3999999999999</ele><time>2026-05-03T10:10:32.999Z</time></trkpt><trkpt lat="41.84786517210964" lon="-3.1528656525272627"><ele>1041.2</ele><time>2026-05-03T10:10:33.999Z</time></trkpt><trkpt lat="41.8478502554131" lon="-3.152715780726799"><ele>1041.0</ele><time>2026-05-03T10:10:34.999Z</time></trkpt><trkpt lat="41.84783215822564" lon="-3.1525674261705845"><ele>1041.0</ele><time>2026-05-03T10:10:35.999Z</time></trkpt><trkpt lat="41.847816225848604" lon="-3.152420515874681"><ele>1041.0</ele><time>2026-05-03T10:10:36.999Z</time></trkpt><trkpt lat="41.84780174351513" lon="-3.1522733068487057"><ele>1041.0</ele><time>2026-05-03T10:10:37.999Z</time></trkpt><trkpt lat="41.84778209774271" lon="-3.152127239343392"><ele>1041.0</ele><time>2026-05-03T10:10:38.999Z</time></trkpt><trkpt lat="41.84776236900495" lon="-3.151980516051181"><ele>1041.0</ele><time>2026-05-03T10:10:39.999Z</time></trkpt><trkpt lat="41.84774507059484" lon="-3.1518380928536094"><ele>1041.2</ele><time>2026-05-03T10:10:40.999Z</time></trkpt><trkpt lat="41.84772506744288" lon="-3.151693498792486"><ele>1041.3999999999999</ele><time>2026-05-03T10:10:41.999Z</time></trkpt><trkpt lat="41.84770505412589" lon="-3.151550643537121"><ele>1041.6</ele><time>2026-05-03T10:10:42.999Z</time></trkpt><trkpt lat="41.84768043286898" lon="-3.1514090731192796"><ele>1041.8</ele><time>2026-05-03T10:10:43.999Z</time></trkpt><trkpt lat="41.84765728045074" lon="-3.1512698414886593"><ele>1042.0</ele><time>2026-05-03T10:10:44.999Z</time></trkpt><trkpt lat="41.847632878365026" lon="-3.151124630832868"><ele>1042.6</ele><time>2026-05-03T10:10:45.999Z</time></trkpt><trkpt lat="41.84760860413237" lon="-3.150981518479474"><ele>1043.2</ele><time>2026-05-03T10:10:46.999Z</time></trkpt><trkpt lat="41.847581940123455" lon="-3.150845124082325"><ele>1043.8</ele><time>2026-05-03T10:10:47.999Z</time></trkpt><trkpt lat="41.84755490285972" lon="-3.150705843577693"><ele>1044.4</ele><time>2026-05-03T10:10:48.999Z</time></trkpt><trkpt lat="41.847532323721765" lon="-3.150575898939001"><ele>1045.0</ele><time>2026-05-03T10:10:49.999Z</time></trkpt><trkpt lat="41.84750473874408" lon="-3.150441523713019"><ele>1045.6</ele><time>2026-05-03T10:10:50.999Z</time></trkpt><trkpt lat="41.847476374451595" lon="-3.150308503991962"><ele>1046.2</ele><time>2026-05-03T10:10:51.999Z</time></trkpt><trkpt lat="41.84744816597861" lon="-3.15017756128242"><ele>1046.8</ele><time>2026-05-03T10:10:52.999Z</time></trkpt><trkpt lat="41.84741870907744" lon="-3.15004789825933"><ele>1047.4</ele><time>2026-05-03T10:10:53.999Z</time></trkpt><trkpt lat="41.84738851671388" lon="-3.1499194486710427"><ele>1048.0</ele><time>2026-05-03T10:10:54.999Z</time></trkpt><trkpt lat="41.847359141106686" lon="-3.1497922427534766"><ele>1048.6</ele><time>2026-05-03T10:10:56Z</time></trkpt><trkpt lat="41.84732810096732" lon="-3.1496675338133366"><ele>1049.1999999999998</ele><time>2026-05-03T10:10:57Z</time></trkpt><trkpt lat="41.84729847746476" lon="-3.149541802620866"><ele>1049.8</ele><time>2026-05-03T10:10:58Z</time></trkpt><trkpt lat="41.847268040803726" lon="-3.1494171506883792"><ele>1050.3999999999999</ele><time>2026-05-03T10:10:59Z</time></trkpt><trkpt lat="41.84723600907417" lon="-3.149295545743681"><ele>1051.0</ele><time>2026-05-03T10:11:00Z</time></trkpt><trkpt lat="41.847204279867704" lon="-3.1491751169033426"><ele>1051.0</ele><time>2026-05-03T10:11:01Z</time></trkpt><trkpt lat="41.84717195464744" lon="-3.149051628297323"><ele>1051.0</ele><time>2026-05-03T10:11:02Z</time></trkpt><trkpt lat="41.84713675471042" lon="-3.148933201315169"><ele>1051.0</ele><time>2026-05-03T10:11:03Z</time></trkpt><trkpt lat="41.84710259557193" lon="-3.1488085949537776"><ele>1051.0</ele><time>2026-05-03T10:11:04Z</time></trkpt><trkpt lat="41.84706677107438" lon="-3.1486898056957453"><ele>1051.0</ele><time>2026-05-03T10:11:05Z</time></trkpt><trkpt lat="41.8470296998977" lon="-3.1485698071805976"><ele>1052.0</ele><time>2026-05-03T10:11:06Z</time></trkpt><trkpt lat="41.846996908306735" lon="-3.1484504455908544"><ele>1053.0</ele><time>2026-05-03T10:11:07Z</time></trkpt><trkpt lat="41.846966095424776" lon="-3.1483299325289917"><ele>1054.0</ele><time>2026-05-03T10:11:08Z</time></trkpt><trkpt lat="41.84693484568161" lon="-3.1482099279348086"><ele>1055.0</ele><time>2026-05-03T10:11:09Z</time></trkpt><trkpt lat="41.84690092479822" lon="-3.1480901910753567"><ele>1056.0</ele><time>2026-05-03T10:11:10Z</time></trkpt><trkpt lat="41.84686711158843" lon="-3.1479734827758765"><ele>1056.6</ele><time>2026-05-03T10:11:11Z</time></trkpt><trkpt lat="41.846833127839545" lon="-3.1478542193474266"><ele>1057.1999999999998</ele><time>2026-05-03T10:11:12Z</time></trkpt><trkpt lat="41.84680010622098" lon="-3.1477366131367344"><ele>1057.8000000000002</ele><time>2026-05-03T10:11:13Z</time></trkpt><trkpt lat="41.84676716747369" lon="-3.14761493486814"><ele>1058.4</ele><time>2026-05-03T10:11:14Z</time></trkpt><trkpt lat="41.84673330562139" lon="-3.147494970614212"><ele>1059.0</ele><time>2026-05-03T10:11:15Z</time></trkpt><trkpt lat="41.84670109641037" lon="-3.1473781312156515"><ele>1058.6000000000001</ele><time>2026-05-03T10:11:16Z</time></trkpt><trkpt lat="41.846668602095654" lon="-3.1472531165377973"><ele>1058.2</ele><time>2026-05-03T10:11:17Z</time></trkpt><trkpt lat="41.84663774194005" lon="-3.1471295592611104"><ele>1057.8000000000002</ele><time>2026-05-03T10:11:18Z</time></trkpt><trkpt lat="41.84660855383519" lon="-3.147005836363883"><ele>1057.4</ele><time>2026-05-03T10:11:19Z</time></trkpt><trkpt lat="41.84657867042398" lon="-3.1468777696133436"><ele>1057.0</ele><time>2026-05-03T10:11:20Z</time></trkpt><trkpt lat="41.846553173634156" lon="-3.146752500677605"><ele>1057.0</ele><time>2026-05-03T10:11:21Z</time></trkpt><trkpt lat="41.84652471325192" lon="-3.146638778309996"><ele>1057.0</ele><time>2026-05-03T10:11:22Z</time></trkpt><trkpt lat="41.84649773787239" lon="-3.146506918830857"><ele>1057.0</ele><time>2026-05-03T10:11:23Z</time></trkpt><trkpt lat="41.846470642096726" lon="-3.1463867172018105"><ele>1057.0</ele><time>2026-05-03T10:11:24Z</time></trkpt><trkpt lat="41.84644702198787" lon="-3.1462535855987075"><ele>1057.0</ele><time>2026-05-03T10:11:25Z</time></trkpt><trkpt lat="41.84641861192814" lon="-3.1461359032723197"><ele>1057.0</ele><time>2026-05-03T10:11:26Z</time></trkpt><trkpt lat="41.8463954486131" lon="-3.1460104878337205"><ele>1057.0</ele><time>2026-05-03T10:11:27Z</time></trkpt><trkpt lat="41.846373256947906" lon="-3.1458805249864166"><ele>1057.0</ele><time>2026-05-03T10:11:28Z</time></trkpt><trkpt lat="41.84634729969019" lon="-3.145757082014321"><ele>1057.0</ele><time>2026-05-03T10:11:29Z</time></trkpt><trkpt lat="41.84632867336296" lon="-3.1456220258627394"><ele>1057.0</ele><time>2026-05-03T10:11:30Z</time></trkpt><trkpt lat="41.846302730018614" lon="-3.145490523634999"><ele>1057.0</ele><time>2026-05-03T10:11:31Z</time></trkpt><trkpt lat="41.846277036313836" lon="-3.1453589318246835"><ele>1057.0</ele><time>2026-05-03T10:11:32.001Z</time></trkpt><trkpt lat="41.84625259305267" lon="-3.1452248227948782"><ele>1057.0</ele><time>2026-05-03T10:11:33.001Z</time></trkpt><trkpt lat="41.846226247397674" lon="-3.1450900730387965"><ele>1057.0</ele><time>2026-05-03T10:11:34.001Z</time></trkpt><trkpt lat="41.84620275371326" lon="-3.1449504313319014"><ele>1057.0</ele><time>2026-05-03T10:11:35.001Z</time></trkpt><trkpt lat="41.84617892050512" lon="-3.1448111045448153"><ele>1057.0</ele><time>2026-05-03T10:11:36.001Z</time></trkpt><trkpt lat="41.8461536025983" lon="-3.144674290570139"><ele>1057.0</ele><time>2026-05-03T10:11:37.001Z</time></trkpt><trkpt lat="41.84612578152518" lon="-3.144534483551481"><ele>1057.0</ele><time>2026-05-03T10:11:38.001Z</time></trkpt><trkpt lat="41.846103436369965" lon="-3.1443915145285364"><ele>1057.0</ele><time>2026-05-03T10:11:39.001Z</time></trkpt><trkpt lat="41.84607895186858" lon="-3.1442470608875213"><ele>1057.0</ele><time>2026-05-03T10:11:40.001Z</time></trkpt><trkpt lat="41.84605540138382" lon="-3.14410981334215"><ele>1056.8</ele><time>2026-05-03T10:11:41.001Z</time></trkpt><trkpt lat="41.84602942002806" lon="-3.1439697073061375"><ele>1056.6</ele><time>2026-05-03T10:11:42.001Z</time></trkpt><trkpt lat="41.84600236595977" lon="-3.1438366432855767"><ele>1056.3999999999999</ele><time>2026-05-03T10:11:43.001Z</time></trkpt><trkpt lat="41.84597422524145" lon="-3.1436958550387883"><ele>1056.2</ele><time>2026-05-03T10:11:44.001Z</time></trkpt><trkpt lat="41.84595321630039" lon="-3.143551037105486"><ele>1056.0</ele><time>2026-05-03T10:11:45.001Z</time></trkpt><trkpt lat="41.845929286980905" lon="-3.143412250449401"><ele>1056.0</ele><time>2026-05-03T10:11:46.001Z</time></trkpt><trkpt lat="41.8459024203732" lon="-3.143273309502729"><ele>1056.0</ele><time>2026-05-03T10:11:47.001Z</time></trkpt><trkpt lat="41.8458736675422" lon="-3.143140235218305"><ele>1056.0</ele><time>2026-05-03T10:11:48.001Z</time></trkpt><trkpt lat="41.845851094724814" lon="-3.1429964985382677"><ele>1056.0</ele><time>2026-05-03T10:11:49.001Z</time></trkpt><trkpt lat="41.84582403964075" lon="-3.142860391380256"><ele>1056.0</ele><time>2026-05-03T10:11:50.001Z</time></trkpt><trkpt lat="41.84579936425092" lon="-3.1427228769738105"><ele>1055.8</ele><time>2026-05-03T10:11:51.001Z</time></trkpt><trkpt lat="41.8457735974976" lon="-3.142587035810326"><ele>1055.6</ele><time>2026-05-03T10:11:52.001Z</time></trkpt><trkpt lat="41.84575022117524" lon="-3.142445763979814"><ele>1055.4</ele><time>2026-05-03T10:11:53.001Z</time></trkpt><trkpt lat="41.84572531487335" lon="-3.1423103274584876"><ele>1055.2</ele><time>2026-05-03T10:11:54.001Z</time></trkpt><trkpt lat="41.84569971094177" lon="-3.1421737005440282"><ele>1055.0</ele><time>2026-05-03T10:11:55.001Z</time></trkpt><trkpt lat="41.84567207560032" lon="-3.142038887255448"><ele>1055.4</ele><time>2026-05-03T10:11:56.001Z</time></trkpt><trkpt lat="41.84564698136247" lon="-3.141902682541354"><ele>1055.8</ele><time>2026-05-03T10:11:57.001Z</time></trkpt><trkpt lat="41.84562492131148" lon="-3.141757847622963"><ele>1056.2</ele><time>2026-05-03T10:11:58.001Z</time></trkpt><trkpt lat="41.845598250005025" lon="-3.141622136475987"><ele>1056.6</ele><time>2026-05-03T10:11:59.001Z</time></trkpt><trkpt lat="41.84557399071932" lon="-3.141480155873932"><ele>1057.0</ele><time>2026-05-03T10:12:00.001Z</time></trkpt><trkpt lat="41.84554728082739" lon="-3.14133762969992"><ele>1057.4</ele><time>2026-05-03T10:12:01.001Z</time></trkpt><trkpt lat="41.84551904733705" lon="-3.1411994458963415"><ele>1057.8000000000002</ele><time>2026-05-03T10:12:02.001Z</time></trkpt><trkpt lat="41.84549390054203" lon="-3.1410575868993034"><ele>1058.2</ele><time>2026-05-03T10:12:03.001Z</time></trkpt><trkpt lat="41.84546995375726" lon="-3.1409169556838323"><ele>1058.6000000000001</ele><time>2026-05-03T10:12:04.001Z</time></trkpt><trkpt lat="41.84544441747643" lon="-3.140773447482418"><ele>1059.0</ele><time>2026-05-03T10:12:05.001Z</time></trkpt><trkpt lat="41.84542359735385" lon="-3.1406307569729255"><ele>1059.6000000000001</ele><time>2026-05-03T10:12:06.001Z</time></trkpt><trkpt lat="41.845394607459745" lon="-3.140494365211855"><ele>1060.2</ele><time>2026-05-03T10:12:07.001Z</time></trkpt><trkpt lat="41.845368898157325" lon="-3.1403586750436028"><ele>1060.8000000000002</ele><time>2026-05-03T10:12:08.001Z</time></trkpt><trkpt lat="41.84534576420267" lon="-3.140217424110058"><ele>1061.4</ele><time>2026-05-03T10:12:09.001Z</time></trkpt><trkpt lat="41.84532047989733" lon="-3.140076222488772"><ele>1062.0</ele><time>2026-05-03T10:12:10.001Z</time></trkpt><trkpt lat="41.8452945244354" lon="-3.1399368582332827"><ele>1062.2</ele><time>2026-05-03T10:12:11.001Z</time></trkpt><trkpt lat="41.845269303564905" lon="-3.1397998135145557"><ele>1062.4</ele><time>2026-05-03T10:12:12.001Z</time></trkpt><trkpt lat="41.84524479893896" lon="-3.1396615887752968"><ele>1062.6</ele><time>2026-05-03T10:12:13.001Z</time></trkpt><trkpt lat="41.84522152198961" lon="-3.1395182186586856"><ele>1062.8</ele><time>2026-05-03T10:12:14.001Z</time></trkpt><trkpt lat="41.845195567575" lon="-3.13938238876195"><ele>1063.0</ele><time>2026-05-03T10:12:15.002Z</time></trkpt><trkpt lat="41.84517127120482" lon="-3.1392460823889925"><ele>1063.0</ele><time>2026-05-03T10:12:16.002Z</time></trkpt><trkpt lat="41.84514485554758" lon="-3.1391036029894996"><ele>1063.0</ele><time>2026-05-03T10:12:17.002Z</time></trkpt><trkpt lat="41.84511790371253" lon="-3.1389619291199558"><ele>1063.0</ele><time>2026-05-03T10:12:18.002Z</time></trkpt><trkpt lat="41.84509112330701" lon="-3.13882301562312"><ele>1063.0</ele><time>2026-05-03T10:12:19.002Z</time></trkpt><trkpt lat="41.84506802888938" lon="-3.1386793954190155"><ele>1063.0</ele><time>2026-05-03T10:12:20.002Z</time></trkpt><trkpt lat="41.84504098087075" lon="-3.138539816650887"><ele>1062.0</ele><time>2026-05-03T10:12:21.002Z</time></trkpt><trkpt lat="41.845016201956064" lon="-3.138396577186253"><ele>1061.0</ele><time>2026-05-03T10:12:22.002Z</time></trkpt><trkpt lat="41.84499148078936" lon="-3.138254118157738"><ele>1060.0</ele><time>2026-05-03T10:12:23.002Z</time></trkpt><trkpt lat="41.84496268716232" lon="-3.138113862329477"><ele>1059.0</ele><time>2026-05-03T10:12:24.002Z</time></trkpt><trkpt lat="41.84493677490859" lon="-3.1379705930196233"><ele>1058.0</ele><time>2026-05-03T10:12:25.002Z</time></trkpt><trkpt lat="41.84491184618295" lon="-3.137826652307034"><ele>1058.0</ele><time>2026-05-03T10:12:26.002Z</time></trkpt><trkpt lat="41.84488561652938" lon="-3.1376847022556915"><ele>1058.0</ele><time>2026-05-03T10:12:27.002Z</time></trkpt><trkpt lat="41.84486145552554" lon="-3.137543258244558"><ele>1058.0</ele><time>2026-05-03T10:12:28.002Z</time></trkpt><trkpt lat="41.844837382243234" lon="-3.137398598869499"><ele>1058.0</ele><time>2026-05-03T10:12:29.002Z</time></trkpt><trkpt lat="41.844813526001985" lon="-3.1372555636625585"><ele>1058.0</ele><time>2026-05-03T10:12:30.002Z</time></trkpt><trkpt lat="41.84478894493101" lon="-3.1371146099719236"><ele>1058.4</ele><time>2026-05-03T10:12:31.002Z</time></trkpt><trkpt lat="41.844761862858654" lon="-3.1369739853283014"><ele>1058.8</ele><time>2026-05-03T10:12:32.002Z</time></trkpt><trkpt lat="41.84473475348826" lon="-3.1368338532847586"><ele>1059.2</ele><time>2026-05-03T10:12:33.002Z</time></trkpt><trkpt lat="41.84470907602621" lon="-3.1366886344893903"><ele>1059.6</ele><time>2026-05-03T10:12:34.002Z</time></trkpt><trkpt lat="41.84468190666683" lon="-3.1365474656668693"><ele>1060.0</ele><time>2026-05-03T10:12:34.998Z</time></trkpt><trkpt lat="41.84465498990123" lon="-3.136405450352031"><ele>1060.0</ele><time>2026-05-03T10:12:35.998Z</time></trkpt><trkpt lat="41.844630246407654" lon="-3.136261287607084"><ele>1060.0</ele><time>2026-05-03T10:12:36.998Z</time></trkpt><trkpt lat="41.84460158941689" lon="-3.1361162161263763"><ele>1060.0</ele><time>2026-05-03T10:12:37.998Z</time></trkpt><trkpt lat="41.84457448260093" lon="-3.1359770928715243"><ele>1060.0</ele><time>2026-05-03T10:12:38.998Z</time></trkpt><trkpt lat="41.84455012664288" lon="-3.1358334466991535"><ele>1060.0</ele><time>2026-05-03T10:12:39.998Z</time></trkpt><trkpt lat="41.84452327313921" lon="-3.1356935517649087"><ele>1059.6</ele><time>2026-05-03T10:12:40.998Z</time></trkpt><trkpt lat="41.844496156236886" lon="-3.1355532361904603"><ele>1059.2</ele><time>2026-05-03T10:12:41.998Z</time></trkpt><trkpt lat="41.844471134698566" lon="-3.135413022387304"><ele>1058.8</ele><time>2026-05-03T10:12:42.998Z</time></trkpt><trkpt lat="41.84444474039162" lon="-3.135274121496625"><ele>1058.4</ele><time>2026-05-03T10:12:43.998Z</time></trkpt><trkpt lat="41.8444208329449" lon="-3.135130870422089"><ele>1058.0</ele><time>2026-05-03T10:12:44.998Z</time></trkpt><trkpt lat="41.84439287192857" lon="-3.1349890462634096"><ele>1058.6</ele><time>2026-05-03T10:12:45.999Z</time></trkpt><trkpt lat="41.84436726369229" lon="-3.134847488538481"><ele>1059.1999999999998</ele><time>2026-05-03T10:12:46.999Z</time></trkpt><trkpt lat="41.844339895303484" lon="-3.134701998834252"><ele>1059.8</ele><time>2026-05-03T10:12:47.999Z</time></trkpt><trkpt lat="41.844315744280344" lon="-3.134556393109245"><ele>1060.3999999999999</ele><time>2026-05-03T10:12:48.999Z</time></trkpt><trkpt lat="41.844284994988456" lon="-3.1344196635624813"><ele>1061.0</ele><time>2026-05-03T10:12:49.999Z</time></trkpt><trkpt lat="41.84426220328124" lon="-3.1342665539739163"><ele>1059.0</ele><time>2026-05-03T10:12:50.999Z</time></trkpt><trkpt lat="41.84423176081897" lon="-3.13409179281806"><ele>1057.0</ele><time>2026-05-03T10:12:51.999Z</time></trkpt><trkpt lat="41.84419909266129" lon="-3.1339128910296243"><ele>1055.0</ele><time>2026-05-03T10:12:52.999Z</time></trkpt><trkpt lat="41.84416617470791" lon="-3.1336897700771007"><ele>1053.0</ele><time>2026-05-03T10:12:54.999Z</time></trkpt><trkpt lat="41.844139140562234" lon="-3.13355169886473"><ele>1053.0</ele><time>2026-05-03T10:12:55.999Z</time></trkpt><trkpt lat="41.84411032164916" lon="-3.133408842223095"><ele>1053.0</ele><time>2026-05-03T10:12:56.999Z</time></trkpt><trkpt lat="41.844083953206436" lon="-3.133266336036035"><ele>1053.0</ele><time>2026-05-03T10:12:57.999Z</time></trkpt><trkpt lat="41.844059976828476" lon="-3.1331226908815615"><ele>1053.0</ele><time>2026-05-03T10:12:58.999Z</time></trkpt><trkpt lat="41.84403250472671" lon="-3.1329780227099864"><ele>1053.0</ele><time>2026-05-03T10:12:59.999Z</time></trkpt><trkpt lat="41.84400473966871" lon="-3.1328318961072625"><ele>1053.8</ele><time>2026-05-03T10:13:00.999Z</time></trkpt><trkpt lat="41.843977965606776" lon="-3.1326856863324304"><ele>1054.6</ele><time>2026-05-03T10:13:01.999Z</time></trkpt><trkpt lat="41.84395111919501" lon="-3.1325380723806835"><ele>1055.4</ele><time>2026-05-03T10:13:02.999Z</time></trkpt><trkpt lat="41.84392415326493" lon="-3.1323906947158444"><ele>1056.2</ele><time>2026-05-03T10:13:03.999Z</time></trkpt><trkpt lat="41.84389838742137" lon="-3.132246785354478"><ele>1057.0</ele><time>2026-05-03T10:13:04.999Z</time></trkpt><trkpt lat="41.84387370956184" lon="-3.1320970157567"><ele>1056.8</ele><time>2026-05-03T10:13:06Z</time></trkpt><trkpt lat="41.8438492891112" lon="-3.1319542537780602"><ele>1056.6</ele><time>2026-05-03T10:13:07Z</time></trkpt><trkpt lat="41.84382498983035" lon="-3.1318075897117588"><ele>1056.3999999999999</ele><time>2026-05-03T10:13:08Z</time></trkpt><trkpt lat="41.84379963472947" lon="-3.1316621749481164"><ele>1056.2</ele><time>2026-05-03T10:13:09Z</time></trkpt><trkpt lat="41.84377590884133" lon="-3.131516750933495"><ele>1056.0</ele><time>2026-05-03T10:13:10Z</time></trkpt><trkpt lat="41.84375535642007" lon="-3.1313679811905706"><ele>1056.0</ele><time>2026-05-03T10:13:11Z</time></trkpt><trkpt lat="41.84373656647995" lon="-3.131220773254815"><ele>1056.0</ele><time>2026-05-03T10:13:12Z</time></trkpt><trkpt lat="41.84372269775275" lon="-3.131074934427082"><ele>1056.0</ele><time>2026-05-03T10:13:13Z</time></trkpt><trkpt lat="41.84370894063229" lon="-3.130924894528835"><ele>1056.0</ele><time>2026-05-03T10:13:14Z</time></trkpt><trkpt lat="41.84369770957973" lon="-3.1307773822483966"><ele>1056.0</ele><time>2026-05-03T10:13:15Z</time></trkpt><trkpt lat="41.84369340155991" lon="-3.130629381492562"><ele>1055.5</ele><time>2026-05-03T10:13:16Z</time></trkpt><trkpt lat="41.84370544160226" lon="-3.1304754257440526"><ele>1055.0</ele><time>2026-05-03T10:13:17Z</time></trkpt><trkpt lat="41.843715778997975" lon="-3.1303238792109225"><ele>1054.5</ele><time>2026-05-03T10:13:18Z</time></trkpt><trkpt lat="41.843730064358596" lon="-3.1301812266793263"><ele>1054.0</ele><time>2026-05-03T10:13:19Z</time></trkpt><trkpt lat="41.843749293205946" lon="-3.1300249269522356"><ele>1053.75</ele><time>2026-05-03T10:13:20Z</time></trkpt><trkpt lat="41.84377551672543" lon="-3.1298768885959256"><ele>1053.5</ele><time>2026-05-03T10:13:21Z</time></trkpt><trkpt lat="41.843809034493205" lon="-3.129730141094947"><ele>1053.25</ele><time>2026-05-03T10:13:22Z</time></trkpt><trkpt lat="41.84384401871473" lon="-3.1295828798923426"><ele>1053.0</ele><time>2026-05-03T10:13:23Z</time></trkpt><trkpt lat="41.84388224665247" lon="-3.1294391596103104"><ele>1053.0</ele><time>2026-05-03T10:13:24Z</time></trkpt><trkpt lat="41.8439234112142" lon="-3.1293001708276877"><ele>1053.0</ele><time>2026-05-03T10:13:25Z</time></trkpt><trkpt lat="41.84398027688196" lon="-3.1291654047820483"><ele>1053.0</ele><time>2026-05-03T10:13:26Z</time></trkpt><trkpt lat="41.84403535749378" lon="-3.1290473404182637"><ele>1053.0</ele><time>2026-05-03T10:13:27Z</time></trkpt><trkpt lat="41.8440954234729" lon="-3.128912622830426"><ele>1053.0</ele><time>2026-05-03T10:13:28Z</time></trkpt><trkpt lat="41.844152827758705" lon="-3.1287780700821948"><ele>1052.4</ele><time>2026-05-03T10:13:29Z</time></trkpt><trkpt lat="41.84421195965301" lon="-3.128651690459818"><ele>1051.8</ele><time>2026-05-03T10:13:30Z</time></trkpt><trkpt lat="41.84427212621598" lon="-3.128527237966347"><ele>1051.2</ele><time>2026-05-03T10:13:31Z</time></trkpt><trkpt lat="41.84433555786553" lon="-3.1284000337070728"><ele>1050.6</ele><time>2026-05-03T10:13:32Z</time></trkpt><trkpt lat="41.8443948604528" lon="-3.1282725682197463"><ele>1050.0</ele><time>2026-05-03T10:13:33Z</time></trkpt><trkpt lat="41.84445160312119" lon="-3.128138174819382"><ele>1049.0</ele><time>2026-05-03T10:13:34Z</time></trkpt><trkpt lat="41.84450895460536" lon="-3.128006690579907"><ele>1048.0</ele><time>2026-05-03T10:13:35.001Z</time></trkpt><trkpt lat="41.844571057140676" lon="-3.1278810782507613"><ele>1047.0</ele><time>2026-05-03T10:13:36.001Z</time></trkpt><trkpt lat="41.84463063965165" lon="-3.127750145750186"><ele>1046.0</ele><time>2026-05-03T10:13:37.001Z</time></trkpt><trkpt lat="41.84468338666102" lon="-3.1276090839265476"><ele>1046.0</ele><time>2026-05-03T10:13:38.001Z</time></trkpt><trkpt lat="41.84473417553941" lon="-3.1274719104696613"><ele>1046.0</ele><time>2026-05-03T10:13:39.001Z</time></trkpt><trkpt lat="41.84477832223454" lon="-3.1273319600632985"><ele>1046.0</ele><time>2026-05-03T10:13:40.001Z</time></trkpt><trkpt lat="41.84481696255051" lon="-3.1271853369967366"><ele>1046.0</ele><time>2026-05-03T10:13:41.001Z</time></trkpt><trkpt lat="41.844856049966836" lon="-3.127042935315125"><ele>1045.8</ele><time>2026-05-03T10:13:42.001Z</time></trkpt><trkpt lat="41.844896450966544" lon="-3.126903383447604"><ele>1045.6</ele><time>2026-05-03T10:13:43.001Z</time></trkpt><trkpt lat="41.84493461461201" lon="-3.126762829275769"><ele>1045.4</ele><time>2026-05-03T10:13:44.001Z</time></trkpt><trkpt lat="41.84497077035441" lon="-3.126622008714946"><ele>1045.2</ele><time>2026-05-03T10:13:45.001Z</time></trkpt><trkpt lat="41.84500590443234" lon="-3.12647838829398"><ele>1045.0</ele><time>2026-05-03T10:13:46.001Z</time></trkpt><trkpt lat="41.845051276291926" lon="-3.1263463620726615"><ele>1045.5</ele><time>2026-05-03T10:13:47.001Z</time></trkpt><trkpt lat="41.84508215806382" lon="-3.1261997014817102"><ele>1046.0</ele><time>2026-05-03T10:13:48.001Z</time></trkpt><trkpt lat="41.845121664674636" lon="-3.126066821118646"><ele>1046.5</ele><time>2026-05-03T10:13:49.001Z</time></trkpt><trkpt lat="41.84515529006166" lon="-3.125918047488721"><ele>1047.0</ele><time>2026-05-03T10:13:50.001Z</time></trkpt><trkpt lat="41.84520522091721" lon="-3.125752505017054"><ele>1049.25</ele><time>2026-05-03T10:13:51.001Z</time></trkpt><trkpt lat="41.84526783334264" lon="-3.125537728748449"><ele>1051.5</ele><time>2026-05-03T10:13:52.001Z</time></trkpt><trkpt lat="41.84533448577925" lon="-3.1252882008845666"><ele>1053.75</ele><time>2026-05-03T10:13:53.001Z</time></trkpt><trkpt lat="41.84530885665957" lon="-3.125370418582021"><ele>1056.0</ele><time>2026-05-03T10:13:54.001Z</time></trkpt><trkpt lat="41.84534748869665" lon="-3.125231214298178"><ele>1056.0</ele><time>2026-05-03T10:13:55.001Z</time></trkpt><trkpt lat="41.84538167608816" lon="-3.125095955778031"><ele>1056.0</ele><time>2026-05-03T10:13:56.001Z</time></trkpt><trkpt lat="41.84541636752459" lon="-3.124957812040552"><ele>1056.0</ele><time>2026-05-03T10:13:57.001Z</time></trkpt><trkpt lat="41.845454930057095" lon="-3.1248210345068155"><ele>1056.0</ele><time>2026-05-03T10:13:58.001Z</time></trkpt><trkpt lat="41.84549197956203" lon="-3.124689168478853"><ele>1056.0</ele><time>2026-05-03T10:13:59.001Z</time></trkpt><trkpt lat="41.84552820666891" lon="-3.124554015674834"><ele>1056.2</ele><time>2026-05-03T10:14:00.001Z</time></trkpt><trkpt lat="41.845560091283886" lon="-3.1244184021232626"><ele>1056.3999999999999</ele><time>2026-05-03T10:14:01.001Z</time></trkpt><trkpt lat="41.84559606445304" lon="-3.1242816448610333"><ele>1056.6</ele><time>2026-05-03T10:14:02.001Z</time></trkpt><trkpt lat="41.84563019317142" lon="-3.1241450479958925"><ele>1056.8</ele><time>2026-05-03T10:14:03.001Z</time></trkpt><trkpt lat="41.84566767149877" lon="-3.124005487138458"><ele>1057.0</ele><time>2026-05-03T10:14:04.001Z</time></trkpt><trkpt lat="41.845705591042275" lon="-3.1238666791139735"><ele>1056.4</ele><time>2026-05-03T10:14:05.001Z</time></trkpt><trkpt lat="41.8457434638097" lon="-3.1237256493781738"><ele>1055.8000000000002</ele><time>2026-05-03T10:14:06.001Z</time></trkpt><trkpt lat="41.84577941961374" lon="-3.1235867810434894"><ele>1055.2</ele><time>2026-05-03T10:14:07.001Z</time></trkpt><trkpt lat="41.84581874596291" lon="-3.123447813663588"><ele>1054.6000000000001</ele><time>2026-05-03T10:14:08.001Z</time></trkpt><trkpt lat="41.8458551460598" lon="-3.123310445733732"><ele>1054.0</ele><time>2026-05-03T10:14:09.001Z</time></trkpt><trkpt lat="41.84589195494158" lon="-3.1231734281349666"><ele>1053.8</ele><time>2026-05-03T10:14:10.001Z</time></trkpt><trkpt lat="41.845933330524446" lon="-3.123041149057323"><ele>1053.6000000000001</ele><time>2026-05-03T10:14:11.002Z</time></trkpt><trkpt lat="41.845971175045044" lon="-3.1229092787672132"><ele>1053.4</ele><time>2026-05-03T10:14:12.002Z</time></trkpt><trkpt lat="41.846010293610924" lon="-3.122774371783359"><ele>1053.2</ele><time>2026-05-03T10:14:13.002Z</time></trkpt><trkpt lat="41.84605257289959" lon="-3.1226428928407155"><ele>1053.0</ele><time>2026-05-03T10:14:14.002Z</time></trkpt><trkpt lat="41.84609439574486" lon="-3.1225146601247418"><ele>1055.0</ele><time>2026-05-03T10:14:15.002Z</time></trkpt><trkpt lat="41.84613490119527" lon="-3.122384794654878"><ele>1057.0</ele><time>2026-05-03T10:14:16.002Z</time></trkpt><trkpt lat="41.84617669017658" lon="-3.1222571770744225"><ele>1059.0</ele><time>2026-05-03T10:14:17.002Z</time></trkpt><trkpt lat="41.84622100892895" lon="-3.1221258953857047"><ele>1061.0</ele><time>2026-05-03T10:14:18.002Z</time></trkpt><trkpt lat="41.84626825886933" lon="-3.1219946061555626"><ele>1063.0</ele><time>2026-05-03T10:14:19.002Z</time></trkpt><trkpt lat="41.846314651937014" lon="-3.121863402058241"><ele>1063.0</ele><time>2026-05-03T10:14:20.002Z</time></trkpt><trkpt lat="41.8463626765255" lon="-3.1217276014197677"><ele>1063.0</ele><time>2026-05-03T10:14:21.002Z</time></trkpt><trkpt lat="41.84641171739207" lon="-3.12159802934804"><ele>1063.0</ele><time>2026-05-03T10:14:22.002Z</time></trkpt><trkpt lat="41.846459432581284" lon="-3.1214669607467713"><ele>1063.0</ele><time>2026-05-03T10:14:23.002Z</time></trkpt><trkpt lat="41.84651084337852" lon="-3.121335110498498"><ele>1063.0</ele><time>2026-05-03T10:14:24.002Z</time></trkpt><trkpt lat="41.8465585673466" lon="-3.1212006912468797"><ele>1062.0</ele><time>2026-05-03T10:14:25.002Z</time></trkpt><trkpt lat="41.84660579835636" lon="-3.1210713596100716"><ele>1061.0</ele><time>2026-05-03T10:14:26.002Z</time></trkpt><trkpt lat="41.84664796061889" lon="-3.120940039610967"><ele>1060.0</ele><time>2026-05-03T10:14:27.002Z</time></trkpt><trkpt lat="41.846695138842854" lon="-3.1208081704412036"><ele>1059.0</ele><time>2026-05-03T10:14:28.002Z</time></trkpt><trkpt lat="41.846739128768355" lon="-3.1206795561074627"><ele>1058.0</ele><time>2026-05-03T10:14:29.002Z</time></trkpt><trkpt lat="41.846780673595454" lon="-3.1205466462538145"><ele>1059.0</ele><time>2026-05-03T10:14:30.002Z</time></trkpt><trkpt lat="41.846817011997125" lon="-3.1204144821634663"><ele>1060.0</ele><time>2026-05-03T10:14:31.002Z</time></trkpt><trkpt lat="41.84685454946761" lon="-3.120282533991893"><ele>1061.0</ele><time>2026-05-03T10:14:32.002Z</time></trkpt><trkpt lat="41.84689333911435" lon="-3.1201491505834156"><ele>1062.0</ele><time>2026-05-03T10:14:33.002Z</time></trkpt><trkpt lat="41.846930854630344" lon="-3.1200149658072376"><ele>1063.0</ele><time>2026-05-03T10:14:34.002Z</time></trkpt><trkpt lat="41.84696726895857" lon="-3.1198827986444964"><ele>1063.0</ele><time>2026-05-03T10:14:35.002Z</time></trkpt><trkpt lat="41.84700566682507" lon="-3.1197474497571425"><ele>1063.0</ele><time>2026-05-03T10:14:36.002Z</time></trkpt><trkpt lat="41.84704223589062" lon="-3.1196103702791835"><ele>1063.0</ele><time>2026-05-03T10:14:37.002Z</time></trkpt><trkpt lat="41.84707877662466" lon="-3.1194752612539336"><ele>1063.0</ele><time>2026-05-03T10:14:38.002Z</time></trkpt><trkpt lat="41.847118223540754" lon="-3.1193386919138444"><ele>1063.0</ele><time>2026-05-03T10:14:39.002Z</time></trkpt><trkpt lat="41.847154720424285" lon="-3.1191992324955824"><ele>1062.0</ele><time>2026-05-03T10:14:40.002Z</time></trkpt><trkpt lat="41.84719264771458" lon="-3.1190635185518065"><ele>1061.0</ele><time>2026-05-03T10:14:40.998Z</time></trkpt><trkpt lat="41.847230197196836" lon="-3.1189272158522554"><ele>1060.0</ele><time>2026-05-03T10:14:41.998Z</time></trkpt><trkpt lat="41.847265628039" lon="-3.118786802226435"><ele>1059.0</ele><time>2026-05-03T10:14:42.998Z</time></trkpt><trkpt lat="41.84730391251465" lon="-3.118650165708446"><ele>1058.0</ele><time>2026-05-03T10:14:43.998Z</time></trkpt><trkpt lat="41.84733870780317" lon="-3.1185116654151086"><ele>1058.0</ele><time>2026-05-03T10:14:44.998Z</time></trkpt><trkpt lat="41.847378339579635" lon="-3.1183744867687677"><ele>1058.0</ele><time>2026-05-03T10:14:45.998Z</time></trkpt><trkpt lat="41.84741224512688" lon="-3.1182343558263694"><ele>1058.0</ele><time>2026-05-03T10:14:46.998Z</time></trkpt><trkpt lat="41.84745389822999" lon="-3.1180971072165633"><ele>1058.0</ele><time>2026-05-03T10:14:47.998Z</time></trkpt><trkpt lat="41.84749138971542" lon="-3.1179629663672808"><ele>1058.0</ele><time>2026-05-03T10:14:48.999Z</time></trkpt><trkpt lat="41.84752683242401" lon="-3.1178207129509605"><ele>1057.6</ele><time>2026-05-03T10:14:49.999Z</time></trkpt><trkpt lat="41.84756469550491" lon="-3.1176825043343226"><ele>1057.1999999999998</ele><time>2026-05-03T10:14:50.999Z</time></trkpt><trkpt lat="41.847603713112406" lon="-3.1175477872406394"><ele>1056.8</ele><time>2026-05-03T10:14:51.999Z</time></trkpt><trkpt lat="41.84764118654872" lon="-3.117410140587746"><ele>1056.3999999999999</ele><time>2026-05-03T10:14:52.999Z</time></trkpt><trkpt lat="41.84767591448435" lon="-3.1172712865081014"><ele>1056.0</ele><time>2026-05-03T10:14:53.999Z</time></trkpt><trkpt lat="41.84770959456054" lon="-3.1171326291804"><ele>1056.0</ele><time>2026-05-03T10:14:54.999Z</time></trkpt><trkpt lat="41.84774018735619" lon="-3.1169910105946332"><ele>1056.0</ele><time>2026-05-03T10:14:55.999Z</time></trkpt><trkpt lat="41.84776410125765" lon="-3.1168492326476684"><ele>1056.0</ele><time>2026-05-03T10:14:56.999Z</time></trkpt><trkpt lat="41.84778314617468" lon="-3.116709458251634"><ele>1056.0</ele><time>2026-05-03T10:14:57.999Z</time></trkpt><trkpt lat="41.84779574696174" lon="-3.1165644134889123"><ele>1056.0</ele><time>2026-05-03T10:14:58.999Z</time></trkpt><trkpt lat="41.847803165193255" lon="-3.1164174062628915"><ele>1056.3999999999999</ele><time>2026-05-03T10:14:59.999Z</time></trkpt><trkpt lat="41.84780573776016" lon="-3.1162735714162215"><ele>1056.8</ele><time>2026-05-03T10:15:00.999Z</time></trkpt><trkpt lat="41.84779971417696" lon="-3.1161276504925115"><ele>1057.1999999999998</ele><time>2026-05-03T10:15:01.999Z</time></trkpt><trkpt lat="41.847787982596465" lon="-3.115985564537327"><ele>1057.6</ele><time>2026-05-03T10:15:02.999Z</time></trkpt><trkpt lat="41.84777309012002" lon="-3.1158429947940727"><ele>1058.0</ele><time>2026-05-03T10:15:03.999Z</time></trkpt><trkpt lat="41.84775576423747" lon="-3.1156995740607436"><ele>1058.2</ele><time>2026-05-03T10:15:04.999Z</time></trkpt><trkpt lat="41.84773297598209" lon="-3.1155634827212237"><ele>1058.4</ele><time>2026-05-03T10:15:05.999Z</time></trkpt><trkpt lat="41.847706860763076" lon="-3.1154260835418364"><ele>1058.6000000000001</ele><time>2026-05-03T10:15:06.999Z</time></trkpt><trkpt lat="41.84766187460009" lon="-3.1153020682898376"><ele>1058.8</ele><time>2026-05-03T10:15:07.999Z</time></trkpt><trkpt lat="41.84763640411882" lon="-3.115166221360842"><ele>1059.0</ele><time>2026-05-03T10:15:09Z</time></trkpt><trkpt lat="41.847598515972074" lon="-3.1150376762657284"><ele>1059.0</ele><time>2026-05-03T10:15:10Z</time></trkpt><trkpt lat="41.84755348180898" lon="-3.1149125398692847"><ele>1059.0</ele><time>2026-05-03T10:15:11Z</time></trkpt><trkpt lat="41.847506200609224" lon="-3.114791861286805"><ele>1059.0</ele><time>2026-05-03T10:15:12Z</time></trkpt><trkpt lat="41.847455170233665" lon="-3.114671964352379"><ele>1059.0</ele><time>2026-05-03T10:15:13Z</time></trkpt><trkpt lat="41.847405181315935" lon="-3.1145573601184786"><ele>1059.0</ele><time>2026-05-03T10:15:14Z</time></trkpt><trkpt lat="41.847351691357176" lon="-3.1144419649732167"><ele>1059.0</ele><time>2026-05-03T10:15:15Z</time></trkpt><trkpt lat="41.84729781413855" lon="-3.1143257388770422"><ele>1059.0</ele><time>2026-05-03T10:15:16Z</time></trkpt><trkpt lat="41.84724185812878" lon="-3.114215301326386"><ele>1059.0</ele><time>2026-05-03T10:15:17Z</time></trkpt><trkpt lat="41.84718550861331" lon="-3.1141074189925217"><ele>1059.0</ele><time>2026-05-03T10:15:18Z</time></trkpt><trkpt lat="41.84712906269983" lon="-3.1139975849408725"><ele>1059.0</ele><time>2026-05-03T10:15:19Z</time></trkpt><trkpt lat="41.8470712876663" lon="-3.1138883956286914"><ele>1059.0</ele><time>2026-05-03T10:15:20Z</time></trkpt><trkpt lat="41.847015177137905" lon="-3.113777224466086"><ele>1059.0</ele><time>2026-05-03T10:15:21Z</time></trkpt><trkpt lat="41.84696200473276" lon="-3.113668854686633"><ele>1059.0</ele><time>2026-05-03T10:15:22Z</time></trkpt><trkpt lat="41.8469025255484" lon="-3.1135636456766114"><ele>1059.0</ele><time>2026-05-03T10:15:23Z</time></trkpt><trkpt lat="41.84684935041203" lon="-3.1134477123888282"><ele>1059.0</ele><time>2026-05-03T10:15:24Z</time></trkpt><trkpt lat="41.84679195664478" lon="-3.1133447147145072"><ele>1059.4</ele><time>2026-05-03T10:15:25Z</time></trkpt><trkpt lat="41.84674066983083" lon="-3.1132300036348277"><ele>1059.8000000000002</ele><time>2026-05-03T10:15:26Z</time></trkpt><trkpt lat="41.84668880330311" lon="-3.11312177533762"><ele>1060.1999999999998</ele><time>2026-05-03T10:15:27Z</time></trkpt><trkpt lat="41.84663751746621" lon="-3.1130104996339916"><ele>1060.6</ele><time>2026-05-03T10:15:28Z</time></trkpt><trkpt lat="41.846589527446454" lon="-3.112907469448412"><ele>1061.0</ele><time>2026-05-03T10:15:29Z</time></trkpt><trkpt lat="41.84654069952801" lon="-3.112805880472697"><ele>1061.0</ele><time>2026-05-03T10:15:30Z</time></trkpt><trkpt lat="41.846493025316484" lon="-3.1126992552876285"><ele>1061.0</ele><time>2026-05-03T10:15:31Z</time></trkpt><trkpt lat="41.846446720144684" lon="-3.1125941833331012"><ele>1061.0</ele><time>2026-05-03T10:15:32Z</time></trkpt><trkpt lat="41.84640003116381" lon="-3.112494982923947"><ele>1061.0</ele><time>2026-05-03T10:15:33Z</time></trkpt><trkpt lat="41.84635535266595" lon="-3.1123922662389765"><ele>1061.0</ele><time>2026-05-03T10:15:34.001Z</time></trkpt><trkpt lat="41.84630967984642" lon="-3.1122915957381343"><ele>1061.0</ele><time>2026-05-03T10:15:35.001Z</time></trkpt><trkpt lat="41.846265697351384" lon="-3.112192103752298"><ele>1061.5</ele><time>2026-05-03T10:15:36.001Z</time></trkpt><trkpt lat="41.84622193141564" lon="-3.1120921430860706"><ele>1062.0</ele><time>2026-05-03T10:15:37.001Z</time></trkpt><trkpt lat="41.846180292440636" lon="-3.1119921362437446"><ele>1062.5</ele><time>2026-05-03T10:15:38.001Z</time></trkpt><trkpt lat="41.846139359250294" lon="-3.111886423721947"><ele>1063.0</ele><time>2026-05-03T10:15:39.001Z</time></trkpt><trkpt lat="41.84609754764717" lon="-3.1117856781847055"><ele>1063.5</ele><time>2026-05-03T10:15:40.001Z</time></trkpt><trkpt lat="41.84605895821518" lon="-3.111680715012017"><ele>1064.0</ele><time>2026-05-03T10:15:41.001Z</time></trkpt><trkpt lat="41.84601862468558" lon="-3.111571879449728"><ele>1064.6000000000001</ele><time>2026-05-03T10:15:42.001Z</time></trkpt><trkpt lat="41.84597294649612" lon="-3.111471470848526"><ele>1065.2</ele><time>2026-05-03T10:15:43.001Z</time></trkpt><trkpt lat="41.84592887295137" lon="-3.1113629886123535"><ele>1065.8000000000002</ele><time>2026-05-03T10:15:44.001Z</time></trkpt><trkpt lat="41.845886910030266" lon="-3.111248731847929"><ele>1066.4</ele><time>2026-05-03T10:15:45.001Z</time></trkpt><trkpt lat="41.84584084874162" lon="-3.1111340060069796"><ele>1067.0</ele><time>2026-05-03T10:15:46.001Z</time></trkpt><trkpt lat="41.84579723299729" lon="-3.1110275356664885"><ele>1067.0</ele><time>2026-05-03T10:15:47.001Z</time></trkpt><trkpt lat="41.84575420719433" lon="-3.1109091054965186"><ele>1067.0</ele><time>2026-05-03T10:15:48.001Z</time></trkpt><trkpt lat="41.845712093228705" lon="-3.1107963755507435"><ele>1067.0</ele><time>2026-05-03T10:15:49.001Z</time></trkpt><trkpt lat="41.845666586787615" lon="-3.1106813277851115"><ele>1067.0</ele><time>2026-05-03T10:15:50.001Z</time></trkpt><trkpt lat="41.845623093790884" lon="-3.1105684134807383"><ele>1067.0</ele><time>2026-05-03T10:15:51.001Z</time></trkpt><trkpt lat="41.84557626703633" lon="-3.1104509862811613"><ele>1067.0</ele><time>2026-05-03T10:15:52.001Z</time></trkpt><trkpt lat="41.84553417369833" lon="-3.1103348898765875"><ele>1067.0</ele><time>2026-05-03T10:15:53.001Z</time></trkpt><trkpt lat="41.84548720103349" lon="-3.110217183739019"><ele>1067.0</ele><time>2026-05-03T10:15:54.001Z</time></trkpt><trkpt lat="41.84544327345877" lon="-3.1100995640138906"><ele>1067.0</ele><time>2026-05-03T10:15:55.001Z</time></trkpt><trkpt lat="41.8453977313629" lon="-3.109988364440144"><ele>1067.0</ele><time>2026-05-03T10:15:56.001Z</time></trkpt><trkpt lat="41.8453528319539" lon="-3.1098655369176553"><ele>1068.6</ele><time>2026-05-03T10:15:57.001Z</time></trkpt><trkpt lat="41.84530617168235" lon="-3.109751577723038"><ele>1070.2</ele><time>2026-05-03T10:15:58.001Z</time></trkpt><trkpt lat="41.84526081117447" lon="-3.1096336260200155"><ele>1071.8</ele><time>2026-05-03T10:15:59.001Z</time></trkpt><trkpt lat="41.845213923450984" lon="-3.1095201867201276"><ele>1073.4</ele><time>2026-05-03T10:16:00.001Z</time></trkpt><trkpt lat="41.84517047619645" lon="-3.109402380623798"><ele>1075.0</ele><time>2026-05-03T10:16:01.001Z</time></trkpt><trkpt lat="41.84512608484449" lon="-3.1092861379337666"><ele>1075.0</ele><time>2026-05-03T10:16:02.001Z</time></trkpt><trkpt lat="41.845079984611736" lon="-3.109166665524106"><ele>1075.0</ele><time>2026-05-03T10:16:03.001Z</time></trkpt><trkpt lat="41.84503818962226" lon="-3.109053103745393"><ele>1075.0</ele><time>2026-05-03T10:16:04.001Z</time></trkpt><trkpt lat="41.84499256809784" lon="-3.1089392434108616"><ele>1075.0</ele><time>2026-05-03T10:16:05.001Z</time></trkpt><trkpt lat="41.844953617965686" lon="-3.1088308266329476"><ele>1075.0</ele><time>2026-05-03T10:16:06.002Z</time></trkpt><trkpt lat="41.84490905938213" lon="-3.108712577534321"><ele>1075.8</ele><time>2026-05-03T10:16:07.002Z</time></trkpt><trkpt lat="41.84486912309204" lon="-3.1085982898895845"><ele>1076.6</ele><time>2026-05-03T10:16:08.002Z</time></trkpt><trkpt lat="41.84482605016825" lon="-3.10848777150581"><ele>1077.4</ele><time>2026-05-03T10:16:09.002Z</time></trkpt><trkpt lat="41.84477920288713" lon="-3.1083818616972585"><ele>1078.2</ele><time>2026-05-03T10:16:10.002Z</time></trkpt><trkpt lat="41.84473899934171" lon="-3.1082686006309914"><ele>1079.0</ele><time>2026-05-03T10:16:11.002Z</time></trkpt><trkpt lat="41.844697064601114" lon="-3.1081621283993446"><ele>1079.6666666666667</ele><time>2026-05-03T10:16:12.002Z</time></trkpt><trkpt lat="41.84465769461168" lon="-3.108056233312576"><ele>1080.3333333333335</ele><time>2026-05-03T10:16:13.002Z</time></trkpt><trkpt lat="41.844618995243124" lon="-3.107950910243226"><ele>1081.0</ele><time>2026-05-03T10:16:14.002Z</time></trkpt><trkpt lat="41.84457873157127" lon="-3.107845162429382"><ele>1081.6666666666667</ele><time>2026-05-03T10:16:15.002Z</time></trkpt><trkpt lat="41.84453684847816" lon="-3.107742192443738"><ele>1082.3333333333333</ele><time>2026-05-03T10:16:16.002Z</time></trkpt><trkpt lat="41.8444994572727" lon="-3.107634271212286"><ele>1083.0</ele><time>2026-05-03T10:16:17.002Z</time></trkpt><trkpt lat="41.84445676586012" lon="-3.1075341102125544"><ele>1083.0</ele><time>2026-05-03T10:16:18.002Z</time></trkpt><trkpt lat="41.84441711119004" lon="-3.1074289165653455"><ele>1083.0</ele><time>2026-05-03T10:16:19.002Z</time></trkpt><trkpt lat="41.8443774083602" lon="-3.10731974148377"><ele>1083.0</ele><time>2026-05-03T10:16:20.002Z</time></trkpt><trkpt lat="41.84433377121517" lon="-3.1072153460900456"><ele>1083.0</ele><time>2026-05-03T10:16:21.002Z</time></trkpt><trkpt lat="41.84429370945948" lon="-3.1071126728301723"><ele>1083.0</ele><time>2026-05-03T10:16:22.002Z</time></trkpt><trkpt lat="41.844255337589544" lon="-3.106998578512833"><ele>1083.0</ele><time>2026-05-03T10:16:23.002Z</time></trkpt><trkpt lat="41.84421443898724" lon="-3.106886279819735"><ele>1083.0</ele><time>2026-05-03T10:16:24.002Z</time></trkpt><trkpt lat="41.844173111984894" lon="-3.1067805246815725"><ele>1083.0</ele><time>2026-05-03T10:16:25.002Z</time></trkpt><trkpt lat="41.8441313945957" lon="-3.106669115788129"><ele>1083.0</ele><time>2026-05-03T10:16:26.002Z</time></trkpt><trkpt lat="41.84409043531613" lon="-3.106560478222585"><ele>1083.0</ele><time>2026-05-03T10:16:27.002Z</time></trkpt><trkpt lat="41.84404708508684" lon="-3.1064477657316503"><ele>1083.0</ele><time>2026-05-03T10:16:28.002Z</time></trkpt><trkpt lat="41.844002660891874" lon="-3.106341179458172"><ele>1082.4</ele><time>2026-05-03T10:16:29.002Z</time></trkpt><trkpt lat="41.843959670470014" lon="-3.106226714457719"><ele>1081.8</ele><time>2026-05-03T10:16:30.002Z</time></trkpt><trkpt lat="41.84391724659275" lon="-3.1061120903629096"><ele>1081.2</ele><time>2026-05-03T10:16:31.002Z</time></trkpt><trkpt lat="41.84387595564138" lon="-3.106004616235292"><ele>1080.6</ele><time>2026-05-03T10:16:32.002Z</time></trkpt><trkpt lat="41.84383375276728" lon="-3.105891191044643"><ele>1080.0</ele><time>2026-05-03T10:16:33.002Z</time></trkpt><trkpt lat="41.84379067672812" lon="-3.1057781303932424"><ele>1080.2</ele><time>2026-05-03T10:16:34.002Z</time></trkpt><trkpt lat="41.843747736107" lon="-3.105666742485317"><ele>1080.4</ele><time>2026-05-03T10:16:35.002Z</time></trkpt><trkpt lat="41.8436996795482" lon="-3.1055528293352928"><ele>1080.6</ele><time>2026-05-03T10:16:36.002Z</time></trkpt><trkpt lat="41.84365629185294" lon="-3.1054369943590876"><ele>1080.8</ele><time>2026-05-03T10:16:37.002Z</time></trkpt><trkpt lat="41.84361471448489" lon="-3.10532291585501"><ele>1081.0</ele><time>2026-05-03T10:16:38.002Z</time></trkpt><trkpt lat="41.84357054149188" lon="-3.105209883965554"><ele>1081.0</ele><time>2026-05-03T10:16:39.003Z</time></trkpt><trkpt lat="41.84352587180434" lon="-3.105096465308685"><ele>1081.0</ele><time>2026-05-03T10:16:40.003Z</time></trkpt><trkpt lat="41.843480712636605" lon="-3.104983852404594"><ele>1081.0</ele><time>2026-05-03T10:16:41.003Z</time></trkpt><trkpt lat="41.8434356888718" lon="-3.1048710644889645"><ele>1081.0</ele><time>2026-05-03T10:16:42.003Z</time></trkpt><trkpt lat="41.84339309073709" lon="-3.1047583716028355"><ele>1081.0</ele><time>2026-05-03T10:16:43.003Z</time></trkpt><trkpt lat="41.84334955299503" lon="-3.1046477593007116"><ele>1081.6666666666665</ele><time>2026-05-03T10:16:44.003Z</time></trkpt><trkpt lat="41.843307928520694" lon="-3.1045379756726827"><ele>1082.3333333333333</ele><time>2026-05-03T10:16:45.003Z</time></trkpt><trkpt lat="41.84326775047338" lon="-3.1044283242789534"><ele>1083.0</ele><time>2026-05-03T10:16:46.003Z</time></trkpt><trkpt lat="41.843229364357306" lon="-3.104324611515784"><ele>1083.6666666666667</ele><time>2026-05-03T10:16:46.999Z</time></trkpt><trkpt lat="41.843188195142645" lon="-3.1042182025944216"><ele>1084.3333333333335</ele><time>2026-05-03T10:16:47.999Z</time></trkpt><trkpt lat="41.843146522253384" lon="-3.1041115378185835"><ele>1085.0</ele><time>2026-05-03T10:16:48.999Z</time></trkpt><trkpt lat="41.8431066104102" lon="-3.104007570888825"><ele>1085.6666666666667</ele><time>2026-05-03T10:16:49.999Z</time></trkpt><trkpt lat="41.8430677789728" lon="-3.1039050921918463"><ele>1086.3333333333335</ele><time>2026-05-03T10:16:50.999Z</time></trkpt><trkpt lat="41.84302837279068" lon="-3.1038046219041417"><ele>1087.0</ele><time>2026-05-03T10:16:51.999Z</time></trkpt><trkpt lat="41.84298773728015" lon="-3.103707193324233"><ele>1087.6666666666667</ele><time>2026-05-03T10:16:52.999Z</time></trkpt><trkpt lat="41.84294664404795" lon="-3.1036084297043622"><ele>1088.3333333333333</ele><time>2026-05-03T10:16:53.999Z</time></trkpt><trkpt lat="41.84290260842054" lon="-3.1035148843823395"><ele>1089.0</ele><time>2026-05-03T10:16:54.999Z</time></trkpt><trkpt lat="41.84285956237991" lon="-3.1034175039634686"><ele>1089.0</ele><time>2026-05-03T10:16:55.999Z</time></trkpt><trkpt lat="41.84281599087837" lon="-3.1033210774928546"><ele>1089.0</ele><time>2026-05-03T10:16:56.999Z</time></trkpt><trkpt lat="41.84277498417148" lon="-3.103225247725647"><ele>1089.0</ele><time>2026-05-03T10:16:57.999Z</time></trkpt><trkpt lat="41.84273066136491" lon="-3.103130115306676"><ele>1089.0</ele><time>2026-05-03T10:16:58.999Z</time></trkpt><trkpt lat="41.842684235745956" lon="-3.103036061727678"><ele>1089.0</ele><time>2026-05-03T10:16:59.999Z</time></trkpt><trkpt lat="41.84263951287181" lon="-3.1029366021652285"><ele>1089.0</ele><time>2026-05-03T10:17:00.999Z</time></trkpt><trkpt lat="41.84259253867756" lon="-3.10283512091833"><ele>1089.8</ele><time>2026-05-03T10:17:02Z</time></trkpt><trkpt lat="41.84254443477452" lon="-3.1027347571053103"><ele>1090.6000000000001</ele><time>2026-05-03T10:17:03Z</time></trkpt><trkpt lat="41.84249705067638" lon="-3.102630555942475"><ele>1091.4</ele><time>2026-05-03T10:17:04Z</time></trkpt><trkpt lat="41.84245133608515" lon="-3.102527519205271"><ele>1092.2</ele><time>2026-05-03T10:17:05Z</time></trkpt><trkpt lat="41.842404162989475" lon="-3.102422108717688"><ele>1093.0</ele><time>2026-05-03T10:17:06Z</time></trkpt><trkpt lat="41.84235021774034" lon="-3.102311831978438"><ele>1093.2</ele><time>2026-05-03T10:17:07Z</time></trkpt><trkpt lat="41.84230230969786" lon="-3.102198779825976"><ele>1093.4</ele><time>2026-05-03T10:17:08Z</time></trkpt><trkpt lat="41.84224953100838" lon="-3.10209476266282"><ele>1093.6000000000001</ele><time>2026-05-03T10:17:09Z</time></trkpt><trkpt lat="41.84219922357605" lon="-3.1019817507592333"><ele>1093.8</ele><time>2026-05-03T10:17:10Z</time></trkpt><trkpt lat="41.84214702902957" lon="-3.101867626894119"><ele>1094.0</ele><time>2026-05-03T10:17:11Z</time></trkpt><trkpt lat="41.84209135495422" lon="-3.10175169470264"><ele>1094.0</ele><time>2026-05-03T10:17:12Z</time></trkpt><trkpt lat="41.84204177899126" lon="-3.1016343780023763"><ele>1094.0</ele><time>2026-05-03T10:17:13Z</time></trkpt><trkpt lat="41.84198504456254" lon="-3.1015159356613253"><ele>1094.0</ele><time>2026-05-03T10:17:14Z</time></trkpt><trkpt lat="41.8419282451575" lon="-3.10139492346528"><ele>1094.0</ele><time>2026-05-03T10:17:15Z</time></trkpt><trkpt lat="41.84187429099332" lon="-3.1012791198852288"><ele>1094.0</ele><time>2026-05-03T10:17:16Z</time></trkpt><trkpt lat="41.84181849286763" lon="-3.1011614075630045"><ele>1094.2</ele><time>2026-05-03T10:17:17Z</time></trkpt><trkpt lat="41.841760848714415" lon="-3.1010415084982332"><ele>1094.4</ele><time>2026-05-03T10:17:18Z</time></trkpt><trkpt lat="41.841699877412935" lon="-3.100921594688428"><ele>1094.6</ele><time>2026-05-03T10:17:19Z</time></trkpt><trkpt lat="41.84164383752191" lon="-3.100795834373808"><ele>1094.8</ele><time>2026-05-03T10:17:20Z</time></trkpt><trkpt lat="41.84158721736651" lon="-3.1006775188913323"><ele>1095.0</ele><time>2026-05-03T10:17:21.001Z</time></trkpt><trkpt lat="41.84152925388617" lon="-3.1005513246908896"><ele>1094.4</ele><time>2026-05-03T10:17:22.001Z</time></trkpt><trkpt lat="41.84146825607758" lon="-3.1004268807486848"><ele>1093.8</ele><time>2026-05-03T10:17:23.001Z</time></trkpt><trkpt lat="41.841408921039495" lon="-3.1003036855002715"><ele>1093.2</ele><time>2026-05-03T10:17:24.001Z</time></trkpt><trkpt lat="41.84134484752153" lon="-3.100179043864782"><ele>1092.6</ele><time>2026-05-03T10:17:25.001Z</time></trkpt><trkpt lat="41.841292445558445" lon="-3.1000426387357387"><ele>1092.0</ele><time>2026-05-03T10:17:26.001Z</time></trkpt><trkpt lat="41.84123138426942" lon="-3.0999139601648853"><ele>1092.0</ele><time>2026-05-03T10:17:27.001Z</time></trkpt><trkpt lat="41.84114923960575" lon="-3.0997714871714526"><ele>1092.0</ele><time>2026-05-03T10:17:28.001Z</time></trkpt><trkpt lat="41.841111553580134" lon="-3.099677875823655"><ele>1092.0</ele><time>2026-05-03T10:17:29.001Z</time></trkpt><trkpt lat="41.84105489856597" lon="-3.0995496682176342"><ele>1092.0</ele><time>2026-05-03T10:17:30.001Z</time></trkpt><trkpt lat="41.84100185922413" lon="-3.0994192162182026"><ele>1092.0</ele><time>2026-05-03T10:17:31.001Z</time></trkpt><trkpt lat="41.84094553427205" lon="-3.0992892631279285"><ele>1090.6</ele><time>2026-05-03T10:17:32.001Z</time></trkpt><trkpt lat="41.84089928395044" lon="-3.099153533662511"><ele>1089.2</ele><time>2026-05-03T10:17:33.001Z</time></trkpt><trkpt lat="41.84085778056403" lon="-3.099016566002849"><ele>1087.8</ele><time>2026-05-03T10:17:34.001Z</time></trkpt><trkpt lat="41.84082027026641" lon="-3.0988751974733892"><ele>1086.4</ele><time>2026-05-03T10:17:35.001Z</time></trkpt><trkpt lat="41.84078844637921" lon="-3.098732839178638"><ele>1085.0</ele><time>2026-05-03T10:17:36.001Z</time></trkpt><trkpt lat="41.840750856466926" lon="-3.098588725997319"><ele>1084.8</ele><time>2026-05-03T10:17:37.001Z</time></trkpt><trkpt lat="41.84072411325312" lon="-3.0984420577994185"><ele>1084.6</ele><time>2026-05-03T10:17:38.001Z</time></trkpt><trkpt lat="41.84070249489813" lon="-3.098292217054322"><ele>1084.4</ele><time>2026-05-03T10:17:39.001Z</time></trkpt><trkpt lat="41.84068587145017" lon="-3.0981448284208892"><ele>1084.2</ele><time>2026-05-03T10:17:40.001Z</time></trkpt><trkpt lat="41.84067137395268" lon="-3.097997940551032"><ele>1084.0</ele><time>2026-05-03T10:17:41.001Z</time></trkpt><trkpt lat="41.84065881766541" lon="-3.097848379924153"><ele>1084.0</ele><time>2026-05-03T10:17:42.001Z</time></trkpt><trkpt lat="41.840645781844906" lon="-3.0976988178651763"><ele>1084.0</ele><time>2026-05-03T10:17:43.001Z</time></trkpt><trkpt lat="41.84063029442582" lon="-3.0975492999526146"><ele>1084.0</ele><time>2026-05-03T10:17:44.001Z</time></trkpt><trkpt lat="41.84061806975439" lon="-3.097403003290794"><ele>1084.0</ele><time>2026-05-03T10:17:45.001Z</time></trkpt><trkpt lat="41.8406063999801" lon="-3.097255796664254"><ele>1084.0</ele><time>2026-05-03T10:17:46.001Z</time></trkpt><trkpt lat="41.84059245360116" lon="-3.0971075127130767"><ele>1083.4</ele><time>2026-05-03T10:17:47.001Z</time></trkpt><trkpt lat="41.84057671780058" lon="-3.0969622348000434"><ele>1082.8000000000002</ele><time>2026-05-03T10:17:48.001Z</time></trkpt><trkpt lat="41.84056153928282" lon="-3.096816720162919"><ele>1082.1999999999998</ele><time>2026-05-03T10:17:49.001Z</time></trkpt><trkpt lat="41.840522297614434" lon="-3.096678867713619"><ele>1081.6</ele><time>2026-05-03T10:17:50.002Z</time></trkpt><trkpt lat="41.84049868207626" lon="-3.096525152010012"><ele>1081.0</ele><time>2026-05-03T10:17:51.002Z</time></trkpt><trkpt lat="41.84045810606998" lon="-3.0963943365848596"><ele>1081.0</ele><time>2026-05-03T10:17:52.002Z</time></trkpt><trkpt lat="41.840416545286075" lon="-3.096267558742365"><ele>1081.0</ele><time>2026-05-03T10:17:53.002Z</time></trkpt><trkpt lat="41.840391454096626" lon="-3.09618699681787"><ele>1081.0</ele><time>2026-05-03T10:17:54.002Z</time></trkpt><trkpt lat="41.84035024821498" lon="-3.096092136554857"><ele>1081.0</ele><time>2026-05-03T10:17:55.002Z</time></trkpt><trkpt lat="41.84029895137211" lon="-3.0960350559698813"><ele>1081.0</ele><time>2026-05-03T10:17:56.002Z</time></trkpt><trkpt lat="41.840234878713716" lon="-3.0957197959803375"><ele>1080.8</ele><time>2026-05-03T10:17:57.002Z</time></trkpt><trkpt lat="41.84018230999604" lon="-3.0955924550173215"><ele>1080.6</ele><time>2026-05-03T10:17:58.002Z</time></trkpt><trkpt lat="41.840130769282005" lon="-3.0954604183883414"><ele>1080.4</ele><time>2026-05-03T10:17:59.002Z</time></trkpt><trkpt lat="41.84006997481685" lon="-3.0953362206870634"><ele>1080.2</ele><time>2026-05-03T10:18:00.002Z</time></trkpt><trkpt lat="41.8400173628893" lon="-3.0952039635821684"><ele>1080.0</ele><time>2026-05-03T10:18:01.002Z</time></trkpt><trkpt lat="41.83996703746429" lon="-3.0950661304191436"><ele>1079.2</ele><time>2026-05-03T10:18:02.002Z</time></trkpt><trkpt lat="41.839916571148315" lon="-3.0949325027463077"><ele>1078.4</ele><time>2026-05-03T10:18:03.002Z</time></trkpt><trkpt lat="41.83986950888975" lon="-3.0947985336064923"><ele>1077.6</ele><time>2026-05-03T10:18:04.002Z</time></trkpt><trkpt lat="41.83982048799638" lon="-3.094660393850773"><ele>1076.8</ele><time>2026-05-03T10:18:05.002Z</time></trkpt><trkpt lat="41.8397731015614" lon="-3.0945242128559403"><ele>1076.0</ele><time>2026-05-03T10:18:06.002Z</time></trkpt><trkpt lat="41.8397263268528" lon="-3.0943893741990673"><ele>1075.3999999999999</ele><time>2026-05-03T10:18:07.002Z</time></trkpt><trkpt lat="41.839682923143805" lon="-3.094250607873802"><ele>1074.8</ele><time>2026-05-03T10:18:08.002Z</time></trkpt><trkpt lat="41.8396384056798" lon="-3.0941142255777603"><ele>1074.1999999999998</ele><time>2026-05-03T10:18:09.002Z</time></trkpt><trkpt lat="41.8395947313761" lon="-3.093980341455256"><ele>1073.6</ele><time>2026-05-03T10:18:10.002Z</time></trkpt><trkpt lat="41.83955047267173" lon="-3.093843197282651"><ele>1073.0</ele><time>2026-05-03T10:18:11.002Z</time></trkpt><trkpt lat="41.83950914592547" lon="-3.0937073259453287"><ele>1073.0</ele><time>2026-05-03T10:18:12.002Z</time></trkpt><trkpt lat="41.83946741796749" lon="-3.0935702404917857"><ele>1073.0</ele><time>2026-05-03T10:18:13.002Z</time></trkpt><trkpt lat="41.839420904724925" lon="-3.093435612023508"><ele>1073.0</ele><time>2026-05-03T10:18:14.002Z</time></trkpt><trkpt lat="41.83937759383689" lon="-3.0932962730622866"><ele>1073.0</ele><time>2026-05-03T10:18:15.002Z</time></trkpt><trkpt lat="41.8393307118606" lon="-3.0931595448047755"><ele>1073.0</ele><time>2026-05-03T10:18:16.002Z</time></trkpt><trkpt lat="41.839287040578796" lon="-3.0930278538942226"><ele>1072.8</ele><time>2026-05-03T10:18:17.002Z</time></trkpt><trkpt lat="41.839244409670286" lon="-3.0928947211890745"><ele>1072.6</ele><time>2026-05-03T10:18:18.002Z</time></trkpt><trkpt lat="41.839203689923586" lon="-3.0927586063218526"><ele>1072.4</ele><time>2026-05-03T10:18:19.002Z</time></trkpt><trkpt lat="41.83916073180345" lon="-3.092620316654322"><ele>1072.2</ele><time>2026-05-03T10:18:20.002Z</time></trkpt><trkpt lat="41.83911986038152" lon="-3.092480353614538"><ele>1072.0</ele><time>2026-05-03T10:18:21.002Z</time></trkpt><trkpt lat="41.839076928680626" lon="-3.0923405425261916"><ele>1072.0</ele><time>2026-05-03T10:18:22.003Z</time></trkpt><trkpt lat="41.83903283862037" lon="-3.092206070710475"><ele>1072.0</ele><time>2026-05-03T10:18:23.003Z</time></trkpt><trkpt lat="41.83899073019526" lon="-3.0920682988414017"><ele>1072.0</ele><time>2026-05-03T10:18:24.003Z</time></trkpt><trkpt lat="41.83894405682005" lon="-3.0919362773003054"><ele>1072.0</ele><time>2026-05-03T10:18:25.003Z</time></trkpt><trkpt lat="41.838900131689485" lon="-3.0918024743811783"><ele>1072.0</ele><time>2026-05-03T10:18:26.003Z</time></trkpt><trkpt lat="41.83885655984753" lon="-3.0916680279128834"><ele>1071.2</ele><time>2026-05-03T10:18:27.003Z</time></trkpt><trkpt lat="41.838813925914614" lon="-3.0915361182387375"><ele>1070.4</ele><time>2026-05-03T10:18:28.003Z</time></trkpt><trkpt lat="41.8387693243933" lon="-3.0913995193888275"><ele>1069.6</ele><time>2026-05-03T10:18:29.003Z</time></trkpt><trkpt lat="41.83872437461259" lon="-3.0912631855353676"><ele>1068.8</ele><time>2026-05-03T10:18:30.003Z</time></trkpt><trkpt lat="41.838681590595236" lon="-3.091124263018897"><ele>1068.0</ele><time>2026-05-03T10:18:31.003Z</time></trkpt><trkpt lat="41.838637641452834" lon="-3.090984450047202"><ele>1068.0</ele><time>2026-05-03T10:18:32.003Z</time></trkpt><trkpt lat="41.838592040425276" lon="-3.0908488485654733"><ele>1068.0</ele><time>2026-05-03T10:18:33.003Z</time></trkpt><trkpt lat="41.8385471098933" lon="-3.090711168528707"><ele>1068.0</ele><time>2026-05-03T10:18:34.003Z</time></trkpt><trkpt lat="41.83850094549133" lon="-3.0905731272110692"><ele>1068.0</ele><time>2026-05-03T10:18:35.003Z</time></trkpt><trkpt lat="41.8384527760988" lon="-3.090435150981998"><ele>1068.0</ele><time>2026-05-03T10:18:36.003Z</time></trkpt><trkpt lat="41.83840799476111" lon="-3.0902987608244907"><ele>1067.0</ele><time>2026-05-03T10:18:37.003Z</time></trkpt><trkpt lat="41.83836295160615" lon="-3.0901653168614347"><ele>1066.0</ele><time>2026-05-03T10:18:38.003Z</time></trkpt><trkpt lat="41.83831886087808" lon="-3.0900248298837094"><ele>1065.0</ele><time>2026-05-03T10:18:39.003Z</time></trkpt><trkpt lat="41.838274962763926" lon="-3.0898855321036893"><ele>1064.0</ele><time>2026-05-03T10:18:40.003Z</time></trkpt><trkpt lat="41.83823094753515" lon="-3.0897466309595334"><ele>1063.0</ele><time>2026-05-03T10:18:41.003Z</time></trkpt><trkpt lat="41.838188103463175" lon="-3.089608030294838"><ele>1063.2</ele><time>2026-05-03T10:18:42.003Z</time></trkpt><trkpt lat="41.838145852042125" lon="-3.0894705030264316"><ele>1063.4</ele><time>2026-05-03T10:18:43.003Z</time></trkpt><trkpt lat="41.83810074399764" lon="-3.089333213971302"><ele>1063.6000000000001</ele><time>2026-05-03T10:18:44.003Z</time></trkpt><trkpt lat="41.83805726550085" lon="-3.089198170749424"><ele>1063.8</ele><time>2026-05-03T10:18:45.003Z</time></trkpt><trkpt lat="41.838012383607676" lon="-3.0890625119234705"><ele>1064.0</ele><time>2026-05-03T10:18:46.003Z</time></trkpt><trkpt lat="41.83796999413123" lon="-3.088929891019624"><ele>1064.0</ele><time>2026-05-03T10:18:47.003Z</time></trkpt><trkpt lat="41.837925824689954" lon="-3.0887945977114106"><ele>1064.0</ele><time>2026-05-03T10:18:48.003Z</time></trkpt><trkpt lat="41.83788377395242" lon="-3.0886601540189247"><ele>1064.0</ele><time>2026-05-03T10:18:49.003Z</time></trkpt><trkpt lat="41.83783719165008" lon="-3.088526943173097"><ele>1064.0</ele><time>2026-05-03T10:18:50.003Z</time></trkpt><trkpt lat="41.83779712897863" lon="-3.0883916743772257"><ele>1064.0</ele><time>2026-05-03T10:18:51.003Z</time></trkpt><trkpt lat="41.837744190634396" lon="-3.08825904023019"><ele>1064.2</ele><time>2026-05-03T10:18:52.003Z</time></trkpt><trkpt lat="41.837710537173685" lon="-3.0881244503198335"><ele>1064.4</ele><time>2026-05-03T10:18:53Z</time></trkpt><trkpt lat="41.8376582842639" lon="-3.0879875926186906"><ele>1064.6</ele><time>2026-05-03T10:18:54Z</time></trkpt><trkpt lat="41.83761819472757" lon="-3.0878638258956252"><ele>1064.8</ele><time>2026-05-03T10:18:55Z</time></trkpt><trkpt lat="41.837574546664975" lon="-3.0877201414829685"><ele>1065.0</ele><time>2026-05-03T10:18:56Z</time></trkpt><trkpt lat="41.837535847135086" lon="-3.087577720785825"><ele>1065.0</ele><time>2026-05-03T10:18:57Z</time></trkpt><trkpt lat="41.83749233752546" lon="-3.087442408760174"><ele>1065.0</ele><time>2026-05-03T10:18:58Z</time></trkpt><trkpt lat="41.83744269084574" lon="-3.08730294506179"><ele>1065.0</ele><time>2026-05-03T10:18:59Z</time></trkpt><trkpt lat="41.837397861623664" lon="-3.087166843906"><ele>1065.0</ele><time>2026-05-03T10:19:00Z</time></trkpt><trkpt lat="41.837353079463604" lon="-3.087028297942874"><ele>1065.0</ele><time>2026-05-03T10:19:01Z</time></trkpt><trkpt lat="41.83731033471444" lon="-3.0868860217166323"><ele>1063.25</ele><time>2026-05-03T10:19:02Z</time></trkpt><trkpt lat="41.83726417379534" lon="-3.0867488150496185"><ele>1061.5</ele><time>2026-05-03T10:19:03Z</time></trkpt><trkpt lat="41.83721829181246" lon="-3.086614362451144"><ele>1059.75</ele><time>2026-05-03T10:19:04Z</time></trkpt><trkpt lat="41.83717324301012" lon="-3.086473801955443"><ele>1058.0</ele><time>2026-05-03T10:19:05Z</time></trkpt><trkpt lat="41.83713024429532" lon="-3.0863328245170485"><ele>1057.8</ele><time>2026-05-03T10:19:06Z</time></trkpt><trkpt lat="41.837087550877314" lon="-3.0861961280484955"><ele>1057.6</ele><time>2026-05-03T10:19:07Z</time></trkpt><trkpt lat="41.837042626288735" lon="-3.0860629739487253"><ele>1057.4</ele><time>2026-05-03T10:19:08Z</time></trkpt><trkpt lat="41.83700665000462" lon="-3.085918324199325"><ele>1057.2</ele><time>2026-05-03T10:19:09Z</time></trkpt><trkpt lat="41.83695411532638" lon="-3.085786965861801"><ele>1057.0</ele><time>2026-05-03T10:19:10Z</time></trkpt><trkpt lat="41.83691220193311" lon="-3.0856464862156567"><ele>1057.0</ele><time>2026-05-03T10:19:11Z</time></trkpt><trkpt lat="41.83686907290859" lon="-3.0855073029481193"><ele>1057.0</ele><time>2026-05-03T10:19:12Z</time></trkpt><trkpt lat="41.836832161685415" lon="-3.085374490571448"><ele>1057.0</ele><time>2026-05-03T10:19:13Z</time></trkpt><trkpt lat="41.836792716029244" lon="-3.0852893450889627"><ele>1057.0</ele><time>2026-05-03T10:19:14Z</time></trkpt><trkpt lat="41.83673673908146" lon="-3.0851160744510047"><ele>1057.0</ele><time>2026-05-03T10:19:16Z</time></trkpt><trkpt lat="41.83669625908681" lon="-3.0849907729508894"><ele>1056.3333333333333</ele><time>2026-05-03T10:19:17Z</time></trkpt><trkpt lat="41.83668804910598" lon="-3.0847034684990358"><ele>1055.6666666666667</ele><time>2026-05-03T10:19:18Z</time></trkpt><trkpt lat="41.836743228987615" lon="-3.084625351643189"><ele>1055.0</ele><time>2026-05-03T10:19:19Z</time></trkpt><trkpt lat="41.8365137620983" lon="-3.0844137731887367"><ele>1055.0</ele><time>2026-05-03T10:19:20Z</time></trkpt><trkpt lat="41.83646323827882" lon="-3.0842787017941555"><ele>1055.0</ele><time>2026-05-03T10:19:21Z</time></trkpt><trkpt lat="41.836415452685664" lon="-3.0841400495978433"><ele>1055.0</ele><time>2026-05-03T10:19:22Z</time></trkpt><trkpt lat="41.836373878576005" lon="-3.0840021106684894"><ele>1055.0</ele><time>2026-05-03T10:19:23.001Z</time></trkpt><trkpt lat="41.83632829745478" lon="-3.083860898320144"><ele>1055.0</ele><time>2026-05-03T10:19:24.001Z</time></trkpt><trkpt lat="41.83628388851475" lon="-3.0837238251239154"><ele>1055.0</ele><time>2026-05-03T10:19:25.001Z</time></trkpt><trkpt lat="41.836238761274764" lon="-3.0835842314814728"><ele>1055.0</ele><time>2026-05-03T10:19:26.001Z</time></trkpt><trkpt lat="41.8361921550715" lon="-3.0834471567115713"><ele>1055.0</ele><time>2026-05-03T10:19:27.001Z</time></trkpt><trkpt lat="41.83614846403668" lon="-3.0833112155640623"><ele>1055.0</ele><time>2026-05-03T10:19:28.001Z</time></trkpt><trkpt lat="41.836104171204404" lon="-3.0831782652665356"><ele>1054.6</ele><time>2026-05-03T10:19:29.001Z</time></trkpt><trkpt lat="41.836059263489226" lon="-3.0830460346270026"><ele>1054.2</ele><time>2026-05-03T10:19:30.001Z</time></trkpt><trkpt lat="41.836016185276605" lon="-3.082913584711263"><ele>1053.8</ele><time>2026-05-03T10:19:31.001Z</time></trkpt><trkpt lat="41.83597534561909" lon="-3.0827797348896047"><ele>1053.4</ele><time>2026-05-03T10:19:32.001Z</time></trkpt><trkpt lat="41.835930375109164" lon="-3.0826460538557026"><ele>1053.0</ele><time>2026-05-03T10:19:33.001Z</time></trkpt><trkpt lat="41.83588861814522" lon="-3.082511164340118"><ele>1052.6</ele><time>2026-05-03T10:19:34.001Z</time></trkpt><trkpt lat="41.83584511940365" lon="-3.0823791801858653"><ele>1052.1999999999998</ele><time>2026-05-03T10:19:35.001Z</time></trkpt><trkpt lat="41.83580475691263" lon="-3.082244900588473"><ele>1051.8</ele><time>2026-05-03T10:19:36.001Z</time></trkpt><trkpt lat="41.83576208118292" lon="-3.0821064726053806"><ele>1051.3999999999999</ele><time>2026-05-03T10:19:37.001Z</time></trkpt><trkpt lat="41.83572095663628" lon="-3.081971103215484"><ele>1051.0</ele><time>2026-05-03T10:19:38.001Z</time></trkpt><trkpt lat="41.83568097313607" lon="-3.0818351678900853"><ele>1051.0</ele><time>2026-05-03T10:19:39.001Z</time></trkpt><trkpt lat="41.835636401597085" lon="-3.081704603115482"><ele>1051.0</ele><time>2026-05-03T10:19:40.001Z</time></trkpt><trkpt lat="41.835592407612" lon="-3.0815710786167956"><ele>1051.0</ele><time>2026-05-03T10:19:41.001Z</time></trkpt><trkpt lat="41.835549589024275" lon="-3.0814357500588705"><ele>1051.0</ele><time>2026-05-03T10:19:42.001Z</time></trkpt><trkpt lat="41.83550857955905" lon="-3.081299057338745"><ele>1051.0</ele><time>2026-05-03T10:19:43.001Z</time></trkpt><trkpt lat="41.83546289124231" lon="-3.081166731623288"><ele>1051.2</ele><time>2026-05-03T10:19:44.001Z</time></trkpt><trkpt lat="41.83542158185714" lon="-3.0810330252244342"><ele>1051.3999999999999</ele><time>2026-05-03T10:19:45.001Z</time></trkpt><trkpt lat="41.83537736270521" lon="-3.080895395814581"><ele>1051.6</ele><time>2026-05-03T10:19:46.001Z</time></trkpt><trkpt lat="41.83533385634636" lon="-3.0807619669302393"><ele>1051.8</ele><time>2026-05-03T10:19:47.001Z</time></trkpt><trkpt lat="41.835290806907636" lon="-3.0806296673957894"><ele>1052.0</ele><time>2026-05-03T10:19:48.001Z</time></trkpt><trkpt lat="41.835249636623466" lon="-3.0804955462330357"><ele>1052.0</ele><time>2026-05-03T10:19:49.001Z</time></trkpt><trkpt lat="41.835208121631446" lon="-3.080364117449602"><ele>1052.0</ele><time>2026-05-03T10:19:50.001Z</time></trkpt><trkpt lat="41.83516643658003" lon="-3.0802308703961097"><ele>1052.0</ele><time>2026-05-03T10:19:51.001Z</time></trkpt><trkpt lat="41.83512457871805" lon="-3.0800985771598692"><ele>1052.0</ele><time>2026-05-03T10:19:52.001Z</time></trkpt><trkpt lat="41.83508340372177" lon="-3.0799637263305124"><ele>1052.0</ele><time>2026-05-03T10:19:53.001Z</time></trkpt><trkpt lat="41.83504920243042" lon="-3.079833528693789"><ele>1052.6</ele><time>2026-05-03T10:19:54.001Z</time></trkpt><trkpt lat="41.83500729370917" lon="-3.079704453846976"><ele>1053.2</ele><time>2026-05-03T10:19:55.002Z</time></trkpt><trkpt lat="41.834968151976035" lon="-3.079571319847605"><ele>1053.8</ele><time>2026-05-03T10:19:56.002Z</time></trkpt><trkpt lat="41.83492554386485" lon="-3.079440398931793"><ele>1054.4</ele><time>2026-05-03T10:19:57.002Z</time></trkpt><trkpt lat="41.834881378984235" lon="-3.079311866465708"><ele>1055.0</ele><time>2026-05-03T10:19:58.002Z</time></trkpt><trkpt lat="41.834840671994584" lon="-3.0791835978944695"><ele>1055.6</ele><time>2026-05-03T10:19:59.002Z</time></trkpt><trkpt lat="41.834799522768606" lon="-3.0790562236351673"><ele>1056.2</ele><time>2026-05-03T10:20:00.002Z</time></trkpt><trkpt lat="41.834758410797974" lon="-3.0789262072925894"><ele>1056.8</ele><time>2026-05-03T10:20:01.002Z</time></trkpt><trkpt lat="41.83471542136776" lon="-3.078800391511127"><ele>1057.4</ele><time>2026-05-03T10:20:02.002Z</time></trkpt><trkpt lat="41.834672654581546" lon="-3.078674641986261"><ele>1058.0</ele><time>2026-05-03T10:20:03.002Z</time></trkpt><trkpt lat="41.834630591921" lon="-3.0785467339125696"><ele>1058.0</ele><time>2026-05-03T10:20:04.002Z</time></trkpt><trkpt lat="41.83459031467218" lon="-3.07842236114621"><ele>1058.0</ele><time>2026-05-03T10:20:05.002Z</time></trkpt><trkpt lat="41.83454899427941" lon="-3.0782940878896388"><ele>1058.0</ele><time>2026-05-03T10:20:06.002Z</time></trkpt><trkpt lat="41.83450809963637" lon="-3.0781684052499836"><ele>1058.0</ele><time>2026-05-03T10:20:07.002Z</time></trkpt><trkpt lat="41.834467519525944" lon="-3.0780439148004706"><ele>1058.0</ele><time>2026-05-03T10:20:08.002Z</time></trkpt><trkpt lat="41.8344265619932" lon="-3.0779191417061913"><ele>1057.8</ele><time>2026-05-03T10:20:09.002Z</time></trkpt><trkpt lat="41.8343845051438" lon="-3.077792876002418"><ele>1057.6</ele><time>2026-05-03T10:20:10.002Z</time></trkpt><trkpt lat="41.83433995544889" lon="-3.077670806452635"><ele>1057.4</ele><time>2026-05-03T10:20:11.002Z</time></trkpt><trkpt lat="41.834296022332964" lon="-3.0775423684654277"><ele>1057.2</ele><time>2026-05-03T10:20:12.002Z</time></trkpt><trkpt lat="41.8342494547603" lon="-3.0774098894454056"><ele>1057.0</ele><time>2026-05-03T10:20:13.002Z</time></trkpt><trkpt lat="41.83419919329353" lon="-3.0772811266850826"><ele>1056.0</ele><time>2026-05-03T10:20:14.002Z</time></trkpt><trkpt lat="41.834147888714035" lon="-3.07714808460467"><ele>1055.0</ele><time>2026-05-03T10:20:15.002Z</time></trkpt><trkpt lat="41.83409739954571" lon="-3.07701803505307"><ele>1054.0</ele><time>2026-05-03T10:20:16.002Z</time></trkpt><trkpt lat="41.834040888278096" lon="-3.076873468472794"><ele>1053.0</ele><time>2026-05-03T10:20:17.002Z</time></trkpt><trkpt lat="41.833997456281715" lon="-3.0767484420235087"><ele>1052.0</ele><time>2026-05-03T10:20:18.002Z</time></trkpt><trkpt lat="41.83394207326766" lon="-3.07661100287372"><ele>1052.25</ele><time>2026-05-03T10:20:19.002Z</time></trkpt><trkpt lat="41.83388772464693" lon="-3.0764757244963232"><ele>1052.5</ele><time>2026-05-03T10:20:20.002Z</time></trkpt><trkpt lat="41.83383720629025" lon="-3.0763434859850713"><ele>1052.75</ele><time>2026-05-03T10:20:21.002Z</time></trkpt><trkpt lat="41.833771949522" lon="-3.0762021015341"><ele>1053.0</ele><time>2026-05-03T10:20:22.002Z</time></trkpt><trkpt lat="41.83370227678445" lon="-3.0760228473512923"><ele>1053.0</ele><time>2026-05-03T10:20:23.002Z</time></trkpt><trkpt lat="41.83363625707446" lon="-3.0758222723334936"><ele>1053.0</ele><time>2026-05-03T10:20:25.002Z</time></trkpt><trkpt lat="41.83358787565332" lon="-3.0756983501450526"><ele>1053.0</ele><time>2026-05-03T10:20:26.002Z</time></trkpt><trkpt lat="41.83354097011315" lon="-3.075583141541455"><ele>1053.0</ele><time>2026-05-03T10:20:27.002Z</time></trkpt><trkpt lat="41.83349780360894" lon="-3.075472960459913"><ele>1052.8333333333333</ele><time>2026-05-03T10:20:28.003Z</time></trkpt><trkpt lat="41.83345498041888" lon="-3.0753693589201037"><ele>1052.6666666666667</ele><time>2026-05-03T10:20:29.003Z</time></trkpt><trkpt lat="41.833416182837986" lon="-3.0752717861222596"><ele>1052.5</ele><time>2026-05-03T10:20:30.003Z</time></trkpt><trkpt lat="41.83337873395603" lon="-3.0751760149826812"><ele>1052.3333333333335</ele><time>2026-05-03T10:20:31.003Z</time></trkpt><trkpt lat="41.833343267112944" lon="-3.075084096881059"><ele>1052.1666666666667</ele><time>2026-05-03T10:20:32.003Z</time></trkpt><trkpt lat="41.83330675839607" lon="-3.0749951602684447"><ele>1052.0</ele><time>2026-05-03T10:20:33.003Z</time></trkpt><trkpt lat="41.83327069195357" lon="-3.0749038948515426"><ele>1052.0</ele><time>2026-05-03T10:20:34.003Z</time></trkpt><trkpt lat="41.83323643813119" lon="-3.074816932550774"><ele>1052.0</ele><time>2026-05-03T10:20:35.003Z</time></trkpt><trkpt lat="41.83320487002964" lon="-3.0747351613877254"><ele>1052.0</ele><time>2026-05-03T10:20:36.003Z</time></trkpt><trkpt lat="41.833175027043424" lon="-3.074654868904157"><ele>1052.0</ele><time>2026-05-03T10:20:37.003Z</time></trkpt><trkpt lat="41.833117953819446" lon="-3.0745153114195096"><ele>1052.0</ele><time>2026-05-03T10:20:39.003Z</time></trkpt><trkpt lat="41.83307048300809" lon="-3.0743897966474663"><ele>1052.0</ele><time>2026-05-03T10:20:41.003Z</time></trkpt><trkpt lat="41.83302719217476" lon="-3.0742897778106753"><ele>1052.0</ele><time>2026-05-03T10:20:43.003Z</time></trkpt><trkpt lat="41.833006804420194" lon="-3.0742050035943134"><ele>1052.0</ele><time>2026-05-03T10:20:46.003Z</time></trkpt><trkpt lat="41.83295557283914" lon="-3.074075623814202"><ele>1052.0</ele><time>2026-05-03T10:20:51.003Z</time></trkpt><trkpt lat="41.832895454293066" lon="-3.0739273043502604"><ele>1052.0</ele><time>2026-05-03T10:20:53.003Z</time></trkpt><trkpt lat="41.832858409515616" lon="-3.0738408205231034"><ele>1052.0</ele><time>2026-05-03T10:20:54.003Z</time></trkpt><trkpt lat="41.832818059417875" lon="-3.0737491957000462"><ele>1051.6666666666667</ele><time>2026-05-03T10:20:55.003Z</time></trkpt><trkpt lat="41.83277826637439" lon="-3.0736516552068824"><ele>1051.3333333333335</ele><time>2026-05-03T10:20:56.003Z</time></trkpt><trkpt lat="41.83273707694565" lon="-3.07354951094617"><ele>1051.0</ele><time>2026-05-03T10:20:57.003Z</time></trkpt><trkpt lat="41.832693295082606" lon="-3.073439976788723"><ele>1050.6666666666667</ele><time>2026-05-03T10:20:58.003Z</time></trkpt><trkpt lat="41.83264879101633" lon="-3.0733309341824437"><ele>1050.3333333333333</ele><time>2026-05-03T10:20:59Z</time></trkpt><trkpt lat="41.832600412140906" lon="-3.0732238398459986"><ele>1050.0</ele><time>2026-05-03T10:21:00Z</time></trkpt><trkpt lat="41.832553333345466" lon="-3.0731111407589005"><ele>1050.0</ele><time>2026-05-03T10:21:01Z</time></trkpt><trkpt lat="41.83250173743166" lon="-3.073003200393814"><ele>1050.0</ele><time>2026-05-03T10:21:02Z</time></trkpt><trkpt lat="41.83244901468647" lon="-3.0728966882768742"><ele>1050.0</ele><time>2026-05-03T10:21:03Z</time></trkpt><trkpt lat="41.832396661885895" lon="-3.072792260161242"><ele>1050.0</ele><time>2026-05-03T10:21:04Z</time></trkpt><trkpt lat="41.83234528996459" lon="-3.072688813750076"><ele>1050.0</ele><time>2026-05-03T10:21:05Z</time></trkpt><trkpt lat="41.832290987774414" lon="-3.072589264164253"><ele>1050.0</ele><time>2026-05-03T10:21:06Z</time></trkpt><trkpt lat="41.832238070131865" lon="-3.07249144224022"><ele>1050.0</ele><time>2026-05-03T10:21:07Z</time></trkpt><trkpt lat="41.832183851627754" lon="-3.07239138412338"><ele>1050.0</ele><time>2026-05-03T10:21:08Z</time></trkpt><trkpt lat="41.8321296837634" lon="-3.07228908121876"><ele>1050.0</ele><time>2026-05-03T10:21:09Z</time></trkpt><trkpt lat="41.83207124857788" lon="-3.072189968421206"><ele>1050.0</ele><time>2026-05-03T10:21:10Z</time></trkpt><trkpt lat="41.832011152738595" lon="-3.0720880851057593"><ele>1049.8</ele><time>2026-05-03T10:21:11Z</time></trkpt><trkpt lat="41.83195117251238" lon="-3.0719857354970084"><ele>1049.6</ele><time>2026-05-03T10:21:12Z</time></trkpt><trkpt lat="41.83189300094889" lon="-3.071883674138042"><ele>1049.4</ele><time>2026-05-03T10:21:13Z</time></trkpt><trkpt lat="41.831836439522" lon="-3.0717785532835107"><ele>1049.2</ele><time>2026-05-03T10:21:14Z</time></trkpt><trkpt lat="41.8317789322277" lon="-3.0716718575104056"><ele>1049.0</ele><time>2026-05-03T10:21:15Z</time></trkpt><trkpt lat="41.83171954319035" lon="-3.0715636992848836"><ele>1049.0</ele><time>2026-05-03T10:21:16Z</time></trkpt><trkpt lat="41.83165810630574" lon="-3.0714623356826274"><ele>1049.0</ele><time>2026-05-03T10:21:17Z</time></trkpt><trkpt lat="41.83159609291241" lon="-3.071357516860344"><ele>1049.0</ele><time>2026-05-03T10:21:18Z</time></trkpt><trkpt lat="41.83153654927689" lon="-3.0712495240707063"><ele>1049.0</ele><time>2026-05-03T10:21:19Z</time></trkpt><trkpt lat="41.831479052652305" lon="-3.071141108471863"><ele>1049.0</ele><time>2026-05-03T10:21:20Z</time></trkpt><trkpt lat="41.831424930018876" lon="-3.071035514046276"><ele>1049.0</ele><time>2026-05-03T10:21:21Z</time></trkpt><trkpt lat="41.83136101925939" lon="-3.070925979968408"><ele>1049.0</ele><time>2026-05-03T10:21:22Z</time></trkpt><trkpt lat="41.8313018518658" lon="-3.070823135502899"><ele>1049.0</ele><time>2026-05-03T10:21:23Z</time></trkpt><trkpt lat="41.83118227180496" lon="-3.0706124217249675"><ele>1049.0</ele><time>2026-05-03T10:21:25Z</time></trkpt><trkpt lat="41.83112250216783" lon="-3.0705036466366047"><ele>1049.0</ele><time>2026-05-03T10:21:26Z</time></trkpt><trkpt lat="41.83106063131484" lon="-3.0703986815011333"><ele>1049.0</ele><time>2026-05-03T10:21:27Z</time></trkpt><trkpt lat="41.83100024909453" lon="-3.070291269766477"><ele>1049.0</ele><time>2026-05-03T10:21:28Z</time></trkpt><trkpt lat="41.8309392780173" lon="-3.0701817569044025"><ele>1049.0</ele><time>2026-05-03T10:21:29Z</time></trkpt><trkpt lat="41.83087996445905" lon="-3.070071550358046"><ele>1049.0</ele><time>2026-05-03T10:21:30.001Z</time></trkpt><trkpt lat="41.8308271841476" lon="-3.0699605605914595"><ele>1048.2</ele><time>2026-05-03T10:21:31.001Z</time></trkpt><trkpt lat="41.83076155975079" lon="-3.0698562144308377"><ele>1047.4</ele><time>2026-05-03T10:21:32.001Z</time></trkpt><trkpt lat="41.83070445611941" lon="-3.0697580395760733"><ele>1046.6</ele><time>2026-05-03T10:21:33.001Z</time></trkpt><trkpt lat="41.83065274433622" lon="-3.0696614759710057"><ele>1045.8</ele><time>2026-05-03T10:21:34.001Z</time></trkpt><trkpt lat="41.8305950339696" lon="-3.0695526630399033"><ele>1045.0</ele><time>2026-05-03T10:21:35.001Z</time></trkpt><trkpt lat="41.83053893487917" lon="-3.06945172789841"><ele>1045.0</ele><time>2026-05-03T10:21:36.001Z</time></trkpt><trkpt lat="41.830482990217405" lon="-3.0693542140446604"><ele>1045.0</ele><time>2026-05-03T10:21:37.001Z</time></trkpt><trkpt lat="41.83042703834453" lon="-3.0692536547517335"><ele>1045.0</ele><time>2026-05-03T10:21:38.001Z</time></trkpt><trkpt lat="41.83037586290522" lon="-3.069159444848808"><ele>1045.0</ele><time>2026-05-03T10:21:39.001Z</time></trkpt><trkpt lat="41.830328187290235" lon="-3.069069299310668"><ele>1045.0</ele><time>2026-05-03T10:21:40.001Z</time></trkpt><trkpt lat="41.83027958257931" lon="-3.068981451757183"><ele>1045.0</ele><time>2026-05-03T10:21:41.001Z</time></trkpt><trkpt lat="41.83023072103859" lon="-3.068895672356514"><ele>1044.8333333333333</ele><time>2026-05-03T10:21:42.001Z</time></trkpt><trkpt lat="41.83018443066938" lon="-3.0688174692935033"><ele>1044.6666666666665</ele><time>2026-05-03T10:21:43.001Z</time></trkpt><trkpt lat="41.83013978425786" lon="-3.0687366137388907"><ele>1044.5</ele><time>2026-05-03T10:21:44.001Z</time></trkpt><trkpt lat="41.83009841935782" lon="-3.0686617742122873"><ele>1044.3333333333333</ele><time>2026-05-03T10:21:45.001Z</time></trkpt><trkpt lat="41.83003626905944" lon="-3.068546036568035"><ele>1044.1666666666667</ele><time>2026-05-03T10:21:47.001Z</time></trkpt><trkpt lat="41.82998214717167" lon="-3.0684628525381052"><ele>1044.0</ele><time>2026-05-03T10:21:49.001Z</time></trkpt><trkpt lat="41.829937392216735" lon="-3.0683921220435817"><ele>1043.8</ele><time>2026-05-03T10:21:52.001Z</time></trkpt><trkpt lat="41.82988533782688" lon="-3.0682979083584305"><ele>1043.6000000000001</ele><time>2026-05-03T10:21:55.001Z</time></trkpt><trkpt lat="41.82982724601539" lon="-3.0681944521495406"><ele>1043.4</ele><time>2026-05-03T10:21:57.001Z</time></trkpt><trkpt lat="41.829758079931324" lon="-3.0680775160873037"><ele>1043.2</ele><time>2026-05-03T10:21:59.001Z</time></trkpt><trkpt lat="41.82968639104271" lon="-3.0679441391319653"><ele>1043.0</ele><time>2026-05-03T10:22:01.002Z</time></trkpt><trkpt lat="41.82964806585471" lon="-3.067872733072057"><ele>1043.0</ele><time>2026-05-03T10:22:02.002Z</time></trkpt><trkpt lat="41.829603850533154" lon="-3.0677943022948337"><ele>1043.0</ele><time>2026-05-03T10:22:03.002Z</time></trkpt><trkpt lat="41.829562510771545" lon="-3.067716986188855"><ele>1043.0</ele><time>2026-05-03T10:22:04.002Z</time></trkpt><trkpt lat="41.8295120799577" lon="-3.067639657875109"><ele>1043.0</ele><time>2026-05-03T10:22:05.002Z</time></trkpt><trkpt lat="41.82946774046325" lon="-3.0675563964070016"><ele>1043.0</ele><time>2026-05-03T10:22:06.002Z</time></trkpt><trkpt lat="41.82943426308476" lon="-3.0674590505778245"><ele>1043.0</ele><time>2026-05-03T10:22:07.002Z</time></trkpt><trkpt lat="41.82938666406125" lon="-3.0673791242242356"><ele>1042.857142857143</ele><time>2026-05-03T10:22:08.002Z</time></trkpt><trkpt lat="41.8293347915458" lon="-3.067295513961864"><ele>1042.7142857142858</ele><time>2026-05-03T10:22:09.002Z</time></trkpt><trkpt lat="41.829280973683616" lon="-3.067219460763858"><ele>1042.5714285714284</ele><time>2026-05-03T10:22:10.002Z</time></trkpt><trkpt lat="41.829233476836755" lon="-3.067139102825164"><ele>1042.4285714285716</ele><time>2026-05-03T10:22:11.002Z</time></trkpt><trkpt lat="41.8291805972564" lon="-3.067072344390536"><ele>1042.2857142857142</ele><time>2026-05-03T10:22:12.002Z</time></trkpt><trkpt lat="41.829129561145606" lon="-3.067011210853155"><ele>1042.142857142857</ele><time>2026-05-03T10:22:13.002Z</time></trkpt><trkpt lat="41.82908831641719" lon="-3.066932043753416"><ele>1042.0</ele><time>2026-05-03T10:22:14.002Z</time></trkpt><trkpt lat="41.82903289244578" lon="-3.0668893954855325"><ele>1041.8</ele><time>2026-05-03T10:22:15.002Z</time></trkpt><trkpt lat="41.82899035007481" lon="-3.0668192597169712"><ele>1041.6</ele><time>2026-05-03T10:22:16.002Z</time></trkpt><trkpt lat="41.82898413712811" lon="-3.0666517857758433"><ele>1041.3999999999999</ele><time>2026-05-03T10:22:18.002Z</time></trkpt><trkpt lat="41.82901085559722" lon="-3.0664828081193396"><ele>1041.2</ele><time>2026-05-03T10:22:20.002Z</time></trkpt><trkpt lat="41.82902900179906" lon="-3.0663928993336813"><ele>1041.0</ele><time>2026-05-03T10:22:21.002Z</time></trkpt><trkpt lat="41.82904909804243" lon="-3.0663025174097185"><ele>1041.0</ele><time>2026-05-03T10:22:22.002Z</time></trkpt><trkpt lat="41.82906886319355" lon="-3.066211189144351"><ele>1041.0</ele><time>2026-05-03T10:22:23.002Z</time></trkpt><trkpt lat="41.829087858751585" lon="-3.066109258439003"><ele>1041.0</ele><time>2026-05-03T10:22:24.002Z</time></trkpt><trkpt lat="41.82910787489505" lon="-3.066009517970387"><ele>1041.0</ele><time>2026-05-03T10:22:25.002Z</time></trkpt><trkpt lat="41.82910769645108" lon="-3.0659006064660876"><ele>1041.0</ele><time>2026-05-03T10:22:26.002Z</time></trkpt><trkpt lat="41.829137257501465" lon="-3.0657944461658038"><ele>1041.0</ele><time>2026-05-03T10:22:27.002Z</time></trkpt><trkpt lat="41.82913535810108" lon="-3.0656915155821323"><ele>1041.142857142857</ele><time>2026-05-03T10:22:28.002Z</time></trkpt><trkpt lat="41.82914651797383" lon="-3.0655977398398715"><ele>1041.2857142857144</ele><time>2026-05-03T10:22:29.002Z</time></trkpt><trkpt lat="41.82915731890266" lon="-3.065506980285104"><ele>1041.4285714285716</ele><time>2026-05-03T10:22:30.002Z</time></trkpt><trkpt lat="41.82918264789397" lon="-3.0654152620201063"><ele>1041.5714285714287</ele><time>2026-05-03T10:22:31.002Z</time></trkpt><trkpt lat="41.82918984131019" lon="-3.0653210289342927"><ele>1041.7142857142858</ele><time>2026-05-03T10:22:32.002Z</time></trkpt><trkpt lat="41.82919517261074" lon="-3.065226022590723"><ele>1041.857142857143</ele><time>2026-05-03T10:22:33.003Z</time></trkpt><trkpt lat="41.82920908336781" lon="-3.0651285984856784"><ele>1042.0</ele><time>2026-05-03T10:22:34.003Z</time></trkpt><trkpt lat="41.82921501244647" lon="-3.0650283591451206"><ele>1041.6666666666665</ele><time>2026-05-03T10:22:35.003Z</time></trkpt><trkpt lat="41.829220066325625" lon="-3.064922831756263"><ele>1041.3333333333333</ele><time>2026-05-03T10:22:36.003Z</time></trkpt><trkpt lat="41.82922034493943" lon="-3.064817496883393"><ele>1041.0</ele><time>2026-05-03T10:22:37.003Z</time></trkpt><trkpt lat="41.829226476110705" lon="-3.064708895611004"><ele>1040.6666666666667</ele><time>2026-05-03T10:22:38.003Z</time></trkpt><trkpt lat="41.82923442429074" lon="-3.064596628555862"><ele>1040.3333333333335</ele><time>2026-05-03T10:22:39.003Z</time></trkpt><trkpt lat="41.829238396139004" lon="-3.0644809003376126"><ele>1040.0</ele><time>2026-05-03T10:22:40.003Z</time></trkpt><trkpt lat="41.82924837804316" lon="-3.0643690737753464"><ele>1040.0</ele><time>2026-05-03T10:22:41.003Z</time></trkpt><trkpt lat="41.829258669771384" lon="-3.0642570636868647"><ele>1040.0</ele><time>2026-05-03T10:22:42.003Z</time></trkpt><trkpt lat="41.829268650190116" lon="-3.0641420746833408"><ele>1040.0</ele><time>2026-05-03T10:22:43.003Z</time></trkpt><trkpt lat="41.829282128183976" lon="-3.0640270638769196"><ele>1040.0</ele><time>2026-05-03T10:22:44.003Z</time></trkpt><trkpt lat="41.829300910615764" lon="-3.063912390569606"><ele>1040.0</ele><time>2026-05-03T10:22:45.003Z</time></trkpt><trkpt lat="41.829317870533" lon="-3.063801619096948"><ele>1040.0</ele><time>2026-05-03T10:22:46.003Z</time></trkpt><trkpt lat="41.82933196744585" lon="-3.063683305552882"><ele>1041.0</ele><time>2026-05-03T10:22:47.003Z</time></trkpt><trkpt lat="41.82934799674017" lon="-3.063569300614721"><ele>1042.0</ele><time>2026-05-03T10:22:48.003Z</time></trkpt><trkpt lat="41.829364297379165" lon="-3.063456921656509"><ele>1043.0</ele><time>2026-05-03T10:22:49.003Z</time></trkpt><trkpt lat="41.82937715587383" lon="-3.063339011112887"><ele>1044.0</ele><time>2026-05-03T10:22:50.003Z</time></trkpt><trkpt lat="41.82939332956301" lon="-3.0632220031323567"><ele>1045.0</ele><time>2026-05-03T10:22:51.003Z</time></trkpt><trkpt lat="41.82940493611342" lon="-3.0631026395900482"><ele>1046.0</ele><time>2026-05-03T10:22:52.003Z</time></trkpt><trkpt lat="41.829417046297216" lon="-3.0629793558992002"><ele>1046.0</ele><time>2026-05-03T10:22:53.003Z</time></trkpt><trkpt lat="41.82942841453849" lon="-3.0628557121602844"><ele>1046.0</ele><time>2026-05-03T10:22:54.003Z</time></trkpt><trkpt lat="41.82944213964314" lon="-3.062727261200939"><ele>1046.0</ele><time>2026-05-03T10:22:55.003Z</time></trkpt><trkpt lat="41.82945661357974" lon="-3.0626003482810424"><ele>1046.0</ele><time>2026-05-03T10:22:56.003Z</time></trkpt><trkpt lat="41.82947473780364" lon="-3.062469548914486"><ele>1046.0</ele><time>2026-05-03T10:22:57.003Z</time></trkpt><trkpt lat="41.82949108811632" lon="-3.06233475321613"><ele>1045.8</ele><time>2026-05-03T10:22:58.003Z</time></trkpt><trkpt lat="41.82950793686447" lon="-3.0621999519502916"><ele>1045.6</ele><time>2026-05-03T10:22:59.003Z</time></trkpt><trkpt lat="41.82952231675242" lon="-3.062066645363909"><ele>1045.4</ele><time>2026-05-03T10:23:00.003Z</time></trkpt><trkpt lat="41.82953579449459" lon="-3.0619329665168076"><ele>1045.2</ele><time>2026-05-03T10:23:01.003Z</time></trkpt><trkpt lat="41.82955062077482" lon="-3.061797805069265"><ele>1045.0</ele><time>2026-05-03T10:23:02.003Z</time></trkpt><trkpt lat="41.8295646541699" lon="-3.0616658925306472"><ele>1045.4</ele><time>2026-05-03T10:23:03.003Z</time></trkpt><trkpt lat="41.82958288982522" lon="-3.061532687943186"><ele>1045.8</ele><time>2026-05-03T10:23:04.003Z</time></trkpt><trkpt lat="41.829601229020334" lon="-3.061398756489084"><ele>1046.2</ele><time>2026-05-03T10:23:04.999Z</time></trkpt><trkpt lat="41.829619349264334" lon="-3.0612607702102195"><ele>1046.6</ele><time>2026-05-03T10:23:05.999Z</time></trkpt><trkpt lat="41.82963728111469" lon="-3.0611228151984373"><ele>1047.0</ele><time>2026-05-03T10:23:07Z</time></trkpt><trkpt lat="41.82965583293062" lon="-3.0609852986816493"><ele>1047.0</ele><time>2026-05-03T10:23:08Z</time></trkpt><trkpt lat="41.82967585581843" lon="-3.060853219135511"><ele>1047.0</ele><time>2026-05-03T10:23:09Z</time></trkpt><trkpt lat="41.829698015785304" lon="-3.060716694563267"><ele>1047.0</ele><time>2026-05-03T10:23:10Z</time></trkpt><trkpt lat="41.82972423726683" lon="-3.0605852631133597"><ele>1047.0</ele><time>2026-05-03T10:23:11Z</time></trkpt><trkpt lat="41.82975515178543" lon="-3.0604549155714533"><ele>1047.0</ele><time>2026-05-03T10:23:12Z</time></trkpt><trkpt lat="41.829790720024334" lon="-3.060332792092412"><ele>1046.6</ele><time>2026-05-03T10:23:13Z</time></trkpt><trkpt lat="41.82982850579954" lon="-3.0602109687808308"><ele>1046.2</ele><time>2026-05-03T10:23:14Z</time></trkpt><trkpt lat="41.82986876318388" lon="-3.060088865245793"><ele>1045.8</ele><time>2026-05-03T10:23:15Z</time></trkpt><trkpt lat="41.829910873636734" lon="-3.0599641655181182"><ele>1045.4</ele><time>2026-05-03T10:23:16Z</time></trkpt><trkpt lat="41.82995366962501" lon="-3.059844181249754"><ele>1045.0</ele><time>2026-05-03T10:23:17Z</time></trkpt><trkpt lat="41.83000118068616" lon="-3.0597267447426155"><ele>1045.0</ele><time>2026-05-03T10:23:18Z</time></trkpt><trkpt lat="41.830049849676456" lon="-3.059607471707152"><ele>1045.0</ele><time>2026-05-03T10:23:19Z</time></trkpt><trkpt lat="41.83009858116279" lon="-3.0594874672942747"><ele>1045.0</ele><time>2026-05-03T10:23:20Z</time></trkpt><trkpt lat="41.83014885300493" lon="-3.0593673679135196"><ele>1045.0</ele><time>2026-05-03T10:23:21Z</time></trkpt><trkpt lat="41.830196407574036" lon="-3.059245714260855"><ele>1045.0</ele><time>2026-05-03T10:23:22Z</time></trkpt><trkpt lat="41.83024256087625" lon="-3.0591282469448577"><ele>1045.8</ele><time>2026-05-03T10:23:23Z</time></trkpt><trkpt lat="41.83028992470276" lon="-3.0590089787674573"><ele>1046.6</ele><time>2026-05-03T10:23:24Z</time></trkpt><trkpt lat="41.83033767202176" lon="-3.0588903423666847"><ele>1047.4</ele><time>2026-05-03T10:23:25Z</time></trkpt><trkpt lat="41.83038438421213" lon="-3.0587706686096383"><ele>1048.2</ele><time>2026-05-03T10:23:26Z</time></trkpt><trkpt lat="41.83043144589316" lon="-3.0586497353536792"><ele>1049.0</ele><time>2026-05-03T10:23:27Z</time></trkpt><trkpt lat="41.83047863737552" lon="-3.0585282777097067"><ele>1049.0</ele><time>2026-05-03T10:23:28Z</time></trkpt><trkpt lat="41.83052724218029" lon="-3.058405465859699"><ele>1049.0</ele><time>2026-05-03T10:23:29Z</time></trkpt><trkpt lat="41.830576328203165" lon="-3.0582824064469736"><ele>1049.0</ele><time>2026-05-03T10:23:30Z</time></trkpt><trkpt lat="41.830625670772875" lon="-3.058156966493034"><ele>1049.0</ele><time>2026-05-03T10:23:31Z</time></trkpt><trkpt lat="41.8306750532534" lon="-3.0580314214414357"><ele>1049.0</ele><time>2026-05-03T10:23:32Z</time></trkpt><trkpt lat="41.83072320028097" lon="-3.0579058909935526"><ele>1048.4</ele><time>2026-05-03T10:23:33Z</time></trkpt><trkpt lat="41.830772260952045" lon="-3.057780708045804"><ele>1047.8000000000002</ele><time>2026-05-03T10:23:34Z</time></trkpt><trkpt lat="41.83082252120419" lon="-3.0576556524101144"><ele>1047.1999999999998</ele><time>2026-05-03T10:23:35Z</time></trkpt><trkpt lat="41.83087126620911" lon="-3.057528706157924"><ele>1046.6</ele><time>2026-05-03T10:23:36Z</time></trkpt><trkpt lat="41.83092210761767" lon="-3.0573999727607886"><ele>1046.0</ele><time>2026-05-03T10:23:37Z</time></trkpt><trkpt lat="41.83097181480197" lon="-3.057273719071233"><ele>1047.6666666666667</ele><time>2026-05-03T10:23:38Z</time></trkpt><trkpt lat="41.83101459200337" lon="-3.0571538916903824"><ele>1049.3333333333335</ele><time>2026-05-03T10:23:39.001Z</time></trkpt><trkpt lat="41.831058573030184" lon="-3.057047743181688"><ele>1051.0</ele><time>2026-05-03T10:23:40.001Z</time></trkpt><trkpt lat="41.83109836215635" lon="-3.0569453109163174"><ele>1052.6666666666667</ele><time>2026-05-03T10:23:41.001Z</time></trkpt><trkpt lat="41.83113393872357" lon="-3.0568482342699674"><ele>1054.3333333333333</ele><time>2026-05-03T10:23:42.001Z</time></trkpt><trkpt lat="41.83116693588802" lon="-3.056758409689615"><ele>1056.0</ele><time>2026-05-03T10:23:43.001Z</time></trkpt><trkpt lat="41.83119746713233" lon="-3.0566730144367695"><ele>1053.8333333333333</ele><time>2026-05-03T10:23:44.001Z</time></trkpt><trkpt lat="41.831215160300616" lon="-3.0565895368447786"><ele>1051.6666666666667</ele><time>2026-05-03T10:23:45.001Z</time></trkpt><trkpt lat="41.83122096661642" lon="-3.0564413395135235"><ele>1049.5</ele><time>2026-05-03T10:23:47.001Z</time></trkpt><trkpt lat="41.83122233003416" lon="-3.0563164083298076"><ele>1047.3333333333335</ele><time>2026-05-03T10:23:49.001Z</time></trkpt><trkpt lat="41.831247398255194" lon="-3.056232031137908"><ele>1045.1666666666667</ele><time>2026-05-03T10:23:52.001Z</time></trkpt><trkpt lat="41.8312485874561" lon="-3.0561413255429946"><ele>1043.0</ele><time>2026-05-03T10:30:07.001Z</time></trkpt><trkpt lat="41.83126016062042" lon="-3.056051935706158"><ele>1043.0</ele><time>2026-05-03T10:30:13.001Z</time></trkpt><trkpt lat="41.83133153108678" lon="-3.056036222856613"><ele>1043.0</ele><time>2026-05-03T10:48:52.001Z</time></trkpt><trkpt lat="41.831399337612" lon="-3.056005075283159"><ele>1043.0</ele><time>2026-05-03T10:48:55.001Z</time></trkpt><trkpt lat="41.83149054340654" lon="-3.055964409838478"><ele>1043.0</ele><time>2026-05-03T10:48:59.001Z</time></trkpt><trkpt lat="41.83158262107745" lon="-3.0559058854366543"><ele>1043.0</ele><time>2026-05-03T10:49:01.001Z</time></trkpt><trkpt lat="41.83168616714536" lon="-3.055811419002638"><ele>1042.8333333333335</ele><time>2026-05-03T10:49:03.001Z</time></trkpt><trkpt lat="41.83174453265233" lon="-3.05575595679447"><ele>1042.6666666666667</ele><time>2026-05-03T10:49:04.001Z</time></trkpt><trkpt lat="41.83180690985615" lon="-3.0557052419316197"><ele>1042.5</ele><time>2026-05-03T10:49:05.001Z</time></trkpt><trkpt lat="41.831875927229255" lon="-3.05565207666186"><ele>1042.3333333333333</ele><time>2026-05-03T10:49:06.001Z</time></trkpt><trkpt lat="41.83194648440711" lon="-3.055600880052845"><ele>1042.1666666666665</ele><time>2026-05-03T10:49:07.001Z</time></trkpt><trkpt lat="41.83202009924075" lon="-3.055545126044953"><ele>1042.0</ele><time>2026-05-03T10:49:08.001Z</time></trkpt><trkpt lat="41.832090194488465" lon="-3.055482183954142"><ele>1043.2</ele><time>2026-05-03T10:49:09.001Z</time></trkpt><trkpt lat="41.8321471248743" lon="-3.0554159478596676"><ele>1044.4</ele><time>2026-05-03T10:49:10.001Z</time></trkpt><trkpt lat="41.832220986708485" lon="-3.055324789522798"><ele>1045.6</ele><time>2026-05-03T10:49:12.001Z</time></trkpt><trkpt lat="41.83228402992744" lon="-3.0552751780826277"><ele>1046.8</ele><time>2026-05-03T10:49:57.001Z</time></trkpt><trkpt lat="41.83234879699628" lon="-3.055194421174926"><ele>1048.0</ele><time>2026-05-03T10:49:59.001Z</time></trkpt><trkpt lat="41.8324346219079" lon="-3.0550836043964544"><ele>1048.0</ele><time>2026-05-03T10:50:01.001Z</time></trkpt><trkpt lat="41.8324830651535" lon="-3.0550196806161622"><ele>1048.0</ele><time>2026-05-03T10:50:02.001Z</time></trkpt><trkpt lat="41.83253515143801" lon="-3.054954000819956"><ele>1048.0</ele><time>2026-05-03T10:50:03.001Z</time></trkpt><trkpt lat="41.832588366327755" lon="-3.0548819965334024"><ele>1048.0</ele><time>2026-05-03T10:50:04.002Z</time></trkpt><trkpt lat="41.83264192947172" lon="-3.0548053652632854"><ele>1048.0</ele><time>2026-05-03T10:50:05.002Z</time></trkpt><trkpt lat="41.8326953702276" lon="-3.05472396441079"><ele>1048.0</ele><time>2026-05-03T10:50:06.002Z</time></trkpt><trkpt lat="41.832747808167355" lon="-3.054637187724133"><ele>1049.0</ele><time>2026-05-03T10:50:07.002Z</time></trkpt><trkpt lat="41.83279930017312" lon="-3.054548500070493"><ele>1050.0</ele><time>2026-05-03T10:50:08.002Z</time></trkpt><trkpt lat="41.83284954839138" lon="-3.0544546492287052"><ele>1051.0</ele><time>2026-05-03T10:50:09.002Z</time></trkpt><trkpt lat="41.83289932685416" lon="-3.0543578362950985"><ele>1052.0</ele><time>2026-05-03T10:50:10.002Z</time></trkpt><trkpt lat="41.83294708434987" lon="-3.054257036747107"><ele>1053.0</ele><time>2026-05-03T10:50:11.002Z</time></trkpt><trkpt lat="41.832992027413184" lon="-3.054153666014581"><ele>1054.0</ele><time>2026-05-03T10:50:12.002Z</time></trkpt><trkpt lat="41.83303286098983" lon="-3.054048662420647"><ele>1054.0</ele><time>2026-05-03T10:50:13.002Z</time></trkpt><trkpt lat="41.8330688981125" lon="-3.0539409706566465"><ele>1054.0</ele><time>2026-05-03T10:50:14.002Z</time></trkpt><trkpt lat="41.83310350597773" lon="-3.0538321615422332"><ele>1054.0</ele><time>2026-05-03T10:50:15.002Z</time></trkpt><trkpt lat="41.83313328484356" lon="-3.053720889593186"><ele>1054.0</ele><time>2026-05-03T10:50:16.002Z</time></trkpt><trkpt lat="41.83316182246461" lon="-3.053607662008267"><ele>1054.0</ele><time>2026-05-03T10:50:17.002Z</time></trkpt><trkpt lat="41.83318665167949" lon="-3.0534934247084835"><ele>1054.0</ele><time>2026-05-03T10:50:18.002Z</time></trkpt><trkpt lat="41.83320841238421" lon="-3.053377269185227"><ele>1053.6666666666665</ele><time>2026-05-03T10:50:19.002Z</time></trkpt><trkpt lat="41.833229686786076" lon="-3.0532613148951437"><ele>1053.3333333333333</ele><time>2026-05-03T10:50:20.002Z</time></trkpt><trkpt lat="41.83324854397697" lon="-3.0531464387626723"><ele>1053.0</ele><time>2026-05-03T10:50:21.002Z</time></trkpt><trkpt lat="41.83326489751779" lon="-3.053029823508545"><ele>1052.6666666666667</ele><time>2026-05-03T10:50:22.002Z</time></trkpt><trkpt lat="41.833279577005584" lon="-3.052911043296948"><ele>1052.3333333333335</ele><time>2026-05-03T10:50:23Z</time></trkpt><trkpt lat="41.833289464312635" lon="-3.052791295321924"><ele>1052.0</ele><time>2026-05-03T10:50:24Z</time></trkpt><trkpt lat="41.83329774327692" lon="-3.052669639046763"><ele>1052.0</ele><time>2026-05-03T10:50:25Z</time></trkpt><trkpt lat="41.83330330567771" lon="-3.0525458413475937"><ele>1052.0</ele><time>2026-05-03T10:50:26Z</time></trkpt><trkpt lat="41.833310812172975" lon="-3.0524194096054416"><ele>1052.0</ele><time>2026-05-03T10:50:27Z</time></trkpt><trkpt lat="41.83331885346495" lon="-3.0522912977481145"><ele>1052.0</ele><time>2026-05-03T10:50:28Z</time></trkpt><trkpt lat="41.83332816420312" lon="-3.052162968334471"><ele>1052.0</ele><time>2026-05-03T10:50:29Z</time></trkpt><trkpt lat="41.833336490638494" lon="-3.0520303540784512"><ele>1052.0</ele><time>2026-05-03T10:50:30Z</time></trkpt><trkpt lat="41.833342541355506" lon="-3.051896820845704"><ele>1052.0</ele><time>2026-05-03T10:50:31Z</time></trkpt><trkpt lat="41.83334952235209" lon="-3.0517656676414506"><ele>1052.0</ele><time>2026-05-03T10:50:32Z</time></trkpt><trkpt lat="41.83335654609354" lon="-3.0516318654507355"><ele>1052.0</ele><time>2026-05-03T10:50:33Z</time></trkpt><trkpt lat="41.83336538450485" lon="-3.0514982274787688"><ele>1052.0</ele><time>2026-05-03T10:50:34Z</time></trkpt><trkpt lat="41.833378068419464" lon="-3.05136105342715"><ele>1051.6</ele><time>2026-05-03T10:50:35Z</time></trkpt><trkpt lat="41.833392418149735" lon="-3.0512246981626117"><ele>1051.2</ele><time>2026-05-03T10:50:36Z</time></trkpt><trkpt lat="41.83340931624054" lon="-3.051087594599649"><ele>1050.8</ele><time>2026-05-03T10:50:37Z</time></trkpt><trkpt lat="41.833431364249044" lon="-3.0509519893543815"><ele>1050.4</ele><time>2026-05-03T10:50:38Z</time></trkpt><trkpt lat="41.83345773080632" lon="-3.050816167261592"><ele>1050.0</ele><time>2026-05-03T10:50:39Z</time></trkpt><trkpt lat="41.83348549370752" lon="-3.0506827492508504"><ele>1054.4</ele><time>2026-05-03T10:50:40Z</time></trkpt><trkpt lat="41.83351702055454" lon="-3.050549422845529"><ele>1058.8</ele><time>2026-05-03T10:50:41Z</time></trkpt><trkpt lat="41.83355137464166" lon="-3.0504192594727484"><ele>1063.2</ele><time>2026-05-03T10:50:42Z</time></trkpt><trkpt lat="41.833588453792984" lon="-3.0502911162027524"><ele>1067.6</ele><time>2026-05-03T10:50:43Z</time></trkpt><trkpt lat="41.83362370672992" lon="-3.0501629416954867"><ele>1072.0</ele><time>2026-05-03T10:50:44Z</time></trkpt><trkpt lat="41.833658313927955" lon="-3.050037684583918"><ele>1070.0</ele><time>2026-05-03T10:50:45Z</time></trkpt><trkpt lat="41.83369652629671" lon="-3.0499120369029455"><ele>1068.0</ele><time>2026-05-03T10:50:46Z</time></trkpt><trkpt lat="41.833733654972605" lon="-3.049785371717593"><ele>1066.0</ele><time>2026-05-03T10:50:47Z</time></trkpt><trkpt lat="41.83377015257858" lon="-3.0496603186982365"><ele>1064.0</ele><time>2026-05-03T10:50:48Z</time></trkpt><trkpt lat="41.833804421423" lon="-3.049529593620586"><ele>1062.0</ele><time>2026-05-03T10:50:49Z</time></trkpt><trkpt lat="41.83383873901643" lon="-3.049400630611585"><ele>1062.0</ele><time>2026-05-03T10:50:50Z</time></trkpt><trkpt lat="41.83387494445482" lon="-3.0492721661151867"><ele>1062.0</ele><time>2026-05-03T10:50:51Z</time></trkpt><trkpt lat="41.83391063480147" lon="-3.049144312039987"><ele>1062.0</ele><time>2026-05-03T10:50:52Z</time></trkpt><trkpt lat="41.83394678321423" lon="-3.0490154344949"><ele>1062.0</ele><time>2026-05-03T10:50:53Z</time></trkpt><trkpt lat="41.83398579398082" lon="-3.0488867066694585"><ele>1062.0</ele><time>2026-05-03T10:50:54Z</time></trkpt><trkpt lat="41.8340217260335" lon="-3.0487589555368526"><ele>1061.0</ele><time>2026-05-03T10:50:55Z</time></trkpt><trkpt lat="41.834058113063286" lon="-3.0486275350071588"><ele>1060.0</ele><time>2026-05-03T10:50:56Z</time></trkpt><trkpt lat="41.83409842947633" lon="-3.0484984037527063"><ele>1059.0</ele><time>2026-05-03T10:50:57Z</time></trkpt><trkpt lat="41.834138744274824" lon="-3.048368444727811"><ele>1058.0</ele><time>2026-05-03T10:50:58Z</time></trkpt><trkpt lat="41.83417480870252" lon="-3.0482374165242203"><ele>1057.0</ele><time>2026-05-03T10:50:59Z</time></trkpt><trkpt lat="41.83421047071668" lon="-3.0481077242942405"><ele>1056.6</ele><time>2026-05-03T10:51:00Z</time></trkpt><trkpt lat="41.83425091815688" lon="-3.047974819218829"><ele>1056.2</ele><time>2026-05-03T10:51:01Z</time></trkpt><trkpt lat="41.834289156619" lon="-3.047843491428036"><ele>1055.8</ele><time>2026-05-03T10:51:02Z</time></trkpt><trkpt lat="41.83432971191438" lon="-3.0477123167219777"><ele>1055.4</ele><time>2026-05-03T10:51:03Z</time></trkpt><trkpt lat="41.83436357067559" lon="-3.047581680234847"><ele>1055.0</ele><time>2026-05-03T10:51:04Z</time></trkpt><trkpt lat="41.83440509072745" lon="-3.047447131991891"><ele>1056.8</ele><time>2026-05-03T10:51:05Z</time></trkpt><trkpt lat="41.83444361718197" lon="-3.047314333995169"><ele>1058.6</ele><time>2026-05-03T10:51:06Z</time></trkpt><trkpt lat="41.83448010128639" lon="-3.047180953136691"><ele>1060.4</ele><time>2026-05-03T10:51:07Z</time></trkpt><trkpt lat="41.83452209081538" lon="-3.047047727954536"><ele>1062.2</ele><time>2026-05-03T10:51:08Z</time></trkpt><trkpt lat="41.83455707792732" lon="-3.046915860055301"><ele>1064.0</ele><time>2026-05-03T10:51:09Z</time></trkpt><trkpt lat="41.83459920391932" lon="-3.0467844382264837"><ele>1064.0</ele><time>2026-05-03T10:51:10Z</time></trkpt><trkpt lat="41.83463500246797" lon="-3.0466527640360526"><ele>1064.0</ele><time>2026-05-03T10:51:11Z</time></trkpt><trkpt lat="41.83467833249826" lon="-3.0465214328649823"><ele>1064.0</ele><time>2026-05-03T10:51:12Z</time></trkpt><trkpt lat="41.83471703289694" lon="-3.046390638607951"><ele>1064.0</ele><time>2026-05-03T10:51:13Z</time></trkpt><trkpt lat="41.83476492125526" lon="-3.046258933927115"><ele>1064.0</ele><time>2026-05-03T10:51:14Z</time></trkpt><trkpt lat="41.8348096569619" lon="-3.0461296075052773"><ele>1063.8</ele><time>2026-05-03T10:51:15Z</time></trkpt><trkpt lat="41.83485883209423" lon="-3.0460004030352237"><ele>1063.6000000000001</ele><time>2026-05-03T10:51:16Z</time></trkpt><trkpt lat="41.8349090701886" lon="-3.045873528549493"><ele>1063.4</ele><time>2026-05-03T10:51:17Z</time></trkpt><trkpt lat="41.834968724518355" lon="-3.045746435649549"><ele>1063.2</ele><time>2026-05-03T10:51:18Z</time></trkpt><trkpt lat="41.83502801328095" lon="-3.0456255532649226"><ele>1063.0</ele><time>2026-05-03T10:51:19Z</time></trkpt><trkpt lat="41.83507932085453" lon="-3.045495758889398"><ele>1062.8</ele><time>2026-05-03T10:51:20Z</time></trkpt><trkpt lat="41.8351383304921" lon="-3.045368136601141"><ele>1062.6</ele><time>2026-05-03T10:51:21Z</time></trkpt><trkpt lat="41.835195206292326" lon="-3.0452430133272617"><ele>1062.4</ele><time>2026-05-03T10:51:22Z</time></trkpt><trkpt lat="41.83525393980514" lon="-3.045119337706392"><ele>1062.2</ele><time>2026-05-03T10:51:23Z</time></trkpt><trkpt lat="41.83531270894718" lon="-3.044997955329711"><ele>1062.0</ele><time>2026-05-03T10:51:24Z</time></trkpt><trkpt lat="41.8353683821371" lon="-3.0448765154820436"><ele>1062.0</ele><time>2026-05-03T10:51:25Z</time></trkpt><trkpt lat="41.835423175144115" lon="-3.0447501261327115"><ele>1062.0</ele><time>2026-05-03T10:51:26Z</time></trkpt><trkpt lat="41.8354796992436" lon="-3.044623551604874"><ele>1062.0</ele><time>2026-05-03T10:51:27.001Z</time></trkpt><trkpt lat="41.83553415194408" lon="-3.0444960746673755"><ele>1062.0</ele><time>2026-05-03T10:51:28.001Z</time></trkpt><trkpt lat="41.835586694507015" lon="-3.044368234371117"><ele>1062.0</ele><time>2026-05-03T10:51:29.001Z</time></trkpt><trkpt lat="41.83563208877477" lon="-3.044234321948128"><ele>1061.8</ele><time>2026-05-03T10:51:30.001Z</time></trkpt><trkpt lat="41.83567298551576" lon="-3.044109845928131"><ele>1061.6</ele><time>2026-05-03T10:51:31.001Z</time></trkpt><trkpt lat="41.83571834844867" lon="-3.0439609508580845"><ele>1061.3999999999999</ele><time>2026-05-03T10:51:32.001Z</time></trkpt><trkpt lat="41.835751131160535" lon="-3.043823074699415"><ele>1061.2</ele><time>2026-05-03T10:51:33.001Z</time></trkpt><trkpt lat="41.835787824265786" lon="-3.043684216069711"><ele>1061.0</ele><time>2026-05-03T10:51:34.001Z</time></trkpt><trkpt lat="41.83581044749483" lon="-3.043539059632254"><ele>1061.0</ele><time>2026-05-03T10:51:35.001Z</time></trkpt><trkpt lat="41.83583313525538" lon="-3.043394881593176"><ele>1061.0</ele><time>2026-05-03T10:51:36.001Z</time></trkpt><trkpt lat="41.835851043522105" lon="-3.043252115221111"><ele>1061.0</ele><time>2026-05-03T10:51:37.001Z</time></trkpt><trkpt lat="41.835868583933866" lon="-3.043110263424499"><ele>1061.0</ele><time>2026-05-03T10:51:38.001Z</time></trkpt><trkpt lat="41.83588365848238" lon="-3.0429661151796417"><ele>1061.0</ele><time>2026-05-03T10:51:39.001Z</time></trkpt><trkpt lat="41.83589641072537" lon="-3.0428247712683687"><ele>1060.8</ele><time>2026-05-03T10:51:40.001Z</time></trkpt><trkpt lat="41.83590767089828" lon="-3.0426836669820942"><ele>1060.6</ele><time>2026-05-03T10:51:41.001Z</time></trkpt><trkpt lat="41.835919026149426" lon="-3.042540451078031"><ele>1060.4</ele><time>2026-05-03T10:51:42.001Z</time></trkpt><trkpt lat="41.83593190795548" lon="-3.042398996600679"><ele>1060.2</ele><time>2026-05-03T10:51:43.001Z</time></trkpt><trkpt lat="41.835946210592624" lon="-3.042256570550502"><ele>1060.0</ele><time>2026-05-03T10:51:44.001Z</time></trkpt><trkpt lat="41.83595809230518" lon="-3.042112769258664"><ele>1060.0</ele><time>2026-05-03T10:51:45.001Z</time></trkpt><trkpt lat="41.835969500806485" lon="-3.0419685249551254"><ele>1060.0</ele><time>2026-05-03T10:51:46.001Z</time></trkpt><trkpt lat="41.83598401429291" lon="-3.0418258979399733"><ele>1060.0</ele><time>2026-05-03T10:51:47.001Z</time></trkpt><trkpt lat="41.83599703742929" lon="-3.041679339036186"><ele>1060.0</ele><time>2026-05-03T10:51:48.001Z</time></trkpt><trkpt lat="41.83601008468355" lon="-3.0415330454039986"><ele>1060.0</ele><time>2026-05-03T10:51:49.001Z</time></trkpt><trkpt lat="41.836023162962185" lon="-3.0413849908562263"><ele>1061.4</ele><time>2026-05-03T10:51:50.001Z</time></trkpt><trkpt lat="41.83603553840216" lon="-3.0412403695046835"><ele>1062.8</ele><time>2026-05-03T10:51:51.001Z</time></trkpt><trkpt lat="41.83604875189401" lon="-3.0410949973385466"><ele>1064.2</ele><time>2026-05-03T10:51:52.001Z</time></trkpt><trkpt lat="41.8360626213643" lon="-3.04094983729493"><ele>1065.6</ele><time>2026-05-03T10:51:53.001Z</time></trkpt><trkpt lat="41.83607794402704" lon="-3.0408016717281394"><ele>1067.0</ele><time>2026-05-03T10:51:54.001Z</time></trkpt><trkpt lat="41.836092460230205" lon="-3.04065790552812"><ele>1067.0</ele><time>2026-05-03T10:51:55.001Z</time></trkpt><trkpt lat="41.836105879646425" lon="-3.0405136060329196"><ele>1067.0</ele><time>2026-05-03T10:51:56.001Z</time></trkpt><trkpt lat="41.83611977875625" lon="-3.0403603018519263"><ele>1067.0</ele><time>2026-05-03T10:51:57.001Z</time></trkpt><trkpt lat="41.83613072740555" lon="-3.0402234919038773"><ele>1067.0</ele><time>2026-05-03T10:51:58.001Z</time></trkpt><trkpt lat="41.836142266696015" lon="-3.040067669064686"><ele>1067.0</ele><time>2026-05-03T10:51:59.001Z</time></trkpt><trkpt lat="41.83615269877006" lon="-3.039926896963767"><ele>1067.0</ele><time>2026-05-03T10:52:00.001Z</time></trkpt><trkpt lat="41.83616900282668" lon="-3.039764249911642"><ele>1067.0</ele><time>2026-05-03T10:52:01.001Z</time></trkpt><trkpt lat="41.83619889987359" lon="-3.039565426726791"><ele>1067.0</ele><time>2026-05-03T10:52:02.001Z</time></trkpt><trkpt lat="41.836201693222634" lon="-3.0394277547884387"><ele>1067.0</ele><time>2026-05-03T10:52:03.001Z</time></trkpt><trkpt lat="41.83621333009876" lon="-3.0392917458638764"><ele>1067.0</ele><time>2026-05-03T10:52:04.001Z</time></trkpt><trkpt lat="41.83621770795215" lon="-3.0391806737939855"><ele>1067.0</ele><time>2026-05-03T10:52:05.001Z</time></trkpt><trkpt lat="41.83623386854767" lon="-3.0390316354459377"><ele>1067.0</ele><time>2026-05-03T10:52:06.001Z</time></trkpt><trkpt lat="41.836246013313904" lon="-3.0388742888589517"><ele>1067.0</ele><time>2026-05-03T10:52:07.001Z</time></trkpt><trkpt lat="41.83625724123492" lon="-3.0387308647952205"><ele>1067.0</ele><time>2026-05-03T10:52:08.001Z</time></trkpt><trkpt lat="41.836272097575595" lon="-3.0385851397968757"><ele>1067.4</ele><time>2026-05-03T10:52:09.001Z</time></trkpt><trkpt lat="41.83629332543012" lon="-3.0384452145475147"><ele>1067.8000000000002</ele><time>2026-05-03T10:52:10.001Z</time></trkpt><trkpt lat="41.83630732007133" lon="-3.038302450271013"><ele>1068.2</ele><time>2026-05-03T10:52:11.001Z</time></trkpt><trkpt lat="41.83632343767772" lon="-3.0381612825371787"><ele>1068.6000000000001</ele><time>2026-05-03T10:52:12.001Z</time></trkpt><trkpt lat="41.83633502033194" lon="-3.038016153465644"><ele>1069.0</ele><time>2026-05-03T10:52:13.001Z</time></trkpt><trkpt lat="41.83634656983415" lon="-3.0378726498346436"><ele>1069.0</ele><time>2026-05-03T10:52:14.001Z</time></trkpt><trkpt lat="41.83635995679947" lon="-3.037729956910793"><ele>1069.0</ele><time>2026-05-03T10:52:15.001Z</time></trkpt><trkpt lat="41.83637383976617" lon="-3.0375884091224425"><ele>1069.0</ele><time>2026-05-03T10:52:16.001Z</time></trkpt><trkpt lat="41.83638751044366" lon="-3.0374471030829278"><ele>1069.0</ele><time>2026-05-03T10:52:17.001Z</time></trkpt><trkpt lat="41.83640406861938" lon="-3.037306434003977"><ele>1069.0</ele><time>2026-05-03T10:52:18.001Z</time></trkpt><trkpt lat="41.83642303035744" lon="-3.0371653956176745"><ele>1068.6000000000001</ele><time>2026-05-03T10:52:19.001Z</time></trkpt><trkpt lat="41.83644037551278" lon="-3.037026324571271"><ele>1068.2</ele><time>2026-05-03T10:52:20.001Z</time></trkpt><trkpt lat="41.83645980717318" lon="-3.036889374104163"><ele>1067.8000000000002</ele><time>2026-05-03T10:52:21.001Z</time></trkpt><trkpt lat="41.836484027756725" lon="-3.0367542082733254"><ele>1067.4</ele><time>2026-05-03T10:52:22.001Z</time></trkpt><trkpt lat="41.83650824986761" lon="-3.036617524084244"><ele>1067.0</ele><time>2026-05-03T10:52:23.001Z</time></trkpt><trkpt lat="41.83652940149863" lon="-3.0364819300091286"><ele>1066.6</ele><time>2026-05-03T10:52:24.001Z</time></trkpt><trkpt lat="41.83655460825107" lon="-3.036345825656192"><ele>1066.2</ele><time>2026-05-03T10:52:25.001Z</time></trkpt><trkpt lat="41.836583700856124" lon="-3.0362112647639123"><ele>1065.8</ele><time>2026-05-03T10:52:26.001Z</time></trkpt><trkpt lat="41.836612746312255" lon="-3.0360756867126684"><ele>1065.4</ele><time>2026-05-03T10:52:27.001Z</time></trkpt><trkpt lat="41.8366397065431" lon="-3.0359369919681085"><ele>1065.0</ele><time>2026-05-03T10:52:28.001Z</time></trkpt><trkpt lat="41.83666243867796" lon="-3.0357975951055685"><ele>1064.6</ele><time>2026-05-03T10:52:28.999Z</time></trkpt><trkpt lat="41.836688886316566" lon="-3.035657953101079"><ele>1064.2</ele><time>2026-05-03T10:52:29.999Z</time></trkpt><trkpt lat="41.83671765691559" lon="-3.0355213006622526"><ele>1063.8</ele><time>2026-05-03T10:52:30.999Z</time></trkpt><trkpt lat="41.83674495644" lon="-3.035383548935383"><ele>1063.4</ele><time>2026-05-03T10:52:31.999Z</time></trkpt><trkpt lat="41.83677322410711" lon="-3.0352453495097795"><ele>1063.0</ele><time>2026-05-03T10:52:32.999Z</time></trkpt><trkpt lat="41.836794074306454" lon="-3.035105732932024"><ele>1064.8</ele><time>2026-05-03T10:52:33.999Z</time></trkpt><trkpt lat="41.83682140545932" lon="-3.034971978094371"><ele>1066.6</ele><time>2026-05-03T10:52:34.999Z</time></trkpt><trkpt lat="41.836847323483745" lon="-3.0348375680997592"><ele>1068.4</ele><time>2026-05-03T10:52:35.999Z</time></trkpt><trkpt lat="41.836876339322366" lon="-3.0347038791008663"><ele>1070.2</ele><time>2026-05-03T10:52:36.999Z</time></trkpt><trkpt lat="41.8369041855871" lon="-3.0345680030120064"><ele>1072.0</ele><time>2026-05-03T10:52:37.999Z</time></trkpt><trkpt lat="41.83693194165813" lon="-3.0344312896406516"><ele>1072.0</ele><time>2026-05-03T10:52:39Z</time></trkpt><trkpt lat="41.8369588215205" lon="-3.034293717472659"><ele>1072.0</ele><time>2026-05-03T10:52:40Z</time></trkpt><trkpt lat="41.83698324032468" lon="-3.034155300843548"><ele>1072.0</ele><time>2026-05-03T10:52:41Z</time></trkpt><trkpt lat="41.837013241810205" lon="-3.034018043068949"><ele>1072.0</ele><time>2026-05-03T10:52:42Z</time></trkpt><trkpt lat="41.83704878800791" lon="-3.0338854604447043"><ele>1072.0</ele><time>2026-05-03T10:52:43Z</time></trkpt><trkpt lat="41.837083620089466" lon="-3.033749128074787"><ele>1071.8</ele><time>2026-05-03T10:52:44Z</time></trkpt><trkpt lat="41.83711982456022" lon="-3.0336103308176288"><ele>1071.6</ele><time>2026-05-03T10:52:45Z</time></trkpt><trkpt lat="41.83715745836648" lon="-3.0334804965621474"><ele>1071.3999999999999</ele><time>2026-05-03T10:52:46Z</time></trkpt><trkpt lat="41.837198312743716" lon="-3.0333515883681295"><ele>1071.2</ele><time>2026-05-03T10:52:47Z</time></trkpt><trkpt lat="41.8372509021094" lon="-3.0332293839242435"><ele>1071.0</ele><time>2026-05-03T10:52:48Z</time></trkpt><trkpt lat="41.837298381879975" lon="-3.0330972607675006"><ele>1070.8</ele><time>2026-05-03T10:52:49Z</time></trkpt><trkpt lat="41.83734744768493" lon="-3.032973163685795"><ele>1070.6</ele><time>2026-05-03T10:52:50Z</time></trkpt><trkpt lat="41.837405223270956" lon="-3.0328550602906175"><ele>1070.4</ele><time>2026-05-03T10:52:51Z</time></trkpt><trkpt lat="41.83746167776434" lon="-3.032732882924694"><ele>1070.2</ele><time>2026-05-03T10:52:52Z</time></trkpt><trkpt lat="41.83751921330934" lon="-3.0326086000467556"><ele>1070.0</ele><time>2026-05-03T10:52:53Z</time></trkpt><trkpt lat="41.83757304325715" lon="-3.032482104737467"><ele>1069.8</ele><time>2026-05-03T10:52:54Z</time></trkpt><trkpt lat="41.837630244262776" lon="-3.03235727089585"><ele>1069.6</ele><time>2026-05-03T10:52:55Z</time></trkpt><trkpt lat="41.837688273912285" lon="-3.0322353502917356"><ele>1069.4</ele><time>2026-05-03T10:52:56Z</time></trkpt><trkpt lat="41.837742986530195" lon="-3.03210849434612"><ele>1069.2</ele><time>2026-05-03T10:52:57Z</time></trkpt><trkpt lat="41.83780263248446" lon="-3.031990299959352"><ele>1069.0</ele><time>2026-05-03T10:52:58Z</time></trkpt><trkpt lat="41.837859606717466" lon="-3.031865677885683"><ele>1069.8</ele><time>2026-05-03T10:52:59Z</time></trkpt><trkpt lat="41.837915334636605" lon="-3.0317408155929537"><ele>1070.6000000000001</ele><time>2026-05-03T10:53:00Z</time></trkpt><trkpt lat="41.83797824520934" lon="-3.031623646627736"><ele>1071.4</ele><time>2026-05-03T10:53:01Z</time></trkpt><trkpt lat="41.838039850738966" lon="-3.03150067532549"><ele>1072.2</ele><time>2026-05-03T10:53:02Z</time></trkpt><trkpt lat="41.838104062210476" lon="-3.031385593827112"><ele>1073.0</ele><time>2026-05-03T10:53:03Z</time></trkpt><trkpt lat="41.83816151962964" lon="-3.031260610332274"><ele>1073.2</ele><time>2026-05-03T10:53:04Z</time></trkpt><trkpt lat="41.8382276139817" lon="-3.0311445129392762"><ele>1073.4</ele><time>2026-05-03T10:53:05Z</time></trkpt><trkpt lat="41.83829476237275" lon="-3.0310290771571395"><ele>1073.6000000000001</ele><time>2026-05-03T10:53:06Z</time></trkpt><trkpt lat="41.83836303540027" lon="-3.0309132027799066"><ele>1073.8</ele><time>2026-05-03T10:53:07Z</time></trkpt><trkpt lat="41.838426476008905" lon="-3.0307943660386094"><ele>1074.0</ele><time>2026-05-03T10:53:08Z</time></trkpt><trkpt lat="41.83849380146255" lon="-3.030677237128031"><ele>1074.0</ele><time>2026-05-03T10:53:09Z</time></trkpt><trkpt lat="41.83856062083899" lon="-3.0305619402363466"><ele>1074.0</ele><time>2026-05-03T10:53:10Z</time></trkpt><trkpt lat="41.838624395403514" lon="-3.0304437556615262"><ele>1074.0</ele><time>2026-05-03T10:53:11Z</time></trkpt><trkpt lat="41.83869514849862" lon="-3.0303297589351708"><ele>1074.0</ele><time>2026-05-03T10:53:12Z</time></trkpt><trkpt lat="41.838761432642634" lon="-3.030215204402761"><ele>1074.0</ele><time>2026-05-03T10:53:13Z</time></trkpt><trkpt lat="41.83882679177834" lon="-3.030095284433806"><ele>1073.4</ele><time>2026-05-03T10:53:14Z</time></trkpt><trkpt lat="41.8388901924538" lon="-3.0299747144167646"><ele>1072.8000000000002</ele><time>2026-05-03T10:53:15Z</time></trkpt><trkpt lat="41.838956601067096" lon="-3.0298548979730002"><ele>1072.1999999999998</ele><time>2026-05-03T10:53:16Z</time></trkpt><trkpt lat="41.839022118357036" lon="-3.029734759005852"><ele>1071.6</ele><time>2026-05-03T10:53:17Z</time></trkpt><trkpt lat="41.83908468618757" lon="-3.0296125415821673"><ele>1071.0</ele><time>2026-05-03T10:53:18Z</time></trkpt><trkpt lat="41.839143300690914" lon="-3.0294782831903935"><ele>1071.0</ele><time>2026-05-03T10:53:19Z</time></trkpt><trkpt lat="41.83919047264694" lon="-3.0293543813532704"><ele>1071.0</ele><time>2026-05-03T10:53:20Z</time></trkpt><trkpt lat="41.839244863416" lon="-3.029217650930274"><ele>1071.0</ele><time>2026-05-03T10:53:21Z</time></trkpt><trkpt lat="41.83927419088233" lon="-3.029074027331091"><ele>1071.0</ele><time>2026-05-03T10:53:22Z</time></trkpt><trkpt lat="41.83930848344432" lon="-3.0289389960461244"><ele>1071.0</ele><time>2026-05-03T10:53:23Z</time></trkpt><trkpt lat="41.83933939020072" lon="-3.0288010929572042"><ele>1070.6</ele><time>2026-05-03T10:53:24Z</time></trkpt><trkpt lat="41.83936832503503" lon="-3.028662376752578"><ele>1070.1999999999998</ele><time>2026-05-03T10:53:25Z</time></trkpt><trkpt lat="41.83940344788" lon="-3.028522147404344"><ele>1069.8000000000002</ele><time>2026-05-03T10:53:26Z</time></trkpt><trkpt lat="41.83943441762045" lon="-3.0283807968307435"><ele>1069.4</ele><time>2026-05-03T10:53:27Z</time></trkpt><trkpt lat="41.83946245569102" lon="-3.0282385678069286"><ele>1069.0</ele><time>2026-05-03T10:53:28Z</time></trkpt><trkpt lat="41.839490379692904" lon="-3.0280999189964026"><ele>1069.0</ele><time>2026-05-03T10:53:29.001Z</time></trkpt><trkpt lat="41.839521525951525" lon="-3.0279593104295732"><ele>1069.0</ele><time>2026-05-03T10:53:30.001Z</time></trkpt><trkpt lat="41.83955110964269" lon="-3.027820989197879"><ele>1069.0</ele><time>2026-05-03T10:53:31.001Z</time></trkpt><trkpt lat="41.83958007172085" lon="-3.027682575323322"><ele>1069.0</ele><time>2026-05-03T10:53:32.001Z</time></trkpt><trkpt lat="41.839611661951075" lon="-3.0275427933334034"><ele>1069.0</ele><time>2026-05-03T10:53:33.001Z</time></trkpt><trkpt lat="41.83964065592747" lon="-3.0274017734581875"><ele>1069.0</ele><time>2026-05-03T10:53:34.001Z</time></trkpt><trkpt lat="41.839668386481" lon="-3.0272572392258086"><ele>1069.0</ele><time>2026-05-03T10:53:35.001Z</time></trkpt><trkpt lat="41.839693511032394" lon="-3.0271142777164335"><ele>1069.0</ele><time>2026-05-03T10:53:36.001Z</time></trkpt><trkpt lat="41.839719397271665" lon="-3.0269734281630067"><ele>1069.0</ele><time>2026-05-03T10:53:37.001Z</time></trkpt><trkpt lat="41.839746710537106" lon="-3.0268343841627514"><ele>1069.0</ele><time>2026-05-03T10:53:38.001Z</time></trkpt><trkpt lat="41.83977722820427" lon="-3.026693185553952"><ele>1069.4</ele><time>2026-05-03T10:53:39.001Z</time></trkpt><trkpt lat="41.83980279885253" lon="-3.0265485382922575"><ele>1069.8000000000002</ele><time>2026-05-03T10:53:40.001Z</time></trkpt><trkpt lat="41.83982517536835" lon="-3.0264068899562986"><ele>1070.1999999999998</ele><time>2026-05-03T10:53:41.001Z</time></trkpt><trkpt lat="41.8398546856065" lon="-3.0262651467217063"><ele>1070.6</ele><time>2026-05-03T10:53:42.001Z</time></trkpt><trkpt lat="41.83988376618732" lon="-3.0261304729450162"><ele>1071.0</ele><time>2026-05-03T10:53:43.001Z</time></trkpt><trkpt lat="41.83991548801433" lon="-3.0259898616915524"><ele>1071.0</ele><time>2026-05-03T10:53:44.001Z</time></trkpt><trkpt lat="41.839946630715446" lon="-3.025851121726725"><ele>1071.0</ele><time>2026-05-03T10:53:45.001Z</time></trkpt><trkpt lat="41.83997303137163" lon="-3.0257130423312404"><ele>1071.0</ele><time>2026-05-03T10:53:46.001Z</time></trkpt><trkpt lat="41.839999934349635" lon="-3.0255734491359116"><ele>1071.0</ele><time>2026-05-03T10:53:47.001Z</time></trkpt><trkpt lat="41.8400253450404" lon="-3.025436439831996"><ele>1071.0</ele><time>2026-05-03T10:53:48.001Z</time></trkpt><trkpt lat="41.840050928096396" lon="-3.0252968969948637"><ele>1071.6</ele><time>2026-05-03T10:53:49.001Z</time></trkpt><trkpt lat="41.84007274754455" lon="-3.0251565377685563"><ele>1072.1999999999998</ele><time>2026-05-03T10:53:50.001Z</time></trkpt><trkpt lat="41.840091587437286" lon="-3.025018309364729"><ele>1072.8000000000002</ele><time>2026-05-03T10:53:51.001Z</time></trkpt><trkpt lat="41.8401079236092" lon="-3.0248776750594737"><ele>1073.4</ele><time>2026-05-03T10:53:52.001Z</time></trkpt><trkpt lat="41.84011722919725" lon="-3.024739266395286"><ele>1074.0</ele><time>2026-05-03T10:53:53.001Z</time></trkpt><trkpt lat="41.840121804919335" lon="-3.0246004526855383"><ele>1074.0</ele><time>2026-05-03T10:53:54.001Z</time></trkpt><trkpt lat="41.84012157396489" lon="-3.024461060397337"><ele>1074.0</ele><time>2026-05-03T10:53:55.001Z</time></trkpt><trkpt lat="41.840118811657106" lon="-3.0243237977583535"><ele>1074.0</ele><time>2026-05-03T10:53:56.001Z</time></trkpt><trkpt lat="41.840113739352006" lon="-3.02418911720342"><ele>1074.0</ele><time>2026-05-03T10:53:57.001Z</time></trkpt><trkpt lat="41.84010035800834" lon="-3.024052955527809"><ele>1074.0</ele><time>2026-05-03T10:53:58.001Z</time></trkpt><trkpt lat="41.840082006949295" lon="-3.023921355159695"><ele>1074.0</ele><time>2026-05-03T10:53:59.001Z</time></trkpt><trkpt lat="41.84006586878754" lon="-3.023791868602935"><ele>1074.0</ele><time>2026-05-03T10:54:00.001Z</time></trkpt><trkpt lat="41.84004917183151" lon="-3.02365627774208"><ele>1074.0</ele><time>2026-05-03T10:54:01.001Z</time></trkpt><trkpt lat="41.840031798615186" lon="-3.0235244817817972"><ele>1074.0</ele><time>2026-05-03T10:54:02.001Z</time></trkpt><trkpt lat="41.84001489400561" lon="-3.0233884499794166"><ele>1074.0</ele><time>2026-05-03T10:54:03.001Z</time></trkpt><trkpt lat="41.8399948181586" lon="-3.023254939745255"><ele>1074.0</ele><time>2026-05-03T10:54:04.001Z</time></trkpt><trkpt lat="41.83997989366648" lon="-3.0231147326147516"><ele>1074.0</ele><time>2026-05-03T10:54:05.001Z</time></trkpt><trkpt lat="41.83996373878354" lon="-3.0229792649848988"><ele>1074.0</ele><time>2026-05-03T10:54:06.001Z</time></trkpt><trkpt lat="41.83994425896876" lon="-3.022846519648075"><ele>1074.0</ele><time>2026-05-03T10:54:07.001Z</time></trkpt><trkpt lat="41.839906504651076" lon="-3.0225759368312275"><ele>1073.8</ele><time>2026-05-03T10:54:09.001Z</time></trkpt><trkpt lat="41.83988834327482" lon="-3.0224402713751286"><ele>1073.6000000000001</ele><time>2026-05-03T10:54:10.001Z</time></trkpt><trkpt lat="41.8398708480607" lon="-3.022303610510079"><ele>1073.4</ele><time>2026-05-03T10:54:11.001Z</time></trkpt><trkpt lat="41.8398530041126" lon="-3.0221682090027544"><ele>1073.2</ele><time>2026-05-03T10:54:12.001Z</time></trkpt><trkpt lat="41.839834550516414" lon="-3.022030048676304"><ele>1073.0</ele><time>2026-05-03T10:54:13.001Z</time></trkpt><trkpt lat="41.83982001512635" lon="-3.0218923431254634"><ele>1073.0</ele><time>2026-05-03T10:54:14.001Z</time></trkpt><trkpt lat="41.83980172353924" lon="-3.0217573706951466"><ele>1073.0</ele><time>2026-05-03T10:54:15.001Z</time></trkpt><trkpt lat="41.83978311698704" lon="-3.0216176015300786"><ele>1073.0</ele><time>2026-05-03T10:54:16.001Z</time></trkpt><trkpt lat="41.839765591202315" lon="-3.0214802021152707"><ele>1073.0</ele><time>2026-05-03T10:54:17.001Z</time></trkpt><trkpt lat="41.839745157591445" lon="-3.021342711274376"><ele>1073.0</ele><time>2026-05-03T10:54:18.001Z</time></trkpt><trkpt lat="41.83972721391126" lon="-3.0212062891970066"><ele>1073.6</ele><time>2026-05-03T10:54:19.001Z</time></trkpt><trkpt lat="41.83971114580408" lon="-3.0210666854431243"><ele>1074.1999999999998</ele><time>2026-05-03T10:54:20.001Z</time></trkpt><trkpt lat="41.83969551220708" lon="-3.0209270418626963"><ele>1074.8</ele><time>2026-05-03T10:54:21.001Z</time></trkpt><trkpt lat="41.83967539364505" lon="-3.0207881529063574"><ele>1075.3999999999999</ele><time>2026-05-03T10:54:22.001Z</time></trkpt><trkpt lat="41.83965840138673" lon="-3.020651209541303"><ele>1076.0</ele><time>2026-05-03T10:54:23.001Z</time></trkpt><trkpt lat="41.83963937660873" lon="-3.0205114196234573"><ele>1076.0</ele><time>2026-05-03T10:54:24.001Z</time></trkpt><trkpt lat="41.83961952830643" lon="-3.0203722696298523"><ele>1076.0</ele><time>2026-05-03T10:54:25.001Z</time></trkpt><trkpt lat="41.83960155813774" lon="-3.020232909442703"><ele>1076.0</ele><time>2026-05-03T10:54:26.001Z</time></trkpt><trkpt lat="41.83958111233064" lon="-3.020091990466853"><ele>1076.0</ele><time>2026-05-03T10:54:27.001Z</time></trkpt><trkpt lat="41.83956220959398" lon="-3.019953236276415"><ele>1076.0</ele><time>2026-05-03T10:54:28.001Z</time></trkpt><trkpt lat="41.83954573285972" lon="-3.019815989244987"><ele>1077.0</ele><time>2026-05-03T10:54:29.001Z</time></trkpt><trkpt lat="41.83953114800568" lon="-3.0196769798181076"><ele>1078.0</ele><time>2026-05-03T10:54:30.001Z</time></trkpt><trkpt lat="41.83951382052819" lon="-3.0195402986084137"><ele>1079.0</ele><time>2026-05-03T10:54:31.002Z</time></trkpt><trkpt lat="41.83949274542776" lon="-3.0194033031099736"><ele>1080.0</ele><time>2026-05-03T10:54:32.002Z</time></trkpt><trkpt lat="41.839474518551235" lon="-3.0192657717926927"><ele>1081.0</ele><time>2026-05-03T10:54:33.002Z</time></trkpt><trkpt lat="41.839458850948716" lon="-3.0191278203176837"><ele>1081.2</ele><time>2026-05-03T10:54:34.002Z</time></trkpt><trkpt lat="41.839440988553136" lon="-3.01899000923059"><ele>1081.3999999999999</ele><time>2026-05-03T10:54:34.999Z</time></trkpt><trkpt lat="41.839424058847875" lon="-3.018851874464366"><ele>1081.6</ele><time>2026-05-03T10:54:35.999Z</time></trkpt><trkpt lat="41.839406301043596" lon="-3.018714735321045"><ele>1081.8</ele><time>2026-05-03T10:54:36.999Z</time></trkpt><trkpt lat="41.839386932852015" lon="-3.0185798893143527"><ele>1082.0</ele><time>2026-05-03T10:54:37.999Z</time></trkpt><trkpt lat="41.83936799636028" lon="-3.0184441431265743"><ele>1082.8</ele><time>2026-05-03T10:54:38.999Z</time></trkpt><trkpt lat="41.83934874474517" lon="-3.0183082852395424"><ele>1083.6</ele><time>2026-05-03T10:54:39.999Z</time></trkpt><trkpt lat="41.83932711355699" lon="-3.0181747711883404"><ele>1084.3999999999999</ele><time>2026-05-03T10:54:40.999Z</time></trkpt><trkpt lat="41.8393000866133" lon="-3.0180427437183517"><ele>1085.2</ele><time>2026-05-03T10:54:41.999Z</time></trkpt><trkpt lat="41.839263223717225" lon="-3.017911110037199"><ele>1086.0</ele><time>2026-05-03T10:54:42.999Z</time></trkpt><trkpt lat="41.83921923361171" lon="-3.017780711105139"><ele>1086.0</ele><time>2026-05-03T10:54:43.999Z</time></trkpt><trkpt lat="41.83917547131561" lon="-3.017651108329195"><ele>1086.0</ele><time>2026-05-03T10:54:44.999Z</time></trkpt><trkpt lat="41.83913156322792" lon="-3.0175250170862924"><ele>1086.0</ele><time>2026-05-03T10:54:46Z</time></trkpt><trkpt lat="41.839085787528035" lon="-3.017404852362632"><ele>1086.0</ele><time>2026-05-03T10:54:47Z</time></trkpt><trkpt lat="41.83902941390211" lon="-3.0172922676566105"><ele>1086.0</ele><time>2026-05-03T10:54:48Z</time></trkpt><trkpt lat="41.83896993037425" lon="-3.0171788535638404"><ele>1086.8</ele><time>2026-05-03T10:54:49Z</time></trkpt><trkpt lat="41.83891332757482" lon="-3.017069132792467"><ele>1087.6</ele><time>2026-05-03T10:54:50Z</time></trkpt><trkpt lat="41.83885573937417" lon="-3.0169595810788556"><ele>1088.4</ele><time>2026-05-03T10:54:51Z</time></trkpt><trkpt lat="41.83879989674715" lon="-3.016849858841357"><ele>1089.2</ele><time>2026-05-03T10:54:52Z</time></trkpt><trkpt lat="41.83874297978283" lon="-3.0167418232196965"><ele>1090.0</ele><time>2026-05-03T10:54:53Z</time></trkpt><trkpt lat="41.83868415235405" lon="-3.0166360678746176"><ele>1089.0</ele><time>2026-05-03T10:54:54Z</time></trkpt><trkpt lat="41.838611342318316" lon="-3.016546771841454"><ele>1088.0</ele><time>2026-05-03T10:54:55Z</time></trkpt><trkpt lat="41.83856750060764" lon="-3.0164304641146273"><ele>1087.0</ele><time>2026-05-03T10:54:56Z</time></trkpt><trkpt lat="41.8384970327473" lon="-3.0163396286008792"><ele>1086.0</ele><time>2026-05-03T10:54:57Z</time></trkpt><trkpt lat="41.83845221004935" lon="-3.0162239924956635"><ele>1085.0</ele><time>2026-05-03T10:54:58Z</time></trkpt><trkpt lat="41.8383892932522" lon="-3.016121619686167"><ele>1085.0</ele><time>2026-05-03T10:54:59Z</time></trkpt><trkpt lat="41.838330429625344" lon="-3.0160160298415137"><ele>1085.0</ele><time>2026-05-03T10:55:00Z</time></trkpt><trkpt lat="41.838275617975754" lon="-3.015908547683976"><ele>1085.0</ele><time>2026-05-03T10:55:01Z</time></trkpt><trkpt lat="41.83821577187902" lon="-3.015804045185976"><ele>1085.0</ele><time>2026-05-03T10:55:02Z</time></trkpt><trkpt lat="41.838156551389936" lon="-3.0156979931517283"><ele>1085.0</ele><time>2026-05-03T10:55:03Z</time></trkpt><trkpt lat="41.838100869939254" lon="-3.0155914004302318"><ele>1086.6</ele><time>2026-05-03T10:55:04Z</time></trkpt><trkpt lat="41.83803193325972" lon="-3.01549244281682"><ele>1088.2</ele><time>2026-05-03T10:55:05Z</time></trkpt><trkpt lat="41.83797793292037" lon="-3.015377738493906"><ele>1089.8</ele><time>2026-05-03T10:55:06Z</time></trkpt><trkpt lat="41.837929105487916" lon="-3.0152585518415105"><ele>1091.4</ele><time>2026-05-03T10:55:07Z</time></trkpt><trkpt lat="41.837885204967044" lon="-3.0151358702660094"><ele>1093.0</ele><time>2026-05-03T10:55:08Z</time></trkpt><trkpt lat="41.83786279394354" lon="-3.014998515310721"><ele>1093.2</ele><time>2026-05-03T10:55:09Z</time></trkpt><trkpt lat="41.837830812561776" lon="-3.0148703921816753"><ele>1093.4</ele><time>2026-05-03T10:55:10Z</time></trkpt><trkpt lat="41.837802059863954" lon="-3.0147378751397893"><ele>1093.6000000000001</ele><time>2026-05-03T10:55:11Z</time></trkpt><trkpt lat="41.83777254440219" lon="-3.0146057082829603"><ele>1093.8</ele><time>2026-05-03T10:55:12Z</time></trkpt><trkpt lat="41.837745930364186" lon="-3.014466694946727"><ele>1094.0</ele><time>2026-05-03T10:55:13Z</time></trkpt><trkpt lat="41.83772271242862" lon="-3.014325211635054"><ele>1094.0</ele><time>2026-05-03T10:55:14Z</time></trkpt><trkpt lat="41.83769809579533" lon="-3.014183017852782"><ele>1094.0</ele><time>2026-05-03T10:55:15Z</time></trkpt><trkpt lat="41.83767426012933" lon="-3.0140435117058537"><ele>1094.0</ele><time>2026-05-03T10:55:16Z</time></trkpt><trkpt lat="41.837654972193306" lon="-3.01390577184212"><ele>1094.0</ele><time>2026-05-03T10:55:17Z</time></trkpt><trkpt lat="41.83763552436462" lon="-3.013767407860056"><ele>1094.0</ele><time>2026-05-03T10:55:18Z</time></trkpt><trkpt lat="41.83761589966792" lon="-3.013629246181185"><ele>1092.8</ele><time>2026-05-03T10:55:19Z</time></trkpt><trkpt lat="41.837595964803974" lon="-3.013493697232426"><ele>1091.6000000000001</ele><time>2026-05-03T10:55:20Z</time></trkpt><trkpt lat="41.83757545167887" lon="-3.0133581152651696"><ele>1090.4</ele><time>2026-05-03T10:55:21Z</time></trkpt><trkpt lat="41.8375562224502" lon="-3.013222525467917"><ele>1089.2</ele><time>2026-05-03T10:55:22Z</time></trkpt><trkpt lat="41.83753714944335" lon="-3.0130872917788105"><ele>1088.0</ele><time>2026-05-03T10:55:23Z</time></trkpt><trkpt lat="41.837517492301245" lon="-3.0129495317115764"><ele>1088.0</ele><time>2026-05-03T10:55:24Z</time></trkpt><trkpt lat="41.83749737481231" lon="-3.0128107419317547"><ele>1088.0</ele><time>2026-05-03T10:55:25Z</time></trkpt><trkpt lat="41.8374773359335" lon="-3.012673651482897"><ele>1088.0</ele><time>2026-05-03T10:55:26Z</time></trkpt><trkpt lat="41.83745685932966" lon="-3.0125364253877875"><ele>1088.0</ele><time>2026-05-03T10:55:27Z</time></trkpt><trkpt lat="41.837438117667595" lon="-3.0123998944484995"><ele>1088.0</ele><time>2026-05-03T10:55:28Z</time></trkpt><trkpt lat="41.837421729373425" lon="-3.0122635923070504"><ele>1088.6</ele><time>2026-05-03T10:55:29.001Z</time></trkpt><trkpt lat="41.83740580505677" lon="-3.0121279993309606"><ele>1089.1999999999998</ele><time>2026-05-03T10:55:30.001Z</time></trkpt><trkpt lat="41.837373562255095" lon="-3.0119942120732976"><ele>1089.8</ele><time>2026-05-03T10:55:31.001Z</time></trkpt><trkpt lat="41.837371769036615" lon="-3.0118547430452915"><ele>1090.3999999999999</ele><time>2026-05-03T10:55:32.001Z</time></trkpt><trkpt lat="41.83735587061801" lon="-3.011714436108401"><ele>1091.0</ele><time>2026-05-03T10:55:33.001Z</time></trkpt><trkpt lat="41.837341545053214" lon="-3.0115851218674083"><ele>1091.0</ele><time>2026-05-03T10:55:34.001Z</time></trkpt><trkpt lat="41.837312852333454" lon="-3.011468438995675"><ele>1091.0</ele><time>2026-05-03T10:55:35.001Z</time></trkpt><trkpt lat="41.8373001369699" lon="-3.0113531078289415"><ele>1091.0</ele><time>2026-05-03T10:55:36.001Z</time></trkpt><trkpt lat="41.837287042572754" lon="-3.0112343387452656"><ele>1091.0</ele><time>2026-05-03T10:55:37.001Z</time></trkpt><trkpt lat="41.837273916985374" lon="-3.0111152867620152"><ele>1091.0</ele><time>2026-05-03T10:55:38.001Z</time></trkpt><trkpt lat="41.83727684322904" lon="-3.0109899073225144"><ele>1091.0</ele><time>2026-05-03T10:55:39.001Z</time></trkpt><trkpt lat="41.83726313197942" lon="-3.0108767173591717"><ele>1091.0</ele><time>2026-05-03T10:55:40.001Z</time></trkpt><trkpt lat="41.83725174488536" lon="-3.0107729658739206"><ele>1091.0</ele><time>2026-05-03T10:55:41.001Z</time></trkpt><trkpt lat="41.83724111028168" lon="-3.0106754475714856"><ele>1091.0</ele><time>2026-05-03T10:55:42.001Z</time></trkpt><trkpt lat="41.837230844793446" lon="-3.010584297785051"><ele>1091.0</ele><time>2026-05-03T10:55:43.001Z</time></trkpt><trkpt lat="41.83721269755904" lon="-3.0104293828284714"><ele>1091.0</ele><time>2026-05-03T10:55:45.001Z</time></trkpt><trkpt lat="41.83719841304352" lon="-3.010302446576954"><ele>1091.4285714285713</ele><time>2026-05-03T10:55:47.001Z</time></trkpt><trkpt lat="41.83719090306012" lon="-3.010199125500278"><ele>1091.857142857143</ele><time>2026-05-03T10:55:49.001Z</time></trkpt><trkpt lat="41.837181051358975" lon="-3.010114799759724"><ele>1092.2857142857142</ele><time>2026-05-03T10:55:51.001Z</time></trkpt><trkpt lat="41.837152696080025" lon="-3.010006423283664"><ele>1092.7142857142858</ele><time>2026-05-03T10:55:54.001Z</time></trkpt><trkpt lat="41.837141702548074" lon="-3.0099038836020258"><ele>1093.142857142857</ele><time>2026-05-03T10:55:58.001Z</time></trkpt><trkpt lat="41.83714866082342" lon="-3.0098144422709927"><ele>1093.5714285714284</ele><time>2026-05-03T10:56:23.001Z</time></trkpt><trkpt lat="41.83712223106382" lon="-3.00972831014462"><ele>1094.0</ele><time>2026-05-03T10:56:25.002Z</time></trkpt><trkpt lat="41.83712011607844" lon="-3.00959258308696"><ele>1094.5</ele><time>2026-05-03T10:56:27.002Z</time></trkpt><trkpt lat="41.83709648058088" lon="-3.009431299908265"><ele>1095.0</ele><time>2026-05-03T10:56:29.002Z</time></trkpt><trkpt lat="41.837087523098376" lon="-3.0093423238003036"><ele>1095.5</ele><time>2026-05-03T10:56:30.002Z</time></trkpt><trkpt lat="41.83707877391313" lon="-3.0092476228109866"><ele>1096.0</ele><time>2026-05-03T10:56:31.002Z</time></trkpt><trkpt lat="41.83707095706248" lon="-3.00915100374354"><ele>1096.5</ele><time>2026-05-03T10:56:32.002Z</time></trkpt><trkpt lat="41.83705843417959" lon="-3.0090510759242997"><ele>1097.0</ele><time>2026-05-03T10:56:33.002Z</time></trkpt><trkpt lat="41.83704561953855" lon="-3.008948904851428"><ele>1097.6666666666667</ele><time>2026-05-03T10:56:34.002Z</time></trkpt><trkpt lat="41.837034587390384" lon="-3.0088442281739214"><ele>1098.3333333333335</ele><time>2026-05-03T10:56:35.002Z</time></trkpt><trkpt lat="41.837023194619725" lon="-3.008736638535769"><ele>1099.0</ele><time>2026-05-03T10:56:36.002Z</time></trkpt><trkpt lat="41.837012213935694" lon="-3.0086301864385274"><ele>1099.6666666666667</ele><time>2026-05-03T10:56:37.002Z</time></trkpt><trkpt lat="41.83700017944638" lon="-3.008520921526968"><ele>1100.3333333333333</ele><time>2026-05-03T10:56:38.002Z</time></trkpt><trkpt lat="41.83698799644237" lon="-3.0084095462073663"><ele>1101.0</ele><time>2026-05-03T10:56:39.002Z</time></trkpt><trkpt lat="41.83697732617388" lon="-3.00829517676845"><ele>1101.8333333333333</ele><time>2026-05-03T10:56:40.002Z</time></trkpt><trkpt lat="41.83696505293442" lon="-3.008180965029941"><ele>1102.6666666666667</ele><time>2026-05-03T10:56:41Z</time></trkpt><trkpt lat="41.836951318088616" lon="-3.008066575477534"><ele>1103.5</ele><time>2026-05-03T10:56:42Z</time></trkpt><trkpt lat="41.83693809321381" lon="-3.007950067365982"><ele>1104.3333333333335</ele><time>2026-05-03T10:56:43Z</time></trkpt><trkpt lat="41.83692576638987" lon="-3.007833875107487"><ele>1105.1666666666667</ele><time>2026-05-03T10:56:44Z</time></trkpt><trkpt lat="41.83691592786621" lon="-3.0077189952110603"><ele>1106.0</ele><time>2026-05-03T10:56:45Z</time></trkpt><trkpt lat="41.836902775106665" lon="-3.007603322500429"><ele>1105.6666666666667</ele><time>2026-05-03T10:56:46Z</time></trkpt><trkpt lat="41.83689090414949" lon="-3.0074875337905578"><ele>1105.3333333333335</ele><time>2026-05-03T10:56:47Z</time></trkpt><trkpt lat="41.83687849489084" lon="-3.007370333663709"><ele>1105.0</ele><time>2026-05-03T10:56:48Z</time></trkpt><trkpt lat="41.83686926104742" lon="-3.007252619258895"><ele>1104.6666666666667</ele><time>2026-05-03T10:56:49Z</time></trkpt><trkpt lat="41.83685869280529" lon="-3.0071337333143835"><ele>1104.3333333333333</ele><time>2026-05-03T10:56:50Z</time></trkpt><trkpt lat="41.83684640867614" lon="-3.0070141623512048"><ele>1104.0</ele><time>2026-05-03T10:56:51Z</time></trkpt><trkpt lat="41.836834611604466" lon="-3.006892143124188"><ele>1104.0</ele><time>2026-05-03T10:56:52Z</time></trkpt><trkpt lat="41.836823147738784" lon="-3.0067694575645674"><ele>1104.0</ele><time>2026-05-03T10:56:53Z</time></trkpt><trkpt lat="41.8368099863028" lon="-3.0066481834851886"><ele>1104.0</ele><time>2026-05-03T10:56:54Z</time></trkpt><trkpt lat="41.83679542970754" lon="-3.006524078467422"><ele>1104.0</ele><time>2026-05-03T10:56:55Z</time></trkpt><trkpt lat="41.83678099440418" lon="-3.006399870480409"><ele>1104.0</ele><time>2026-05-03T10:56:56Z</time></trkpt><trkpt lat="41.83674958301089" lon="-3.006277529640879"><ele>1103.0</ele><time>2026-05-03T10:56:57Z</time></trkpt><trkpt lat="41.836732623124625" lon="-3.0061506312235244"><ele>1102.0</ele><time>2026-05-03T10:56:58Z</time></trkpt><trkpt lat="41.83671357570832" lon="-3.006023860083941"><ele>1101.0</ele><time>2026-05-03T10:56:59Z</time></trkpt><trkpt lat="41.836691194284214" lon="-3.0058954606524138"><ele>1100.0</ele><time>2026-05-03T10:57:00Z</time></trkpt><trkpt lat="41.836668431804796" lon="-3.005770764165526"><ele>1099.0</ele><time>2026-05-03T10:57:01Z</time></trkpt><trkpt lat="41.83664365122508" lon="-3.005641440518498"><ele>1098.6000000000001</ele><time>2026-05-03T10:57:02Z</time></trkpt><trkpt lat="41.8366336251537" lon="-3.005504555450091"><ele>1098.2</ele><time>2026-05-03T10:57:03Z</time></trkpt><trkpt lat="41.83660712945652" lon="-3.0053715290054135"><ele>1097.8000000000002</ele><time>2026-05-03T10:57:04Z</time></trkpt><trkpt lat="41.83657827864127" lon="-3.005238624827077"><ele>1097.4</ele><time>2026-05-03T10:57:05Z</time></trkpt><trkpt lat="41.836536525045815" lon="-3.005109358323707"><ele>1097.0</ele><time>2026-05-03T10:57:06Z</time></trkpt><trkpt lat="41.83650979917793" lon="-3.0049790834225654"><ele>1098.0</ele><time>2026-05-03T10:57:07Z</time></trkpt><trkpt lat="41.8364835835807" lon="-3.0048512958085394"><ele>1099.0</ele><time>2026-05-03T10:57:08Z</time></trkpt><trkpt lat="41.83645843716164" lon="-3.0047255557415853"><ele>1100.0</ele><time>2026-05-03T10:57:09Z</time></trkpt><trkpt lat="41.836431953403064" lon="-3.0045975292646188"><ele>1101.0</ele><time>2026-05-03T10:57:10Z</time></trkpt><trkpt lat="41.836405088026844" lon="-3.004466694415451"><ele>1102.0</ele><time>2026-05-03T10:57:11Z</time></trkpt><trkpt lat="41.83637827628262" lon="-3.0043361207558013"><ele>1102.0</ele><time>2026-05-03T10:57:12Z</time></trkpt><trkpt lat="41.83635132380871" lon="-3.0042048617401713"><ele>1102.0</ele><time>2026-05-03T10:57:13Z</time></trkpt><trkpt lat="41.83632450538038" lon="-3.0040742555299453"><ele>1102.0</ele><time>2026-05-03T10:57:14Z</time></trkpt><trkpt lat="41.836297332549094" lon="-3.003941923374756"><ele>1102.0</ele><time>2026-05-03T10:57:15Z</time></trkpt><trkpt lat="41.83627010907477" lon="-3.0038093445862515"><ele>1102.0</ele><time>2026-05-03T10:57:16Z</time></trkpt><trkpt lat="41.83625848466499" lon="-3.00366968417588"><ele>1100.6</ele><time>2026-05-03T10:57:17Z</time></trkpt><trkpt lat="41.83622991958811" lon="-3.0035349605765598"><ele>1099.2</ele><time>2026-05-03T10:57:18Z</time></trkpt><trkpt lat="41.83620129579176" lon="-3.003401217217398"><ele>1097.8</ele><time>2026-05-03T10:57:19Z</time></trkpt><trkpt lat="41.83616805357239" lon="-3.0032667188893405"><ele>1096.4</ele><time>2026-05-03T10:57:20Z</time></trkpt><trkpt lat="41.83614211691535" lon="-3.003131013144044"><ele>1095.0</ele><time>2026-05-03T10:57:21.001Z</time></trkpt><trkpt lat="41.83611503564759" lon="-3.0029919653974253"><ele>1094.6</ele><time>2026-05-03T10:57:22.001Z</time></trkpt><trkpt lat="41.83608587227221" lon="-3.002854266421692"><ele>1094.2</ele><time>2026-05-03T10:57:23.001Z</time></trkpt><trkpt lat="41.836053956791055" lon="-3.0027138789451886"><ele>1093.8</ele><time>2026-05-03T10:57:24.001Z</time></trkpt><trkpt lat="41.836024131948825" lon="-3.0025779009803037"><ele>1093.4</ele><time>2026-05-03T10:57:25.001Z</time></trkpt><trkpt lat="41.83599657536212" lon="-3.0024401100029032"><ele>1093.0</ele><time>2026-05-03T10:57:26.001Z</time></trkpt><trkpt lat="41.83596938273775" lon="-3.0023023028632547"><ele>1094.0</ele><time>2026-05-03T10:57:27.001Z</time></trkpt><trkpt lat="41.8359416268683" lon="-3.0021668669833366"><ele>1095.0</ele><time>2026-05-03T10:57:28.001Z</time></trkpt><trkpt lat="41.835912429057764" lon="-3.00203007143423"><ele>1096.0</ele><time>2026-05-03T10:57:29.001Z</time></trkpt><trkpt lat="41.83588328064958" lon="-3.0018970743392086"><ele>1097.0</ele><time>2026-05-03T10:57:30.001Z</time></trkpt><trkpt lat="41.835857050547155" lon="-3.001766033588551"><ele>1098.0</ele><time>2026-05-03T10:57:31.001Z</time></trkpt><trkpt lat="41.83582841092339" lon="-3.001635934559479"><ele>1099.4</ele><time>2026-05-03T10:57:32.001Z</time></trkpt><trkpt lat="41.835798280428044" lon="-3.0015061605670357"><ele>1100.8</ele><time>2026-05-03T10:57:33.001Z</time></trkpt><trkpt lat="41.835769286314196" lon="-3.001378345105598"><ele>1102.2</ele><time>2026-05-03T10:57:34.001Z</time></trkpt><trkpt lat="41.83573335251746" lon="-3.001248453674384"><ele>1103.6</ele><time>2026-05-03T10:57:35.001Z</time></trkpt><trkpt lat="41.83569302628105" lon="-3.00112383520226"><ele>1105.0</ele><time>2026-05-03T10:57:36.001Z</time></trkpt><trkpt lat="41.835646531524176" lon="-3.001000850105747"><ele>1105.0</ele><time>2026-05-03T10:57:37.001Z</time></trkpt><trkpt lat="41.83559455908363" lon="-3.000881130270921"><ele>1105.0</ele><time>2026-05-03T10:57:38.001Z</time></trkpt><trkpt lat="41.83553648112509" lon="-3.000768392089832"><ele>1105.0</ele><time>2026-05-03T10:57:39.001Z</time></trkpt><trkpt lat="41.835476185145545" lon="-3.00066035035707"><ele>1105.0</ele><time>2026-05-03T10:57:40.001Z</time></trkpt><trkpt lat="41.83541292896937" lon="-3.000558375001252"><ele>1105.0</ele><time>2026-05-03T10:57:41.001Z</time></trkpt><trkpt lat="41.83534681969494" lon="-3.000456902335663"><ele>1105.4</ele><time>2026-05-03T10:57:42.001Z</time></trkpt><trkpt lat="41.835278371205035" lon="-3.0003613738778983"><ele>1105.8</ele><time>2026-05-03T10:57:43.001Z</time></trkpt><trkpt lat="41.83520733773768" lon="-3.0002652709108095"><ele>1106.2</ele><time>2026-05-03T10:57:44.001Z</time></trkpt><trkpt lat="41.83513556313739" lon="-3.0001708719126228"><ele>1106.6</ele><time>2026-05-03T10:57:45.001Z</time></trkpt><trkpt lat="41.835064340945515" lon="-3.000074894841297"><ele>1107.0</ele><time>2026-05-03T10:57:46.001Z</time></trkpt><trkpt lat="41.83499165304291" lon="-2.99998171875868"><ele>1107.0</ele><time>2026-05-03T10:57:47.001Z</time></trkpt><trkpt lat="41.834917731262685" lon="-2.9998885325268407"><ele>1107.0</ele><time>2026-05-03T10:57:48.001Z</time></trkpt><trkpt lat="41.834844831977456" lon="-2.999792938637036"><ele>1107.0</ele><time>2026-05-03T10:57:49.001Z</time></trkpt><trkpt lat="41.83477303710824" lon="-2.9996942305465337"><ele>1107.0</ele><time>2026-05-03T10:57:50.001Z</time></trkpt><trkpt lat="41.834704731988325" lon="-2.999594092441541"><ele>1107.0</ele><time>2026-05-03T10:57:51.001Z</time></trkpt><trkpt lat="41.834640851806455" lon="-2.9994909060305455"><ele>1107.0</ele><time>2026-05-03T10:57:52.001Z</time></trkpt><trkpt lat="41.834575286526075" lon="-2.999386597447642"><ele>1107.0</ele><time>2026-05-03T10:57:53.001Z</time></trkpt><trkpt lat="41.8345103779653" lon="-2.9992766145970777"><ele>1107.0</ele><time>2026-05-03T10:57:54.001Z</time></trkpt><trkpt lat="41.83445133173554" lon="-2.999163624647662"><ele>1107.0</ele><time>2026-05-03T10:57:55.001Z</time></trkpt><trkpt lat="41.83439619250205" lon="-2.999047067980904"><ele>1107.0</ele><time>2026-05-03T10:57:56.001Z</time></trkpt><trkpt lat="41.8343407640321" lon="-2.9989305744738988"><ele>1107.2</ele><time>2026-05-03T10:57:57.001Z</time></trkpt><trkpt lat="41.83428627622551" lon="-2.9988113133661125"><ele>1107.4</ele><time>2026-05-03T10:57:58.001Z</time></trkpt><trkpt lat="41.83423552991031" lon="-2.9986891235596325"><ele>1107.6</ele><time>2026-05-03T10:57:59.001Z</time></trkpt><trkpt lat="41.83418225571242" lon="-2.998570293834598"><ele>1107.8</ele><time>2026-05-03T10:58:00.001Z</time></trkpt><trkpt lat="41.83412950808822" lon="-2.998448899746295"><ele>1108.0</ele><time>2026-05-03T10:58:01.001Z</time></trkpt><trkpt lat="41.83408252421593" lon="-2.9983261379822634"><ele>1108.0</ele><time>2026-05-03T10:58:02.001Z</time></trkpt><trkpt lat="41.834029365464794" lon="-2.998202445946323"><ele>1108.0</ele><time>2026-05-03T10:58:03.001Z</time></trkpt><trkpt lat="41.833978446635385" lon="-2.9980796053256924"><ele>1108.0</ele><time>2026-05-03T10:58:04.001Z</time></trkpt><trkpt lat="41.833925589758884" lon="-2.9979566498383416"><ele>1108.0</ele><time>2026-05-03T10:58:05.001Z</time></trkpt><trkpt lat="41.83387839987842" lon="-2.997833403213747"><ele>1108.0</ele><time>2026-05-03T10:58:06.001Z</time></trkpt><trkpt lat="41.83383010481239" lon="-2.997708898292177"><ele>1108.0</ele><time>2026-05-03T10:58:07.001Z</time></trkpt><trkpt lat="41.833784756244675" lon="-2.9975835140510982"><ele>1108.0</ele><time>2026-05-03T10:58:08.001Z</time></trkpt><trkpt lat="41.833739812030565" lon="-2.9974587096834604"><ele>1108.0</ele><time>2026-05-03T10:58:09.001Z</time></trkpt><trkpt lat="41.83370128657098" lon="-2.997330081856052"><ele>1108.0</ele><time>2026-05-03T10:58:10.001Z</time></trkpt><trkpt lat="41.83366363538761" lon="-2.9972009476461765"><ele>1108.0</ele><time>2026-05-03T10:58:11.001Z</time></trkpt><trkpt lat="41.83362656637929" lon="-2.997069112312748"><ele>1108.8</ele><time>2026-05-03T10:58:12.001Z</time></trkpt><trkpt lat="41.833592312897" lon="-2.996937191471639"><ele>1109.6</ele><time>2026-05-03T10:58:13.001Z</time></trkpt><trkpt lat="41.833560374800946" lon="-2.9968032184650477"><ele>1110.4</ele><time>2026-05-03T10:58:14.001Z</time></trkpt><trkpt lat="41.83352740525887" lon="-2.9966704612870423"><ele>1111.2</ele><time>2026-05-03T10:58:15.001Z</time></trkpt><trkpt lat="41.83349517507782" lon="-2.996534865116098"><ele>1112.0</ele><time>2026-05-03T10:58:16.001Z</time></trkpt><trkpt lat="41.833465682129656" lon="-2.996402661399411"><ele>1112.0</ele><time>2026-05-03T10:58:17.002Z</time></trkpt><trkpt lat="41.833440945186396" lon="-2.996269332615574"><ele>1112.0</ele><time>2026-05-03T10:58:18.002Z</time></trkpt><trkpt lat="41.83341754330994" lon="-2.9961355003491867"><ele>1112.0</ele><time>2026-05-03T10:58:19.002Z</time></trkpt><trkpt lat="41.83339329196769" lon="-2.995999405793994"><ele>1112.0</ele><time>2026-05-03T10:58:20.002Z</time></trkpt><trkpt lat="41.83336892597845" lon="-2.9958676045302073"><ele>1112.0</ele><time>2026-05-03T10:58:21.002Z</time></trkpt><trkpt lat="41.83334784118323" lon="-2.9957381635530744"><ele>1111.8</ele><time>2026-05-03T10:58:22.002Z</time></trkpt><trkpt lat="41.83332786378943" lon="-2.995607633138553"><ele>1111.6</ele><time>2026-05-03T10:58:23.002Z</time></trkpt><trkpt lat="41.83331041720464" lon="-2.9954727328047857"><ele>1111.3999999999999</ele><time>2026-05-03T10:58:24.002Z</time></trkpt><trkpt lat="41.833296870350196" lon="-2.995338432209045"><ele>1111.2</ele><time>2026-05-03T10:58:25.002Z</time></trkpt><trkpt lat="41.83328657868358" lon="-2.995203026623338"><ele>1111.0</ele><time>2026-05-03T10:58:26.002Z</time></trkpt><trkpt lat="41.83328114228881" lon="-2.995066851419773"><ele>1112.6</ele><time>2026-05-03T10:58:27.002Z</time></trkpt><trkpt lat="41.83327930638352" lon="-2.994930426550852"><ele>1114.1999999999998</ele><time>2026-05-03T10:58:28.002Z</time></trkpt><trkpt lat="41.83327802963096" lon="-2.994792400551612"><ele>1115.8000000000002</ele><time>2026-05-03T10:58:29.002Z</time></trkpt><trkpt lat="41.833279141064644" lon="-2.9946544887582407"><ele>1117.4</ele><time>2026-05-03T10:58:30.002Z</time></trkpt><trkpt lat="41.83328130616259" lon="-2.9945166492664894"><ele>1119.0</ele><time>2026-05-03T10:58:31.002Z</time></trkpt><trkpt lat="41.833286914686745" lon="-2.9943791376460576"><ele>1119.0</ele><time>2026-05-03T10:58:32.002Z</time></trkpt><trkpt lat="41.83329187061075" lon="-2.9942355558886646"><ele>1119.0</ele><time>2026-05-03T10:58:33.002Z</time></trkpt><trkpt lat="41.833293966315324" lon="-2.9940977894754943"><ele>1119.0</ele><time>2026-05-03T10:58:34.002Z</time></trkpt><trkpt lat="41.83329428805292" lon="-2.9939599523083054"><ele>1119.0</ele><time>2026-05-03T10:58:35.002Z</time></trkpt><trkpt lat="41.833287375992086" lon="-2.993821712263994"><ele>1119.0</ele><time>2026-05-03T10:58:36.002Z</time></trkpt><trkpt lat="41.83327650471819" lon="-2.993682229976958"><ele>1118.8</ele><time>2026-05-03T10:58:37.002Z</time></trkpt><trkpt lat="41.833260067532535" lon="-2.993542125541009"><ele>1118.6000000000001</ele><time>2026-05-03T10:58:38.002Z</time></trkpt><trkpt lat="41.833235492200046" lon="-2.99340477537626"><ele>1118.4</ele><time>2026-05-03T10:58:39.002Z</time></trkpt><trkpt lat="41.833207675178656" lon="-2.9932718225579658"><ele>1118.2</ele><time>2026-05-03T10:58:40.002Z</time></trkpt><trkpt lat="41.83317793991621" lon="-2.9931450556676547"><ele>1118.0</ele><time>2026-05-03T10:58:41.002Z</time></trkpt><trkpt lat="41.833141666495074" lon="-2.99302221221303"><ele>1118.0</ele><time>2026-05-03T10:58:42.002Z</time></trkpt><trkpt lat="41.83310526491988" lon="-2.9929073687837437"><ele>1118.0</ele><time>2026-05-03T10:58:43.002Z</time></trkpt><trkpt lat="41.833062701325474" lon="-2.9927943178164575"><ele>1118.0</ele><time>2026-05-03T10:58:44.002Z</time></trkpt><trkpt lat="41.833017654603196" lon="-2.992685699202447"><ele>1118.0</ele><time>2026-05-03T10:58:45.002Z</time></trkpt><trkpt lat="41.83296982617384" lon="-2.99257672976543"><ele>1118.0</ele><time>2026-05-03T10:58:46.002Z</time></trkpt><trkpt lat="41.8329207763468" lon="-2.992472793659439"><ele>1117.5</ele><time>2026-05-03T10:58:47.001Z</time></trkpt><trkpt lat="41.83287053823773" lon="-2.992371315269688"><ele>1117.0</ele><time>2026-05-03T10:58:48.001Z</time></trkpt><trkpt lat="41.83281957240077" lon="-2.9922727786933154"><ele>1116.5</ele><time>2026-05-03T10:58:49.001Z</time></trkpt><trkpt lat="41.83277033935438" lon="-2.9921733166692124"><ele>1116.0</ele><time>2026-05-03T10:58:50.001Z</time></trkpt><trkpt lat="41.83272309129477" lon="-2.9920741657791505"><ele>1115.5</ele><time>2026-05-03T10:58:51.001Z</time></trkpt><trkpt lat="41.83267745837608" lon="-2.9919762249931345"><ele>1115.0</ele><time>2026-05-03T10:58:52.001Z</time></trkpt><trkpt lat="41.83263214951657" lon="-2.9918788194077495"><ele>1115.0</ele><time>2026-05-03T10:58:53.001Z</time></trkpt><trkpt lat="41.83258937889822" lon="-2.9917818392949145"><ele>1115.0</ele><time>2026-05-03T10:58:54.001Z</time></trkpt><trkpt lat="41.83254711865782" lon="-2.9916832855388495"><ele>1115.0</ele><time>2026-05-03T10:58:55.001Z</time></trkpt><trkpt lat="41.832509155658755" lon="-2.9915808028450943"><ele>1115.0</ele><time>2026-05-03T10:58:56.001Z</time></trkpt><trkpt lat="41.83247406742379" lon="-2.991475681998377"><ele>1115.0</ele><time>2026-05-03T10:58:57.001Z</time></trkpt><trkpt lat="41.832437040677135" lon="-2.991372505989757"><ele>1115.0</ele><time>2026-05-03T10:58:58.001Z</time></trkpt><trkpt lat="41.832402224948225" lon="-2.9912683491825023"><ele>1115.6666666666667</ele><time>2026-05-03T10:58:59.001Z</time></trkpt><trkpt lat="41.8323624878427" lon="-2.991164421420919"><ele>1116.3333333333335</ele><time>2026-05-03T10:59:00.001Z</time></trkpt><trkpt lat="41.83232869693926" lon="-2.991057289033534"><ele>1117.0</ele><time>2026-05-03T10:59:01.001Z</time></trkpt><trkpt lat="41.8322948500949" lon="-2.990949207270664"><ele>1117.6666666666667</ele><time>2026-05-03T10:59:02.001Z</time></trkpt><trkpt lat="41.83226097667442" lon="-2.990840076122333"><ele>1118.3333333333333</ele><time>2026-05-03T10:59:03.001Z</time></trkpt><trkpt lat="41.832226387129936" lon="-2.990730521140103"><ele>1119.0</ele><time>2026-05-03T10:59:04.001Z</time></trkpt><trkpt lat="41.8321914209476" lon="-2.9906194710509464"><ele>1120.8333333333333</ele><time>2026-05-03T10:59:05.001Z</time></trkpt><trkpt lat="41.832154485121805" lon="-2.9905083851414815"><ele>1122.6666666666667</ele><time>2026-05-03T10:59:06.001Z</time></trkpt><trkpt lat="41.8321211945735" lon="-2.9903979870209794"><ele>1124.5</ele><time>2026-05-03T10:59:07.001Z</time></trkpt><trkpt lat="41.83209129233111" lon="-2.9902880758584502"><ele>1126.3333333333335</ele><time>2026-05-03T10:59:08.001Z</time></trkpt><trkpt lat="41.832063218207104" lon="-2.9901763991457844"><ele>1128.1666666666667</ele><time>2026-05-03T10:59:09.001Z</time></trkpt><trkpt lat="41.832035634659" lon="-2.990061889471598"><ele>1130.0</ele><time>2026-05-03T10:59:10.001Z</time></trkpt><trkpt lat="41.832012832203134" lon="-2.9899479199127694"><ele>1131.0</ele><time>2026-05-03T10:59:11.001Z</time></trkpt><trkpt lat="41.8319934733356" lon="-2.989833731725766"><ele>1132.0</ele><time>2026-05-03T10:59:12.001Z</time></trkpt><trkpt lat="41.83197542427584" lon="-2.989717450088373"><ele>1133.0</ele><time>2026-05-03T10:59:13.001Z</time></trkpt><trkpt lat="41.83196002856958" lon="-2.989602864344428"><ele>1134.0</ele><time>2026-05-03T10:59:14.001Z</time></trkpt><trkpt lat="41.83194686211413" lon="-2.9894880739033773"><ele>1135.0</ele><time>2026-05-03T10:59:15.001Z</time></trkpt><trkpt lat="41.83193957206144" lon="-2.989374089093234"><ele>1136.0</ele><time>2026-05-03T10:59:16.001Z</time></trkpt><trkpt lat="41.831937273349325" lon="-2.9892584003780356"><ele>1137.1666666666667</ele><time>2026-05-03T10:59:17.001Z</time></trkpt><trkpt lat="41.83193732532894" lon="-2.989145386057257"><ele>1138.3333333333335</ele><time>2026-05-03T10:59:18.001Z</time></trkpt><trkpt lat="41.831943113091924" lon="-2.98903035087081"><ele>1139.5</ele><time>2026-05-03T10:59:19.001Z</time></trkpt><trkpt lat="41.831951833363945" lon="-2.988916536033196"><ele>1140.6666666666667</ele><time>2026-05-03T10:59:20.001Z</time></trkpt><trkpt lat="41.831962726722516" lon="-2.9888001582520123"><ele>1141.8333333333333</ele><time>2026-05-03T10:59:21.001Z</time></trkpt><trkpt lat="41.83197437291937" lon="-2.9886832238672456"><ele>1143.0</ele><time>2026-05-03T10:59:22.001Z</time></trkpt><trkpt lat="41.831987035728986" lon="-2.9885616119102636"><ele>1143.0</ele><time>2026-05-03T10:59:23.001Z</time></trkpt><trkpt lat="41.832003132083344" lon="-2.988440429710859"><ele>1143.0</ele><time>2026-05-03T10:59:24.001Z</time></trkpt><trkpt lat="41.8320211545382" lon="-2.9883120625330437"><ele>1143.0</ele><time>2026-05-03T10:59:25.001Z</time></trkpt><trkpt lat="41.832040451601074" lon="-2.9881839913105512"><ele>1143.0</ele><time>2026-05-03T10:59:26.001Z</time></trkpt><trkpt lat="41.83205922030073" lon="-2.988054707415704"><ele>1143.0</ele><time>2026-05-03T10:59:27.001Z</time></trkpt><trkpt lat="41.8320858075542" lon="-2.9879243364321515"><ele>1142.8</ele><time>2026-05-03T10:59:28.001Z</time></trkpt><trkpt lat="41.83211266967369" lon="-2.9877910400512624"><ele>1142.6</ele><time>2026-05-03T10:59:29.001Z</time></trkpt><trkpt lat="41.832140199172066" lon="-2.987656821129027"><ele>1142.4</ele><time>2026-05-03T10:59:30.001Z</time></trkpt><trkpt lat="41.832163241199126" lon="-2.987518265982646"><ele>1142.2</ele><time>2026-05-03T10:59:31.001Z</time></trkpt><trkpt lat="41.832186386096055" lon="-2.987382144704111"><ele>1142.0</ele><time>2026-05-03T10:59:32.001Z</time></trkpt><trkpt lat="41.832208881369716" lon="-2.987248764659498"><ele>1142.4</ele><time>2026-05-03T10:59:33.001Z</time></trkpt><trkpt lat="41.832228016491314" lon="-2.9871159142928723"><ele>1142.8000000000002</ele><time>2026-05-03T10:59:34.001Z</time></trkpt><trkpt lat="41.83224750139628" lon="-2.986987766282104"><ele>1143.2</ele><time>2026-05-03T10:59:35.001Z</time></trkpt><trkpt lat="41.832262183351475" lon="-2.986857500880787"><ele>1143.6000000000001</ele><time>2026-05-03T10:59:36.001Z</time></trkpt><trkpt lat="41.83227434555769" lon="-2.9867298465534677"><ele>1144.0</ele><time>2026-05-03T10:59:37.001Z</time></trkpt><trkpt lat="41.83228256227072" lon="-2.986605553555409"><ele>1144.0</ele><time>2026-05-03T10:59:38.001Z</time></trkpt><trkpt lat="41.83229055948131" lon="-2.9864841773936677"><ele>1144.0</ele><time>2026-05-03T10:59:39.001Z</time></trkpt><trkpt lat="41.83230166646695" lon="-2.986368290597092"><ele>1144.0</ele><time>2026-05-03T10:59:40.001Z</time></trkpt><trkpt lat="41.83230775849878" lon="-2.986248136132794"><ele>1144.0</ele><time>2026-05-03T10:59:41.001Z</time></trkpt><trkpt lat="41.83230947164838" lon="-2.98612934851352"><ele>1144.0</ele><time>2026-05-03T10:59:42.001Z</time></trkpt><trkpt lat="41.83230829518203" lon="-2.986013954488154"><ele>1144.0</ele><time>2026-05-03T10:59:43.001Z</time></trkpt><trkpt lat="41.83230204072957" lon="-2.985899922296526"><ele>1144.5</ele><time>2026-05-03T10:59:44.001Z</time></trkpt><trkpt lat="41.83229163780573" lon="-2.9857873904282983"><ele>1145.0</ele><time>2026-05-03T10:59:45.001Z</time></trkpt><trkpt lat="41.83227887734291" lon="-2.985675571553725"><ele>1145.5</ele><time>2026-05-03T10:59:46.001Z</time></trkpt><trkpt lat="41.83226662803074" lon="-2.985568231334813"><ele>1146.0</ele><time>2026-05-03T10:59:47.001Z</time></trkpt><trkpt lat="41.832251343879484" lon="-2.9854605274512656"><ele>1146.5</ele><time>2026-05-03T10:59:48.001Z</time></trkpt><trkpt lat="41.83223171779581" lon="-2.985353014130765"><ele>1147.0</ele><time>2026-05-03T10:59:49.001Z</time></trkpt><trkpt lat="41.83221061184897" lon="-2.985248582212604"><ele>1147.0</ele><time>2026-05-03T10:59:50.001Z</time></trkpt><trkpt lat="41.832189200731236" lon="-2.985145283887734"><ele>1147.0</ele><time>2026-05-03T10:59:51.001Z</time></trkpt><trkpt lat="41.83216492165594" lon="-2.985041273512406"><ele>1147.0</ele><time>2026-05-03T10:59:52.001Z</time></trkpt><trkpt lat="41.83213946225268" lon="-2.9849363506922413"><ele>1147.0</ele><time>2026-05-03T10:59:53.001Z</time></trkpt><trkpt lat="41.832111720552064" lon="-2.9848294413748486"><ele>1147.0</ele><time>2026-05-03T10:59:54.001Z</time></trkpt><trkpt lat="41.83208323083571" lon="-2.984723371898816"><ele>1147.0</ele><time>2026-05-03T10:59:55.001Z</time></trkpt><trkpt lat="41.832051202563605" lon="-2.9846186757482003"><ele>1147.5</ele><time>2026-05-03T10:59:56.001Z</time></trkpt><trkpt lat="41.832017397930436" lon="-2.9845160761937293"><ele>1148.0</ele><time>2026-05-03T10:59:57.001Z</time></trkpt><trkpt lat="41.83198165342837" lon="-2.9844139404850893"><ele>1148.5</ele><time>2026-05-03T10:59:58.001Z</time></trkpt><trkpt lat="41.8319420951646" lon="-2.9843133695573654"><ele>1149.0</ele><time>2026-05-03T10:59:59.001Z</time></trkpt><trkpt lat="41.83190376793301" lon="-2.9842142125019024"><ele>1149.5</ele><time>2026-05-03T11:00:00.001Z</time></trkpt><trkpt lat="41.8318655449971" lon="-2.984115795369344"><ele>1150.0</ele><time>2026-05-03T11:00:01.001Z</time></trkpt><trkpt lat="41.83182753021143" lon="-2.984019258106042"><ele>1148.5</ele><time>2026-05-03T11:00:02.001Z</time></trkpt><trkpt lat="41.83178849525524" lon="-2.9839241098063476"><ele>1147.0</ele><time>2026-05-03T11:00:03.001Z</time></trkpt><trkpt lat="41.8317502154065" lon="-2.9838310087412254"><ele>1145.5</ele><time>2026-05-03T11:00:04.001Z</time></trkpt><trkpt lat="41.831713777158214" lon="-2.983737522738032"><ele>1144.0</ele><time>2026-05-03T11:00:05.001Z</time></trkpt><trkpt lat="41.83167684295015" lon="-2.9836451368929406"><ele>1142.5</ele><time>2026-05-03T11:00:06.001Z</time></trkpt><trkpt lat="41.83163893998928" lon="-2.9835530572312865"><ele>1141.0</ele><time>2026-05-03T11:00:07.001Z</time></trkpt><trkpt lat="41.83160134171386" lon="-2.9834620941250147"><ele>1141.0</ele><time>2026-05-03T11:00:08.001Z</time></trkpt><trkpt lat="41.831563711363295" lon="-2.983369443144844"><ele>1141.0</ele><time>2026-05-03T11:00:09.001Z</time></trkpt><trkpt lat="41.83152722026529" lon="-2.983276116694163"><ele>1141.0</ele><time>2026-05-03T11:00:10.001Z</time></trkpt><trkpt lat="41.831489338838" lon="-2.983181160076022"><ele>1141.0</ele><time>2026-05-03T11:00:11.001Z</time></trkpt><trkpt lat="41.83145604820417" lon="-2.9830835160232536"><ele>1141.0</ele><time>2026-05-03T11:00:12.001Z</time></trkpt><trkpt lat="41.83142485360541" lon="-2.982983488317507"><ele>1141.0</ele><time>2026-05-03T11:00:13.001Z</time></trkpt><trkpt lat="41.83139625617455" lon="-2.9828837467990597"><ele>1142.3333333333333</ele><time>2026-05-03T11:00:14.001Z</time></trkpt><trkpt lat="41.83136649952362" lon="-2.982782089581236"><ele>1143.6666666666665</ele><time>2026-05-03T11:00:15.001Z</time></trkpt><trkpt lat="41.831338628982515" lon="-2.9826805295308816"><ele>1145.0</ele><time>2026-05-03T11:00:16.001Z</time></trkpt><trkpt lat="41.83131306121193" lon="-2.9825795392557746"><ele>1146.3333333333333</ele><time>2026-05-03T11:00:17.001Z</time></trkpt><trkpt lat="41.83128628814012" lon="-2.982478641773093"><ele>1147.6666666666667</ele><time>2026-05-03T11:00:18.001Z</time></trkpt><trkpt lat="41.831261050134984" lon="-2.982376226887004"><ele>1149.0</ele><time>2026-05-03T11:00:19.001Z</time></trkpt><trkpt lat="41.83123835132521" lon="-2.9822721045886262"><ele>1151.0</ele><time>2026-05-03T11:00:20.001Z</time></trkpt><trkpt lat="41.831215339621075" lon="-2.982166517811138"><ele>1153.0</ele><time>2026-05-03T11:00:21.002Z</time></trkpt><trkpt lat="41.83119219458436" lon="-2.9820600966255215"><ele>1155.0</ele><time>2026-05-03T11:00:22.002Z</time></trkpt><trkpt lat="41.83116790209271" lon="-2.9819542788454965"><ele>1157.0</ele><time>2026-05-03T11:00:23.002Z</time></trkpt><trkpt lat="41.83114444818995" lon="-2.9818506479230513"><ele>1159.0</ele><time>2026-05-03T11:00:24.002Z</time></trkpt><trkpt lat="41.83112360249159" lon="-2.9817455238334283"><ele>1161.0</ele><time>2026-05-03T11:00:25.002Z</time></trkpt><trkpt lat="41.83110421500787" lon="-2.98163824051032"><ele>1159.6666666666667</ele><time>2026-05-03T11:00:26.002Z</time></trkpt><trkpt lat="41.831082635701755" lon="-2.9815337226598553"><ele>1158.3333333333333</ele><time>2026-05-03T11:00:27.002Z</time></trkpt><trkpt lat="41.831060890417525" lon="-2.981429588996667"><ele>1157.0</ele><time>2026-05-03T11:00:28.002Z</time></trkpt><trkpt lat="41.831039648573515" lon="-2.981324504046599"><ele>1155.6666666666665</ele><time>2026-05-03T11:00:29.002Z</time></trkpt><trkpt lat="41.83101793027942" lon="-2.9812214781958235"><ele>1154.3333333333333</ele><time>2026-05-03T11:00:30.002Z</time></trkpt><trkpt lat="41.830996118132326" lon="-2.9811176530678356"><ele>1153.0</ele><time>2026-05-03T11:00:31.002Z</time></trkpt><trkpt lat="41.83097251673712" lon="-2.981014698755186"><ele>1153.0</ele><time>2026-05-03T11:00:32.002Z</time></trkpt><trkpt lat="41.830948618369014" lon="-2.9809130648762086"><ele>1153.0</ele><time>2026-05-03T11:00:33.002Z</time></trkpt><trkpt lat="41.830927737471704" lon="-2.9808107926588194"><ele>1153.0</ele><time>2026-05-03T11:00:34.002Z</time></trkpt><trkpt lat="41.83090622621566" lon="-2.9807103134020383"><ele>1153.0</ele><time>2026-05-03T11:00:35.002Z</time></trkpt><trkpt lat="41.83088221414861" lon="-2.980607982117219"><ele>1153.0</ele><time>2026-05-03T11:00:36.002Z</time></trkpt><trkpt lat="41.83085814528818" lon="-2.9805058029627434"><ele>1153.0</ele><time>2026-05-03T11:00:37.002Z</time></trkpt><trkpt lat="41.8308349193937" lon="-2.980403871956005"><ele>1154.5</ele><time>2026-05-03T11:00:38.002Z</time></trkpt><trkpt lat="41.830809960825924" lon="-2.980303393938485"><ele>1156.0</ele><time>2026-05-03T11:00:39.002Z</time></trkpt><trkpt lat="41.83078487764795" lon="-2.980202211623992"><ele>1157.5</ele><time>2026-05-03T11:00:40.002Z</time></trkpt><trkpt lat="41.83075937442615" lon="-2.980101278224568"><ele>1159.0</ele><time>2026-05-03T11:00:41.002Z</time></trkpt><trkpt lat="41.83073674654377" lon="-2.979997994424728"><ele>1160.5</ele><time>2026-05-03T11:00:42.002Z</time></trkpt><trkpt lat="41.83070995293155" lon="-2.979894947249378"><ele>1162.0</ele><time>2026-05-03T11:00:43.002Z</time></trkpt><trkpt lat="41.8306819504923" lon="-2.9797941011682036"><ele>1163.5</ele><time>2026-05-03T11:00:44.002Z</time></trkpt><trkpt lat="41.83065634626054" lon="-2.97969381016938"><ele>1165.0</ele><time>2026-05-03T11:00:45.002Z</time></trkpt><trkpt lat="41.83063128774867" lon="-2.9795931333306234"><ele>1166.5</ele><time>2026-05-03T11:00:46.002Z</time></trkpt><trkpt lat="41.830607803183895" lon="-2.979492773432669"><ele>1168.0</ele><time>2026-05-03T11:00:47.002Z</time></trkpt><trkpt lat="41.83058452154594" lon="-2.9793921904904397"><ele>1169.5</ele><time>2026-05-03T11:00:48.002Z</time></trkpt><trkpt lat="41.830559749447495" lon="-2.9792926307389243"><ele>1171.0</ele><time>2026-05-03T11:00:49.002Z</time></trkpt><trkpt lat="41.830534482328" lon="-2.9791947864179096"><ele>1171.8333333333333</ele><time>2026-05-03T11:00:50.002Z</time></trkpt><trkpt lat="41.83050993839125" lon="-2.979096414355332"><ele>1172.6666666666665</ele><time>2026-05-03T11:00:51.002Z</time></trkpt><trkpt lat="41.830485042607236" lon="-2.9789990172261653"><ele>1173.5</ele><time>2026-05-03T11:00:52.002Z</time></trkpt><trkpt lat="41.830460701189814" lon="-2.978901028350607"><ele>1174.3333333333333</ele><time>2026-05-03T11:00:53.001Z</time></trkpt><trkpt lat="41.8304362067532" lon="-2.978802356948633"><ele>1175.1666666666667</ele><time>2026-05-03T11:00:54.001Z</time></trkpt><trkpt lat="41.83041196856703" lon="-2.9787049176216236"><ele>1176.0</ele><time>2026-05-03T11:00:55.001Z</time></trkpt><trkpt lat="41.830388252452636" lon="-2.978608186097"><ele>1176.0</ele><time>2026-05-03T11:00:56.001Z</time></trkpt><trkpt lat="41.83036483709429" lon="-2.978508999913821"><ele>1176.0</ele><time>2026-05-03T11:00:57.001Z</time></trkpt><trkpt lat="41.83033906844921" lon="-2.978413574575514"><ele>1176.0</ele><time>2026-05-03T11:00:58.001Z</time></trkpt><trkpt lat="41.83031511779806" lon="-2.9783167560016244"><ele>1176.0</ele><time>2026-05-03T11:00:59.001Z</time></trkpt><trkpt lat="41.83028987657387" lon="-2.978218694150819"><ele>1176.0</ele><time>2026-05-03T11:01:00.001Z</time></trkpt><trkpt lat="41.8302655763181" lon="-2.9781180757235424"><ele>1176.0</ele><time>2026-05-03T11:01:01.001Z</time></trkpt><trkpt lat="41.8302378683426" lon="-2.978016125349824"><ele>1176.5</ele><time>2026-05-03T11:01:02.001Z</time></trkpt><trkpt lat="41.83021334753708" lon="-2.977912666598504"><ele>1177.0</ele><time>2026-05-03T11:01:03.001Z</time></trkpt><trkpt lat="41.83018888513918" lon="-2.977809186386987"><ele>1177.5</ele><time>2026-05-03T11:01:04.001Z</time></trkpt><trkpt lat="41.83016295869043" lon="-2.977705577396597"><ele>1178.0</ele><time>2026-05-03T11:01:05.001Z</time></trkpt><trkpt lat="41.83013640471364" lon="-2.977598513434981"><ele>1178.5</ele><time>2026-05-03T11:01:06.001Z</time></trkpt><trkpt lat="41.83010955230251" lon="-2.9774897629528625"><ele>1179.0</ele><time>2026-05-03T11:01:07.001Z</time></trkpt><trkpt lat="41.83008342939991" lon="-2.977378302862702"><ele>1179.0</ele><time>2026-05-03T11:01:08.001Z</time></trkpt><trkpt lat="41.83005891268339" lon="-2.9772649320438824"><ele>1179.0</ele><time>2026-05-03T11:01:09.001Z</time></trkpt><trkpt lat="41.830035881851074" lon="-2.9771481062254472"><ele>1179.0</ele><time>2026-05-03T11:01:10.001Z</time></trkpt><trkpt lat="41.830012849029046" lon="-2.9770266092628703"><ele>1179.0</ele><time>2026-05-03T11:01:11.001Z</time></trkpt><trkpt lat="41.82999183130885" lon="-2.976904695472775"><ele>1179.0</ele><time>2026-05-03T11:01:12.001Z</time></trkpt><trkpt lat="41.829967172545594" lon="-2.9767759643353835"><ele>1179.2</ele><time>2026-05-03T11:01:13.001Z</time></trkpt><trkpt lat="41.82994387708759" lon="-2.976643864322629"><ele>1179.4</ele><time>2026-05-03T11:01:14.001Z</time></trkpt><trkpt lat="41.82991743127092" lon="-2.9765078494345785"><ele>1179.6</ele><time>2026-05-03T11:01:15.001Z</time></trkpt><trkpt lat="41.82989311066959" lon="-2.9763688887386115"><ele>1179.8</ele><time>2026-05-03T11:01:16.001Z</time></trkpt><trkpt lat="41.82987211732748" lon="-2.9762300286272074"><ele>1180.0</ele><time>2026-05-03T11:01:17.001Z</time></trkpt><trkpt lat="41.82984675014346" lon="-2.976091334447529"><ele>1180.0</ele><time>2026-05-03T11:01:18.001Z</time></trkpt><trkpt lat="41.82983419989109" lon="-2.975946510775757"><ele>1180.0</ele><time>2026-05-03T11:01:19.001Z</time></trkpt><trkpt lat="41.82980749455099" lon="-2.975805176152319"><ele>1180.0</ele><time>2026-05-03T11:01:20.001Z</time></trkpt><trkpt lat="41.82979346649783" lon="-2.975661497733515"><ele>1180.0</ele><time>2026-05-03T11:01:21.001Z</time></trkpt><trkpt lat="41.829772853260586" lon="-2.9755058416560374"><ele>1180.0</ele><time>2026-05-03T11:01:22.001Z</time></trkpt><trkpt lat="41.82971326924249" lon="-2.975317822430361"><ele>1178.5</ele><time>2026-05-03T11:01:23.001Z</time></trkpt><trkpt lat="41.82969346573709" lon="-2.9750933934293924"><ele>1177.0</ele><time>2026-05-03T11:01:24.001Z</time></trkpt><trkpt lat="41.82967688868953" lon="-2.9748531028871423"><ele>1175.5</ele><time>2026-05-03T11:01:25.001Z</time></trkpt><trkpt lat="41.829723711691976" lon="-2.9749145871969174"><ele>1174.0</ele><time>2026-05-03T11:01:26.001Z</time></trkpt><trkpt lat="41.82971641332969" lon="-2.974765012113422"><ele>1173.2</ele><time>2026-05-03T11:01:27.001Z</time></trkpt><trkpt lat="41.829708397283085" lon="-2.9746167919203037"><ele>1172.4</ele><time>2026-05-03T11:01:28.001Z</time></trkpt><trkpt lat="41.82970187714189" lon="-2.9744703182190366"><ele>1171.6</ele><time>2026-05-03T11:01:29.001Z</time></trkpt><trkpt lat="41.82969837414861" lon="-2.9743218697408405"><ele>1170.8</ele><time>2026-05-03T11:01:30.001Z</time></trkpt><trkpt lat="41.82969539497439" lon="-2.974173202546911"><ele>1170.0</ele><time>2026-05-03T11:01:31.001Z</time></trkpt><trkpt lat="41.82969325435181" lon="-2.9740226952467"><ele>1169.6</ele><time>2026-05-03T11:01:32.001Z</time></trkpt><trkpt lat="41.8296921707276" lon="-2.973874571703088"><ele>1169.2</ele><time>2026-05-03T11:01:33.001Z</time></trkpt><trkpt lat="41.82969388074804" lon="-2.973727693840925"><ele>1168.8</ele><time>2026-05-03T11:01:34.001Z</time></trkpt><trkpt lat="41.82969334528334" lon="-2.9735807808722434"><ele>1168.4</ele><time>2026-05-03T11:01:35.001Z</time></trkpt><trkpt lat="41.82969856053817" lon="-2.9734375555201966"><ele>1168.0</ele><time>2026-05-03T11:01:36.001Z</time></trkpt><trkpt lat="41.82970468757344" lon="-2.973295264081224"><ele>1169.8</ele><time>2026-05-03T11:01:37.001Z</time></trkpt><trkpt lat="41.829710669381576" lon="-2.973155204029386"><ele>1171.6</ele><time>2026-05-03T11:01:38.001Z</time></trkpt><trkpt lat="41.82971636021324" lon="-2.973014834420364"><ele>1173.4</ele><time>2026-05-03T11:01:39.001Z</time></trkpt><trkpt lat="41.82972333268268" lon="-2.9728766697191698"><ele>1175.2</ele><time>2026-05-03T11:01:40.001Z</time></trkpt><trkpt lat="41.829731528331685" lon="-2.972752118539332"><ele>1177.0</ele><time>2026-05-03T11:01:41.001Z</time></trkpt><trkpt lat="41.82974038116261" lon="-2.9726116796459805"><ele>1178.4</ele><time>2026-05-03T11:01:42.001Z</time></trkpt><trkpt lat="41.82974764700827" lon="-2.9724768617938473"><ele>1179.8000000000002</ele><time>2026-05-03T11:01:43.001Z</time></trkpt><trkpt lat="41.829757777357" lon="-2.9723439478646188"><ele>1181.2</ele><time>2026-05-03T11:01:44.001Z</time></trkpt><trkpt lat="41.82976804327461" lon="-2.972217788472954"><ele>1182.6000000000001</ele><time>2026-05-03T11:01:45.001Z</time></trkpt><trkpt lat="41.82977636808083" lon="-2.972084833392022"><ele>1184.0</ele><time>2026-05-03T11:01:46.001Z</time></trkpt><trkpt lat="41.829785672047876" lon="-2.9719533987597035"><ele>1184.0</ele><time>2026-05-03T11:01:47.001Z</time></trkpt><trkpt lat="41.829790962110316" lon="-2.97182603824838"><ele>1184.0</ele><time>2026-05-03T11:01:48.001Z</time></trkpt><trkpt lat="41.829794740682686" lon="-2.9716947928129267"><ele>1184.0</ele><time>2026-05-03T11:01:49.001Z</time></trkpt><trkpt lat="41.82980935989177" lon="-2.971569486982922"><ele>1184.0</ele><time>2026-05-03T11:01:50.001Z</time></trkpt><trkpt lat="41.82981970160013" lon="-2.9714447440618863"><ele>1184.0</ele><time>2026-05-03T11:01:51.001Z</time></trkpt><trkpt lat="41.82982568293359" lon="-2.9713149234425202"><ele>1183.8</ele><time>2026-05-03T11:01:52.001Z</time></trkpt><trkpt lat="41.829834120066934" lon="-2.9711904399900977"><ele>1183.6000000000001</ele><time>2026-05-03T11:01:53.001Z</time></trkpt><trkpt lat="41.8298410495964" lon="-2.9710639242755303"><ele>1183.4</ele><time>2026-05-03T11:01:54.001Z</time></trkpt><trkpt lat="41.82984665755794" lon="-2.9709388994212427"><ele>1183.2</ele><time>2026-05-03T11:01:55.001Z</time></trkpt><trkpt lat="41.829853423795434" lon="-2.970812083672486"><ele>1183.0</ele><time>2026-05-03T11:01:56.001Z</time></trkpt><trkpt lat="41.82986406235559" lon="-2.970688632005819"><ele>1183.0</ele><time>2026-05-03T11:01:57.001Z</time></trkpt><trkpt lat="41.829869971425666" lon="-2.970563029674682"><ele>1183.0</ele><time>2026-05-03T11:01:58.001Z</time></trkpt><trkpt lat="41.82987697217614" lon="-2.9704374913463494"><ele>1183.0</ele><time>2026-05-03T11:01:59.001Z</time></trkpt><trkpt lat="41.82990395877811" lon="-2.9703181540405845"><ele>1183.0</ele><time>2026-05-03T11:02:00.001Z</time></trkpt><trkpt lat="41.82989498622458" lon="-2.9701894942007847"><ele>1183.0</ele><time>2026-05-03T11:02:01.001Z</time></trkpt><trkpt lat="41.82989252696801" lon="-2.9700601255046055"><ele>1182.4</ele><time>2026-05-03T11:02:02.001Z</time></trkpt><trkpt lat="41.82988931335025" lon="-2.9699328404632914"><ele>1181.8</ele><time>2026-05-03T11:02:03.001Z</time></trkpt><trkpt lat="41.82988588765016" lon="-2.96980598356615"><ele>1181.2</ele><time>2026-05-03T11:02:04.001Z</time></trkpt><trkpt lat="41.82987428441516" lon="-2.9696780760979964"><ele>1180.6</ele><time>2026-05-03T11:02:05.001Z</time></trkpt><trkpt lat="41.829858551596324" lon="-2.9695552938637246"><ele>1180.0</ele><time>2026-05-03T11:02:06.001Z</time></trkpt><trkpt lat="41.82984304164889" lon="-2.9694297639739764"><ele>1180.0</ele><time>2026-05-03T11:02:07.001Z</time></trkpt><trkpt lat="41.82981927638031" lon="-2.9693073803411263"><ele>1180.0</ele><time>2026-05-03T11:02:08.001Z</time></trkpt><trkpt lat="41.82979213174542" lon="-2.969184494326016"><ele>1180.0</ele><time>2026-05-03T11:02:09.001Z</time></trkpt><trkpt lat="41.829764583278454" lon="-2.969068171565131"><ele>1180.0</ele><time>2026-05-03T11:02:10.001Z</time></trkpt><trkpt lat="41.8297293481349" lon="-2.968950191156705"><ele>1180.0</ele><time>2026-05-03T11:02:11.001Z</time></trkpt><trkpt lat="41.8296891984988" lon="-2.9688395833162198"><ele>1181.0</ele><time>2026-05-03T11:02:12.001Z</time></trkpt><trkpt lat="41.82964535618047" lon="-2.9687269959542943"><ele>1182.0</ele><time>2026-05-03T11:02:13.001Z</time></trkpt><trkpt lat="41.82960240087716" lon="-2.968622391230199"><ele>1183.0</ele><time>2026-05-03T11:02:14.001Z</time></trkpt><trkpt lat="41.82955701379471" lon="-2.9685197196355726"><ele>1184.0</ele><time>2026-05-03T11:02:15.001Z</time></trkpt><trkpt lat="41.82951024621287" lon="-2.968422489754346"><ele>1185.0</ele><time>2026-05-03T11:02:16.001Z</time></trkpt><trkpt lat="41.82946204047851" lon="-2.9683279492573074"><ele>1186.0</ele><time>2026-05-03T11:02:17.001Z</time></trkpt><trkpt lat="41.82940901459959" lon="-2.9682374885501637"><ele>1186.8333333333333</ele><time>2026-05-03T11:02:18.001Z</time></trkpt><trkpt lat="41.82935700212816" lon="-2.968153454134751"><ele>1187.6666666666665</ele><time>2026-05-03T11:02:19.001Z</time></trkpt><trkpt lat="41.82930373682767" lon="-2.9680721798975434"><ele>1188.5</ele><time>2026-05-03T11:02:20.001Z</time></trkpt><trkpt lat="41.82925045591351" lon="-2.9679957761759854"><ele>1189.3333333333333</ele><time>2026-05-03T11:02:21.001Z</time></trkpt><trkpt lat="41.829197907322275" lon="-2.9679188697351884"><ele>1190.1666666666667</ele><time>2026-05-03T11:02:22.001Z</time></trkpt><trkpt lat="41.829142544868304" lon="-2.9678432379345083"><ele>1191.0</ele><time>2026-05-03T11:02:23.001Z</time></trkpt><trkpt lat="41.82909128402179" lon="-2.967771161237278"><ele>1191.0</ele><time>2026-05-03T11:02:24.001Z</time></trkpt><trkpt lat="41.82903905911486" lon="-2.9677012009241457"><ele>1191.0</ele><time>2026-05-03T11:02:25.001Z</time></trkpt><trkpt lat="41.828985454086435" lon="-2.9676308235259614"><ele>1191.0</ele><time>2026-05-03T11:02:26.001Z</time></trkpt><trkpt lat="41.82893191366661" lon="-2.967561332426328"><ele>1191.0</ele><time>2026-05-03T11:02:27.001Z</time></trkpt><trkpt lat="41.828878589548914" lon="-2.9674893277702727"><ele>1191.0</ele><time>2026-05-03T11:02:28.001Z</time></trkpt><trkpt lat="41.828827770020766" lon="-2.9674195250817057"><ele>1191.0</ele><time>2026-05-03T11:02:29.001Z</time></trkpt><trkpt lat="41.828776045333676" lon="-2.9673509784723193"><ele>1191.0</ele><time>2026-05-03T11:02:30.001Z</time></trkpt><trkpt lat="41.82872852154356" lon="-2.967278946173578"><ele>1192.0</ele><time>2026-05-03T11:02:31.001Z</time></trkpt><trkpt lat="41.82867707250869" lon="-2.9672049172077912"><ele>1193.0</ele><time>2026-05-03T11:02:32.001Z</time></trkpt><trkpt lat="41.82862805856604" lon="-2.9671331612580816"><ele>1194.0</ele><time>2026-05-03T11:02:33.001Z</time></trkpt><trkpt lat="41.82857990214862" lon="-2.967056263270692"><ele>1195.0</ele><time>2026-05-03T11:02:34.001Z</time></trkpt><trkpt lat="41.82853350323391" lon="-2.9669795829021464"><ele>1196.0</ele><time>2026-05-03T11:02:35.001Z</time></trkpt><trkpt lat="41.82848619443041" lon="-2.966899760867095"><ele>1197.0</ele><time>2026-05-03T11:02:36.001Z</time></trkpt><trkpt lat="41.82844298536109" lon="-2.9668200840110233"><ele>1198.0</ele><time>2026-05-03T11:02:37.001Z</time></trkpt><trkpt lat="41.828400262960756" lon="-2.966739004880046"><ele>1199.142857142857</ele><time>2026-05-03T11:02:38.002Z</time></trkpt><trkpt lat="41.82835852402668" lon="-2.9666577081861965"><ele>1200.2857142857142</ele><time>2026-05-03T11:02:39.002Z</time></trkpt><trkpt lat="41.82832087531796" lon="-2.9665749228810254"><ele>1201.4285714285716</ele><time>2026-05-03T11:02:40.002Z</time></trkpt><trkpt lat="41.828285032526665" lon="-2.966488507917461"><ele>1202.5714285714284</ele><time>2026-05-03T11:02:41.002Z</time></trkpt><trkpt lat="41.82825076012158" lon="-2.9664047269711498"><ele>1203.7142857142856</ele><time>2026-05-03T11:02:42.002Z</time></trkpt><trkpt lat="41.828216427407405" lon="-2.9663207650090806"><ele>1204.857142857143</ele><time>2026-05-03T11:02:43.002Z</time></trkpt><trkpt lat="41.82818667000349" lon="-2.96623502135628"><ele>1206.0</ele><time>2026-05-03T11:02:44.002Z</time></trkpt><trkpt lat="41.82816049944816" lon="-2.9661432396553162"><ele>1206.0</ele><time>2026-05-03T11:02:45.002Z</time></trkpt><trkpt lat="41.82813090936791" lon="-2.9660547098195016"><ele>1206.0</ele><time>2026-05-03T11:02:46.002Z</time></trkpt><trkpt lat="41.82810377886082" lon="-2.965965010816654"><ele>1206.0</ele><time>2026-05-03T11:02:47.002Z</time></trkpt><trkpt lat="41.828079985613435" lon="-2.9658762665345693"><ele>1206.0</ele><time>2026-05-03T11:02:48.002Z</time></trkpt><trkpt lat="41.82806107203232" lon="-2.965782864837878"><ele>1206.0</ele><time>2026-05-03T11:02:49.002Z</time></trkpt><trkpt lat="41.82803957160415" lon="-2.965687842546186"><ele>1206.0</ele><time>2026-05-03T11:02:50.002Z</time></trkpt><trkpt lat="41.82802513906888" lon="-2.965594859210533"><ele>1206.0</ele><time>2026-05-03T11:02:51.002Z</time></trkpt><trkpt lat="41.828011205588055" lon="-2.9654996279551633"><ele>1207.7142857142858</ele><time>2026-05-03T11:02:52.002Z</time></trkpt><trkpt lat="41.827995299866515" lon="-2.9654030431128615"><ele>1209.4285714285713</ele><time>2026-05-03T11:02:53.002Z</time></trkpt><trkpt lat="41.82798247220518" lon="-2.965307060206123"><ele>1211.142857142857</ele><time>2026-05-03T11:02:54.002Z</time></trkpt><trkpt lat="41.827974911730486" lon="-2.9652144752160554"><ele>1212.857142857143</ele><time>2026-05-03T11:02:55.002Z</time></trkpt><trkpt lat="41.827963963587266" lon="-2.9651212230563004"><ele>1214.5714285714284</ele><time>2026-05-03T11:02:56.002Z</time></trkpt><trkpt lat="41.82795566899405" lon="-2.9650263175386633"><ele>1216.2857142857142</ele><time>2026-05-03T11:02:57.002Z</time></trkpt><trkpt lat="41.8279517457915" lon="-2.964933749226994"><ele>1218.0</ele><time>2026-05-03T11:02:58.002Z</time></trkpt><trkpt lat="41.82794977903503" lon="-2.9648385475866097"><ele>1218.7142857142858</ele><time>2026-05-03T11:02:59.001Z</time></trkpt><trkpt lat="41.82795117403894" lon="-2.9647458371308892"><ele>1219.4285714285716</ele><time>2026-05-03T11:03:00.001Z</time></trkpt><trkpt lat="41.82795666671158" lon="-2.9646504642689995"><ele>1220.142857142857</ele><time>2026-05-03T11:03:01.001Z</time></trkpt><trkpt lat="41.8279544649849" lon="-2.9645587550202595"><ele>1220.857142857143</ele><time>2026-05-03T11:03:02.001Z</time></trkpt><trkpt lat="41.82796109766574" lon="-2.9644663002608516"><ele>1221.5714285714287</ele><time>2026-05-03T11:03:03.001Z</time></trkpt><trkpt lat="41.827970644819146" lon="-2.9643721205685565"><ele>1222.2857142857142</ele><time>2026-05-03T11:03:04.001Z</time></trkpt><trkpt lat="41.827973917308135" lon="-2.9642755185181464"><ele>1223.0</ele><time>2026-05-03T11:03:05.001Z</time></trkpt><trkpt lat="41.82798439066397" lon="-2.964183664359799"><ele>1223.5714285714284</ele><time>2026-05-03T11:03:06.001Z</time></trkpt><trkpt lat="41.827997054317365" lon="-2.9640889241530735"><ele>1224.1428571428573</ele><time>2026-05-03T11:03:07.001Z</time></trkpt><trkpt lat="41.82800759503663" lon="-2.9639945676211576"><ele>1224.7142857142858</ele><time>2026-05-03T11:03:08.001Z</time></trkpt><trkpt lat="41.82802813889896" lon="-2.9638997713521813"><ele>1225.2857142857142</ele><time>2026-05-03T11:03:09.001Z</time></trkpt><trkpt lat="41.82804024001706" lon="-2.9637997908985234"><ele>1225.8571428571427</ele><time>2026-05-03T11:03:10.001Z</time></trkpt><trkpt lat="41.82805417115826" lon="-2.963702940677775"><ele>1226.4285714285716</ele><time>2026-05-03T11:03:11.001Z</time></trkpt><trkpt lat="41.82807066343142" lon="-2.96360099793732"><ele>1227.0</ele><time>2026-05-03T11:03:12.001Z</time></trkpt><trkpt lat="41.8280889663429" lon="-2.963502261243249"><ele>1227.0</ele><time>2026-05-03T11:03:13.001Z</time></trkpt><trkpt lat="41.82810732140329" lon="-2.963398913563733"><ele>1227.0</ele><time>2026-05-03T11:03:14.001Z</time></trkpt><trkpt lat="41.828123609409815" lon="-2.96329209987817"><ele>1227.0</ele><time>2026-05-03T11:03:15.001Z</time></trkpt><trkpt lat="41.82814064745329" lon="-2.9631888870942285"><ele>1227.0</ele><time>2026-05-03T11:03:16.001Z</time></trkpt><trkpt lat="41.82815459445705" lon="-2.9630780861002353"><ele>1227.0</ele><time>2026-05-03T11:03:17.001Z</time></trkpt><trkpt lat="41.82816894971758" lon="-2.962970845988007"><ele>1227.0</ele><time>2026-05-03T11:03:18.001Z</time></trkpt><trkpt lat="41.8281845437009" lon="-2.9628601488411115"><ele>1227.3333333333333</ele><time>2026-05-03T11:03:19.001Z</time></trkpt><trkpt lat="41.82819677432608" lon="-2.96274762375821"><ele>1227.6666666666667</ele><time>2026-05-03T11:03:20.001Z</time></trkpt><trkpt lat="41.828205841034865" lon="-2.9626302611519426"><ele>1228.0</ele><time>2026-05-03T11:03:21.001Z</time></trkpt><trkpt lat="41.828217055006185" lon="-2.962512433047597"><ele>1228.3333333333335</ele><time>2026-05-03T11:03:22.001Z</time></trkpt><trkpt lat="41.82822446325121" lon="-2.962394486735133"><ele>1228.6666666666667</ele><time>2026-05-03T11:03:23.001Z</time></trkpt><trkpt lat="41.82822843714877" lon="-2.962271480361181"><ele>1229.0</ele><time>2026-05-03T11:03:24.001Z</time></trkpt><trkpt lat="41.82823029503021" lon="-2.962145783496266"><ele>1229.2</ele><time>2026-05-03T11:03:25.001Z</time></trkpt><trkpt lat="41.828231364885426" lon="-2.9620204625756243"><ele>1229.4</ele><time>2026-05-03T11:03:26.001Z</time></trkpt><trkpt lat="41.82822675753473" lon="-2.961889214305945"><ele>1229.6</ele><time>2026-05-03T11:03:27.001Z</time></trkpt><trkpt lat="41.828221171518855" lon="-2.9617616625506917"><ele>1229.8</ele><time>2026-05-03T11:03:28.001Z</time></trkpt><trkpt lat="41.82821415858308" lon="-2.9616322830463635"><ele>1230.0</ele><time>2026-05-03T11:03:29.001Z</time></trkpt><trkpt lat="41.82820229009253" lon="-2.961498278196456"><ele>1229.4</ele><time>2026-05-03T11:03:30.001Z</time></trkpt><trkpt lat="41.82818921035043" lon="-2.961362947795445"><ele>1228.8</ele><time>2026-05-03T11:03:31.001Z</time></trkpt><trkpt lat="41.82817516413977" lon="-2.9612254438810877"><ele>1228.2</ele><time>2026-05-03T11:03:32.001Z</time></trkpt><trkpt lat="41.828160624596784" lon="-2.961084914639301"><ele>1227.6</ele><time>2026-05-03T11:03:33.001Z</time></trkpt><trkpt lat="41.82814598242971" lon="-2.9609507749320065"><ele>1227.0</ele><time>2026-05-03T11:03:34.001Z</time></trkpt><trkpt lat="41.828132354144195" lon="-2.960815520707959"><ele>1226.2</ele><time>2026-05-03T11:03:35.001Z</time></trkpt><trkpt lat="41.828118009424855" lon="-2.960680896760556"><ele>1225.4</ele><time>2026-05-03T11:03:36.001Z</time></trkpt><trkpt lat="41.82810112374452" lon="-2.9605457400313284"><ele>1224.6</ele><time>2026-05-03T11:03:37.001Z</time></trkpt><trkpt lat="41.828084836599615" lon="-2.960406587597335"><ele>1223.8</ele><time>2026-05-03T11:03:38.001Z</time></trkpt><trkpt lat="41.82806804241569" lon="-2.9602725019561897"><ele>1223.0</ele><time>2026-05-03T11:03:39.001Z</time></trkpt><trkpt lat="41.828052260018396" lon="-2.960130989621983"><ele>1222.6</ele><time>2026-05-03T11:03:40.001Z</time></trkpt><trkpt lat="41.828035076280884" lon="-2.9599933844020603"><ele>1222.1999999999998</ele><time>2026-05-03T11:03:41.001Z</time></trkpt><trkpt lat="41.828020611205964" lon="-2.9598493651756606"><ele>1221.8</ele><time>2026-05-03T11:03:42.001Z</time></trkpt><trkpt lat="41.82800487822676" lon="-2.959709149825539"><ele>1221.3999999999999</ele><time>2026-05-03T11:03:43.001Z</time></trkpt><trkpt lat="41.827989535131834" lon="-2.9595663088256527"><ele>1221.0</ele><time>2026-05-03T11:03:44.001Z</time></trkpt><trkpt lat="41.827976217206405" lon="-2.959423207800225"><ele>1221.0</ele><time>2026-05-03T11:03:45.001Z</time></trkpt><trkpt lat="41.827961679655466" lon="-2.959278353317815"><ele>1221.0</ele><time>2026-05-03T11:03:46.001Z</time></trkpt><trkpt lat="41.82794792515383" lon="-2.9591363067084733"><ele>1221.0</ele><time>2026-05-03T11:03:47.001Z</time></trkpt><trkpt lat="41.82793516927881" lon="-2.958992408995751"><ele>1221.0</ele><time>2026-05-03T11:03:48.001Z</time></trkpt><trkpt lat="41.82792039604012" lon="-2.958847447925516"><ele>1221.0</ele><time>2026-05-03T11:03:49.001Z</time></trkpt><trkpt lat="41.82790770801376" lon="-2.9587003957673508"><ele>1221.0</ele><time>2026-05-03T11:03:50.001Z</time></trkpt><trkpt lat="41.827896434730285" lon="-2.9585551924670344"><ele>1221.0</ele><time>2026-05-03T11:03:51.001Z</time></trkpt><trkpt lat="41.82788496679807" lon="-2.9584101479579736"><ele>1221.0</ele><time>2026-05-03T11:03:52.001Z</time></trkpt><trkpt lat="41.82787066100882" lon="-2.9582662831810005"><ele>1221.0</ele><time>2026-05-03T11:03:53.001Z</time></trkpt><trkpt lat="41.82785840714473" lon="-2.9581225185363524"><ele>1221.0</ele><time>2026-05-03T11:03:54.001Z</time></trkpt><trkpt lat="41.82784550064069" lon="-2.957980235357476"><ele>1221.0</ele><time>2026-05-03T11:03:55.001Z</time></trkpt><trkpt lat="41.827832931324394" lon="-2.957837476172672"><ele>1221.0</ele><time>2026-05-03T11:03:56.001Z</time></trkpt><trkpt lat="41.827819058186634" lon="-2.957696643475939"><ele>1221.0</ele><time>2026-05-03T11:03:57.001Z</time></trkpt><trkpt lat="41.82780840920738" lon="-2.9575578725151845"><ele>1221.0</ele><time>2026-05-03T11:03:58.001Z</time></trkpt><trkpt lat="41.82780186239271" lon="-2.9574129612929743"><ele>1221.0</ele><time>2026-05-03T11:03:59.001Z</time></trkpt><trkpt lat="41.827795416743875" lon="-2.9572703362305646"><ele>1220.2</ele><time>2026-05-03T11:04:00.001Z</time></trkpt><trkpt lat="41.82779780562624" lon="-2.957123614113374"><ele>1219.3999999999999</ele><time>2026-05-03T11:04:01.001Z</time></trkpt><trkpt lat="41.82780232014553" lon="-2.9569777237010237"><ele>1218.6</ele><time>2026-05-03T11:04:02.001Z</time></trkpt><trkpt lat="41.82781329412671" lon="-2.9568368271830807"><ele>1217.8</ele><time>2026-05-03T11:04:03.001Z</time></trkpt><trkpt lat="41.82782804282212" lon="-2.9566942768497775"><ele>1217.0</ele><time>2026-05-03T11:04:04.001Z</time></trkpt><trkpt lat="41.8278469713738" lon="-2.9565540242217447"><ele>1216.6</ele><time>2026-05-03T11:04:05.001Z</time></trkpt><trkpt lat="41.82786772747493" lon="-2.9564154555755344"><ele>1216.2</ele><time>2026-05-03T11:04:06.001Z</time></trkpt><trkpt lat="41.827890322373456" lon="-2.956275240915703"><ele>1215.8</ele><time>2026-05-03T11:04:07.001Z</time></trkpt><trkpt lat="41.82791197062213" lon="-2.9561338501240404"><ele>1215.4</ele><time>2026-05-03T11:04:08.001Z</time></trkpt><trkpt lat="41.82793500988019" lon="-2.955995133595139"><ele>1215.0</ele><time>2026-05-03T11:04:09.001Z</time></trkpt><trkpt lat="41.82795925345018" lon="-2.9558563165872416"><ele>1216.2</ele><time>2026-05-03T11:04:10.001Z</time></trkpt><trkpt lat="41.827978497156785" lon="-2.9557162854897086"><ele>1217.4</ele><time>2026-05-03T11:04:11.001Z</time></trkpt><trkpt lat="41.827996485277744" lon="-2.9555757152637923"><ele>1218.6</ele><time>2026-05-03T11:04:12.001Z</time></trkpt><trkpt lat="41.82801190544602" lon="-2.9554360828325033"><ele>1219.8</ele><time>2026-05-03T11:04:13.001Z</time></trkpt><trkpt lat="41.82802099830484" lon="-2.955294714283679"><ele>1221.0</ele><time>2026-05-03T11:04:14.001Z</time></trkpt><trkpt lat="41.828025352440065" lon="-2.9551532963575684"><ele>1221.2</ele><time>2026-05-03T11:04:15.001Z</time></trkpt><trkpt lat="41.828025731227406" lon="-2.9550110500648903"><ele>1221.3999999999999</ele><time>2026-05-03T11:04:16.001Z</time></trkpt><trkpt lat="41.82802094583385" lon="-2.9548715800362473"><ele>1221.6</ele><time>2026-05-03T11:04:17.001Z</time></trkpt><trkpt lat="41.828009065440625" lon="-2.9547328167620135"><ele>1221.8</ele><time>2026-05-03T11:04:18.001Z</time></trkpt><trkpt lat="41.82799062264902" lon="-2.9545971466744283"><ele>1222.0</ele><time>2026-05-03T11:04:19.001Z</time></trkpt><trkpt lat="41.82796356761817" lon="-2.954460538588449"><ele>1222.0</ele><time>2026-05-03T11:04:20.001Z</time></trkpt><trkpt lat="41.82793116027125" lon="-2.9543254225142497"><ele>1222.0</ele><time>2026-05-03T11:04:21.001Z</time></trkpt><trkpt lat="41.82789293374505" lon="-2.9541922006879693"><ele>1222.0</ele><time>2026-05-03T11:04:22.001Z</time></trkpt><trkpt lat="41.82785175638786" lon="-2.954062359928446"><ele>1222.0</ele><time>2026-05-03T11:04:23.001Z</time></trkpt><trkpt lat="41.82780683034938" lon="-2.9539337961057703"><ele>1222.0</ele><time>2026-05-03T11:04:24.001Z</time></trkpt><trkpt lat="41.827758194207476" lon="-2.9538068842555782"><ele>1222.2</ele><time>2026-05-03T11:04:25.001Z</time></trkpt><trkpt lat="41.82770890060977" lon="-2.953684009334465"><ele>1222.4</ele><time>2026-05-03T11:04:26.001Z</time></trkpt><trkpt lat="41.827659127692435" lon="-2.953563077768455"><ele>1222.6</ele><time>2026-05-03T11:04:27.001Z</time></trkpt><trkpt lat="41.827608973048314" lon="-2.9534411678049377"><ele>1222.8</ele><time>2026-05-03T11:04:28.001Z</time></trkpt><trkpt lat="41.82756029147518" lon="-2.953319125464402"><ele>1223.0</ele><time>2026-05-03T11:04:29.001Z</time></trkpt><trkpt lat="41.82751123513573" lon="-2.9531953922766427"><ele>1222.6</ele><time>2026-05-03T11:04:30.001Z</time></trkpt><trkpt lat="41.82745962753445" lon="-2.953074118804589"><ele>1222.1999999999998</ele><time>2026-05-03T11:04:31.001Z</time></trkpt><trkpt lat="41.827410664216366" lon="-2.952952883109558"><ele>1221.8</ele><time>2026-05-03T11:04:32.001Z</time></trkpt><trkpt lat="41.82736568795409" lon="-2.9528266877994716"><ele>1221.3999999999999</ele><time>2026-05-03T11:04:33.001Z</time></trkpt><trkpt lat="41.82732584581958" lon="-2.9526974308744465"><ele>1221.0</ele><time>2026-05-03T11:04:34.001Z</time></trkpt><trkpt lat="41.82729174758848" lon="-2.952565762216982"><ele>1220.6</ele><time>2026-05-03T11:04:35.001Z</time></trkpt><trkpt lat="41.82726252377928" lon="-2.952431335116422"><ele>1220.1999999999998</ele><time>2026-05-03T11:04:36.001Z</time></trkpt><trkpt lat="41.82723793802595" lon="-2.952294425387685"><ele>1219.8000000000002</ele><time>2026-05-03T11:04:37.001Z</time></trkpt><trkpt lat="41.827218043834044" lon="-2.9521560652355365"><ele>1219.4</ele><time>2026-05-03T11:04:38.001Z</time></trkpt><trkpt lat="41.827202729842355" lon="-2.952019960656176"><ele>1219.0</ele><time>2026-05-03T11:04:39.001Z</time></trkpt><trkpt lat="41.827193716734044" lon="-2.9518844542078986"><ele>1219.0</ele><time>2026-05-03T11:04:40.001Z</time></trkpt><trkpt lat="41.82718965251126" lon="-2.951746303148691"><ele>1219.0</ele><time>2026-05-03T11:04:41.001Z</time></trkpt><trkpt lat="41.82718733101549" lon="-2.951609761693215"><ele>1219.0</ele><time>2026-05-03T11:04:42.001Z</time></trkpt><trkpt lat="41.827187706423395" lon="-2.9514707868903"><ele>1219.0</ele><time>2026-05-03T11:04:43.001Z</time></trkpt><trkpt lat="41.82719120535622" lon="-2.951333411694217"><ele>1219.0</ele><time>2026-05-03T11:04:44.001Z</time></trkpt><trkpt lat="41.827200267531865" lon="-2.951200029830694"><ele>1219.2</ele><time>2026-05-03T11:04:45.001Z</time></trkpt><trkpt lat="41.8272137618563" lon="-2.951068318364301"><ele>1219.4</ele><time>2026-05-03T11:04:46.001Z</time></trkpt><trkpt lat="41.82723575425144" lon="-2.9509362980144407"><ele>1219.6</ele><time>2026-05-03T11:04:47.001Z</time></trkpt><trkpt lat="41.82726664720751" lon="-2.9508094605093778"><ele>1219.8</ele><time>2026-05-03T11:04:48.001Z</time></trkpt><trkpt lat="41.827299982939856" lon="-2.950682911623358"><ele>1220.0</ele><time>2026-05-03T11:04:49.001Z</time></trkpt><trkpt lat="41.82733627945742" lon="-2.950561775232522"><ele>1221.2</ele><time>2026-05-03T11:04:50.001Z</time></trkpt><trkpt lat="41.827378212335" lon="-2.9504440365781437"><ele>1222.4</ele><time>2026-05-03T11:04:51.002Z</time></trkpt><trkpt lat="41.82742145617989" lon="-2.9503288476486205"><ele>1223.6</ele><time>2026-05-03T11:04:52.002Z</time></trkpt><trkpt lat="41.8274666374038" lon="-2.9502116572891928"><ele>1224.8</ele><time>2026-05-03T11:04:53.002Z</time></trkpt><trkpt lat="41.82751281086629" lon="-2.9500970709497407"><ele>1226.0</ele><time>2026-05-03T11:04:54.002Z</time></trkpt><trkpt lat="41.827565415839544" lon="-2.9499854380164834"><ele>1226.0</ele><time>2026-05-03T11:04:55.002Z</time></trkpt><trkpt lat="41.82761953344521" lon="-2.9498766088310204"><ele>1226.0</ele><time>2026-05-03T11:04:56.002Z</time></trkpt><trkpt lat="41.82767443124182" lon="-2.9497708555743953"><ele>1226.0</ele><time>2026-05-03T11:04:57.002Z</time></trkpt><trkpt lat="41.82772917840974" lon="-2.9496667552042015"><ele>1226.0</ele><time>2026-05-03T11:04:58.002Z</time></trkpt><trkpt lat="41.82778297090305" lon="-2.9495632557020177"><ele>1226.0</ele><time>2026-05-03T11:04:59.002Z</time></trkpt><trkpt lat="41.827835177243024" lon="-2.9494588121266854"><ele>1227.0</ele><time>2026-05-03T11:05:00.002Z</time></trkpt><trkpt lat="41.82788652467507" lon="-2.9493455521322827"><ele>1228.0</ele><time>2026-05-03T11:05:01.002Z</time></trkpt><trkpt lat="41.82793470334741" lon="-2.949232231273312"><ele>1229.0</ele><time>2026-05-03T11:05:02.002Z</time></trkpt><trkpt lat="41.82797645013859" lon="-2.949122438599402"><ele>1230.0</ele><time>2026-05-03T11:05:03.002Z</time></trkpt><trkpt lat="41.82801285274223" lon="-2.949006949306409"><ele>1231.0</ele><time>2026-05-03T11:05:04.002Z</time></trkpt><trkpt lat="41.82804633513386" lon="-2.9488887859696367"><ele>1231.0</ele><time>2026-05-03T11:05:05.001Z</time></trkpt><trkpt lat="41.82807612977179" lon="-2.9487715339708607"><ele>1231.0</ele><time>2026-05-03T11:05:06.001Z</time></trkpt><trkpt lat="41.82809989679002" lon="-2.948654594433137"><ele>1231.0</ele><time>2026-05-03T11:05:07.001Z</time></trkpt><trkpt lat="41.82811873543348" lon="-2.9485372282765114"><ele>1231.0</ele><time>2026-05-03T11:05:08.001Z</time></trkpt><trkpt lat="41.828133142040926" lon="-2.948419004429966"><ele>1231.0</ele><time>2026-05-03T11:05:09.001Z</time></trkpt><trkpt lat="41.82814275483821" lon="-2.9482996120607523"><ele>1230.5</ele><time>2026-05-03T11:05:10.001Z</time></trkpt><trkpt lat="41.82814927717756" lon="-2.948181223748131"><ele>1230.0</ele><time>2026-05-03T11:05:11.001Z</time></trkpt><trkpt lat="41.82815217963816" lon="-2.948065193082023"><ele>1229.5</ele><time>2026-05-03T11:05:12.001Z</time></trkpt><trkpt lat="41.82815087923435" lon="-2.947949245524749"><ele>1229.0</ele><time>2026-05-03T11:05:13.001Z</time></trkpt><trkpt lat="41.828146633579095" lon="-2.947834435054925"><ele>1228.5</ele><time>2026-05-03T11:05:14.001Z</time></trkpt><trkpt lat="41.82813894253703" lon="-2.9477229290039952"><ele>1228.0</ele><time>2026-05-03T11:05:15.001Z</time></trkpt><trkpt lat="41.82812780078519" lon="-2.947612470838477"><ele>1228.8333333333333</ele><time>2026-05-03T11:05:16.001Z</time></trkpt><trkpt lat="41.82811226468265" lon="-2.947505448021119"><ele>1229.6666666666665</ele><time>2026-05-03T11:05:17.001Z</time></trkpt><trkpt lat="41.828090545787035" lon="-2.947398446885616"><ele>1230.5</ele><time>2026-05-03T11:05:18.001Z</time></trkpt><trkpt lat="41.82806763789226" lon="-2.947295300558094"><ele>1231.3333333333333</ele><time>2026-05-03T11:05:19.001Z</time></trkpt><trkpt lat="41.82804522288233" lon="-2.94719297712083"><ele>1232.1666666666667</ele><time>2026-05-03T11:05:20.001Z</time></trkpt><trkpt lat="41.828018681228976" lon="-2.94709158209694"><ele>1233.0</ele><time>2026-05-03T11:05:21.001Z</time></trkpt><trkpt lat="41.827988770995034" lon="-2.946992114724885"><ele>1233.0</ele><time>2026-05-03T11:05:22.001Z</time></trkpt><trkpt lat="41.82795438680388" lon="-2.9468938823348414"><ele>1233.0</ele><time>2026-05-03T11:05:23.001Z</time></trkpt><trkpt lat="41.82791722610629" lon="-2.9467969838009713"><ele>1233.0</ele><time>2026-05-03T11:05:24.001Z</time></trkpt><trkpt lat="41.82787536564036" lon="-2.9467014608637276"><ele>1233.0</ele><time>2026-05-03T11:05:25.001Z</time></trkpt><trkpt lat="41.82783109259725" lon="-2.946609501090385"><ele>1233.0</ele><time>2026-05-03T11:05:26.001Z</time></trkpt><trkpt lat="41.82778212882298" lon="-2.9465203771958235"><ele>1233.0</ele><time>2026-05-03T11:05:27.001Z</time></trkpt><trkpt lat="41.8277309139131" lon="-2.946434429199728"><ele>1234.0</ele><time>2026-05-03T11:05:28.001Z</time></trkpt><trkpt lat="41.82767674888321" lon="-2.9463481019730766"><ele>1235.0</ele><time>2026-05-03T11:05:29.001Z</time></trkpt><trkpt lat="41.8276186697457" lon="-2.9462650479605554"><ele>1236.0</ele><time>2026-05-03T11:05:30.001Z</time></trkpt><trkpt lat="41.827555857743256" lon="-2.9461850604305795"><ele>1237.0</ele><time>2026-05-03T11:05:31.001Z</time></trkpt><trkpt lat="41.82749128918922" lon="-2.9461060149779925"><ele>1238.0</ele><time>2026-05-03T11:05:32.001Z</time></trkpt><trkpt lat="41.82742439207964" lon="-2.9460288839990882"><ele>1239.0</ele><time>2026-05-03T11:05:33.001Z</time></trkpt><trkpt lat="41.82735449922468" lon="-2.945956417464533"><ele>1239.0</ele><time>2026-05-03T11:05:34.001Z</time></trkpt><trkpt lat="41.827282665232985" lon="-2.945887218774538"><ele>1239.0</ele><time>2026-05-03T11:05:35.001Z</time></trkpt><trkpt lat="41.82720515152971" lon="-2.945822751473559"><ele>1239.0</ele><time>2026-05-03T11:05:36.001Z</time></trkpt><trkpt lat="41.82712575524788" lon="-2.945758404279442"><ele>1239.0</ele><time>2026-05-03T11:05:37.001Z</time></trkpt><trkpt lat="41.82704041752226" lon="-2.945696651316702"><ele>1239.0</ele><time>2026-05-03T11:05:38.001Z</time></trkpt><trkpt lat="41.82695161735777" lon="-2.945639070639611"><ele>1238.8</ele><time>2026-05-03T11:05:39.001Z</time></trkpt><trkpt lat="41.82686075564158" lon="-2.9455873377596666"><ele>1238.6000000000001</ele><time>2026-05-03T11:05:40.001Z</time></trkpt><trkpt lat="41.82677001069094" lon="-2.9455360617238573"><ele>1238.4</ele><time>2026-05-03T11:05:41.001Z</time></trkpt><trkpt lat="41.82667878110724" lon="-2.9454865101114454"><ele>1238.2</ele><time>2026-05-03T11:05:42.001Z</time></trkpt><trkpt lat="41.82658540456996" lon="-2.9454397033873163"><ele>1238.0</ele><time>2026-05-03T11:05:43.001Z</time></trkpt><trkpt lat="41.8264898404184" lon="-2.9453961403433895"><ele>1239.2</ele><time>2026-05-03T11:05:44.001Z</time></trkpt><trkpt lat="41.82639562964303" lon="-2.9453533085597665"><ele>1240.4</ele><time>2026-05-03T11:05:45.001Z</time></trkpt><trkpt lat="41.82630079268598" lon="-2.9453115165732835"><ele>1241.6000000000001</ele><time>2026-05-03T11:05:46.001Z</time></trkpt><trkpt lat="41.826203286628804" lon="-2.9452683976612652"><ele>1242.8</ele><time>2026-05-03T11:05:47.001Z</time></trkpt><trkpt lat="41.82610388767124" lon="-2.945227187179891"><ele>1244.0</ele><time>2026-05-03T11:05:48.001Z</time></trkpt><trkpt lat="41.82600276838486" lon="-2.945187450708652"><ele>1243.8</ele><time>2026-05-03T11:05:49.001Z</time></trkpt><trkpt lat="41.82590167117223" lon="-2.945148317992947"><ele>1243.6000000000001</ele><time>2026-05-03T11:05:50.001Z</time></trkpt><trkpt lat="41.825799057756406" lon="-2.945107280037444"><ele>1243.4</ele><time>2026-05-03T11:05:51.001Z</time></trkpt><trkpt lat="41.82569763138678" lon="-2.9450658042692064"><ele>1243.2</ele><time>2026-05-03T11:05:52.001Z</time></trkpt><trkpt lat="41.82559736242534" lon="-2.9450245406006204"><ele>1243.0</ele><time>2026-05-03T11:05:53.001Z</time></trkpt><trkpt lat="41.82549500677618" lon="-2.944981257514747"><ele>1242.6</ele><time>2026-05-03T11:05:54.001Z</time></trkpt><trkpt lat="41.825391743722264" lon="-2.944936819359595"><ele>1242.1999999999998</ele><time>2026-05-03T11:05:55.001Z</time></trkpt><trkpt lat="41.82529174069085" lon="-2.9448926200344014"><ele>1241.8</ele><time>2026-05-03T11:05:56.001Z</time></trkpt><trkpt lat="41.825192246207614" lon="-2.944844532393597"><ele>1241.3999999999999</ele><time>2026-05-03T11:05:57.001Z</time></trkpt><trkpt lat="41.825094240625766" lon="-2.9447910063762954"><ele>1241.0</ele><time>2026-05-03T11:05:58.001Z</time></trkpt><trkpt lat="41.8249993022706" lon="-2.9447320364768905"><ele>1241.0</ele><time>2026-05-03T11:05:59.001Z</time></trkpt><trkpt lat="41.82490446408876" lon="-2.9446660295431424"><ele>1241.0</ele><time>2026-05-03T11:06:00.001Z</time></trkpt><trkpt lat="41.82481086864325" lon="-2.9445942011985844"><ele>1241.0</ele><time>2026-05-03T11:06:01.001Z</time></trkpt><trkpt lat="41.82471934241089" lon="-2.9445200462414207"><ele>1241.0</ele><time>2026-05-03T11:06:02.001Z</time></trkpt><trkpt lat="41.82462965942656" lon="-2.944443144867201"><ele>1241.0</ele><time>2026-05-03T11:06:03.001Z</time></trkpt><trkpt lat="41.82454158474499" lon="-2.944361932568669"><ele>1241.0</ele><time>2026-05-03T11:06:04.001Z</time></trkpt><trkpt lat="41.824455541497606" lon="-2.94427939016233"><ele>1241.0</ele><time>2026-05-03T11:06:05.001Z</time></trkpt><trkpt lat="41.82437499536358" lon="-2.9441907589392113"><ele>1241.0</ele><time>2026-05-03T11:06:06.001Z</time></trkpt><trkpt lat="41.824297157480956" lon="-2.944094969903484"><ele>1241.0</ele><time>2026-05-03T11:06:07.001Z</time></trkpt><trkpt lat="41.82422367872847" lon="-2.943994609193305"><ele>1241.0</ele><time>2026-05-03T11:06:08.001Z</time></trkpt><trkpt lat="41.824152083662085" lon="-2.9438899446212115"><ele>1240.8</ele><time>2026-05-03T11:06:09.001Z</time></trkpt><trkpt lat="41.824082183070296" lon="-2.9437833617490314"><ele>1240.6</ele><time>2026-05-03T11:06:10.001Z</time></trkpt><trkpt lat="41.82401448658156" lon="-2.943674665091989"><ele>1240.4</ele><time>2026-05-03T11:06:11.001Z</time></trkpt><trkpt lat="41.823949888835706" lon="-2.943558096597842"><ele>1240.2</ele><time>2026-05-03T11:06:12.001Z</time></trkpt><trkpt lat="41.823886190044895" lon="-2.9434417608229606"><ele>1240.0</ele><time>2026-05-03T11:06:13.001Z</time></trkpt><trkpt lat="41.82382346601948" lon="-2.943324208241396"><ele>1238.8</ele><time>2026-05-03T11:06:14.001Z</time></trkpt><trkpt lat="41.82376303104916" lon="-2.9432061742180817"><ele>1237.6</ele><time>2026-05-03T11:06:15.001Z</time></trkpt><trkpt lat="41.823701067477224" lon="-2.943088406744576"><ele>1236.4</ele><time>2026-05-03T11:06:16.001Z</time></trkpt><trkpt lat="41.823639624565374" lon="-2.942970563892805"><ele>1235.2</ele><time>2026-05-03T11:06:17.001Z</time></trkpt><trkpt lat="41.82357919366527" lon="-2.942853539404536"><ele>1234.0</ele><time>2026-05-03T11:06:18.001Z</time></trkpt><trkpt lat="41.823522097915614" lon="-2.9427345989698"><ele>1234.0</ele><time>2026-05-03T11:06:19.001Z</time></trkpt><trkpt lat="41.823461456605926" lon="-2.9426191482488964"><ele>1234.0</ele><time>2026-05-03T11:06:20.001Z</time></trkpt><trkpt lat="41.82340230602155" lon="-2.942502440115256"><ele>1234.0</ele><time>2026-05-03T11:06:21.001Z</time></trkpt><trkpt lat="41.82334364598612" lon="-2.9423877570250454"><ele>1234.0</ele><time>2026-05-03T11:06:22.001Z</time></trkpt><trkpt lat="41.82328476842372" lon="-2.942275637820963"><ele>1234.0</ele><time>2026-05-03T11:06:23.001Z</time></trkpt><trkpt lat="41.82322563925257" lon="-2.9421618419186317"><ele>1234.0</ele><time>2026-05-03T11:06:24.001Z</time></trkpt><trkpt lat="41.823166050035134" lon="-2.9420476715122805"><ele>1234.0</ele><time>2026-05-03T11:06:25.001Z</time></trkpt><trkpt lat="41.823107648312565" lon="-2.941932034814305"><ele>1234.0</ele><time>2026-05-03T11:06:26.001Z</time></trkpt><trkpt lat="41.8230467109718" lon="-2.9418182089011076"><ele>1234.0</ele><time>2026-05-03T11:06:27.001Z</time></trkpt><trkpt lat="41.82298584721602" lon="-2.9417030165305773"><ele>1234.0</ele><time>2026-05-03T11:06:28.001Z</time></trkpt><trkpt lat="41.822926077290425" lon="-2.9415863299577785"><ele>1233.8</ele><time>2026-05-03T11:06:29.001Z</time></trkpt><trkpt lat="41.82286618303378" lon="-2.9414712175336364"><ele>1233.6000000000001</ele><time>2026-05-03T11:06:30.001Z</time></trkpt><trkpt lat="41.822804908088294" lon="-2.941357796454793"><ele>1233.4</ele><time>2026-05-03T11:06:31.001Z</time></trkpt><trkpt lat="41.822745390867524" lon="-2.9412411943829273"><ele>1233.2</ele><time>2026-05-03T11:06:32.001Z</time></trkpt><trkpt lat="41.822683595325216" lon="-2.94112727885818"><ele>1233.0</ele><time>2026-05-03T11:06:33.001Z</time></trkpt><trkpt lat="41.822622883625314" lon="-2.941012699937737"><ele>1233.0</ele><time>2026-05-03T11:06:34.001Z</time></trkpt><trkpt lat="41.822559586144955" lon="-2.940900905658751"><ele>1233.0</ele><time>2026-05-03T11:06:35.001Z</time></trkpt><trkpt lat="41.82249701657941" lon="-2.9407911382911602"><ele>1233.0</ele><time>2026-05-03T11:06:36.001Z</time></trkpt><trkpt lat="41.822432484663835" lon="-2.9406795043351837"><ele>1233.0</ele><time>2026-05-03T11:06:37.001Z</time></trkpt><trkpt lat="41.82236491535912" lon="-2.9405722697726"><ele>1233.0</ele><time>2026-05-03T11:06:38.001Z</time></trkpt><trkpt lat="41.82229264548405" lon="-2.9404698531963342"><ele>1232.8</ele><time>2026-05-03T11:06:39.001Z</time></trkpt><trkpt lat="41.8222155722988" lon="-2.9403705415081673"><ele>1232.6</ele><time>2026-05-03T11:06:40.001Z</time></trkpt><trkpt lat="41.82213642019354" lon="-2.940278337130722"><ele>1232.4</ele><time>2026-05-03T11:06:41.001Z</time></trkpt><trkpt lat="41.82205373570301" lon="-2.9401895778828187"><ele>1232.2</ele><time>2026-05-03T11:06:42.001Z</time></trkpt><trkpt lat="41.82196985341864" lon="-2.9401050820621517"><ele>1232.0</ele><time>2026-05-03T11:06:43.001Z</time></trkpt><trkpt lat="41.821882537960576" lon="-2.9400206694586934"><ele>1231.6</ele><time>2026-05-03T11:06:44.001Z</time></trkpt><trkpt lat="41.82179600474173" lon="-2.939940395254416"><ele>1231.2</ele><time>2026-05-03T11:06:45.001Z</time></trkpt><trkpt lat="41.821709821294945" lon="-2.9398604103358603"><ele>1230.8</ele><time>2026-05-03T11:06:46.001Z</time></trkpt><trkpt lat="41.82162182098733" lon="-2.9397800609343525"><ele>1230.4</ele><time>2026-05-03T11:06:47.001Z</time></trkpt><trkpt lat="41.8215319816342" lon="-2.9396964586189918"><ele>1230.0</ele><time>2026-05-03T11:06:48.001Z</time></trkpt><trkpt lat="41.82144233784901" lon="-2.939616371937641"><ele>1230.0</ele><time>2026-05-03T11:06:49.001Z</time></trkpt><trkpt lat="41.821351906274536" lon="-2.9395379375970196"><ele>1230.0</ele><time>2026-05-03T11:06:50.001Z</time></trkpt><trkpt lat="41.82126271400478" lon="-2.939457117480503"><ele>1230.0</ele><time>2026-05-03T11:06:51.001Z</time></trkpt><trkpt lat="41.82117302304413" lon="-2.9393765392781086"><ele>1230.0</ele><time>2026-05-03T11:06:52.001Z</time></trkpt><trkpt lat="41.82108216475815" lon="-2.9392997507760175"><ele>1230.0</ele><time>2026-05-03T11:06:53.001Z</time></trkpt><trkpt lat="41.82099132572108" lon="-2.9392201300834397"><ele>1229.4</ele><time>2026-05-03T11:06:54.001Z</time></trkpt><trkpt lat="41.820902083498595" lon="-2.9391412962033883"><ele>1228.8</ele><time>2026-05-03T11:06:55.001Z</time></trkpt><trkpt lat="41.82081375426001" lon="-2.939062576027158"><ele>1228.2</ele><time>2026-05-03T11:06:56.001Z</time></trkpt><trkpt lat="41.82072521284513" lon="-2.9389840674738466"><ele>1227.6</ele><time>2026-05-03T11:06:57.001Z</time></trkpt><trkpt lat="41.820639242246884" lon="-2.9389040609292874"><ele>1227.0</ele><time>2026-05-03T11:06:58.001Z</time></trkpt><trkpt lat="41.82055232055199" lon="-2.9388219667599285"><ele>1227.0</ele><time>2026-05-03T11:06:59.001Z</time></trkpt><trkpt lat="41.82046841998407" lon="-2.93873612335982"><ele>1227.0</ele><time>2026-05-03T11:07:00.001Z</time></trkpt><trkpt lat="41.82038505576948" lon="-2.9386461887654844"><ele>1227.0</ele><time>2026-05-03T11:07:01.001Z</time></trkpt><trkpt lat="41.82030258616724" lon="-2.9385540658941927"><ele>1227.0</ele><time>2026-05-03T11:07:02.001Z</time></trkpt><trkpt lat="41.820223628455516" lon="-2.9384581389059496"><ele>1227.0</ele><time>2026-05-03T11:07:03.001Z</time></trkpt><trkpt lat="41.82014759434796" lon="-2.9383600042078797"><ele>1226.4</ele><time>2026-05-03T11:07:04.001Z</time></trkpt><trkpt lat="41.820073969982545" lon="-2.9382557376688547"><ele>1225.8000000000002</ele><time>2026-05-03T11:07:05.001Z</time></trkpt><trkpt lat="41.82000328202352" lon="-2.938146953555084"><ele>1225.2</ele><time>2026-05-03T11:07:06.001Z</time></trkpt><trkpt lat="41.81993498245927" lon="-2.9380324401998967"><ele>1224.6000000000001</ele><time>2026-05-03T11:07:07.001Z</time></trkpt><trkpt lat="41.81986791483359" lon="-2.9379151007751956"><ele>1224.0</ele><time>2026-05-03T11:07:08.001Z</time></trkpt><trkpt lat="41.81980432783005" lon="-2.937795799015906"><ele>1224.0</ele><time>2026-05-03T11:07:09.001Z</time></trkpt><trkpt lat="41.81974323327593" lon="-2.9376748481628496"><ele>1224.0</ele><time>2026-05-03T11:07:10.001Z</time></trkpt><trkpt lat="41.8196854669461" lon="-2.9375533814351136"><ele>1224.0</ele><time>2026-05-03T11:07:11Z</time></trkpt><trkpt lat="41.81962759805971" lon="-2.9374307264243735"><ele>1224.0</ele><time>2026-05-03T11:07:12Z</time></trkpt><trkpt lat="41.81957194266818" lon="-2.937306261434558"><ele>1224.0</ele><time>2026-05-03T11:07:13Z</time></trkpt><trkpt lat="41.819515084469074" lon="-2.9371838103241155"><ele>1224.0</ele><time>2026-05-03T11:07:14Z</time></trkpt><trkpt lat="41.81945783407832" lon="-2.937058911093291"><ele>1224.0</ele><time>2026-05-03T11:07:15Z</time></trkpt><trkpt lat="41.81940145120157" lon="-2.9369340004393263"><ele>1224.0</ele><time>2026-05-03T11:07:16Z</time></trkpt><trkpt lat="41.8193467535027" lon="-2.936809927339037"><ele>1224.0</ele><time>2026-05-03T11:07:17Z</time></trkpt><trkpt lat="41.81928936527734" lon="-2.93668536533002"><ele>1224.0</ele><time>2026-05-03T11:07:18Z</time></trkpt><trkpt lat="41.81923191783005" lon="-2.936561992856915"><ele>1223.0</ele><time>2026-05-03T11:07:19Z</time></trkpt><trkpt lat="41.819176813377325" lon="-2.936437763361215"><ele>1222.0</ele><time>2026-05-03T11:07:20Z</time></trkpt><trkpt lat="41.819120838817554" lon="-2.936313649159934"><ele>1221.0</ele><time>2026-05-03T11:07:21Z</time></trkpt><trkpt lat="41.81906742151946" lon="-2.936188259797638"><ele>1220.0</ele><time>2026-05-03T11:07:22Z</time></trkpt><trkpt lat="41.81901204346963" lon="-2.936063335387802"><ele>1219.0</ele><time>2026-05-03T11:07:23Z</time></trkpt><trkpt lat="41.818953949423445" lon="-2.935939981783525"><ele>1218.0</ele><time>2026-05-03T11:07:24Z</time></trkpt><trkpt lat="41.81889473952349" lon="-2.9358174385785536"><ele>1217.0</ele><time>2026-05-03T11:07:25Z</time></trkpt><trkpt lat="41.81883650824074" lon="-2.9356927445272616"><ele>1216.0</ele><time>2026-05-03T11:07:26Z</time></trkpt><trkpt lat="41.81877950935043" lon="-2.935569759434099"><ele>1215.0</ele><time>2026-05-03T11:07:27Z</time></trkpt><trkpt lat="41.81872319438478" lon="-2.9354453938972425"><ele>1214.0</ele><time>2026-05-03T11:07:28Z</time></trkpt><trkpt lat="41.818667750307874" lon="-2.9353226914401502"><ele>1214.0</ele><time>2026-05-03T11:07:29Z</time></trkpt><trkpt lat="41.818617108707286" lon="-2.9352013263073458"><ele>1214.0</ele><time>2026-05-03T11:07:30Z</time></trkpt><trkpt lat="41.81855899426419" lon="-2.9350785968217155"><ele>1214.0</ele><time>2026-05-03T11:07:31Z</time></trkpt><trkpt lat="41.8185009507958" lon="-2.9349560219234854"><ele>1214.0</ele><time>2026-05-03T11:07:32Z</time></trkpt><trkpt lat="41.81844511133756" lon="-2.9348337171527734"><ele>1214.0</ele><time>2026-05-03T11:07:33Z</time></trkpt><trkpt lat="41.81838862412802" lon="-2.9347124011807364"><ele>1213.6000000000001</ele><time>2026-05-03T11:07:34Z</time></trkpt><trkpt lat="41.81833241270836" lon="-2.934590819668219"><ele>1213.2</ele><time>2026-05-03T11:07:35Z</time></trkpt><trkpt lat="41.818276773513965" lon="-2.9344657926139255"><ele>1212.8000000000002</ele><time>2026-05-03T11:07:36Z</time></trkpt><trkpt lat="41.818218948557636" lon="-2.9343410905045206"><ele>1212.4</ele><time>2026-05-03T11:07:37Z</time></trkpt><trkpt lat="41.81816240469086" lon="-2.9342159221692814"><ele>1212.0</ele><time>2026-05-03T11:07:38Z</time></trkpt><trkpt lat="41.81810434894269" lon="-2.9340919770939906"><ele>1212.0</ele><time>2026-05-03T11:07:39Z</time></trkpt><trkpt lat="41.81805148708049" lon="-2.9339651168037424"><ele>1212.0</ele><time>2026-05-03T11:07:40Z</time></trkpt><trkpt lat="41.81800876258851" lon="-2.9338334656948066"><ele>1212.0</ele><time>2026-05-03T11:07:41Z</time></trkpt><trkpt lat="41.81796862711819" lon="-2.933696666465672"><ele>1212.0</ele><time>2026-05-03T11:07:42Z</time></trkpt><trkpt lat="41.81793219795403" lon="-2.933562314521607"><ele>1212.0</ele><time>2026-05-03T11:07:43Z</time></trkpt><trkpt lat="41.81789989327402" lon="-2.9334264012497164"><ele>1212.6</ele><time>2026-05-03T11:07:44Z</time></trkpt><trkpt lat="41.81787346762671" lon="-2.933286808194992"><ele>1213.2</ele><time>2026-05-03T11:07:45Z</time></trkpt><trkpt lat="41.81785249936644" lon="-2.933148521823861"><ele>1213.8</ele><time>2026-05-03T11:07:46Z</time></trkpt><trkpt lat="41.817834612141866" lon="-2.9330103758570054"><ele>1214.4</ele><time>2026-05-03T11:07:47Z</time></trkpt><trkpt lat="41.81782240192526" lon="-2.9328693581816063"><ele>1215.0</ele><time>2026-05-03T11:07:48Z</time></trkpt><trkpt lat="41.81781613528792" lon="-2.9327301165683477"><ele>1215.0</ele><time>2026-05-03T11:07:49Z</time></trkpt><trkpt lat="41.81781660386826" lon="-2.932592758201814"><ele>1215.0</ele><time>2026-05-03T11:07:50Z</time></trkpt><trkpt lat="41.81782104469913" lon="-2.9324551057299453"><ele>1215.0</ele><time>2026-05-03T11:07:51Z</time></trkpt><trkpt lat="41.8178318718442" lon="-2.9323183829432433"><ele>1215.0</ele><time>2026-05-03T11:07:52Z</time></trkpt><trkpt lat="41.817845708803596" lon="-2.932183799763203"><ele>1215.0</ele><time>2026-05-03T11:07:53Z</time></trkpt><trkpt lat="41.81786235719772" lon="-2.9320492564130647"><ele>1215.4</ele><time>2026-05-03T11:07:54Z</time></trkpt><trkpt lat="41.81788382506369" lon="-2.9319155536244303"><ele>1215.8</ele><time>2026-05-03T11:07:55Z</time></trkpt><trkpt lat="41.81790925502659" lon="-2.9317837727482"><ele>1216.2</ele><time>2026-05-03T11:07:56Z</time></trkpt><trkpt lat="41.81793635130325" lon="-2.931654772120413"><ele>1216.6</ele><time>2026-05-03T11:07:57Z</time></trkpt><trkpt lat="41.81796538684142" lon="-2.9315256883797534"><ele>1217.0</ele><time>2026-05-03T11:07:58Z</time></trkpt><trkpt lat="41.81799630461185" lon="-2.9313994306896345"><ele>1217.6</ele><time>2026-05-03T11:07:59.001Z</time></trkpt><trkpt lat="41.81802810161628" lon="-2.931276980563036"><ele>1218.2</ele><time>2026-05-03T11:08:00.001Z</time></trkpt><trkpt lat="41.818059007642034" lon="-2.931154330276587"><ele>1218.8</ele><time>2026-05-03T11:08:01.001Z</time></trkpt><trkpt lat="41.81808995983097" lon="-2.9310311858318396"><ele>1219.4</ele><time>2026-05-03T11:08:02.001Z</time></trkpt><trkpt lat="41.81811831666977" lon="-2.9309108915003965"><ele>1220.0</ele><time>2026-05-03T11:08:03.001Z</time></trkpt><trkpt lat="41.818144388904194" lon="-2.930787627286682"><ele>1220.6</ele><time>2026-05-03T11:08:04.001Z</time></trkpt><trkpt lat="41.818169288526235" lon="-2.930666672048561"><ele>1221.2</ele><time>2026-05-03T11:08:05.001Z</time></trkpt><trkpt lat="41.81818840278747" lon="-2.9305495152127943"><ele>1221.8</ele><time>2026-05-03T11:08:06.001Z</time></trkpt><trkpt lat="41.81819915391135" lon="-2.9304286298487052"><ele>1222.4</ele><time>2026-05-03T11:08:07.001Z</time></trkpt><trkpt lat="41.818213845451346" lon="-2.930305070929761"><ele>1223.0</ele><time>2026-05-03T11:08:08.001Z</time></trkpt><trkpt lat="41.8182265752149" lon="-2.930182095345314"><ele>1223.0</ele><time>2026-05-03T11:08:09.001Z</time></trkpt><trkpt lat="41.818240141576325" lon="-2.9300617214616254"><ele>1223.0</ele><time>2026-05-03T11:08:10.001Z</time></trkpt><trkpt lat="41.81824887355215" lon="-2.9299412346127345"><ele>1223.0</ele><time>2026-05-03T11:08:11.001Z</time></trkpt><trkpt lat="41.818254998959645" lon="-2.9298217234546744"><ele>1223.0</ele><time>2026-05-03T11:08:12.001Z</time></trkpt><trkpt lat="41.81825607688093" lon="-2.9297011165372995"><ele>1223.0</ele><time>2026-05-03T11:08:13.001Z</time></trkpt><trkpt lat="41.81825447525532" lon="-2.929577786319173"><ele>1224.0</ele><time>2026-05-03T11:08:14.001Z</time></trkpt><trkpt lat="41.818252564435475" lon="-2.9294557356257536"><ele>1225.0</ele><time>2026-05-03T11:08:15.001Z</time></trkpt><trkpt lat="41.81825102682561" lon="-2.9293332195985307"><ele>1226.0</ele><time>2026-05-03T11:08:16.001Z</time></trkpt><trkpt lat="41.81824956351913" lon="-2.9292113111738627"><ele>1227.0</ele><time>2026-05-03T11:08:17.001Z</time></trkpt><trkpt lat="41.81824898394294" lon="-2.9290903301272087"><ele>1228.0</ele><time>2026-05-03T11:08:18.001Z</time></trkpt><trkpt lat="41.81824768100848" lon="-2.9289675651717193"><ele>1228.8</ele><time>2026-05-03T11:08:19.001Z</time></trkpt><trkpt lat="41.81824737433378" lon="-2.9288426807945025"><ele>1229.6</ele><time>2026-05-03T11:08:20.001Z</time></trkpt><trkpt lat="41.81824525417946" lon="-2.9287167169253467"><ele>1230.4</ele><time>2026-05-03T11:08:21.001Z</time></trkpt><trkpt lat="41.818244887358816" lon="-2.928590636699549"><ele>1231.2</ele><time>2026-05-03T11:08:22.001Z</time></trkpt><trkpt lat="41.81824548716172" lon="-2.9284614083168514"><ele>1232.0</ele><time>2026-05-03T11:08:23.001Z</time></trkpt><trkpt lat="41.81824907730492" lon="-2.9283315941208867"><ele>1232.2</ele><time>2026-05-03T11:08:24.001Z</time></trkpt><trkpt lat="41.81825206660706" lon="-2.9281998737182566"><ele>1232.4</ele><time>2026-05-03T11:08:25.001Z</time></trkpt><trkpt lat="41.81825544219611" lon="-2.9280662465973353"><ele>1232.6</ele><time>2026-05-03T11:08:26.001Z</time></trkpt><trkpt lat="41.81825803541723" lon="-2.9279294408877603"><ele>1232.8</ele><time>2026-05-03T11:08:27.001Z</time></trkpt><trkpt lat="41.818262284764025" lon="-2.927787723623456"><ele>1233.0</ele><time>2026-05-03T11:08:28.001Z</time></trkpt><trkpt lat="41.81826815937342" lon="-2.9276427220977066"><ele>1233.2</ele><time>2026-05-03T11:08:29.001Z</time></trkpt><trkpt lat="41.81827713424833" lon="-2.927502119108018"><ele>1233.4</ele><time>2026-05-03T11:08:30.001Z</time></trkpt><trkpt lat="41.818282962465666" lon="-2.927361937141272"><ele>1233.6000000000001</ele><time>2026-05-03T11:08:31.001Z</time></trkpt><trkpt lat="41.818284872219934" lon="-2.9272169144119458"><ele>1233.8</ele><time>2026-05-03T11:08:32.001Z</time></trkpt><trkpt lat="41.81829203918553" lon="-2.927074357714711"><ele>1234.0</ele><time>2026-05-03T11:08:33.001Z</time></trkpt><trkpt lat="41.818297904199596" lon="-2.926931444841148"><ele>1234.0</ele><time>2026-05-03T11:08:34.001Z</time></trkpt><trkpt lat="41.818303424652264" lon="-2.9267885926509196"><ele>1234.0</ele><time>2026-05-03T11:08:35.001Z</time></trkpt><trkpt lat="41.818308225331464" lon="-2.9266484018803776"><ele>1234.0</ele><time>2026-05-03T11:08:36.001Z</time></trkpt><trkpt lat="41.81831332637279" lon="-2.926500935149666"><ele>1234.0</ele><time>2026-05-03T11:08:37.001Z</time></trkpt><trkpt lat="41.8183199393479" lon="-2.9263530729843406"><ele>1234.0</ele><time>2026-05-03T11:08:38.001Z</time></trkpt><trkpt lat="41.8183269745704" lon="-2.926208763193938"><ele>1233.8</ele><time>2026-05-03T11:08:39.001Z</time></trkpt><trkpt lat="41.81833353733152" lon="-2.926065957090904"><ele>1233.6000000000001</ele><time>2026-05-03T11:08:40.001Z</time></trkpt><trkpt lat="41.81833906230287" lon="-2.925919501770552"><ele>1233.4</ele><time>2026-05-03T11:08:41.001Z</time></trkpt><trkpt lat="41.818343245391496" lon="-2.9257713174954536"><ele>1233.2</ele><time>2026-05-03T11:08:42.001Z</time></trkpt><trkpt lat="41.8183483868607" lon="-2.925625971933703"><ele>1233.0</ele><time>2026-05-03T11:08:43.001Z</time></trkpt><trkpt lat="41.818352799909576" lon="-2.925481163257264"><ele>1232.4</ele><time>2026-05-03T11:08:44.001Z</time></trkpt><trkpt lat="41.81835693257416" lon="-2.9253348605054317"><ele>1231.8</ele><time>2026-05-03T11:08:45.001Z</time></trkpt><trkpt lat="41.818362981395055" lon="-2.9251876221717428"><ele>1231.2</ele><time>2026-05-03T11:08:46.001Z</time></trkpt><trkpt lat="41.81836761512248" lon="-2.925040768707922"><ele>1230.6</ele><time>2026-05-03T11:08:47.001Z</time></trkpt><trkpt lat="41.81837345564222" lon="-2.9248935637522284"><ele>1230.0</ele><time>2026-05-03T11:08:48.001Z</time></trkpt><trkpt lat="41.81837678257817" lon="-2.924747211040351"><ele>1229.75</ele><time>2026-05-03T11:08:49.001Z</time></trkpt><trkpt lat="41.81839043453337" lon="-2.924602621961338"><ele>1229.5</ele><time>2026-05-03T11:08:50.001Z</time></trkpt><trkpt lat="41.81840259441646" lon="-2.924432958428152"><ele>1229.25</ele><time>2026-05-03T11:08:51.001Z</time></trkpt><trkpt lat="41.81841553620617" lon="-2.924241297309539"><ele>1229.0</ele><time>2026-05-03T11:08:52.001Z</time></trkpt><trkpt lat="41.8184152827456" lon="-2.924141766370732"><ele>1227.75</ele><time>2026-05-03T11:08:53.001Z</time></trkpt><trkpt lat="41.818428746606294" lon="-2.9239918893744288"><ele>1226.5</ele><time>2026-05-03T11:08:54.001Z</time></trkpt><trkpt lat="41.81844470856428" lon="-2.923839760204216"><ele>1225.25</ele><time>2026-05-03T11:08:55.001Z</time></trkpt><trkpt lat="41.818461296681605" lon="-2.923685129774934"><ele>1224.0</ele><time>2026-05-03T11:08:56.001Z</time></trkpt><trkpt lat="41.81847702018695" lon="-2.923536830006455"><ele>1222.25</ele><time>2026-05-03T11:08:57.001Z</time></trkpt><trkpt lat="41.818496064076825" lon="-2.923386453275068"><ele>1220.5</ele><time>2026-05-03T11:08:58.001Z</time></trkpt><trkpt lat="41.81851576638946" lon="-2.923238847629632"><ele>1218.75</ele><time>2026-05-03T11:08:59.001Z</time></trkpt><trkpt lat="41.818535024118574" lon="-2.9230854656384997"><ele>1217.0</ele><time>2026-05-03T11:09:00.001Z</time></trkpt><trkpt lat="41.818550976044776" lon="-2.92293460982186"><ele>1217.0</ele><time>2026-05-03T11:09:01.001Z</time></trkpt><trkpt lat="41.818568297913586" lon="-2.922785602997719"><ele>1217.0</ele><time>2026-05-03T11:09:02.001Z</time></trkpt><trkpt lat="41.8185839662936" lon="-2.922637951656049"><ele>1217.0</ele><time>2026-05-03T11:09:03.001Z</time></trkpt><trkpt lat="41.81859620509295" lon="-2.922487132885188"><ele>1217.0</ele><time>2026-05-03T11:09:04.001Z</time></trkpt><trkpt lat="41.818600835189315" lon="-2.9223357203687677"><ele>1216.2</ele><time>2026-05-03T11:09:05.001Z</time></trkpt><trkpt lat="41.81860785102683" lon="-2.9221861950511046"><ele>1215.4</ele><time>2026-05-03T11:09:06.001Z</time></trkpt><trkpt lat="41.818612055866616" lon="-2.922035170393667"><ele>1214.6</ele><time>2026-05-03T11:09:07.001Z</time></trkpt><trkpt lat="41.8186094387943" lon="-2.921886935736883"><ele>1213.8</ele><time>2026-05-03T11:09:08.001Z</time></trkpt><trkpt lat="41.81860583924115" lon="-2.9217359424244154"><ele>1213.0</ele><time>2026-05-03T11:09:09.001Z</time></trkpt><trkpt lat="41.81859203276595" lon="-2.921586068956589"><ele>1213.0</ele><time>2026-05-03T11:09:10.001Z</time></trkpt><trkpt lat="41.818572365897396" lon="-2.921436410504832"><ele>1213.0</ele><time>2026-05-03T11:09:11.001Z</time></trkpt><trkpt lat="41.81854603049264" lon="-2.921292796693195"><ele>1213.0</ele><time>2026-05-03T11:09:12.001Z</time></trkpt><trkpt lat="41.818508857340944" lon="-2.921154946307373"><ele>1213.0</ele><time>2026-05-03T11:09:13.001Z</time></trkpt><trkpt lat="41.81847436180239" lon="-2.9210150359033284"><ele>1213.0</ele><time>2026-05-03T11:09:14.001Z</time></trkpt><trkpt lat="41.81842892000949" lon="-2.9208778623530884"><ele>1214.2</ele><time>2026-05-03T11:09:15.001Z</time></trkpt><trkpt lat="41.818382346310905" lon="-2.9207437568991237"><ele>1215.4</ele><time>2026-05-03T11:09:16.001Z</time></trkpt><trkpt lat="41.81833720543032" lon="-2.9206116928399157"><ele>1216.6000000000001</ele><time>2026-05-03T11:09:17Z</time></trkpt><trkpt lat="41.81828855517772" lon="-2.920479809982372"><ele>1217.8</ele><time>2026-05-03T11:09:18Z</time></trkpt><trkpt lat="41.818232705387906" lon="-2.9203526514899494"><ele>1219.0</ele><time>2026-05-03T11:09:19Z</time></trkpt><trkpt lat="41.81817852506739" lon="-2.9202220681012765"><ele>1219.0</ele><time>2026-05-03T11:09:20Z</time></trkpt><trkpt lat="41.81812467955059" lon="-2.920096112840697"><ele>1219.0</ele><time>2026-05-03T11:09:21Z</time></trkpt><trkpt lat="41.81806808844119" lon="-2.9199677865728098"><ele>1219.0</ele><time>2026-05-03T11:09:22Z</time></trkpt><trkpt lat="41.81801017800491" lon="-2.919845634384645"><ele>1219.0</ele><time>2026-05-03T11:09:23Z</time></trkpt><trkpt lat="41.817953726189344" lon="-2.919724270043484"><ele>1219.0</ele><time>2026-05-03T11:09:24Z</time></trkpt><trkpt lat="41.81790291868149" lon="-2.9195945836754484"><ele>1219.4</ele><time>2026-05-03T11:09:25Z</time></trkpt><trkpt lat="41.8178486375422" lon="-2.919469911934773"><ele>1219.8000000000002</ele><time>2026-05-03T11:09:26Z</time></trkpt><trkpt lat="41.817792882179866" lon="-2.91934703567616"><ele>1220.1999999999998</ele><time>2026-05-03T11:09:27Z</time></trkpt><trkpt lat="41.81774072324478" lon="-2.9192170688939587"><ele>1220.6</ele><time>2026-05-03T11:09:28Z</time></trkpt><trkpt lat="41.817689423968645" lon="-2.919089042489408"><ele>1221.0</ele><time>2026-05-03T11:09:29Z</time></trkpt><trkpt lat="41.817638191530676" lon="-2.9189619524921744"><ele>1219.6</ele><time>2026-05-03T11:09:30Z</time></trkpt><trkpt lat="41.81758885057247" lon="-2.9188356521587333"><ele>1218.1999999999998</ele><time>2026-05-03T11:09:31Z</time></trkpt><trkpt lat="41.81754063021782" lon="-2.91870554880693"><ele>1216.8000000000002</ele><time>2026-05-03T11:09:32Z</time></trkpt><trkpt lat="41.817491869013594" lon="-2.9185753037237485"><ele>1215.4</ele><time>2026-05-03T11:09:33Z</time></trkpt><trkpt lat="41.817446877387304" lon="-2.918443515730041"><ele>1214.0</ele><time>2026-05-03T11:09:34Z</time></trkpt><trkpt lat="41.817403692893365" lon="-2.918309894763562"><ele>1214.0</ele><time>2026-05-03T11:09:35Z</time></trkpt><trkpt lat="41.81736031332209" lon="-2.9181751957425592"><ele>1214.0</ele><time>2026-05-03T11:09:36Z</time></trkpt><trkpt lat="41.817321356187506" lon="-2.9180423613462025"><ele>1214.0</ele><time>2026-05-03T11:09:37Z</time></trkpt><trkpt lat="41.817282194452815" lon="-2.9179058280723615"><ele>1214.0</ele><time>2026-05-03T11:09:38Z</time></trkpt><trkpt lat="41.81724284142027" lon="-2.9177673388798544"><ele>1214.0</ele><time>2026-05-03T11:09:39Z</time></trkpt><trkpt lat="41.81720095558664" lon="-2.9176310295451"><ele>1214.0</ele><time>2026-05-03T11:09:40Z</time></trkpt><trkpt lat="41.817162662717244" lon="-2.9174816805839363"><ele>1214.0</ele><time>2026-05-03T11:09:41Z</time></trkpt><trkpt lat="41.81711975781998" lon="-2.9173462222856013"><ele>1214.0</ele><time>2026-05-03T11:09:42Z</time></trkpt><trkpt lat="41.817076275873745" lon="-2.917203526779758"><ele>1214.0</ele><time>2026-05-03T11:09:43Z</time></trkpt><trkpt lat="41.81703322792551" lon="-2.9170601361772595"><ele>1214.0</ele><time>2026-05-03T11:09:44Z</time></trkpt><trkpt lat="41.81698951631445" lon="-2.916915884921198"><ele>1214.0</ele><time>2026-05-03T11:09:45Z</time></trkpt><trkpt lat="41.81694878426468" lon="-2.91677382469086"><ele>1214.0</ele><time>2026-05-03T11:09:46Z</time></trkpt><trkpt lat="41.81690669899724" lon="-2.916636449052259"><ele>1214.0</ele><time>2026-05-03T11:09:47Z</time></trkpt><trkpt lat="41.81686276596499" lon="-2.9164913610522567"><ele>1213.25</ele><time>2026-05-03T11:09:48Z</time></trkpt><trkpt lat="41.81682008003761" lon="-2.916346150836957"><ele>1212.5</ele><time>2026-05-03T11:09:49Z</time></trkpt><trkpt lat="41.816779841678354" lon="-2.916205600975442"><ele>1211.75</ele><time>2026-05-03T11:09:50Z</time></trkpt><trkpt lat="41.81673746987123" lon="-2.9160648857374842"><ele>1211.0</ele><time>2026-05-03T11:09:51Z</time></trkpt><trkpt lat="41.81669734833659" lon="-2.915925040839765"><ele>1209.75</ele><time>2026-05-03T11:09:52Z</time></trkpt><trkpt lat="41.816657152043874" lon="-2.9157848227404464"><ele>1208.5</ele><time>2026-05-03T11:09:53Z</time></trkpt><trkpt lat="41.81661671529814" lon="-2.9156410472880654"><ele>1207.25</ele><time>2026-05-03T11:09:54Z</time></trkpt><trkpt lat="41.81657584699599" lon="-2.9154976768145455"><ele>1206.0</ele><time>2026-05-03T11:09:55Z</time></trkpt><trkpt lat="41.81653526904674" lon="-2.9153571495931847"><ele>1206.0</ele><time>2026-05-03T11:09:56Z</time></trkpt><trkpt lat="41.81649249945828" lon="-2.91521475344978"><ele>1206.0</ele><time>2026-05-03T11:09:57Z</time></trkpt><trkpt lat="41.81645207425833" lon="-2.9150704192707977"><ele>1206.0</ele><time>2026-05-03T11:09:58Z</time></trkpt><trkpt lat="41.816409473497664" lon="-2.914928648803642"><ele>1206.0</ele><time>2026-05-03T11:09:59Z</time></trkpt><trkpt lat="41.81636715934139" lon="-2.9147865096726777"><ele>1205.8</ele><time>2026-05-03T11:10:00Z</time></trkpt><trkpt lat="41.816326699038356" lon="-2.914649057903673"><ele>1205.6</ele><time>2026-05-03T11:10:01Z</time></trkpt><trkpt lat="41.81628546683039" lon="-2.9145072895787223"><ele>1205.4</ele><time>2026-05-03T11:10:02Z</time></trkpt><trkpt lat="41.81624503690273" lon="-2.914367262217964"><ele>1205.2</ele><time>2026-05-03T11:10:03Z</time></trkpt><trkpt lat="41.816202445066956" lon="-2.914227484586301"><ele>1205.0</ele><time>2026-05-03T11:10:04Z</time></trkpt><trkpt lat="41.81615807873388" lon="-2.9140865525194197"><ele>1204.75</ele><time>2026-05-03T11:10:05Z</time></trkpt><trkpt lat="41.81611778037453" lon="-2.9139433972785693"><ele>1204.5</ele><time>2026-05-03T11:10:06Z</time></trkpt><trkpt lat="41.81607639166655" lon="-2.9138007688795584"><ele>1204.25</ele><time>2026-05-03T11:10:07Z</time></trkpt><trkpt lat="41.81603569877074" lon="-2.913658849951633"><ele>1204.0</ele><time>2026-05-03T11:10:08Z</time></trkpt><trkpt lat="41.81599283120481" lon="-2.913518146568327"><ele>1202.75</ele><time>2026-05-03T11:10:09Z</time></trkpt><trkpt lat="41.81595119767926" lon="-2.913375015090381"><ele>1201.5</ele><time>2026-05-03T11:10:10Z</time></trkpt><trkpt lat="41.815909273354194" lon="-2.9132353885550857"><ele>1200.25</ele><time>2026-05-03T11:10:11Z</time></trkpt><trkpt lat="41.815868489334925" lon="-2.913094851402663"><ele>1199.0</ele><time>2026-05-03T11:10:12Z</time></trkpt><trkpt lat="41.81582596225137" lon="-2.912954079841615"><ele>1199.0</ele><time>2026-05-03T11:10:13Z</time></trkpt><trkpt lat="41.81578185614354" lon="-2.9128129335865487"><ele>1199.0</ele><time>2026-05-03T11:10:14Z</time></trkpt><trkpt lat="41.81574149586471" lon="-2.912679703866282"><ele>1199.0</ele><time>2026-05-03T11:10:15Z</time></trkpt><trkpt lat="41.81569744729221" lon="-2.9125294375302433"><ele>1199.0</ele><time>2026-05-03T11:10:16Z</time></trkpt><trkpt lat="41.81566074488634" lon="-2.9124031616523207"><ele>1199.0</ele><time>2026-05-03T11:10:17Z</time></trkpt><trkpt lat="41.815618822772564" lon="-2.9122519693419235"><ele>1198.8</ele><time>2026-05-03T11:10:18Z</time></trkpt><trkpt lat="41.81557509446774" lon="-2.9121177479694613"><ele>1198.6000000000001</ele><time>2026-05-03T11:10:19Z</time></trkpt><trkpt lat="41.81553173425522" lon="-2.9119776996816498"><ele>1198.4</ele><time>2026-05-03T11:10:20Z</time></trkpt><trkpt lat="41.81550238573597" lon="-2.911832571515661"><ele>1198.2</ele><time>2026-05-03T11:10:21Z</time></trkpt><trkpt lat="41.815463544913044" lon="-2.911694688619234"><ele>1198.0</ele><time>2026-05-03T11:10:22Z</time></trkpt><trkpt lat="41.8154259712712" lon="-2.911555067660256"><ele>1198.4</ele><time>2026-05-03T11:10:23Z</time></trkpt><trkpt lat="41.81538918786228" lon="-2.9114132970908795"><ele>1198.8</ele><time>2026-05-03T11:10:24Z</time></trkpt><trkpt lat="41.81534868998003" lon="-2.911275822256527"><ele>1199.2</ele><time>2026-05-03T11:10:25Z</time></trkpt><trkpt lat="41.815316623658795" lon="-2.9111389753141483"><ele>1199.6</ele><time>2026-05-03T11:10:26Z</time></trkpt><trkpt lat="41.81528067022494" lon="-2.9110038049698836"><ele>1200.0</ele><time>2026-05-03T11:10:27Z</time></trkpt><trkpt lat="41.815246096659884" lon="-2.9108668758582845"><ele>1200.2</ele><time>2026-05-03T11:10:28Z</time></trkpt><trkpt lat="41.815214026414" lon="-2.9107320847745295"><ele>1200.4</ele><time>2026-05-03T11:10:29.001Z</time></trkpt><trkpt lat="41.815179905850286" lon="-2.9105944263599093"><ele>1200.6</ele><time>2026-05-03T11:10:30.001Z</time></trkpt><trkpt lat="41.81514713535674" lon="-2.9104591940013376"><ele>1200.8</ele><time>2026-05-03T11:10:31.001Z</time></trkpt><trkpt lat="41.81511655894156" lon="-2.910325132283649"><ele>1201.0</ele><time>2026-05-03T11:10:32.001Z</time></trkpt><trkpt lat="41.81508121075466" lon="-2.910189347553516"><ele>1200.6</ele><time>2026-05-03T11:10:33.001Z</time></trkpt><trkpt lat="41.81504854359836" lon="-2.910053799801995"><ele>1200.1999999999998</ele><time>2026-05-03T11:10:34.001Z</time></trkpt><trkpt lat="41.815016402827716" lon="-2.9099157615808755"><ele>1199.8000000000002</ele><time>2026-05-03T11:10:35.001Z</time></trkpt><trkpt lat="41.81498354580587" lon="-2.909776879208855"><ele>1199.4</ele><time>2026-05-03T11:10:36.001Z</time></trkpt><trkpt lat="41.81495037272257" lon="-2.9096360328733137"><ele>1199.0</ele><time>2026-05-03T11:10:37.001Z</time></trkpt><trkpt lat="41.8149196879407" lon="-2.909493343356925"><ele>1199.0</ele><time>2026-05-03T11:10:38.001Z</time></trkpt><trkpt lat="41.8148913627628" lon="-2.9093582207894904"><ele>1199.0</ele><time>2026-05-03T11:10:39.001Z</time></trkpt><trkpt lat="41.81487009472007" lon="-2.9092672204045424"><ele>1199.0</ele><time>2026-05-03T11:10:40.001Z</time></trkpt><trkpt lat="41.8148519289628" lon="-2.909174414210847"><ele>1199.0</ele><time>2026-05-03T11:10:41.001Z</time></trkpt><trkpt lat="41.81481601475545" lon="-2.909027044871279"><ele>1199.0</ele><time>2026-05-03T11:10:42.001Z</time></trkpt><trkpt lat="41.81477171250564" lon="-2.908842697830251"><ele>1198.75</ele><time>2026-05-03T11:10:43.001Z</time></trkpt><trkpt lat="41.81473193621599" lon="-2.90868330864571"><ele>1198.5</ele><time>2026-05-03T11:10:44.001Z</time></trkpt><trkpt lat="41.81468587076883" lon="-2.908497324739734"><ele>1198.25</ele><time>2026-05-03T11:10:45.001Z</time></trkpt><trkpt lat="41.8146515344021" lon="-2.9083541661679573"><ele>1198.0</ele><time>2026-05-03T11:10:46.001Z</time></trkpt><trkpt lat="41.81461556066772" lon="-2.908214033976355"><ele>1198.0</ele><time>2026-05-03T11:10:47.001Z</time></trkpt><trkpt lat="41.814581957626416" lon="-2.908069982922792"><ele>1198.0</ele><time>2026-05-03T11:10:48.001Z</time></trkpt><trkpt lat="41.81454793910561" lon="-2.9079285287379815"><ele>1198.0</ele><time>2026-05-03T11:10:49.001Z</time></trkpt><trkpt lat="41.81451602001222" lon="-2.9077857108764897"><ele>1198.0</ele><time>2026-05-03T11:10:50.001Z</time></trkpt><trkpt lat="41.81448296070628" lon="-2.90764274107086"><ele>1198.0</ele><time>2026-05-03T11:10:51.001Z</time></trkpt><trkpt lat="41.814450189204116" lon="-2.9075054358131203"><ele>1198.6</ele><time>2026-05-03T11:10:52.001Z</time></trkpt><trkpt lat="41.81441907839594" lon="-2.9073667137757635"><ele>1199.1999999999998</ele><time>2026-05-03T11:10:53.001Z</time></trkpt><trkpt lat="41.81438557592556" lon="-2.907224449357731"><ele>1199.8</ele><time>2026-05-03T11:10:54.001Z</time></trkpt><trkpt lat="41.8143543017733" lon="-2.9070854571631606"><ele>1200.3999999999999</ele><time>2026-05-03T11:10:55.001Z</time></trkpt><trkpt lat="41.81432271414801" lon="-2.9069438083234753"><ele>1201.0</ele><time>2026-05-03T11:10:56.001Z</time></trkpt><trkpt lat="41.81429484691136" lon="-2.9068033673700597"><ele>1199.3999999999999</ele><time>2026-05-03T11:10:57.001Z</time></trkpt><trkpt lat="41.81426963450355" lon="-2.9066635099591354"><ele>1197.8</ele><time>2026-05-03T11:10:58.001Z</time></trkpt><trkpt lat="41.814245358222" lon="-2.9065190705705626"><ele>1196.1999999999998</ele><time>2026-05-03T11:10:59.001Z</time></trkpt><trkpt lat="41.814219824434204" lon="-2.906373070929547"><ele>1194.6</ele><time>2026-05-03T11:11:00.001Z</time></trkpt><trkpt lat="41.8141992623489" lon="-2.906226801598846"><ele>1193.0</ele><time>2026-05-03T11:11:01.001Z</time></trkpt><trkpt lat="41.81417864770108" lon="-2.906077278556401"><ele>1193.0</ele><time>2026-05-03T11:11:02.001Z</time></trkpt><trkpt lat="41.814159222714636" lon="-2.9059270313578263"><ele>1193.0</ele><time>2026-05-03T11:11:03.001Z</time></trkpt><trkpt lat="41.814141157662576" lon="-2.9057777125978577"><ele>1193.0</ele><time>2026-05-03T11:11:04.001Z</time></trkpt><trkpt lat="41.81412309689393" lon="-2.9056255775128164"><ele>1193.0</ele><time>2026-05-03T11:11:05.001Z</time></trkpt><trkpt lat="41.814106704911595" lon="-2.9054756794376617"><ele>1192.25</ele><time>2026-05-03T11:11:06.001Z</time></trkpt><trkpt lat="41.81408806331608" lon="-2.9053251372919933"><ele>1191.5</ele><time>2026-05-03T11:11:07.001Z</time></trkpt><trkpt lat="41.81407178235523" lon="-2.905175003624834"><ele>1190.75</ele><time>2026-05-03T11:11:08.001Z</time></trkpt><trkpt lat="41.8140527020185" lon="-2.905027977851514"><ele>1190.0</ele><time>2026-05-03T11:11:09.001Z</time></trkpt><trkpt lat="41.81403042228897" lon="-2.904874929771624"><ele>1189.75</ele><time>2026-05-03T11:11:10.001Z</time></trkpt><trkpt lat="41.81401467700561" lon="-2.904728718952408"><ele>1189.5</ele><time>2026-05-03T11:11:11.001Z</time></trkpt><trkpt lat="41.8139969722977" lon="-2.904579657355611"><ele>1189.25</ele><time>2026-05-03T11:11:12.001Z</time></trkpt><trkpt lat="41.81397799455258" lon="-2.90442753395436"><ele>1189.0</ele><time>2026-05-03T11:11:13.001Z</time></trkpt><trkpt lat="41.813961086838354" lon="-2.904273695992594"><ele>1189.0</ele><time>2026-05-03T11:11:14.001Z</time></trkpt><trkpt lat="41.813946132963956" lon="-2.904120443598799"><ele>1189.0</ele><time>2026-05-03T11:11:15.001Z</time></trkpt><trkpt lat="41.81392605444077" lon="-2.9039693601448398"><ele>1189.0</ele><time>2026-05-03T11:11:16.001Z</time></trkpt><trkpt lat="41.81390778515691" lon="-2.9038167010701237"><ele>1189.0</ele><time>2026-05-03T11:11:17.001Z</time></trkpt><trkpt lat="41.81389166539445" lon="-2.9036610942263326"><ele>1189.0</ele><time>2026-05-03T11:11:18.001Z</time></trkpt><trkpt lat="41.813869603451295" lon="-2.9035076698209505"><ele>1189.0</ele><time>2026-05-03T11:11:19.001Z</time></trkpt><trkpt lat="41.81385149921701" lon="-2.9033544197142636"><ele>1189.0</ele><time>2026-05-03T11:11:20.001Z</time></trkpt><trkpt lat="41.813835347225925" lon="-2.9032028190356507"><ele>1189.0</ele><time>2026-05-03T11:11:21.001Z</time></trkpt><trkpt lat="41.813815371158505" lon="-2.9030510180978504"><ele>1187.75</ele><time>2026-05-03T11:11:22.001Z</time></trkpt><trkpt lat="41.813800742180824" lon="-2.9028982910357444"><ele>1186.5</ele><time>2026-05-03T11:11:23Z</time></trkpt><trkpt lat="41.81378051689591" lon="-2.9027442742530005"><ele>1185.25</ele><time>2026-05-03T11:11:24Z</time></trkpt><trkpt lat="41.81376319621392" lon="-2.9025916028558973"><ele>1184.0</ele><time>2026-05-03T11:11:25Z</time></trkpt><trkpt lat="41.81374625588966" lon="-2.902439859679263"><ele>1183.25</ele><time>2026-05-03T11:11:26Z</time></trkpt><trkpt lat="41.813728404485204" lon="-2.902286127729387"><ele>1182.5</ele><time>2026-05-03T11:11:27Z</time></trkpt><trkpt lat="41.81371001110942" lon="-2.9021365208457373"><ele>1181.75</ele><time>2026-05-03T11:11:28Z</time></trkpt><trkpt lat="41.8136952180426" lon="-2.9019855019027707"><ele>1181.0</ele><time>2026-05-03T11:11:29Z</time></trkpt><trkpt lat="41.813685281323544" lon="-2.9018310276753763"><ele>1180.25</ele><time>2026-05-03T11:11:30Z</time></trkpt><trkpt lat="41.81367696990115" lon="-2.9016786419127114"><ele>1179.5</ele><time>2026-05-03T11:11:31Z</time></trkpt><trkpt lat="41.813669987240324" lon="-2.901523296761495"><ele>1178.75</ele><time>2026-05-03T11:11:32Z</time></trkpt><trkpt lat="41.81366508861928" lon="-2.901371628503438"><ele>1178.0</ele><time>2026-05-03T11:11:33Z</time></trkpt><trkpt lat="41.81366787155195" lon="-2.901217841729782"><ele>1178.0</ele><time>2026-05-03T11:11:34Z</time></trkpt><trkpt lat="41.813674939135666" lon="-2.9010629410197306"><ele>1178.0</ele><time>2026-05-03T11:11:35Z</time></trkpt><trkpt lat="41.81368078245847" lon="-2.9009110263326874"><ele>1178.0</ele><time>2026-05-03T11:11:36Z</time></trkpt><trkpt lat="41.81369339561004" lon="-2.9007564162943047"><ele>1178.0</ele><time>2026-05-03T11:11:37Z</time></trkpt><trkpt lat="41.81371048441851" lon="-2.9006023636302727"><ele>1177.0</ele><time>2026-05-03T11:11:38Z</time></trkpt><trkpt lat="41.81372364698286" lon="-2.900449649736439"><ele>1176.0</ele><time>2026-05-03T11:11:39Z</time></trkpt><trkpt lat="41.81373678064181" lon="-2.9002953845524053"><ele>1175.0</ele><time>2026-05-03T11:11:40Z</time></trkpt><trkpt lat="41.81375081541419" lon="-2.900144148899992"><ele>1174.0</ele><time>2026-05-03T11:11:41Z</time></trkpt><trkpt lat="41.81376787707045" lon="-2.899992125859959"><ele>1173.5</ele><time>2026-05-03T11:11:42Z</time></trkpt><trkpt lat="41.81378487299921" lon="-2.899836408965285"><ele>1173.0</ele><time>2026-05-03T11:11:43Z</time></trkpt><trkpt lat="41.81379904527338" lon="-2.899684739758462"><ele>1172.5</ele><time>2026-05-03T11:11:44Z</time></trkpt><trkpt lat="41.81381258952413" lon="-2.899533470098613"><ele>1172.0</ele><time>2026-05-03T11:11:45Z</time></trkpt><trkpt lat="41.81383027581312" lon="-2.8993844558301762"><ele>1171.0</ele><time>2026-05-03T11:11:46Z</time></trkpt><trkpt lat="41.8138462610802" lon="-2.899228432479876"><ele>1170.0</ele><time>2026-05-03T11:11:47Z</time></trkpt><trkpt lat="41.813863316938054" lon="-2.899076171617982"><ele>1169.0</ele><time>2026-05-03T11:11:48Z</time></trkpt><trkpt lat="41.813876190709664" lon="-2.8989259754735097"><ele>1168.0</ele><time>2026-05-03T11:11:49Z</time></trkpt><trkpt lat="41.8138941772481" lon="-2.8987759699433533"><ele>1168.0</ele><time>2026-05-03T11:11:50Z</time></trkpt><trkpt lat="41.81390586966329" lon="-2.89862178326481"><ele>1168.0</ele><time>2026-05-03T11:11:51Z</time></trkpt><trkpt lat="41.81392230900723" lon="-2.898475900853555"><ele>1168.0</ele><time>2026-05-03T11:11:52Z</time></trkpt><trkpt lat="41.81393748769987" lon="-2.8983275659526844"><ele>1168.0</ele><time>2026-05-03T11:11:53Z</time></trkpt><trkpt lat="41.81395028891255" lon="-2.8981761401624246"><ele>1168.25</ele><time>2026-05-03T11:11:54Z</time></trkpt><trkpt lat="41.813968371616525" lon="-2.8980264805278795"><ele>1168.5</ele><time>2026-05-03T11:11:55Z</time></trkpt><trkpt lat="41.81398289012177" lon="-2.8978756407161277"><ele>1168.75</ele><time>2026-05-03T11:11:56Z</time></trkpt><trkpt lat="41.81400172350851" lon="-2.897722948014966"><ele>1169.0</ele><time>2026-05-03T11:11:57Z</time></trkpt><trkpt lat="41.81401467174794" lon="-2.897570052044812"><ele>1169.0</ele><time>2026-05-03T11:11:58Z</time></trkpt><trkpt lat="41.814028269339396" lon="-2.89741751682863"><ele>1169.0</ele><time>2026-05-03T11:11:59Z</time></trkpt><trkpt lat="41.814040231202625" lon="-2.897264943491282"><ele>1169.0</ele><time>2026-05-03T11:12:00Z</time></trkpt><trkpt lat="41.81404967796445" lon="-2.8971147184142585"><ele>1169.0</ele><time>2026-05-03T11:12:01Z</time></trkpt><trkpt lat="41.81405840266328" lon="-2.896962849951914"><ele>1169.0</ele><time>2026-05-03T11:12:02Z</time></trkpt><trkpt lat="41.81406628456315" lon="-2.896809727847284"><ele>1169.0</ele><time>2026-05-03T11:12:03Z</time></trkpt><trkpt lat="41.814065404021115" lon="-2.896658872066577"><ele>1169.0</ele><time>2026-05-03T11:12:04Z</time></trkpt><trkpt lat="41.81406350828668" lon="-2.896508246533225"><ele>1169.0</ele><time>2026-05-03T11:12:05Z</time></trkpt><trkpt lat="41.81406074782303" lon="-2.896356792337324"><ele>1170.75</ele><time>2026-05-03T11:12:06Z</time></trkpt><trkpt lat="41.81405547065522" lon="-2.896206243753472"><ele>1172.5</ele><time>2026-05-03T11:12:07Z</time></trkpt><trkpt lat="41.8140482946547" lon="-2.8960533203123258"><ele>1174.25</ele><time>2026-05-03T11:12:08Z</time></trkpt><trkpt lat="41.81403358314936" lon="-2.895904108922538"><ele>1176.0</ele><time>2026-05-03T11:12:09Z</time></trkpt><trkpt lat="41.81401738901966" lon="-2.8957561590620107"><ele>1176.5</ele><time>2026-05-03T11:12:10Z</time></trkpt><trkpt lat="41.81399752054165" lon="-2.895607794363787"><ele>1177.0</ele><time>2026-05-03T11:12:11Z</time></trkpt><trkpt lat="41.81397534291772" lon="-2.895460851212487"><ele>1177.5</ele><time>2026-05-03T11:12:12Z</time></trkpt><trkpt lat="41.81395265958776" lon="-2.8953110036304928"><ele>1178.0</ele><time>2026-05-03T11:12:13Z</time></trkpt><trkpt lat="41.81392854879531" lon="-2.8951639613256916"><ele>1178.0</ele><time>2026-05-03T11:12:14Z</time></trkpt><trkpt lat="41.813902295908726" lon="-2.8950174904532835"><ele>1178.0</ele><time>2026-05-03T11:12:15Z</time></trkpt><trkpt lat="41.8138742538522" lon="-2.894864954282145"><ele>1178.0</ele><time>2026-05-03T11:12:16Z</time></trkpt><trkpt lat="41.81383936073126" lon="-2.894724804931835"><ele>1178.0</ele><time>2026-05-03T11:12:17Z</time></trkpt><trkpt lat="41.813800668062584" lon="-2.894583605165237"><ele>1178.0</ele><time>2026-05-03T11:12:18Z</time></trkpt><trkpt lat="41.813757777828705" lon="-2.8944425688217676"><ele>1178.0</ele><time>2026-05-03T11:12:19Z</time></trkpt><trkpt lat="41.81371245418011" lon="-2.8943038950606694"><ele>1178.0</ele><time>2026-05-03T11:12:20Z</time></trkpt><trkpt lat="41.813672039051056" lon="-2.894173922823464"><ele>1178.0</ele><time>2026-05-03T11:12:21Z</time></trkpt><trkpt lat="41.81361955525917" lon="-2.8940407947913145"><ele>1178.0</ele><time>2026-05-03T11:12:22Z</time></trkpt><trkpt lat="41.813572236967" lon="-2.8939095826318235"><ele>1178.0</ele><time>2026-05-03T11:12:23Z</time></trkpt><trkpt lat="41.81352362690488" lon="-2.89377999114417"><ele>1178.0</ele><time>2026-05-03T11:12:24Z</time></trkpt><trkpt lat="41.81347102090915" lon="-2.893656357092983"><ele>1178.0</ele><time>2026-05-03T11:12:25Z</time></trkpt><trkpt lat="41.81341864700349" lon="-2.893537484736124"><ele>1178.0</ele><time>2026-05-03T11:12:26Z</time></trkpt><trkpt lat="41.81336315704159" lon="-2.8934154678814115"><ele>1178.0</ele><time>2026-05-03T11:12:27Z</time></trkpt><trkpt lat="41.81330484598792" lon="-2.893293858107519"><ele>1178.0</ele><time>2026-05-03T11:12:28Z</time></trkpt><trkpt lat="41.81324380544917" lon="-2.8931744596074203"><ele>1178.0</ele><time>2026-05-03T11:12:29Z</time></trkpt><trkpt lat="41.813179348008234" lon="-2.8930606255450715"><ele>1178.0</ele><time>2026-05-03T11:12:30Z</time></trkpt><trkpt lat="41.81311405812749" lon="-2.8929425737026797"><ele>1178.0</ele><time>2026-05-03T11:12:31Z</time></trkpt><trkpt lat="41.81304616846155" lon="-2.8928238024549744"><ele>1178.0</ele><time>2026-05-03T11:12:32Z</time></trkpt><trkpt lat="41.81297670586987" lon="-2.892707433435561"><ele>1178.0</ele><time>2026-05-03T11:12:33Z</time></trkpt><trkpt lat="41.81291002570698" lon="-2.892591773293467"><ele>1178.0</ele><time>2026-05-03T11:12:34Z</time></trkpt><trkpt lat="41.812842051680015" lon="-2.892476324239955"><ele>1178.0</ele><time>2026-05-03T11:12:35Z</time></trkpt><trkpt lat="41.812772586127615" lon="-2.8923594854078827"><ele>1178.0</ele><time>2026-05-03T11:12:36Z</time></trkpt><trkpt lat="41.812704102167814" lon="-2.8922440513892846"><ele>1178.0</ele><time>2026-05-03T11:12:37Z</time></trkpt><trkpt lat="41.81263460934196" lon="-2.892135505857618"><ele>1177.6</ele><time>2026-05-03T11:12:38Z</time></trkpt><trkpt lat="41.81256790718227" lon="-2.892019004149899"><ele>1177.1999999999998</ele><time>2026-05-03T11:12:39Z</time></trkpt><trkpt lat="41.81249778981659" lon="-2.89190688461198"><ele>1176.8</ele><time>2026-05-03T11:12:40Z</time></trkpt><trkpt lat="41.81243283446731" lon="-2.8917954713941936"><ele>1176.3999999999999</ele><time>2026-05-03T11:12:41Z</time></trkpt><trkpt lat="41.81236428437571" lon="-2.8916805353877035"><ele>1176.0</ele><time>2026-05-03T11:12:42.001Z</time></trkpt><trkpt lat="41.81230119416308" lon="-2.891569027462481"><ele>1176.0</ele><time>2026-05-03T11:12:43.001Z</time></trkpt><trkpt lat="41.8122366520002" lon="-2.8914591243117953"><ele>1176.0</ele><time>2026-05-03T11:12:44.001Z</time></trkpt><trkpt lat="41.812175200843406" lon="-2.891342575322639"><ele>1176.0</ele><time>2026-05-03T11:12:45.001Z</time></trkpt><trkpt lat="41.8121180296551" lon="-2.891224760264962"><ele>1176.0</ele><time>2026-05-03T11:12:46.001Z</time></trkpt><trkpt lat="41.812060254669106" lon="-2.891104227419598"><ele>1176.0</ele><time>2026-05-03T11:12:47.001Z</time></trkpt><trkpt lat="41.81200743830942" lon="-2.8909843865678493"><ele>1175.8</ele><time>2026-05-03T11:12:48.001Z</time></trkpt><trkpt lat="41.81195581609756" lon="-2.890860584635746"><ele>1175.6</ele><time>2026-05-03T11:12:49.001Z</time></trkpt><trkpt lat="41.8119055798397" lon="-2.890731803216588"><ele>1175.4</ele><time>2026-05-03T11:12:50.001Z</time></trkpt><trkpt lat="41.81185637814841" lon="-2.8905995226002754"><ele>1175.2</ele><time>2026-05-03T11:12:51.001Z</time></trkpt><trkpt lat="41.81180977459419" lon="-2.8904592012841044"><ele>1175.0</ele><time>2026-05-03T11:12:52.001Z</time></trkpt><trkpt lat="41.81176813557555" lon="-2.8903332579653385"><ele>1175.0</ele><time>2026-05-03T11:12:53.001Z</time></trkpt><trkpt lat="41.81172721824983" lon="-2.8901924245431956"><ele>1175.0</ele><time>2026-05-03T11:12:54.001Z</time></trkpt><trkpt lat="41.81169122942644" lon="-2.890060869953188"><ele>1175.0</ele><time>2026-05-03T11:12:55.001Z</time></trkpt><trkpt lat="41.81167188054606" lon="-2.889968787911108"><ele>1175.0</ele><time>2026-05-03T11:12:56.001Z</time></trkpt><trkpt lat="41.81163633250059" lon="-2.889838667626411"><ele>1175.0</ele><time>2026-05-03T11:12:57.001Z</time></trkpt><trkpt lat="41.81158608188545" lon="-2.8896208834608657"><ele>1174.75</ele><time>2026-05-03T11:12:58.001Z</time></trkpt><trkpt lat="41.81155752369348" lon="-2.889472530965595"><ele>1174.5</ele><time>2026-05-03T11:12:59.001Z</time></trkpt><trkpt lat="41.81152743865635" lon="-2.889327064698189"><ele>1174.25</ele><time>2026-05-03T11:13:00.001Z</time></trkpt><trkpt lat="41.8115012536266" lon="-2.889178485174612"><ele>1174.0</ele><time>2026-05-03T11:13:01.001Z</time></trkpt><trkpt lat="41.811476940867344" lon="-2.889033873479393"><ele>1174.0</ele><time>2026-05-03T11:13:02.001Z</time></trkpt><trkpt lat="41.811450057587955" lon="-2.8888810090270276"><ele>1174.0</ele><time>2026-05-03T11:13:03.001Z</time></trkpt><trkpt lat="41.811425850933695" lon="-2.888741060448166"><ele>1174.0</ele><time>2026-05-03T11:13:04.001Z</time></trkpt><trkpt lat="41.811402414596536" lon="-2.8885964101828225"><ele>1174.0</ele><time>2026-05-03T11:13:05.001Z</time></trkpt><trkpt lat="41.81137936113113" lon="-2.8884497990927893"><ele>1174.0</ele><time>2026-05-03T11:13:06.001Z</time></trkpt><trkpt lat="41.81135478026978" lon="-2.8882991708301953"><ele>1174.0</ele><time>2026-05-03T11:13:07.001Z</time></trkpt><trkpt lat="41.81132664270394" lon="-2.8881471223224344"><ele>1174.0</ele><time>2026-05-03T11:13:08.001Z</time></trkpt><trkpt lat="41.81130288526592" lon="-2.887996436487142"><ele>1174.0</ele><time>2026-05-03T11:13:09.001Z</time></trkpt><trkpt lat="41.811280517222066" lon="-2.887853325474004"><ele>1174.0</ele><time>2026-05-03T11:13:10.001Z</time></trkpt><trkpt lat="41.81125582305532" lon="-2.887706120141181"><ele>1174.4</ele><time>2026-05-03T11:13:11.001Z</time></trkpt><trkpt lat="41.81123187219911" lon="-2.8875577084679245"><ele>1174.8000000000002</ele><time>2026-05-03T11:13:12.001Z</time></trkpt><trkpt lat="41.811207590011676" lon="-2.8874096643367846"><ele>1175.1999999999998</ele><time>2026-05-03T11:13:13.001Z</time></trkpt><trkpt lat="41.8111860041359" lon="-2.8872646263693347"><ele>1175.6</ele><time>2026-05-03T11:13:14.001Z</time></trkpt><trkpt lat="41.81116289515519" lon="-2.8871204570406044"><ele>1176.0</ele><time>2026-05-03T11:13:15.001Z</time></trkpt><trkpt lat="41.81113747767578" lon="-2.8869780936779197"><ele>1176.0</ele><time>2026-05-03T11:13:16.001Z</time></trkpt><trkpt lat="41.8111117418599" lon="-2.8868317679167967"><ele>1176.0</ele><time>2026-05-03T11:13:17.001Z</time></trkpt><trkpt lat="41.81108610719597" lon="-2.886685815600536"><ele>1176.0</ele><time>2026-05-03T11:13:18.001Z</time></trkpt><trkpt lat="41.81106062404254" lon="-2.8865410669709504"><ele>1176.0</ele><time>2026-05-03T11:13:19.001Z</time></trkpt><trkpt lat="41.811035744456916" lon="-2.886393927712871"><ele>1176.0</ele><time>2026-05-03T11:13:20.001Z</time></trkpt><trkpt lat="41.81100786381463" lon="-2.8862447766893706"><ele>1174.8</ele><time>2026-05-03T11:13:21.001Z</time></trkpt><trkpt lat="41.81098269594419" lon="-2.886105266016403"><ele>1173.6</ele><time>2026-05-03T11:13:22.001Z</time></trkpt><trkpt lat="41.8109554250768" lon="-2.885956566112613"><ele>1172.4</ele><time>2026-05-03T11:13:23.001Z</time></trkpt><trkpt lat="41.81092486372569" lon="-2.8858087305844777"><ele>1171.2</ele><time>2026-05-03T11:13:24.001Z</time></trkpt><trkpt lat="41.81089032260031" lon="-2.885664511661237"><ele>1170.0</ele><time>2026-05-03T11:13:25.001Z</time></trkpt><trkpt lat="41.810852222887064" lon="-2.8855209594435154"><ele>1169.0</ele><time>2026-05-03T11:13:26.001Z</time></trkpt><trkpt lat="41.81081273282931" lon="-2.8853797485576824"><ele>1168.0</ele><time>2026-05-03T11:13:27.001Z</time></trkpt><trkpt lat="41.81077139035508" lon="-2.885241550172164"><ele>1167.0</ele><time>2026-05-03T11:13:28.001Z</time></trkpt><trkpt lat="41.8107259523992" lon="-2.8850956912460037"><ele>1166.0</ele><time>2026-05-03T11:13:29Z</time></trkpt><trkpt lat="41.81067997171672" lon="-2.884955772220178"><ele>1165.75</ele><time>2026-05-03T11:13:30Z</time></trkpt><trkpt lat="41.810630791460724" lon="-2.884817139898629"><ele>1165.5</ele><time>2026-05-03T11:13:31Z</time></trkpt><trkpt lat="41.810576323301035" lon="-2.884677793751265"><ele>1165.25</ele><time>2026-05-03T11:13:32Z</time></trkpt><trkpt lat="41.81052012818713" lon="-2.88453890912687"><ele>1165.0</ele><time>2026-05-03T11:13:33Z</time></trkpt><trkpt lat="41.81046317411495" lon="-2.884402243184532"><ele>1165.0</ele><time>2026-05-03T11:13:34Z</time></trkpt><trkpt lat="41.810404300954865" lon="-2.884269361315159"><ele>1165.0</ele><time>2026-05-03T11:13:35Z</time></trkpt><trkpt lat="41.810344826139556" lon="-2.884137114363336"><ele>1165.0</ele><time>2026-05-03T11:13:36Z</time></trkpt><trkpt lat="41.810286217457175" lon="-2.8840046577959617"><ele>1165.0</ele><time>2026-05-03T11:13:37Z</time></trkpt><trkpt lat="41.810227649554825" lon="-2.883872457326698"><ele>1164.75</ele><time>2026-05-03T11:13:38Z</time></trkpt><trkpt lat="41.81016729174017" lon="-2.8837408408481724"><ele>1164.5</ele><time>2026-05-03T11:13:39Z</time></trkpt><trkpt lat="41.810110293173" lon="-2.883610731118497"><ele>1164.25</ele><time>2026-05-03T11:13:40Z</time></trkpt><trkpt lat="41.81005325400436" lon="-2.8834837247415694"><ele>1164.0</ele><time>2026-05-03T11:13:41Z</time></trkpt><trkpt lat="41.80999540774466" lon="-2.883354392593135"><ele>1162.25</ele><time>2026-05-03T11:13:42Z</time></trkpt><trkpt lat="41.809936017568624" lon="-2.883223332481935"><ele>1160.5</ele><time>2026-05-03T11:13:43Z</time></trkpt><trkpt lat="41.8098755684525" lon="-2.8830942525008134"><ele>1158.75</ele><time>2026-05-03T11:13:44Z</time></trkpt><trkpt lat="41.80981899207965" lon="-2.882962056876187"><ele>1157.0</ele><time>2026-05-03T11:13:45Z</time></trkpt><trkpt lat="41.8097593309216" lon="-2.882830481461165"><ele>1157.0</ele><time>2026-05-03T11:13:46Z</time></trkpt><trkpt lat="41.80970139430876" lon="-2.882698292951757"><ele>1157.0</ele><time>2026-05-03T11:13:47Z</time></trkpt><trkpt lat="41.80964391184555" lon="-2.882569461573852"><ele>1157.0</ele><time>2026-05-03T11:13:48Z</time></trkpt><trkpt lat="41.80958361934725" lon="-2.882438075924429"><ele>1157.0</ele><time>2026-05-03T11:13:49Z</time></trkpt><trkpt lat="41.80952737740918" lon="-2.8823052675632974"><ele>1157.25</ele><time>2026-05-03T11:13:50Z</time></trkpt><trkpt lat="41.809470952686674" lon="-2.882170772849125"><ele>1157.5</ele><time>2026-05-03T11:13:51Z</time></trkpt><trkpt lat="41.809415255981094" lon="-2.8820347644584854"><ele>1157.75</ele><time>2026-05-03T11:13:52Z</time></trkpt><trkpt lat="41.80936040796226" lon="-2.88189657665213"><ele>1158.0</ele><time>2026-05-03T11:13:53Z</time></trkpt><trkpt lat="41.809306306024624" lon="-2.881759371108374"><ele>1156.0</ele><time>2026-05-03T11:13:54Z</time></trkpt><trkpt lat="41.80925435932573" lon="-2.8816195234991384"><ele>1154.0</ele><time>2026-05-03T11:13:55Z</time></trkpt><trkpt lat="41.809199893640745" lon="-2.8814816477791863"><ele>1152.0</ele><time>2026-05-03T11:13:56Z</time></trkpt><trkpt lat="41.80914743564096" lon="-2.8813445978103056"><ele>1150.0</ele><time>2026-05-03T11:13:57Z</time></trkpt><trkpt lat="41.80909615006457" lon="-2.881208046922735"><ele>1150.0</ele><time>2026-05-03T11:13:58Z</time></trkpt><trkpt lat="41.809043773258274" lon="-2.8810701385688713"><ele>1150.0</ele><time>2026-05-03T11:13:59Z</time></trkpt><trkpt lat="41.80899261868699" lon="-2.8809341698857067"><ele>1150.0</ele><time>2026-05-03T11:14:00Z</time></trkpt><trkpt lat="41.80894138709891" lon="-2.8807970653608814"><ele>1150.0</ele><time>2026-05-03T11:14:01Z</time></trkpt><trkpt lat="41.80889063223031" lon="-2.8806625652831004"><ele>1150.0</ele><time>2026-05-03T11:14:02Z</time></trkpt><trkpt lat="41.808840829031716" lon="-2.880528931025383"><ele>1150.0</ele><time>2026-05-03T11:14:03Z</time></trkpt><trkpt lat="41.80879002144362" lon="-2.8803942379273724"><ele>1150.0</ele><time>2026-05-03T11:14:04Z</time></trkpt><trkpt lat="41.808741733736646" lon="-2.88025901275079"><ele>1150.0</ele><time>2026-05-03T11:14:05Z</time></trkpt><trkpt lat="41.808690985429955" lon="-2.880125458473138"><ele>1150.0</ele><time>2026-05-03T11:14:06Z</time></trkpt><trkpt lat="41.80864297446774" lon="-2.8799906484819124"><ele>1150.0</ele><time>2026-05-03T11:14:07Z</time></trkpt><trkpt lat="41.80859303123909" lon="-2.8798571100376806"><ele>1150.0</ele><time>2026-05-03T11:14:08Z</time></trkpt><trkpt lat="41.80854293703569" lon="-2.879723987814353"><ele>1150.0</ele><time>2026-05-03T11:14:09Z</time></trkpt><trkpt lat="41.80848942603767" lon="-2.8795876720135336"><ele>1150.0</ele><time>2026-05-03T11:14:10Z</time></trkpt><trkpt lat="41.80843935685587" lon="-2.879454986362892"><ele>1150.0</ele><time>2026-05-03T11:14:11Z</time></trkpt><trkpt lat="41.80838756455157" lon="-2.8793186671078423"><ele>1149.4</ele><time>2026-05-03T11:14:12Z</time></trkpt><trkpt lat="41.80833658294726" lon="-2.8791830478546645"><ele>1148.8</ele><time>2026-05-03T11:14:13Z</time></trkpt><trkpt lat="41.80828382973079" lon="-2.879048309519021"><ele>1148.2</ele><time>2026-05-03T11:14:14Z</time></trkpt><trkpt lat="41.80824122387319" lon="-2.8789380016064103"><ele>1147.6</ele><time>2026-05-03T11:14:15Z</time></trkpt><trkpt lat="41.80822173280234" lon="-2.878857278965401"><ele>1147.0</ele><time>2026-05-03T11:14:16Z</time></trkpt><trkpt lat="41.808179607318436" lon="-2.8787462946981397"><ele>1147.0</ele><time>2026-05-03T11:14:17Z</time></trkpt><trkpt lat="41.80809869235034" lon="-2.878534476529632"><ele>1147.0</ele><time>2026-05-03T11:14:18Z</time></trkpt><trkpt lat="41.80803711133239" lon="-2.8784001606796608"><ele>1147.0</ele><time>2026-05-03T11:14:19Z</time></trkpt><trkpt lat="41.80800201015285" lon="-2.8782585367951574"><ele>1147.0</ele><time>2026-05-03T11:14:20Z</time></trkpt><trkpt lat="41.8079493762257" lon="-2.8781307216288687"><ele>1146.75</ele><time>2026-05-03T11:14:21Z</time></trkpt><trkpt lat="41.807891215037756" lon="-2.8780105575391968"><ele>1146.5</ele><time>2026-05-03T11:14:22Z</time></trkpt><trkpt lat="41.80783793245764" lon="-2.877856357637691"><ele>1146.25</ele><time>2026-05-03T11:14:23Z</time></trkpt><trkpt lat="41.807789422292664" lon="-2.8777196968941934"><ele>1146.0</ele><time>2026-05-03T11:14:24Z</time></trkpt><trkpt lat="41.807741273580966" lon="-2.877583482872884"><ele>1146.0</ele><time>2026-05-03T11:14:25Z</time></trkpt><trkpt lat="41.807688112649245" lon="-2.877453744308869"><ele>1146.0</ele><time>2026-05-03T11:14:26Z</time></trkpt><trkpt lat="41.807640092985984" lon="-2.877319216955767"><ele>1146.0</ele><time>2026-05-03T11:14:27Z</time></trkpt><trkpt lat="41.807596283805715" lon="-2.877177349229547"><ele>1146.0</ele><time>2026-05-03T11:14:28Z</time></trkpt><trkpt lat="41.80754350337115" lon="-2.877047418044403"><ele>1146.0</ele><time>2026-05-03T11:14:29Z</time></trkpt><trkpt lat="41.8074801157567" lon="-2.876917131497299"><ele>1146.6666666666667</ele><time>2026-05-03T11:14:30Z</time></trkpt><trkpt lat="41.80738777497175" lon="-2.8768034362920423"><ele>1147.3333333333335</ele><time>2026-05-03T11:14:31Z</time></trkpt><trkpt lat="41.80739432100789" lon="-2.876672124180991"><ele>1148.0</ele><time>2026-05-03T11:14:32Z</time></trkpt><trkpt lat="41.80729758340885" lon="-2.876385834369526"><ele>1147.4</ele><time>2026-05-03T11:14:34Z</time></trkpt><trkpt lat="41.80725188787787" lon="-2.8762535128552695"><ele>1146.8</ele><time>2026-05-03T11:14:35Z</time></trkpt><trkpt lat="41.807203389390075" lon="-2.8761218877362302"><ele>1146.2</ele><time>2026-05-03T11:14:36Z</time></trkpt><trkpt lat="41.807152588792334" lon="-2.875988833744023"><ele>1145.6</ele><time>2026-05-03T11:14:37Z</time></trkpt><trkpt lat="41.80710167073187" lon="-2.8758529663605192"><ele>1145.0</ele><time>2026-05-03T11:14:38Z</time></trkpt><trkpt lat="41.80705378005821" lon="-2.8757157720601234"><ele>1145.0</ele><time>2026-05-03T11:14:39.001Z</time></trkpt><trkpt lat="41.80700458024057" lon="-2.875583140651798"><ele>1145.0</ele><time>2026-05-03T11:14:40.001Z</time></trkpt><trkpt lat="41.8069545324279" lon="-2.8754521243808036"><ele>1145.0</ele><time>2026-05-03T11:14:41.001Z</time></trkpt><trkpt lat="41.80690482342638" lon="-2.875316367717212"><ele>1145.0</ele><time>2026-05-03T11:14:42.001Z</time></trkpt><trkpt lat="41.80685597233624" lon="-2.8751857177759907"><ele>1145.0</ele><time>2026-05-03T11:14:43.001Z</time></trkpt><trkpt lat="41.80680693940157" lon="-2.8750514224675907"><ele>1145.4</ele><time>2026-05-03T11:14:44.001Z</time></trkpt><trkpt lat="41.80675727350833" lon="-2.8749162409973326"><ele>1145.8</ele><time>2026-05-03T11:14:45.001Z</time></trkpt><trkpt lat="41.80670653369694" lon="-2.874782932911805"><ele>1146.2</ele><time>2026-05-03T11:14:46.001Z</time></trkpt><trkpt lat="41.80665699207797" lon="-2.8746481001481268"><ele>1146.6</ele><time>2026-05-03T11:14:47.001Z</time></trkpt><trkpt lat="41.8066036552899" lon="-2.8745173467895273"><ele>1147.0</ele><time>2026-05-03T11:14:48.001Z</time></trkpt><trkpt lat="41.80655361210597" lon="-2.874378276081823"><ele>1147.0</ele><time>2026-05-03T11:14:49.001Z</time></trkpt><trkpt lat="41.806502675450176" lon="-2.8742430842534064"><ele>1147.0</ele><time>2026-05-03T11:14:50.001Z</time></trkpt><trkpt lat="41.80645183298172" lon="-2.8741121390258515"><ele>1147.0</ele><time>2026-05-03T11:14:51.001Z</time></trkpt><trkpt lat="41.80640249742779" lon="-2.873974603800005"><ele>1147.0</ele><time>2026-05-03T11:14:52.001Z</time></trkpt><trkpt lat="41.80635319818308" lon="-2.873841544919331"><ele>1147.0</ele><time>2026-05-03T11:14:53.001Z</time></trkpt><trkpt lat="41.80630418849166" lon="-2.873706095523845"><ele>1147.0</ele><time>2026-05-03T11:14:54.001Z</time></trkpt><trkpt lat="41.80625457054156" lon="-2.873570947867563"><ele>1147.0</ele><time>2026-05-03T11:14:55.001Z</time></trkpt><trkpt lat="41.80620851078957" lon="-2.8734387673305406"><ele>1147.0</ele><time>2026-05-03T11:14:56.001Z</time></trkpt><trkpt lat="41.8061605394543" lon="-2.8733061248360423"><ele>1147.0</ele><time>2026-05-03T11:14:57.001Z</time></trkpt><trkpt lat="41.806113027329424" lon="-2.873175222858378"><ele>1147.0</ele><time>2026-05-03T11:14:58.001Z</time></trkpt><trkpt lat="41.80606434341662" lon="-2.873048140663139"><ele>1147.0</ele><time>2026-05-03T11:14:59.001Z</time></trkpt><trkpt lat="41.806013071737155" lon="-2.8729084040530988"><ele>1147.0</ele><time>2026-05-03T11:15:00.001Z</time></trkpt><trkpt lat="41.80596563463492" lon="-2.872778063959"><ele>1147.0</ele><time>2026-05-03T11:15:01.001Z</time></trkpt><trkpt lat="41.80591191710496" lon="-2.8726430118041484"><ele>1147.0</ele><time>2026-05-03T11:15:02.001Z</time></trkpt><trkpt lat="41.805865600312316" lon="-2.8725171589551373"><ele>1147.0</ele><time>2026-05-03T11:15:03.001Z</time></trkpt><trkpt lat="41.8058164660232" lon="-2.8723828922594583"><ele>1147.0</ele><time>2026-05-03T11:15:04.001Z</time></trkpt><trkpt lat="41.80576617560668" lon="-2.8722519447989496"><ele>1147.0</ele><time>2026-05-03T11:15:05.001Z</time></trkpt><trkpt lat="41.80571767050961" lon="-2.872121540382929"><ele>1147.0</ele><time>2026-05-03T11:15:06.001Z</time></trkpt><trkpt lat="41.80566794115353" lon="-2.871992666792714"><ele>1147.0</ele><time>2026-05-03T11:15:07.001Z</time></trkpt><trkpt lat="41.80562109640383" lon="-2.871862194244356"><ele>1147.0</ele><time>2026-05-03T11:15:08.001Z</time></trkpt><trkpt lat="41.80557311528493" lon="-2.871733837073515"><ele>1146.8</ele><time>2026-05-03T11:15:09.001Z</time></trkpt><trkpt lat="41.80552179655762" lon="-2.8716045748754118"><ele>1146.6</ele><time>2026-05-03T11:15:10.001Z</time></trkpt><trkpt lat="41.80547238721977" lon="-2.8714765580920263"><ele>1146.3999999999999</ele><time>2026-05-03T11:15:11.001Z</time></trkpt><trkpt lat="41.80542399428776" lon="-2.8713466845646427"><ele>1146.2</ele><time>2026-05-03T11:15:12.001Z</time></trkpt><trkpt lat="41.805377724778104" lon="-2.871215354768239"><ele>1146.0</ele><time>2026-05-03T11:15:13.001Z</time></trkpt><trkpt lat="41.805331002783824" lon="-2.8710811730019192"><ele>1146.0</ele><time>2026-05-03T11:15:14.001Z</time></trkpt><trkpt lat="41.80528383736857" lon="-2.870945268917356"><ele>1146.0</ele><time>2026-05-03T11:15:15.001Z</time></trkpt><trkpt lat="41.80523539696665" lon="-2.870813420933287"><ele>1146.0</ele><time>2026-05-03T11:15:16.001Z</time></trkpt><trkpt lat="41.80518558984223" lon="-2.870679613286934"><ele>1146.0</ele><time>2026-05-03T11:15:17.001Z</time></trkpt><trkpt lat="41.80513443392289" lon="-2.870543137010483"><ele>1146.0</ele><time>2026-05-03T11:15:18.001Z</time></trkpt><trkpt lat="41.805081539170416" lon="-2.870408695580992"><ele>1146.6</ele><time>2026-05-03T11:15:19.001Z</time></trkpt><trkpt lat="41.805030022564736" lon="-2.8702730424978506"><ele>1147.1999999999998</ele><time>2026-05-03T11:15:20.001Z</time></trkpt><trkpt lat="41.8049785019783" lon="-2.8701392621752864"><ele>1147.8000000000002</ele><time>2026-05-03T11:15:21.001Z</time></trkpt><trkpt lat="41.804928696254336" lon="-2.870006030377177"><ele>1148.4</ele><time>2026-05-03T11:15:22.001Z</time></trkpt><trkpt lat="41.80488021934497" lon="-2.86987376383733"><ele>1149.0</ele><time>2026-05-03T11:15:23.001Z</time></trkpt><trkpt lat="41.80483263293496" lon="-2.8697409500562987"><ele>1149.0</ele><time>2026-05-03T11:15:24.001Z</time></trkpt><trkpt lat="41.804784773865" lon="-2.8696125399549133"><ele>1149.0</ele><time>2026-05-03T11:15:25.001Z</time></trkpt><trkpt lat="41.80473547831621" lon="-2.8694832676087647"><ele>1149.0</ele><time>2026-05-03T11:15:26.001Z</time></trkpt><trkpt lat="41.80468708531431" lon="-2.869352930007296"><ele>1149.0</ele><time>2026-05-03T11:15:27.001Z</time></trkpt><trkpt lat="41.804640199062334" lon="-2.869220359854497"><ele>1149.0</ele><time>2026-05-03T11:15:28.001Z</time></trkpt><trkpt lat="41.80459386947803" lon="-2.8690888424140613"><ele>1148.8</ele><time>2026-05-03T11:15:29.001Z</time></trkpt><trkpt lat="41.80454854480606" lon="-2.868959875390944"><ele>1148.6000000000001</ele><time>2026-05-03T11:15:30.001Z</time></trkpt><trkpt lat="41.80450212209676" lon="-2.8688311768922397"><ele>1148.4</ele><time>2026-05-03T11:15:31.001Z</time></trkpt><trkpt lat="41.804453265708844" lon="-2.868700694081546"><ele>1148.2</ele><time>2026-05-03T11:15:32.001Z</time></trkpt><trkpt lat="41.80440703414876" lon="-2.8685712965260692"><ele>1148.0</ele><time>2026-05-03T11:15:33.001Z</time></trkpt><trkpt lat="41.80436014753272" lon="-2.868438120349181"><ele>1148.4</ele><time>2026-05-03T11:15:34.001Z</time></trkpt><trkpt lat="41.80431536073813" lon="-2.8683034262583873"><ele>1148.8</ele><time>2026-05-03T11:15:35Z</time></trkpt><trkpt lat="41.804273114493796" lon="-2.868164580362247"><ele>1149.2</ele><time>2026-05-03T11:15:36Z</time></trkpt><trkpt lat="41.8042442638943" lon="-2.868022689027242"><ele>1149.6</ele><time>2026-05-03T11:15:37Z</time></trkpt><trkpt lat="41.80421602329005" lon="-2.8678783340075755"><ele>1150.0</ele><time>2026-05-03T11:15:38Z</time></trkpt><trkpt lat="41.804192687555414" lon="-2.867732561226676"><ele>1149.75</ele><time>2026-05-03T11:15:39Z</time></trkpt><trkpt lat="41.80416860594609" lon="-2.8675862182526624"><ele>1149.5</ele><time>2026-05-03T11:15:40Z</time></trkpt><trkpt lat="41.804147380241766" lon="-2.8674376727698196"><ele>1149.25</ele><time>2026-05-03T11:15:41Z</time></trkpt><trkpt lat="41.80413693368986" lon="-2.8672687527857343"><ele>1149.0</ele><time>2026-05-03T11:15:42Z</time></trkpt><trkpt lat="41.80411023639074" lon="-2.867132664925006"><ele>1149.0</ele><time>2026-05-03T11:15:43Z</time></trkpt><trkpt lat="41.8040902015632" lon="-2.866984706366422"><ele>1149.0</ele><time>2026-05-03T11:15:44Z</time></trkpt><trkpt lat="41.804078262175445" lon="-2.8668345702651923"><ele>1149.0</ele><time>2026-05-03T11:15:45Z</time></trkpt><trkpt lat="41.80406976003419" lon="-2.8666852616580765"><ele>1149.0</ele><time>2026-05-03T11:15:46Z</time></trkpt><trkpt lat="41.80406257239534" lon="-2.866534619636888"><ele>1149.0</ele><time>2026-05-03T11:15:47Z</time></trkpt><trkpt lat="41.804060883651" lon="-2.8663844685861815"><ele>1149.0</ele><time>2026-05-03T11:15:48Z</time></trkpt><trkpt lat="41.80406164334529" lon="-2.8662338624138215"><ele>1149.0</ele><time>2026-05-03T11:15:49Z</time></trkpt><trkpt lat="41.804065789941134" lon="-2.866082721525385"><ele>1149.0</ele><time>2026-05-03T11:15:50Z</time></trkpt><trkpt lat="41.80407591164658" lon="-2.865931006462224"><ele>1149.0</ele><time>2026-05-03T11:15:51Z</time></trkpt><trkpt lat="41.80408927941632" lon="-2.865780748759914"><ele>1148.75</ele><time>2026-05-03T11:15:52Z</time></trkpt><trkpt lat="41.80410781312363" lon="-2.8656311633839477"><ele>1148.5</ele><time>2026-05-03T11:15:53Z</time></trkpt><trkpt lat="41.804124198616364" lon="-2.8654778631858924"><ele>1148.25</ele><time>2026-05-03T11:15:54Z</time></trkpt><trkpt lat="41.80414374622704" lon="-2.8653269713640004"><ele>1148.0</ele><time>2026-05-03T11:15:55Z</time></trkpt><trkpt lat="41.804165499173024" lon="-2.865175141281945"><ele>1148.5</ele><time>2026-05-03T11:15:56Z</time></trkpt><trkpt lat="41.80418885300867" lon="-2.86502354018503"><ele>1149.0</ele><time>2026-05-03T11:15:57Z</time></trkpt><trkpt lat="41.80421616010339" lon="-2.864870950361494"><ele>1149.5</ele><time>2026-05-03T11:15:58Z</time></trkpt><trkpt lat="41.80424256245083" lon="-2.864720694212443"><ele>1150.0</ele><time>2026-05-03T11:15:59Z</time></trkpt><trkpt lat="41.80427194061988" lon="-2.8645726289042095"><ele>1150.0</ele><time>2026-05-03T11:16:00Z</time></trkpt><trkpt lat="41.80430172930258" lon="-2.8644231951999877"><ele>1150.0</ele><time>2026-05-03T11:16:01Z</time></trkpt><trkpt lat="41.804331789656594" lon="-2.8642754785399123"><ele>1150.0</ele><time>2026-05-03T11:16:02Z</time></trkpt><trkpt lat="41.80436128507608" lon="-2.8641251183060366"><ele>1150.0</ele><time>2026-05-03T11:16:03Z</time></trkpt><trkpt lat="41.804389022000464" lon="-2.863976923014516"><ele>1148.5</ele><time>2026-05-03T11:16:04Z</time></trkpt><trkpt lat="41.804418530458385" lon="-2.86382668619921"><ele>1147.0</ele><time>2026-05-03T11:16:05Z</time></trkpt><trkpt lat="41.80444770778591" lon="-2.863676666881277"><ele>1145.5</ele><time>2026-05-03T11:16:06Z</time></trkpt><trkpt lat="41.804478243514026" lon="-2.8635273553523835"><ele>1144.0</ele><time>2026-05-03T11:16:07Z</time></trkpt><trkpt lat="41.804507241842884" lon="-2.8633813725399953"><ele>1144.0</ele><time>2026-05-03T11:16:08Z</time></trkpt><trkpt lat="41.80453828146962" lon="-2.8632325796271405"><ele>1144.0</ele><time>2026-05-03T11:16:09Z</time></trkpt><trkpt lat="41.80456694479725" lon="-2.8630874031814564"><ele>1144.0</ele><time>2026-05-03T11:16:10Z</time></trkpt><trkpt lat="41.804594080649586" lon="-2.862939540672848"><ele>1144.0</ele><time>2026-05-03T11:16:11Z</time></trkpt><trkpt lat="41.80462287624022" lon="-2.862790176680383"><ele>1144.0</ele><time>2026-05-03T11:16:12Z</time></trkpt><trkpt lat="41.80465198500369" lon="-2.8626423402640317"><ele>1144.0</ele><time>2026-05-03T11:16:13Z</time></trkpt><trkpt lat="41.804679529935" lon="-2.862494746411932"><ele>1144.0</ele><time>2026-05-03T11:16:14Z</time></trkpt><trkpt lat="41.804710567640925" lon="-2.8623450663059575"><ele>1144.0</ele><time>2026-05-03T11:16:15Z</time></trkpt><trkpt lat="41.80474009820967" lon="-2.862194879395197"><ele>1143.75</ele><time>2026-05-03T11:16:16Z</time></trkpt><trkpt lat="41.804771134268925" lon="-2.8620440275188215"><ele>1143.5</ele><time>2026-05-03T11:16:17Z</time></trkpt><trkpt lat="41.804801753525034" lon="-2.8618943648978936"><ele>1143.25</ele><time>2026-05-03T11:16:18Z</time></trkpt><trkpt lat="41.80483215411512" lon="-2.861743659314287"><ele>1143.0</ele><time>2026-05-03T11:16:19Z</time></trkpt><trkpt lat="41.80486176608264" lon="-2.8615894613241504"><ele>1142.75</ele><time>2026-05-03T11:16:20Z</time></trkpt><trkpt lat="41.80488847176087" lon="-2.8614350547429006"><ele>1142.5</ele><time>2026-05-03T11:16:21Z</time></trkpt><trkpt lat="41.804923105650545" lon="-2.8612812240792174"><ele>1142.25</ele><time>2026-05-03T11:16:22Z</time></trkpt><trkpt lat="41.80495521337075" lon="-2.8611320802728093"><ele>1142.0</ele><time>2026-05-03T11:16:23Z</time></trkpt><trkpt lat="41.80499073066207" lon="-2.86098479950714"><ele>1141.5</ele><time>2026-05-03T11:16:24Z</time></trkpt><trkpt lat="41.80502681933944" lon="-2.8608366294699676"><ele>1141.0</ele><time>2026-05-03T11:16:25Z</time></trkpt><trkpt lat="41.80506466875321" lon="-2.860687599549554"><ele>1140.5</ele><time>2026-05-03T11:16:26Z</time></trkpt><trkpt lat="41.805102416565894" lon="-2.8605382423705987"><ele>1140.0</ele><time>2026-05-03T11:16:27Z</time></trkpt><trkpt lat="41.80513754649313" lon="-2.8603913413342026"><ele>1139.25</ele><time>2026-05-03T11:16:28Z</time></trkpt><trkpt lat="41.80517907795178" lon="-2.8602454760297085"><ele>1138.5</ele><time>2026-05-03T11:16:29Z</time></trkpt><trkpt lat="41.805218844306715" lon="-2.8601024972502582"><ele>1137.75</ele><time>2026-05-03T11:16:30Z</time></trkpt><trkpt lat="41.805267298875066" lon="-2.859959205676989"><ele>1137.0</ele><time>2026-05-03T11:16:31Z</time></trkpt><trkpt lat="41.80531689325142" lon="-2.859816454356788"><ele>1136.75</ele><time>2026-05-03T11:16:32Z</time></trkpt><trkpt lat="41.80536040084311" lon="-2.8596772007958506"><ele>1136.5</ele><time>2026-05-03T11:16:33Z</time></trkpt><trkpt lat="41.805408353502884" lon="-2.859540352711676"><ele>1136.25</ele><time>2026-05-03T11:16:34Z</time></trkpt><trkpt lat="41.80545783005089" lon="-2.8594011773998353"><ele>1136.0</ele><time>2026-05-03T11:16:35Z</time></trkpt><trkpt lat="41.80550518785775" lon="-2.85926463660967"><ele>1135.75</ele><time>2026-05-03T11:16:36Z</time></trkpt><trkpt lat="41.80555366038279" lon="-2.8591250477199983"><ele>1135.5</ele><time>2026-05-03T11:16:37Z</time></trkpt><trkpt lat="41.80560257492535" lon="-2.8589919761508296"><ele>1135.25</ele><time>2026-05-03T11:16:38Z</time></trkpt><trkpt lat="41.805653383352336" lon="-2.858850080920575"><ele>1135.0</ele><time>2026-05-03T11:16:39Z</time></trkpt><trkpt lat="41.805704305597985" lon="-2.8587075923643632"><ele>1135.0</ele><time>2026-05-03T11:16:40Z</time></trkpt><trkpt lat="41.80575650928116" lon="-2.8585746281171183"><ele>1135.0</ele><time>2026-05-03T11:16:41Z</time></trkpt><trkpt lat="41.80580835369374" lon="-2.8584365082138703"><ele>1135.0</ele><time>2026-05-03T11:16:42Z</time></trkpt><trkpt lat="41.805860260812324" lon="-2.858294178050651"><ele>1135.0</ele><time>2026-05-03T11:16:43Z</time></trkpt><trkpt lat="41.80590972924419" lon="-2.8581555624688497"><ele>1134.25</ele><time>2026-05-03T11:16:44Z</time></trkpt><trkpt lat="41.80596344075746" lon="-2.8580144716038336"><ele>1133.5</ele><time>2026-05-03T11:16:45Z</time></trkpt><trkpt lat="41.806013856407134" lon="-2.8578747971313105"><ele>1132.75</ele><time>2026-05-03T11:16:46Z</time></trkpt><trkpt lat="41.806065774827076" lon="-2.8577327215661685"><ele>1132.0</ele><time>2026-05-03T11:16:47Z</time></trkpt><trkpt lat="41.80612164930897" lon="-2.8575935893502185"><ele>1131.75</ele><time>2026-05-03T11:16:48Z</time></trkpt><trkpt lat="41.80617497456257" lon="-2.8574592234631973"><ele>1131.5</ele><time>2026-05-03T11:16:49Z</time></trkpt><trkpt lat="41.806232560248446" lon="-2.857321602144427"><ele>1131.25</ele><time>2026-05-03T11:16:50.001Z</time></trkpt><trkpt lat="41.80628404560053" lon="-2.8571854369157097"><ele>1131.0</ele><time>2026-05-03T11:16:51.001Z</time></trkpt><trkpt lat="41.80633502930441" lon="-2.8570491988329016"><ele>1131.0</ele><time>2026-05-03T11:16:52.001Z</time></trkpt><trkpt lat="41.80639141737198" lon="-2.856914149471548"><ele>1131.0</ele><time>2026-05-03T11:16:53.001Z</time></trkpt><trkpt lat="41.80644172173451" lon="-2.8567779850129935"><ele>1131.0</ele><time>2026-05-03T11:16:54.001Z</time></trkpt><trkpt lat="41.80649012687991" lon="-2.8566432233021484"><ele>1131.0</ele><time>2026-05-03T11:16:55.001Z</time></trkpt><trkpt lat="41.80653884181174" lon="-2.8565041497411894"><ele>1131.0</ele><time>2026-05-03T11:16:56.001Z</time></trkpt><trkpt lat="41.80658827959435" lon="-2.8563680598303027"><ele>1131.0</ele><time>2026-05-03T11:16:57.001Z</time></trkpt><trkpt lat="41.8066385012344" lon="-2.8562303555799198"><ele>1131.0</ele><time>2026-05-03T11:16:58.001Z</time></trkpt><trkpt lat="41.80668474892919" lon="-2.8560979227202354"><ele>1131.0</ele><time>2026-05-03T11:16:59.001Z</time></trkpt><trkpt lat="41.806731584002414" lon="-2.855961495805754"><ele>1131.0</ele><time>2026-05-03T11:17:00.001Z</time></trkpt><trkpt lat="41.806777437461065" lon="-2.855820250684276"><ele>1131.0</ele><time>2026-05-03T11:17:01.001Z</time></trkpt><trkpt lat="41.80682303541" lon="-2.8556776109676902"><ele>1131.0</ele><time>2026-05-03T11:17:02.001Z</time></trkpt><trkpt lat="41.80686780636975" lon="-2.855534797515016"><ele>1131.0</ele><time>2026-05-03T11:17:03.001Z</time></trkpt><trkpt lat="41.8069080497166" lon="-2.8553897674306077"><ele>1131.0</ele><time>2026-05-03T11:17:04.001Z</time></trkpt><trkpt lat="41.8069503213151" lon="-2.8552427755745127"><ele>1130.0</ele><time>2026-05-03T11:17:05.001Z</time></trkpt><trkpt lat="41.80699101605721" lon="-2.855093215154385"><ele>1129.0</ele><time>2026-05-03T11:17:06.001Z</time></trkpt><trkpt lat="41.8070292793066" lon="-2.8549442670729652"><ele>1128.0</ele><time>2026-05-03T11:17:07.001Z</time></trkpt><trkpt lat="41.80706594127956" lon="-2.854795721680165"><ele>1127.0</ele><time>2026-05-03T11:17:08.001Z</time></trkpt><trkpt lat="41.80710185388981" lon="-2.854645190212014"><ele>1127.0</ele><time>2026-05-03T11:17:09.001Z</time></trkpt><trkpt lat="41.80713865800389" lon="-2.8544930965809807"><ele>1127.0</ele><time>2026-05-03T11:17:10.001Z</time></trkpt><trkpt lat="41.80717382638857" lon="-2.8543408588623365"><ele>1127.0</ele><time>2026-05-03T11:17:11.001Z</time></trkpt><trkpt lat="41.807208625941406" lon="-2.8541898248493385"><ele>1127.0</ele><time>2026-05-03T11:17:12.001Z</time></trkpt><trkpt lat="41.80724394444869" lon="-2.8540390378021727"><ele>1127.0</ele><time>2026-05-03T11:17:13.001Z</time></trkpt><trkpt lat="41.80727971536736" lon="-2.8538913813397526"><ele>1127.0</ele><time>2026-05-03T11:17:14.001Z</time></trkpt><trkpt lat="41.807316611694525" lon="-2.853743303691947"><ele>1127.0</ele><time>2026-05-03T11:17:15.001Z</time></trkpt><trkpt lat="41.807351611497474" lon="-2.8535941401341076"><ele>1127.0</ele><time>2026-05-03T11:17:16.001Z</time></trkpt><trkpt lat="41.80738437577978" lon="-2.8534474477981773"><ele>1127.0</ele><time>2026-05-03T11:17:17.001Z</time></trkpt><trkpt lat="41.807418370433446" lon="-2.853300890631188"><ele>1127.0</ele><time>2026-05-03T11:17:18.001Z</time></trkpt><trkpt lat="41.80745455820001" lon="-2.8531545367318136"><ele>1127.0</ele><time>2026-05-03T11:17:19.001Z</time></trkpt><trkpt lat="41.80748499869544" lon="-2.8530073496795545"><ele>1127.0</ele><time>2026-05-03T11:17:20.001Z</time></trkpt><trkpt lat="41.8075157794164" lon="-2.8528579239472247"><ele>1127.0</ele><time>2026-05-03T11:17:21.001Z</time></trkpt><trkpt lat="41.80754683119834" lon="-2.852709355470858"><ele>1127.0</ele><time>2026-05-03T11:17:22.001Z</time></trkpt><trkpt lat="41.80757121511966" lon="-2.8525575869676785"><ele>1127.0</ele><time>2026-05-03T11:17:23.001Z</time></trkpt><trkpt lat="41.80759562969604" lon="-2.852409410386246"><ele>1127.0</ele><time>2026-05-03T11:17:24.001Z</time></trkpt><trkpt lat="41.807617157441015" lon="-2.8522582981763867"><ele>1127.25</ele><time>2026-05-03T11:17:25.001Z</time></trkpt><trkpt lat="41.807635965351714" lon="-2.852106140025944"><ele>1127.5</ele><time>2026-05-03T11:17:26.001Z</time></trkpt><trkpt lat="41.80764679795892" lon="-2.8519541678864018"><ele>1127.75</ele><time>2026-05-03T11:17:27.001Z</time></trkpt><trkpt lat="41.80765764305591" lon="-2.851802289503315"><ele>1128.0</ele><time>2026-05-03T11:17:28.001Z</time></trkpt><trkpt lat="41.80766156624456" lon="-2.85165113924749"><ele>1128.2</ele><time>2026-05-03T11:17:29.001Z</time></trkpt><trkpt lat="41.807662487958765" lon="-2.851502013820398"><ele>1128.4</ele><time>2026-05-03T11:17:30.001Z</time></trkpt><trkpt lat="41.807660398511196" lon="-2.851357741289844"><ele>1128.6000000000001</ele><time>2026-05-03T11:17:31.001Z</time></trkpt><trkpt lat="41.8076585604005" lon="-2.8512005006804495"><ele>1128.8</ele><time>2026-05-03T11:17:32.001Z</time></trkpt><trkpt lat="41.80765818701934" lon="-2.851049315873844"><ele>1129.0</ele><time>2026-05-03T11:17:33.001Z</time></trkpt><trkpt lat="41.80765696139462" lon="-2.850903126797239"><ele>1129.0</ele><time>2026-05-03T11:17:34.001Z</time></trkpt><trkpt lat="41.80765387093559" lon="-2.8507516554435846"><ele>1129.0</ele><time>2026-05-03T11:17:35.001Z</time></trkpt><trkpt lat="41.80764942480513" lon="-2.850600496218081"><ele>1129.0</ele><time>2026-05-03T11:17:36.001Z</time></trkpt><trkpt lat="41.8076473334991" lon="-2.8504460859489376"><ele>1129.0</ele><time>2026-05-03T11:17:37.001Z</time></trkpt><trkpt lat="41.80764375459761" lon="-2.8502913400997043"><ele>1129.0</ele><time>2026-05-03T11:17:38.001Z</time></trkpt><trkpt lat="41.80764292034483" lon="-2.8501374754545727"><ele>1129.0</ele><time>2026-05-03T11:17:39.001Z</time></trkpt><trkpt lat="41.807640332944764" lon="-2.849982833899019"><ele>1129.0</ele><time>2026-05-03T11:17:40.001Z</time></trkpt><trkpt lat="41.807637379835136" lon="-2.849826316553231"><ele>1129.0</ele><time>2026-05-03T11:17:41Z</time></trkpt><trkpt lat="41.807636335775264" lon="-2.849669797895088"><ele>1129.0</ele><time>2026-05-03T11:17:42Z</time></trkpt><trkpt lat="41.807634667059894" lon="-2.8495151643610583"><ele>1129.0</ele><time>2026-05-03T11:17:43Z</time></trkpt><trkpt lat="41.80763298293079" lon="-2.8493605599047522"><ele>1129.0</ele><time>2026-05-03T11:17:44Z</time></trkpt><trkpt lat="41.80763028923556" lon="-2.849204167898183"><ele>1129.0</ele><time>2026-05-03T11:17:45Z</time></trkpt><trkpt lat="41.80762966321214" lon="-2.84904704738315"><ele>1128.75</ele><time>2026-05-03T11:17:46Z</time></trkpt><trkpt lat="41.80762993437685" lon="-2.84889040536456"><ele>1128.5</ele><time>2026-05-03T11:17:47Z</time></trkpt><trkpt lat="41.80762797882188" lon="-2.848734745869997"><ele>1128.25</ele><time>2026-05-03T11:17:48Z</time></trkpt><trkpt lat="41.80762583614323" lon="-2.8485818229132445"><ele>1128.0</ele><time>2026-05-03T11:17:49Z</time></trkpt><trkpt lat="41.80762206241696" lon="-2.848425770021063"><ele>1128.0</ele><time>2026-05-03T11:17:50Z</time></trkpt><trkpt lat="41.80761906123124" lon="-2.848271047120193"><ele>1128.0</ele><time>2026-05-03T11:17:51Z</time></trkpt><trkpt lat="41.80761715063646" lon="-2.8481153640675076"><ele>1128.0</ele><time>2026-05-03T11:17:52Z</time></trkpt><trkpt lat="41.80761739374082" lon="-2.8479582073832495"><ele>1128.0</ele><time>2026-05-03T11:17:53Z</time></trkpt><trkpt lat="41.80761115782638" lon="-2.8478010854857136"><ele>1128.0</ele><time>2026-05-03T11:17:54Z</time></trkpt><trkpt lat="41.80760995585764" lon="-2.8476449458560316"><ele>1128.0</ele><time>2026-05-03T11:17:55Z</time></trkpt><trkpt lat="41.80760878801128" lon="-2.8474879618302484"><ele>1128.0</ele><time>2026-05-03T11:17:56Z</time></trkpt><trkpt lat="41.80760763111208" lon="-2.8473290717366337"><ele>1128.0</ele><time>2026-05-03T11:17:57Z</time></trkpt><trkpt lat="41.80760549616588" lon="-2.847169817908415"><ele>1127.5</ele><time>2026-05-03T11:17:58Z</time></trkpt><trkpt lat="41.80760301129854" lon="-2.8470135974053927"><ele>1127.0</ele><time>2026-05-03T11:17:59Z</time></trkpt><trkpt lat="41.8075994109128" lon="-2.846858350711615"><ele>1126.5</ele><time>2026-05-03T11:18:00Z</time></trkpt><trkpt lat="41.807595085334164" lon="-2.8467051692870933"><ele>1126.0</ele><time>2026-05-03T11:18:01Z</time></trkpt><trkpt lat="41.80759287668885" lon="-2.8465508193715183"><ele>1125.75</ele><time>2026-05-03T11:18:02Z</time></trkpt><trkpt lat="41.807593669389675" lon="-2.8463962703610775"><ele>1125.5</ele><time>2026-05-03T11:18:03Z</time></trkpt><trkpt lat="41.80759267342825" lon="-2.8462423360955187"><ele>1125.25</ele><time>2026-05-03T11:18:04Z</time></trkpt><trkpt lat="41.80759063098057" lon="-2.84608648704978"><ele>1125.0</ele><time>2026-05-03T11:18:05Z</time></trkpt><trkpt lat="41.8075859237501" lon="-2.84593005261911"><ele>1124.25</ele><time>2026-05-03T11:18:06Z</time></trkpt><trkpt lat="41.807583562081874" lon="-2.845775279286488"><ele>1123.5</ele><time>2026-05-03T11:18:07Z</time></trkpt><trkpt lat="41.807580022999524" lon="-2.845618212616287"><ele>1122.75</ele><time>2026-05-03T11:18:08Z</time></trkpt><trkpt lat="41.80757702431259" lon="-2.8454627214729347"><ele>1122.0</ele><time>2026-05-03T11:18:09Z</time></trkpt><trkpt lat="41.80757437447554" lon="-2.8453059689511626"><ele>1122.0</ele><time>2026-05-03T11:18:10Z</time></trkpt><trkpt lat="41.807571619653096" lon="-2.8451512328615975"><ele>1122.0</ele><time>2026-05-03T11:18:11Z</time></trkpt><trkpt lat="41.807569938641926" lon="-2.8449944801519442"><ele>1122.0</ele><time>2026-05-03T11:18:12Z</time></trkpt><trkpt lat="41.80756845165383" lon="-2.844839231254211"><ele>1122.0</ele><time>2026-05-03T11:18:13Z</time></trkpt><trkpt lat="41.8075671314489" lon="-2.8446837359333976"><ele>1121.75</ele><time>2026-05-03T11:18:14Z</time></trkpt><trkpt lat="41.80756494020964" lon="-2.844530383655922"><ele>1121.5</ele><time>2026-05-03T11:18:15Z</time></trkpt><trkpt lat="41.80756355784946" lon="-2.8443757648647674"><ele>1121.25</ele><time>2026-05-03T11:18:16Z</time></trkpt><trkpt lat="41.80756224349059" lon="-2.8442186156233684"><ele>1121.0</ele><time>2026-05-03T11:18:17Z</time></trkpt><trkpt lat="41.807558519042594" lon="-2.8440667008528258"><ele>1121.0</ele><time>2026-05-03T11:18:18Z</time></trkpt><trkpt lat="41.80755684613216" lon="-2.843914950855483"><ele>1121.0</ele><time>2026-05-03T11:18:19Z</time></trkpt><trkpt lat="41.80755668583686" lon="-2.8437610446372896"><ele>1121.0</ele><time>2026-05-03T11:18:20Z</time></trkpt><trkpt lat="41.80755449342321" lon="-2.843608410385702"><ele>1121.0</ele><time>2026-05-03T11:18:21Z</time></trkpt><trkpt lat="41.80755194795335" lon="-2.84345587899477"><ele>1121.2</ele><time>2026-05-03T11:18:22Z</time></trkpt><trkpt lat="41.8075483953067" lon="-2.8433045472263485"><ele>1121.3999999999999</ele><time>2026-05-03T11:18:23Z</time></trkpt><trkpt lat="41.80754870588406" lon="-2.843155772641594"><ele>1121.6</ele><time>2026-05-03T11:18:24Z</time></trkpt><trkpt lat="41.8075470832214" lon="-2.8430063598269926"><ele>1121.8</ele><time>2026-05-03T11:18:25Z</time></trkpt><trkpt lat="41.80754480688963" lon="-2.842861203709818"><ele>1122.0</ele><time>2026-05-03T11:18:26Z</time></trkpt><trkpt lat="41.80754725016042" lon="-2.842701036485303"><ele>1122.0</ele><time>2026-05-03T11:18:27Z</time></trkpt><trkpt lat="41.80753700197116" lon="-2.8425521628027233"><ele>1122.0</ele><time>2026-05-03T11:18:28Z</time></trkpt><trkpt lat="41.80753353136401" lon="-2.8424039697480263"><ele>1122.0</ele><time>2026-05-03T11:18:29Z</time></trkpt><trkpt lat="41.80752912363215" lon="-2.8422525201834494"><ele>1122.0</ele><time>2026-05-03T11:18:30Z</time></trkpt><trkpt lat="41.80752808338349" lon="-2.8421042370553113"><ele>1122.0</ele><time>2026-05-03T11:18:31Z</time></trkpt><trkpt lat="41.807526349384744" lon="-2.841956175846527"><ele>1122.0</ele><time>2026-05-03T11:18:32Z</time></trkpt><trkpt lat="41.807525319716355" lon="-2.841809141666698"><ele>1122.0</ele><time>2026-05-03T11:18:33Z</time></trkpt><trkpt lat="41.80752381577103" lon="-2.841666259943391"><ele>1122.0</ele><time>2026-05-03T11:18:34Z</time></trkpt><trkpt lat="41.807521363873285" lon="-2.8415186171008755"><ele>1122.0</ele><time>2026-05-03T11:18:35Z</time></trkpt><trkpt lat="41.807518974695284" lon="-2.841374907515548"><ele>1122.0</ele><time>2026-05-03T11:18:36Z</time></trkpt><trkpt lat="41.8075171799548" lon="-2.841229688855301"><ele>1121.8</ele><time>2026-05-03T11:18:37Z</time></trkpt><trkpt lat="41.80751586830123" lon="-2.841084708304428"><ele>1121.6</ele><time>2026-05-03T11:18:38Z</time></trkpt><trkpt lat="41.80751411947304" lon="-2.8409412947682675"><ele>1121.3999999999999</ele><time>2026-05-03T11:18:39Z</time></trkpt><trkpt lat="41.807511664924554" lon="-2.840796553022943"><ele>1121.2</ele><time>2026-05-03T11:18:40Z</time></trkpt><trkpt lat="41.807511029184" lon="-2.840653258323544"><ele>1121.0</ele><time>2026-05-03T11:18:41Z</time></trkpt><trkpt lat="41.80750904592491" lon="-2.8405103144137827"><ele>1121.0</ele><time>2026-05-03T11:18:42Z</time></trkpt><trkpt lat="41.807506238122066" lon="-2.8403665153955515"><ele>1121.0</ele><time>2026-05-03T11:18:43Z</time></trkpt><trkpt lat="41.80750369844823" lon="-2.840222660442462"><ele>1121.0</ele><time>2026-05-03T11:18:44Z</time></trkpt><trkpt lat="41.8075003189911" lon="-2.840079003248824"><ele>1121.0</ele><time>2026-05-03T11:18:45Z</time></trkpt><trkpt lat="41.80749789462002" lon="-2.8399354393210516"><ele>1121.0</ele><time>2026-05-03T11:18:46Z</time></trkpt><trkpt lat="41.807495795376525" lon="-2.8397938097227557"><ele>1121.3999999999999</ele><time>2026-05-03T11:18:47Z</time></trkpt><trkpt lat="41.807493013447896" lon="-2.8396510607254353"><ele>1121.8</ele><time>2026-05-03T11:18:48Z</time></trkpt><trkpt lat="41.80749023112889" lon="-2.839508262499103"><ele>1122.1999999999998</ele><time>2026-05-03T11:18:49Z</time></trkpt><trkpt lat="41.80748754390487" lon="-2.839364901259162"><ele>1122.6</ele><time>2026-05-03T11:18:50Z</time></trkpt><trkpt lat="41.80748397440129" lon="-2.8392210178955244"><ele>1123.0</ele><time>2026-05-03T11:18:51Z</time></trkpt><trkpt lat="41.807488077407776" lon="-2.8390759006567987"><ele>1123.2</ele><time>2026-05-03T11:18:52Z</time></trkpt><trkpt lat="41.80748672804558" lon="-2.8389340258824336"><ele>1123.4</ele><time>2026-05-03T11:18:53Z</time></trkpt><trkpt lat="41.807481111677774" lon="-2.8387886631549426"><ele>1123.6000000000001</ele><time>2026-05-03T11:18:54Z</time></trkpt><trkpt lat="41.80747874967428" lon="-2.838644174545599"><ele>1123.8</ele><time>2026-05-03T11:18:55Z</time></trkpt><trkpt lat="41.807476775069965" lon="-2.838496817816843"><ele>1124.0</ele><time>2026-05-03T11:18:56Z</time></trkpt><trkpt lat="41.8074739744383" lon="-2.838348677814225"><ele>1124.4</ele><time>2026-05-03T11:18:57.001Z</time></trkpt><trkpt lat="41.80747200890458" lon="-2.8382035795976157"><ele>1124.8000000000002</ele><time>2026-05-03T11:18:58.001Z</time></trkpt><trkpt lat="41.80746965084006" lon="-2.8380553076890114"><ele>1125.1999999999998</ele><time>2026-05-03T11:18:59.001Z</time></trkpt><trkpt lat="41.80747135802623" lon="-2.837913608369351"><ele>1125.6</ele><time>2026-05-03T11:19:00.001Z</time></trkpt><trkpt lat="41.807469807781125" lon="-2.837749675177112"><ele>1126.0</ele><time>2026-05-03T11:19:01.001Z</time></trkpt><trkpt lat="41.80746081210117" lon="-2.8375798149118507"><ele>1126.5</ele><time>2026-05-03T11:19:02.001Z</time></trkpt><trkpt lat="41.80742226793092" lon="-2.8373411078667705"><ele>1127.0</ele><time>2026-05-03T11:19:03.001Z</time></trkpt><trkpt lat="41.80745341462359" lon="-2.837171030566316"><ele>1127.5</ele><time>2026-05-03T11:19:05.001Z</time></trkpt><trkpt lat="41.807451410547905" lon="-2.8370201813961797"><ele>1128.0</ele><time>2026-05-03T11:19:06.001Z</time></trkpt><trkpt lat="41.80745061140002" lon="-2.836869941430508"><ele>1127.6</ele><time>2026-05-03T11:19:07.001Z</time></trkpt><trkpt lat="41.807446360129106" lon="-2.836723937390927"><ele>1127.1999999999998</ele><time>2026-05-03T11:19:08.001Z</time></trkpt><trkpt lat="41.80744464858149" lon="-2.8365778330446814"><ele>1126.8</ele><time>2026-05-03T11:19:09.001Z</time></trkpt><trkpt lat="41.807445655357945" lon="-2.83643193764989"><ele>1126.3999999999999</ele><time>2026-05-03T11:19:10.001Z</time></trkpt><trkpt lat="41.80744243984776" lon="-2.83628184836981"><ele>1126.0</ele><time>2026-05-03T11:19:11.001Z</time></trkpt><trkpt lat="41.807441151914595" lon="-2.8361352966326794"><ele>1126.0</ele><time>2026-05-03T11:19:12.001Z</time></trkpt><trkpt lat="41.80744055364864" lon="-2.835986521701492"><ele>1126.0</ele><time>2026-05-03T11:19:13.001Z</time></trkpt><trkpt lat="41.80743766587784" lon="-2.835837213754271"><ele>1126.0</ele><time>2026-05-03T11:19:14.001Z</time></trkpt><trkpt lat="41.80743572691714" lon="-2.835687233092952"><ele>1126.0</ele><time>2026-05-03T11:19:15.001Z</time></trkpt><trkpt lat="41.80743536769551" lon="-2.835541371717174"><ele>1126.0</ele><time>2026-05-03T11:19:16.001Z</time></trkpt><trkpt lat="41.807432328601834" lon="-2.8353917592670235"><ele>1126.0</ele><time>2026-05-03T11:19:17.001Z</time></trkpt><trkpt lat="41.8074299874107" lon="-2.835242513082256"><ele>1126.0</ele><time>2026-05-03T11:19:18.001Z</time></trkpt><trkpt lat="41.80742780490574" lon="-2.8350943428237967"><ele>1126.0</ele><time>2026-05-03T11:19:19.001Z</time></trkpt><trkpt lat="41.807426274612126" lon="-2.834944884666751"><ele>1126.0</ele><time>2026-05-03T11:19:20.001Z</time></trkpt><trkpt lat="41.80742621983634" lon="-2.834797581576969"><ele>1126.0</ele><time>2026-05-03T11:19:21.001Z</time></trkpt><trkpt lat="41.80742577223616" lon="-2.8346495745924143"><ele>1126.0</ele><time>2026-05-03T11:19:22.001Z</time></trkpt><trkpt lat="41.807422708723095" lon="-2.8345057322104408"><ele>1126.0</ele><time>2026-05-03T11:19:23.001Z</time></trkpt><trkpt lat="41.80742084877471" lon="-2.8343594217196046"><ele>1126.0</ele><time>2026-05-03T11:19:24.001Z</time></trkpt><trkpt lat="41.80741757371473" lon="-2.834211643025452"><ele>1126.0</ele><time>2026-05-03T11:19:25.001Z</time></trkpt><trkpt lat="41.80741777547309" lon="-2.834065770326439"><ele>1126.0</ele><time>2026-05-03T11:19:26.001Z</time></trkpt><trkpt lat="41.80741477099118" lon="-2.8339254296758427"><ele>1126.2</ele><time>2026-05-03T11:19:27.001Z</time></trkpt><trkpt lat="41.80741298318683" lon="-2.833779509867673"><ele>1126.3999999999999</ele><time>2026-05-03T11:19:28.001Z</time></trkpt><trkpt lat="41.80741266961116" lon="-2.83363504505438"><ele>1126.6</ele><time>2026-05-03T11:19:29.001Z</time></trkpt><trkpt lat="41.80741346878448" lon="-2.833495077500733"><ele>1126.8</ele><time>2026-05-03T11:19:30.001Z</time></trkpt><trkpt lat="41.80741131485326" lon="-2.8333488281136523"><ele>1127.0</ele><time>2026-05-03T11:19:31.001Z</time></trkpt><trkpt lat="41.8074101848976" lon="-2.8332043453640186"><ele>1127.2</ele><time>2026-05-03T11:19:32.001Z</time></trkpt><trkpt lat="41.807409600612246" lon="-2.833061574269488"><ele>1127.4</ele><time>2026-05-03T11:19:33.001Z</time></trkpt><trkpt lat="41.80741000916125" lon="-2.832915677299689"><ele>1127.6</ele><time>2026-05-03T11:19:34.001Z</time></trkpt><trkpt lat="41.80740811937574" lon="-2.8327711689439643"><ele>1127.8</ele><time>2026-05-03T11:19:35.001Z</time></trkpt><trkpt lat="41.80740419672291" lon="-2.832628665598501"><ele>1128.0</ele><time>2026-05-03T11:19:36.001Z</time></trkpt><trkpt lat="41.80740138998701" lon="-2.8324845283958626"><ele>1128.2</ele><time>2026-05-03T11:19:37.001Z</time></trkpt><trkpt lat="41.80739947859164" lon="-2.8323400761002184"><ele>1128.4</ele><time>2026-05-03T11:19:38.001Z</time></trkpt><trkpt lat="41.80740049096736" lon="-2.832195066642057"><ele>1128.6000000000001</ele><time>2026-05-03T11:19:39.001Z</time></trkpt><trkpt lat="41.80739990529707" lon="-2.83205254100533"><ele>1128.8</ele><time>2026-05-03T11:19:40.001Z</time></trkpt><trkpt lat="41.80739864596282" lon="-2.8319041824224076"><ele>1129.0</ele><time>2026-05-03T11:19:41.001Z</time></trkpt><trkpt lat="41.80739353441519" lon="-2.831757913000968"><ele>1129.2</ele><time>2026-05-03T11:19:42.001Z</time></trkpt><trkpt lat="41.8073884561331" lon="-2.831610760808395"><ele>1129.4</ele><time>2026-05-03T11:19:43.001Z</time></trkpt><trkpt lat="41.80738729156965" lon="-2.831466688998506"><ele>1129.6</ele><time>2026-05-03T11:19:44.001Z</time></trkpt><trkpt lat="41.80738347036293" lon="-2.8313195013649284"><ele>1129.8</ele><time>2026-05-03T11:19:45.001Z</time></trkpt><trkpt lat="41.80738118853256" lon="-2.8311729449925993"><ele>1130.0</ele><time>2026-05-03T11:19:46.001Z</time></trkpt><trkpt lat="41.80737926365733" lon="-2.8310266151127434"><ele>1130.4</ele><time>2026-05-03T11:19:47Z</time></trkpt><trkpt lat="41.80737755318158" lon="-2.8308825288652133"><ele>1130.8</ele><time>2026-05-03T11:19:48Z</time></trkpt><trkpt lat="41.80737574991673" lon="-2.830735680728897"><ele>1131.2</ele><time>2026-05-03T11:19:49Z</time></trkpt><trkpt lat="41.80737418583961" lon="-2.8305903552815135"><ele>1131.6</ele><time>2026-05-03T11:19:50Z</time></trkpt><trkpt lat="41.80737089089938" lon="-2.830449153091681"><ele>1132.0</ele><time>2026-05-03T11:19:51Z</time></trkpt><trkpt lat="41.80736819620246" lon="-2.8303036496353826"><ele>1132.0</ele><time>2026-05-03T11:19:52Z</time></trkpt><trkpt lat="41.8073644987625" lon="-2.830159859158173"><ele>1132.0</ele><time>2026-05-03T11:19:53Z</time></trkpt><trkpt lat="41.80736217217603" lon="-2.830015556716558"><ele>1132.0</ele><time>2026-05-03T11:19:54Z</time></trkpt><trkpt lat="41.80736141543468" lon="-2.829870579121849"><ele>1132.0</ele><time>2026-05-03T11:19:55Z</time></trkpt><trkpt lat="41.80736141050134" lon="-2.8297257442454016"><ele>1132.0</ele><time>2026-05-03T11:19:56Z</time></trkpt><trkpt lat="41.80735880171386" lon="-2.829581566842559"><ele>1132.0</ele><time>2026-05-03T11:19:57Z</time></trkpt><trkpt lat="41.80735584389168" lon="-2.829437214548959"><ele>1132.0</ele><time>2026-05-03T11:19:58Z</time></trkpt><trkpt lat="41.80735102062278" lon="-2.8292914674917906"><ele>1132.0</ele><time>2026-05-03T11:19:59Z</time></trkpt><trkpt lat="41.807347980709" lon="-2.829146041905212"><ele>1132.0</ele><time>2026-05-03T11:20:00Z</time></trkpt><trkpt lat="41.80734939394586" lon="-2.8290000109720004"><ele>1132.0</ele><time>2026-05-03T11:20:01Z</time></trkpt><trkpt lat="41.80734685031397" lon="-2.828855658264421"><ele>1132.0</ele><time>2026-05-03T11:20:02Z</time></trkpt><trkpt lat="41.80734868084649" lon="-2.828712526312488"><ele>1132.0</ele><time>2026-05-03T11:20:03Z</time></trkpt><trkpt lat="41.80734906455031" lon="-2.8285671419027385"><ele>1132.0</ele><time>2026-05-03T11:20:04Z</time></trkpt><trkpt lat="41.80734332274763" lon="-2.8284210420846603"><ele>1132.0</ele><time>2026-05-03T11:20:05Z</time></trkpt><trkpt lat="41.807338630795485" lon="-2.828277730794593"><ele>1132.0</ele><time>2026-05-03T11:20:06Z</time></trkpt><trkpt lat="41.80733568267638" lon="-2.8281333266356934"><ele>1132.2</ele><time>2026-05-03T11:20:07Z</time></trkpt><trkpt lat="41.807331573535436" lon="-2.8279892190345453"><ele>1132.4</ele><time>2026-05-03T11:20:08Z</time></trkpt><trkpt lat="41.807331666978186" lon="-2.827848543468608"><ele>1132.6</ele><time>2026-05-03T11:20:09Z</time></trkpt><trkpt lat="41.80733057463828" lon="-2.8277080324268518"><ele>1132.8</ele><time>2026-05-03T11:20:10Z</time></trkpt><trkpt lat="41.80732628809545" lon="-2.827565141106717"><ele>1133.0</ele><time>2026-05-03T11:20:11Z</time></trkpt><trkpt lat="41.807323101111145" lon="-2.8274254204957923"><ele>1133.8</ele><time>2026-05-03T11:20:12Z</time></trkpt><trkpt lat="41.80732337720591" lon="-2.827282989688233"><ele>1134.6</ele><time>2026-05-03T11:20:13Z</time></trkpt><trkpt lat="41.807319438032444" lon="-2.827139651590983"><ele>1135.4</ele><time>2026-05-03T11:20:14Z</time></trkpt><trkpt lat="41.80731910387004" lon="-2.826997177948731"><ele>1136.2</ele><time>2026-05-03T11:20:15Z</time></trkpt><trkpt lat="41.80731765863431" lon="-2.8268540953098302"><ele>1137.0</ele><time>2026-05-03T11:20:16Z</time></trkpt><trkpt lat="41.8073146837575" lon="-2.826711809402506"><ele>1137.0</ele><time>2026-05-03T11:20:17Z</time></trkpt><trkpt lat="41.80731216755775" lon="-2.8265681589290996"><ele>1137.0</ele><time>2026-05-03T11:20:18Z</time></trkpt><trkpt lat="41.80730799902483" lon="-2.826423745081922"><ele>1137.0</ele><time>2026-05-03T11:20:19Z</time></trkpt><trkpt lat="41.80730553063749" lon="-2.8262776943734735"><ele>1137.0</ele><time>2026-05-03T11:20:20Z</time></trkpt><trkpt lat="41.80729923343514" lon="-2.826136527178313"><ele>1137.0</ele><time>2026-05-03T11:20:21Z</time></trkpt><trkpt lat="41.80730271282371" lon="-2.825995199031009"><ele>1137.0</ele><time>2026-05-03T11:20:22Z</time></trkpt><trkpt lat="41.80730132594491" lon="-2.825848415961569"><ele>1137.0</ele><time>2026-05-03T11:20:23Z</time></trkpt><trkpt lat="41.80729838213549" lon="-2.8257049712898934"><ele>1137.0</ele><time>2026-05-03T11:20:24Z</time></trkpt><trkpt lat="41.80729526229725" lon="-2.8255624240473503"><ele>1137.0</ele><time>2026-05-03T11:20:25Z</time></trkpt><trkpt lat="41.80729273390976" lon="-2.8254217244555737"><ele>1137.0</ele><time>2026-05-03T11:20:26Z</time></trkpt><trkpt lat="41.807293014212206" lon="-2.825279435257514"><ele>1137.4</ele><time>2026-05-03T11:20:27Z</time></trkpt><trkpt lat="41.80728987908195" lon="-2.8251385321668128"><ele>1137.8000000000002</ele><time>2026-05-03T11:20:28Z</time></trkpt><trkpt lat="41.80728609874423" lon="-2.82499322909234"><ele>1138.2</ele><time>2026-05-03T11:20:29Z</time></trkpt><trkpt lat="41.80728516875334" lon="-2.8248520321097113"><ele>1138.6000000000001</ele><time>2026-05-03T11:20:30Z</time></trkpt><trkpt lat="41.80728419739797" lon="-2.8247099183315894"><ele>1139.0</ele><time>2026-05-03T11:20:31Z</time></trkpt><trkpt lat="41.80728271115285" lon="-2.8245677891228804"><ele>1139.0</ele><time>2026-05-03T11:20:32Z</time></trkpt><trkpt lat="41.80728109707846" lon="-2.8244243473381836"><ele>1139.0</ele><time>2026-05-03T11:20:33Z</time></trkpt><trkpt lat="41.807279435171715" lon="-2.8242832218714806"><ele>1139.0</ele><time>2026-05-03T11:20:34Z</time></trkpt><trkpt lat="41.807276766299694" lon="-2.824140881840089"><ele>1139.0</ele><time>2026-05-03T11:20:35Z</time></trkpt><trkpt lat="41.80727585364103" lon="-2.8239977007444654"><ele>1139.0</ele><time>2026-05-03T11:20:36Z</time></trkpt><trkpt lat="41.80727322334948" lon="-2.823855391748136"><ele>1139.4</ele><time>2026-05-03T11:20:37Z</time></trkpt><trkpt lat="41.80727264214255" lon="-2.8237118961807774"><ele>1139.8000000000002</ele><time>2026-05-03T11:20:38Z</time></trkpt><trkpt lat="41.807270478839236" lon="-2.82356913969334"><ele>1140.1999999999998</ele><time>2026-05-03T11:20:39Z</time></trkpt><trkpt lat="41.80726938501926" lon="-2.8234272831166805"><ele>1140.6</ele><time>2026-05-03T11:20:40Z</time></trkpt><trkpt lat="41.80726793763879" lon="-2.823286800006762"><ele>1141.0</ele><time>2026-05-03T11:20:41Z</time></trkpt><trkpt lat="41.80726379313281" lon="-2.823143915646478"><ele>1141.0</ele><time>2026-05-03T11:20:42Z</time></trkpt><trkpt lat="41.807260044741135" lon="-2.82300307853505"><ele>1141.0</ele><time>2026-05-03T11:20:43Z</time></trkpt><trkpt lat="41.807259484698385" lon="-2.822864209046447"><ele>1141.0</ele><time>2026-05-03T11:20:44Z</time></trkpt><trkpt lat="41.807256670662056" lon="-2.8227225334572754"><ele>1141.0</ele><time>2026-05-03T11:20:45Z</time></trkpt><trkpt lat="41.807254590729954" lon="-2.822582757597712"><ele>1141.0</ele><time>2026-05-03T11:20:46Z</time></trkpt><trkpt lat="41.80725256813249" lon="-2.8224429212745106"><ele>1141.2</ele><time>2026-05-03T11:20:47Z</time></trkpt><trkpt lat="41.80725179335393" lon="-2.822302811689815"><ele>1141.3999999999999</ele><time>2026-05-03T11:20:48Z</time></trkpt><trkpt lat="41.807248097356904" lon="-2.822161535309448"><ele>1141.6</ele><time>2026-05-03T11:20:49Z</time></trkpt><trkpt lat="41.80724387917643" lon="-2.822020900004442"><ele>1141.8</ele><time>2026-05-03T11:20:50Z</time></trkpt><trkpt lat="41.807243807334395" lon="-2.821883677425223"><ele>1142.0</ele><time>2026-05-03T11:20:51Z</time></trkpt><trkpt lat="41.80724050110593" lon="-2.821742527218828"><ele>1142.0</ele><time>2026-05-03T11:20:52Z</time></trkpt><trkpt lat="41.807237079244196" lon="-2.821600950679284"><ele>1142.0</ele><time>2026-05-03T11:20:53Z</time></trkpt><trkpt lat="41.807237797346126" lon="-2.8214582107619304"><ele>1142.0</ele><time>2026-05-03T11:20:54Z</time></trkpt><trkpt lat="41.80723780631428" lon="-2.821315527245166"><ele>1142.0</ele><time>2026-05-03T11:20:55Z</time></trkpt><trkpt lat="41.807234859885924" lon="-2.8211738609957426"><ele>1142.0</ele><time>2026-05-03T11:20:56Z</time></trkpt><trkpt lat="41.80723195051318" lon="-2.8210287723691225"><ele>1141.6</ele><time>2026-05-03T11:20:57Z</time></trkpt><trkpt lat="41.807230457395406" lon="-2.820884836181608"><ele>1141.2</ele><time>2026-05-03T11:20:58Z</time></trkpt><trkpt lat="41.807227203762885" lon="-2.820740928648031"><ele>1140.8</ele><time>2026-05-03T11:20:59Z</time></trkpt><trkpt lat="41.80722527886284" lon="-2.8205969583470303"><ele>1140.4</ele><time>2026-05-03T11:21:00Z</time></trkpt><trkpt lat="41.80722126420207" lon="-2.8204492785244537"><ele>1140.0</ele><time>2026-05-03T11:21:01Z</time></trkpt><trkpt lat="41.80722244146175" lon="-2.8203034210793207"><ele>1140.0</ele><time>2026-05-03T11:21:02Z</time></trkpt><trkpt lat="41.807219020671454" lon="-2.8201566152044637"><ele>1140.0</ele><time>2026-05-03T11:21:03Z</time></trkpt><trkpt lat="41.80721518949518" lon="-2.820010034499681"><ele>1140.0</ele><time>2026-05-03T11:21:04Z</time></trkpt><trkpt lat="41.807211049677974" lon="-2.819864218248036"><ele>1140.0</ele><time>2026-05-03T11:21:05Z</time></trkpt><trkpt lat="41.807209517505726" lon="-2.8197187307416836"><ele>1140.0</ele><time>2026-05-03T11:21:06.001Z</time></trkpt><trkpt lat="41.80720935398688" lon="-2.819572381662551"><ele>1140.2</ele><time>2026-05-03T11:21:07.001Z</time></trkpt><trkpt lat="41.80720895764127" lon="-2.8194285113401905"><ele>1140.4</ele><time>2026-05-03T11:21:08.001Z</time></trkpt><trkpt lat="41.80720754884327" lon="-2.8192820956903692"><ele>1140.6</ele><time>2026-05-03T11:21:09.001Z</time></trkpt><trkpt lat="41.80720583577186" lon="-2.8191357907301167"><ele>1140.8</ele><time>2026-05-03T11:21:10.001Z</time></trkpt><trkpt lat="41.80720037578205" lon="-2.8189886470431893"><ele>1141.0</ele><time>2026-05-03T11:21:11.001Z</time></trkpt><trkpt lat="41.807197481465444" lon="-2.8188438926937764"><ele>1141.0</ele><time>2026-05-03T11:21:12.001Z</time></trkpt><trkpt lat="41.80719764870193" lon="-2.818695405624229"><ele>1141.0</ele><time>2026-05-03T11:21:13.001Z</time></trkpt><trkpt lat="41.80719642784418" lon="-2.818550553486817"><ele>1141.0</ele><time>2026-05-03T11:21:14.001Z</time></trkpt><trkpt lat="41.80719118200534" lon="-2.818402566482912"><ele>1141.0</ele><time>2026-05-03T11:21:15.001Z</time></trkpt><trkpt lat="41.80718900188116" lon="-2.8182577137526645"><ele>1141.0</ele><time>2026-05-03T11:21:16.001Z</time></trkpt><trkpt lat="41.80718666730866" lon="-2.8181104567817994"><ele>1141.2</ele><time>2026-05-03T11:21:17.001Z</time></trkpt><trkpt lat="41.80718422741395" lon="-2.817965259056643"><ele>1141.3999999999999</ele><time>2026-05-03T11:21:18.001Z</time></trkpt><trkpt lat="41.80718084916611" lon="-2.817817299087418"><ele>1141.6</ele><time>2026-05-03T11:21:19.001Z</time></trkpt><trkpt lat="41.80718137188257" lon="-2.817674519554597"><ele>1141.8</ele><time>2026-05-03T11:21:20.001Z</time></trkpt><trkpt lat="41.80717985728592" lon="-2.8175276374837916"><ele>1142.0</ele><time>2026-05-03T11:21:21.001Z</time></trkpt><trkpt lat="41.807176150326995" lon="-2.817379166021042"><ele>1141.8</ele><time>2026-05-03T11:21:22.001Z</time></trkpt><trkpt lat="41.80717011635733" lon="-2.817231405393401"><ele>1141.6</ele><time>2026-05-03T11:21:23.001Z</time></trkpt><trkpt lat="41.807173042842756" lon="-2.8170851507725843"><ele>1141.3999999999999</ele><time>2026-05-03T11:21:24.001Z</time></trkpt><trkpt lat="41.80717580470268" lon="-2.8169476508965015"><ele>1141.2</ele><time>2026-05-03T11:21:25.001Z</time></trkpt><trkpt lat="41.807176294533804" lon="-2.8168218838054466"><ele>1141.0</ele><time>2026-05-03T11:21:26.001Z</time></trkpt><trkpt lat="41.80717308081863" lon="-2.8167011056240425"><ele>1141.0</ele><time>2026-05-03T11:21:27.001Z</time></trkpt><trkpt lat="41.80716754325493" lon="-2.8165826839070762"><ele>1141.0</ele><time>2026-05-03T11:21:28.001Z</time></trkpt><trkpt lat="41.80716423031773" lon="-2.816468769774474"><ele>1141.0</ele><time>2026-05-03T11:21:29.001Z</time></trkpt><trkpt lat="41.80716341663335" lon="-2.816351249086825"><ele>1141.0</ele><time>2026-05-03T11:21:30.001Z</time></trkpt><trkpt lat="41.807159558325615" lon="-2.81622759984717"><ele>1141.0</ele><time>2026-05-03T11:21:31.001Z</time></trkpt><trkpt lat="41.80715739827622" lon="-2.8160992259824495"><ele>1141.0</ele><time>2026-05-03T11:21:32.001Z</time></trkpt><trkpt lat="41.80715720250812" lon="-2.815970693227075"><ele>1141.0</ele><time>2026-05-03T11:21:33.001Z</time></trkpt><trkpt lat="41.80716284924978" lon="-2.8158410657996154"><ele>1141.0</ele><time>2026-05-03T11:21:34.001Z</time></trkpt><trkpt lat="41.807161782229855" lon="-2.8157067430766354"><ele>1141.0</ele><time>2026-05-03T11:21:35.001Z</time></trkpt><trkpt lat="41.807159577188976" lon="-2.8155762249416414"><ele>1141.0</ele><time>2026-05-03T11:21:36.001Z</time></trkpt><trkpt lat="41.80715736693243" lon="-2.81544156839995"><ele>1141.0</ele><time>2026-05-03T11:21:37.001Z</time></trkpt><trkpt lat="41.807159956450704" lon="-2.8153167600317377"><ele>1141.0</ele><time>2026-05-03T11:21:38.001Z</time></trkpt><trkpt lat="41.807156824965965" lon="-2.8151927128835963"><ele>1141.0</ele><time>2026-05-03T11:21:39.001Z</time></trkpt><trkpt lat="41.807149525246224" lon="-2.8150711261966386"><ele>1141.0</ele><time>2026-05-03T11:21:40.001Z</time></trkpt><trkpt lat="41.807151487133495" lon="-2.8149534345595066"><ele>1141.0</ele><time>2026-05-03T11:21:41.001Z</time></trkpt><trkpt lat="41.807145198459686" lon="-2.8148319934015005"><ele>1141.0</ele><time>2026-05-03T11:21:42.001Z</time></trkpt><trkpt lat="41.80714370308119" lon="-2.8147095627890852"><ele>1140.2</ele><time>2026-05-03T11:21:43.001Z</time></trkpt><trkpt lat="41.807142724862956" lon="-2.814584416914182"><ele>1139.3999999999999</ele><time>2026-05-03T11:21:44.001Z</time></trkpt><trkpt lat="41.80714176249886" lon="-2.8144593500434447"><ele>1138.6</ele><time>2026-05-03T11:21:45.001Z</time></trkpt><trkpt lat="41.80713916584609" lon="-2.814334255499189"><ele>1137.8</ele><time>2026-05-03T11:21:46.001Z</time></trkpt><trkpt lat="41.80713742366984" lon="-2.8142113165120266"><ele>1137.0</ele><time>2026-05-03T11:21:47.001Z</time></trkpt><trkpt lat="41.807132808704914" lon="-2.814084669090073"><ele>1137.0</ele><time>2026-05-03T11:21:48.001Z</time></trkpt><trkpt lat="41.80713079570252" lon="-2.813955774041352"><ele>1137.0</ele><time>2026-05-03T11:21:49.001Z</time></trkpt><trkpt lat="41.807130763402604" lon="-2.813820286483153"><ele>1137.0</ele><time>2026-05-03T11:21:50.001Z</time></trkpt><trkpt lat="41.807126379062375" lon="-2.8136827669341304"><ele>1137.0</ele><time>2026-05-03T11:21:51.001Z</time></trkpt><trkpt lat="41.80712226272549" lon="-2.8135426307850473"><ele>1137.0</ele><time>2026-05-03T11:21:52.001Z</time></trkpt><trkpt lat="41.80711882839555" lon="-2.8133985664419208"><ele>1136.6</ele><time>2026-05-03T11:21:53Z</time></trkpt><trkpt lat="41.80711535693943" lon="-2.8132591674617577"><ele>1136.2</ele><time>2026-05-03T11:21:54Z</time></trkpt><trkpt lat="41.807112471785096" lon="-2.8131112102372375"><ele>1135.8</ele><time>2026-05-03T11:21:55Z</time></trkpt><trkpt lat="41.80710991980484" lon="-2.812968265617297"><ele>1135.4</ele><time>2026-05-03T11:21:56Z</time></trkpt><trkpt lat="41.807095583778604" lon="-2.812806275604966"><ele>1135.0</ele><time>2026-05-03T11:21:57Z</time></trkpt><trkpt lat="41.80703059763358" lon="-2.812597855774229"><ele>1134.75</ele><time>2026-05-03T11:21:58Z</time></trkpt><trkpt lat="41.80703759052562" lon="-2.812338995262095"><ele>1134.5</ele><time>2026-05-03T11:21:59Z</time></trkpt><trkpt lat="41.80709025218622" lon="-2.812223714995749"><ele>1134.25</ele><time>2026-05-03T11:22:01Z</time></trkpt><trkpt lat="41.807087842064426" lon="-2.8120734057950987"><ele>1134.0</ele><time>2026-05-03T11:22:02Z</time></trkpt><trkpt lat="41.80708331315368" lon="-2.8119181687112964"><ele>1133.6000000000001</ele><time>2026-05-03T11:22:03Z</time></trkpt><trkpt lat="41.80708007746182" lon="-2.811768456956981"><ele>1133.2</ele><time>2026-05-03T11:22:04Z</time></trkpt><trkpt lat="41.80707886544929" lon="-2.811621651229145"><ele>1132.8000000000002</ele><time>2026-05-03T11:22:05Z</time></trkpt><trkpt lat="41.80709431986821" lon="-2.811472957472377"><ele>1132.4</ele><time>2026-05-03T11:22:06Z</time></trkpt><trkpt lat="41.80708147885729" lon="-2.811320505715713"><ele>1132.0</ele><time>2026-05-03T11:22:07Z</time></trkpt><trkpt lat="41.80707919489307" lon="-2.8111695567865063"><ele>1132.0</ele><time>2026-05-03T11:22:08Z</time></trkpt><trkpt lat="41.807076878367305" lon="-2.811016792746868"><ele>1132.0</ele><time>2026-05-03T11:22:09Z</time></trkpt><trkpt lat="41.80707238198131" lon="-2.8108674984822484"><ele>1132.0</ele><time>2026-05-03T11:22:10Z</time></trkpt><trkpt lat="41.80707114624839" lon="-2.810723377129669"><ele>1132.0</ele><time>2026-05-03T11:22:11Z</time></trkpt><trkpt lat="41.80706671714159" lon="-2.810575649349203"><ele>1132.0</ele><time>2026-05-03T11:22:12Z</time></trkpt><trkpt lat="41.80706574299202" lon="-2.810429654128159"><ele>1132.0</ele><time>2026-05-03T11:22:13Z</time></trkpt><trkpt lat="41.807060237722396" lon="-2.810283029145251"><ele>1132.0</ele><time>2026-05-03T11:22:14Z</time></trkpt><trkpt lat="41.80705728005822" lon="-2.810135585942859"><ele>1132.0</ele><time>2026-05-03T11:22:15Z</time></trkpt><trkpt lat="41.80705502084846" lon="-2.8099914431754844"><ele>1132.0</ele><time>2026-05-03T11:22:16Z</time></trkpt><trkpt lat="41.80705377710556" lon="-2.809844587519655"><ele>1132.0</ele><time>2026-05-03T11:22:17Z</time></trkpt><trkpt lat="41.80704982823166" lon="-2.809701828519462"><ele>1132.0</ele><time>2026-05-03T11:22:18Z</time></trkpt><trkpt lat="41.80704812391676" lon="-2.809554829877354"><ele>1132.0</ele><time>2026-05-03T11:22:19Z</time></trkpt><trkpt lat="41.80704669753073" lon="-2.809413743964689"><ele>1132.0</ele><time>2026-05-03T11:22:20Z</time></trkpt><trkpt lat="41.80704333049986" lon="-2.8092722798547887"><ele>1132.0</ele><time>2026-05-03T11:22:21Z</time></trkpt><trkpt lat="41.807042201619865" lon="-2.809130161539853"><ele>1132.0</ele><time>2026-05-03T11:22:22Z</time></trkpt><trkpt lat="41.80703851036904" lon="-2.8089892765237425"><ele>1132.0</ele><time>2026-05-03T11:22:23Z</time></trkpt><trkpt lat="41.80703536236048" lon="-2.8088458133917853"><ele>1132.0</ele><time>2026-05-03T11:22:24Z</time></trkpt><trkpt lat="41.80703276444639" lon="-2.8087035473017643"><ele>1132.0</ele><time>2026-05-03T11:22:25Z</time></trkpt><trkpt lat="41.80703187589503" lon="-2.808559594105696"><ele>1132.0</ele><time>2026-05-03T11:22:26Z</time></trkpt><trkpt lat="41.80703070532807" lon="-2.80841422558714"><ele>1132.0</ele><time>2026-05-03T11:22:27Z</time></trkpt><trkpt lat="41.807028916676366" lon="-2.8082682113592266"><ele>1131.8</ele><time>2026-05-03T11:22:28Z</time></trkpt><trkpt lat="41.80702598488322" lon="-2.8081208162991156"><ele>1131.6</ele><time>2026-05-03T11:22:29Z</time></trkpt><trkpt lat="41.80702095987043" lon="-2.8079776606391382"><ele>1131.3999999999999</ele><time>2026-05-03T11:22:30Z</time></trkpt><trkpt lat="41.80701961831546" lon="-2.8078282498464273"><ele>1131.2</ele><time>2026-05-03T11:22:31Z</time></trkpt><trkpt lat="41.80701869383888" lon="-2.807679604510904"><ele>1131.0</ele><time>2026-05-03T11:22:32Z</time></trkpt><trkpt lat="41.80701630194408" lon="-2.807528184340787"><ele>1131.0</ele><time>2026-05-03T11:22:33Z</time></trkpt><trkpt lat="41.807012881618945" lon="-2.807376707095594"><ele>1131.0</ele><time>2026-05-03T11:22:34Z</time></trkpt><trkpt lat="41.80701009211244" lon="-2.807227834133211"><ele>1131.0</ele><time>2026-05-03T11:22:35Z</time></trkpt><trkpt lat="41.80700952465035" lon="-2.807079914648705"><ele>1131.0</ele><time>2026-05-03T11:22:36Z</time></trkpt><trkpt lat="41.807010321613014" lon="-2.806927144506867"><ele>1131.0</ele><time>2026-05-03T11:22:37Z</time></trkpt><trkpt lat="41.80700890447758" lon="-2.8067686355985186"><ele>1131.0</ele><time>2026-05-03T11:22:38Z</time></trkpt><trkpt lat="41.80700432455357" lon="-2.8066184233021"><ele>1131.0</ele><time>2026-05-03T11:22:39Z</time></trkpt><trkpt lat="41.80700536233668" lon="-2.806468010489006"><ele>1131.0</ele><time>2026-05-03T11:22:40Z</time></trkpt><trkpt lat="41.807001821406715" lon="-2.806318387720762"><ele>1131.0</ele><time>2026-05-03T11:22:41Z</time></trkpt><trkpt lat="41.80699834482023" lon="-2.8061686586919743"><ele>1131.0</ele><time>2026-05-03T11:22:42Z</time></trkpt><trkpt lat="41.80699811037563" lon="-2.8060186364871025"><ele>1130.75</ele><time>2026-05-03T11:22:43Z</time></trkpt><trkpt lat="41.806996328826216" lon="-2.8058671051752766"><ele>1130.5</ele><time>2026-05-03T11:22:44Z</time></trkpt><trkpt lat="41.806991138304355" lon="-2.8057259931324716"><ele>1130.25</ele><time>2026-05-03T11:22:45Z</time></trkpt><trkpt lat="41.80698647762647" lon="-2.805558173857086"><ele>1130.0</ele><time>2026-05-03T11:22:46Z</time></trkpt><trkpt lat="41.806962039519526" lon="-2.805336213205157"><ele>1130.0</ele><time>2026-05-03T11:22:47Z</time></trkpt><trkpt lat="41.80698118192912" lon="-2.805140351177443"><ele>1130.0</ele><time>2026-05-03T11:22:49Z</time></trkpt><trkpt lat="41.806979544106284" lon="-2.8049918198262027"><ele>1130.0</ele><time>2026-05-03T11:22:50Z</time></trkpt><trkpt lat="41.8069779571052" lon="-2.804842285749065"><ele>1130.0</ele><time>2026-05-03T11:22:51Z</time></trkpt><trkpt lat="41.806973919426696" lon="-2.8046921738652"><ele>1130.0</ele><time>2026-05-03T11:22:52Z</time></trkpt><trkpt lat="41.80696901447878" lon="-2.8045403690041946"><ele>1130.0</ele><time>2026-05-03T11:22:53Z</time></trkpt><trkpt lat="41.80696660963946" lon="-2.804391975878637"><ele>1130.0</ele><time>2026-05-03T11:22:54Z</time></trkpt><trkpt lat="41.80696860837486" lon="-2.804244050624711"><ele>1130.0</ele><time>2026-05-03T11:22:55Z</time></trkpt><trkpt lat="41.80696731627884" lon="-2.8040956308925096"><ele>1130.0</ele><time>2026-05-03T11:22:56Z</time></trkpt><trkpt lat="41.80696698877853" lon="-2.8039457016766347"><ele>1129.8</ele><time>2026-05-03T11:22:57Z</time></trkpt><trkpt lat="41.80696936864173" lon="-2.803802575349434"><ele>1129.6</ele><time>2026-05-03T11:22:58Z</time></trkpt><trkpt lat="41.80696597578613" lon="-2.803649122972061"><ele>1129.4</ele><time>2026-05-03T11:22:59Z</time></trkpt><trkpt lat="41.806964235767" lon="-2.8035039535853623"><ele>1129.2</ele><time>2026-05-03T11:23:00Z</time></trkpt><trkpt lat="41.806964247970654" lon="-2.8033514236050294"><ele>1129.0</ele><time>2026-05-03T11:23:01Z</time></trkpt><trkpt lat="41.80696103755721" lon="-2.8032012467185243"><ele>1129.0</ele><time>2026-05-03T11:23:02Z</time></trkpt><trkpt lat="41.806959444993005" lon="-2.803053352229788"><ele>1129.0</ele><time>2026-05-03T11:23:03Z</time></trkpt><trkpt lat="41.806956892611744" lon="-2.8029024064132737"><ele>1129.0</ele><time>2026-05-03T11:23:04Z</time></trkpt><trkpt lat="41.806953832954356" lon="-2.802751805706292"><ele>1129.0</ele><time>2026-05-03T11:23:05Z</time></trkpt><trkpt lat="41.806948928595226" lon="-2.8026030262829194"><ele>1129.0</ele><time>2026-05-03T11:23:06Z</time></trkpt><trkpt lat="41.80694783079004" lon="-2.8024575323884786"><ele>1129.0</ele><time>2026-05-03T11:23:07Z</time></trkpt><trkpt lat="41.80694710624014" lon="-2.802312162174545"><ele>1129.0</ele><time>2026-05-03T11:23:08.001Z</time></trkpt><trkpt lat="41.806943956590615" lon="-2.802167725949414"><ele>1129.0</ele><time>2026-05-03T11:23:09.001Z</time></trkpt><trkpt lat="41.80694109404671" lon="-2.8020247402871705"><ele>1129.0</ele><time>2026-05-03T11:23:10.001Z</time></trkpt><trkpt lat="41.80693506725125" lon="-2.801887184457833"><ele>1129.0</ele><time>2026-05-03T11:23:11.001Z</time></trkpt><trkpt lat="41.80693409032524" lon="-2.8017501255458543"><ele>1129.0</ele><time>2026-05-03T11:23:12.001Z</time></trkpt><trkpt lat="41.80693356061939" lon="-2.801614110887813"><ele>1129.0</ele><time>2026-05-03T11:23:13.001Z</time></trkpt><trkpt lat="41.80693125900119" lon="-2.801488648601074"><ele>1129.0</ele><time>2026-05-03T11:23:14.001Z</time></trkpt><trkpt lat="41.806928749159034" lon="-2.8013668599778794"><ele>1129.0</ele><time>2026-05-03T11:23:15.001Z</time></trkpt><trkpt lat="41.80692675140091" lon="-2.8012584690814424"><ele>1129.0</ele><time>2026-05-03T11:23:16.001Z</time></trkpt><trkpt lat="41.80692630637683" lon="-2.801157506690173"><ele>1129.0</ele><time>2026-05-03T11:23:17.001Z</time></trkpt><trkpt lat="41.806925756199156" lon="-2.801066507309617"><ele>1129.6000000000001</ele><time>2026-05-03T11:23:18.001Z</time></trkpt><trkpt lat="41.80692532761087" lon="-2.8009322564485206"><ele>1130.2</ele><time>2026-05-03T11:23:20.001Z</time></trkpt><trkpt lat="41.806927430401956" lon="-2.8008143742310176"><ele>1130.8000000000002</ele><time>2026-05-03T11:23:24.001Z</time></trkpt><trkpt lat="41.80692407784043" lon="-2.800696230132978"><ele>1131.4</ele><time>2026-05-03T11:23:26.001Z</time></trkpt><trkpt lat="41.8069172415238" lon="-2.800535939468251"><ele>1132.0</ele><time>2026-05-03T11:23:28.001Z</time></trkpt><trkpt lat="41.8069152313942" lon="-2.8004472755432532"><ele>1132.0</ele><time>2026-05-03T11:23:29.001Z</time></trkpt><trkpt lat="41.806915714418416" lon="-2.800354910109999"><ele>1132.0</ele><time>2026-05-03T11:23:30.001Z</time></trkpt><trkpt lat="41.806915665739254" lon="-2.8002547503597057"><ele>1132.0</ele><time>2026-05-03T11:23:31.001Z</time></trkpt><trkpt lat="41.80691439110603" lon="-2.8001539789787833"><ele>1132.0</ele><time>2026-05-03T11:23:32.001Z</time></trkpt><trkpt lat="41.8069144757531" lon="-2.800048653778998"><ele>1132.0</ele><time>2026-05-03T11:23:33.001Z</time></trkpt><trkpt lat="41.80691089140842" lon="-2.7999395866060817"><ele>1132.0</ele><time>2026-05-03T11:23:34.001Z</time></trkpt><trkpt lat="41.806907834306095" lon="-2.7998272495496965"><ele>1132.6666666666665</ele><time>2026-05-03T11:23:35.001Z</time></trkpt><trkpt lat="41.80690643848949" lon="-2.799712385879486"><ele>1133.3333333333333</ele><time>2026-05-03T11:23:36.001Z</time></trkpt><trkpt lat="41.806905654380024" lon="-2.799594506920812"><ele>1134.0</ele><time>2026-05-03T11:23:37.001Z</time></trkpt><trkpt lat="41.80690194229002" lon="-2.799476334496983"><ele>1134.6666666666667</ele><time>2026-05-03T11:23:38.001Z</time></trkpt><trkpt lat="41.806900090777006" lon="-2.799353304745768"><ele>1135.3333333333335</ele><time>2026-05-03T11:23:39.001Z</time></trkpt><trkpt lat="41.806898743524805" lon="-2.7992320119592886"><ele>1136.0</ele><time>2026-05-03T11:23:40.001Z</time></trkpt><trkpt lat="41.806901562577885" lon="-2.7991076889542352"><ele>1136.6</ele><time>2026-05-03T11:23:41.001Z</time></trkpt><trkpt lat="41.80690164543443" lon="-2.7989799343282207"><ele>1137.1999999999998</ele><time>2026-05-03T11:23:42.001Z</time></trkpt><trkpt lat="41.80689731056867" lon="-2.798849071846678"><ele>1137.8000000000002</ele><time>2026-05-03T11:23:43.001Z</time></trkpt><trkpt lat="41.806892815065936" lon="-2.798717211374303"><ele>1138.4</ele><time>2026-05-03T11:23:44.001Z</time></trkpt><trkpt lat="41.80689226378771" lon="-2.798584527785234"><ele>1139.0</ele><time>2026-05-03T11:23:45.001Z</time></trkpt><trkpt lat="41.80688911442281" lon="-2.7984491671322616"><ele>1139.0</ele><time>2026-05-03T11:23:46.001Z</time></trkpt><trkpt lat="41.8068881486752" lon="-2.7983113192444926"><ele>1139.0</ele><time>2026-05-03T11:23:47.001Z</time></trkpt><trkpt lat="41.80688602814542" lon="-2.7981713296228263"><ele>1139.0</ele><time>2026-05-03T11:23:48.001Z</time></trkpt><trkpt lat="41.806884696587055" lon="-2.7980303324682034"><ele>1139.0</ele><time>2026-05-03T11:23:49.001Z</time></trkpt><trkpt lat="41.80688227325716" lon="-2.7978877958754427"><ele>1139.0</ele><time>2026-05-03T11:23:50.001Z</time></trkpt><trkpt lat="41.8068811577316" lon="-2.797742536947232"><ele>1139.25</ele><time>2026-05-03T11:23:51.001Z</time></trkpt><trkpt lat="41.80687812575493" lon="-2.797597986746693"><ele>1139.5</ele><time>2026-05-03T11:23:52.001Z</time></trkpt><trkpt lat="41.80687511021933" lon="-2.797451459470137"><ele>1139.75</ele><time>2026-05-03T11:23:53.001Z</time></trkpt><trkpt lat="41.80687063414573" lon="-2.7972983673709"><ele>1140.0</ele><time>2026-05-03T11:23:54.001Z</time></trkpt><trkpt lat="41.80687406466066" lon="-2.7971094764140383"><ele>1140.0</ele><time>2026-05-03T11:23:55.001Z</time></trkpt><trkpt lat="41.806859670479135" lon="-2.7970105780269363"><ele>1140.0</ele><time>2026-05-03T11:23:56.001Z</time></trkpt><trkpt lat="41.806860908514416" lon="-2.79686234380255"><ele>1140.0</ele><time>2026-05-03T11:23:57.001Z</time></trkpt><trkpt lat="41.806857660395615" lon="-2.79671733437316"><ele>1140.0</ele><time>2026-05-03T11:23:58.001Z</time></trkpt><trkpt lat="41.80684984443341" lon="-2.7965769169826227"><ele>1140.0</ele><time>2026-05-03T11:23:59Z</time></trkpt><trkpt lat="41.8068035914517" lon="-2.7964445108995575"><ele>1139.0</ele><time>2026-05-03T11:24:00Z</time></trkpt><trkpt lat="41.806796775339215" lon="-2.7963274599872845"><ele>1138.0</ele><time>2026-05-03T11:24:01Z</time></trkpt><trkpt lat="41.806863331360326" lon="-2.796116451969946"><ele>1137.0</ele><time>2026-05-03T11:24:02Z</time></trkpt><trkpt lat="41.80686189362555" lon="-2.795963454652138"><ele>1136.0</ele><time>2026-05-03T11:24:03Z</time></trkpt><trkpt lat="41.80686024468571" lon="-2.795813218725246"><ele>1135.5</ele><time>2026-05-03T11:24:04Z</time></trkpt><trkpt lat="41.8068573397664" lon="-2.795659873203807"><ele>1135.0</ele><time>2026-05-03T11:24:05Z</time></trkpt><trkpt lat="41.80685448370936" lon="-2.795505701264842"><ele>1134.5</ele><time>2026-05-03T11:24:06Z</time></trkpt><trkpt lat="41.80685078228511" lon="-2.7953522628581156"><ele>1134.0</ele><time>2026-05-03T11:24:07Z</time></trkpt><trkpt lat="41.80684677931351" lon="-2.795202401343719"><ele>1133.4</ele><time>2026-05-03T11:24:08Z</time></trkpt><trkpt lat="41.80684581616105" lon="-2.795051917763731"><ele>1132.8000000000002</ele><time>2026-05-03T11:24:09Z</time></trkpt><trkpt lat="41.806842569227356" lon="-2.7948996460164994"><ele>1132.1999999999998</ele><time>2026-05-03T11:24:10Z</time></trkpt><trkpt lat="41.80683353617515" lon="-2.794748568311689"><ele>1131.6</ele><time>2026-05-03T11:24:11Z</time></trkpt><trkpt lat="41.80682606905701" lon="-2.794602131045657"><ele>1131.0</ele><time>2026-05-03T11:24:12Z</time></trkpt><trkpt lat="41.80681431809101" lon="-2.7944517682683796"><ele>1130.3999999999999</ele><time>2026-05-03T11:24:13Z</time></trkpt><trkpt lat="41.806800953604515" lon="-2.794307190142254"><ele>1129.8</ele><time>2026-05-03T11:24:14Z</time></trkpt><trkpt lat="41.80678317486583" lon="-2.794160183018846"><ele>1129.1999999999998</ele><time>2026-05-03T11:24:15Z</time></trkpt><trkpt lat="41.806761920065505" lon="-2.794019676254117"><ele>1128.6</ele><time>2026-05-03T11:24:16Z</time></trkpt><trkpt lat="41.80673711419587" lon="-2.79387978872826"><ele>1128.0</ele><time>2026-05-03T11:24:17Z</time></trkpt><trkpt lat="41.80671305826222" lon="-2.793740100687247"><ele>1128.0</ele><time>2026-05-03T11:24:18Z</time></trkpt><trkpt lat="41.806683212629956" lon="-2.793599258391208"><ele>1128.0</ele><time>2026-05-03T11:24:19Z</time></trkpt><trkpt lat="41.80665033151406" lon="-2.7934603713731585"><ele>1128.0</ele><time>2026-05-03T11:24:20Z</time></trkpt><trkpt lat="41.80661648121166" lon="-2.79332831033055"><ele>1128.0</ele><time>2026-05-03T11:24:21Z</time></trkpt><trkpt lat="41.80658244118404" lon="-2.7931932146486966"><ele>1128.0</ele><time>2026-05-03T11:24:22Z</time></trkpt><trkpt lat="41.80655059579732" lon="-2.793057673634422"><ele>1128.2</ele><time>2026-05-03T11:24:23Z</time></trkpt><trkpt lat="41.80651765251051" lon="-2.792924943971169"><ele>1128.4</ele><time>2026-05-03T11:24:24Z</time></trkpt><trkpt lat="41.80648605333697" lon="-2.7927913398231525"><ele>1128.6000000000001</ele><time>2026-05-03T11:24:25Z</time></trkpt><trkpt lat="41.806455348526804" lon="-2.792661293672284"><ele>1128.8</ele><time>2026-05-03T11:24:26Z</time></trkpt><trkpt lat="41.80642509628924" lon="-2.7925322043680736"><ele>1129.0</ele><time>2026-05-03T11:24:27Z</time></trkpt><trkpt lat="41.8063949244326" lon="-2.79240303091411"><ele>1129.2</ele><time>2026-05-03T11:24:28Z</time></trkpt><trkpt lat="41.80636402270795" lon="-2.7922741145574106"><ele>1129.4</ele><time>2026-05-03T11:24:29Z</time></trkpt><trkpt lat="41.80633386195375" lon="-2.792142109367561"><ele>1129.6</ele><time>2026-05-03T11:24:30Z</time></trkpt><trkpt lat="41.806301860208514" lon="-2.792011572205818"><ele>1129.8</ele><time>2026-05-03T11:24:31Z</time></trkpt><trkpt lat="41.806271519034894" lon="-2.7918786304061545"><ele>1130.0</ele><time>2026-05-03T11:24:32Z</time></trkpt><trkpt lat="41.80623815720667" lon="-2.7917485152787007"><ele>1129.4</ele><time>2026-05-03T11:24:33Z</time></trkpt><trkpt lat="41.80620631535193" lon="-2.7916183926421554"><ele>1128.8</ele><time>2026-05-03T11:24:34Z</time></trkpt><trkpt lat="41.80617694923769" lon="-2.7914951308718328"><ele>1128.2</ele><time>2026-05-03T11:24:35Z</time></trkpt><trkpt lat="41.806144172909505" lon="-2.791361593025836"><ele>1127.6</ele><time>2026-05-03T11:24:36Z</time></trkpt><trkpt lat="41.806111585036504" lon="-2.7912364698858925"><ele>1127.0</ele><time>2026-05-03T11:24:37Z</time></trkpt><trkpt lat="41.80608042060986" lon="-2.791108757694147"><ele>1127.6</ele><time>2026-05-03T11:24:38Z</time></trkpt><trkpt lat="41.80604849393199" lon="-2.790976558618058"><ele>1128.2</ele><time>2026-05-03T11:24:39Z</time></trkpt><trkpt lat="41.806019221186396" lon="-2.7908495959992625"><ele>1128.8</ele><time>2026-05-03T11:24:40Z</time></trkpt><trkpt lat="41.805993470876324" lon="-2.7907242451154124"><ele>1129.4</ele><time>2026-05-03T11:24:41Z</time></trkpt><trkpt lat="41.805958658262824" lon="-2.7905954943551796"><ele>1130.0</ele><time>2026-05-03T11:24:42Z</time></trkpt><trkpt lat="41.8059285900368" lon="-2.7904652941553425"><ele>1130.6</ele><time>2026-05-03T11:24:43Z</time></trkpt><trkpt lat="41.80589583831073" lon="-2.7903380486410265"><ele>1131.2</ele><time>2026-05-03T11:24:44Z</time></trkpt><trkpt lat="41.80586444420811" lon="-2.7902079613662876"><ele>1131.8</ele><time>2026-05-03T11:24:45Z</time></trkpt><trkpt lat="41.8058327640149" lon="-2.7900815438835562"><ele>1132.4</ele><time>2026-05-03T11:24:46Z</time></trkpt><trkpt lat="41.805804641988686" lon="-2.789950878583821"><ele>1133.0</ele><time>2026-05-03T11:24:47Z</time></trkpt><trkpt lat="41.805775763083574" lon="-2.7898222136507176"><ele>1133.2</ele><time>2026-05-03T11:24:48Z</time></trkpt><trkpt lat="41.80574590266856" lon="-2.7896925339865986"><ele>1133.4</ele><time>2026-05-03T11:24:49Z</time></trkpt><trkpt lat="41.80571621360694" lon="-2.7895662581708915"><ele>1133.6000000000001</ele><time>2026-05-03T11:24:50Z</time></trkpt><trkpt lat="41.80568804636348" lon="-2.7894354605614073"><ele>1133.8</ele><time>2026-05-03T11:24:51Z</time></trkpt><trkpt lat="41.805657181421005" lon="-2.7893069995851656"><ele>1134.0</ele><time>2026-05-03T11:24:52Z</time></trkpt><trkpt lat="41.80563035811302" lon="-2.7891822158283244"><ele>1134.4</ele><time>2026-05-03T11:24:53Z</time></trkpt><trkpt lat="41.80560431749877" lon="-2.789051765952742"><ele>1134.8000000000002</ele><time>2026-05-03T11:24:54Z</time></trkpt><trkpt lat="41.805580303865234" lon="-2.788919430859062"><ele>1135.1999999999998</ele><time>2026-05-03T11:24:55Z</time></trkpt><trkpt lat="41.80556002229462" lon="-2.788791407890938"><ele>1135.6</ele><time>2026-05-03T11:24:56Z</time></trkpt><trkpt lat="41.805544203058695" lon="-2.7886614794473417"><ele>1136.0</ele><time>2026-05-03T11:24:57Z</time></trkpt><trkpt lat="41.80552928943764" lon="-2.7885292059917446"><ele>1136.2</ele><time>2026-05-03T11:24:58Z</time></trkpt><trkpt lat="41.80551558372757" lon="-2.788397788838465"><ele>1136.3999999999999</ele><time>2026-05-03T11:24:59Z</time></trkpt><trkpt lat="41.80550283678842" lon="-2.7882646772205546"><ele>1136.6</ele><time>2026-05-03T11:25:00Z</time></trkpt><trkpt lat="41.80548997303121" lon="-2.788133619380643"><ele>1136.8</ele><time>2026-05-03T11:25:01Z</time></trkpt><trkpt lat="41.80548302875549" lon="-2.787997175648015"><ele>1137.0</ele><time>2026-05-03T11:25:02Z</time></trkpt><trkpt lat="41.8054768366799" lon="-2.7878686211146193"><ele>1137.0</ele><time>2026-05-03T11:25:03Z</time></trkpt><trkpt lat="41.805480339357" lon="-2.787743540257741"><ele>1137.0</ele><time>2026-05-03T11:25:04Z</time></trkpt><trkpt lat="41.805481073898015" lon="-2.7876267565473603"><ele>1137.0</ele><time>2026-05-03T11:25:05Z</time></trkpt><trkpt lat="41.8054809041542" lon="-2.7875023740289486"><ele>1137.0</ele><time>2026-05-03T11:25:06Z</time></trkpt><trkpt lat="41.80548345888337" lon="-2.7873817905682134"><ele>1137.0</ele><time>2026-05-03T11:25:07Z</time></trkpt><trkpt lat="41.80549226857295" lon="-2.7872644723630917"><ele>1137.0</ele><time>2026-05-03T11:25:08Z</time></trkpt><trkpt lat="41.80550553966491" lon="-2.7871492578967305"><ele>1137.0</ele><time>2026-05-03T11:25:09Z</time></trkpt><trkpt lat="41.805515067992786" lon="-2.7870385834786378"><ele>1137.0</ele><time>2026-05-03T11:25:10Z</time></trkpt><trkpt lat="41.80553437820768" lon="-2.786940879698588"><ele>1137.0</ele><time>2026-05-03T11:25:11Z</time></trkpt><trkpt lat="41.80555116397802" lon="-2.786848885176847"><ele>1137.0</ele><time>2026-05-03T11:25:12Z</time></trkpt><trkpt lat="41.80557476749561" lon="-2.7867672001782373"><ele>1137.0</ele><time>2026-05-03T11:25:13Z</time></trkpt><trkpt lat="41.805619114202436" lon="-2.786628921613626"><ele>1136.8</ele><time>2026-05-03T11:25:15Z</time></trkpt><trkpt lat="41.80564545390993" lon="-2.786506445576446"><ele>1136.6</ele><time>2026-05-03T11:25:17Z</time></trkpt><trkpt lat="41.80554159267821" lon="-2.786424569187948"><ele>1136.3999999999999</ele><time>2026-05-03T11:25:18Z</time></trkpt><trkpt lat="41.805665890590184" lon="-2.7863962174804797"><ele>1136.2</ele><time>2026-05-03T11:25:19Z</time></trkpt><trkpt lat="41.80568571017967" lon="-2.786314110783803"><ele>1136.0</ele><time>2026-05-03T11:25:21Z</time></trkpt><trkpt lat="41.80571520481808" lon="-2.786222050367412"><ele>1136.0</ele><time>2026-05-03T11:25:23Z</time></trkpt><trkpt lat="41.80559635894244" lon="-2.786098126804915"><ele>1136.0</ele><time>2026-05-03T11:25:25Z</time></trkpt><trkpt lat="41.80563163443706" lon="-2.786027917482457"><ele>1136.0</ele><time>2026-05-03T11:25:29.001Z</time></trkpt><trkpt lat="41.80584653587198" lon="-2.7861008649355035"><ele>1136.0</ele><time>2026-05-03T11:25:32.001Z</time></trkpt><trkpt lat="41.80560838803826" lon="-2.7860293449162046"><ele>1136.0</ele><time>2026-05-03T11:25:51.001Z</time></trkpt><trkpt lat="41.805849453277595" lon="-2.7861046619168124"><ele>1136.0</ele><time>2026-05-03T11:25:59.001Z</time></trkpt><trkpt lat="41.8056083880196" lon="-2.7860293449104065"><ele>1136.0</ele><time>2026-05-03T11:26:04.001Z</time></trkpt><trkpt lat="41.80585213854659" lon="-2.7861000421368454"><ele>1136.0</ele><time>2026-05-03T11:26:09Z</time></trkpt><trkpt lat="41.805609223193954" lon="-2.7860245696073918"><ele>1136.0</ele><time>2026-05-03T11:26:13Z</time></trkpt><trkpt lat="41.805854677693645" lon="-2.7861043371444607"><ele>1136.0</ele><time>2026-05-03T11:26:16Z</time></trkpt><trkpt lat="41.80561028861339" lon="-2.7860184773144696"><ele>1136.0</ele><time>2026-05-03T11:26:26Z</time></trkpt><trkpt lat="41.805848830298885" lon="-2.7860930215568445"><ele>1136.0</ele><time>2026-05-03T11:26:32Z</time></trkpt><trkpt lat="41.805635061102855" lon="-2.7860182671108475"><ele>1136.0</ele><time>2026-05-03T11:26:43Z</time></trkpt><trkpt lat="41.80585568151766" lon="-2.7860800968775923"><ele>1136.0</ele><time>2026-05-03T11:26:46Z</time></trkpt><trkpt lat="41.80561243207364" lon="-2.7860062211177725"><ele>1136.0</ele><time>2026-05-03T11:26:49Z</time></trkpt><trkpt lat="41.80587555587331" lon="-2.7860868232590903"><ele>1136.0</ele><time>2026-05-03T11:26:51Z</time></trkpt><trkpt lat="41.80579269587004" lon="-2.7860435367732537"><ele>1136.0</ele><time>2026-05-03T11:27:05Z</time></trkpt><trkpt lat="41.80596857942143" lon="-2.7860087891591307"><ele>1136.0</ele><time>2026-05-03T11:27:17Z</time></trkpt><trkpt lat="41.805801805801465" lon="-2.7859831490517037"><ele>1136.0</ele><time>2026-05-03T11:27:28Z</time></trkpt><trkpt lat="41.80593743420809" lon="-2.7860180342309837"><ele>1136.0</ele><time>2026-05-03T11:27:29Z</time></trkpt><trkpt lat="41.80592626195234" lon="-2.786104709165578"><ele>1136.0</ele><time>2026-05-03T11:28:32Z</time></trkpt><trkpt lat="41.80585565758203" lon="-2.786108154954865"><ele>1136.0</ele><time>2026-05-03T11:28:49Z</time></trkpt><trkpt lat="41.80590302737105" lon="-2.7862055770838965"><ele>1136.0</ele><time>2026-05-03T11:28:52Z</time></trkpt><trkpt lat="41.805842884598924" lon="-2.786171942958814"><ele>1136.0</ele><time>2026-05-03T11:29:05Z</time></trkpt><trkpt lat="41.805772346214646" lon="-2.7861915467097154"><ele>1136.0</ele><time>2026-05-03T11:29:33.001Z</time></trkpt><trkpt lat="41.80589698669633" lon="-2.7861703161493354"><ele>1136.0</ele><time>2026-05-03T11:29:47.001Z</time></trkpt><trkpt lat="41.805987058775735" lon="-2.7862040463359934"><ele>1136.0</ele><time>2026-05-03T11:29:50.001Z</time></trkpt><trkpt lat="41.805905382991355" lon="-2.786221786534998"><ele>1136.0</ele><time>2026-05-03T11:29:53.001Z</time></trkpt><trkpt lat="41.80590516878134" lon="-2.786093065822754"><ele>1136.0</ele><time>2026-05-03T11:30:07.001Z</time></trkpt><trkpt lat="41.805979510735234" lon="-2.786126458071167"><ele>1136.0</ele><time>2026-05-03T11:30:12.001Z</time></trkpt><trkpt lat="41.805894622798306" lon="-2.786158357836521"><ele>1136.0</ele><time>2026-05-03T11:30:29Z</time></trkpt><trkpt lat="41.80592658981396" lon="-2.786068611294493"><ele>1136.0</ele><time>2026-05-03T11:30:48Z</time></trkpt><trkpt lat="41.80597967768114" lon="-2.7860003182283957"><ele>1136.0</ele><time>2026-05-03T11:31:01Z</time></trkpt><trkpt lat="41.8058851039398" lon="-2.7860060344925524"><ele>1136.0</ele><time>2026-05-03T11:32:06.001Z</time></trkpt><trkpt lat="41.80587735499237" lon="-2.7859058548490356"><ele>1136.0</ele><time>2026-05-03T11:32:10.001Z</time></trkpt><trkpt lat="41.80592697283621" lon="-2.786005466022725"><ele>1136.0</ele><time>2026-05-03T11:32:28.999Z</time></trkpt><trkpt lat="41.806021577684184" lon="-2.7860654005451413"><ele>1136.0</ele><time>2026-05-03T11:32:56Z</time></trkpt><trkpt lat="41.80590117777844" lon="-2.786016397929921"><ele>1136.0</ele><time>2026-05-03T11:33:01Z</time></trkpt><trkpt lat="41.80592725698769" lon="-2.786112304003136"><ele>1136.0</ele><time>2026-05-03T11:34:15Z</time></trkpt><trkpt lat="41.80585628848207" lon="-2.7861105118797145"><ele>1136.0</ele><time>2026-05-03T11:34:49.999Z</time></trkpt><trkpt lat="41.80580900816773" lon="-2.7861801047543704"><ele>1136.0</ele><time>2026-05-03T11:44:22Z</time></trkpt><trkpt lat="41.805750695456545" lon="-2.7862125587140167"><ele>1136.0</ele><time>2026-05-03T11:44:33.001Z</time></trkpt><trkpt lat="41.80589229159171" lon="-2.7861093606180023"><ele>1136.0</ele><time>2026-05-03T11:45:42Z</time></trkpt><trkpt lat="41.80583419512577" lon="-2.7861678225727506"><ele>1136.0</ele><time>2026-05-03T11:45:47Z</time></trkpt><trkpt lat="41.80576049824751" lon="-2.7861885719432005"><ele>1136.0</ele><time>2026-05-03T11:45:50Z</time></trkpt></trkseg><trkseg><trkpt lat="41.80575183287005" lon="-2.7860416957129566"><ele>1136.0</ele><time>2026-05-03T12:07:48.001Z</time></trkpt><trkpt lat="41.80567094882046" lon="-2.786057169212751"><ele>1136.0</ele><time>2026-05-03T12:07:52.001Z</time></trkpt><trkpt lat="41.805605247728" lon="-2.786028774502789"><ele>1136.0</ele><time>2026-05-03T12:07:56.001Z</time></trkpt><trkpt lat="41.805603653662665" lon="-2.7859153721856798"><ele>1136.0</ele><time>2026-05-03T12:07:59.001Z</time></trkpt><trkpt lat="41.8056209423209" lon="-2.7857887258125444"><ele>1136.0</ele><time>2026-05-03T12:08:02.001Z</time></trkpt><trkpt lat="41.805641433156126" lon="-2.785671425871582"><ele>1136.0</ele><time>2026-05-03T12:08:04.001Z</time></trkpt><trkpt lat="41.805669265981" lon="-2.7855448873758157"><ele>1135.8333333333335</ele><time>2026-05-03T12:08:06.001Z</time></trkpt><trkpt lat="41.80570281330673" lon="-2.785395304031032"><ele>1135.6666666666667</ele><time>2026-05-03T12:08:08.001Z</time></trkpt><trkpt lat="41.805736977889985" lon="-2.7852350448495446"><ele>1135.5</ele><time>2026-05-03T12:08:10.001Z</time></trkpt><trkpt lat="41.80575521474563" lon="-2.785152270207116"><ele>1135.3333333333333</ele><time>2026-05-03T12:08:11.001Z</time></trkpt><trkpt lat="41.80577182411514" lon="-2.7850692958597354"><ele>1135.1666666666665</ele><time>2026-05-03T12:08:12.001Z</time></trkpt><trkpt lat="41.80578780692864" lon="-2.784986906163662"><ele>1135.0</ele><time>2026-05-03T12:08:13.001Z</time></trkpt><trkpt lat="41.80580815498541" lon="-2.784898779363275"><ele>1134.4285714285716</ele><time>2026-05-03T12:08:14.001Z</time></trkpt><trkpt lat="41.80582795481429" lon="-2.784812385755245"><ele>1133.857142857143</ele><time>2026-05-03T12:08:15.001Z</time></trkpt><trkpt lat="41.80584713359743" lon="-2.784720557849772"><ele>1133.2857142857142</ele><time>2026-05-03T12:08:16.001Z</time></trkpt><trkpt lat="41.80586442190004" lon="-2.784626220280062"><ele>1132.7142857142858</ele><time>2026-05-03T12:08:17.001Z</time></trkpt><trkpt lat="41.80588430271638" lon="-2.784533846261729"><ele>1132.142857142857</ele><time>2026-05-03T12:08:18.001Z</time></trkpt><trkpt lat="41.80590583485375" lon="-2.784436314919996"><ele>1131.5714285714287</ele><time>2026-05-03T12:08:19.001Z</time></trkpt><trkpt lat="41.80592709595886" lon="-2.7843353999774605"><ele>1131.0</ele><time>2026-05-03T12:08:20.001Z</time></trkpt><trkpt lat="41.80594748551952" lon="-2.784233808570589"><ele>1131.3333333333333</ele><time>2026-05-03T12:08:21.001Z</time></trkpt><trkpt lat="41.80597090963777" lon="-2.7841265332050766"><ele>1131.6666666666667</ele><time>2026-05-03T12:08:22.001Z</time></trkpt><trkpt lat="41.8059950466702" lon="-2.7840183246901664"><ele>1132.0</ele><time>2026-05-03T12:08:23.001Z</time></trkpt><trkpt lat="41.806017512705395" lon="-2.7839103035104356"><ele>1132.3333333333335</ele><time>2026-05-03T12:08:24.001Z</time></trkpt><trkpt lat="41.806041892725496" lon="-2.783798681507521"><ele>1132.6666666666667</ele><time>2026-05-03T12:08:25.001Z</time></trkpt><trkpt lat="41.806063741855496" lon="-2.7836865632304866"><ele>1133.0</ele><time>2026-05-03T12:08:26.001Z</time></trkpt><trkpt lat="41.806086912918566" lon="-2.7835726925533835"><ele>1133.0</ele><time>2026-05-03T12:08:27.001Z</time></trkpt><trkpt lat="41.8061120844179" lon="-2.783459299769596"><ele>1133.0</ele><time>2026-05-03T12:08:28.001Z</time></trkpt><trkpt lat="41.806137486846254" lon="-2.783348101118313"><ele>1133.0</ele><time>2026-05-03T12:08:29.001Z</time></trkpt><trkpt lat="41.806163330981356" lon="-2.78323566779002"><ele>1133.0</ele><time>2026-05-03T12:08:30.001Z</time></trkpt><trkpt lat="41.80618374800913" lon="-2.7831231793299813"><ele>1133.0</ele><time>2026-05-03T12:08:30.999Z</time></trkpt><trkpt lat="41.80621193563427" lon="-2.7830129845599387"><ele>1133.0</ele><time>2026-05-03T12:08:31.999Z</time></trkpt><trkpt lat="41.80623312117514" lon="-2.7829019163931035"><ele>1133.0</ele><time>2026-05-03T12:08:32.999Z</time></trkpt><trkpt lat="41.80626021099071" lon="-2.782793878825107"><ele>1133.0</ele><time>2026-05-03T12:08:33.999Z</time></trkpt><trkpt lat="41.80628638995324" lon="-2.782683793465333"><ele>1133.0</ele><time>2026-05-03T12:08:34.999Z</time></trkpt><trkpt lat="41.806308671861125" lon="-2.782579109198193"><ele>1133.0</ele><time>2026-05-03T12:08:35.999Z</time></trkpt><trkpt lat="41.806336353078834" lon="-2.7824730579940966"><ele>1133.0</ele><time>2026-05-03T12:08:36.999Z</time></trkpt><trkpt lat="41.80636732518407" lon="-2.7823699104132964"><ele>1133.0</ele><time>2026-05-03T12:08:37.999Z</time></trkpt><trkpt lat="41.80639377387452" lon="-2.782267154745667"><ele>1132.6666666666667</ele><time>2026-05-03T12:08:38.999Z</time></trkpt><trkpt lat="41.80642890827237" lon="-2.7821695839226726"><ele>1132.3333333333335</ele><time>2026-05-03T12:08:39.999Z</time></trkpt><trkpt lat="41.806459418267934" lon="-2.7820736433654973"><ele>1132.0</ele><time>2026-05-03T12:08:40.999Z</time></trkpt><trkpt lat="41.80649228855125" lon="-2.7819750540125403"><ele>1131.6666666666667</ele><time>2026-05-03T12:08:41.999Z</time></trkpt><trkpt lat="41.80652704267462" lon="-2.781872320490233"><ele>1131.3333333333333</ele><time>2026-05-03T12:08:42.999Z</time></trkpt><trkpt lat="41.80655960982282" lon="-2.781768600451534"><ele>1131.0</ele><time>2026-05-03T12:08:43.999Z</time></trkpt><trkpt lat="41.806595608326305" lon="-2.7816649273796954"><ele>1130.3333333333333</ele><time>2026-05-03T12:08:44.999Z</time></trkpt><trkpt lat="41.80663159387226" lon="-2.781561117360157"><ele>1129.6666666666667</ele><time>2026-05-03T12:08:45.999Z</time></trkpt><trkpt lat="41.806674775351595" lon="-2.781456484443138"><ele>1129.0</ele><time>2026-05-03T12:08:46.999Z</time></trkpt><trkpt lat="41.80670725379854" lon="-2.781351668099414"><ele>1128.3333333333335</ele><time>2026-05-03T12:08:47.999Z</time></trkpt><trkpt lat="41.80674240483718" lon="-2.7812455323601646"><ele>1127.6666666666667</ele><time>2026-05-03T12:08:48.999Z</time></trkpt><trkpt lat="41.80677790606191" lon="-2.7811390389020554"><ele>1127.0</ele><time>2026-05-03T12:08:49.999Z</time></trkpt><trkpt lat="41.8068148016672" lon="-2.781032201919888"><ele>1127.0</ele><time>2026-05-03T12:08:50.999Z</time></trkpt><trkpt lat="41.806853819697736" lon="-2.7809232931165586"><ele>1127.0</ele><time>2026-05-03T12:08:51.999Z</time></trkpt><trkpt lat="41.806892964183064" lon="-2.780811274253026"><ele>1127.0</ele><time>2026-05-03T12:08:53Z</time></trkpt><trkpt lat="41.80693498493278" lon="-2.7806981085632168"><ele>1127.0</ele><time>2026-05-03T12:08:54Z</time></trkpt><trkpt lat="41.80697212932182" lon="-2.780584221313387"><ele>1127.0</ele><time>2026-05-03T12:08:55Z</time></trkpt><trkpt lat="41.80701451862023" lon="-2.780469015626404"><ele>1127.0</ele><time>2026-05-03T12:08:56Z</time></trkpt><trkpt lat="41.8070549899097" lon="-2.7803527699516914"><ele>1127.0</ele><time>2026-05-03T12:08:57Z</time></trkpt><trkpt lat="41.807095713454494" lon="-2.7802358403902048"><ele>1127.0</ele><time>2026-05-03T12:08:58Z</time></trkpt><trkpt lat="41.807137133275866" lon="-2.7801162223777727"><ele>1127.0</ele><time>2026-05-03T12:08:59Z</time></trkpt><trkpt lat="41.8071759748957" lon="-2.7799945838725897"><ele>1127.0</ele><time>2026-05-03T12:09:00Z</time></trkpt><trkpt lat="41.80721431847769" lon="-2.7798743320646087"><ele>1126.4</ele><time>2026-05-03T12:09:01Z</time></trkpt><trkpt lat="41.80725381621336" lon="-2.7797479388193884"><ele>1125.8000000000002</ele><time>2026-05-03T12:09:02Z</time></trkpt><trkpt lat="41.80729173661392" lon="-2.779622093992891"><ele>1125.2</ele><time>2026-05-03T12:09:03Z</time></trkpt><trkpt lat="41.80733071357921" lon="-2.7794944219580007"><ele>1124.6000000000001</ele><time>2026-05-03T12:09:04Z</time></trkpt><trkpt lat="41.80736511848115" lon="-2.779363429592887"><ele>1124.0</ele><time>2026-05-03T12:09:05Z</time></trkpt><trkpt lat="41.80740036573119" lon="-2.7792399328709823"><ele>1123.8</ele><time>2026-05-03T12:09:06Z</time></trkpt><trkpt lat="41.80743567209896" lon="-2.7791140052671235"><ele>1123.6000000000001</ele><time>2026-05-03T12:09:07Z</time></trkpt><trkpt lat="41.807463823452366" lon="-2.7789832157870173"><ele>1123.4</ele><time>2026-05-03T12:09:08Z</time></trkpt><trkpt lat="41.80749355174692" lon="-2.7788526758340137"><ele>1123.2</ele><time>2026-05-03T12:09:09Z</time></trkpt><trkpt lat="41.80752196639869" lon="-2.7787228570316755"><ele>1123.0</ele><time>2026-05-03T12:09:10Z</time></trkpt><trkpt lat="41.807550615209955" lon="-2.7785911905613245"><ele>1122.4</ele><time>2026-05-03T12:09:11Z</time></trkpt><trkpt lat="41.80757898295852" lon="-2.778461602677732"><ele>1121.8</ele><time>2026-05-03T12:09:12Z</time></trkpt><trkpt lat="41.80760387225026" lon="-2.7783310413915348"><ele>1121.2</ele><time>2026-05-03T12:09:13Z</time></trkpt><trkpt lat="41.80762925535254" lon="-2.77820102191487"><ele>1120.6</ele><time>2026-05-03T12:09:14Z</time></trkpt><trkpt lat="41.8076547877185" lon="-2.7780679470387413"><ele>1120.0</ele><time>2026-05-03T12:09:15Z</time></trkpt><trkpt lat="41.807676794789955" lon="-2.7779360347362454"><ele>1121.6</ele><time>2026-05-03T12:09:16Z</time></trkpt><trkpt lat="41.80769937771957" lon="-2.7778046095835864"><ele>1123.2</ele><time>2026-05-03T12:09:17Z</time></trkpt><trkpt lat="41.807720818137504" lon="-2.7776707216947574"><ele>1124.8</ele><time>2026-05-03T12:09:18Z</time></trkpt><trkpt lat="41.80773978019514" lon="-2.7775336990043478"><ele>1126.4</ele><time>2026-05-03T12:09:19Z</time></trkpt><trkpt lat="41.80776456426933" lon="-2.7773985301552155"><ele>1128.0</ele><time>2026-05-03T12:09:20Z</time></trkpt><trkpt lat="41.80779173695405" lon="-2.7772607919232852"><ele>1128.0</ele><time>2026-05-03T12:09:21Z</time></trkpt><trkpt lat="41.8078146650332" lon="-2.777120307342405"><ele>1128.0</ele><time>2026-05-03T12:09:22Z</time></trkpt><trkpt lat="41.80783468154251" lon="-2.7769748001551524"><ele>1128.0</ele><time>2026-05-03T12:09:23Z</time></trkpt><trkpt lat="41.80785785789432" lon="-2.7768323130626795"><ele>1128.0</ele><time>2026-05-03T12:09:24Z</time></trkpt><trkpt lat="41.80788280072005" lon="-2.776690922898266"><ele>1128.0</ele><time>2026-05-03T12:09:25Z</time></trkpt><trkpt lat="41.807906787583676" lon="-2.7765492546120942"><ele>1126.8</ele><time>2026-05-03T12:09:26Z</time></trkpt><trkpt lat="41.8079286138282" lon="-2.7764073641027904"><ele>1125.6</ele><time>2026-05-03T12:09:27Z</time></trkpt><trkpt lat="41.80795479540933" lon="-2.77626273450424"><ele>1124.4</ele><time>2026-05-03T12:09:28Z</time></trkpt><trkpt lat="41.8079800010294" lon="-2.776118253418105"><ele>1123.2</ele><time>2026-05-03T12:09:29Z</time></trkpt><trkpt lat="41.8080012447357" lon="-2.775973221224726"><ele>1122.0</ele><time>2026-05-03T12:09:30Z</time></trkpt><trkpt lat="41.808023866828044" lon="-2.7758265197941006"><ele>1120.75</ele><time>2026-05-03T12:09:31Z</time></trkpt><trkpt lat="41.8080368161538" lon="-2.7756734090127413"><ele>1119.5</ele><time>2026-05-03T12:09:32Z</time></trkpt><trkpt lat="41.808057415648385" lon="-2.775528366016618"><ele>1118.25</ele><time>2026-05-03T12:09:33Z</time></trkpt><trkpt lat="41.80807221265926" lon="-2.7753759793695894"><ele>1117.0</ele><time>2026-05-03T12:09:34Z</time></trkpt><trkpt lat="41.80808218577946" lon="-2.775223337947882"><ele>1116.0</ele><time>2026-05-03T12:09:35Z</time></trkpt><trkpt lat="41.80808723430737" lon="-2.7750717255577246"><ele>1115.0</ele><time>2026-05-03T12:09:36Z</time></trkpt><trkpt lat="41.808089739093894" lon="-2.7749133813168823"><ele>1114.0</ele><time>2026-05-03T12:09:37Z</time></trkpt><trkpt lat="41.80808999078052" lon="-2.7747580422152858"><ele>1113.0</ele><time>2026-05-03T12:09:38Z</time></trkpt><trkpt lat="41.80808978511506" lon="-2.774602222699009"><ele>1113.0</ele><time>2026-05-03T12:09:39Z</time></trkpt><trkpt lat="41.80808913178605" lon="-2.7744472054868514"><ele>1113.0</ele><time>2026-05-03T12:09:40Z</time></trkpt><trkpt lat="41.80807711517189" lon="-2.7742892137660355"><ele>1113.0</ele><time>2026-05-03T12:09:41Z</time></trkpt><trkpt lat="41.808062555530384" lon="-2.7741356742669843"><ele>1113.0</ele><time>2026-05-03T12:09:42Z</time></trkpt><trkpt lat="41.80805094237986" lon="-2.7739833586824507"><ele>1111.75</ele><time>2026-05-03T12:09:43Z</time></trkpt><trkpt lat="41.80803527802558" lon="-2.7738307498918444"><ele>1110.5</ele><time>2026-05-03T12:09:44Z</time></trkpt><trkpt lat="41.80801092670819" lon="-2.7736817811969754"><ele>1109.25</ele><time>2026-05-03T12:09:45Z</time></trkpt><trkpt lat="41.807993607643006" lon="-2.773536487362975"><ele>1108.0</ele><time>2026-05-03T12:09:46Z</time></trkpt><trkpt lat="41.807954513968355" lon="-2.7733830268929487"><ele>1107.5</ele><time>2026-05-03T12:09:47Z</time></trkpt><trkpt lat="41.807908299884815" lon="-2.7732309472295085"><ele>1107.0</ele><time>2026-05-03T12:09:48Z</time></trkpt><trkpt lat="41.80782613947922" lon="-2.773057540607198"><ele>1106.5</ele><time>2026-05-03T12:09:49Z</time></trkpt><trkpt lat="41.80777624811681" lon="-2.772843251862581"><ele>1106.0</ele><time>2026-05-03T12:09:50Z</time></trkpt><trkpt lat="41.80779149090478" lon="-2.772677418259872"><ele>1106.0</ele><time>2026-05-03T12:09:52Z</time></trkpt><trkpt lat="41.80775167606264" lon="-2.772538678749425"><ele>1106.0</ele><time>2026-05-03T12:09:53Z</time></trkpt><trkpt lat="41.80771390955882" lon="-2.772403752085899"><ele>1106.0</ele><time>2026-05-03T12:09:54Z</time></trkpt><trkpt lat="41.80767614954537" lon="-2.772268952920793"><ele>1106.0</ele><time>2026-05-03T12:09:55Z</time></trkpt><trkpt lat="41.80764054971986" lon="-2.7721371440965727"><ele>1106.0</ele><time>2026-05-03T12:09:56Z</time></trkpt><trkpt lat="41.80760426422466" lon="-2.772007933324397"><ele>1106.2</ele><time>2026-05-03T12:09:57Z</time></trkpt><trkpt lat="41.8075683658574" lon="-2.771875984638941"><ele>1106.3999999999999</ele><time>2026-05-03T12:09:58Z</time></trkpt><trkpt lat="41.80753664418965" lon="-2.7717522707800692"><ele>1106.6</ele><time>2026-05-03T12:09:59Z</time></trkpt><trkpt lat="41.80750180139817" lon="-2.7716299694793225"><ele>1106.8</ele><time>2026-05-03T12:10:00Z</time></trkpt><trkpt lat="41.80746728334307" lon="-2.7715083206264244"><ele>1107.0</ele><time>2026-05-03T12:10:01Z</time></trkpt><trkpt lat="41.80743343723758" lon="-2.771388634834433"><ele>1107.8333333333333</ele><time>2026-05-03T12:10:02Z</time></trkpt><trkpt lat="41.80740021666934" lon="-2.7712739199663647"><ele>1108.6666666666667</ele><time>2026-05-03T12:10:03Z</time></trkpt><trkpt lat="41.80736808403071" lon="-2.771160893020632"><ele>1109.5</ele><time>2026-05-03T12:10:04Z</time></trkpt><trkpt lat="41.80733774886825" lon="-2.7710489677650134"><ele>1110.3333333333335</ele><time>2026-05-03T12:10:05Z</time></trkpt><trkpt lat="41.80730321383466" lon="-2.7709391628265747"><ele>1111.1666666666667</ele><time>2026-05-03T12:10:06Z</time></trkpt><trkpt lat="41.80727290198103" lon="-2.770826726897529"><ele>1112.0</ele><time>2026-05-03T12:10:07Z</time></trkpt><trkpt lat="41.807245008578946" lon="-2.7707182549868654"><ele>1112.6666666666667</ele><time>2026-05-03T12:10:08Z</time></trkpt><trkpt lat="41.80721968416466" lon="-2.7706094651696556"><ele>1113.3333333333335</ele><time>2026-05-03T12:10:09Z</time></trkpt><trkpt lat="41.807193185317104" lon="-2.7704972900441476"><ele>1114.0</ele><time>2026-05-03T12:10:10Z</time></trkpt><trkpt lat="41.807172300888425" lon="-2.77038465116281"><ele>1114.6666666666667</ele><time>2026-05-03T12:10:11Z</time></trkpt><trkpt lat="41.80715295198809" lon="-2.7702698845281777"><ele>1115.3333333333333</ele><time>2026-05-03T12:10:12Z</time></trkpt><trkpt lat="41.807139173388705" lon="-2.770159740678748"><ele>1116.0</ele><time>2026-05-03T12:10:13Z</time></trkpt><trkpt lat="41.807120744083264" lon="-2.7700467801863873"><ele>1116.6666666666667</ele><time>2026-05-03T12:10:14Z</time></trkpt><trkpt lat="41.80710573905284" lon="-2.769934789851674"><ele>1117.3333333333333</ele><time>2026-05-03T12:10:15.001Z</time></trkpt><trkpt lat="41.80709450644825" lon="-2.7698203984014773"><ele>1118.0</ele><time>2026-05-03T12:10:16.001Z</time></trkpt><trkpt lat="41.807083335315184" lon="-2.769706880496696"><ele>1118.6666666666665</ele><time>2026-05-03T12:10:17.001Z</time></trkpt><trkpt lat="41.807071729238054" lon="-2.7695937035736544"><ele>1119.3333333333333</ele><time>2026-05-03T12:10:18.001Z</time></trkpt><trkpt lat="41.80706143673142" lon="-2.7694781362003775"><ele>1120.0</ele><time>2026-05-03T12:10:19.001Z</time></trkpt><trkpt lat="41.80705595185771" lon="-2.769364373111667"><ele>1120.3333333333333</ele><time>2026-05-03T12:10:20.001Z</time></trkpt><trkpt lat="41.8070510521335" lon="-2.769245396830779"><ele>1120.6666666666665</ele><time>2026-05-03T12:10:21.001Z</time></trkpt><trkpt lat="41.80705101053144" lon="-2.7691269624613724"><ele>1121.0</ele><time>2026-05-03T12:10:22.001Z</time></trkpt><trkpt lat="41.80705075734308" lon="-2.7690080651698823"><ele>1121.3333333333333</ele><time>2026-05-03T12:10:23.001Z</time></trkpt><trkpt lat="41.80705370570311" lon="-2.768887720862538"><ele>1121.6666666666667</ele><time>2026-05-03T12:10:24.001Z</time></trkpt><trkpt lat="41.80705746134835" lon="-2.7687636717139292"><ele>1122.0</ele><time>2026-05-03T12:10:25.001Z</time></trkpt><trkpt lat="41.807061058282656" lon="-2.7686352973703716"><ele>1122.0</ele><time>2026-05-03T12:10:26.001Z</time></trkpt><trkpt lat="41.80706528982381" lon="-2.7685101205515594"><ele>1122.0</ele><time>2026-05-03T12:10:27.001Z</time></trkpt><trkpt lat="41.80707500566596" lon="-2.7683836105941357"><ele>1122.0</ele><time>2026-05-03T12:10:28.001Z</time></trkpt><trkpt lat="41.80708500108035" lon="-2.7682490075864616"><ele>1122.0</ele><time>2026-05-03T12:10:29.001Z</time></trkpt><trkpt lat="41.80709180589208" lon="-2.768120259147889"><ele>1122.0</ele><time>2026-05-03T12:10:30.001Z</time></trkpt><trkpt lat="41.80710287839413" lon="-2.7679900007416585"><ele>1122.0</ele><time>2026-05-03T12:10:31.001Z</time></trkpt><trkpt lat="41.80711679023314" lon="-2.767857790133837"><ele>1122.0</ele><time>2026-05-03T12:10:32.001Z</time></trkpt><trkpt lat="41.80712917564578" lon="-2.7677235472131017"><ele>1122.0</ele><time>2026-05-03T12:10:33.001Z</time></trkpt><trkpt lat="41.80714340277004" lon="-2.767590890169846"><ele>1122.0</ele><time>2026-05-03T12:10:34.001Z</time></trkpt><trkpt lat="41.807157890728234" lon="-2.7674555810440142"><ele>1122.0</ele><time>2026-05-03T12:10:35.001Z</time></trkpt><trkpt lat="41.80717343665047" lon="-2.767319185365144"><ele>1121.6</ele><time>2026-05-03T12:10:36.001Z</time></trkpt><trkpt lat="41.807189387553855" lon="-2.767181891550913"><ele>1121.2</ele><time>2026-05-03T12:10:36.999Z</time></trkpt><trkpt lat="41.80720432658685" lon="-2.7670465617490945"><ele>1120.8</ele><time>2026-05-03T12:10:37.999Z</time></trkpt><trkpt lat="41.80721746227447" lon="-2.766913164378306"><ele>1120.4</ele><time>2026-05-03T12:10:38.999Z</time></trkpt><trkpt lat="41.80723332026699" lon="-2.7667765883956"><ele>1120.0</ele><time>2026-05-03T12:10:39.999Z</time></trkpt><trkpt lat="41.8072476776857" lon="-2.7666413769947003"><ele>1120.6</ele><time>2026-05-03T12:10:40.999Z</time></trkpt><trkpt lat="41.80726256972858" lon="-2.766506928498751"><ele>1121.2</ele><time>2026-05-03T12:10:41.999Z</time></trkpt><trkpt lat="41.80727897708735" lon="-2.7663688618925124"><ele>1121.8</ele><time>2026-05-03T12:10:42.999Z</time></trkpt><trkpt lat="41.807292602308905" lon="-2.7662351864578407"><ele>1122.4</ele><time>2026-05-03T12:10:43.999Z</time></trkpt><trkpt lat="41.807308123022416" lon="-2.766102586272355"><ele>1123.0</ele><time>2026-05-03T12:10:44.999Z</time></trkpt><trkpt lat="41.80732234306581" lon="-2.7659671761885107"><ele>1123.0</ele><time>2026-05-03T12:10:45.999Z</time></trkpt><trkpt lat="41.8073369215469" lon="-2.765833167034338"><ele>1123.0</ele><time>2026-05-03T12:10:46.999Z</time></trkpt><trkpt lat="41.8073529593597" lon="-2.7657008105814276"><ele>1123.0</ele><time>2026-05-03T12:10:47.999Z</time></trkpt><trkpt lat="41.80736657756415" lon="-2.7655656808032534"><ele>1123.0</ele><time>2026-05-03T12:10:48.999Z</time></trkpt><trkpt lat="41.80738097911913" lon="-2.7654296395532416"><ele>1123.0</ele><time>2026-05-03T12:10:49.999Z</time></trkpt><trkpt lat="41.807397035048574" lon="-2.7652961186096316"><ele>1122.8</ele><time>2026-05-03T12:10:50.999Z</time></trkpt><trkpt lat="41.80741049586687" lon="-2.765158636592093"><ele>1122.6</ele><time>2026-05-03T12:10:51.999Z</time></trkpt><trkpt lat="41.80742842131111" lon="-2.765022262119474"><ele>1122.4</ele><time>2026-05-03T12:10:52.999Z</time></trkpt><trkpt lat="41.8074405903499" lon="-2.7648800479102973"><ele>1122.2</ele><time>2026-05-03T12:10:53.999Z</time></trkpt><trkpt lat="41.80745512869619" lon="-2.764743694525381"><ele>1122.0</ele><time>2026-05-03T12:10:54.999Z</time></trkpt><trkpt lat="41.80747107241463" lon="-2.7646042527875627"><ele>1122.0</ele><time>2026-05-03T12:10:55.999Z</time></trkpt><trkpt lat="41.8074853299104" lon="-2.7644676767501277"><ele>1122.0</ele><time>2026-05-03T12:10:56.999Z</time></trkpt><trkpt lat="41.80749956146589" lon="-2.764330934453409"><ele>1122.0</ele><time>2026-05-03T12:10:57.999Z</time></trkpt><trkpt lat="41.80751310667783" lon="-2.764190525963809"><ele>1122.0</ele><time>2026-05-03T12:10:58.999Z</time></trkpt><trkpt lat="41.80752739365075" lon="-2.7640548146525785"><ele>1122.0</ele><time>2026-05-03T12:10:59.999Z</time></trkpt><trkpt lat="41.80754291208546" lon="-2.763915669708996"><ele>1122.2</ele><time>2026-05-03T12:11:00.999Z</time></trkpt><trkpt lat="41.80755668616307" lon="-2.7637795619208574"><ele>1122.4</ele><time>2026-05-03T12:11:01.999Z</time></trkpt><trkpt lat="41.80756898265332" lon="-2.763645449723087"><ele>1122.6</ele><time>2026-05-03T12:11:02.999Z</time></trkpt><trkpt lat="41.80758615323779" lon="-2.7635055780094606"><ele>1122.8</ele><time>2026-05-03T12:11:04Z</time></trkpt><trkpt lat="41.80760078462788" lon="-2.7633693903160728"><ele>1123.0</ele><time>2026-05-03T12:11:05Z</time></trkpt><trkpt lat="41.80761823926577" lon="-2.7632263078100494"><ele>1123.0</ele><time>2026-05-03T12:11:06Z</time></trkpt><trkpt lat="41.807638353914584" lon="-2.7630886736263895"><ele>1123.0</ele><time>2026-05-03T12:11:07Z</time></trkpt><trkpt lat="41.80766226887548" lon="-2.762944665792838"><ele>1123.0</ele><time>2026-05-03T12:11:08Z</time></trkpt><trkpt lat="41.80768834643267" lon="-2.7627967683110546"><ele>1123.0</ele><time>2026-05-03T12:11:09Z</time></trkpt><trkpt lat="41.80772227359441" lon="-2.7626706696138585"><ele>1123.0</ele><time>2026-05-03T12:11:10Z</time></trkpt><trkpt lat="41.80776477577735" lon="-2.7625091185505157"><ele>1123.0</ele><time>2026-05-03T12:11:11Z</time></trkpt><trkpt lat="41.80780292513182" lon="-2.762363945704421"><ele>1123.0</ele><time>2026-05-03T12:11:12Z</time></trkpt><trkpt lat="41.80784771476968" lon="-2.762223852139185"><ele>1123.0</ele><time>2026-05-03T12:11:13Z</time></trkpt><trkpt lat="41.807894339535764" lon="-2.7620901792045096"><ele>1123.0</ele><time>2026-05-03T12:11:14Z</time></trkpt><trkpt lat="41.80794868932673" lon="-2.761955342524535"><ele>1122.5</ele><time>2026-05-03T12:11:15Z</time></trkpt><trkpt lat="41.80800427428422" lon="-2.761820287432707"><ele>1122.0</ele><time>2026-05-03T12:11:16Z</time></trkpt><trkpt lat="41.80805789273369" lon="-2.7616838357372475"><ele>1121.5</ele><time>2026-05-03T12:11:17Z</time></trkpt><trkpt lat="41.8081123571959" lon="-2.761551379125216"><ele>1121.0</ele><time>2026-05-03T12:11:18Z</time></trkpt><trkpt lat="41.808171096114286" lon="-2.7614193462736814"><ele>1121.0</ele><time>2026-05-03T12:11:19Z</time></trkpt><trkpt lat="41.80822305385854" lon="-2.761290415549624"><ele>1121.0</ele><time>2026-05-03T12:11:20Z</time></trkpt><trkpt lat="41.808280726890466" lon="-2.761159911086441"><ele>1121.0</ele><time>2026-05-03T12:11:21Z</time></trkpt><trkpt lat="41.80833680569717" lon="-2.7610251256944127"><ele>1121.0</ele><time>2026-05-03T12:11:22Z</time></trkpt><trkpt lat="41.808385866300185" lon="-2.7608821052695878"><ele>1121.2</ele><time>2026-05-03T12:11:23Z</time></trkpt><trkpt lat="41.80844657092996" lon="-2.760755632744784"><ele>1121.3999999999999</ele><time>2026-05-03T12:11:24Z</time></trkpt><trkpt lat="41.80849658529188" lon="-2.760625683057644"><ele>1121.6</ele><time>2026-05-03T12:11:25Z</time></trkpt><trkpt lat="41.808558482681924" lon="-2.7604978565667695"><ele>1121.8</ele><time>2026-05-03T12:11:26Z</time></trkpt><trkpt lat="41.808618985819194" lon="-2.7603955558535884"><ele>1122.0</ele><time>2026-05-03T12:11:27Z</time></trkpt><trkpt lat="41.808665729109116" lon="-2.7602804328568604"><ele>1120.75</ele><time>2026-05-03T12:11:28Z</time></trkpt><trkpt lat="41.80871445793742" lon="-2.7601057038749666"><ele>1119.5</ele><time>2026-05-03T12:11:29Z</time></trkpt><trkpt lat="41.80876897120653" lon="-2.7599703213289515"><ele>1118.25</ele><time>2026-05-03T12:11:30Z</time></trkpt><trkpt lat="41.808824817795134" lon="-2.759835895492675"><ele>1117.0</ele><time>2026-05-03T12:11:31Z</time></trkpt><trkpt lat="41.80887785987071" lon="-2.7597006726336053"><ele>1117.0</ele><time>2026-05-03T12:11:32Z</time></trkpt><trkpt lat="41.80893440180421" lon="-2.7595652964427755"><ele>1117.0</ele><time>2026-05-03T12:11:33Z</time></trkpt><trkpt lat="41.808986510445585" lon="-2.759429646877651"><ele>1117.0</ele><time>2026-05-03T12:11:34Z</time></trkpt><trkpt lat="41.809041261803564" lon="-2.759294397420539"><ele>1117.0</ele><time>2026-05-03T12:11:35Z</time></trkpt><trkpt lat="41.809095517048064" lon="-2.7591590858279984"><ele>1117.25</ele><time>2026-05-03T12:11:36Z</time></trkpt><trkpt lat="41.80915343685187" lon="-2.759028593253701"><ele>1117.5</ele><time>2026-05-03T12:11:37Z</time></trkpt><trkpt lat="41.80920845369748" lon="-2.7588914873050254"><ele>1117.75</ele><time>2026-05-03T12:11:38Z</time></trkpt><trkpt lat="41.809266054836165" lon="-2.7587607400656604"><ele>1118.0</ele><time>2026-05-03T12:11:39Z</time></trkpt><trkpt lat="41.8093196740193" lon="-2.7586355904122404"><ele>1118.4</ele><time>2026-05-03T12:11:40Z</time></trkpt><trkpt lat="41.80937184801145" lon="-2.7585043591488323"><ele>1118.8</ele><time>2026-05-03T12:11:41Z</time></trkpt><trkpt lat="41.80942746410266" lon="-2.7583695165982833"><ele>1119.2</ele><time>2026-05-03T12:11:42Z</time></trkpt><trkpt lat="41.80948085065523" lon="-2.75823689868617"><ele>1119.6</ele><time>2026-05-03T12:11:43Z</time></trkpt><trkpt lat="41.809534422662175" lon="-2.7581095186762306"><ele>1120.0</ele><time>2026-05-03T12:11:44Z</time></trkpt><trkpt lat="41.8095887233731" lon="-2.7579809752597155"><ele>1120.0</ele><time>2026-05-03T12:11:45Z</time></trkpt><trkpt lat="41.8096404908701" lon="-2.7578555464519807"><ele>1120.0</ele><time>2026-05-03T12:11:46Z</time></trkpt><trkpt lat="41.80969378712419" lon="-2.7577198984601705"><ele>1120.0</ele><time>2026-05-03T12:11:47Z</time></trkpt><trkpt lat="41.809742723140225" lon="-2.7575928740743385"><ele>1120.0</ele><time>2026-05-03T12:11:48Z</time></trkpt><trkpt lat="41.809793815014416" lon="-2.7574722295636303"><ele>1120.0</ele><time>2026-05-03T12:11:49Z</time></trkpt><trkpt lat="41.809844091663074" lon="-2.757344028031087"><ele>1120.6</ele><time>2026-05-03T12:11:50Z</time></trkpt><trkpt lat="41.80988939164535" lon="-2.7572139515737772"><ele>1121.2</ele><time>2026-05-03T12:11:51Z</time></trkpt><trkpt lat="41.809941256693634" lon="-2.7570984755146886"><ele>1121.8</ele><time>2026-05-03T12:11:52Z</time></trkpt><trkpt lat="41.80999479606302" lon="-2.7569831918600656"><ele>1122.4</ele><time>2026-05-03T12:11:53Z</time></trkpt><trkpt lat="41.81004540201365" lon="-2.7568662312368435"><ele>1123.0</ele><time>2026-05-03T12:11:54Z</time></trkpt><trkpt lat="41.81009072911209" lon="-2.7567564766465633"><ele>1123.4</ele><time>2026-05-03T12:11:55Z</time></trkpt><trkpt lat="41.81013382403293" lon="-2.756644872812908"><ele>1123.8</ele><time>2026-05-03T12:11:56Z</time></trkpt><trkpt lat="41.8101802046489" lon="-2.756533200349153"><ele>1124.2</ele><time>2026-05-03T12:11:57.001Z</time></trkpt><trkpt lat="41.81023207414483" lon="-2.756425973406095"><ele>1124.6</ele><time>2026-05-03T12:11:58.001Z</time></trkpt><trkpt lat="41.8102822545437" lon="-2.756320040318689"><ele>1125.0</ele><time>2026-05-03T12:11:59.001Z</time></trkpt><trkpt lat="41.81033871383823" lon="-2.75621381154557"><ele>1125.0</ele><time>2026-05-03T12:12:00.001Z</time></trkpt><trkpt lat="41.81039289688683" lon="-2.756104931471502"><ele>1125.0</ele><time>2026-05-03T12:12:01.001Z</time></trkpt><trkpt lat="41.81044579566066" lon="-2.756000527148857"><ele>1125.0</ele><time>2026-05-03T12:12:02.001Z</time></trkpt><trkpt lat="41.81050215972222" lon="-2.7558955356451453"><ele>1125.0</ele><time>2026-05-03T12:12:03.001Z</time></trkpt><trkpt lat="41.810558337002455" lon="-2.7557902766813758"><ele>1125.0</ele><time>2026-05-03T12:12:04.001Z</time></trkpt><trkpt lat="41.81061405776524" lon="-2.7556824019547355"><ele>1125.4</ele><time>2026-05-03T12:12:05.001Z</time></trkpt><trkpt lat="41.81066956602338" lon="-2.755574963901016"><ele>1125.8</ele><time>2026-05-03T12:12:06.001Z</time></trkpt><trkpt lat="41.81072282713093" lon="-2.7554641655725907"><ele>1126.2</ele><time>2026-05-03T12:12:07.001Z</time></trkpt><trkpt lat="41.81077341517113" lon="-2.755357494589125"><ele>1126.6</ele><time>2026-05-03T12:12:08.001Z</time></trkpt><trkpt lat="41.810827408771445" lon="-2.755249241528062"><ele>1127.0</ele><time>2026-05-03T12:12:09.001Z</time></trkpt><trkpt lat="41.810875920309975" lon="-2.755141243887545"><ele>1127.4</ele><time>2026-05-03T12:12:10.001Z</time></trkpt><trkpt lat="41.810919666580226" lon="-2.7550268573431533"><ele>1127.8000000000002</ele><time>2026-05-03T12:12:11.001Z</time></trkpt><trkpt lat="41.81096618668444" lon="-2.754909637018904"><ele>1128.2</ele><time>2026-05-03T12:12:12.001Z</time></trkpt><trkpt lat="41.81100806848826" lon="-2.754792102503912"><ele>1128.6000000000001</ele><time>2026-05-03T12:12:13.001Z</time></trkpt><trkpt lat="41.81104921897213" lon="-2.7546743076352875"><ele>1129.0</ele><time>2026-05-03T12:12:14.001Z</time></trkpt><trkpt lat="41.811089193303395" lon="-2.754551660029811"><ele>1129.0</ele><time>2026-05-03T12:12:15.001Z</time></trkpt><trkpt lat="41.811123646709596" lon="-2.7544291107962797"><ele>1129.0</ele><time>2026-05-03T12:12:16.001Z</time></trkpt><trkpt lat="41.81115642658246" lon="-2.7543068791308247"><ele>1129.0</ele><time>2026-05-03T12:12:17.001Z</time></trkpt><trkpt lat="41.81118191579327" lon="-2.75417782143592"><ele>1129.0</ele><time>2026-05-03T12:12:18.001Z</time></trkpt><trkpt lat="41.81121245522873" lon="-2.7540520339787404"><ele>1129.0</ele><time>2026-05-03T12:12:19.001Z</time></trkpt><trkpt lat="41.81124265151817" lon="-2.753923734764466"><ele>1129.6000000000001</ele><time>2026-05-03T12:12:20.001Z</time></trkpt><trkpt lat="41.81126150553655" lon="-2.7537927577952646"><ele>1130.2</ele><time>2026-05-03T12:12:21.001Z</time></trkpt><trkpt lat="41.81128952752105" lon="-2.75365964792858"><ele>1130.8000000000002</ele><time>2026-05-03T12:12:22.001Z</time></trkpt><trkpt lat="41.81130137307589" lon="-2.7535282773142904"><ele>1131.4</ele><time>2026-05-03T12:12:23.001Z</time></trkpt><trkpt lat="41.81131752304081" lon="-2.7533946823818916"><ele>1132.0</ele><time>2026-05-03T12:12:24.001Z</time></trkpt><trkpt lat="41.811329832580824" lon="-2.7532592279454975"><ele>1132.2</ele><time>2026-05-03T12:12:25.001Z</time></trkpt><trkpt lat="41.81134347454709" lon="-2.753117504907401"><ele>1132.4</ele><time>2026-05-03T12:12:26.001Z</time></trkpt><trkpt lat="41.81134543717989" lon="-2.7529785454738938"><ele>1132.6</ele><time>2026-05-03T12:12:27.001Z</time></trkpt><trkpt lat="41.81135266649141" lon="-2.752839130123275"><ele>1132.8</ele><time>2026-05-03T12:12:28.001Z</time></trkpt><trkpt lat="41.81134855609188" lon="-2.7526942922351023"><ele>1133.0</ele><time>2026-05-03T12:12:29.001Z</time></trkpt><trkpt lat="41.81134994204988" lon="-2.752552118164703"><ele>1133.0</ele><time>2026-05-03T12:12:30.001Z</time></trkpt><trkpt lat="41.81134403449033" lon="-2.7524089392677915"><ele>1133.0</ele><time>2026-05-03T12:12:31.001Z</time></trkpt><trkpt lat="41.81134069796116" lon="-2.752264554456493"><ele>1133.0</ele><time>2026-05-03T12:12:32.001Z</time></trkpt><trkpt lat="41.811331795619125" lon="-2.7521175043017347"><ele>1133.0</ele><time>2026-05-03T12:12:33.001Z</time></trkpt><trkpt lat="41.8113173402877" lon="-2.751977116218007"><ele>1133.0</ele><time>2026-05-03T12:12:34.001Z</time></trkpt><trkpt lat="41.811299460164896" lon="-2.7518353095622485"><ele>1132.4</ele><time>2026-05-03T12:12:35.001Z</time></trkpt><trkpt lat="41.81127648858519" lon="-2.7516938207517274"><ele>1131.8</ele><time>2026-05-03T12:12:36.001Z</time></trkpt><trkpt lat="41.81125140612924" lon="-2.751556787939135"><ele>1131.2</ele><time>2026-05-03T12:12:37.001Z</time></trkpt><trkpt lat="41.811228447337406" lon="-2.751414850969725"><ele>1130.6</ele><time>2026-05-03T12:12:38.001Z</time></trkpt><trkpt lat="41.81120110595604" lon="-2.751274792802769"><ele>1130.0</ele><time>2026-05-03T12:12:39.001Z</time></trkpt><trkpt lat="41.8111737157016" lon="-2.7511340314939687"><ele>1130.2</ele><time>2026-05-03T12:12:40.001Z</time></trkpt><trkpt lat="41.81114591979746" lon="-2.75099909223141"><ele>1130.4</ele><time>2026-05-03T12:12:41.001Z</time></trkpt><trkpt lat="41.81111791268542" lon="-2.750856610903033"><ele>1130.6</ele><time>2026-05-03T12:12:42.001Z</time></trkpt><trkpt lat="41.81108771234761" lon="-2.750717582274472"><ele>1130.8</ele><time>2026-05-03T12:12:43Z</time></trkpt><trkpt lat="41.81106058140722" lon="-2.750576771394466"><ele>1131.0</ele><time>2026-05-03T12:12:44Z</time></trkpt><trkpt lat="41.81103198584393" lon="-2.7504390041288445"><ele>1131.0</ele><time>2026-05-03T12:12:45Z</time></trkpt><trkpt lat="41.81100131374093" lon="-2.750300793765261"><ele>1131.0</ele><time>2026-05-03T12:12:46Z</time></trkpt><trkpt lat="41.81097240503652" lon="-2.7501632904685813"><ele>1131.0</ele><time>2026-05-03T12:12:47Z</time></trkpt><trkpt lat="41.81094580703149" lon="-2.7500198291404936"><ele>1131.0</ele><time>2026-05-03T12:12:48Z</time></trkpt><trkpt lat="41.81091629654948" lon="-2.7498836588228084"><ele>1131.0</ele><time>2026-05-03T12:12:49Z</time></trkpt><trkpt lat="41.810887824403984" lon="-2.7497413535269377"><ele>1131.6</ele><time>2026-05-03T12:12:50Z</time></trkpt><trkpt lat="41.810864238988515" lon="-2.7495922575490943"><ele>1132.1999999999998</ele><time>2026-05-03T12:12:51Z</time></trkpt><trkpt lat="41.81083927048527" lon="-2.7494506748543768"><ele>1132.8000000000002</ele><time>2026-05-03T12:12:52Z</time></trkpt><trkpt lat="41.81081307084243" lon="-2.7493082253845564"><ele>1133.4</ele><time>2026-05-03T12:12:53Z</time></trkpt><trkpt lat="41.810787940337555" lon="-2.7491636377495836"><ele>1134.0</ele><time>2026-05-03T12:12:54Z</time></trkpt><trkpt lat="41.810768812925694" lon="-2.749019138179643"><ele>1134.0</ele><time>2026-05-03T12:12:55Z</time></trkpt><trkpt lat="41.81076073662713" lon="-2.7488768389849527"><ele>1134.0</ele><time>2026-05-03T12:12:56Z</time></trkpt><trkpt lat="41.81075384746002" lon="-2.7487325431162306"><ele>1134.0</ele><time>2026-05-03T12:12:57Z</time></trkpt><trkpt lat="41.81074532963667" lon="-2.7485778273314554"><ele>1134.0</ele><time>2026-05-03T12:12:58Z</time></trkpt><trkpt lat="41.81073124949791" lon="-2.748409266081896"><ele>1134.0</ele><time>2026-05-03T12:12:59Z</time></trkpt><trkpt lat="41.810720807794986" lon="-2.748250348953535"><ele>1134.0</ele><time>2026-05-03T12:13:00Z</time></trkpt><trkpt lat="41.810719761536085" lon="-2.7480970975518595"><ele>1134.0</ele><time>2026-05-03T12:13:01Z</time></trkpt><trkpt lat="41.810724112119786" lon="-2.74793688893154"><ele>1134.0</ele><time>2026-05-03T12:13:02Z</time></trkpt><trkpt lat="41.810728650668544" lon="-2.747779238910785"><ele>1133.25</ele><time>2026-05-03T12:13:03Z</time></trkpt><trkpt lat="41.81073546328339" lon="-2.7476206104366394"><ele>1132.5</ele><time>2026-05-03T12:13:04Z</time></trkpt><trkpt lat="41.81074563429273" lon="-2.7474619732794126"><ele>1131.75</ele><time>2026-05-03T12:13:05Z</time></trkpt><trkpt lat="41.810758845175215" lon="-2.747302433811468"><ele>1131.0</ele><time>2026-05-03T12:13:06Z</time></trkpt><trkpt lat="41.810776573482684" lon="-2.747143303297871"><ele>1131.0</ele><time>2026-05-03T12:13:07Z</time></trkpt><trkpt lat="41.8107893902198" lon="-2.7469857657461003"><ele>1131.0</ele><time>2026-05-03T12:13:08Z</time></trkpt><trkpt lat="41.81080601951598" lon="-2.746827414256043"><ele>1131.0</ele><time>2026-05-03T12:13:09Z</time></trkpt><trkpt lat="41.81082199877087" lon="-2.746668989527494"><ele>1131.0</ele><time>2026-05-03T12:13:10Z</time></trkpt><trkpt lat="41.81083595353452" lon="-2.746512365990143"><ele>1129.75</ele><time>2026-05-03T12:13:11Z</time></trkpt><trkpt lat="41.81085098240704" lon="-2.7463549002063172"><ele>1128.5</ele><time>2026-05-03T12:13:12Z</time></trkpt><trkpt lat="41.81086642235595" lon="-2.7462009996972614"><ele>1127.25</ele><time>2026-05-03T12:13:13Z</time></trkpt><trkpt lat="41.81087931451201" lon="-2.7460458358975557"><ele>1126.0</ele><time>2026-05-03T12:13:14Z</time></trkpt><trkpt lat="41.81089280413901" lon="-2.745888524664302"><ele>1125.5</ele><time>2026-05-03T12:13:15Z</time></trkpt><trkpt lat="41.810909574514234" lon="-2.7457355875400697"><ele>1125.0</ele><time>2026-05-03T12:13:16Z</time></trkpt><trkpt lat="41.81092281754972" lon="-2.7455802894277643"><ele>1124.5</ele><time>2026-05-03T12:13:17Z</time></trkpt><trkpt lat="41.810935187693154" lon="-2.7454281495719335"><ele>1124.0</ele><time>2026-05-03T12:13:18Z</time></trkpt><trkpt lat="41.81094817115136" lon="-2.7452752286858026"><ele>1123.75</ele><time>2026-05-03T12:13:19Z</time></trkpt><trkpt lat="41.81096642832178" lon="-2.745124622029151"><ele>1123.5</ele><time>2026-05-03T12:13:20Z</time></trkpt><trkpt lat="41.8109788493798" lon="-2.7449742789094005"><ele>1123.25</ele><time>2026-05-03T12:13:21Z</time></trkpt><trkpt lat="41.81100041904899" lon="-2.744820363980497"><ele>1123.0</ele><time>2026-05-03T12:13:22Z</time></trkpt><trkpt lat="41.81102683200484" lon="-2.7446691087728934"><ele>1123.0</ele><time>2026-05-03T12:13:23Z</time></trkpt><trkpt lat="41.811021848941465" lon="-2.744532283056234"><ele>1123.0</ele><time>2026-05-03T12:13:24Z</time></trkpt><trkpt lat="41.81103454350604" lon="-2.744389073252989"><ele>1123.0</ele><time>2026-05-03T12:13:25Z</time></trkpt><trkpt lat="41.811049114436734" lon="-2.744242600621361"><ele>1123.0</ele><time>2026-05-03T12:13:26Z</time></trkpt><trkpt lat="41.81106376470504" lon="-2.744091629380937"><ele>1123.0</ele><time>2026-05-03T12:13:27Z</time></trkpt><trkpt lat="41.81106792265045" lon="-2.7439371333748444"><ele>1123.0</ele><time>2026-05-03T12:13:28Z</time></trkpt><trkpt lat="41.81105867662049" lon="-2.7437722833494886"><ele>1123.0</ele><time>2026-05-03T12:13:29Z</time></trkpt><trkpt lat="41.81111249501307" lon="-2.7436424938506065"><ele>1123.0</ele><time>2026-05-03T12:13:30Z</time></trkpt><trkpt lat="41.81112660262626" lon="-2.7434927473782227"><ele>1123.0</ele><time>2026-05-03T12:13:31Z</time></trkpt><trkpt lat="41.81114062353651" lon="-2.7433429380292775"><ele>1123.25</ele><time>2026-05-03T12:13:32Z</time></trkpt><trkpt lat="41.81115491295119" lon="-2.743192508180044"><ele>1123.5</ele><time>2026-05-03T12:13:33Z</time></trkpt><trkpt lat="41.81116713052963" lon="-2.7430408301180504"><ele>1123.75</ele><time>2026-05-03T12:13:34Z</time></trkpt><trkpt lat="41.811180949862035" lon="-2.7428909805640997"><ele>1124.0</ele><time>2026-05-03T12:13:35Z</time></trkpt><trkpt lat="41.811195254335125" lon="-2.742738056961627"><ele>1124.0</ele><time>2026-05-03T12:13:36Z</time></trkpt><trkpt lat="41.811212330969845" lon="-2.742588746264174"><ele>1124.0</ele><time>2026-05-03T12:13:37Z</time></trkpt><trkpt lat="41.81122739401178" lon="-2.7424369469005447"><ele>1124.0</ele><time>2026-05-03T12:13:38Z</time></trkpt><trkpt lat="41.81124226312324" lon="-2.7422837604574113"><ele>1124.0</ele><time>2026-05-03T12:13:39Z</time></trkpt><trkpt lat="41.81125863036973" lon="-2.7421314326503525"><ele>1124.0</ele><time>2026-05-03T12:13:40Z</time></trkpt><trkpt lat="41.8112727634217" lon="-2.7419765992869056"><ele>1124.0</ele><time>2026-05-03T12:13:41.001Z</time></trkpt><trkpt lat="41.81128682404433" lon="-2.741824805976505"><ele>1124.0</ele><time>2026-05-03T12:13:42.001Z</time></trkpt><trkpt lat="41.81130049196761" lon="-2.7416719333967063"><ele>1124.0</ele><time>2026-05-03T12:13:43.001Z</time></trkpt><trkpt lat="41.8113166154574" lon="-2.7415182722061306"><ele>1123.5</ele><time>2026-05-03T12:13:44.001Z</time></trkpt><trkpt lat="41.81133157824189" lon="-2.7413609041692926"><ele>1123.0</ele><time>2026-05-03T12:13:45.001Z</time></trkpt><trkpt lat="41.8113445497067" lon="-2.741207696714943"><ele>1122.5</ele><time>2026-05-03T12:13:46.001Z</time></trkpt><trkpt lat="41.81135587161956" lon="-2.7410507004944282"><ele>1122.0</ele><time>2026-05-03T12:13:47.001Z</time></trkpt><trkpt lat="41.81136670412515" lon="-2.740895416745795"><ele>1121.25</ele><time>2026-05-03T12:13:48.001Z</time></trkpt><trkpt lat="41.81138269360188" lon="-2.74074140854821"><ele>1120.5</ele><time>2026-05-03T12:13:49.001Z</time></trkpt><trkpt lat="41.811397262505245" lon="-2.7405851434282575"><ele>1119.75</ele><time>2026-05-03T12:13:50.001Z</time></trkpt><trkpt lat="41.8114121495016" lon="-2.740430210973817"><ele>1119.0</ele><time>2026-05-03T12:13:51.001Z</time></trkpt><trkpt lat="41.811430731597696" lon="-2.740275771937209"><ele>1118.75</ele><time>2026-05-03T12:13:52.001Z</time></trkpt><trkpt lat="41.81144766182086" lon="-2.740120660635417"><ele>1118.5</ele><time>2026-05-03T12:13:53.001Z</time></trkpt><trkpt lat="41.811460808794415" lon="-2.7399668551096266"><ele>1118.25</ele><time>2026-05-03T12:13:54.001Z</time></trkpt><trkpt lat="41.81147257687891" lon="-2.7398124438202283"><ele>1118.0</ele><time>2026-05-03T12:13:55.001Z</time></trkpt><trkpt lat="41.81148780040096" lon="-2.7396561483964077"><ele>1118.0</ele><time>2026-05-03T12:13:56.001Z</time></trkpt><trkpt lat="41.81150148894874" lon="-2.7395017582234917"><ele>1118.0</ele><time>2026-05-03T12:13:57.001Z</time></trkpt><trkpt lat="41.811516275424154" lon="-2.739349483395571"><ele>1118.0</ele><time>2026-05-03T12:13:58.001Z</time></trkpt><trkpt lat="41.81153398438055" lon="-2.739196236551332"><ele>1118.0</ele><time>2026-05-03T12:13:59.001Z</time></trkpt><trkpt lat="41.81155158759142" lon="-2.739044973499792"><ele>1117.5</ele><time>2026-05-03T12:14:00.001Z</time></trkpt><trkpt lat="41.81156419901227" lon="-2.7388924687849343"><ele>1117.0</ele><time>2026-05-03T12:14:01.001Z</time></trkpt><trkpt lat="41.81157682359745" lon="-2.738742741301107"><ele>1116.5</ele><time>2026-05-03T12:14:02.001Z</time></trkpt><trkpt lat="41.81159070491111" lon="-2.7385896913160166"><ele>1116.0</ele><time>2026-05-03T12:14:03.001Z</time></trkpt><trkpt lat="41.81160442223918" lon="-2.738441221234886"><ele>1116.0</ele><time>2026-05-03T12:14:04.001Z</time></trkpt><trkpt lat="41.811620144178285" lon="-2.738290898546267"><ele>1116.0</ele><time>2026-05-03T12:14:05.001Z</time></trkpt><trkpt lat="41.811634829633945" lon="-2.7381403407664404"><ele>1116.0</ele><time>2026-05-03T12:14:06.001Z</time></trkpt><trkpt lat="41.81165022424062" lon="-2.737989286911918"><ele>1116.0</ele><time>2026-05-03T12:14:07.001Z</time></trkpt><trkpt lat="41.81166526350526" lon="-2.7378367568503976"><ele>1115.5</ele><time>2026-05-03T12:14:08.001Z</time></trkpt><trkpt lat="41.811679998288874" lon="-2.7376866641469646"><ele>1115.0</ele><time>2026-05-03T12:14:09.001Z</time></trkpt><trkpt lat="41.81169452408129" lon="-2.737532611161752"><ele>1114.5</ele><time>2026-05-03T12:14:10.001Z</time></trkpt><trkpt lat="41.81170932207292" lon="-2.737377711634795"><ele>1114.0</ele><time>2026-05-03T12:14:11.001Z</time></trkpt><trkpt lat="41.81172337500109" lon="-2.737222138925501"><ele>1114.0</ele><time>2026-05-03T12:14:12.001Z</time></trkpt><trkpt lat="41.81173716488694" lon="-2.7370686948205694"><ele>1114.0</ele><time>2026-05-03T12:14:13.001Z</time></trkpt><trkpt lat="41.81175320125318" lon="-2.7369129701258808"><ele>1114.0</ele><time>2026-05-03T12:14:14.001Z</time></trkpt><trkpt lat="41.811767379368" lon="-2.7367613814093468"><ele>1114.0</ele><time>2026-05-03T12:14:15.001Z</time></trkpt><trkpt lat="41.81178375960961" lon="-2.736609552208619"><ele>1113.75</ele><time>2026-05-03T12:14:16.001Z</time></trkpt><trkpt lat="41.81180065155248" lon="-2.7364567101920123"><ele>1113.5</ele><time>2026-05-03T12:14:17.001Z</time></trkpt><trkpt lat="41.811816966548584" lon="-2.736305281350807"><ele>1113.25</ele><time>2026-05-03T12:14:18.001Z</time></trkpt><trkpt lat="41.81182985769101" lon="-2.736154813869894"><ele>1113.0</ele><time>2026-05-03T12:14:19.001Z</time></trkpt><trkpt lat="41.81184609287989" lon="-2.7360034952537013"><ele>1113.0</ele><time>2026-05-03T12:14:20.001Z</time></trkpt><trkpt lat="41.81185959955107" lon="-2.735856023511836"><ele>1113.0</ele><time>2026-05-03T12:14:21.001Z</time></trkpt><trkpt lat="41.81187417941865" lon="-2.735706944274368"><ele>1113.0</ele><time>2026-05-03T12:14:22.001Z</time></trkpt><trkpt lat="41.81189077510142" lon="-2.7355576280637637"><ele>1113.0</ele><time>2026-05-03T12:14:23.001Z</time></trkpt><trkpt lat="41.81190444916476" lon="-2.735403529639578"><ele>1113.0</ele><time>2026-05-03T12:14:24.001Z</time></trkpt><trkpt lat="41.81192232204087" lon="-2.7352486332410306"><ele>1113.0</ele><time>2026-05-03T12:14:25.001Z</time></trkpt><trkpt lat="41.81195681477304" lon="-2.735036202656514"><ele>1113.0</ele><time>2026-05-03T12:14:26.001Z</time></trkpt><trkpt lat="41.81197625990428" lon="-2.7348362421589236"><ele>1113.0</ele><time>2026-05-03T12:14:27.001Z</time></trkpt><trkpt lat="41.81199862536215" lon="-2.734606250349649"><ele>1113.75</ele><time>2026-05-03T12:14:28.001Z</time></trkpt><trkpt lat="41.8120075752408" lon="-2.734393237689715"><ele>1114.5</ele><time>2026-05-03T12:14:31.001Z</time></trkpt><trkpt lat="41.81202059746198" lon="-2.7342514515823924"><ele>1115.25</ele><time>2026-05-03T12:14:32.001Z</time></trkpt><trkpt lat="41.81203574133839" lon="-2.734105241777804"><ele>1116.0</ele><time>2026-05-03T12:14:33.001Z</time></trkpt><trkpt lat="41.81205060581795" lon="-2.73396462400225"><ele>1116.2</ele><time>2026-05-03T12:14:34.001Z</time></trkpt><trkpt lat="41.812063820691094" lon="-2.7338199864523878"><ele>1116.3999999999999</ele><time>2026-05-03T12:14:35.001Z</time></trkpt><trkpt lat="41.81207561937107" lon="-2.733674401013018"><ele>1116.6</ele><time>2026-05-03T12:14:36.001Z</time></trkpt><trkpt lat="41.81209059913541" lon="-2.7335295729416007"><ele>1116.8</ele><time>2026-05-03T12:14:37.001Z</time></trkpt><trkpt lat="41.812103648462845" lon="-2.733379958170334"><ele>1117.0</ele><time>2026-05-03T12:14:38.001Z</time></trkpt><trkpt lat="41.8121187612392" lon="-2.7332343700894186"><ele>1117.0</ele><time>2026-05-03T12:14:39.001Z</time></trkpt><trkpt lat="41.81213284481726" lon="-2.733086526466914"><ele>1117.0</ele><time>2026-05-03T12:14:40.001Z</time></trkpt><trkpt lat="41.81214947220428" lon="-2.7329383693088287"><ele>1117.0</ele><time>2026-05-03T12:14:41.001Z</time></trkpt><trkpt lat="41.81216304313791" lon="-2.7327907071735424"><ele>1117.0</ele><time>2026-05-03T12:14:42.001Z</time></trkpt><trkpt lat="41.812177537580844" lon="-2.7326450886895945"><ele>1117.0</ele><time>2026-05-03T12:14:43.001Z</time></trkpt><trkpt lat="41.81218760088134" lon="-2.7325004936716066"><ele>1117.2</ele><time>2026-05-03T12:14:44.001Z</time></trkpt><trkpt lat="41.81220186803945" lon="-2.732356217942742"><ele>1117.4</ele><time>2026-05-03T12:14:45.001Z</time></trkpt><trkpt lat="41.812217011670604" lon="-2.7322115663456374"><ele>1117.6</ele><time>2026-05-03T12:14:46.002Z</time></trkpt><trkpt lat="41.812232661541614" lon="-2.732064430202331"><ele>1117.8</ele><time>2026-05-03T12:14:47.002Z</time></trkpt><trkpt lat="41.812246156617306" lon="-2.731913644699701"><ele>1118.0</ele><time>2026-05-03T12:14:48.002Z</time></trkpt><trkpt lat="41.812259107360916" lon="-2.731768747222282"><ele>1118.0</ele><time>2026-05-03T12:14:49Z</time></trkpt><trkpt lat="41.81227242631561" lon="-2.731621216878044"><ele>1118.0</ele><time>2026-05-03T12:14:50Z</time></trkpt><trkpt lat="41.81228359738535" lon="-2.7314735135241057"><ele>1118.0</ele><time>2026-05-03T12:14:51Z</time></trkpt><trkpt lat="41.81230191847023" lon="-2.7313266978010167"><ele>1118.0</ele><time>2026-05-03T12:14:52Z</time></trkpt><trkpt lat="41.812320041186176" lon="-2.731182368506078"><ele>1118.0</ele><time>2026-05-03T12:14:53Z</time></trkpt><trkpt lat="41.81233463636522" lon="-2.7310336512733966"><ele>1118.4</ele><time>2026-05-03T12:14:54Z</time></trkpt><trkpt lat="41.81234952246648" lon="-2.7308888067649812"><ele>1118.8</ele><time>2026-05-03T12:14:55Z</time></trkpt><trkpt lat="41.81236359157464" lon="-2.7307454216998472"><ele>1119.2</ele><time>2026-05-03T12:14:56Z</time></trkpt><trkpt lat="41.81237784537384" lon="-2.7306005281516863"><ele>1119.6</ele><time>2026-05-03T12:14:57Z</time></trkpt><trkpt lat="41.81239125440832" lon="-2.7304565799860865"><ele>1120.0</ele><time>2026-05-03T12:14:58Z</time></trkpt><trkpt lat="41.81240236580829" lon="-2.730311346580487"><ele>1120.4</ele><time>2026-05-03T12:14:59Z</time></trkpt><trkpt lat="41.81241468778008" lon="-2.7301679280941156"><ele>1120.8</ele><time>2026-05-03T12:15:00Z</time></trkpt><trkpt lat="41.812430099026884" lon="-2.73002788615344"><ele>1121.2</ele><time>2026-05-03T12:15:01Z</time></trkpt><trkpt lat="41.81244510167086" lon="-2.7298853688681937"><ele>1121.6</ele><time>2026-05-03T12:15:02Z</time></trkpt><trkpt lat="41.81245923512848" lon="-2.7297437897985"><ele>1122.0</ele><time>2026-05-03T12:15:03Z</time></trkpt><trkpt lat="41.81247291440449" lon="-2.7296013924881937"><ele>1122.0</ele><time>2026-05-03T12:15:04Z</time></trkpt><trkpt lat="41.81248786303985" lon="-2.729459549917953"><ele>1122.0</ele><time>2026-05-03T12:15:05Z</time></trkpt><trkpt lat="41.812502825713466" lon="-2.7293167733692307"><ele>1122.0</ele><time>2026-05-03T12:15:06Z</time></trkpt><trkpt lat="41.81251751820986" lon="-2.729176283690726"><ele>1122.0</ele><time>2026-05-03T12:15:07Z</time></trkpt><trkpt lat="41.81252979997249" lon="-2.72903710676286"><ele>1122.0</ele><time>2026-05-03T12:15:08Z</time></trkpt><trkpt lat="41.81254299340175" lon="-2.7288960904704207"><ele>1122.2</ele><time>2026-05-03T12:15:09Z</time></trkpt><trkpt lat="41.81255452700099" lon="-2.7287585640848353"><ele>1122.4</ele><time>2026-05-03T12:15:10Z</time></trkpt><trkpt lat="41.81256844297375" lon="-2.7286184203659074"><ele>1122.6</ele><time>2026-05-03T12:15:11Z</time></trkpt><trkpt lat="41.812582776628545" lon="-2.7284769168829874"><ele>1122.8</ele><time>2026-05-03T12:15:12Z</time></trkpt><trkpt lat="41.812596916271396" lon="-2.7283383635628273"><ele>1123.0</ele><time>2026-05-03T12:15:13Z</time></trkpt><trkpt lat="41.81261086937327" lon="-2.728200086063491"><ele>1123.0</ele><time>2026-05-03T12:15:14Z</time></trkpt><trkpt lat="41.81262416253917" lon="-2.728062439426339"><ele>1123.0</ele><time>2026-05-03T12:15:15Z</time></trkpt><trkpt lat="41.812635686281396" lon="-2.7279239588093924"><ele>1123.0</ele><time>2026-05-03T12:15:16Z</time></trkpt><trkpt lat="41.81264335862369" lon="-2.727789787993777"><ele>1123.0</ele><time>2026-05-03T12:15:17Z</time></trkpt><trkpt lat="41.812656075752656" lon="-2.727652632570535"><ele>1123.0</ele><time>2026-05-03T12:15:18Z</time></trkpt><trkpt lat="41.81266629680822" lon="-2.7275172323419565"><ele>1124.0</ele><time>2026-05-03T12:15:19Z</time></trkpt><trkpt lat="41.81267584648224" lon="-2.727382099276122"><ele>1125.0</ele><time>2026-05-03T12:15:20Z</time></trkpt><trkpt lat="41.81268799312914" lon="-2.7272446287089407"><ele>1126.0</ele><time>2026-05-03T12:15:21Z</time></trkpt><trkpt lat="41.81270000632351" lon="-2.727105760809601"><ele>1127.0</ele><time>2026-05-03T12:15:22Z</time></trkpt><trkpt lat="41.81271201380189" lon="-2.726964524967161"><ele>1128.0</ele><time>2026-05-03T12:15:23.001Z</time></trkpt><trkpt lat="41.81272460476536" lon="-2.726822388829413"><ele>1128.0</ele><time>2026-05-03T12:15:24.001Z</time></trkpt><trkpt lat="41.81273751497056" lon="-2.7266759454441645"><ele>1128.0</ele><time>2026-05-03T12:15:25.001Z</time></trkpt><trkpt lat="41.81275031182568" lon="-2.7265292496691496"><ele>1128.0</ele><time>2026-05-03T12:15:26.001Z</time></trkpt><trkpt lat="41.81275957269535" lon="-2.7263805184327508"><ele>1128.0</ele><time>2026-05-03T12:15:27.001Z</time></trkpt><trkpt lat="41.812779772316304" lon="-2.726239878121267"><ele>1128.0</ele><time>2026-05-03T12:15:28.001Z</time></trkpt><trkpt lat="41.81279539602193" lon="-2.726075871791308"><ele>1127.0</ele><time>2026-05-03T12:15:29.001Z</time></trkpt><trkpt lat="41.81281148665921" lon="-2.7259184586283487"><ele>1126.0</ele><time>2026-05-03T12:15:30.001Z</time></trkpt><trkpt lat="41.81283073603996" lon="-2.725770425763266"><ele>1125.0</ele><time>2026-05-03T12:15:31.001Z</time></trkpt><trkpt lat="41.81285128333256" lon="-2.7256204202690153"><ele>1124.0</ele><time>2026-05-03T12:15:32.001Z</time></trkpt><trkpt lat="41.812872927756715" lon="-2.725469555251348"><ele>1124.0</ele><time>2026-05-03T12:15:33.001Z</time></trkpt><trkpt lat="41.81289303304883" lon="-2.7253204062176932"><ele>1124.0</ele><time>2026-05-03T12:15:34.001Z</time></trkpt><trkpt lat="41.81291282596222" lon="-2.7251695217193244"><ele>1124.0</ele><time>2026-05-03T12:15:35.001Z</time></trkpt><trkpt lat="41.81294041648444" lon="-2.7250202422420604"><ele>1124.0</ele><time>2026-05-03T12:15:36.001Z</time></trkpt><trkpt lat="41.81296240251228" lon="-2.7248701904452672"><ele>1123.75</ele><time>2026-05-03T12:15:37.001Z</time></trkpt><trkpt lat="41.81298327249821" lon="-2.7247172290038075"><ele>1123.5</ele><time>2026-05-03T12:15:38.001Z</time></trkpt><trkpt lat="41.8130037298588" lon="-2.72456773507938"><ele>1123.25</ele><time>2026-05-03T12:15:39.001Z</time></trkpt><trkpt lat="41.81302522622069" lon="-2.724417829144285"><ele>1123.0</ele><time>2026-05-03T12:15:40.001Z</time></trkpt><trkpt lat="41.813047723984845" lon="-2.7242677542161884"><ele>1123.0</ele><time>2026-05-03T12:15:41.001Z</time></trkpt><trkpt lat="41.81306654110013" lon="-2.7241184123264324"><ele>1123.0</ele><time>2026-05-03T12:15:42.001Z</time></trkpt><trkpt lat="41.81308822469626" lon="-2.723967022003501"><ele>1123.0</ele><time>2026-05-03T12:15:43.001Z</time></trkpt><trkpt lat="41.81310740827261" lon="-2.7238168686782114"><ele>1123.0</ele><time>2026-05-03T12:15:44.001Z</time></trkpt><trkpt lat="41.813129887379695" lon="-2.7236673135776654"><ele>1123.0</ele><time>2026-05-03T12:15:45.001Z</time></trkpt><trkpt lat="41.81315154147564" lon="-2.723522005843963"><ele>1123.0</ele><time>2026-05-03T12:15:46.001Z</time></trkpt><trkpt lat="41.813172738473" lon="-2.7233728427080117"><ele>1123.0</ele><time>2026-05-03T12:15:47.001Z</time></trkpt><trkpt lat="41.81320422019242" lon="-2.7232304051588714"><ele>1123.0</ele><time>2026-05-03T12:15:48.001Z</time></trkpt><trkpt lat="41.81321400918536" lon="-2.7230785011148493"><ele>1123.0</ele><time>2026-05-03T12:15:49.001Z</time></trkpt><trkpt lat="41.81323711197586" lon="-2.722931653470557"><ele>1123.0</ele><time>2026-05-03T12:15:50.001Z</time></trkpt><trkpt lat="41.813255302799845" lon="-2.722785325019742"><ele>1123.0</ele><time>2026-05-03T12:15:51.001Z</time></trkpt><trkpt lat="41.81327007740111" lon="-2.7226357763163422"><ele>1123.0</ele><time>2026-05-03T12:15:52.001Z</time></trkpt><trkpt lat="41.813292280975375" lon="-2.7224902021836863"><ele>1123.0</ele><time>2026-05-03T12:15:53.001Z</time></trkpt><trkpt lat="41.81331505505697" lon="-2.7223383049241345"><ele>1123.0</ele><time>2026-05-03T12:15:54.001Z</time></trkpt><trkpt lat="41.81333718442538" lon="-2.722192227235215"><ele>1122.75</ele><time>2026-05-03T12:15:55.001Z</time></trkpt><trkpt lat="41.813358650444485" lon="-2.7220447455034043"><ele>1122.5</ele><time>2026-05-03T12:15:56.001Z</time></trkpt><trkpt lat="41.81338065286479" lon="-2.7218898537124727"><ele>1122.25</ele><time>2026-05-03T12:15:57.001Z</time></trkpt><trkpt lat="41.81340325064743" lon="-2.721744522956998"><ele>1122.0</ele><time>2026-05-03T12:15:58.001Z</time></trkpt><trkpt lat="41.81342180371841" lon="-2.7215878561797955"><ele>1121.5</ele><time>2026-05-03T12:15:59.001Z</time></trkpt><trkpt lat="41.813439854972984" lon="-2.7214309790570175"><ele>1121.0</ele><time>2026-05-03T12:16:00.001Z</time></trkpt><trkpt lat="41.813458793145934" lon="-2.7212780058179566"><ele>1120.5</ele><time>2026-05-03T12:16:01.001Z</time></trkpt><trkpt lat="41.81348241368026" lon="-2.721125206091465"><ele>1120.0</ele><time>2026-05-03T12:16:02.001Z</time></trkpt><trkpt lat="41.81350248496289" lon="-2.720967711013938"><ele>1119.75</ele><time>2026-05-03T12:16:03.001Z</time></trkpt><trkpt lat="41.81352507958432" lon="-2.7208133859526833"><ele>1119.5</ele><time>2026-05-03T12:16:04.001Z</time></trkpt><trkpt lat="41.81354471929422" lon="-2.7206574646038604"><ele>1119.25</ele><time>2026-05-03T12:16:05.001Z</time></trkpt><trkpt lat="41.813569123201695" lon="-2.7205010628398005"><ele>1119.0</ele><time>2026-05-03T12:16:06.001Z</time></trkpt><trkpt lat="41.81359254863519" lon="-2.7203513426700434"><ele>1118.5</ele><time>2026-05-03T12:16:07.001Z</time></trkpt><trkpt lat="41.813610379710894" lon="-2.7202017725999137"><ele>1118.0</ele><time>2026-05-03T12:16:08.001Z</time></trkpt><trkpt lat="41.813628620072144" lon="-2.7200470871552347"><ele>1117.5</ele><time>2026-05-03T12:16:09.001Z</time></trkpt><trkpt lat="41.813645983495846" lon="-2.7198947142139756"><ele>1117.0</ele><time>2026-05-03T12:16:10.001Z</time></trkpt><trkpt lat="41.81366337859011" lon="-2.7197432019377885"><ele>1117.0</ele><time>2026-05-03T12:16:11.001Z</time></trkpt><trkpt lat="41.813677191265576" lon="-2.7195897605977177"><ele>1117.0</ele><time>2026-05-03T12:16:12.001Z</time></trkpt><trkpt lat="41.81368968318272" lon="-2.7194356167263622"><ele>1117.0</ele><time>2026-05-03T12:16:13.001Z</time></trkpt><trkpt lat="41.81369353358973" lon="-2.7192801474058927"><ele>1117.0</ele><time>2026-05-03T12:16:14.001Z</time></trkpt><trkpt lat="41.81369750445864" lon="-2.719125039066826"><ele>1116.5</ele><time>2026-05-03T12:16:15.001Z</time></trkpt><trkpt lat="41.813698742494516" lon="-2.7189708504439816"><ele>1116.0</ele><time>2026-05-03T12:16:16.001Z</time></trkpt><trkpt lat="41.81370047908891" lon="-2.7188164198218763"><ele>1115.5</ele><time>2026-05-03T12:16:17.001Z</time></trkpt><trkpt lat="41.81370086723428" lon="-2.7186633519549215"><ele>1115.0</ele><time>2026-05-03T12:16:18.001Z</time></trkpt><trkpt lat="41.81370153754142" lon="-2.718511132071321"><ele>1114.5</ele><time>2026-05-03T12:16:19.001Z</time></trkpt><trkpt lat="41.813703562833716" lon="-2.718359073131527"><ele>1114.0</ele><time>2026-05-03T12:16:20.001Z</time></trkpt><trkpt lat="41.813699331023756" lon="-2.7182041061658615"><ele>1113.5</ele><time>2026-05-03T12:16:21.001Z</time></trkpt><trkpt lat="41.81369291241816" lon="-2.7180512956288285"><ele>1113.0</ele><time>2026-05-03T12:16:22.001Z</time></trkpt><trkpt lat="41.813693650798356" lon="-2.7178975709577986"><ele>1113.0</ele><time>2026-05-03T12:16:23.001Z</time></trkpt><trkpt lat="41.81369517717308" lon="-2.7177414534805453"><ele>1113.0</ele><time>2026-05-03T12:16:24.001Z</time></trkpt><trkpt lat="41.81369476858577" lon="-2.717588366617488"><ele>1113.0</ele><time>2026-05-03T12:16:25.001Z</time></trkpt><trkpt lat="41.81369241121763" lon="-2.717435822262973"><ele>1113.0</ele><time>2026-05-03T12:16:26.001Z</time></trkpt><trkpt lat="41.81369292560436" lon="-2.7172811104671"><ele>1112.75</ele><time>2026-05-03T12:16:27.001Z</time></trkpt><trkpt lat="41.81369335772396" lon="-2.7171277851832625"><ele>1112.5</ele><time>2026-05-03T12:16:28.001Z</time></trkpt><trkpt lat="41.81369229196288" lon="-2.7169764293088803"><ele>1112.25</ele><time>2026-05-03T12:16:29.001Z</time></trkpt><trkpt lat="41.81369174014196" lon="-2.716824096512964"><ele>1112.0</ele><time>2026-05-03T12:16:30.001Z</time></trkpt><trkpt lat="41.81368975450133" lon="-2.7166707503836665"><ele>1111.75</ele><time>2026-05-03T12:16:31.001Z</time></trkpt><trkpt lat="41.8136829387317" lon="-2.7165165623742125"><ele>1111.5</ele><time>2026-05-03T12:16:32.001Z</time></trkpt><trkpt lat="41.81367599716045" lon="-2.7163668410537474"><ele>1111.25</ele><time>2026-05-03T12:16:33.001Z</time></trkpt><trkpt lat="41.81366756655383" lon="-2.7162122823452854"><ele>1111.0</ele><time>2026-05-03T12:16:34.002Z</time></trkpt><trkpt lat="41.81366277233309" lon="-2.716062803443302"><ele>1111.0</ele><time>2026-05-03T12:16:35.002Z</time></trkpt><trkpt lat="41.81365777668705" lon="-2.715908149038657"><ele>1111.0</ele><time>2026-05-03T12:16:36.002Z</time></trkpt><trkpt lat="41.813653534054595" lon="-2.7157581723411313"><ele>1111.0</ele><time>2026-05-03T12:16:37.002Z</time></trkpt><trkpt lat="41.813647365120254" lon="-2.71560664787459"><ele>1111.0</ele><time>2026-05-03T12:16:38.002Z</time></trkpt><trkpt lat="41.81364322465457" lon="-2.715456520614891"><ele>1111.0</ele><time>2026-05-03T12:16:39.002Z</time></trkpt><trkpt lat="41.813643233534336" lon="-2.715306491658338"><ele>1111.0</ele><time>2026-05-03T12:16:40.002Z</time></trkpt><trkpt lat="41.81364022287807" lon="-2.715161715299446"><ele>1111.0</ele><time>2026-05-03T12:16:41.002Z</time></trkpt><trkpt lat="41.813631612835295" lon="-2.7150027310964826"><ele>1111.0</ele><time>2026-05-03T12:16:42.002Z</time></trkpt><trkpt lat="41.81363013869436" lon="-2.714856583483056"><ele>1111.0</ele><time>2026-05-03T12:16:43.002Z</time></trkpt><trkpt lat="41.81362754464605" lon="-2.714703441843093"><ele>1110.75</ele><time>2026-05-03T12:16:44.002Z</time></trkpt><trkpt lat="41.813626130869395" lon="-2.7145486047782867"><ele>1110.5</ele><time>2026-05-03T12:16:45.002Z</time></trkpt><trkpt lat="41.813626720936476" lon="-2.71439556404644"><ele>1110.25</ele><time>2026-05-03T12:16:46.002Z</time></trkpt><trkpt lat="41.81362545487284" lon="-2.7142413852041907"><ele>1110.0</ele><time>2026-05-03T12:16:47.002Z</time></trkpt><trkpt lat="41.81362458685698" lon="-2.714088274936517"><ele>1109.75</ele><time>2026-05-03T12:16:48.002Z</time></trkpt><trkpt lat="41.81362020493957" lon="-2.713933696108857"><ele>1109.5</ele><time>2026-05-03T12:16:49.002Z</time></trkpt><trkpt lat="41.81361648105581" lon="-2.7137801466423057"><ele>1109.25</ele><time>2026-05-03T12:16:50.002Z</time></trkpt><trkpt lat="41.813614811892485" lon="-2.7136316063093946"><ele>1109.0</ele><time>2026-05-03T12:16:51.002Z</time></trkpt><trkpt lat="41.813612654989555" lon="-2.713479252514181"><ele>1108.5</ele><time>2026-05-03T12:16:52.002Z</time></trkpt><trkpt lat="41.813607704516855" lon="-2.7133272311793255"><ele>1108.0</ele><time>2026-05-03T12:16:53.002Z</time></trkpt><trkpt lat="41.81360360915935" lon="-2.713173932716208"><ele>1107.5</ele><time>2026-05-03T12:16:54.002Z</time></trkpt><trkpt lat="41.81359797149343" lon="-2.713022395913996"><ele>1107.0</ele><time>2026-05-03T12:16:55Z</time></trkpt><trkpt lat="41.81359150593504" lon="-2.712870878762261"><ele>1106.75</ele><time>2026-05-03T12:16:56Z</time></trkpt><trkpt lat="41.81358546750218" lon="-2.7127120258866957"><ele>1106.5</ele><time>2026-05-03T12:16:57Z</time></trkpt><trkpt lat="41.81357950575808" lon="-2.7125524580422136"><ele>1106.25</ele><time>2026-05-03T12:16:58Z</time></trkpt><trkpt lat="41.81357378018332" lon="-2.712398602681589"><ele>1106.0</ele><time>2026-05-03T12:16:59Z</time></trkpt><trkpt lat="41.81356676744387" lon="-2.7122436996596377"><ele>1106.0</ele><time>2026-05-03T12:17:00Z</time></trkpt><trkpt lat="41.81356007308612" lon="-2.712087785403233"><ele>1106.0</ele><time>2026-05-03T12:17:01Z</time></trkpt><trkpt lat="41.81355474778103" lon="-2.7119380878256796"><ele>1106.0</ele><time>2026-05-03T12:17:02Z</time></trkpt><trkpt lat="41.813551098809825" lon="-2.7117818225244217"><ele>1106.0</ele><time>2026-05-03T12:17:03Z</time></trkpt><trkpt lat="41.81355064419714" lon="-2.711627654686727"><ele>1105.8</ele><time>2026-05-03T12:17:04Z</time></trkpt><trkpt lat="41.81354946252497" lon="-2.711479198795275"><ele>1105.6</ele><time>2026-05-03T12:17:05Z</time></trkpt><trkpt lat="41.81354788150377" lon="-2.7113308206529645"><ele>1105.4</ele><time>2026-05-03T12:17:06Z</time></trkpt><trkpt lat="41.81355402173073" lon="-2.711181908379098"><ele>1105.2</ele><time>2026-05-03T12:17:07Z</time></trkpt><trkpt lat="41.813554036907036" lon="-2.7110344434318505"><ele>1105.0</ele><time>2026-05-03T12:17:08Z</time></trkpt><trkpt lat="41.813546853274595" lon="-2.710878045504182"><ele>1105.0</ele><time>2026-05-03T12:17:09Z</time></trkpt><trkpt lat="41.8135472518487" lon="-2.7107395555663265"><ele>1105.0</ele><time>2026-05-03T12:17:10Z</time></trkpt><trkpt lat="41.81353790967489" lon="-2.7105696775293207"><ele>1105.0</ele><time>2026-05-03T12:17:11Z</time></trkpt><trkpt lat="41.81353198934982" lon="-2.7104273143875344"><ele>1105.0</ele><time>2026-05-03T12:17:12Z</time></trkpt><trkpt lat="41.81352678364836" lon="-2.7102857164421637"><ele>1105.0</ele><time>2026-05-03T12:17:13Z</time></trkpt><trkpt lat="41.813521862095335" lon="-2.710142943164133"><ele>1105.0</ele><time>2026-05-03T12:17:14Z</time></trkpt><trkpt lat="41.81351154382966" lon="-2.709998634489903"><ele>1105.0</ele><time>2026-05-03T12:17:15Z</time></trkpt><trkpt lat="41.813497053129716" lon="-2.709851562613754"><ele>1105.0</ele><time>2026-05-03T12:17:16Z</time></trkpt><trkpt lat="41.81348005461421" lon="-2.7097091130975954"><ele>1105.0</ele><time>2026-05-03T12:17:17Z</time></trkpt><trkpt lat="41.81345879596539" lon="-2.7095656240145956"><ele>1105.0</ele><time>2026-05-03T12:17:18Z</time></trkpt><trkpt lat="41.81343420860722" lon="-2.7094245844676816"><ele>1105.2</ele><time>2026-05-03T12:17:19Z</time></trkpt><trkpt lat="41.813408127773876" lon="-2.7092855529123376"><ele>1105.4</ele><time>2026-05-03T12:17:20Z</time></trkpt><trkpt lat="41.813379107741255" lon="-2.709151057558875"><ele>1105.6</ele><time>2026-05-03T12:17:21Z</time></trkpt><trkpt lat="41.813347171265484" lon="-2.7090233461169215"><ele>1105.8</ele><time>2026-05-03T12:17:22Z</time></trkpt><trkpt lat="41.813310763244814" lon="-2.708893735115254"><ele>1106.0</ele><time>2026-05-03T12:17:23Z</time></trkpt><trkpt lat="41.81327418313597" lon="-2.708768331414705"><ele>1106.0</ele><time>2026-05-03T12:17:24Z</time></trkpt><trkpt lat="41.8132349377554" lon="-2.7086399983290663"><ele>1106.0</ele><time>2026-05-03T12:17:25Z</time></trkpt><trkpt lat="41.81319452533127" lon="-2.70851506570814"><ele>1106.0</ele><time>2026-05-03T12:17:26Z</time></trkpt><trkpt lat="41.81315725965296" lon="-2.708393265449168"><ele>1106.0</ele><time>2026-05-03T12:17:27Z</time></trkpt><trkpt lat="41.81312228462369" lon="-2.708267234876703"><ele>1106.0</ele><time>2026-05-03T12:17:28Z</time></trkpt><trkpt lat="41.81308175825903" lon="-2.7081415097419437"><ele>1106.8</ele><time>2026-05-03T12:17:29Z</time></trkpt><trkpt lat="41.813039570428046" lon="-2.708023453428043"><ele>1107.6</ele><time>2026-05-03T12:17:30Z</time></trkpt><trkpt lat="41.813000007482636" lon="-2.7079022688125476"><ele>1108.4</ele><time>2026-05-03T12:17:31Z</time></trkpt><trkpt lat="41.812962045890856" lon="-2.707778374363422"><ele>1109.2</ele><time>2026-05-03T12:17:32Z</time></trkpt><trkpt lat="41.812920353113775" lon="-2.7076585121823347"><ele>1110.0</ele><time>2026-05-03T12:17:33Z</time></trkpt><trkpt lat="41.812881770670636" lon="-2.7075384102701756"><ele>1110.6</ele><time>2026-05-03T12:17:34Z</time></trkpt><trkpt lat="41.81284154361873" lon="-2.7074179690851228"><ele>1111.2</ele><time>2026-05-03T12:17:35Z</time></trkpt><trkpt lat="41.8128036767244" lon="-2.7073013484312654"><ele>1111.8</ele><time>2026-05-03T12:17:36Z</time></trkpt><trkpt lat="41.81276306819344" lon="-2.7071836045188693"><ele>1112.4</ele><time>2026-05-03T12:17:37Z</time></trkpt><trkpt lat="41.81272415542628" lon="-2.707061848777609"><ele>1113.0</ele><time>2026-05-03T12:17:38.001Z</time></trkpt><trkpt lat="41.81268342974907" lon="-2.7069417131678697"><ele>1111.8</ele><time>2026-05-03T12:17:39.001Z</time></trkpt><trkpt lat="41.812644291538334" lon="-2.7068236920264015"><ele>1110.6</ele><time>2026-05-03T12:17:40.001Z</time></trkpt><trkpt lat="41.81260341864027" lon="-2.706700606451179"><ele>1109.4</ele><time>2026-05-03T12:17:41.001Z</time></trkpt><trkpt lat="41.812566016437806" lon="-2.7065797225365915"><ele>1108.2</ele><time>2026-05-03T12:17:42.001Z</time></trkpt><trkpt lat="41.81252334227146" lon="-2.7064607777783554"><ele>1107.0</ele><time>2026-05-03T12:17:43.001Z</time></trkpt><trkpt lat="41.81248327179977" lon="-2.7063395093326315"><ele>1107.0</ele><time>2026-05-03T12:17:44.001Z</time></trkpt><trkpt lat="41.812444883063925" lon="-2.706216131191655"><ele>1107.0</ele><time>2026-05-03T12:17:45.001Z</time></trkpt><trkpt lat="41.812404020130685" lon="-2.706093096848029"><ele>1107.0</ele><time>2026-05-03T12:17:46.001Z</time></trkpt><trkpt lat="41.81235978021826" lon="-2.7059713629642768"><ele>1107.0</ele><time>2026-05-03T12:17:47.001Z</time></trkpt><trkpt lat="41.81231704404911" lon="-2.7058463463642415"><ele>1107.0</ele><time>2026-05-03T12:17:48.001Z</time></trkpt><trkpt lat="41.812278690014764" lon="-2.7057209493324286"><ele>1107.8</ele><time>2026-05-03T12:17:49.001Z</time></trkpt><trkpt lat="41.812241332961634" lon="-2.7055953843525424"><ele>1108.6</ele><time>2026-05-03T12:17:50.001Z</time></trkpt><trkpt lat="41.81219796834035" lon="-2.705473564565539"><ele>1109.3999999999999</ele><time>2026-05-03T12:17:51.001Z</time></trkpt><trkpt lat="41.812155010215506" lon="-2.7053493957213477"><ele>1110.2</ele><time>2026-05-03T12:17:52.001Z</time></trkpt><trkpt lat="41.812114685231975" lon="-2.7052232142774457"><ele>1111.0</ele><time>2026-05-03T12:17:53.001Z</time></trkpt><trkpt lat="41.81207890500175" lon="-2.7051012513603334"><ele>1111.6</ele><time>2026-05-03T12:17:54.001Z</time></trkpt><trkpt lat="41.81203158834537" lon="-2.7049775890362797"><ele>1112.1999999999998</ele><time>2026-05-03T12:17:55.001Z</time></trkpt><trkpt lat="41.8119911903584" lon="-2.704850267701153"><ele>1112.8000000000002</ele><time>2026-05-03T12:17:56.001Z</time></trkpt><trkpt lat="41.81194720727313" lon="-2.7047240254239338"><ele>1113.4</ele><time>2026-05-03T12:17:57.001Z</time></trkpt><trkpt lat="41.81190536805253" lon="-2.7045983578356427"><ele>1114.0</ele><time>2026-05-03T12:17:58.001Z</time></trkpt><trkpt lat="41.81186196510328" lon="-2.7044724235211444"><ele>1113.8</ele><time>2026-05-03T12:17:59.001Z</time></trkpt><trkpt lat="41.81182409043346" lon="-2.704342727396442"><ele>1113.6000000000001</ele><time>2026-05-03T12:18:00.001Z</time></trkpt><trkpt lat="41.81178179458283" lon="-2.704218063402402"><ele>1113.4</ele><time>2026-05-03T12:18:01.001Z</time></trkpt><trkpt lat="41.81174148620377" lon="-2.7040901563955466"><ele>1113.2</ele><time>2026-05-03T12:18:02.001Z</time></trkpt><trkpt lat="41.81169820339422" lon="-2.7039647033410876"><ele>1113.0</ele><time>2026-05-03T12:18:03.001Z</time></trkpt><trkpt lat="41.81165769205502" lon="-2.7038367277306925"><ele>1113.0</ele><time>2026-05-03T12:18:04.001Z</time></trkpt><trkpt lat="41.81161809118287" lon="-2.7037112426877465"><ele>1113.0</ele><time>2026-05-03T12:18:05.001Z</time></trkpt><trkpt lat="41.81157578290512" lon="-2.703585067264739"><ele>1113.0</ele><time>2026-05-03T12:18:06.001Z</time></trkpt><trkpt lat="41.811537953945354" lon="-2.7034575275530557"><ele>1113.0</ele><time>2026-05-03T12:18:07.001Z</time></trkpt><trkpt lat="41.81150047843039" lon="-2.7033310433003646"><ele>1113.0</ele><time>2026-05-03T12:18:08.001Z</time></trkpt><trkpt lat="41.811461052797256" lon="-2.703204527061548"><ele>1113.0</ele><time>2026-05-03T12:18:09.001Z</time></trkpt><trkpt lat="41.81142641930339" lon="-2.7030789159784683"><ele>1113.0</ele><time>2026-05-03T12:18:10.001Z</time></trkpt><trkpt lat="41.81139488720136" lon="-2.7029526197320677"><ele>1113.0</ele><time>2026-05-03T12:18:11.001Z</time></trkpt><trkpt lat="41.81136350357364" lon="-2.702826752744104"><ele>1113.0</ele><time>2026-05-03T12:18:12.001Z</time></trkpt><trkpt lat="41.81134101803253" lon="-2.7027020453353314"><ele>1113.0</ele><time>2026-05-03T12:18:13.001Z</time></trkpt><trkpt lat="41.8113187239565" lon="-2.702573163541463"><ele>1113.8</ele><time>2026-05-03T12:18:14.001Z</time></trkpt><trkpt lat="41.81130046473373" lon="-2.702446678160328"><ele>1114.6</ele><time>2026-05-03T12:18:15.001Z</time></trkpt><trkpt lat="41.811279458211374" lon="-2.702315210123949"><ele>1115.4</ele><time>2026-05-03T12:18:16.001Z</time></trkpt><trkpt lat="41.811260738136156" lon="-2.702183039122229"><ele>1116.2</ele><time>2026-05-03T12:18:17.001Z</time></trkpt><trkpt lat="41.811247036550185" lon="-2.702048867905414"><ele>1117.0</ele><time>2026-05-03T12:18:18.001Z</time></trkpt><trkpt lat="41.81123395619701" lon="-2.7019163295274167"><ele>1117.2</ele><time>2026-05-03T12:18:19.001Z</time></trkpt><trkpt lat="41.811220444216815" lon="-2.701781460094734"><ele>1117.4</ele><time>2026-05-03T12:18:20.001Z</time></trkpt><trkpt lat="41.811208032468116" lon="-2.7016485300926183"><ele>1117.6</ele><time>2026-05-03T12:18:21.001Z</time></trkpt><trkpt lat="41.81119236006344" lon="-2.7015177401751433"><ele>1117.8</ele><time>2026-05-03T12:18:22.001Z</time></trkpt><trkpt lat="41.81118266194709" lon="-2.7013826720246588"><ele>1118.0</ele><time>2026-05-03T12:18:23.001Z</time></trkpt><trkpt lat="41.81116704677539" lon="-2.701248536869858"><ele>1118.0</ele><time>2026-05-03T12:18:24.001Z</time></trkpt><trkpt lat="41.81115583460645" lon="-2.701113205816328"><ele>1118.0</ele><time>2026-05-03T12:18:25.001Z</time></trkpt><trkpt lat="41.811144678287384" lon="-2.7009782880637854"><ele>1118.0</ele><time>2026-05-03T12:18:26.001Z</time></trkpt><trkpt lat="41.81113190214271" lon="-2.7008405815426726"><ele>1118.0</ele><time>2026-05-03T12:18:27.001Z</time></trkpt><trkpt lat="41.811117795493026" lon="-2.700701843208704"><ele>1118.0</ele><time>2026-05-03T12:18:28.001Z</time></trkpt><trkpt lat="41.81110684239844" lon="-2.7005640636090305"><ele>1118.0</ele><time>2026-05-03T12:18:29.001Z</time></trkpt><trkpt lat="41.81109386260506" lon="-2.70042333472723"><ele>1118.0</ele><time>2026-05-03T12:18:30.001Z</time></trkpt><trkpt lat="41.8110818969298" lon="-2.7002853540666383"><ele>1118.0</ele><time>2026-05-03T12:18:31.001Z</time></trkpt><trkpt lat="41.811070087723344" lon="-2.7001416506658593"><ele>1118.0</ele><time>2026-05-03T12:18:32.001Z</time></trkpt><trkpt lat="41.811055865311616" lon="-2.699999489576492"><ele>1118.0</ele><time>2026-05-03T12:18:33.001Z</time></trkpt><trkpt lat="41.81103890429407" lon="-2.6998570661567065"><ele>1118.2</ele><time>2026-05-03T12:18:34.001Z</time></trkpt><trkpt lat="41.81102329152645" lon="-2.699713522950643"><ele>1118.4</ele><time>2026-05-03T12:18:35.001Z</time></trkpt><trkpt lat="41.811013227474305" lon="-2.699570415038783"><ele>1118.6000000000001</ele><time>2026-05-03T12:18:36.001Z</time></trkpt><trkpt lat="41.81100324582921" lon="-2.699426409448166"><ele>1118.8</ele><time>2026-05-03T12:18:37.001Z</time></trkpt><trkpt lat="41.81098935149032" lon="-2.6992837393929143"><ele>1119.0</ele><time>2026-05-03T12:18:38.001Z</time></trkpt><trkpt lat="41.81097203165304" lon="-2.6991408607937557"><ele>1119.0</ele><time>2026-05-03T12:18:39.001Z</time></trkpt><trkpt lat="41.81095689050609" lon="-2.699001092493628"><ele>1119.0</ele><time>2026-05-03T12:18:40.001Z</time></trkpt><trkpt lat="41.81094734910857" lon="-2.698859296844777"><ele>1119.0</ele><time>2026-05-03T12:18:41.001Z</time></trkpt><trkpt lat="41.810937113850656" lon="-2.6987180811796203"><ele>1119.0</ele><time>2026-05-03T12:18:42.001Z</time></trkpt><trkpt lat="41.81092548713237" lon="-2.698576977541689"><ele>1119.0</ele><time>2026-05-03T12:18:43.001Z</time></trkpt><trkpt lat="41.81090886140191" lon="-2.698442921629971"><ele>1119.6000000000001</ele><time>2026-05-03T12:18:44.001Z</time></trkpt><trkpt lat="41.81089840043592" lon="-2.698308476593203"><ele>1120.2</ele><time>2026-05-03T12:18:45.001Z</time></trkpt><trkpt lat="41.810886949598284" lon="-2.698168972509693"><ele>1120.8000000000002</ele><time>2026-05-03T12:18:46.001Z</time></trkpt><trkpt lat="41.81087433335715" lon="-2.6980342860737054"><ele>1121.4</ele><time>2026-05-03T12:18:47.001Z</time></trkpt><trkpt lat="41.81086733143635" lon="-2.697897544994526"><ele>1122.0</ele><time>2026-05-03T12:18:48.001Z</time></trkpt><trkpt lat="41.810854899982864" lon="-2.6977654662089865"><ele>1122.2</ele><time>2026-05-03T12:18:49.001Z</time></trkpt><trkpt lat="41.81083758832507" lon="-2.69763229856219"><ele>1122.4</ele><time>2026-05-03T12:18:50.002Z</time></trkpt><trkpt lat="41.81082575522066" lon="-2.6974935056912432"><ele>1122.6</ele><time>2026-05-03T12:18:51.002Z</time></trkpt><trkpt lat="41.810813891374075" lon="-2.6973600014654964"><ele>1122.8</ele><time>2026-05-03T12:18:52.002Z</time></trkpt><trkpt lat="41.810802103357446" lon="-2.6972230975355656"><ele>1123.0</ele><time>2026-05-03T12:18:53.002Z</time></trkpt><trkpt lat="41.810789610629165" lon="-2.6970861469536542"><ele>1123.0</ele><time>2026-05-03T12:18:54.002Z</time></trkpt><trkpt lat="41.81077494766824" lon="-2.6969485719545023"><ele>1123.0</ele><time>2026-05-03T12:18:55.002Z</time></trkpt><trkpt lat="41.81076345716502" lon="-2.6968104403995854"><ele>1123.0</ele><time>2026-05-03T12:18:56.002Z</time></trkpt><trkpt lat="41.81074833059441" lon="-2.6966733281673307"><ele>1123.0</ele><time>2026-05-03T12:18:57.002Z</time></trkpt><trkpt lat="41.81073594166785" lon="-2.6965360898070365"><ele>1123.0</ele><time>2026-05-03T12:18:58.002Z</time></trkpt><trkpt lat="41.81072263866511" lon="-2.696395187438459"><ele>1122.6</ele><time>2026-05-03T12:18:59.002Z</time></trkpt><trkpt lat="41.81071195042752" lon="-2.6962529642514013"><ele>1122.1999999999998</ele><time>2026-05-03T12:19:00.002Z</time></trkpt><trkpt lat="41.810697575694746" lon="-2.696118448596169"><ele>1121.8</ele><time>2026-05-03T12:19:01Z</time></trkpt><trkpt lat="41.81068155671405" lon="-2.6959767236535144"><ele>1121.3999999999999</ele><time>2026-05-03T12:19:02Z</time></trkpt><trkpt lat="41.81067077996234" lon="-2.6958351631989537"><ele>1121.0</ele><time>2026-05-03T12:19:03Z</time></trkpt><trkpt lat="41.81065597700097" lon="-2.695695567856325"><ele>1121.0</ele><time>2026-05-03T12:19:04Z</time></trkpt><trkpt lat="41.810645681174975" lon="-2.695555611838582"><ele>1121.0</ele><time>2026-05-03T12:19:05Z</time></trkpt><trkpt lat="41.81062990753623" lon="-2.6954154601513203"><ele>1121.0</ele><time>2026-05-03T12:19:06Z</time></trkpt><trkpt lat="41.81061442119982" lon="-2.695277555843372"><ele>1121.0</ele><time>2026-05-03T12:19:07Z</time></trkpt><trkpt lat="41.810604773970226" lon="-2.695136813738731"><ele>1121.0</ele><time>2026-05-03T12:19:08Z</time></trkpt><trkpt lat="41.81059095864954" lon="-2.694998663865798"><ele>1121.0</ele><time>2026-05-03T12:19:09Z</time></trkpt><trkpt lat="41.81057983190496" lon="-2.694857934066867"><ele>1121.0</ele><time>2026-05-03T12:19:10Z</time></trkpt><trkpt lat="41.81056761970636" lon="-2.694720489819711"><ele>1121.0</ele><time>2026-05-03T12:19:11Z</time></trkpt><trkpt lat="41.810550574080764" lon="-2.694583753366874"><ele>1121.0</ele><time>2026-05-03T12:19:12Z</time></trkpt><trkpt lat="41.81053475525997" lon="-2.6944431568112175"><ele>1121.0</ele><time>2026-05-03T12:19:13Z</time></trkpt><trkpt lat="41.810527234580896" lon="-2.6943011411584683"><ele>1121.0</ele><time>2026-05-03T12:19:14Z</time></trkpt><trkpt lat="41.810516359117656" lon="-2.694157017588732"><ele>1121.0</ele><time>2026-05-03T12:19:15Z</time></trkpt><trkpt lat="41.81050194486649" lon="-2.6940185398523657"><ele>1121.0</ele><time>2026-05-03T12:19:16Z</time></trkpt><trkpt lat="41.810489295493305" lon="-2.6938756368742505"><ele>1121.0</ele><time>2026-05-03T12:19:17Z</time></trkpt><trkpt lat="41.81047184461317" lon="-2.693730002120678"><ele>1121.0</ele><time>2026-05-03T12:19:18Z</time></trkpt><trkpt lat="41.81045572038504" lon="-2.6935886891356344"><ele>1121.2</ele><time>2026-05-03T12:19:19Z</time></trkpt><trkpt lat="41.81044173366298" lon="-2.693442625693366"><ele>1121.3999999999999</ele><time>2026-05-03T12:19:20Z</time></trkpt><trkpt lat="41.81042884045938" lon="-2.693292847223195"><ele>1121.6</ele><time>2026-05-03T12:19:21Z</time></trkpt><trkpt lat="41.81041286921462" lon="-2.6931485462398275"><ele>1121.8</ele><time>2026-05-03T12:19:22Z</time></trkpt><trkpt lat="41.81041824184679" lon="-2.6929896820446126"><ele>1122.0</ele><time>2026-05-03T12:19:23Z</time></trkpt><trkpt lat="41.81041130719284" lon="-2.6928879247908486"><ele>1123.0</ele><time>2026-05-03T12:19:24Z</time></trkpt><trkpt lat="41.81039941250703" lon="-2.692751557986141"><ele>1124.0</ele><time>2026-05-03T12:19:25Z</time></trkpt><trkpt lat="41.81036464753087" lon="-2.692549571953239"><ele>1125.0</ele><time>2026-05-03T12:19:26Z</time></trkpt><trkpt lat="41.81034928151753" lon="-2.6923988576211357"><ele>1126.0</ele><time>2026-05-03T12:19:27Z</time></trkpt><trkpt lat="41.810332570003176" lon="-2.6922428905948914"><ele>1126.0</ele><time>2026-05-03T12:19:28Z</time></trkpt><trkpt lat="41.81031914644214" lon="-2.6920879327920537"><ele>1126.0</ele><time>2026-05-03T12:19:29Z</time></trkpt><trkpt lat="41.81030575831869" lon="-2.691933877448528"><ele>1126.0</ele><time>2026-05-03T12:19:30Z</time></trkpt><trkpt lat="41.810293048989294" lon="-2.691776665561275"><ele>1126.0</ele><time>2026-05-03T12:19:31Z</time></trkpt><trkpt lat="41.81028576974601" lon="-2.6916297180556668"><ele>1126.0</ele><time>2026-05-03T12:19:32Z</time></trkpt><trkpt lat="41.810266790015795" lon="-2.691475366382756"><ele>1126.0</ele><time>2026-05-03T12:19:33Z</time></trkpt><trkpt lat="41.81025075340536" lon="-2.691323371659508"><ele>1126.0</ele><time>2026-05-03T12:19:34Z</time></trkpt><trkpt lat="41.81023603876512" lon="-2.6911708840594177"><ele>1126.0</ele><time>2026-05-03T12:19:35Z</time></trkpt><trkpt lat="41.810222580449754" lon="-2.691019612250491"><ele>1125.6</ele><time>2026-05-03T12:19:36Z</time></trkpt><trkpt lat="41.810207551009704" lon="-2.6908676499399906"><ele>1125.1999999999998</ele><time>2026-05-03T12:19:37Z</time></trkpt><trkpt lat="41.8101945705468" lon="-2.690718428330546"><ele>1124.8000000000002</ele><time>2026-05-03T12:19:38Z</time></trkpt><trkpt lat="41.81018299763336" lon="-2.6905724079474314"><ele>1124.4</ele><time>2026-05-03T12:19:39Z</time></trkpt><trkpt lat="41.81016765095539" lon="-2.6904240479923405"><ele>1124.0</ele><time>2026-05-03T12:19:40Z</time></trkpt><trkpt lat="41.81015467109949" lon="-2.690274623693757"><ele>1123.0</ele><time>2026-05-03T12:19:41Z</time></trkpt><trkpt lat="41.81014055446764" lon="-2.6901215826163827"><ele>1122.0</ele><time>2026-05-03T12:19:42Z</time></trkpt><trkpt lat="41.81012484030927" lon="-2.6899733988547516"><ele>1121.0</ele><time>2026-05-03T12:19:43Z</time></trkpt><trkpt lat="41.81010891733872" lon="-2.6898212242765416"><ele>1120.0</ele><time>2026-05-03T12:19:44Z</time></trkpt><trkpt lat="41.810095354073354" lon="-2.689670497397495"><ele>1120.0</ele><time>2026-05-03T12:19:45Z</time></trkpt><trkpt lat="41.810081410354584" lon="-2.6895232610875284"><ele>1120.0</ele><time>2026-05-03T12:19:46Z</time></trkpt><trkpt lat="41.81006933374204" lon="-2.6893792210417122"><ele>1120.0</ele><time>2026-05-03T12:19:47Z</time></trkpt><trkpt lat="41.8100648162987" lon="-2.6892245435331605"><ele>1120.0</ele><time>2026-05-03T12:19:48.001Z</time></trkpt><trkpt lat="41.810061457048064" lon="-2.689102758841062"><ele>1120.0</ele><time>2026-05-03T12:19:49.001Z</time></trkpt><trkpt lat="41.81004720094863" lon="-2.6889523635333843"><ele>1119.5</ele><time>2026-05-03T12:19:50.001Z</time></trkpt><trkpt lat="41.810026661969935" lon="-2.6887455518256895"><ele>1119.0</ele><time>2026-05-03T12:19:51.001Z</time></trkpt><trkpt lat="41.81000160410457" lon="-2.6886447046554283"><ele>1118.5</ele><time>2026-05-03T12:19:52.001Z</time></trkpt><trkpt lat="41.809988900789165" lon="-2.6884991819834583"><ele>1118.0</ele><time>2026-05-03T12:19:53.001Z</time></trkpt><trkpt lat="41.80997841466653" lon="-2.688354454745778"><ele>1118.0</ele><time>2026-05-03T12:19:54.001Z</time></trkpt><trkpt lat="41.809965700175965" lon="-2.6882136688609286"><ele>1118.0</ele><time>2026-05-03T12:19:55.001Z</time></trkpt><trkpt lat="41.80995451166688" lon="-2.6880723143824508"><ele>1118.0</ele><time>2026-05-03T12:19:56.001Z</time></trkpt><trkpt lat="41.809942381677374" lon="-2.6879255131050943"><ele>1118.0</ele><time>2026-05-03T12:19:57.001Z</time></trkpt><trkpt lat="41.8099302518243" lon="-2.6877792661093536"><ele>1118.0</ele><time>2026-05-03T12:19:58.001Z</time></trkpt><trkpt lat="41.80992514335427" lon="-2.6876284194295947"><ele>1118.2</ele><time>2026-05-03T12:19:59.001Z</time></trkpt><trkpt lat="41.809923093096685" lon="-2.6874782887703916"><ele>1118.4</ele><time>2026-05-03T12:20:00.001Z</time></trkpt><trkpt lat="41.809921731228265" lon="-2.687326059730629"><ele>1118.6000000000001</ele><time>2026-05-03T12:20:01.001Z</time></trkpt><trkpt lat="41.80992087707557" lon="-2.687176636472198"><ele>1118.8</ele><time>2026-05-03T12:20:02.001Z</time></trkpt><trkpt lat="41.80992331889268" lon="-2.6870265944268756"><ele>1119.0</ele><time>2026-05-03T12:20:03.001Z</time></trkpt><trkpt lat="41.80992507708562" lon="-2.686877008352837"><ele>1118.25</ele><time>2026-05-03T12:20:04.001Z</time></trkpt><trkpt lat="41.80992714524544" lon="-2.6867267497665432"><ele>1117.5</ele><time>2026-05-03T12:20:05.001Z</time></trkpt><trkpt lat="41.809930788633814" lon="-2.686575531228823"><ele>1116.75</ele><time>2026-05-03T12:20:06.001Z</time></trkpt><trkpt lat="41.80993316308613" lon="-2.6864211458265075"><ele>1116.0</ele><time>2026-05-03T12:20:07.001Z</time></trkpt><trkpt lat="41.80993615030315" lon="-2.686270373456129"><ele>1116.0</ele><time>2026-05-03T12:20:08.001Z</time></trkpt><trkpt lat="41.80994128811642" lon="-2.6861222410678427"><ele>1116.0</ele><time>2026-05-03T12:20:09.001Z</time></trkpt><trkpt lat="41.809944782486724" lon="-2.6859685699259703"><ele>1116.0</ele><time>2026-05-03T12:20:10.001Z</time></trkpt><trkpt lat="41.80994862405145" lon="-2.6858172485036462"><ele>1116.0</ele><time>2026-05-03T12:20:11.001Z</time></trkpt><trkpt lat="41.8099536112795" lon="-2.6856653576671636"><ele>1116.0</ele><time>2026-05-03T12:20:12.001Z</time></trkpt><trkpt lat="41.80995870723371" lon="-2.685512577391171"><ele>1116.0</ele><time>2026-05-03T12:20:13.001Z</time></trkpt><trkpt lat="41.80996644698697" lon="-2.685358889990338"><ele>1116.0</ele><time>2026-05-03T12:20:14.001Z</time></trkpt><trkpt lat="41.80997523821808" lon="-2.6852075268472855"><ele>1116.0</ele><time>2026-05-03T12:20:15.001Z</time></trkpt><trkpt lat="41.80997834443377" lon="-2.6850523775953716"><ele>1116.0</ele><time>2026-05-03T12:20:16.001Z</time></trkpt><trkpt lat="41.80998487677277" lon="-2.684900882569938"><ele>1116.0</ele><time>2026-05-03T12:20:17.001Z</time></trkpt><trkpt lat="41.809992503084224" lon="-2.684749499850999"><ele>1116.0</ele><time>2026-05-03T12:20:18.001Z</time></trkpt><trkpt lat="41.81000439884548" lon="-2.684599428431976"><ele>1116.0</ele><time>2026-05-03T12:20:19.001Z</time></trkpt><trkpt lat="41.81001215261398" lon="-2.6844507100113177"><ele>1115.6</ele><time>2026-05-03T12:20:20.001Z</time></trkpt><trkpt lat="41.810024778210455" lon="-2.684298601810493"><ele>1115.1999999999998</ele><time>2026-05-03T12:20:21.001Z</time></trkpt><trkpt lat="41.81005053036993" lon="-2.6841568803801774"><ele>1114.8000000000002</ele><time>2026-05-03T12:20:22.001Z</time></trkpt><trkpt lat="41.81007897973903" lon="-2.6840106418808007"><ele>1114.4</ele><time>2026-05-03T12:20:23.001Z</time></trkpt><trkpt lat="41.81010076775803" lon="-2.6838624028887765"><ele>1114.0</ele><time>2026-05-03T12:20:24.001Z</time></trkpt><trkpt lat="41.810125449857" lon="-2.6837142984697935"><ele>1114.25</ele><time>2026-05-03T12:20:25.001Z</time></trkpt><trkpt lat="41.81015186857354" lon="-2.6835681644055795"><ele>1114.5</ele><time>2026-05-03T12:20:26.001Z</time></trkpt><trkpt lat="41.81017600511189" lon="-2.683418025198021"><ele>1114.75</ele><time>2026-05-03T12:20:27.001Z</time></trkpt><trkpt lat="41.810202517784184" lon="-2.6832705178602234"><ele>1115.0</ele><time>2026-05-03T12:20:28.001Z</time></trkpt><trkpt lat="41.81022778963435" lon="-2.6831216029326357"><ele>1115.0</ele><time>2026-05-03T12:20:29.001Z</time></trkpt><trkpt lat="41.81025286052446" lon="-2.6829737309824906"><ele>1115.0</ele><time>2026-05-03T12:20:30.001Z</time></trkpt><trkpt lat="41.810281118632844" lon="-2.6828307564978298"><ele>1115.0</ele><time>2026-05-03T12:20:31.001Z</time></trkpt><trkpt lat="41.81030766534569" lon="-2.682681071491587"><ele>1115.0</ele><time>2026-05-03T12:20:32.001Z</time></trkpt><trkpt lat="41.810330726629964" lon="-2.6825319400909797"><ele>1114.4</ele><time>2026-05-03T12:20:33.001Z</time></trkpt><trkpt lat="41.81036107016513" lon="-2.6823937703362706"><ele>1113.8</ele><time>2026-05-03T12:20:34.001Z</time></trkpt><trkpt lat="41.81039097242303" lon="-2.682258342097187"><ele>1113.2</ele><time>2026-05-03T12:20:35.001Z</time></trkpt><trkpt lat="41.81041717549152" lon="-2.6821317904505286"><ele>1112.6</ele><time>2026-05-03T12:20:36.001Z</time></trkpt><trkpt lat="41.81043206763221" lon="-2.681952809206798"><ele>1112.0</ele><time>2026-05-03T12:20:37.001Z</time></trkpt><trkpt lat="41.810446572836845" lon="-2.6818100001093415"><ele>1111.6</ele><time>2026-05-03T12:20:38.001Z</time></trkpt><trkpt lat="41.81048315643414" lon="-2.6816664090122084"><ele>1111.2</ele><time>2026-05-03T12:20:39.001Z</time></trkpt><trkpt lat="41.810510625495645" lon="-2.681524679776941"><ele>1110.8</ele><time>2026-05-03T12:20:40.001Z</time></trkpt><trkpt lat="41.81053718901715" lon="-2.6813833641997973"><ele>1110.4</ele><time>2026-05-03T12:20:41.001Z</time></trkpt><trkpt lat="41.81056255648315" lon="-2.6812392216763348"><ele>1110.0</ele><time>2026-05-03T12:20:42.001Z</time></trkpt><trkpt lat="41.810586054972305" lon="-2.681097363925641"><ele>1109.6</ele><time>2026-05-03T12:20:43.001Z</time></trkpt><trkpt lat="41.81061094686447" lon="-2.680956456547948"><ele>1109.2</ele><time>2026-05-03T12:20:44.001Z</time></trkpt><trkpt lat="41.810640549873874" lon="-2.680813844884422"><ele>1108.8</ele><time>2026-05-03T12:20:45.001Z</time></trkpt><trkpt lat="41.81066606870377" lon="-2.6806711620518002"><ele>1108.4</ele><time>2026-05-03T12:20:46.001Z</time></trkpt><trkpt lat="41.81069069701262" lon="-2.6805300989822904"><ele>1108.0</ele><time>2026-05-03T12:20:47.001Z</time></trkpt><trkpt lat="41.81071373378799" lon="-2.6803891523947296"><ele>1108.0</ele><time>2026-05-03T12:20:48.001Z</time></trkpt><trkpt lat="41.81073615595538" lon="-2.6802479419602814"><ele>1108.0</ele><time>2026-05-03T12:20:49.001Z</time></trkpt><trkpt lat="41.81075922952804" lon="-2.680106566949457"><ele>1108.0</ele><time>2026-05-03T12:20:50.001Z</time></trkpt><trkpt lat="41.810784679117695" lon="-2.6799634993639514"><ele>1108.0</ele><time>2026-05-03T12:20:51.001Z</time></trkpt><trkpt lat="41.8108075548518" lon="-2.679822167918522"><ele>1108.0</ele><time>2026-05-03T12:20:52.001Z</time></trkpt><trkpt lat="41.81083190722569" lon="-2.6796799555252853"><ele>1108.0</ele><time>2026-05-03T12:20:53.001Z</time></trkpt><trkpt lat="41.810855505296594" lon="-2.679536599726735"><ele>1108.0</ele><time>2026-05-03T12:20:54.001Z</time></trkpt><trkpt lat="41.810872495920776" lon="-2.679395259464593"><ele>1108.0</ele><time>2026-05-03T12:20:55.001Z</time></trkpt><trkpt lat="41.8108935815762" lon="-2.6792500542450224"><ele>1108.0</ele><time>2026-05-03T12:20:56.001Z</time></trkpt><trkpt lat="41.810910396251835" lon="-2.679104380202579"><ele>1108.0</ele><time>2026-05-03T12:20:57.001Z</time></trkpt><trkpt lat="41.81092526073806" lon="-2.6789593001723406"><ele>1107.6</ele><time>2026-05-03T12:20:58.001Z</time></trkpt><trkpt lat="41.810940123095385" lon="-2.6788147471711725"><ele>1107.1999999999998</ele><time>2026-05-03T12:20:59.001Z</time></trkpt><trkpt lat="41.81095285493415" lon="-2.678669942053746"><ele>1106.8</ele><time>2026-05-03T12:21:00.001Z</time></trkpt><trkpt lat="41.81096471135233" lon="-2.6785216640482297"><ele>1106.3999999999999</ele><time>2026-05-03T12:21:01.002Z</time></trkpt><trkpt lat="41.81097582721157" lon="-2.6783744573415538"><ele>1106.0</ele><time>2026-05-03T12:21:02.002Z</time></trkpt><trkpt lat="41.81098838110147" lon="-2.678231531358955"><ele>1107.75</ele><time>2026-05-03T12:21:03.002Z</time></trkpt><trkpt lat="41.81100729867046" lon="-2.678068334588593"><ele>1109.5</ele><time>2026-05-03T12:21:04.002Z</time></trkpt><trkpt lat="41.811033541036664" lon="-2.6778854674158095"><ele>1111.25</ele><time>2026-05-03T12:21:05.002Z</time></trkpt><trkpt lat="41.811046960219294" lon="-2.677730416778749"><ele>1113.0</ele><time>2026-05-03T12:21:06.002Z</time></trkpt><trkpt lat="41.81104271192493" lon="-2.677630181212084"><ele>1113.25</ele><time>2026-05-03T12:21:07Z</time></trkpt><trkpt lat="41.81105211171014" lon="-2.6774797889774944"><ele>1113.5</ele><time>2026-05-03T12:21:08Z</time></trkpt><trkpt lat="41.811066244620854" lon="-2.677327206551483"><ele>1113.75</ele><time>2026-05-03T12:21:09Z</time></trkpt><trkpt lat="41.8110840571689" lon="-2.6771743646016697"><ele>1114.0</ele><time>2026-05-03T12:21:10Z</time></trkpt><trkpt lat="41.811099426981094" lon="-2.6770217855242824"><ele>1112.75</ele><time>2026-05-03T12:21:11Z</time></trkpt><trkpt lat="41.811108791044454" lon="-2.676871890350479"><ele>1111.5</ele><time>2026-05-03T12:21:12Z</time></trkpt><trkpt lat="41.811120900276634" lon="-2.676720536645904"><ele>1110.25</ele><time>2026-05-03T12:21:13Z</time></trkpt><trkpt lat="41.8111335626027" lon="-2.6765714182634444"><ele>1109.0</ele><time>2026-05-03T12:21:14Z</time></trkpt><trkpt lat="41.81114607057312" lon="-2.676420858728051"><ele>1109.0</ele><time>2026-05-03T12:21:15Z</time></trkpt><trkpt lat="41.81116065367582" lon="-2.676266889886288"><ele>1109.0</ele><time>2026-05-03T12:21:16Z</time></trkpt><trkpt lat="41.81117869306668" lon="-2.676115400992913"><ele>1109.0</ele><time>2026-05-03T12:21:17Z</time></trkpt><trkpt lat="41.81119256656558" lon="-2.6759644608022506"><ele>1109.0</ele><time>2026-05-03T12:21:18Z</time></trkpt><trkpt lat="41.811205811882665" lon="-2.675813435764638"><ele>1108.6000000000001</ele><time>2026-05-03T12:21:19Z</time></trkpt><trkpt lat="41.81121776936689" lon="-2.6756637782477974"><ele>1108.2</ele><time>2026-05-03T12:21:20Z</time></trkpt><trkpt lat="41.81123341728501" lon="-2.675517710886509"><ele>1107.8000000000002</ele><time>2026-05-03T12:21:21Z</time></trkpt><trkpt lat="41.811255584858465" lon="-2.675367890216964"><ele>1107.4</ele><time>2026-05-03T12:21:22Z</time></trkpt><trkpt lat="41.8112776896488" lon="-2.675224236134047"><ele>1107.0</ele><time>2026-05-03T12:21:23Z</time></trkpt><trkpt lat="41.81130289449137" lon="-2.675075622525566"><ele>1107.0</ele><time>2026-05-03T12:21:24Z</time></trkpt><trkpt lat="41.811334035548775" lon="-2.6749269512049842"><ele>1107.0</ele><time>2026-05-03T12:21:25Z</time></trkpt><trkpt lat="41.811364398253644" lon="-2.6747794882588916"><ele>1107.0</ele><time>2026-05-03T12:21:26Z</time></trkpt><trkpt lat="41.811393558754524" lon="-2.6746346963108727"><ele>1107.0</ele><time>2026-05-03T12:21:27Z</time></trkpt><trkpt lat="41.811426437605604" lon="-2.674488753511878"><ele>1105.75</ele><time>2026-05-03T12:21:28Z</time></trkpt><trkpt lat="41.81146255665294" lon="-2.6743416710963777"><ele>1104.5</ele><time>2026-05-03T12:21:29Z</time></trkpt><trkpt lat="41.81149863162033" lon="-2.6741930703145727"><ele>1103.25</ele><time>2026-05-03T12:21:30Z</time></trkpt><trkpt lat="41.811532136467555" lon="-2.6740452974815"><ele>1102.0</ele><time>2026-05-03T12:21:31Z</time></trkpt><trkpt lat="41.81156902158168" lon="-2.6738987016826994"><ele>1102.0</ele><time>2026-05-03T12:21:32Z</time></trkpt><trkpt lat="41.81160249268773" lon="-2.6737558363486222"><ele>1102.0</ele><time>2026-05-03T12:21:33.001Z</time></trkpt><trkpt lat="41.8116356585368" lon="-2.6736107813128136"><ele>1102.0</ele><time>2026-05-03T12:21:34.001Z</time></trkpt><trkpt lat="41.81167147406444" lon="-2.6734691068078775"><ele>1102.0</ele><time>2026-05-03T12:21:35.001Z</time></trkpt><trkpt lat="41.81170596666387" lon="-2.673332644396226"><ele>1102.0</ele><time>2026-05-03T12:21:36.001Z</time></trkpt><trkpt lat="41.81174263172399" lon="-2.6731868069059384"><ele>1102.0</ele><time>2026-05-03T12:21:37.001Z</time></trkpt><trkpt lat="41.81178735195425" lon="-2.6730426396840605"><ele>1102.0</ele><time>2026-05-03T12:21:38.001Z</time></trkpt><trkpt lat="41.8118339181884" lon="-2.672854148638039"><ele>1102.0</ele><time>2026-05-03T12:21:39.001Z</time></trkpt><trkpt lat="41.811853053737224" lon="-2.672768814161419"><ele>1102.0</ele><time>2026-05-03T12:21:40.001Z</time></trkpt><trkpt lat="41.811883610607175" lon="-2.6726274236860967"><ele>1102.0</ele><time>2026-05-03T12:21:41.001Z</time></trkpt><trkpt lat="41.811910354637746" lon="-2.6724847566087586"><ele>1102.2</ele><time>2026-05-03T12:21:42.001Z</time></trkpt><trkpt lat="41.81194763254778" lon="-2.672344823547267"><ele>1102.4</ele><time>2026-05-03T12:21:43.001Z</time></trkpt><trkpt lat="41.81198249334593" lon="-2.672205364066476"><ele>1102.6</ele><time>2026-05-03T12:21:44.001Z</time></trkpt><trkpt lat="41.812013658716054" lon="-2.6720660826960505"><ele>1102.8</ele><time>2026-05-03T12:21:45.001Z</time></trkpt><trkpt lat="41.81204637615532" lon="-2.6719268322344303"><ele>1103.0</ele><time>2026-05-03T12:21:46.001Z</time></trkpt><trkpt lat="41.81208141332876" lon="-2.6717885125720717"><ele>1103.4</ele><time>2026-05-03T12:21:47.001Z</time></trkpt><trkpt lat="41.812113682319165" lon="-2.6716522579895887"><ele>1103.8</ele><time>2026-05-03T12:21:48.001Z</time></trkpt><trkpt lat="41.81214738866257" lon="-2.6715157280805317"><ele>1104.2</ele><time>2026-05-03T12:21:49.001Z</time></trkpt><trkpt lat="41.81217728880473" lon="-2.6713774976623856"><ele>1104.6</ele><time>2026-05-03T12:21:50.001Z</time></trkpt><trkpt lat="41.81221070559661" lon="-2.6712451729149445"><ele>1105.0</ele><time>2026-05-03T12:21:51.001Z</time></trkpt><trkpt lat="41.8122469279174" lon="-2.67111083842459"><ele>1104.8</ele><time>2026-05-03T12:21:52.001Z</time></trkpt><trkpt lat="41.812280695362055" lon="-2.6709770347698156"><ele>1104.6</ele><time>2026-05-03T12:21:53.001Z</time></trkpt><trkpt lat="41.81231190089475" lon="-2.670841412133423"><ele>1104.4</ele><time>2026-05-03T12:21:54.001Z</time></trkpt><trkpt lat="41.81234678576926" lon="-2.6707066001595194"><ele>1104.2</ele><time>2026-05-03T12:21:55.001Z</time></trkpt><trkpt lat="41.81238365863238" lon="-2.6705686285785166"><ele>1104.0</ele><time>2026-05-03T12:21:56.001Z</time></trkpt><trkpt lat="41.81242386395454" lon="-2.6704334528297853"><ele>1104.0</ele><time>2026-05-03T12:21:57.001Z</time></trkpt><trkpt lat="41.81246164048282" lon="-2.670296251814063"><ele>1104.0</ele><time>2026-05-03T12:21:58.001Z</time></trkpt><trkpt lat="41.812495143308844" lon="-2.670158619550638"><ele>1104.0</ele><time>2026-05-03T12:21:59.001Z</time></trkpt><trkpt lat="41.81252672547454" lon="-2.6700165549997132"><ele>1104.0</ele><time>2026-05-03T12:22:00.001Z</time></trkpt><trkpt lat="41.812552033036035" lon="-2.6698775642733175"><ele>1104.0</ele><time>2026-05-03T12:22:01.001Z</time></trkpt><trkpt lat="41.81257175641461" lon="-2.669737993929066"><ele>1103.6000000000001</ele><time>2026-05-03T12:22:02.001Z</time></trkpt><trkpt lat="41.812588378302806" lon="-2.6695959273619843"><ele>1103.2</ele><time>2026-05-03T12:22:03.001Z</time></trkpt><trkpt lat="41.81259718129687" lon="-2.6694529785285446"><ele>1102.8000000000002</ele><time>2026-05-03T12:22:04.001Z</time></trkpt><trkpt lat="41.812598624096154" lon="-2.669307398064528"><ele>1102.4</ele><time>2026-05-03T12:22:05.001Z</time></trkpt><trkpt lat="41.81260296630703" lon="-2.669162621676229"><ele>1102.0</ele><time>2026-05-03T12:22:06.001Z</time></trkpt><trkpt lat="41.81260765452159" lon="-2.6690163174062116"><ele>1101.8</ele><time>2026-05-03T12:22:07.001Z</time></trkpt><trkpt lat="41.81261355675451" lon="-2.668868586381625"><ele>1101.6</ele><time>2026-05-03T12:22:08.001Z</time></trkpt><trkpt lat="41.81261860450064" lon="-2.668718042032439"><ele>1101.3999999999999</ele><time>2026-05-03T12:22:09.001Z</time></trkpt><trkpt lat="41.81261835440749" lon="-2.668567304832029"><ele>1101.2</ele><time>2026-05-03T12:22:10.001Z</time></trkpt><trkpt lat="41.812622476314594" lon="-2.6684218525730805"><ele>1101.0</ele><time>2026-05-03T12:22:11.001Z</time></trkpt><trkpt lat="41.81262832127522" lon="-2.6682718533900727"><ele>1101.0</ele><time>2026-05-03T12:22:12.001Z</time></trkpt><trkpt lat="41.812636177149976" lon="-2.6681156069438163"><ele>1101.0</ele><time>2026-05-03T12:22:13.001Z</time></trkpt><trkpt lat="41.812639237687144" lon="-2.6679626285553475"><ele>1101.0</ele><time>2026-05-03T12:22:14.001Z</time></trkpt><trkpt lat="41.81264481747518" lon="-2.6678133409705977"><ele>1101.0</ele><time>2026-05-03T12:22:15.001Z</time></trkpt><trkpt lat="41.8126434636147" lon="-2.6676637371369614"><ele>1101.2</ele><time>2026-05-03T12:22:16.001Z</time></trkpt><trkpt lat="41.812641469010224" lon="-2.6675057925124066"><ele>1101.3999999999999</ele><time>2026-05-03T12:22:17.001Z</time></trkpt><trkpt lat="41.81265736586895" lon="-2.6673594026345215"><ele>1101.6</ele><time>2026-05-03T12:22:18.001Z</time></trkpt><trkpt lat="41.81266643819637" lon="-2.6672157073529177"><ele>1101.8</ele><time>2026-05-03T12:22:19.001Z</time></trkpt><trkpt lat="41.81266545501662" lon="-2.6670642084282425"><ele>1102.0</ele><time>2026-05-03T12:22:20.001Z</time></trkpt><trkpt lat="41.81267323306747" lon="-2.6669225240502765"><ele>1102.6</ele><time>2026-05-03T12:22:21.001Z</time></trkpt><trkpt lat="41.812679536082165" lon="-2.6667752202297454"><ele>1103.2</ele><time>2026-05-03T12:22:22.001Z</time></trkpt><trkpt lat="41.81267844336621" lon="-2.6666265261863553"><ele>1103.8</ele><time>2026-05-03T12:22:23.001Z</time></trkpt><trkpt lat="41.812683359657555" lon="-2.6664788210280506"><ele>1104.4</ele><time>2026-05-03T12:22:24.001Z</time></trkpt><trkpt lat="41.81269475195467" lon="-2.666336976975007"><ele>1105.0</ele><time>2026-05-03T12:22:25.001Z</time></trkpt><trkpt lat="41.81269456182452" lon="-2.6661890306024327"><ele>1104.4</ele><time>2026-05-03T12:22:26.001Z</time></trkpt><trkpt lat="41.81269843813074" lon="-2.666040620214066"><ele>1103.8</ele><time>2026-05-03T12:22:27.001Z</time></trkpt><trkpt lat="41.81270055496909" lon="-2.665890520320001"><ele>1103.2</ele><time>2026-05-03T12:22:28.001Z</time></trkpt><trkpt lat="41.812707531734866" lon="-2.6657411344598385"><ele>1102.6</ele><time>2026-05-03T12:22:29.001Z</time></trkpt><trkpt lat="41.81271352827927" lon="-2.6655914038645356"><ele>1102.0</ele><time>2026-05-03T12:22:30.001Z</time></trkpt><trkpt lat="41.81272207313924" lon="-2.665438847063638"><ele>1102.0</ele><time>2026-05-03T12:22:31.001Z</time></trkpt><trkpt lat="41.812725373064026" lon="-2.665285325073126"><ele>1102.0</ele><time>2026-05-03T12:22:32.001Z</time></trkpt><trkpt lat="41.812728426382215" lon="-2.6651294375330083"><ele>1102.0</ele><time>2026-05-03T12:22:33.001Z</time></trkpt><trkpt lat="41.81273289937546" lon="-2.664976250831503"><ele>1102.0</ele><time>2026-05-03T12:22:34.001Z</time></trkpt><trkpt lat="41.81273706751015" lon="-2.6648197885070664"><ele>1101.5</ele><time>2026-05-03T12:22:35.001Z</time></trkpt><trkpt lat="41.81274117851706" lon="-2.6646688275704746"><ele>1101.0</ele><time>2026-05-03T12:22:36.001Z</time></trkpt><trkpt lat="41.81274608301678" lon="-2.6645181203914285"><ele>1100.5</ele><time>2026-05-03T12:22:37.001Z</time></trkpt><trkpt lat="41.81275172929101" lon="-2.6643671404050204"><ele>1100.0</ele><time>2026-05-03T12:22:38.001Z</time></trkpt><trkpt lat="41.81275799798514" lon="-2.664215275568397"><ele>1099.5</ele><time>2026-05-03T12:22:39.001Z</time></trkpt><trkpt lat="41.81276547693589" lon="-2.6640644326374603"><ele>1099.0</ele><time>2026-05-03T12:22:40.001Z</time></trkpt><trkpt lat="41.81277129293264" lon="-2.66391027725284"><ele>1098.5</ele><time>2026-05-03T12:22:41.001Z</time></trkpt><trkpt lat="41.81277223748961" lon="-2.6637576972039776"><ele>1098.0</ele><time>2026-05-03T12:22:42.001Z</time></trkpt><trkpt lat="41.812776150139584" lon="-2.663608102904474"><ele>1097.6</ele><time>2026-05-03T12:22:43.001Z</time></trkpt><trkpt lat="41.8127804974488" lon="-2.6634557869756628"><ele>1097.1999999999998</ele><time>2026-05-03T12:22:44.001Z</time></trkpt><trkpt lat="41.812787739157876" lon="-2.663306793487584"><ele>1096.8</ele><time>2026-05-03T12:22:45.001Z</time></trkpt><trkpt lat="41.81279337528185" lon="-2.663155803096677"><ele>1096.3999999999999</ele><time>2026-05-03T12:22:46.001Z</time></trkpt><trkpt lat="41.81279775188427" lon="-2.6630062459855854"><ele>1096.0</ele><time>2026-05-03T12:22:47.001Z</time></trkpt><trkpt lat="41.81280206714404" lon="-2.662859666733339"><ele>1095.6</ele><time>2026-05-03T12:22:48.001Z</time></trkpt><trkpt lat="41.8127959828991" lon="-2.662719699721273"><ele>1095.1999999999998</ele><time>2026-05-03T12:22:49.001Z</time></trkpt><trkpt lat="41.812790509941806" lon="-2.662578534807224"><ele>1094.8000000000002</ele><time>2026-05-03T12:22:50.001Z</time></trkpt><trkpt lat="41.8128189316833" lon="-2.66241051592465"><ele>1094.4</ele><time>2026-05-03T12:22:51.001Z</time></trkpt><trkpt lat="41.812833004009335" lon="-2.6622663702905167"><ele>1094.0</ele><time>2026-05-03T12:22:52.001Z</time></trkpt><trkpt lat="41.81283750613824" lon="-2.66217629353086"><ele>1094.0</ele><time>2026-05-03T12:22:53.001Z</time></trkpt><trkpt lat="41.812842319426935" lon="-2.6620449683658487"><ele>1094.0</ele><time>2026-05-03T12:22:54.001Z</time></trkpt><trkpt lat="41.812848556677366" lon="-2.6618747922326365"><ele>1094.0</ele><time>2026-05-03T12:22:55.001Z</time></trkpt><trkpt lat="41.81286023993181" lon="-2.661657152821797"><ele>1094.0</ele><time>2026-05-03T12:22:56.001Z</time></trkpt><trkpt lat="41.8128617188829" lon="-2.661499307602602"><ele>1093.4</ele><time>2026-05-03T12:22:57.001Z</time></trkpt><trkpt lat="41.81286708519228" lon="-2.661349193902101"><ele>1092.8000000000002</ele><time>2026-05-03T12:22:58.001Z</time></trkpt><trkpt lat="41.81287082924359" lon="-2.661199088286549"><ele>1092.1999999999998</ele><time>2026-05-03T12:22:59.001Z</time></trkpt><trkpt lat="41.81287720956133" lon="-2.6610471065724886"><ele>1091.6</ele><time>2026-05-03T12:23:00.002Z</time></trkpt><trkpt lat="41.81288626205195" lon="-2.660897407431778"><ele>1091.0</ele><time>2026-05-03T12:23:01.002Z</time></trkpt><trkpt lat="41.81288540363049" lon="-2.6607642796785607"><ele>1091.0</ele><time>2026-05-03T12:23:02.002Z</time></trkpt><trkpt lat="41.812893774707746" lon="-2.660616366942999"><ele>1091.0</ele><time>2026-05-03T12:23:03.002Z</time></trkpt><trkpt lat="41.812898108247204" lon="-2.66046844033649"><ele>1091.0</ele><time>2026-05-03T12:23:04.002Z</time></trkpt><trkpt lat="41.81290220039836" lon="-2.6603209394886886"><ele>1091.0</ele><time>2026-05-03T12:23:05.002Z</time></trkpt><trkpt lat="41.81290778685741" lon="-2.6601744036671073"><ele>1091.0</ele><time>2026-05-03T12:23:06.002Z</time></trkpt><trkpt lat="41.81291498596336" lon="-2.6600305803035176"><ele>1091.0</ele><time>2026-05-03T12:23:07.002Z</time></trkpt><trkpt lat="41.812919289194106" lon="-2.6598833580765553"><ele>1091.0</ele><time>2026-05-03T12:23:08.002Z</time></trkpt><trkpt lat="41.81292453342421" lon="-2.6597364694787538"><ele>1091.0</ele><time>2026-05-03T12:23:09.002Z</time></trkpt><trkpt lat="41.81293210641653" lon="-2.6595907614165637"><ele>1091.0</ele><time>2026-05-03T12:23:10.002Z</time></trkpt><trkpt lat="41.81293739092726" lon="-2.6594444211562513"><ele>1091.0</ele><time>2026-05-03T12:23:11.002Z</time></trkpt><trkpt lat="41.81294368510421" lon="-2.6592991734365974"><ele>1090.25</ele><time>2026-05-03T12:23:12.002Z</time></trkpt><trkpt lat="41.81294495487211" lon="-2.6591476277893613"><ele>1089.5</ele><time>2026-05-03T12:23:13.001Z</time></trkpt><trkpt lat="41.81296001165797" lon="-2.659008151983448"><ele>1088.75</ele><time>2026-05-03T12:23:14.001Z</time></trkpt><trkpt lat="41.812954389961654" lon="-2.658856363343685"><ele>1088.0</ele><time>2026-05-03T12:23:15.001Z</time></trkpt><trkpt lat="41.8129637242643" lon="-2.6586865861315765"><ele>1087.6</ele><time>2026-05-03T12:23:16.001Z</time></trkpt><trkpt lat="41.81296447039868" lon="-2.658538376396031"><ele>1087.1999999999998</ele><time>2026-05-03T12:23:17.001Z</time></trkpt><trkpt lat="41.81296910213439" lon="-2.6583924543015263"><ele>1086.8</ele><time>2026-05-03T12:23:18.001Z</time></trkpt><trkpt lat="41.81297694954977" lon="-2.6582436771120794"><ele>1086.3999999999999</ele><time>2026-05-03T12:23:19.001Z</time></trkpt><trkpt lat="41.812979183170036" lon="-2.6580937313957236"><ele>1086.0</ele><time>2026-05-03T12:23:20.001Z</time></trkpt><trkpt lat="41.812982920489496" lon="-2.6579413623017847"><ele>1086.0</ele><time>2026-05-03T12:23:21.001Z</time></trkpt><trkpt lat="41.81298778620119" lon="-2.657788035328819"><ele>1086.0</ele><time>2026-05-03T12:23:22.001Z</time></trkpt><trkpt lat="41.812992581931184" lon="-2.6576349262845804"><ele>1086.0</ele><time>2026-05-03T12:23:23.001Z</time></trkpt><trkpt lat="41.81299869349146" lon="-2.6574799136333622"><ele>1086.0</ele><time>2026-05-03T12:23:24.001Z</time></trkpt><trkpt lat="41.81300406031228" lon="-2.657324833491295"><ele>1085.75</ele><time>2026-05-03T12:23:25.001Z</time></trkpt><trkpt lat="41.81301052908954" lon="-2.6571692130137397"><ele>1085.5</ele><time>2026-05-03T12:23:26.001Z</time></trkpt><trkpt lat="41.81301445606197" lon="-2.657013898497837"><ele>1085.25</ele><time>2026-05-03T12:23:27.001Z</time></trkpt><trkpt lat="41.81301741449547" lon="-2.6568588521094356"><ele>1085.0</ele><time>2026-05-03T12:23:28.001Z</time></trkpt><trkpt lat="41.81302171570093" lon="-2.656702770720171"><ele>1085.0</ele><time>2026-05-03T12:23:29.001Z</time></trkpt><trkpt lat="41.81302589149223" lon="-2.6565469198910474"><ele>1085.0</ele><time>2026-05-03T12:23:30.001Z</time></trkpt><trkpt lat="41.81303374994388" lon="-2.656389009037806"><ele>1085.0</ele><time>2026-05-03T12:23:31.001Z</time></trkpt><trkpt lat="41.81303612292193" lon="-2.6562345768645734"><ele>1085.0</ele><time>2026-05-03T12:23:32.001Z</time></trkpt><trkpt lat="41.813041990313586" lon="-2.656081701445189"><ele>1085.5</ele><time>2026-05-03T12:23:33.001Z</time></trkpt><trkpt lat="41.813048277250495" lon="-2.6559271954874086"><ele>1086.0</ele><time>2026-05-03T12:23:34.001Z</time></trkpt><trkpt lat="41.813052927184536" lon="-2.655774801571474"><ele>1086.5</ele><time>2026-05-03T12:23:35.001Z</time></trkpt><trkpt lat="41.81306147769144" lon="-2.6556235365542205"><ele>1087.0</ele><time>2026-05-03T12:23:36.001Z</time></trkpt><trkpt lat="41.81306642961467" lon="-2.655470581180069"><ele>1087.0</ele><time>2026-05-03T12:23:37.001Z</time></trkpt><trkpt lat="41.813067957310395" lon="-2.655318758404007"><ele>1087.0</ele><time>2026-05-03T12:23:38.001Z</time></trkpt><trkpt lat="41.813070723625486" lon="-2.6551677890765193"><ele>1087.0</ele><time>2026-05-03T12:23:39.001Z</time></trkpt><trkpt lat="41.81307619212851" lon="-2.655017899694558"><ele>1087.0</ele><time>2026-05-03T12:23:40.001Z</time></trkpt><trkpt lat="41.81308304754032" lon="-2.654868234639636"><ele>1087.0</ele><time>2026-05-03T12:23:41.001Z</time></trkpt><trkpt lat="41.81308698187822" lon="-2.654719321622537"><ele>1087.0</ele><time>2026-05-03T12:23:42.001Z</time></trkpt><trkpt lat="41.81308972703522" lon="-2.654568210769229"><ele>1087.0</ele><time>2026-05-03T12:23:43.001Z</time></trkpt><trkpt lat="41.81309615151366" lon="-2.6544188033517755"><ele>1087.0</ele><time>2026-05-03T12:23:44.001Z</time></trkpt><trkpt lat="41.813103410300116" lon="-2.654266366083002"><ele>1087.0</ele><time>2026-05-03T12:23:45.001Z</time></trkpt><trkpt lat="41.81310598862418" lon="-2.65411912460564"><ele>1087.0</ele><time>2026-05-03T12:23:46.001Z</time></trkpt><trkpt lat="41.81311177282947" lon="-2.6539692549043585"><ele>1086.5</ele><time>2026-05-03T12:23:47.001Z</time></trkpt><trkpt lat="41.8131167904497" lon="-2.6538146097514055"><ele>1086.0</ele><time>2026-05-03T12:23:48.001Z</time></trkpt><trkpt lat="41.81311948525848" lon="-2.6536628352165326"><ele>1085.5</ele><time>2026-05-03T12:23:49.001Z</time></trkpt><trkpt lat="41.8131248924695" lon="-2.653510644748618"><ele>1085.0</ele><time>2026-05-03T12:23:50.001Z</time></trkpt><trkpt lat="41.813132742425594" lon="-2.6533591512283055"><ele>1085.0</ele><time>2026-05-03T12:23:51.001Z</time></trkpt><trkpt lat="41.813137693593696" lon="-2.6532059573481406"><ele>1085.0</ele><time>2026-05-03T12:23:52.001Z</time></trkpt><trkpt lat="41.81314337203101" lon="-2.653053866193451"><ele>1085.0</ele><time>2026-05-03T12:23:53.001Z</time></trkpt><trkpt lat="41.81314860689985" lon="-2.652901032935233"><ele>1085.0</ele><time>2026-05-03T12:23:54.001Z</time></trkpt><trkpt lat="41.81315175429187" lon="-2.652749925589123"><ele>1085.0</ele><time>2026-05-03T12:23:55.001Z</time></trkpt><trkpt lat="41.81315526364417" lon="-2.652597167842653"><ele>1085.0</ele><time>2026-05-03T12:23:56.001Z</time></trkpt><trkpt lat="41.81316023358101" lon="-2.6524455193483703"><ele>1085.0</ele><time>2026-05-03T12:23:57.001Z</time></trkpt><trkpt lat="41.813163852559725" lon="-2.652292258219863"><ele>1085.0</ele><time>2026-05-03T12:23:58.001Z</time></trkpt><trkpt lat="41.813169833273776" lon="-2.652138218258465"><ele>1085.0</ele><time>2026-05-03T12:23:59.001Z</time></trkpt><trkpt lat="41.81317646525836" lon="-2.6519824687350493"><ele>1085.0</ele><time>2026-05-03T12:24:00.001Z</time></trkpt><trkpt lat="41.81318098017943" lon="-2.6518310400684064"><ele>1085.0</ele><time>2026-05-03T12:24:01.001Z</time></trkpt><trkpt lat="41.813186748241904" lon="-2.6516733734705"><ele>1085.0</ele><time>2026-05-03T12:24:02.001Z</time></trkpt><trkpt lat="41.81318980216691" lon="-2.6515185006108717"><ele>1085.0</ele><time>2026-05-03T12:24:03.001Z</time></trkpt><trkpt lat="41.81319536791171" lon="-2.651361927563352"><ele>1085.0</ele><time>2026-05-03T12:24:04.001Z</time></trkpt><trkpt lat="41.81320123785679" lon="-2.6512052127225925"><ele>1085.0</ele><time>2026-05-03T12:24:05.001Z</time></trkpt><trkpt lat="41.81320715537665" lon="-2.6510487508725746"><ele>1085.0</ele><time>2026-05-03T12:24:06.001Z</time></trkpt><trkpt lat="41.81321318825648" lon="-2.6508929023261967"><ele>1084.5</ele><time>2026-05-03T12:24:07.001Z</time></trkpt><trkpt lat="41.81321696951967" lon="-2.650734719959206"><ele>1084.0</ele><time>2026-05-03T12:24:08.001Z</time></trkpt><trkpt lat="41.81321951036787" lon="-2.6505784127237706"><ele>1083.5</ele><time>2026-05-03T12:24:09.001Z</time></trkpt><trkpt lat="41.81322354686613" lon="-2.6504196915908356"><ele>1083.0</ele><time>2026-05-03T12:24:10.001Z</time></trkpt><trkpt lat="41.813229415098945" lon="-2.6502652329445198"><ele>1082.0</ele><time>2026-05-03T12:24:11.001Z</time></trkpt><trkpt lat="41.81323679633774" lon="-2.65010807722435"><ele>1081.0</ele><time>2026-05-03T12:24:12.001Z</time></trkpt><trkpt lat="41.81324299645294" lon="-2.64995108276048"><ele>1080.0</ele><time>2026-05-03T12:24:13.001Z</time></trkpt><trkpt lat="41.81324722522221" lon="-2.6497946339565086"><ele>1079.0</ele><time>2026-05-03T12:24:14.001Z</time></trkpt><trkpt lat="41.81325280616322" lon="-2.6496377355650544"><ele>1079.0</ele><time>2026-05-03T12:24:15.001Z</time></trkpt><trkpt lat="41.813259605008305" lon="-2.649479835284398"><ele>1079.0</ele><time>2026-05-03T12:24:16.001Z</time></trkpt><trkpt lat="41.8132621009472" lon="-2.649327539359567"><ele>1079.0</ele><time>2026-05-03T12:24:17.001Z</time></trkpt><trkpt lat="41.813269325692985" lon="-2.6491720466233026"><ele>1079.0</ele><time>2026-05-03T12:24:18.001Z</time></trkpt><trkpt lat="41.81327340298402" lon="-2.6490169608001173"><ele>1079.25</ele><time>2026-05-03T12:24:19.001Z</time></trkpt><trkpt lat="41.81327854297358" lon="-2.648864486508171"><ele>1079.5</ele><time>2026-05-03T12:24:20.001Z</time></trkpt><trkpt lat="41.813284568341146" lon="-2.648711567348384"><ele>1079.75</ele><time>2026-05-03T12:24:21.001Z</time></trkpt><trkpt lat="41.813288577061634" lon="-2.6485616425302023"><ele>1080.0</ele><time>2026-05-03T12:24:22.001Z</time></trkpt><trkpt lat="41.81329271071379" lon="-2.6484092973412325"><ele>1079.5</ele><time>2026-05-03T12:24:23.001Z</time></trkpt><trkpt lat="41.81329733730296" lon="-2.6482588694057023"><ele>1079.0</ele><time>2026-05-03T12:24:24.001Z</time></trkpt><trkpt lat="41.81330081461973" lon="-2.648107541703863"><ele>1078.5</ele><time>2026-05-03T12:24:25.001Z</time></trkpt><trkpt lat="41.81330754264313" lon="-2.6479566120450015"><ele>1078.0</ele><time>2026-05-03T12:24:26.001Z</time></trkpt><trkpt lat="41.813315609880824" lon="-2.6478003593061317"><ele>1078.0</ele><time>2026-05-03T12:24:27.001Z</time></trkpt><trkpt lat="41.81332003209526" lon="-2.6476505417264247"><ele>1078.0</ele><time>2026-05-03T12:24:28.001Z</time></trkpt><trkpt lat="41.81332330753368" lon="-2.6474979866954214"><ele>1078.0</ele><time>2026-05-03T12:24:29.001Z</time></trkpt><trkpt lat="41.813329280777495" lon="-2.647341062643117"><ele>1078.0</ele><time>2026-05-03T12:24:30.001Z</time></trkpt><trkpt lat="41.81333409316959" lon="-2.647188100041747"><ele>1078.0</ele><time>2026-05-03T12:24:31.001Z</time></trkpt><trkpt lat="41.81333828805303" lon="-2.647036061596202"><ele>1078.0</ele><time>2026-05-03T12:24:32.001Z</time></trkpt><trkpt lat="41.813343987849436" lon="-2.646879375564009"><ele>1078.0</ele><time>2026-05-03T12:24:33.001Z</time></trkpt><trkpt lat="41.81334885063901" lon="-2.646724310444995"><ele>1078.0</ele><time>2026-05-03T12:24:34.001Z</time></trkpt><trkpt lat="41.81335427770091" lon="-2.6465706251203875"><ele>1078.0</ele><time>2026-05-03T12:24:35.001Z</time></trkpt><trkpt lat="41.81335915674457" lon="-2.6464156819337887"><ele>1078.0</ele><time>2026-05-03T12:24:36.001Z</time></trkpt><trkpt lat="41.81336524335676" lon="-2.6462613530425116"><ele>1078.0</ele><time>2026-05-03T12:24:37.001Z</time></trkpt><trkpt lat="41.81336963431283" lon="-2.646108508316263"><ele>1078.0</ele><time>2026-05-03T12:24:38.001Z</time></trkpt><trkpt lat="41.813377081560326" lon="-2.64595181201845"><ele>1078.25</ele><time>2026-05-03T12:24:39.001Z</time></trkpt><trkpt lat="41.81338256584612" lon="-2.645797885722943"><ele>1078.5</ele><time>2026-05-03T12:24:40.001Z</time></trkpt><trkpt lat="41.81338779457847" lon="-2.6456457607954427"><ele>1078.75</ele><time>2026-05-03T12:24:41.001Z</time></trkpt><trkpt lat="41.81339570236572" lon="-2.645490530385799"><ele>1079.0</ele><time>2026-05-03T12:24:42.001Z</time></trkpt><trkpt lat="41.813397429760855" lon="-2.6453400698385208"><ele>1078.75</ele><time>2026-05-03T12:24:43.001Z</time></trkpt><trkpt lat="41.813401386840845" lon="-2.645189696367917"><ele>1078.5</ele><time>2026-05-03T12:24:44.001Z</time></trkpt><trkpt lat="41.813410029706375" lon="-2.645031814769618"><ele>1078.25</ele><time>2026-05-03T12:24:45.001Z</time></trkpt><trkpt lat="41.813412617330606" lon="-2.6448802707958334"><ele>1078.0</ele><time>2026-05-03T12:24:46.001Z</time></trkpt><trkpt lat="41.81341777391295" lon="-2.6447251307807993"><ele>1078.0</ele><time>2026-05-03T12:24:47.001Z</time></trkpt><trkpt lat="41.813420023145454" lon="-2.644575710440907"><ele>1078.0</ele><time>2026-05-03T12:24:48.001Z</time></trkpt><trkpt lat="41.81342867399923" lon="-2.644416620723305"><ele>1078.0</ele><time>2026-05-03T12:24:49.001Z</time></trkpt><trkpt lat="41.81342784793418" lon="-2.6442862256727273"><ele>1078.0</ele><time>2026-05-03T12:24:50.001Z</time></trkpt><trkpt lat="41.813437344763855" lon="-2.6441526753349267"><ele>1078.0</ele><time>2026-05-03T12:24:51.001Z</time></trkpt><trkpt lat="41.8134399752757" lon="-2.644025563726411"><ele>1078.5</ele><time>2026-05-03T12:24:52.001Z</time></trkpt><trkpt lat="41.81344353790719" lon="-2.6438968286887823"><ele>1079.0</ele><time>2026-05-03T12:24:53.001Z</time></trkpt><trkpt lat="41.813446373733704" lon="-2.643776169764918"><ele>1079.5</ele><time>2026-05-03T12:24:54.001Z</time></trkpt><trkpt lat="41.81345355279675" lon="-2.643661988890942"><ele>1080.0</ele><time>2026-05-03T12:24:55.001Z</time></trkpt><trkpt lat="41.8134591171238" lon="-2.6435561746828915"><ele>1080.5</ele><time>2026-05-03T12:24:56.001Z</time></trkpt><trkpt lat="41.81346251820712" lon="-2.6434548269414853"><ele>1081.0</ele><time>2026-05-03T12:24:57.001Z</time></trkpt><trkpt lat="41.813467173368416" lon="-2.6433603076964363"><ele>1081.0</ele><time>2026-05-03T12:24:58.001Z</time></trkpt><trkpt lat="41.813471187669705" lon="-2.64327139454174"><ele>1081.0</ele><time>2026-05-03T12:24:59.001Z</time></trkpt><trkpt lat="41.813470877980386" lon="-2.643114483457173"><ele>1081.0</ele><time>2026-05-03T12:25:01.001Z</time></trkpt><trkpt lat="41.81347848230692" lon="-2.642953377412597"><ele>1081.0</ele><time>2026-05-03T12:25:03.001Z</time></trkpt><trkpt lat="41.81348170668296" lon="-2.6428587175624076"><ele>1081.0</ele><time>2026-05-03T12:25:04.001Z</time></trkpt><trkpt lat="41.81348162283485" lon="-2.642760795997617"><ele>1081.0</ele><time>2026-05-03T12:25:05.001Z</time></trkpt><trkpt lat="41.81348246127441" lon="-2.642649655213188"><ele>1080.8333333333333</ele><time>2026-05-03T12:25:06.001Z</time></trkpt><trkpt lat="41.81348296201253" lon="-2.6425390647542457"><ele>1080.6666666666665</ele><time>2026-05-03T12:25:07.001Z</time></trkpt><trkpt lat="41.81348960620061" lon="-2.6424232221792145"><ele>1080.5</ele><time>2026-05-03T12:25:08.001Z</time></trkpt><trkpt lat="41.813496038255806" lon="-2.6423036137481595"><ele>1080.3333333333333</ele><time>2026-05-03T12:25:09.001Z</time></trkpt><trkpt lat="41.81349985318757" lon="-2.6421829305014133"><ele>1080.1666666666667</ele><time>2026-05-03T12:25:10.001Z</time></trkpt><trkpt lat="41.81350316535746" lon="-2.6420584251500756"><ele>1080.0</ele><time>2026-05-03T12:25:11.001Z</time></trkpt><trkpt lat="41.813506233265926" lon="-2.6419318119828263"><ele>1080.6</ele><time>2026-05-03T12:25:12.001Z</time></trkpt><trkpt lat="41.81351752751036" lon="-2.641806167923547"><ele>1081.2</ele><time>2026-05-03T12:25:13.001Z</time></trkpt><trkpt lat="41.813523485037955" lon="-2.641675463650019"><ele>1081.8</ele><time>2026-05-03T12:25:14.001Z</time></trkpt><trkpt lat="41.81352839119754" lon="-2.6415418095525385"><ele>1082.4</ele><time>2026-05-03T12:25:15.001Z</time></trkpt><trkpt lat="41.813533669431976" lon="-2.641408121976385"><ele>1083.0</ele><time>2026-05-03T12:25:16.001Z</time></trkpt><trkpt lat="41.81353906769287" lon="-2.6412740796288388"><ele>1083.0</ele><time>2026-05-03T12:25:17.001Z</time></trkpt><trkpt lat="41.81354365686909" lon="-2.6411376010241354"><ele>1083.0</ele><time>2026-05-03T12:25:18.001Z</time></trkpt><trkpt lat="41.813552338963994" lon="-2.6409993392428"><ele>1083.0</ele><time>2026-05-03T12:25:19Z</time></trkpt><trkpt lat="41.81355688505154" lon="-2.6408610581434067"><ele>1083.0</ele><time>2026-05-03T12:25:20Z</time></trkpt><trkpt lat="41.81355885314044" lon="-2.640724654654833"><ele>1083.0</ele><time>2026-05-03T12:25:21Z</time></trkpt><trkpt lat="41.8135663732551" lon="-2.64058719808036"><ele>1083.4</ele><time>2026-05-03T12:25:22Z</time></trkpt><trkpt lat="41.81357205350916" lon="-2.6404475821169386"><ele>1083.8</ele><time>2026-05-03T12:25:23Z</time></trkpt><trkpt lat="41.81357372510525" lon="-2.6403055200154655"><ele>1084.2</ele><time>2026-05-03T12:25:24Z</time></trkpt><trkpt lat="41.81357773925085" lon="-2.6401647447090433"><ele>1084.6</ele><time>2026-05-03T12:25:25Z</time></trkpt><trkpt lat="41.81358199696969" lon="-2.640029556620569"><ele>1085.0</ele><time>2026-05-03T12:25:26Z</time></trkpt><trkpt lat="41.81359107738471" lon="-2.6398924242148105"><ele>1085.2</ele><time>2026-05-03T12:25:27Z</time></trkpt><trkpt lat="41.81359253598733" lon="-2.6397516888705135"><ele>1085.4</ele><time>2026-05-03T12:25:28Z</time></trkpt><trkpt lat="41.81359639062809" lon="-2.639615229902473"><ele>1085.6</ele><time>2026-05-03T12:25:29Z</time></trkpt><trkpt lat="41.813603599778354" lon="-2.6394798106041035"><ele>1085.8</ele><time>2026-05-03T12:25:30Z</time></trkpt><trkpt lat="41.813606214919254" lon="-2.639339967187749"><ele>1086.0</ele><time>2026-05-03T12:25:31Z</time></trkpt><trkpt lat="41.81360761739717" lon="-2.6391999878680314"><ele>1085.6</ele><time>2026-05-03T12:25:32Z</time></trkpt><trkpt lat="41.81361221036062" lon="-2.639060496726343"><ele>1085.1999999999998</ele><time>2026-05-03T12:25:33Z</time></trkpt><trkpt lat="41.81361296614719" lon="-2.6389228134264977"><ele>1084.8000000000002</ele><time>2026-05-03T12:25:34Z</time></trkpt><trkpt lat="41.813614187281686" lon="-2.6387841688134066"><ele>1084.4</ele><time>2026-05-03T12:25:35Z</time></trkpt><trkpt lat="41.81359709628691" lon="-2.6386418169352757"><ele>1084.0</ele><time>2026-05-03T12:25:36Z</time></trkpt><trkpt lat="41.813611036486606" lon="-2.638498653533769"><ele>1083.8</ele><time>2026-05-03T12:25:37Z</time></trkpt><trkpt lat="41.81360823561898" lon="-2.638351097257005"><ele>1083.6000000000001</ele><time>2026-05-03T12:25:38Z</time></trkpt><trkpt lat="41.81360020204268" lon="-2.6382068850410807"><ele>1083.4</ele><time>2026-05-03T12:25:39Z</time></trkpt><trkpt lat="41.813587048478595" lon="-2.638064535846732"><ele>1083.2</ele><time>2026-05-03T12:25:40Z</time></trkpt><trkpt lat="41.813574645702076" lon="-2.6379189573892994"><ele>1083.0</ele><time>2026-05-03T12:25:41Z</time></trkpt><trkpt lat="41.8135653464181" lon="-2.637768349839966"><ele>1082.8</ele><time>2026-05-03T12:25:42Z</time></trkpt><trkpt lat="41.813553383130206" lon="-2.6376261476404026"><ele>1082.6</ele><time>2026-05-03T12:25:43Z</time></trkpt><trkpt lat="41.81353154190579" lon="-2.637481298548885"><ele>1082.4</ele><time>2026-05-03T12:25:44Z</time></trkpt><trkpt lat="41.81351749058408" lon="-2.637334147252276"><ele>1082.2</ele><time>2026-05-03T12:25:45Z</time></trkpt><trkpt lat="41.81349294102201" lon="-2.6371907954335554"><ele>1082.0</ele><time>2026-05-03T12:25:46Z</time></trkpt><trkpt lat="41.81347434506002" lon="-2.637043132803009"><ele>1080.25</ele><time>2026-05-03T12:25:47Z</time></trkpt><trkpt lat="41.81342668259369" lon="-2.6368969740778647"><ele>1078.5</ele><time>2026-05-03T12:25:48Z</time></trkpt><trkpt lat="41.813358183850994" lon="-2.6367743183942824"><ele>1076.75</ele><time>2026-05-03T12:25:49Z</time></trkpt><trkpt lat="41.813407312703106" lon="-2.636607378888171"><ele>1075.0</ele><time>2026-05-03T12:25:50Z</time></trkpt><trkpt lat="41.81338617330123" lon="-2.6364554405924445"><ele>1075.0</ele><time>2026-05-03T12:25:51Z</time></trkpt><trkpt lat="41.813363614296385" lon="-2.636306354427762"><ele>1075.0</ele><time>2026-05-03T12:25:52Z</time></trkpt><trkpt lat="41.81334334842303" lon="-2.636163304431707"><ele>1075.0</ele><time>2026-05-03T12:25:53Z</time></trkpt><trkpt lat="41.813320794099695" lon="-2.6360221873092375"><ele>1075.0</ele><time>2026-05-03T12:25:54Z</time></trkpt><trkpt lat="41.813299111946996" lon="-2.6358790202321067"><ele>1075.0</ele><time>2026-05-03T12:25:55Z</time></trkpt><trkpt lat="41.81327588777189" lon="-2.635737204105397"><ele>1074.8</ele><time>2026-05-03T12:25:56Z</time></trkpt><trkpt lat="41.81325190717958" lon="-2.635596262762287"><ele>1074.6</ele><time>2026-05-03T12:25:57Z</time></trkpt><trkpt lat="41.81322751184054" lon="-2.6354503626126697"><ele>1074.4</ele><time>2026-05-03T12:25:58Z</time></trkpt><trkpt lat="41.81320507497737" lon="-2.6353071410131474"><ele>1074.2</ele><time>2026-05-03T12:25:59Z</time></trkpt><trkpt lat="41.8131809872666" lon="-2.6351666057383305"><ele>1074.0</ele><time>2026-05-03T12:26:00Z</time></trkpt><trkpt lat="41.81315829959801" lon="-2.6350229499909434"><ele>1074.0</ele><time>2026-05-03T12:26:01Z</time></trkpt><trkpt lat="41.813132033888955" lon="-2.6348803441768367"><ele>1074.0</ele><time>2026-05-03T12:26:02Z</time></trkpt><trkpt lat="41.813107498598725" lon="-2.6347348562283113"><ele>1074.0</ele><time>2026-05-03T12:26:03Z</time></trkpt><trkpt lat="41.813085596543544" lon="-2.6345863697432335"><ele>1074.0</ele><time>2026-05-03T12:26:04Z</time></trkpt><trkpt lat="41.81306152710976" lon="-2.6344398824060393"><ele>1074.0</ele><time>2026-05-03T12:26:05Z</time></trkpt><trkpt lat="41.813038980155575" lon="-2.6342931367560114"><ele>1073.25</ele><time>2026-05-03T12:26:06Z</time></trkpt><trkpt lat="41.81301361229006" lon="-2.6341463213664076"><ele>1072.5</ele><time>2026-05-03T12:26:07Z</time></trkpt><trkpt lat="41.81298920510193" lon="-2.633999041136523"><ele>1071.75</ele><time>2026-05-03T12:26:08.001Z</time></trkpt><trkpt lat="41.81296867150018" lon="-2.633849850200135"><ele>1071.0</ele><time>2026-05-03T12:26:09.001Z</time></trkpt><trkpt lat="41.81294267105791" lon="-2.6337010135011276"><ele>1070.75</ele><time>2026-05-03T12:26:10.001Z</time></trkpt><trkpt lat="41.812918621482176" lon="-2.6335502980351286"><ele>1070.5</ele><time>2026-05-03T12:26:11.001Z</time></trkpt><trkpt lat="41.81289480343169" lon="-2.6334026219349393"><ele>1070.25</ele><time>2026-05-03T12:26:12.001Z</time></trkpt><trkpt lat="41.81287218307697" lon="-2.633253505364004"><ele>1070.0</ele><time>2026-05-03T12:26:13.001Z</time></trkpt><trkpt lat="41.81285313476197" lon="-2.6331075984519052"><ele>1070.0</ele><time>2026-05-03T12:26:14.001Z</time></trkpt><trkpt lat="41.812829529531136" lon="-2.632957865296733"><ele>1070.0</ele><time>2026-05-03T12:26:15.001Z</time></trkpt><trkpt lat="41.81280644450726" lon="-2.6328102323917317"><ele>1070.0</ele><time>2026-05-03T12:26:16.001Z</time></trkpt><trkpt lat="41.812782654136356" lon="-2.6326672356431824"><ele>1070.0</ele><time>2026-05-03T12:26:17.001Z</time></trkpt><trkpt lat="41.81275785841118" lon="-2.6325236075814877"><ele>1070.0</ele><time>2026-05-03T12:26:18.001Z</time></trkpt><trkpt lat="41.81273334977686" lon="-2.632376273471417"><ele>1070.0</ele><time>2026-05-03T12:26:19.001Z</time></trkpt><trkpt lat="41.81271034220907" lon="-2.632233164433972"><ele>1070.0</ele><time>2026-05-03T12:26:20.001Z</time></trkpt><trkpt lat="41.812686478577575" lon="-2.6320888575830947"><ele>1070.0</ele><time>2026-05-03T12:26:21.001Z</time></trkpt><trkpt lat="41.81266033431306" lon="-2.631946233915845"><ele>1070.0</ele><time>2026-05-03T12:26:22.001Z</time></trkpt><trkpt lat="41.81263735784885" lon="-2.6318014511478798"><ele>1070.0</ele><time>2026-05-03T12:26:23.001Z</time></trkpt><trkpt lat="41.81261278802668" lon="-2.631656353106128"><ele>1070.0</ele><time>2026-05-03T12:26:24.001Z</time></trkpt><trkpt lat="41.812587665267905" lon="-2.6315117903118304"><ele>1070.0</ele><time>2026-05-03T12:26:25.001Z</time></trkpt><trkpt lat="41.81256290864647" lon="-2.6313667295844123"><ele>1070.0</ele><time>2026-05-03T12:26:26.001Z</time></trkpt><trkpt lat="41.812542102677966" lon="-2.6312218581506706"><ele>1070.0</ele><time>2026-05-03T12:26:27.001Z</time></trkpt><trkpt lat="41.81251944223093" lon="-2.63107946191114"><ele>1070.0</ele><time>2026-05-03T12:26:28.001Z</time></trkpt><trkpt lat="41.81249367326559" lon="-2.630940113587525"><ele>1069.6</ele><time>2026-05-03T12:26:29.001Z</time></trkpt><trkpt lat="41.81248005552629" lon="-2.630791544570802"><ele>1069.2</ele><time>2026-05-03T12:26:30.001Z</time></trkpt><trkpt lat="41.81245560168647" lon="-2.6306492158531656"><ele>1068.8</ele><time>2026-05-03T12:26:31.001Z</time></trkpt><trkpt lat="41.812431866840114" lon="-2.630507864874863"><ele>1068.4</ele><time>2026-05-03T12:26:32.001Z</time></trkpt><trkpt lat="41.81240772010204" lon="-2.6303672315959385"><ele>1068.0</ele><time>2026-05-03T12:26:33.001Z</time></trkpt><trkpt lat="41.81238460337687" lon="-2.6302253214861353"><ele>1067.6</ele><time>2026-05-03T12:26:34.001Z</time></trkpt><trkpt lat="41.812363214688375" lon="-2.630080515704786"><ele>1067.1999999999998</ele><time>2026-05-03T12:26:35.001Z</time></trkpt><trkpt lat="41.8123394739329" lon="-2.62993793800626"><ele>1066.8</ele><time>2026-05-03T12:26:36.001Z</time></trkpt><trkpt lat="41.81231402247375" lon="-2.6297996110589232"><ele>1066.3999999999999</ele><time>2026-05-03T12:26:37.001Z</time></trkpt><trkpt lat="41.812290414180616" lon="-2.629657630652424"><ele>1066.0</ele><time>2026-05-03T12:26:38.001Z</time></trkpt><trkpt lat="41.81226641700766" lon="-2.629510007383922"><ele>1066.2</ele><time>2026-05-03T12:26:39.001Z</time></trkpt><trkpt lat="41.81225256559202" lon="-2.6293694571410313"><ele>1066.3999999999999</ele><time>2026-05-03T12:26:40.001Z</time></trkpt><trkpt lat="41.812223043534736" lon="-2.6292164880885553"><ele>1066.6</ele><time>2026-05-03T12:26:41.001Z</time></trkpt><trkpt lat="41.812198173071025" lon="-2.62907096206445"><ele>1066.8</ele><time>2026-05-03T12:26:42.001Z</time></trkpt><trkpt lat="41.812174320144486" lon="-2.6289238838304905"><ele>1067.0</ele><time>2026-05-03T12:26:43.001Z</time></trkpt><trkpt lat="41.8121591739909" lon="-2.628773061851473"><ele>1067.0</ele><time>2026-05-03T12:26:44.001Z</time></trkpt><trkpt lat="41.81213729913906" lon="-2.6286263383237976"><ele>1067.0</ele><time>2026-05-03T12:26:45.001Z</time></trkpt><trkpt lat="41.81211362329263" lon="-2.6284816785780323"><ele>1067.0</ele><time>2026-05-03T12:26:46.001Z</time></trkpt><trkpt lat="41.81208705659243" lon="-2.6283341959713935"><ele>1067.0</ele><time>2026-05-03T12:26:47.001Z</time></trkpt><trkpt lat="41.812063196893284" lon="-2.628188688970789"><ele>1067.0</ele><time>2026-05-03T12:26:48.001Z</time></trkpt><trkpt lat="41.81204076450103" lon="-2.6280467658200064"><ele>1067.0</ele><time>2026-05-03T12:26:49.001Z</time></trkpt><trkpt lat="41.81201720987115" lon="-2.6278985212795023"><ele>1067.0</ele><time>2026-05-03T12:26:50.001Z</time></trkpt><trkpt lat="41.81199375583997" lon="-2.6277491161843214"><ele>1067.0</ele><time>2026-05-03T12:26:51.001Z</time></trkpt><trkpt lat="41.81197046131683" lon="-2.627605895683834"><ele>1067.0</ele><time>2026-05-03T12:26:52.001Z</time></trkpt><trkpt lat="41.81194757888677" lon="-2.6274570703066877"><ele>1067.0</ele><time>2026-05-03T12:26:53.001Z</time></trkpt><trkpt lat="41.811925776579066" lon="-2.6273079870664"><ele>1066.6</ele><time>2026-05-03T12:26:54.001Z</time></trkpt><trkpt lat="41.81190034876836" lon="-2.6271623346466653"><ele>1066.2</ele><time>2026-05-03T12:26:55.001Z</time></trkpt><trkpt lat="41.811879616546676" lon="-2.627018814686216"><ele>1065.8</ele><time>2026-05-03T12:26:56.001Z</time></trkpt><trkpt lat="41.81185674843083" lon="-2.626870280060041"><ele>1065.4</ele><time>2026-05-03T12:26:57.001Z</time></trkpt><trkpt lat="41.81183289797692" lon="-2.626724778608423"><ele>1065.0</ele><time>2026-05-03T12:26:58.001Z</time></trkpt><trkpt lat="41.81180958818607" lon="-2.626576690561407"><ele>1065.25</ele><time>2026-05-03T12:26:59.001Z</time></trkpt><trkpt lat="41.811789284004675" lon="-2.6264261940431277"><ele>1065.5</ele><time>2026-05-03T12:27:00.001Z</time></trkpt><trkpt lat="41.81176593495641" lon="-2.626276746531903"><ele>1065.75</ele><time>2026-05-03T12:27:01.001Z</time></trkpt><trkpt lat="41.81174303492675" lon="-2.6261316154881222"><ele>1066.0</ele><time>2026-05-03T12:27:02.001Z</time></trkpt><trkpt lat="41.811719376069576" lon="-2.6259809833598795"><ele>1066.0</ele><time>2026-05-03T12:27:03.001Z</time></trkpt><trkpt lat="41.81169375214795" lon="-2.6258305902144268"><ele>1066.0</ele><time>2026-05-03T12:27:04.001Z</time></trkpt><trkpt lat="41.8116669449435" lon="-2.6256819783091325"><ele>1066.0</ele><time>2026-05-03T12:27:05.001Z</time></trkpt><trkpt lat="41.8116407108478" lon="-2.6255303288466365"><ele>1066.0</ele><time>2026-05-03T12:27:06.001Z</time></trkpt><trkpt lat="41.81161761503565" lon="-2.6253805082191355"><ele>1065.75</ele><time>2026-05-03T12:27:07.001Z</time></trkpt><trkpt lat="41.81159272070892" lon="-2.6252298050325558"><ele>1065.5</ele><time>2026-05-03T12:27:08.001Z</time></trkpt><trkpt lat="41.81157023543454" lon="-2.625078611869164"><ele>1065.25</ele><time>2026-05-03T12:27:09.001Z</time></trkpt><trkpt lat="41.8115496338795" lon="-2.6249251752041913"><ele>1065.0</ele><time>2026-05-03T12:27:10.001Z</time></trkpt><trkpt lat="41.81152658335009" lon="-2.624773895342362"><ele>1065.0</ele><time>2026-05-03T12:27:11.001Z</time></trkpt><trkpt lat="41.81150276900664" lon="-2.624624320160427"><ele>1065.0</ele><time>2026-05-03T12:27:12.001Z</time></trkpt><trkpt lat="41.811482067256804" lon="-2.624469686098878"><ele>1065.0</ele><time>2026-05-03T12:27:13.001Z</time></trkpt><trkpt lat="41.811457313593515" lon="-2.6243181416557446"><ele>1065.0</ele><time>2026-05-03T12:27:14.001Z</time></trkpt><trkpt lat="41.811430817935815" lon="-2.6241689200663334"><ele>1065.0</ele><time>2026-05-03T12:27:15.001Z</time></trkpt><trkpt lat="41.811406448597054" lon="-2.624017048440539"><ele>1065.0</ele><time>2026-05-03T12:27:16.001Z</time></trkpt><trkpt lat="41.81138325268045" lon="-2.623868811929621"><ele>1065.0</ele><time>2026-05-03T12:27:17.001Z</time></trkpt><trkpt lat="41.81135863496631" lon="-2.62371945558984"><ele>1065.0</ele><time>2026-05-03T12:27:18.001Z</time></trkpt><trkpt lat="41.81133483646806" lon="-2.6235692642673096"><ele>1065.0</ele><time>2026-05-03T12:27:19.001Z</time></trkpt><trkpt lat="41.811310335962716" lon="-2.623421659439551"><ele>1065.0</ele><time>2026-05-03T12:27:20.001Z</time></trkpt><trkpt lat="41.81128608184218" lon="-2.623274256568811"><ele>1065.0</ele><time>2026-05-03T12:27:21.001Z</time></trkpt><trkpt lat="41.81126215241558" lon="-2.623128641918457"><ele>1065.0</ele><time>2026-05-03T12:27:22.001Z</time></trkpt><trkpt lat="41.811235393675204" lon="-2.6229850130146635"><ele>1065.0</ele><time>2026-05-03T12:27:23.001Z</time></trkpt><trkpt lat="41.81120315352427" lon="-2.6228426534720155"><ele>1065.2</ele><time>2026-05-03T12:27:24.001Z</time></trkpt><trkpt lat="41.811181269221294" lon="-2.622694033097841"><ele>1065.4</ele><time>2026-05-03T12:27:25Z</time></trkpt><trkpt lat="41.81115400027111" lon="-2.622549599394736"><ele>1065.6</ele><time>2026-05-03T12:27:26Z</time></trkpt><trkpt lat="41.81113078547439" lon="-2.6224117239173412"><ele>1065.8</ele><time>2026-05-03T12:27:27Z</time></trkpt><trkpt lat="41.81110421227272" lon="-2.622278258045059"><ele>1066.0</ele><time>2026-05-03T12:27:28Z</time></trkpt><trkpt lat="41.81107864165365" lon="-2.6221357014294817"><ele>1065.25</ele><time>2026-05-03T12:27:29Z</time></trkpt><trkpt lat="41.811065353236096" lon="-2.621976633493473"><ele>1064.5</ele><time>2026-05-03T12:27:30Z</time></trkpt><trkpt lat="41.811040436816526" lon="-2.6218329135233343"><ele>1063.75</ele><time>2026-05-03T12:27:31Z</time></trkpt><trkpt lat="41.811013980417776" lon="-2.6216849765430545"><ele>1063.0</ele><time>2026-05-03T12:27:32Z</time></trkpt><trkpt lat="41.81099553476165" lon="-2.621537992199126"><ele>1063.4</ele><time>2026-05-03T12:27:33Z</time></trkpt><trkpt lat="41.81097106044982" lon="-2.6213936929900767"><ele>1063.8</ele><time>2026-05-03T12:27:34Z</time></trkpt><trkpt lat="41.8109429323638" lon="-2.6212544535219284"><ele>1064.2</ele><time>2026-05-03T12:27:35Z</time></trkpt><trkpt lat="41.8109175212751" lon="-2.621109963175364"><ele>1064.6</ele><time>2026-05-03T12:27:36Z</time></trkpt><trkpt lat="41.81089496447484" lon="-2.620961706770655"><ele>1065.0</ele><time>2026-05-03T12:27:37Z</time></trkpt><trkpt lat="41.810876550739614" lon="-2.6208164693934264"><ele>1065.0</ele><time>2026-05-03T12:27:38Z</time></trkpt><trkpt lat="41.810849695024544" lon="-2.6206683846875367"><ele>1065.0</ele><time>2026-05-03T12:27:39Z</time></trkpt><trkpt lat="41.81082696218801" lon="-2.6205224372890052"><ele>1065.0</ele><time>2026-05-03T12:27:40Z</time></trkpt><trkpt lat="41.81080170079958" lon="-2.620374963325184"><ele>1065.0</ele><time>2026-05-03T12:27:41Z</time></trkpt><trkpt lat="41.81077844645314" lon="-2.620228627541206"><ele>1065.0</ele><time>2026-05-03T12:27:42Z</time></trkpt><trkpt lat="41.81075431231787" lon="-2.620081059243498"><ele>1064.75</ele><time>2026-05-03T12:27:43Z</time></trkpt><trkpt lat="41.81073106523258" lon="-2.619933558350377"><ele>1064.5</ele><time>2026-05-03T12:27:44Z</time></trkpt><trkpt lat="41.81070698749829" lon="-2.6197852983404446"><ele>1064.25</ele><time>2026-05-03T12:27:45Z</time></trkpt><trkpt lat="41.81068446735779" lon="-2.6196394023000447"><ele>1064.0</ele><time>2026-05-03T12:27:46Z</time></trkpt><trkpt lat="41.810661744963035" lon="-2.6194905749648933"><ele>1063.75</ele><time>2026-05-03T12:27:47Z</time></trkpt><trkpt lat="41.810639707037545" lon="-2.619344122651851"><ele>1063.5</ele><time>2026-05-03T12:27:48Z</time></trkpt><trkpt lat="41.810615245168954" lon="-2.6191944596222467"><ele>1063.25</ele><time>2026-05-03T12:27:49Z</time></trkpt><trkpt lat="41.810591802156374" lon="-2.619046600941354"><ele>1063.0</ele><time>2026-05-03T12:27:50Z</time></trkpt><trkpt lat="41.81056469637464" lon="-2.6188959242490046"><ele>1063.0</ele><time>2026-05-03T12:27:51Z</time></trkpt><trkpt lat="41.810539434100185" lon="-2.6187461481039445"><ele>1063.0</ele><time>2026-05-03T12:27:52Z</time></trkpt><trkpt lat="41.81051736591004" lon="-2.61859777865797"><ele>1063.0</ele><time>2026-05-03T12:27:53Z</time></trkpt><trkpt lat="41.81049321782739" lon="-2.6184444467457304"><ele>1063.0</ele><time>2026-05-03T12:27:54Z</time></trkpt><trkpt lat="41.81046944582005" lon="-2.6182925157755297"><ele>1063.0</ele><time>2026-05-03T12:27:55Z</time></trkpt><trkpt lat="41.81044904319716" lon="-2.618140465958234"><ele>1063.0</ele><time>2026-05-03T12:27:56Z</time></trkpt><trkpt lat="41.8104257124062" lon="-2.6179874357172372"><ele>1063.0</ele><time>2026-05-03T12:27:57Z</time></trkpt><trkpt lat="41.81040343350376" lon="-2.6178357319569865"><ele>1063.0</ele><time>2026-05-03T12:27:58Z</time></trkpt><trkpt lat="41.8103817710283" lon="-2.6176845746459207"><ele>1062.75</ele><time>2026-05-03T12:27:59Z</time></trkpt><trkpt lat="41.81036163520665" lon="-2.6175338646356434"><ele>1062.5</ele><time>2026-05-03T12:28:00Z</time></trkpt><trkpt lat="41.810341005921416" lon="-2.617379317455369"><ele>1062.25</ele><time>2026-05-03T12:28:01Z</time></trkpt><trkpt lat="41.81031804210189" lon="-2.6172280843708493"><ele>1062.0</ele><time>2026-05-03T12:28:02Z</time></trkpt><trkpt lat="41.81029259823545" lon="-2.6170794215693447"><ele>1061.75</ele><time>2026-05-03T12:28:03Z</time></trkpt><trkpt lat="41.81026689621174" lon="-2.6169292424700665"><ele>1061.5</ele><time>2026-05-03T12:28:04Z</time></trkpt><trkpt lat="41.81024407916429" lon="-2.616780636797068"><ele>1061.25</ele><time>2026-05-03T12:28:05Z</time></trkpt><trkpt lat="41.81022135353344" lon="-2.616633139841251"><ele>1061.0</ele><time>2026-05-03T12:28:06Z</time></trkpt><trkpt lat="41.810199674537856" lon="-2.61648500223048"><ele>1061.0</ele><time>2026-05-03T12:28:07Z</time></trkpt><trkpt lat="41.81017649528886" lon="-2.616335071323565"><ele>1061.0</ele><time>2026-05-03T12:28:08Z</time></trkpt><trkpt lat="41.81015527994346" lon="-2.6161875860846178"><ele>1061.0</ele><time>2026-05-03T12:28:09Z</time></trkpt><trkpt lat="41.81013234389607" lon="-2.616039441099296"><ele>1061.0</ele><time>2026-05-03T12:28:10Z</time></trkpt><trkpt lat="41.81010898438433" lon="-2.6158928249955453"><ele>1061.2</ele><time>2026-05-03T12:28:11Z</time></trkpt><trkpt lat="41.81008625029766" lon="-2.6157413926792863"><ele>1061.3999999999999</ele><time>2026-05-03T12:28:12Z</time></trkpt><trkpt lat="41.81006095238504" lon="-2.6155984338242977"><ele>1061.6</ele><time>2026-05-03T12:28:13Z</time></trkpt><trkpt lat="41.81003550023399" lon="-2.6154540200524115"><ele>1061.8</ele><time>2026-05-03T12:28:14Z</time></trkpt><trkpt lat="41.81001215069979" lon="-2.6153070252873016"><ele>1062.0</ele><time>2026-05-03T12:28:15Z</time></trkpt><trkpt lat="41.80998723356108" lon="-2.6151624982783095"><ele>1062.0</ele><time>2026-05-03T12:28:16Z</time></trkpt><trkpt lat="41.80996409240996" lon="-2.615016200506513"><ele>1062.0</ele><time>2026-05-03T12:28:17Z</time></trkpt><trkpt lat="41.80994183178547" lon="-2.61487695674104"><ele>1062.0</ele><time>2026-05-03T12:28:18Z</time></trkpt><trkpt lat="41.80991756702048" lon="-2.614725043679454"><ele>1062.0</ele><time>2026-05-03T12:28:19Z</time></trkpt><trkpt lat="41.80989268522356" lon="-2.614583058886836"><ele>1062.0</ele><time>2026-05-03T12:28:20Z</time></trkpt><trkpt lat="41.80987158583184" lon="-2.6144371385493277"><ele>1061.8</ele><time>2026-05-03T12:28:21Z</time></trkpt><trkpt lat="41.80984958563069" lon="-2.614289468204377"><ele>1061.6</ele><time>2026-05-03T12:28:22Z</time></trkpt><trkpt lat="41.80982792892972" lon="-2.614144378980436"><ele>1061.3999999999999</ele><time>2026-05-03T12:28:23Z</time></trkpt><trkpt lat="41.80980600524515" lon="-2.613996789064445"><ele>1061.2</ele><time>2026-05-03T12:28:24Z</time></trkpt><trkpt lat="41.809783254673064" lon="-2.6138502416063862"><ele>1061.0</ele><time>2026-05-03T12:28:25Z</time></trkpt><trkpt lat="41.809758881626536" lon="-2.613704340647994"><ele>1060.8</ele><time>2026-05-03T12:28:26Z</time></trkpt><trkpt lat="41.80973459675768" lon="-2.6135580794566637"><ele>1060.6</ele><time>2026-05-03T12:28:27Z</time></trkpt><trkpt lat="41.809711240450824" lon="-2.6134135914388286"><ele>1060.4</ele><time>2026-05-03T12:28:28Z</time></trkpt><trkpt lat="41.80969157409064" lon="-2.613277154980229"><ele>1060.2</ele><time>2026-05-03T12:28:29Z</time></trkpt><trkpt lat="41.80966304450318" lon="-2.613147452841773"><ele>1060.0</ele><time>2026-05-03T12:28:30Z</time></trkpt><trkpt lat="41.809638945622694" lon="-2.6129912128360675"><ele>1060.0</ele><time>2026-05-03T12:28:31Z</time></trkpt><trkpt lat="41.80961745959669" lon="-2.61285557552466"><ele>1060.0</ele><time>2026-05-03T12:28:32Z</time></trkpt><trkpt lat="41.80959820951184" lon="-2.6127211296436017"><ele>1060.0</ele><time>2026-05-03T12:28:33Z</time></trkpt><trkpt lat="41.80957887700491" lon="-2.612589736172452"><ele>1060.0</ele><time>2026-05-03T12:28:34Z</time></trkpt><trkpt lat="41.809559456943624" lon="-2.612459860082894"><ele>1060.0</ele><time>2026-05-03T12:28:35Z</time></trkpt><trkpt lat="41.80953916310938" lon="-2.612330830206556"><ele>1060.4</ele><time>2026-05-03T12:28:36Z</time></trkpt><trkpt lat="41.809517523942425" lon="-2.612204405759566"><ele>1060.8</ele><time>2026-05-03T12:28:37Z</time></trkpt><trkpt lat="41.80949677793418" lon="-2.6120766301835885"><ele>1061.2</ele><time>2026-05-03T12:28:38Z</time></trkpt><trkpt lat="41.80947802663297" lon="-2.611949703688824"><ele>1061.6</ele><time>2026-05-03T12:28:39Z</time></trkpt><trkpt lat="41.8094582155399" lon="-2.6118276965638954"><ele>1062.0</ele><time>2026-05-03T12:28:40Z</time></trkpt><trkpt lat="41.80943811450186" lon="-2.6116989486366022"><ele>1062.2</ele><time>2026-05-03T12:28:41Z</time></trkpt><trkpt lat="41.809419850797674" lon="-2.6115749021287074"><ele>1062.4</ele><time>2026-05-03T12:28:42Z</time></trkpt><trkpt lat="41.80940004277613" lon="-2.6114488644010536"><ele>1062.6</ele><time>2026-05-03T12:28:43Z</time></trkpt><trkpt lat="41.809375949823234" lon="-2.6113196394607687"><ele>1062.8</ele><time>2026-05-03T12:28:44Z</time></trkpt><trkpt lat="41.809355811510414" lon="-2.611188304630273"><ele>1063.0</ele><time>2026-05-03T12:28:45Z</time></trkpt><trkpt lat="41.80933366989958" lon="-2.6110576749605903"><ele>1064.0</ele><time>2026-05-03T12:28:46Z</time></trkpt><trkpt lat="41.809311778242076" lon="-2.610924620605622"><ele>1065.0</ele><time>2026-05-03T12:28:47.001Z</time></trkpt><trkpt lat="41.809288554921515" lon="-2.6107882336217774"><ele>1066.0</ele><time>2026-05-03T12:28:48.001Z</time></trkpt><trkpt lat="41.80926620120162" lon="-2.6106531575645686"><ele>1067.0</ele><time>2026-05-03T12:28:49.001Z</time></trkpt><trkpt lat="41.8092443159041" lon="-2.610514796779437"><ele>1068.0</ele><time>2026-05-03T12:28:50.001Z</time></trkpt><trkpt lat="41.80922352429555" lon="-2.6103740007664253"><ele>1067.0</ele><time>2026-05-03T12:28:51.001Z</time></trkpt><trkpt lat="41.80920143247632" lon="-2.610231049764416"><ele>1066.0</ele><time>2026-05-03T12:28:52.001Z</time></trkpt><trkpt lat="41.80917748410491" lon="-2.610085480410642"><ele>1065.0</ele><time>2026-05-03T12:28:53.001Z</time></trkpt><trkpt lat="41.80915344563096" lon="-2.6099555392921614"><ele>1064.0</ele><time>2026-05-03T12:28:54.001Z</time></trkpt><trkpt lat="41.80912398196163" lon="-2.6097857383918606"><ele>1064.0</ele><time>2026-05-03T12:28:55.001Z</time></trkpt><trkpt lat="41.8090803777855" lon="-2.609550255873746"><ele>1064.0</ele><time>2026-05-03T12:28:56.001Z</time></trkpt><trkpt lat="41.80902358401253" lon="-2.609286259587842"><ele>1064.0</ele><time>2026-05-03T12:28:57.001Z</time></trkpt><trkpt lat="41.80906566948911" lon="-2.6093684302746385"><ele>1064.4</ele><time>2026-05-03T12:28:58.001Z</time></trkpt><trkpt lat="41.80904298132198" lon="-2.6092241835919516"><ele>1064.8000000000002</ele><time>2026-05-03T12:28:59.001Z</time></trkpt><trkpt lat="41.80902079459738" lon="-2.6090784534878786"><ele>1065.1999999999998</ele><time>2026-05-03T12:29:00.001Z</time></trkpt><trkpt lat="41.8089975066049" lon="-2.608933073825547"><ele>1065.6</ele><time>2026-05-03T12:29:01.001Z</time></trkpt><trkpt lat="41.80897450856726" lon="-2.6087886117771917"><ele>1066.0</ele><time>2026-05-03T12:29:02.001Z</time></trkpt><trkpt lat="41.808952008770206" lon="-2.608647552076318"><ele>1066.2</ele><time>2026-05-03T12:29:03.001Z</time></trkpt><trkpt lat="41.808928212952374" lon="-2.608506699609"><ele>1066.3999999999999</ele><time>2026-05-03T12:29:04.001Z</time></trkpt><trkpt lat="41.80890506629519" lon="-2.608363013443181"><ele>1066.6</ele><time>2026-05-03T12:29:05.001Z</time></trkpt><trkpt lat="41.808882134037745" lon="-2.6082174225585923"><ele>1066.8</ele><time>2026-05-03T12:29:06.001Z</time></trkpt><trkpt lat="41.80886044675544" lon="-2.608076944026805"><ele>1067.0</ele><time>2026-05-03T12:29:07.001Z</time></trkpt><trkpt lat="41.80883927081591" lon="-2.6079371060895853"><ele>1067.2</ele><time>2026-05-03T12:29:08.001Z</time></trkpt><trkpt lat="41.80881559712923" lon="-2.6077944055476294"><ele>1067.4</ele><time>2026-05-03T12:29:09.001Z</time></trkpt><trkpt lat="41.80879599657524" lon="-2.607656396432137"><ele>1067.6</ele><time>2026-05-03T12:29:10.001Z</time></trkpt><trkpt lat="41.8087730186017" lon="-2.6075160959256065"><ele>1067.8</ele><time>2026-05-03T12:29:11.001Z</time></trkpt><trkpt lat="41.80875065811697" lon="-2.6073757208911057"><ele>1068.0</ele><time>2026-05-03T12:29:12.001Z</time></trkpt><trkpt lat="41.80872704794844" lon="-2.6072321106044223"><ele>1068.0</ele><time>2026-05-03T12:29:13.001Z</time></trkpt><trkpt lat="41.8087051136037" lon="-2.6070894087757104"><ele>1068.0</ele><time>2026-05-03T12:29:14.001Z</time></trkpt><trkpt lat="41.808682971382424" lon="-2.6069496322582997"><ele>1068.0</ele><time>2026-05-03T12:29:15.001Z</time></trkpt><trkpt lat="41.80866042542148" lon="-2.606803390144585"><ele>1068.0</ele><time>2026-05-03T12:29:16.001Z</time></trkpt><trkpt lat="41.808637341802644" lon="-2.606657431433406"><ele>1068.0</ele><time>2026-05-03T12:29:17.001Z</time></trkpt><trkpt lat="41.80861208332752" lon="-2.606510984770376"><ele>1067.25</ele><time>2026-05-03T12:29:18.001Z</time></trkpt><trkpt lat="41.80858648823234" lon="-2.6063620701268535"><ele>1066.5</ele><time>2026-05-03T12:29:19.001Z</time></trkpt><trkpt lat="41.80856384435954" lon="-2.606214707174915"><ele>1065.75</ele><time>2026-05-03T12:29:20.001Z</time></trkpt><trkpt lat="41.808536640620545" lon="-2.6060641818232964"><ele>1065.0</ele><time>2026-05-03T12:29:21.001Z</time></trkpt><trkpt lat="41.80851293866439" lon="-2.605913358772173"><ele>1065.25</ele><time>2026-05-03T12:29:22.001Z</time></trkpt><trkpt lat="41.80848727744172" lon="-2.605764747226998"><ele>1065.5</ele><time>2026-05-03T12:29:23.001Z</time></trkpt><trkpt lat="41.80846735381518" lon="-2.6056173166663323"><ele>1065.75</ele><time>2026-05-03T12:29:24.001Z</time></trkpt><trkpt lat="41.8084455343652" lon="-2.6054687396965663"><ele>1066.0</ele><time>2026-05-03T12:29:25.001Z</time></trkpt><trkpt lat="41.80842175019486" lon="-2.6053214103478815"><ele>1066.0</ele><time>2026-05-03T12:29:26.001Z</time></trkpt><trkpt lat="41.808399561957586" lon="-2.605175609749771"><ele>1066.0</ele><time>2026-05-03T12:29:27.001Z</time></trkpt><trkpt lat="41.80837782997257" lon="-2.6050289717293564"><ele>1066.0</ele><time>2026-05-03T12:29:28.001Z</time></trkpt><trkpt lat="41.808352230819025" lon="-2.6048820738613485"><ele>1066.0</ele><time>2026-05-03T12:29:29.001Z</time></trkpt><trkpt lat="41.80833666624151" lon="-2.6047548260865785"><ele>1066.0</ele><time>2026-05-03T12:29:30.001Z</time></trkpt><trkpt lat="41.808312006422" lon="-2.6046754680240967"><ele>1066.6666666666665</ele><time>2026-05-03T12:29:31Z</time></trkpt><trkpt lat="41.80826290866012" lon="-2.604309902860768"><ele>1067.3333333333333</ele><time>2026-05-03T12:29:33Z</time></trkpt><trkpt lat="41.80824116800117" lon="-2.6041690656456544"><ele>1068.0</ele><time>2026-05-03T12:29:34Z</time></trkpt><trkpt lat="41.8082192114467" lon="-2.6040291052190847"><ele>1068.0</ele><time>2026-05-03T12:29:35Z</time></trkpt><trkpt lat="41.808194924094686" lon="-2.60389205783598"><ele>1068.0</ele><time>2026-05-03T12:29:36Z</time></trkpt><trkpt lat="41.808172171849634" lon="-2.603752266484358"><ele>1068.0</ele><time>2026-05-03T12:29:37Z</time></trkpt><trkpt lat="41.808151020567514" lon="-2.6036160392217287"><ele>1068.0</ele><time>2026-05-03T12:29:38Z</time></trkpt><trkpt lat="41.80812866216351" lon="-2.603479329966935"><ele>1068.0</ele><time>2026-05-03T12:29:39Z</time></trkpt><trkpt lat="41.8081082393922" lon="-2.603343737224347"><ele>1067.8</ele><time>2026-05-03T12:29:40Z</time></trkpt><trkpt lat="41.80808874793306" lon="-2.603210487606122"><ele>1067.6</ele><time>2026-05-03T12:29:41Z</time></trkpt><trkpt lat="41.80806773025602" lon="-2.6030729122835106"><ele>1067.4</ele><time>2026-05-03T12:29:42Z</time></trkpt><trkpt lat="41.80804686653631" lon="-2.602939441854992"><ele>1067.2</ele><time>2026-05-03T12:29:43Z</time></trkpt><trkpt lat="41.8080252584836" lon="-2.6028046088029093"><ele>1067.0</ele><time>2026-05-03T12:29:44Z</time></trkpt><trkpt lat="41.80800423135607" lon="-2.602671006397744"><ele>1067.6</ele><time>2026-05-03T12:29:45Z</time></trkpt><trkpt lat="41.80798236167412" lon="-2.6025399553044757"><ele>1068.2</ele><time>2026-05-03T12:29:46Z</time></trkpt><trkpt lat="41.80796121040618" lon="-2.6024053987170936"><ele>1068.8</ele><time>2026-05-03T12:29:47Z</time></trkpt><trkpt lat="41.80794007605764" lon="-2.6022731788944347"><ele>1069.4</ele><time>2026-05-03T12:29:48Z</time></trkpt><trkpt lat="41.80791647730886" lon="-2.6021407661717837"><ele>1070.0</ele><time>2026-05-03T12:29:49Z</time></trkpt><trkpt lat="41.807895483745845" lon="-2.6020088371807804"><ele>1070.4</ele><time>2026-05-03T12:29:50Z</time></trkpt><trkpt lat="41.80787500136666" lon="-2.6018759928608457"><ele>1070.8</ele><time>2026-05-03T12:29:51Z</time></trkpt><trkpt lat="41.80785125064977" lon="-2.601739711117116"><ele>1071.2</ele><time>2026-05-03T12:29:52Z</time></trkpt><trkpt lat="41.80782926936124" lon="-2.6016062874851533"><ele>1071.6</ele><time>2026-05-03T12:29:53Z</time></trkpt><trkpt lat="41.80780701243265" lon="-2.6014707895994658"><ele>1072.0</ele><time>2026-05-03T12:29:54Z</time></trkpt><trkpt lat="41.80778515019129" lon="-2.601337375266981"><ele>1072.0</ele><time>2026-05-03T12:29:55Z</time></trkpt><trkpt lat="41.80776233217963" lon="-2.601194988930738"><ele>1072.0</ele><time>2026-05-03T12:29:56Z</time></trkpt><trkpt lat="41.807742014177514" lon="-2.6010565759554116"><ele>1072.0</ele><time>2026-05-03T12:29:57Z</time></trkpt><trkpt lat="41.80772198422509" lon="-2.6009173592946424"><ele>1072.0</ele><time>2026-05-03T12:29:58Z</time></trkpt><trkpt lat="41.80770145912185" lon="-2.600782671358215"><ele>1072.0</ele><time>2026-05-03T12:29:59Z</time></trkpt><trkpt lat="41.807678988945966" lon="-2.6006458704907245"><ele>1072.2</ele><time>2026-05-03T12:30:00Z</time></trkpt><trkpt lat="41.807655844650995" lon="-2.600511431600055"><ele>1072.4</ele><time>2026-05-03T12:30:01Z</time></trkpt><trkpt lat="41.80763412062202" lon="-2.6003766011939495"><ele>1072.6</ele><time>2026-05-03T12:30:02Z</time></trkpt><trkpt lat="41.80761306016614" lon="-2.600241345512103"><ele>1072.8</ele><time>2026-05-03T12:30:03Z</time></trkpt><trkpt lat="41.807590684819" lon="-2.6001096897053206"><ele>1073.0</ele><time>2026-05-03T12:30:04Z</time></trkpt><trkpt lat="41.807569054290084" lon="-2.5999752869012385"><ele>1073.2</ele><time>2026-05-03T12:30:05Z</time></trkpt><trkpt lat="41.80754894692129" lon="-2.599840207640862"><ele>1073.4</ele><time>2026-05-03T12:30:06Z</time></trkpt><trkpt lat="41.8075281618051" lon="-2.599708821637594"><ele>1073.6000000000001</ele><time>2026-05-03T12:30:07Z</time></trkpt><trkpt lat="41.80750722814395" lon="-2.59957808940275"><ele>1073.8</ele><time>2026-05-03T12:30:08Z</time></trkpt><trkpt lat="41.807484084895265" lon="-2.5994472780352083"><ele>1074.0</ele><time>2026-05-03T12:30:09Z</time></trkpt><trkpt lat="41.80746433199328" lon="-2.5993192551382522"><ele>1074.6000000000001</ele><time>2026-05-03T12:30:10Z</time></trkpt><trkpt lat="41.807445889091824" lon="-2.599192376631281"><ele>1075.2</ele><time>2026-05-03T12:30:11Z</time></trkpt><trkpt lat="41.80742380179011" lon="-2.5990608366695023"><ele>1075.8000000000002</ele><time>2026-05-03T12:30:12Z</time></trkpt><trkpt lat="41.80740289176248" lon="-2.598931662865534"><ele>1076.4</ele><time>2026-05-03T12:30:13Z</time></trkpt><trkpt lat="41.80738267451818" lon="-2.598802426128798"><ele>1077.0</ele><time>2026-05-03T12:30:14Z</time></trkpt><trkpt lat="41.80736321575385" lon="-2.598673064383238"><ele>1077.4</ele><time>2026-05-03T12:30:15Z</time></trkpt><trkpt lat="41.80734254083214" lon="-2.5985428553517664"><ele>1077.8000000000002</ele><time>2026-05-03T12:30:16Z</time></trkpt><trkpt lat="41.80732253169516" lon="-2.5984116862210302"><ele>1078.2</ele><time>2026-05-03T12:30:17Z</time></trkpt><trkpt lat="41.807301900337144" lon="-2.5982842933335113"><ele>1078.6000000000001</ele><time>2026-05-03T12:30:18Z</time></trkpt><trkpt lat="41.80728174454365" lon="-2.598153701933033"><ele>1079.0</ele><time>2026-05-03T12:30:19Z</time></trkpt><trkpt lat="41.80726342909528" lon="-2.5980263449089396"><ele>1079.0</ele><time>2026-05-03T12:30:20Z</time></trkpt><trkpt lat="41.80724473228822" lon="-2.5978970499161322"><ele>1079.0</ele><time>2026-05-03T12:30:21Z</time></trkpt><trkpt lat="41.807225095246984" lon="-2.597770258699957"><ele>1079.0</ele><time>2026-05-03T12:30:22Z</time></trkpt><trkpt lat="41.80720484844901" lon="-2.59763821879493"><ele>1079.0</ele><time>2026-05-03T12:30:23Z</time></trkpt><trkpt lat="41.80718218407872" lon="-2.597513301880566"><ele>1079.0</ele><time>2026-05-03T12:30:24Z</time></trkpt><trkpt lat="41.80716426978146" lon="-2.597384240571608"><ele>1079.2</ele><time>2026-05-03T12:30:25Z</time></trkpt><trkpt lat="41.80714055025426" lon="-2.5972548072594406"><ele>1079.4</ele><time>2026-05-03T12:30:26Z</time></trkpt><trkpt lat="41.807116444808614" lon="-2.5971237895983754"><ele>1079.6</ele><time>2026-05-03T12:30:27Z</time></trkpt><trkpt lat="41.807095853073534" lon="-2.596990795585757"><ele>1079.8</ele><time>2026-05-03T12:30:28Z</time></trkpt><trkpt lat="41.807073525033054" lon="-2.5968529211615756"><ele>1080.0</ele><time>2026-05-03T12:30:29Z</time></trkpt><trkpt lat="41.807052026848204" lon="-2.596716577401803"><ele>1080.6</ele><time>2026-05-03T12:30:30Z</time></trkpt><trkpt lat="41.807032763454316" lon="-2.596579710712316"><ele>1081.2</ele><time>2026-05-03T12:30:31Z</time></trkpt><trkpt lat="41.80701197835231" lon="-2.5964417417421526"><ele>1081.8</ele><time>2026-05-03T12:30:32Z</time></trkpt><trkpt lat="41.80698797857462" lon="-2.5963055731192255"><ele>1082.4</ele><time>2026-05-03T12:30:33Z</time></trkpt><trkpt lat="41.80696385175194" lon="-2.5961633729151217"><ele>1083.0</ele><time>2026-05-03T12:30:34Z</time></trkpt><trkpt lat="41.806938569968196" lon="-2.5960254043620608"><ele>1083.0</ele><time>2026-05-03T12:30:35Z</time></trkpt><trkpt lat="41.806916760215636" lon="-2.595881404972465"><ele>1083.0</ele><time>2026-05-03T12:30:36Z</time></trkpt><trkpt lat="41.806899724404424" lon="-2.5957362685440284"><ele>1083.0</ele><time>2026-05-03T12:30:37Z</time></trkpt><trkpt lat="41.80687285561394" lon="-2.5955954379689143"><ele>1083.0</ele><time>2026-05-03T12:30:38Z</time></trkpt><trkpt lat="41.80685510553237" lon="-2.5954510645076745"><ele>1083.0</ele><time>2026-05-03T12:30:39Z</time></trkpt><trkpt lat="41.806827700338815" lon="-2.5952925955295765"><ele>1081.75</ele><time>2026-05-03T12:30:40Z</time></trkpt><trkpt lat="41.806803229762664" lon="-2.5951453457259177"><ele>1080.5</ele><time>2026-05-03T12:30:41Z</time></trkpt><trkpt lat="41.80677862638979" lon="-2.594993131023145"><ele>1079.25</ele><time>2026-05-03T12:30:42.001Z</time></trkpt><trkpt lat="41.80675175342318" lon="-2.594842957285036"><ele>1078.0</ele><time>2026-05-03T12:30:43.001Z</time></trkpt><trkpt lat="41.806721878130496" lon="-2.59469302298145"><ele>1078.0</ele><time>2026-05-03T12:30:44.001Z</time></trkpt><trkpt lat="41.80669531904014" lon="-2.594535807356336"><ele>1078.0</ele><time>2026-05-03T12:30:45.001Z</time></trkpt><trkpt lat="41.806668681616244" lon="-2.5943861202686573"><ele>1078.0</ele><time>2026-05-03T12:30:46.001Z</time></trkpt><trkpt lat="41.806639618611236" lon="-2.5942347853458814"><ele>1078.0</ele><time>2026-05-03T12:30:47.001Z</time></trkpt><trkpt lat="41.80661126044346" lon="-2.594081334227702"><ele>1077.5</ele><time>2026-05-03T12:30:48.001Z</time></trkpt><trkpt lat="41.80658205540839" lon="-2.593926529691377"><ele>1077.0</ele><time>2026-05-03T12:30:49.001Z</time></trkpt><trkpt lat="41.8065508424442" lon="-2.593776418406317"><ele>1076.5</ele><time>2026-05-03T12:30:50.001Z</time></trkpt><trkpt lat="41.8065195015674" lon="-2.5936256393214765"><ele>1076.0</ele><time>2026-05-03T12:30:51.001Z</time></trkpt><trkpt lat="41.80648875209865" lon="-2.59347210230566"><ele>1076.0</ele><time>2026-05-03T12:30:52.001Z</time></trkpt><trkpt lat="41.80645949387845" lon="-2.5933236151116277"><ele>1076.0</ele><time>2026-05-03T12:30:53.001Z</time></trkpt><trkpt lat="41.806428322122834" lon="-2.5931710301890054"><ele>1076.0</ele><time>2026-05-03T12:30:54.001Z</time></trkpt><trkpt lat="41.806401596014084" lon="-2.593018761834261"><ele>1076.0</ele><time>2026-05-03T12:30:55.001Z</time></trkpt><trkpt lat="41.80637080741351" lon="-2.592867741309838"><ele>1075.5</ele><time>2026-05-03T12:30:56.001Z</time></trkpt><trkpt lat="41.80633936711179" lon="-2.5927225823853672"><ele>1075.0</ele><time>2026-05-03T12:30:57.001Z</time></trkpt><trkpt lat="41.806305713306145" lon="-2.5925700254671544"><ele>1074.5</ele><time>2026-05-03T12:30:58.001Z</time></trkpt><trkpt lat="41.806275071634325" lon="-2.592421467877544"><ele>1074.0</ele><time>2026-05-03T12:30:59.001Z</time></trkpt><trkpt lat="41.806247058320515" lon="-2.5922736549120793"><ele>1074.0</ele><time>2026-05-03T12:31:00.001Z</time></trkpt><trkpt lat="41.806215400891425" lon="-2.5921261187095057"><ele>1074.0</ele><time>2026-05-03T12:31:01.001Z</time></trkpt><trkpt lat="41.806186483343" lon="-2.591979745788061"><ele>1074.0</ele><time>2026-05-03T12:31:02.001Z</time></trkpt><trkpt lat="41.806157902379496" lon="-2.5918336853943367"><ele>1074.0</ele><time>2026-05-03T12:31:03.001Z</time></trkpt><trkpt lat="41.80612812346751" lon="-2.5916872741382853"><ele>1073.4</ele><time>2026-05-03T12:31:04.001Z</time></trkpt><trkpt lat="41.8060990568602" lon="-2.5915424775933036"><ele>1072.8000000000002</ele><time>2026-05-03T12:31:05.001Z</time></trkpt><trkpt lat="41.80606878863383" lon="-2.591398196927093"><ele>1072.1999999999998</ele><time>2026-05-03T12:31:06.001Z</time></trkpt><trkpt lat="41.806039699843545" lon="-2.5912548640339454"><ele>1071.6</ele><time>2026-05-03T12:31:07.001Z</time></trkpt><trkpt lat="41.806009202791806" lon="-2.5911083171327705"><ele>1071.0</ele><time>2026-05-03T12:31:08.001Z</time></trkpt><trkpt lat="41.80598061265137" lon="-2.590965804665863"><ele>1070.75</ele><time>2026-05-03T12:31:09.001Z</time></trkpt><trkpt lat="41.80594970105534" lon="-2.5908189423527563"><ele>1070.5</ele><time>2026-05-03T12:31:10.001Z</time></trkpt><trkpt lat="41.80591894647764" lon="-2.5906731644989502"><ele>1070.25</ele><time>2026-05-03T12:31:11.001Z</time></trkpt><trkpt lat="41.805889376616435" lon="-2.5905270565487024"><ele>1070.0</ele><time>2026-05-03T12:31:12.001Z</time></trkpt><trkpt lat="41.80585947310425" lon="-2.5903804567505664"><ele>1070.0</ele><time>2026-05-03T12:31:13.001Z</time></trkpt><trkpt lat="41.80583113175684" lon="-2.590232554409857"><ele>1070.0</ele><time>2026-05-03T12:31:14.001Z</time></trkpt><trkpt lat="41.805802040435545" lon="-2.5900879919837654"><ele>1070.0</ele><time>2026-05-03T12:31:15.001Z</time></trkpt><trkpt lat="41.80577394346575" lon="-2.589942095680647"><ele>1070.0</ele><time>2026-05-03T12:31:16.001Z</time></trkpt><trkpt lat="41.80574592911237" lon="-2.5897939892377266"><ele>1070.0</ele><time>2026-05-03T12:31:17.001Z</time></trkpt><trkpt lat="41.805716514324914" lon="-2.5896471571359707"><ele>1070.0</ele><time>2026-05-03T12:31:18.001Z</time></trkpt><trkpt lat="41.80568546120605" lon="-2.5895009956664543"><ele>1070.0</ele><time>2026-05-03T12:31:19.001Z</time></trkpt><trkpt lat="41.805654854457174" lon="-2.5893544699876974"><ele>1070.0</ele><time>2026-05-03T12:31:20.001Z</time></trkpt><trkpt lat="41.80562544652998" lon="-2.589205798030008"><ele>1069.5</ele><time>2026-05-03T12:31:21.001Z</time></trkpt><trkpt lat="41.80559509801584" lon="-2.589057486037647"><ele>1069.0</ele><time>2026-05-03T12:31:22.001Z</time></trkpt><trkpt lat="41.80556564458913" lon="-2.5889109203156058"><ele>1068.5</ele><time>2026-05-03T12:31:23.001Z</time></trkpt><trkpt lat="41.80553679040366" lon="-2.5887615157688955"><ele>1068.0</ele><time>2026-05-03T12:31:24.001Z</time></trkpt><trkpt lat="41.80550621442681" lon="-2.5886160036350065"><ele>1067.8</ele><time>2026-05-03T12:31:25.001Z</time></trkpt><trkpt lat="41.805477208139514" lon="-2.5884696026207035"><ele>1067.6</ele><time>2026-05-03T12:31:26.001Z</time></trkpt><trkpt lat="41.80544872583774" lon="-2.5883229237316057"><ele>1067.4</ele><time>2026-05-03T12:31:27.001Z</time></trkpt><trkpt lat="41.805418576594036" lon="-2.588179670675668"><ele>1067.2</ele><time>2026-05-03T12:31:28.001Z</time></trkpt><trkpt lat="41.80539107552514" lon="-2.588034699828744"><ele>1067.0</ele><time>2026-05-03T12:31:29.001Z</time></trkpt><trkpt lat="41.805362414467" lon="-2.587889046876962"><ele>1066.75</ele><time>2026-05-03T12:31:30.001Z</time></trkpt><trkpt lat="41.80533463701247" lon="-2.587744037862036"><ele>1066.5</ele><time>2026-05-03T12:31:31.001Z</time></trkpt><trkpt lat="41.80530917736802" lon="-2.5875962938949715"><ele>1066.25</ele><time>2026-05-03T12:31:32.001Z</time></trkpt><trkpt lat="41.805285946789404" lon="-2.5874456656764573"><ele>1066.0</ele><time>2026-05-03T12:31:33.001Z</time></trkpt><trkpt lat="41.80526587581801" lon="-2.587292629900275"><ele>1066.0</ele><time>2026-05-03T12:31:34.001Z</time></trkpt><trkpt lat="41.80524905756848" lon="-2.587140599441838"><ele>1066.0</ele><time>2026-05-03T12:31:35.001Z</time></trkpt><trkpt lat="41.80524010329419" lon="-2.5869814370464423"><ele>1066.0</ele><time>2026-05-03T12:31:36.001Z</time></trkpt><trkpt lat="41.80523176030084" lon="-2.5868236806263036"><ele>1066.0</ele><time>2026-05-03T12:31:37Z</time></trkpt><trkpt lat="41.805224152929604" lon="-2.5866666416256745"><ele>1065.0</ele><time>2026-05-03T12:31:38Z</time></trkpt><trkpt lat="41.805222726544216" lon="-2.5865090607045897"><ele>1064.0</ele><time>2026-05-03T12:31:39Z</time></trkpt><trkpt lat="41.805225476084786" lon="-2.5863524799034097"><ele>1063.0</ele><time>2026-05-03T12:31:40Z</time></trkpt><trkpt lat="41.8052268871904" lon="-2.586196816098626"><ele>1062.0</ele><time>2026-05-03T12:31:41Z</time></trkpt><trkpt lat="41.80523401849028" lon="-2.586038761627867"><ele>1061.5</ele><time>2026-05-03T12:31:42Z</time></trkpt><trkpt lat="41.805241455484946" lon="-2.585882965342924"><ele>1061.0</ele><time>2026-05-03T12:31:43Z</time></trkpt><trkpt lat="41.8052517805946" lon="-2.5857282590869093"><ele>1060.5</ele><time>2026-05-03T12:31:44Z</time></trkpt><trkpt lat="41.80526631384379" lon="-2.585572307927915"><ele>1060.0</ele><time>2026-05-03T12:31:45Z</time></trkpt><trkpt lat="41.80528022999711" lon="-2.5854197443657876"><ele>1060.5</ele><time>2026-05-03T12:31:46Z</time></trkpt><trkpt lat="41.805292815761916" lon="-2.5852696252562795"><ele>1061.0</ele><time>2026-05-03T12:31:47Z</time></trkpt><trkpt lat="41.80530950794863" lon="-2.5851173509322667"><ele>1061.5</ele><time>2026-05-03T12:31:48Z</time></trkpt><trkpt lat="41.80532010059446" lon="-2.584968136366993"><ele>1062.0</ele><time>2026-05-03T12:31:49Z</time></trkpt><trkpt lat="41.80533155875915" lon="-2.5848173394169027"><ele>1062.0</ele><time>2026-05-03T12:31:50Z</time></trkpt><trkpt lat="41.805345165366" lon="-2.584670560752193"><ele>1062.0</ele><time>2026-05-03T12:31:51Z</time></trkpt><trkpt lat="41.805356595078365" lon="-2.584525168976687"><ele>1062.0</ele><time>2026-05-03T12:31:52Z</time></trkpt><trkpt lat="41.80536336307862" lon="-2.584379543453373"><ele>1062.0</ele><time>2026-05-03T12:31:53Z</time></trkpt><trkpt lat="41.80537275947843" lon="-2.58424181489444"><ele>1062.0</ele><time>2026-05-03T12:31:54Z</time></trkpt><trkpt lat="41.80538943393488" lon="-2.5840982490865403"><ele>1062.4</ele><time>2026-05-03T12:31:55Z</time></trkpt><trkpt lat="41.80540537337574" lon="-2.583960181252865"><ele>1062.8000000000002</ele><time>2026-05-03T12:31:56Z</time></trkpt><trkpt lat="41.80541150912603" lon="-2.5838277845782796"><ele>1063.2</ele><time>2026-05-03T12:31:57Z</time></trkpt><trkpt lat="41.80542213029261" lon="-2.5836957203029196"><ele>1063.6000000000001</ele><time>2026-05-03T12:31:58Z</time></trkpt><trkpt lat="41.80543167073515" lon="-2.5835641168336867"><ele>1064.0</ele><time>2026-05-03T12:31:59Z</time></trkpt><trkpt lat="41.80544060489511" lon="-2.583435361901454"><ele>1064.6000000000001</ele><time>2026-05-03T12:32:00Z</time></trkpt><trkpt lat="41.805454531594805" lon="-2.5833054236840187"><ele>1065.2</ele><time>2026-05-03T12:32:01Z</time></trkpt><trkpt lat="41.80546522208294" lon="-2.583177203423903"><ele>1065.8000000000002</ele><time>2026-05-03T12:32:02Z</time></trkpt><trkpt lat="41.80547334433577" lon="-2.583048524808795"><ele>1066.4</ele><time>2026-05-03T12:32:03Z</time></trkpt><trkpt lat="41.805483386125964" lon="-2.582917240950907"><ele>1067.0</ele><time>2026-05-03T12:32:04Z</time></trkpt><trkpt lat="41.805496341586704" lon="-2.582782827799847"><ele>1067.2</ele><time>2026-05-03T12:32:05Z</time></trkpt><trkpt lat="41.80550209241486" lon="-2.5826435565322288"><ele>1067.4</ele><time>2026-05-03T12:32:06Z</time></trkpt><trkpt lat="41.805511546073205" lon="-2.5825065473632147"><ele>1067.6</ele><time>2026-05-03T12:32:07Z</time></trkpt><trkpt lat="41.80550752202642" lon="-2.5823702200557994"><ele>1067.8</ele><time>2026-05-03T12:32:08Z</time></trkpt><trkpt lat="41.80550282260346" lon="-2.582226205630618"><ele>1068.0</ele><time>2026-05-03T12:32:09Z</time></trkpt><trkpt lat="41.80549535857964" lon="-2.582074437850174"><ele>1067.75</ele><time>2026-05-03T12:32:10Z</time></trkpt><trkpt lat="41.805470894099294" lon="-2.5819502712935187"><ele>1067.5</ele><time>2026-05-03T12:32:11Z</time></trkpt><trkpt lat="41.805403297377396" lon="-2.5818867667321617"><ele>1067.25</ele><time>2026-05-03T12:32:12Z</time></trkpt><trkpt lat="41.80544243351888" lon="-2.58164359282238"><ele>1067.0</ele><time>2026-05-03T12:32:13Z</time></trkpt><trkpt lat="41.80541302098121" lon="-2.581495297290281"><ele>1067.0</ele><time>2026-05-03T12:32:14Z</time></trkpt><trkpt lat="41.80538694660997" lon="-2.5813425750180063"><ele>1067.0</ele><time>2026-05-03T12:32:15Z</time></trkpt><trkpt lat="41.80536272451833" lon="-2.5811895423198368"><ele>1067.0</ele><time>2026-05-03T12:32:16Z</time></trkpt><trkpt lat="41.80533791873658" lon="-2.5810374537082663"><ele>1067.0</ele><time>2026-05-03T12:32:17Z</time></trkpt><trkpt lat="41.80531334666156" lon="-2.580885092533342"><ele>1066.25</ele><time>2026-05-03T12:32:18Z</time></trkpt><trkpt lat="41.80528869544235" lon="-2.580731201942216"><ele>1065.5</ele><time>2026-05-03T12:32:19Z</time></trkpt><trkpt lat="41.805262605884636" lon="-2.580578938336125"><ele>1064.75</ele><time>2026-05-03T12:32:20Z</time></trkpt><trkpt lat="41.80523804894525" lon="-2.580423847887333"><ele>1064.0</ele><time>2026-05-03T12:32:21Z</time></trkpt><trkpt lat="41.805213471964116" lon="-2.580269990944948"><ele>1063.5</ele><time>2026-05-03T12:32:22Z</time></trkpt><trkpt lat="41.80518559362513" lon="-2.5801149439118727"><ele>1063.0</ele><time>2026-05-03T12:32:23Z</time></trkpt><trkpt lat="41.80516151398271" lon="-2.5799603401941953"><ele>1062.5</ele><time>2026-05-03T12:32:24Z</time></trkpt><trkpt lat="41.80513627788255" lon="-2.579807561482364"><ele>1062.0</ele><time>2026-05-03T12:32:25Z</time></trkpt><trkpt lat="41.80511145996989" lon="-2.579654591984887"><ele>1062.0</ele><time>2026-05-03T12:32:26Z</time></trkpt><trkpt lat="41.80508455967296" lon="-2.5795012013186844"><ele>1062.0</ele><time>2026-05-03T12:32:27Z</time></trkpt><trkpt lat="41.80505921574998" lon="-2.5793503271891867"><ele>1062.0</ele><time>2026-05-03T12:32:28Z</time></trkpt><trkpt lat="41.80503416234532" lon="-2.57920199866298"><ele>1062.0</ele><time>2026-05-03T12:32:29Z</time></trkpt><trkpt lat="41.805010138945605" lon="-2.579052097588211"><ele>1062.0</ele><time>2026-05-03T12:32:30Z</time></trkpt><trkpt lat="41.80498574804028" lon="-2.5789050822386095"><ele>1062.0</ele><time>2026-05-03T12:32:31Z</time></trkpt><trkpt lat="41.80496141175613" lon="-2.578758612948271"><ele>1062.0</ele><time>2026-05-03T12:32:32Z</time></trkpt><trkpt lat="41.80493603726831" lon="-2.5786085707373236"><ele>1062.0</ele><time>2026-05-03T12:32:33Z</time></trkpt><trkpt lat="41.804888909949796" lon="-2.5783117968744484"><ele>1062.2</ele><time>2026-05-03T12:32:35Z</time></trkpt><trkpt lat="41.804861462273436" lon="-2.578164785731686"><ele>1062.4</ele><time>2026-05-03T12:32:36Z</time></trkpt><trkpt lat="41.8048350473128" lon="-2.5780191855219248"><ele>1062.6</ele><time>2026-05-03T12:32:37Z</time></trkpt><trkpt lat="41.80481680518637" lon="-2.577868862698312"><ele>1062.8</ele><time>2026-05-03T12:32:38Z</time></trkpt><trkpt lat="41.804795726723505" lon="-2.5777300985046083"><ele>1063.0</ele><time>2026-05-03T12:32:39Z</time></trkpt><trkpt lat="41.804760718380024" lon="-2.5775806112865225"><ele>1063.0</ele><time>2026-05-03T12:32:40Z</time></trkpt><trkpt lat="41.80468711075968" lon="-2.577498789310497"><ele>1063.0</ele><time>2026-05-03T12:32:41Z</time></trkpt><trkpt lat="41.80472360751264" lon="-2.5772928478909116"><ele>1063.0</ele><time>2026-05-03T12:32:42Z</time></trkpt><trkpt lat="41.8046991728871" lon="-2.5771519816128254"><ele>1063.0</ele><time>2026-05-03T12:32:43Z</time></trkpt><trkpt lat="41.804676042990764" lon="-2.5770136539010484"><ele>1063.0</ele><time>2026-05-03T12:32:44Z</time></trkpt><trkpt lat="41.804647005664094" lon="-2.576871368700003"><ele>1063.0</ele><time>2026-05-03T12:32:45.001Z</time></trkpt><trkpt lat="41.804623843918954" lon="-2.576728869175858"><ele>1063.0</ele><time>2026-05-03T12:32:46.001Z</time></trkpt><trkpt lat="41.80460223555938" lon="-2.5765855191433817"><ele>1063.0</ele><time>2026-05-03T12:32:47.001Z</time></trkpt><trkpt lat="41.804579258727124" lon="-2.576442680690146"><ele>1063.0</ele><time>2026-05-03T12:32:48.001Z</time></trkpt><trkpt lat="41.804555661689015" lon="-2.5762972343957036"><ele>1062.5</ele><time>2026-05-03T12:32:49.001Z</time></trkpt><trkpt lat="41.804528750990166" lon="-2.576149238071414"><ele>1062.0</ele><time>2026-05-03T12:32:50.001Z</time></trkpt><trkpt lat="41.804500594978876" lon="-2.5760003418249497"><ele>1061.5</ele><time>2026-05-03T12:32:51.001Z</time></trkpt><trkpt lat="41.80447892246592" lon="-2.5758509742155846"><ele>1061.0</ele><time>2026-05-03T12:32:52.001Z</time></trkpt><trkpt lat="41.80445683937567" lon="-2.5757001399259476"><ele>1061.0</ele><time>2026-05-03T12:32:53.001Z</time></trkpt><trkpt lat="41.804430622309305" lon="-2.575549125924781"><ele>1061.0</ele><time>2026-05-03T12:32:54.001Z</time></trkpt><trkpt lat="41.80440407758821" lon="-2.5753991229790687"><ele>1061.0</ele><time>2026-05-03T12:32:55.001Z</time></trkpt><trkpt lat="41.80437998189272" lon="-2.5752497058602253"><ele>1061.0</ele><time>2026-05-03T12:32:56.001Z</time></trkpt><trkpt lat="41.804355767623484" lon="-2.5750994255189257"><ele>1060.75</ele><time>2026-05-03T12:32:57.001Z</time></trkpt><trkpt lat="41.80432983793899" lon="-2.5749522244217813"><ele>1060.5</ele><time>2026-05-03T12:32:58.001Z</time></trkpt><trkpt lat="41.80430306537623" lon="-2.5748027658296637"><ele>1060.25</ele><time>2026-05-03T12:32:59.001Z</time></trkpt><trkpt lat="41.80427663210656" lon="-2.574653247407634"><ele>1060.0</ele><time>2026-05-03T12:33:00.001Z</time></trkpt><trkpt lat="41.80425089694449" lon="-2.5745047719328285"><ele>1060.0</ele><time>2026-05-03T12:33:01.001Z</time></trkpt><trkpt lat="41.804225377200524" lon="-2.5743564853261294"><ele>1060.0</ele><time>2026-05-03T12:33:02.001Z</time></trkpt><trkpt lat="41.80419857267919" lon="-2.5742071975181315"><ele>1060.0</ele><time>2026-05-03T12:33:03.001Z</time></trkpt><trkpt lat="41.80417368670237" lon="-2.5740579582761764"><ele>1060.0</ele><time>2026-05-03T12:33:04.001Z</time></trkpt><trkpt lat="41.8041459140829" lon="-2.573905497626499"><ele>1060.0</ele><time>2026-05-03T12:33:05.001Z</time></trkpt><trkpt lat="41.80412098243772" lon="-2.5737517444042166"><ele>1060.0</ele><time>2026-05-03T12:33:06.001Z</time></trkpt><trkpt lat="41.8040959406116" lon="-2.5735945996568343"><ele>1060.0</ele><time>2026-05-03T12:33:07.001Z</time></trkpt><trkpt lat="41.8040710363551" lon="-2.5734424539758702"><ele>1060.0</ele><time>2026-05-03T12:33:08.001Z</time></trkpt><trkpt lat="41.804044098586665" lon="-2.573289763760556"><ele>1059.75</ele><time>2026-05-03T12:33:09.001Z</time></trkpt><trkpt lat="41.80401929693665" lon="-2.5731336526137087"><ele>1059.5</ele><time>2026-05-03T12:33:10.001Z</time></trkpt><trkpt lat="41.80399599930054" lon="-2.5729761832682243"><ele>1059.25</ele><time>2026-05-03T12:33:11.001Z</time></trkpt><trkpt lat="41.803971935133816" lon="-2.5728232781276272"><ele>1059.0</ele><time>2026-05-03T12:33:12.001Z</time></trkpt><trkpt lat="41.80394654922305" lon="-2.5726729975589446"><ele>1057.75</ele><time>2026-05-03T12:33:13.001Z</time></trkpt><trkpt lat="41.80392138265579" lon="-2.5725207524284155"><ele>1056.5</ele><time>2026-05-03T12:33:14.001Z</time></trkpt><trkpt lat="41.80389635140173" lon="-2.572370553050597"><ele>1055.25</ele><time>2026-05-03T12:33:15.001Z</time></trkpt><trkpt lat="41.80387158263801" lon="-2.5722215397858363"><ele>1054.0</ele><time>2026-05-03T12:33:16.001Z</time></trkpt><trkpt lat="41.80384672099935" lon="-2.57207250124401"><ele>1054.25</ele><time>2026-05-03T12:33:17.001Z</time></trkpt><trkpt lat="41.80382234369117" lon="-2.5719239136609353"><ele>1054.5</ele><time>2026-05-03T12:33:18.001Z</time></trkpt><trkpt lat="41.80379880182059" lon="-2.5717745004991404"><ele>1054.75</ele><time>2026-05-03T12:33:19.001Z</time></trkpt><trkpt lat="41.80377166373054" lon="-2.571630791367228"><ele>1055.0</ele><time>2026-05-03T12:33:20.001Z</time></trkpt><trkpt lat="41.80374796443686" lon="-2.571479843582096"><ele>1055.0</ele><time>2026-05-03T12:33:21.001Z</time></trkpt><trkpt lat="41.80372574224134" lon="-2.5713317169089986"><ele>1055.0</ele><time>2026-05-03T12:33:22.001Z</time></trkpt><trkpt lat="41.80370157277299" lon="-2.5711842975004346"><ele>1055.0</ele><time>2026-05-03T12:33:23.001Z</time></trkpt><trkpt lat="41.80367863748384" lon="-2.571038126151098"><ele>1055.0</ele><time>2026-05-03T12:33:24.001Z</time></trkpt><trkpt lat="41.80365429389482" lon="-2.5708923122895038"><ele>1055.0</ele><time>2026-05-03T12:33:25.001Z</time></trkpt><trkpt lat="41.80363144262095" lon="-2.570744921559858"><ele>1054.8</ele><time>2026-05-03T12:33:26.001Z</time></trkpt><trkpt lat="41.80360743009368" lon="-2.5705993709812347"><ele>1054.6</ele><time>2026-05-03T12:33:27.001Z</time></trkpt><trkpt lat="41.803584521029634" lon="-2.570452255251396"><ele>1054.4</ele><time>2026-05-03T12:33:28.001Z</time></trkpt><trkpt lat="41.80356184330598" lon="-2.570305872386988"><ele>1054.2</ele><time>2026-05-03T12:33:29.001Z</time></trkpt><trkpt lat="41.803538777670035" lon="-2.570156208878648"><ele>1054.0</ele><time>2026-05-03T12:33:30.001Z</time></trkpt><trkpt lat="41.803522879957306" lon="-2.570012399482206"><ele>1054.0</ele><time>2026-05-03T12:33:31.001Z</time></trkpt><trkpt lat="41.80350055215931" lon="-2.569864146854987"><ele>1054.0</ele><time>2026-05-03T12:33:32.001Z</time></trkpt><trkpt lat="41.80347535246542" lon="-2.569719290658059"><ele>1054.0</ele><time>2026-05-03T12:33:33.001Z</time></trkpt><trkpt lat="41.803451043740715" lon="-2.569574415917846"><ele>1054.0</ele><time>2026-05-03T12:33:34.001Z</time></trkpt><trkpt lat="41.803427643956745" lon="-2.5694270520530393"><ele>1054.0</ele><time>2026-05-03T12:33:35.001Z</time></trkpt><trkpt lat="41.803403644524955" lon="-2.5692781577097894"><ele>1054.2</ele><time>2026-05-03T12:33:36.001Z</time></trkpt><trkpt lat="41.80337782058757" lon="-2.5691331532841364"><ele>1054.4</ele><time>2026-05-03T12:33:37.001Z</time></trkpt><trkpt lat="41.803354138079676" lon="-2.5689864752484945"><ele>1054.6</ele><time>2026-05-03T12:33:38.001Z</time></trkpt><trkpt lat="41.803331665171086" lon="-2.5688405527464284"><ele>1054.8</ele><time>2026-05-03T12:33:39.001Z</time></trkpt><trkpt lat="41.80330710570778" lon="-2.5686929064333794"><ele>1055.0</ele><time>2026-05-03T12:33:40.001Z</time></trkpt><trkpt lat="41.80328303075163" lon="-2.568546821301362"><ele>1055.0</ele><time>2026-05-03T12:33:41.001Z</time></trkpt><trkpt lat="41.803259427754824" lon="-2.5683986180722362"><ele>1055.0</ele><time>2026-05-03T12:33:42.001Z</time></trkpt><trkpt lat="41.803234395226774" lon="-2.568254330534949"><ele>1055.0</ele><time>2026-05-03T12:33:43Z</time></trkpt><trkpt lat="41.803210855457415" lon="-2.5681070138047652"><ele>1055.0</ele><time>2026-05-03T12:33:44Z</time></trkpt><trkpt lat="41.80318833157433" lon="-2.5679585498073436"><ele>1055.0</ele><time>2026-05-03T12:33:45Z</time></trkpt><trkpt lat="41.80316526539" lon="-2.567811990290857"><ele>1055.0</ele><time>2026-05-03T12:33:46Z</time></trkpt><trkpt lat="41.80314031318127" lon="-2.5676624017506926"><ele>1055.0</ele><time>2026-05-03T12:33:47Z</time></trkpt><trkpt lat="41.803117664305866" lon="-2.567515283060189"><ele>1055.0</ele><time>2026-05-03T12:33:48Z</time></trkpt><trkpt lat="41.80309414203022" lon="-2.56736903185822"><ele>1055.0</ele><time>2026-05-03T12:33:49Z</time></trkpt><trkpt lat="41.803071583421335" lon="-2.567231623990069"><ele>1055.0</ele><time>2026-05-03T12:33:50Z</time></trkpt><trkpt lat="41.80304817944352" lon="-2.5670797118194346"><ele>1055.2</ele><time>2026-05-03T12:33:51Z</time></trkpt><trkpt lat="41.80302037863964" lon="-2.566943223621719"><ele>1055.4</ele><time>2026-05-03T12:33:52Z</time></trkpt><trkpt lat="41.80299226655709" lon="-2.566800041525582"><ele>1055.6</ele><time>2026-05-03T12:33:53Z</time></trkpt><trkpt lat="41.80297689458345" lon="-2.5666555151796917"><ele>1055.8</ele><time>2026-05-03T12:33:54Z</time></trkpt><trkpt lat="41.80295386365645" lon="-2.5665109647210103"><ele>1056.0</ele><time>2026-05-03T12:33:55Z</time></trkpt><trkpt lat="41.80293040468839" lon="-2.5663705033058717"><ele>1056.0</ele><time>2026-05-03T12:33:56Z</time></trkpt><trkpt lat="41.80290914463028" lon="-2.5662293224979624"><ele>1056.0</ele><time>2026-05-03T12:33:57Z</time></trkpt><trkpt lat="41.802888813221166" lon="-2.5660879377781622"><ele>1056.0</ele><time>2026-05-03T12:33:58Z</time></trkpt><trkpt lat="41.80286352672868" lon="-2.565947664243841"><ele>1056.0</ele><time>2026-05-03T12:33:59Z</time></trkpt><trkpt lat="41.8028387569973" lon="-2.565806684437084"><ele>1056.0</ele><time>2026-05-03T12:34:00Z</time></trkpt><trkpt lat="41.80281350667404" lon="-2.565665934076054"><ele>1056.0</ele><time>2026-05-03T12:34:01Z</time></trkpt><trkpt lat="41.80279437368729" lon="-2.5655231712438797"><ele>1056.0</ele><time>2026-05-03T12:34:02Z</time></trkpt><trkpt lat="41.80277157987418" lon="-2.5653817669049284"><ele>1056.0</ele><time>2026-05-03T12:34:03Z</time></trkpt><trkpt lat="41.802744167556966" lon="-2.565241190593054"><ele>1056.0</ele><time>2026-05-03T12:34:04Z</time></trkpt><trkpt lat="41.80271983653682" lon="-2.565103668922158"><ele>1056.0</ele><time>2026-05-03T12:34:05Z</time></trkpt><trkpt lat="41.80269958981517" lon="-2.56496128154052"><ele>1056.2</ele><time>2026-05-03T12:34:06Z</time></trkpt><trkpt lat="41.80267994961273" lon="-2.564820069646626"><ele>1056.3999999999999</ele><time>2026-05-03T12:34:07Z</time></trkpt><trkpt lat="41.80266068408142" lon="-2.564678958498651"><ele>1056.6</ele><time>2026-05-03T12:34:08Z</time></trkpt><trkpt lat="41.80263755582989" lon="-2.5645383676332996"><ele>1056.8</ele><time>2026-05-03T12:34:09Z</time></trkpt><trkpt lat="41.80261173087507" lon="-2.5643988763545016"><ele>1057.0</ele><time>2026-05-03T12:34:10Z</time></trkpt><trkpt lat="41.80258947292096" lon="-2.5642611967357865"><ele>1057.4</ele><time>2026-05-03T12:34:11Z</time></trkpt><trkpt lat="41.80256541114097" lon="-2.5641205327699423"><ele>1057.8000000000002</ele><time>2026-05-03T12:34:12Z</time></trkpt><trkpt lat="41.80253982043521" lon="-2.5639829882618197"><ele>1058.2</ele><time>2026-05-03T12:34:13Z</time></trkpt><trkpt lat="41.80251756128387" lon="-2.5638425245223333"><ele>1058.6000000000001</ele><time>2026-05-03T12:34:14Z</time></trkpt><trkpt lat="41.80249750028114" lon="-2.5637016066411498"><ele>1059.0</ele><time>2026-05-03T12:34:15Z</time></trkpt><trkpt lat="41.802473358975746" lon="-2.563563689889203"><ele>1059.0</ele><time>2026-05-03T12:34:16Z</time></trkpt><trkpt lat="41.80244900300768" lon="-2.563423575731642"><ele>1059.0</ele><time>2026-05-03T12:34:17Z</time></trkpt><trkpt lat="41.802429375180324" lon="-2.563282332125174"><ele>1059.0</ele><time>2026-05-03T12:34:18Z</time></trkpt><trkpt lat="41.8024046712622" lon="-2.563144837623729"><ele>1059.0</ele><time>2026-05-03T12:34:19Z</time></trkpt><trkpt lat="41.80238059017645" lon="-2.5630032106623997"><ele>1059.0</ele><time>2026-05-03T12:34:20Z</time></trkpt><trkpt lat="41.80235553555177" lon="-2.5628601487342824"><ele>1059.0</ele><time>2026-05-03T12:34:21Z</time></trkpt><trkpt lat="41.80233051070801" lon="-2.562720331734838"><ele>1059.0</ele><time>2026-05-03T12:34:22Z</time></trkpt><trkpt lat="41.80230860526598" lon="-2.562577011070997"><ele>1059.0</ele><time>2026-05-03T12:34:23Z</time></trkpt><trkpt lat="41.80228539707458" lon="-2.5624375009943763"><ele>1059.0</ele><time>2026-05-03T12:34:24Z</time></trkpt><trkpt lat="41.80226357274738" lon="-2.562294439273333"><ele>1059.0</ele><time>2026-05-03T12:34:25Z</time></trkpt><trkpt lat="41.802237224357384" lon="-2.562153270572873"><ele>1058.8</ele><time>2026-05-03T12:34:26Z</time></trkpt><trkpt lat="41.802215126575845" lon="-2.5620097954527963"><ele>1058.6000000000001</ele><time>2026-05-03T12:34:27Z</time></trkpt><trkpt lat="41.802193553891314" lon="-2.56186741011524"><ele>1058.4</ele><time>2026-05-03T12:34:28Z</time></trkpt><trkpt lat="41.80216429330042" lon="-2.5617257785662626"><ele>1058.2</ele><time>2026-05-03T12:34:29Z</time></trkpt><trkpt lat="41.802143056224516" lon="-2.5615793453931217"><ele>1058.0</ele><time>2026-05-03T12:34:30Z</time></trkpt><trkpt lat="41.802116098622676" lon="-2.561439382220702"><ele>1058.0</ele><time>2026-05-03T12:34:31Z</time></trkpt><trkpt lat="41.80208598099815" lon="-2.561295387458639"><ele>1058.0</ele><time>2026-05-03T12:34:32Z</time></trkpt><trkpt lat="41.802062512482074" lon="-2.5611424153252287"><ele>1058.0</ele><time>2026-05-03T12:34:33Z</time></trkpt><trkpt lat="41.80197870373007" lon="-2.5609623392674283"><ele>1058.0</ele><time>2026-05-03T12:34:34Z</time></trkpt><trkpt lat="41.802022590894076" lon="-2.5608600760167675"><ele>1058.25</ele><time>2026-05-03T12:34:35Z</time></trkpt><trkpt lat="41.80199665541631" lon="-2.5607119976206025"><ele>1058.5</ele><time>2026-05-03T12:34:36Z</time></trkpt><trkpt lat="41.801970724905345" lon="-2.5605675282326277"><ele>1058.75</ele><time>2026-05-03T12:34:37Z</time></trkpt><trkpt lat="41.80194498615773" lon="-2.560418969393187"><ele>1059.0</ele><time>2026-05-03T12:34:38Z</time></trkpt><trkpt lat="41.80192266695905" lon="-2.5602716819202795"><ele>1059.25</ele><time>2026-05-03T12:34:39Z</time></trkpt><trkpt lat="41.80189665661471" lon="-2.560126248392433"><ele>1059.5</ele><time>2026-05-03T12:34:40Z</time></trkpt><trkpt lat="41.80187023257365" lon="-2.559976323208237"><ele>1059.75</ele><time>2026-05-03T12:34:41Z</time></trkpt><trkpt lat="41.80184455425979" lon="-2.5598299849151798"><ele>1060.0</ele><time>2026-05-03T12:34:42Z</time></trkpt><trkpt lat="41.8018199995328" lon="-2.5596819123722767"><ele>1060.25</ele><time>2026-05-03T12:34:43Z</time></trkpt><trkpt lat="41.80179601038727" lon="-2.5595355670714692"><ele>1060.5</ele><time>2026-05-03T12:34:44Z</time></trkpt><trkpt lat="41.801771073208236" lon="-2.5593858665472125"><ele>1060.75</ele><time>2026-05-03T12:34:45Z</time></trkpt><trkpt lat="41.80174514651852" lon="-2.559238205011995"><ele>1061.0</ele><time>2026-05-03T12:34:46Z</time></trkpt><trkpt lat="41.801721193410856" lon="-2.559089916654958"><ele>1061.0</ele><time>2026-05-03T12:34:47Z</time></trkpt><trkpt lat="41.80169537671503" lon="-2.558939973891441"><ele>1061.0</ele><time>2026-05-03T12:34:48Z</time></trkpt><trkpt lat="41.80166883877486" lon="-2.5587929784011676"><ele>1061.0</ele><time>2026-05-03T12:34:49Z</time></trkpt><trkpt lat="41.801643760335224" lon="-2.558646421237125"><ele>1061.0</ele><time>2026-05-03T12:34:50Z</time></trkpt><trkpt lat="41.80161988708375" lon="-2.558502720555455"><ele>1061.0</ele><time>2026-05-03T12:34:51Z</time></trkpt><trkpt lat="41.80159512867142" lon="-2.5583561051363954"><ele>1060.8</ele><time>2026-05-03T12:34:52Z</time></trkpt><trkpt lat="41.80157009109614" lon="-2.558212204222209"><ele>1060.6</ele><time>2026-05-03T12:34:53Z</time></trkpt><trkpt lat="41.80154503130374" lon="-2.5580660949740532"><ele>1060.4</ele><time>2026-05-03T12:34:54Z</time></trkpt><trkpt lat="41.80152091113872" lon="-2.557924132205517"><ele>1060.2</ele><time>2026-05-03T12:34:55Z</time></trkpt><trkpt lat="41.801495470080965" lon="-2.5577834656305765"><ele>1060.0</ele><time>2026-05-03T12:34:56Z</time></trkpt><trkpt lat="41.80147006075042" lon="-2.5576415888781554"><ele>1060.4</ele><time>2026-05-03T12:34:57Z</time></trkpt><trkpt lat="41.8014501729037" lon="-2.5575102685227713"><ele>1060.8</ele><time>2026-05-03T12:34:58Z</time></trkpt><trkpt lat="41.80142447716142" lon="-2.5573661859870342"><ele>1061.2</ele><time>2026-05-03T12:34:59Z</time></trkpt><trkpt lat="41.80139980706038" lon="-2.5572278970738846"><ele>1061.6</ele><time>2026-05-03T12:35:00.001Z</time></trkpt><trkpt lat="41.80137502278742" lon="-2.557088252377582"><ele>1062.0</ele><time>2026-05-03T12:35:01.001Z</time></trkpt><trkpt lat="41.80134956455442" lon="-2.556947985787509"><ele>1062.0</ele><time>2026-05-03T12:35:02.001Z</time></trkpt><trkpt lat="41.80132588624727" lon="-2.556809194430172"><ele>1062.0</ele><time>2026-05-03T12:35:03.001Z</time></trkpt><trkpt lat="41.80130193880448" lon="-2.5566691585331096"><ele>1062.0</ele><time>2026-05-03T12:35:04.001Z</time></trkpt><trkpt lat="41.80127692163454" lon="-2.556530266547067"><ele>1062.0</ele><time>2026-05-03T12:35:05.001Z</time></trkpt><trkpt lat="41.80125000282808" lon="-2.5563877576119407"><ele>1062.0</ele><time>2026-05-03T12:35:06.001Z</time></trkpt><trkpt lat="41.80123126880518" lon="-2.556245125943304"><ele>1061.8</ele><time>2026-05-03T12:35:07.001Z</time></trkpt><trkpt lat="41.80119243570664" lon="-2.55609475511922"><ele>1061.6</ele><time>2026-05-03T12:35:08.001Z</time></trkpt><trkpt lat="41.80116677397916" lon="-2.555957411357671"><ele>1061.3999999999999</ele><time>2026-05-03T12:35:09.001Z</time></trkpt><trkpt lat="41.801148653182615" lon="-2.5558142390410925"><ele>1061.2</ele><time>2026-05-03T12:35:10.001Z</time></trkpt><trkpt lat="41.801110429091445" lon="-2.5556703007039014"><ele>1061.0</ele><time>2026-05-03T12:35:11.001Z</time></trkpt><trkpt lat="41.801081465177354" lon="-2.5555264707242116"><ele>1061.0</ele><time>2026-05-03T12:35:12.001Z</time></trkpt><trkpt lat="41.80104873915391" lon="-2.5553790882707164"><ele>1061.0</ele><time>2026-05-03T12:35:13.001Z</time></trkpt><trkpt lat="41.801019249293475" lon="-2.555234580138254"><ele>1061.0</ele><time>2026-05-03T12:35:14.001Z</time></trkpt><trkpt lat="41.800981448177765" lon="-2.555087467147031"><ele>1061.0</ele><time>2026-05-03T12:35:15.001Z</time></trkpt><trkpt lat="41.800946341507604" lon="-2.5549407428987676"><ele>1061.0</ele><time>2026-05-03T12:35:16.001Z</time></trkpt><trkpt lat="41.80091048193419" lon="-2.554795100576179"><ele>1061.0</ele><time>2026-05-03T12:35:17.001Z</time></trkpt><trkpt lat="41.8008713191087" lon="-2.5546456778747473"><ele>1061.0</ele><time>2026-05-03T12:35:18.001Z</time></trkpt><trkpt lat="41.80083147519645" lon="-2.554500778391218"><ele>1061.0</ele><time>2026-05-03T12:35:19.001Z</time></trkpt><trkpt lat="41.80079022772774" lon="-2.5543523663553156"><ele>1060.25</ele><time>2026-05-03T12:35:20.001Z</time></trkpt><trkpt lat="41.80074974850471" lon="-2.5542049289109032"><ele>1059.5</ele><time>2026-05-03T12:35:21.001Z</time></trkpt><trkpt lat="41.80071233861623" lon="-2.554060282291399"><ele>1058.75</ele><time>2026-05-03T12:35:22.001Z</time></trkpt><trkpt lat="41.8006730471919" lon="-2.5539157521871245"><ele>1058.0</ele><time>2026-05-03T12:35:23.001Z</time></trkpt><trkpt lat="41.80062942851856" lon="-2.553770568643067"><ele>1057.5</ele><time>2026-05-03T12:35:24.001Z</time></trkpt><trkpt lat="41.80058553275407" lon="-2.5536303109117444"><ele>1057.0</ele><time>2026-05-03T12:35:25.001Z</time></trkpt><trkpt lat="41.80054123450273" lon="-2.5534895799281503"><ele>1056.5</ele><time>2026-05-03T12:35:26.001Z</time></trkpt><trkpt lat="41.80049637832928" lon="-2.553349554579289"><ele>1056.0</ele><time>2026-05-03T12:35:27.001Z</time></trkpt><trkpt lat="41.80044832081622" lon="-2.5532086666388167"><ele>1056.0</ele><time>2026-05-03T12:35:28.001Z</time></trkpt><trkpt lat="41.80040017791893" lon="-2.553066706054329"><ele>1056.0</ele><time>2026-05-03T12:35:29.001Z</time></trkpt><trkpt lat="41.800354698464105" lon="-2.5529268114748978"><ele>1056.0</ele><time>2026-05-03T12:35:30.001Z</time></trkpt><trkpt lat="41.800306267513584" lon="-2.5527842083655603"><ele>1056.0</ele><time>2026-05-03T12:35:31.001Z</time></trkpt><trkpt lat="41.80025775685627" lon="-2.5526444337850145"><ele>1056.25</ele><time>2026-05-03T12:35:32.001Z</time></trkpt><trkpt lat="41.80020595693045" lon="-2.552503785880391"><ele>1056.5</ele><time>2026-05-03T12:35:33.001Z</time></trkpt><trkpt lat="41.80015207413602" lon="-2.552363883975283"><ele>1056.75</ele><time>2026-05-03T12:35:34.001Z</time></trkpt><trkpt lat="41.800100617549084" lon="-2.5522230252778724"><ele>1057.0</ele><time>2026-05-03T12:35:35.001Z</time></trkpt><trkpt lat="41.800048913664945" lon="-2.5520796584027248"><ele>1056.25</ele><time>2026-05-03T12:35:36.001Z</time></trkpt><trkpt lat="41.799999361943854" lon="-2.551936745526848"><ele>1055.5</ele><time>2026-05-03T12:35:37.001Z</time></trkpt><trkpt lat="41.799948247170434" lon="-2.5517945342826036"><ele>1054.75</ele><time>2026-05-03T12:35:38.001Z</time></trkpt><trkpt lat="41.799894020062126" lon="-2.551654490158088"><ele>1054.0</ele><time>2026-05-03T12:35:39.001Z</time></trkpt><trkpt lat="41.79984307186189" lon="-2.55151381134551"><ele>1054.0</ele><time>2026-05-03T12:35:40.001Z</time></trkpt><trkpt lat="41.79979135678038" lon="-2.551373081799641"><ele>1054.0</ele><time>2026-05-03T12:35:41.001Z</time></trkpt><trkpt lat="41.799740855528775" lon="-2.5512311276222346"><ele>1054.0</ele><time>2026-05-03T12:35:42.001Z</time></trkpt><trkpt lat="41.799692045881315" lon="-2.5510935724175057"><ele>1054.0</ele><time>2026-05-03T12:35:43.001Z</time></trkpt><trkpt lat="41.79964169020814" lon="-2.550955833642245"><ele>1053.5</ele><time>2026-05-03T12:35:44.001Z</time></trkpt><trkpt lat="41.799590880178805" lon="-2.55081812977224"><ele>1053.0</ele><time>2026-05-03T12:35:45.001Z</time></trkpt><trkpt lat="41.799541033533416" lon="-2.55068057084048"><ele>1052.5</ele><time>2026-05-03T12:35:46.001Z</time></trkpt><trkpt lat="41.79949061126931" lon="-2.550541334672514"><ele>1052.0</ele><time>2026-05-03T12:35:47.001Z</time></trkpt><trkpt lat="41.79943976185321" lon="-2.5504042672538896"><ele>1051.5</ele><time>2026-05-03T12:35:48.001Z</time></trkpt><trkpt lat="41.799387948253205" lon="-2.5502718424766977"><ele>1051.0</ele><time>2026-05-03T12:35:49Z</time></trkpt><trkpt lat="41.79933852985821" lon="-2.550134050849388"><ele>1050.5</ele><time>2026-05-03T12:35:50Z</time></trkpt><trkpt lat="41.799289547453185" lon="-2.549996823057881"><ele>1050.0</ele><time>2026-05-03T12:35:51Z</time></trkpt><trkpt lat="41.79923775129745" lon="-2.549860435098484"><ele>1050.0</ele><time>2026-05-03T12:35:52Z</time></trkpt><trkpt lat="41.79919005950283" lon="-2.5497252148736385"><ele>1050.0</ele><time>2026-05-03T12:35:53Z</time></trkpt><trkpt lat="41.799141381642535" lon="-2.5495908403407332"><ele>1050.0</ele><time>2026-05-03T12:35:54Z</time></trkpt><trkpt lat="41.79907626903377" lon="-2.5494633647384606"><ele>1050.0</ele><time>2026-05-03T12:35:55Z</time></trkpt><trkpt lat="41.79902650051445" lon="-2.5493299503367663"><ele>1050.0</ele><time>2026-05-03T12:35:56Z</time></trkpt><trkpt lat="41.79898898926661" lon="-2.549185191553108"><ele>1050.0</ele><time>2026-05-03T12:35:57Z</time></trkpt><trkpt lat="41.79893506113658" lon="-2.549050069089697"><ele>1050.0</ele><time>2026-05-03T12:35:58Z</time></trkpt><trkpt lat="41.79888651309439" lon="-2.5489127905646143"><ele>1050.0</ele><time>2026-05-03T12:35:59Z</time></trkpt><trkpt lat="41.7988335565572" lon="-2.5487733859674244"><ele>1050.0</ele><time>2026-05-03T12:36:00Z</time></trkpt><trkpt lat="41.79878375389922" lon="-2.5486334788023886"><ele>1049.75</ele><time>2026-05-03T12:36:01Z</time></trkpt><trkpt lat="41.79873228846669" lon="-2.548495051948747"><ele>1049.5</ele><time>2026-05-03T12:36:02Z</time></trkpt><trkpt lat="41.79867769727956" lon="-2.548358201062048"><ele>1049.25</ele><time>2026-05-03T12:36:03Z</time></trkpt><trkpt lat="41.798630371597625" lon="-2.5482174437226455"><ele>1049.0</ele><time>2026-05-03T12:36:04Z</time></trkpt><trkpt lat="41.79857676619321" lon="-2.548081635874236"><ele>1049.0</ele><time>2026-05-03T12:36:05Z</time></trkpt><trkpt lat="41.79852980909956" lon="-2.547947187295805"><ele>1049.0</ele><time>2026-05-03T12:36:06Z</time></trkpt><trkpt lat="41.79848269137109" lon="-2.547811614599134"><ele>1049.0</ele><time>2026-05-03T12:36:07Z</time></trkpt><trkpt lat="41.79843377973046" lon="-2.5476788449345253"><ele>1049.0</ele><time>2026-05-03T12:36:08Z</time></trkpt><trkpt lat="41.798378169486" lon="-2.5475644677807714"><ele>1049.0</ele><time>2026-05-03T12:36:09Z</time></trkpt><trkpt lat="41.79834197990619" lon="-2.5474663736176693"><ele>1049.75</ele><time>2026-05-03T12:36:10Z</time></trkpt><trkpt lat="41.79828733375276" lon="-2.5472943254549567"><ele>1050.5</ele><time>2026-05-03T12:36:11Z</time></trkpt><trkpt lat="41.798244460046995" lon="-2.5471665282300475"><ele>1051.25</ele><time>2026-05-03T12:36:12Z</time></trkpt><trkpt lat="41.79819611671867" lon="-2.5470412607546504"><ele>1052.0</ele><time>2026-05-03T12:36:13Z</time></trkpt><trkpt lat="41.798149675604684" lon="-2.546912313206801"><ele>1052.0</ele><time>2026-05-03T12:36:14Z</time></trkpt><trkpt lat="41.79810027464548" lon="-2.5467863560206623"><ele>1052.0</ele><time>2026-05-03T12:36:15Z</time></trkpt><trkpt lat="41.7980539744234" lon="-2.546659322103398"><ele>1052.0</ele><time>2026-05-03T12:36:16Z</time></trkpt><trkpt lat="41.798006062430865" lon="-2.546527854334706"><ele>1052.0</ele><time>2026-05-03T12:36:17Z</time></trkpt><trkpt lat="41.79795467925119" lon="-2.5463977145100847"><ele>1052.0</ele><time>2026-05-03T12:36:18Z</time></trkpt><trkpt lat="41.79790715306122" lon="-2.546264195005037"><ele>1051.5</ele><time>2026-05-03T12:36:19Z</time></trkpt><trkpt lat="41.79785899579849" lon="-2.5461314130055888"><ele>1051.0</ele><time>2026-05-03T12:36:20Z</time></trkpt><trkpt lat="41.79780726067317" lon="-2.5459936193324957"><ele>1050.5</ele><time>2026-05-03T12:36:21Z</time></trkpt><trkpt lat="41.79775587853487" lon="-2.545854685287427"><ele>1050.0</ele><time>2026-05-03T12:36:22Z</time></trkpt><trkpt lat="41.79769976496717" lon="-2.5457128970130114"><ele>1049.5</ele><time>2026-05-03T12:36:23Z</time></trkpt><trkpt lat="41.7976482809776" lon="-2.5455721900868906"><ele>1049.0</ele><time>2026-05-03T12:36:24Z</time></trkpt><trkpt lat="41.797595283259334" lon="-2.5454259590440644"><ele>1048.5</ele><time>2026-05-03T12:36:25Z</time></trkpt><trkpt lat="41.79754131254727" lon="-2.5452904130900693"><ele>1048.0</ele><time>2026-05-03T12:36:26Z</time></trkpt><trkpt lat="41.79748850817414" lon="-2.545146294041315"><ele>1048.0</ele><time>2026-05-03T12:36:27Z</time></trkpt><trkpt lat="41.79743716964204" lon="-2.5450050086972738"><ele>1048.0</ele><time>2026-05-03T12:36:28Z</time></trkpt><trkpt lat="41.797382259838955" lon="-2.5448672480027517"><ele>1048.0</ele><time>2026-05-03T12:36:29Z</time></trkpt><trkpt lat="41.7973329821918" lon="-2.544729186037331"><ele>1048.0</ele><time>2026-05-03T12:36:30Z</time></trkpt><trkpt lat="41.797278342759945" lon="-2.544588616993652"><ele>1047.75</ele><time>2026-05-03T12:36:31Z</time></trkpt><trkpt lat="41.79722802098231" lon="-2.5444479031326472"><ele>1047.5</ele><time>2026-05-03T12:36:32Z</time></trkpt><trkpt lat="41.79717432795139" lon="-2.5443125054911326"><ele>1047.25</ele><time>2026-05-03T12:36:33Z</time></trkpt><trkpt lat="41.7971247263554" lon="-2.5441737284170096"><ele>1047.0</ele><time>2026-05-03T12:36:34Z</time></trkpt><trkpt lat="41.797070541016474" lon="-2.544036791678803"><ele>1047.0</ele><time>2026-05-03T12:36:35Z</time></trkpt><trkpt lat="41.79702000885429" lon="-2.5439012877284357"><ele>1047.0</ele><time>2026-05-03T12:36:36Z</time></trkpt><trkpt lat="41.79696910081182" lon="-2.543763563120762"><ele>1047.0</ele><time>2026-05-03T12:36:37Z</time></trkpt><trkpt lat="41.79691710747519" lon="-2.543626101458404"><ele>1047.0</ele><time>2026-05-03T12:36:38Z</time></trkpt><trkpt lat="41.79686226600371" lon="-2.543491526162926"><ele>1047.75</ele><time>2026-05-03T12:36:39Z</time></trkpt><trkpt lat="41.7968094264336" lon="-2.5433534359212673"><ele>1048.5</ele><time>2026-05-03T12:36:40Z</time></trkpt><trkpt lat="41.79675712560701" lon="-2.543214815399797"><ele>1049.25</ele><time>2026-05-03T12:36:41Z</time></trkpt><trkpt lat="41.796707329715865" lon="-2.543073880092413"><ele>1050.0</ele><time>2026-05-03T12:36:42Z</time></trkpt><trkpt lat="41.79665507736995" lon="-2.542936953789614"><ele>1049.5</ele><time>2026-05-03T12:36:43Z</time></trkpt><trkpt lat="41.796603504356135" lon="-2.5427983612703815"><ele>1049.0</ele><time>2026-05-03T12:36:44Z</time></trkpt><trkpt lat="41.796552122031734" lon="-2.5426598023861864"><ele>1048.5</ele><time>2026-05-03T12:36:45Z</time></trkpt><trkpt lat="41.79650163993582" lon="-2.542518310933188"><ele>1048.0</ele><time>2026-05-03T12:36:46Z</time></trkpt><trkpt lat="41.79645011887117" lon="-2.542381132549871"><ele>1048.0</ele><time>2026-05-03T12:36:47Z</time></trkpt><trkpt lat="41.796400410167" lon="-2.542242497635308"><ele>1048.0</ele><time>2026-05-03T12:36:48Z</time></trkpt><trkpt lat="41.79634688356108" lon="-2.5421069678987926"><ele>1048.0</ele><time>2026-05-03T12:36:49Z</time></trkpt><trkpt lat="41.79629706104064" lon="-2.541968471592704"><ele>1048.0</ele><time>2026-05-03T12:36:50Z</time></trkpt><trkpt lat="41.796242600210405" lon="-2.541830461795165"><ele>1048.0</ele><time>2026-05-03T12:36:51Z</time></trkpt><trkpt lat="41.796190352467256" lon="-2.5416932980724964"><ele>1048.0</ele><time>2026-05-03T12:36:52Z</time></trkpt><trkpt lat="41.79613648811795" lon="-2.5415566164621133"><ele>1048.0</ele><time>2026-05-03T12:36:53Z</time></trkpt><trkpt lat="41.79608338669555" lon="-2.541417503210355"><ele>1048.0</ele><time>2026-05-03T12:36:54.001Z</time></trkpt><trkpt lat="41.796034362915016" lon="-2.5412720905478894"><ele>1048.25</ele><time>2026-05-03T12:36:55.001Z</time></trkpt><trkpt lat="41.79598434083954" lon="-2.5411357057018122"><ele>1048.5</ele><time>2026-05-03T12:36:56.001Z</time></trkpt><trkpt lat="41.795931331808944" lon="-2.540997570854988"><ele>1048.75</ele><time>2026-05-03T12:36:57.001Z</time></trkpt><trkpt lat="41.795882486848406" lon="-2.540855347400496"><ele>1049.0</ele><time>2026-05-03T12:36:58.001Z</time></trkpt><trkpt lat="41.795827734709405" lon="-2.540720376263633"><ele>1049.0</ele><time>2026-05-03T12:36:59.001Z</time></trkpt><trkpt lat="41.7957720116535" lon="-2.5405857379048165"><ele>1049.0</ele><time>2026-05-03T12:37:00.001Z</time></trkpt><trkpt lat="41.79572093605234" lon="-2.5404482689187677"><ele>1049.0</ele><time>2026-05-03T12:37:01.001Z</time></trkpt><trkpt lat="41.7956714932815" lon="-2.5403038440334673"><ele>1049.0</ele><time>2026-05-03T12:37:02.001Z</time></trkpt><trkpt lat="41.79562150423815" lon="-2.540168983832759"><ele>1048.8</ele><time>2026-05-03T12:37:03.001Z</time></trkpt><trkpt lat="41.795572017021975" lon="-2.5400332080560513"><ele>1048.6000000000001</ele><time>2026-05-03T12:37:04.001Z</time></trkpt><trkpt lat="41.795518383796185" lon="-2.5398997923834807"><ele>1048.4</ele><time>2026-05-03T12:37:05.001Z</time></trkpt><trkpt lat="41.795470817632655" lon="-2.53976330707314"><ele>1048.2</ele><time>2026-05-03T12:37:06.001Z</time></trkpt><trkpt lat="41.7954199281383" lon="-2.5396314637067907"><ele>1048.0</ele><time>2026-05-03T12:37:07.001Z</time></trkpt><trkpt lat="41.79537003895255" lon="-2.539494670139928"><ele>1047.6</ele><time>2026-05-03T12:37:08.001Z</time></trkpt><trkpt lat="41.79531961871782" lon="-2.5393602715995036"><ele>1047.1999999999998</ele><time>2026-05-03T12:37:09.001Z</time></trkpt><trkpt lat="41.795269904826625" lon="-2.539227179995914"><ele>1046.8</ele><time>2026-05-03T12:37:10.001Z</time></trkpt><trkpt lat="41.79521936779999" lon="-2.5390939613288577"><ele>1046.3999999999999</ele><time>2026-05-03T12:37:11.001Z</time></trkpt><trkpt lat="41.79516916395777" lon="-2.5389602245854235"><ele>1046.0</ele><time>2026-05-03T12:37:12.001Z</time></trkpt><trkpt lat="41.79512253278602" lon="-2.5388228908174075"><ele>1047.25</ele><time>2026-05-03T12:37:13.001Z</time></trkpt><trkpt lat="41.795070190762004" lon="-2.5386964014491915"><ele>1048.5</ele><time>2026-05-03T12:37:14.001Z</time></trkpt><trkpt lat="41.79502033012658" lon="-2.538563591389745"><ele>1049.75</ele><time>2026-05-03T12:37:15.001Z</time></trkpt><trkpt lat="41.79496735559108" lon="-2.5384271635980253"><ele>1051.0</ele><time>2026-05-03T12:37:16.001Z</time></trkpt><trkpt lat="41.794906193313416" lon="-2.538271797560182"><ele>1051.0</ele><time>2026-05-03T12:37:17.001Z</time></trkpt><trkpt lat="41.79486814399688" lon="-2.5381662662753337"><ele>1051.0</ele><time>2026-05-03T12:37:18.001Z</time></trkpt><trkpt lat="41.79482059822934" lon="-2.538034999110203"><ele>1051.0</ele><time>2026-05-03T12:37:19.001Z</time></trkpt><trkpt lat="41.79477246206471" lon="-2.5379061346733685"><ele>1051.0</ele><time>2026-05-03T12:37:20.001Z</time></trkpt><trkpt lat="41.79472412050711" lon="-2.5377800029119837"><ele>1051.0</ele><time>2026-05-03T12:37:21.001Z</time></trkpt><trkpt lat="41.7946775413818" lon="-2.537652486616"><ele>1050.8</ele><time>2026-05-03T12:37:22.001Z</time></trkpt><trkpt lat="41.79462995417154" lon="-2.5375264015667547"><ele>1050.6</ele><time>2026-05-03T12:37:23.001Z</time></trkpt><trkpt lat="41.79458375675564" lon="-2.5374016223477946"><ele>1050.4</ele><time>2026-05-03T12:37:24.001Z</time></trkpt><trkpt lat="41.79453580706671" lon="-2.5372743303796943"><ele>1050.2</ele><time>2026-05-03T12:37:25.001Z</time></trkpt><trkpt lat="41.79448971131557" lon="-2.5371473837623797"><ele>1050.0</ele><time>2026-05-03T12:37:26.001Z</time></trkpt><trkpt lat="41.79444367249944" lon="-2.537025822038403"><ele>1049.8</ele><time>2026-05-03T12:37:27.001Z</time></trkpt><trkpt lat="41.79439760544966" lon="-2.5369029953618325"><ele>1049.6</ele><time>2026-05-03T12:37:28.001Z</time></trkpt><trkpt lat="41.79435080469805" lon="-2.5367779775427364"><ele>1049.4</ele><time>2026-05-03T12:37:29.001Z</time></trkpt><trkpt lat="41.79430526753294" lon="-2.536655699288316"><ele>1049.2</ele><time>2026-05-03T12:37:30.001Z</time></trkpt><trkpt lat="41.7942571884801" lon="-2.5365352260192813"><ele>1049.0</ele><time>2026-05-03T12:37:31.001Z</time></trkpt><trkpt lat="41.79420848464298" lon="-2.536412969784048"><ele>1050.2</ele><time>2026-05-03T12:37:32.001Z</time></trkpt><trkpt lat="41.79416273901929" lon="-2.536289499192071"><ele>1051.4</ele><time>2026-05-03T12:37:33.001Z</time></trkpt><trkpt lat="41.79411606441589" lon="-2.53616580607669"><ele>1052.6</ele><time>2026-05-03T12:37:34.001Z</time></trkpt><trkpt lat="41.79407040458209" lon="-2.536044192812652"><ele>1053.8</ele><time>2026-05-03T12:37:35.001Z</time></trkpt><trkpt lat="41.7940243341746" lon="-2.5359222974112114"><ele>1055.0</ele><time>2026-05-03T12:37:36.001Z</time></trkpt><trkpt lat="41.793977637833656" lon="-2.5358018520314762"><ele>1055.0</ele><time>2026-05-03T12:37:37.001Z</time></trkpt><trkpt lat="41.7939312450672" lon="-2.5356819122047303"><ele>1055.0</ele><time>2026-05-03T12:37:38.001Z</time></trkpt><trkpt lat="41.793884528312645" lon="-2.5355581716391633"><ele>1055.0</ele><time>2026-05-03T12:37:39.001Z</time></trkpt><trkpt lat="41.79383335316548" lon="-2.5354331091270645"><ele>1055.0</ele><time>2026-05-03T12:37:40.001Z</time></trkpt><trkpt lat="41.793784837065225" lon="-2.5353122515921322"><ele>1055.0</ele><time>2026-05-03T12:37:41.001Z</time></trkpt><trkpt lat="41.793737017387244" lon="-2.535188961395396"><ele>1055.0</ele><time>2026-05-03T12:37:42.001Z</time></trkpt><trkpt lat="41.79369020832598" lon="-2.5350614347914515"><ele>1055.0</ele><time>2026-05-03T12:37:43.001Z</time></trkpt><trkpt lat="41.79363886923308" lon="-2.5349380549667617"><ele>1055.0</ele><time>2026-05-03T12:37:44.001Z</time></trkpt><trkpt lat="41.79359231892382" lon="-2.5348132283360654"><ele>1055.0</ele><time>2026-05-03T12:37:45.001Z</time></trkpt><trkpt lat="41.79354079029437" lon="-2.5346900784302537"><ele>1055.0</ele><time>2026-05-03T12:37:46.001Z</time></trkpt><trkpt lat="41.793488649554135" lon="-2.534570032411627"><ele>1055.8</ele><time>2026-05-03T12:37:47.001Z</time></trkpt><trkpt lat="41.793430541154" lon="-2.5344532703373055"><ele>1056.6</ele><time>2026-05-03T12:37:48.001Z</time></trkpt><trkpt lat="41.79336746139006" lon="-2.534340033609429"><ele>1057.4</ele><time>2026-05-03T12:37:49.001Z</time></trkpt><trkpt lat="41.793304793301466" lon="-2.5342247303841354"><ele>1058.2</ele><time>2026-05-03T12:37:50.001Z</time></trkpt><trkpt lat="41.79324165215411" lon="-2.5341105115039113"><ele>1059.0</ele><time>2026-05-03T12:37:51.001Z</time></trkpt><trkpt lat="41.79317577830497" lon="-2.5339950460397636"><ele>1059.0</ele><time>2026-05-03T12:37:52.001Z</time></trkpt><trkpt lat="41.793109880376186" lon="-2.5338857853564725"><ele>1059.0</ele><time>2026-05-03T12:37:53.001Z</time></trkpt><trkpt lat="41.79303792849901" lon="-2.5337751130054023"><ele>1059.0</ele><time>2026-05-03T12:37:54.001Z</time></trkpt><trkpt lat="41.792973373266314" lon="-2.533658089625358"><ele>1059.0</ele><time>2026-05-03T12:37:55Z</time></trkpt><trkpt lat="41.79290125876718" lon="-2.5335523481612827"><ele>1059.0</ele><time>2026-05-03T12:37:56Z</time></trkpt><trkpt lat="41.79282349187847" lon="-2.533452686732735"><ele>1058.8</ele><time>2026-05-03T12:37:57Z</time></trkpt><trkpt lat="41.792746958298736" lon="-2.5333488111386733"><ele>1058.6000000000001</ele><time>2026-05-03T12:37:58Z</time></trkpt><trkpt lat="41.79267631198607" lon="-2.53324523795358"><ele>1058.4</ele><time>2026-05-03T12:37:59Z</time></trkpt><trkpt lat="41.792594558418955" lon="-2.5331414879948"><ele>1058.2</ele><time>2026-05-03T12:38:00Z</time></trkpt><trkpt lat="41.79251455063381" lon="-2.533046116794479"><ele>1058.0</ele><time>2026-05-03T12:38:01Z</time></trkpt><trkpt lat="41.792432549795535" lon="-2.5329537663005746"><ele>1058.0</ele><time>2026-05-03T12:38:02Z</time></trkpt><trkpt lat="41.792350191112746" lon="-2.5328617864006207"><ele>1058.0</ele><time>2026-05-03T12:38:03Z</time></trkpt><trkpt lat="41.79226668836857" lon="-2.5327713932802935"><ele>1058.0</ele><time>2026-05-03T12:38:04Z</time></trkpt><trkpt lat="41.792179281136306" lon="-2.532681860858499"><ele>1058.0</ele><time>2026-05-03T12:38:05Z</time></trkpt><trkpt lat="41.79209309448301" lon="-2.5325964921658852"><ele>1058.0</ele><time>2026-05-03T12:38:06Z</time></trkpt><trkpt lat="41.79200283222023" lon="-2.532511354373646"><ele>1058.0</ele><time>2026-05-03T12:38:07Z</time></trkpt><trkpt lat="41.79190970681629" lon="-2.5324322181628953"><ele>1058.0</ele><time>2026-05-03T12:38:08Z</time></trkpt><trkpt lat="41.79181927519756" lon="-2.5323486560579553"><ele>1058.0</ele><time>2026-05-03T12:38:09Z</time></trkpt><trkpt lat="41.79171737145377" lon="-2.5322832200211827"><ele>1058.0</ele><time>2026-05-03T12:38:10Z</time></trkpt><trkpt lat="41.791599944453466" lon="-2.532232178165023"><ele>1057.8</ele><time>2026-05-03T12:38:11Z</time></trkpt><trkpt lat="41.79153214439787" lon="-2.532128960804146"><ele>1057.6</ele><time>2026-05-03T12:38:12Z</time></trkpt><trkpt lat="41.791439740944426" lon="-2.5320559824843274"><ele>1057.4</ele><time>2026-05-03T12:38:13Z</time></trkpt><trkpt lat="41.79134510208238" lon="-2.531983353996014"><ele>1057.2</ele><time>2026-05-03T12:38:14Z</time></trkpt><trkpt lat="41.791252374342356" lon="-2.5319075558338575"><ele>1057.0</ele><time>2026-05-03T12:38:15Z</time></trkpt><trkpt lat="41.7911538951427" lon="-2.5318309121454923"><ele>1057.0</ele><time>2026-05-03T12:38:16Z</time></trkpt><trkpt lat="41.791058472571976" lon="-2.5317579053035195"><ele>1057.0</ele><time>2026-05-03T12:38:17Z</time></trkpt><trkpt lat="41.79096150176205" lon="-2.53168770834056"><ele>1057.0</ele><time>2026-05-03T12:38:18Z</time></trkpt><trkpt lat="41.790865858520064" lon="-2.5316088490136277"><ele>1057.0</ele><time>2026-05-03T12:38:19Z</time></trkpt><trkpt lat="41.7907700766311" lon="-2.5315333980880355"><ele>1057.0</ele><time>2026-05-03T12:38:20Z</time></trkpt><trkpt lat="41.79067229942136" lon="-2.531457315745046"><ele>1057.6</ele><time>2026-05-03T12:38:21Z</time></trkpt><trkpt lat="41.79058004829491" lon="-2.531380862851142"><ele>1058.2</ele><time>2026-05-03T12:38:22Z</time></trkpt><trkpt lat="41.79048685505441" lon="-2.5313062447520887"><ele>1058.8</ele><time>2026-05-03T12:38:23Z</time></trkpt><trkpt lat="41.790389120287124" lon="-2.5312342426098016"><ele>1059.4</ele><time>2026-05-03T12:38:24Z</time></trkpt><trkpt lat="41.7902953578675" lon="-2.5311566021249554"><ele>1060.0</ele><time>2026-05-03T12:38:25Z</time></trkpt><trkpt lat="41.7901963683372" lon="-2.5310786138987935"><ele>1060.0</ele><time>2026-05-03T12:38:26Z</time></trkpt><trkpt lat="41.790100179321634" lon="-2.5310060549504674"><ele>1060.0</ele><time>2026-05-03T12:38:27Z</time></trkpt><trkpt lat="41.79000550402776" lon="-2.5309290892554697"><ele>1060.0</ele><time>2026-05-03T12:38:28Z</time></trkpt><trkpt lat="41.78990954492329" lon="-2.530852211176188"><ele>1060.0</ele><time>2026-05-03T12:38:29Z</time></trkpt><trkpt lat="41.78981417389677" lon="-2.530778654648246"><ele>1060.0</ele><time>2026-05-03T12:38:30Z</time></trkpt><trkpt lat="41.789719364303004" lon="-2.530702654806572"><ele>1060.0</ele><time>2026-05-03T12:38:31Z</time></trkpt><trkpt lat="41.78962738564329" lon="-2.530631912352648"><ele>1060.0</ele><time>2026-05-03T12:38:32Z</time></trkpt><trkpt lat="41.78953661909613" lon="-2.5305619480003094"><ele>1060.0</ele><time>2026-05-03T12:38:33Z</time></trkpt><trkpt lat="41.789452159460254" lon="-2.530497569104121"><ele>1060.0</ele><time>2026-05-03T12:38:34Z</time></trkpt><trkpt lat="41.78936461183072" lon="-2.5304305957201674"><ele>1060.0</ele><time>2026-05-03T12:38:35Z</time></trkpt><trkpt lat="41.789278911786525" lon="-2.5303643232830786"><ele>1061.0</ele><time>2026-05-03T12:38:36Z</time></trkpt><trkpt lat="41.78919764657674" lon="-2.530301324791724"><ele>1062.0</ele><time>2026-05-03T12:38:37Z</time></trkpt><trkpt lat="41.789113498278766" lon="-2.5302365958301603"><ele>1063.0</ele><time>2026-05-03T12:38:38Z</time></trkpt><trkpt lat="41.78903636906849" lon="-2.530172952005576"><ele>1064.0</ele><time>2026-05-03T12:38:39Z</time></trkpt><trkpt lat="41.78895802845296" lon="-2.530117745890565"><ele>1065.0</ele><time>2026-05-03T12:38:40Z</time></trkpt><trkpt lat="41.78887682958531" lon="-2.5300571552251028"><ele>1065.0</ele><time>2026-05-03T12:38:41Z</time></trkpt><trkpt lat="41.788798287921935" lon="-2.5299928877935725"><ele>1065.0</ele><time>2026-05-03T12:38:42Z</time></trkpt><trkpt lat="41.788721570410424" lon="-2.5299383785054066"><ele>1065.0</ele><time>2026-05-03T12:38:43Z</time></trkpt><trkpt lat="41.78864557972234" lon="-2.5298812953081597"><ele>1065.0</ele><time>2026-05-03T12:38:44Z</time></trkpt><trkpt lat="41.78857179726283" lon="-2.529821473196154"><ele>1065.0</ele><time>2026-05-03T12:38:45Z</time></trkpt><trkpt lat="41.788499731337424" lon="-2.5297608128714644"><ele>1065.0</ele><time>2026-05-03T12:38:46Z</time></trkpt><trkpt lat="41.78842646877716" lon="-2.5297026738936643"><ele>1065.6666666666667</ele><time>2026-05-03T12:38:47Z</time></trkpt><trkpt lat="41.78835407086013" lon="-2.529645416879925"><ele>1066.3333333333333</ele><time>2026-05-03T12:38:48Z</time></trkpt><trkpt lat="41.78828027285324" lon="-2.529589073948853"><ele>1067.0</ele><time>2026-05-03T12:38:49Z</time></trkpt><trkpt lat="41.78820766169886" lon="-2.5295364048164863"><ele>1067.6666666666665</ele><time>2026-05-03T12:38:50Z</time></trkpt><trkpt lat="41.78813531261512" lon="-2.529477873924038"><ele>1068.3333333333333</ele><time>2026-05-03T12:38:51Z</time></trkpt><trkpt lat="41.78806428801849" lon="-2.529418965516891"><ele>1069.0</ele><time>2026-05-03T12:38:52Z</time></trkpt><trkpt lat="41.787992919171565" lon="-2.529362014368463"><ele>1069.1666666666665</ele><time>2026-05-03T12:38:53Z</time></trkpt><trkpt lat="41.78792178869931" lon="-2.5293073168220337"><ele>1069.3333333333333</ele><time>2026-05-03T12:38:54.001Z</time></trkpt><trkpt lat="41.78785024628931" lon="-2.529251329733342"><ele>1069.5</ele><time>2026-05-03T12:38:55.001Z</time></trkpt><trkpt lat="41.78777945817829" lon="-2.5291941034663568"><ele>1069.6666666666667</ele><time>2026-05-03T12:38:56.001Z</time></trkpt><trkpt lat="41.78771072877983" lon="-2.529136443232781"><ele>1069.8333333333335</ele><time>2026-05-03T12:38:57.001Z</time></trkpt><trkpt lat="41.787639628053824" lon="-2.529081171979399"><ele>1070.0</ele><time>2026-05-03T12:38:58.001Z</time></trkpt><trkpt lat="41.7875681969337" lon="-2.529028503146305"><ele>1070.6666666666667</ele><time>2026-05-03T12:38:59.001Z</time></trkpt><trkpt lat="41.78749551638173" lon="-2.5289749694478587"><ele>1071.3333333333335</ele><time>2026-05-03T12:39:00.001Z</time></trkpt><trkpt lat="41.7874251526739" lon="-2.528919151903657"><ele>1072.0</ele><time>2026-05-03T12:39:01.001Z</time></trkpt><trkpt lat="41.787354550179366" lon="-2.528863401039411"><ele>1072.6666666666667</ele><time>2026-05-03T12:39:02.001Z</time></trkpt><trkpt lat="41.78728441365804" lon="-2.528807029661506"><ele>1073.3333333333333</ele><time>2026-05-03T12:39:03.001Z</time></trkpt><trkpt lat="41.78721141544149" lon="-2.5287507853311175"><ele>1074.0</ele><time>2026-05-03T12:39:04.001Z</time></trkpt><trkpt lat="41.78714207801056" lon="-2.5286928463367926"><ele>1074.5</ele><time>2026-05-03T12:39:05.001Z</time></trkpt><trkpt lat="41.78707071751364" lon="-2.528631957117373"><ele>1075.0</ele><time>2026-05-03T12:39:06.001Z</time></trkpt><trkpt lat="41.78700095307915" lon="-2.5285717251631"><ele>1075.5</ele><time>2026-05-03T12:39:07.001Z</time></trkpt><trkpt lat="41.78692874296984" lon="-2.5285109646173773"><ele>1076.0</ele><time>2026-05-03T12:39:08.001Z</time></trkpt><trkpt lat="41.7868594627915" lon="-2.5284501882114756"><ele>1076.5</ele><time>2026-05-03T12:39:09.001Z</time></trkpt><trkpt lat="41.78679061968145" lon="-2.5283859253783185"><ele>1077.0</ele><time>2026-05-03T12:39:10.001Z</time></trkpt><trkpt lat="41.786723988928664" lon="-2.528319912994563"><ele>1077.5</ele><time>2026-05-03T12:39:11.001Z</time></trkpt><trkpt lat="41.78665678156075" lon="-2.5282480566209578"><ele>1078.0</ele><time>2026-05-03T12:39:12.001Z</time></trkpt><trkpt lat="41.78659045234503" lon="-2.528179643744505"><ele>1078.5</ele><time>2026-05-03T12:39:13.001Z</time></trkpt><trkpt lat="41.786528084606424" lon="-2.528106029288345"><ele>1079.0</ele><time>2026-05-03T12:39:14.001Z</time></trkpt><trkpt lat="41.786465613074455" lon="-2.528026677794249"><ele>1079.5</ele><time>2026-05-03T12:39:15.001Z</time></trkpt><trkpt lat="41.78640280803382" lon="-2.5279503566581245"><ele>1080.0</ele><time>2026-05-03T12:39:16.001Z</time></trkpt><trkpt lat="41.78634338975318" lon="-2.5278730455004044"><ele>1080.3333333333333</ele><time>2026-05-03T12:39:17.001Z</time></trkpt><trkpt lat="41.78628370775772" lon="-2.5277936553343676"><ele>1080.6666666666667</ele><time>2026-05-03T12:39:18.001Z</time></trkpt><trkpt lat="41.78622508337911" lon="-2.527709176689442"><ele>1081.0</ele><time>2026-05-03T12:39:19.001Z</time></trkpt><trkpt lat="41.786173252170855" lon="-2.5276280054903073"><ele>1081.3333333333335</ele><time>2026-05-03T12:39:20.001Z</time></trkpt><trkpt lat="41.78611988463378" lon="-2.527539655977278"><ele>1081.6666666666667</ele><time>2026-05-03T12:39:21.001Z</time></trkpt><trkpt lat="41.786067367770094" lon="-2.527452066896173"><ele>1082.0</ele><time>2026-05-03T12:39:22.001Z</time></trkpt><trkpt lat="41.786019054824635" lon="-2.5273634601243127"><ele>1082.6666666666667</ele><time>2026-05-03T12:39:23.001Z</time></trkpt><trkpt lat="41.785970708534755" lon="-2.527273925610415"><ele>1083.3333333333335</ele><time>2026-05-03T12:39:24.001Z</time></trkpt><trkpt lat="41.78592533338668" lon="-2.52718306981652"><ele>1084.0</ele><time>2026-05-03T12:39:25.001Z</time></trkpt><trkpt lat="41.785877592096526" lon="-2.527091592070816"><ele>1084.6666666666667</ele><time>2026-05-03T12:39:26.001Z</time></trkpt><trkpt lat="41.78583376813577" lon="-2.5270017973230092"><ele>1085.3333333333333</ele><time>2026-05-03T12:39:27.001Z</time></trkpt><trkpt lat="41.78579092655472" lon="-2.5269094976469915"><ele>1086.0</ele><time>2026-05-03T12:39:28.001Z</time></trkpt><trkpt lat="41.78575123089244" lon="-2.5268124852857303"><ele>1086.0</ele><time>2026-05-03T12:39:29.001Z</time></trkpt><trkpt lat="41.7857114354818" lon="-2.5267156961314305"><ele>1086.0</ele><time>2026-05-03T12:39:30.001Z</time></trkpt><trkpt lat="41.78567286565587" lon="-2.5266165842279813"><ele>1086.0</ele><time>2026-05-03T12:39:31.001Z</time></trkpt><trkpt lat="41.785636821460564" lon="-2.5265164613802242"><ele>1086.0</ele><time>2026-05-03T12:39:32.001Z</time></trkpt><trkpt lat="41.78560277622388" lon="-2.5264149217634357"><ele>1086.0</ele><time>2026-05-03T12:39:33.001Z</time></trkpt><trkpt lat="41.785572928462074" lon="-2.5263094472535315"><ele>1086.0</ele><time>2026-05-03T12:39:34.001Z</time></trkpt><trkpt lat="41.785544388261535" lon="-2.526201655287399"><ele>1086.8333333333333</ele><time>2026-05-03T12:39:35.001Z</time></trkpt><trkpt lat="41.78551557415576" lon="-2.526095874178655"><ele>1087.6666666666667</ele><time>2026-05-03T12:39:36.001Z</time></trkpt><trkpt lat="41.7854859546528" lon="-2.525985199506017"><ele>1088.5</ele><time>2026-05-03T12:39:37.001Z</time></trkpt><trkpt lat="41.78545635712484" lon="-2.525881623083817"><ele>1089.3333333333335</ele><time>2026-05-03T12:39:38.001Z</time></trkpt><trkpt lat="41.78542980635069" lon="-2.525774324407178"><ele>1090.1666666666667</ele><time>2026-05-03T12:39:39.001Z</time></trkpt><trkpt lat="41.78540735191422" lon="-2.525666812591922"><ele>1091.0</ele><time>2026-05-03T12:39:40.001Z</time></trkpt><trkpt lat="41.785379604543586" lon="-2.5255625287124657"><ele>1091.0</ele><time>2026-05-03T12:39:41.001Z</time></trkpt><trkpt lat="41.785350896116796" lon="-2.525456711996836"><ele>1091.0</ele><time>2026-05-03T12:39:42.001Z</time></trkpt><trkpt lat="41.78532447297588" lon="-2.5253522579107006"><ele>1091.0</ele><time>2026-05-03T12:39:43.001Z</time></trkpt><trkpt lat="41.7853009024463" lon="-2.5252498414843947"><ele>1091.0</ele><time>2026-05-03T12:39:44.001Z</time></trkpt><trkpt lat="41.78527395870964" lon="-2.5251460418775644"><ele>1091.0</ele><time>2026-05-03T12:39:45.001Z</time></trkpt><trkpt lat="41.785248391849706" lon="-2.525038992642098"><ele>1091.0</ele><time>2026-05-03T12:39:46.001Z</time></trkpt><trkpt lat="41.7852241308099" lon="-2.5249366265443935"><ele>1091.5</ele><time>2026-05-03T12:39:47.001Z</time></trkpt><trkpt lat="41.785196899842326" lon="-2.524831976326107"><ele>1092.0</ele><time>2026-05-03T12:39:48.001Z</time></trkpt><trkpt lat="41.785171115817526" lon="-2.52472959309703"><ele>1092.5</ele><time>2026-05-03T12:39:49.001Z</time></trkpt><trkpt lat="41.78513961059375" lon="-2.524625249383899"><ele>1093.0</ele><time>2026-05-03T12:39:50.001Z</time></trkpt><trkpt lat="41.785106746519446" lon="-2.5245191501763786"><ele>1093.5</ele><time>2026-05-03T12:39:51.001Z</time></trkpt><trkpt lat="41.78507190961267" lon="-2.5244134830292584"><ele>1094.0</ele><time>2026-05-03T12:39:52.001Z</time></trkpt><trkpt lat="41.78503419613843" lon="-2.5243101385337607"><ele>1094.2</ele><time>2026-05-03T12:39:53.001Z</time></trkpt><trkpt lat="41.784995051481864" lon="-2.5241965323671307"><ele>1094.4</ele><time>2026-05-03T12:39:54.001Z</time></trkpt><trkpt lat="41.78495590467714" lon="-2.5240834470189544"><ele>1094.6</ele><time>2026-05-03T12:39:55.001Z</time></trkpt><trkpt lat="41.78491489477582" lon="-2.5239716652061035"><ele>1094.8</ele><time>2026-05-03T12:39:56.001Z</time></trkpt><trkpt lat="41.784864420137424" lon="-2.5238640867404687"><ele>1095.0</ele><time>2026-05-03T12:39:57.001Z</time></trkpt><trkpt lat="41.784813083270535" lon="-2.5237570785741177"><ele>1095.2</ele><time>2026-05-03T12:39:58.001Z</time></trkpt><trkpt lat="41.78475597076438" lon="-2.52364625962577"><ele>1095.4</ele><time>2026-05-03T12:39:59.001Z</time></trkpt><trkpt lat="41.784699074578604" lon="-2.523536615359882"><ele>1095.6</ele><time>2026-05-03T12:40:00.001Z</time></trkpt><trkpt lat="41.78463866937945" lon="-2.523421641269413"><ele>1095.8</ele><time>2026-05-03T12:40:01Z</time></trkpt><trkpt lat="41.784576814784955" lon="-2.5233111888637048"><ele>1096.0</ele><time>2026-05-03T12:40:02Z</time></trkpt><trkpt lat="41.78451146829902" lon="-2.5232021450875504"><ele>1096.0</ele><time>2026-05-03T12:40:03Z</time></trkpt><trkpt lat="41.78443895857338" lon="-2.523098249505214"><ele>1096.0</ele><time>2026-05-03T12:40:04Z</time></trkpt><trkpt lat="41.78436356694586" lon="-2.5229929631478036"><ele>1096.0</ele><time>2026-05-03T12:40:05Z</time></trkpt><trkpt lat="41.78428750348974" lon="-2.5228933483573575"><ele>1096.0</ele><time>2026-05-03T12:40:06Z</time></trkpt><trkpt lat="41.784209359257396" lon="-2.522794324426143"><ele>1096.0</ele><time>2026-05-03T12:40:07Z</time></trkpt><trkpt lat="41.78412821675212" lon="-2.5226957781021606"><ele>1096.2</ele><time>2026-05-03T12:40:08Z</time></trkpt><trkpt lat="41.784045572566114" lon="-2.5225999703529682"><ele>1096.3999999999999</ele><time>2026-05-03T12:40:09Z</time></trkpt><trkpt lat="41.78396206294328" lon="-2.522500745809914"><ele>1096.6</ele><time>2026-05-03T12:40:10Z</time></trkpt><trkpt lat="41.78388627788911" lon="-2.5224013208037066"><ele>1096.8</ele><time>2026-05-03T12:40:11Z</time></trkpt><trkpt lat="41.7838083164253" lon="-2.5223066853470466"><ele>1097.0</ele><time>2026-05-03T12:40:12Z</time></trkpt><trkpt lat="41.78373288308953" lon="-2.522220741705503"><ele>1097.0</ele><time>2026-05-03T12:40:13Z</time></trkpt><trkpt lat="41.78366119087908" lon="-2.522136672494472"><ele>1097.0</ele><time>2026-05-03T12:40:14Z</time></trkpt><trkpt lat="41.783591550896304" lon="-2.522051366952717"><ele>1097.0</ele><time>2026-05-03T12:40:15Z</time></trkpt><trkpt lat="41.78352088200608" lon="-2.5219680497124326"><ele>1097.0</ele><time>2026-05-03T12:40:16Z</time></trkpt><trkpt lat="41.78345317521752" lon="-2.5218832951842556"><ele>1097.0</ele><time>2026-05-03T12:40:17Z</time></trkpt><trkpt lat="41.78338579300189" lon="-2.521799238426093"><ele>1096.4</ele><time>2026-05-03T12:40:18Z</time></trkpt><trkpt lat="41.783318417569944" lon="-2.5217163682460275"><ele>1095.8000000000002</ele><time>2026-05-03T12:40:19Z</time></trkpt><trkpt lat="41.78325044960347" lon="-2.5216311611316846"><ele>1095.2</ele><time>2026-05-03T12:40:20Z</time></trkpt><trkpt lat="41.78318630105908" lon="-2.5215411341844067"><ele>1094.6000000000001</ele><time>2026-05-03T12:40:21Z</time></trkpt><trkpt lat="41.78312495671182" lon="-2.5214456553097233"><ele>1094.0</ele><time>2026-05-03T12:40:22Z</time></trkpt><trkpt lat="41.78306318052095" lon="-2.521351668520206"><ele>1094.0</ele><time>2026-05-03T12:40:23Z</time></trkpt><trkpt lat="41.783000872216924" lon="-2.521254676582646"><ele>1094.0</ele><time>2026-05-03T12:40:24Z</time></trkpt><trkpt lat="41.782937025958816" lon="-2.521151689009253"><ele>1094.0</ele><time>2026-05-03T12:40:25Z</time></trkpt><trkpt lat="41.78287627224143" lon="-2.5210469302732488"><ele>1094.0</ele><time>2026-05-03T12:40:26Z</time></trkpt><trkpt lat="41.782812887512854" lon="-2.520940158046459"><ele>1094.0</ele><time>2026-05-03T12:40:27Z</time></trkpt><trkpt lat="41.78275158107829" lon="-2.5208312536786788"><ele>1094.0</ele><time>2026-05-03T12:40:28Z</time></trkpt><trkpt lat="41.78269273918975" lon="-2.5207173411308044"><ele>1094.0</ele><time>2026-05-03T12:40:29Z</time></trkpt><trkpt lat="41.78263463603578" lon="-2.5206026452049928"><ele>1094.0</ele><time>2026-05-03T12:40:30Z</time></trkpt><trkpt lat="41.78257917184603" lon="-2.520486149429061"><ele>1094.0</ele><time>2026-05-03T12:40:31Z</time></trkpt><trkpt lat="41.78252319594422" lon="-2.5203669054353868"><ele>1094.0</ele><time>2026-05-03T12:40:32Z</time></trkpt><trkpt lat="41.7824670202555" lon="-2.5202461773192404"><ele>1093.6000000000001</ele><time>2026-05-03T12:40:33Z</time></trkpt><trkpt lat="41.782410901998" lon="-2.520123236116663"><ele>1093.2</ele><time>2026-05-03T12:40:34Z</time></trkpt><trkpt lat="41.782357603696624" lon="-2.520003781221246"><ele>1092.8000000000002</ele><time>2026-05-03T12:40:35Z</time></trkpt><trkpt lat="41.78230336175228" lon="-2.519881302229018"><ele>1092.4</ele><time>2026-05-03T12:40:36Z</time></trkpt><trkpt lat="41.78224775212736" lon="-2.5197598419722915"><ele>1092.0</ele><time>2026-05-03T12:40:37Z</time></trkpt><trkpt lat="41.78219389202648" lon="-2.5196410482723333"><ele>1092.0</ele><time>2026-05-03T12:40:38Z</time></trkpt><trkpt lat="41.782146540654516" lon="-2.519533148699092"><ele>1092.0</ele><time>2026-05-03T12:40:39Z</time></trkpt><trkpt lat="41.782102699667995" lon="-2.5194350803361396"><ele>1092.0</ele><time>2026-05-03T12:40:40Z</time></trkpt><trkpt lat="41.78205657706861" lon="-2.5193404376156723"><ele>1092.0</ele><time>2026-05-03T12:40:41Z</time></trkpt><trkpt lat="41.78201261018143" lon="-2.519246465737101"><ele>1092.0</ele><time>2026-05-03T12:40:42Z</time></trkpt><trkpt lat="41.781974539410186" lon="-2.519158493856786"><ele>1092.0</ele><time>2026-05-03T12:40:43Z</time></trkpt><trkpt lat="41.7819397129481" lon="-2.5190809659959097"><ele>1092.0</ele><time>2026-05-03T12:40:44Z</time></trkpt><trkpt lat="41.78188168348694" lon="-2.5189491330274496"><ele>1092.0</ele><time>2026-05-03T12:40:46Z</time></trkpt><trkpt lat="41.781838761876664" lon="-2.5188479572084392"><ele>1092.0</ele><time>2026-05-03T12:40:48Z</time></trkpt><trkpt lat="41.78181015863336" lon="-2.518750353713678"><ele>1092.0</ele><time>2026-05-03T12:46:18.001Z</time></trkpt><trkpt lat="41.781781164018305" lon="-2.5186569933672254"><ele>1092.0</ele><time>2026-05-03T12:46:20.001Z</time></trkpt><trkpt lat="41.781731149748225" lon="-2.5185284787420765"><ele>1092.1666666666667</ele><time>2026-05-03T12:46:22.001Z</time></trkpt><trkpt lat="41.78167991342095" lon="-2.518372583773882"><ele>1092.3333333333333</ele><time>2026-05-03T12:46:24.001Z</time></trkpt><trkpt lat="41.78165192566078" lon="-2.518286881941983"><ele>1092.5</ele><time>2026-05-03T12:46:25.001Z</time></trkpt><trkpt lat="41.781627426836856" lon="-2.51819662630508"><ele>1092.6666666666665</ele><time>2026-05-03T12:46:26.001Z</time></trkpt><trkpt lat="41.7816022964614" lon="-2.518101660656615"><ele>1092.8333333333333</ele><time>2026-05-03T12:46:27.001Z</time></trkpt><trkpt lat="41.78157908607707" lon="-2.518005007501822"><ele>1093.0</ele><time>2026-05-03T12:46:28.001Z</time></trkpt><trkpt lat="41.78155930019039" lon="-2.517905267867646"><ele>1092.8333333333333</ele><time>2026-05-03T12:46:29Z</time></trkpt><trkpt lat="41.78153716983503" lon="-2.5178026450927824"><ele>1092.6666666666665</ele><time>2026-05-03T12:46:30Z</time></trkpt><trkpt lat="41.781515326625396" lon="-2.517699311841671"><ele>1092.5</ele><time>2026-05-03T12:46:31Z</time></trkpt><trkpt lat="41.78149558439865" lon="-2.5175930725217124"><ele>1092.3333333333333</ele><time>2026-05-03T12:46:32Z</time></trkpt><trkpt lat="41.78147811903386" lon="-2.51748524159202"><ele>1092.1666666666667</ele><time>2026-05-03T12:46:33Z</time></trkpt><trkpt lat="41.78146227846085" lon="-2.517373458079676"><ele>1092.0</ele><time>2026-05-03T12:46:34Z</time></trkpt><trkpt lat="41.781448832583436" lon="-2.5172617132169135"><ele>1092.0</ele><time>2026-05-03T12:46:35Z</time></trkpt><trkpt lat="41.78143781588978" lon="-2.5171471713008366"><ele>1092.0</ele><time>2026-05-03T12:46:36Z</time></trkpt><trkpt lat="41.781428979872544" lon="-2.5170309675700198"><ele>1092.0</ele><time>2026-05-03T12:46:37Z</time></trkpt><trkpt lat="41.78142222546597" lon="-2.516913997867085"><ele>1092.0</ele><time>2026-05-03T12:46:38Z</time></trkpt><trkpt lat="41.78141584331941" lon="-2.516796837112091"><ele>1092.0</ele><time>2026-05-03T12:46:39Z</time></trkpt><trkpt lat="41.78141045608286" lon="-2.516678791898678"><ele>1092.0</ele><time>2026-05-03T12:46:40Z</time></trkpt><trkpt lat="41.78140888808157" lon="-2.5165611513828305"><ele>1092.1666666666667</ele><time>2026-05-03T12:46:41Z</time></trkpt><trkpt lat="41.78141084998217" lon="-2.5164425878148493"><ele>1092.3333333333333</ele><time>2026-05-03T12:46:42Z</time></trkpt><trkpt lat="41.781414887269094" lon="-2.5163248744174043"><ele>1092.5</ele><time>2026-05-03T12:46:43Z</time></trkpt><trkpt lat="41.78141955090532" lon="-2.516209570990699"><ele>1092.6666666666665</ele><time>2026-05-03T12:46:44Z</time></trkpt><trkpt lat="41.78142747647244" lon="-2.516092072288522"><ele>1092.8333333333333</ele><time>2026-05-03T12:46:45Z</time></trkpt><trkpt lat="41.78143484126985" lon="-2.515975302100298"><ele>1093.0</ele><time>2026-05-03T12:46:46Z</time></trkpt><trkpt lat="41.78144349055725" lon="-2.5158595633356446"><ele>1093.3333333333333</ele><time>2026-05-03T12:46:47Z</time></trkpt><trkpt lat="41.781457242455275" lon="-2.515743146278991"><ele>1093.6666666666665</ele><time>2026-05-03T12:46:48Z</time></trkpt><trkpt lat="41.781472465633684" lon="-2.515631126615709"><ele>1094.0</ele><time>2026-05-03T12:46:49Z</time></trkpt><trkpt lat="41.78149050351732" lon="-2.515517584079539"><ele>1094.3333333333333</ele><time>2026-05-03T12:46:50Z</time></trkpt><trkpt lat="41.78150834846477" lon="-2.5154048572597265"><ele>1094.6666666666667</ele><time>2026-05-03T12:46:51Z</time></trkpt><trkpt lat="41.78152887039026" lon="-2.5152928844926574"><ele>1095.0</ele><time>2026-05-03T12:46:52Z</time></trkpt><trkpt lat="41.78154949924515" lon="-2.5151787101472363"><ele>1095.3333333333333</ele><time>2026-05-03T12:46:53Z</time></trkpt><trkpt lat="41.781568057815285" lon="-2.5150659607918646"><ele>1095.6666666666667</ele><time>2026-05-03T12:46:54Z</time></trkpt><trkpt lat="41.7815889674434" lon="-2.5149524133909513"><ele>1096.0</ele><time>2026-05-03T12:46:55Z</time></trkpt><trkpt lat="41.78161239524544" lon="-2.514840403307435"><ele>1096.3333333333335</ele><time>2026-05-03T12:46:56Z</time></trkpt><trkpt lat="41.78163527022261" lon="-2.5147280813178594"><ele>1096.6666666666667</ele><time>2026-05-03T12:46:57Z</time></trkpt><trkpt lat="41.7816601743967" lon="-2.5146156678582066"><ele>1097.0</ele><time>2026-05-03T12:46:58Z</time></trkpt><trkpt lat="41.78168286054732" lon="-2.514503565732378"><ele>1097.5</ele><time>2026-05-03T12:46:59Z</time></trkpt><trkpt lat="41.7817059451687" lon="-2.514390105393103"><ele>1098.0</ele><time>2026-05-03T12:47:00Z</time></trkpt><trkpt lat="41.78173111642577" lon="-2.514277943414783"><ele>1098.5</ele><time>2026-05-03T12:47:01Z</time></trkpt><trkpt lat="41.781755208446" lon="-2.514165359433759"><ele>1099.0</ele><time>2026-05-03T12:47:02Z</time></trkpt><trkpt lat="41.78177732797081" lon="-2.5140535766599377"><ele>1099.5</ele><time>2026-05-03T12:47:03Z</time></trkpt><trkpt lat="41.781799008411774" lon="-2.5139427655196394"><ele>1100.0</ele><time>2026-05-03T12:47:04Z</time></trkpt><trkpt lat="41.78182287338701" lon="-2.5138305656285387"><ele>1100.3333333333335</ele><time>2026-05-03T12:47:05Z</time></trkpt><trkpt lat="41.781844192441035" lon="-2.513717092814948"><ele>1100.6666666666667</ele><time>2026-05-03T12:47:06Z</time></trkpt><trkpt lat="41.78186553020115" lon="-2.513603911891441"><ele>1101.0</ele><time>2026-05-03T12:47:07Z</time></trkpt><trkpt lat="41.78188982395767" lon="-2.513490895446031"><ele>1101.3333333333333</ele><time>2026-05-03T12:47:08Z</time></trkpt><trkpt lat="41.78191402961149" lon="-2.5133783185906227"><ele>1101.6666666666665</ele><time>2026-05-03T12:47:09Z</time></trkpt><trkpt lat="41.78193776339699" lon="-2.5132650993373793"><ele>1102.0</ele><time>2026-05-03T12:47:10.001Z</time></trkpt><trkpt lat="41.78195963894601" lon="-2.5131530876351134"><ele>1103.0</ele><time>2026-05-03T12:47:11.001Z</time></trkpt><trkpt lat="41.78198158669407" lon="-2.5130391566854158"><ele>1104.0</ele><time>2026-05-03T12:47:12.001Z</time></trkpt><trkpt lat="41.78200315151704" lon="-2.5129273828792646"><ele>1105.0</ele><time>2026-05-03T12:47:13.001Z</time></trkpt><trkpt lat="41.78202549915037" lon="-2.512812313561951"><ele>1106.0</ele><time>2026-05-03T12:47:14.001Z</time></trkpt><trkpt lat="41.78204267921885" lon="-2.5126965551201503"><ele>1107.0</ele><time>2026-05-03T12:47:15.001Z</time></trkpt><trkpt lat="41.78205686472552" lon="-2.5125802706700613"><ele>1108.0</ele><time>2026-05-03T12:47:16.001Z</time></trkpt><trkpt lat="41.78207078959173" lon="-2.5124607302846984"><ele>1108.8</ele><time>2026-05-03T12:47:17.001Z</time></trkpt><trkpt lat="41.782082386558606" lon="-2.5123391653670293"><ele>1109.6</ele><time>2026-05-03T12:47:18.001Z</time></trkpt><trkpt lat="41.782091642764044" lon="-2.5122168659446293"><ele>1110.4</ele><time>2026-05-03T12:47:19.001Z</time></trkpt><trkpt lat="41.78210233755328" lon="-2.512092963893743"><ele>1111.2</ele><time>2026-05-03T12:47:20.001Z</time></trkpt><trkpt lat="41.782113104994366" lon="-2.5119696944186587"><ele>1112.0</ele><time>2026-05-03T12:47:21.001Z</time></trkpt><trkpt lat="41.78211866865185" lon="-2.511842743355444"><ele>1112.0</ele><time>2026-05-03T12:47:22.001Z</time></trkpt><trkpt lat="41.78212251378443" lon="-2.5117099779610714"><ele>1112.0</ele><time>2026-05-03T12:47:23.001Z</time></trkpt><trkpt lat="41.782123279630106" lon="-2.5115833702298356"><ele>1112.0</ele><time>2026-05-03T12:47:24.001Z</time></trkpt><trkpt lat="41.78212418451381" lon="-2.5114548144853726"><ele>1112.0</ele><time>2026-05-03T12:47:25.001Z</time></trkpt><trkpt lat="41.782120822552095" lon="-2.511321305268919"><ele>1112.0</ele><time>2026-05-03T12:47:26.001Z</time></trkpt><trkpt lat="41.782110624457516" lon="-2.5111846627970085"><ele>1112.0</ele><time>2026-05-03T12:47:27.001Z</time></trkpt><trkpt lat="41.78210178712025" lon="-2.5110507393390398"><ele>1112.0</ele><time>2026-05-03T12:47:28.001Z</time></trkpt><trkpt lat="41.78209190946337" lon="-2.5109137388550304"><ele>1112.0</ele><time>2026-05-03T12:47:29.001Z</time></trkpt><trkpt lat="41.782074271638734" lon="-2.5107820441402726"><ele>1112.0</ele><time>2026-05-03T12:47:30.001Z</time></trkpt><trkpt lat="41.78206065121217" lon="-2.510649161163257"><ele>1112.0</ele><time>2026-05-03T12:47:31.001Z</time></trkpt><trkpt lat="41.782041538357284" lon="-2.510516581410133"><ele>1112.2</ele><time>2026-05-03T12:47:32.001Z</time></trkpt><trkpt lat="41.78202236168205" lon="-2.510385474417514"><ele>1112.4</ele><time>2026-05-03T12:47:33.001Z</time></trkpt><trkpt lat="41.782004005889604" lon="-2.510250484774494"><ele>1112.6</ele><time>2026-05-03T12:47:34.001Z</time></trkpt><trkpt lat="41.78198236684047" lon="-2.5101130872902115"><ele>1112.8</ele><time>2026-05-03T12:47:35.001Z</time></trkpt><trkpt lat="41.78195601985314" lon="-2.509976890162431"><ele>1113.0</ele><time>2026-05-03T12:47:36.001Z</time></trkpt><trkpt lat="41.78192776197708" lon="-2.5098433250767664"><ele>1113.0</ele><time>2026-05-03T12:47:37.001Z</time></trkpt><trkpt lat="41.781896927586004" lon="-2.509711213137262"><ele>1113.0</ele><time>2026-05-03T12:47:38.001Z</time></trkpt><trkpt lat="41.78186549661012" lon="-2.5095774350010216"><ele>1113.0</ele><time>2026-05-03T12:47:39.001Z</time></trkpt><trkpt lat="41.78183419110976" lon="-2.5094432990610422"><ele>1113.0</ele><time>2026-05-03T12:47:40.001Z</time></trkpt><trkpt lat="41.78180255479007" lon="-2.509309858606818"><ele>1113.0</ele><time>2026-05-03T12:47:41.001Z</time></trkpt><trkpt lat="41.78177115437585" lon="-2.509175335011101"><ele>1113.0</ele><time>2026-05-03T12:47:42.001Z</time></trkpt><trkpt lat="41.78174161847764" lon="-2.5090390469269526"><ele>1113.0</ele><time>2026-05-03T12:47:43.001Z</time></trkpt><trkpt lat="41.78171039838374" lon="-2.508903513866958"><ele>1113.0</ele><time>2026-05-03T12:47:44.001Z</time></trkpt><trkpt lat="41.78167816166525" lon="-2.508769729713916"><ele>1113.0</ele><time>2026-05-03T12:47:45.001Z</time></trkpt><trkpt lat="41.78164511762812" lon="-2.508632701102756"><ele>1113.0</ele><time>2026-05-03T12:47:46.001Z</time></trkpt><trkpt lat="41.78161155988211" lon="-2.5084994577096396"><ele>1112.6</ele><time>2026-05-03T12:47:47.001Z</time></trkpt><trkpt lat="41.78158012491925" lon="-2.5083651162577327"><ele>1112.1999999999998</ele><time>2026-05-03T12:47:48.001Z</time></trkpt><trkpt lat="41.78154790082209" lon="-2.50823047214607"><ele>1111.8</ele><time>2026-05-03T12:47:49.001Z</time></trkpt><trkpt lat="41.78151784258318" lon="-2.508095959069448"><ele>1111.3999999999999</ele><time>2026-05-03T12:47:50.001Z</time></trkpt><trkpt lat="41.7814869609334" lon="-2.507962515770697"><ele>1111.0</ele><time>2026-05-03T12:47:51.001Z</time></trkpt><trkpt lat="41.78145604688433" lon="-2.5078315043096135"><ele>1110.8</ele><time>2026-05-03T12:47:52.001Z</time></trkpt><trkpt lat="41.781424332432394" lon="-2.5076972038325525"><ele>1110.6</ele><time>2026-05-03T12:47:53.001Z</time></trkpt><trkpt lat="41.78139205569846" lon="-2.507562211574624"><ele>1110.4</ele><time>2026-05-03T12:47:54.001Z</time></trkpt><trkpt lat="41.78136009289175" lon="-2.5074311503100293"><ele>1110.2</ele><time>2026-05-03T12:47:55.001Z</time></trkpt><trkpt lat="41.78133061192273" lon="-2.5072973998547337"><ele>1110.0</ele><time>2026-05-03T12:47:56.001Z</time></trkpt><trkpt lat="41.781298562879236" lon="-2.5071628660088012"><ele>1110.4</ele><time>2026-05-03T12:47:57.001Z</time></trkpt><trkpt lat="41.78126864620539" lon="-2.507029027248338"><ele>1110.8</ele><time>2026-05-03T12:47:58.001Z</time></trkpt><trkpt lat="41.78123795398626" lon="-2.50689401096158"><ele>1111.2</ele><time>2026-05-03T12:47:59.001Z</time></trkpt><trkpt lat="41.781206398038506" lon="-2.5067592919720747"><ele>1111.6</ele><time>2026-05-03T12:48:00.001Z</time></trkpt><trkpt lat="41.781172510692464" lon="-2.5066258591520003"><ele>1112.0</ele><time>2026-05-03T12:48:01.001Z</time></trkpt><trkpt lat="41.781139596479434" lon="-2.506493448207073"><ele>1112.0</ele><time>2026-05-03T12:48:02.001Z</time></trkpt><trkpt lat="41.78110563547319" lon="-2.5063610029294643"><ele>1112.0</ele><time>2026-05-03T12:48:03.001Z</time></trkpt><trkpt lat="41.7810755553558" lon="-2.5062285535646733"><ele>1112.0</ele><time>2026-05-03T12:48:04.001Z</time></trkpt><trkpt lat="41.78104468706845" lon="-2.506093630923005"><ele>1112.0</ele><time>2026-05-03T12:48:05.001Z</time></trkpt><trkpt lat="41.78101662638322" lon="-2.5059579213887315"><ele>1112.0</ele><time>2026-05-03T12:48:06.001Z</time></trkpt><trkpt lat="41.78098662673891" lon="-2.5058226345402033"><ele>1112.0</ele><time>2026-05-03T12:48:07.001Z</time></trkpt><trkpt lat="41.78095757257829" lon="-2.50568917458609"><ele>1112.0</ele><time>2026-05-03T12:48:08.001Z</time></trkpt><trkpt lat="41.78092750488175" lon="-2.505554597452005"><ele>1112.0</ele><time>2026-05-03T12:48:09.001Z</time></trkpt><trkpt lat="41.78090160356661" lon="-2.505415561394202"><ele>1112.0</ele><time>2026-05-03T12:48:10.001Z</time></trkpt><trkpt lat="41.78087436353157" lon="-2.5052746373586356"><ele>1112.0</ele><time>2026-05-03T12:48:11.001Z</time></trkpt><trkpt lat="41.7808449298126" lon="-2.5051384969242814"><ele>1111.6</ele><time>2026-05-03T12:48:12.001Z</time></trkpt><trkpt lat="41.78081604340606" lon="-2.5050050540292146"><ele>1111.2</ele><time>2026-05-03T12:48:13.001Z</time></trkpt><trkpt lat="41.78078716036107" lon="-2.504872019018443"><ele>1110.8</ele><time>2026-05-03T12:48:14.001Z</time></trkpt><trkpt lat="41.78075700652122" lon="-2.5047350324600273"><ele>1110.4</ele><time>2026-05-03T12:48:15.001Z</time></trkpt><trkpt lat="41.78072738440325" lon="-2.504599442126145"><ele>1110.0</ele><time>2026-05-03T12:48:16.001Z</time></trkpt><trkpt lat="41.78069441806956" lon="-2.5044616945070985"><ele>1109.8</ele><time>2026-05-03T12:48:17.001Z</time></trkpt><trkpt lat="41.78066085991664" lon="-2.504326662753141"><ele>1109.6</ele><time>2026-05-03T12:48:18.001Z</time></trkpt><trkpt lat="41.780626277033285" lon="-2.504193644075297"><ele>1109.4</ele><time>2026-05-03T12:48:19.001Z</time></trkpt><trkpt lat="41.780588538181924" lon="-2.5040608345824205"><ele>1109.2</ele><time>2026-05-03T12:48:20.001Z</time></trkpt><trkpt lat="41.780551407539875" lon="-2.5039290262661025"><ele>1109.0</ele><time>2026-05-03T12:48:21.001Z</time></trkpt><trkpt lat="41.780514302068426" lon="-2.5037933136115704"><ele>1109.0</ele><time>2026-05-03T12:48:22.001Z</time></trkpt><trkpt lat="41.780474434751724" lon="-2.5036580361373653"><ele>1109.0</ele><time>2026-05-03T12:48:23.001Z</time></trkpt><trkpt lat="41.78043250870566" lon="-2.503527706350201"><ele>1109.0</ele><time>2026-05-03T12:48:24.001Z</time></trkpt><trkpt lat="41.780383629299806" lon="-2.5034012239084733"><ele>1109.0</ele><time>2026-05-03T12:48:25Z</time></trkpt><trkpt lat="41.78033393981703" lon="-2.50328011367902"><ele>1109.0</ele><time>2026-05-03T12:48:26Z</time></trkpt><trkpt lat="41.78028446887525" lon="-2.5031571533388344"><ele>1109.0</ele><time>2026-05-03T12:48:27Z</time></trkpt><trkpt lat="41.780234006049604" lon="-2.5030311256627935"><ele>1109.0</ele><time>2026-05-03T12:48:28Z</time></trkpt><trkpt lat="41.78017895729673" lon="-2.5029069642791493"><ele>1109.0</ele><time>2026-05-03T12:48:29Z</time></trkpt><trkpt lat="41.78011748451939" lon="-2.502785412447863"><ele>1109.0</ele><time>2026-05-03T12:48:30Z</time></trkpt><trkpt lat="41.780051565429666" lon="-2.5026674413832555"><ele>1109.0</ele><time>2026-05-03T12:48:31Z</time></trkpt><trkpt lat="41.77997915173314" lon="-2.5025631943957163"><ele>1108.6000000000001</ele><time>2026-05-03T12:48:32Z</time></trkpt><trkpt lat="41.779907929746" lon="-2.502465169460884"><ele>1108.2</ele><time>2026-05-03T12:48:33Z</time></trkpt><trkpt lat="41.77983533139358" lon="-2.5023668329753"><ele>1107.8000000000002</ele><time>2026-05-03T12:48:34Z</time></trkpt><trkpt lat="41.779761289374164" lon="-2.5022652375312044"><ele>1107.4</ele><time>2026-05-03T12:48:35Z</time></trkpt><trkpt lat="41.77968256646576" lon="-2.502165928615904"><ele>1107.0</ele><time>2026-05-03T12:48:36Z</time></trkpt><trkpt lat="41.77960357377311" lon="-2.5020628994999488"><ele>1107.0</ele><time>2026-05-03T12:48:37Z</time></trkpt><trkpt lat="41.779521655177874" lon="-2.501964594406075"><ele>1107.0</ele><time>2026-05-03T12:48:38Z</time></trkpt><trkpt lat="41.77943683147125" lon="-2.5018690791520393"><ele>1107.0</ele><time>2026-05-03T12:48:39Z</time></trkpt><trkpt lat="41.779350835473544" lon="-2.5017783391967563"><ele>1107.0</ele><time>2026-05-03T12:48:40Z</time></trkpt><trkpt lat="41.779263052428185" lon="-2.501692651127856"><ele>1107.0</ele><time>2026-05-03T12:48:41Z</time></trkpt><trkpt lat="41.77917378860941" lon="-2.5016080300189385"><ele>1107.0</ele><time>2026-05-03T12:48:42Z</time></trkpt><trkpt lat="41.77908549498406" lon="-2.5015266598812134"><ele>1107.0</ele><time>2026-05-03T12:48:43Z</time></trkpt><trkpt lat="41.778997042373234" lon="-2.50144826660452"><ele>1107.0</ele><time>2026-05-03T12:48:44Z</time></trkpt><trkpt lat="41.7789084712809" lon="-2.5013715556388285"><ele>1107.0</ele><time>2026-05-03T12:48:45Z</time></trkpt><trkpt lat="41.77882063804085" lon="-2.5012923314887576"><ele>1107.0</ele><time>2026-05-03T12:48:46Z</time></trkpt><trkpt lat="41.778734079973795" lon="-2.5012130421524597"><ele>1107.0</ele><time>2026-05-03T12:48:47Z</time></trkpt><trkpt lat="41.77864796553797" lon="-2.501130203820407"><ele>1107.0</ele><time>2026-05-03T12:48:48Z</time></trkpt><trkpt lat="41.77856177161994" lon="-2.5010470388416843"><ele>1107.0</ele><time>2026-05-03T12:48:49Z</time></trkpt><trkpt lat="41.778472015859826" lon="-2.5009640260218906"><ele>1107.0</ele><time>2026-05-03T12:48:50Z</time></trkpt><trkpt lat="41.778380979568034" lon="-2.500883039458697"><ele>1107.0</ele><time>2026-05-03T12:48:51Z</time></trkpt><trkpt lat="41.778288125564934" lon="-2.5008035129865265"><ele>1107.0</ele><time>2026-05-03T12:48:52Z</time></trkpt><trkpt lat="41.77819712016526" lon="-2.5007262242340493"><ele>1107.0</ele><time>2026-05-03T12:48:53Z</time></trkpt><trkpt lat="41.77810774112791" lon="-2.5006483561302235"><ele>1107.0</ele><time>2026-05-03T12:48:54Z</time></trkpt><trkpt lat="41.77801886419706" lon="-2.500568652687541"><ele>1107.0</ele><time>2026-05-03T12:48:55Z</time></trkpt><trkpt lat="41.77792879752321" lon="-2.500487470159175"><ele>1107.0</ele><time>2026-05-03T12:48:56Z</time></trkpt><trkpt lat="41.77783555111068" lon="-2.500405246848938"><ele>1106.4</ele><time>2026-05-03T12:48:57Z</time></trkpt><trkpt lat="41.7777431337454" lon="-2.5003260562706004"><ele>1105.8000000000002</ele><time>2026-05-03T12:48:58Z</time></trkpt><trkpt lat="41.77765091836163" lon="-2.5002442476862328"><ele>1105.2</ele><time>2026-05-03T12:48:59Z</time></trkpt><trkpt lat="41.77755885938569" lon="-2.5001650449279302"><ele>1104.6000000000001</ele><time>2026-05-03T12:49:00Z</time></trkpt><trkpt lat="41.77746822686736" lon="-2.5000889069661327"><ele>1104.0</ele><time>2026-05-03T12:49:01Z</time></trkpt><trkpt lat="41.77737848912601" lon="-2.5000104044389375"><ele>1103.6000000000001</ele><time>2026-05-03T12:49:02Z</time></trkpt><trkpt lat="41.7772884357045" lon="-2.4999357004592198"><ele>1103.2</ele><time>2026-05-03T12:49:03Z</time></trkpt><trkpt lat="41.77719940989318" lon="-2.4998602722867105"><ele>1102.8000000000002</ele><time>2026-05-03T12:49:04Z</time></trkpt><trkpt lat="41.77711010219842" lon="-2.499784098994003"><ele>1102.4</ele><time>2026-05-03T12:49:05Z</time></trkpt><trkpt lat="41.77702462017243" lon="-2.4997100404595067"><ele>1102.0</ele><time>2026-05-03T12:49:06Z</time></trkpt><trkpt lat="41.77693703291746" lon="-2.4996351730185165"><ele>1101.2</ele><time>2026-05-03T12:49:07Z</time></trkpt><trkpt lat="41.77684933067224" lon="-2.499561672657881"><ele>1100.4</ele><time>2026-05-03T12:49:08Z</time></trkpt><trkpt lat="41.776760618125465" lon="-2.499486342868219"><ele>1099.6</ele><time>2026-05-03T12:49:09Z</time></trkpt><trkpt lat="41.7766715780195" lon="-2.499411533152646"><ele>1098.8</ele><time>2026-05-03T12:49:10Z</time></trkpt><trkpt lat="41.77658220979219" lon="-2.4993401143171545"><ele>1098.0</ele><time>2026-05-03T12:49:11Z</time></trkpt><trkpt lat="41.776492532464836" lon="-2.4992689978471634"><ele>1098.0</ele><time>2026-05-03T12:49:12Z</time></trkpt><trkpt lat="41.77640340870757" lon="-2.499196106576253"><ele>1098.0</ele><time>2026-05-03T12:49:13Z</time></trkpt><trkpt lat="41.77631345184312" lon="-2.499125418373377"><ele>1098.0</ele><time>2026-05-03T12:49:14Z</time></trkpt><trkpt lat="41.77622232004141" lon="-2.49905517052948"><ele>1098.0</ele><time>2026-05-03T12:49:15Z</time></trkpt><trkpt lat="41.77613010290187" lon="-2.4989863933425807"><ele>1098.0</ele><time>2026-05-03T12:49:16Z</time></trkpt><trkpt lat="41.776036506606374" lon="-2.498917708831116"><ele>1097.6</ele><time>2026-05-03T12:49:17Z</time></trkpt><trkpt lat="41.7759425564157" lon="-2.4988480043010797"><ele>1097.1999999999998</ele><time>2026-05-03T12:49:18Z</time></trkpt><trkpt lat="41.77584843815024" lon="-2.4987791101863954"><ele>1096.8</ele><time>2026-05-03T12:49:19Z</time></trkpt><trkpt lat="41.775754853403036" lon="-2.4987086348928407"><ele>1096.3999999999999</ele><time>2026-05-03T12:49:20Z</time></trkpt><trkpt lat="41.77566230535144" lon="-2.4986386520032973"><ele>1096.0</ele><time>2026-05-03T12:49:21Z</time></trkpt><trkpt lat="41.77556997304319" lon="-2.498569643945674"><ele>1096.0</ele><time>2026-05-03T12:49:22Z</time></trkpt><trkpt lat="41.775479584320514" lon="-2.4984996794433885"><ele>1096.0</ele><time>2026-05-03T12:49:23Z</time></trkpt><trkpt lat="41.77539087545788" lon="-2.4984293140925486"><ele>1096.0</ele><time>2026-05-03T12:49:24Z</time></trkpt><trkpt lat="41.775304544127735" lon="-2.498357448037227"><ele>1096.0</ele><time>2026-05-03T12:49:25Z</time></trkpt><trkpt lat="41.77521764926583" lon="-2.4982849443290704"><ele>1096.0</ele><time>2026-05-03T12:49:26Z</time></trkpt><trkpt lat="41.7751310830273" lon="-2.498215856407644"><ele>1096.3999999999999</ele><time>2026-05-03T12:49:27Z</time></trkpt><trkpt lat="41.775042845640215" lon="-2.498147853839857"><ele>1096.8</ele><time>2026-05-03T12:49:28Z</time></trkpt><trkpt lat="41.77495854062394" lon="-2.498083870121959"><ele>1097.1999999999998</ele><time>2026-05-03T12:49:29Z</time></trkpt><trkpt lat="41.77487352935023" lon="-2.498022791516282"><ele>1097.6</ele><time>2026-05-03T12:49:30Z</time></trkpt><trkpt lat="41.774790782289664" lon="-2.4979664191724997"><ele>1098.0</ele><time>2026-05-03T12:49:31Z</time></trkpt><trkpt lat="41.77470943186743" lon="-2.4979146646630603"><ele>1098.142857142857</ele><time>2026-05-03T12:49:32Z</time></trkpt><trkpt lat="41.77463015645479" lon="-2.49786806303402"><ele>1098.2857142857142</ele><time>2026-05-03T12:49:33Z</time></trkpt><trkpt lat="41.77455662233905" lon="-2.4978288949489182"><ele>1098.4285714285716</ele><time>2026-05-03T12:49:34Z</time></trkpt><trkpt lat="41.77448975817001" lon="-2.4977890792066266"><ele>1098.5714285714284</ele><time>2026-05-03T12:49:35Z</time></trkpt><trkpt lat="41.77442967744663" lon="-2.4977451672353332"><ele>1098.7142857142858</ele><time>2026-05-03T12:49:36Z</time></trkpt><trkpt lat="41.774370426031766" lon="-2.4976950545633576"><ele>1098.857142857143</ele><time>2026-05-03T12:49:37Z</time></trkpt><trkpt lat="41.77431144722909" lon="-2.4976515098949914"><ele>1099.0</ele><time>2026-05-03T12:49:38Z</time></trkpt><trkpt lat="41.7742560526771" lon="-2.4976108320513184"><ele>1099.0</ele><time>2026-05-03T12:49:39Z</time></trkpt><trkpt lat="41.774151950635094" lon="-2.4975312488258963"><ele>1099.0</ele><time>2026-05-03T12:49:41.001Z</time></trkpt><trkpt lat="41.77404604064702" lon="-2.4974501070902866"><ele>1099.0</ele><time>2026-05-03T12:49:43.001Z</time></trkpt><trkpt lat="41.7739375267754" lon="-2.4973756866666825"><ele>1099.0</ele><time>2026-05-03T12:49:45.001Z</time></trkpt><trkpt lat="41.77383022055633" lon="-2.4972931578751596"><ele>1099.0</ele><time>2026-05-03T12:49:47.001Z</time></trkpt><trkpt lat="41.77372433529795" lon="-2.497217726276764"><ele>1099.0</ele><time>2026-05-03T12:49:49.001Z</time></trkpt><trkpt lat="41.77362112913016" lon="-2.497140204883208"><ele>1099.0</ele><time>2026-05-03T12:49:51.001Z</time></trkpt><trkpt lat="41.77351621933007" lon="-2.497058168416407"><ele>1099.0</ele><time>2026-05-03T12:49:53.001Z</time></trkpt><trkpt lat="41.77340871225974" lon="-2.4969795904922836"><ele>1099.0</ele><time>2026-05-03T12:49:55.001Z</time></trkpt><trkpt lat="41.77330046566389" lon="-2.496902716465872"><ele>1099.0</ele><time>2026-05-03T12:49:57.001Z</time></trkpt><trkpt lat="41.77319379026535" lon="-2.4968251209030643"><ele>1099.0</ele><time>2026-05-03T12:49:59.001Z</time></trkpt><trkpt lat="41.77309102470259" lon="-2.496749093344874"><ele>1099.0</ele><time>2026-05-03T12:50:01.001Z</time></trkpt><trkpt lat="41.77299068542227" lon="-2.496678050872797"><ele>1099.0</ele><time>2026-05-03T12:50:03.001Z</time></trkpt><trkpt lat="41.77288993301379" lon="-2.4966071725076744"><ele>1099.0</ele><time>2026-05-03T12:50:05.001Z</time></trkpt><trkpt lat="41.77278063989019" lon="-2.4965188197948844"><ele>1099.0</ele><time>2026-05-03T12:50:07.001Z</time></trkpt><trkpt lat="41.77272222035123" lon="-2.4964705442420163"><ele>1099.0</ele><time>2026-05-03T12:50:08.001Z</time></trkpt><trkpt lat="41.77266152473517" lon="-2.4964276397417065"><ele>1099.0</ele><time>2026-05-03T12:50:09.001Z</time></trkpt><trkpt lat="41.772596536076314" lon="-2.4963828582795533"><ele>1098.6666666666665</ele><time>2026-05-03T12:50:10.001Z</time></trkpt><trkpt lat="41.772531837355395" lon="-2.4963321067934334"><ele>1098.3333333333333</ele><time>2026-05-03T12:50:11.001Z</time></trkpt><trkpt lat="41.772467252164866" lon="-2.4962774871126716"><ele>1098.0</ele><time>2026-05-03T12:50:12.001Z</time></trkpt><trkpt lat="41.772402420883296" lon="-2.4962209618463347"><ele>1097.6666666666667</ele><time>2026-05-03T12:50:13.001Z</time></trkpt><trkpt lat="41.77233653851915" lon="-2.4961639978287002"><ele>1097.3333333333335</ele><time>2026-05-03T12:50:14.001Z</time></trkpt><trkpt lat="41.77227207330233" lon="-2.4961068171395673"><ele>1097.0</ele><time>2026-05-03T12:50:15.001Z</time></trkpt><trkpt lat="41.772210022835736" lon="-2.49604578089064"><ele>1096.8333333333335</ele><time>2026-05-03T12:50:16.001Z</time></trkpt><trkpt lat="41.772148046189294" lon="-2.4959804100947216"><ele>1096.6666666666667</ele><time>2026-05-03T12:50:17.001Z</time></trkpt><trkpt lat="41.77208687595037" lon="-2.4959090888526836"><ele>1096.5</ele><time>2026-05-03T12:50:18.001Z</time></trkpt><trkpt lat="41.772025837112004" lon="-2.4958362152909856"><ele>1096.3333333333333</ele><time>2026-05-03T12:50:19.001Z</time></trkpt><trkpt lat="41.7719655918184" lon="-2.4957656258233816"><ele>1096.1666666666665</ele><time>2026-05-03T12:50:20.001Z</time></trkpt><trkpt lat="41.771905863910234" lon="-2.4956948454234396"><ele>1096.0</ele><time>2026-05-03T12:50:21.001Z</time></trkpt><trkpt lat="41.77184680892699" lon="-2.495625448826645"><ele>1095.4285714285716</ele><time>2026-05-03T12:50:22.001Z</time></trkpt><trkpt lat="41.77179028304579" lon="-2.4955601473109397"><ele>1094.857142857143</ele><time>2026-05-03T12:50:23.001Z</time></trkpt><trkpt lat="41.7717336716608" lon="-2.495507027768416"><ele>1094.2857142857142</ele><time>2026-05-03T12:50:24.001Z</time></trkpt><trkpt lat="41.77167519654421" lon="-2.4954703568231866"><ele>1093.7142857142858</ele><time>2026-05-03T12:50:25.001Z</time></trkpt><trkpt lat="41.77161136099003" lon="-2.4954467422672577"><ele>1093.142857142857</ele><time>2026-05-03T12:50:26.001Z</time></trkpt><trkpt lat="41.77154274307577" lon="-2.4954383118064665"><ele>1092.5714285714287</ele><time>2026-05-03T12:50:27.001Z</time></trkpt><trkpt lat="41.77147396368221" lon="-2.495449867813125"><ele>1092.0</ele><time>2026-05-03T12:50:28.001Z</time></trkpt><trkpt lat="41.77140704359466" lon="-2.495465751450552"><ele>1092.0</ele><time>2026-05-03T12:50:29.001Z</time></trkpt><trkpt lat="41.77133600250381" lon="-2.4954748715105115"><ele>1092.0</ele><time>2026-05-03T12:50:30.001Z</time></trkpt><trkpt lat="41.77126465669125" lon="-2.495468674470355"><ele>1092.0</ele><time>2026-05-03T12:50:31Z</time></trkpt><trkpt lat="41.771192331627425" lon="-2.4954404844827893"><ele>1092.0</ele><time>2026-05-03T12:50:32Z</time></trkpt><trkpt lat="41.77112279761288" lon="-2.495401809859033"><ele>1092.0</ele><time>2026-05-03T12:50:33Z</time></trkpt><trkpt lat="41.77105545033538" lon="-2.4953519027936646"><ele>1092.0</ele><time>2026-05-03T12:50:34Z</time></trkpt><trkpt lat="41.770998748443816" lon="-2.495288199966166"><ele>1092.0</ele><time>2026-05-03T12:50:35Z</time></trkpt><trkpt lat="41.77094677135859" lon="-2.4952254829442766"><ele>1092.5</ele><time>2026-05-03T12:50:36Z</time></trkpt><trkpt lat="41.7709012608953" lon="-2.495153617218065"><ele>1093.0</ele><time>2026-05-03T12:50:37Z</time></trkpt><trkpt lat="41.77086956657717" lon="-2.495061443094039"><ele>1093.5</ele><time>2026-05-03T12:50:38Z</time></trkpt><trkpt lat="41.770849854229745" lon="-2.4949630206168525"><ele>1094.0</ele><time>2026-05-03T12:50:39Z</time></trkpt><trkpt lat="41.77084120273636" lon="-2.4948603887257663"><ele>1094.5</ele><time>2026-05-03T12:50:40Z</time></trkpt><trkpt lat="41.77084850231809" lon="-2.494751343160006"><ele>1095.0</ele><time>2026-05-03T12:50:41Z</time></trkpt><trkpt lat="41.77085695866725" lon="-2.494640874143838"><ele>1095.1666666666667</ele><time>2026-05-03T12:50:42Z</time></trkpt><trkpt lat="41.7708843715923" lon="-2.4945349854675207"><ele>1095.3333333333333</ele><time>2026-05-03T12:50:43Z</time></trkpt><trkpt lat="41.77092643309738" lon="-2.49443373170601"><ele>1095.5</ele><time>2026-05-03T12:50:44Z</time></trkpt><trkpt lat="41.77097870440946" lon="-2.494339543490407"><ele>1095.6666666666665</ele><time>2026-05-03T12:50:45Z</time></trkpt><trkpt lat="41.771046512171694" lon="-2.494263485509261"><ele>1095.8333333333333</ele><time>2026-05-03T12:50:46Z</time></trkpt><trkpt lat="41.771125361498385" lon="-2.4942076179546735"><ele>1096.0</ele><time>2026-05-03T12:50:47Z</time></trkpt><trkpt lat="41.771207534218355" lon="-2.4941651901201727"><ele>1096.0</ele><time>2026-05-03T12:50:48Z</time></trkpt><trkpt lat="41.7712945031993" lon="-2.4941368426722788"><ele>1096.0</ele><time>2026-05-03T12:50:49Z</time></trkpt><trkpt lat="41.771384465934105" lon="-2.4941379116103493"><ele>1096.0</ele><time>2026-05-03T12:50:50Z</time></trkpt><trkpt lat="41.77147385856459" lon="-2.4941608550833254"><ele>1096.0</ele><time>2026-05-03T12:50:51Z</time></trkpt><trkpt lat="41.7715619204915" lon="-2.4942046909882882"><ele>1096.0</ele><time>2026-05-03T12:50:52Z</time></trkpt><trkpt lat="41.77164476570929" lon="-2.494260666117654"><ele>1096.0</ele><time>2026-05-03T12:50:53Z</time></trkpt><trkpt lat="41.771727282417324" lon="-2.4943221979136307"><ele>1096.0</ele><time>2026-05-03T12:50:54Z</time></trkpt><trkpt lat="41.77179174211492" lon="-2.4944054456759375"><ele>1096.0</ele><time>2026-05-03T12:50:55Z</time></trkpt><trkpt lat="41.77191018637542" lon="-2.494444756928514"><ele>1096.0</ele><time>2026-05-03T12:50:56Z</time></trkpt><trkpt lat="41.77201300570616" lon="-2.4944340906039315"><ele>1096.0</ele><time>2026-05-03T12:50:57Z</time></trkpt><trkpt lat="41.77210531043254" lon="-2.4943865185355416"><ele>1095.6</ele><time>2026-05-03T12:50:58Z</time></trkpt><trkpt lat="41.77219805665995" lon="-2.494349977225864"><ele>1095.1999999999998</ele><time>2026-05-03T12:50:59Z</time></trkpt><trkpt lat="41.772290574934644" lon="-2.4943153149406485"><ele>1094.8000000000002</ele><time>2026-05-03T12:51:00Z</time></trkpt><trkpt lat="41.77238059690158" lon="-2.4942761070143824"><ele>1094.4</ele><time>2026-05-03T12:51:01Z</time></trkpt><trkpt lat="41.7724710609816" lon="-2.49424516144434"><ele>1094.0</ele><time>2026-05-03T12:51:02Z</time></trkpt><trkpt lat="41.77255913145365" lon="-2.49421596476984"><ele>1094.0</ele><time>2026-05-03T12:51:03Z</time></trkpt><trkpt lat="41.77264798985572" lon="-2.4941846684706706"><ele>1094.0</ele><time>2026-05-03T12:51:04Z</time></trkpt><trkpt lat="41.77273280268402" lon="-2.4941541021152767"><ele>1094.0</ele><time>2026-05-03T12:51:05Z</time></trkpt><trkpt lat="41.77281719999248" lon="-2.4941238646341093"><ele>1094.0</ele><time>2026-05-03T12:51:06Z</time></trkpt><trkpt lat="41.772902958529514" lon="-2.494093737970831"><ele>1094.0</ele><time>2026-05-03T12:51:07Z</time></trkpt><trkpt lat="41.772990892829434" lon="-2.4940623465640033"><ele>1094.0</ele><time>2026-05-03T12:51:08Z</time></trkpt><trkpt lat="41.773079842426235" lon="-2.4940312313665873"><ele>1094.6000000000001</ele><time>2026-05-03T12:51:09Z</time></trkpt><trkpt lat="41.77316915562761" lon="-2.4940006234381262"><ele>1095.2</ele><time>2026-05-03T12:51:10Z</time></trkpt><trkpt lat="41.77326364129215" lon="-2.4939683944651603"><ele>1095.8000000000002</ele><time>2026-05-03T12:51:11Z</time></trkpt><trkpt lat="41.77335984422583" lon="-2.493940937623487"><ele>1096.4</ele><time>2026-05-03T12:51:12Z</time></trkpt><trkpt lat="41.77345769211964" lon="-2.493912304118668"><ele>1097.0</ele><time>2026-05-03T12:51:13Z</time></trkpt><trkpt lat="41.77355873039058" lon="-2.493882633767809"><ele>1097.0</ele><time>2026-05-03T12:51:14Z</time></trkpt><trkpt lat="41.77366133924493" lon="-2.4938505454858384"><ele>1097.0</ele><time>2026-05-03T12:51:15Z</time></trkpt><trkpt lat="41.77376223920462" lon="-2.4938128080989856"><ele>1097.0</ele><time>2026-05-03T12:51:16Z</time></trkpt><trkpt lat="41.77386453154704" lon="-2.493771975661655"><ele>1097.0</ele><time>2026-05-03T12:51:17Z</time></trkpt><trkpt lat="41.7739673714029" lon="-2.493734992701956"><ele>1097.0</ele><time>2026-05-03T12:51:18Z</time></trkpt><trkpt lat="41.77407036958367" lon="-2.4936953378154527"><ele>1097.2</ele><time>2026-05-03T12:51:19Z</time></trkpt><trkpt lat="41.774173867799824" lon="-2.4936526196614652"><ele>1097.4</ele><time>2026-05-03T12:51:20Z</time></trkpt><trkpt lat="41.774279602162316" lon="-2.4936136265306996"><ele>1097.6</ele><time>2026-05-03T12:51:21Z</time></trkpt><trkpt lat="41.774386768418324" lon="-2.493575297973953"><ele>1097.8</ele><time>2026-05-03T12:51:22Z</time></trkpt><trkpt lat="41.7744915543831" lon="-2.4935348782689375"><ele>1098.0</ele><time>2026-05-03T12:51:23Z</time></trkpt><trkpt lat="41.77460508144979" lon="-2.493483504178989"><ele>1097.25</ele><time>2026-05-03T12:51:24Z</time></trkpt><trkpt lat="41.774699885939135" lon="-2.4934740939528766"><ele>1096.5</ele><time>2026-05-03T12:51:25Z</time></trkpt><trkpt lat="41.77478155313281" lon="-2.4934628258428444"><ele>1095.75</ele><time>2026-05-03T12:51:26Z</time></trkpt><trkpt lat="41.77486608507792" lon="-2.4933954026657923"><ele>1095.0</ele><time>2026-05-03T12:51:27Z</time></trkpt><trkpt lat="41.77503815754824" lon="-2.4933339930857117"><ele>1095.0</ele><time>2026-05-03T12:51:28Z</time></trkpt><trkpt lat="41.775148244542656" lon="-2.493292957228391"><ele>1095.0</ele><time>2026-05-03T12:51:29Z</time></trkpt><trkpt lat="41.77525630447564" lon="-2.4932506344444514"><ele>1095.0</ele><time>2026-05-03T12:51:30Z</time></trkpt><trkpt lat="41.77536790955768" lon="-2.4932070243048625"><ele>1095.0</ele><time>2026-05-03T12:51:31Z</time></trkpt><trkpt lat="41.77548204968206" lon="-2.493162805991043"><ele>1094.5</ele><time>2026-05-03T12:51:32Z</time></trkpt><trkpt lat="41.77559206789512" lon="-2.4931232203581413"><ele>1094.0</ele><time>2026-05-03T12:51:33Z</time></trkpt><trkpt lat="41.77570573246546" lon="-2.4930821731128496"><ele>1093.5</ele><time>2026-05-03T12:51:34Z</time></trkpt><trkpt lat="41.77582031040866" lon="-2.4930415603748677"><ele>1093.0</ele><time>2026-05-03T12:51:35Z</time></trkpt><trkpt lat="41.77593130981546" lon="-2.4929905610869647"><ele>1091.75</ele><time>2026-05-03T12:51:36Z</time></trkpt><trkpt lat="41.776041595004955" lon="-2.4929336399675215"><ele>1090.5</ele><time>2026-05-03T12:51:37Z</time></trkpt><trkpt lat="41.776149950127945" lon="-2.4928768172236198"><ele>1089.25</ele><time>2026-05-03T12:51:38Z</time></trkpt><trkpt lat="41.77625504345763" lon="-2.492813776905248"><ele>1088.0</ele><time>2026-05-03T12:51:39Z</time></trkpt><trkpt lat="41.77636172546584" lon="-2.4927445518768234"><ele>1088.0</ele><time>2026-05-03T12:51:40Z</time></trkpt><trkpt lat="41.77646390463559" lon="-2.4926741226580336"><ele>1088.0</ele><time>2026-05-03T12:51:41.001Z</time></trkpt><trkpt lat="41.776567051363955" lon="-2.4925991489750996"><ele>1088.0</ele><time>2026-05-03T12:51:42.001Z</time></trkpt><trkpt lat="41.77666698198409" lon="-2.4925249790511343"><ele>1088.0</ele><time>2026-05-03T12:51:43.001Z</time></trkpt><trkpt lat="41.77676621677785" lon="-2.492440740491832"><ele>1087.75</ele><time>2026-05-03T12:51:44.001Z</time></trkpt><trkpt lat="41.77686145079263" lon="-2.492359158928751"><ele>1087.5</ele><time>2026-05-03T12:51:45.001Z</time></trkpt><trkpt lat="41.776960850718815" lon="-2.4922742454975237"><ele>1087.25</ele><time>2026-05-03T12:51:46.001Z</time></trkpt><trkpt lat="41.77705208633079" lon="-2.4921842791422426"><ele>1087.0</ele><time>2026-05-03T12:51:47.001Z</time></trkpt><trkpt lat="41.77714088020137" lon="-2.4920846956301563"><ele>1087.0</ele><time>2026-05-03T12:51:48.001Z</time></trkpt><trkpt lat="41.777228416994795" lon="-2.49198922391073"><ele>1087.0</ele><time>2026-05-03T12:51:49.001Z</time></trkpt><trkpt lat="41.77731851065296" lon="-2.491896942081886"><ele>1087.0</ele><time>2026-05-03T12:51:50.001Z</time></trkpt><trkpt lat="41.77739376546519" lon="-2.4917951338570123"><ele>1087.0</ele><time>2026-05-03T12:51:51.001Z</time></trkpt><trkpt lat="41.7774807744543" lon="-2.49169590607507"><ele>1087.0</ele><time>2026-05-03T12:51:52.001Z</time></trkpt><trkpt lat="41.77756602644105" lon="-2.4916061255466393"><ele>1087.0</ele><time>2026-05-03T12:51:53.001Z</time></trkpt><trkpt lat="41.77764673788302" lon="-2.4914803878813556"><ele>1087.0</ele><time>2026-05-03T12:51:54.001Z</time></trkpt><trkpt lat="41.777758779353285" lon="-2.491315137256547"><ele>1087.0</ele><time>2026-05-03T12:51:55.001Z</time></trkpt><trkpt lat="41.77784855137802" lon="-2.491189852507865"><ele>1087.0</ele><time>2026-05-03T12:51:56.001Z</time></trkpt><trkpt lat="41.777987251229064" lon="-2.491091568365677"><ele>1086.25</ele><time>2026-05-03T12:51:58.001Z</time></trkpt><trkpt lat="41.77806886099246" lon="-2.4909903791605985"><ele>1085.5</ele><time>2026-05-03T12:51:59.001Z</time></trkpt><trkpt lat="41.778138117270906" lon="-2.4908951214907677"><ele>1084.75</ele><time>2026-05-03T12:52:00.001Z</time></trkpt><trkpt lat="41.778251534036684" lon="-2.4907410128192717"><ele>1084.0</ele><time>2026-05-03T12:52:02.001Z</time></trkpt><trkpt lat="41.77839189386754" lon="-2.4905838773288402"><ele>1084.0</ele><time>2026-05-03T12:52:03.001Z</time></trkpt><trkpt lat="41.778479605961465" lon="-2.490472029174131"><ele>1084.0</ele><time>2026-05-03T12:52:04.001Z</time></trkpt><trkpt lat="41.77856216176974" lon="-2.4903707455413615"><ele>1084.0</ele><time>2026-05-03T12:52:05.001Z</time></trkpt><trkpt lat="41.77864617103817" lon="-2.490268997655291"><ele>1084.0</ele><time>2026-05-03T12:52:06.001Z</time></trkpt><trkpt lat="41.778729555409946" lon="-2.4901682377243595"><ele>1084.5</ele><time>2026-05-03T12:52:07.001Z</time></trkpt><trkpt lat="41.778812352340736" lon="-2.4900652401604746"><ele>1085.0</ele><time>2026-05-03T12:52:08.001Z</time></trkpt><trkpt lat="41.77889598846568" lon="-2.4899664833159254"><ele>1085.5</ele><time>2026-05-03T12:52:09.001Z</time></trkpt><trkpt lat="41.778977440643665" lon="-2.4898643037003727"><ele>1086.0</ele><time>2026-05-03T12:52:10.001Z</time></trkpt><trkpt lat="41.77906344024527" lon="-2.489763511827292"><ele>1086.0</ele><time>2026-05-03T12:52:11.001Z</time></trkpt><trkpt lat="41.77914558414171" lon="-2.4896565671013495"><ele>1086.0</ele><time>2026-05-03T12:52:12.001Z</time></trkpt><trkpt lat="41.77923048863756" lon="-2.48955303369228"><ele>1086.0</ele><time>2026-05-03T12:52:13.001Z</time></trkpt><trkpt lat="41.77931332526323" lon="-2.489452471260879"><ele>1086.0</ele><time>2026-05-03T12:52:14.001Z</time></trkpt><trkpt lat="41.7793937566672" lon="-2.4893637055134987"><ele>1086.0</ele><time>2026-05-03T12:52:15.001Z</time></trkpt><trkpt lat="41.77947650413241" lon="-2.489255523531523"><ele>1085.8</ele><time>2026-05-03T12:52:16.001Z</time></trkpt><trkpt lat="41.779558446955626" lon="-2.4891528771593"><ele>1085.6</ele><time>2026-05-03T12:52:17.001Z</time></trkpt><trkpt lat="41.77963709956971" lon="-2.489053809200323"><ele>1085.4</ele><time>2026-05-03T12:52:18.001Z</time></trkpt><trkpt lat="41.77971702371436" lon="-2.488953034060999"><ele>1085.2</ele><time>2026-05-03T12:52:19.001Z</time></trkpt><trkpt lat="41.779797165499104" lon="-2.4888577618575534"><ele>1085.0</ele><time>2026-05-03T12:52:20.001Z</time></trkpt><trkpt lat="41.77987565879918" lon="-2.4887593726434987"><ele>1085.0</ele><time>2026-05-03T12:52:21.001Z</time></trkpt><trkpt lat="41.779955097370156" lon="-2.4886631592517174"><ele>1085.0</ele><time>2026-05-03T12:52:22.001Z</time></trkpt><trkpt lat="41.780031702705166" lon="-2.4885662631890706"><ele>1085.0</ele><time>2026-05-03T12:52:23.001Z</time></trkpt><trkpt lat="41.78010794585219" lon="-2.4884694374316143"><ele>1085.0</ele><time>2026-05-03T12:52:24.001Z</time></trkpt><trkpt lat="41.780184838312785" lon="-2.4883709658674413"><ele>1085.0</ele><time>2026-05-03T12:52:25.001Z</time></trkpt><trkpt lat="41.7802590488141" lon="-2.4882751024612606"><ele>1085.2</ele><time>2026-05-03T12:52:26.001Z</time></trkpt><trkpt lat="41.78033301829327" lon="-2.4881786024981074"><ele>1085.4</ele><time>2026-05-03T12:52:27.001Z</time></trkpt><trkpt lat="41.78040243107882" lon="-2.4880865312750684"><ele>1085.6</ele><time>2026-05-03T12:52:28.001Z</time></trkpt><trkpt lat="41.78046943717529" lon="-2.4879858168592635"><ele>1085.8</ele><time>2026-05-03T12:52:29.001Z</time></trkpt><trkpt lat="41.78053506280325" lon="-2.4878882726426306"><ele>1086.0</ele><time>2026-05-03T12:52:30.001Z</time></trkpt><trkpt lat="41.780601360009605" lon="-2.487791179701718"><ele>1086.6</ele><time>2026-05-03T12:52:31.001Z</time></trkpt><trkpt lat="41.78066540799501" lon="-2.4876896341901493"><ele>1087.1999999999998</ele><time>2026-05-03T12:52:32.001Z</time></trkpt><trkpt lat="41.78072843926162" lon="-2.487586604354365"><ele>1087.8000000000002</ele><time>2026-05-03T12:52:33.001Z</time></trkpt><trkpt lat="41.78079235864193" lon="-2.487485171740374"><ele>1088.4</ele><time>2026-05-03T12:52:34.001Z</time></trkpt><trkpt lat="41.780852975540405" lon="-2.487376912096908"><ele>1089.0</ele><time>2026-05-03T12:52:35.001Z</time></trkpt><trkpt lat="41.780913155060325" lon="-2.4872685763635483"><ele>1089.0</ele><time>2026-05-03T12:52:36.001Z</time></trkpt><trkpt lat="41.780973677751696" lon="-2.4871587775459165"><ele>1089.0</ele><time>2026-05-03T12:52:37Z</time></trkpt><trkpt lat="41.78103368721674" lon="-2.4870474091038077"><ele>1089.0</ele><time>2026-05-03T12:52:38Z</time></trkpt><trkpt lat="41.7810927062175" lon="-2.486935284029252"><ele>1089.0</ele><time>2026-05-03T12:52:39Z</time></trkpt><trkpt lat="41.78115001297528" lon="-2.4868201746087095"><ele>1089.0</ele><time>2026-05-03T12:52:40Z</time></trkpt><trkpt lat="41.78120869301634" lon="-2.4867023931538053"><ele>1089.0</ele><time>2026-05-03T12:52:41Z</time></trkpt><trkpt lat="41.78126625241987" lon="-2.486583657821531"><ele>1089.0</ele><time>2026-05-03T12:52:42Z</time></trkpt><trkpt lat="41.78132277177844" lon="-2.4864618683510744"><ele>1089.0</ele><time>2026-05-03T12:52:43Z</time></trkpt><trkpt lat="41.781379145425234" lon="-2.4863365995076236"><ele>1089.0</ele><time>2026-05-03T12:52:44Z</time></trkpt><trkpt lat="41.78143482384641" lon="-2.486209236935459"><ele>1089.0</ele><time>2026-05-03T12:52:45Z</time></trkpt><trkpt lat="41.78149033778099" lon="-2.48608167163523"><ele>1089.6000000000001</ele><time>2026-05-03T12:52:46Z</time></trkpt><trkpt lat="41.78154475477588" lon="-2.485946083657087"><ele>1090.2</ele><time>2026-05-03T12:52:47Z</time></trkpt><trkpt lat="41.781597039033706" lon="-2.4858163772606603"><ele>1090.8000000000002</ele><time>2026-05-03T12:52:48Z</time></trkpt><trkpt lat="41.781645917391515" lon="-2.4856868436833053"><ele>1091.4</ele><time>2026-05-03T12:52:49Z</time></trkpt><trkpt lat="41.78169415177984" lon="-2.485554285393285"><ele>1092.0</ele><time>2026-05-03T12:52:50Z</time></trkpt><trkpt lat="41.78173908455145" lon="-2.4854195411519653"><ele>1092.0</ele><time>2026-05-03T12:52:51Z</time></trkpt><trkpt lat="41.78178288631616" lon="-2.485282930121119"><ele>1092.0</ele><time>2026-05-03T12:52:52Z</time></trkpt><trkpt lat="41.78182438081588" lon="-2.485143413031009"><ele>1092.0</ele><time>2026-05-03T12:52:53Z</time></trkpt><trkpt lat="41.781860874911075" lon="-2.485017086252706"><ele>1092.0</ele><time>2026-05-03T12:52:54Z</time></trkpt><trkpt lat="41.781904116262545" lon="-2.484861400407633"><ele>1092.0</ele><time>2026-05-03T12:52:55Z</time></trkpt><trkpt lat="41.78197026937057" lon="-2.4846628169379255"><ele>1091.0</ele><time>2026-05-03T12:52:56Z</time></trkpt><trkpt lat="41.78204441869039" lon="-2.484428326043571"><ele>1090.0</ele><time>2026-05-03T12:52:57Z</time></trkpt><trkpt lat="41.78204230739587" lon="-2.4842882532521426"><ele>1089.0</ele><time>2026-05-03T12:52:59Z</time></trkpt><trkpt lat="41.78207843745391" lon="-2.4841463107811608"><ele>1088.0</ele><time>2026-05-03T12:53:00Z</time></trkpt><trkpt lat="41.78210790550532" lon="-2.484005526688697"><ele>1088.0</ele><time>2026-05-03T12:53:01Z</time></trkpt><trkpt lat="41.78213406146753" lon="-2.4838614385223194"><ele>1088.0</ele><time>2026-05-03T12:53:02Z</time></trkpt><trkpt lat="41.78216122859149" lon="-2.483710517190693"><ele>1088.0</ele><time>2026-05-03T12:53:03Z</time></trkpt><trkpt lat="41.78218619325955" lon="-2.4835624874402233"><ele>1088.0</ele><time>2026-05-03T12:53:04Z</time></trkpt><trkpt lat="41.782209524733794" lon="-2.4834149599684716"><ele>1088.2</ele><time>2026-05-03T12:53:05Z</time></trkpt><trkpt lat="41.78223447236179" lon="-2.4832714134597604"><ele>1088.4</ele><time>2026-05-03T12:53:06Z</time></trkpt><trkpt lat="41.78225709468882" lon="-2.4831276152351607"><ele>1088.6000000000001</ele><time>2026-05-03T12:53:07Z</time></trkpt><trkpt lat="41.78228054806471" lon="-2.4829772986607637"><ele>1088.8</ele><time>2026-05-03T12:53:08Z</time></trkpt><trkpt lat="41.78230096354519" lon="-2.4828251016081957"><ele>1089.0</ele><time>2026-05-03T12:53:09Z</time></trkpt><trkpt lat="41.78231465786534" lon="-2.482674827913418"><ele>1089.0</ele><time>2026-05-03T12:53:10Z</time></trkpt><trkpt lat="41.78233380503512" lon="-2.482522313769606"><ele>1089.0</ele><time>2026-05-03T12:53:11Z</time></trkpt><trkpt lat="41.78235707803166" lon="-2.4823688052859736"><ele>1089.0</ele><time>2026-05-03T12:53:12Z</time></trkpt><trkpt lat="41.78237954295455" lon="-2.482206808626453"><ele>1089.0</ele><time>2026-05-03T12:53:13Z</time></trkpt><trkpt lat="41.782403785511875" lon="-2.482056868642709"><ele>1089.25</ele><time>2026-05-03T12:53:14Z</time></trkpt><trkpt lat="41.782429758103035" lon="-2.4819028912198213"><ele>1089.5</ele><time>2026-05-03T12:53:15Z</time></trkpt><trkpt lat="41.78245123584326" lon="-2.481747081835786"><ele>1089.75</ele><time>2026-05-03T12:53:16Z</time></trkpt><trkpt lat="41.78247156939614" lon="-2.481588993049475"><ele>1090.0</ele><time>2026-05-03T12:53:17Z</time></trkpt><trkpt lat="41.782490447967085" lon="-2.481433651944297"><ele>1090.0</ele><time>2026-05-03T12:53:18Z</time></trkpt><trkpt lat="41.782515046770634" lon="-2.4812826773003653"><ele>1090.0</ele><time>2026-05-03T12:53:19Z</time></trkpt><trkpt lat="41.78253899264618" lon="-2.4811311693512663"><ele>1090.0</ele><time>2026-05-03T12:53:20Z</time></trkpt><trkpt lat="41.78256187047271" lon="-2.4809811112565994"><ele>1090.0</ele><time>2026-05-03T12:53:21Z</time></trkpt><trkpt lat="41.78258166833988" lon="-2.480827426146093"><ele>1088.75</ele><time>2026-05-03T12:53:22Z</time></trkpt><trkpt lat="41.7826049198954" lon="-2.4806760817796047"><ele>1087.5</ele><time>2026-05-03T12:53:23Z</time></trkpt><trkpt lat="41.782628626558726" lon="-2.48052682507754"><ele>1086.25</ele><time>2026-05-03T12:53:24Z</time></trkpt><trkpt lat="41.78265160126366" lon="-2.480374421993982"><ele>1085.0</ele><time>2026-05-03T12:53:25Z</time></trkpt><trkpt lat="41.78268003585232" lon="-2.480223478021469"><ele>1082.75</ele><time>2026-05-03T12:53:26Z</time></trkpt><trkpt lat="41.78270386550018" lon="-2.480068948549749"><ele>1080.5</ele><time>2026-05-03T12:53:27Z</time></trkpt><trkpt lat="41.78273371812947" lon="-2.479918498912282"><ele>1078.25</ele><time>2026-05-03T12:53:28Z</time></trkpt><trkpt lat="41.78276330415651" lon="-2.4797691350942377"><ele>1076.0</ele><time>2026-05-03T12:53:29Z</time></trkpt><trkpt lat="41.78279273923241" lon="-2.4796196731956446"><ele>1075.25</ele><time>2026-05-03T12:53:30Z</time></trkpt><trkpt lat="41.78281588670104" lon="-2.479471333976656"><ele>1074.5</ele><time>2026-05-03T12:53:31Z</time></trkpt><trkpt lat="41.78283992901581" lon="-2.479323733001364"><ele>1073.75</ele><time>2026-05-03T12:53:32Z</time></trkpt><trkpt lat="41.78287145587145" lon="-2.4791750723615515"><ele>1073.0</ele><time>2026-05-03T12:53:33Z</time></trkpt><trkpt lat="41.78290331195009" lon="-2.4790216916155114"><ele>1073.0</ele><time>2026-05-03T12:53:34Z</time></trkpt><trkpt lat="41.782930891348215" lon="-2.4788718038642297"><ele>1073.0</ele><time>2026-05-03T12:53:35Z</time></trkpt><trkpt lat="41.782964012255604" lon="-2.478718708192994"><ele>1073.0</ele><time>2026-05-03T12:53:36Z</time></trkpt><trkpt lat="41.78298759189874" lon="-2.4785666640387465"><ele>1073.0</ele><time>2026-05-03T12:53:37Z</time></trkpt><trkpt lat="41.78300901989294" lon="-2.478417068383122"><ele>1073.0</ele><time>2026-05-03T12:53:38Z</time></trkpt><trkpt lat="41.78303160841755" lon="-2.47826234588023"><ele>1073.0</ele><time>2026-05-03T12:53:39Z</time></trkpt><trkpt lat="41.783051015651104" lon="-2.478109345201415"><ele>1073.0</ele><time>2026-05-03T12:53:40Z</time></trkpt><trkpt lat="41.78306963891567" lon="-2.477955974638249"><ele>1073.0</ele><time>2026-05-03T12:53:41Z</time></trkpt><trkpt lat="41.78308634901033" lon="-2.4778026073266037"><ele>1073.25</ele><time>2026-05-03T12:53:42Z</time></trkpt><trkpt lat="41.78309643871085" lon="-2.4776500393410155"><ele>1073.5</ele><time>2026-05-03T12:53:43Z</time></trkpt><trkpt lat="41.78310745564217" lon="-2.477497831849102"><ele>1073.75</ele><time>2026-05-03T12:53:44Z</time></trkpt><trkpt lat="41.78311822557244" lon="-2.47734463802627"><ele>1074.0</ele><time>2026-05-03T12:53:45Z</time></trkpt><trkpt lat="41.78312378818004" lon="-2.4771935916015395"><ele>1073.5</ele><time>2026-05-03T12:53:46Z</time></trkpt><trkpt lat="41.783127184190874" lon="-2.4770395589095386"><ele>1073.0</ele><time>2026-05-03T12:53:47Z</time></trkpt><trkpt lat="41.78312696169898" lon="-2.476888745615839"><ele>1072.5</ele><time>2026-05-03T12:53:48Z</time></trkpt><trkpt lat="41.78312732364878" lon="-2.476735331005456"><ele>1072.0</ele><time>2026-05-03T12:53:49Z</time></trkpt><trkpt lat="41.783125047453474" lon="-2.4765834793785197"><ele>1072.0</ele><time>2026-05-03T12:53:50Z</time></trkpt><trkpt lat="41.783123613152014" lon="-2.4764306906887117"><ele>1072.0</ele><time>2026-05-03T12:53:51Z</time></trkpt><trkpt lat="41.78311541860495" lon="-2.476279932426256"><ele>1072.0</ele><time>2026-05-03T12:53:52Z</time></trkpt><trkpt lat="41.78310548250225" lon="-2.47613099448299"><ele>1072.0</ele><time>2026-05-03T12:53:53Z</time></trkpt><trkpt lat="41.783094494491" lon="-2.47597656175433"><ele>1072.8</ele><time>2026-05-03T12:53:54Z</time></trkpt><trkpt lat="41.7830845971462" lon="-2.47583084229657"><ele>1073.6</ele><time>2026-05-03T12:53:55.001Z</time></trkpt><trkpt lat="41.78307254432759" lon="-2.4756803394209457"><ele>1074.3999999999999</ele><time>2026-05-03T12:53:56.001Z</time></trkpt><trkpt lat="41.78305678992256" lon="-2.475532610840959"><ele>1075.2</ele><time>2026-05-03T12:53:57.001Z</time></trkpt><trkpt lat="41.783035358964625" lon="-2.475385383746596"><ele>1076.0</ele><time>2026-05-03T12:53:58.001Z</time></trkpt><trkpt lat="41.783021205373636" lon="-2.475237576132137"><ele>1076.5</ele><time>2026-05-03T12:53:59.001Z</time></trkpt><trkpt lat="41.78300052734633" lon="-2.475086356623461"><ele>1077.0</ele><time>2026-05-03T12:54:00.001Z</time></trkpt><trkpt lat="41.78297838340976" lon="-2.474937825529989"><ele>1077.5</ele><time>2026-05-03T12:54:01.001Z</time></trkpt><trkpt lat="41.782955216339765" lon="-2.47478936568071"><ele>1078.0</ele><time>2026-05-03T12:54:02.001Z</time></trkpt><trkpt lat="41.78293084608672" lon="-2.4746412148639947"><ele>1078.5</ele><time>2026-05-03T12:54:03.001Z</time></trkpt><trkpt lat="41.782902358884975" lon="-2.4744958226203537"><ele>1079.0</ele><time>2026-05-03T12:54:04.001Z</time></trkpt><trkpt lat="41.78287449726155" lon="-2.474353312184562"><ele>1079.5</ele><time>2026-05-03T12:54:05.001Z</time></trkpt><trkpt lat="41.782847707117256" lon="-2.474202034439376"><ele>1080.0</ele><time>2026-05-03T12:54:06.001Z</time></trkpt><trkpt lat="41.78281810749878" lon="-2.4740571075439743"><ele>1080.0</ele><time>2026-05-03T12:54:07.001Z</time></trkpt><trkpt lat="41.78278508185943" lon="-2.473912024434352"><ele>1080.0</ele><time>2026-05-03T12:54:08.001Z</time></trkpt><trkpt lat="41.7827547703131" lon="-2.473767047680284"><ele>1080.0</ele><time>2026-05-03T12:54:09.001Z</time></trkpt><trkpt lat="41.78271822955778" lon="-2.47362624614704"><ele>1080.0</ele><time>2026-05-03T12:54:10.001Z</time></trkpt><trkpt lat="41.782681923488916" lon="-2.4734764072989255"><ele>1077.5</ele><time>2026-05-03T12:54:11.001Z</time></trkpt><trkpt lat="41.78264623180781" lon="-2.473330213657499"><ele>1075.0</ele><time>2026-05-03T12:54:12.001Z</time></trkpt><trkpt lat="41.78261104184173" lon="-2.4731872257650216"><ele>1072.5</ele><time>2026-05-03T12:54:13.001Z</time></trkpt><trkpt lat="41.78257748196578" lon="-2.4730421957341964"><ele>1070.0</ele><time>2026-05-03T12:54:14.001Z</time></trkpt><trkpt lat="41.78254365091686" lon="-2.4728977496082303"><ele>1069.5</ele><time>2026-05-03T12:54:15.001Z</time></trkpt><trkpt lat="41.782511182821615" lon="-2.4727542441855888"><ele>1069.0</ele><time>2026-05-03T12:54:16.001Z</time></trkpt><trkpt lat="41.78247388437987" lon="-2.4726116999610492"><ele>1068.5</ele><time>2026-05-03T12:54:17.001Z</time></trkpt><trkpt lat="41.78243748968469" lon="-2.472464869726386"><ele>1068.0</ele><time>2026-05-03T12:54:18.001Z</time></trkpt><trkpt lat="41.782401225010574" lon="-2.4723183379876623"><ele>1068.0</ele><time>2026-05-03T12:54:19.001Z</time></trkpt><trkpt lat="41.782365719988334" lon="-2.472171097822466"><ele>1068.0</ele><time>2026-05-03T12:54:20.001Z</time></trkpt><trkpt lat="41.78232739424781" lon="-2.4720262425763826"><ele>1068.0</ele><time>2026-05-03T12:54:21.001Z</time></trkpt><trkpt lat="41.78228909668429" lon="-2.4718804580537475"><ele>1068.0</ele><time>2026-05-03T12:54:22.001Z</time></trkpt><trkpt lat="41.78225442199915" lon="-2.4717376795896397"><ele>1067.0</ele><time>2026-05-03T12:54:23.001Z</time></trkpt><trkpt lat="41.782219092146455" lon="-2.471591403950352"><ele>1066.0</ele><time>2026-05-03T12:54:24.001Z</time></trkpt><trkpt lat="41.78218165916678" lon="-2.4714490397580313"><ele>1065.0</ele><time>2026-05-03T12:54:25.001Z</time></trkpt><trkpt lat="41.78214526028786" lon="-2.471305300578866"><ele>1064.0</ele><time>2026-05-03T12:54:26.001Z</time></trkpt><trkpt lat="41.78210764091856" lon="-2.471161671219328"><ele>1063.5</ele><time>2026-05-03T12:54:27.001Z</time></trkpt><trkpt lat="41.78207139222965" lon="-2.4710173227341277"><ele>1063.0</ele><time>2026-05-03T12:54:28.001Z</time></trkpt><trkpt lat="41.78203550366607" lon="-2.4708721125375335"><ele>1062.5</ele><time>2026-05-03T12:54:29.001Z</time></trkpt><trkpt lat="41.781998380861545" lon="-2.470730170591632"><ele>1062.0</ele><time>2026-05-03T12:54:30.001Z</time></trkpt><trkpt lat="41.78196280141436" lon="-2.4705838181573654"><ele>1063.25</ele><time>2026-05-03T12:54:31.001Z</time></trkpt><trkpt lat="41.78192536003911" lon="-2.470437166572986"><ele>1064.5</ele><time>2026-05-03T12:54:32.001Z</time></trkpt><trkpt lat="41.78188655876958" lon="-2.4702925353916902"><ele>1065.75</ele><time>2026-05-03T12:54:33.001Z</time></trkpt><trkpt lat="41.78184807337316" lon="-2.4701469134242067"><ele>1067.0</ele><time>2026-05-03T12:54:34.001Z</time></trkpt><trkpt lat="41.78181057882475" lon="-2.470000910869487"><ele>1065.0</ele><time>2026-05-03T12:54:35.001Z</time></trkpt><trkpt lat="41.781771621406584" lon="-2.4698544405218676"><ele>1063.0</ele><time>2026-05-03T12:54:36.001Z</time></trkpt><trkpt lat="41.78173656380983" lon="-2.4697066970089523"><ele>1061.0</ele><time>2026-05-03T12:54:37.001Z</time></trkpt><trkpt lat="41.781702502910086" lon="-2.469560291347636"><ele>1059.0</ele><time>2026-05-03T12:54:38.001Z</time></trkpt><trkpt lat="41.78166664062145" lon="-2.469413186224398"><ele>1059.0</ele><time>2026-05-03T12:54:39.001Z</time></trkpt><trkpt lat="41.781629660469875" lon="-2.469269820882398"><ele>1059.0</ele><time>2026-05-03T12:54:40.001Z</time></trkpt><trkpt lat="41.7815897033232" lon="-2.4691244235316248"><ele>1059.0</ele><time>2026-05-03T12:54:41.001Z</time></trkpt><trkpt lat="41.78155600139887" lon="-2.46897850722873"><ele>1059.0</ele><time>2026-05-03T12:54:42.001Z</time></trkpt><trkpt lat="41.78151790205709" lon="-2.4688348184050795"><ele>1060.5</ele><time>2026-05-03T12:54:43Z</time></trkpt><trkpt lat="41.781480722522055" lon="-2.4686924925896996"><ele>1062.0</ele><time>2026-05-03T12:54:44Z</time></trkpt><trkpt lat="41.78144214620873" lon="-2.468550207298836"><ele>1063.5</ele><time>2026-05-03T12:54:45Z</time></trkpt><trkpt lat="41.781401412739534" lon="-2.46840783810726"><ele>1065.0</ele><time>2026-05-03T12:54:46Z</time></trkpt><trkpt lat="41.78135979586252" lon="-2.46826540997521"><ele>1065.0</ele><time>2026-05-03T12:54:47Z</time></trkpt><trkpt lat="41.78131564834783" lon="-2.4681232536570037"><ele>1065.0</ele><time>2026-05-03T12:54:48Z</time></trkpt><trkpt lat="41.78127969974987" lon="-2.4679768114620435"><ele>1065.0</ele><time>2026-05-03T12:54:49Z</time></trkpt><trkpt lat="41.78123865461784" lon="-2.467833319760373"><ele>1065.0</ele><time>2026-05-03T12:54:50Z</time></trkpt><trkpt lat="41.78119688817629" lon="-2.4676922605612934"><ele>1065.75</ele><time>2026-05-03T12:54:51Z</time></trkpt><trkpt lat="41.781151720617444" lon="-2.4675498897522337"><ele>1066.5</ele><time>2026-05-03T12:54:52Z</time></trkpt><trkpt lat="41.78110575927177" lon="-2.467408443988363"><ele>1067.25</ele><time>2026-05-03T12:54:53Z</time></trkpt><trkpt lat="41.78105909422817" lon="-2.4672676624167096"><ele>1068.0</ele><time>2026-05-03T12:54:54Z</time></trkpt><trkpt lat="41.78101341019877" lon="-2.4671275091979505"><ele>1064.75</ele><time>2026-05-03T12:54:55Z</time></trkpt><trkpt lat="41.780968349272406" lon="-2.4669846317081974"><ele>1061.5</ele><time>2026-05-03T12:54:56Z</time></trkpt><trkpt lat="41.78091937427333" lon="-2.4668454759010494"><ele>1058.25</ele><time>2026-05-03T12:54:57Z</time></trkpt><trkpt lat="41.78086940237745" lon="-2.4667065646527315"><ele>1055.0</ele><time>2026-05-03T12:54:58Z</time></trkpt><trkpt lat="41.780821198905315" lon="-2.4665666764864596"><ele>1055.0</ele><time>2026-05-03T12:54:59Z</time></trkpt><trkpt lat="41.78077022997399" lon="-2.466428343709346"><ele>1055.0</ele><time>2026-05-03T12:55:00Z</time></trkpt><trkpt lat="41.78072210916859" lon="-2.4662881404880275"><ele>1055.0</ele><time>2026-05-03T12:55:01Z</time></trkpt><trkpt lat="41.78067597992076" lon="-2.4661480978732393"><ele>1055.0</ele><time>2026-05-03T12:55:02Z</time></trkpt><trkpt lat="41.780626772249605" lon="-2.466008584016229"><ele>1056.25</ele><time>2026-05-03T12:55:03Z</time></trkpt><trkpt lat="41.78057383241698" lon="-2.465876923345374"><ele>1057.5</ele><time>2026-05-03T12:55:04Z</time></trkpt><trkpt lat="41.7805228237739" lon="-2.465737691980986"><ele>1058.75</ele><time>2026-05-03T12:55:05Z</time></trkpt><trkpt lat="41.780469824767664" lon="-2.465601646167565"><ele>1060.0</ele><time>2026-05-03T12:55:06Z</time></trkpt><trkpt lat="41.780422588826895" lon="-2.465457894898269"><ele>1061.25</ele><time>2026-05-03T12:55:07Z</time></trkpt><trkpt lat="41.78037367752826" lon="-2.4653215439893357"><ele>1062.5</ele><time>2026-05-03T12:55:08Z</time></trkpt><trkpt lat="41.780325675096215" lon="-2.4651815257286387"><ele>1063.75</ele><time>2026-05-03T12:55:09Z</time></trkpt><trkpt lat="41.78027921626107" lon="-2.4650410634693585"><ele>1065.0</ele><time>2026-05-03T12:55:10Z</time></trkpt><trkpt lat="41.78023042339335" lon="-2.46490678580097"><ele>1065.0</ele><time>2026-05-03T12:55:11Z</time></trkpt><trkpt lat="41.78019117630903" lon="-2.4647637993471956"><ele>1065.0</ele><time>2026-05-03T12:55:12Z</time></trkpt><trkpt lat="41.78015072491164" lon="-2.464622314067145"><ele>1065.0</ele><time>2026-05-03T12:55:13Z</time></trkpt><trkpt lat="41.780114485001924" lon="-2.4644786371461516"><ele>1065.0</ele><time>2026-05-03T12:55:14Z</time></trkpt><trkpt lat="41.7800814416415" lon="-2.4643336926956776"><ele>1060.25</ele><time>2026-05-03T12:55:15Z</time></trkpt><trkpt lat="41.780048675177156" lon="-2.4641906976590646"><ele>1055.5</ele><time>2026-05-03T12:55:16Z</time></trkpt><trkpt lat="41.78001825856143" lon="-2.464045623060211"><ele>1050.75</ele><time>2026-05-03T12:55:17Z</time></trkpt><trkpt lat="41.77999060759587" lon="-2.463896439236151"><ele>1046.0</ele><time>2026-05-03T12:55:18Z</time></trkpt><trkpt lat="41.77996352171491" lon="-2.4637473720420613"><ele>1045.25</ele><time>2026-05-03T12:55:19Z</time></trkpt><trkpt lat="41.77994125391014" lon="-2.4636021291464"><ele>1044.5</ele><time>2026-05-03T12:55:20Z</time></trkpt><trkpt lat="41.77992273297864" lon="-2.4634510308773017"><ele>1043.75</ele><time>2026-05-03T12:55:21Z</time></trkpt><trkpt lat="41.77990670137004" lon="-2.463309773547749"><ele>1043.0</ele><time>2026-05-03T12:55:22Z</time></trkpt><trkpt lat="41.779896906894564" lon="-2.4631507032925217"><ele>1043.0</ele><time>2026-05-03T12:55:23Z</time></trkpt><trkpt lat="41.77988478759042" lon="-2.463011843240907"><ele>1043.0</ele><time>2026-05-03T12:55:24Z</time></trkpt><trkpt lat="41.77988851507657" lon="-2.4628506459497057"><ele>1043.0</ele><time>2026-05-03T12:55:25Z</time></trkpt><trkpt lat="41.77987915738259" lon="-2.462702728634987"><ele>1043.0</ele><time>2026-05-03T12:55:26Z</time></trkpt><trkpt lat="41.77987132753054" lon="-2.4625583758439293"><ele>1043.0</ele><time>2026-05-03T12:55:27Z</time></trkpt><trkpt lat="41.77987501537583" lon="-2.462406326507781"><ele>1043.5</ele><time>2026-05-03T12:55:28Z</time></trkpt><trkpt lat="41.779881604681634" lon="-2.4622529674727427"><ele>1044.0</ele><time>2026-05-03T12:55:29Z</time></trkpt><trkpt lat="41.779890836381355" lon="-2.4621002478249308"><ele>1044.5</ele><time>2026-05-03T12:55:30Z</time></trkpt><trkpt lat="41.77989487501695" lon="-2.461951661826469"><ele>1045.0</ele><time>2026-05-03T12:55:31Z</time></trkpt><trkpt lat="41.779907149369194" lon="-2.461799952321032"><ele>1045.0</ele><time>2026-05-03T12:55:32Z</time></trkpt><trkpt lat="41.779925006512194" lon="-2.461650400428264"><ele>1045.0</ele><time>2026-05-03T12:55:33Z</time></trkpt><trkpt lat="41.77995298063583" lon="-2.461499194120183"><ele>1045.0</ele><time>2026-05-03T12:55:34Z</time></trkpt><trkpt lat="41.779982336003044" lon="-2.461349217382616"><ele>1045.0</ele><time>2026-05-03T12:55:35Z</time></trkpt><trkpt lat="41.7800120745719" lon="-2.461199696629627"><ele>1043.25</ele><time>2026-05-03T12:55:36Z</time></trkpt><trkpt lat="41.78005205209805" lon="-2.461047179485884"><ele>1041.5</ele><time>2026-05-03T12:55:37Z</time></trkpt><trkpt lat="41.78007501361544" lon="-2.4609103704961974"><ele>1039.75</ele><time>2026-05-03T12:55:38Z</time></trkpt><trkpt lat="41.78012085476697" lon="-2.4607672326795953"><ele>1038.0</ele><time>2026-05-03T12:55:39Z</time></trkpt><trkpt lat="41.780170632271705" lon="-2.4606264732009433"><ele>1040.0</ele><time>2026-05-03T12:55:40Z</time></trkpt><trkpt lat="41.78022524103588" lon="-2.460488259612793"><ele>1042.0</ele><time>2026-05-03T12:55:41Z</time></trkpt><trkpt lat="41.780279471793264" lon="-2.4603487347593207"><ele>1044.0</ele><time>2026-05-03T12:55:42Z</time></trkpt><trkpt lat="41.7803389708877" lon="-2.460215430651878"><ele>1046.0</ele><time>2026-05-03T12:55:43Z</time></trkpt><trkpt lat="41.78039915007108" lon="-2.4600835596672104"><ele>1046.0</ele><time>2026-05-03T12:55:44Z</time></trkpt><trkpt lat="41.78046071980179" lon="-2.4599533451852915"><ele>1046.0</ele><time>2026-05-03T12:55:45Z</time></trkpt><trkpt lat="41.78052557272854" lon="-2.4598215847991334"><ele>1046.0</ele><time>2026-05-03T12:55:46Z</time></trkpt><trkpt lat="41.78059035151" lon="-2.4596959863522927"><ele>1046.0</ele><time>2026-05-03T12:55:47Z</time></trkpt><trkpt lat="41.78065838336662" lon="-2.4595685236778646"><ele>1043.25</ele><time>2026-05-03T12:55:48Z</time></trkpt><trkpt lat="41.78072698827678" lon="-2.4594448780381737"><ele>1040.5</ele><time>2026-05-03T12:55:49Z</time></trkpt><trkpt lat="41.78079977419766" lon="-2.459323101661859"><ele>1037.75</ele><time>2026-05-03T12:55:50.001Z</time></trkpt><trkpt lat="41.780872910268876" lon="-2.459200008620544"><ele>1035.0</ele><time>2026-05-03T12:55:51.001Z</time></trkpt><trkpt lat="41.78094399307662" lon="-2.4590760864196155"><ele>1035.0</ele><time>2026-05-03T12:55:52.001Z</time></trkpt><trkpt lat="41.78101567963368" lon="-2.458954183532057"><ele>1035.0</ele><time>2026-05-03T12:55:53.001Z</time></trkpt><trkpt lat="41.78108732974242" lon="-2.4588316555109575"><ele>1035.0</ele><time>2026-05-03T12:55:54.001Z</time></trkpt><trkpt lat="41.781159316633484" lon="-2.4587088207856467"><ele>1035.0</ele><time>2026-05-03T12:55:55.001Z</time></trkpt><trkpt lat="41.78123075926731" lon="-2.458587180935234"><ele>1032.75</ele><time>2026-05-03T12:55:56.001Z</time></trkpt><trkpt lat="41.78130245915802" lon="-2.458463131610864"><ele>1030.5</ele><time>2026-05-03T12:55:57.001Z</time></trkpt><trkpt lat="41.78137409587586" lon="-2.4583404386411707"><ele>1028.25</ele><time>2026-05-03T12:55:58.001Z</time></trkpt><trkpt lat="41.78144526527134" lon="-2.4582186536154773"><ele>1026.0</ele><time>2026-05-03T12:55:59.001Z</time></trkpt><trkpt lat="41.78151521830592" lon="-2.458102555288664"><ele>1026.0</ele><time>2026-05-03T12:56:00.001Z</time></trkpt><trkpt lat="41.78158321278398" lon="-2.457985695348502"><ele>1026.0</ele><time>2026-05-03T12:56:01.001Z</time></trkpt><trkpt lat="41.78165486814738" lon="-2.4578607729364563"><ele>1026.0</ele><time>2026-05-03T12:56:02.001Z</time></trkpt><trkpt lat="41.78172450464897" lon="-2.4577395027878333"><ele>1026.0</ele><time>2026-05-03T12:56:03.001Z</time></trkpt><trkpt lat="41.78179415703295" lon="-2.457616501805061"><ele>1027.25</ele><time>2026-05-03T12:56:04.001Z</time></trkpt><trkpt lat="41.78186258534613" lon="-2.4574967633419793"><ele>1028.5</ele><time>2026-05-03T12:56:05.001Z</time></trkpt><trkpt lat="41.78193551360797" lon="-2.4573820879116357"><ele>1029.75</ele><time>2026-05-03T12:56:06.001Z</time></trkpt><trkpt lat="41.78200817673425" lon="-2.4572655595359394"><ele>1031.0</ele><time>2026-05-03T12:56:07.001Z</time></trkpt><trkpt lat="41.78207786920036" lon="-2.4571474695372015"><ele>1029.25</ele><time>2026-05-03T12:56:08.001Z</time></trkpt><trkpt lat="41.78214885573629" lon="-2.457024596371879"><ele>1027.5</ele><time>2026-05-03T12:56:09.001Z</time></trkpt><trkpt lat="41.782220033042975" lon="-2.4569026394103175"><ele>1025.75</ele><time>2026-05-03T12:56:10.001Z</time></trkpt><trkpt lat="41.78229250037253" lon="-2.456783050119526"><ele>1024.0</ele><time>2026-05-03T12:56:11.001Z</time></trkpt><trkpt lat="41.78236224499584" lon="-2.456664959766542"><ele>1024.0</ele><time>2026-05-03T12:56:12.001Z</time></trkpt><trkpt lat="41.782435313689994" lon="-2.456546880258561"><ele>1024.0</ele><time>2026-05-03T12:56:13.001Z</time></trkpt><trkpt lat="41.782504813421625" lon="-2.456430989095755"><ele>1024.0</ele><time>2026-05-03T12:56:14.001Z</time></trkpt><trkpt lat="41.78257809791596" lon="-2.4563118915067754"><ele>1024.0</ele><time>2026-05-03T12:56:15.001Z</time></trkpt><trkpt lat="41.78265104926462" lon="-2.456195859793083"><ele>1021.75</ele><time>2026-05-03T12:56:16.001Z</time></trkpt><trkpt lat="41.78272526296304" lon="-2.456081306250347"><ele>1019.5</ele><time>2026-05-03T12:56:17.001Z</time></trkpt><trkpt lat="41.78279759192136" lon="-2.4559679117705895"><ele>1017.25</ele><time>2026-05-03T12:56:18.001Z</time></trkpt><trkpt lat="41.782873567633686" lon="-2.4558490095065664"><ele>1015.0</ele><time>2026-05-03T12:56:19.001Z</time></trkpt><trkpt lat="41.7829447423015" lon="-2.4557347331799395"><ele>1015.0</ele><time>2026-05-03T12:56:20.001Z</time></trkpt><trkpt lat="41.783018978353475" lon="-2.4556206657739197"><ele>1015.0</ele><time>2026-05-03T12:56:21.001Z</time></trkpt><trkpt lat="41.783095295333304" lon="-2.4555077768073805"><ele>1015.0</ele><time>2026-05-03T12:56:22.001Z</time></trkpt><trkpt lat="41.78317141958131" lon="-2.4553944554578373"><ele>1015.0</ele><time>2026-05-03T12:56:23.001Z</time></trkpt><trkpt lat="41.78324985747939" lon="-2.4552812289871073"><ele>1014.5</ele><time>2026-05-03T12:56:24.001Z</time></trkpt><trkpt lat="41.78332946490178" lon="-2.4551666589352954"><ele>1014.0</ele><time>2026-05-03T12:56:25.001Z</time></trkpt><trkpt lat="41.78340838637101" lon="-2.455050459149372"><ele>1013.5</ele><time>2026-05-03T12:56:26.001Z</time></trkpt><trkpt lat="41.78348796432341" lon="-2.4549363107037268"><ele>1013.0</ele><time>2026-05-03T12:56:27.001Z</time></trkpt><trkpt lat="41.78356224252651" lon="-2.4548232738686644"><ele>1013.0</ele><time>2026-05-03T12:56:28.001Z</time></trkpt><trkpt lat="41.783637550718126" lon="-2.454709699789591"><ele>1013.0</ele><time>2026-05-03T12:56:29.001Z</time></trkpt><trkpt lat="41.78371454820518" lon="-2.4545971306766745"><ele>1013.0</ele><time>2026-05-03T12:56:30.001Z</time></trkpt><trkpt lat="41.78378973816993" lon="-2.454484273432529"><ele>1013.0</ele><time>2026-05-03T12:56:31.001Z</time></trkpt><trkpt lat="41.783864100300825" lon="-2.454372082221206"><ele>1014.25</ele><time>2026-05-03T12:56:32.001Z</time></trkpt><trkpt lat="41.78394188697437" lon="-2.454259278159065"><ele>1015.5</ele><time>2026-05-03T12:56:33.001Z</time></trkpt><trkpt lat="41.78401615853625" lon="-2.4541460360909597"><ele>1016.75</ele><time>2026-05-03T12:56:34.001Z</time></trkpt><trkpt lat="41.784092226565626" lon="-2.4540346912779696"><ele>1018.0</ele><time>2026-05-03T12:56:35.001Z</time></trkpt><trkpt lat="41.78416953614655" lon="-2.453923944242419"><ele>1018.0</ele><time>2026-05-03T12:56:36.001Z</time></trkpt><trkpt lat="41.784247557966246" lon="-2.4538164412638026"><ele>1018.0</ele><time>2026-05-03T12:56:37.001Z</time></trkpt><trkpt lat="41.784324044550125" lon="-2.4537178526062435"><ele>1018.0</ele><time>2026-05-03T12:56:38.001Z</time></trkpt><trkpt lat="41.784403643464096" lon="-2.453615553187696"><ele>1018.0</ele><time>2026-05-03T12:56:39.001Z</time></trkpt><trkpt lat="41.78449580439899" lon="-2.453520133321473"><ele>1018.0</ele><time>2026-05-03T12:56:40.001Z</time></trkpt><trkpt lat="41.784567124068836" lon="-2.4534123462374464"><ele>1020.2</ele><time>2026-05-03T12:56:41.001Z</time></trkpt><trkpt lat="41.78465857071607" lon="-2.453323993270683"><ele>1022.4</ele><time>2026-05-03T12:56:42.001Z</time></trkpt><trkpt lat="41.78474912777729" lon="-2.453246922864418"><ele>1024.6000000000001</ele><time>2026-05-03T12:56:43.001Z</time></trkpt><trkpt lat="41.78483388417522" lon="-2.453168017477845"><ele>1026.8</ele><time>2026-05-03T12:56:44.001Z</time></trkpt><trkpt lat="41.78492027683705" lon="-2.4530906679331164"><ele>1029.0</ele><time>2026-05-03T12:56:45.001Z</time></trkpt><trkpt lat="41.78500835838373" lon="-2.4530143771053328"><ele>1029.0</ele><time>2026-05-03T12:56:46.001Z</time></trkpt><trkpt lat="41.78509510465701" lon="-2.4529383756121304"><ele>1029.0</ele><time>2026-05-03T12:56:47.001Z</time></trkpt><trkpt lat="41.78518137336486" lon="-2.4528688130013063"><ele>1029.0</ele><time>2026-05-03T12:56:48.001Z</time></trkpt><trkpt lat="41.78526688784631" lon="-2.452802212704146"><ele>1029.0</ele><time>2026-05-03T12:56:49Z</time></trkpt><trkpt lat="41.785354035973924" lon="-2.4527327995696777"><ele>1029.0</ele><time>2026-05-03T12:56:50Z</time></trkpt><trkpt lat="41.785439870585655" lon="-2.4526656254397956"><ele>1029.0</ele><time>2026-05-03T12:56:51Z</time></trkpt><trkpt lat="41.78552713949347" lon="-2.452606013713846"><ele>1029.0</ele><time>2026-05-03T12:56:52Z</time></trkpt><trkpt lat="41.78561162089937" lon="-2.4525425147258293"><ele>1029.0</ele><time>2026-05-03T12:56:53Z</time></trkpt><trkpt lat="41.785696788303184" lon="-2.4524712023933546"><ele>1029.0</ele><time>2026-05-03T12:56:54Z</time></trkpt><trkpt lat="41.785778722695134" lon="-2.4523995875982996"><ele>1029.0</ele><time>2026-05-03T12:56:55Z</time></trkpt><trkpt lat="41.78586530437119" lon="-2.452333312505728"><ele>1029.0</ele><time>2026-05-03T12:56:56Z</time></trkpt><trkpt lat="41.7859486670598" lon="-2.4522718570882427"><ele>1029.0</ele><time>2026-05-03T12:56:57Z</time></trkpt><trkpt lat="41.786032782605844" lon="-2.4522001938892264"><ele>1029.0</ele><time>2026-05-03T12:56:58Z</time></trkpt><trkpt lat="41.78610172223388" lon="-2.452111356838895"><ele>1029.0</ele><time>2026-05-03T12:56:59Z</time></trkpt><trkpt lat="41.78617756110465" lon="-2.4520315689775933"><ele>1029.0</ele><time>2026-05-03T12:57:00Z</time></trkpt><trkpt lat="41.78625982191837" lon="-2.4519600133651127"><ele>1029.4</ele><time>2026-05-03T12:57:01Z</time></trkpt><trkpt lat="41.78633560329363" lon="-2.451879994624198"><ele>1029.8000000000002</ele><time>2026-05-03T12:57:02Z</time></trkpt><trkpt lat="41.78640904863994" lon="-2.451798492049874"><ele>1030.1999999999998</ele><time>2026-05-03T12:57:03Z</time></trkpt><trkpt lat="41.78647535717939" lon="-2.4517085417450746"><ele>1030.6</ele><time>2026-05-03T12:57:04Z</time></trkpt><trkpt lat="41.78653984239644" lon="-2.4516171384558914"><ele>1031.0</ele><time>2026-05-03T12:57:05Z</time></trkpt><trkpt lat="41.78660743674084" lon="-2.4515254570816416"><ele>1031.0</ele><time>2026-05-03T12:57:06Z</time></trkpt><trkpt lat="41.786675845849324" lon="-2.45143274338631"><ele>1031.0</ele><time>2026-05-03T12:57:07Z</time></trkpt><trkpt lat="41.78673842504183" lon="-2.4513348457684185"><ele>1031.0</ele><time>2026-05-03T12:57:08Z</time></trkpt><trkpt lat="41.78679961375486" lon="-2.45123476390425"><ele>1031.0</ele><time>2026-05-03T12:57:09Z</time></trkpt><trkpt lat="41.78686053470902" lon="-2.451137067002129"><ele>1031.0</ele><time>2026-05-03T12:57:10Z</time></trkpt><trkpt lat="41.7869208704326" lon="-2.45103804340614"><ele>1032.6</ele><time>2026-05-03T12:57:11Z</time></trkpt><trkpt lat="41.78697987215339" lon="-2.4509387666621154"><ele>1034.1999999999998</ele><time>2026-05-03T12:57:12Z</time></trkpt><trkpt lat="41.787038069245796" lon="-2.4508406347385763"><ele>1035.8000000000002</ele><time>2026-05-03T12:57:13Z</time></trkpt><trkpt lat="41.78709152199105" lon="-2.4507359328451557"><ele>1037.4</ele><time>2026-05-03T12:57:14Z</time></trkpt><trkpt lat="41.78714063374316" lon="-2.450630863706506"><ele>1039.0</ele><time>2026-05-03T12:57:15Z</time></trkpt><trkpt lat="41.787198058629606" lon="-2.4505269552965396"><ele>1038.4</ele><time>2026-05-03T12:57:16Z</time></trkpt><trkpt lat="41.787247775758715" lon="-2.4504166742089506"><ele>1037.8000000000002</ele><time>2026-05-03T12:57:17Z</time></trkpt><trkpt lat="41.787294312404434" lon="-2.450310582007493"><ele>1037.1999999999998</ele><time>2026-05-03T12:57:18Z</time></trkpt><trkpt lat="41.7873417469879" lon="-2.450200499651319"><ele>1036.6</ele><time>2026-05-03T12:57:19Z</time></trkpt><trkpt lat="41.78738756822461" lon="-2.450089215591002"><ele>1036.0</ele><time>2026-05-03T12:57:20Z</time></trkpt><trkpt lat="41.78743196413614" lon="-2.449972827600512"><ele>1036.0</ele><time>2026-05-03T12:57:21Z</time></trkpt><trkpt lat="41.78746829337353" lon="-2.449859165329564"><ele>1036.0</ele><time>2026-05-03T12:57:22Z</time></trkpt><trkpt lat="41.787503472476395" lon="-2.449746867041729"><ele>1036.0</ele><time>2026-05-03T12:57:23Z</time></trkpt><trkpt lat="41.787545491479605" lon="-2.449630421696997"><ele>1036.0</ele><time>2026-05-03T12:57:24Z</time></trkpt><trkpt lat="41.7875798017151" lon="-2.4495123151161837"><ele>1036.0</ele><time>2026-05-03T12:57:25Z</time></trkpt><trkpt lat="41.7876147807439" lon="-2.449388661107197"><ele>1036.2</ele><time>2026-05-03T12:57:26Z</time></trkpt><trkpt lat="41.787642785584424" lon="-2.4492710934110926"><ele>1036.3999999999999</ele><time>2026-05-03T12:57:27Z</time></trkpt><trkpt lat="41.78767001330937" lon="-2.449150112711843"><ele>1036.6</ele><time>2026-05-03T12:57:28Z</time></trkpt><trkpt lat="41.78769657918781" lon="-2.4490297307106643"><ele>1036.8</ele><time>2026-05-03T12:57:29Z</time></trkpt><trkpt lat="41.787717301046285" lon="-2.448907476428135"><ele>1037.0</ele><time>2026-05-03T12:57:30Z</time></trkpt><trkpt lat="41.78774030526559" lon="-2.4487844146396487"><ele>1038.4</ele><time>2026-05-03T12:57:31Z</time></trkpt><trkpt lat="41.787759476728574" lon="-2.4486612594755734"><ele>1039.8000000000002</ele><time>2026-05-03T12:57:32Z</time></trkpt><trkpt lat="41.78777819046007" lon="-2.448538827876702"><ele>1041.2</ele><time>2026-05-03T12:57:33Z</time></trkpt><trkpt lat="41.787794639305154" lon="-2.448416577497776"><ele>1042.6000000000001</ele><time>2026-05-03T12:57:34Z</time></trkpt><trkpt lat="41.787810083149104" lon="-2.4482922521377004"><ele>1044.0</ele><time>2026-05-03T12:57:35Z</time></trkpt><trkpt lat="41.78782527573257" lon="-2.4481690906088596"><ele>1044.0</ele><time>2026-05-03T12:57:36Z</time></trkpt><trkpt lat="41.78783578305483" lon="-2.4480476597445007"><ele>1044.0</ele><time>2026-05-03T12:57:37Z</time></trkpt><trkpt lat="41.787839520519896" lon="-2.4479226956365934"><ele>1044.0</ele><time>2026-05-03T12:57:38Z</time></trkpt><trkpt lat="41.787843604850714" lon="-2.4477973844968783"><ele>1044.0</ele><time>2026-05-03T12:57:39Z</time></trkpt><trkpt lat="41.787847001591025" lon="-2.447673026340483"><ele>1044.0</ele><time>2026-05-03T12:57:40Z</time></trkpt><trkpt lat="41.787849544847624" lon="-2.4475477102820276"><ele>1045.6000000000001</ele><time>2026-05-03T12:57:41Z</time></trkpt><trkpt lat="41.787848372891325" lon="-2.447424918008011"><ele>1047.2</ele><time>2026-05-03T12:57:42Z</time></trkpt><trkpt lat="41.78784661389081" lon="-2.447301654859493"><ele>1048.8000000000002</ele><time>2026-05-03T12:57:43Z</time></trkpt><trkpt lat="41.787843448320025" lon="-2.4471785115027647"><ele>1050.4</ele><time>2026-05-03T12:57:44Z</time></trkpt><trkpt lat="41.787836888103776" lon="-2.447058599284387"><ele>1052.0</ele><time>2026-05-03T12:57:45Z</time></trkpt><trkpt lat="41.7878289095719" lon="-2.4469349435696057"><ele>1052.0</ele><time>2026-05-03T12:57:46Z</time></trkpt><trkpt lat="41.78782063875553" lon="-2.4468168395700176"><ele>1052.0</ele><time>2026-05-03T12:57:47Z</time></trkpt><trkpt lat="41.78780377310976" lon="-2.446699409322817"><ele>1052.0</ele><time>2026-05-03T12:57:48Z</time></trkpt><trkpt lat="41.787790841175976" lon="-2.446581250903599"><ele>1052.0</ele><time>2026-05-03T12:57:49Z</time></trkpt><trkpt lat="41.78777874802273" lon="-2.4464603859272356"><ele>1052.0</ele><time>2026-05-03T12:57:50Z</time></trkpt><trkpt lat="41.78776256118774" lon="-2.4463440066743667"><ele>1052.0</ele><time>2026-05-03T12:57:51Z</time></trkpt><trkpt lat="41.78773959680865" lon="-2.4462291102633436"><ele>1052.0</ele><time>2026-05-03T12:57:52Z</time></trkpt><trkpt lat="41.78772199638896" lon="-2.4461130828013156"><ele>1052.0</ele><time>2026-05-03T12:57:53.001Z</time></trkpt><trkpt lat="41.78769842445905" lon="-2.445997219944712"><ele>1052.0</ele><time>2026-05-03T12:57:54.001Z</time></trkpt><trkpt lat="41.787677143902954" lon="-2.445885924966883"><ele>1052.0</ele><time>2026-05-03T12:57:55.001Z</time></trkpt><trkpt lat="41.787649293725885" lon="-2.4457759231063423"><ele>1052.0</ele><time>2026-05-03T12:57:56.001Z</time></trkpt><trkpt lat="41.78762047623682" lon="-2.4456674739447983"><ele>1052.0</ele><time>2026-05-03T12:57:57.001Z</time></trkpt><trkpt lat="41.78759116251056" lon="-2.445557966335045"><ele>1052.1666666666667</ele><time>2026-05-03T12:57:58.001Z</time></trkpt><trkpt lat="41.787561188220316" lon="-2.4454470641473054"><ele>1052.3333333333335</ele><time>2026-05-03T12:57:59.001Z</time></trkpt><trkpt lat="41.787528534662684" lon="-2.4453405635021372"><ele>1052.5</ele><time>2026-05-03T12:58:00.001Z</time></trkpt><trkpt lat="41.787495538023414" lon="-2.4452333355818827"><ele>1052.6666666666667</ele><time>2026-05-03T12:58:01.001Z</time></trkpt><trkpt lat="41.78745997890747" lon="-2.445127216937168"><ele>1052.8333333333333</ele><time>2026-05-03T12:58:02.001Z</time></trkpt><trkpt lat="41.787425384166866" lon="-2.445021172185618"><ele>1053.0</ele><time>2026-05-03T12:58:03.001Z</time></trkpt><trkpt lat="41.787386615022356" lon="-2.444917323168824"><ele>1053.0</ele><time>2026-05-03T12:58:04.001Z</time></trkpt><trkpt lat="41.78734576654649" lon="-2.444814378751332"><ele>1053.0</ele><time>2026-05-03T12:58:05.001Z</time></trkpt><trkpt lat="41.78730610294851" lon="-2.444712571304709"><ele>1053.0</ele><time>2026-05-03T12:58:06.001Z</time></trkpt><trkpt lat="41.7872627047991" lon="-2.444614447020331"><ele>1053.0</ele><time>2026-05-03T12:58:07.001Z</time></trkpt><trkpt lat="41.78721797703538" lon="-2.4445153178255525"><ele>1053.0</ele><time>2026-05-03T12:58:08.001Z</time></trkpt><trkpt lat="41.787170641865" lon="-2.4444192077278752"><ele>1053.0</ele><time>2026-05-03T12:58:09.001Z</time></trkpt><trkpt lat="41.7871252339461" lon="-2.4443218807730225"><ele>1053.1666666666667</ele><time>2026-05-03T12:58:10.001Z</time></trkpt><trkpt lat="41.78707877622142" lon="-2.444225467718261"><ele>1053.3333333333333</ele><time>2026-05-03T12:58:11.001Z</time></trkpt><trkpt lat="41.78703226645564" lon="-2.444127779710292"><ele>1053.5</ele><time>2026-05-03T12:58:12.001Z</time></trkpt><trkpt lat="41.786981983261406" lon="-2.4440319343619983"><ele>1053.6666666666665</ele><time>2026-05-03T12:58:13.001Z</time></trkpt><trkpt lat="41.786929291895234" lon="-2.443938357802807"><ele>1053.8333333333333</ele><time>2026-05-03T12:58:14.001Z</time></trkpt><trkpt lat="41.78687673050561" lon="-2.4438447893833537"><ele>1054.0</ele><time>2026-05-03T12:58:15.001Z</time></trkpt><trkpt lat="41.78682526838738" lon="-2.443746798098907"><ele>1054.5</ele><time>2026-05-03T12:58:16.001Z</time></trkpt><trkpt lat="41.786770248802696" lon="-2.443653276513145"><ele>1055.0</ele><time>2026-05-03T12:58:17.001Z</time></trkpt><trkpt lat="41.78671521384528" lon="-2.443559859580736"><ele>1055.5</ele><time>2026-05-03T12:58:18.001Z</time></trkpt><trkpt lat="41.786659415341965" lon="-2.443464227841991"><ele>1056.0</ele><time>2026-05-03T12:58:19.001Z</time></trkpt><trkpt lat="41.78660431076944" lon="-2.4433676210009407"><ele>1056.5</ele><time>2026-05-03T12:58:20.001Z</time></trkpt><trkpt lat="41.78655247326761" lon="-2.4432689597363164"><ele>1057.0</ele><time>2026-05-03T12:58:21.001Z</time></trkpt><trkpt lat="41.78649864371082" lon="-2.4431700343290053"><ele>1057.0</ele><time>2026-05-03T12:58:22.001Z</time></trkpt><trkpt lat="41.78644287135769" lon="-2.4430751188260946"><ele>1057.0</ele><time>2026-05-03T12:58:23.001Z</time></trkpt><trkpt lat="41.78638624013082" lon="-2.4429783773653817"><ele>1057.0</ele><time>2026-05-03T12:58:24.001Z</time></trkpt><trkpt lat="41.78632971519005" lon="-2.442879554520683"><ele>1057.0</ele><time>2026-05-03T12:58:25.001Z</time></trkpt><trkpt lat="41.78627394190715" lon="-2.4427762537109587"><ele>1057.0</ele><time>2026-05-03T12:58:26.001Z</time></trkpt><trkpt lat="41.786216865075154" lon="-2.4426765803390764"><ele>1057.6</ele><time>2026-05-03T12:58:27.001Z</time></trkpt><trkpt lat="41.786160468143564" lon="-2.44257994830227"><ele>1058.2</ele><time>2026-05-03T12:58:28.001Z</time></trkpt><trkpt lat="41.78610308609607" lon="-2.4424733912351733"><ele>1058.8</ele><time>2026-05-03T12:58:29.001Z</time></trkpt><trkpt lat="41.78604412238469" lon="-2.4423715082183555"><ele>1059.4</ele><time>2026-05-03T12:58:30.001Z</time></trkpt><trkpt lat="41.7859851247173" lon="-2.4422659873456216"><ele>1060.0</ele><time>2026-05-03T12:58:31.001Z</time></trkpt><trkpt lat="41.785924027272785" lon="-2.4421650543966127"><ele>1060.8</ele><time>2026-05-03T12:58:32.001Z</time></trkpt><trkpt lat="41.7858629190068" lon="-2.4420616397720005"><ele>1061.6</ele><time>2026-05-03T12:58:33.001Z</time></trkpt><trkpt lat="41.785802930196425" lon="-2.441953595265168"><ele>1062.4</ele><time>2026-05-03T12:58:34.001Z</time></trkpt><trkpt lat="41.785742830651756" lon="-2.441844410511011"><ele>1063.2</ele><time>2026-05-03T12:58:35.001Z</time></trkpt><trkpt lat="41.7856820999087" lon="-2.4417342439453846"><ele>1064.0</ele><time>2026-05-03T12:58:36.001Z</time></trkpt><trkpt lat="41.78562293380973" lon="-2.4416205507067796"><ele>1064.0</ele><time>2026-05-03T12:58:37.001Z</time></trkpt><trkpt lat="41.785560836559085" lon="-2.4415076161481837"><ele>1064.0</ele><time>2026-05-03T12:58:38.001Z</time></trkpt><trkpt lat="41.785496970298716" lon="-2.441396920528022"><ele>1064.0</ele><time>2026-05-03T12:58:39.001Z</time></trkpt><trkpt lat="41.78544135061687" lon="-2.441273082976118"><ele>1064.0</ele><time>2026-05-03T12:58:40.001Z</time></trkpt><trkpt lat="41.78538183452606" lon="-2.4411531794769683"><ele>1064.0</ele><time>2026-05-03T12:58:41.001Z</time></trkpt><trkpt lat="41.7853204508697" lon="-2.441038449590911"><ele>1064.2</ele><time>2026-05-03T12:58:42.001Z</time></trkpt><trkpt lat="41.78524435788746" lon="-2.4409366538489095"><ele>1064.4</ele><time>2026-05-03T12:58:43.001Z</time></trkpt><trkpt lat="41.78517825438107" lon="-2.440822098341362"><ele>1064.6</ele><time>2026-05-03T12:58:44.001Z</time></trkpt><trkpt lat="41.78511297277594" lon="-2.4407059807687084"><ele>1064.8</ele><time>2026-05-03T12:58:45.001Z</time></trkpt><trkpt lat="41.78504815474508" lon="-2.4405906712315484"><ele>1065.0</ele><time>2026-05-03T12:58:46.001Z</time></trkpt><trkpt lat="41.784994381493874" lon="-2.440462812228618"><ele>1065.0</ele><time>2026-05-03T12:58:47.001Z</time></trkpt><trkpt lat="41.784922119252954" lon="-2.440336220721642"><ele>1065.0</ele><time>2026-05-03T12:58:48.001Z</time></trkpt><trkpt lat="41.78486365292876" lon="-2.4402387647016655"><ele>1065.0</ele><time>2026-05-03T12:58:49.001Z</time></trkpt><trkpt lat="41.784812458977896" lon="-2.4401745896511664"><ele>1065.0</ele><time>2026-05-03T12:58:50.001Z</time></trkpt><trkpt lat="41.78475101400406" lon="-2.4400661188325525"><ele>1065.0</ele><time>2026-05-03T12:58:51.001Z</time></trkpt><trkpt lat="41.78465965089636" lon="-2.4398771978795972"><ele>1065.0</ele><time>2026-05-03T12:58:52.001Z</time></trkpt><trkpt lat="41.78458811440305" lon="-2.439746582020462"><ele>1065.0</ele><time>2026-05-03T12:58:53.001Z</time></trkpt><trkpt lat="41.784517826405725" lon="-2.439628391759067"><ele>1065.0</ele><time>2026-05-03T12:58:54.001Z</time></trkpt><trkpt lat="41.78443796070588" lon="-2.439516587117545"><ele>1065.0</ele><time>2026-05-03T12:58:55Z</time></trkpt><trkpt lat="41.78438101604117" lon="-2.439379582775641"><ele>1064.25</ele><time>2026-05-03T12:58:56Z</time></trkpt><trkpt lat="41.784298302977454" lon="-2.439270866826663"><ele>1063.5</ele><time>2026-05-03T12:58:57Z</time></trkpt><trkpt lat="41.78422894103369" lon="-2.4391500328058635"><ele>1062.75</ele><time>2026-05-03T12:58:58Z</time></trkpt><trkpt lat="41.7841590496247" lon="-2.439028276415442"><ele>1062.0</ele><time>2026-05-03T12:58:59Z</time></trkpt><trkpt lat="41.784089781647424" lon="-2.4389070564707924"><ele>1061.5</ele><time>2026-05-03T12:59:00Z</time></trkpt><trkpt lat="41.78403332643767" lon="-2.438772628224733"><ele>1061.0</ele><time>2026-05-03T12:59:01Z</time></trkpt><trkpt lat="41.78395107658492" lon="-2.438663543254759"><ele>1060.5</ele><time>2026-05-03T12:59:02Z</time></trkpt><trkpt lat="41.7838826523876" lon="-2.4385434162540958"><ele>1060.0</ele><time>2026-05-03T12:59:03Z</time></trkpt><trkpt lat="41.783814172389" lon="-2.4384231922234476"><ele>1060.0</ele><time>2026-05-03T12:59:04Z</time></trkpt><trkpt lat="41.78374521005044" lon="-2.438303160264389"><ele>1060.0</ele><time>2026-05-03T12:59:05Z</time></trkpt><trkpt lat="41.78367650658752" lon="-2.438184990139018"><ele>1060.0</ele><time>2026-05-03T12:59:06Z</time></trkpt><trkpt lat="41.783607726072304" lon="-2.4380666876152635"><ele>1060.0</ele><time>2026-05-03T12:59:07Z</time></trkpt><trkpt lat="41.78354015664474" lon="-2.437947085415038"><ele>1060.0</ele><time>2026-05-03T12:59:08Z</time></trkpt><trkpt lat="41.78347091581835" lon="-2.437824343761519"><ele>1059.4</ele><time>2026-05-03T12:59:09Z</time></trkpt><trkpt lat="41.78340365923348" lon="-2.437705119889373"><ele>1058.8</ele><time>2026-05-03T12:59:10Z</time></trkpt><trkpt lat="41.78333639243344" lon="-2.4375858776072223"><ele>1058.2</ele><time>2026-05-03T12:59:11Z</time></trkpt><trkpt lat="41.7832662023217" lon="-2.4374627476254935"><ele>1057.6</ele><time>2026-05-03T12:59:12Z</time></trkpt><trkpt lat="41.783201819201906" lon="-2.437349842442682"><ele>1057.0</ele><time>2026-05-03T12:59:13Z</time></trkpt><trkpt lat="41.78313285307164" lon="-2.4372286875439944"><ele>1056.8</ele><time>2026-05-03T12:59:14Z</time></trkpt><trkpt lat="41.7830648614792" lon="-2.4371079105113425"><ele>1056.6</ele><time>2026-05-03T12:59:15Z</time></trkpt><trkpt lat="41.783007064709544" lon="-2.4369881717466355"><ele>1056.3999999999999</ele><time>2026-05-03T12:59:16Z</time></trkpt><trkpt lat="41.782914221313845" lon="-2.4369325141977076"><ele>1056.2</ele><time>2026-05-03T12:59:17Z</time></trkpt><trkpt lat="41.78282273580501" lon="-2.436886384261545"><ele>1056.0</ele><time>2026-05-03T12:59:18Z</time></trkpt><trkpt lat="41.782792246301945" lon="-2.4366338484689707"><ele>1056.0</ele><time>2026-05-03T12:59:19Z</time></trkpt><trkpt lat="41.78272372920805" lon="-2.4365143233329962"><ele>1056.0</ele><time>2026-05-03T12:59:20Z</time></trkpt><trkpt lat="41.78265449531929" lon="-2.4363924805704142"><ele>1056.0</ele><time>2026-05-03T12:59:21Z</time></trkpt><trkpt lat="41.7825865964256" lon="-2.436272733475256"><ele>1056.0</ele><time>2026-05-03T12:59:22Z</time></trkpt><trkpt lat="41.78251709781882" lon="-2.4361494188480917"><ele>1055.25</ele><time>2026-05-03T12:59:23Z</time></trkpt><trkpt lat="41.78244904602669" lon="-2.436028671145967"><ele>1054.5</ele><time>2026-05-03T12:59:24Z</time></trkpt><trkpt lat="41.782381441171836" lon="-2.4359087163155135"><ele>1053.75</ele><time>2026-05-03T12:59:25Z</time></trkpt><trkpt lat="41.78231299323011" lon="-2.435787265652491"><ele>1053.0</ele><time>2026-05-03T12:59:26Z</time></trkpt><trkpt lat="41.78225901611293" lon="-2.435656291609893"><ele>1053.0</ele><time>2026-05-03T12:59:27Z</time></trkpt><trkpt lat="41.78218667358625" lon="-2.435541870697976"><ele>1053.0</ele><time>2026-05-03T12:59:28Z</time></trkpt><trkpt lat="41.782115861615374" lon="-2.4354228377695075"><ele>1053.0</ele><time>2026-05-03T12:59:29Z</time></trkpt><trkpt lat="41.78204977702525" lon="-2.4353034042193666"><ele>1053.0</ele><time>2026-05-03T12:59:30Z</time></trkpt><trkpt lat="41.78198429520502" lon="-2.435185510016778"><ele>1053.0</ele><time>2026-05-03T12:59:31Z</time></trkpt><trkpt lat="41.781921128990035" lon="-2.435070631388068"><ele>1053.2</ele><time>2026-05-03T12:59:32Z</time></trkpt><trkpt lat="41.78185451510121" lon="-2.4349556189951174"><ele>1053.4</ele><time>2026-05-03T12:59:33Z</time></trkpt><trkpt lat="41.78178533416429" lon="-2.434842289255683"><ele>1053.6000000000001</ele><time>2026-05-03T12:59:34Z</time></trkpt><trkpt lat="41.78172276559734" lon="-2.434725813287961"><ele>1053.8</ele><time>2026-05-03T12:59:35Z</time></trkpt><trkpt lat="41.781653177192545" lon="-2.4346080404143864"><ele>1054.0</ele><time>2026-05-03T12:59:36Z</time></trkpt><trkpt lat="41.78158847769627" lon="-2.434491421718146"><ele>1054.6000000000001</ele><time>2026-05-03T12:59:37Z</time></trkpt><trkpt lat="41.781519765708104" lon="-2.4343734772196357"><ele>1055.2</ele><time>2026-05-03T12:59:38Z</time></trkpt><trkpt lat="41.78144991036675" lon="-2.434262185310866"><ele>1055.8000000000002</ele><time>2026-05-03T12:59:39Z</time></trkpt><trkpt lat="41.78137969263596" lon="-2.434150248918498"><ele>1056.4</ele><time>2026-05-03T12:59:40Z</time></trkpt><trkpt lat="41.78130836604016" lon="-2.4340378013661454"><ele>1057.0</ele><time>2026-05-03T12:59:41Z</time></trkpt><trkpt lat="41.78124027340734" lon="-2.433922159342667"><ele>1057.0</ele><time>2026-05-03T12:59:42Z</time></trkpt><trkpt lat="41.7811784711174" lon="-2.433812621457652"><ele>1057.0</ele><time>2026-05-03T12:59:43Z</time></trkpt><trkpt lat="41.78110960132329" lon="-2.4337005823933255"><ele>1057.0</ele><time>2026-05-03T12:59:44Z</time></trkpt><trkpt lat="41.781043918083846" lon="-2.43359087791758"><ele>1057.0</ele><time>2026-05-03T12:59:45Z</time></trkpt><trkpt lat="41.780978936268035" lon="-2.433481967382847"><ele>1057.0</ele><time>2026-05-03T12:59:46Z</time></trkpt><trkpt lat="41.780917023364296" lon="-2.43337144070249"><ele>1057.8</ele><time>2026-05-03T12:59:47Z</time></trkpt><trkpt lat="41.78085204132215" lon="-2.433259584136655"><ele>1058.6</ele><time>2026-05-03T12:59:48Z</time></trkpt><trkpt lat="41.78079131808438" lon="-2.4331508687651295"><ele>1059.3999999999999</ele><time>2026-05-03T12:59:49Z</time></trkpt><trkpt lat="41.78072918485394" lon="-2.433037924495437"><ele>1060.2</ele><time>2026-05-03T12:59:50Z</time></trkpt><trkpt lat="41.78066629330609" lon="-2.4329283877764687"><ele>1061.0</ele><time>2026-05-03T12:59:51Z</time></trkpt><trkpt lat="41.780603804541094" lon="-2.432817945991035"><ele>1061.0</ele><time>2026-05-03T12:59:52Z</time></trkpt><trkpt lat="41.78054503998312" lon="-2.4327076826756233"><ele>1061.0</ele><time>2026-05-03T12:59:53Z</time></trkpt><trkpt lat="41.78048629102892" lon="-2.432596392498784"><ele>1061.0</ele><time>2026-05-03T12:59:54Z</time></trkpt><trkpt lat="41.7804295949527" lon="-2.432487732510619"><ele>1061.0</ele><time>2026-05-03T12:59:55Z</time></trkpt><trkpt lat="41.780373008748796" lon="-2.4323778103996574"><ele>1061.0</ele><time>2026-05-03T12:59:56Z</time></trkpt><trkpt lat="41.78031869658083" lon="-2.4322694668703058"><ele>1061.0</ele><time>2026-05-03T12:59:57Z</time></trkpt><trkpt lat="41.78026290364055" lon="-2.432159105385179"><ele>1061.0</ele><time>2026-05-03T12:59:58Z</time></trkpt><trkpt lat="41.78020853087388" lon="-2.4320489989229173"><ele>1061.0</ele><time>2026-05-03T12:59:59.001Z</time></trkpt><trkpt lat="41.780153927318025" lon="-2.4319381916908056"><ele>1061.0</ele><time>2026-05-03T13:00:00.001Z</time></trkpt><trkpt lat="41.78009797580991" lon="-2.4318280580934224"><ele>1061.0</ele><time>2026-05-03T13:00:01.001Z</time></trkpt><trkpt lat="41.78004368143016" lon="-2.4317159930981433"><ele>1061.8</ele><time>2026-05-03T13:00:02.001Z</time></trkpt><trkpt lat="41.77999102598812" lon="-2.431603152933684"><ele>1062.6</ele><time>2026-05-03T13:00:03.001Z</time></trkpt><trkpt lat="41.77994488266536" lon="-2.431485644973725"><ele>1063.4</ele><time>2026-05-03T13:00:04.001Z</time></trkpt><trkpt lat="41.77989717478146" lon="-2.431368763935446"><ele>1064.2</ele><time>2026-05-03T13:00:05.001Z</time></trkpt><trkpt lat="41.77985056072918" lon="-2.4312539418877916"><ele>1065.0</ele><time>2026-05-03T13:00:06.001Z</time></trkpt><trkpt lat="41.77980595402743" lon="-2.431137131754338"><ele>1065.0</ele><time>2026-05-03T13:00:07.001Z</time></trkpt><trkpt lat="41.77976321406278" lon="-2.4310200827172563"><ele>1065.0</ele><time>2026-05-03T13:00:08.001Z</time></trkpt><trkpt lat="41.779719350340635" lon="-2.430899949663457"><ele>1065.0</ele><time>2026-05-03T13:00:09.001Z</time></trkpt><trkpt lat="41.77967438699078" lon="-2.430780030395893"><ele>1065.0</ele><time>2026-05-03T13:00:10.001Z</time></trkpt><trkpt lat="41.779633036545754" lon="-2.4306611260665543"><ele>1065.0</ele><time>2026-05-03T13:00:11.001Z</time></trkpt><trkpt lat="41.77958981024778" lon="-2.430540045438418"><ele>1065.4</ele><time>2026-05-03T13:00:12.001Z</time></trkpt><trkpt lat="41.779548661104236" lon="-2.430420382660972"><ele>1065.8</ele><time>2026-05-03T13:00:13.001Z</time></trkpt><trkpt lat="41.77950962499076" lon="-2.4302954199232234"><ele>1066.2</ele><time>2026-05-03T13:00:14.001Z</time></trkpt><trkpt lat="41.77946978523956" lon="-2.430172024779054"><ele>1066.6</ele><time>2026-05-03T13:00:15.001Z</time></trkpt><trkpt lat="41.77943304014192" lon="-2.4300472058948395"><ele>1067.0</ele><time>2026-05-03T13:00:16.001Z</time></trkpt><trkpt lat="41.779394572732215" lon="-2.429921919971337"><ele>1067.0</ele><time>2026-05-03T13:00:17.001Z</time></trkpt><trkpt lat="41.77935841691124" lon="-2.429794881756016"><ele>1067.0</ele><time>2026-05-03T13:00:18.001Z</time></trkpt><trkpt lat="41.77932192265326" lon="-2.4296682062900143"><ele>1067.0</ele><time>2026-05-03T13:00:19.001Z</time></trkpt><trkpt lat="41.77928581826302" lon="-2.4295381026332503"><ele>1067.0</ele><time>2026-05-03T13:00:20.001Z</time></trkpt><trkpt lat="41.7792529068608" lon="-2.4294130015415596"><ele>1067.0</ele><time>2026-05-03T13:00:21.001Z</time></trkpt><trkpt lat="41.77922465274194" lon="-2.429283893804605"><ele>1068.0</ele><time>2026-05-03T13:00:22.001Z</time></trkpt><trkpt lat="41.77919493198452" lon="-2.429155037037583"><ele>1069.0</ele><time>2026-05-03T13:00:23.001Z</time></trkpt><trkpt lat="41.779164929089504" lon="-2.429025546917039"><ele>1070.0</ele><time>2026-05-03T13:00:24.001Z</time></trkpt><trkpt lat="41.77913547109862" lon="-2.4288985663179123"><ele>1071.0</ele><time>2026-05-03T13:00:25.001Z</time></trkpt><trkpt lat="41.77910828704707" lon="-2.4287682646072715"><ele>1072.0</ele><time>2026-05-03T13:00:26.001Z</time></trkpt><trkpt lat="41.77908138552209" lon="-2.4286358504679355"><ele>1072.6</ele><time>2026-05-03T13:00:27.001Z</time></trkpt><trkpt lat="41.779054680593426" lon="-2.428504295172862"><ele>1073.2</ele><time>2026-05-03T13:00:28.001Z</time></trkpt><trkpt lat="41.77902937970329" lon="-2.428373180129148"><ele>1073.8</ele><time>2026-05-03T13:00:29.001Z</time></trkpt><trkpt lat="41.77900556568967" lon="-2.4282396480813833"><ele>1074.4</ele><time>2026-05-03T13:00:30.001Z</time></trkpt><trkpt lat="41.7789845775713" lon="-2.4281041870118947"><ele>1075.0</ele><time>2026-05-03T13:00:31.001Z</time></trkpt><trkpt lat="41.77896517184484" lon="-2.427970129307352"><ele>1075.6</ele><time>2026-05-03T13:00:32.001Z</time></trkpt><trkpt lat="41.778942261700344" lon="-2.4278353546090754"><ele>1076.2</ele><time>2026-05-03T13:00:33.001Z</time></trkpt><trkpt lat="41.77891781218257" lon="-2.4277052652320616"><ele>1076.8</ele><time>2026-05-03T13:00:34.001Z</time></trkpt><trkpt lat="41.77889655135457" lon="-2.4275708883828444"><ele>1077.4</ele><time>2026-05-03T13:00:35.001Z</time></trkpt><trkpt lat="41.77887767353124" lon="-2.427435016762642"><ele>1078.0</ele><time>2026-05-03T13:00:36.001Z</time></trkpt><trkpt lat="41.778858186304504" lon="-2.4272979474132623"><ele>1078.0</ele><time>2026-05-03T13:00:37.001Z</time></trkpt><trkpt lat="41.778838054744575" lon="-2.427162090925155"><ele>1078.0</ele><time>2026-05-03T13:00:38.001Z</time></trkpt><trkpt lat="41.77881762571632" lon="-2.427024315256118"><ele>1078.0</ele><time>2026-05-03T13:00:39.001Z</time></trkpt><trkpt lat="41.77879746026032" lon="-2.426888579707141"><ele>1078.0</ele><time>2026-05-03T13:00:40.001Z</time></trkpt><trkpt lat="41.77877649796341" lon="-2.4267525232159115"><ele>1078.0</ele><time>2026-05-03T13:00:41.001Z</time></trkpt><trkpt lat="41.7787587656655" lon="-2.4266169622315155"><ele>1078.8</ele><time>2026-05-03T13:00:42.001Z</time></trkpt><trkpt lat="41.77874114999536" lon="-2.4264800886383058"><ele>1079.6</ele><time>2026-05-03T13:00:43.001Z</time></trkpt><trkpt lat="41.7787180249455" lon="-2.426345653078636"><ele>1080.4</ele><time>2026-05-03T13:00:44.001Z</time></trkpt><trkpt lat="41.77869262601626" lon="-2.426211221066825"><ele>1081.2</ele><time>2026-05-03T13:00:45.001Z</time></trkpt><trkpt lat="41.778664047780666" lon="-2.42607773007908"><ele>1082.0</ele><time>2026-05-03T13:00:46.001Z</time></trkpt><trkpt lat="41.77863658533786" lon="-2.425945260295377"><ele>1082.8</ele><time>2026-05-03T13:00:47.001Z</time></trkpt><trkpt lat="41.77861095345574" lon="-2.4258096913936926"><ele>1083.6</ele><time>2026-05-03T13:00:48.001Z</time></trkpt><trkpt lat="41.77858621336842" lon="-2.425678063732142"><ele>1084.3999999999999</ele><time>2026-05-03T13:00:49.001Z</time></trkpt><trkpt lat="41.77856322642686" lon="-2.4255446497080695"><ele>1085.2</ele><time>2026-05-03T13:00:50.001Z</time></trkpt><trkpt lat="41.77853640455421" lon="-2.425412542706695"><ele>1086.0</ele><time>2026-05-03T13:00:51.001Z</time></trkpt><trkpt lat="41.778506722554795" lon="-2.4252826537648815"><ele>1086.0</ele><time>2026-05-03T13:00:52.001Z</time></trkpt><trkpt lat="41.77847490376421" lon="-2.425156258347413"><ele>1086.0</ele><time>2026-05-03T13:00:53.001Z</time></trkpt><trkpt lat="41.77844526059952" lon="-2.4250299950553704"><ele>1086.0</ele><time>2026-05-03T13:00:54.001Z</time></trkpt><trkpt lat="41.77841155057314" lon="-2.4249027229132065"><ele>1086.0</ele><time>2026-05-03T13:00:55.001Z</time></trkpt><trkpt lat="41.778378540160766" lon="-2.4247761232894445"><ele>1086.0</ele><time>2026-05-03T13:00:56.001Z</time></trkpt><trkpt lat="41.77834815908201" lon="-2.4246507122428453"><ele>1086.3999999999999</ele><time>2026-05-03T13:00:57.001Z</time></trkpt><trkpt lat="41.77831269551986" lon="-2.424522253089791"><ele>1086.8</ele><time>2026-05-03T13:00:58.001Z</time></trkpt><trkpt lat="41.77827610892567" lon="-2.424401772678348"><ele>1087.1999999999998</ele><time>2026-05-03T13:00:59.001Z</time></trkpt><trkpt lat="41.77823879184484" lon="-2.4242758633186803"><ele>1087.6</ele><time>2026-05-03T13:01:00.001Z</time></trkpt><trkpt lat="41.77819885988753" lon="-2.424156698601044"><ele>1088.0</ele><time>2026-05-03T13:01:01Z</time></trkpt><trkpt lat="41.778157388387044" lon="-2.4240322617713184"><ele>1088.0</ele><time>2026-05-03T13:01:02Z</time></trkpt><trkpt lat="41.77811621986442" lon="-2.423910036884009"><ele>1088.0</ele><time>2026-05-03T13:01:03Z</time></trkpt><trkpt lat="41.77807609453054" lon="-2.4237909736209478"><ele>1088.0</ele><time>2026-05-03T13:01:04Z</time></trkpt><trkpt lat="41.778033543024804" lon="-2.4236717476430436"><ele>1088.0</ele><time>2026-05-03T13:01:05Z</time></trkpt><trkpt lat="41.77799066704453" lon="-2.42355030859843"><ele>1088.0</ele><time>2026-05-03T13:01:06Z</time></trkpt><trkpt lat="41.77794721922183" lon="-2.4234327053499434"><ele>1088.2</ele><time>2026-05-03T13:01:07Z</time></trkpt><trkpt lat="41.77789785872246" lon="-2.423311620907509"><ele>1088.4</ele><time>2026-05-03T13:01:08Z</time></trkpt><trkpt lat="41.777853542243044" lon="-2.4231988117830197"><ele>1088.6000000000001</ele><time>2026-05-03T13:01:09Z</time></trkpt><trkpt lat="41.77780783035236" lon="-2.423089874055157"><ele>1088.8</ele><time>2026-05-03T13:01:10Z</time></trkpt><trkpt lat="41.777762101371586" lon="-2.4229734725231546"><ele>1089.0</ele><time>2026-05-03T13:01:11Z</time></trkpt><trkpt lat="41.77771073395993" lon="-2.422858430844196"><ele>1090.0</ele><time>2026-05-03T13:01:12Z</time></trkpt><trkpt lat="41.777659256056516" lon="-2.422745607139988"><ele>1091.0</ele><time>2026-05-03T13:01:13Z</time></trkpt><trkpt lat="41.77760833530136" lon="-2.422635344725876"><ele>1092.0</ele><time>2026-05-03T13:01:14Z</time></trkpt><trkpt lat="41.777562368334756" lon="-2.4225278740051666"><ele>1093.0</ele><time>2026-05-03T13:01:15Z</time></trkpt><trkpt lat="41.77750836167857" lon="-2.4224172867651936"><ele>1094.0</ele><time>2026-05-03T13:01:16Z</time></trkpt><trkpt lat="41.777451269957254" lon="-2.4223097275762773"><ele>1094.0</ele><time>2026-05-03T13:01:17Z</time></trkpt><trkpt lat="41.777402778710986" lon="-2.4222018124579336"><ele>1094.0</ele><time>2026-05-03T13:01:18Z</time></trkpt><trkpt lat="41.77734311164411" lon="-2.422093670810783"><ele>1094.0</ele><time>2026-05-03T13:01:19Z</time></trkpt><trkpt lat="41.777284844367564" lon="-2.4219861881304388"><ele>1094.0</ele><time>2026-05-03T13:01:20Z</time></trkpt><trkpt lat="41.77722979675101" lon="-2.421884224340573"><ele>1094.0</ele><time>2026-05-03T13:01:21Z</time></trkpt><trkpt lat="41.777168510869494" lon="-2.4217751264906924"><ele>1094.2</ele><time>2026-05-03T13:01:22Z</time></trkpt><trkpt lat="41.77710932906722" lon="-2.421669963469545"><ele>1094.4</ele><time>2026-05-03T13:01:23Z</time></trkpt><trkpt lat="41.77704733291469" lon="-2.4215648955330944"><ele>1094.6</ele><time>2026-05-03T13:01:24Z</time></trkpt><trkpt lat="41.776984744874746" lon="-2.42146047738408"><ele>1094.8</ele><time>2026-05-03T13:01:25Z</time></trkpt><trkpt lat="41.776918467594676" lon="-2.4213557834885995"><ele>1095.0</ele><time>2026-05-03T13:01:26Z</time></trkpt><trkpt lat="41.77685313843907" lon="-2.4212507864578674"><ele>1095.4</ele><time>2026-05-03T13:01:27Z</time></trkpt><trkpt lat="41.77678545115581" lon="-2.4211434931597773"><ele>1095.8</ele><time>2026-05-03T13:01:28Z</time></trkpt><trkpt lat="41.776715096488616" lon="-2.4210412485386876"><ele>1096.2</ele><time>2026-05-03T13:01:29Z</time></trkpt><trkpt lat="41.77664579352163" lon="-2.4209422464966326"><ele>1096.6</ele><time>2026-05-03T13:01:30Z</time></trkpt><trkpt lat="41.77657293798137" lon="-2.4208324086515858"><ele>1097.0</ele><time>2026-05-03T13:01:31Z</time></trkpt><trkpt lat="41.77649899944378" lon="-2.4207345374088107"><ele>1097.0</ele><time>2026-05-03T13:01:32Z</time></trkpt><trkpt lat="41.77642767834297" lon="-2.4206326653503374"><ele>1097.0</ele><time>2026-05-03T13:01:33Z</time></trkpt><trkpt lat="41.77635403270128" lon="-2.4205305642179025"><ele>1097.0</ele><time>2026-05-03T13:01:34Z</time></trkpt><trkpt lat="41.7762776652755" lon="-2.420429562813754"><ele>1097.0</ele><time>2026-05-03T13:01:35Z</time></trkpt><trkpt lat="41.7761988090907" lon="-2.420335819024969"><ele>1097.0</ele><time>2026-05-03T13:01:36Z</time></trkpt><trkpt lat="41.77611979515894" lon="-2.4202380929469034"><ele>1097.2</ele><time>2026-05-03T13:01:37Z</time></trkpt><trkpt lat="41.77604033598242" lon="-2.4201427098376542"><ele>1097.4</ele><time>2026-05-03T13:01:38Z</time></trkpt><trkpt lat="41.77596062102102" lon="-2.4200457524570047"><ele>1097.6</ele><time>2026-05-03T13:01:39Z</time></trkpt><trkpt lat="41.77587964342627" lon="-2.4199507621268777"><ele>1097.8</ele><time>2026-05-03T13:01:40Z</time></trkpt><trkpt lat="41.77579845489515" lon="-2.419858950723993"><ele>1098.0</ele><time>2026-05-03T13:01:41Z</time></trkpt><trkpt lat="41.77571714137479" lon="-2.4197687669737724"><ele>1098.0</ele><time>2026-05-03T13:01:42Z</time></trkpt><trkpt lat="41.77563549738023" lon="-2.4196785573263293"><ele>1098.0</ele><time>2026-05-03T13:01:43Z</time></trkpt><trkpt lat="41.77555414471393" lon="-2.4195848115889826"><ele>1098.0</ele><time>2026-05-03T13:01:44Z</time></trkpt><trkpt lat="41.775474918392185" lon="-2.419493276219059"><ele>1098.0</ele><time>2026-05-03T13:01:45Z</time></trkpt><trkpt lat="41.77539241083291" lon="-2.41940469155682"><ele>1098.0</ele><time>2026-05-03T13:01:46Z</time></trkpt><trkpt lat="41.77531072978144" lon="-2.4193173523440468"><ele>1098.2</ele><time>2026-05-03T13:01:47Z</time></trkpt><trkpt lat="41.77522495327365" lon="-2.419231161253051"><ele>1098.4</ele><time>2026-05-03T13:01:48Z</time></trkpt><trkpt lat="41.77513677285601" lon="-2.4191531923580474"><ele>1098.6000000000001</ele><time>2026-05-03T13:01:49Z</time></trkpt><trkpt lat="41.77504586383398" lon="-2.4190766264807495"><ele>1098.8</ele><time>2026-05-03T13:01:50Z</time></trkpt><trkpt lat="41.77495707963686" lon="-2.419000602785106"><ele>1099.0</ele><time>2026-05-03T13:01:51Z</time></trkpt><trkpt lat="41.77486743718187" lon="-2.4189259228312423"><ele>1098.4</ele><time>2026-05-03T13:01:52Z</time></trkpt><trkpt lat="41.774768256091136" lon="-2.4188682241321993"><ele>1097.8000000000002</ele><time>2026-05-03T13:01:53Z</time></trkpt><trkpt lat="41.77467688368454" lon="-2.418795782656524"><ele>1097.1999999999998</ele><time>2026-05-03T13:01:54Z</time></trkpt><trkpt lat="41.7745937857646" lon="-2.418706016461311"><ele>1096.6</ele><time>2026-05-03T13:01:55Z</time></trkpt><trkpt lat="41.7744996162395" lon="-2.418637768742645"><ele>1096.0</ele><time>2026-05-03T13:01:56Z</time></trkpt><trkpt lat="41.77440684529454" lon="-2.4185690315672486"><ele>1095.0</ele><time>2026-05-03T13:01:57Z</time></trkpt><trkpt lat="41.77431026748549" lon="-2.4185027692531205"><ele>1094.0</ele><time>2026-05-03T13:01:58Z</time></trkpt><trkpt lat="41.77421534435528" lon="-2.4184385970449576"><ele>1093.0</ele><time>2026-05-03T13:01:59Z</time></trkpt><trkpt lat="41.77411779338491" lon="-2.4183756070950007"><ele>1092.0</ele><time>2026-05-03T13:02:00Z</time></trkpt><trkpt lat="41.77402058085306" lon="-2.4183150478950135"><ele>1091.0</ele><time>2026-05-03T13:02:01Z</time></trkpt><trkpt lat="41.77392340136879" lon="-2.418256148911269"><ele>1091.0</ele><time>2026-05-03T13:02:02Z</time></trkpt><trkpt lat="41.77382485652501" lon="-2.418196438819202"><ele>1091.0</ele><time>2026-05-03T13:02:03Z</time></trkpt><trkpt lat="41.773725379294994" lon="-2.4181385324116094"><ele>1091.0</ele><time>2026-05-03T13:02:04Z</time></trkpt><trkpt lat="41.77362586955423" lon="-2.4180823911295457"><ele>1091.0</ele><time>2026-05-03T13:02:05Z</time></trkpt><trkpt lat="41.77352363457163" lon="-2.4180291166523773"><ele>1091.0</ele><time>2026-05-03T13:02:06.001Z</time></trkpt><trkpt lat="41.77342219504671" lon="-2.417978096994226"><ele>1090.0</ele><time>2026-05-03T13:02:07.001Z</time></trkpt><trkpt lat="41.77332020221847" lon="-2.4179283415460215"><ele>1089.0</ele><time>2026-05-03T13:02:08.001Z</time></trkpt><trkpt lat="41.773215667579976" lon="-2.417880529606297"><ele>1088.0</ele><time>2026-05-03T13:02:09.001Z</time></trkpt><trkpt lat="41.77311086855075" lon="-2.417835678471751"><ele>1087.0</ele><time>2026-05-03T13:02:10.001Z</time></trkpt><trkpt lat="41.77298849500375" lon="-2.4177903166618604"><ele>1087.0</ele><time>2026-05-03T13:02:11.001Z</time></trkpt><trkpt lat="41.772796898598756" lon="-2.4177329273853445"><ele>1087.0</ele><time>2026-05-03T13:02:12.001Z</time></trkpt><trkpt lat="41.77259463684409" lon="-2.4176639101451167"><ele>1087.0</ele><time>2026-05-03T13:02:13.001Z</time></trkpt><trkpt lat="41.772675915137874" lon="-2.4176761226360517"><ele>1087.0</ele><time>2026-05-03T13:02:14.001Z</time></trkpt><trkpt lat="41.77256591585546" lon="-2.4176519112404335"><ele>1087.0</ele><time>2026-05-03T13:02:15.001Z</time></trkpt><trkpt lat="41.77245444592962" lon="-2.4176312311049073"><ele>1087.0</ele><time>2026-05-03T13:02:16.001Z</time></trkpt><trkpt lat="41.772340302202366" lon="-2.417606977757781"><ele>1087.0</ele><time>2026-05-03T13:02:17.001Z</time></trkpt><trkpt lat="41.772227204137906" lon="-2.417587288565798"><ele>1087.0</ele><time>2026-05-03T13:02:18.001Z</time></trkpt><trkpt lat="41.772114632983936" lon="-2.417574263002642"><ele>1087.0</ele><time>2026-05-03T13:02:19.001Z</time></trkpt><trkpt lat="41.77200086665782" lon="-2.417566696676561"><ele>1087.0</ele><time>2026-05-03T13:02:20.001Z</time></trkpt><trkpt lat="41.771885680598714" lon="-2.4175570733173593"><ele>1087.0</ele><time>2026-05-03T13:02:21.001Z</time></trkpt><trkpt lat="41.77177666264408" lon="-2.4175488027614676"><ele>1086.6</ele><time>2026-05-03T13:02:22.001Z</time></trkpt><trkpt lat="41.77166671181979" lon="-2.417546916701061"><ele>1086.2</ele><time>2026-05-03T13:02:23.001Z</time></trkpt><trkpt lat="41.77155605214252" lon="-2.417549265845762"><ele>1085.8</ele><time>2026-05-03T13:02:24.001Z</time></trkpt><trkpt lat="41.771441932265404" lon="-2.417554055358548"><ele>1085.4</ele><time>2026-05-03T13:02:25.001Z</time></trkpt><trkpt lat="41.77132989303606" lon="-2.4175577538174875"><ele>1085.0</ele><time>2026-05-03T13:02:26.001Z</time></trkpt><trkpt lat="41.77121780932644" lon="-2.4175685905097692"><ele>1085.0</ele><time>2026-05-03T13:02:27.001Z</time></trkpt><trkpt lat="41.77110564507403" lon="-2.4175823647330454"><ele>1085.0</ele><time>2026-05-03T13:02:28.001Z</time></trkpt><trkpt lat="41.7709933966932" lon="-2.4175970922221612"><ele>1085.0</ele><time>2026-05-03T13:02:29.001Z</time></trkpt><trkpt lat="41.77087857995544" lon="-2.417620550228036"><ele>1085.0</ele><time>2026-05-03T13:02:30.001Z</time></trkpt><trkpt lat="41.770766553744316" lon="-2.4176450730843317"><ele>1084.25</ele><time>2026-05-03T13:02:31.001Z</time></trkpt><trkpt lat="41.77065486290162" lon="-2.4176752582332686"><ele>1083.5</ele><time>2026-05-03T13:02:32.001Z</time></trkpt><trkpt lat="41.77054135757374" lon="-2.4177074624173116"><ele>1082.75</ele><time>2026-05-03T13:02:33.001Z</time></trkpt><trkpt lat="41.77042972666908" lon="-2.417744488040367"><ele>1082.0</ele><time>2026-05-03T13:02:34.001Z</time></trkpt><trkpt lat="41.77032026068796" lon="-2.4177830324178524"><ele>1082.0</ele><time>2026-05-03T13:02:35.001Z</time></trkpt><trkpt lat="41.77021089722203" lon="-2.4178239028020245"><ele>1082.0</ele><time>2026-05-03T13:02:36.001Z</time></trkpt><trkpt lat="41.770103505492095" lon="-2.417870863850388"><ele>1082.0</ele><time>2026-05-03T13:02:37.001Z</time></trkpt><trkpt lat="41.76999564154457" lon="-2.4179208141961652"><ele>1082.0</ele><time>2026-05-03T13:02:38.001Z</time></trkpt><trkpt lat="41.769888114937686" lon="-2.4179730408598674"><ele>1081.5</ele><time>2026-05-03T13:02:39.001Z</time></trkpt><trkpt lat="41.76977911058125" lon="-2.418030175881092"><ele>1081.0</ele><time>2026-05-03T13:02:40.001Z</time></trkpt><trkpt lat="41.76967343757086" lon="-2.4180920590240778"><ele>1080.5</ele><time>2026-05-03T13:02:41.001Z</time></trkpt><trkpt lat="41.76957158277874" lon="-2.418150975787859"><ele>1080.0</ele><time>2026-05-03T13:02:42.001Z</time></trkpt><trkpt lat="41.76946932641457" lon="-2.4182143465335684"><ele>1080.0</ele><time>2026-05-03T13:02:43.001Z</time></trkpt><trkpt lat="41.76936973320569" lon="-2.418281342080889"><ele>1080.0</ele><time>2026-05-03T13:02:44.001Z</time></trkpt><trkpt lat="41.76927080869946" lon="-2.418349960911053"><ele>1080.0</ele><time>2026-05-03T13:02:45.001Z</time></trkpt><trkpt lat="41.76917224783433" lon="-2.4184204574002144"><ele>1080.0</ele><time>2026-05-03T13:02:46.001Z</time></trkpt><trkpt lat="41.76901924498749" lon="-2.418519379711694"><ele>1078.0</ele><time>2026-05-03T13:02:47.001Z</time></trkpt><trkpt lat="41.768900656119534" lon="-2.4186080088999447"><ele>1076.0</ele><time>2026-05-03T13:02:48.001Z</time></trkpt><trkpt lat="41.768686168925676" lon="-2.4187823531374213"><ele>1074.0</ele><time>2026-05-03T13:02:51.001Z</time></trkpt><trkpt lat="41.76858931628773" lon="-2.4188591957750845"><ele>1074.25</ele><time>2026-05-03T13:02:52.001Z</time></trkpt><trkpt lat="41.76849005202655" lon="-2.418934789625227"><ele>1074.5</ele><time>2026-05-03T13:02:53.001Z</time></trkpt><trkpt lat="41.768387064890184" lon="-2.4190078038328475"><ele>1074.75</ele><time>2026-05-03T13:02:54.001Z</time></trkpt><trkpt lat="41.76828403957058" lon="-2.4190751735950644"><ele>1075.0</ele><time>2026-05-03T13:02:55.001Z</time></trkpt><trkpt lat="41.76818223285722" lon="-2.4191414960156146"><ele>1075.0</ele><time>2026-05-03T13:02:56.001Z</time></trkpt><trkpt lat="41.768076942646005" lon="-2.4192018041387686"><ele>1075.0</ele><time>2026-05-03T13:02:57.001Z</time></trkpt><trkpt lat="41.76797079333945" lon="-2.419256607821791"><ele>1075.0</ele><time>2026-05-03T13:02:58.001Z</time></trkpt><trkpt lat="41.76786066427488" lon="-2.419308425178183"><ele>1075.0</ele><time>2026-05-03T13:02:59.001Z</time></trkpt><trkpt lat="41.76775250351299" lon="-2.419362130242724"><ele>1076.5</ele><time>2026-05-03T13:03:00.001Z</time></trkpt><trkpt lat="41.76764683479858" lon="-2.4194075199534293"><ele>1078.0</ele><time>2026-05-03T13:03:01.001Z</time></trkpt><trkpt lat="41.767538150887646" lon="-2.4194472772987328"><ele>1079.5</ele><time>2026-05-03T13:03:02.001Z</time></trkpt><trkpt lat="41.76742721568067" lon="-2.4194821437038003"><ele>1081.0</ele><time>2026-05-03T13:03:03.001Z</time></trkpt><trkpt lat="41.767315216966615" lon="-2.4195102605561343"><ele>1081.0</ele><time>2026-05-03T13:03:04.001Z</time></trkpt><trkpt lat="41.7672044852536" lon="-2.4195313573221178"><ele>1081.0</ele><time>2026-05-03T13:03:05.001Z</time></trkpt><trkpt lat="41.7670895248246" lon="-2.4195456729260396"><ele>1081.0</ele><time>2026-05-03T13:03:06.001Z</time></trkpt><trkpt lat="41.76697509901016" lon="-2.4195570409452305"><ele>1081.0</ele><time>2026-05-03T13:03:07Z</time></trkpt><trkpt lat="41.76685853407829" lon="-2.4195649132088364"><ele>1081.25</ele><time>2026-05-03T13:03:08Z</time></trkpt><trkpt lat="41.76674098789467" lon="-2.419564054469397"><ele>1081.5</ele><time>2026-05-03T13:03:09Z</time></trkpt><trkpt lat="41.76662700515477" lon="-2.4195577942106903"><ele>1081.75</ele><time>2026-05-03T13:03:10Z</time></trkpt><trkpt lat="41.76651275917275" lon="-2.4195444709528178"><ele>1082.0</ele><time>2026-05-03T13:03:11Z</time></trkpt><trkpt lat="41.766402083908936" lon="-2.4195322706525264"><ele>1082.0</ele><time>2026-05-03T13:03:12Z</time></trkpt><trkpt lat="41.76629290409715" lon="-2.4195137075462387"><ele>1082.0</ele><time>2026-05-03T13:03:13Z</time></trkpt><trkpt lat="41.766179139259336" lon="-2.419492002696398"><ele>1082.0</ele><time>2026-05-03T13:03:14Z</time></trkpt><trkpt lat="41.766076325738794" lon="-2.4194565635064165"><ele>1082.0</ele><time>2026-05-03T13:03:15Z</time></trkpt><trkpt lat="41.76597352056016" lon="-2.419422964650892"><ele>1082.0</ele><time>2026-05-03T13:03:16Z</time></trkpt><trkpt lat="41.765859217387586" lon="-2.419372876945502"><ele>1080.25</ele><time>2026-05-03T13:03:17Z</time></trkpt><trkpt lat="41.76571934357732" lon="-2.419326735345199"><ele>1078.5</ele><time>2026-05-03T13:03:18Z</time></trkpt><trkpt lat="41.765578969418186" lon="-2.4192549017149525"><ele>1076.75</ele><time>2026-05-03T13:03:19Z</time></trkpt><trkpt lat="41.76547769839125" lon="-2.4191980777492557"><ele>1075.0</ele><time>2026-05-03T13:03:20Z</time></trkpt><trkpt lat="41.76534483003511" lon="-2.4191063449214565"><ele>1075.0</ele><time>2026-05-03T13:03:22Z</time></trkpt><trkpt lat="41.765243899873745" lon="-2.4190442194463984"><ele>1075.0</ele><time>2026-05-03T13:03:23Z</time></trkpt><trkpt lat="41.765141841491165" lon="-2.4189772593962706"><ele>1075.0</ele><time>2026-05-03T13:03:24Z</time></trkpt><trkpt lat="41.765039136576156" lon="-2.418912621422326"><ele>1075.0</ele><time>2026-05-03T13:03:25Z</time></trkpt><trkpt lat="41.764936187425576" lon="-2.418852407060238"><ele>1074.0</ele><time>2026-05-03T13:03:26Z</time></trkpt><trkpt lat="41.76483491369055" lon="-2.41878164529313"><ele>1073.0</ele><time>2026-05-03T13:03:27Z</time></trkpt><trkpt lat="41.764738203125745" lon="-2.418706957732246"><ele>1072.0</ele><time>2026-05-03T13:03:28Z</time></trkpt><trkpt lat="41.7646397087734" lon="-2.4186349185581166"><ele>1071.0</ele><time>2026-05-03T13:03:29Z</time></trkpt><trkpt lat="41.764540945814716" lon="-2.4185614725997415"><ele>1071.0</ele><time>2026-05-03T13:03:30Z</time></trkpt><trkpt lat="41.76444372159335" lon="-2.418485418578077"><ele>1071.0</ele><time>2026-05-03T13:03:31Z</time></trkpt><trkpt lat="41.764352229798604" lon="-2.4184024802331487"><ele>1071.0</ele><time>2026-05-03T13:03:32Z</time></trkpt><trkpt lat="41.76425238842032" lon="-2.418329925017639"><ele>1071.0</ele><time>2026-05-03T13:03:33Z</time></trkpt><trkpt lat="41.76416225002249" lon="-2.418239355043241"><ele>1071.0</ele><time>2026-05-03T13:03:34Z</time></trkpt><trkpt lat="41.76408111596569" lon="-2.418124011348017"><ele>1070.25</ele><time>2026-05-03T13:03:35Z</time></trkpt><trkpt lat="41.763995324808924" lon="-2.4180278079304114"><ele>1069.5</ele><time>2026-05-03T13:03:36Z</time></trkpt><trkpt lat="41.763913095672116" lon="-2.417921779922114"><ele>1068.75</ele><time>2026-05-03T13:03:37Z</time></trkpt><trkpt lat="41.763822128344984" lon="-2.417825074371405"><ele>1068.0</ele><time>2026-05-03T13:03:38Z</time></trkpt><trkpt lat="41.76374612330708" lon="-2.4177169369879565"><ele>1068.0</ele><time>2026-05-03T13:03:39Z</time></trkpt><trkpt lat="41.763671643336075" lon="-2.4175960320028933"><ele>1068.0</ele><time>2026-05-03T13:03:40Z</time></trkpt><trkpt lat="41.76361814317039" lon="-2.417458879802676"><ele>1068.0</ele><time>2026-05-03T13:03:41Z</time></trkpt><trkpt lat="41.763551735726644" lon="-2.4173419651780024"><ele>1068.0</ele><time>2026-05-03T13:03:42Z</time></trkpt><trkpt lat="41.763488582717656" lon="-2.4172184719203242"><ele>1068.0</ele><time>2026-05-03T13:03:43Z</time></trkpt><trkpt lat="41.76342411365808" lon="-2.4170869609443453"><ele>1068.0</ele><time>2026-05-03T13:03:44Z</time></trkpt><trkpt lat="41.76335940998195" lon="-2.416958673563511"><ele>1068.0</ele><time>2026-05-03T13:03:45Z</time></trkpt><trkpt lat="41.763301546233976" lon="-2.416828257919407"><ele>1068.0</ele><time>2026-05-03T13:03:46Z</time></trkpt><trkpt lat="41.76325992170084" lon="-2.4166908966073817"><ele>1068.0</ele><time>2026-05-03T13:03:47Z</time></trkpt><trkpt lat="41.763205946189736" lon="-2.4165526519511538"><ele>1068.0</ele><time>2026-05-03T13:03:48Z</time></trkpt><trkpt lat="41.763157444694876" lon="-2.41641441377874"><ele>1068.0</ele><time>2026-05-03T13:03:49Z</time></trkpt><trkpt lat="41.76311000124842" lon="-2.4162732868295813"><ele>1068.0</ele><time>2026-05-03T13:03:50Z</time></trkpt><trkpt lat="41.763062261073884" lon="-2.4161355473835813"><ele>1067.75</ele><time>2026-05-03T13:03:51Z</time></trkpt><trkpt lat="41.76301918022779" lon="-2.415995610769186"><ele>1067.5</ele><time>2026-05-03T13:03:52Z</time></trkpt><trkpt lat="41.76297613125529" lon="-2.415855150904655"><ele>1067.25</ele><time>2026-05-03T13:03:53Z</time></trkpt><trkpt lat="41.76293513517598" lon="-2.4157108213966834"><ele>1067.0</ele><time>2026-05-03T13:03:54Z</time></trkpt><trkpt lat="41.76289569169944" lon="-2.4155681065282644"><ele>1066.75</ele><time>2026-05-03T13:03:55Z</time></trkpt><trkpt lat="41.762859620263754" lon="-2.415422488188589"><ele>1066.5</ele><time>2026-05-03T13:03:56Z</time></trkpt><trkpt lat="41.76282692805037" lon="-2.4152760559222384"><ele>1066.25</ele><time>2026-05-03T13:03:57Z</time></trkpt><trkpt lat="41.76279467684986" lon="-2.4151289285789224"><ele>1066.0</ele><time>2026-05-03T13:03:58Z</time></trkpt><trkpt lat="41.76276176752701" lon="-2.414981377936168"><ele>1066.0</ele><time>2026-05-03T13:03:59Z</time></trkpt><trkpt lat="41.76273381753831" lon="-2.4148333767468917"><ele>1066.0</ele><time>2026-05-03T13:04:00Z</time></trkpt><trkpt lat="41.76270964269679" lon="-2.414684710363455"><ele>1066.0</ele><time>2026-05-03T13:04:01Z</time></trkpt><trkpt lat="41.762685940251494" lon="-2.4145381570726054"><ele>1066.0</ele><time>2026-05-03T13:04:02Z</time></trkpt><trkpt lat="41.76266562687686" lon="-2.4143871049988026"><ele>1065.25</ele><time>2026-05-03T13:04:03Z</time></trkpt><trkpt lat="41.762628904855596" lon="-2.4142414113209725"><ele>1064.5</ele><time>2026-05-03T13:04:04Z</time></trkpt><trkpt lat="41.76260933868438" lon="-2.4140917916967277"><ele>1063.75</ele><time>2026-05-03T13:04:05Z</time></trkpt><trkpt lat="41.76259188112815" lon="-2.4139414016569956"><ele>1063.0</ele><time>2026-05-03T13:04:06Z</time></trkpt><trkpt lat="41.76257530425597" lon="-2.4137969286552914"><ele>1063.0</ele><time>2026-05-03T13:04:07.001Z</time></trkpt><trkpt lat="41.762563738152835" lon="-2.4136420760280113"><ele>1063.0</ele><time>2026-05-03T13:04:08.001Z</time></trkpt><trkpt lat="41.76255408273274" lon="-2.4134961932816954"><ele>1063.0</ele><time>2026-05-03T13:04:09.001Z</time></trkpt><trkpt lat="41.76254566247393" lon="-2.41334818386224"><ele>1063.0</ele><time>2026-05-03T13:04:10.001Z</time></trkpt><trkpt lat="41.762539773635034" lon="-2.4131961648614353"><ele>1063.0</ele><time>2026-05-03T13:04:11.001Z</time></trkpt><trkpt lat="41.76253457164696" lon="-2.4130200357306917"><ele>1063.0</ele><time>2026-05-03T13:04:12.001Z</time></trkpt><trkpt lat="41.76252987806181" lon="-2.412800934905066"><ele>1063.0</ele><time>2026-05-03T13:04:13.001Z</time></trkpt><trkpt lat="41.7625245521162" lon="-2.412686560718861"><ele>1063.0</ele><time>2026-05-03T13:04:14.001Z</time></trkpt><trkpt lat="41.76252057258397" lon="-2.4125269994053986"><ele>1063.25</ele><time>2026-05-03T13:04:15.001Z</time></trkpt><trkpt lat="41.76253229081933" lon="-2.412316908062587"><ele>1063.5</ele><time>2026-05-03T13:04:17.001Z</time></trkpt><trkpt lat="41.762512241133095" lon="-2.412172456738722"><ele>1063.75</ele><time>2026-05-03T13:04:18.001Z</time></trkpt><trkpt lat="41.76250927976133" lon="-2.412024736750605"><ele>1064.0</ele><time>2026-05-03T13:04:19.001Z</time></trkpt><trkpt lat="41.76250622881087" lon="-2.411874680820394"><ele>1064.0</ele><time>2026-05-03T13:04:20.001Z</time></trkpt><trkpt lat="41.762519258476395" lon="-2.4117267796710773"><ele>1064.0</ele><time>2026-05-03T13:04:21.001Z</time></trkpt><trkpt lat="41.762507927471276" lon="-2.4115814251718697"><ele>1064.0</ele><time>2026-05-03T13:04:22.001Z</time></trkpt><trkpt lat="41.76249766290018" lon="-2.411438870835328"><ele>1064.0</ele><time>2026-05-03T13:04:23.001Z</time></trkpt><trkpt lat="41.76249449934316" lon="-2.4112941793865077"><ele>1064.0</ele><time>2026-05-03T13:04:24.001Z</time></trkpt><trkpt lat="41.7624888398868" lon="-2.411148887682004"><ele>1064.0</ele><time>2026-05-03T13:04:25.001Z</time></trkpt><trkpt lat="41.762488850512256" lon="-2.4110077086504322"><ele>1064.0</ele><time>2026-05-03T13:04:26.001Z</time></trkpt><trkpt lat="41.762485631093504" lon="-2.4108670207747425"><ele>1064.0</ele><time>2026-05-03T13:04:27.001Z</time></trkpt><trkpt lat="41.762481336822184" lon="-2.4107259228834526"><ele>1064.0</ele><time>2026-05-03T13:04:28.001Z</time></trkpt><trkpt lat="41.76247574554133" lon="-2.4105834872185627"><ele>1064.0</ele><time>2026-05-03T13:04:29.001Z</time></trkpt><trkpt lat="41.762468943016714" lon="-2.4104422909577545"><ele>1064.0</ele><time>2026-05-03T13:04:30.001Z</time></trkpt><trkpt lat="41.76246536544442" lon="-2.410304611858113"><ele>1064.0</ele><time>2026-05-03T13:04:31.001Z</time></trkpt><trkpt lat="41.76246158119594" lon="-2.410170190879176"><ele>1064.0</ele><time>2026-05-03T13:04:32.001Z</time></trkpt><trkpt lat="41.7624582088366" lon="-2.410031160338242"><ele>1064.0</ele><time>2026-05-03T13:04:33.001Z</time></trkpt><trkpt lat="41.76245703998083" lon="-2.4098887586587634"><ele>1064.0</ele><time>2026-05-03T13:04:34.001Z</time></trkpt><trkpt lat="41.76245367756073" lon="-2.409748444203743"><ele>1063.8</ele><time>2026-05-03T13:04:35.001Z</time></trkpt><trkpt lat="41.76244821246853" lon="-2.409608539293926"><ele>1063.6000000000001</ele><time>2026-05-03T13:04:36.001Z</time></trkpt><trkpt lat="41.76244555377558" lon="-2.409467762755937"><ele>1063.4</ele><time>2026-05-03T13:04:37.001Z</time></trkpt><trkpt lat="41.76244261381706" lon="-2.4093217948110035"><ele>1063.2</ele><time>2026-05-03T13:04:38.001Z</time></trkpt><trkpt lat="41.762437875268574" lon="-2.409171097287677"><ele>1063.0</ele><time>2026-05-03T13:04:39.001Z</time></trkpt><trkpt lat="41.76243184689228" lon="-2.4090223283166967"><ele>1063.0</ele><time>2026-05-03T13:04:40.001Z</time></trkpt><trkpt lat="41.76241965237323" lon="-2.408875310963104"><ele>1063.0</ele><time>2026-05-03T13:04:41.001Z</time></trkpt><trkpt lat="41.76240845724874" lon="-2.4087313491986815"><ele>1063.0</ele><time>2026-05-03T13:04:42.001Z</time></trkpt><trkpt lat="41.76238448239331" lon="-2.408592952679342"><ele>1063.0</ele><time>2026-05-03T13:04:43.001Z</time></trkpt><trkpt lat="41.762357289864894" lon="-2.4084540504821623"><ele>1063.0</ele><time>2026-05-03T13:04:44.001Z</time></trkpt><trkpt lat="41.76232532355152" lon="-2.4083153079754687"><ele>1063.4</ele><time>2026-05-03T13:04:45.001Z</time></trkpt><trkpt lat="41.76228309663757" lon="-2.4081810692180885"><ele>1063.8</ele><time>2026-05-03T13:04:46.001Z</time></trkpt><trkpt lat="41.762246762145594" lon="-2.4080442071891204"><ele>1064.2</ele><time>2026-05-03T13:04:47.001Z</time></trkpt><trkpt lat="41.762206448092684" lon="-2.407912542745511"><ele>1064.6</ele><time>2026-05-03T13:04:48.001Z</time></trkpt><trkpt lat="41.76216918793721" lon="-2.4077753119053837"><ele>1065.0</ele><time>2026-05-03T13:04:49.001Z</time></trkpt><trkpt lat="41.762132108942716" lon="-2.4076382253075534"><ele>1065.4</ele><time>2026-05-03T13:04:50.001Z</time></trkpt><trkpt lat="41.76209386542311" lon="-2.4075022103339423"><ele>1065.8</ele><time>2026-05-03T13:04:51.001Z</time></trkpt><trkpt lat="41.7620568439861" lon="-2.40736638377351"><ele>1066.2</ele><time>2026-05-03T13:04:52.001Z</time></trkpt><trkpt lat="41.76201785189236" lon="-2.4072313740286764"><ele>1066.6</ele><time>2026-05-03T13:04:53.001Z</time></trkpt><trkpt lat="41.76197869917255" lon="-2.4070924371793705"><ele>1067.0</ele><time>2026-05-03T13:04:54.001Z</time></trkpt><trkpt lat="41.761939544330836" lon="-2.4069603189578506"><ele>1067.0</ele><time>2026-05-03T13:04:55.001Z</time></trkpt><trkpt lat="41.7619000979293" lon="-2.406827776577745"><ele>1067.0</ele><time>2026-05-03T13:04:56.001Z</time></trkpt><trkpt lat="41.76186197939484" lon="-2.406687849654002"><ele>1067.0</ele><time>2026-05-03T13:04:57.001Z</time></trkpt><trkpt lat="41.761822751589705" lon="-2.4065519526846346"><ele>1067.0</ele><time>2026-05-03T13:04:58.001Z</time></trkpt><trkpt lat="41.76178416150107" lon="-2.4064199135173565"><ele>1067.0</ele><time>2026-05-03T13:04:59.001Z</time></trkpt><trkpt lat="41.761747579798026" lon="-2.4062838845413856"><ele>1067.2</ele><time>2026-05-03T13:05:00.001Z</time></trkpt><trkpt lat="41.76171199897924" lon="-2.4061498732712367"><ele>1067.4</ele><time>2026-05-03T13:05:01.001Z</time></trkpt><trkpt lat="41.76167493088199" lon="-2.406016931991918"><ele>1067.6</ele><time>2026-05-03T13:05:02.001Z</time></trkpt><trkpt lat="41.76163789406297" lon="-2.4058860484755615"><ele>1067.8</ele><time>2026-05-03T13:05:03.001Z</time></trkpt><trkpt lat="41.76160093327927" lon="-2.405754673572923"><ele>1068.0</ele><time>2026-05-03T13:05:04.001Z</time></trkpt><trkpt lat="41.7615662681771" lon="-2.405622277998561"><ele>1068.0</ele><time>2026-05-03T13:05:05.001Z</time></trkpt><trkpt lat="41.76152671452332" lon="-2.4054970707563434"><ele>1068.0</ele><time>2026-05-03T13:05:06.001Z</time></trkpt><trkpt lat="41.761490204656965" lon="-2.4053646695198267"><ele>1068.0</ele><time>2026-05-03T13:05:07.001Z</time></trkpt><trkpt lat="41.761449200618195" lon="-2.4052403702761334"><ele>1068.0</ele><time>2026-05-03T13:05:08.001Z</time></trkpt><trkpt lat="41.76141156180935" lon="-2.405110901226967"><ele>1068.0</ele><time>2026-05-03T13:05:09.001Z</time></trkpt><trkpt lat="41.76137815688954" lon="-2.4049786900272556"><ele>1068.8</ele><time>2026-05-03T13:05:10.001Z</time></trkpt><trkpt lat="41.76134284089308" lon="-2.4048483716881996"><ele>1069.6</ele><time>2026-05-03T13:05:11.001Z</time></trkpt><trkpt lat="41.76130946066302" lon="-2.404719602561825"><ele>1070.4</ele><time>2026-05-03T13:05:12.001Z</time></trkpt><trkpt lat="41.76126961339611" lon="-2.4045956514882216"><ele>1071.2</ele><time>2026-05-03T13:05:13Z</time></trkpt><trkpt lat="41.76123422433545" lon="-2.404471400239908"><ele>1072.0</ele><time>2026-05-03T13:05:14Z</time></trkpt><trkpt lat="41.761198837989596" lon="-2.4043461033753157"><ele>1072.6</ele><time>2026-05-03T13:05:15Z</time></trkpt><trkpt lat="41.76116231681326" lon="-2.4042218888200297"><ele>1073.2</ele><time>2026-05-03T13:05:16Z</time></trkpt><trkpt lat="41.76112645082237" lon="-2.4040954326237234"><ele>1073.8</ele><time>2026-05-03T13:05:17Z</time></trkpt><trkpt lat="41.7610904837697" lon="-2.4039692636751906"><ele>1074.4</ele><time>2026-05-03T13:05:18Z</time></trkpt><trkpt lat="41.761054599363355" lon="-2.403845340420892"><ele>1075.0</ele><time>2026-05-03T13:05:19Z</time></trkpt><trkpt lat="41.76101568086078" lon="-2.4037233527528157"><ele>1075.2</ele><time>2026-05-03T13:05:20Z</time></trkpt><trkpt lat="41.7609802890716" lon="-2.4035999206102265"><ele>1075.4</ele><time>2026-05-03T13:05:21Z</time></trkpt><trkpt lat="41.76094492158514" lon="-2.4034751393137253"><ele>1075.6</ele><time>2026-05-03T13:05:22Z</time></trkpt><trkpt lat="41.76090871038793" lon="-2.403347655291881"><ele>1075.8</ele><time>2026-05-03T13:05:23Z</time></trkpt><trkpt lat="41.760875845040516" lon="-2.4032227034746696"><ele>1076.0</ele><time>2026-05-03T13:05:24Z</time></trkpt><trkpt lat="41.76084143122545" lon="-2.4031016681605095"><ele>1075.6</ele><time>2026-05-03T13:05:25Z</time></trkpt><trkpt lat="41.76080727964502" lon="-2.402976974261205"><ele>1075.1999999999998</ele><time>2026-05-03T13:05:26Z</time></trkpt><trkpt lat="41.76077174430342" lon="-2.402850272596308"><ele>1074.8000000000002</ele><time>2026-05-03T13:05:27Z</time></trkpt><trkpt lat="41.76073760304041" lon="-2.402725382677023"><ele>1074.4</ele><time>2026-05-03T13:05:28Z</time></trkpt><trkpt lat="41.760704982436536" lon="-2.402603512673719"><ele>1074.0</ele><time>2026-05-03T13:05:29Z</time></trkpt><trkpt lat="41.760669127946805" lon="-2.4024821398933898"><ele>1074.0</ele><time>2026-05-03T13:05:30Z</time></trkpt><trkpt lat="41.7606365698027" lon="-2.4023561343525452"><ele>1074.0</ele><time>2026-05-03T13:05:31Z</time></trkpt><trkpt lat="41.7605973391757" lon="-2.4022308066506874"><ele>1074.0</ele><time>2026-05-03T13:05:32Z</time></trkpt><trkpt lat="41.76056285208628" lon="-2.4021090632155717"><ele>1074.0</ele><time>2026-05-03T13:05:33Z</time></trkpt><trkpt lat="41.7605267812848" lon="-2.401987269326401"><ele>1074.0</ele><time>2026-05-03T13:05:34Z</time></trkpt><trkpt lat="41.7604960824001" lon="-2.4018627797686323"><ele>1074.4</ele><time>2026-05-03T13:05:35Z</time></trkpt><trkpt lat="41.76045850317538" lon="-2.4017361624020097"><ele>1074.8000000000002</ele><time>2026-05-03T13:05:36Z</time></trkpt><trkpt lat="41.76042760175597" lon="-2.401615664278432"><ele>1075.1999999999998</ele><time>2026-05-03T13:05:37Z</time></trkpt><trkpt lat="41.76039325936094" lon="-2.401486967224948"><ele>1075.6</ele><time>2026-05-03T13:05:38Z</time></trkpt><trkpt lat="41.76035742118015" lon="-2.4013687690595624"><ele>1076.0</ele><time>2026-05-03T13:05:39Z</time></trkpt><trkpt lat="41.76032583787576" lon="-2.4012415616755476"><ele>1076.6</ele><time>2026-05-03T13:05:40Z</time></trkpt><trkpt lat="41.76029179597525" lon="-2.4011147335106866"><ele>1077.1999999999998</ele><time>2026-05-03T13:05:41Z</time></trkpt><trkpt lat="41.76025566800891" lon="-2.4009946178055985"><ele>1077.8000000000002</ele><time>2026-05-03T13:05:42Z</time></trkpt><trkpt lat="41.760217747802415" lon="-2.4008696275198695"><ele>1078.4</ele><time>2026-05-03T13:05:43Z</time></trkpt><trkpt lat="41.76018087938601" lon="-2.400743497205427"><ele>1079.0</ele><time>2026-05-03T13:05:44Z</time></trkpt><trkpt lat="41.76014554666792" lon="-2.400612956365604"><ele>1078.8</ele><time>2026-05-03T13:05:45Z</time></trkpt><trkpt lat="41.760108514038016" lon="-2.400486689750658"><ele>1078.6000000000001</ele><time>2026-05-03T13:05:46Z</time></trkpt><trkpt lat="41.760069736140764" lon="-2.4003576417334864"><ele>1078.4</ele><time>2026-05-03T13:05:47Z</time></trkpt><trkpt lat="41.76003275805442" lon="-2.4002249490054934"><ele>1078.2</ele><time>2026-05-03T13:05:48Z</time></trkpt><trkpt lat="41.759992264561475" lon="-2.400094053839772"><ele>1078.0</ele><time>2026-05-03T13:05:49Z</time></trkpt><trkpt lat="41.759955488711874" lon="-2.3999575753602977"><ele>1078.0</ele><time>2026-05-03T13:05:50Z</time></trkpt><trkpt lat="41.75991725873817" lon="-2.3998224110578437"><ele>1078.0</ele><time>2026-05-03T13:05:51Z</time></trkpt><trkpt lat="41.75987752814905" lon="-2.3996872395049547"><ele>1078.0</ele><time>2026-05-03T13:05:52Z</time></trkpt><trkpt lat="41.75983607653381" lon="-2.399549594167745"><ele>1078.0</ele><time>2026-05-03T13:05:53Z</time></trkpt><trkpt lat="41.75979877216409" lon="-2.3994148876575205"><ele>1078.0</ele><time>2026-05-03T13:05:54Z</time></trkpt><trkpt lat="41.75975873243479" lon="-2.3992811798645786"><ele>1078.25</ele><time>2026-05-03T13:05:55Z</time></trkpt><trkpt lat="41.75971718728417" lon="-2.399135026524953"><ele>1078.5</ele><time>2026-05-03T13:05:56Z</time></trkpt><trkpt lat="41.759666311761514" lon="-2.398964983312609"><ele>1078.75</ele><time>2026-05-03T13:05:57Z</time></trkpt><trkpt lat="41.75963354130002" lon="-2.398858540767605"><ele>1079.0</ele><time>2026-05-03T13:05:58Z</time></trkpt><trkpt lat="41.75959477056517" lon="-2.3987182282332338"><ele>1079.2</ele><time>2026-05-03T13:05:59Z</time></trkpt><trkpt lat="41.7595505356249" lon="-2.398575885513376"><ele>1079.4</ele><time>2026-05-03T13:06:00Z</time></trkpt><trkpt lat="41.759513823717725" lon="-2.3984378251383665"><ele>1079.6</ele><time>2026-05-03T13:06:01Z</time></trkpt><trkpt lat="41.75947627496802" lon="-2.398297653411518"><ele>1079.8</ele><time>2026-05-03T13:06:02Z</time></trkpt><trkpt lat="41.75943078697527" lon="-2.3981583239184365"><ele>1080.0</ele><time>2026-05-03T13:06:03Z</time></trkpt><trkpt lat="41.759396616953005" lon="-2.398026634241253"><ele>1079.5</ele><time>2026-05-03T13:06:04Z</time></trkpt><trkpt lat="41.75935426293626" lon="-2.397881891239592"><ele>1079.0</ele><time>2026-05-03T13:06:05Z</time></trkpt><trkpt lat="41.75932350877797" lon="-2.397758957404371"><ele>1078.5</ele><time>2026-05-03T13:06:06Z</time></trkpt><trkpt lat="41.759237576541814" lon="-2.397479058944689"><ele>1078.0</ele><time>2026-05-03T13:06:08.001Z</time></trkpt><trkpt lat="41.75919730024708" lon="-2.3973419192249708"><ele>1078.0</ele><time>2026-05-03T13:06:09.001Z</time></trkpt><trkpt lat="41.75915917007475" lon="-2.3972153084567314"><ele>1078.0</ele><time>2026-05-03T13:06:10.001Z</time></trkpt><trkpt lat="41.759117805082646" lon="-2.3970738072232685"><ele>1078.0</ele><time>2026-05-03T13:06:11.001Z</time></trkpt><trkpt lat="41.75907936377384" lon="-2.396936606598473"><ele>1078.0</ele><time>2026-05-03T13:06:12.001Z</time></trkpt><trkpt lat="41.7590404173799" lon="-2.396801100391935"><ele>1078.0</ele><time>2026-05-03T13:06:13.001Z</time></trkpt><trkpt lat="41.75900230385086" lon="-2.3966675735531617"><ele>1078.4</ele><time>2026-05-03T13:06:14.001Z</time></trkpt><trkpt lat="41.758963363909075" lon="-2.396531076921393"><ele>1078.8</ele><time>2026-05-03T13:06:15.001Z</time></trkpt><trkpt lat="41.758923201689036" lon="-2.3963938048098625"><ele>1079.2</ele><time>2026-05-03T13:06:16.001Z</time></trkpt><trkpt lat="41.758883201432404" lon="-2.396260283867816"><ele>1079.6</ele><time>2026-05-03T13:06:17.001Z</time></trkpt><trkpt lat="41.758845028129016" lon="-2.3961269403665093"><ele>1080.0</ele><time>2026-05-03T13:06:18.001Z</time></trkpt><trkpt lat="41.75880488794584" lon="-2.395999954192273"><ele>1080.2</ele><time>2026-05-03T13:06:19.001Z</time></trkpt><trkpt lat="41.75876603410888" lon="-2.395869062480686"><ele>1080.4</ele><time>2026-05-03T13:06:20.001Z</time></trkpt><trkpt lat="41.7587282548294" lon="-2.395737274233798"><ele>1080.6</ele><time>2026-05-03T13:06:21.001Z</time></trkpt><trkpt lat="41.7586913379895" lon="-2.3956062023581124"><ele>1080.8</ele><time>2026-05-03T13:06:22.001Z</time></trkpt><trkpt lat="41.75865421821699" lon="-2.3954731985098263"><ele>1081.0</ele><time>2026-05-03T13:06:23.001Z</time></trkpt><trkpt lat="41.75861718368456" lon="-2.395341816737142"><ele>1081.0</ele><time>2026-05-03T13:06:24.001Z</time></trkpt><trkpt lat="41.75857772339241" lon="-2.395209602011694"><ele>1081.0</ele><time>2026-05-03T13:06:25.001Z</time></trkpt><trkpt lat="41.7585403252697" lon="-2.3950793077845147"><ele>1081.0</ele><time>2026-05-03T13:06:26.001Z</time></trkpt><trkpt lat="41.75850283111027" lon="-2.3949477889369515"><ele>1081.0</ele><time>2026-05-03T13:06:27.001Z</time></trkpt><trkpt lat="41.75846600311218" lon="-2.3948156130871823"><ele>1081.0</ele><time>2026-05-03T13:06:28.001Z</time></trkpt><trkpt lat="41.75842701001692" lon="-2.3946849648450153"><ele>1081.2</ele><time>2026-05-03T13:06:29.001Z</time></trkpt><trkpt lat="41.758389883034184" lon="-2.3945521742117566"><ele>1081.3999999999999</ele><time>2026-05-03T13:06:30.001Z</time></trkpt><trkpt lat="41.75835230836764" lon="-2.3944188828884396"><ele>1081.6</ele><time>2026-05-03T13:06:31.001Z</time></trkpt><trkpt lat="41.75831279332072" lon="-2.3942879274268374"><ele>1081.8</ele><time>2026-05-03T13:06:32.001Z</time></trkpt><trkpt lat="41.758274106122336" lon="-2.3941557945081544"><ele>1082.0</ele><time>2026-05-03T13:06:33.001Z</time></trkpt><trkpt lat="41.75823478736025" lon="-2.3940241253468737"><ele>1082.0</ele><time>2026-05-03T13:06:34.001Z</time></trkpt><trkpt lat="41.75819791693371" lon="-2.393888930216916"><ele>1082.0</ele><time>2026-05-03T13:06:35.001Z</time></trkpt><trkpt lat="41.75816193384355" lon="-2.393752472498802"><ele>1082.0</ele><time>2026-05-03T13:06:36.001Z</time></trkpt><trkpt lat="41.75811954643412" lon="-2.3936202996719445"><ele>1082.0</ele><time>2026-05-03T13:06:37.001Z</time></trkpt><trkpt lat="41.75808022436162" lon="-2.3934822779273763"><ele>1082.0</ele><time>2026-05-03T13:06:38.001Z</time></trkpt><trkpt lat="41.758042154876044" lon="-2.393347319119109"><ele>1082.0</ele><time>2026-05-03T13:06:39.001Z</time></trkpt><trkpt lat="41.7580023219401" lon="-2.39321040074514"><ele>1082.0</ele><time>2026-05-03T13:06:40.001Z</time></trkpt><trkpt lat="41.757962207212984" lon="-2.3930759995400934"><ele>1082.0</ele><time>2026-05-03T13:06:41.001Z</time></trkpt><trkpt lat="41.75792183532699" lon="-2.39293929703349"><ele>1082.0</ele><time>2026-05-03T13:06:42.001Z</time></trkpt><trkpt lat="41.75788428111188" lon="-2.3928044543566576"><ele>1082.0</ele><time>2026-05-03T13:06:43.001Z</time></trkpt><trkpt lat="41.757847015329446" lon="-2.3926690922551184"><ele>1082.0</ele><time>2026-05-03T13:06:44.001Z</time></trkpt><trkpt lat="41.75780737059763" lon="-2.3925306280178478"><ele>1082.0</ele><time>2026-05-03T13:06:45.001Z</time></trkpt><trkpt lat="41.75776679864908" lon="-2.392394486421421"><ele>1082.0</ele><time>2026-05-03T13:06:46.001Z</time></trkpt><trkpt lat="41.75772958663613" lon="-2.3922597224916995"><ele>1082.0</ele><time>2026-05-03T13:06:47.001Z</time></trkpt><trkpt lat="41.75767492069475" lon="-2.3921245146425254"><ele>1082.0</ele><time>2026-05-03T13:06:48.001Z</time></trkpt><trkpt lat="41.757643659395164" lon="-2.3919775455782637"><ele>1081.75</ele><time>2026-05-03T13:06:49.001Z</time></trkpt><trkpt lat="41.75759833618899" lon="-2.3918327040848655"><ele>1081.5</ele><time>2026-05-03T13:06:50.001Z</time></trkpt><trkpt lat="41.757557543703406" lon="-2.3916919491811823"><ele>1081.25</ele><time>2026-05-03T13:06:51.001Z</time></trkpt><trkpt lat="41.757517353769984" lon="-2.3915486177082426"><ele>1081.0</ele><time>2026-05-03T13:06:52.001Z</time></trkpt><trkpt lat="41.75747757646051" lon="-2.3914048465596625"><ele>1081.0</ele><time>2026-05-03T13:06:53.001Z</time></trkpt><trkpt lat="41.75743480137719" lon="-2.391267227652282"><ele>1081.0</ele><time>2026-05-03T13:06:54.001Z</time></trkpt><trkpt lat="41.75739427721945" lon="-2.3911304595164724"><ele>1081.0</ele><time>2026-05-03T13:06:55.001Z</time></trkpt><trkpt lat="41.75735633572548" lon="-2.390986955091501"><ele>1081.0</ele><time>2026-05-03T13:06:56.001Z</time></trkpt><trkpt lat="41.75731622238093" lon="-2.3908451076626256"><ele>1081.0</ele><time>2026-05-03T13:06:57.001Z</time></trkpt><trkpt lat="41.75727565486833" lon="-2.3907020707570235"><ele>1081.0</ele><time>2026-05-03T13:06:58.001Z</time></trkpt><trkpt lat="41.757233994760504" lon="-2.39055803687726"><ele>1081.0</ele><time>2026-05-03T13:06:59.001Z</time></trkpt><trkpt lat="41.75719273201978" lon="-2.390419150495507"><ele>1081.0</ele><time>2026-05-03T13:07:00.001Z</time></trkpt><trkpt lat="41.757150305128924" lon="-2.3902769734045823"><ele>1081.0</ele><time>2026-05-03T13:07:01.001Z</time></trkpt><trkpt lat="41.75710940898739" lon="-2.3901354515820605"><ele>1080.5</ele><time>2026-05-03T13:07:02.001Z</time></trkpt><trkpt lat="41.75707015596071" lon="-2.3899930284434197"><ele>1080.0</ele><time>2026-05-03T13:07:03.001Z</time></trkpt><trkpt lat="41.757023126168" lon="-2.3898514995999625"><ele>1079.5</ele><time>2026-05-03T13:07:04.001Z</time></trkpt><trkpt lat="41.75698267543956" lon="-2.389711072551097"><ele>1079.0</ele><time>2026-05-03T13:07:05.001Z</time></trkpt><trkpt lat="41.75693743994591" lon="-2.3895737670468358"><ele>1078.25</ele><time>2026-05-03T13:07:06.001Z</time></trkpt><trkpt lat="41.75690150575921" lon="-2.389429291208445"><ele>1077.5</ele><time>2026-05-03T13:07:07.001Z</time></trkpt><trkpt lat="41.756860638978765" lon="-2.38928294780308"><ele>1076.75</ele><time>2026-05-03T13:07:08.001Z</time></trkpt><trkpt lat="41.75681730795913" lon="-2.389138697112218"><ele>1076.0</ele><time>2026-05-03T13:07:09.001Z</time></trkpt><trkpt lat="41.75677701680327" lon="-2.3889949500705967"><ele>1076.0</ele><time>2026-05-03T13:07:10.001Z</time></trkpt><trkpt lat="41.75673403185583" lon="-2.3888521238036504"><ele>1076.0</ele><time>2026-05-03T13:07:11.001Z</time></trkpt><trkpt lat="41.756691655246726" lon="-2.3887062593966912"><ele>1076.0</ele><time>2026-05-03T13:07:12.001Z</time></trkpt><trkpt lat="41.756652059956636" lon="-2.388564257400173"><ele>1076.0</ele><time>2026-05-03T13:07:13.001Z</time></trkpt><trkpt lat="41.756612840443104" lon="-2.3884208568008183"><ele>1075.3999999999999</ele><time>2026-05-03T13:07:14.001Z</time></trkpt><trkpt lat="41.75657354729252" lon="-2.38827914093142"><ele>1074.8</ele><time>2026-05-03T13:07:15.001Z</time></trkpt><trkpt lat="41.75653166805054" lon="-2.3881369523050116"><ele>1074.1999999999998</ele><time>2026-05-03T13:07:16.001Z</time></trkpt><trkpt lat="41.75648995761376" lon="-2.3879987861627017"><ele>1073.6</ele><time>2026-05-03T13:07:17.001Z</time></trkpt><trkpt lat="41.75644973808161" lon="-2.387859684194408"><ele>1073.0</ele><time>2026-05-03T13:07:18.001Z</time></trkpt><trkpt lat="41.7564108500946" lon="-2.387720733133221"><ele>1072.4</ele><time>2026-05-03T13:07:18.999Z</time></trkpt><trkpt lat="41.7563694821657" lon="-2.387581616633876"><ele>1071.8</ele><time>2026-05-03T13:07:19.999Z</time></trkpt><trkpt lat="41.75632001371393" lon="-2.38745464414888"><ele>1071.2</ele><time>2026-05-03T13:07:20.999Z</time></trkpt><trkpt lat="41.756276161233906" lon="-2.3873033578835856"><ele>1070.6</ele><time>2026-05-03T13:07:21.999Z</time></trkpt><trkpt lat="41.7562430968888" lon="-2.3871685949140393"><ele>1070.0</ele><time>2026-05-03T13:07:22.999Z</time></trkpt><trkpt lat="41.7561645605396" lon="-2.387043491766471"><ele>1069.75</ele><time>2026-05-03T13:07:23.999Z</time></trkpt><trkpt lat="41.756085166988285" lon="-2.38692473737334"><ele>1069.5</ele><time>2026-05-03T13:07:24.999Z</time></trkpt><trkpt lat="41.756126582236604" lon="-2.386758956303551"><ele>1069.25</ele><time>2026-05-03T13:07:25.999Z</time></trkpt><trkpt lat="41.75608087590012" lon="-2.386618271391741"><ele>1069.0</ele><time>2026-05-03T13:07:26.999Z</time></trkpt><trkpt lat="41.75604235199906" lon="-2.386487923134275"><ele>1069.0</ele><time>2026-05-03T13:07:27.999Z</time></trkpt><trkpt lat="41.75599794404901" lon="-2.386341628917741"><ele>1069.0</ele><time>2026-05-03T13:07:28.999Z</time></trkpt><trkpt lat="41.75596163055209" lon="-2.386202592691825"><ele>1069.0</ele><time>2026-05-03T13:07:29.999Z</time></trkpt><trkpt lat="41.75592536454262" lon="-2.3860649280607187"><ele>1069.0</ele><time>2026-05-03T13:07:30.999Z</time></trkpt><trkpt lat="41.75588097909833" lon="-2.385922312751208"><ele>1069.0</ele><time>2026-05-03T13:07:31.999Z</time></trkpt><trkpt lat="41.75584322676275" lon="-2.385779178331949"><ele>1069.0</ele><time>2026-05-03T13:07:32.999Z</time></trkpt><trkpt lat="41.75580386476351" lon="-2.385638643254959"><ele>1069.0</ele><time>2026-05-03T13:07:34Z</time></trkpt><trkpt lat="41.75575947085497" lon="-2.385498946718363"><ele>1069.0</ele><time>2026-05-03T13:07:35Z</time></trkpt><trkpt lat="41.75571985479441" lon="-2.385359458577105"><ele>1068.75</ele><time>2026-05-03T13:07:36Z</time></trkpt><trkpt lat="41.75567733162625" lon="-2.3852189811684155"><ele>1068.5</ele><time>2026-05-03T13:07:37Z</time></trkpt><trkpt lat="41.75564060501624" lon="-2.3850792383253925"><ele>1068.25</ele><time>2026-05-03T13:07:38Z</time></trkpt><trkpt lat="41.755601708422724" lon="-2.384935326428317"><ele>1068.0</ele><time>2026-05-03T13:07:39Z</time></trkpt><trkpt lat="41.75556065595344" lon="-2.3847958676041774"><ele>1067.0</ele><time>2026-05-03T13:07:40Z</time></trkpt><trkpt lat="41.75551961731189" lon="-2.384656514173201"><ele>1066.0</ele><time>2026-05-03T13:07:41Z</time></trkpt><trkpt lat="41.755477376591635" lon="-2.38451436591906"><ele>1065.0</ele><time>2026-05-03T13:07:42Z</time></trkpt><trkpt lat="41.75543263229087" lon="-2.384378500939733"><ele>1064.0</ele><time>2026-05-03T13:07:43Z</time></trkpt><trkpt lat="41.755400173919064" lon="-2.384227529053045"><ele>1064.0</ele><time>2026-05-03T13:07:44Z</time></trkpt><trkpt lat="41.75534006396323" lon="-2.3840696044125593"><ele>1064.0</ele><time>2026-05-03T13:07:45Z</time></trkpt><trkpt lat="41.755323044353275" lon="-2.3839490538052273"><ele>1064.0</ele><time>2026-05-03T13:07:46Z</time></trkpt><trkpt lat="41.75528078241099" lon="-2.3838113355587116"><ele>1064.0</ele><time>2026-05-03T13:07:47Z</time></trkpt><trkpt lat="41.755239438544706" lon="-2.3836695917968833"><ele>1064.0</ele><time>2026-05-03T13:07:48Z</time></trkpt><trkpt lat="41.75519464511471" lon="-2.383528639500872"><ele>1063.75</ele><time>2026-05-03T13:07:49Z</time></trkpt><trkpt lat="41.755151018500435" lon="-2.383387716355527"><ele>1063.5</ele><time>2026-05-03T13:07:50Z</time></trkpt><trkpt lat="41.75511448531216" lon="-2.383244191367548"><ele>1063.25</ele><time>2026-05-03T13:07:51Z</time></trkpt><trkpt lat="41.75507411725195" lon="-2.383103734781575"><ele>1063.0</ele><time>2026-05-03T13:07:52Z</time></trkpt><trkpt lat="41.75503208558718" lon="-2.382964020746338"><ele>1062.5</ele><time>2026-05-03T13:07:53Z</time></trkpt><trkpt lat="41.75499000682889" lon="-2.3828214836178736"><ele>1062.0</ele><time>2026-05-03T13:07:54Z</time></trkpt><trkpt lat="41.754951814035685" lon="-2.3826784153167475"><ele>1061.5</ele><time>2026-05-03T13:07:55Z</time></trkpt><trkpt lat="41.754907684904595" lon="-2.382535393137888"><ele>1061.0</ele><time>2026-05-03T13:07:56Z</time></trkpt><trkpt lat="41.75486566289606" lon="-2.382390246939685"><ele>1061.0</ele><time>2026-05-03T13:07:57Z</time></trkpt><trkpt lat="41.75482450187832" lon="-2.3822459816407946"><ele>1061.0</ele><time>2026-05-03T13:07:58Z</time></trkpt><trkpt lat="41.75478406124281" lon="-2.3820995897105957"><ele>1061.0</ele><time>2026-05-03T13:07:59Z</time></trkpt><trkpt lat="41.75473986688381" lon="-2.381952387687519"><ele>1061.0</ele><time>2026-05-03T13:08:00Z</time></trkpt><trkpt lat="41.75469565834295" lon="-2.381805655095442"><ele>1060.25</ele><time>2026-05-03T13:08:01Z</time></trkpt><trkpt lat="41.7546548272194" lon="-2.381659098798925"><ele>1059.5</ele><time>2026-05-03T13:08:02Z</time></trkpt><trkpt lat="41.75461537865477" lon="-2.381513796231713"><ele>1058.75</ele><time>2026-05-03T13:08:03Z</time></trkpt><trkpt lat="41.754572983407854" lon="-2.381369422429373"><ele>1058.0</ele><time>2026-05-03T13:08:04Z</time></trkpt><trkpt lat="41.75453142966545" lon="-2.38122241049987"><ele>1057.75</ele><time>2026-05-03T13:08:05Z</time></trkpt><trkpt lat="41.754485569173966" lon="-2.381079646482178"><ele>1057.5</ele><time>2026-05-03T13:08:06Z</time></trkpt><trkpt lat="41.75444294209311" lon="-2.380936577755258"><ele>1057.25</ele><time>2026-05-03T13:08:07Z</time></trkpt><trkpt lat="41.75440341126795" lon="-2.3807921119305897"><ele>1057.0</ele><time>2026-05-03T13:08:08Z</time></trkpt><trkpt lat="41.75436099743432" lon="-2.3806506821233544"><ele>1056.8</ele><time>2026-05-03T13:08:09Z</time></trkpt><trkpt lat="41.7543205282678" lon="-2.3805086632228933"><ele>1056.6</ele><time>2026-05-03T13:08:10Z</time></trkpt><trkpt lat="41.754278765277725" lon="-2.380368280803071"><ele>1056.3999999999999</ele><time>2026-05-03T13:08:11Z</time></trkpt><trkpt lat="41.75424055535162" lon="-2.380227257417825"><ele>1056.2</ele><time>2026-05-03T13:08:12Z</time></trkpt><trkpt lat="41.75420110139865" lon="-2.380087924334112"><ele>1056.0</ele><time>2026-05-03T13:08:13Z</time></trkpt><trkpt lat="41.75415630682072" lon="-2.379949282779826"><ele>1056.0</ele><time>2026-05-03T13:08:14Z</time></trkpt><trkpt lat="41.75411399828377" lon="-2.379807175710628"><ele>1056.0</ele><time>2026-05-03T13:08:15Z</time></trkpt><trkpt lat="41.75407192131786" lon="-2.3796659002528204"><ele>1056.0</ele><time>2026-05-03T13:08:16Z</time></trkpt><trkpt lat="41.754030888920404" lon="-2.3795250454987578"><ele>1056.0</ele><time>2026-05-03T13:08:17Z</time></trkpt><trkpt lat="41.75399077578274" lon="-2.3793841261545716"><ele>1055.5</ele><time>2026-05-03T13:08:18Z</time></trkpt><trkpt lat="41.75395099706211" lon="-2.379242599522322"><ele>1055.0</ele><time>2026-05-03T13:08:19Z</time></trkpt><trkpt lat="41.75390994473905" lon="-2.379098726600999"><ele>1054.5</ele><time>2026-05-03T13:08:20Z</time></trkpt><trkpt lat="41.75386777890941" lon="-2.3789546717070444"><ele>1054.0</ele><time>2026-05-03T13:08:21Z</time></trkpt><trkpt lat="41.75382838386133" lon="-2.3788121055107045"><ele>1053.75</ele><time>2026-05-03T13:08:22Z</time></trkpt><trkpt lat="41.75378751596025" lon="-2.3786684994560057"><ele>1053.5</ele><time>2026-05-03T13:08:23Z</time></trkpt><trkpt lat="41.7537441067851" lon="-2.3785237863544384"><ele>1053.25</ele><time>2026-05-03T13:08:24Z</time></trkpt><trkpt lat="41.75370103617901" lon="-2.378381848899235"><ele>1053.0</ele><time>2026-05-03T13:08:25Z</time></trkpt><trkpt lat="41.75366014751066" lon="-2.378239189178522"><ele>1053.0</ele><time>2026-05-03T13:08:26Z</time></trkpt><trkpt lat="41.753618777663476" lon="-2.378096699342723"><ele>1053.0</ele><time>2026-05-03T13:08:27Z</time></trkpt><trkpt lat="41.75357912996023" lon="-2.377954139754809"><ele>1053.0</ele><time>2026-05-03T13:08:28Z</time></trkpt><trkpt lat="41.75353695131205" lon="-2.377811568724334"><ele>1053.0</ele><time>2026-05-03T13:08:29Z</time></trkpt><trkpt lat="41.75349444586842" lon="-2.3776709969961556"><ele>1052.75</ele><time>2026-05-03T13:08:30Z</time></trkpt><trkpt lat="41.753452612438124" lon="-2.377528336732117"><ele>1052.5</ele><time>2026-05-03T13:08:31.001Z</time></trkpt><trkpt lat="41.7534107531583" lon="-2.3773862822626017"><ele>1052.25</ele><time>2026-05-03T13:08:32.001Z</time></trkpt><trkpt lat="41.753372749654844" lon="-2.377244524480591"><ele>1052.0</ele><time>2026-05-03T13:08:33.001Z</time></trkpt><trkpt lat="41.75332981076228" lon="-2.3771024406522643"><ele>1052.0</ele><time>2026-05-03T13:08:34.001Z</time></trkpt><trkpt lat="41.753289371984" lon="-2.3769620114626844"><ele>1052.0</ele><time>2026-05-03T13:08:35.001Z</time></trkpt><trkpt lat="41.75324645822968" lon="-2.3768190355741554"><ele>1052.0</ele><time>2026-05-03T13:08:36.001Z</time></trkpt><trkpt lat="41.75320600906871" lon="-2.3766787512396537"><ele>1052.0</ele><time>2026-05-03T13:08:37.001Z</time></trkpt><trkpt lat="41.753169506561385" lon="-2.3765377126016674"><ele>1052.0</ele><time>2026-05-03T13:08:38.001Z</time></trkpt><trkpt lat="41.75312781648034" lon="-2.376397010453014"><ele>1052.0</ele><time>2026-05-03T13:08:39.001Z</time></trkpt><trkpt lat="41.75308338409005" lon="-2.3762574354738035"><ele>1052.0</ele><time>2026-05-03T13:08:40.001Z</time></trkpt><trkpt lat="41.7530451876872" lon="-2.376118463496759"><ele>1052.0</ele><time>2026-05-03T13:08:41.001Z</time></trkpt><trkpt lat="41.753008634027346" lon="-2.375977625579572"><ele>1052.0</ele><time>2026-05-03T13:08:42.001Z</time></trkpt><trkpt lat="41.75297089033823" lon="-2.3758460852515904"><ele>1052.0</ele><time>2026-05-03T13:08:43.001Z</time></trkpt><trkpt lat="41.752916650808146" lon="-2.3756880303083356"><ele>1052.0</ele><time>2026-05-03T13:08:44.001Z</time></trkpt><trkpt lat="41.752773684376216" lon="-2.3755240855416497"><ele>1052.0</ele><time>2026-05-03T13:08:45.001Z</time></trkpt><trkpt lat="41.75284206352357" lon="-2.375429541030588"><ele>1052.0</ele><time>2026-05-03T13:08:46.001Z</time></trkpt><trkpt lat="41.75280340498474" lon="-2.3752951458328235"><ele>1052.0</ele><time>2026-05-03T13:08:47.001Z</time></trkpt><trkpt lat="41.75276408108553" lon="-2.375156192775986"><ele>1052.0</ele><time>2026-05-03T13:08:48.001Z</time></trkpt><trkpt lat="41.752724479397656" lon="-2.375018564332874"><ele>1052.0</ele><time>2026-05-03T13:08:49.001Z</time></trkpt><trkpt lat="41.75268566407064" lon="-2.3748789943750066"><ele>1052.0</ele><time>2026-05-03T13:08:50.001Z</time></trkpt><trkpt lat="41.75264525033779" lon="-2.374743216238199"><ele>1052.0</ele><time>2026-05-03T13:08:51.001Z</time></trkpt><trkpt lat="41.752607800560526" lon="-2.37460429416525"><ele>1052.0</ele><time>2026-05-03T13:08:52.001Z</time></trkpt><trkpt lat="41.75256902163938" lon="-2.3744669403986114"><ele>1052.0</ele><time>2026-05-03T13:08:53.001Z</time></trkpt><trkpt lat="41.75253172674685" lon="-2.3743296428911327"><ele>1052.0</ele><time>2026-05-03T13:08:54.001Z</time></trkpt><trkpt lat="41.75249170477137" lon="-2.3741939751152334"><ele>1052.0</ele><time>2026-05-03T13:08:55.001Z</time></trkpt><trkpt lat="41.752451476637425" lon="-2.374059581567508"><ele>1052.0</ele><time>2026-05-03T13:08:56.001Z</time></trkpt><trkpt lat="41.75241297220694" lon="-2.3739275790127645"><ele>1052.2</ele><time>2026-05-03T13:08:57.001Z</time></trkpt><trkpt lat="41.752372379413494" lon="-2.3737939887213937"><ele>1052.4</ele><time>2026-05-03T13:08:58.001Z</time></trkpt><trkpt lat="41.75233289828551" lon="-2.373662279139987"><ele>1052.6</ele><time>2026-05-03T13:08:59.001Z</time></trkpt><trkpt lat="41.752295268667496" lon="-2.3735277871179337"><ele>1052.8</ele><time>2026-05-03T13:09:00.001Z</time></trkpt><trkpt lat="41.752253686396294" lon="-2.3733981847932593"><ele>1053.0</ele><time>2026-05-03T13:09:01.001Z</time></trkpt><trkpt lat="41.75221640492979" lon="-2.3732690680683546"><ele>1053.0</ele><time>2026-05-03T13:09:02.001Z</time></trkpt><trkpt lat="41.75217936437657" lon="-2.373143485308733"><ele>1053.0</ele><time>2026-05-03T13:09:03.001Z</time></trkpt><trkpt lat="41.75213546173636" lon="-2.373016794926897"><ele>1053.0</ele><time>2026-05-03T13:09:04.001Z</time></trkpt><trkpt lat="41.7520940463481" lon="-2.3728915872348537"><ele>1053.0</ele><time>2026-05-03T13:09:05.001Z</time></trkpt><trkpt lat="41.752053341577046" lon="-2.3727697861057284"><ele>1053.0</ele><time>2026-05-03T13:09:06.001Z</time></trkpt><trkpt lat="41.75200929279632" lon="-2.3726435529032885"><ele>1053.2</ele><time>2026-05-03T13:09:07.001Z</time></trkpt><trkpt lat="41.7519669014957" lon="-2.3725225254832245"><ele>1053.4</ele><time>2026-05-03T13:09:08.001Z</time></trkpt><trkpt lat="41.75192111979975" lon="-2.372399957237103"><ele>1053.6000000000001</ele><time>2026-05-03T13:09:09.001Z</time></trkpt><trkpt lat="41.75187187068957" lon="-2.372278383838919"><ele>1053.8</ele><time>2026-05-03T13:09:10.001Z</time></trkpt><trkpt lat="41.75182214180866" lon="-2.3721566969364054"><ele>1054.0</ele><time>2026-05-03T13:09:11.001Z</time></trkpt><trkpt lat="41.751772069602865" lon="-2.372030656046496"><ele>1054.2</ele><time>2026-05-03T13:09:12.001Z</time></trkpt><trkpt lat="41.75172376861683" lon="-2.37190124645285"><ele>1054.4</ele><time>2026-05-03T13:09:13.001Z</time></trkpt><trkpt lat="41.75167355031386" lon="-2.371767058609126"><ele>1054.6</ele><time>2026-05-03T13:09:14.001Z</time></trkpt><trkpt lat="41.751622016744186" lon="-2.3716329808275503"><ele>1054.8</ele><time>2026-05-03T13:09:15.001Z</time></trkpt><trkpt lat="41.751568134903515" lon="-2.371494306046776"><ele>1055.0</ele><time>2026-05-03T13:09:16.001Z</time></trkpt><trkpt lat="41.75151464735156" lon="-2.371358992151819"><ele>1053.5</ele><time>2026-05-03T13:09:17.001Z</time></trkpt><trkpt lat="41.75146106993784" lon="-2.371221477716305"><ele>1052.0</ele><time>2026-05-03T13:09:18.001Z</time></trkpt><trkpt lat="41.75140364189059" lon="-2.371085529673778"><ele>1050.5</ele><time>2026-05-03T13:09:19.001Z</time></trkpt><trkpt lat="41.751351651125425" lon="-2.37095001558827"><ele>1049.0</ele><time>2026-05-03T13:09:20.001Z</time></trkpt><trkpt lat="41.75129794450546" lon="-2.3708137627477797"><ele>1049.0</ele><time>2026-05-03T13:09:21.001Z</time></trkpt><trkpt lat="41.75124595816895" lon="-2.3706750317927767"><ele>1049.0</ele><time>2026-05-03T13:09:22.001Z</time></trkpt><trkpt lat="41.7511937752376" lon="-2.3705384406947885"><ele>1049.0</ele><time>2026-05-03T13:09:23.001Z</time></trkpt><trkpt lat="41.75114337947014" lon="-2.370405827483807"><ele>1049.0</ele><time>2026-05-03T13:09:24.001Z</time></trkpt><trkpt lat="41.75109306879403" lon="-2.370269138940153"><ele>1048.75</ele><time>2026-05-03T13:09:25Z</time></trkpt><trkpt lat="41.75104208670167" lon="-2.3701366965177537"><ele>1048.5</ele><time>2026-05-03T13:09:26Z</time></trkpt><trkpt lat="41.75098927329143" lon="-2.3699985086909465"><ele>1048.25</ele><time>2026-05-03T13:09:27Z</time></trkpt><trkpt lat="41.750936913269335" lon="-2.36987081219071"><ele>1048.0</ele><time>2026-05-03T13:09:28Z</time></trkpt><trkpt lat="41.75088444980103" lon="-2.3697353881569074"><ele>1047.5</ele><time>2026-05-03T13:09:29Z</time></trkpt><trkpt lat="41.750831764657164" lon="-2.3696006181453595"><ele>1047.0</ele><time>2026-05-03T13:09:30Z</time></trkpt><trkpt lat="41.75078088693426" lon="-2.369466699487156"><ele>1046.5</ele><time>2026-05-03T13:09:31Z</time></trkpt><trkpt lat="41.75072763604191" lon="-2.369332778134327"><ele>1046.0</ele><time>2026-05-03T13:09:32Z</time></trkpt><trkpt lat="41.75067398611776" lon="-2.369201385011124"><ele>1046.0</ele><time>2026-05-03T13:09:33Z</time></trkpt><trkpt lat="41.75062778819826" lon="-2.3690723133055376"><ele>1046.0</ele><time>2026-05-03T13:09:34Z</time></trkpt><trkpt lat="41.75058052450918" lon="-2.368964655090493"><ele>1046.0</ele><time>2026-05-03T13:09:35Z</time></trkpt><trkpt lat="41.75055159726817" lon="-2.368889545508109"><ele>1046.0</ele><time>2026-05-03T13:09:36Z</time></trkpt><trkpt lat="41.75041933505566" lon="-2.368534791369012"><ele>1045.75</ele><time>2026-05-03T13:09:38Z</time></trkpt><trkpt lat="41.750364333116295" lon="-2.3683992508632556"><ele>1045.5</ele><time>2026-05-03T13:09:39Z</time></trkpt><trkpt lat="41.750309585095714" lon="-2.3682612652805517"><ele>1045.25</ele><time>2026-05-03T13:09:40Z</time></trkpt><trkpt lat="41.75025682609467" lon="-2.368123843940586"><ele>1045.0</ele><time>2026-05-03T13:09:41Z</time></trkpt><trkpt lat="41.75020260533543" lon="-2.3679812500327153"><ele>1044.75</ele><time>2026-05-03T13:09:42Z</time></trkpt><trkpt lat="41.750148803422704" lon="-2.3678414602330657"><ele>1044.5</ele><time>2026-05-03T13:09:43Z</time></trkpt><trkpt lat="41.750095613051684" lon="-2.367701889236032"><ele>1044.25</ele><time>2026-05-03T13:09:44Z</time></trkpt><trkpt lat="41.75004216786225" lon="-2.367562324895031"><ele>1044.0</ele><time>2026-05-03T13:09:45Z</time></trkpt><trkpt lat="41.74999030141559" lon="-2.367422273870547"><ele>1044.0</ele><time>2026-05-03T13:09:46Z</time></trkpt><trkpt lat="41.74993749991519" lon="-2.36728677936651"><ele>1044.0</ele><time>2026-05-03T13:09:47Z</time></trkpt><trkpt lat="41.74988478571844" lon="-2.3671496320330103"><ele>1044.0</ele><time>2026-05-03T13:09:48Z</time></trkpt><trkpt lat="41.74983207076241" lon="-2.3670116906330683"><ele>1044.0</ele><time>2026-05-03T13:09:49Z</time></trkpt><trkpt lat="41.74977841798415" lon="-2.366873419358105"><ele>1044.25</ele><time>2026-05-03T13:09:50Z</time></trkpt><trkpt lat="41.74972492864504" lon="-2.366736541953346"><ele>1044.5</ele><time>2026-05-03T13:09:51Z</time></trkpt><trkpt lat="41.7496699315202" lon="-2.3665980369312294"><ele>1044.75</ele><time>2026-05-03T13:09:52Z</time></trkpt><trkpt lat="41.74961624981845" lon="-2.3664602831303143"><ele>1045.0</ele><time>2026-05-03T13:09:53Z</time></trkpt><trkpt lat="41.749565685680096" lon="-2.366324241131858"><ele>1045.0</ele><time>2026-05-03T13:09:54Z</time></trkpt><trkpt lat="41.74951577370494" lon="-2.3661898036841835"><ele>1045.0</ele><time>2026-05-03T13:09:55Z</time></trkpt><trkpt lat="41.74946322796222" lon="-2.366053467862852"><ele>1045.0</ele><time>2026-05-03T13:09:56Z</time></trkpt><trkpt lat="41.749410379615576" lon="-2.3659196560796065"><ele>1045.0</ele><time>2026-05-03T13:09:57Z</time></trkpt><trkpt lat="41.74935701292209" lon="-2.3657820991263687"><ele>1044.4</ele><time>2026-05-03T13:09:58Z</time></trkpt><trkpt lat="41.74930910915965" lon="-2.3656450056948644"><ele>1043.8</ele><time>2026-05-03T13:09:59Z</time></trkpt><trkpt lat="41.749260142373096" lon="-2.3655098701909267"><ele>1043.2</ele><time>2026-05-03T13:10:00Z</time></trkpt><trkpt lat="41.74920464016778" lon="-2.3653811263742206"><ele>1042.6</ele><time>2026-05-03T13:10:01Z</time></trkpt><trkpt lat="41.74915985078377" lon="-2.3652512373760652"><ele>1042.0</ele><time>2026-05-03T13:10:02Z</time></trkpt><trkpt lat="41.74910919797842" lon="-2.3651140245389572"><ele>1041.8</ele><time>2026-05-03T13:10:03Z</time></trkpt><trkpt lat="41.749051003192754" lon="-2.3649844419891464"><ele>1041.6</ele><time>2026-05-03T13:10:04Z</time></trkpt><trkpt lat="41.74900202682859" lon="-2.364848866844718"><ele>1041.3999999999999</ele><time>2026-05-03T13:10:05Z</time></trkpt><trkpt lat="41.748953249031935" lon="-2.3647208432491533"><ele>1041.2</ele><time>2026-05-03T13:10:06Z</time></trkpt><trkpt lat="41.74890123388936" lon="-2.364588542389163"><ele>1041.0</ele><time>2026-05-03T13:10:07Z</time></trkpt><trkpt lat="41.74885538590664" lon="-2.364459810427793"><ele>1041.3999999999999</ele><time>2026-05-03T13:10:08Z</time></trkpt><trkpt lat="41.74880347830404" lon="-2.3643708977362734"><ele>1041.8</ele><time>2026-05-03T13:10:09Z</time></trkpt><trkpt lat="41.7487525959701" lon="-2.364240438593543"><ele>1042.1999999999998</ele><time>2026-05-03T13:10:10Z</time></trkpt><trkpt lat="41.74869102623211" lon="-2.3640825775912524"><ele>1042.6</ele><time>2026-05-03T13:10:11Z</time></trkpt><trkpt lat="41.74864681416452" lon="-2.3639362260946135"><ele>1043.0</ele><time>2026-05-03T13:10:12Z</time></trkpt><trkpt lat="41.74860035864542" lon="-2.3638160298600654"><ele>1043.0</ele><time>2026-05-03T13:10:13Z</time></trkpt><trkpt lat="41.7485535399195" lon="-2.3636872052459257"><ele>1043.0</ele><time>2026-05-03T13:10:14Z</time></trkpt><trkpt lat="41.74849359627366" lon="-2.3635756390595657"><ele>1043.0</ele><time>2026-05-03T13:10:15Z</time></trkpt><trkpt lat="41.748460511903914" lon="-2.3634426708181016"><ele>1043.0</ele><time>2026-05-03T13:10:16Z</time></trkpt><trkpt lat="41.748411298796576" lon="-2.3633198645609705"><ele>1043.0</ele><time>2026-05-03T13:10:17Z</time></trkpt><trkpt lat="41.74836048594922" lon="-2.363199192241867"><ele>1043.4</ele><time>2026-05-03T13:10:18Z</time></trkpt><trkpt lat="41.74831101177066" lon="-2.363076782477392"><ele>1043.8</ele><time>2026-05-03T13:10:19Z</time></trkpt><trkpt lat="41.748266131292944" lon="-2.3629536198372585"><ele>1044.2</ele><time>2026-05-03T13:10:20.001Z</time></trkpt><trkpt lat="41.74821690324177" lon="-2.3628331539139427"><ele>1044.6</ele><time>2026-05-03T13:10:21.001Z</time></trkpt><trkpt lat="41.74817075833493" lon="-2.362709464285159"><ele>1045.0</ele><time>2026-05-03T13:10:22.001Z</time></trkpt><trkpt lat="41.74812248161424" lon="-2.3625921782539354"><ele>1045.4</ele><time>2026-05-03T13:10:23.001Z</time></trkpt><trkpt lat="41.748079931923385" lon="-2.362473333158724"><ele>1045.8</ele><time>2026-05-03T13:10:24.001Z</time></trkpt><trkpt lat="41.74802888752415" lon="-2.362353850911252"><ele>1046.2</ele><time>2026-05-03T13:10:25.001Z</time></trkpt><trkpt lat="41.747984161271106" lon="-2.3622291875784165"><ele>1046.6</ele><time>2026-05-03T13:10:26.001Z</time></trkpt><trkpt lat="41.747936198034175" lon="-2.3621062741862797"><ele>1047.0</ele><time>2026-05-03T13:10:27.001Z</time></trkpt><trkpt lat="41.74788668594916" lon="-2.3619836857813543"><ele>1047.2</ele><time>2026-05-03T13:10:28.001Z</time></trkpt><trkpt lat="41.74783898499824" lon="-2.361856584363701"><ele>1047.4</ele><time>2026-05-03T13:10:29.001Z</time></trkpt><trkpt lat="41.747789956195284" lon="-2.3617279373845146"><ele>1047.6</ele><time>2026-05-03T13:10:30.001Z</time></trkpt><trkpt lat="41.74773503674842" lon="-2.3615976679002584"><ele>1047.8</ele><time>2026-05-03T13:10:31.001Z</time></trkpt><trkpt lat="41.74769230750342" lon="-2.3614711966160034"><ele>1048.0</ele><time>2026-05-03T13:10:32.001Z</time></trkpt><trkpt lat="41.747633336206086" lon="-2.3613299415306686"><ele>1047.25</ele><time>2026-05-03T13:10:33.001Z</time></trkpt><trkpt lat="41.747584343848395" lon="-2.361189429071316"><ele>1046.5</ele><time>2026-05-03T13:10:34.001Z</time></trkpt><trkpt lat="41.74751815879364" lon="-2.3610635722164206"><ele>1045.75</ele><time>2026-05-03T13:10:35.001Z</time></trkpt><trkpt lat="41.74746671556443" lon="-2.3609299560307218"><ele>1045.0</ele><time>2026-05-03T13:10:36.001Z</time></trkpt><trkpt lat="41.74742893342925" lon="-2.36078966562545"><ele>1045.0</ele><time>2026-05-03T13:10:37.001Z</time></trkpt><trkpt lat="41.747375257680616" lon="-2.3606528139057836"><ele>1045.0</ele><time>2026-05-03T13:10:38.001Z</time></trkpt><trkpt lat="41.74732307375366" lon="-2.360516575550696"><ele>1045.0</ele><time>2026-05-03T13:10:39.001Z</time></trkpt><trkpt lat="41.7472710580896" lon="-2.3603818793960487"><ele>1045.0</ele><time>2026-05-03T13:10:40.001Z</time></trkpt><trkpt lat="41.74721786103458" lon="-2.3602451391285357"><ele>1045.0</ele><time>2026-05-03T13:10:41.001Z</time></trkpt><trkpt lat="41.747165210483224" lon="-2.360107850652726"><ele>1045.0</ele><time>2026-05-03T13:10:42.001Z</time></trkpt><trkpt lat="41.74711118373776" lon="-2.3599691199385604"><ele>1045.0</ele><time>2026-05-03T13:10:43.001Z</time></trkpt><trkpt lat="41.747058423417684" lon="-2.359831347980807"><ele>1045.0</ele><time>2026-05-03T13:10:44.001Z</time></trkpt><trkpt lat="41.747003685619106" lon="-2.3596942343435066"><ele>1045.0</ele><time>2026-05-03T13:10:45.001Z</time></trkpt><trkpt lat="41.746950244361074" lon="-2.35955616265384"><ele>1045.0</ele><time>2026-05-03T13:10:46.001Z</time></trkpt><trkpt lat="41.7468987952924" lon="-2.3594200433221904"><ele>1045.0</ele><time>2026-05-03T13:10:47.001Z</time></trkpt><trkpt lat="41.74684524850306" lon="-2.3592828652334767"><ele>1045.0</ele><time>2026-05-03T13:10:48.001Z</time></trkpt><trkpt lat="41.74679167573287" lon="-2.3591453692405033"><ele>1044.25</ele><time>2026-05-03T13:10:49.001Z</time></trkpt><trkpt lat="41.746738307155766" lon="-2.359007114854419"><ele>1043.5</ele><time>2026-05-03T13:10:50.001Z</time></trkpt><trkpt lat="41.74668649685402" lon="-2.358869243413028"><ele>1042.75</ele><time>2026-05-03T13:10:51.001Z</time></trkpt><trkpt lat="41.746633784255074" lon="-2.3587314703920574"><ele>1042.0</ele><time>2026-05-03T13:10:52.001Z</time></trkpt><trkpt lat="41.74657942754109" lon="-2.358593043383937"><ele>1042.0</ele><time>2026-05-03T13:10:53.001Z</time></trkpt><trkpt lat="41.74652570740898" lon="-2.3584537638467804"><ele>1042.0</ele><time>2026-05-03T13:10:54.001Z</time></trkpt><trkpt lat="41.74646619491254" lon="-2.358317776301405"><ele>1042.0</ele><time>2026-05-03T13:10:55.001Z</time></trkpt><trkpt lat="41.74641532968501" lon="-2.3581779967432595"><ele>1042.0</ele><time>2026-05-03T13:10:56.001Z</time></trkpt><trkpt lat="41.74636536757424" lon="-2.3580380616133096"><ele>1042.0</ele><time>2026-05-03T13:10:57.001Z</time></trkpt><trkpt lat="41.74631483698725" lon="-2.3578995554928386"><ele>1042.0</ele><time>2026-05-03T13:10:58.001Z</time></trkpt><trkpt lat="41.74625738877297" lon="-2.3577622942599508"><ele>1042.0</ele><time>2026-05-03T13:10:59.001Z</time></trkpt><trkpt lat="41.74620812012241" lon="-2.357626059382213"><ele>1042.0</ele><time>2026-05-03T13:11:00.001Z</time></trkpt><trkpt lat="41.74615529485978" lon="-2.357490988795575"><ele>1042.0</ele><time>2026-05-03T13:11:01.001Z</time></trkpt><trkpt lat="41.74610304379777" lon="-2.3573557825845253"><ele>1042.0</ele><time>2026-05-03T13:11:02.001Z</time></trkpt><trkpt lat="41.74603879376589" lon="-2.357229599123178"><ele>1042.0</ele><time>2026-05-03T13:11:03.001Z</time></trkpt><trkpt lat="41.74599551178951" lon="-2.3570883735369548"><ele>1042.0</ele><time>2026-05-03T13:11:04.001Z</time></trkpt><trkpt lat="41.74594033154187" lon="-2.356955315254793"><ele>1041.6</ele><time>2026-05-03T13:11:05.001Z</time></trkpt><trkpt lat="41.74588943708774" lon="-2.356821187209594"><ele>1041.2</ele><time>2026-05-03T13:11:06.001Z</time></trkpt><trkpt lat="41.745842443792725" lon="-2.3566831428330324"><ele>1040.8</ele><time>2026-05-03T13:11:07.001Z</time></trkpt><trkpt lat="41.745787446036765" lon="-2.3565590545275485"><ele>1040.4</ele><time>2026-05-03T13:11:08.001Z</time></trkpt><trkpt lat="41.74573920540328" lon="-2.3564266579436266"><ele>1040.0</ele><time>2026-05-03T13:11:09.001Z</time></trkpt><trkpt lat="41.74568992656585" lon="-2.3562930664478112"><ele>1040.0</ele><time>2026-05-03T13:11:10.001Z</time></trkpt><trkpt lat="41.74562940265384" lon="-2.3561684700267578"><ele>1040.0</ele><time>2026-05-03T13:11:11.001Z</time></trkpt><trkpt lat="41.74558260490757" lon="-2.356047171256709"><ele>1040.0</ele><time>2026-05-03T13:11:12.001Z</time></trkpt><trkpt lat="41.7455398755658" lon="-2.355936418336395"><ele>1040.0</ele><time>2026-05-03T13:11:13.001Z</time></trkpt><trkpt lat="41.745478274933134" lon="-2.355776750655769"><ele>1040.0</ele><time>2026-05-03T13:11:14.001Z</time></trkpt><trkpt lat="41.74543189946649" lon="-2.3556565468659643"><ele>1040.0</ele><time>2026-05-03T13:11:15.001Z</time></trkpt><trkpt lat="41.74538842216229" lon="-2.3555438551027152"><ele>1040.0</ele><time>2026-05-03T13:11:16.001Z</time></trkpt><trkpt lat="41.74536229091931" lon="-2.3554285179269754"><ele>1040.0</ele><time>2026-05-03T13:11:17.001Z</time></trkpt><trkpt lat="41.74531036599612" lon="-2.355341311862468"><ele>1040.0</ele><time>2026-05-03T13:11:18.001Z</time></trkpt><trkpt lat="41.74527388597953" lon="-2.35524665550741"><ele>1040.0</ele><time>2026-05-03T13:11:19.001Z</time></trkpt><trkpt lat="41.74525165074365" lon="-2.3551428966453893"><ele>1040.0</ele><time>2026-05-03T13:11:20.001Z</time></trkpt><trkpt lat="41.74519920227422" lon="-2.355052870433654"><ele>1039.6666666666667</ele><time>2026-05-03T13:11:21.001Z</time></trkpt><trkpt lat="41.74516026690771" lon="-2.3549518431115803"><ele>1039.3333333333335</ele><time>2026-05-03T13:11:22.001Z</time></trkpt><trkpt lat="41.74512819319361" lon="-2.3548373138906653"><ele>1039.0</ele><time>2026-05-03T13:11:23.001Z</time></trkpt><trkpt lat="41.74508735138912" lon="-2.3547307151695502"><ele>1038.6666666666667</ele><time>2026-05-03T13:11:24.001Z</time></trkpt><trkpt lat="41.745045036992664" lon="-2.3546263585819656"><ele>1038.3333333333333</ele><time>2026-05-03T13:11:25.001Z</time></trkpt><trkpt lat="41.74500704727485" lon="-2.354522504265629"><ele>1038.0</ele><time>2026-05-03T13:11:26.001Z</time></trkpt><trkpt lat="41.74496489243673" lon="-2.3544163384178396"><ele>1038.0</ele><time>2026-05-03T13:11:27.001Z</time></trkpt><trkpt lat="41.74492295602354" lon="-2.3543050736451447"><ele>1038.0</ele><time>2026-05-03T13:11:28.002Z</time></trkpt><trkpt lat="41.74488144793899" lon="-2.354197348721857"><ele>1038.0</ele><time>2026-05-03T13:11:29.002Z</time></trkpt><trkpt lat="41.74483906562424" lon="-2.354085876570215"><ele>1038.0</ele><time>2026-05-03T13:11:30.002Z</time></trkpt><trkpt lat="41.74479694581186" lon="-2.353976093267776"><ele>1038.0</ele><time>2026-05-03T13:11:31Z</time></trkpt><trkpt lat="41.74475208502663" lon="-2.353861342782028"><ele>1038.2</ele><time>2026-05-03T13:11:32Z</time></trkpt><trkpt lat="41.74470885574632" lon="-2.353752782318072"><ele>1038.4</ele><time>2026-05-03T13:11:33Z</time></trkpt><trkpt lat="41.744665925517616" lon="-2.3536435378851297"><ele>1038.6000000000001</ele><time>2026-05-03T13:11:34Z</time></trkpt><trkpt lat="41.744623617249076" lon="-2.353533789229978"><ele>1038.8</ele><time>2026-05-03T13:11:35Z</time></trkpt><trkpt lat="41.74458276160334" lon="-2.3534236832284927"><ele>1039.0</ele><time>2026-05-03T13:11:36Z</time></trkpt><trkpt lat="41.74454400472155" lon="-2.3533163276840354"><ele>1039.0</ele><time>2026-05-03T13:11:37Z</time></trkpt><trkpt lat="41.74449998390364" lon="-2.3532075370652406"><ele>1039.0</ele><time>2026-05-03T13:11:38Z</time></trkpt><trkpt lat="41.74445827849422" lon="-2.353101831755497"><ele>1039.0</ele><time>2026-05-03T13:11:39Z</time></trkpt><trkpt lat="41.744414695115324" lon="-2.3529933699377996"><ele>1039.0</ele><time>2026-05-03T13:11:40Z</time></trkpt><trkpt lat="41.74437426711793" lon="-2.352887497532335"><ele>1039.0</ele><time>2026-05-03T13:11:41Z</time></trkpt><trkpt lat="41.74433350100045" lon="-2.3527782321132182"><ele>1038.6000000000001</ele><time>2026-05-03T13:11:42Z</time></trkpt><trkpt lat="41.744291651047355" lon="-2.352669380294948"><ele>1038.2</ele><time>2026-05-03T13:11:43Z</time></trkpt><trkpt lat="41.74425004808102" lon="-2.352559146106823"><ele>1037.8000000000002</ele><time>2026-05-03T13:11:44Z</time></trkpt><trkpt lat="41.74421029796211" lon="-2.3524490337372628"><ele>1037.4</ele><time>2026-05-03T13:11:45Z</time></trkpt><trkpt lat="41.7441711549403" lon="-2.3523412149373253"><ele>1037.0</ele><time>2026-05-03T13:11:46Z</time></trkpt><trkpt lat="41.744130867916965" lon="-2.3522401140426865"><ele>1037.5</ele><time>2026-05-03T13:11:47Z</time></trkpt><trkpt lat="41.74409015452527" lon="-2.3521363368585497"><ele>1038.0</ele><time>2026-05-03T13:11:48Z</time></trkpt><trkpt lat="41.744050090275806" lon="-2.3520311685811075"><ele>1038.5</ele><time>2026-05-03T13:11:49Z</time></trkpt><trkpt lat="41.74401412379067" lon="-2.351926304075908"><ele>1039.0</ele><time>2026-05-03T13:11:50Z</time></trkpt><trkpt lat="41.74397531509137" lon="-2.351823229994322"><ele>1039.5</ele><time>2026-05-03T13:11:51Z</time></trkpt><trkpt lat="41.74393725200597" lon="-2.35172045506493"><ele>1040.0</ele><time>2026-05-03T13:11:52Z</time></trkpt><trkpt lat="41.7439019607099" lon="-2.3516181102529097"><ele>1040.0</ele><time>2026-05-03T13:11:53Z</time></trkpt><trkpt lat="41.74386771433763" lon="-2.351519911567796"><ele>1040.0</ele><time>2026-05-03T13:11:54Z</time></trkpt><trkpt lat="41.743831316799586" lon="-2.3514195797850936"><ele>1040.0</ele><time>2026-05-03T13:11:55Z</time></trkpt><trkpt lat="41.743794010427635" lon="-2.351325961636322"><ele>1040.0</ele><time>2026-05-03T13:11:56Z</time></trkpt><trkpt lat="41.74376190386645" lon="-2.3512304389971628"><ele>1040.0</ele><time>2026-05-03T13:11:57Z</time></trkpt><trkpt lat="41.74372708568763" lon="-2.3511334680588747"><ele>1040.0</ele><time>2026-05-03T13:11:58Z</time></trkpt><trkpt lat="41.74369288678741" lon="-2.3510430083700458"><ele>1039.857142857143</ele><time>2026-05-03T13:11:59Z</time></trkpt><trkpt lat="41.74366351125273" lon="-2.3509497661447143"><ele>1039.7142857142858</ele><time>2026-05-03T13:12:00Z</time></trkpt><trkpt lat="41.743629146375454" lon="-2.3508589130315487"><ele>1039.5714285714284</ele><time>2026-05-03T13:12:01Z</time></trkpt><trkpt lat="41.74359446535852" lon="-2.350773224598978"><ele>1039.4285714285716</ele><time>2026-05-03T13:12:02Z</time></trkpt><trkpt lat="41.743562964233" lon="-2.350688186626582"><ele>1039.2857142857142</ele><time>2026-05-03T13:12:03Z</time></trkpt><trkpt lat="41.74353221832016" lon="-2.3505934167715967"><ele>1039.142857142857</ele><time>2026-05-03T13:12:04Z</time></trkpt><trkpt lat="41.743497898801564" lon="-2.350511262627553"><ele>1039.0</ele><time>2026-05-03T13:12:05Z</time></trkpt><trkpt lat="41.74346632590457" lon="-2.3504260195458873"><ele>1038.5714285714284</ele><time>2026-05-03T13:12:06Z</time></trkpt><trkpt lat="41.743434720674756" lon="-2.3503386415510197"><ele>1038.142857142857</ele><time>2026-05-03T13:12:07Z</time></trkpt><trkpt lat="41.74340261358458" lon="-2.3502508876496653"><ele>1037.7142857142858</ele><time>2026-05-03T13:12:08Z</time></trkpt><trkpt lat="41.74337254076442" lon="-2.350165594051845"><ele>1037.2857142857142</ele><time>2026-05-03T13:12:09Z</time></trkpt><trkpt lat="41.74334015725975" lon="-2.350077482947713"><ele>1036.857142857143</ele><time>2026-05-03T13:12:10Z</time></trkpt><trkpt lat="41.74330884914192" lon="-2.3499868816388707"><ele>1036.4285714285713</ele><time>2026-05-03T13:12:11Z</time></trkpt><trkpt lat="41.74327295806929" lon="-2.349900429699421"><ele>1036.0</ele><time>2026-05-03T13:12:12Z</time></trkpt><trkpt lat="41.74324422584191" lon="-2.349813900616911"><ele>1036.0</ele><time>2026-05-03T13:12:13Z</time></trkpt><trkpt lat="41.7432100885724" lon="-2.3497254151560503"><ele>1036.0</ele><time>2026-05-03T13:12:14.001Z</time></trkpt><trkpt lat="41.74318063764629" lon="-2.349634685861463"><ele>1036.0</ele><time>2026-05-03T13:12:15.001Z</time></trkpt><trkpt lat="41.743147136772464" lon="-2.349548681627581"><ele>1036.0</ele><time>2026-05-03T13:12:16.001Z</time></trkpt><trkpt lat="41.74311481193317" lon="-2.349462088595892"><ele>1036.0</ele><time>2026-05-03T13:12:17.001Z</time></trkpt><trkpt lat="41.743084822978055" lon="-2.3493778456144456"><ele>1036.0</ele><time>2026-05-03T13:12:18.001Z</time></trkpt><trkpt lat="41.74305568269355" lon="-2.3492926839104684"><ele>1036.0</ele><time>2026-05-03T13:12:19.001Z</time></trkpt><trkpt lat="41.74302540679985" lon="-2.349211161019538"><ele>1035.8333333333333</ele><time>2026-05-03T13:12:20.001Z</time></trkpt><trkpt lat="41.742996079116296" lon="-2.3491305199473294"><ele>1035.6666666666665</ele><time>2026-05-03T13:12:21.001Z</time></trkpt><trkpt lat="41.74296301061471" lon="-2.3490448141765987"><ele>1035.5</ele><time>2026-05-03T13:12:22.001Z</time></trkpt><trkpt lat="41.74293554229767" lon="-2.348964704706318"><ele>1035.3333333333333</ele><time>2026-05-03T13:12:23.001Z</time></trkpt><trkpt lat="41.742906472186654" lon="-2.3488848016178356"><ele>1035.1666666666667</ele><time>2026-05-03T13:12:24.001Z</time></trkpt><trkpt lat="41.74287444972237" lon="-2.348802347763885"><ele>1035.0</ele><time>2026-05-03T13:12:25.001Z</time></trkpt><trkpt lat="41.742816520082364" lon="-2.348644671350936"><ele>1034.75</ele><time>2026-05-03T13:12:27.001Z</time></trkpt><trkpt lat="41.74276162363812" lon="-2.3484940532023044"><ele>1034.5</ele><time>2026-05-03T13:12:29.001Z</time></trkpt><trkpt lat="41.74270780981683" lon="-2.348351085654954"><ele>1034.25</ele><time>2026-05-03T13:12:31.001Z</time></trkpt><trkpt lat="41.74265656124978" lon="-2.3482121445013613"><ele>1034.0</ele><time>2026-05-03T13:12:33.001Z</time></trkpt><trkpt lat="41.74260490321005" lon="-2.3480692707173483"><ele>1034.8333333333335</ele><time>2026-05-03T13:12:35.001Z</time></trkpt><trkpt lat="41.74255304438896" lon="-2.3479206600571674"><ele>1035.6666666666667</ele><time>2026-05-03T13:12:37.001Z</time></trkpt><trkpt lat="41.74252460181315" lon="-2.347843737393496"><ele>1036.5</ele><time>2026-05-03T13:12:38.001Z</time></trkpt><trkpt lat="41.74249613341905" lon="-2.3477664994225727"><ele>1037.3333333333333</ele><time>2026-05-03T13:12:39.001Z</time></trkpt><trkpt lat="41.74244245841871" lon="-2.3476203985753545"><ele>1038.1666666666665</ele><time>2026-05-03T13:12:41.001Z</time></trkpt><trkpt lat="41.7424141475626" lon="-2.3475449088312152"><ele>1039.0</ele><time>2026-05-03T13:12:42.001Z</time></trkpt><trkpt lat="41.74236216213501" lon="-2.347397502082519"><ele>1039.0</ele><time>2026-05-03T13:12:44.001Z</time></trkpt><trkpt lat="41.74230932001416" lon="-2.347253676137147"><ele>1039.0</ele><time>2026-05-03T13:12:46.001Z</time></trkpt><trkpt lat="41.74225558126362" lon="-2.3471112268332464"><ele>1039.0</ele><time>2026-05-03T13:12:48.001Z</time></trkpt><trkpt lat="41.74220696979746" lon="-2.3469863152820962"><ele>1039.0</ele><time>2026-05-03T13:12:50.001Z</time></trkpt><trkpt lat="41.742175754399646" lon="-2.3469032296738748"><ele>1039.0</ele><time>2026-05-03T13:12:52.001Z</time></trkpt><trkpt lat="41.74214843945119" lon="-2.3468230789378017"><ele>1039.6666666666665</ele><time>2026-05-03T13:23:04Z</time></trkpt><trkpt lat="41.74210838922376" lon="-2.346715181355964"><ele>1040.3333333333333</ele><time>2026-05-03T13:23:06Z</time></trkpt><trkpt lat="41.74205993107325" lon="-2.346572241763737"><ele>1041.0</ele><time>2026-05-03T13:23:08Z</time></trkpt><trkpt lat="41.74203155312088" lon="-2.346494797050246"><ele>1041.6666666666667</ele><time>2026-05-03T13:23:09Z</time></trkpt><trkpt lat="41.74199779850539" lon="-2.346410269328759"><ele>1042.3333333333335</ele><time>2026-05-03T13:23:10Z</time></trkpt><trkpt lat="41.74196619102608" lon="-2.3463181274620966"><ele>1043.0</ele><time>2026-05-03T13:23:11Z</time></trkpt><trkpt lat="41.74193208911755" lon="-2.346226236654248"><ele>1043.1666666666667</ele><time>2026-05-03T13:23:12Z</time></trkpt><trkpt lat="41.74189732966344" lon="-2.346129704768658"><ele>1043.3333333333335</ele><time>2026-05-03T13:23:13Z</time></trkpt><trkpt lat="41.74186054314492" lon="-2.3460300470599527"><ele>1043.5</ele><time>2026-05-03T13:23:14Z</time></trkpt><trkpt lat="41.741822199374" lon="-2.345926362104969"><ele>1043.6666666666667</ele><time>2026-05-03T13:23:15Z</time></trkpt><trkpt lat="41.741783290009394" lon="-2.3458211541144736"><ele>1043.8333333333333</ele><time>2026-05-03T13:23:16Z</time></trkpt><trkpt lat="41.74174456158528" lon="-2.3457145628562706"><ele>1044.0</ele><time>2026-05-03T13:23:17Z</time></trkpt><trkpt lat="41.74170736063199" lon="-2.3456070572672414"><ele>1043.0</ele><time>2026-05-03T13:23:18Z</time></trkpt><trkpt lat="41.74166504295219" lon="-2.3454933400292384"><ele>1042.0</ele><time>2026-05-03T13:23:19Z</time></trkpt><trkpt lat="41.74162512900003" lon="-2.3453829202710277"><ele>1041.0</ele><time>2026-05-03T13:23:20Z</time></trkpt><trkpt lat="41.741582970751" lon="-2.3452644625789105"><ele>1040.0</ele><time>2026-05-03T13:23:21Z</time></trkpt><trkpt lat="41.74154065077064" lon="-2.3451473922809734"><ele>1039.0</ele><time>2026-05-03T13:23:22Z</time></trkpt><trkpt lat="41.741494689087595" lon="-2.3450275064605735"><ele>1039.0</ele><time>2026-05-03T13:23:23Z</time></trkpt><trkpt lat="41.74145132870464" lon="-2.344908109641787"><ele>1039.0</ele><time>2026-05-03T13:23:24.001Z</time></trkpt><trkpt lat="41.7414080363346" lon="-2.344787407648196"><ele>1039.0</ele><time>2026-05-03T13:23:25.001Z</time></trkpt><trkpt lat="41.74136550158873" lon="-2.3446657679685527"><ele>1039.0</ele><time>2026-05-03T13:23:26.001Z</time></trkpt><trkpt lat="41.74132138265521" lon="-2.344542092631826"><ele>1039.0</ele><time>2026-05-03T13:23:27.001Z</time></trkpt><trkpt lat="41.74127856784644" lon="-2.3444152493593218"><ele>1039.2</ele><time>2026-05-03T13:23:28.001Z</time></trkpt><trkpt lat="41.74123205455865" lon="-2.3442906403947927"><ele>1039.4</ele><time>2026-05-03T13:23:29.001Z</time></trkpt><trkpt lat="41.74118314108845" lon="-2.3441638295009537"><ele>1039.6</ele><time>2026-05-03T13:23:30.001Z</time></trkpt><trkpt lat="41.74113410087966" lon="-2.344036585350982"><ele>1039.8</ele><time>2026-05-03T13:23:31.001Z</time></trkpt><trkpt lat="41.741086012274664" lon="-2.3439088875845973"><ele>1040.0</ele><time>2026-05-03T13:23:32.001Z</time></trkpt><trkpt lat="41.74103877834755" lon="-2.3437805030613035"><ele>1038.8</ele><time>2026-05-03T13:23:33.001Z</time></trkpt><trkpt lat="41.7409919744592" lon="-2.343654020981723"><ele>1037.6</ele><time>2026-05-03T13:23:34.001Z</time></trkpt><trkpt lat="41.740942079336165" lon="-2.343531110001401"><ele>1036.4</ele><time>2026-05-03T13:23:35.001Z</time></trkpt><trkpt lat="41.74089957658279" lon="-2.343394655556846"><ele>1035.2</ele><time>2026-05-03T13:23:36.001Z</time></trkpt><trkpt lat="41.74085218859728" lon="-2.3432633351560264"><ele>1034.0</ele><time>2026-05-03T13:23:37.001Z</time></trkpt><trkpt lat="41.740804684979636" lon="-2.343132186238232"><ele>1034.2</ele><time>2026-05-03T13:23:38.001Z</time></trkpt><trkpt lat="41.74075791238235" lon="-2.3430035699457745"><ele>1034.4</ele><time>2026-05-03T13:23:39.001Z</time></trkpt><trkpt lat="41.740709085773524" lon="-2.3428730385155907"><ele>1034.6</ele><time>2026-05-03T13:23:40.001Z</time></trkpt><trkpt lat="41.740664033800606" lon="-2.342743598438129"><ele>1034.8</ele><time>2026-05-03T13:23:41.001Z</time></trkpt><trkpt lat="41.74061724292481" lon="-2.3426131386248716"><ele>1035.0</ele><time>2026-05-03T13:23:42.001Z</time></trkpt><trkpt lat="41.74056683224149" lon="-2.342483284288412"><ele>1035.0</ele><time>2026-05-03T13:23:43.001Z</time></trkpt><trkpt lat="41.740518543253685" lon="-2.3423589893856476"><ele>1035.0</ele><time>2026-05-03T13:23:44.001Z</time></trkpt><trkpt lat="41.74047157358234" lon="-2.342229402710223"><ele>1035.0</ele><time>2026-05-03T13:23:45.001Z</time></trkpt><trkpt lat="41.74042616741527" lon="-2.3420973635334157"><ele>1035.0</ele><time>2026-05-03T13:23:46.001Z</time></trkpt><trkpt lat="41.740381174065135" lon="-2.341966239420847"><ele>1035.0</ele><time>2026-05-03T13:23:47.001Z</time></trkpt><trkpt lat="41.74033319981956" lon="-2.3418404659825813"><ele>1035.0</ele><time>2026-05-03T13:23:48.001Z</time></trkpt><trkpt lat="41.74028443034324" lon="-2.341709396178425"><ele>1035.0</ele><time>2026-05-03T13:23:49.001Z</time></trkpt><trkpt lat="41.7402363295629" lon="-2.3415787893104136"><ele>1035.0</ele><time>2026-05-03T13:23:50.001Z</time></trkpt><trkpt lat="41.74018987591221" lon="-2.3414469685521424"><ele>1035.0</ele><time>2026-05-03T13:23:51.001Z</time></trkpt><trkpt lat="41.74014236340663" lon="-2.341317184738049"><ele>1035.0</ele><time>2026-05-03T13:23:52.001Z</time></trkpt><trkpt lat="41.740095112230954" lon="-2.3411872530731825"><ele>1035.0</ele><time>2026-05-03T13:23:53.001Z</time></trkpt><trkpt lat="41.74004149071905" lon="-2.3410570037902247"><ele>1035.0</ele><time>2026-05-03T13:23:54.001Z</time></trkpt><trkpt lat="41.73999529309419" lon="-2.3409245628928397"><ele>1035.0</ele><time>2026-05-03T13:23:55.001Z</time></trkpt><trkpt lat="41.73994308695341" lon="-2.3407920361602685"><ele>1035.0</ele><time>2026-05-03T13:23:56.001Z</time></trkpt><trkpt lat="41.73989433469645" lon="-2.340658478756995"><ele>1035.0</ele><time>2026-05-03T13:23:57.001Z</time></trkpt><trkpt lat="41.73984532125964" lon="-2.3405241590185786"><ele>1034.6</ele><time>2026-05-03T13:23:58.001Z</time></trkpt><trkpt lat="41.73979849417558" lon="-2.340392366107138"><ele>1034.2</ele><time>2026-05-03T13:23:59.001Z</time></trkpt><trkpt lat="41.7397510847886" lon="-2.34026108302551"><ele>1033.8</ele><time>2026-05-03T13:24:00.001Z</time></trkpt><trkpt lat="41.73970443754361" lon="-2.3401344102573396"><ele>1033.4</ele><time>2026-05-03T13:24:01.001Z</time></trkpt><trkpt lat="41.73965722252111" lon="-2.3400060412861925"><ele>1033.0</ele><time>2026-05-03T13:24:02.001Z</time></trkpt><trkpt lat="41.73960969529943" lon="-2.339875525338238"><ele>1033.0</ele><time>2026-05-03T13:24:03.001Z</time></trkpt><trkpt lat="41.7395638266592" lon="-2.3397491814871083"><ele>1033.0</ele><time>2026-05-03T13:24:04.001Z</time></trkpt><trkpt lat="41.73951692416928" lon="-2.339619043810805"><ele>1033.0</ele><time>2026-05-03T13:24:05.001Z</time></trkpt><trkpt lat="41.73946857899201" lon="-2.3394884339752213"><ele>1033.0</ele><time>2026-05-03T13:24:06.001Z</time></trkpt><trkpt lat="41.739421682148226" lon="-2.3393594562257767"><ele>1033.0</ele><time>2026-05-03T13:24:07Z</time></trkpt><trkpt lat="41.73937513511906" lon="-2.33923241363517"><ele>1032.8</ele><time>2026-05-03T13:24:08Z</time></trkpt><trkpt lat="41.73933041170751" lon="-2.3391056768118883"><ele>1032.6</ele><time>2026-05-03T13:24:09Z</time></trkpt><trkpt lat="41.73928224623142" lon="-2.3389732053297925"><ele>1032.4</ele><time>2026-05-03T13:24:10Z</time></trkpt><trkpt lat="41.73923522781545" lon="-2.338844179093876"><ele>1032.2</ele><time>2026-05-03T13:24:11Z</time></trkpt><trkpt lat="41.739188000823475" lon="-2.338711691851644"><ele>1032.0</ele><time>2026-05-03T13:24:12Z</time></trkpt><trkpt lat="41.73914045256282" lon="-2.338581779015203"><ele>1032.0</ele><time>2026-05-03T13:24:13Z</time></trkpt><trkpt lat="41.7390929222009" lon="-2.3384548836926147"><ele>1032.0</ele><time>2026-05-03T13:24:14Z</time></trkpt><trkpt lat="41.739044047409905" lon="-2.338326416498793"><ele>1032.0</ele><time>2026-05-03T13:24:15Z</time></trkpt><trkpt lat="41.73899784491817" lon="-2.3381965446110144"><ele>1032.0</ele><time>2026-05-03T13:24:16Z</time></trkpt><trkpt lat="41.73895298986212" lon="-2.338069314746968"><ele>1032.0</ele><time>2026-05-03T13:24:17Z</time></trkpt><trkpt lat="41.73890498280704" lon="-2.3379414402047973"><ele>1032.4</ele><time>2026-05-03T13:24:18Z</time></trkpt><trkpt lat="41.73885882423465" lon="-2.337814863600451"><ele>1032.8000000000002</ele><time>2026-05-03T13:24:19Z</time></trkpt><trkpt lat="41.73881103084054" lon="-2.3376857571245915"><ele>1033.2</ele><time>2026-05-03T13:24:20Z</time></trkpt><trkpt lat="41.73876521891184" lon="-2.3375561228285124"><ele>1033.6000000000001</ele><time>2026-05-03T13:24:21Z</time></trkpt><trkpt lat="41.738718021258535" lon="-2.337426912505393"><ele>1034.0</ele><time>2026-05-03T13:24:22Z</time></trkpt><trkpt lat="41.738670006554706" lon="-2.337297488677654"><ele>1034.2</ele><time>2026-05-03T13:24:23Z</time></trkpt><trkpt lat="41.73862261578397" lon="-2.3371664964331322"><ele>1034.4</ele><time>2026-05-03T13:24:24Z</time></trkpt><trkpt lat="41.73857570683647" lon="-2.33703797490279"><ele>1034.6</ele><time>2026-05-03T13:24:25Z</time></trkpt><trkpt lat="41.73852943302113" lon="-2.3369078021099363"><ele>1034.8</ele><time>2026-05-03T13:24:26Z</time></trkpt><trkpt lat="41.73848139813459" lon="-2.336779233044422"><ele>1035.0</ele><time>2026-05-03T13:24:27Z</time></trkpt><trkpt lat="41.73843244926231" lon="-2.3366487027793457"><ele>1034.4</ele><time>2026-05-03T13:24:28Z</time></trkpt><trkpt lat="41.73838423852547" lon="-2.3365210374792826"><ele>1033.8</ele><time>2026-05-03T13:24:29Z</time></trkpt><trkpt lat="41.738337249162704" lon="-2.336387140953344"><ele>1033.2</ele><time>2026-05-03T13:24:30Z</time></trkpt><trkpt lat="41.738289825517" lon="-2.33625767945691"><ele>1032.6</ele><time>2026-05-03T13:24:31Z</time></trkpt><trkpt lat="41.73824214639689" lon="-2.336128301178727"><ele>1032.0</ele><time>2026-05-03T13:24:32Z</time></trkpt><trkpt lat="41.73819520924388" lon="-2.3359960653037257"><ele>1032.0</ele><time>2026-05-03T13:24:33Z</time></trkpt><trkpt lat="41.738147222190726" lon="-2.335866925149545"><ele>1032.0</ele><time>2026-05-03T13:24:34Z</time></trkpt><trkpt lat="41.73809838855127" lon="-2.335735362443388"><ele>1032.0</ele><time>2026-05-03T13:24:35Z</time></trkpt><trkpt lat="41.738049431283976" lon="-2.3356028903365"><ele>1032.0</ele><time>2026-05-03T13:24:36Z</time></trkpt><trkpt lat="41.738003085034876" lon="-2.335476271240573"><ele>1032.0</ele><time>2026-05-03T13:24:37Z</time></trkpt><trkpt lat="41.73795282769609" lon="-2.3353306361438024"><ele>1032.2</ele><time>2026-05-03T13:24:38Z</time></trkpt><trkpt lat="41.73790641850221" lon="-2.3352263160535482"><ele>1032.4</ele><time>2026-05-03T13:24:39Z</time></trkpt><trkpt lat="41.737871168219996" lon="-2.3351498177466046"><ele>1032.6</ele><time>2026-05-03T13:24:40Z</time></trkpt><trkpt lat="41.73780972780646" lon="-2.334934745858531"><ele>1032.8</ele><time>2026-05-03T13:24:41Z</time></trkpt><trkpt lat="41.737761927580664" lon="-2.334804652226279"><ele>1033.0</ele><time>2026-05-03T13:24:42Z</time></trkpt><trkpt lat="41.737710364385144" lon="-2.3346675872447147"><ele>1032.6</ele><time>2026-05-03T13:24:43Z</time></trkpt><trkpt lat="41.737660687451594" lon="-2.334534412069094"><ele>1032.1999999999998</ele><time>2026-05-03T13:24:44Z</time></trkpt><trkpt lat="41.737611807541946" lon="-2.334401739450748"><ele>1031.8</ele><time>2026-05-03T13:24:45Z</time></trkpt><trkpt lat="41.73756473692253" lon="-2.334272067400664"><ele>1031.3999999999999</ele><time>2026-05-03T13:24:46Z</time></trkpt><trkpt lat="41.73751763161616" lon="-2.334141295346297"><ele>1031.0</ele><time>2026-05-03T13:24:47Z</time></trkpt><trkpt lat="41.737470032051796" lon="-2.3340119937662207"><ele>1031.2</ele><time>2026-05-03T13:24:48Z</time></trkpt><trkpt lat="41.737416890695485" lon="-2.333882168498643"><ele>1031.3999999999999</ele><time>2026-05-03T13:24:49Z</time></trkpt><trkpt lat="41.7373701155871" lon="-2.333753525465251"><ele>1031.6</ele><time>2026-05-03T13:24:50Z</time></trkpt><trkpt lat="41.737322374897865" lon="-2.333625364871015"><ele>1031.8</ele><time>2026-05-03T13:24:51Z</time></trkpt><trkpt lat="41.73727585210689" lon="-2.333496455960819"><ele>1032.0</ele><time>2026-05-03T13:24:52Z</time></trkpt><trkpt lat="41.73723023743549" lon="-2.3333634904266862"><ele>1032.0</ele><time>2026-05-03T13:24:53Z</time></trkpt><trkpt lat="41.73718495610031" lon="-2.3332339563125255"><ele>1032.0</ele><time>2026-05-03T13:24:54Z</time></trkpt><trkpt lat="41.73713569148063" lon="-2.33310129168578"><ele>1032.0</ele><time>2026-05-03T13:24:55Z</time></trkpt><trkpt lat="41.73708668878432" lon="-2.3329704253060872"><ele>1032.0</ele><time>2026-05-03T13:24:56Z</time></trkpt><trkpt lat="41.737038878255625" lon="-2.332840047797665"><ele>1032.0</ele><time>2026-05-03T13:24:57Z</time></trkpt><trkpt lat="41.736992281574885" lon="-2.332710010664971"><ele>1032.0</ele><time>2026-05-03T13:24:58Z</time></trkpt><trkpt lat="41.73694399953052" lon="-2.33257754014266"><ele>1032.0</ele><time>2026-05-03T13:24:59Z</time></trkpt><trkpt lat="41.73689409211997" lon="-2.332447394096585"><ele>1032.0</ele><time>2026-05-03T13:25:00Z</time></trkpt><trkpt lat="41.7368510700302" lon="-2.3323171889809746"><ele>1032.0</ele><time>2026-05-03T13:25:01Z</time></trkpt><trkpt lat="41.73680030669922" lon="-2.3321886714276157"><ele>1032.0</ele><time>2026-05-03T13:25:02Z</time></trkpt><trkpt lat="41.73675511575031" lon="-2.332059985445252"><ele>1032.0</ele><time>2026-05-03T13:25:03Z</time></trkpt><trkpt lat="41.73671053448135" lon="-2.331929916202811"><ele>1032.0</ele><time>2026-05-03T13:25:04Z</time></trkpt><trkpt lat="41.73666322859468" lon="-2.3318037524078084"><ele>1032.0</ele><time>2026-05-03T13:25:05Z</time></trkpt><trkpt lat="41.7366168398265" lon="-2.3316779689253093"><ele>1032.0</ele><time>2026-05-03T13:25:06Z</time></trkpt><trkpt lat="41.736572173365076" lon="-2.3315507814128806"><ele>1032.0</ele><time>2026-05-03T13:25:07Z</time></trkpt><trkpt lat="41.73652864655585" lon="-2.3314244454211828"><ele>1032.6</ele><time>2026-05-03T13:25:08Z</time></trkpt><trkpt lat="41.73646766441839" lon="-2.3313069275563874"><ele>1033.2</ele><time>2026-05-03T13:25:09Z</time></trkpt><trkpt lat="41.73642249049601" lon="-2.331183963445706"><ele>1033.8</ele><time>2026-05-03T13:25:10Z</time></trkpt><trkpt lat="41.736390753130195" lon="-2.3310487501552024"><ele>1034.4</ele><time>2026-05-03T13:25:11Z</time></trkpt><trkpt lat="41.73634256852889" lon="-2.330922615400152"><ele>1035.0</ele><time>2026-05-03T13:25:12Z</time></trkpt><trkpt lat="41.73629697382337" lon="-2.3307943670893807"><ele>1035.0</ele><time>2026-05-03T13:25:13Z</time></trkpt><trkpt lat="41.73625181725981" lon="-2.3306649420492094"><ele>1035.0</ele><time>2026-05-03T13:25:14Z</time></trkpt><trkpt lat="41.73620564415531" lon="-2.3305372531848088"><ele>1035.0</ele><time>2026-05-03T13:25:15Z</time></trkpt><trkpt lat="41.73616004066027" lon="-2.330410058866356"><ele>1035.0</ele><time>2026-05-03T13:25:16Z</time></trkpt><trkpt lat="41.73611356407921" lon="-2.330284356832293"><ele>1035.0</ele><time>2026-05-03T13:25:17Z</time></trkpt><trkpt lat="41.73606725629314" lon="-2.330158876856477"><ele>1035.2</ele><time>2026-05-03T13:25:18Z</time></trkpt><trkpt lat="41.73602246389968" lon="-2.330034739219879"><ele>1035.4</ele><time>2026-05-03T13:25:19Z</time></trkpt><trkpt lat="41.735976693738344" lon="-2.3299135575797467"><ele>1035.6</ele><time>2026-05-03T13:25:20Z</time></trkpt><trkpt lat="41.735932960095504" lon="-2.3297918016683687"><ele>1035.8</ele><time>2026-05-03T13:25:21Z</time></trkpt><trkpt lat="41.73589094697626" lon="-2.329671987171027"><ele>1036.0</ele><time>2026-05-03T13:25:22Z</time></trkpt><trkpt lat="41.73584837998214" lon="-2.329553013546592"><ele>1036.0</ele><time>2026-05-03T13:25:23Z</time></trkpt><trkpt lat="41.73580462307907" lon="-2.3294361128974006"><ele>1036.0</ele><time>2026-05-03T13:25:24Z</time></trkpt><trkpt lat="41.735764674552044" lon="-2.3293265147046123"><ele>1036.0</ele><time>2026-05-03T13:25:25Z</time></trkpt><trkpt lat="41.73572409125945" lon="-2.3292111577213257"><ele>1036.0</ele><time>2026-05-03T13:25:26Z</time></trkpt><trkpt lat="41.73568401644225" lon="-2.329099274016825"><ele>1036.0</ele><time>2026-05-03T13:25:27Z</time></trkpt><trkpt lat="41.73564302672973" lon="-2.328989757031399"><ele>1036.8</ele><time>2026-05-03T13:25:28Z</time></trkpt><trkpt lat="41.73558824343583" lon="-2.3288891349512997"><ele>1037.6</ele><time>2026-05-03T13:25:29Z</time></trkpt><trkpt lat="41.735561312075205" lon="-2.3287691930350523"><ele>1038.4</ele><time>2026-05-03T13:25:30Z</time></trkpt><trkpt lat="41.73551966282285" lon="-2.3286580221832205"><ele>1039.2</ele><time>2026-05-03T13:25:31Z</time></trkpt><trkpt lat="41.73547710498978" lon="-2.328548386173077"><ele>1040.0</ele><time>2026-05-03T13:25:32Z</time></trkpt><trkpt lat="41.73543563612734" lon="-2.328438758448756"><ele>1040.0</ele><time>2026-05-03T13:25:33Z</time></trkpt><trkpt lat="41.735396631357304" lon="-2.3283243588602853"><ele>1040.0</ele><time>2026-05-03T13:25:34Z</time></trkpt><trkpt lat="41.73535494799299" lon="-2.328210627894792"><ele>1040.0</ele><time>2026-05-03T13:25:35Z</time></trkpt><trkpt lat="41.735314219366785" lon="-2.3280989104481113"><ele>1040.0</ele><time>2026-05-03T13:25:36.001Z</time></trkpt><trkpt lat="41.73527265726193" lon="-2.3279863142883133"><ele>1040.0</ele><time>2026-05-03T13:25:37.001Z</time></trkpt><trkpt lat="41.73521797215148" lon="-2.3278823143522294"><ele>1040.2</ele><time>2026-05-03T13:25:38.001Z</time></trkpt><trkpt lat="41.73517369578743" lon="-2.327761203878973"><ele>1040.4</ele><time>2026-05-03T13:25:39.001Z</time></trkpt><trkpt lat="41.735146724520256" lon="-2.327644687084436"><ele>1040.6</ele><time>2026-05-03T13:25:40.001Z</time></trkpt><trkpt lat="41.73510311758439" lon="-2.3275258757470394"><ele>1040.8</ele><time>2026-05-03T13:25:41.001Z</time></trkpt><trkpt lat="41.73505825886959" lon="-2.32740858225238"><ele>1041.0</ele><time>2026-05-03T13:25:42.001Z</time></trkpt><trkpt lat="41.73501558971101" lon="-2.3272830407226035"><ele>1041.2</ele><time>2026-05-03T13:25:43.001Z</time></trkpt><trkpt lat="41.734972578525586" lon="-2.3271647272082023"><ele>1041.3999999999999</ele><time>2026-05-03T13:25:44.001Z</time></trkpt><trkpt lat="41.73492788521893" lon="-2.3270437664031225"><ele>1041.6</ele><time>2026-05-03T13:25:45.001Z</time></trkpt><trkpt lat="41.73488320254487" lon="-2.3269207608501326"><ele>1041.8</ele><time>2026-05-03T13:25:46.001Z</time></trkpt><trkpt lat="41.73483585330132" lon="-2.3267979232140723"><ele>1042.0</ele><time>2026-05-03T13:25:47.001Z</time></trkpt><trkpt lat="41.734793191167896" lon="-2.3266706567413444"><ele>1042.0</ele><time>2026-05-03T13:25:48.001Z</time></trkpt><trkpt lat="41.734746569264836" lon="-2.326545402720424"><ele>1042.0</ele><time>2026-05-03T13:25:49.001Z</time></trkpt><trkpt lat="41.73469875603925" lon="-2.3264219212574813"><ele>1042.0</ele><time>2026-05-03T13:25:50.001Z</time></trkpt><trkpt lat="41.7346521980147" lon="-2.3262955279659874"><ele>1042.0</ele><time>2026-05-03T13:25:51.001Z</time></trkpt><trkpt lat="41.734605191609866" lon="-2.3261651180111014"><ele>1042.0</ele><time>2026-05-03T13:25:52.001Z</time></trkpt><trkpt lat="41.7345584026669" lon="-2.32603947138531"><ele>1042.2</ele><time>2026-05-03T13:25:53.001Z</time></trkpt><trkpt lat="41.73451148902354" lon="-2.325908568155481"><ele>1042.4</ele><time>2026-05-03T13:25:54.001Z</time></trkpt><trkpt lat="41.73446501495183" lon="-2.3257793613426445"><ele>1042.6</ele><time>2026-05-03T13:25:55.001Z</time></trkpt><trkpt lat="41.7344184148421" lon="-2.3256540573317452"><ele>1042.8</ele><time>2026-05-03T13:25:56.001Z</time></trkpt><trkpt lat="41.73437132910235" lon="-2.3255260908301323"><ele>1043.0</ele><time>2026-05-03T13:25:57.001Z</time></trkpt><trkpt lat="41.73432399404084" lon="-2.325395082137632"><ele>1043.0</ele><time>2026-05-03T13:25:58.001Z</time></trkpt><trkpt lat="41.7342766351285" lon="-2.325268486796381"><ele>1043.0</ele><time>2026-05-03T13:25:59.001Z</time></trkpt><trkpt lat="41.73423071721753" lon="-2.3251350990178894"><ele>1043.0</ele><time>2026-05-03T13:26:00.001Z</time></trkpt><trkpt lat="41.73418274306008" lon="-2.325005497110475"><ele>1043.0</ele><time>2026-05-03T13:26:01.001Z</time></trkpt><trkpt lat="41.73413268748663" lon="-2.3248770975741317"><ele>1043.0</ele><time>2026-05-03T13:26:02.001Z</time></trkpt><trkpt lat="41.73408512476862" lon="-2.324749439886324"><ele>1043.2</ele><time>2026-05-03T13:26:03.001Z</time></trkpt><trkpt lat="41.734034436452234" lon="-2.3246154763774562"><ele>1043.4</ele><time>2026-05-03T13:26:04.001Z</time></trkpt><trkpt lat="41.73398599385282" lon="-2.3244812727021955"><ele>1043.6000000000001</ele><time>2026-05-03T13:26:05.001Z</time></trkpt><trkpt lat="41.73393842000673" lon="-2.324346883876554"><ele>1043.8</ele><time>2026-05-03T13:26:06.001Z</time></trkpt><trkpt lat="41.73389112609595" lon="-2.3242308284801614"><ele>1044.0</ele><time>2026-05-03T13:26:07.001Z</time></trkpt><trkpt lat="41.73384467541184" lon="-2.3240827113452607"><ele>1044.0</ele><time>2026-05-03T13:26:08.001Z</time></trkpt><trkpt lat="41.73379407437447" lon="-2.323957654335478"><ele>1044.0</ele><time>2026-05-03T13:26:09.001Z</time></trkpt><trkpt lat="41.73374994629105" lon="-2.3238317439161675"><ele>1044.0</ele><time>2026-05-03T13:26:10.001Z</time></trkpt><trkpt lat="41.733705648552" lon="-2.3237040420829524"><ele>1044.0</ele><time>2026-05-03T13:26:11.001Z</time></trkpt><trkpt lat="41.733657403484514" lon="-2.32358011426129"><ele>1044.0</ele><time>2026-05-03T13:26:12.001Z</time></trkpt><trkpt lat="41.733612999791625" lon="-2.3234592085856067"><ele>1044.4</ele><time>2026-05-03T13:26:12.999Z</time></trkpt><trkpt lat="41.733569222750596" lon="-2.323336206797321"><ele>1044.8000000000002</ele><time>2026-05-03T13:26:13.999Z</time></trkpt><trkpt lat="41.73352453377915" lon="-2.3232152278743445"><ele>1045.1999999999998</ele><time>2026-05-03T13:26:14.999Z</time></trkpt><trkpt lat="41.73347950261188" lon="-2.323095949553421"><ele>1045.6</ele><time>2026-05-03T13:26:15.999Z</time></trkpt><trkpt lat="41.733437207644556" lon="-2.322977753591958"><ele>1046.0</ele><time>2026-05-03T13:26:16.999Z</time></trkpt><trkpt lat="41.73339434330311" lon="-2.3228534743062714"><ele>1046.0</ele><time>2026-05-03T13:26:17.999Z</time></trkpt><trkpt lat="41.733351334866306" lon="-2.322738894929616"><ele>1046.0</ele><time>2026-05-03T13:26:18.999Z</time></trkpt><trkpt lat="41.733308949379285" lon="-2.3226195374509384"><ele>1046.0</ele><time>2026-05-03T13:26:19.999Z</time></trkpt><trkpt lat="41.733265054105765" lon="-2.3225023406515417"><ele>1046.0</ele><time>2026-05-03T13:26:20.999Z</time></trkpt><trkpt lat="41.73322209733656" lon="-2.322381847607159"><ele>1046.0</ele><time>2026-05-03T13:26:21.999Z</time></trkpt><trkpt lat="41.73317855756885" lon="-2.3222654315431344"><ele>1046.2</ele><time>2026-05-03T13:26:22.999Z</time></trkpt><trkpt lat="41.73313285462859" lon="-2.322143330699465"><ele>1046.3999999999999</ele><time>2026-05-03T13:26:23.999Z</time></trkpt><trkpt lat="41.73308998986345" lon="-2.3220254351242446"><ele>1046.6</ele><time>2026-05-03T13:26:24.999Z</time></trkpt><trkpt lat="41.73304526300076" lon="-2.321903520047007"><ele>1046.8</ele><time>2026-05-03T13:26:25.999Z</time></trkpt><trkpt lat="41.73300071894613" lon="-2.321780200525625"><ele>1047.0</ele><time>2026-05-03T13:26:26.999Z</time></trkpt><trkpt lat="41.73295519431377" lon="-2.3216564264372574"><ele>1047.0</ele><time>2026-05-03T13:26:27.999Z</time></trkpt><trkpt lat="41.73291019333382" lon="-2.3215333361939163"><ele>1047.0</ele><time>2026-05-03T13:26:29Z</time></trkpt><trkpt lat="41.732865629446735" lon="-2.3214054862462414"><ele>1047.0</ele><time>2026-05-03T13:26:30Z</time></trkpt><trkpt lat="41.73281794374797" lon="-2.321277718855511"><ele>1047.0</ele><time>2026-05-03T13:26:31Z</time></trkpt><trkpt lat="41.7327703624156" lon="-2.3211492624740635"><ele>1047.0</ele><time>2026-05-03T13:26:32Z</time></trkpt><trkpt lat="41.73272147453448" lon="-2.321017437373164"><ele>1047.2</ele><time>2026-05-03T13:26:33Z</time></trkpt><trkpt lat="41.732670184749324" lon="-2.320882694453325"><ele>1047.4</ele><time>2026-05-03T13:26:34Z</time></trkpt><trkpt lat="41.732623111726326" lon="-2.320765739483606"><ele>1047.6</ele><time>2026-05-03T13:26:35Z</time></trkpt><trkpt lat="41.732574132590756" lon="-2.320618493380753"><ele>1047.8</ele><time>2026-05-03T13:26:36Z</time></trkpt><trkpt lat="41.73251187175596" lon="-2.3204958167544625"><ele>1048.0</ele><time>2026-05-03T13:26:37Z</time></trkpt><trkpt lat="41.732462982220916" lon="-2.3203632133143377"><ele>1048.2</ele><time>2026-05-03T13:26:38Z</time></trkpt><trkpt lat="41.7324148429253" lon="-2.3202326453101594"><ele>1048.4</ele><time>2026-05-03T13:26:39Z</time></trkpt><trkpt lat="41.73236706231093" lon="-2.3201030499454953"><ele>1048.6000000000001</ele><time>2026-05-03T13:26:40Z</time></trkpt><trkpt lat="41.73231934363424" lon="-2.3199736224127583"><ele>1048.8</ele><time>2026-05-03T13:26:41Z</time></trkpt><trkpt lat="41.7322722901816" lon="-2.319844914695351"><ele>1049.0</ele><time>2026-05-03T13:26:42Z</time></trkpt><trkpt lat="41.732223876519285" lon="-2.319711554753334"><ele>1049.0</ele><time>2026-05-03T13:26:43Z</time></trkpt><trkpt lat="41.73217639314645" lon="-2.3195807574282568"><ele>1049.0</ele><time>2026-05-03T13:26:44Z</time></trkpt><trkpt lat="41.732127779236826" lon="-2.3194468457931254"><ele>1049.0</ele><time>2026-05-03T13:26:45Z</time></trkpt><trkpt lat="41.732078485050124" lon="-2.3193110605344174"><ele>1049.0</ele><time>2026-05-03T13:26:46Z</time></trkpt><trkpt lat="41.73202999538188" lon="-2.319177491005131"><ele>1049.0</ele><time>2026-05-03T13:26:47Z</time></trkpt><trkpt lat="41.731981629216136" lon="-2.3190442618847737"><ele>1049.0</ele><time>2026-05-03T13:26:48Z</time></trkpt><trkpt lat="41.7319328645725" lon="-2.318909935112862"><ele>1049.0</ele><time>2026-05-03T13:26:49Z</time></trkpt><trkpt lat="41.73188405570142" lon="-2.31877594407682"><ele>1049.0</ele><time>2026-05-03T13:26:50Z</time></trkpt><trkpt lat="41.73183557662676" lon="-2.3186437422000346"><ele>1049.0</ele><time>2026-05-03T13:26:51Z</time></trkpt><trkpt lat="41.731786680615855" lon="-2.318510403542239"><ele>1049.0</ele><time>2026-05-03T13:26:52Z</time></trkpt><trkpt lat="41.73173825404918" lon="-2.3183783445670354"><ele>1048.0</ele><time>2026-05-03T13:26:53Z</time></trkpt><trkpt lat="41.73168915870736" lon="-2.3182444622124505"><ele>1047.0</ele><time>2026-05-03T13:26:54Z</time></trkpt><trkpt lat="41.73163918230953" lon="-2.3181081585536436"><ele>1046.0</ele><time>2026-05-03T13:26:55Z</time></trkpt><trkpt lat="41.73158924692242" lon="-2.3179718344891285"><ele>1045.0</ele><time>2026-05-03T13:26:56Z</time></trkpt><trkpt lat="41.73154018717327" lon="-2.3178379007764955"><ele>1044.0</ele><time>2026-05-03T13:26:57Z</time></trkpt><trkpt lat="41.73149095830985" lon="-2.317703505619681"><ele>1044.0</ele><time>2026-05-03T13:26:58Z</time></trkpt><trkpt lat="41.731443640645004" lon="-2.317574327835127"><ele>1044.0</ele><time>2026-05-03T13:26:59Z</time></trkpt><trkpt lat="41.731395836233176" lon="-2.3174438213752877"><ele>1044.0</ele><time>2026-05-03T13:27:00Z</time></trkpt><trkpt lat="41.73134731344608" lon="-2.3173113537284187"><ele>1044.0</ele><time>2026-05-03T13:27:01Z</time></trkpt><trkpt lat="41.73129842550665" lon="-2.317177888752273"><ele>1044.0</ele><time>2026-05-03T13:27:02Z</time></trkpt><trkpt lat="41.731250639086674" lon="-2.317047431378289"><ele>1043.4</ele><time>2026-05-03T13:27:03Z</time></trkpt><trkpt lat="41.731200886149175" lon="-2.316911605169043"><ele>1042.8000000000002</ele><time>2026-05-03T13:27:04Z</time></trkpt><trkpt lat="41.73115223002158" lon="-2.3167787734535317"><ele>1042.1999999999998</ele><time>2026-05-03T13:27:05Z</time></trkpt><trkpt lat="41.731103949237045" lon="-2.316646966465963"><ele>1041.6</ele><time>2026-05-03T13:27:06Z</time></trkpt><trkpt lat="41.731054625545845" lon="-2.316512311813064"><ele>1041.0</ele><time>2026-05-03T13:27:07Z</time></trkpt><trkpt lat="41.73100646266713" lon="-2.3163808268321073"><ele>1041.0</ele><time>2026-05-03T13:27:08Z</time></trkpt><trkpt lat="41.730957740331" lon="-2.3162478145630137"><ele>1041.0</ele><time>2026-05-03T13:27:09Z</time></trkpt><trkpt lat="41.73090815810748" lon="-2.3161124545116265"><ele>1041.0</ele><time>2026-05-03T13:27:10Z</time></trkpt><trkpt lat="41.73086000045222" lon="-2.315980983636626"><ele>1041.0</ele><time>2026-05-03T13:27:11Z</time></trkpt><trkpt lat="41.73081024205858" lon="-2.3158456887496133"><ele>1041.0</ele><time>2026-05-03T13:27:12Z</time></trkpt><trkpt lat="41.730760495933374" lon="-2.3157108363305325"><ele>1041.0</ele><time>2026-05-03T13:27:13Z</time></trkpt><trkpt lat="41.73071163859789" lon="-2.3155783942560078"><ele>1041.0</ele><time>2026-05-03T13:27:14Z</time></trkpt><trkpt lat="41.73066060260721" lon="-2.3154400462550804"><ele>1041.0</ele><time>2026-05-03T13:27:15Z</time></trkpt><trkpt lat="41.73060928909467" lon="-2.315300945928895"><ele>1041.0</ele><time>2026-05-03T13:27:16Z</time></trkpt><trkpt lat="41.730569473088956" lon="-2.31515548262293"><ele>1040.75</ele><time>2026-05-03T13:27:17Z</time></trkpt><trkpt lat="41.73051486018218" lon="-2.3150204064402606"><ele>1040.5</ele><time>2026-05-03T13:27:18Z</time></trkpt><trkpt lat="41.73046376253628" lon="-2.314883753227283"><ele>1040.25</ele><time>2026-05-03T13:27:19Z</time></trkpt><trkpt lat="41.73041473430451" lon="-2.3147502368435164"><ele>1040.0</ele><time>2026-05-03T13:27:20Z</time></trkpt><trkpt lat="41.7303641973432" lon="-2.3146147162713646"><ele>1039.25</ele><time>2026-05-03T13:27:21Z</time></trkpt><trkpt lat="41.730315575366824" lon="-2.314477594900113"><ele>1038.5</ele><time>2026-05-03T13:27:22Z</time></trkpt><trkpt lat="41.730267878977216" lon="-2.314344146187785"><ele>1037.75</ele><time>2026-05-03T13:27:23Z</time></trkpt><trkpt lat="41.73021670115192" lon="-2.3142054741669917"><ele>1037.0</ele><time>2026-05-03T13:27:24Z</time></trkpt><trkpt lat="41.730165533683476" lon="-2.314067292964298"><ele>1036.2</ele><time>2026-05-03T13:27:25Z</time></trkpt><trkpt lat="41.73011455550926" lon="-2.313935124941527"><ele>1035.4</ele><time>2026-05-03T13:27:26Z</time></trkpt><trkpt lat="41.73006744173549" lon="-2.3137996533082936"><ele>1034.6</ele><time>2026-05-03T13:27:27Z</time></trkpt><trkpt lat="41.73001860897926" lon="-2.3136646200796678"><ele>1033.8</ele><time>2026-05-03T13:27:28Z</time></trkpt><trkpt lat="41.729970712865985" lon="-2.3135286880183332"><ele>1033.0</ele><time>2026-05-03T13:27:29Z</time></trkpt><trkpt lat="41.729919775170224" lon="-2.3133961832521717"><ele>1033.0</ele><time>2026-05-03T13:27:30Z</time></trkpt><trkpt lat="41.72987344478598" lon="-2.3132578433866637"><ele>1033.0</ele><time>2026-05-03T13:27:31Z</time></trkpt><trkpt lat="41.72982163214773" lon="-2.3131235954173737"><ele>1033.0</ele><time>2026-05-03T13:27:32Z</time></trkpt><trkpt lat="41.72977447008453" lon="-2.312986186742498"><ele>1033.0</ele><time>2026-05-03T13:27:33Z</time></trkpt><trkpt lat="41.729726670361586" lon="-2.312852753771852"><ele>1033.0</ele><time>2026-05-03T13:27:34Z</time></trkpt><trkpt lat="41.72967817830182" lon="-2.312719818280968"><ele>1032.75</ele><time>2026-05-03T13:27:35Z</time></trkpt><trkpt lat="41.72962843926644" lon="-2.312576162540413"><ele>1032.5</ele><time>2026-05-03T13:27:36Z</time></trkpt><trkpt lat="41.729578569514565" lon="-2.3124501847100465"><ele>1032.25</ele><time>2026-05-03T13:27:37Z</time></trkpt><trkpt lat="41.72953289448302" lon="-2.312312514088419"><ele>1032.0</ele><time>2026-05-03T13:27:38Z</time></trkpt><trkpt lat="41.7294689007379" lon="-2.312184764879191"><ele>1031.25</ele><time>2026-05-03T13:27:39Z</time></trkpt><trkpt lat="41.729432312079744" lon="-2.312042767190959"><ele>1030.5</ele><time>2026-05-03T13:27:40Z</time></trkpt><trkpt lat="41.72938432194309" lon="-2.3119052552434955"><ele>1029.75</ele><time>2026-05-03T13:27:41Z</time></trkpt><trkpt lat="41.729334162947396" lon="-2.3117668681852117"><ele>1029.0</ele><time>2026-05-03T13:27:42Z</time></trkpt><trkpt lat="41.729284845330824" lon="-2.3116294808342395"><ele>1028.5</ele><time>2026-05-03T13:27:43Z</time></trkpt><trkpt lat="41.72923432078844" lon="-2.311490540335556"><ele>1028.0</ele><time>2026-05-03T13:27:44.001Z</time></trkpt><trkpt lat="41.72918496562379" lon="-2.3113523047169466"><ele>1027.5</ele><time>2026-05-03T13:27:45.001Z</time></trkpt><trkpt lat="41.72913502299836" lon="-2.3112154526552042"><ele>1027.0</ele><time>2026-05-03T13:27:46.001Z</time></trkpt><trkpt lat="41.72908607418144" lon="-2.3110795343983894"><ele>1027.0</ele><time>2026-05-03T13:27:47.001Z</time></trkpt><trkpt lat="41.72903689798471" lon="-2.3109413884542365"><ele>1027.0</ele><time>2026-05-03T13:27:48.001Z</time></trkpt><trkpt lat="41.72898690545223" lon="-2.3108057346147985"><ele>1027.0</ele><time>2026-05-03T13:27:49.001Z</time></trkpt><trkpt lat="41.72893653003061" lon="-2.3106674897396435"><ele>1027.0</ele><time>2026-05-03T13:27:50.001Z</time></trkpt><trkpt lat="41.72888420578525" lon="-2.310532197528105"><ele>1026.75</ele><time>2026-05-03T13:27:51.001Z</time></trkpt><trkpt lat="41.72883651809743" lon="-2.310398415317343"><ele>1026.5</ele><time>2026-05-03T13:27:52.001Z</time></trkpt><trkpt lat="41.72878539961079" lon="-2.3102599419315695"><ele>1026.25</ele><time>2026-05-03T13:27:53.001Z</time></trkpt><trkpt lat="41.72873509625272" lon="-2.3101195506455334"><ele>1026.0</ele><time>2026-05-03T13:27:54.001Z</time></trkpt><trkpt lat="41.72868571156165" lon="-2.3099802086501335"><ele>1026.0</ele><time>2026-05-03T13:27:55.001Z</time></trkpt><trkpt lat="41.728636732114744" lon="-2.3098396504336227"><ele>1026.0</ele><time>2026-05-03T13:27:56.001Z</time></trkpt><trkpt lat="41.72858532398098" lon="-2.3097044428582723"><ele>1026.0</ele><time>2026-05-03T13:27:57.001Z</time></trkpt><trkpt lat="41.72853570687909" lon="-2.3095663386096437"><ele>1026.0</ele><time>2026-05-03T13:27:58.001Z</time></trkpt><trkpt lat="41.72848449302705" lon="-2.30942960407459"><ele>1025.5</ele><time>2026-05-03T13:27:59.001Z</time></trkpt><trkpt lat="41.72843505482047" lon="-2.309290074902262"><ele>1025.0</ele><time>2026-05-03T13:28:00.001Z</time></trkpt><trkpt lat="41.72838402841693" lon="-2.3091517263185852"><ele>1024.5</ele><time>2026-05-03T13:28:01.001Z</time></trkpt><trkpt lat="41.72832868832219" lon="-2.3090201576852536"><ele>1024.0</ele><time>2026-05-03T13:28:02.001Z</time></trkpt><trkpt lat="41.72828394366596" lon="-2.30888083188789"><ele>1023.5</ele><time>2026-05-03T13:28:03.001Z</time></trkpt><trkpt lat="41.72823428274676" lon="-2.308740669820753"><ele>1023.0</ele><time>2026-05-03T13:28:04.001Z</time></trkpt><trkpt lat="41.72818307908475" lon="-2.308602818069078"><ele>1022.5</ele><time>2026-05-03T13:28:05.001Z</time></trkpt><trkpt lat="41.72813342055132" lon="-2.3084634207404777"><ele>1022.0</ele><time>2026-05-03T13:28:06.001Z</time></trkpt><trkpt lat="41.72808235070351" lon="-2.3083258219185665"><ele>1022.0</ele><time>2026-05-03T13:28:07.001Z</time></trkpt><trkpt lat="41.728032629088865" lon="-2.3081839309885783"><ele>1022.0</ele><time>2026-05-03T13:28:08.001Z</time></trkpt><trkpt lat="41.7279794930982" lon="-2.308048820254879"><ele>1022.0</ele><time>2026-05-03T13:28:09.001Z</time></trkpt><trkpt lat="41.72792624821171" lon="-2.3079126260686427"><ele>1022.0</ele><time>2026-05-03T13:28:10.001Z</time></trkpt><trkpt lat="41.727877615736986" lon="-2.307772976591567"><ele>1021.75</ele><time>2026-05-03T13:28:11.001Z</time></trkpt><trkpt lat="41.72782641633182" lon="-2.3076318049598674"><ele>1021.5</ele><time>2026-05-03T13:28:12.001Z</time></trkpt><trkpt lat="41.72777604025372" lon="-2.3074969858176497"><ele>1021.25</ele><time>2026-05-03T13:28:13.001Z</time></trkpt><trkpt lat="41.72772675013344" lon="-2.307357799337623"><ele>1021.0</ele><time>2026-05-03T13:28:14.001Z</time></trkpt><trkpt lat="41.727674934097564" lon="-2.3072175736181815"><ele>1021.0</ele><time>2026-05-03T13:28:15.001Z</time></trkpt><trkpt lat="41.72761086040202" lon="-2.3070875461742792"><ele>1021.0</ele><time>2026-05-03T13:28:16.001Z</time></trkpt><trkpt lat="41.7275747219421" lon="-2.3069401719107328"><ele>1021.0</ele><time>2026-05-03T13:28:17.001Z</time></trkpt><trkpt lat="41.72752397111259" lon="-2.306803978560278"><ele>1021.0</ele><time>2026-05-03T13:28:18.001Z</time></trkpt><trkpt lat="41.72745950291878" lon="-2.306671077469397"><ele>1021.0</ele><time>2026-05-03T13:28:19Z</time></trkpt><trkpt lat="41.72742366369387" lon="-2.3065242915137265"><ele>1021.0</ele><time>2026-05-03T13:28:20Z</time></trkpt><trkpt lat="41.72735949961913" lon="-2.3063959127701805"><ele>1021.0</ele><time>2026-05-03T13:28:21Z</time></trkpt><trkpt lat="41.72732324359411" lon="-2.3062461284448985"><ele>1021.0</ele><time>2026-05-03T13:28:22Z</time></trkpt><trkpt lat="41.72725801777576" lon="-2.3061164663780245"><ele>1021.25</ele><time>2026-05-03T13:28:23Z</time></trkpt><trkpt lat="41.72722199353779" lon="-2.305968526507329"><ele>1021.5</ele><time>2026-05-03T13:28:24Z</time></trkpt><trkpt lat="41.72715677978468" lon="-2.305836703398054"><ele>1021.75</ele><time>2026-05-03T13:28:25Z</time></trkpt><trkpt lat="41.72711967410227" lon="-2.3056892018245714"><ele>1022.0</ele><time>2026-05-03T13:28:26Z</time></trkpt><trkpt lat="41.7270690192204" lon="-2.305554947999799"><ele>1022.25</ele><time>2026-05-03T13:28:27Z</time></trkpt><trkpt lat="41.727021300333156" lon="-2.3054130174046508"><ele>1022.5</ele><time>2026-05-03T13:28:28Z</time></trkpt><trkpt lat="41.72697073158325" lon="-2.3052773097914594"><ele>1022.75</ele><time>2026-05-03T13:28:29Z</time></trkpt><trkpt lat="41.72690558049023" lon="-2.3051478178360787"><ele>1023.0</ele><time>2026-05-03T13:28:30Z</time></trkpt><trkpt lat="41.72687096927879" lon="-2.3050054366821175"><ele>1022.5999999999999</ele><time>2026-05-03T13:28:31Z</time></trkpt><trkpt lat="41.726819741106816" lon="-2.3048694356981256"><ele>1022.1999999999999</ele><time>2026-05-03T13:28:32Z</time></trkpt><trkpt lat="41.72677018073843" lon="-2.3047381529933055"><ele>1021.8</ele><time>2026-05-03T13:28:33Z</time></trkpt><trkpt lat="41.726707805993854" lon="-2.304609431704313"><ele>1021.4</ele><time>2026-05-03T13:28:34Z</time></trkpt><trkpt lat="41.7266741872339" lon="-2.3044751387510343"><ele>1021.0</ele><time>2026-05-03T13:28:35Z</time></trkpt><trkpt lat="41.726623903778815" lon="-2.304352919702125"><ele>1021.0</ele><time>2026-05-03T13:28:36Z</time></trkpt><trkpt lat="41.726579531624004" lon="-2.3042283649492368"><ele>1020.9999999999999</ele><time>2026-05-03T13:28:37Z</time></trkpt><trkpt lat="41.72653432204965" lon="-2.3041060102419366"><ele>1020.9999999999999</ele><time>2026-05-03T13:28:38Z</time></trkpt><trkpt lat="41.72648696834822" lon="-2.3039808705710763"><ele>1021.0</ele><time>2026-05-03T13:28:39Z</time></trkpt><trkpt lat="41.7264408814593" lon="-2.30385427510602"><ele>1021.0</ele><time>2026-05-03T13:28:40Z</time></trkpt><trkpt lat="41.72639558577687" lon="-2.303728682909711"><ele>1021.4</ele><time>2026-05-03T13:28:41Z</time></trkpt><trkpt lat="41.726349480445805" lon="-2.3035980323874266"><ele>1021.8</ele><time>2026-05-03T13:28:42Z</time></trkpt><trkpt lat="41.72630132431718" lon="-2.30347147981567"><ele>1022.1999999999999</ele><time>2026-05-03T13:28:43Z</time></trkpt><trkpt lat="41.72625522636152" lon="-2.303341368946107"><ele>1022.5999999999999</ele><time>2026-05-03T13:28:44Z</time></trkpt><trkpt lat="41.726206808272806" lon="-2.3032084971150883"><ele>1023.0</ele><time>2026-05-03T13:28:45Z</time></trkpt><trkpt lat="41.72615850463442" lon="-2.303077407729123"><ele>1023.2</ele><time>2026-05-03T13:28:46Z</time></trkpt><trkpt lat="41.72610649500032" lon="-2.3029450747811313"><ele>1023.4</ele><time>2026-05-03T13:28:47Z</time></trkpt><trkpt lat="41.726059830448825" lon="-2.302813073829838"><ele>1023.6000000000001</ele><time>2026-05-03T13:28:48Z</time></trkpt><trkpt lat="41.72601324574649" lon="-2.3026842350730465"><ele>1023.8000000000001</ele><time>2026-05-03T13:28:49Z</time></trkpt><trkpt lat="41.72596249187122" lon="-2.302557820510751"><ele>1024.0</ele><time>2026-05-03T13:28:50Z</time></trkpt><trkpt lat="41.72591424757534" lon="-2.3024237284702522"><ele>1023.5</ele><time>2026-05-03T13:28:51Z</time></trkpt><trkpt lat="41.72586677881228" lon="-2.3022899005080535"><ele>1023.0</ele><time>2026-05-03T13:28:52Z</time></trkpt><trkpt lat="41.72581640471138" lon="-2.3021538852006995"><ele>1022.5</ele><time>2026-05-03T13:28:53Z</time></trkpt><trkpt lat="41.725768254980764" lon="-2.3020174697305715"><ele>1022.0</ele><time>2026-05-03T13:28:54Z</time></trkpt><trkpt lat="41.72571548466711" lon="-2.301881153237969"><ele>1021.75</ele><time>2026-05-03T13:28:55Z</time></trkpt><trkpt lat="41.7256676842301" lon="-2.301743344465474"><ele>1021.5</ele><time>2026-05-03T13:28:56Z</time></trkpt><trkpt lat="41.72562002857905" lon="-2.3016052774930635"><ele>1021.25</ele><time>2026-05-03T13:28:57Z</time></trkpt><trkpt lat="41.725568139069146" lon="-2.3014695441054545"><ele>1021.0</ele><time>2026-05-03T13:28:58Z</time></trkpt><trkpt lat="41.72551677322109" lon="-2.301330890130318"><ele>1021.5</ele><time>2026-05-03T13:28:59Z</time></trkpt><trkpt lat="41.72546734844319" lon="-2.301196057952584"><ele>1022.0</ele><time>2026-05-03T13:29:00Z</time></trkpt><trkpt lat="41.72541615879045" lon="-2.301056821409606"><ele>1022.5</ele><time>2026-05-03T13:29:01Z</time></trkpt><trkpt lat="41.725366744349735" lon="-2.3009180585232847"><ele>1023.0</ele><time>2026-05-03T13:29:02Z</time></trkpt><trkpt lat="41.72531463071026" lon="-2.300782068555983"><ele>1023.0</ele><time>2026-05-03T13:29:03Z</time></trkpt><trkpt lat="41.72526698990639" lon="-2.30064338800458"><ele>1023.0</ele><time>2026-05-03T13:29:04Z</time></trkpt><trkpt lat="41.72521814751133" lon="-2.300505241035008"><ele>1023.0</ele><time>2026-05-03T13:29:05Z</time></trkpt><trkpt lat="41.72516658454986" lon="-2.300368715019118"><ele>1023.0</ele><time>2026-05-03T13:29:06Z</time></trkpt><trkpt lat="41.725113899359066" lon="-2.300228845507863"><ele>1022.0</ele><time>2026-05-03T13:29:07Z</time></trkpt><trkpt lat="41.72506251401339" lon="-2.3000913323970407"><ele>1021.0</ele><time>2026-05-03T13:29:08Z</time></trkpt><trkpt lat="41.725011215786814" lon="-2.2999496626850977"><ele>1020.0</ele><time>2026-05-03T13:29:09Z</time></trkpt><trkpt lat="41.724960105731746" lon="-2.29980775689363"><ele>1019.0</ele><time>2026-05-03T13:29:10Z</time></trkpt><trkpt lat="41.72491101621198" lon="-2.299667404838154"><ele>1019.0</ele><time>2026-05-03T13:29:11Z</time></trkpt><trkpt lat="41.724860657420415" lon="-2.2995281145944486"><ele>1019.0</ele><time>2026-05-03T13:29:12Z</time></trkpt><trkpt lat="41.72480751817424" lon="-2.2993844601105136"><ele>1019.0</ele><time>2026-05-03T13:29:13Z</time></trkpt><trkpt lat="41.7247569814228" lon="-2.2992474412490913"><ele>1019.0</ele><time>2026-05-03T13:29:14Z</time></trkpt><trkpt lat="41.72470718393507" lon="-2.2991064273462842"><ele>1019.0</ele><time>2026-05-03T13:29:15Z</time></trkpt><trkpt lat="41.72465883357663" lon="-2.2989706884372128"><ele>1019.0</ele><time>2026-05-03T13:29:16Z</time></trkpt><trkpt lat="41.724606852597816" lon="-2.298834513115769"><ele>1019.0</ele><time>2026-05-03T13:29:17Z</time></trkpt><trkpt lat="41.72455866304526" lon="-2.298699003344898"><ele>1019.0</ele><time>2026-05-03T13:29:18Z</time></trkpt><trkpt lat="41.724509826821425" lon="-2.2985616866122225"><ele>1019.0</ele><time>2026-05-03T13:29:19Z</time></trkpt><trkpt lat="41.72445755043871" lon="-2.2984277698000084"><ele>1019.0</ele><time>2026-05-03T13:29:20Z</time></trkpt><trkpt lat="41.724409314089804" lon="-2.2982899641346526"><ele>1019.0</ele><time>2026-05-03T13:29:21Z</time></trkpt><trkpt lat="41.724359685621536" lon="-2.298153988282028"><ele>1019.0</ele><time>2026-05-03T13:29:22Z</time></trkpt><trkpt lat="41.72430989685639" lon="-2.298020177559697"><ele>1019.4000000000001</ele><time>2026-05-03T13:29:23Z</time></trkpt><trkpt lat="41.7242615692526" lon="-2.297881530023147"><ele>1019.8000000000001</ele><time>2026-05-03T13:29:24.001Z</time></trkpt><trkpt lat="41.724213639570564" lon="-2.297749397154278"><ele>1020.1999999999999</ele><time>2026-05-03T13:29:25.001Z</time></trkpt><trkpt lat="41.72416214308196" lon="-2.297615158806454"><ele>1020.5999999999999</ele><time>2026-05-03T13:29:26.001Z</time></trkpt><trkpt lat="41.72411507022647" lon="-2.2974814705544544"><ele>1021.0</ele><time>2026-05-03T13:29:27.001Z</time></trkpt><trkpt lat="41.724066649349545" lon="-2.2973471511670636"><ele>1021.1999999999999</ele><time>2026-05-03T13:29:28.001Z</time></trkpt><trkpt lat="41.72401501072551" lon="-2.29720736943032"><ele>1021.3999999999999</ele><time>2026-05-03T13:29:29.001Z</time></trkpt><trkpt lat="41.72395087011531" lon="-2.2970579103891358"><ele>1021.6</ele><time>2026-05-03T13:29:30.001Z</time></trkpt><trkpt lat="41.72391834143789" lon="-2.2969592787426913"><ele>1021.8</ele><time>2026-05-03T13:29:31.001Z</time></trkpt><trkpt lat="41.72387098878726" lon="-2.2968247945916005"><ele>1022.0</ele><time>2026-05-03T13:29:32.001Z</time></trkpt><trkpt lat="41.723821644845486" lon="-2.296693444474804"><ele>1022.0</ele><time>2026-05-03T13:29:33.001Z</time></trkpt><trkpt lat="41.723775220862166" lon="-2.2965639500390895"><ele>1022.0</ele><time>2026-05-03T13:29:34.001Z</time></trkpt><trkpt lat="41.72373090801972" lon="-2.2964342267089526"><ele>1022.0</ele><time>2026-05-03T13:29:35.001Z</time></trkpt><trkpt lat="41.72368002581831" lon="-2.2963035350110985"><ele>1022.0</ele><time>2026-05-03T13:29:36.001Z</time></trkpt><trkpt lat="41.7236319632547" lon="-2.2961740344601393"><ele>1022.0</ele><time>2026-05-03T13:29:37.001Z</time></trkpt><trkpt lat="41.72358575533164" lon="-2.296041805245054"><ele>1022.0</ele><time>2026-05-03T13:29:38.001Z</time></trkpt><trkpt lat="41.7235397766946" lon="-2.295911026728598"><ele>1022.0</ele><time>2026-05-03T13:29:39.001Z</time></trkpt><trkpt lat="41.723492731326324" lon="-2.2957866667735614"><ele>1022.0</ele><time>2026-05-03T13:29:40.001Z</time></trkpt><trkpt lat="41.72344789590453" lon="-2.295657702613216"><ele>1022.0</ele><time>2026-05-03T13:29:41.001Z</time></trkpt><trkpt lat="41.723399067527" lon="-2.295535807209578"><ele>1022.0</ele><time>2026-05-03T13:29:42.001Z</time></trkpt><trkpt lat="41.723355860784174" lon="-2.295414753408453"><ele>1022.6</ele><time>2026-05-03T13:29:43.001Z</time></trkpt><trkpt lat="41.72331107420016" lon="-2.2952905846351253"><ele>1023.2</ele><time>2026-05-03T13:29:44.001Z</time></trkpt><trkpt lat="41.72326695306896" lon="-2.2951656124155564"><ele>1023.8</ele><time>2026-05-03T13:29:45.001Z</time></trkpt><trkpt lat="41.72321976378744" lon="-2.295046121917197"><ele>1024.4</ele><time>2026-05-03T13:29:46.001Z</time></trkpt><trkpt lat="41.72317681035343" lon="-2.2949224728318502"><ele>1025.0</ele><time>2026-05-03T13:29:47.001Z</time></trkpt><trkpt lat="41.72313323178538" lon="-2.294798489705438"><ele>1025.4</ele><time>2026-05-03T13:29:48.001Z</time></trkpt><trkpt lat="41.72308905110524" lon="-2.2946765042347206"><ele>1025.8</ele><time>2026-05-03T13:29:49.001Z</time></trkpt><trkpt lat="41.72304612556848" lon="-2.294556729482392"><ele>1026.2</ele><time>2026-05-03T13:29:50.001Z</time></trkpt><trkpt lat="41.723003634443685" lon="-2.2944381336574073"><ele>1026.6</ele><time>2026-05-03T13:29:51.001Z</time></trkpt><trkpt lat="41.722962167738515" lon="-2.2943188984250145"><ele>1027.0</ele><time>2026-05-03T13:29:52.001Z</time></trkpt><trkpt lat="41.72291952855622" lon="-2.2942030768753896"><ele>1027.0</ele><time>2026-05-03T13:29:53.001Z</time></trkpt><trkpt lat="41.72287222614632" lon="-2.2940836446198096"><ele>1027.0</ele><time>2026-05-03T13:29:54.001Z</time></trkpt><trkpt lat="41.72282894025796" lon="-2.2939651582056317"><ele>1027.0</ele><time>2026-05-03T13:29:55.001Z</time></trkpt><trkpt lat="41.72278665189653" lon="-2.293845279106909"><ele>1027.0</ele><time>2026-05-03T13:29:56.001Z</time></trkpt><trkpt lat="41.722743792904915" lon="-2.2937242503306874"><ele>1027.0</ele><time>2026-05-03T13:29:57.001Z</time></trkpt><trkpt lat="41.72270195787895" lon="-2.2936047387344476"><ele>1027.2</ele><time>2026-05-03T13:29:58.001Z</time></trkpt><trkpt lat="41.72265782085286" lon="-2.2934824053652854"><ele>1027.4</ele><time>2026-05-03T13:29:59.001Z</time></trkpt><trkpt lat="41.72261242717193" lon="-2.2933636138740217"><ele>1027.6</ele><time>2026-05-03T13:30:00.001Z</time></trkpt><trkpt lat="41.7225667528805" lon="-2.29324100370557"><ele>1027.8</ele><time>2026-05-03T13:30:01.001Z</time></trkpt><trkpt lat="41.72252199695906" lon="-2.293119421094598"><ele>1028.0</ele><time>2026-05-03T13:30:02.001Z</time></trkpt><trkpt lat="41.72247739810015" lon="-2.292997293738564"><ele>1028.2</ele><time>2026-05-03T13:30:03.001Z</time></trkpt><trkpt lat="41.72243175713236" lon="-2.2928736734025588"><ele>1028.4</ele><time>2026-05-03T13:30:04.001Z</time></trkpt><trkpt lat="41.722387047794804" lon="-2.2927498186726702"><ele>1028.6000000000001</ele><time>2026-05-03T13:30:05.001Z</time></trkpt><trkpt lat="41.72234122579657" lon="-2.2926244383776515"><ele>1028.8</ele><time>2026-05-03T13:30:06.001Z</time></trkpt><trkpt lat="41.722292525517226" lon="-2.2925014900034824"><ele>1029.0</ele><time>2026-05-03T13:30:07.001Z</time></trkpt><trkpt lat="41.7222469683405" lon="-2.292373871669524"><ele>1029.4</ele><time>2026-05-03T13:30:08.001Z</time></trkpt><trkpt lat="41.72220134810385" lon="-2.2922478877323"><ele>1029.8000000000002</ele><time>2026-05-03T13:30:09.001Z</time></trkpt><trkpt lat="41.722153898940554" lon="-2.2921281339493604"><ele>1030.1999999999998</ele><time>2026-05-03T13:30:10.001Z</time></trkpt><trkpt lat="41.722110468168886" lon="-2.2920018490425473"><ele>1030.6</ele><time>2026-05-03T13:30:11.001Z</time></trkpt><trkpt lat="41.72206458789558" lon="-2.2918755499128194"><ele>1031.0</ele><time>2026-05-03T13:30:12.001Z</time></trkpt><trkpt lat="41.722021121738734" lon="-2.2917516199675085"><ele>1031.0</ele><time>2026-05-03T13:30:13.001Z</time></trkpt><trkpt lat="41.72197412972464" lon="-2.291627400045967"><ele>1031.0</ele><time>2026-05-03T13:30:14.001Z</time></trkpt><trkpt lat="41.721929749464586" lon="-2.291501437939693"><ele>1031.0</ele><time>2026-05-03T13:30:15.001Z</time></trkpt><trkpt lat="41.72188646035001" lon="-2.2913763768000917"><ele>1031.0</ele><time>2026-05-03T13:30:16.001Z</time></trkpt><trkpt lat="41.72183913345521" lon="-2.2912511689074275"><ele>1031.0</ele><time>2026-05-03T13:30:17.001Z</time></trkpt><trkpt lat="41.72179613840062" lon="-2.2911253267917138"><ele>1031.6</ele><time>2026-05-03T13:30:18.001Z</time></trkpt><trkpt lat="41.72175082789994" lon="-2.290997960009051"><ele>1032.1999999999998</ele><time>2026-05-03T13:30:19.001Z</time></trkpt><trkpt lat="41.721705409897396" lon="-2.2908707300218296"><ele>1032.8000000000002</ele><time>2026-05-03T13:30:20.001Z</time></trkpt><trkpt lat="41.72165884441135" lon="-2.2907455955003817"><ele>1033.4</ele><time>2026-05-03T13:30:21.001Z</time></trkpt><trkpt lat="41.72161490471626" lon="-2.290621055053361"><ele>1034.0</ele><time>2026-05-03T13:30:22.001Z</time></trkpt><trkpt lat="41.72157015302544" lon="-2.2904921177465964"><ele>1034.4</ele><time>2026-05-03T13:30:23.001Z</time></trkpt><trkpt lat="41.721509297570286" lon="-2.2903741282826977"><ele>1034.8000000000002</ele><time>2026-05-03T13:30:24.001Z</time></trkpt><trkpt lat="41.72146279564176" lon="-2.290246068246038"><ele>1035.1999999999998</ele><time>2026-05-03T13:30:25Z</time></trkpt><trkpt lat="41.72142945327672" lon="-2.2901067322377306"><ele>1035.6</ele><time>2026-05-03T13:30:26Z</time></trkpt><trkpt lat="41.72137951686937" lon="-2.289979960071969"><ele>1036.0</ele><time>2026-05-03T13:30:27Z</time></trkpt><trkpt lat="41.7213283665309" lon="-2.289847760813059"><ele>1035.5</ele><time>2026-05-03T13:30:28Z</time></trkpt><trkpt lat="41.72126583845149" lon="-2.289736534679394"><ele>1035.0</ele><time>2026-05-03T13:30:29Z</time></trkpt><trkpt lat="41.7212110010678" lon="-2.2895998565102875"><ele>1034.5</ele><time>2026-05-03T13:30:30Z</time></trkpt><trkpt lat="41.72115547353352" lon="-2.289463627882426"><ele>1034.0</ele><time>2026-05-03T13:30:31Z</time></trkpt><trkpt lat="41.72110027262756" lon="-2.289328200593672"><ele>1033.0</ele><time>2026-05-03T13:30:32Z</time></trkpt><trkpt lat="41.72104739543678" lon="-2.2891960203209143"><ele>1032.0</ele><time>2026-05-03T13:30:33Z</time></trkpt><trkpt lat="41.72099378839465" lon="-2.289061071701947"><ele>1031.0</ele><time>2026-05-03T13:30:34Z</time></trkpt><trkpt lat="41.72094114740645" lon="-2.288928554994191"><ele>1030.0</ele><time>2026-05-03T13:30:35Z</time></trkpt><trkpt lat="41.72088692062389" lon="-2.288793999111805"><ele>1029.25</ele><time>2026-05-03T13:30:36Z</time></trkpt><trkpt lat="41.720831961622224" lon="-2.2886587398696534"><ele>1028.5</ele><time>2026-05-03T13:30:37Z</time></trkpt><trkpt lat="41.720777181997384" lon="-2.2885239220907874"><ele>1027.75</ele><time>2026-05-03T13:30:38Z</time></trkpt><trkpt lat="41.720721398612795" lon="-2.2883861562967485"><ele>1027.0</ele><time>2026-05-03T13:30:39Z</time></trkpt><trkpt lat="41.72066721222404" lon="-2.2882502180215405"><ele>1027.0</ele><time>2026-05-03T13:30:40Z</time></trkpt><trkpt lat="41.72062558509143" lon="-2.288102475848824"><ele>1027.0</ele><time>2026-05-03T13:30:41Z</time></trkpt><trkpt lat="41.720570900316616" lon="-2.287963832450986"><ele>1027.0</ele><time>2026-05-03T13:30:42Z</time></trkpt><trkpt lat="41.72050150007415" lon="-2.287839555037661"><ele>1027.0</ele><time>2026-05-03T13:30:43Z</time></trkpt><trkpt lat="41.72044514298742" lon="-2.287701439272296"><ele>1026.5</ele><time>2026-05-03T13:30:44Z</time></trkpt><trkpt lat="41.7203894169124" lon="-2.2875665875824343"><ele>1026.0</ele><time>2026-05-03T13:30:45Z</time></trkpt><trkpt lat="41.72033418372402" lon="-2.2874329286292356"><ele>1025.5</ele><time>2026-05-03T13:30:46Z</time></trkpt><trkpt lat="41.72027924758595" lon="-2.28729998851034"><ele>1025.0</ele><time>2026-05-03T13:30:47Z</time></trkpt><trkpt lat="41.720224752063594" lon="-2.287168114635494"><ele>1024.75</ele><time>2026-05-03T13:30:48Z</time></trkpt><trkpt lat="41.72017090400981" lon="-2.2870360330540516"><ele>1024.5</ele><time>2026-05-03T13:30:49Z</time></trkpt><trkpt lat="41.72011679415482" lon="-2.286902666400985"><ele>1024.25</ele><time>2026-05-03T13:30:50Z</time></trkpt><trkpt lat="41.720063449507656" lon="-2.286771185792956"><ele>1024.0</ele><time>2026-05-03T13:30:51Z</time></trkpt><trkpt lat="41.72000985645474" lon="-2.2866390929234934"><ele>1024.0</ele><time>2026-05-03T13:30:52Z</time></trkpt><trkpt lat="41.719956595482856" lon="-2.286507818549769"><ele>1024.0</ele><time>2026-05-03T13:30:53Z</time></trkpt><trkpt lat="41.71990089013423" lon="-2.2863705194228485"><ele>1024.0</ele><time>2026-05-03T13:30:54Z</time></trkpt><trkpt lat="41.71983555530379" lon="-2.2862433183975925"><ele>1024.0</ele><time>2026-05-03T13:30:55Z</time></trkpt><trkpt lat="41.7198057037725" lon="-2.2861359099112533"><ele>1024.0</ele><time>2026-05-03T13:30:56Z</time></trkpt><trkpt lat="41.71976422509043" lon="-2.2859929387782496"><ele>1024.6000000000001</ele><time>2026-05-03T13:30:57Z</time></trkpt><trkpt lat="41.71971163999048" lon="-2.2858764179194226"><ele>1025.2</ele><time>2026-05-03T13:30:58Z</time></trkpt><trkpt lat="41.71966504248887" lon="-2.285760266826731"><ele>1025.8000000000002</ele><time>2026-05-03T13:30:59Z</time></trkpt><trkpt lat="41.71961568546266" lon="-2.285648502199258"><ele>1026.4</ele><time>2026-05-03T13:31:00Z</time></trkpt><trkpt lat="41.719570643559535" lon="-2.2855302729430447"><ele>1027.0</ele><time>2026-05-03T13:31:01Z</time></trkpt><trkpt lat="41.71952154503604" lon="-2.2854160099334755"><ele>1027.0</ele><time>2026-05-03T13:31:02Z</time></trkpt><trkpt lat="41.71947414815451" lon="-2.2853028060029645"><ele>1027.0</ele><time>2026-05-03T13:31:03Z</time></trkpt><trkpt lat="41.71942338153097" lon="-2.2851894544152103"><ele>1027.0</ele><time>2026-05-03T13:31:04Z</time></trkpt><trkpt lat="41.7193803721638" lon="-2.2850753331321623"><ele>1027.0</ele><time>2026-05-03T13:31:05Z</time></trkpt><trkpt lat="41.71933592279316" lon="-2.284960596440853"><ele>1027.0</ele><time>2026-05-03T13:31:06Z</time></trkpt><trkpt lat="41.719286341938805" lon="-2.2848490039512774"><ele>1027.4</ele><time>2026-05-03T13:31:07Z</time></trkpt><trkpt lat="41.71924077179041" lon="-2.284731538536789"><ele>1027.8000000000002</ele><time>2026-05-03T13:31:08Z</time></trkpt><trkpt lat="41.71918961779074" lon="-2.2846115502845517"><ele>1028.2</ele><time>2026-05-03T13:31:09Z</time></trkpt><trkpt lat="41.719143118101435" lon="-2.284490441685917"><ele>1028.6000000000001</ele><time>2026-05-03T13:31:10Z</time></trkpt><trkpt lat="41.71909151961423" lon="-2.284370003492581"><ele>1029.0</ele><time>2026-05-03T13:31:11Z</time></trkpt><trkpt lat="41.719038109979685" lon="-2.2842518328298422"><ele>1029.0</ele><time>2026-05-03T13:31:12Z</time></trkpt><trkpt lat="41.71899053371876" lon="-2.2841248250202084"><ele>1029.0</ele><time>2026-05-03T13:31:13Z</time></trkpt><trkpt lat="41.7189373568888" lon="-2.2839970064182102"><ele>1029.0</ele><time>2026-05-03T13:31:14Z</time></trkpt><trkpt lat="41.71888824087063" lon="-2.2838656598977787"><ele>1029.0</ele><time>2026-05-03T13:31:15Z</time></trkpt><trkpt lat="41.7188380307586" lon="-2.2837380558406535"><ele>1029.0</ele><time>2026-05-03T13:31:16Z</time></trkpt><trkpt lat="41.71877214609267" lon="-2.283620320273916"><ele>1029.0</ele><time>2026-05-03T13:31:17Z</time></trkpt><trkpt lat="41.71871647658308" lon="-2.2834849343668724"><ele>1029.0</ele><time>2026-05-03T13:31:18Z</time></trkpt><trkpt lat="41.7186608340793" lon="-2.283349614131515"><ele>1029.0</ele><time>2026-05-03T13:31:19Z</time></trkpt><trkpt lat="41.718603540844086" lon="-2.2832092827964887"><ele>1029.0</ele><time>2026-05-03T13:31:20Z</time></trkpt><trkpt lat="41.71856138930639" lon="-2.2830662123078294"><ele>1028.4</ele><time>2026-05-03T13:31:21Z</time></trkpt><trkpt lat="41.718506385247906" lon="-2.282933930459604"><ele>1027.8000000000002</ele><time>2026-05-03T13:31:22Z</time></trkpt><trkpt lat="41.718452852943514" lon="-2.2828037227223863"><ele>1027.1999999999998</ele><time>2026-05-03T13:31:23Z</time></trkpt><trkpt lat="41.71839739848637" lon="-2.282673567540687"><ele>1026.6</ele><time>2026-05-03T13:31:24Z</time></trkpt><trkpt lat="41.718343543439985" lon="-2.282541941532744"><ele>1026.0</ele><time>2026-05-03T13:31:25Z</time></trkpt><trkpt lat="41.718292077510995" lon="-2.28240885920993"><ele>1026.0</ele><time>2026-05-03T13:31:26Z</time></trkpt><trkpt lat="41.71823802308063" lon="-2.2822792225517223"><ele>1026.0</ele><time>2026-05-03T13:31:27.001Z</time></trkpt><trkpt lat="41.71818664065255" lon="-2.282147105174536"><ele>1026.0</ele><time>2026-05-03T13:31:28.001Z</time></trkpt><trkpt lat="41.71811937433895" lon="-2.282027044928707"><ele>1026.0</ele><time>2026-05-03T13:31:29.001Z</time></trkpt><trkpt lat="41.71806325989292" lon="-2.281892263078219"><ele>1026.0</ele><time>2026-05-03T13:31:30.001Z</time></trkpt><trkpt lat="41.71800723161293" lon="-2.2817576881881343"><ele>1026.0</ele><time>2026-05-03T13:31:31.001Z</time></trkpt><trkpt lat="41.71795095173197" lon="-2.2816225089820548"><ele>1026.0</ele><time>2026-05-03T13:31:32.001Z</time></trkpt><trkpt lat="41.71789352020571" lon="-2.281484581631741"><ele>1026.0</ele><time>2026-05-03T13:31:33.001Z</time></trkpt><trkpt lat="41.71783887418107" lon="-2.281350222818221"><ele>1026.0</ele><time>2026-05-03T13:31:34.001Z</time></trkpt><trkpt lat="41.717783678361435" lon="-2.281214512215984"><ele>1025.75</ele><time>2026-05-03T13:31:35.001Z</time></trkpt><trkpt lat="41.717729204017836" lon="-2.2810805755105705"><ele>1025.5</ele><time>2026-05-03T13:31:36.001Z</time></trkpt><trkpt lat="41.71767481687833" lon="-2.2809468532174355"><ele>1025.25</ele><time>2026-05-03T13:31:37.001Z</time></trkpt><trkpt lat="41.717619922225005" lon="-2.280812609612684"><ele>1025.0</ele><time>2026-05-03T13:31:38.001Z</time></trkpt><trkpt lat="41.717565371490835" lon="-2.280679429753582"><ele>1025.5</ele><time>2026-05-03T13:31:39.001Z</time></trkpt><trkpt lat="41.71751017779367" lon="-2.2805446801654314"><ele>1026.0</ele><time>2026-05-03T13:31:40.001Z</time></trkpt><trkpt lat="41.717455732501875" lon="-2.280411757738176"><ele>1026.5</ele><time>2026-05-03T13:31:41.001Z</time></trkpt><trkpt lat="41.7174014607252" lon="-2.280279258924249"><ele>1027.0</ele><time>2026-05-03T13:31:42.001Z</time></trkpt><trkpt lat="41.71734748334774" lon="-2.2801474788528813"><ele>1027.0</ele><time>2026-05-03T13:31:43.001Z</time></trkpt><trkpt lat="41.7172931152768" lon="-2.2800147449443102"><ele>1027.0</ele><time>2026-05-03T13:31:44.001Z</time></trkpt><trkpt lat="41.71724048986617" lon="-2.2798862655655703"><ele>1027.0</ele><time>2026-05-03T13:31:45.001Z</time></trkpt><trkpt lat="41.71718676997868" lon="-2.279755114134895"><ele>1027.0</ele><time>2026-05-03T13:31:46.001Z</time></trkpt><trkpt lat="41.71713300124387" lon="-2.279623843445306"><ele>1027.0</ele><time>2026-05-03T13:31:47.001Z</time></trkpt><trkpt lat="41.71707891860097" lon="-2.2794918063820466"><ele>1027.0</ele><time>2026-05-03T13:31:48.001Z</time></trkpt><trkpt lat="41.71702575382757" lon="-2.279362010200005"><ele>1027.0</ele><time>2026-05-03T13:31:49.001Z</time></trkpt><trkpt lat="41.71697127604441" lon="-2.2792290084424316"><ele>1027.0</ele><time>2026-05-03T13:31:50.001Z</time></trkpt><trkpt lat="41.71691705597757" lon="-2.2790966358785774"><ele>1027.0</ele><time>2026-05-03T13:31:51.001Z</time></trkpt><trkpt lat="41.71687609986866" lon="-2.2789515025148073"><ele>1026.75</ele><time>2026-05-03T13:31:52.001Z</time></trkpt><trkpt lat="41.71682132776447" lon="-2.2788178347540344"><ele>1026.5</ele><time>2026-05-03T13:31:53.001Z</time></trkpt><trkpt lat="41.71675208919847" lon="-2.278693886901932"><ele>1026.25</ele><time>2026-05-03T13:31:54.001Z</time></trkpt><trkpt lat="41.716711452975645" lon="-2.2785484261908793"><ele>1026.0</ele><time>2026-05-03T13:31:55.001Z</time></trkpt><trkpt lat="41.71664337239392" lon="-2.278427480136246"><ele>1026.0</ele><time>2026-05-03T13:31:56.001Z</time></trkpt><trkpt lat="41.71659073437291" lon="-2.2782981105859323"><ele>1026.0</ele><time>2026-05-03T13:31:57.001Z</time></trkpt><trkpt lat="41.716538055125206" lon="-2.278168527695942"><ele>1026.0</ele><time>2026-05-03T13:31:58.001Z</time></trkpt><trkpt lat="41.7164888004633" lon="-2.278045248682346"><ele>1026.0</ele><time>2026-05-03T13:31:59.001Z</time></trkpt><trkpt lat="41.71645046540268" lon="-2.2779073044088083"><ele>1026.0</ele><time>2026-05-03T13:32:00.001Z</time></trkpt><trkpt lat="41.716400016499065" lon="-2.277785856675812"><ele>1026.6</ele><time>2026-05-03T13:32:01.001Z</time></trkpt><trkpt lat="41.7163395331377" lon="-2.2776760808553953"><ele>1027.1999999999998</ele><time>2026-05-03T13:32:02.001Z</time></trkpt><trkpt lat="41.71628971662053" lon="-2.2775567059956607"><ele>1027.8000000000002</ele><time>2026-05-03T13:32:03.001Z</time></trkpt><trkpt lat="41.71624129177773" lon="-2.277440666783613"><ele>1028.4</ele><time>2026-05-03T13:32:04.001Z</time></trkpt><trkpt lat="41.716209171084024" lon="-2.277313050314066"><ele>1029.0</ele><time>2026-05-03T13:32:05.001Z</time></trkpt><trkpt lat="41.716146153548365" lon="-2.277209537403969"><ele>1029.2</ele><time>2026-05-03T13:32:06.001Z</time></trkpt><trkpt lat="41.716093621795316" lon="-2.2770975305221213"><ele>1029.4</ele><time>2026-05-03T13:32:07.001Z</time></trkpt><trkpt lat="41.716035062283524" lon="-2.2769933991915328"><ele>1029.6</ele><time>2026-05-03T13:32:08.001Z</time></trkpt><trkpt lat="41.71598196149962" lon="-2.276875969260627"><ele>1029.8</ele><time>2026-05-03T13:32:09.001Z</time></trkpt><trkpt lat="41.7159022591375" lon="-2.276783584765992"><ele>1030.0</ele><time>2026-05-03T13:32:10.001Z</time></trkpt><trkpt lat="41.71583417961545" lon="-2.2766743038479533"><ele>1030.0</ele><time>2026-05-03T13:32:11.001Z</time></trkpt><trkpt lat="41.715777941883275" lon="-2.2765505825265335"><ele>1030.0</ele><time>2026-05-03T13:32:12.001Z</time></trkpt><trkpt lat="41.71571015441422" lon="-2.2764385217095815"><ele>1030.0</ele><time>2026-05-03T13:32:13.001Z</time></trkpt><trkpt lat="41.71564520870496" lon="-2.276320280583943"><ele>1030.0</ele><time>2026-05-03T13:32:14.001Z</time></trkpt><trkpt lat="41.715586661877154" lon="-2.2762004038611003"><ele>1030.0</ele><time>2026-05-03T13:32:15.001Z</time></trkpt><trkpt lat="41.71551936611933" lon="-2.2760893861878326"><ele>1030.0</ele><time>2026-05-03T13:32:16.001Z</time></trkpt><trkpt lat="41.71546046932115" lon="-2.275951141978534"><ele>1030.0</ele><time>2026-05-03T13:32:17.001Z</time></trkpt><trkpt lat="41.71541916996934" lon="-2.2758091185911113"><ele>1030.0</ele><time>2026-05-03T13:32:18.001Z</time></trkpt><trkpt lat="41.71536740084063" lon="-2.275679441159327"><ele>1030.0</ele><time>2026-05-03T13:32:19.001Z</time></trkpt><trkpt lat="41.715309253302514" lon="-2.275549616345461"><ele>1030.0</ele><time>2026-05-03T13:32:20.001Z</time></trkpt><trkpt lat="41.71525628491151" lon="-2.275417394257844"><ele>1030.0</ele><time>2026-05-03T13:32:21.001Z</time></trkpt><trkpt lat="41.71520228791474" lon="-2.275285398007056"><ele>1030.0</ele><time>2026-05-03T13:32:22.001Z</time></trkpt><trkpt lat="41.71515068601216" lon="-2.275154126998996"><ele>1030.0</ele><time>2026-05-03T13:32:23.001Z</time></trkpt><trkpt lat="41.715092925446655" lon="-2.275025873640013"><ele>1030.0</ele><time>2026-05-03T13:32:24.001Z</time></trkpt><trkpt lat="41.71503647867558" lon="-2.2749006256736766"><ele>1030.0</ele><time>2026-05-03T13:32:25.001Z</time></trkpt><trkpt lat="41.714984757233125" lon="-2.274772842636282"><ele>1030.0</ele><time>2026-05-03T13:32:26.001Z</time></trkpt><trkpt lat="41.71492533830496" lon="-2.274647648209481"><ele>1030.0</ele><time>2026-05-03T13:32:27.001Z</time></trkpt><trkpt lat="41.71486886695172" lon="-2.2745197484489768"><ele>1030.0</ele><time>2026-05-03T13:32:28.001Z</time></trkpt><trkpt lat="41.71481095934187" lon="-2.274394612342214"><ele>1030.0</ele><time>2026-05-03T13:32:29.001Z</time></trkpt><trkpt lat="41.71475033195816" lon="-2.2742740877767353"><ele>1030.0</ele><time>2026-05-03T13:32:30Z</time></trkpt><trkpt lat="41.7146917689498" lon="-2.274150711955007"><ele>1030.0</ele><time>2026-05-03T13:32:31Z</time></trkpt><trkpt lat="41.71462801721348" lon="-2.2740256469751237"><ele>1030.0</ele><time>2026-05-03T13:32:32Z</time></trkpt><trkpt lat="41.7145658210763" lon="-2.273902178416987"><ele>1030.0</ele><time>2026-05-03T13:32:33Z</time></trkpt><trkpt lat="41.71450783772346" lon="-2.273776552917014"><ele>1030.0</ele><time>2026-05-03T13:32:34Z</time></trkpt><trkpt lat="41.71444540053973" lon="-2.273655081382512"><ele>1030.2</ele><time>2026-05-03T13:32:35Z</time></trkpt><trkpt lat="41.71438431217871" lon="-2.2735339122415725"><ele>1030.4</ele><time>2026-05-03T13:32:36Z</time></trkpt><trkpt lat="41.71432619557798" lon="-2.273407329864232"><ele>1030.6</ele><time>2026-05-03T13:32:37Z</time></trkpt><trkpt lat="41.714263880574876" lon="-2.2732845384013904"><ele>1030.8</ele><time>2026-05-03T13:32:38Z</time></trkpt><trkpt lat="41.71420748584716" lon="-2.2731618859536025"><ele>1031.0</ele><time>2026-05-03T13:32:39Z</time></trkpt><trkpt lat="41.71414812296033" lon="-2.27304400589862"><ele>1031.6</ele><time>2026-05-03T13:32:40Z</time></trkpt><trkpt lat="41.714087669935004" lon="-2.2729262830111665"><ele>1032.1999999999998</ele><time>2026-05-03T13:32:41Z</time></trkpt><trkpt lat="41.714032308430056" lon="-2.27280487780284"><ele>1032.8000000000002</ele><time>2026-05-03T13:32:42Z</time></trkpt><trkpt lat="41.713973720102" lon="-2.2726832269942685"><ele>1033.4</ele><time>2026-05-03T13:32:43Z</time></trkpt><trkpt lat="41.71391216283724" lon="-2.2725585538334654"><ele>1034.0</ele><time>2026-05-03T13:32:44Z</time></trkpt><trkpt lat="41.7138541199046" lon="-2.2724348450890015"><ele>1034.0</ele><time>2026-05-03T13:32:45Z</time></trkpt><trkpt lat="41.713797058195375" lon="-2.272310256454104"><ele>1034.0</ele><time>2026-05-03T13:32:46Z</time></trkpt><trkpt lat="41.71373769783363" lon="-2.272185313356982"><ele>1034.0</ele><time>2026-05-03T13:32:47Z</time></trkpt><trkpt lat="41.713676238908896" lon="-2.2720599506062613"><ele>1034.0</ele><time>2026-05-03T13:32:48Z</time></trkpt><trkpt lat="41.71359825003479" lon="-2.271948427061454"><ele>1034.0</ele><time>2026-05-03T13:32:49Z</time></trkpt><trkpt lat="41.713535965274446" lon="-2.2718218539417645"><ele>1033.25</ele><time>2026-05-03T13:32:50Z</time></trkpt><trkpt lat="41.71347488059093" lon="-2.2716977195795467"><ele>1032.5</ele><time>2026-05-03T13:32:51Z</time></trkpt><trkpt lat="41.713411957001064" lon="-2.2715698482513216"><ele>1031.75</ele><time>2026-05-03T13:32:52Z</time></trkpt><trkpt lat="41.71334904827606" lon="-2.2714420071397905"><ele>1031.0</ele><time>2026-05-03T13:32:53Z</time></trkpt><trkpt lat="41.71328473466815" lon="-2.2713120056350804"><ele>1031.0</ele><time>2026-05-03T13:32:54Z</time></trkpt><trkpt lat="41.713221255682924" lon="-2.2711838917357623"><ele>1031.0</ele><time>2026-05-03T13:32:55Z</time></trkpt><trkpt lat="41.71315925792797" lon="-2.2710587672731912"><ele>1031.0</ele><time>2026-05-03T13:32:56Z</time></trkpt><trkpt lat="41.713096032835445" lon="-2.270931165773584"><ele>1031.0</ele><time>2026-05-03T13:32:57Z</time></trkpt><trkpt lat="41.713033921001525" lon="-2.270805811072555"><ele>1031.0</ele><time>2026-05-03T13:32:58Z</time></trkpt><trkpt lat="41.71297058611911" lon="-2.270677987994659"><ele>1031.0</ele><time>2026-05-03T13:32:59Z</time></trkpt><trkpt lat="41.712906235076815" lon="-2.270548114095402"><ele>1031.0</ele><time>2026-05-03T13:33:00Z</time></trkpt><trkpt lat="41.712844497954144" lon="-2.2704235156404415"><ele>1031.0</ele><time>2026-05-03T13:33:01Z</time></trkpt><trkpt lat="41.712781302254434" lon="-2.270295310655798"><ele>1030.6</ele><time>2026-05-03T13:33:02Z</time></trkpt><trkpt lat="41.71272138760889" lon="-2.270173129026244"><ele>1030.1999999999998</ele><time>2026-05-03T13:33:03Z</time></trkpt><trkpt lat="41.71265952990328" lon="-2.270046984993338"><ele>1029.8000000000002</ele><time>2026-05-03T13:33:04Z</time></trkpt><trkpt lat="41.71259691145679" lon="-2.269919289606402"><ele>1029.4</ele><time>2026-05-03T13:33:05Z</time></trkpt><trkpt lat="41.712535186638114" lon="-2.269793416548056"><ele>1029.0</ele><time>2026-05-03T13:33:06Z</time></trkpt><trkpt lat="41.7124738375469" lon="-2.2696683097265127"><ele>1029.0</ele><time>2026-05-03T13:33:07Z</time></trkpt><trkpt lat="41.71241181398575" lon="-2.26954182746371"><ele>1029.0</ele><time>2026-05-03T13:33:08Z</time></trkpt><trkpt lat="41.712350580146015" lon="-2.269416955650025"><ele>1029.0</ele><time>2026-05-03T13:33:09Z</time></trkpt><trkpt lat="41.712290874974315" lon="-2.269295201196263"><ele>1029.0</ele><time>2026-05-03T13:33:10Z</time></trkpt><trkpt lat="41.712229980146866" lon="-2.2691710207205866"><ele>1029.0</ele><time>2026-05-03T13:33:11Z</time></trkpt><trkpt lat="41.7121628617609" lon="-2.269034148783774"><ele>1029.0</ele><time>2026-05-03T13:33:12Z</time></trkpt><trkpt lat="41.71207529556955" lon="-2.26885557840223"><ele>1029.0</ele><time>2026-05-03T13:33:13Z</time></trkpt><trkpt lat="41.71204069843794" lon="-2.2687850258158533"><ele>1029.0</ele><time>2026-05-03T13:33:14Z</time></trkpt><trkpt lat="41.711978826592116" lon="-2.268658852951824"><ele>1029.0</ele><time>2026-05-03T13:33:15Z</time></trkpt><trkpt lat="41.71190944442628" lon="-2.268517364537576"><ele>1028.2</ele><time>2026-05-03T13:33:16Z</time></trkpt><trkpt lat="41.71185649137696" lon="-2.2684114470952905"><ele>1027.4</ele><time>2026-05-03T13:33:17Z</time></trkpt><trkpt lat="41.711796924170926" lon="-2.268292126769856"><ele>1026.6</ele><time>2026-05-03T13:33:18Z</time></trkpt><trkpt lat="41.71173474275167" lon="-2.26816756984673"><ele>1025.8</ele><time>2026-05-03T13:33:19Z</time></trkpt><trkpt lat="41.71167181354319" lon="-2.268041515012564"><ele>1025.0</ele><time>2026-05-03T13:33:20.001Z</time></trkpt><trkpt lat="41.71160949287369" lon="-2.267916679152963"><ele>1025.0</ele><time>2026-05-03T13:33:21.001Z</time></trkpt><trkpt lat="41.71154682487815" lon="-2.2677911475475523"><ele>1025.0</ele><time>2026-05-03T13:33:22.001Z</time></trkpt><trkpt lat="41.71148468609281" lon="-2.267666413078072"><ele>1025.0</ele><time>2026-05-03T13:33:23.001Z</time></trkpt><trkpt lat="41.71142267977267" lon="-2.267540911061689"><ele>1025.0</ele><time>2026-05-03T13:33:24.001Z</time></trkpt><trkpt lat="41.711362026533195" lon="-2.2674180744075736"><ele>1025.0</ele><time>2026-05-03T13:33:25.001Z</time></trkpt><trkpt lat="41.7113011744042" lon="-2.2672926171072394"><ele>1025.4</ele><time>2026-05-03T13:33:26.001Z</time></trkpt><trkpt lat="41.71123952656509" lon="-2.267165518937952"><ele>1025.8</ele><time>2026-05-03T13:33:27.001Z</time></trkpt><trkpt lat="41.71117900563755" lon="-2.267040744389204"><ele>1026.2</ele><time>2026-05-03T13:33:28.001Z</time></trkpt><trkpt lat="41.711119277729416" lon="-2.2669176045613897"><ele>1026.6</ele><time>2026-05-03T13:33:29.001Z</time></trkpt><trkpt lat="41.711058853603" lon="-2.2667930295152607"><ele>1027.0</ele><time>2026-05-03T13:33:30.001Z</time></trkpt><trkpt lat="41.71100936474959" lon="-2.266653187384722"><ele>1026.25</ele><time>2026-05-03T13:33:31.001Z</time></trkpt><trkpt lat="41.71089773433701" lon="-2.2665443783715498"><ele>1025.5</ele><time>2026-05-03T13:33:32.001Z</time></trkpt><trkpt lat="41.710794806304676" lon="-2.266417177876842"><ele>1024.75</ele><time>2026-05-03T13:33:33.001Z</time></trkpt><trkpt lat="41.7108274563297" lon="-2.2662963728056127"><ele>1024.0</ele><time>2026-05-03T13:33:34.001Z</time></trkpt><trkpt lat="41.710767591873164" lon="-2.266179434171508"><ele>1024.0</ele><time>2026-05-03T13:33:35.001Z</time></trkpt><trkpt lat="41.71070927547934" lon="-2.266055365283909"><ele>1024.0</ele><time>2026-05-03T13:33:36.001Z</time></trkpt><trkpt lat="41.71065088075335" lon="-2.2659400163748282"><ele>1024.0</ele><time>2026-05-03T13:33:37.001Z</time></trkpt><trkpt lat="41.710593637270186" lon="-2.265823727574903"><ele>1024.0</ele><time>2026-05-03T13:33:38.001Z</time></trkpt><trkpt lat="41.710540011063536" lon="-2.265703589829229"><ele>1024.0</ele><time>2026-05-03T13:33:39.001Z</time></trkpt><trkpt lat="41.710484707612395" lon="-2.2655852481266985"><ele>1023.8000000000001</ele><time>2026-05-03T13:33:40.001Z</time></trkpt><trkpt lat="41.710432601088634" lon="-2.265465439100422"><ele>1023.6000000000001</ele><time>2026-05-03T13:33:41.001Z</time></trkpt><trkpt lat="41.710375801483515" lon="-2.26534662762672"><ele>1023.4</ele><time>2026-05-03T13:33:42.001Z</time></trkpt><trkpt lat="41.71032366776199" lon="-2.2652245806210543"><ele>1023.2</ele><time>2026-05-03T13:33:43.001Z</time></trkpt><trkpt lat="41.710272122464744" lon="-2.265100213200999"><ele>1023.0</ele><time>2026-05-03T13:33:44.001Z</time></trkpt><trkpt lat="41.710206032293485" lon="-2.2649796444171844"><ele>1023.0</ele><time>2026-05-03T13:33:45.001Z</time></trkpt><trkpt lat="41.710150025290886" lon="-2.2648472285679855"><ele>1023.0</ele><time>2026-05-03T13:33:46.001Z</time></trkpt><trkpt lat="41.71009501801356" lon="-2.2647171763495635"><ele>1023.0</ele><time>2026-05-03T13:33:47.001Z</time></trkpt><trkpt lat="41.710039799557116" lon="-2.2645866243437918"><ele>1023.0</ele><time>2026-05-03T13:33:48.001Z</time></trkpt><trkpt lat="41.709982724099994" lon="-2.2644561409051898"><ele>1023.0</ele><time>2026-05-03T13:33:49.001Z</time></trkpt><trkpt lat="41.70992619082583" lon="-2.2643273545273885"><ele>1023.0</ele><time>2026-05-03T13:33:50.001Z</time></trkpt><trkpt lat="41.709869980243944" lon="-2.264199827246397"><ele>1023.0</ele><time>2026-05-03T13:33:51.001Z</time></trkpt><trkpt lat="41.709813153212444" lon="-2.264070901393211"><ele>1023.0</ele><time>2026-05-03T13:33:52.001Z</time></trkpt><trkpt lat="41.70975611115332" lon="-2.2639414877034194"><ele>1023.0</ele><time>2026-05-03T13:33:53.001Z</time></trkpt><trkpt lat="41.70969984107872" lon="-2.2638138254552946"><ele>1023.0</ele><time>2026-05-03T13:33:54.001Z</time></trkpt><trkpt lat="41.709643130303164" lon="-2.2636851633592783"><ele>1023.0</ele><time>2026-05-03T13:33:55.001Z</time></trkpt><trkpt lat="41.70958634020158" lon="-2.263555573381793"><ele>1023.0</ele><time>2026-05-03T13:33:56.001Z</time></trkpt><trkpt lat="41.70954481212901" lon="-2.263414715693308"><ele>1023.0</ele><time>2026-05-03T13:33:57.001Z</time></trkpt><trkpt lat="41.70947447557546" lon="-2.263295745977742"><ele>1023.0</ele><time>2026-05-03T13:33:58.001Z</time></trkpt><trkpt lat="41.70941933205551" lon="-2.2631675697425218"><ele>1023.0</ele><time>2026-05-03T13:33:59.001Z</time></trkpt><trkpt lat="41.70937932571269" lon="-2.263029779835562"><ele>1023.0</ele><time>2026-05-03T13:34:00.001Z</time></trkpt><trkpt lat="41.70930881944252" lon="-2.2629099824790115"><ele>1023.0</ele><time>2026-05-03T13:34:01.001Z</time></trkpt><trkpt lat="41.70925302527903" lon="-2.262779935203063"><ele>1023.0</ele><time>2026-05-03T13:34:02.001Z</time></trkpt><trkpt lat="41.70919734816565" lon="-2.262650351965448"><ele>1022.4</ele><time>2026-05-03T13:34:03.001Z</time></trkpt><trkpt lat="41.70914190503881" lon="-2.2625227996526736"><ele>1021.8</ele><time>2026-05-03T13:34:04.001Z</time></trkpt><trkpt lat="41.709100452764154" lon="-2.2623841200318244"><ele>1021.2</ele><time>2026-05-03T13:34:05.001Z</time></trkpt><trkpt lat="41.709031291901056" lon="-2.2622683233889926"><ele>1020.6</ele><time>2026-05-03T13:34:06.001Z</time></trkpt><trkpt lat="41.70898891965405" lon="-2.26213444506967"><ele>1020.0</ele><time>2026-05-03T13:34:07.001Z</time></trkpt><trkpt lat="41.70891989057001" lon="-2.262012033773039"><ele>1020.0</ele><time>2026-05-03T13:34:08.001Z</time></trkpt><trkpt lat="41.70886389756755" lon="-2.2618832157528606"><ele>1020.0</ele><time>2026-05-03T13:34:09.001Z</time></trkpt><trkpt lat="41.708808180665386" lon="-2.2617529406969656"><ele>1020.0</ele><time>2026-05-03T13:34:10.001Z</time></trkpt><trkpt lat="41.70875385001117" lon="-2.2616267389387636"><ele>1020.0</ele><time>2026-05-03T13:34:11.001Z</time></trkpt><trkpt lat="41.70869814028047" lon="-2.2614973337638027"><ele>1020.0</ele><time>2026-05-03T13:34:12.001Z</time></trkpt><trkpt lat="41.708641694240995" lon="-2.261366218261589"><ele>1020.0</ele><time>2026-05-03T13:34:13.001Z</time></trkpt><trkpt lat="41.70858657801888" lon="-2.26123819173148"><ele>1020.0</ele><time>2026-05-03T13:34:14.001Z</time></trkpt><trkpt lat="41.70853108606003" lon="-2.2611100310284424"><ele>1020.0</ele><time>2026-05-03T13:34:15.001Z</time></trkpt><trkpt lat="41.70847505145083" lon="-2.2609808164236074"><ele>1020.0</ele><time>2026-05-03T13:34:16.001Z</time></trkpt><trkpt lat="41.70841934895087" lon="-2.2608523676595333"><ele>1020.0</ele><time>2026-05-03T13:34:17.001Z</time></trkpt><trkpt lat="41.70836424575384" lon="-2.260725300878283"><ele>1020.2</ele><time>2026-05-03T13:34:18.001Z</time></trkpt><trkpt lat="41.708322082166816" lon="-2.2605847195562787"><ele>1020.4</ele><time>2026-05-03T13:34:19.001Z</time></trkpt><trkpt lat="41.708253363263026" lon="-2.2604696342546533"><ele>1020.5999999999999</ele><time>2026-05-03T13:34:20.001Z</time></trkpt><trkpt lat="41.70819800122126" lon="-2.260341998196365"><ele>1020.8</ele><time>2026-05-03T13:34:21.001Z</time></trkpt><trkpt lat="41.70814315356215" lon="-2.2602155480055015"><ele>1021.0</ele><time>2026-05-03T13:34:22.001Z</time></trkpt><trkpt lat="41.708086432815456" lon="-2.260084779437475"><ele>1021.0</ele><time>2026-05-03T13:34:23.001Z</time></trkpt><trkpt lat="41.7080305299576" lon="-2.2599558965210136"><ele>1020.9999999999999</ele><time>2026-05-03T13:34:24.001Z</time></trkpt><trkpt lat="41.7079744904583" lon="-2.2598266985704956"><ele>1020.9999999999999</ele><time>2026-05-03T13:34:25.001Z</time></trkpt><trkpt lat="41.70791926583106" lon="-2.2596993792975"><ele>1021.0</ele><time>2026-05-03T13:34:26.001Z</time></trkpt><trkpt lat="41.707865343268864" lon="-2.2595750618951045"><ele>1021.0</ele><time>2026-05-03T13:34:27.001Z</time></trkpt><trkpt lat="41.70781042446731" lon="-2.259448843316389"><ele>1021.1999999999999</ele><time>2026-05-03T13:34:28.001Z</time></trkpt><trkpt lat="41.70775508775836" lon="-2.2593216743052653"><ele>1021.3999999999999</ele><time>2026-05-03T13:34:29.001Z</time></trkpt><trkpt lat="41.707698361923775" lon="-2.259191312941433"><ele>1021.6</ele><time>2026-05-03T13:34:30.001Z</time></trkpt><trkpt lat="41.70764263644884" lon="-2.2590632505193087"><ele>1021.8</ele><time>2026-05-03T13:34:31.001Z</time></trkpt><trkpt lat="41.707586143638814" lon="-2.258933424675513"><ele>1022.0</ele><time>2026-05-03T13:34:32.001Z</time></trkpt><trkpt lat="41.70753213900523" lon="-2.2588093169260697"><ele>1021.4000000000001</ele><time>2026-05-03T13:34:33.001Z</time></trkpt><trkpt lat="41.707479056530104" lon="-2.25868732836114"><ele>1020.8000000000001</ele><time>2026-05-03T13:34:34.001Z</time></trkpt><trkpt lat="41.70742484959517" lon="-2.25856275566633"><ele>1020.2</ele><time>2026-05-03T13:34:35.001Z</time></trkpt><trkpt lat="41.707370477921934" lon="-2.2584378044012534"><ele>1019.6</ele><time>2026-05-03T13:34:36Z</time></trkpt><trkpt lat="41.70731481312048" lon="-2.2583098813998554"><ele>1019.0</ele><time>2026-05-03T13:34:37Z</time></trkpt><trkpt lat="41.70725950054976" lon="-2.2581827678744744"><ele>1018.8000000000001</ele><time>2026-05-03T13:34:38Z</time></trkpt><trkpt lat="41.7072022301803" lon="-2.258051155124348"><ele>1018.6000000000001</ele><time>2026-05-03T13:34:39Z</time></trkpt><trkpt lat="41.707133142725766" lon="-2.2578923856168425"><ele>1018.4</ele><time>2026-05-03T13:34:40Z</time></trkpt><trkpt lat="41.707090354721494" lon="-2.2577940546965056"><ele>1018.2</ele><time>2026-05-03T13:34:41Z</time></trkpt><trkpt lat="41.70703403165167" lon="-2.2576638181029773"><ele>1018.0</ele><time>2026-05-03T13:34:42Z</time></trkpt><trkpt lat="41.70697856864777" lon="-2.2575347041607974"><ele>1018.0</ele><time>2026-05-03T13:34:43Z</time></trkpt><trkpt lat="41.70692224583084" lon="-2.257403588630814"><ele>1018.0</ele><time>2026-05-03T13:34:44Z</time></trkpt><trkpt lat="41.7068676847469" lon="-2.2572765743056995"><ele>1018.0</ele><time>2026-05-03T13:34:45Z</time></trkpt><trkpt lat="41.706810751305625" lon="-2.2571440372662237"><ele>1018.0</ele><time>2026-05-03T13:34:46Z</time></trkpt><trkpt lat="41.70676954636029" lon="-2.257006488004972"><ele>1018.0</ele><time>2026-05-03T13:34:47Z</time></trkpt><trkpt lat="41.70670721694554" lon="-2.256879706141634"><ele>1018.0</ele><time>2026-05-03T13:34:48Z</time></trkpt><trkpt lat="41.706609875840016" lon="-2.2567651140489207"><ele>1018.0</ele><time>2026-05-03T13:34:49Z</time></trkpt><trkpt lat="41.70661088495569" lon="-2.2566341122180127"><ele>1018.0</ele><time>2026-05-03T13:34:50Z</time></trkpt><trkpt lat="41.70655085647404" lon="-2.256510931830501"><ele>1018.0</ele><time>2026-05-03T13:34:51Z</time></trkpt><trkpt lat="41.70649957988081" lon="-2.2563888476437834"><ele>1018.0</ele><time>2026-05-03T13:34:52Z</time></trkpt><trkpt lat="41.70644704666948" lon="-2.2562667875824935"><ele>1018.2</ele><time>2026-05-03T13:34:53Z</time></trkpt><trkpt lat="41.70639420908949" lon="-2.256144328316334"><ele>1018.4</ele><time>2026-05-03T13:34:54Z</time></trkpt><trkpt lat="41.706338040818736" lon="-2.2560228677356533"><ele>1018.6000000000001</ele><time>2026-05-03T13:34:55Z</time></trkpt><trkpt lat="41.70628775571509" lon="-2.255898290601787"><ele>1018.8000000000001</ele><time>2026-05-03T13:34:56Z</time></trkpt><trkpt lat="41.70623425702999" lon="-2.2557793248767637"><ele>1019.0</ele><time>2026-05-03T13:34:57Z</time></trkpt><trkpt lat="41.70617944784759" lon="-2.255652518504313"><ele>1019.0</ele><time>2026-05-03T13:34:58Z</time></trkpt><trkpt lat="41.7061247794697" lon="-2.255523948172242"><ele>1019.0000000000001</ele><time>2026-05-03T13:34:59Z</time></trkpt><trkpt lat="41.70607585110405" lon="-2.255403882207361"><ele>1019.0000000000001</ele><time>2026-05-03T13:35:00Z</time></trkpt><trkpt lat="41.70602247979234" lon="-2.2552775297086325"><ele>1019.0</ele><time>2026-05-03T13:35:01Z</time></trkpt><trkpt lat="41.70595565840253" lon="-2.255139946402373"><ele>1019.0</ele><time>2026-05-03T13:35:02Z</time></trkpt><trkpt lat="41.705896088533265" lon="-2.255027528948621"><ele>1018.8000000000001</ele><time>2026-05-03T13:35:03Z</time></trkpt><trkpt lat="41.705839985412105" lon="-2.254898587029747"><ele>1018.6000000000001</ele><time>2026-05-03T13:35:04Z</time></trkpt><trkpt lat="41.7057843031618" lon="-2.2547706122870474"><ele>1018.4</ele><time>2026-05-03T13:35:05Z</time></trkpt><trkpt lat="41.70572825505107" lon="-2.2546417967402963"><ele>1018.2</ele><time>2026-05-03T13:35:06Z</time></trkpt><trkpt lat="41.70567257332909" lon="-2.2545135303514408"><ele>1018.0</ele><time>2026-05-03T13:35:07Z</time></trkpt><trkpt lat="41.70561738411436" lon="-2.2543862994318884"><ele>1018.0</ele><time>2026-05-03T13:35:08Z</time></trkpt><trkpt lat="41.70556170888671" lon="-2.2542579481059386"><ele>1018.0</ele><time>2026-05-03T13:35:09Z</time></trkpt><trkpt lat="41.70550721853393" lon="-2.254132328320418"><ele>1018.0</ele><time>2026-05-03T13:35:10Z</time></trkpt><trkpt lat="41.70545148154299" lon="-2.254003834549197"><ele>1018.0</ele><time>2026-05-03T13:35:11Z</time></trkpt><trkpt lat="41.705396977669615" lon="-2.2538781836328523"><ele>1018.0</ele><time>2026-05-03T13:35:12Z</time></trkpt><trkpt lat="41.7053429990234" lon="-2.253753743523318"><ele>1018.0</ele><time>2026-05-03T13:35:13Z</time></trkpt><trkpt lat="41.70528871558174" lon="-2.253628600724743"><ele>1018.0</ele><time>2026-05-03T13:35:14Z</time></trkpt><trkpt lat="41.70523542002121" lon="-2.253505735402005"><ele>1018.0</ele><time>2026-05-03T13:35:15Z</time></trkpt><trkpt lat="41.70518172019746" lon="-2.2533819380500613"><ele>1018.0</ele><time>2026-05-03T13:35:16Z</time></trkpt><trkpt lat="41.70512813215844" lon="-2.2532583984609484"><ele>1018.0</ele><time>2026-05-03T13:35:17Z</time></trkpt><trkpt lat="41.70507434432118" lon="-2.253134398226623"><ele>1018.2</ele><time>2026-05-03T13:35:18Z</time></trkpt><trkpt lat="41.70503556488795" lon="-2.2530019762828855"><ele>1018.4</ele><time>2026-05-03T13:35:19Z</time></trkpt><trkpt lat="41.70496735639241" lon="-2.2528877527196527"><ele>1018.6000000000001</ele><time>2026-05-03T13:35:20Z</time></trkpt><trkpt lat="41.70492717734471" lon="-2.252751280039426"><ele>1018.8000000000001</ele><time>2026-05-03T13:35:21.001Z</time></trkpt><trkpt lat="41.7048731594356" lon="-2.2526292580299763"><ele>1019.0</ele><time>2026-05-03T13:35:22.001Z</time></trkpt><trkpt lat="41.70481161655875" lon="-2.2525067541703168"><ele>1019.0</ele><time>2026-05-03T13:35:23.001Z</time></trkpt><trkpt lat="41.70476006069551" lon="-2.2523823299757444"><ele>1019.0000000000001</ele><time>2026-05-03T13:35:24.001Z</time></trkpt><trkpt lat="41.70470273264853" lon="-2.252258415460382"><ele>1019.0000000000001</ele><time>2026-05-03T13:35:25.001Z</time></trkpt><trkpt lat="41.70465196586163" lon="-2.252130818500143"><ele>1019.0</ele><time>2026-05-03T13:35:26.001Z</time></trkpt><trkpt lat="41.704594166457426" lon="-2.252001033476347"><ele>1019.0</ele><time>2026-05-03T13:35:27.001Z</time></trkpt><trkpt lat="41.704537801438114" lon="-2.2518721479697446"><ele>1018.8000000000001</ele><time>2026-05-03T13:35:28.001Z</time></trkpt><trkpt lat="41.704480959261176" lon="-2.251744061285406"><ele>1018.6000000000001</ele><time>2026-05-03T13:35:29.001Z</time></trkpt><trkpt lat="41.70442854530987" lon="-2.251616765291428"><ele>1018.4</ele><time>2026-05-03T13:35:30.001Z</time></trkpt><trkpt lat="41.70437482406738" lon="-2.251486618690751"><ele>1018.2</ele><time>2026-05-03T13:35:31.001Z</time></trkpt><trkpt lat="41.70431786381156" lon="-2.2513574407300463"><ele>1018.0</ele><time>2026-05-03T13:35:32.001Z</time></trkpt><trkpt lat="41.70426571738613" lon="-2.2512270487860078"><ele>1017.25</ele><time>2026-05-03T13:35:33.001Z</time></trkpt><trkpt lat="41.70419376984033" lon="-2.251104799174291"><ele>1016.5</ele><time>2026-05-03T13:35:34.001Z</time></trkpt><trkpt lat="41.70413754313463" lon="-2.2509752282387465"><ele>1015.75</ele><time>2026-05-03T13:35:35.001Z</time></trkpt><trkpt lat="41.70408074111019" lon="-2.2508436992930507"><ele>1015.0</ele><time>2026-05-03T13:35:36.001Z</time></trkpt><trkpt lat="41.70402365202826" lon="-2.2507097532203737"><ele>1015.0</ele><time>2026-05-03T13:35:37.001Z</time></trkpt><trkpt lat="41.703967054572956" lon="-2.2505769606217605"><ele>1015.0</ele><time>2026-05-03T13:35:38.001Z</time></trkpt><trkpt lat="41.70391179139044" lon="-2.2504472985948736"><ele>1015.0</ele><time>2026-05-03T13:35:39.001Z</time></trkpt><trkpt lat="41.7038560906314" lon="-2.2503166099020335"><ele>1015.0</ele><time>2026-05-03T13:35:40.001Z</time></trkpt><trkpt lat="41.70380075095144" lon="-2.250187509976559"><ele>1015.0</ele><time>2026-05-03T13:35:41.001Z</time></trkpt><trkpt lat="41.70374461783332" lon="-2.250058298570162"><ele>1015.0</ele><time>2026-05-03T13:35:42.001Z</time></trkpt><trkpt lat="41.70368979366065" lon="-2.2499321002025767"><ele>1015.0</ele><time>2026-05-03T13:35:43.001Z</time></trkpt><trkpt lat="41.70363488333374" lon="-2.2498057035173193"><ele>1015.0</ele><time>2026-05-03T13:35:44.001Z</time></trkpt><trkpt lat="41.70357878808216" lon="-2.2496765792985975"><ele>1015.0</ele><time>2026-05-03T13:35:45.001Z</time></trkpt><trkpt lat="41.703522941454615" lon="-2.249548027356545"><ele>1015.0</ele><time>2026-05-03T13:35:46.001Z</time></trkpt><trkpt lat="41.703468177108775" lon="-2.2494214224083677"><ele>1014.8</ele><time>2026-05-03T13:35:47.001Z</time></trkpt><trkpt lat="41.70341456477312" lon="-2.2492972822087562"><ele>1014.6</ele><time>2026-05-03T13:35:48.001Z</time></trkpt><trkpt lat="41.70336118800322" lon="-2.2491736875111688"><ele>1014.4000000000001</ele><time>2026-05-03T13:35:49.001Z</time></trkpt><trkpt lat="41.7033078460911" lon="-2.24905017353324"><ele>1014.2</ele><time>2026-05-03T13:35:50.001Z</time></trkpt><trkpt lat="41.70325286342318" lon="-2.2489228603142033"><ele>1014.0</ele><time>2026-05-03T13:35:51.001Z</time></trkpt><trkpt lat="41.7031979917126" lon="-2.2487958040435174"><ele>1014.4000000000001</ele><time>2026-05-03T13:35:52.001Z</time></trkpt><trkpt lat="41.7031444437977" lon="-2.248671813036917"><ele>1014.8000000000001</ele><time>2026-05-03T13:35:53.001Z</time></trkpt><trkpt lat="41.70309359470518" lon="-2.2485540982374372"><ele>1015.1999999999999</ele><time>2026-05-03T13:35:54.001Z</time></trkpt><trkpt lat="41.70304120403443" lon="-2.248432832565052"><ele>1015.5999999999999</ele><time>2026-05-03T13:35:55.001Z</time></trkpt><trkpt lat="41.70299013576427" lon="-2.248314627778195"><ele>1016.0</ele><time>2026-05-03T13:35:56.001Z</time></trkpt><trkpt lat="41.7029405550783" lon="-2.2481998662315488"><ele>1016.5999999999999</ele><time>2026-05-03T13:35:57.001Z</time></trkpt><trkpt lat="41.70289007781413" lon="-2.248083029411706"><ele>1017.1999999999999</ele><time>2026-05-03T13:35:58.001Z</time></trkpt><trkpt lat="41.70284079930925" lon="-2.247968967292815"><ele>1017.8000000000001</ele><time>2026-05-03T13:35:59.001Z</time></trkpt><trkpt lat="41.70279216038505" lon="-2.247856385565125"><ele>1018.4000000000001</ele><time>2026-05-03T13:36:00.001Z</time></trkpt><trkpt lat="41.702742751749" lon="-2.247742022239221"><ele>1019.0</ele><time>2026-05-03T13:36:01.001Z</time></trkpt><trkpt lat="41.70269377296501" lon="-2.247628653896987"><ele>1019.0</ele><time>2026-05-03T13:36:02.001Z</time></trkpt><trkpt lat="41.70264608172997" lon="-2.2475182657137256"><ele>1019.0000000000001</ele><time>2026-05-03T13:36:03.001Z</time></trkpt><trkpt lat="41.70259628816525" lon="-2.247403413579627"><ele>1019.0000000000001</ele><time>2026-05-03T13:36:04.001Z</time></trkpt><trkpt lat="41.70254793552573" lon="-2.247292318564873"><ele>1019.0</ele><time>2026-05-03T13:36:05.001Z</time></trkpt><trkpt lat="41.70249905668557" lon="-2.24718001461815"><ele>1019.0</ele><time>2026-05-03T13:36:06.001Z</time></trkpt><trkpt lat="41.7024495960062" lon="-2.247066373747296"><ele>1019.4000000000001</ele><time>2026-05-03T13:36:07.001Z</time></trkpt><trkpt lat="41.702400990847224" lon="-2.2469546985449727"><ele>1019.8000000000001</ele><time>2026-05-03T13:36:08.001Z</time></trkpt><trkpt lat="41.7023617633034" lon="-2.246827665570473"><ele>1020.1999999999999</ele><time>2026-05-03T13:36:09.001Z</time></trkpt><trkpt lat="41.70231248265653" lon="-2.246708382177134"><ele>1020.5999999999999</ele><time>2026-05-03T13:36:10.001Z</time></trkpt><trkpt lat="41.702259995664676" lon="-2.2465942055457155"><ele>1021.0</ele><time>2026-05-03T13:36:11.001Z</time></trkpt><trkpt lat="41.70220706622951" lon="-2.2464758032461276"><ele>1021.1999999999999</ele><time>2026-05-03T13:36:12.001Z</time></trkpt><trkpt lat="41.70215583949377" lon="-2.2463542932479656"><ele>1021.3999999999999</ele><time>2026-05-03T13:36:13.001Z</time></trkpt><trkpt lat="41.702106110740694" lon="-2.246233298572499"><ele>1021.6</ele><time>2026-05-03T13:36:14.001Z</time></trkpt><trkpt lat="41.70203934136638" lon="-2.2461220870134633"><ele>1021.8</ele><time>2026-05-03T13:36:15.001Z</time></trkpt><trkpt lat="41.701998214636944" lon="-2.2459864714047093"><ele>1022.0</ele><time>2026-05-03T13:36:16.001Z</time></trkpt><trkpt lat="41.70193126774988" lon="-2.245871186790233"><ele>1021.4000000000001</ele><time>2026-05-03T13:36:17.001Z</time></trkpt><trkpt lat="41.70187626621729" lon="-2.245743497014837"><ele>1020.8000000000001</ele><time>2026-05-03T13:36:18.001Z</time></trkpt><trkpt lat="41.701822371179546" lon="-2.2456183760871604"><ele>1020.2</ele><time>2026-05-03T13:36:19.001Z</time></trkpt><trkpt lat="41.70176776525271" lon="-2.245491604674209"><ele>1019.6</ele><time>2026-05-03T13:36:20.001Z</time></trkpt><trkpt lat="41.701722116888114" lon="-2.2453516319140387"><ele>1019.0</ele><time>2026-05-03T13:36:21.001Z</time></trkpt><trkpt lat="41.7016596279591" lon="-2.245240556692228"><ele>1018.75</ele><time>2026-05-03T13:36:22.001Z</time></trkpt><trkpt lat="41.70161015512288" lon="-2.245125701776579"><ele>1018.5</ele><time>2026-05-03T13:36:23.001Z</time></trkpt><trkpt lat="41.701544957898925" lon="-2.244974341474545"><ele>1018.25</ele><time>2026-05-03T13:36:24.001Z</time></trkpt><trkpt lat="41.70148937277795" lon="-2.2448452970878483"><ele>1018.0</ele><time>2026-05-03T13:36:25.001Z</time></trkpt><trkpt lat="41.70143428564149" lon="-2.2447174083856156"><ele>1017.8</ele><time>2026-05-03T13:36:26.001Z</time></trkpt><trkpt lat="41.701378736370884" lon="-2.244588446959992"><ele>1017.5999999999999</ele><time>2026-05-03T13:36:27.001Z</time></trkpt><trkpt lat="41.70132418503182" lon="-2.244462107742274"><ele>1017.4000000000001</ele><time>2026-05-03T13:36:28.001Z</time></trkpt><trkpt lat="41.70126950918487" lon="-2.2443364340112395"><ele>1017.2</ele><time>2026-05-03T13:36:29.001Z</time></trkpt><trkpt lat="41.701213272893206" lon="-2.244206550645563"><ele>1017.0</ele><time>2026-05-03T13:36:30.001Z</time></trkpt><trkpt lat="41.701157875956895" lon="-2.2440786060835576"><ele>1017.0</ele><time>2026-05-03T13:36:31.001Z</time></trkpt><trkpt lat="41.70110313667951" lon="-2.2439521802783866"><ele>1017.0</ele><time>2026-05-03T13:36:32.001Z</time></trkpt><trkpt lat="41.70105676377088" lon="-2.243818158136156"><ele>1017.0</ele><time>2026-05-03T13:36:33.001Z</time></trkpt><trkpt lat="41.70100307165675" lon="-2.2436865844109257"><ele>1017.0</ele><time>2026-05-03T13:36:34.001Z</time></trkpt><trkpt lat="41.70095067040734" lon="-2.2435592208880744"><ele>1017.0</ele><time>2026-05-03T13:36:35.001Z</time></trkpt><trkpt lat="41.70089597536726" lon="-2.243434337472387"><ele>1017.0</ele><time>2026-05-03T13:36:36.001Z</time></trkpt><trkpt lat="41.70084241645779" lon="-2.2433116347672066"><ele>1017.0</ele><time>2026-05-03T13:36:37.001Z</time></trkpt><trkpt lat="41.70078997702643" lon="-2.243185897410165"><ele>1017.0</ele><time>2026-05-03T13:36:38.001Z</time></trkpt><trkpt lat="41.70073628797487" lon="-2.2430626093099764"><ele>1017.0</ele><time>2026-05-03T13:36:39.001Z</time></trkpt><trkpt lat="41.700682036806484" lon="-2.242938611217755"><ele>1017.0</ele><time>2026-05-03T13:36:40.001Z</time></trkpt><trkpt lat="41.70062774739519" lon="-2.2428162563202734"><ele>1017.2</ele><time>2026-05-03T13:36:41.001Z</time></trkpt><trkpt lat="41.70057523546967" lon="-2.2426971147833217"><ele>1017.4000000000001</ele><time>2026-05-03T13:36:42.001Z</time></trkpt><trkpt lat="41.70052091750814" lon="-2.2425715444906666"><ele>1017.5999999999999</ele><time>2026-05-03T13:36:43.001Z</time></trkpt><trkpt lat="41.70047015171313" lon="-2.2424484244546488"><ele>1017.8</ele><time>2026-05-03T13:36:44.001Z</time></trkpt><trkpt lat="41.700403832993125" lon="-2.242337069780546"><ele>1018.0</ele><time>2026-05-03T13:36:45.001Z</time></trkpt><trkpt lat="41.70035050905681" lon="-2.24221391293358"><ele>1018.0</ele><time>2026-05-03T13:36:46.001Z</time></trkpt><trkpt lat="41.70029796445336" lon="-2.242092556018272"><ele>1018.0</ele><time>2026-05-03T13:36:47.001Z</time></trkpt><trkpt lat="41.70024402699432" lon="-2.2419679821429086"><ele>1018.0</ele><time>2026-05-03T13:36:48Z</time></trkpt><trkpt lat="41.7001901989218" lon="-2.2418436763475933"><ele>1018.0</ele><time>2026-05-03T13:36:49Z</time></trkpt><trkpt lat="41.70013702138119" lon="-2.241720882971816"><ele>1018.0</ele><time>2026-05-03T13:36:50Z</time></trkpt><trkpt lat="41.70008264904178" lon="-2.241595330659458"><ele>1018.0</ele><time>2026-05-03T13:36:51Z</time></trkpt><trkpt lat="41.7000418277102" lon="-2.2414621014384024"><ele>1018.0</ele><time>2026-05-03T13:36:52Z</time></trkpt><trkpt lat="41.699979431156315" lon="-2.24131726445376"><ele>1018.0</ele><time>2026-05-03T13:36:53Z</time></trkpt><trkpt lat="41.699876994570886" lon="-2.2411230080019773"><ele>1018.0</ele><time>2026-05-03T13:36:54Z</time></trkpt><trkpt lat="41.69980382513221" lon="-2.2409514675790034"><ele>1018.0</ele><time>2026-05-03T13:36:56Z</time></trkpt><trkpt lat="41.69974863854603" lon="-2.2408240232795897"><ele>1018.0</ele><time>2026-05-03T13:36:57Z</time></trkpt><trkpt lat="41.69969176678647" lon="-2.240692687492794"><ele>1018.0</ele><time>2026-05-03T13:36:58Z</time></trkpt><trkpt lat="41.69963423031653" lon="-2.2405598165628944"><ele>1018.0</ele><time>2026-05-03T13:36:59Z</time></trkpt><trkpt lat="41.69957782199281" lon="-2.2404295508961427"><ele>1018.0</ele><time>2026-05-03T13:37:00Z</time></trkpt><trkpt lat="41.69952195748208" lon="-2.2403005410650105"><ele>1018.0</ele><time>2026-05-03T13:37:01Z</time></trkpt><trkpt lat="41.699465618299755" lon="-2.2401704351762244"><ele>1018.0</ele><time>2026-05-03T13:37:02Z</time></trkpt><trkpt lat="41.699410118305885" lon="-2.2400422670691396"><ele>1018.0</ele><time>2026-05-03T13:37:03Z</time></trkpt><trkpt lat="41.69935406168383" lon="-2.2399128137281457"><ele>1018.0</ele><time>2026-05-03T13:37:04Z</time></trkpt><trkpt lat="41.69929824414403" lon="-2.239783912337117"><ele>1016.8</ele><time>2026-05-03T13:37:05Z</time></trkpt><trkpt lat="41.69924280267819" lon="-2.239655879527538"><ele>1015.5999999999999</ele><time>2026-05-03T13:37:06Z</time></trkpt><trkpt lat="41.699186799133116" lon="-2.2395265486590996"><ele>1014.4000000000001</ele><time>2026-05-03T13:37:07Z</time></trkpt><trkpt lat="41.69913247503038" lon="-2.2394010961246766"><ele>1013.2</ele><time>2026-05-03T13:37:08Z</time></trkpt><trkpt lat="41.69907886533862" lon="-2.2392772934413587"><ele>1012.0</ele><time>2026-05-03T13:37:09Z</time></trkpt><trkpt lat="41.699022600559736" lon="-2.2391473593448574"><ele>1012.0</ele><time>2026-05-03T13:37:10Z</time></trkpt><trkpt lat="41.698965961313405" lon="-2.2390165604321455"><ele>1012.0</ele><time>2026-05-03T13:37:11Z</time></trkpt><trkpt lat="41.69890943387867" lon="-2.2388860197620537"><ele>1012.0</ele><time>2026-05-03T13:37:12Z</time></trkpt><trkpt lat="41.69885358870827" lon="-2.238757054578164"><ele>1012.0</ele><time>2026-05-03T13:37:13Z</time></trkpt><trkpt lat="41.6987970800169" lon="-2.2386265571260915"><ele>1011.75</ele><time>2026-05-03T13:37:14Z</time></trkpt><trkpt lat="41.698738701894904" lon="-2.238491742560619"><ele>1011.5</ele><time>2026-05-03T13:37:15Z</time></trkpt><trkpt lat="41.6986822183324" lon="-2.2383612543409015"><ele>1011.25</ele><time>2026-05-03T13:37:16Z</time></trkpt><trkpt lat="41.69862624717994" lon="-2.238231748565494"><ele>1011.0</ele><time>2026-05-03T13:37:17Z</time></trkpt><trkpt lat="41.69856895077298" lon="-2.2380991764619265"><ele>1010.75</ele><time>2026-05-03T13:37:18Z</time></trkpt><trkpt lat="41.69851148641544" lon="-2.237966215774047"><ele>1010.5</ele><time>2026-05-03T13:37:19Z</time></trkpt><trkpt lat="41.698455543068704" lon="-2.2378367743762486"><ele>1010.25</ele><time>2026-05-03T13:37:20Z</time></trkpt><trkpt lat="41.698398652556726" lon="-2.237705141448845"><ele>1010.0</ele><time>2026-05-03T13:37:21Z</time></trkpt><trkpt lat="41.69834267248804" lon="-2.237575615060405"><ele>1010.0</ele><time>2026-05-03T13:37:22Z</time></trkpt><trkpt lat="41.69828727181919" lon="-2.2374474292828364"><ele>1010.0</ele><time>2026-05-03T13:37:23Z</time></trkpt><trkpt lat="41.6982309783415" lon="-2.237317177735192"><ele>1010.0</ele><time>2026-05-03T13:37:24Z</time></trkpt><trkpt lat="41.698175695074454" lon="-2.2371892636779473"><ele>1010.0</ele><time>2026-05-03T13:37:25Z</time></trkpt><trkpt lat="41.69812074786201" lon="-2.237062127150672"><ele>1010.0</ele><time>2026-05-03T13:37:26Z</time></trkpt><trkpt lat="41.698064629843316" lon="-2.2369320423688"><ele>1010.0</ele><time>2026-05-03T13:37:27Z</time></trkpt><trkpt lat="41.69800948736668" lon="-2.236804010385221"><ele>1010.0</ele><time>2026-05-03T13:37:28Z</time></trkpt><trkpt lat="41.69795310025828" lon="-2.2366730886197717"><ele>1010.0</ele><time>2026-05-03T13:37:29Z</time></trkpt><trkpt lat="41.69789671660867" lon="-2.2365421747941987"><ele>1010.0</ele><time>2026-05-03T13:37:30Z</time></trkpt><trkpt lat="41.69784149597151" lon="-2.236413961370223"><ele>1010.0</ele><time>2026-05-03T13:37:31.001Z</time></trkpt><trkpt lat="41.6977867726154" lon="-2.2362869024945327"><ele>1009.6</ele><time>2026-05-03T13:37:32.001Z</time></trkpt><trkpt lat="41.69773060226998" lon="-2.236156484086022"><ele>1009.2</ele><time>2026-05-03T13:37:33.001Z</time></trkpt><trkpt lat="41.69767511570923" lon="-2.2360276533606664"><ele>1008.8</ele><time>2026-05-03T13:37:34.001Z</time></trkpt><trkpt lat="41.69761989917263" lon="-2.235899449316364"><ele>1008.4</ele><time>2026-05-03T13:37:35.001Z</time></trkpt><trkpt lat="41.697564143815455" lon="-2.235769994332555"><ele>1008.0</ele><time>2026-05-03T13:37:36.001Z</time></trkpt><trkpt lat="41.6975084859471" lon="-2.23564080104904"><ele>1008.5</ele><time>2026-05-03T13:37:37.001Z</time></trkpt><trkpt lat="41.697452760072764" lon="-2.2355120741696224"><ele>1009.0</ele><time>2026-05-03T13:37:38.001Z</time></trkpt><trkpt lat="41.69739551363329" lon="-2.2353798345915"><ele>1009.5</ele><time>2026-05-03T13:37:39.001Z</time></trkpt><trkpt lat="41.69733878392823" lon="-2.2352487887303947"><ele>1010.0</ele><time>2026-05-03T13:37:40.001Z</time></trkpt><trkpt lat="41.69728288234278" lon="-2.2351196559105118"><ele>1010.0</ele><time>2026-05-03T13:37:41.001Z</time></trkpt><trkpt lat="41.69722722925698" lon="-2.2349910970895994"><ele>1010.0</ele><time>2026-05-03T13:37:42.001Z</time></trkpt><trkpt lat="41.69717120161688" lon="-2.2348616730064546"><ele>1010.0</ele><time>2026-05-03T13:37:43.001Z</time></trkpt><trkpt lat="41.697115399728744" lon="-2.234732770438566"><ele>1010.0</ele><time>2026-05-03T13:37:44.001Z</time></trkpt><trkpt lat="41.6970613551888" lon="-2.234607927348243"><ele>1010.0</ele><time>2026-05-03T13:37:45.001Z</time></trkpt><trkpt lat="41.69700514910648" lon="-2.234478091124606"><ele>1010.0</ele><time>2026-05-03T13:37:46.001Z</time></trkpt><trkpt lat="41.69694880420414" lon="-2.2343478550711913"><ele>1010.0</ele><time>2026-05-03T13:37:47.001Z</time></trkpt><trkpt lat="41.6968966619208" lon="-2.23422716186761"><ele>1010.0</ele><time>2026-05-03T13:37:48.001Z</time></trkpt><trkpt lat="41.69683646670999" lon="-2.234087828622226"><ele>1010.0</ele><time>2026-05-03T13:37:49.001Z</time></trkpt><trkpt lat="41.69678613907451" lon="-2.2339713356830333"><ele>1010.0</ele><time>2026-05-03T13:37:50.001Z</time></trkpt><trkpt lat="41.69673929476963" lon="-2.2338520371863857"><ele>1009.25</ele><time>2026-05-03T13:37:51.001Z</time></trkpt><trkpt lat="41.696655683902065" lon="-2.2338176008875514"><ele>1008.5</ele><time>2026-05-03T13:37:52.001Z</time></trkpt><trkpt lat="41.69662020623425" lon="-2.2335872514774358"><ele>1007.75</ele><time>2026-05-03T13:37:53.001Z</time></trkpt><trkpt lat="41.696566194083644" lon="-2.23346223035044"><ele>1007.0</ele><time>2026-05-03T13:37:54.001Z</time></trkpt><trkpt lat="41.69651108190357" lon="-2.233333509586707"><ele>1007.0</ele><time>2026-05-03T13:37:55.001Z</time></trkpt><trkpt lat="41.69645634245341" lon="-2.2332051419724013"><ele>1007.0</ele><time>2026-05-03T13:37:56.001Z</time></trkpt><trkpt lat="41.69640286404221" lon="-2.2330797317217956"><ele>1007.0</ele><time>2026-05-03T13:37:57.001Z</time></trkpt><trkpt lat="41.69634820186001" lon="-2.2329515447819523"><ele>1007.0</ele><time>2026-05-03T13:37:58.001Z</time></trkpt><trkpt lat="41.6962934190299" lon="-2.232823075806802"><ele>1007.0</ele><time>2026-05-03T13:37:59.001Z</time></trkpt><trkpt lat="41.696239115488304" lon="-2.2326957304378445"><ele>1007.0</ele><time>2026-05-03T13:38:00.001Z</time></trkpt><trkpt lat="41.696183635584035" lon="-2.2325656265930887"><ele>1007.0</ele><time>2026-05-03T13:38:01.001Z</time></trkpt><trkpt lat="41.69612966044691" lon="-2.2324390511359975"><ele>1007.0</ele><time>2026-05-03T13:38:02.001Z</time></trkpt><trkpt lat="41.69607463276889" lon="-2.2323119850876454"><ele>1007.0</ele><time>2026-05-03T13:38:03.001Z</time></trkpt><trkpt lat="41.69602112152181" lon="-2.2321891619678746"><ele>1007.0</ele><time>2026-05-03T13:38:04.001Z</time></trkpt><trkpt lat="41.69596722480137" lon="-2.232065453680844"><ele>1007.4000000000001</ele><time>2026-05-03T13:38:05.001Z</time></trkpt><trkpt lat="41.69591259846552" lon="-2.231940070735499"><ele>1007.8000000000001</ele><time>2026-05-03T13:38:06.001Z</time></trkpt><trkpt lat="41.69585980297064" lon="-2.2318188900742806"><ele>1008.2</ele><time>2026-05-03T13:38:07.001Z</time></trkpt><trkpt lat="41.69580474182103" lon="-2.231692509048419"><ele>1008.6</ele><time>2026-05-03T13:38:08.001Z</time></trkpt><trkpt lat="41.69575196687632" lon="-2.2315713756070825"><ele>1009.0</ele><time>2026-05-03T13:38:09.001Z</time></trkpt><trkpt lat="41.69569974252246" lon="-2.2314515058401114"><ele>1009.6</ele><time>2026-05-03T13:38:10.001Z</time></trkpt><trkpt lat="41.69564873894503" lon="-2.231334438141642"><ele>1010.2</ele><time>2026-05-03T13:38:11.001Z</time></trkpt><trkpt lat="41.69559936233838" lon="-2.2312211048349333"><ele>1010.8000000000001</ele><time>2026-05-03T13:38:12.001Z</time></trkpt><trkpt lat="41.6955474233179" lon="-2.231101763876663"><ele>1011.4000000000001</ele><time>2026-05-03T13:38:13.001Z</time></trkpt><trkpt lat="41.69549660296702" lon="-2.2309842218164313"><ele>1012.0</ele><time>2026-05-03T13:38:14.001Z</time></trkpt><trkpt lat="41.695448321058414" lon="-2.2308725509301146"><ele>1012.0</ele><time>2026-05-03T13:38:15.001Z</time></trkpt><trkpt lat="41.69540192684839" lon="-2.2307652461074463"><ele>1012.0</ele><time>2026-05-03T13:38:16.001Z</time></trkpt><trkpt lat="41.69535367276417" lon="-2.2306536394951197"><ele>1012.0</ele><time>2026-05-03T13:38:17.001Z</time></trkpt><trkpt lat="41.69530594432332" lon="-2.2305432487509194"><ele>1012.0</ele><time>2026-05-03T13:38:18.001Z</time></trkpt><trkpt lat="41.69525924979197" lon="-2.2304352492861628"><ele>1012.0</ele><time>2026-05-03T13:38:19.001Z</time></trkpt><trkpt lat="41.69521222991782" lon="-2.230326497337098"><ele>1012.8</ele><time>2026-05-03T13:38:20.001Z</time></trkpt><trkpt lat="41.69516482012571" lon="-2.2302168313094217"><ele>1013.6</ele><time>2026-05-03T13:38:21.001Z</time></trkpt><trkpt lat="41.69511689237331" lon="-2.23010590793195"><ele>1014.3999999999999</ele><time>2026-05-03T13:38:22.001Z</time></trkpt><trkpt lat="41.69507660348202" lon="-2.229982583803782"><ele>1015.1999999999999</ele><time>2026-05-03T13:38:23.001Z</time></trkpt><trkpt lat="41.69502665525997" lon="-2.229871272444763"><ele>1016.0</ele><time>2026-05-03T13:38:24.001Z</time></trkpt><trkpt lat="41.69498064174017" lon="-2.2297547680851273"><ele>1016.0</ele><time>2026-05-03T13:38:25.001Z</time></trkpt><trkpt lat="41.69493008618949" lon="-2.229639647209123"><ele>1015.9999999999999</ele><time>2026-05-03T13:38:26.001Z</time></trkpt><trkpt lat="41.694878500554886" lon="-2.2295231531914337"><ele>1015.9999999999999</ele><time>2026-05-03T13:38:27.001Z</time></trkpt><trkpt lat="41.69482053631659" lon="-2.2294096550312434"><ele>1016.0</ele><time>2026-05-03T13:38:28.001Z</time></trkpt><trkpt lat="41.6947756417611" lon="-2.2292811119229787"><ele>1016.0</ele><time>2026-05-03T13:38:29.001Z</time></trkpt><trkpt lat="41.69472119925844" lon="-2.2291578302094623"><ele>1016.0</ele><time>2026-05-03T13:38:30.001Z</time></trkpt><trkpt lat="41.694669276700075" lon="-2.22902848681596"><ele>1015.9999999999999</ele><time>2026-05-03T13:38:31.001Z</time></trkpt><trkpt lat="41.694603288869956" lon="-2.2289099892739994"><ele>1015.9999999999999</ele><time>2026-05-03T13:38:32.001Z</time></trkpt><trkpt lat="41.69454936019719" lon="-2.2287773733543346"><ele>1016.0</ele><time>2026-05-03T13:38:33.001Z</time></trkpt><trkpt lat="41.69449489208837" lon="-2.2286490246552306"><ele>1016.0</ele><time>2026-05-03T13:38:34.001Z</time></trkpt><trkpt lat="41.69444207231733" lon="-2.2285103514907676"><ele>1014.5</ele><time>2026-05-03T13:38:35.001Z</time></trkpt><trkpt lat="41.69438522191251" lon="-2.2283754651358865"><ele>1013.0</ele><time>2026-05-03T13:38:36.001Z</time></trkpt><trkpt lat="41.694328831806466" lon="-2.2282465091923367"><ele>1011.5</ele><time>2026-05-03T13:38:37.001Z</time></trkpt><trkpt lat="41.69427324867034" lon="-2.2281164139225447"><ele>1010.0</ele><time>2026-05-03T13:38:38.001Z</time></trkpt><trkpt lat="41.69421413408644" lon="-2.2279850483867154"><ele>1010.0</ele><time>2026-05-03T13:38:39.001Z</time></trkpt><trkpt lat="41.694158724279056" lon="-2.2278496367434673"><ele>1010.0</ele><time>2026-05-03T13:38:40.001Z</time></trkpt><trkpt lat="41.694103577342574" lon="-2.227718305707727"><ele>1010.0</ele><time>2026-05-03T13:38:41.001Z</time></trkpt><trkpt lat="41.69404623535726" lon="-2.227589793292044"><ele>1010.0</ele><time>2026-05-03T13:38:42.001Z</time></trkpt><trkpt lat="41.69399088686548" lon="-2.2274635254225106"><ele>1010.0</ele><time>2026-05-03T13:38:43.001Z</time></trkpt><trkpt lat="41.693932765532004" lon="-2.2273420637837713"><ele>1010.2</ele><time>2026-05-03T13:38:44.001Z</time></trkpt><trkpt lat="41.693867274367086" lon="-2.227217422773845"><ele>1010.4</ele><time>2026-05-03T13:38:45.001Z</time></trkpt><trkpt lat="41.69382740490275" lon="-2.2270823004343625"><ele>1010.5999999999999</ele><time>2026-05-03T13:38:46.001Z</time></trkpt><trkpt lat="41.69375715440729" lon="-2.2269643725043937"><ele>1010.8</ele><time>2026-05-03T13:38:47.001Z</time></trkpt><trkpt lat="41.69370437846173" lon="-2.226843095865794"><ele>1011.0</ele><time>2026-05-03T13:38:48Z</time></trkpt><trkpt lat="41.69364795484143" lon="-2.226713987921053"><ele>1011.0</ele><time>2026-05-03T13:38:49Z</time></trkpt><trkpt lat="41.69359387229888" lon="-2.2265902238112516"><ele>1010.9999999999999</ele><time>2026-05-03T13:38:50Z</time></trkpt><trkpt lat="41.69353925782189" lon="-2.22646524231487"><ele>1010.9999999999999</ele><time>2026-05-03T13:38:51Z</time></trkpt><trkpt lat="41.693485970353734" lon="-2.2263423827216675"><ele>1011.0</ele><time>2026-05-03T13:38:52Z</time></trkpt><trkpt lat="41.69343244182675" lon="-2.2262182815940994"><ele>1011.0</ele><time>2026-05-03T13:38:53Z</time></trkpt><trkpt lat="41.693377335699886" lon="-2.226090522979342"><ele>1010.8</ele><time>2026-05-03T13:38:54Z</time></trkpt><trkpt lat="41.69332390682082" lon="-2.2259666529225424"><ele>1010.5999999999999</ele><time>2026-05-03T13:38:55Z</time></trkpt><trkpt lat="41.693269742101386" lon="-2.22584107685029"><ele>1010.4</ele><time>2026-05-03T13:38:56Z</time></trkpt><trkpt lat="41.69321581666813" lon="-2.2257160555716746"><ele>1010.2</ele><time>2026-05-03T13:38:57Z</time></trkpt><trkpt lat="41.69316340993874" lon="-2.225594555259825"><ele>1010.0</ele><time>2026-05-03T13:38:58Z</time></trkpt><trkpt lat="41.693110458822645" lon="-2.2254717928601866"><ele>1010.0</ele><time>2026-05-03T13:38:59Z</time></trkpt><trkpt lat="41.69305799441049" lon="-2.2253501576690864"><ele>1010.0</ele><time>2026-05-03T13:39:00Z</time></trkpt><trkpt lat="41.693004169945354" lon="-2.2252283548537624"><ele>1010.0</ele><time>2026-05-03T13:39:01Z</time></trkpt><trkpt lat="41.69295278993265" lon="-2.2251108548522915"><ele>1010.0</ele><time>2026-05-03T13:39:02Z</time></trkpt><trkpt lat="41.69290082136303" lon="-2.224992008849221"><ele>1010.0</ele><time>2026-05-03T13:39:03Z</time></trkpt><trkpt lat="41.69284805366377" lon="-2.224871335329147"><ele>1010.0</ele><time>2026-05-03T13:39:04Z</time></trkpt><trkpt lat="41.692794861900055" lon="-2.2247496920082965"><ele>1010.0</ele><time>2026-05-03T13:39:05Z</time></trkpt><trkpt lat="41.69274216618582" lon="-2.2246291831538345"><ele>1010.0</ele><time>2026-05-03T13:39:06Z</time></trkpt><trkpt lat="41.69268801449715" lon="-2.2245053446163037"><ele>1010.0</ele><time>2026-05-03T13:39:07Z</time></trkpt><trkpt lat="41.69263514147893" lon="-2.2243844302694735"><ele>1010.0</ele><time>2026-05-03T13:39:08Z</time></trkpt><trkpt lat="41.69258268124573" lon="-2.224264391305623"><ele>1010.0</ele><time>2026-05-03T13:39:09Z</time></trkpt><trkpt lat="41.69253157741479" lon="-2.224146005504725"><ele>1010.0</ele><time>2026-05-03T13:39:10Z</time></trkpt><trkpt lat="41.692482152740105" lon="-2.2240315095683707"><ele>1010.0</ele><time>2026-05-03T13:39:11Z</time></trkpt><trkpt lat="41.69242858805681" lon="-2.2239074229996847"><ele>1010.0</ele><time>2026-05-03T13:39:12Z</time></trkpt><trkpt lat="41.69237677206109" lon="-2.2237873874338994"><ele>1010.0</ele><time>2026-05-03T13:39:13Z</time></trkpt><trkpt lat="41.69232475348258" lon="-2.2236668825454045"><ele>1010.6</ele><time>2026-05-03T13:39:14Z</time></trkpt><trkpt lat="41.692273556703796" lon="-2.2235482814276626"><ele>1011.2</ele><time>2026-05-03T13:39:15Z</time></trkpt><trkpt lat="41.692223084731175" lon="-2.223431359371667"><ele>1011.8</ele><time>2026-05-03T13:39:16Z</time></trkpt><trkpt lat="41.69217149988542" lon="-2.2233118592418037"><ele>1012.4</ele><time>2026-05-03T13:39:17Z</time></trkpt><trkpt lat="41.692119165780376" lon="-2.2231906234092507"><ele>1013.0</ele><time>2026-05-03T13:39:18Z</time></trkpt><trkpt lat="41.69206790983618" lon="-2.22307188523597"><ele>1013.0</ele><time>2026-05-03T13:39:19Z</time></trkpt><trkpt lat="41.6920166707365" lon="-2.2229531860668357"><ele>1013.0</ele><time>2026-05-03T13:39:20Z</time></trkpt><trkpt lat="41.69196503361077" lon="-2.22283356483801"><ele>1013.0</ele><time>2026-05-03T13:39:21Z</time></trkpt><trkpt lat="41.69191477689517" lon="-2.222717141452435"><ele>1013.0</ele><time>2026-05-03T13:39:22Z</time></trkpt><trkpt lat="41.69186369389066" lon="-2.2225988038775855"><ele>1013.0</ele><time>2026-05-03T13:39:23Z</time></trkpt><trkpt lat="41.69181348316933" lon="-2.2224824870353026"><ele>1013.0</ele><time>2026-05-03T13:39:24Z</time></trkpt><trkpt lat="41.69176220349823" lon="-2.222363693064231"><ele>1013.0</ele><time>2026-05-03T13:39:25Z</time></trkpt><trkpt lat="41.691711491849546" lon="-2.2222467199746645"><ele>1013.0</ele><time>2026-05-03T13:39:26Z</time></trkpt><trkpt lat="41.6916592112997" lon="-2.222126543429394"><ele>1013.0</ele><time>2026-05-03T13:39:27Z</time></trkpt><trkpt lat="41.69160840811529" lon="-2.222009762790749"><ele>1013.0</ele><time>2026-05-03T13:39:28Z</time></trkpt><trkpt lat="41.69155756800579" lon="-2.221892897356037"><ele>1013.0</ele><time>2026-05-03T13:39:29Z</time></trkpt><trkpt lat="41.69150655521593" lon="-2.2217756350425586"><ele>1013.0</ele><time>2026-05-03T13:39:30Z</time></trkpt><trkpt lat="41.691455490895834" lon="-2.2216582541438403"><ele>1013.0</ele><time>2026-05-03T13:39:31Z</time></trkpt><trkpt lat="41.6914041630739" lon="-2.221540267663185"><ele>1013.0</ele><time>2026-05-03T13:39:32Z</time></trkpt><trkpt lat="41.6913532586571" lon="-2.2214231809527027"><ele>1013.0</ele><time>2026-05-03T13:39:33Z</time></trkpt><trkpt lat="41.691303141071636" lon="-2.221307892734572"><ele>1013.0</ele><time>2026-05-03T13:39:34Z</time></trkpt><trkpt lat="41.691253189605526" lon="-2.2211929870779246"><ele>1013.0</ele><time>2026-05-03T13:39:35Z</time></trkpt><trkpt lat="41.691203954993455" lon="-2.221079729860538"><ele>1013.0</ele><time>2026-05-03T13:39:36Z</time></trkpt><trkpt lat="41.6911546882556" lon="-2.2209663988986805"><ele>1013.0</ele><time>2026-05-03T13:39:37Z</time></trkpt><trkpt lat="41.691103977202474" lon="-2.2208497454571297"><ele>1013.0</ele><time>2026-05-03T13:39:38Z</time></trkpt><trkpt lat="41.69105522215977" lon="-2.2207375091017107"><ele>1013.5999999999999</ele><time>2026-05-03T13:39:39Z</time></trkpt><trkpt lat="41.69100690108483" lon="-2.2206254400244587"><ele>1014.1999999999999</ele><time>2026-05-03T13:39:40Z</time></trkpt><trkpt lat="41.69096076030642" lon="-2.2205184273906053"><ele>1014.8</ele><time>2026-05-03T13:39:41Z</time></trkpt><trkpt lat="41.69091281184142" lon="-2.220407222583247"><ele>1015.4</ele><time>2026-05-03T13:39:42Z</time></trkpt><trkpt lat="41.69086386439609" lon="-2.2202937005657373"><ele>1016.0</ele><time>2026-05-03T13:39:43Z</time></trkpt><trkpt lat="41.69081689114299" lon="-2.220184757367926"><ele>1016.0</ele><time>2026-05-03T13:39:44Z</time></trkpt><trkpt lat="41.69076794914392" lon="-2.2200712482032388"><ele>1015.9999999999999</ele><time>2026-05-03T13:39:45Z</time></trkpt><trkpt lat="41.69072021393152" lon="-2.219960537708912"><ele>1015.9999999999999</ele><time>2026-05-03T13:39:46Z</time></trkpt><trkpt lat="41.69067307439068" lon="-2.2198512090006166"><ele>1016.0</ele><time>2026-05-03T13:39:47Z</time></trkpt><trkpt lat="41.690626594655136" lon="-2.21974364592878"><ele>1016.0</ele><time>2026-05-03T13:39:48Z</time></trkpt><trkpt lat="41.690578282838274" lon="-2.21963259713655"><ele>1016.4</ele><time>2026-05-03T13:39:49Z</time></trkpt><trkpt lat="41.6905288977208" lon="-2.2195190811873653"><ele>1016.8</ele><time>2026-05-03T13:39:50Z</time></trkpt><trkpt lat="41.690480356732344" lon="-2.219407505451636"><ele>1017.1999999999999</ele><time>2026-05-03T13:39:51Z</time></trkpt><trkpt lat="41.69043157238556" lon="-2.219295370393049"><ele>1017.5999999999999</ele><time>2026-05-03T13:39:52Z</time></trkpt><trkpt lat="41.690382561458165" lon="-2.219182081294967"><ele>1018.0</ele><time>2026-05-03T13:39:53Z</time></trkpt><trkpt lat="41.690335581118724" lon="-2.2190730676867805"><ele>1018.2</ele><time>2026-05-03T13:39:54Z</time></trkpt><trkpt lat="41.69028705264542" lon="-2.2189604619703864"><ele>1018.4</ele><time>2026-05-03T13:39:55.001Z</time></trkpt><trkpt lat="41.69023912349404" lon="-2.218849246754522"><ele>1018.6000000000001</ele><time>2026-05-03T13:39:56.001Z</time></trkpt><trkpt lat="41.69019270989062" lon="-2.218741548100245"><ele>1018.8000000000001</ele><time>2026-05-03T13:39:57.001Z</time></trkpt><trkpt lat="41.690144756517434" lon="-2.2186302770742694"><ele>1019.0</ele><time>2026-05-03T13:39:58.001Z</time></trkpt><trkpt lat="41.6900987631908" lon="-2.2185235537063335"><ele>1019.8000000000001</ele><time>2026-05-03T13:39:59.001Z</time></trkpt><trkpt lat="41.69005233282681" lon="-2.2184158162509338"><ele>1020.6000000000001</ele><time>2026-05-03T13:40:00.001Z</time></trkpt><trkpt lat="41.6900049971251" lon="-2.2183070947001022"><ele>1021.4</ele><time>2026-05-03T13:40:01.001Z</time></trkpt><trkpt lat="41.689956607318436" lon="-2.2181960673488583"><ele>1022.2</ele><time>2026-05-03T13:40:02.001Z</time></trkpt><trkpt lat="41.689911119461634" lon="-2.2180916984502326"><ele>1023.0</ele><time>2026-05-03T13:40:03.001Z</time></trkpt><trkpt lat="41.689862980203145" lon="-2.2179812460225943"><ele>1023.4</ele><time>2026-05-03T13:40:04.001Z</time></trkpt><trkpt lat="41.68981754932327" lon="-2.217877007719581"><ele>1023.8</ele><time>2026-05-03T13:40:05.001Z</time></trkpt><trkpt lat="41.689771944410595" lon="-2.2177723702052545"><ele>1024.2</ele><time>2026-05-03T13:40:06.001Z</time></trkpt><trkpt lat="41.68972287804488" lon="-2.2176597934175066"><ele>1024.6</ele><time>2026-05-03T13:40:07.001Z</time></trkpt><trkpt lat="41.68967576951593" lon="-2.217551718338488"><ele>1025.0</ele><time>2026-05-03T13:40:08.001Z</time></trkpt><trkpt lat="41.68962872824091" lon="-2.2174437975069985"><ele>1025.0</ele><time>2026-05-03T13:40:09.001Z</time></trkpt><trkpt lat="41.68958188524317" lon="-2.2173363315157215"><ele>1025.0</ele><time>2026-05-03T13:40:10.001Z</time></trkpt><trkpt lat="41.68953355759518" lon="-2.217225459691371"><ele>1025.0</ele><time>2026-05-03T13:40:11.001Z</time></trkpt><trkpt lat="41.68948519802749" lon="-2.2171145142372177"><ele>1025.0</ele><time>2026-05-03T13:40:12.001Z</time></trkpt><trkpt lat="41.689435179174026" lon="-2.2169997622835083"><ele>1025.0</ele><time>2026-05-03T13:40:13.001Z</time></trkpt><trkpt lat="41.689386814622296" lon="-2.216888805757715"><ele>1025.2</ele><time>2026-05-03T13:40:14.001Z</time></trkpt><trkpt lat="41.68933661356657" lon="-2.216773635930102"><ele>1025.4</ele><time>2026-05-03T13:40:15.001Z</time></trkpt><trkpt lat="41.68928547326998" lon="-2.2166561544820342"><ele>1025.6</ele><time>2026-05-03T13:40:16.001Z</time></trkpt><trkpt lat="41.68923523873563" lon="-2.216540557131201"><ele>1025.8</ele><time>2026-05-03T13:40:17.001Z</time></trkpt><trkpt lat="41.68918257596583" lon="-2.2164193713013387"><ele>1026.0</ele><time>2026-05-03T13:40:18.001Z</time></trkpt><trkpt lat="41.6891314044932" lon="-2.216301617169686"><ele>1026.0</ele><time>2026-05-03T13:40:19.001Z</time></trkpt><trkpt lat="41.689080055052706" lon="-2.21618184448388"><ele>1026.0</ele><time>2026-05-03T13:40:20.001Z</time></trkpt><trkpt lat="41.68902854105217" lon="-2.2160615197626927"><ele>1026.0</ele><time>2026-05-03T13:40:21.001Z</time></trkpt><trkpt lat="41.688975197755774" lon="-2.215936922555583"><ele>1026.0</ele><time>2026-05-03T13:40:22.001Z</time></trkpt><trkpt lat="41.68892158892795" lon="-2.215811704981737"><ele>1026.0</ele><time>2026-05-03T13:40:23.001Z</time></trkpt><trkpt lat="41.68886759009677" lon="-2.215685576235352"><ele>1025.6</ele><time>2026-05-03T13:40:24.001Z</time></trkpt><trkpt lat="41.68881373996799" lon="-2.2155597953436086"><ele>1025.1999999999998</ele><time>2026-05-03T13:40:25.001Z</time></trkpt><trkpt lat="41.688759507618066" lon="-2.2154331214271563"><ele>1024.8000000000002</ele><time>2026-05-03T13:40:26.001Z</time></trkpt><trkpt lat="41.688705821360514" lon="-2.2153077230379945"><ele>1024.4</ele><time>2026-05-03T13:40:27.001Z</time></trkpt><trkpt lat="41.688651942000995" lon="-2.2151818736099056"><ele>1024.0</ele><time>2026-05-03T13:40:28.001Z</time></trkpt><trkpt lat="41.68859828046711" lon="-2.2150573746478672"><ele>1023.8000000000001</ele><time>2026-05-03T13:40:29.001Z</time></trkpt><trkpt lat="41.688543352846686" lon="-2.2149304178967957"><ele>1023.6000000000001</ele><time>2026-05-03T13:40:30.001Z</time></trkpt><trkpt lat="41.688491182351775" lon="-2.214809833695712"><ele>1023.4</ele><time>2026-05-03T13:40:31.001Z</time></trkpt><trkpt lat="41.688431231853514" lon="-2.214671337686747"><ele>1023.2</ele><time>2026-05-03T13:40:32.001Z</time></trkpt><trkpt lat="41.68837840998864" lon="-2.2145493601217976"><ele>1023.0</ele><time>2026-05-03T13:40:33.001Z</time></trkpt><trkpt lat="41.688340158026726" lon="-2.2144186100767387"><ele>1022.5</ele><time>2026-05-03T13:40:34.001Z</time></trkpt><trkpt lat="41.68826621058897" lon="-2.2142902665177164"><ele>1022.0</ele><time>2026-05-03T13:40:35.001Z</time></trkpt><trkpt lat="41.68821135261009" lon="-2.214163586836171"><ele>1021.5</ele><time>2026-05-03T13:40:36.001Z</time></trkpt><trkpt lat="41.68815435230304" lon="-2.2140319603751704"><ele>1021.0</ele><time>2026-05-03T13:40:37.001Z</time></trkpt><trkpt lat="41.688097892849115" lon="-2.213901582707903"><ele>1019.8</ele><time>2026-05-03T13:40:38.001Z</time></trkpt><trkpt lat="41.68804121178576" lon="-2.2137706933502406"><ele>1018.5999999999999</ele><time>2026-05-03T13:40:39.001Z</time></trkpt><trkpt lat="41.68798508780104" lon="-2.2136410904794657"><ele>1017.4</ele><time>2026-05-03T13:40:40.001Z</time></trkpt><trkpt lat="41.687929266650016" lon="-2.213512186824202"><ele>1016.2</ele><time>2026-05-03T13:40:41.001Z</time></trkpt><trkpt lat="41.68787359039984" lon="-2.2133834518535935"><ele>1015.0</ele><time>2026-05-03T13:40:42.001Z</time></trkpt><trkpt lat="41.687817111877344" lon="-2.2132526395273135"><ele>1014.75</ele><time>2026-05-03T13:40:43.001Z</time></trkpt><trkpt lat="41.68776071224867" lon="-2.2131220097590543"><ele>1014.5</ele><time>2026-05-03T13:40:44.001Z</time></trkpt><trkpt lat="41.68770441564702" lon="-2.212991618743529"><ele>1014.25</ele><time>2026-05-03T13:40:45.001Z</time></trkpt><trkpt lat="41.68764869085213" lon="-2.212862552041433"><ele>1014.0</ele><time>2026-05-03T13:40:46.001Z</time></trkpt><trkpt lat="41.687591763629555" lon="-2.212730700446159"><ele>1013.5</ele><time>2026-05-03T13:40:47.001Z</time></trkpt><trkpt lat="41.68753554454788" lon="-2.2126004888630075"><ele>1013.0</ele><time>2026-05-03T13:40:48.001Z</time></trkpt><trkpt lat="41.68747899599261" lon="-2.2124695142731547"><ele>1012.5</ele><time>2026-05-03T13:40:49.001Z</time></trkpt><trkpt lat="41.68742213205377" lon="-2.212337809288139"><ele>1012.0</ele><time>2026-05-03T13:40:50.001Z</time></trkpt><trkpt lat="41.687366709477274" lon="-2.212209442552134"><ele>1011.5</ele><time>2026-05-03T13:40:51.001Z</time></trkpt><trkpt lat="41.68731013596588" lon="-2.2120784101265802"><ele>1011.0</ele><time>2026-05-03T13:40:52.001Z</time></trkpt><trkpt lat="41.68725358944755" lon="-2.211947440183597"><ele>1010.5</ele><time>2026-05-03T13:40:53.001Z</time></trkpt><trkpt lat="41.68719713895026" lon="-2.211816692768835"><ele>1010.0</ele><time>2026-05-03T13:40:54Z</time></trkpt><trkpt lat="41.68713954579551" lon="-2.21168331871742"><ele>1010.0</ele><time>2026-05-03T13:40:55Z</time></trkpt><trkpt lat="41.687084509714474" lon="-2.2115564906688583"><ele>1010.0</ele><time>2026-05-03T13:40:56Z</time></trkpt><trkpt lat="41.687028535341106" lon="-2.211427500430393"><ele>1010.0</ele><time>2026-05-03T13:40:57Z</time></trkpt><trkpt lat="41.686973652937596" lon="-2.2113010263159736"><ele>1010.0</ele><time>2026-05-03T13:40:58Z</time></trkpt><trkpt lat="41.68691980473645" lon="-2.2111770308523466"><ele>1010.0</ele><time>2026-05-03T13:40:59Z</time></trkpt><trkpt lat="41.686866426811655" lon="-2.2110543191700733"><ele>1010.0</ele><time>2026-05-03T13:41:00Z</time></trkpt><trkpt lat="41.68680931352493" lon="-2.2109230203136554"><ele>1010.0</ele><time>2026-05-03T13:41:01Z</time></trkpt><trkpt lat="41.68675699091425" lon="-2.2108008633311984"><ele>1010.0</ele><time>2026-05-03T13:41:02Z</time></trkpt><trkpt lat="41.68670366155218" lon="-2.2106751211469446"><ele>1010.0</ele><time>2026-05-03T13:41:03Z</time></trkpt><trkpt lat="41.68665151069109" lon="-2.210552157532316"><ele>1010.0</ele><time>2026-05-03T13:41:04Z</time></trkpt><trkpt lat="41.68660030854991" lon="-2.210431430966744"><ele>1010.0</ele><time>2026-05-03T13:41:05Z</time></trkpt><trkpt lat="41.68654939902391" lon="-2.210311394253882"><ele>1010.0</ele><time>2026-05-03T13:41:06Z</time></trkpt><trkpt lat="41.68649962607581" lon="-2.210194037448195"><ele>1010.0</ele><time>2026-05-03T13:41:07Z</time></trkpt><trkpt lat="41.6864497076049" lon="-2.2100763375096024"><ele>1010.0</ele><time>2026-05-03T13:41:08Z</time></trkpt><trkpt lat="41.68640056719853" lon="-2.209960472206927"><ele>1010.0</ele><time>2026-05-03T13:41:09Z</time></trkpt><trkpt lat="41.68634980081561" lon="-2.209840773159985"><ele>1010.2</ele><time>2026-05-03T13:41:10Z</time></trkpt><trkpt lat="41.68631373927094" lon="-2.2097127288610534"><ele>1010.4</ele><time>2026-05-03T13:41:11Z</time></trkpt><trkpt lat="41.68624829533752" lon="-2.209606059474107"><ele>1010.5999999999999</ele><time>2026-05-03T13:41:12Z</time></trkpt><trkpt lat="41.68619720380568" lon="-2.2094881692824266"><ele>1010.8</ele><time>2026-05-03T13:41:13Z</time></trkpt><trkpt lat="41.68614552923646" lon="-2.209368934162415"><ele>1011.0</ele><time>2026-05-03T13:41:14Z</time></trkpt><trkpt lat="41.686094549304805" lon="-2.2092513014264754"><ele>1010.5999999999999</ele><time>2026-05-03T13:41:15Z</time></trkpt><trkpt lat="41.686041928113745" lon="-2.209129881513066"><ele>1010.1999999999999</ele><time>2026-05-03T13:41:16Z</time></trkpt><trkpt lat="41.68599022425897" lon="-2.209010578670411"><ele>1009.8000000000001</ele><time>2026-05-03T13:41:17Z</time></trkpt><trkpt lat="41.68593810438833" lon="-2.2088900359301076"><ele>1009.4000000000001</ele><time>2026-05-03T13:41:18Z</time></trkpt><trkpt lat="41.68588554296356" lon="-2.2087680932376568"><ele>1009.0</ele><time>2026-05-03T13:41:19Z</time></trkpt><trkpt lat="41.68583297487751" lon="-2.2086461354623"><ele>1009.0</ele><time>2026-05-03T13:41:20Z</time></trkpt><trkpt lat="41.685780547548994" lon="-2.20852450406866"><ele>1009.0000000000001</ele><time>2026-05-03T13:41:21Z</time></trkpt><trkpt lat="41.68572672119108" lon="-2.2083996269067407"><ele>1009.0000000000001</ele><time>2026-05-03T13:41:22Z</time></trkpt><trkpt lat="41.6856733107495" lon="-2.208275714648214"><ele>1009.0</ele><time>2026-05-03T13:41:23Z</time></trkpt><trkpt lat="41.68562022367039" lon="-2.2081522227947183"><ele>1009.0</ele><time>2026-05-03T13:41:24Z</time></trkpt><trkpt lat="41.685567519696235" lon="-2.20802958483293"><ele>1009.4000000000001</ele><time>2026-05-03T13:41:25Z</time></trkpt><trkpt lat="41.685514646595955" lon="-2.2079065532552713"><ele>1009.8000000000001</ele><time>2026-05-03T13:41:26Z</time></trkpt><trkpt lat="41.68546254916699" lon="-2.207785326474757"><ele>1010.1999999999999</ele><time>2026-05-03T13:41:27Z</time></trkpt><trkpt lat="41.68541013941338" lon="-2.2076638162996067"><ele>1010.5999999999999</ele><time>2026-05-03T13:41:28Z</time></trkpt><trkpt lat="41.68535788678083" lon="-2.2075439657304647"><ele>1011.0</ele><time>2026-05-03T13:41:29Z</time></trkpt><trkpt lat="41.68530501072558" lon="-2.2074226847576983"><ele>1010.8</ele><time>2026-05-03T13:41:30Z</time></trkpt><trkpt lat="41.68525193019771" lon="-2.2073009350177633"><ele>1010.5999999999999</ele><time>2026-05-03T13:41:31Z</time></trkpt><trkpt lat="41.685197863621056" lon="-2.2071769235374448"><ele>1010.4</ele><time>2026-05-03T13:41:32Z</time></trkpt><trkpt lat="41.68514263226123" lon="-2.2070502400440333"><ele>1010.2</ele><time>2026-05-03T13:41:33Z</time></trkpt><trkpt lat="41.68508740200956" lon="-2.2069235604240522"><ele>1010.0</ele><time>2026-05-03T13:41:34Z</time></trkpt><trkpt lat="41.685031812884205" lon="-2.2067957617086114"><ele>1010.0</ele><time>2026-05-03T13:41:35Z</time></trkpt><trkpt lat="41.684976816052924" lon="-2.2066685419972476"><ele>1010.0</ele><time>2026-05-03T13:41:36Z</time></trkpt><trkpt lat="41.68492685543633" lon="-2.2065529724366186"><ele>1010.0</ele><time>2026-05-03T13:41:37Z</time></trkpt><trkpt lat="41.684865578221576" lon="-2.2064112245840115"><ele>1010.0</ele><time>2026-05-03T13:41:38Z</time></trkpt><trkpt lat="41.684810625913876" lon="-2.206284108266857"><ele>1010.0</ele><time>2026-05-03T13:41:39Z</time></trkpt><trkpt lat="41.68475433812223" lon="-2.2061539022974457"><ele>1010.0</ele><time>2026-05-03T13:41:40Z</time></trkpt><trkpt lat="41.68469784938824" lon="-2.2060232314971446"><ele>1010.0</ele><time>2026-05-03T13:41:41Z</time></trkpt><trkpt lat="41.68464176579791" lon="-2.205893497735731"><ele>1010.0</ele><time>2026-05-03T13:41:42Z</time></trkpt><trkpt lat="41.68458519044714" lon="-2.205762626639381"><ele>1010.0</ele><time>2026-05-03T13:41:43Z</time></trkpt><trkpt lat="41.68452970251979" lon="-2.2056342705959104"><ele>1010.0</ele><time>2026-05-03T13:41:44Z</time></trkpt><trkpt lat="41.684474811923636" lon="-2.2055072970399725"><ele>1010.0</ele><time>2026-05-03T13:41:45Z</time></trkpt><trkpt lat="41.684419134032176" lon="-2.205378188231158"><ele>1010.0</ele><time>2026-05-03T13:41:46Z</time></trkpt><trkpt lat="41.68436428109577" lon="-2.2052504382914107"><ele>1010.0</ele><time>2026-05-03T13:41:47Z</time></trkpt><trkpt lat="41.68430972496674" lon="-2.205123708236772"><ele>1010.0</ele><time>2026-05-03T13:41:48Z</time></trkpt><trkpt lat="41.68425482603616" lon="-2.20499618160272"><ele>1010.0</ele><time>2026-05-03T13:41:49Z</time></trkpt><trkpt lat="41.68420031562544" lon="-2.2048695576810227"><ele>1010.8</ele><time>2026-05-03T13:41:50Z</time></trkpt><trkpt lat="41.68414601240447" lon="-2.204743386465949"><ele>1011.6</ele><time>2026-05-03T13:41:51Z</time></trkpt><trkpt lat="41.684096062645686" lon="-2.2046267523088883"><ele>1012.4000000000001</ele><time>2026-05-03T13:41:52Z</time></trkpt><trkpt lat="41.68404587866659" lon="-2.204509571617672"><ele>1013.2</ele><time>2026-05-03T13:41:53Z</time></trkpt><trkpt lat="41.68400963362839" lon="-2.2043839748763245"><ele>1014.0</ele><time>2026-05-03T13:41:54Z</time></trkpt><trkpt lat="41.683960214645964" lon="-2.2042688189649287"><ele>1014.0</ele><time>2026-05-03T13:41:55Z</time></trkpt><trkpt lat="41.683915244665336" lon="-2.2041612514089968"><ele>1014.0000000000001</ele><time>2026-05-03T13:41:56Z</time></trkpt><trkpt lat="41.68387092585601" lon="-2.2040528759194924"><ele>1014.0000000000001</ele><time>2026-05-03T13:41:57Z</time></trkpt><trkpt lat="41.68382405939973" lon="-2.2039475262402872"><ele>1014.0</ele><time>2026-05-03T13:41:58Z</time></trkpt><trkpt lat="41.683780264927556" lon="-2.2038445618240514"><ele>1014.0</ele><time>2026-05-03T13:41:59Z</time></trkpt><trkpt lat="41.683734923464776" lon="-2.2037426472897623"><ele>1014.5</ele><time>2026-05-03T13:42:00Z</time></trkpt><trkpt lat="41.68367861568571" lon="-2.203654451804378"><ele>1015.0</ele><time>2026-05-03T13:42:01Z</time></trkpt><trkpt lat="41.68364660343641" lon="-2.2035406233449777"><ele>1015.5</ele><time>2026-05-03T13:42:02Z</time></trkpt><trkpt lat="41.683602924867046" lon="-2.2034384252322785"><ele>1016.0</ele><time>2026-05-03T13:42:03Z</time></trkpt><trkpt lat="41.6835588792121" lon="-2.203336126274229"><ele>1016.5</ele><time>2026-05-03T13:42:04Z</time></trkpt><trkpt lat="41.683501195541574" lon="-2.203243550673558"><ele>1017.0</ele><time>2026-05-03T13:42:05Z</time></trkpt><trkpt lat="41.68346837264333" lon="-2.203124544184379"><ele>1017.8</ele><time>2026-05-03T13:42:06Z</time></trkpt><trkpt lat="41.683418254082056" lon="-2.2030230092300402"><ele>1018.6</ele><time>2026-05-03T13:42:07Z</time></trkpt><trkpt lat="41.68337204841595" lon="-2.202915007972014"><ele>1019.3999999999999</ele><time>2026-05-03T13:42:08Z</time></trkpt><trkpt lat="41.683328401930204" lon="-2.2028048698503655"><ele>1020.1999999999999</ele><time>2026-05-03T13:42:09Z</time></trkpt><trkpt lat="41.68327978179834" lon="-2.20269542923981"><ele>1021.0</ele><time>2026-05-03T13:42:10Z</time></trkpt><trkpt lat="41.68323050911922" lon="-2.2025830265117157"><ele>1021.0</ele><time>2026-05-03T13:42:11Z</time></trkpt><trkpt lat="41.68318139714446" lon="-2.202468963930822"><ele>1020.9999999999999</ele><time>2026-05-03T13:42:12.001Z</time></trkpt><trkpt lat="41.683129631882224" lon="-2.2023542052379548"><ele>1020.9999999999999</ele><time>2026-05-03T13:42:13.001Z</time></trkpt><trkpt lat="41.68308293822138" lon="-2.20224659491675"><ele>1021.0</ele><time>2026-05-03T13:42:14.001Z</time></trkpt><trkpt lat="41.68303788765951" lon="-2.2021421014939038"><ele>1021.0</ele><time>2026-05-03T13:42:15.001Z</time></trkpt><trkpt lat="41.68299344894305" lon="-2.2020374415421444"><ele>1021.0</ele><time>2026-05-03T13:42:16.001Z</time></trkpt><trkpt lat="41.6829465652914" lon="-2.201931763053802"><ele>1020.9999999999999</ele><time>2026-05-03T13:42:17.001Z</time></trkpt><trkpt lat="41.68290080659177" lon="-2.201825855506131"><ele>1020.9999999999999</ele><time>2026-05-03T13:42:18.001Z</time></trkpt><trkpt lat="41.68284903467391" lon="-2.201714828745172"><ele>1021.0</ele><time>2026-05-03T13:42:19.001Z</time></trkpt><trkpt lat="41.682807299640224" lon="-2.201608908458497"><ele>1021.0</ele><time>2026-05-03T13:42:20.001Z</time></trkpt><trkpt lat="41.68275822101173" lon="-2.201497157726155"><ele>1020.8</ele><time>2026-05-03T13:42:21.001Z</time></trkpt><trkpt lat="41.68271380794702" lon="-2.201393706907293"><ele>1020.5999999999999</ele><time>2026-05-03T13:42:22.001Z</time></trkpt><trkpt lat="41.68266645630536" lon="-2.2012836423246025"><ele>1020.4</ele><time>2026-05-03T13:42:23.001Z</time></trkpt><trkpt lat="41.68261603568225" lon="-2.201177238746398"><ele>1020.2</ele><time>2026-05-03T13:42:24.001Z</time></trkpt><trkpt lat="41.6825696220542" lon="-2.2010644540402753"><ele>1020.0</ele><time>2026-05-03T13:42:25.001Z</time></trkpt><trkpt lat="41.68251717026702" lon="-2.2009666058847177"><ele>1020.0</ele><time>2026-05-03T13:42:26.001Z</time></trkpt><trkpt lat="41.682476596779566" lon="-2.2008693264246215"><ele>1020.0</ele><time>2026-05-03T13:42:27.001Z</time></trkpt><trkpt lat="41.68243613810437" lon="-2.2007712784979794"><ele>1020.0</ele><time>2026-05-03T13:42:28.001Z</time></trkpt><trkpt lat="41.682395501427386" lon="-2.200670780280311"><ele>1020.0</ele><time>2026-05-03T13:42:29.001Z</time></trkpt><trkpt lat="41.6823562788084" lon="-2.200571993443002"><ele>1020.0</ele><time>2026-05-03T13:42:30.001Z</time></trkpt><trkpt lat="41.682322668957966" lon="-2.200475765691234"><ele>1020.0</ele><time>2026-05-03T13:42:31.001Z</time></trkpt><trkpt lat="41.682293868612156" lon="-2.2003810924017158"><ele>1020.3333333333334</ele><time>2026-05-03T13:42:32.001Z</time></trkpt><trkpt lat="41.68226553119808" lon="-2.2002921807204467"><ele>1020.6666666666667</ele><time>2026-05-03T13:42:33.001Z</time></trkpt><trkpt lat="41.68223232983915" lon="-2.2002017724797542"><ele>1021.0</ele><time>2026-05-03T13:42:34.001Z</time></trkpt><trkpt lat="41.68219742990961" lon="-2.200121883200136"><ele>1021.3333333333334</ele><time>2026-05-03T13:42:35.001Z</time></trkpt><trkpt lat="41.682153404859" lon="-2.2000266048616557"><ele>1021.6666666666667</ele><time>2026-05-03T13:42:36.001Z</time></trkpt><trkpt lat="41.68210522468325" lon="-2.1999347265416294"><ele>1022.0</ele><time>2026-05-03T13:42:37.001Z</time></trkpt><trkpt lat="41.6820702334548" lon="-2.199825394637014"><ele>1021.2</ele><time>2026-05-03T13:42:38.001Z</time></trkpt><trkpt lat="41.6820539721121" lon="-2.199703906291704"><ele>1020.4000000000001</ele><time>2026-05-03T13:42:39.001Z</time></trkpt><trkpt lat="41.68208209412495" lon="-2.1995869741963467"><ele>1019.5999999999999</ele><time>2026-05-03T13:42:40.001Z</time></trkpt><trkpt lat="41.682088650283696" lon="-2.199462706205786"><ele>1018.8</ele><time>2026-05-03T13:42:41.001Z</time></trkpt><trkpt lat="41.6820963334245" lon="-2.199332189525894"><ele>1018.0</ele><time>2026-05-03T13:42:42.001Z</time></trkpt><trkpt lat="41.68209193933199" lon="-2.1991910613337753"><ele>1018.0</ele><time>2026-05-03T13:42:43.001Z</time></trkpt><trkpt lat="41.68206832331405" lon="-2.199046859644568"><ele>1018.0</ele><time>2026-05-03T13:42:44.001Z</time></trkpt><trkpt lat="41.68206651551583" lon="-2.1989061311659057"><ele>1018.0</ele><time>2026-05-03T13:42:45.001Z</time></trkpt><trkpt lat="41.682060062827375" lon="-2.198765897431163"><ele>1018.0</ele><time>2026-05-03T13:42:46.001Z</time></trkpt><trkpt lat="41.68205206227881" lon="-2.1986293015291127"><ele>1018.0</ele><time>2026-05-03T13:42:47.001Z</time></trkpt><trkpt lat="41.682043214549445" lon="-2.1984997561823825"><ele>1017.4</ele><time>2026-05-03T13:42:48.001Z</time></trkpt><trkpt lat="41.682055299656035" lon="-2.198373325017009"><ele>1016.8</ele><time>2026-05-03T13:42:49.001Z</time></trkpt><trkpt lat="41.68204533355066" lon="-2.198248907014939"><ele>1016.2</ele><time>2026-05-03T13:42:50.001Z</time></trkpt><trkpt lat="41.68203597438949" lon="-2.1981313036701375"><ele>1015.6</ele><time>2026-05-03T13:42:51.001Z</time></trkpt><trkpt lat="41.682024991951" lon="-2.198012507722866"><ele>1015.0</ele><time>2026-05-03T13:42:52.001Z</time></trkpt><trkpt lat="41.68201585548284" lon="-2.1978904861665973"><ele>1014.6</ele><time>2026-05-03T13:42:53.001Z</time></trkpt><trkpt lat="41.682006435572895" lon="-2.1977647897179593"><ele>1014.2</ele><time>2026-05-03T13:42:54.001Z</time></trkpt><trkpt lat="41.6819963660516" lon="-2.1976328865558594"><ele>1013.8</ele><time>2026-05-03T13:42:55.001Z</time></trkpt><trkpt lat="41.681982070773905" lon="-2.197502607965709"><ele>1013.4</ele><time>2026-05-03T13:42:56.001Z</time></trkpt><trkpt lat="41.68196957156864" lon="-2.1973646401902402"><ele>1013.0</ele><time>2026-05-03T13:42:57.001Z</time></trkpt><trkpt lat="41.681958942186085" lon="-2.197224246123339"><ele>1012.5999999999999</ele><time>2026-05-03T13:42:58.001Z</time></trkpt><trkpt lat="41.68194722364212" lon="-2.1970838591478956"><ele>1012.1999999999999</ele><time>2026-05-03T13:42:59.001Z</time></trkpt><trkpt lat="41.68193653438196" lon="-2.1969406321515184"><ele>1011.8</ele><time>2026-05-03T13:43:00Z</time></trkpt><trkpt lat="41.68192469606773" lon="-2.1967981994244057"><ele>1011.4</ele><time>2026-05-03T13:43:01Z</time></trkpt><trkpt lat="41.68191294927832" lon="-2.1966581575290482"><ele>1011.0</ele><time>2026-05-03T13:43:02Z</time></trkpt><trkpt lat="41.68190128089079" lon="-2.196515099918114"><ele>1010.8</ele><time>2026-05-03T13:43:03Z</time></trkpt><trkpt lat="41.68188810715088" lon="-2.1963722099648852"><ele>1010.5999999999999</ele><time>2026-05-03T13:43:04Z</time></trkpt><trkpt lat="41.681879091941234" lon="-2.196226278399152"><ele>1010.4</ele><time>2026-05-03T13:43:05Z</time></trkpt><trkpt lat="41.68186815530558" lon="-2.1960794183631864"><ele>1010.2</ele><time>2026-05-03T13:43:06Z</time></trkpt><trkpt lat="41.68185913811264" lon="-2.1959350309383106"><ele>1010.0</ele><time>2026-05-03T13:43:07Z</time></trkpt><trkpt lat="41.681849192409565" lon="-2.1957896055265875"><ele>1009.8</ele><time>2026-05-03T13:43:08Z</time></trkpt><trkpt lat="41.681838096902936" lon="-2.1956450986837894"><ele>1009.6</ele><time>2026-05-03T13:43:09Z</time></trkpt><trkpt lat="41.68182668010836" lon="-2.1955033270810427"><ele>1009.4000000000001</ele><time>2026-05-03T13:43:10Z</time></trkpt><trkpt lat="41.681819226915984" lon="-2.1953601781235528"><ele>1009.2</ele><time>2026-05-03T13:43:11Z</time></trkpt><trkpt lat="41.68180896448468" lon="-2.195218068566426"><ele>1009.0</ele><time>2026-05-03T13:43:12Z</time></trkpt><trkpt lat="41.68179902896195" lon="-2.195077238548077"><ele>1009.0</ele><time>2026-05-03T13:43:13Z</time></trkpt><trkpt lat="41.681789716580916" lon="-2.194938268425496"><ele>1009.0000000000001</ele><time>2026-05-03T13:43:14Z</time></trkpt><trkpt lat="41.68177964194942" lon="-2.194798461434897"><ele>1009.0000000000001</ele><time>2026-05-03T13:43:15Z</time></trkpt><trkpt lat="41.68177033728638" lon="-2.194658923596972"><ele>1009.0</ele><time>2026-05-03T13:43:16Z</time></trkpt><trkpt lat="41.681760546452594" lon="-2.1945195242160365"><ele>1009.0</ele><time>2026-05-03T13:43:17Z</time></trkpt><trkpt lat="41.68175141093861" lon="-2.194376430343778"><ele>1009.8000000000001</ele><time>2026-05-03T13:43:18Z</time></trkpt><trkpt lat="41.681737044518" lon="-2.1942363931860145"><ele>1010.6000000000001</ele><time>2026-05-03T13:43:19Z</time></trkpt><trkpt lat="41.681728908666216" lon="-2.194096191784697"><ele>1011.4</ele><time>2026-05-03T13:43:20Z</time></trkpt><trkpt lat="41.68171948757707" lon="-2.193956808475057"><ele>1012.2</ele><time>2026-05-03T13:43:21Z</time></trkpt><trkpt lat="41.68171151647655" lon="-2.193818767448741"><ele>1013.0</ele><time>2026-05-03T13:43:22Z</time></trkpt><trkpt lat="41.68169922196639" lon="-2.1936825297314733"><ele>1013.2</ele><time>2026-05-03T13:43:23Z</time></trkpt><trkpt lat="41.68169140918142" lon="-2.193542885927118"><ele>1013.4</ele><time>2026-05-03T13:43:24Z</time></trkpt><trkpt lat="41.6816776847855" lon="-2.193407789032872"><ele>1013.6000000000001</ele><time>2026-05-03T13:43:25Z</time></trkpt><trkpt lat="41.681671976705516" lon="-2.193268272066567"><ele>1013.8000000000001</ele><time>2026-05-03T13:43:26Z</time></trkpt><trkpt lat="41.68165490910115" lon="-2.1931343019677922"><ele>1014.0</ele><time>2026-05-03T13:43:27Z</time></trkpt><trkpt lat="41.68164504110379" lon="-2.193000048151572"><ele>1014.2</ele><time>2026-05-03T13:43:28Z</time></trkpt><trkpt lat="41.681634578998064" lon="-2.1928656853921904"><ele>1014.4000000000001</ele><time>2026-05-03T13:43:29Z</time></trkpt><trkpt lat="41.68162379631739" lon="-2.1927298445979617"><ele>1014.6</ele><time>2026-05-03T13:43:30Z</time></trkpt><trkpt lat="41.68160969343189" lon="-2.1925947270432418"><ele>1014.8</ele><time>2026-05-03T13:43:31Z</time></trkpt><trkpt lat="41.68159634925684" lon="-2.1924640480492013"><ele>1015.0</ele><time>2026-05-03T13:43:32Z</time></trkpt><trkpt lat="41.68157574888989" lon="-2.192333988715459"><ele>1015.4</ele><time>2026-05-03T13:43:33Z</time></trkpt><trkpt lat="41.68153110573701" lon="-2.192214507111856"><ele>1015.8</ele><time>2026-05-03T13:43:34Z</time></trkpt><trkpt lat="41.681496975773804" lon="-2.192094591689159"><ele>1016.2</ele><time>2026-05-03T13:43:35Z</time></trkpt><trkpt lat="41.681460713962664" lon="-2.191979426502562"><ele>1016.6</ele><time>2026-05-03T13:43:36Z</time></trkpt><trkpt lat="41.68142426661262" lon="-2.191865782163379"><ele>1017.0</ele><time>2026-05-03T13:43:37Z</time></trkpt><trkpt lat="41.68138573118429" lon="-2.191754578795816"><ele>1017.0</ele><time>2026-05-03T13:43:38Z</time></trkpt><trkpt lat="41.68134796463436" lon="-2.1916455942077255"><ele>1017.0</ele><time>2026-05-03T13:43:39Z</time></trkpt><trkpt lat="41.681311094976074" lon="-2.1915391978156245"><ele>1017.0</ele><time>2026-05-03T13:43:40Z</time></trkpt><trkpt lat="41.68127446582755" lon="-2.1914334954780212"><ele>1017.0</ele><time>2026-05-03T13:43:41Z</time></trkpt><trkpt lat="41.681237916109836" lon="-2.191328112720172"><ele>1017.0</ele><time>2026-05-03T13:43:42Z</time></trkpt><trkpt lat="41.68120040769944" lon="-2.1912217659863984"><ele>1017.0</ele><time>2026-05-03T13:43:43Z</time></trkpt><trkpt lat="41.681163720490254" lon="-2.191117747583372"><ele>1017.5</ele><time>2026-05-03T13:43:44Z</time></trkpt><trkpt lat="41.68112649593216" lon="-2.191012205647824"><ele>1018.0</ele><time>2026-05-03T13:43:45Z</time></trkpt><trkpt lat="41.681089147336095" lon="-2.1909052650033742"><ele>1018.5</ele><time>2026-05-03T13:43:46Z</time></trkpt><trkpt lat="41.681051076131375" lon="-2.1907979501899217"><ele>1019.0</ele><time>2026-05-03T13:43:47Z</time></trkpt><trkpt lat="41.681012733192134" lon="-2.190689869421056"><ele>1019.5</ele><time>2026-05-03T13:43:48Z</time></trkpt><trkpt lat="41.680973371048445" lon="-2.1905789157241933"><ele>1020.0</ele><time>2026-05-03T13:43:49Z</time></trkpt><trkpt lat="41.68093376183052" lon="-2.1904672655871225"><ele>1020.4</ele><time>2026-05-03T13:43:50Z</time></trkpt><trkpt lat="41.68089307773628" lon="-2.1903525855856842"><ele>1020.8</ele><time>2026-05-03T13:43:51Z</time></trkpt><trkpt lat="41.68085240089992" lon="-2.1902378224646584"><ele>1021.2</ele><time>2026-05-03T13:43:52Z</time></trkpt><trkpt lat="41.680811225557754" lon="-2.1901205834266713"><ele>1021.6</ele><time>2026-05-03T13:43:53Z</time></trkpt><trkpt lat="41.68077022179451" lon="-2.1900038329176117"><ele>1022.0</ele><time>2026-05-03T13:43:54Z</time></trkpt><trkpt lat="41.68072821338208" lon="-2.189884221867027"><ele>1021.6</ele><time>2026-05-03T13:43:55Z</time></trkpt><trkpt lat="41.680685730211025" lon="-2.1897632590410003"><ele>1021.2</ele><time>2026-05-03T13:43:56Z</time></trkpt><trkpt lat="41.68064190214781" lon="-2.1896384668743414"><ele>1020.8</ele><time>2026-05-03T13:43:57Z</time></trkpt><trkpt lat="41.680598438511865" lon="-2.189514712353766"><ele>1020.4</ele><time>2026-05-03T13:43:58Z</time></trkpt><trkpt lat="41.680573188143256" lon="-2.1893761462305776"><ele>1020.0</ele><time>2026-05-03T13:43:59Z</time></trkpt><trkpt lat="41.68052930945712" lon="-2.1892528517328387"><ele>1020.0</ele><time>2026-05-03T13:44:00Z</time></trkpt><trkpt lat="41.680483893541755" lon="-2.1891238933681985"><ele>1020.0</ele><time>2026-05-03T13:44:01Z</time></trkpt><trkpt lat="41.68043802445873" lon="-2.188994009511779"><ele>1020.0</ele><time>2026-05-03T13:44:02Z</time></trkpt><trkpt lat="41.68037388960777" lon="-2.188876863707952"><ele>1020.0</ele><time>2026-05-03T13:44:03Z</time></trkpt><trkpt lat="41.680347843688686" lon="-2.1887359404391957"><ele>1020.0</ele><time>2026-05-03T13:44:04Z</time></trkpt><trkpt lat="41.6803053511141" lon="-2.1886024669977453"><ele>1020.2</ele><time>2026-05-03T13:44:05Z</time></trkpt><trkpt lat="41.68025955729376" lon="-2.1884737958111393"><ele>1020.4</ele><time>2026-05-03T13:44:06Z</time></trkpt><trkpt lat="41.68021270662725" lon="-2.188345687999162"><ele>1020.5999999999999</ele><time>2026-05-03T13:44:07Z</time></trkpt><trkpt lat="41.680147333275976" lon="-2.188228244195065"><ele>1020.8</ele><time>2026-05-03T13:44:08Z</time></trkpt><trkpt lat="41.68010305154791" lon="-2.1880995144779445"><ele>1021.0</ele><time>2026-05-03T13:44:09Z</time></trkpt><trkpt lat="41.68005908027427" lon="-2.187971687274167"><ele>1021.0</ele><time>2026-05-03T13:44:10Z</time></trkpt><trkpt lat="41.68001505248598" lon="-2.187843695773371"><ele>1020.9999999999999</ele><time>2026-05-03T13:44:11Z</time></trkpt><trkpt lat="41.67997026772218" lon="-2.187714312102395"><ele>1020.9999999999999</ele><time>2026-05-03T13:44:12Z</time></trkpt><trkpt lat="41.679925899119176" lon="-2.1875880421499647"><ele>1021.0</ele><time>2026-05-03T13:44:13Z</time></trkpt><trkpt lat="41.679880947515414" lon="-2.1874601130232767"><ele>1021.0</ele><time>2026-05-03T13:44:14Z</time></trkpt><trkpt lat="41.6798361186159" lon="-2.187333790177423"><ele>1021.1999999999999</ele><time>2026-05-03T13:44:15Z</time></trkpt><trkpt lat="41.67979109506" lon="-2.1872050046684155"><ele>1021.3999999999999</ele><time>2026-05-03T13:44:16Z</time></trkpt><trkpt lat="41.67974635529458" lon="-2.187077195078896"><ele>1021.6</ele><time>2026-05-03T13:44:17Z</time></trkpt><trkpt lat="41.67970214677433" lon="-2.1869509031155556"><ele>1021.8</ele><time>2026-05-03T13:44:18Z</time></trkpt><trkpt lat="41.67965772666213" lon="-2.186824006693549"><ele>1022.0</ele><time>2026-05-03T13:44:19Z</time></trkpt><trkpt lat="41.679612959677996" lon="-2.186696033624296"><ele>1022.0</ele><time>2026-05-03T13:44:20Z</time></trkpt><trkpt lat="41.679568743617" lon="-2.1865695089360995"><ele>1022.0</ele><time>2026-05-03T13:44:21Z</time></trkpt><trkpt lat="41.67952441687659" lon="-2.1864426675421855"><ele>1022.0</ele><time>2026-05-03T13:44:22Z</time></trkpt><trkpt lat="41.67947939380926" lon="-2.1863138335979566"><ele>1022.0</ele><time>2026-05-03T13:44:23Z</time></trkpt><trkpt lat="41.679435613031536" lon="-2.186187617674368"><ele>1022.0</ele><time>2026-05-03T13:44:24Z</time></trkpt><trkpt lat="41.679390971654264" lon="-2.1860586803987894"><ele>1021.8</ele><time>2026-05-03T13:44:25Z</time></trkpt><trkpt lat="41.679346678117604" lon="-2.185930747790189"><ele>1021.6</ele><time>2026-05-03T13:44:26.001Z</time></trkpt><trkpt lat="41.67930229776941" lon="-2.185802564437665"><ele>1021.3999999999999</ele><time>2026-05-03T13:44:27.001Z</time></trkpt><trkpt lat="41.67925707861987" lon="-2.185671958389912"><ele>1021.1999999999999</ele><time>2026-05-03T13:44:28.001Z</time></trkpt><trkpt lat="41.67921217950897" lon="-2.18554227670339"><ele>1021.0</ele><time>2026-05-03T13:44:29.001Z</time></trkpt><trkpt lat="41.679167727099895" lon="-2.185413885224556"><ele>1021.5999999999999</ele><time>2026-05-03T13:44:30.001Z</time></trkpt><trkpt lat="41.67912231224407" lon="-2.185282713919444"><ele>1022.1999999999999</ele><time>2026-05-03T13:44:31.001Z</time></trkpt><trkpt lat="41.67908013574508" lon="-2.1851608959263844"><ele>1022.8000000000001</ele><time>2026-05-03T13:44:32.001Z</time></trkpt><trkpt lat="41.679040403559156" lon="-2.185046137830161"><ele>1023.4000000000001</ele><time>2026-05-03T13:44:33.001Z</time></trkpt><trkpt lat="41.67898241876827" lon="-2.184882330199194"><ele>1024.0</ele><time>2026-05-03T13:44:34.001Z</time></trkpt><trkpt lat="41.678935114366055" lon="-2.184749794799511"><ele>1024.8</ele><time>2026-05-03T13:44:35.001Z</time></trkpt><trkpt lat="41.67888627684252" lon="-2.184612963977844"><ele>1025.6000000000001</ele><time>2026-05-03T13:44:36.001Z</time></trkpt><trkpt lat="41.67883898106956" lon="-2.1844804527621164"><ele>1026.4</ele><time>2026-05-03T13:44:37.001Z</time></trkpt><trkpt lat="41.6787915374934" lon="-2.184346869234144"><ele>1027.2</ele><time>2026-05-03T13:44:38.001Z</time></trkpt><trkpt lat="41.67874312088928" lon="-2.1842093327983587"><ele>1028.0</ele><time>2026-05-03T13:44:39.001Z</time></trkpt><trkpt lat="41.67869504827403" lon="-2.184072773526583"><ele>1028.6</ele><time>2026-05-03T13:44:40.001Z</time></trkpt><trkpt lat="41.678647082114566" lon="-2.1839365166623703"><ele>1029.1999999999998</ele><time>2026-05-03T13:44:41.001Z</time></trkpt><trkpt lat="41.67859931076208" lon="-2.1838008131843876"><ele>1029.8</ele><time>2026-05-03T13:44:42.001Z</time></trkpt><trkpt lat="41.67855239451862" lon="-2.183666020785039"><ele>1030.3999999999999</ele><time>2026-05-03T13:44:43.001Z</time></trkpt><trkpt lat="41.678504893147114" lon="-2.1835293131173197"><ele>1031.0</ele><time>2026-05-03T13:44:44.001Z</time></trkpt><trkpt lat="41.678456810184876" lon="-2.183390931644392"><ele>1028.5</ele><time>2026-05-03T13:44:45.001Z</time></trkpt><trkpt lat="41.67840837155592" lon="-2.1832515265770462"><ele>1026.0</ele><time>2026-05-03T13:44:46.001Z</time></trkpt><trkpt lat="41.67836002664924" lon="-2.183113080532338"><ele>1023.5</ele><time>2026-05-03T13:44:47.001Z</time></trkpt><trkpt lat="41.67831120865" lon="-2.182973431859355"><ele>1021.0</ele><time>2026-05-03T13:44:48.001Z</time></trkpt><trkpt lat="41.67826329154742" lon="-2.182836360286962"><ele>1021.0</ele><time>2026-05-03T13:44:49.001Z</time></trkpt><trkpt lat="41.67821475965416" lon="-2.1826975300492704"><ele>1021.0</ele><time>2026-05-03T13:44:50.001Z</time></trkpt><trkpt lat="41.67816722530863" lon="-2.1825620813175837"><ele>1021.0</ele><time>2026-05-03T13:44:51.001Z</time></trkpt><trkpt lat="41.678118043268306" lon="-2.1824264515513"><ele>1021.0</ele><time>2026-05-03T13:44:52.001Z</time></trkpt><trkpt lat="41.67807100288829" lon="-2.1822876986773907"><ele>1021.4</ele><time>2026-05-03T13:44:53.001Z</time></trkpt><trkpt lat="41.678027181142674" lon="-2.182148348636785"><ele>1021.8</ele><time>2026-05-03T13:44:54.001Z</time></trkpt><trkpt lat="41.67798900815544" lon="-2.182010910664338"><ele>1022.1999999999999</ele><time>2026-05-03T13:44:55.001Z</time></trkpt><trkpt lat="41.67795580866439" lon="-2.181871019833138"><ele>1022.5999999999999</ele><time>2026-05-03T13:44:56.001Z</time></trkpt><trkpt lat="41.67792674896499" lon="-2.181725362537016"><ele>1023.0</ele><time>2026-05-03T13:44:57.001Z</time></trkpt><trkpt lat="41.6779014888884" lon="-2.1815802166694334"><ele>1023.2</ele><time>2026-05-03T13:44:58.001Z</time></trkpt><trkpt lat="41.67787696603228" lon="-2.18143621685561"><ele>1023.4</ele><time>2026-05-03T13:44:59.001Z</time></trkpt><trkpt lat="41.67785213654867" lon="-2.181290416496301"><ele>1023.6000000000001</ele><time>2026-05-03T13:45:00.001Z</time></trkpt><trkpt lat="41.67782775060426" lon="-2.18114561647894"><ele>1023.8000000000001</ele><time>2026-05-03T13:45:01.001Z</time></trkpt><trkpt lat="41.67780370476467" lon="-2.181000481044552"><ele>1024.0</ele><time>2026-05-03T13:45:02.001Z</time></trkpt><trkpt lat="41.6777796802865" lon="-2.180853881591528"><ele>1022.8000000000001</ele><time>2026-05-03T13:45:03.001Z</time></trkpt><trkpt lat="41.67775878999894" lon="-2.1807207690852435"><ele>1021.6000000000001</ele><time>2026-05-03T13:45:04.001Z</time></trkpt><trkpt lat="41.67773696137192" lon="-2.1805816775353724"><ele>1020.4</ele><time>2026-05-03T13:45:05.001Z</time></trkpt><trkpt lat="41.67772279003643" lon="-2.1804913781340787"><ele>1019.2</ele><time>2026-05-03T13:45:06Z</time></trkpt><trkpt lat="41.677689073300165" lon="-2.1802869864025025"><ele>1018.0</ele><time>2026-05-03T13:45:07Z</time></trkpt><trkpt lat="41.677665056309216" lon="-2.1801415007715126"><ele>1018.0</ele><time>2026-05-03T13:45:08Z</time></trkpt><trkpt lat="41.67764196882809" lon="-2.1800016457441678"><ele>1018.0</ele><time>2026-05-03T13:45:09Z</time></trkpt><trkpt lat="41.67761852560359" lon="-2.1798603284231337"><ele>1018.0</ele><time>2026-05-03T13:45:10Z</time></trkpt><trkpt lat="41.67759453521915" lon="-2.1797175153566024"><ele>1018.0</ele><time>2026-05-03T13:45:11Z</time></trkpt><trkpt lat="41.67756939994529" lon="-2.1795678868336488"><ele>1018.0</ele><time>2026-05-03T13:45:12Z</time></trkpt><trkpt lat="41.67754435986557" lon="-2.179418825001279"><ele>1017.75</ele><time>2026-05-03T13:45:13Z</time></trkpt><trkpt lat="41.677519068810994" lon="-2.1792675587029855"><ele>1017.5</ele><time>2026-05-03T13:45:14Z</time></trkpt><trkpt lat="41.677495444208255" lon="-2.179118350691583"><ele>1017.25</ele><time>2026-05-03T13:45:15Z</time></trkpt><trkpt lat="41.677471911800374" lon="-2.1789697249598903"><ele>1017.0</ele><time>2026-05-03T13:45:16Z</time></trkpt><trkpt lat="41.67744895478061" lon="-2.1788247006944017"><ele>1017.0</ele><time>2026-05-03T13:45:17Z</time></trkpt><trkpt lat="41.67742497164263" lon="-2.178678989731795"><ele>1017.0</ele><time>2026-05-03T13:45:18Z</time></trkpt><trkpt lat="41.677401172017774" lon="-2.178534393715062"><ele>1017.0</ele><time>2026-05-03T13:45:19Z</time></trkpt><trkpt lat="41.67737744759956" lon="-2.1783902546093756"><ele>1017.0</ele><time>2026-05-03T13:45:20Z</time></trkpt><trkpt lat="41.677353863290875" lon="-2.1782469667567916"><ele>1017.0</ele><time>2026-05-03T13:45:21Z</time></trkpt><trkpt lat="41.67733081750323" lon="-2.1781069507293878"><ele>1016.4000000000001</ele><time>2026-05-03T13:45:22Z</time></trkpt><trkpt lat="41.677307246999995" lon="-2.177963746752333"><ele>1015.8000000000001</ele><time>2026-05-03T13:45:23Z</time></trkpt><trkpt lat="41.677283467152506" lon="-2.1778192708712134"><ele>1015.2</ele><time>2026-05-03T13:45:24Z</time></trkpt><trkpt lat="41.67725933794759" lon="-2.1776726724606554"><ele>1014.6</ele><time>2026-05-03T13:45:25Z</time></trkpt><trkpt lat="41.67723542945896" lon="-2.177527415039399"><ele>1014.0</ele><time>2026-05-03T13:45:26Z</time></trkpt><trkpt lat="41.67721229472511" lon="-2.177386858598674"><ele>1014.4000000000001</ele><time>2026-05-03T13:45:27Z</time></trkpt><trkpt lat="41.67718868042637" lon="-2.1772432753070277"><ele>1014.8000000000001</ele><time>2026-05-03T13:45:28Z</time></trkpt><trkpt lat="41.67716557521956" lon="-2.17709938147256"><ele>1015.1999999999999</ele><time>2026-05-03T13:45:29Z</time></trkpt><trkpt lat="41.677141170421955" lon="-2.176947883431892"><ele>1015.5999999999999</ele><time>2026-05-03T13:45:30Z</time></trkpt><trkpt lat="41.67711858508289" lon="-2.1768123471751033"><ele>1016.0</ele><time>2026-05-03T13:45:31Z</time></trkpt><trkpt lat="41.677106596947745" lon="-2.1766673657218902"><ele>1016.0</ele><time>2026-05-03T13:45:32Z</time></trkpt><trkpt lat="41.677082224252366" lon="-2.1765173936842155"><ele>1015.9999999999999</ele><time>2026-05-03T13:45:33Z</time></trkpt><trkpt lat="41.67705753070869" lon="-2.1763783743176144"><ele>1015.9999999999999</ele><time>2026-05-03T13:45:34Z</time></trkpt><trkpt lat="41.6770313878144" lon="-2.176236052758164"><ele>1016.0</ele><time>2026-05-03T13:45:35Z</time></trkpt><trkpt lat="41.677009834852356" lon="-2.17609367508948"><ele>1016.0</ele><time>2026-05-03T13:45:36Z</time></trkpt><trkpt lat="41.67698473050864" lon="-2.1759513139939948"><ele>1016.0</ele><time>2026-05-03T13:45:37Z</time></trkpt><trkpt lat="41.67696053982777" lon="-2.1758110265251895"><ele>1015.9999999999999</ele><time>2026-05-03T13:45:38Z</time></trkpt><trkpt lat="41.6769373517978" lon="-2.1756706094224705"><ele>1015.9999999999999</ele><time>2026-05-03T13:45:39Z</time></trkpt><trkpt lat="41.67691263968889" lon="-2.1755277290397768"><ele>1016.0</ele><time>2026-05-03T13:45:40Z</time></trkpt><trkpt lat="41.67689136102742" lon="-2.1753820609999095"><ele>1016.0</ele><time>2026-05-03T13:45:41Z</time></trkpt><trkpt lat="41.67686667580433" lon="-2.1752391021775885"><ele>1015.1999999999999</ele><time>2026-05-03T13:45:42Z</time></trkpt><trkpt lat="41.67684259315509" lon="-2.1750959068692666"><ele>1014.3999999999999</ele><time>2026-05-03T13:45:43Z</time></trkpt><trkpt lat="41.67681867135334" lon="-2.174956459277433"><ele>1013.6</ele><time>2026-05-03T13:45:44Z</time></trkpt><trkpt lat="41.676793459798596" lon="-2.174815548048073"><ele>1012.8</ele><time>2026-05-03T13:45:45Z</time></trkpt><trkpt lat="41.67676995500493" lon="-2.1746764432333614"><ele>1012.0</ele><time>2026-05-03T13:45:46Z</time></trkpt><trkpt lat="41.67674651578727" lon="-2.1745379506370357"><ele>1012.0</ele><time>2026-05-03T13:45:47Z</time></trkpt><trkpt lat="41.676727407820934" lon="-2.174398678213698"><ele>1012.0</ele><time>2026-05-03T13:45:48Z</time></trkpt><trkpt lat="41.67670601702902" lon="-2.174259383166102"><ele>1012.0</ele><time>2026-05-03T13:45:49Z</time></trkpt><trkpt lat="41.67668329082174" lon="-2.1741182417293445"><ele>1012.0</ele><time>2026-05-03T13:45:50Z</time></trkpt><trkpt lat="41.676658510163925" lon="-2.1739766748124474"><ele>1012.0</ele><time>2026-05-03T13:45:51Z</time></trkpt><trkpt lat="41.676634004268976" lon="-2.1738364778452546"><ele>1012.2</ele><time>2026-05-03T13:45:52Z</time></trkpt><trkpt lat="41.676613879465265" lon="-2.1736980026315877"><ele>1012.4000000000001</ele><time>2026-05-03T13:45:53Z</time></trkpt><trkpt lat="41.67658732215558" lon="-2.1735586540835494"><ele>1012.5999999999999</ele><time>2026-05-03T13:45:54Z</time></trkpt><trkpt lat="41.67656493590783" lon="-2.173422025588161"><ele>1012.8</ele><time>2026-05-03T13:45:55Z</time></trkpt><trkpt lat="41.676543576611095" lon="-2.173280172688213"><ele>1013.0</ele><time>2026-05-03T13:45:56Z</time></trkpt><trkpt lat="41.67651868182854" lon="-2.1731446502894243"><ele>1013.2</ele><time>2026-05-03T13:45:57Z</time></trkpt><trkpt lat="41.676497451788954" lon="-2.1730061747568636"><ele>1013.4</ele><time>2026-05-03T13:45:58Z</time></trkpt><trkpt lat="41.67647576391529" lon="-2.1728721880372284"><ele>1013.6000000000001</ele><time>2026-05-03T13:45:59Z</time></trkpt><trkpt lat="41.67645392280036" lon="-2.1727337834349694"><ele>1013.8000000000001</ele><time>2026-05-03T13:46:00Z</time></trkpt><trkpt lat="41.676431846252186" lon="-2.1725980544833536"><ele>1014.0</ele><time>2026-05-03T13:46:01Z</time></trkpt><trkpt lat="41.67641047889969" lon="-2.1724641821231985"><ele>1013.6</ele><time>2026-05-03T13:46:02Z</time></trkpt><trkpt lat="41.676388098019785" lon="-2.1723282422122527"><ele>1013.2</ele><time>2026-05-03T13:46:03Z</time></trkpt><trkpt lat="41.676366889704774" lon="-2.172194890317564"><ele>1012.8000000000001</ele><time>2026-05-03T13:46:04Z</time></trkpt><trkpt lat="41.676343887795774" lon="-2.172062050974825"><ele>1012.4000000000001</ele><time>2026-05-03T13:46:05Z</time></trkpt><trkpt lat="41.67632007959522" lon="-2.171927382020501"><ele>1012.0</ele><time>2026-05-03T13:46:06Z</time></trkpt><trkpt lat="41.67629756651959" lon="-2.171787153128177"><ele>1012.0</ele><time>2026-05-03T13:46:07Z</time></trkpt><trkpt lat="41.6762793059164" lon="-2.171649533850251"><ele>1012.0</ele><time>2026-05-03T13:46:08Z</time></trkpt><trkpt lat="41.67625903000225" lon="-2.1715103741002504"><ele>1012.0</ele><time>2026-05-03T13:46:09Z</time></trkpt><trkpt lat="41.676233382201225" lon="-2.1713707581105237"><ele>1012.0</ele><time>2026-05-03T13:46:10Z</time></trkpt><trkpt lat="41.676211700039275" lon="-2.1712305315821925"><ele>1012.0</ele><time>2026-05-03T13:46:11Z</time></trkpt><trkpt lat="41.6761850801322" lon="-2.1710852055336507"><ele>1012.0</ele><time>2026-05-03T13:46:12Z</time></trkpt><trkpt lat="41.6761484879605" lon="-2.1709452109877763"><ele>1012.0</ele><time>2026-05-03T13:46:13Z</time></trkpt><trkpt lat="41.67614005673712" lon="-2.170796377153634"><ele>1012.0</ele><time>2026-05-03T13:46:14Z</time></trkpt><trkpt lat="41.67610058923668" lon="-2.1706579925116287"><ele>1012.0</ele><time>2026-05-03T13:46:15Z</time></trkpt><trkpt lat="41.67607608686866" lon="-2.1705110672513386"><ele>1012.0</ele><time>2026-05-03T13:46:16Z</time></trkpt><trkpt lat="41.67605240735255" lon="-2.1703640566551234"><ele>1011.4000000000001</ele><time>2026-05-03T13:46:17Z</time></trkpt><trkpt lat="41.67602945425032" lon="-2.1702203318469797"><ele>1010.8000000000001</ele><time>2026-05-03T13:46:18Z</time></trkpt><trkpt lat="41.676006063627185" lon="-2.1700738674477877"><ele>1010.2</ele><time>2026-05-03T13:46:19Z</time></trkpt><trkpt lat="41.67598260046746" lon="-2.169926948840758"><ele>1009.6</ele><time>2026-05-03T13:46:20Z</time></trkpt><trkpt lat="41.675958722988206" lon="-2.1697814963769395"><ele>1009.0</ele><time>2026-05-03T13:46:21Z</time></trkpt><trkpt lat="41.675934930692065" lon="-2.1696372293944512"><ele>1009.0</ele><time>2026-05-03T13:46:22Z</time></trkpt><trkpt lat="41.675910853007174" lon="-2.1694912319462674"><ele>1009.0000000000001</ele><time>2026-05-03T13:46:23Z</time></trkpt><trkpt lat="41.67588706722148" lon="-2.1693470044295045"><ele>1009.0000000000001</ele><time>2026-05-03T13:46:24Z</time></trkpt><trkpt lat="41.675863663693676" lon="-2.1692012224268375"><ele>1009.0</ele><time>2026-05-03T13:46:25Z</time></trkpt><trkpt lat="41.67584109423307" lon="-2.1690578256366355"><ele>1009.0</ele><time>2026-05-03T13:46:26Z</time></trkpt><trkpt lat="41.675818416081896" lon="-2.1689137382760673"><ele>1008.8000000000001</ele><time>2026-05-03T13:46:27Z</time></trkpt><trkpt lat="41.675795711121445" lon="-2.168772022297909"><ele>1008.6000000000001</ele><time>2026-05-03T13:46:28Z</time></trkpt><trkpt lat="41.675771658813304" lon="-2.1686276826252042"><ele>1008.4</ele><time>2026-05-03T13:46:29Z</time></trkpt><trkpt lat="41.67574725842363" lon="-2.1684812541084786"><ele>1008.2</ele><time>2026-05-03T13:46:30Z</time></trkpt><trkpt lat="41.67572400354666" lon="-2.1683416999011205"><ele>1008.0</ele><time>2026-05-03T13:46:31Z</time></trkpt><trkpt lat="41.675700008442014" lon="-2.168195241833035"><ele>1007.8</ele><time>2026-05-03T13:46:32Z</time></trkpt><trkpt lat="41.675676024647494" lon="-2.168045238457676"><ele>1007.5999999999999</ele><time>2026-05-03T13:46:33.001Z</time></trkpt><trkpt lat="41.675655584603625" lon="-2.167918198288064"><ele>1007.4000000000001</ele><time>2026-05-03T13:46:34.001Z</time></trkpt><trkpt lat="41.675630479746715" lon="-2.1677626135238293"><ele>1007.2</ele><time>2026-05-03T13:46:35.001Z</time></trkpt><trkpt lat="41.67560901724376" lon="-2.1676322400898087"><ele>1007.0</ele><time>2026-05-03T13:46:36.001Z</time></trkpt><trkpt lat="41.67558313011143" lon="-2.167476513225597"><ele>1007.0</ele><time>2026-05-03T13:46:37.001Z</time></trkpt><trkpt lat="41.67555873744145" lon="-2.1673297764696433"><ele>1007.0</ele><time>2026-05-03T13:46:38.001Z</time></trkpt><trkpt lat="41.67553469657774" lon="-2.1671851560404063"><ele>1007.0</ele><time>2026-05-03T13:46:39.001Z</time></trkpt><trkpt lat="41.67551107674678" lon="-2.167038968509202"><ele>1007.0</ele><time>2026-05-03T13:46:40.001Z</time></trkpt><trkpt lat="41.67548768769417" lon="-2.1668924037787733"><ele>1007.0</ele><time>2026-05-03T13:46:41.001Z</time></trkpt><trkpt lat="41.67546412345797" lon="-2.166744741276824"><ele>1007.0</ele><time>2026-05-03T13:46:42.001Z</time></trkpt><trkpt lat="41.67544056945424" lon="-2.1666002549286234"><ele>1007.0</ele><time>2026-05-03T13:46:43.001Z</time></trkpt><trkpt lat="41.675417128143934" lon="-2.1664577437757586"><ele>1007.0</ele><time>2026-05-03T13:46:44.001Z</time></trkpt><trkpt lat="41.67539328975443" lon="-2.1663128191247774"><ele>1007.0</ele><time>2026-05-03T13:46:45.001Z</time></trkpt><trkpt lat="41.675369565021924" lon="-2.1661685848259533"><ele>1007.0</ele><time>2026-05-03T13:46:46.001Z</time></trkpt><trkpt lat="41.675345561170076" lon="-2.1660259395397317"><ele>1006.8</ele><time>2026-05-03T13:46:47.001Z</time></trkpt><trkpt lat="41.67532104045043" lon="-2.165881202198444"><ele>1006.6</ele><time>2026-05-03T13:46:48.001Z</time></trkpt><trkpt lat="41.675296673020895" lon="-2.1657373696730047"><ele>1006.3999999999999</ele><time>2026-05-03T13:46:49.001Z</time></trkpt><trkpt lat="41.675272087891116" lon="-2.1655922521386115"><ele>1006.1999999999999</ele><time>2026-05-03T13:46:50.001Z</time></trkpt><trkpt lat="41.67524752222361" lon="-2.165447249483467"><ele>1006.0</ele><time>2026-05-03T13:46:51.001Z</time></trkpt><trkpt lat="41.6752238168654" lon="-2.165304847272687"><ele>1005.8</ele><time>2026-05-03T13:46:52.001Z</time></trkpt><trkpt lat="41.675200661556175" lon="-2.1651645901905043"><ele>1005.5999999999999</ele><time>2026-05-03T13:46:53.001Z</time></trkpt><trkpt lat="41.67517706894845" lon="-2.1650216842938774"><ele>1005.4</ele><time>2026-05-03T13:46:54.001Z</time></trkpt><trkpt lat="41.675153675621345" lon="-2.164879985485817"><ele>1005.2</ele><time>2026-05-03T13:46:55.001Z</time></trkpt><trkpt lat="41.675130065405526" lon="-2.164739152497304"><ele>1005.0</ele><time>2026-05-03T13:46:56.001Z</time></trkpt><trkpt lat="41.675105736545795" lon="-2.1645956630294236"><ele>1005.0</ele><time>2026-05-03T13:46:57.001Z</time></trkpt><trkpt lat="41.67508176174487" lon="-2.1644542617687987"><ele>1005.0</ele><time>2026-05-03T13:46:58.001Z</time></trkpt><trkpt lat="41.675057917864464" lon="-2.1643136718206746"><ele>1005.0</ele><time>2026-05-03T13:46:59.001Z</time></trkpt><trkpt lat="41.67503434824807" lon="-2.1641721568376737"><ele>1005.0</ele><time>2026-05-03T13:47:00.001Z</time></trkpt><trkpt lat="41.6750105047449" lon="-2.164028997402584"><ele>1005.0</ele><time>2026-05-03T13:47:01.001Z</time></trkpt><trkpt lat="41.67498622443576" lon="-2.1638832153291134"><ele>1005.0</ele><time>2026-05-03T13:47:02.001Z</time></trkpt><trkpt lat="41.67496233493825" lon="-2.163739779736586"><ele>1005.0</ele><time>2026-05-03T13:47:03.001Z</time></trkpt><trkpt lat="41.674938504419885" lon="-2.1635966982664274"><ele>1005.0</ele><time>2026-05-03T13:47:04.001Z</time></trkpt><trkpt lat="41.67491545904322" lon="-2.163458330877179"><ele>1005.0</ele><time>2026-05-03T13:47:05.001Z</time></trkpt><trkpt lat="41.67489190005367" lon="-2.163316879700876"><ele>1005.0</ele><time>2026-05-03T13:47:06.001Z</time></trkpt><trkpt lat="41.67486883802084" lon="-2.1631784123155624"><ele>1005.0</ele><time>2026-05-03T13:47:07.001Z</time></trkpt><trkpt lat="41.67484621891925" lon="-2.1630426043484188"><ele>1005.0</ele><time>2026-05-03T13:47:08.001Z</time></trkpt><trkpt lat="41.67482259646039" lon="-2.1629007720929447"><ele>1005.0</ele><time>2026-05-03T13:47:09.001Z</time></trkpt><trkpt lat="41.674799487564385" lon="-2.1627620233353153"><ele>1005.0</ele><time>2026-05-03T13:47:10.001Z</time></trkpt><trkpt lat="41.67477552209248" lon="-2.1626175919495534"><ele>1005.0</ele><time>2026-05-03T13:47:11.001Z</time></trkpt><trkpt lat="41.674752015946005" lon="-2.162475640625227"><ele>1005.2</ele><time>2026-05-03T13:47:12Z</time></trkpt><trkpt lat="41.67472794388809" lon="-2.162330271818333"><ele>1005.4</ele><time>2026-05-03T13:47:13Z</time></trkpt><trkpt lat="41.67470439380627" lon="-2.162188055174052"><ele>1005.5999999999999</ele><time>2026-05-03T13:47:14Z</time></trkpt><trkpt lat="41.67468098138752" lon="-2.162046669864086"><ele>1005.8</ele><time>2026-05-03T13:47:15Z</time></trkpt><trkpt lat="41.674657485908384" lon="-2.161904782960952"><ele>1006.0</ele><time>2026-05-03T13:47:16Z</time></trkpt><trkpt lat="41.67463444875185" lon="-2.1617656638242235"><ele>1006.0</ele><time>2026-05-03T13:47:17Z</time></trkpt><trkpt lat="41.67461072311474" lon="-2.161622387014939"><ele>1005.9999999999999</ele><time>2026-05-03T13:47:18Z</time></trkpt><trkpt lat="41.67458756653685" lon="-2.161482546702449"><ele>1005.9999999999999</ele><time>2026-05-03T13:47:19Z</time></trkpt><trkpt lat="41.67456468185088" lon="-2.1613443483222192"><ele>1006.0</ele><time>2026-05-03T13:47:20Z</time></trkpt><trkpt lat="41.674541868471486" lon="-2.1612065805541154"><ele>1006.0</ele><time>2026-05-03T13:47:21Z</time></trkpt><trkpt lat="41.674518606615294" lon="-2.16106610447578"><ele>1006.1999999999999</ele><time>2026-05-03T13:47:22Z</time></trkpt><trkpt lat="41.674495507941614" lon="-2.160926613841526"><ele>1006.3999999999999</ele><time>2026-05-03T13:47:23Z</time></trkpt><trkpt lat="41.674471758093" lon="-2.1607831908217756"><ele>1006.6</ele><time>2026-05-03T13:47:24Z</time></trkpt><trkpt lat="41.674449214501" lon="-2.1606451220265908"><ele>1006.8</ele><time>2026-05-03T13:47:25Z</time></trkpt><trkpt lat="41.674426348062234" lon="-2.160502711667751"><ele>1007.0</ele><time>2026-05-03T13:47:26Z</time></trkpt><trkpt lat="41.674403725823225" lon="-2.1603601640462418"><ele>1006.8</ele><time>2026-05-03T13:47:27Z</time></trkpt><trkpt lat="41.67438138381452" lon="-2.1602192201471553"><ele>1006.6</ele><time>2026-05-03T13:47:28Z</time></trkpt><trkpt lat="41.67435907100666" lon="-2.160078460461852"><ele>1006.3999999999999</ele><time>2026-05-03T13:47:29Z</time></trkpt><trkpt lat="41.67433589450825" lon="-2.1599354811706966"><ele>1006.1999999999999</ele><time>2026-05-03T13:47:30Z</time></trkpt><trkpt lat="41.674311429125424" lon="-2.1597896073704628"><ele>1006.0</ele><time>2026-05-03T13:47:31Z</time></trkpt><trkpt lat="41.674287052146944" lon="-2.1596442606720463"><ele>1006.0</ele><time>2026-05-03T13:47:32Z</time></trkpt><trkpt lat="41.67426309594026" lon="-2.1595014228084928"><ele>1005.9999999999999</ele><time>2026-05-03T13:47:33Z</time></trkpt><trkpt lat="41.67423899482825" lon="-2.159357720952819"><ele>1005.9999999999999</ele><time>2026-05-03T13:47:34Z</time></trkpt><trkpt lat="41.67421577085159" lon="-2.1592174600805936"><ele>1006.0</ele><time>2026-05-03T13:47:35Z</time></trkpt><trkpt lat="41.674193045922436" lon="-2.1590786498383987"><ele>1006.0</ele><time>2026-05-03T13:47:36Z</time></trkpt><trkpt lat="41.67417009549882" lon="-2.1589384622138583"><ele>1006.5999999999999</ele><time>2026-05-03T13:47:37Z</time></trkpt><trkpt lat="41.674147629961816" lon="-2.1588012364129714"><ele>1007.1999999999999</ele><time>2026-05-03T13:47:38Z</time></trkpt><trkpt lat="41.674125340729475" lon="-2.158665087533596"><ele>1007.8000000000001</ele><time>2026-05-03T13:47:39Z</time></trkpt><trkpt lat="41.67410378885679" lon="-2.1585334426487015"><ele>1008.4000000000001</ele><time>2026-05-03T13:47:40Z</time></trkpt><trkpt lat="41.674082546909034" lon="-2.1584036908769626"><ele>1009.0</ele><time>2026-05-03T13:47:41Z</time></trkpt><trkpt lat="41.67406085120263" lon="-2.158271167417841"><ele>1009.4000000000001</ele><time>2026-05-03T13:47:42Z</time></trkpt><trkpt lat="41.67403969710316" lon="-2.1581419627716083"><ele>1009.8000000000001</ele><time>2026-05-03T13:47:43Z</time></trkpt><trkpt lat="41.67403085605293" lon="-2.1580092341119994"><ele>1010.1999999999999</ele><time>2026-05-03T13:47:44Z</time></trkpt><trkpt lat="41.67400704529806" lon="-2.1578803458507596"><ele>1010.5999999999999</ele><time>2026-05-03T13:47:45Z</time></trkpt><trkpt lat="41.673984916790545" lon="-2.1577473035980805"><ele>1011.0</ele><time>2026-05-03T13:47:46Z</time></trkpt><trkpt lat="41.67396399435088" lon="-2.1576164179281374"><ele>1011.0</ele><time>2026-05-03T13:47:47Z</time></trkpt><trkpt lat="41.6739432644409" lon="-2.15748402031711"><ele>1010.9999999999999</ele><time>2026-05-03T13:47:48Z</time></trkpt><trkpt lat="41.67392230201255" lon="-2.15734807165564"><ele>1010.9999999999999</ele><time>2026-05-03T13:47:49Z</time></trkpt><trkpt lat="41.673901761283034" lon="-2.157219220219684"><ele>1011.0</ele><time>2026-05-03T13:47:50Z</time></trkpt><trkpt lat="41.67388019182415" lon="-2.157086633255613"><ele>1011.0</ele><time>2026-05-03T13:47:51Z</time></trkpt><trkpt lat="41.673858654092776" lon="-2.15695494560028"><ele>1011.0</ele><time>2026-05-03T13:47:52Z</time></trkpt><trkpt lat="41.67383343757838" lon="-2.1568226716221837"><ele>1010.9999999999999</ele><time>2026-05-03T13:47:53Z</time></trkpt><trkpt lat="41.67381237577864" lon="-2.156685378238033"><ele>1010.9999999999999</ele><time>2026-05-03T13:47:54Z</time></trkpt><trkpt lat="41.67379219790979" lon="-2.15654888360543"><ele>1011.0</ele><time>2026-05-03T13:47:55Z</time></trkpt><trkpt lat="41.67377261860302" lon="-2.1564075752766487"><ele>1011.0</ele><time>2026-05-03T13:47:56Z</time></trkpt><trkpt lat="41.67374541338769" lon="-2.1562690483856897"><ele>1010.8</ele><time>2026-05-03T13:47:57Z</time></trkpt><trkpt lat="41.67372197691278" lon="-2.1561298679098835"><ele>1010.5999999999999</ele><time>2026-05-03T13:47:58Z</time></trkpt><trkpt lat="41.67369739078251" lon="-2.1559880165008978"><ele>1010.4</ele><time>2026-05-03T13:47:59Z</time></trkpt><trkpt lat="41.67367270376841" lon="-2.155850545003188"><ele>1010.2</ele><time>2026-05-03T13:48:00Z</time></trkpt><trkpt lat="41.67365058963686" lon="-2.155709616507894"><ele>1010.0</ele><time>2026-05-03T13:48:01Z</time></trkpt><trkpt lat="41.673629177012224" lon="-2.155568136331274"><ele>1010.0</ele><time>2026-05-03T13:48:02Z</time></trkpt><trkpt lat="41.67360807211987" lon="-2.155424150925294"><ele>1010.0</ele><time>2026-05-03T13:48:03Z</time></trkpt><trkpt lat="41.673581967739096" lon="-2.1552858001448008"><ele>1010.0</ele><time>2026-05-03T13:48:04Z</time></trkpt><trkpt lat="41.67355856750632" lon="-2.155146015199618"><ele>1010.0</ele><time>2026-05-03T13:48:05Z</time></trkpt><trkpt lat="41.67353496339984" lon="-2.1550063246164965"><ele>1010.0</ele><time>2026-05-03T13:48:06Z</time></trkpt><trkpt lat="41.67351636527013" lon="-2.15486358762456"><ele>1010.0</ele><time>2026-05-03T13:48:07Z</time></trkpt><trkpt lat="41.67349618135155" lon="-2.1547253161745004"><ele>1010.0</ele><time>2026-05-03T13:48:08Z</time></trkpt><trkpt lat="41.67345862728399" lon="-2.1545918658549468"><ele>1010.0</ele><time>2026-05-03T13:48:09Z</time></trkpt><trkpt lat="41.67343570827125" lon="-2.1544535083139476"><ele>1010.0</ele><time>2026-05-03T13:48:10Z</time></trkpt><trkpt lat="41.6734291611855" lon="-2.154311865730191"><ele>1010.0</ele><time>2026-05-03T13:48:11Z</time></trkpt><trkpt lat="41.67340583336415" lon="-2.1541738615843453"><ele>1010.0</ele><time>2026-05-03T13:48:12Z</time></trkpt><trkpt lat="41.673383213175875" lon="-2.1540357825552925"><ele>1010.0</ele><time>2026-05-03T13:48:13Z</time></trkpt><trkpt lat="41.67334422620394" lon="-2.153901249187253"><ele>1010.0</ele><time>2026-05-03T13:48:14Z</time></trkpt><trkpt lat="41.67332116978846" lon="-2.1537628349926217"><ele>1010.0</ele><time>2026-05-03T13:48:15Z</time></trkpt><trkpt lat="41.67329812713804" lon="-2.153624530684927"><ele>1010.0</ele><time>2026-05-03T13:48:16Z</time></trkpt><trkpt lat="41.673290204272305" lon="-2.1534787317481947"><ele>1010.0</ele><time>2026-05-03T13:48:17Z</time></trkpt><trkpt lat="41.67326556184062" lon="-2.153337851393222"><ele>1010.0</ele><time>2026-05-03T13:48:18Z</time></trkpt><trkpt lat="41.67324331174392" lon="-2.153195179025453"><ele>1010.0</ele><time>2026-05-03T13:48:19Z</time></trkpt><trkpt lat="41.673204805424334" lon="-2.15305975279105"><ele>1010.0</ele><time>2026-05-03T13:48:20Z</time></trkpt><trkpt lat="41.67318190533769" lon="-2.1529198514718377"><ele>1010.0</ele><time>2026-05-03T13:48:21Z</time></trkpt><trkpt lat="41.67315889055588" lon="-2.1527822618399703"><ele>1009.8</ele><time>2026-05-03T13:48:22Z</time></trkpt><trkpt lat="41.67313594826538" lon="-2.1526448401706486"><ele>1009.6</ele><time>2026-05-03T13:48:23Z</time></trkpt><trkpt lat="41.673112788316736" lon="-2.1525061147435767"><ele>1009.4000000000001</ele><time>2026-05-03T13:48:24Z</time></trkpt><trkpt lat="41.67309000294147" lon="-2.152363354543579"><ele>1009.2</ele><time>2026-05-03T13:48:25Z</time></trkpt><trkpt lat="41.67306724350699" lon="-2.1522212953719073"><ele>1009.0</ele><time>2026-05-03T13:48:26Z</time></trkpt><trkpt lat="41.67304427496281" lon="-2.1520779309883626"><ele>1008.8000000000001</ele><time>2026-05-03T13:48:27Z</time></trkpt><trkpt lat="41.67302240860165" lon="-2.1519422143865348"><ele>1008.6000000000001</ele><time>2026-05-03T13:48:28Z</time></trkpt><trkpt lat="41.67299641402781" lon="-2.1517844849334904"><ele>1008.4</ele><time>2026-05-03T13:48:29Z</time></trkpt><trkpt lat="41.67296759907735" lon="-2.151609642096991"><ele>1008.2</ele><time>2026-05-03T13:48:30Z</time></trkpt><trkpt lat="41.67295096554989" lon="-2.151508713401353"><ele>1008.0</ele><time>2026-05-03T13:48:31Z</time></trkpt><trkpt lat="41.67292696144532" lon="-2.151363061687069"><ele>1007.5999999999999</ele><time>2026-05-03T13:48:32Z</time></trkpt><trkpt lat="41.672902882133215" lon="-2.1512169536308496"><ele>1007.1999999999999</ele><time>2026-05-03T13:48:33Z</time></trkpt><trkpt lat="41.67287960845279" lon="-2.151075970256837"><ele>1006.8</ele><time>2026-05-03T13:48:34Z</time></trkpt><trkpt lat="41.672855361424084" lon="-2.1509292042456254"><ele>1006.4</ele><time>2026-05-03T13:48:35Z</time></trkpt><trkpt lat="41.67283133096117" lon="-2.150783749098485"><ele>1006.0</ele><time>2026-05-03T13:48:36Z</time></trkpt><trkpt lat="41.67280711474171" lon="-2.150636455339019"><ele>1006.0</ele><time>2026-05-03T13:48:37Z</time></trkpt><trkpt lat="41.67278363007043" lon="-2.1504911469244425"><ele>1005.9999999999999</ele><time>2026-05-03T13:48:38Z</time></trkpt><trkpt lat="41.672760004572034" lon="-2.150344967161"><ele>1005.9999999999999</ele><time>2026-05-03T13:48:39Z</time></trkpt><trkpt lat="41.672736544273434" lon="-2.150199809547963"><ele>1006.0</ele><time>2026-05-03T13:48:40Z</time></trkpt><trkpt lat="41.672713228525446" lon="-2.150055745449214"><ele>1006.0</ele><time>2026-05-03T13:48:41Z</time></trkpt><trkpt lat="41.67268920776117" lon="-2.149911886773189"><ele>1005.8</ele><time>2026-05-03T13:48:42Z</time></trkpt><trkpt lat="41.672664736748935" lon="-2.1497657076238714"><ele>1005.5999999999999</ele><time>2026-05-03T13:48:43Z</time></trkpt><trkpt lat="41.672648551546914" lon="-2.149620782868139"><ele>1005.4</ele><time>2026-05-03T13:48:44Z</time></trkpt><trkpt lat="41.67262194300032" lon="-2.149481992763054"><ele>1005.2</ele><time>2026-05-03T13:48:45Z</time></trkpt><trkpt lat="41.67259520235444" lon="-2.149337921363033"><ele>1005.0</ele><time>2026-05-03T13:48:46Z</time></trkpt><trkpt lat="41.67257048786541" lon="-2.149194774609909"><ele>1005.0</ele><time>2026-05-03T13:48:47Z</time></trkpt><trkpt lat="41.67254480782145" lon="-2.1490531012000105"><ele>1005.0</ele><time>2026-05-03T13:48:48Z</time></trkpt><trkpt lat="41.6725206155072" lon="-2.1489111951363498"><ele>1005.0</ele><time>2026-05-03T13:48:49Z</time></trkpt><trkpt lat="41.67249507373937" lon="-2.1487734230847804"><ele>1005.0</ele><time>2026-05-03T13:48:50Z</time></trkpt><trkpt lat="41.67247454684516" lon="-2.148635604472507"><ele>1005.0</ele><time>2026-05-03T13:48:51Z</time></trkpt><trkpt lat="41.672450169322495" lon="-2.148495702836001"><ele>1004.8</ele><time>2026-05-03T13:48:52.001Z</time></trkpt><trkpt lat="41.67242524249353" lon="-2.1483595907597026"><ele>1004.6</ele><time>2026-05-03T13:48:53.001Z</time></trkpt><trkpt lat="41.67239930797835" lon="-2.148229717659071"><ele>1004.4000000000001</ele><time>2026-05-03T13:48:54.001Z</time></trkpt><trkpt lat="41.67237352447036" lon="-2.1480911053252156"><ele>1004.2</ele><time>2026-05-03T13:48:55.001Z</time></trkpt><trkpt lat="41.67235174690131" lon="-2.1479527902495157"><ele>1004.0</ele><time>2026-05-03T13:48:56.001Z</time></trkpt><trkpt lat="41.672324897314596" lon="-2.147815999370442"><ele>1003.8000000000001</ele><time>2026-05-03T13:48:57.001Z</time></trkpt><trkpt lat="41.67230129371963" lon="-2.1476792031209633"><ele>1003.6000000000001</ele><time>2026-05-03T13:48:58.001Z</time></trkpt><trkpt lat="41.6722788241471" lon="-2.14753989776085"><ele>1003.4</ele><time>2026-05-03T13:48:59.001Z</time></trkpt><trkpt lat="41.67225398082944" lon="-2.147401152222805"><ele>1003.2</ele><time>2026-05-03T13:49:00.001Z</time></trkpt><trkpt lat="41.67222499552428" lon="-2.147264767963368"><ele>1003.0</ele><time>2026-05-03T13:49:01.001Z</time></trkpt><trkpt lat="41.6722025537938" lon="-2.147123435893073"><ele>1002.8</ele><time>2026-05-03T13:49:02.001Z</time></trkpt><trkpt lat="41.67217804729134" lon="-2.1469846842697553"><ele>1002.5999999999999</ele><time>2026-05-03T13:49:03.001Z</time></trkpt><trkpt lat="41.67215342081734" lon="-2.1468454489558995"><ele>1002.4000000000001</ele><time>2026-05-03T13:49:04.001Z</time></trkpt><trkpt lat="41.67212831452759" lon="-2.1467052902208654"><ele>1002.2</ele><time>2026-05-03T13:49:05.001Z</time></trkpt><trkpt lat="41.67209999587701" lon="-2.1465665448217224"><ele>1002.0</ele><time>2026-05-03T13:49:06.001Z</time></trkpt><trkpt lat="41.67207740304969" lon="-2.1464263165044146"><ele>1002.4000000000001</ele><time>2026-05-03T13:49:07.001Z</time></trkpt><trkpt lat="41.67205498537989" lon="-2.146283911317125"><ele>1002.8000000000001</ele><time>2026-05-03T13:49:08.001Z</time></trkpt><trkpt lat="41.672030757064434" lon="-2.1461424793672297"><ele>1003.2</ele><time>2026-05-03T13:49:09.001Z</time></trkpt><trkpt lat="41.67200437580757" lon="-2.1460000895583864"><ele>1003.6</ele><time>2026-05-03T13:49:10.001Z</time></trkpt><trkpt lat="41.671979926438496" lon="-2.1458571263109745"><ele>1004.0</ele><time>2026-05-03T13:49:11.001Z</time></trkpt><trkpt lat="41.67196048809825" lon="-2.1457166825790175"><ele>1004.25</ele><time>2026-05-03T13:49:12.001Z</time></trkpt><trkpt lat="41.67191814042426" lon="-2.145564295889103"><ele>1004.5</ele><time>2026-05-03T13:49:13.001Z</time></trkpt><trkpt lat="41.67184353631733" lon="-2.1453603926374534"><ele>1004.75</ele><time>2026-05-03T13:49:14.001Z</time></trkpt><trkpt lat="41.67187946042311" lon="-2.145282459237739"><ele>1005.0</ele><time>2026-05-03T13:49:15.001Z</time></trkpt><trkpt lat="41.67185080614854" lon="-2.145145497089942"><ele>1005.0</ele><time>2026-05-03T13:49:16.001Z</time></trkpt><trkpt lat="41.67182854783576" lon="-2.145001126591497"><ele>1005.0</ele><time>2026-05-03T13:49:17.001Z</time></trkpt><trkpt lat="41.67180532158426" lon="-2.144856666106317"><ele>1005.0</ele><time>2026-05-03T13:49:18Z</time></trkpt><trkpt lat="41.67178366966504" lon="-2.144714401909881"><ele>1005.0</ele><time>2026-05-03T13:49:19Z</time></trkpt><trkpt lat="41.67176126965612" lon="-2.1445723609558356"><ele>1005.0</ele><time>2026-05-03T13:49:20Z</time></trkpt><trkpt lat="41.671736807190356" lon="-2.144431520261548"><ele>1004.8</ele><time>2026-05-03T13:49:21Z</time></trkpt><trkpt lat="41.67171385733955" lon="-2.144286671785217"><ele>1004.6</ele><time>2026-05-03T13:49:22Z</time></trkpt><trkpt lat="41.671691587139605" lon="-2.144146784992286"><ele>1004.4000000000001</ele><time>2026-05-03T13:49:23Z</time></trkpt><trkpt lat="41.671669225373144" lon="-2.144003231415401"><ele>1004.2</ele><time>2026-05-03T13:49:24Z</time></trkpt><trkpt lat="41.67164009363413" lon="-2.1438612896660327"><ele>1004.0</ele><time>2026-05-03T13:49:25Z</time></trkpt><trkpt lat="41.671610759452435" lon="-2.143721055797311"><ele>1004.0</ele><time>2026-05-03T13:49:26Z</time></trkpt><trkpt lat="41.671582535852835" lon="-2.1435819735670423"><ele>1004.0000000000001</ele><time>2026-05-03T13:49:27Z</time></trkpt><trkpt lat="41.671558145784644" lon="-2.1434376647956506"><ele>1004.0000000000001</ele><time>2026-05-03T13:49:28Z</time></trkpt><trkpt lat="41.671536648808804" lon="-2.1432950716082093"><ele>1004.0</ele><time>2026-05-03T13:49:29Z</time></trkpt><trkpt lat="41.67151092974549" lon="-2.1431535528740646"><ele>1004.0</ele><time>2026-05-03T13:49:30Z</time></trkpt><trkpt lat="41.671488909992746" lon="-2.1430177680707105"><ele>1004.6</ele><time>2026-05-03T13:49:31Z</time></trkpt><trkpt lat="41.67146128063753" lon="-2.14287092697844"><ele>1005.2</ele><time>2026-05-03T13:49:32Z</time></trkpt><trkpt lat="41.67143714163073" lon="-2.142731494933656"><ele>1005.8000000000001</ele><time>2026-05-03T13:49:33Z</time></trkpt><trkpt lat="41.67141265670813" lon="-2.1425905019461644"><ele>1006.4000000000001</ele><time>2026-05-03T13:49:34Z</time></trkpt><trkpt lat="41.67139039652093" lon="-2.142447906063377"><ele>1007.0</ele><time>2026-05-03T13:49:35Z</time></trkpt><trkpt lat="41.67137243639403" lon="-2.142315569436099"><ele>1007.4000000000001</ele><time>2026-05-03T13:49:36Z</time></trkpt><trkpt lat="41.671352885417235" lon="-2.1421846422291706"><ele>1007.8000000000001</ele><time>2026-05-03T13:49:37Z</time></trkpt><trkpt lat="41.67133194643719" lon="-2.1420507102736965"><ele>1008.2</ele><time>2026-05-03T13:49:38Z</time></trkpt><trkpt lat="41.67130849812408" lon="-2.1419190731361826"><ele>1008.6</ele><time>2026-05-03T13:49:39Z</time></trkpt><trkpt lat="41.6712811736587" lon="-2.141787483114814"><ele>1009.0</ele><time>2026-05-03T13:49:40Z</time></trkpt><trkpt lat="41.67125773285456" lon="-2.1416550777425383"><ele>1009.4000000000001</ele><time>2026-05-03T13:49:41Z</time></trkpt><trkpt lat="41.67123532731773" lon="-2.1415262353132656"><ele>1009.8000000000001</ele><time>2026-05-03T13:49:42Z</time></trkpt><trkpt lat="41.671213457431136" lon="-2.1413938264007757"><ele>1010.1999999999999</ele><time>2026-05-03T13:49:43Z</time></trkpt><trkpt lat="41.67119079067556" lon="-2.14126247888122"><ele>1010.5999999999999</ele><time>2026-05-03T13:49:44Z</time></trkpt><trkpt lat="41.671165936545314" lon="-2.1411321871296556"><ele>1011.0</ele><time>2026-05-03T13:49:45Z</time></trkpt><trkpt lat="41.67114048141806" lon="-2.1410020176479247"><ele>1011.0</ele><time>2026-05-03T13:49:46Z</time></trkpt><trkpt lat="41.67111450604588" lon="-2.1408693051091667"><ele>1010.9999999999999</ele><time>2026-05-03T13:49:47Z</time></trkpt><trkpt lat="41.67108487030532" lon="-2.1407439715875505"><ele>1010.9999999999999</ele><time>2026-05-03T13:49:48Z</time></trkpt><trkpt lat="41.67105228662884" lon="-2.1406160516996535"><ele>1011.0</ele><time>2026-05-03T13:49:49Z</time></trkpt><trkpt lat="41.67101786606807" lon="-2.1404886870750985"><ele>1011.0</ele><time>2026-05-03T13:49:50Z</time></trkpt><trkpt lat="41.670984685151744" lon="-2.1403637769694623"><ele>1011.5999999999999</ele><time>2026-05-03T13:49:51Z</time></trkpt><trkpt lat="41.670951193499135" lon="-2.1402387631674986"><ele>1012.1999999999999</ele><time>2026-05-03T13:49:52Z</time></trkpt><trkpt lat="41.67091919110534" lon="-2.140112241829192"><ele>1012.8000000000001</ele><time>2026-05-03T13:49:53Z</time></trkpt><trkpt lat="41.67088092608881" lon="-2.139990282263479"><ele>1013.4000000000001</ele><time>2026-05-03T13:49:54Z</time></trkpt><trkpt lat="41.6708450133443" lon="-2.1398654930310834"><ele>1014.0</ele><time>2026-05-03T13:49:55Z</time></trkpt><trkpt lat="41.67080980638259" lon="-2.1397433105646084"><ele>1014.4000000000001</ele><time>2026-05-03T13:49:56Z</time></trkpt><trkpt lat="41.670772755066395" lon="-2.139622580124929"><ele>1014.8000000000001</ele><time>2026-05-03T13:49:57Z</time></trkpt><trkpt lat="41.670730958795836" lon="-2.1395033642847365"><ele>1015.1999999999999</ele><time>2026-05-03T13:49:58Z</time></trkpt><trkpt lat="41.67069137179261" lon="-2.139386991921852"><ele>1015.5999999999999</ele><time>2026-05-03T13:49:59Z</time></trkpt><trkpt lat="41.670653683466035" lon="-2.1392665416854735"><ele>1016.0</ele><time>2026-05-03T13:50:00Z</time></trkpt><trkpt lat="41.67061381060158" lon="-2.1391511657533755"><ele>1016.5999999999999</ele><time>2026-05-03T13:50:01Z</time></trkpt><trkpt lat="41.670575998837265" lon="-2.1390343596492274"><ele>1017.1999999999999</ele><time>2026-05-03T13:50:02Z</time></trkpt><trkpt lat="41.67054327171695" lon="-2.1389110180524282"><ele>1017.8000000000001</ele><time>2026-05-03T13:50:03Z</time></trkpt><trkpt lat="41.670510191151735" lon="-2.138791887048071"><ele>1018.4000000000001</ele><time>2026-05-03T13:50:04Z</time></trkpt><trkpt lat="41.67047419311886" lon="-2.138673956406145"><ele>1019.0</ele><time>2026-05-03T13:50:05Z</time></trkpt><trkpt lat="41.6704343363479" lon="-2.138563546640487"><ele>1019.0</ele><time>2026-05-03T13:50:06Z</time></trkpt><trkpt lat="41.6703978058786" lon="-2.138446214104294"><ele>1019.0000000000001</ele><time>2026-05-03T13:50:07Z</time></trkpt><trkpt lat="41.670361766562095" lon="-2.138320307649272"><ele>1019.0000000000001</ele><time>2026-05-03T13:50:08Z</time></trkpt><trkpt lat="41.67032451809249" lon="-2.1382059057426948"><ele>1019.0</ele><time>2026-05-03T13:50:09Z</time></trkpt><trkpt lat="41.67028779637187" lon="-2.1380935828393217"><ele>1019.0</ele><time>2026-05-03T13:50:10Z</time></trkpt><trkpt lat="41.67025086620525" lon="-2.13797648833036"><ele>1019.2</ele><time>2026-05-03T13:50:11Z</time></trkpt><trkpt lat="41.67021206514806" lon="-2.1378611114390593"><ele>1019.4000000000001</ele><time>2026-05-03T13:50:12Z</time></trkpt><trkpt lat="41.670176586426464" lon="-2.13774548327704"><ele>1019.6</ele><time>2026-05-03T13:50:13Z</time></trkpt><trkpt lat="41.67014164374126" lon="-2.1376286850073605"><ele>1019.8</ele><time>2026-05-03T13:50:14Z</time></trkpt><trkpt lat="41.67010634003088" lon="-2.1375151339060348"><ele>1020.0</ele><time>2026-05-03T13:50:15Z</time></trkpt><trkpt lat="41.670071149244606" lon="-2.13740443923154"><ele>1020.4</ele><time>2026-05-03T13:50:16Z</time></trkpt><trkpt lat="41.67003399519203" lon="-2.137288112316609"><ele>1020.8</ele><time>2026-05-03T13:50:17Z</time></trkpt><trkpt lat="41.6699963179176" lon="-2.1371768254107724"><ele>1021.2</ele><time>2026-05-03T13:50:18Z</time></trkpt><trkpt lat="41.66995715549932" lon="-2.137061071953131"><ele>1021.6</ele><time>2026-05-03T13:50:19Z</time></trkpt><trkpt lat="41.66991645528604" lon="-2.136953373726516"><ele>1022.0</ele><time>2026-05-03T13:50:20Z</time></trkpt><trkpt lat="41.66984354399625" lon="-2.136727792713695"><ele>1022.0</ele><time>2026-05-03T13:50:22Z</time></trkpt><trkpt lat="41.669808676642475" lon="-2.1366076774208835"><ele>1022.0</ele><time>2026-05-03T13:50:23Z</time></trkpt><trkpt lat="41.66977459686574" lon="-2.136499099422822"><ele>1022.0</ele><time>2026-05-03T13:50:24Z</time></trkpt><trkpt lat="41.66973731632908" lon="-2.1363923859714062"><ele>1022.0</ele><time>2026-05-03T13:50:25Z</time></trkpt><trkpt lat="41.66969918151968" lon="-2.1362798616672887"><ele>1022.0</ele><time>2026-05-03T13:50:26Z</time></trkpt><trkpt lat="41.66966421783253" lon="-2.1361665208875684"><ele>1023.0</ele><time>2026-05-03T13:50:27Z</time></trkpt><trkpt lat="41.66962880668912" lon="-2.1360558744634104"><ele>1024.0</ele><time>2026-05-03T13:50:28Z</time></trkpt><trkpt lat="41.66959366759735" lon="-2.1359407326382867"><ele>1025.0</ele><time>2026-05-03T13:50:29Z</time></trkpt><trkpt lat="41.66955539087677" lon="-2.1358321881394455"><ele>1026.0</ele><time>2026-05-03T13:50:30Z</time></trkpt><trkpt lat="41.669520666097185" lon="-2.135721937530407"><ele>1027.0</ele><time>2026-05-03T13:50:31Z</time></trkpt><trkpt lat="41.66948333881379" lon="-2.135612382881475"><ele>1027.3333333333333</ele><time>2026-05-03T13:50:32Z</time></trkpt><trkpt lat="41.669447533908425" lon="-2.1355075652781004"><ele>1027.6666666666665</ele><time>2026-05-03T13:50:33Z</time></trkpt><trkpt lat="41.669410898233515" lon="-2.1353978691895734"><ele>1028.0</ele><time>2026-05-03T13:50:34Z</time></trkpt><trkpt lat="41.669375489464656" lon="-2.1352935069898233"><ele>1028.3333333333333</ele><time>2026-05-03T13:50:35Z</time></trkpt><trkpt lat="41.66934015170682" lon="-2.1351820076476407"><ele>1028.6666666666667</ele><time>2026-05-03T13:50:36Z</time></trkpt><trkpt lat="41.669305245154106" lon="-2.1350707035992276"><ele>1029.0</ele><time>2026-05-03T13:50:37Z</time></trkpt><trkpt lat="41.669271296337016" lon="-2.1349678732193116"><ele>1029.2</ele><time>2026-05-03T13:50:38Z</time></trkpt><trkpt lat="41.669236433297534" lon="-2.1348592247402123"><ele>1029.4</ele><time>2026-05-03T13:50:39Z</time></trkpt><trkpt lat="41.66919845173162" lon="-2.1347500295819706"><ele>1029.6</ele><time>2026-05-03T13:50:40Z</time></trkpt><trkpt lat="41.66915737414434" lon="-2.134633721805162"><ele>1029.8</ele><time>2026-05-03T13:50:41Z</time></trkpt><trkpt lat="41.66911988408611" lon="-2.134520763371264"><ele>1030.0</ele><time>2026-05-03T13:50:42.001Z</time></trkpt><trkpt lat="41.66907917085312" lon="-2.1344142231871492"><ele>1030.0</ele><time>2026-05-03T13:50:43.001Z</time></trkpt><trkpt lat="41.66904290698051" lon="-2.134293877383902"><ele>1030.0</ele><time>2026-05-03T13:50:44.001Z</time></trkpt><trkpt lat="41.669002814621074" lon="-2.134177548652033"><ele>1030.0</ele><time>2026-05-03T13:50:45.001Z</time></trkpt><trkpt lat="41.66896272047724" lon="-2.134062120030745"><ele>1030.0</ele><time>2026-05-03T13:50:46.001Z</time></trkpt><trkpt lat="41.66892459438402" lon="-2.133945862812479"><ele>1030.0</ele><time>2026-05-03T13:50:47.001Z</time></trkpt><trkpt lat="41.66888323904118" lon="-2.133827166803649"><ele>1029.8</ele><time>2026-05-03T13:50:48.001Z</time></trkpt><trkpt lat="41.668842480002546" lon="-2.1337088450839095"><ele>1029.6</ele><time>2026-05-03T13:50:49.001Z</time></trkpt><trkpt lat="41.66880037149377" lon="-2.133590068934539"><ele>1029.4</ele><time>2026-05-03T13:50:50.001Z</time></trkpt><trkpt lat="41.668758835381844" lon="-2.1334706958651175"><ele>1029.2</ele><time>2026-05-03T13:50:51.001Z</time></trkpt><trkpt lat="41.66872026011839" lon="-2.133347580610767"><ele>1029.0</ele><time>2026-05-03T13:50:52.001Z</time></trkpt><trkpt lat="41.6686793042699" lon="-2.133225734007867"><ele>1029.0</ele><time>2026-05-03T13:50:53.001Z</time></trkpt><trkpt lat="41.66863905940866" lon="-2.133103564055673"><ele>1029.0</ele><time>2026-05-03T13:50:54.001Z</time></trkpt><trkpt lat="41.66860013341043" lon="-2.1329768667125037"><ele>1029.0</ele><time>2026-05-03T13:50:55.001Z</time></trkpt><trkpt lat="41.66855499097636" lon="-2.1328606752221724"><ele>1029.0</ele><time>2026-05-03T13:50:56.001Z</time></trkpt><trkpt lat="41.66851238257588" lon="-2.132736874082563"><ele>1029.0</ele><time>2026-05-03T13:50:57.001Z</time></trkpt><trkpt lat="41.66846987549735" lon="-2.1326105152484276"><ele>1029.2</ele><time>2026-05-03T13:50:58.001Z</time></trkpt><trkpt lat="41.66842857479844" lon="-2.132487292813516"><ele>1029.4</ele><time>2026-05-03T13:50:59.001Z</time></trkpt><trkpt lat="41.6683840095062" lon="-2.1323632720203043"><ele>1029.6</ele><time>2026-05-03T13:51:00.001Z</time></trkpt><trkpt lat="41.66833931018552" lon="-2.1322392633678344"><ele>1029.8</ele><time>2026-05-03T13:51:01.001Z</time></trkpt><trkpt lat="41.668298516573415" lon="-2.1321093894358385"><ele>1030.0</ele><time>2026-05-03T13:51:02.001Z</time></trkpt><trkpt lat="41.66825731464491" lon="-2.1319798321492294"><ele>1030.0</ele><time>2026-05-03T13:51:03.001Z</time></trkpt><trkpt lat="41.668215621524716" lon="-2.1318496202759962"><ele>1030.0</ele><time>2026-05-03T13:51:04.001Z</time></trkpt><trkpt lat="41.66817266556079" lon="-2.131729222101241"><ele>1030.0</ele><time>2026-05-03T13:51:05.001Z</time></trkpt><trkpt lat="41.6681271462132" lon="-2.131595915890066"><ele>1030.0</ele><time>2026-05-03T13:51:06.001Z</time></trkpt><trkpt lat="41.6680832795253" lon="-2.1314704872560024"><ele>1030.0</ele><time>2026-05-03T13:51:07.001Z</time></trkpt><trkpt lat="41.668039914159486" lon="-2.1313415422622177"><ele>1030.2</ele><time>2026-05-03T13:51:08.001Z</time></trkpt><trkpt lat="41.66799738760032" lon="-2.131210871369294"><ele>1030.4</ele><time>2026-05-03T13:51:09.001Z</time></trkpt><trkpt lat="41.667955133202426" lon="-2.13108141167173"><ele>1030.6</ele><time>2026-05-03T13:51:10.001Z</time></trkpt><trkpt lat="41.66791040816924" lon="-2.1309553791803864"><ele>1030.8</ele><time>2026-05-03T13:51:11.001Z</time></trkpt><trkpt lat="41.66786723052462" lon="-2.1308219864369495"><ele>1031.0</ele><time>2026-05-03T13:51:12.001Z</time></trkpt><trkpt lat="41.66782412965508" lon="-2.1306969516266907"><ele>1031.2</ele><time>2026-05-03T13:51:13.001Z</time></trkpt><trkpt lat="41.667781029214076" lon="-2.1305697534794437"><ele>1031.3999999999999</ele><time>2026-05-03T13:51:14.001Z</time></trkpt><trkpt lat="41.66773651182596" lon="-2.1304401439109535"><ele>1031.6</ele><time>2026-05-03T13:51:15.001Z</time></trkpt><trkpt lat="41.667691273708236" lon="-2.130311369498123"><ele>1031.8</ele><time>2026-05-03T13:51:16.001Z</time></trkpt><trkpt lat="41.66765065308794" lon="-2.130185392882485"><ele>1032.0</ele><time>2026-05-03T13:51:17.001Z</time></trkpt><trkpt lat="41.667609167724926" lon="-2.130055528700241"><ele>1032.8</ele><time>2026-05-03T13:51:18.001Z</time></trkpt><trkpt lat="41.66756822928152" lon="-2.1299283624959418"><ele>1033.6</ele><time>2026-05-03T13:51:19.001Z</time></trkpt><trkpt lat="41.66752596705613" lon="-2.1298022798452476"><ele>1034.3999999999999</ele><time>2026-05-03T13:51:20.001Z</time></trkpt><trkpt lat="41.6674821500501" lon="-2.129671649227177"><ele>1035.2</ele><time>2026-05-03T13:51:21.001Z</time></trkpt><trkpt lat="41.66744003036523" lon="-2.129544126059659"><ele>1036.0</ele><time>2026-05-03T13:51:22.001Z</time></trkpt><trkpt lat="41.66739970749214" lon="-2.1294141871492513"><ele>1036.0</ele><time>2026-05-03T13:51:23.001Z</time></trkpt><trkpt lat="41.667359505993936" lon="-2.1292843120259572"><ele>1036.0</ele><time>2026-05-03T13:51:24Z</time></trkpt><trkpt lat="41.667317073923705" lon="-2.129157593854718"><ele>1036.0</ele><time>2026-05-03T13:51:25Z</time></trkpt><trkpt lat="41.667274686046184" lon="-2.129029073071428"><ele>1036.0</ele><time>2026-05-03T13:51:26Z</time></trkpt><trkpt lat="41.667228655316244" lon="-2.128897793541378"><ele>1036.0</ele><time>2026-05-03T13:51:27Z</time></trkpt><trkpt lat="41.66718890974881" lon="-2.1287691263365085"><ele>1035.8</ele><time>2026-05-03T13:51:28Z</time></trkpt><trkpt lat="41.667146627948924" lon="-2.1286410420646806"><ele>1035.6</ele><time>2026-05-03T13:51:29Z</time></trkpt><trkpt lat="41.6671044053645" lon="-2.1285121135425933"><ele>1035.4</ele><time>2026-05-03T13:51:30Z</time></trkpt><trkpt lat="41.66706149354354" lon="-2.128384520300669"><ele>1035.2</ele><time>2026-05-03T13:51:31Z</time></trkpt><trkpt lat="41.66701933101917" lon="-2.128256653661124"><ele>1035.0</ele><time>2026-05-03T13:51:32Z</time></trkpt><trkpt lat="41.66697779987529" lon="-2.1281299088822596"><ele>1036.0</ele><time>2026-05-03T13:51:33Z</time></trkpt><trkpt lat="41.66693563175104" lon="-2.128003317805035"><ele>1037.0</ele><time>2026-05-03T13:51:34Z</time></trkpt><trkpt lat="41.66689431608354" lon="-2.1278782650036687"><ele>1038.0</ele><time>2026-05-03T13:51:35Z</time></trkpt><trkpt lat="41.666852983161185" lon="-2.1277501996413726"><ele>1039.0</ele><time>2026-05-03T13:51:36Z</time></trkpt><trkpt lat="41.66681169823236" lon="-2.127624050962836"><ele>1040.0</ele><time>2026-05-03T13:51:37Z</time></trkpt><trkpt lat="41.66676864593124" lon="-2.127496025018393"><ele>1039.4</ele><time>2026-05-03T13:51:38Z</time></trkpt><trkpt lat="41.666726811298176" lon="-2.1273682188118412"><ele>1038.8</ele><time>2026-05-03T13:51:39Z</time></trkpt><trkpt lat="41.666684720295464" lon="-2.12724053399884"><ele>1038.2</ele><time>2026-05-03T13:51:40Z</time></trkpt><trkpt lat="41.666643954502014" lon="-2.1271138176221087"><ele>1037.6</ele><time>2026-05-03T13:51:41Z</time></trkpt><trkpt lat="41.66660336855945" lon="-2.12698583636863"><ele>1037.0</ele><time>2026-05-03T13:51:42Z</time></trkpt><trkpt lat="41.666561814818856" lon="-2.1268593328276157"><ele>1037.0</ele><time>2026-05-03T13:51:43Z</time></trkpt><trkpt lat="41.66651913106222" lon="-2.1267310554014327"><ele>1037.0</ele><time>2026-05-03T13:51:44Z</time></trkpt><trkpt lat="41.66647670319084" lon="-2.126604655774336"><ele>1037.0</ele><time>2026-05-03T13:51:45Z</time></trkpt><trkpt lat="41.66643480724686" lon="-2.1264790351283662"><ele>1037.0</ele><time>2026-05-03T13:51:46Z</time></trkpt><trkpt lat="41.66639346604754" lon="-2.1263523917196503"><ele>1037.0</ele><time>2026-05-03T13:51:47Z</time></trkpt><trkpt lat="41.66635133315929" lon="-2.1262233671793767"><ele>1037.0</ele><time>2026-05-03T13:51:48Z</time></trkpt><trkpt lat="41.666309246231535" lon="-2.126094127475664"><ele>1037.0</ele><time>2026-05-03T13:51:49Z</time></trkpt><trkpt lat="41.66626658042249" lon="-2.1259632788202993"><ele>1037.0</ele><time>2026-05-03T13:51:50Z</time></trkpt><trkpt lat="41.66622354349747" lon="-2.125832008427255"><ele>1037.0</ele><time>2026-05-03T13:51:51Z</time></trkpt><trkpt lat="41.66618254703773" lon="-2.1257017299719503"><ele>1037.0</ele><time>2026-05-03T13:51:52Z</time></trkpt><trkpt lat="41.66614005530909" lon="-2.1255660342044798"><ele>1037.2</ele><time>2026-05-03T13:51:53Z</time></trkpt><trkpt lat="41.666097293823846" lon="-2.125435510009855"><ele>1037.4</ele><time>2026-05-03T13:51:54Z</time></trkpt><trkpt lat="41.66605539816301" lon="-2.125305255702156"><ele>1037.6</ele><time>2026-05-03T13:51:55Z</time></trkpt><trkpt lat="41.66602277576393" lon="-2.125179720152241"><ele>1037.8</ele><time>2026-05-03T13:51:56Z</time></trkpt><trkpt lat="41.6659895670407" lon="-2.125107323150335"><ele>1038.0</ele><time>2026-05-03T13:51:57Z</time></trkpt><trkpt lat="41.66592307612898" lon="-2.1248955906557296"><ele>1037.6</ele><time>2026-05-03T13:51:58Z</time></trkpt><trkpt lat="41.66587965996234" lon="-2.1247583554948832"><ele>1037.1999999999998</ele><time>2026-05-03T13:51:59Z</time></trkpt><trkpt lat="41.66583764128641" lon="-2.1246240580172118"><ele>1036.8</ele><time>2026-05-03T13:52:00Z</time></trkpt><trkpt lat="41.66579160657324" lon="-2.1244882886212237"><ele>1036.3999999999999</ele><time>2026-05-03T13:52:01Z</time></trkpt><trkpt lat="41.66574406261688" lon="-2.1243502605270357"><ele>1036.0</ele><time>2026-05-03T13:52:02Z</time></trkpt><trkpt lat="41.66569976640539" lon="-2.1242134550211307"><ele>1036.0</ele><time>2026-05-03T13:52:03Z</time></trkpt><trkpt lat="41.66565632440305" lon="-2.1240801419480633"><ele>1036.0</ele><time>2026-05-03T13:52:04Z</time></trkpt><trkpt lat="41.66561118936113" lon="-2.1239423122722867"><ele>1036.0</ele><time>2026-05-03T13:52:05Z</time></trkpt><trkpt lat="41.66556593875046" lon="-2.1238077660109904"><ele>1036.0</ele><time>2026-05-03T13:52:06Z</time></trkpt><trkpt lat="41.665518951567115" lon="-2.123674729254133"><ele>1036.0</ele><time>2026-05-03T13:52:07Z</time></trkpt><trkpt lat="41.66547576514471" lon="-2.1235373097528965"><ele>1036.2</ele><time>2026-05-03T13:52:08Z</time></trkpt><trkpt lat="41.665429414334874" lon="-2.123401541277758"><ele>1036.3999999999999</ele><time>2026-05-03T13:52:09Z</time></trkpt><trkpt lat="41.66538515120366" lon="-2.1232625174225763"><ele>1036.6</ele><time>2026-05-03T13:52:10Z</time></trkpt><trkpt lat="41.6653428334335" lon="-2.123124242352174"><ele>1036.8</ele><time>2026-05-03T13:52:11Z</time></trkpt><trkpt lat="41.665304816835416" lon="-2.1229888145233673"><ele>1037.0</ele><time>2026-05-03T13:52:12Z</time></trkpt><trkpt lat="41.66526863696804" lon="-2.1228537291321032"><ele>1037.0</ele><time>2026-05-03T13:52:13Z</time></trkpt><trkpt lat="41.66523475050519" lon="-2.1227168620000536"><ele>1037.0</ele><time>2026-05-03T13:52:14Z</time></trkpt><trkpt lat="41.665200941067404" lon="-2.1225786290845714"><ele>1037.0</ele><time>2026-05-03T13:52:15Z</time></trkpt><trkpt lat="41.66517234332619" lon="-2.1224389030047064"><ele>1037.0</ele><time>2026-05-03T13:52:16Z</time></trkpt><trkpt lat="41.665145603436564" lon="-2.122299390869358"><ele>1037.0</ele><time>2026-05-03T13:52:17Z</time></trkpt><trkpt lat="41.66511979951338" lon="-2.1221545487719147"><ele>1036.6</ele><time>2026-05-03T13:52:18Z</time></trkpt><trkpt lat="41.66509889553762" lon="-2.122007882793993"><ele>1036.2</ele><time>2026-05-03T13:52:19Z</time></trkpt><trkpt lat="41.66507857684124" lon="-2.121860417660557"><ele>1035.8</ele><time>2026-05-03T13:52:20Z</time></trkpt><trkpt lat="41.66505930518323" lon="-2.12171362234965"><ele>1035.4</ele><time>2026-05-03T13:52:21Z</time></trkpt><trkpt lat="41.66503783177638" lon="-2.121567594463682"><ele>1035.0</ele><time>2026-05-03T13:52:22Z</time></trkpt><trkpt lat="41.665016283039364" lon="-2.121412000028098"><ele>1035.2</ele><time>2026-05-03T13:52:23Z</time></trkpt><trkpt lat="41.66499766700917" lon="-2.121265235802531"><ele>1035.4</ele><time>2026-05-03T13:52:24Z</time></trkpt><trkpt lat="41.664981776496894" lon="-2.121114611587575"><ele>1035.6</ele><time>2026-05-03T13:52:25Z</time></trkpt><trkpt lat="41.664966093373074" lon="-2.1209687969653133"><ele>1035.8</ele><time>2026-05-03T13:52:26Z</time></trkpt><trkpt lat="41.664948384325506" lon="-2.120824399797155"><ele>1036.0</ele><time>2026-05-03T13:52:27Z</time></trkpt><trkpt lat="41.664931839911354" lon="-2.120682555869352"><ele>1036.0</ele><time>2026-05-03T13:52:28Z</time></trkpt><trkpt lat="41.664921197322485" lon="-2.1205395411014196"><ele>1036.0</ele><time>2026-05-03T13:52:29Z</time></trkpt><trkpt lat="41.66489711129071" lon="-2.1203984037441597"><ele>1036.0</ele><time>2026-05-03T13:52:30Z</time></trkpt><trkpt lat="41.66490360240354" lon="-2.120250660878027"><ele>1036.0</ele><time>2026-05-03T13:52:31Z</time></trkpt><trkpt lat="41.66488083037833" lon="-2.1201115062409412"><ele>1036.0</ele><time>2026-05-03T13:52:32Z</time></trkpt><trkpt lat="41.66488212488552" lon="-2.1199648304176137"><ele>1036.2</ele><time>2026-05-03T13:52:33Z</time></trkpt><trkpt lat="41.66487338942396" lon="-2.119826934166472"><ele>1036.3999999999999</ele><time>2026-05-03T13:52:34Z</time></trkpt><trkpt lat="41.664844407050545" lon="-2.119696625746131"><ele>1036.6</ele><time>2026-05-03T13:52:35Z</time></trkpt><trkpt lat="41.66482337244874" lon="-2.1195618484727565"><ele>1036.8</ele><time>2026-05-03T13:52:36Z</time></trkpt><trkpt lat="41.664812184547955" lon="-2.119429044816286"><ele>1037.0</ele><time>2026-05-03T13:52:37Z</time></trkpt><trkpt lat="41.66478985162313" lon="-2.1192956267058998"><ele>1037.0</ele><time>2026-05-03T13:52:38Z</time></trkpt><trkpt lat="41.664759451655634" lon="-2.119160945830727"><ele>1037.0</ele><time>2026-05-03T13:52:39Z</time></trkpt><trkpt lat="41.66473700421343" lon="-2.1190259526454143"><ele>1037.0</ele><time>2026-05-03T13:52:40Z</time></trkpt><trkpt lat="41.6647164644127" lon="-2.118889694800449"><ele>1037.0</ele><time>2026-05-03T13:52:41Z</time></trkpt><trkpt lat="41.664686985101035" lon="-2.1187604886862257"><ele>1037.0</ele><time>2026-05-03T13:52:42Z</time></trkpt><trkpt lat="41.6646649976695" lon="-2.1186250520068324"><ele>1036.6</ele><time>2026-05-03T13:52:43Z</time></trkpt><trkpt lat="41.66464281518581" lon="-2.1184864603198257"><ele>1036.2</ele><time>2026-05-03T13:52:44Z</time></trkpt><trkpt lat="41.66461815965453" lon="-2.1183546323790705"><ele>1035.8</ele><time>2026-05-03T13:52:45Z</time></trkpt><trkpt lat="41.66458852123572" lon="-2.1182236922459396"><ele>1035.4</ele><time>2026-05-03T13:52:46Z</time></trkpt><trkpt lat="41.6645556253669" lon="-2.1180926118834056"><ele>1035.0</ele><time>2026-05-03T13:52:47Z</time></trkpt><trkpt lat="41.66452302293644" lon="-2.11796028221784"><ele>1034.6</ele><time>2026-05-03T13:52:48Z</time></trkpt><trkpt lat="41.66449051757486" lon="-2.117826112751643"><ele>1034.2</ele><time>2026-05-03T13:52:49Z</time></trkpt><trkpt lat="41.66445903286025" lon="-2.1176930333860926"><ele>1033.8</ele><time>2026-05-03T13:52:50Z</time></trkpt><trkpt lat="41.66442702494304" lon="-2.1175558423399803"><ele>1033.4</ele><time>2026-05-03T13:52:51Z</time></trkpt><trkpt lat="41.66439380638049" lon="-2.117414625372656"><ele>1033.0</ele><time>2026-05-03T13:52:52Z</time></trkpt><trkpt lat="41.66435808481329" lon="-2.1172750877413318"><ele>1034.0</ele><time>2026-05-03T13:52:53Z</time></trkpt><trkpt lat="41.664321974658854" lon="-2.1171513018478043"><ele>1035.0</ele><time>2026-05-03T13:52:54Z</time></trkpt><trkpt lat="41.6642938118518" lon="-2.116997562531569"><ele>1036.0</ele><time>2026-05-03T13:52:55Z</time></trkpt><trkpt lat="41.664258209594635" lon="-2.116865230777172"><ele>1037.0</ele><time>2026-05-03T13:52:56Z</time></trkpt><trkpt lat="41.66422734897593" lon="-2.116724032980289"><ele>1038.0</ele><time>2026-05-03T13:52:57Z</time></trkpt><trkpt lat="41.664193878226236" lon="-2.11658084726375"><ele>1037.4</ele><time>2026-05-03T13:52:58Z</time></trkpt><trkpt lat="41.66416050561282" lon="-2.116443389044918"><ele>1036.8</ele><time>2026-05-03T13:52:59Z</time></trkpt><trkpt lat="41.6641245347632" lon="-2.116307528472309"><ele>1036.2</ele><time>2026-05-03T13:53:00Z</time></trkpt><trkpt lat="41.66408862516399" lon="-2.1161680726086063"><ele>1035.6</ele><time>2026-05-03T13:53:01Z</time></trkpt><trkpt lat="41.664054448197646" lon="-2.1160289132918035"><ele>1035.0</ele><time>2026-05-03T13:53:02Z</time></trkpt><trkpt lat="41.664023156807026" lon="-2.1158906416314522"><ele>1035.0</ele><time>2026-05-03T13:53:03Z</time></trkpt><trkpt lat="41.663988528983815" lon="-2.1157509661296836"><ele>1035.0</ele><time>2026-05-03T13:53:04Z</time></trkpt><trkpt lat="41.663951996682" lon="-2.115609679268765"><ele>1035.0</ele><time>2026-05-03T13:53:05Z</time></trkpt><trkpt lat="41.66391572945586" lon="-2.1154671024230574"><ele>1035.0</ele><time>2026-05-03T13:53:06Z</time></trkpt><trkpt lat="41.66388307686299" lon="-2.115325667088307"><ele>1035.0</ele><time>2026-05-03T13:53:07.001Z</time></trkpt><trkpt lat="41.66385061645788" lon="-2.1151838507556655"><ele>1034.6</ele><time>2026-05-03T13:53:08.001Z</time></trkpt><trkpt lat="41.66381736800476" lon="-2.1150426820712824"><ele>1034.2</ele><time>2026-05-03T13:53:09.001Z</time></trkpt><trkpt lat="41.663783765158186" lon="-2.1149007783437246"><ele>1033.8</ele><time>2026-05-03T13:53:10.001Z</time></trkpt><trkpt lat="41.66375089633379" lon="-2.114761171228938"><ele>1033.4</ele><time>2026-05-03T13:53:11.001Z</time></trkpt><trkpt lat="41.66371928987874" lon="-2.1146212285158033"><ele>1033.0</ele><time>2026-05-03T13:53:12.001Z</time></trkpt><trkpt lat="41.663686349750755" lon="-2.114478785304464"><ele>1033.0</ele><time>2026-05-03T13:53:13.001Z</time></trkpt><trkpt lat="41.66365318300491" lon="-2.114338727826877"><ele>1033.0</ele><time>2026-05-03T13:53:14.001Z</time></trkpt><trkpt lat="41.663620428815996" lon="-2.1141981872664326"><ele>1033.0</ele><time>2026-05-03T13:53:15.001Z</time></trkpt><trkpt lat="41.66358190986419" lon="-2.1140582388640836"><ele>1033.0</ele><time>2026-05-03T13:53:16.001Z</time></trkpt><trkpt lat="41.66354598970526" lon="-2.11391769334619"><ele>1033.0</ele><time>2026-05-03T13:53:17.001Z</time></trkpt><trkpt lat="41.663511368961274" lon="-2.113776745633218"><ele>1033.2</ele><time>2026-05-03T13:53:18.001Z</time></trkpt><trkpt lat="41.66348124641771" lon="-2.113637182675241"><ele>1033.4</ele><time>2026-05-03T13:53:19.001Z</time></trkpt><trkpt lat="41.663448694164856" lon="-2.1134995226534588"><ele>1033.6000000000001</ele><time>2026-05-03T13:53:20.001Z</time></trkpt><trkpt lat="41.66341780932139" lon="-2.1133576895972026"><ele>1033.8</ele><time>2026-05-03T13:53:21.001Z</time></trkpt><trkpt lat="41.66338344438675" lon="-2.113216610019539"><ele>1034.0</ele><time>2026-05-03T13:53:22.001Z</time></trkpt><trkpt lat="41.663345558147526" lon="-2.113075685338181"><ele>1034.0</ele><time>2026-05-03T13:53:23.001Z</time></trkpt><trkpt lat="41.66331178589087" lon="-2.1129344768631175"><ele>1034.0</ele><time>2026-05-03T13:53:24.001Z</time></trkpt><trkpt lat="41.66327660332952" lon="-2.1127917052552188"><ele>1034.0</ele><time>2026-05-03T13:53:25.001Z</time></trkpt><trkpt lat="41.66324286376752" lon="-2.1126480485194747"><ele>1034.0</ele><time>2026-05-03T13:53:26.001Z</time></trkpt><trkpt lat="41.66320711420203" lon="-2.1125056876244677"><ele>1034.0</ele><time>2026-05-03T13:53:27.001Z</time></trkpt><trkpt lat="41.66317191020173" lon="-2.1123642393430067"><ele>1033.75</ele><time>2026-05-03T13:53:28.001Z</time></trkpt><trkpt lat="41.66313769313925" lon="-2.112219751215976"><ele>1033.5</ele><time>2026-05-03T13:53:29.001Z</time></trkpt><trkpt lat="41.66310438127508" lon="-2.112076291424219"><ele>1033.25</ele><time>2026-05-03T13:53:30Z</time></trkpt><trkpt lat="41.66306862296208" lon="-2.1119316998032893"><ele>1033.0</ele><time>2026-05-03T13:53:31Z</time></trkpt><trkpt lat="41.66302712574012" lon="-2.111792680800998"><ele>1033.0</ele><time>2026-05-03T13:53:32Z</time></trkpt><trkpt lat="41.66299700108303" lon="-2.1116517736941707"><ele>1033.0</ele><time>2026-05-03T13:53:33Z</time></trkpt><trkpt lat="41.662966877591145" lon="-2.1115088519874905"><ele>1033.0</ele><time>2026-05-03T13:53:34Z</time></trkpt><trkpt lat="41.66292960039527" lon="-2.1113676335935474"><ele>1033.0</ele><time>2026-05-03T13:53:35Z</time></trkpt><trkpt lat="41.662895744122956" lon="-2.111225215324718"><ele>1033.0</ele><time>2026-05-03T13:53:36Z</time></trkpt><trkpt lat="41.66285626640121" lon="-2.1110839766788017"><ele>1033.2</ele><time>2026-05-03T13:53:37Z</time></trkpt><trkpt lat="41.662813947721155" lon="-2.110947177294213"><ele>1033.4</ele><time>2026-05-03T13:53:38Z</time></trkpt><trkpt lat="41.66277701954865" lon="-2.1108063297947446"><ele>1033.6000000000001</ele><time>2026-05-03T13:53:39Z</time></trkpt><trkpt lat="41.662745223400755" lon="-2.110662339261691"><ele>1033.8</ele><time>2026-05-03T13:53:40Z</time></trkpt><trkpt lat="41.662706658379776" lon="-2.110524869193087"><ele>1034.0</ele><time>2026-05-03T13:53:41Z</time></trkpt><trkpt lat="41.66266468405737" lon="-2.110388312488945"><ele>1033.0</ele><time>2026-05-03T13:53:42Z</time></trkpt><trkpt lat="41.662621013853965" lon="-2.1102509897609076"><ele>1032.0</ele><time>2026-05-03T13:53:43Z</time></trkpt><trkpt lat="41.66257153677766" lon="-2.1101168904034786"><ele>1031.0</ele><time>2026-05-03T13:53:44Z</time></trkpt><trkpt lat="41.66251962838766" lon="-2.1099839694548295"><ele>1030.0</ele><time>2026-05-03T13:53:45Z</time></trkpt><trkpt lat="41.66246576415274" lon="-2.1098583649745715"><ele>1029.0</ele><time>2026-05-03T13:53:46Z</time></trkpt><trkpt lat="41.66240689786303" lon="-2.1097288377065504"><ele>1028.2</ele><time>2026-05-03T13:53:47Z</time></trkpt><trkpt lat="41.66234990713982" lon="-2.1096001397290007"><ele>1027.4</ele><time>2026-05-03T13:53:48Z</time></trkpt><trkpt lat="41.6622959668893" lon="-2.1094732753329133"><ele>1026.6</ele><time>2026-05-03T13:53:49Z</time></trkpt><trkpt lat="41.66223588972221" lon="-2.1093465402276497"><ele>1025.8</ele><time>2026-05-03T13:53:50Z</time></trkpt><trkpt lat="41.662177399910576" lon="-2.1092262930780743"><ele>1025.0</ele><time>2026-05-03T13:53:51Z</time></trkpt><trkpt lat="41.66211972628003" lon="-2.1091010652418403"><ele>1025.4</ele><time>2026-05-03T13:53:52Z</time></trkpt><trkpt lat="41.66206253242829" lon="-2.1089744234586782"><ele>1025.8</ele><time>2026-05-03T13:53:53Z</time></trkpt><trkpt lat="41.66200858825878" lon="-2.108853719460872"><ele>1026.2</ele><time>2026-05-03T13:53:54Z</time></trkpt><trkpt lat="41.661937883851216" lon="-2.108742622205714"><ele>1026.6</ele><time>2026-05-03T13:53:55Z</time></trkpt><trkpt lat="41.66188401550551" lon="-2.1086177901210963"><ele>1027.0</ele><time>2026-05-03T13:53:56Z</time></trkpt><trkpt lat="41.66182631478818" lon="-2.1084973195183867"><ele>1027.0</ele><time>2026-05-03T13:53:57Z</time></trkpt><trkpt lat="41.66177176641895" lon="-2.108374866841704"><ele>1027.0</ele><time>2026-05-03T13:53:58Z</time></trkpt><trkpt lat="41.66171653945669" lon="-2.1082539753997436"><ele>1027.0</ele><time>2026-05-03T13:53:59Z</time></trkpt><trkpt lat="41.661663430551414" lon="-2.108131066489983"><ele>1027.0</ele><time>2026-05-03T13:54:00Z</time></trkpt><trkpt lat="41.66160553454574" lon="-2.1080153100231938"><ele>1027.0</ele><time>2026-05-03T13:54:01Z</time></trkpt><trkpt lat="41.6615495647195" lon="-2.1078977458280326"><ele>1026.8</ele><time>2026-05-03T13:54:02Z</time></trkpt><trkpt lat="41.6614940150094" lon="-2.107777699707161"><ele>1026.6</ele><time>2026-05-03T13:54:03Z</time></trkpt><trkpt lat="41.661436855984284" lon="-2.107662078844129"><ele>1026.3999999999999</ele><time>2026-05-03T13:54:04Z</time></trkpt><trkpt lat="41.66138068909262" lon="-2.1075431386296284"><ele>1026.2</ele><time>2026-05-03T13:54:05Z</time></trkpt><trkpt lat="41.66132763855459" lon="-2.1074219884167245"><ele>1026.0</ele><time>2026-05-03T13:54:06Z</time></trkpt><trkpt lat="41.66127100736816" lon="-2.10730608203465"><ele>1025.8</ele><time>2026-05-03T13:54:07Z</time></trkpt><trkpt lat="41.661214120500865" lon="-2.1071903771288034"><ele>1025.6</ele><time>2026-05-03T13:54:08Z</time></trkpt><trkpt lat="41.66115742738939" lon="-2.1070708488395593"><ele>1025.4</ele><time>2026-05-03T13:54:09Z</time></trkpt><trkpt lat="41.661100076565724" lon="-2.1069542714883296"><ele>1025.2</ele><time>2026-05-03T13:54:10Z</time></trkpt><trkpt lat="41.66104283518753" lon="-2.106836546390199"><ele>1025.0</ele><time>2026-05-03T13:54:11Z</time></trkpt><trkpt lat="41.66098525054625" lon="-2.106717197872819"><ele>1025.2</ele><time>2026-05-03T13:54:12Z</time></trkpt><trkpt lat="41.66092671230156" lon="-2.106601602571017"><ele>1025.4</ele><time>2026-05-03T13:54:13Z</time></trkpt><trkpt lat="41.66087181838378" lon="-2.106482773876567"><ele>1025.6</ele><time>2026-05-03T13:54:14Z</time></trkpt><trkpt lat="41.66081598315323" lon="-2.1063619543572707"><ele>1025.8</ele><time>2026-05-03T13:54:15Z</time></trkpt><trkpt lat="41.66075928758884" lon="-2.106246774613814"><ele>1026.0</ele><time>2026-05-03T13:54:16Z</time></trkpt><trkpt lat="41.66070351624055" lon="-2.10612629469147"><ele>1026.0</ele><time>2026-05-03T13:54:17Z</time></trkpt><trkpt lat="41.660647341927735" lon="-2.1060083901891793"><ele>1026.0</ele><time>2026-05-03T13:54:18Z</time></trkpt><trkpt lat="41.660589604547646" lon="-2.1058914736312735"><ele>1026.0</ele><time>2026-05-03T13:54:19Z</time></trkpt><trkpt lat="41.66053091347366" lon="-2.105771729302042"><ele>1026.0</ele><time>2026-05-03T13:54:20Z</time></trkpt><trkpt lat="41.66047422540599" lon="-2.1056537274597242"><ele>1026.0</ele><time>2026-05-03T13:54:21Z</time></trkpt><trkpt lat="41.66041825720408" lon="-2.105535164229621"><ele>1025.8</ele><time>2026-05-03T13:54:22Z</time></trkpt><trkpt lat="41.66036353175696" lon="-2.105414626593383"><ele>1025.6</ele><time>2026-05-03T13:54:23Z</time></trkpt><trkpt lat="41.6603079054477" lon="-2.1052962454058894"><ele>1025.4</ele><time>2026-05-03T13:54:24Z</time></trkpt><trkpt lat="41.66025130851901" lon="-2.105176920522561"><ele>1025.2</ele><time>2026-05-03T13:54:25Z</time></trkpt><trkpt lat="41.660193019433244" lon="-2.105059515638606"><ele>1025.0</ele><time>2026-05-03T13:54:26Z</time></trkpt><trkpt lat="41.66013737962499" lon="-2.1049405645422445"><ele>1024.8</ele><time>2026-05-03T13:54:27Z</time></trkpt><trkpt lat="41.66008183322763" lon="-2.1048224284750625"><ele>1024.6</ele><time>2026-05-03T13:54:28Z</time></trkpt><trkpt lat="41.66002794321968" lon="-2.104701912983878"><ele>1024.4</ele><time>2026-05-03T13:54:29Z</time></trkpt><trkpt lat="41.659970833072215" lon="-2.1045805217761506"><ele>1024.2</ele><time>2026-05-03T13:54:30Z</time></trkpt><trkpt lat="41.65990879089439" lon="-2.104465733354857"><ele>1024.0</ele><time>2026-05-03T13:54:31Z</time></trkpt><trkpt lat="41.65985558752333" lon="-2.1043450972558237"><ele>1024.0</ele><time>2026-05-03T13:54:32Z</time></trkpt><trkpt lat="41.65979632440902" lon="-2.1042274989252037"><ele>1024.0</ele><time>2026-05-03T13:54:33Z</time></trkpt><trkpt lat="41.65974064864148" lon="-2.104105825664332"><ele>1024.0</ele><time>2026-05-03T13:54:34Z</time></trkpt><trkpt lat="41.65968683151571" lon="-2.103987000614707"><ele>1024.0</ele><time>2026-05-03T13:54:35Z</time></trkpt><trkpt lat="41.659631858643756" lon="-2.1038684299906887"><ele>1024.0</ele><time>2026-05-03T13:54:36Z</time></trkpt><trkpt lat="41.65957601713359" lon="-2.103751426417591"><ele>1024.2</ele><time>2026-05-03T13:54:37Z</time></trkpt><trkpt lat="41.65952213713503" lon="-2.1036315718058467"><ele>1024.4</ele><time>2026-05-03T13:54:38Z</time></trkpt><trkpt lat="41.659466789232795" lon="-2.1035131369692115"><ele>1024.6</ele><time>2026-05-03T13:54:39Z</time></trkpt><trkpt lat="41.659411155886225" lon="-2.1033969700842663"><ele>1024.8</ele><time>2026-05-03T13:54:40Z</time></trkpt><trkpt lat="41.6593530951986" lon="-2.1032803726421907"><ele>1025.0</ele><time>2026-05-03T13:54:41Z</time></trkpt><trkpt lat="41.659298147770315" lon="-2.103163731506238"><ele>1025.4</ele><time>2026-05-03T13:54:42Z</time></trkpt><trkpt lat="41.659242266907306" lon="-2.103042636735508"><ele>1025.8</ele><time>2026-05-03T13:54:43Z</time></trkpt><trkpt lat="41.65918675326044" lon="-2.1029261818230873"><ele>1026.2</ele><time>2026-05-03T13:54:44Z</time></trkpt><trkpt lat="41.659135573829246" lon="-2.102800836708721"><ele>1026.6</ele><time>2026-05-03T13:54:45Z</time></trkpt><trkpt lat="41.65907772655167" lon="-2.102681702711408"><ele>1027.0</ele><time>2026-05-03T13:54:46Z</time></trkpt><trkpt lat="41.65902220613863" lon="-2.10257137780993"><ele>1027.0</ele><time>2026-05-03T13:54:47Z</time></trkpt><trkpt lat="41.65896720638447" lon="-2.102451194549895"><ele>1027.0</ele><time>2026-05-03T13:54:48Z</time></trkpt><trkpt lat="41.65891062441116" lon="-2.1023339183118672"><ele>1027.0</ele><time>2026-05-03T13:54:49Z</time></trkpt><trkpt lat="41.65885549466738" lon="-2.1022153972051085"><ele>1027.0</ele><time>2026-05-03T13:54:50Z</time></trkpt><trkpt lat="41.658801499869526" lon="-2.102090864105981"><ele>1027.0</ele><time>2026-05-03T13:54:51Z</time></trkpt><trkpt lat="41.658747204606065" lon="-2.1019729362749313"><ele>1027.0</ele><time>2026-05-03T13:54:52Z</time></trkpt><trkpt lat="41.6586893698564" lon="-2.101856559500077"><ele>1027.0</ele><time>2026-05-03T13:54:53Z</time></trkpt><trkpt lat="41.65863289415989" lon="-2.1017390207197195"><ele>1027.0</ele><time>2026-05-03T13:54:54Z</time></trkpt><trkpt lat="41.658576747697644" lon="-2.10161680435481"><ele>1027.0</ele><time>2026-05-03T13:54:55Z</time></trkpt><trkpt lat="41.65852109364828" lon="-2.10149462460866"><ele>1027.0</ele><time>2026-05-03T13:54:56Z</time></trkpt><trkpt lat="41.6584645698545" lon="-2.101376407180646"><ele>1027.0</ele><time>2026-05-03T13:54:57Z</time></trkpt><trkpt lat="41.658406733672514" lon="-2.101267153417345"><ele>1027.0</ele><time>2026-05-03T13:54:58Z</time></trkpt><trkpt lat="41.65834967714648" lon="-2.1011435166436274"><ele>1027.0</ele><time>2026-05-03T13:54:59Z</time></trkpt><trkpt lat="41.65829280931329" lon="-2.101027252754948"><ele>1027.0</ele><time>2026-05-03T13:55:00Z</time></trkpt><trkpt lat="41.6582380860853" lon="-2.1009095557365525"><ele>1027.0</ele><time>2026-05-03T13:55:01Z</time></trkpt><trkpt lat="41.65818396367925" lon="-2.1007898949777557"><ele>1027.2</ele><time>2026-05-03T13:55:02.001Z</time></trkpt><trkpt lat="41.658130681322724" lon="-2.100672496757703"><ele>1027.4</ele><time>2026-05-03T13:55:03.001Z</time></trkpt><trkpt lat="41.65807458938677" lon="-2.100556247924732"><ele>1027.6</ele><time>2026-05-03T13:55:04.001Z</time></trkpt><trkpt lat="41.658020683882405" lon="-2.100441440128421"><ele>1027.8</ele><time>2026-05-03T13:55:05.001Z</time></trkpt><trkpt lat="41.657965834583344" lon="-2.1003233817492375"><ele>1028.0</ele><time>2026-05-03T13:55:06.001Z</time></trkpt><trkpt lat="41.65791456924396" lon="-2.1002073672697312"><ele>1028.0</ele><time>2026-05-03T13:55:07.001Z</time></trkpt><trkpt lat="41.6578601714288" lon="-2.1000950591404512"><ele>1028.0</ele><time>2026-05-03T13:55:08.001Z</time></trkpt><trkpt lat="41.65780623441573" lon="-2.0999819140446987"><ele>1028.0</ele><time>2026-05-03T13:55:09.001Z</time></trkpt><trkpt lat="41.65775049443537" lon="-2.099870551093372"><ele>1028.0</ele><time>2026-05-03T13:55:10.001Z</time></trkpt><trkpt lat="41.65769620529068" lon="-2.0997568568456333"><ele>1028.0</ele><time>2026-05-03T13:55:11.001Z</time></trkpt><trkpt lat="41.65764061286961" lon="-2.0996431615058104"><ele>1028.0</ele><time>2026-05-03T13:55:12.001Z</time></trkpt><trkpt lat="41.65758681059952" lon="-2.099528839730008"><ele>1028.0</ele><time>2026-05-03T13:55:13.001Z</time></trkpt><trkpt lat="41.65753224400361" lon="-2.0994134683892685"><ele>1028.0</ele><time>2026-05-03T13:55:14.001Z</time></trkpt><trkpt lat="41.65747767530485" lon="-2.099295696156599"><ele>1028.0</ele><time>2026-05-03T13:55:15.001Z</time></trkpt><trkpt lat="41.65742125691997" lon="-2.099180786352113"><ele>1028.0</ele><time>2026-05-03T13:55:16.001Z</time></trkpt><trkpt lat="41.65736594538859" lon="-2.099064238590836"><ele>1028.0</ele><time>2026-05-03T13:55:17.001Z</time></trkpt><trkpt lat="41.65731114997372" lon="-2.098944535451948"><ele>1028.0</ele><time>2026-05-03T13:55:18.001Z</time></trkpt><trkpt lat="41.65725415063772" lon="-2.098825096701357"><ele>1028.0</ele><time>2026-05-03T13:55:19.001Z</time></trkpt><trkpt lat="41.65719743342817" lon="-2.098708451306327"><ele>1028.0</ele><time>2026-05-03T13:55:20.001Z</time></trkpt><trkpt lat="41.65714124809577" lon="-2.098587841858823"><ele>1028.0</ele><time>2026-05-03T13:55:21.001Z</time></trkpt><trkpt lat="41.6570831440013" lon="-2.098469153601412"><ele>1028.0</ele><time>2026-05-03T13:55:22.001Z</time></trkpt><trkpt lat="41.65702513427323" lon="-2.0983512214874946"><ele>1028.0</ele><time>2026-05-03T13:55:23.001Z</time></trkpt><trkpt lat="41.65696753819968" lon="-2.098228682522755"><ele>1028.0</ele><time>2026-05-03T13:55:24.001Z</time></trkpt><trkpt lat="41.656908270138636" lon="-2.098110673749463"><ele>1028.0</ele><time>2026-05-03T13:55:25.001Z</time></trkpt><trkpt lat="41.65684555104301" lon="-2.097990081492963"><ele>1028.0</ele><time>2026-05-03T13:55:26.001Z</time></trkpt><trkpt lat="41.65679026019122" lon="-2.09787585070073"><ele>1028.0</ele><time>2026-05-03T13:55:27.001Z</time></trkpt><trkpt lat="41.656722936663385" lon="-2.0977532698168484"><ele>1028.0</ele><time>2026-05-03T13:55:28.001Z</time></trkpt><trkpt lat="41.6566495105005" lon="-2.097636135846524"><ele>1028.0</ele><time>2026-05-03T13:55:29.001Z</time></trkpt><trkpt lat="41.656576769889426" lon="-2.097520381261576"><ele>1028.0</ele><time>2026-05-03T13:55:30.001Z</time></trkpt><trkpt lat="41.65650106565566" lon="-2.0974110517594755"><ele>1028.2</ele><time>2026-05-03T13:55:31.001Z</time></trkpt><trkpt lat="41.656419826332694" lon="-2.0973061447316415"><ele>1028.4</ele><time>2026-05-03T13:55:32.001Z</time></trkpt><trkpt lat="41.65633878282135" lon="-2.0972066682304633"><ele>1028.6000000000001</ele><time>2026-05-03T13:55:33.001Z</time></trkpt><trkpt lat="41.65625884471976" lon="-2.0971085150108983"><ele>1028.8</ele><time>2026-05-03T13:55:34.001Z</time></trkpt><trkpt lat="41.65617472454023" lon="-2.09701300258046"><ele>1029.0</ele><time>2026-05-03T13:55:35.001Z</time></trkpt><trkpt lat="41.65608984427111" lon="-2.0969228845716326"><ele>1028.8</ele><time>2026-05-03T13:55:36Z</time></trkpt><trkpt lat="41.65600149491106" lon="-2.0968347214625602"><ele>1028.6000000000001</ele><time>2026-05-03T13:55:37Z</time></trkpt><trkpt lat="41.65591344587517" lon="-2.0967487282323582"><ele>1028.4</ele><time>2026-05-03T13:55:38Z</time></trkpt><trkpt lat="41.65582772249828" lon="-2.0966604409126224"><ele>1028.2</ele><time>2026-05-03T13:55:39Z</time></trkpt><trkpt lat="41.65574417363796" lon="-2.0965742802896736"><ele>1028.0</ele><time>2026-05-03T13:55:40Z</time></trkpt><trkpt lat="41.655657141656775" lon="-2.096491786594762"><ele>1028.0</ele><time>2026-05-03T13:55:41Z</time></trkpt><trkpt lat="41.65557082830137" lon="-2.0964113364221104"><ele>1028.0</ele><time>2026-05-03T13:55:42Z</time></trkpt><trkpt lat="41.65548319423625" lon="-2.096328570958202"><ele>1028.0</ele><time>2026-05-03T13:55:43Z</time></trkpt><trkpt lat="41.65539582993984" lon="-2.0962445517392854"><ele>1028.0</ele><time>2026-05-03T13:55:44Z</time></trkpt><trkpt lat="41.65530922111265" lon="-2.0961586971315116"><ele>1028.0</ele><time>2026-05-03T13:55:45Z</time></trkpt><trkpt lat="41.655224505718216" lon="-2.096072657052061"><ele>1028.0</ele><time>2026-05-03T13:55:46Z</time></trkpt><trkpt lat="41.655137225040356" lon="-2.09598771537563"><ele>1028.0</ele><time>2026-05-03T13:55:47Z</time></trkpt><trkpt lat="41.65505126350339" lon="-2.0959043658940697"><ele>1028.0</ele><time>2026-05-03T13:55:48Z</time></trkpt><trkpt lat="41.654965378937845" lon="-2.095821439186083"><ele>1028.0</ele><time>2026-05-03T13:55:49Z</time></trkpt><trkpt lat="41.65487405538869" lon="-2.095741437972168"><ele>1028.0</ele><time>2026-05-03T13:55:50Z</time></trkpt><trkpt lat="41.65478520393427" lon="-2.0956564457624665"><ele>1028.0</ele><time>2026-05-03T13:55:51Z</time></trkpt><trkpt lat="41.65470255073255" lon="-2.0955705090156256"><ele>1028.0</ele><time>2026-05-03T13:55:52Z</time></trkpt><trkpt lat="41.65461612112561" lon="-2.095483987392021"><ele>1028.0</ele><time>2026-05-03T13:55:53Z</time></trkpt><trkpt lat="41.654530555623346" lon="-2.0953992706896423"><ele>1028.0</ele><time>2026-05-03T13:55:54Z</time></trkpt><trkpt lat="41.654443883726316" lon="-2.0953169324460648"><ele>1028.0</ele><time>2026-05-03T13:55:55Z</time></trkpt><trkpt lat="41.65435046921431" lon="-2.0952325794175306"><ele>1028.4</ele><time>2026-05-03T13:55:56Z</time></trkpt><trkpt lat="41.65425899504907" lon="-2.095143524526444"><ele>1028.8</ele><time>2026-05-03T13:55:57Z</time></trkpt><trkpt lat="41.65418644694393" lon="-2.0950711188490057"><ele>1029.2</ele><time>2026-05-03T13:55:58Z</time></trkpt><trkpt lat="41.65408540183408" lon="-2.0949797266023187"><ele>1029.6</ele><time>2026-05-03T13:55:59Z</time></trkpt><trkpt lat="41.65399705953827" lon="-2.094897624723334"><ele>1030.0</ele><time>2026-05-03T13:56:00Z</time></trkpt><trkpt lat="41.6539082324049" lon="-2.09481348386564"><ele>1030.0</ele><time>2026-05-03T13:56:01Z</time></trkpt><trkpt lat="41.653819217786015" lon="-2.094729575541398"><ele>1030.0</ele><time>2026-05-03T13:56:02Z</time></trkpt><trkpt lat="41.6537346325913" lon="-2.094643862574061"><ele>1030.0</ele><time>2026-05-03T13:56:03Z</time></trkpt><trkpt lat="41.653647826854034" lon="-2.094559551099099"><ele>1030.0</ele><time>2026-05-03T13:56:04Z</time></trkpt><trkpt lat="41.65356237006988" lon="-2.094475877052669"><ele>1030.0</ele><time>2026-05-03T13:56:05Z</time></trkpt><trkpt lat="41.653476138272104" lon="-2.0943935046557285"><ele>1030.2</ele><time>2026-05-03T13:56:06Z</time></trkpt><trkpt lat="41.65339155107409" lon="-2.0943104650301705"><ele>1030.4</ele><time>2026-05-03T13:56:07Z</time></trkpt><trkpt lat="41.65330715214431" lon="-2.094231188008901"><ele>1030.6</ele><time>2026-05-03T13:56:08Z</time></trkpt><trkpt lat="41.65322244120636" lon="-2.0941493464518333"><ele>1030.8</ele><time>2026-05-03T13:56:09Z</time></trkpt><trkpt lat="41.65313688099186" lon="-2.0940663543907863"><ele>1031.0</ele><time>2026-05-03T13:56:10Z</time></trkpt><trkpt lat="41.65305551767903" lon="-2.0939839743919224"><ele>1031.2</ele><time>2026-05-03T13:56:11Z</time></trkpt><trkpt lat="41.65297456333035" lon="-2.093899357594205"><ele>1031.3999999999999</ele><time>2026-05-03T13:56:12Z</time></trkpt><trkpt lat="41.652895299871815" lon="-2.093816250140822"><ele>1031.6</ele><time>2026-05-03T13:56:13Z</time></trkpt><trkpt lat="41.65281473374204" lon="-2.093730105139746"><ele>1031.8</ele><time>2026-05-03T13:56:14Z</time></trkpt><trkpt lat="41.65273997694574" lon="-2.0936419391701926"><ele>1032.0</ele><time>2026-05-03T13:56:15Z</time></trkpt><trkpt lat="41.65266726200903" lon="-2.0935468425813335"><ele>1032.0</ele><time>2026-05-03T13:56:16Z</time></trkpt><trkpt lat="41.65259311816748" lon="-2.093451858976887"><ele>1032.0</ele><time>2026-05-03T13:56:17Z</time></trkpt><trkpt lat="41.652521503228954" lon="-2.0933578746642745"><ele>1032.0</ele><time>2026-05-03T13:56:18Z</time></trkpt><trkpt lat="41.65245443763787" lon="-2.0932521482555666"><ele>1032.0</ele><time>2026-05-03T13:56:19Z</time></trkpt><trkpt lat="41.65238898873478" lon="-2.093149269779988"><ele>1032.0</ele><time>2026-05-03T13:56:20Z</time></trkpt><trkpt lat="41.652321288884565" lon="-2.0930447981035374"><ele>1032.4</ele><time>2026-05-03T13:56:21Z</time></trkpt><trkpt lat="41.65225254879287" lon="-2.092941666513165"><ele>1032.8000000000002</ele><time>2026-05-03T13:56:22Z</time></trkpt><trkpt lat="41.65218612983717" lon="-2.092833643022835"><ele>1033.2</ele><time>2026-05-03T13:56:23Z</time></trkpt><trkpt lat="41.652121370839545" lon="-2.0927258678978955"><ele>1033.6000000000001</ele><time>2026-05-03T13:56:24Z</time></trkpt><trkpt lat="41.65206203833876" lon="-2.092613168852268"><ele>1034.0</ele><time>2026-05-03T13:56:25Z</time></trkpt><trkpt lat="41.65200295400802" lon="-2.0924973784024137"><ele>1033.4</ele><time>2026-05-03T13:56:26Z</time></trkpt><trkpt lat="41.651945472144256" lon="-2.0923790969118046"><ele>1032.8000000000002</ele><time>2026-05-03T13:56:27Z</time></trkpt><trkpt lat="41.651888652486015" lon="-2.0922594269411343"><ele>1032.1999999999998</ele><time>2026-05-03T13:56:28Z</time></trkpt><trkpt lat="41.65183306553952" lon="-2.0921372415184463"><ele>1031.6</ele><time>2026-05-03T13:56:29Z</time></trkpt><trkpt lat="41.651781133388354" lon="-2.0920135030092895"><ele>1031.0</ele><time>2026-05-03T13:56:30Z</time></trkpt><trkpt lat="41.65172768784891" lon="-2.0918866981657733"><ele>1031.0</ele><time>2026-05-03T13:56:31Z</time></trkpt><trkpt lat="41.65167119449137" lon="-2.091759348886878"><ele>1031.0</ele><time>2026-05-03T13:56:32Z</time></trkpt><trkpt lat="41.65162723993513" lon="-2.091648353043238"><ele>1031.0</ele><time>2026-05-03T13:56:33Z</time></trkpt><trkpt lat="41.651516461472006" lon="-2.091404500840582"><ele>1031.0</ele><time>2026-05-03T13:56:35Z</time></trkpt><trkpt lat="41.65146696330749" lon="-2.0912699220098183"><ele>1031.0</ele><time>2026-05-03T13:56:36Z</time></trkpt><trkpt lat="41.65141396069394" lon="-2.091144726405163"><ele>1031.0</ele><time>2026-05-03T13:56:37Z</time></trkpt><trkpt lat="41.65136486076309" lon="-2.0910216819774043"><ele>1031.0</ele><time>2026-05-03T13:56:38Z</time></trkpt><trkpt lat="41.651313854181986" lon="-2.090892900468028"><ele>1031.0</ele><time>2026-05-03T13:56:39Z</time></trkpt><trkpt lat="41.65126352129974" lon="-2.0907669465385963"><ele>1031.0</ele><time>2026-05-03T13:56:40Z</time></trkpt><trkpt lat="41.65121309805109" lon="-2.090641026968635"><ele>1031.0</ele><time>2026-05-03T13:56:41Z</time></trkpt><trkpt lat="41.651161107230244" lon="-2.090518203032249"><ele>1031.0</ele><time>2026-05-03T13:56:42Z</time></trkpt><trkpt lat="41.65110935312642" lon="-2.0903945782256246"><ele>1031.0</ele><time>2026-05-03T13:56:43Z</time></trkpt><trkpt lat="41.65105898390083" lon="-2.0902714385916874"><ele>1031.0</ele><time>2026-05-03T13:56:44Z</time></trkpt><trkpt lat="41.65100901284119" lon="-2.0901459684164907"><ele>1031.0</ele><time>2026-05-03T13:56:45Z</time></trkpt><trkpt lat="41.6509580625914" lon="-2.0900205802399334"><ele>1031.8</ele><time>2026-05-03T13:56:46Z</time></trkpt><trkpt lat="41.65090608242889" lon="-2.089897501985419"><ele>1032.6</ele><time>2026-05-03T13:56:47Z</time></trkpt><trkpt lat="41.650855918423815" lon="-2.089772212866494"><ele>1033.4</ele><time>2026-05-03T13:56:48Z</time></trkpt><trkpt lat="41.650804568455015" lon="-2.089649336881766"><ele>1034.2</ele><time>2026-05-03T13:56:49Z</time></trkpt><trkpt lat="41.65075353310464" lon="-2.0895240393426784"><ele>1035.0</ele><time>2026-05-03T13:56:50Z</time></trkpt><trkpt lat="41.65070300988777" lon="-2.089398506928109"><ele>1035.0</ele><time>2026-05-03T13:56:51Z</time></trkpt><trkpt lat="41.650653721814265" lon="-2.0892740037137028"><ele>1035.0</ele><time>2026-05-03T13:56:52Z</time></trkpt><trkpt lat="41.650604582649024" lon="-2.0891503357915266"><ele>1035.0</ele><time>2026-05-03T13:56:53Z</time></trkpt><trkpt lat="41.65055535823563" lon="-2.089025939086661"><ele>1035.0</ele><time>2026-05-03T13:56:54Z</time></trkpt><trkpt lat="41.65050742962925" lon="-2.088900772531237"><ele>1035.0</ele><time>2026-05-03T13:56:55Z</time></trkpt><trkpt lat="41.650455967866385" lon="-2.0887784592334455"><ele>1035.0</ele><time>2026-05-03T13:56:56Z</time></trkpt><trkpt lat="41.65040634979688" lon="-2.088655504134946"><ele>1035.0</ele><time>2026-05-03T13:56:57Z</time></trkpt><trkpt lat="41.65035406424726" lon="-2.0885332143007407"><ele>1035.0</ele><time>2026-05-03T13:56:58Z</time></trkpt><trkpt lat="41.650304738640884" lon="-2.0884105998602114"><ele>1035.0</ele><time>2026-05-03T13:56:59Z</time></trkpt><trkpt lat="41.650255138205914" lon="-2.0882877994914746"><ele>1035.0</ele><time>2026-05-03T13:57:00Z</time></trkpt><trkpt lat="41.65020494787916" lon="-2.088164786658668"><ele>1034.4</ele><time>2026-05-03T13:57:01Z</time></trkpt><trkpt lat="41.650155306629664" lon="-2.0880418839503316"><ele>1033.8</ele><time>2026-05-03T13:57:02Z</time></trkpt><trkpt lat="41.65010501002737" lon="-2.0879186892729114"><ele>1033.2</ele><time>2026-05-03T13:57:03Z</time></trkpt><trkpt lat="41.65005393389065" lon="-2.0877975947730865"><ele>1032.6</ele><time>2026-05-03T13:57:04Z</time></trkpt><trkpt lat="41.650003222935986" lon="-2.0876756523857596"><ele>1032.0</ele><time>2026-05-03T13:57:05Z</time></trkpt><trkpt lat="41.6499556177248" lon="-2.087551360506365"><ele>1032.0</ele><time>2026-05-03T13:57:06Z</time></trkpt><trkpt lat="41.64990727762316" lon="-2.087428710999444"><ele>1032.0</ele><time>2026-05-03T13:57:07Z</time></trkpt><trkpt lat="41.64985794816141" lon="-2.087305554810068"><ele>1032.0</ele><time>2026-05-03T13:57:08Z</time></trkpt><trkpt lat="41.64980760470093" lon="-2.0871838879076714"><ele>1032.0</ele><time>2026-05-03T13:57:09.001Z</time></trkpt><trkpt lat="41.64975517910507" lon="-2.0870616989873305"><ele>1032.0</ele><time>2026-05-03T13:57:10.001Z</time></trkpt><trkpt lat="41.64970444772925" lon="-2.0869386712734737"><ele>1032.4</ele><time>2026-05-03T13:57:11.001Z</time></trkpt><trkpt lat="41.64965282196255" lon="-2.0868173729365895"><ele>1032.8000000000002</ele><time>2026-05-03T13:57:12.001Z</time></trkpt><trkpt lat="41.649601900551396" lon="-2.0866958089025167"><ele>1033.2</ele><time>2026-05-03T13:57:13.001Z</time></trkpt><trkpt lat="41.649551142472625" lon="-2.0865731373380827"><ele>1033.6000000000001</ele><time>2026-05-03T13:57:14.001Z</time></trkpt><trkpt lat="41.64950006565124" lon="-2.0864513172248076"><ele>1034.0</ele><time>2026-05-03T13:57:15.001Z</time></trkpt><trkpt lat="41.64944869732219" lon="-2.0863290474934257"><ele>1034.0</ele><time>2026-05-03T13:57:16.001Z</time></trkpt><trkpt lat="41.649396390456005" lon="-2.086206418261184"><ele>1034.0</ele><time>2026-05-03T13:57:17.001Z</time></trkpt><trkpt lat="41.64934538780222" lon="-2.0860844205780253"><ele>1034.0</ele><time>2026-05-03T13:57:18.001Z</time></trkpt><trkpt lat="41.649295227211404" lon="-2.0859607375771585"><ele>1034.0</ele><time>2026-05-03T13:57:19.001Z</time></trkpt><trkpt lat="41.64924367463573" lon="-2.0858412362642595"><ele>1034.0</ele><time>2026-05-03T13:57:20.001Z</time></trkpt><trkpt lat="41.64919467242184" lon="-2.085717744846544"><ele>1034.6000000000001</ele><time>2026-05-03T13:57:21.001Z</time></trkpt><trkpt lat="41.64914620510342" lon="-2.085594754699748"><ele>1035.2</ele><time>2026-05-03T13:57:22.001Z</time></trkpt><trkpt lat="41.64909638812742" lon="-2.0854709544516896"><ele>1035.8000000000002</ele><time>2026-05-03T13:57:23.001Z</time></trkpt><trkpt lat="41.64904819246385" lon="-2.0853480386317242"><ele>1036.4</ele><time>2026-05-03T13:57:24.001Z</time></trkpt><trkpt lat="41.648999746667954" lon="-2.085226875659581"><ele>1037.0</ele><time>2026-05-03T13:57:25.001Z</time></trkpt><trkpt lat="41.64894718255953" lon="-2.085104562797451"><ele>1037.0</ele><time>2026-05-03T13:57:26.001Z</time></trkpt><trkpt lat="41.648898226417614" lon="-2.0849850236393883"><ele>1037.0</ele><time>2026-05-03T13:57:27.001Z</time></trkpt><trkpt lat="41.64884952915655" lon="-2.084859481694721"><ele>1037.0</ele><time>2026-05-03T13:57:28.001Z</time></trkpt><trkpt lat="41.64880056067047" lon="-2.084741183638913"><ele>1037.0</ele><time>2026-05-03T13:57:29.001Z</time></trkpt><trkpt lat="41.648752954911046" lon="-2.084618904479565"><ele>1037.0</ele><time>2026-05-03T13:57:30.001Z</time></trkpt><trkpt lat="41.6487032715655" lon="-2.0844968928803382"><ele>1036.8</ele><time>2026-05-03T13:57:31.001Z</time></trkpt><trkpt lat="41.648652641287995" lon="-2.084378177111547"><ele>1036.6</ele><time>2026-05-03T13:57:32.001Z</time></trkpt><trkpt lat="41.64860395413086" lon="-2.084256673122288"><ele>1036.3999999999999</ele><time>2026-05-03T13:57:33.001Z</time></trkpt><trkpt lat="41.64855295361656" lon="-2.0841382477797326"><ele>1036.2</ele><time>2026-05-03T13:57:34.001Z</time></trkpt><trkpt lat="41.6485008789033" lon="-2.084019433948413"><ele>1036.0</ele><time>2026-05-03T13:57:35.001Z</time></trkpt><trkpt lat="41.648451721632846" lon="-2.083898729733821"><ele>1036.3999999999999</ele><time>2026-05-03T13:57:36.001Z</time></trkpt><trkpt lat="41.64840424918262" lon="-2.0837754043900283"><ele>1036.8</ele><time>2026-05-03T13:57:37.001Z</time></trkpt><trkpt lat="41.64835738808138" lon="-2.083650648352358"><ele>1037.1999999999998</ele><time>2026-05-03T13:57:38.001Z</time></trkpt><trkpt lat="41.64830735669115" lon="-2.083532654021253"><ele>1037.6</ele><time>2026-05-03T13:57:39.001Z</time></trkpt><trkpt lat="41.64825734184286" lon="-2.083411441003632"><ele>1038.0</ele><time>2026-05-03T13:57:40.001Z</time></trkpt><trkpt lat="41.64820808255379" lon="-2.0832906400332463"><ele>1038.4</ele><time>2026-05-03T13:57:41.001Z</time></trkpt><trkpt lat="41.64815750850108" lon="-2.0831680354709765"><ele>1038.8</ele><time>2026-05-03T13:57:42Z</time></trkpt><trkpt lat="41.64810619711861" lon="-2.083048359663284"><ele>1039.2</ele><time>2026-05-03T13:57:43Z</time></trkpt><trkpt lat="41.648058197982756" lon="-2.0829258023382384"><ele>1039.6</ele><time>2026-05-03T13:57:44Z</time></trkpt><trkpt lat="41.64800903115964" lon="-2.08280401890974"><ele>1040.0</ele><time>2026-05-03T13:57:45Z</time></trkpt><trkpt lat="41.64795861712885" lon="-2.0826811437116417"><ele>1040.0</ele><time>2026-05-03T13:57:46Z</time></trkpt><trkpt lat="41.647907177710835" lon="-2.0825577844368826"><ele>1040.0</ele><time>2026-05-03T13:57:47Z</time></trkpt><trkpt lat="41.647857331031375" lon="-2.0824358223427883"><ele>1040.0</ele><time>2026-05-03T13:57:48Z</time></trkpt><trkpt lat="41.647807519721596" lon="-2.0823134968649306"><ele>1040.0</ele><time>2026-05-03T13:57:49Z</time></trkpt><trkpt lat="41.64775610423612" lon="-2.082190833595007"><ele>1040.0</ele><time>2026-05-03T13:57:50Z</time></trkpt><trkpt lat="41.64770501857373" lon="-2.0820696937299155"><ele>1039.8</ele><time>2026-05-03T13:57:51Z</time></trkpt><trkpt lat="41.64765546730285" lon="-2.081947393140617"><ele>1039.6</ele><time>2026-05-03T13:57:52Z</time></trkpt><trkpt lat="41.647606428306936" lon="-2.0818266043900073"><ele>1039.4</ele><time>2026-05-03T13:57:53Z</time></trkpt><trkpt lat="41.647556908740164" lon="-2.0817006990393367"><ele>1039.2</ele><time>2026-05-03T13:57:54Z</time></trkpt><trkpt lat="41.64750809970217" lon="-2.0815765377433744"><ele>1039.0</ele><time>2026-05-03T13:57:55Z</time></trkpt><trkpt lat="41.64745725304148" lon="-2.0814558589718817"><ele>1039.0</ele><time>2026-05-03T13:57:56Z</time></trkpt><trkpt lat="41.64740821864454" lon="-2.0813354478642974"><ele>1039.0</ele><time>2026-05-03T13:57:57Z</time></trkpt><trkpt lat="41.64735765353327" lon="-2.0812133187954913"><ele>1039.0</ele><time>2026-05-03T13:57:58Z</time></trkpt><trkpt lat="41.64730680732788" lon="-2.0810903896611923"><ele>1039.0</ele><time>2026-05-03T13:57:59Z</time></trkpt><trkpt lat="41.64725734166822" lon="-2.080969791454235"><ele>1039.0</ele><time>2026-05-03T13:58:00Z</time></trkpt><trkpt lat="41.64720800851941" lon="-2.080845788308346"><ele>1039.4</ele><time>2026-05-03T13:58:01Z</time></trkpt><trkpt lat="41.64715715006531" lon="-2.080722471119292"><ele>1039.8000000000002</ele><time>2026-05-03T13:58:02Z</time></trkpt><trkpt lat="41.64710619056721" lon="-2.0806022663227512"><ele>1040.1999999999998</ele><time>2026-05-03T13:58:03Z</time></trkpt><trkpt lat="41.647053274952185" lon="-2.0804787355050873"><ele>1040.6</ele><time>2026-05-03T13:58:04Z</time></trkpt><trkpt lat="41.64699970099657" lon="-2.0803547360878425"><ele>1041.0</ele><time>2026-05-03T13:58:05Z</time></trkpt><trkpt lat="41.646948073580894" lon="-2.0802306396284562"><ele>1041.0</ele><time>2026-05-03T13:58:06Z</time></trkpt><trkpt lat="41.64689836741446" lon="-2.080107134676992"><ele>1041.0</ele><time>2026-05-03T13:58:07Z</time></trkpt><trkpt lat="41.64684849747856" lon="-2.079983083774567"><ele>1041.0</ele><time>2026-05-03T13:58:08Z</time></trkpt><trkpt lat="41.64679577531801" lon="-2.0798591483694566"><ele>1041.0</ele><time>2026-05-03T13:58:09Z</time></trkpt><trkpt lat="41.646742391845635" lon="-2.0797370063872154"><ele>1041.0</ele><time>2026-05-03T13:58:10Z</time></trkpt><trkpt lat="41.64669202233994" lon="-2.079611308076227"><ele>1041.0</ele><time>2026-05-03T13:58:11Z</time></trkpt><trkpt lat="41.6466430738367" lon="-2.0794866687703215"><ele>1041.0</ele><time>2026-05-03T13:58:12Z</time></trkpt><trkpt lat="41.64659043983111" lon="-2.0793629403918943"><ele>1041.0</ele><time>2026-05-03T13:58:13Z</time></trkpt><trkpt lat="41.64653919408046" lon="-2.0792407597644003"><ele>1041.0</ele><time>2026-05-03T13:58:14Z</time></trkpt><trkpt lat="41.646489312768566" lon="-2.079119430440904"><ele>1041.0</ele><time>2026-05-03T13:58:15Z</time></trkpt><trkpt lat="41.646436709957776" lon="-2.0789976478143504"><ele>1040.8</ele><time>2026-05-03T13:58:16Z</time></trkpt><trkpt lat="41.646384034909524" lon="-2.0788749855544086"><ele>1040.6</ele><time>2026-05-03T13:58:17Z</time></trkpt><trkpt lat="41.646335814074625" lon="-2.0787529231630524"><ele>1040.4</ele><time>2026-05-03T13:58:18Z</time></trkpt><trkpt lat="41.64628904900532" lon="-2.078630504663146"><ele>1040.2</ele><time>2026-05-03T13:58:19Z</time></trkpt><trkpt lat="41.646238132395716" lon="-2.078510552789194"><ele>1040.0</ele><time>2026-05-03T13:58:20Z</time></trkpt><trkpt lat="41.646187897138944" lon="-2.078390101318462"><ele>1040.0</ele><time>2026-05-03T13:58:21Z</time></trkpt><trkpt lat="41.64613733109805" lon="-2.078270944701651"><ele>1040.0</ele><time>2026-05-03T13:58:22Z</time></trkpt><trkpt lat="41.646087947999" lon="-2.078149087566092"><ele>1040.0</ele><time>2026-05-03T13:58:23Z</time></trkpt><trkpt lat="41.64604057671667" lon="-2.0780267105659616"><ele>1040.0</ele><time>2026-05-03T13:58:24Z</time></trkpt><trkpt lat="41.645990230402155" lon="-2.0779045785186887"><ele>1040.0</ele><time>2026-05-03T13:58:25Z</time></trkpt><trkpt lat="41.64593990331051" lon="-2.0777838643355886"><ele>1040.0</ele><time>2026-05-03T13:58:26Z</time></trkpt><trkpt lat="41.64589147967669" lon="-2.07766130992106"><ele>1040.0</ele><time>2026-05-03T13:58:27Z</time></trkpt><trkpt lat="41.64584343747029" lon="-2.0775402227645023"><ele>1040.0</ele><time>2026-05-03T13:58:28Z</time></trkpt><trkpt lat="41.6457930763288" lon="-2.0774171053139625"><ele>1040.0</ele><time>2026-05-03T13:58:29Z</time></trkpt><trkpt lat="41.64574545847405" lon="-2.077298710636444"><ele>1040.0</ele><time>2026-05-03T13:58:30Z</time></trkpt><trkpt lat="41.64569559827021" lon="-2.077176601691378"><ele>1040.2</ele><time>2026-05-03T13:58:31Z</time></trkpt><trkpt lat="41.645645725004535" lon="-2.0770565862995913"><ele>1040.4</ele><time>2026-05-03T13:58:32Z</time></trkpt><trkpt lat="41.64559619233356" lon="-2.07693714819737"><ele>1040.6</ele><time>2026-05-03T13:58:33Z</time></trkpt><trkpt lat="41.645547456133016" lon="-2.0768164301237997"><ele>1040.8</ele><time>2026-05-03T13:58:34Z</time></trkpt><trkpt lat="41.64549927542996" lon="-2.076697522356776"><ele>1041.0</ele><time>2026-05-03T13:58:35Z</time></trkpt><trkpt lat="41.64544958354427" lon="-2.0765773589267082"><ele>1041.0</ele><time>2026-05-03T13:58:36Z</time></trkpt><trkpt lat="41.645400371118626" lon="-2.0764586700016547"><ele>1041.0</ele><time>2026-05-03T13:58:37Z</time></trkpt><trkpt lat="41.645351710785235" lon="-2.076339963684029"><ele>1041.0</ele><time>2026-05-03T13:58:38Z</time></trkpt><trkpt lat="41.64530312754173" lon="-2.0762196343538397"><ele>1041.0</ele><time>2026-05-03T13:58:39Z</time></trkpt><trkpt lat="41.64525395844135" lon="-2.076099057630562"><ele>1041.0</ele><time>2026-05-03T13:58:40Z</time></trkpt><trkpt lat="41.645205937628766" lon="-2.0759802770592692"><ele>1041.0</ele><time>2026-05-03T13:58:41Z</time></trkpt><trkpt lat="41.645157222214294" lon="-2.0758632001497452"><ele>1041.0</ele><time>2026-05-03T13:58:42Z</time></trkpt><trkpt lat="41.64510796845777" lon="-2.075744101106044"><ele>1041.0</ele><time>2026-05-03T13:58:43Z</time></trkpt><trkpt lat="41.64505866392667" lon="-2.075627026783597"><ele>1041.0</ele><time>2026-05-03T13:58:44Z</time></trkpt><trkpt lat="41.64500939414856" lon="-2.0755113090545154"><ele>1041.0</ele><time>2026-05-03T13:58:45Z</time></trkpt><trkpt lat="41.644960803494534" lon="-2.075395961147514"><ele>1041.2</ele><time>2026-05-03T13:58:46Z</time></trkpt><trkpt lat="41.64491377201416" lon="-2.0752814472100916"><ele>1041.3999999999999</ele><time>2026-05-03T13:58:47Z</time></trkpt><trkpt lat="41.644867503765674" lon="-2.0751671747762326"><ele>1041.6</ele><time>2026-05-03T13:58:48Z</time></trkpt><trkpt lat="41.64482079728755" lon="-2.0750542969767736"><ele>1041.8</ele><time>2026-05-03T13:58:49Z</time></trkpt><trkpt lat="41.644776002735014" lon="-2.0749412232927544"><ele>1042.0</ele><time>2026-05-03T13:58:50Z</time></trkpt><trkpt lat="41.64473225843364" lon="-2.0748284228262794"><ele>1042.0</ele><time>2026-05-03T13:58:51Z</time></trkpt><trkpt lat="41.64468624533023" lon="-2.0747139599212705"><ele>1042.0</ele><time>2026-05-03T13:58:52Z</time></trkpt><trkpt lat="41.644640869028066" lon="-2.0746010493581157"><ele>1042.0</ele><time>2026-05-03T13:58:53Z</time></trkpt><trkpt lat="41.64459608061757" lon="-2.074489819266578"><ele>1042.0</ele><time>2026-05-03T13:58:54Z</time></trkpt><trkpt lat="41.64454991189514" lon="-2.0743767803452644"><ele>1042.0</ele><time>2026-05-03T13:58:55Z</time></trkpt><trkpt lat="41.644503351052606" lon="-2.0742634281104455"><ele>1042.4</ele><time>2026-05-03T13:58:56Z</time></trkpt><trkpt lat="41.6444573068335" lon="-2.0741513008742563"><ele>1042.8000000000002</ele><time>2026-05-03T13:58:57Z</time></trkpt><trkpt lat="41.64441011481333" lon="-2.0740374331758606"><ele>1043.2</ele><time>2026-05-03T13:58:58Z</time></trkpt><trkpt lat="41.644361934542516" lon="-2.0739258064898975"><ele>1043.6000000000001</ele><time>2026-05-03T13:58:59Z</time></trkpt><trkpt lat="41.64431383057511" lon="-2.0738131085909943"><ele>1044.0</ele><time>2026-05-03T13:59:00Z</time></trkpt><trkpt lat="41.64426581667263" lon="-2.0736991019401536"><ele>1044.2</ele><time>2026-05-03T13:59:01Z</time></trkpt><trkpt lat="41.644217895220685" lon="-2.0735829899854736"><ele>1044.4</ele><time>2026-05-03T13:59:02Z</time></trkpt><trkpt lat="41.64416752864799" lon="-2.0734666614386237"><ele>1044.6</ele><time>2026-05-03T13:59:03Z</time></trkpt><trkpt lat="41.644120923021596" lon="-2.0733529564552984"><ele>1044.8</ele><time>2026-05-03T13:59:04Z</time></trkpt><trkpt lat="41.64407319737767" lon="-2.073233831709371"><ele>1045.0</ele><time>2026-05-03T13:59:05Z</time></trkpt><trkpt lat="41.644025077759025" lon="-2.073116046384112"><ele>1045.4</ele><time>2026-05-03T13:59:06Z</time></trkpt><trkpt lat="41.64397722309734" lon="-2.073000300749402"><ele>1045.8</ele><time>2026-05-03T13:59:07Z</time></trkpt><trkpt lat="41.64392960959517" lon="-2.0728835029994275"><ele>1046.2</ele><time>2026-05-03T13:59:08Z</time></trkpt><trkpt lat="41.643881546957445" lon="-2.0727667163665444"><ele>1046.6</ele><time>2026-05-03T13:59:09Z</time></trkpt><trkpt lat="41.6438345719686" lon="-2.0726482761863987"><ele>1047.0</ele><time>2026-05-03T13:59:10Z</time></trkpt><trkpt lat="41.64378599284946" lon="-2.07252798512455"><ele>1046.8</ele><time>2026-05-03T13:59:11Z</time></trkpt><trkpt lat="41.643736408885914" lon="-2.072409685161254"><ele>1046.6</ele><time>2026-05-03T13:59:12Z</time></trkpt><trkpt lat="41.64368805804225" lon="-2.072297062901232"><ele>1046.3999999999999</ele><time>2026-05-03T13:59:13Z</time></trkpt><trkpt lat="41.64364106605431" lon="-2.07218096532462"><ele>1046.2</ele><time>2026-05-03T13:59:14Z</time></trkpt><trkpt lat="41.643594336915164" lon="-2.0720651208052083"><ele>1046.0</ele><time>2026-05-03T13:59:15Z</time></trkpt><trkpt lat="41.64354786442065" lon="-2.071952302951989"><ele>1046.3999999999999</ele><time>2026-05-03T13:59:16Z</time></trkpt><trkpt lat="41.643503007118255" lon="-2.071838514957392"><ele>1046.8</ele><time>2026-05-03T13:59:17Z</time></trkpt><trkpt lat="41.64345778809742" lon="-2.071725806345016"><ele>1047.1999999999998</ele><time>2026-05-03T13:59:18Z</time></trkpt><trkpt lat="41.64341216713257" lon="-2.0716134837025426"><ele>1047.6</ele><time>2026-05-03T13:59:19Z</time></trkpt><trkpt lat="41.64336600564911" lon="-2.0714974919118005"><ele>1048.0</ele><time>2026-05-03T13:59:20Z</time></trkpt><trkpt lat="41.64331838280222" lon="-2.0713860111249938"><ele>1048.0</ele><time>2026-05-03T13:59:21Z</time></trkpt><trkpt lat="41.643272338515416" lon="-2.0712718879141487"><ele>1048.0</ele><time>2026-05-03T13:59:22.001Z</time></trkpt><trkpt lat="41.64322668666971" lon="-2.071156968212232"><ele>1048.0</ele><time>2026-05-03T13:59:23.001Z</time></trkpt><trkpt lat="41.643179591186886" lon="-2.0710403729789877"><ele>1048.0</ele><time>2026-05-03T13:59:24.001Z</time></trkpt><trkpt lat="41.64313144623802" lon="-2.070928970688635"><ele>1048.0</ele><time>2026-05-03T13:59:25.001Z</time></trkpt><trkpt lat="41.64308405956056" lon="-2.070815145367708"><ele>1048.2</ele><time>2026-05-03T13:59:26.001Z</time></trkpt><trkpt lat="41.643037125201" lon="-2.070698923855321"><ele>1048.4</ele><time>2026-05-03T13:59:27.001Z</time></trkpt><trkpt lat="41.64299016182755" lon="-2.0705827146746723"><ele>1048.6000000000001</ele><time>2026-05-03T13:59:28.001Z</time></trkpt><trkpt lat="41.64294231347447" lon="-2.070465366391133"><ele>1048.8</ele><time>2026-05-03T13:59:29.001Z</time></trkpt><trkpt lat="41.64289416471804" lon="-2.0703495835570336"><ele>1049.0</ele><time>2026-05-03T13:59:30.001Z</time></trkpt><trkpt lat="41.64284518881235" lon="-2.070234703985526"><ele>1049.0</ele><time>2026-05-03T13:59:31.001Z</time></trkpt><trkpt lat="41.642794384006415" lon="-2.070122640943218"><ele>1049.0</ele><time>2026-05-03T13:59:32.001Z</time></trkpt><trkpt lat="41.64274719243909" lon="-2.0700085181589296"><ele>1049.0</ele><time>2026-05-03T13:59:33.001Z</time></trkpt><trkpt lat="41.64270154375209" lon="-2.0698892111814"><ele>1049.0</ele><time>2026-05-03T13:59:34.001Z</time></trkpt><trkpt lat="41.642655016288394" lon="-2.0697694202625834"><ele>1049.0</ele><time>2026-05-03T13:59:35.001Z</time></trkpt><trkpt lat="41.64260755138704" lon="-2.0696554535680978"><ele>1049.0</ele><time>2026-05-03T13:59:36.001Z</time></trkpt><trkpt lat="41.642559327815285" lon="-2.0695396927899967"><ele>1049.0</ele><time>2026-05-03T13:59:37.001Z</time></trkpt><trkpt lat="41.64251088562581" lon="-2.0694212063225197"><ele>1049.0</ele><time>2026-05-03T13:59:38.001Z</time></trkpt><trkpt lat="41.642461474347165" lon="-2.0693065670722133"><ele>1049.0</ele><time>2026-05-03T13:59:39.001Z</time></trkpt><trkpt lat="41.642412726858815" lon="-2.0691905521511087"><ele>1049.0</ele><time>2026-05-03T13:59:40.001Z</time></trkpt><trkpt lat="41.642363808426495" lon="-2.0690728329251153"><ele>1048.8</ele><time>2026-05-03T13:59:41.001Z</time></trkpt><trkpt lat="41.64231542988335" lon="-2.0689557845481366"><ele>1048.6000000000001</ele><time>2026-05-03T13:59:42.001Z</time></trkpt><trkpt lat="41.64226794381515" lon="-2.0688359623596675"><ele>1048.4</ele><time>2026-05-03T13:59:43.001Z</time></trkpt><trkpt lat="41.64221850081975" lon="-2.0687200210465204"><ele>1048.2</ele><time>2026-05-03T13:59:44.001Z</time></trkpt><trkpt lat="41.64217009347141" lon="-2.0686027567938057"><ele>1048.0</ele><time>2026-05-03T13:59:45.001Z</time></trkpt><trkpt lat="41.64212371498542" lon="-2.068479931923038"><ele>1048.0</ele><time>2026-05-03T13:59:46.001Z</time></trkpt><trkpt lat="41.64207598810601" lon="-2.0683584622331797"><ele>1048.0</ele><time>2026-05-03T13:59:47.001Z</time></trkpt><trkpt lat="41.64202825887261" lon="-2.068237262842437"><ele>1048.0</ele><time>2026-05-03T13:59:48Z</time></trkpt><trkpt lat="41.64197672551853" lon="-2.0681206078045453"><ele>1048.0</ele><time>2026-05-03T13:59:49Z</time></trkpt><trkpt lat="41.64192530047758" lon="-2.0680025326044094"><ele>1048.0</ele><time>2026-05-03T13:59:50Z</time></trkpt><trkpt lat="41.641874451344115" lon="-2.0678823240904456"><ele>1048.2</ele><time>2026-05-03T13:59:51Z</time></trkpt><trkpt lat="41.6418234710101" lon="-2.067761446211598"><ele>1048.4</ele><time>2026-05-03T13:59:52Z</time></trkpt><trkpt lat="41.641774006507546" lon="-2.0676420974943595"><ele>1048.6000000000001</ele><time>2026-05-03T13:59:53Z</time></trkpt><trkpt lat="41.641727079973165" lon="-2.067518534771845"><ele>1048.8</ele><time>2026-05-03T13:59:54Z</time></trkpt><trkpt lat="41.64168343622466" lon="-2.067391752163299"><ele>1049.0</ele><time>2026-05-03T13:59:55Z</time></trkpt><trkpt lat="41.64163336382923" lon="-2.0672714671067696"><ele>1049.4</ele><time>2026-05-03T13:59:56Z</time></trkpt><trkpt lat="41.64157887644264" lon="-2.0671566887347845"><ele>1049.8000000000002</ele><time>2026-05-03T13:59:57Z</time></trkpt><trkpt lat="41.64152806803243" lon="-2.0670358547599217"><ele>1050.1999999999998</ele><time>2026-05-03T13:59:58Z</time></trkpt><trkpt lat="41.64147839428438" lon="-2.0669152885406747"><ele>1050.6</ele><time>2026-05-03T13:59:59Z</time></trkpt><trkpt lat="41.641429421036364" lon="-2.0667912511610673"><ele>1051.0</ele><time>2026-05-03T14:00:00Z</time></trkpt><trkpt lat="41.641378424059596" lon="-2.0666686714416658"><ele>1051.0</ele><time>2026-05-03T14:00:01Z</time></trkpt><trkpt lat="41.641326836673855" lon="-2.0665445589997353"><ele>1051.0</ele><time>2026-05-03T14:00:02Z</time></trkpt><trkpt lat="41.64127556901779" lon="-2.0664220616288653"><ele>1051.0</ele><time>2026-05-03T14:00:03Z</time></trkpt><trkpt lat="41.64122289667635" lon="-2.066300119999536"><ele>1051.0</ele><time>2026-05-03T14:00:04Z</time></trkpt><trkpt lat="41.641171788601795" lon="-2.0661741017564985"><ele>1051.0</ele><time>2026-05-03T14:00:05Z</time></trkpt><trkpt lat="41.64112126525905" lon="-2.0660469498215646"><ele>1051.0</ele><time>2026-05-03T14:00:06Z</time></trkpt><trkpt lat="41.64106859369392" lon="-2.065919191781538"><ele>1051.0</ele><time>2026-05-03T14:00:07Z</time></trkpt><trkpt lat="41.64101958226208" lon="-2.065794358448081"><ele>1051.0</ele><time>2026-05-03T14:00:08Z</time></trkpt><trkpt lat="41.6409703427055" lon="-2.065669942085382"><ele>1051.0</ele><time>2026-05-03T14:00:09Z</time></trkpt><trkpt lat="41.64092519882774" lon="-2.065542394895037"><ele>1051.0</ele><time>2026-05-03T14:00:10Z</time></trkpt><trkpt lat="41.640870741447785" lon="-2.06541824278791"><ele>1051.2</ele><time>2026-05-03T14:00:11Z</time></trkpt><trkpt lat="41.64081872312503" lon="-2.065293475288061"><ele>1051.3999999999999</ele><time>2026-05-03T14:00:12Z</time></trkpt><trkpt lat="41.640772088280414" lon="-2.065168399429468"><ele>1051.6</ele><time>2026-05-03T14:00:13Z</time></trkpt><trkpt lat="41.640712342573465" lon="-2.065050494063823"><ele>1051.8</ele><time>2026-05-03T14:00:14Z</time></trkpt><trkpt lat="41.64065992212926" lon="-2.06492257173873"><ele>1052.0</ele><time>2026-05-03T14:00:15Z</time></trkpt><trkpt lat="41.640608883314634" lon="-2.064792010360354"><ele>1052.0</ele><time>2026-05-03T14:00:16Z</time></trkpt><trkpt lat="41.64055371131929" lon="-2.0646608384640044"><ele>1052.0</ele><time>2026-05-03T14:00:17Z</time></trkpt><trkpt lat="41.64050391259754" lon="-2.0645344756598045"><ele>1052.0</ele><time>2026-05-03T14:00:18Z</time></trkpt><trkpt lat="41.64045272578613" lon="-2.0644046058428382"><ele>1052.0</ele><time>2026-05-03T14:00:19Z</time></trkpt><trkpt lat="41.640401720132964" lon="-2.064274706777063"><ele>1052.0</ele><time>2026-05-03T14:00:20Z</time></trkpt><trkpt lat="41.64034905760874" lon="-2.064144582371615"><ele>1051.8</ele><time>2026-05-03T14:00:21Z</time></trkpt><trkpt lat="41.64029680665779" lon="-2.064017190053495"><ele>1051.6</ele><time>2026-05-03T14:00:22Z</time></trkpt><trkpt lat="41.640241369722276" lon="-2.0638932252033992"><ele>1051.3999999999999</ele><time>2026-05-03T14:00:23Z</time></trkpt><trkpt lat="41.64018828802379" lon="-2.0637659486584883"><ele>1051.2</ele><time>2026-05-03T14:00:24Z</time></trkpt><trkpt lat="41.64013557838935" lon="-2.06363788639483"><ele>1051.0</ele><time>2026-05-03T14:00:25Z</time></trkpt><trkpt lat="41.64008432737619" lon="-2.0635076754830717"><ele>1051.0</ele><time>2026-05-03T14:00:26Z</time></trkpt><trkpt lat="41.640028980302596" lon="-2.0633835564300615"><ele>1051.0</ele><time>2026-05-03T14:00:27Z</time></trkpt><trkpt lat="41.63997688780353" lon="-2.0632566012868128"><ele>1051.0</ele><time>2026-05-03T14:00:28Z</time></trkpt><trkpt lat="41.63992514128139" lon="-2.0631243360566716"><ele>1051.0</ele><time>2026-05-03T14:00:29Z</time></trkpt><trkpt lat="41.639871392785636" lon="-2.0629916008383344"><ele>1051.0</ele><time>2026-05-03T14:00:30Z</time></trkpt><trkpt lat="41.63981522353957" lon="-2.0628608759679667"><ele>1051.0</ele><time>2026-05-03T14:00:31Z</time></trkpt><trkpt lat="41.63975916839477" lon="-2.0627249416939657"><ele>1051.0</ele><time>2026-05-03T14:00:32Z</time></trkpt><trkpt lat="41.639704188043765" lon="-2.0625882171525687"><ele>1051.0</ele><time>2026-05-03T14:00:33Z</time></trkpt><trkpt lat="41.63964850140164" lon="-2.0624542406847843"><ele>1051.0</ele><time>2026-05-03T14:00:34Z</time></trkpt><trkpt lat="41.63959213176828" lon="-2.06231672237897"><ele>1050.75</ele><time>2026-05-03T14:00:35Z</time></trkpt><trkpt lat="41.639534705605925" lon="-2.0621814346483958"><ele>1050.5</ele><time>2026-05-03T14:00:36Z</time></trkpt><trkpt lat="41.639477315854215" lon="-2.06204171997353"><ele>1050.25</ele><time>2026-05-03T14:00:37Z</time></trkpt><trkpt lat="41.6394226096925" lon="-2.061905470303494"><ele>1050.0</ele><time>2026-05-03T14:00:38Z</time></trkpt><trkpt lat="41.63936809005163" lon="-2.0617688002762278"><ele>1049.75</ele><time>2026-05-03T14:00:39Z</time></trkpt><trkpt lat="41.63931296241765" lon="-2.0616345867269192"><ele>1049.5</ele><time>2026-05-03T14:00:40Z</time></trkpt><trkpt lat="41.639259847057566" lon="-2.0614998912472235"><ele>1049.25</ele><time>2026-05-03T14:00:41Z</time></trkpt><trkpt lat="41.639204750123625" lon="-2.06136765212533"><ele>1049.0</ele><time>2026-05-03T14:00:42Z</time></trkpt><trkpt lat="41.6391507829653" lon="-2.061236341845577"><ele>1049.0</ele><time>2026-05-03T14:00:43Z</time></trkpt><trkpt lat="41.63909624518421" lon="-2.0611018633051765"><ele>1049.0</ele><time>2026-05-03T14:00:44Z</time></trkpt><trkpt lat="41.63904206414782" lon="-2.060970854324735"><ele>1049.0</ele><time>2026-05-03T14:00:45Z</time></trkpt><trkpt lat="41.63898818304799" lon="-2.060840719410327"><ele>1049.0</ele><time>2026-05-03T14:00:46Z</time></trkpt><trkpt lat="41.63893656836359" lon="-2.0607107438904455"><ele>1049.0</ele><time>2026-05-03T14:00:47Z</time></trkpt><trkpt lat="41.638884005995" lon="-2.060583311681241"><ele>1049.2</ele><time>2026-05-03T14:00:48Z</time></trkpt><trkpt lat="41.6388350068958" lon="-2.06046240151075"><ele>1049.4</ele><time>2026-05-03T14:00:49Z</time></trkpt><trkpt lat="41.638787648813285" lon="-2.0603396709811665"><ele>1049.6</ele><time>2026-05-03T14:00:50Z</time></trkpt><trkpt lat="41.63872828011131" lon="-2.060214222687714"><ele>1049.8</ele><time>2026-05-03T14:00:51Z</time></trkpt><trkpt lat="41.638677557752416" lon="-2.060090677598176"><ele>1050.0</ele><time>2026-05-03T14:00:52Z</time></trkpt><trkpt lat="41.638627410305745" lon="-2.059969220332968"><ele>1050.2</ele><time>2026-05-03T14:00:53Z</time></trkpt><trkpt lat="41.63857456028991" lon="-2.0598466878603956"><ele>1050.4</ele><time>2026-05-03T14:00:54Z</time></trkpt><trkpt lat="41.638529166271766" lon="-2.059724692616304"><ele>1050.6</ele><time>2026-05-03T14:00:55Z</time></trkpt><trkpt lat="41.638482377509646" lon="-2.059603427860611"><ele>1050.8</ele><time>2026-05-03T14:00:56Z</time></trkpt><trkpt lat="41.638429333562286" lon="-2.059484094613164"><ele>1051.0</ele><time>2026-05-03T14:00:57Z</time></trkpt><trkpt lat="41.638382169798895" lon="-2.0593638789274777"><ele>1051.0</ele><time>2026-05-03T14:00:58Z</time></trkpt><trkpt lat="41.63833309112424" lon="-2.059245450194223"><ele>1051.0</ele><time>2026-05-03T14:00:59Z</time></trkpt><trkpt lat="41.63828034472508" lon="-2.0591272311682833"><ele>1051.0</ele><time>2026-05-03T14:01:00Z</time></trkpt><trkpt lat="41.638232712810904" lon="-2.0590083573847546"><ele>1051.0</ele><time>2026-05-03T14:01:01Z</time></trkpt><trkpt lat="41.63818299911867" lon="-2.0588891203651247"><ele>1051.0</ele><time>2026-05-03T14:01:02Z</time></trkpt><trkpt lat="41.6381345438959" lon="-2.058771107266682"><ele>1051.3999999999999</ele><time>2026-05-03T14:01:03Z</time></trkpt><trkpt lat="41.638085708860196" lon="-2.058650691164571"><ele>1051.8</ele><time>2026-05-03T14:01:04Z</time></trkpt><trkpt lat="41.63803951007473" lon="-2.0585290366473217"><ele>1052.1999999999998</ele><time>2026-05-03T14:01:05Z</time></trkpt><trkpt lat="41.6379864903435" lon="-2.0584098674330527"><ele>1052.6</ele><time>2026-05-03T14:01:06Z</time></trkpt><trkpt lat="41.63793592776894" lon="-2.058289393880166"><ele>1053.0</ele><time>2026-05-03T14:01:07Z</time></trkpt><trkpt lat="41.63788663654353" lon="-2.058168515488208"><ele>1053.4</ele><time>2026-05-03T14:01:08Z</time></trkpt><trkpt lat="41.63783812086615" lon="-2.058045611556176"><ele>1053.8</ele><time>2026-05-03T14:01:09Z</time></trkpt><trkpt lat="41.637788244231935" lon="-2.057923095085055"><ele>1054.2</ele><time>2026-05-03T14:01:10Z</time></trkpt><trkpt lat="41.63773289769745" lon="-2.0578052980965267"><ele>1054.6</ele><time>2026-05-03T14:01:11Z</time></trkpt><trkpt lat="41.637684456204816" lon="-2.05768309139144"><ele>1055.0</ele><time>2026-05-03T14:01:12Z</time></trkpt><trkpt lat="41.637636990843035" lon="-2.0575590671394455"><ele>1054.6</ele><time>2026-05-03T14:01:13Z</time></trkpt><trkpt lat="41.63758593395786" lon="-2.057438804604979"><ele>1054.2</ele><time>2026-05-03T14:01:14Z</time></trkpt><trkpt lat="41.637535504872154" lon="-2.0573188062875154"><ele>1053.8</ele><time>2026-05-03T14:01:15Z</time></trkpt><trkpt lat="41.63748619373877" lon="-2.0571982529121615"><ele>1053.4</ele><time>2026-05-03T14:01:16Z</time></trkpt><trkpt lat="41.63743873232764" lon="-2.057077089129858"><ele>1053.0</ele><time>2026-05-03T14:01:17Z</time></trkpt><trkpt lat="41.637389798529426" lon="-2.056959103510722"><ele>1053.0</ele><time>2026-05-03T14:01:18Z</time></trkpt><trkpt lat="41.63734219806406" lon="-2.0568396440307057"><ele>1053.0</ele><time>2026-05-03T14:01:19Z</time></trkpt><trkpt lat="41.63729173153667" lon="-2.0567187394827475"><ele>1053.0</ele><time>2026-05-03T14:01:20Z</time></trkpt><trkpt lat="41.637238646004676" lon="-2.05660107560712"><ele>1053.0</ele><time>2026-05-03T14:01:21Z</time></trkpt><trkpt lat="41.637191086884094" lon="-2.056478787578055"><ele>1053.0</ele><time>2026-05-03T14:01:22Z</time></trkpt><trkpt lat="41.637142098774454" lon="-2.0563570761330587"><ele>1052.8</ele><time>2026-05-03T14:01:23Z</time></trkpt><trkpt lat="41.637091202474245" lon="-2.056238575852672"><ele>1052.6</ele><time>2026-05-03T14:01:24.001Z</time></trkpt><trkpt lat="41.63704040377372" lon="-2.0561192495544343"><ele>1052.4</ele><time>2026-05-03T14:01:25.001Z</time></trkpt><trkpt lat="41.63699109246454" lon="-2.055997264413757"><ele>1052.2</ele><time>2026-05-03T14:01:26.001Z</time></trkpt><trkpt lat="41.63693940134265" lon="-2.0558745413624013"><ele>1052.0</ele><time>2026-05-03T14:01:27.001Z</time></trkpt><trkpt lat="41.63688924029852" lon="-2.0557517147825113"><ele>1052.4</ele><time>2026-05-03T14:01:28.001Z</time></trkpt><trkpt lat="41.636839384979844" lon="-2.05563166851263"><ele>1052.8000000000002</ele><time>2026-05-03T14:01:29.001Z</time></trkpt><trkpt lat="41.6367900349842" lon="-2.0555058218027544"><ele>1053.2</ele><time>2026-05-03T14:01:30.001Z</time></trkpt><trkpt lat="41.63673819962092" lon="-2.0553820289644182"><ele>1053.6000000000001</ele><time>2026-05-03T14:01:31.001Z</time></trkpt><trkpt lat="41.63668508032995" lon="-2.0552626125174225"><ele>1054.0</ele><time>2026-05-03T14:01:32.001Z</time></trkpt><trkpt lat="41.636634734920854" lon="-2.0551374010437646"><ele>1054.0</ele><time>2026-05-03T14:01:33.001Z</time></trkpt><trkpt lat="41.63658347180184" lon="-2.0550134267365947"><ele>1054.0</ele><time>2026-05-03T14:01:34.001Z</time></trkpt><trkpt lat="41.6365325435563" lon="-2.0548883585008606"><ele>1054.0</ele><time>2026-05-03T14:01:35.001Z</time></trkpt><trkpt lat="41.636480287688215" lon="-2.0547631323321602"><ele>1054.0</ele><time>2026-05-03T14:01:36.001Z</time></trkpt><trkpt lat="41.63642972792328" lon="-2.054638746129465"><ele>1054.0</ele><time>2026-05-03T14:01:37.001Z</time></trkpt><trkpt lat="41.63637923311202" lon="-2.054516513289134"><ele>1054.4</ele><time>2026-05-03T14:01:38.001Z</time></trkpt><trkpt lat="41.63633012923567" lon="-2.0543896438886606"><ele>1054.8000000000002</ele><time>2026-05-03T14:01:39.001Z</time></trkpt><trkpt lat="41.636278089783005" lon="-2.0542676497436103"><ele>1055.1999999999998</ele><time>2026-05-03T14:01:40.001Z</time></trkpt><trkpt lat="41.63622689283048" lon="-2.05415168008303"><ele>1055.6</ele><time>2026-05-03T14:01:41.001Z</time></trkpt><trkpt lat="41.636177524053615" lon="-2.054023921968681"><ele>1056.0</ele><time>2026-05-03T14:01:42.001Z</time></trkpt><trkpt lat="41.636126920683594" lon="-2.053897794457502"><ele>1056.0</ele><time>2026-05-03T14:01:43.001Z</time></trkpt><trkpt lat="41.6360747164084" lon="-2.053777097597652"><ele>1056.0</ele><time>2026-05-03T14:01:44.001Z</time></trkpt><trkpt lat="41.63602533582427" lon="-2.053652614277944"><ele>1056.0</ele><time>2026-05-03T14:01:45.001Z</time></trkpt><trkpt lat="41.63597220573933" lon="-2.0535318294523957"><ele>1056.0</ele><time>2026-05-03T14:01:46.001Z</time></trkpt><trkpt lat="41.63592146138365" lon="-2.0534049704434008"><ele>1056.0</ele><time>2026-05-03T14:01:47.001Z</time></trkpt><trkpt lat="41.63586929919777" lon="-2.053280155346051"><ele>1056.2</ele><time>2026-05-03T14:01:48.001Z</time></trkpt><trkpt lat="41.63581735494497" lon="-2.05315279138814"><ele>1056.3999999999999</ele><time>2026-05-03T14:01:49.001Z</time></trkpt><trkpt lat="41.635764800032064" lon="-2.0530237127110085"><ele>1056.6</ele><time>2026-05-03T14:01:50.001Z</time></trkpt><trkpt lat="41.635713219371404" lon="-2.052900137064295"><ele>1056.8</ele><time>2026-05-03T14:01:51.001Z</time></trkpt><trkpt lat="41.635662597377085" lon="-2.0527724606158353"><ele>1057.0</ele><time>2026-05-03T14:01:52.001Z</time></trkpt><trkpt lat="41.63561090374484" lon="-2.0526424579168725"><ele>1057.0</ele><time>2026-05-03T14:01:53.001Z</time></trkpt><trkpt lat="41.635561282081824" lon="-2.052530160123328"><ele>1057.0</ele><time>2026-05-03T14:01:54Z</time></trkpt><trkpt lat="41.63550895966777" lon="-2.0523893979793693"><ele>1057.0</ele><time>2026-05-03T14:01:55Z</time></trkpt><trkpt lat="41.63545255700399" lon="-2.052273515394069"><ele>1057.0</ele><time>2026-05-03T14:01:56Z</time></trkpt><trkpt lat="41.63540194228963" lon="-2.0521478816277137"><ele>1057.0</ele><time>2026-05-03T14:01:57Z</time></trkpt><trkpt lat="41.635350638069895" lon="-2.0520197010115075"><ele>1056.6</ele><time>2026-05-03T14:01:58Z</time></trkpt><trkpt lat="41.63530060551941" lon="-2.0518932266059564"><ele>1056.2</ele><time>2026-05-03T14:01:59Z</time></trkpt><trkpt lat="41.63524940318709" lon="-2.0517690294553246"><ele>1055.8</ele><time>2026-05-03T14:02:00Z</time></trkpt><trkpt lat="41.63519813628753" lon="-2.0516436719634616"><ele>1055.4</ele><time>2026-05-03T14:02:01Z</time></trkpt><trkpt lat="41.63514565078639" lon="-2.051517599063165"><ele>1055.0</ele><time>2026-05-03T14:02:02Z</time></trkpt><trkpt lat="41.63509654592617" lon="-2.0513900919510566"><ele>1055.0</ele><time>2026-05-03T14:02:03Z</time></trkpt><trkpt lat="41.635041524712804" lon="-2.051263204169605"><ele>1055.0</ele><time>2026-05-03T14:02:04Z</time></trkpt><trkpt lat="41.63498638672089" lon="-2.0511368403578274"><ele>1055.0</ele><time>2026-05-03T14:02:05Z</time></trkpt><trkpt lat="41.634943906073495" lon="-2.05100881429834"><ele>1055.0</ele><time>2026-05-03T14:02:06Z</time></trkpt><trkpt lat="41.63487971830432" lon="-2.05088205751372"><ele>1055.0</ele><time>2026-05-03T14:02:07Z</time></trkpt><trkpt lat="41.63483263983499" lon="-2.050757092475121"><ele>1055.0</ele><time>2026-05-03T14:02:08Z</time></trkpt><trkpt lat="41.63478423806512" lon="-2.050630222859658"><ele>1055.0</ele><time>2026-05-03T14:02:09Z</time></trkpt><trkpt lat="41.634728613829274" lon="-2.0505016177499362"><ele>1055.0</ele><time>2026-05-03T14:02:10Z</time></trkpt><trkpt lat="41.634678694628754" lon="-2.0503745836121663"><ele>1055.0</ele><time>2026-05-03T14:02:11Z</time></trkpt><trkpt lat="41.63462114291361" lon="-2.0502487100579634"><ele>1055.0</ele><time>2026-05-03T14:02:12Z</time></trkpt><trkpt lat="41.634585561174255" lon="-2.05012179764198"><ele>1055.0</ele><time>2026-05-03T14:02:13Z</time></trkpt><trkpt lat="41.634543245377635" lon="-2.0500268367646193"><ele>1055.0</ele><time>2026-05-03T14:02:14Z</time></trkpt><trkpt lat="41.63447126050983" lon="-2.0498665929186712"><ele>1055.0</ele><time>2026-05-03T14:02:15Z</time></trkpt><trkpt lat="41.63441816708359" lon="-2.0497386953888466"><ele>1055.0</ele><time>2026-05-03T14:02:16Z</time></trkpt><trkpt lat="41.63436570939545" lon="-2.04961169085529"><ele>1055.0</ele><time>2026-05-03T14:02:17Z</time></trkpt><trkpt lat="41.63431368401392" lon="-2.0494824696434106"><ele>1054.8</ele><time>2026-05-03T14:02:18Z</time></trkpt><trkpt lat="41.63426054705858" lon="-2.0493573160366867"><ele>1054.6</ele><time>2026-05-03T14:02:19Z</time></trkpt><trkpt lat="41.63420548011546" lon="-2.049231555860382"><ele>1054.4</ele><time>2026-05-03T14:02:20Z</time></trkpt><trkpt lat="41.634151908550635" lon="-2.049105468798994"><ele>1054.2</ele><time>2026-05-03T14:02:21Z</time></trkpt><trkpt lat="41.634100391335345" lon="-2.0489785613021803"><ele>1054.0</ele><time>2026-05-03T14:02:22Z</time></trkpt><trkpt lat="41.634050716314626" lon="-2.0488497845321776"><ele>1054.0</ele><time>2026-05-03T14:02:23Z</time></trkpt><trkpt lat="41.633996041766395" lon="-2.048718238364881"><ele>1054.0</ele><time>2026-05-03T14:02:24Z</time></trkpt><trkpt lat="41.633945706883544" lon="-2.048589514856452"><ele>1054.0</ele><time>2026-05-03T14:02:25Z</time></trkpt><trkpt lat="41.63389255020972" lon="-2.0484590479425897"><ele>1054.0</ele><time>2026-05-03T14:02:26Z</time></trkpt><trkpt lat="41.633834726642306" lon="-2.0483258313353336"><ele>1054.0</ele><time>2026-05-03T14:02:27Z</time></trkpt><trkpt lat="41.63378099738117" lon="-2.0481957428234945"><ele>1054.0</ele><time>2026-05-03T14:02:28Z</time></trkpt><trkpt lat="41.633727306851426" lon="-2.0480625184786287"><ele>1054.0</ele><time>2026-05-03T14:02:29Z</time></trkpt><trkpt lat="41.633669601832594" lon="-2.0479322854652953"><ele>1054.0</ele><time>2026-05-03T14:02:30Z</time></trkpt><trkpt lat="41.63361608606586" lon="-2.0478016046518897"><ele>1054.0</ele><time>2026-05-03T14:02:31Z</time></trkpt><trkpt lat="41.633562512557496" lon="-2.047669904019722"><ele>1053.8</ele><time>2026-05-03T14:02:32Z</time></trkpt><trkpt lat="41.6335100241693" lon="-2.0475380457875687"><ele>1053.6000000000001</ele><time>2026-05-03T14:02:33Z</time></trkpt><trkpt lat="41.633456465758115" lon="-2.047408791086484"><ele>1053.4</ele><time>2026-05-03T14:02:34Z</time></trkpt><trkpt lat="41.63340172074006" lon="-2.047279153204812"><ele>1053.2</ele><time>2026-05-03T14:02:35Z</time></trkpt><trkpt lat="41.63334763180249" lon="-2.0471458450441675"><ele>1053.0</ele><time>2026-05-03T14:02:36Z</time></trkpt><trkpt lat="41.633293642442524" lon="-2.047013670859476"><ele>1053.0</ele><time>2026-05-03T14:02:37Z</time></trkpt><trkpt lat="41.633238051046526" lon="-2.0468814336261127"><ele>1053.0</ele><time>2026-05-03T14:02:38Z</time></trkpt><trkpt lat="41.63318349926327" lon="-2.0467490476819683"><ele>1053.0</ele><time>2026-05-03T14:02:39Z</time></trkpt><trkpt lat="41.633128637622754" lon="-2.0466138258815194"><ele>1053.0</ele><time>2026-05-03T14:02:40Z</time></trkpt><trkpt lat="41.63307485031987" lon="-2.04647973476095"><ele>1052.75</ele><time>2026-05-03T14:02:41Z</time></trkpt><trkpt lat="41.633018923963945" lon="-2.0463455907225567"><ele>1052.5</ele><time>2026-05-03T14:02:42Z</time></trkpt><trkpt lat="41.63296298588952" lon="-2.0462107128613742"><ele>1052.25</ele><time>2026-05-03T14:02:43Z</time></trkpt><trkpt lat="41.63290869372681" lon="-2.0460745223934915"><ele>1052.0</ele><time>2026-05-03T14:02:44Z</time></trkpt><trkpt lat="41.632853824629116" lon="-2.045942821169514"><ele>1051.5</ele><time>2026-05-03T14:02:45Z</time></trkpt><trkpt lat="41.63279621024902" lon="-2.045808414663798"><ele>1051.0</ele><time>2026-05-03T14:02:46Z</time></trkpt><trkpt lat="41.63274371583423" lon="-2.0456736112094847"><ele>1050.5</ele><time>2026-05-03T14:02:47Z</time></trkpt><trkpt lat="41.63269085452232" lon="-2.0455380871033935"><ele>1050.0</ele><time>2026-05-03T14:02:48Z</time></trkpt><trkpt lat="41.63263591328174" lon="-2.0454037666183846"><ele>1050.0</ele><time>2026-05-03T14:02:49Z</time></trkpt><trkpt lat="41.63258129438199" lon="-2.045271253061226"><ele>1050.0</ele><time>2026-05-03T14:02:50Z</time></trkpt><trkpt lat="41.63252381385309" lon="-2.0451395688510066"><ele>1050.0</ele><time>2026-05-03T14:02:51Z</time></trkpt><trkpt lat="41.63247357259918" lon="-2.045009258516035"><ele>1050.0</ele><time>2026-05-03T14:02:52Z</time></trkpt><trkpt lat="41.63242053497072" lon="-2.044879201785779"><ele>1050.0</ele><time>2026-05-03T14:02:53Z</time></trkpt><trkpt lat="41.632363027560906" lon="-2.044749503149175"><ele>1050.2</ele><time>2026-05-03T14:02:54Z</time></trkpt><trkpt lat="41.632311201628376" lon="-2.044614747246135"><ele>1050.4</ele><time>2026-05-03T14:02:55Z</time></trkpt><trkpt lat="41.63225874720703" lon="-2.0444915484221595"><ele>1050.6</ele><time>2026-05-03T14:02:56Z</time></trkpt><trkpt lat="41.63220904262155" lon="-2.0443644046072125"><ele>1050.8</ele><time>2026-05-03T14:02:57Z</time></trkpt><trkpt lat="41.63215959283961" lon="-2.0442369764687554"><ele>1051.0</ele><time>2026-05-03T14:02:58Z</time></trkpt><trkpt lat="41.63210248783687" lon="-2.0441051181465557"><ele>1051.2</ele><time>2026-05-03T14:02:59Z</time></trkpt><trkpt lat="41.63205037389259" lon="-2.043980717914728"><ele>1051.3999999999999</ele><time>2026-05-03T14:03:00Z</time></trkpt><trkpt lat="41.63200155532415" lon="-2.0438632500213854"><ele>1051.6</ele><time>2026-05-03T14:03:01Z</time></trkpt><trkpt lat="41.63195246481656" lon="-2.0437211029803515"><ele>1051.8</ele><time>2026-05-03T14:03:02Z</time></trkpt><trkpt lat="41.63190136840105" lon="-2.0436021797261676"><ele>1052.0</ele><time>2026-05-03T14:03:03Z</time></trkpt><trkpt lat="41.63184667770002" lon="-2.0434738770986898"><ele>1051.8</ele><time>2026-05-03T14:03:04Z</time></trkpt><trkpt lat="41.63179221702537" lon="-2.0433416693471145"><ele>1051.6</ele><time>2026-05-03T14:03:05Z</time></trkpt><trkpt lat="41.631736761609744" lon="-2.0432144140399866"><ele>1051.3999999999999</ele><time>2026-05-03T14:03:06Z</time></trkpt><trkpt lat="41.631684420451336" lon="-2.0430839928396622"><ele>1051.2</ele><time>2026-05-03T14:03:07Z</time></trkpt><trkpt lat="41.631633312618405" lon="-2.0429542920681723"><ele>1051.0</ele><time>2026-05-03T14:03:08Z</time></trkpt><trkpt lat="41.631582148896236" lon="-2.0428242031126445"><ele>1051.0</ele><time>2026-05-03T14:03:09Z</time></trkpt><trkpt lat="41.631529718381536" lon="-2.042696190305045"><ele>1051.0</ele><time>2026-05-03T14:03:10Z</time></trkpt><trkpt lat="41.63147970970955" lon="-2.0425706378765613"><ele>1051.0</ele><time>2026-05-03T14:03:11Z</time></trkpt><trkpt lat="41.63142984425621" lon="-2.0424499826595555"><ele>1051.0</ele><time>2026-05-03T14:03:12Z</time></trkpt><trkpt lat="41.63138081744218" lon="-2.042330709662031"><ele>1051.0</ele><time>2026-05-03T14:03:13Z</time></trkpt><trkpt lat="41.63132947136225" lon="-2.042214439967051"><ele>1051.0</ele><time>2026-05-03T14:03:14Z</time></trkpt><trkpt lat="41.63128153416984" lon="-2.0421018460948335"><ele>1051.0</ele><time>2026-05-03T14:03:15Z</time></trkpt><trkpt lat="41.631234152874384" lon="-2.0419913604350977"><ele>1051.0</ele><time>2026-05-03T14:03:16Z</time></trkpt><trkpt lat="41.63118837253007" lon="-2.0418808888556303"><ele>1051.0</ele><time>2026-05-03T14:03:17Z</time></trkpt><trkpt lat="41.631141523646285" lon="-2.0417704723947865"><ele>1051.0</ele><time>2026-05-03T14:03:18.001Z</time></trkpt><trkpt lat="41.631095374650265" lon="-2.041659254711482"><ele>1051.6</ele><time>2026-05-03T14:03:19.001Z</time></trkpt><trkpt lat="41.63104969748114" lon="-2.0415491226571807"><ele>1052.1999999999998</ele><time>2026-05-03T14:03:20.001Z</time></trkpt><trkpt lat="41.631003484159585" lon="-2.0414391391055813"><ele>1052.8000000000002</ele><time>2026-05-03T14:03:21.001Z</time></trkpt><trkpt lat="41.63096085693301" lon="-2.0413277757958253"><ele>1053.4</ele><time>2026-05-03T14:03:22.001Z</time></trkpt><trkpt lat="41.63091498317015" lon="-2.0412143503806206"><ele>1054.0</ele><time>2026-05-03T14:03:23.001Z</time></trkpt><trkpt lat="41.630870367706244" lon="-2.0411026466108018"><ele>1054.0</ele><time>2026-05-03T14:03:24.001Z</time></trkpt><trkpt lat="41.63082569639449" lon="-2.0409922069718105"><ele>1054.0</ele><time>2026-05-03T14:03:25.001Z</time></trkpt><trkpt lat="41.63077948800878" lon="-2.040873625613019"><ele>1054.0</ele><time>2026-05-03T14:03:26.001Z</time></trkpt><trkpt lat="41.63073235897659" lon="-2.0407639602474137"><ele>1054.0</ele><time>2026-05-03T14:03:27.001Z</time></trkpt><trkpt lat="41.63068452317635" lon="-2.0406499031044074"><ele>1054.0</ele><time>2026-05-03T14:03:28.001Z</time></trkpt><trkpt lat="41.630639184687965" lon="-2.040535448681753"><ele>1053.8</ele><time>2026-05-03T14:03:29.001Z</time></trkpt><trkpt lat="41.630592457602816" lon="-2.040419789347324"><ele>1053.6000000000001</ele><time>2026-05-03T14:03:30.001Z</time></trkpt><trkpt lat="41.63054568055653" lon="-2.0403036318456595"><ele>1053.4</ele><time>2026-05-03T14:03:31.001Z</time></trkpt><trkpt lat="41.63049533735057" lon="-2.0401910118640543"><ele>1053.2</ele><time>2026-05-03T14:03:32.001Z</time></trkpt><trkpt lat="41.63044770023057" lon="-2.0400707960151623"><ele>1053.0</ele><time>2026-05-03T14:03:33.001Z</time></trkpt><trkpt lat="41.63039944716862" lon="-2.0399514815961233"><ele>1053.0</ele><time>2026-05-03T14:03:34.001Z</time></trkpt><trkpt lat="41.630350129579845" lon="-2.0398329434500533"><ele>1053.0</ele><time>2026-05-03T14:03:35.001Z</time></trkpt><trkpt lat="41.63030177719257" lon="-2.039711639205557"><ele>1053.0</ele><time>2026-05-03T14:03:36.001Z</time></trkpt><trkpt lat="41.63025065750352" lon="-2.039592308880832"><ele>1053.0</ele><time>2026-05-03T14:03:37.001Z</time></trkpt><trkpt lat="41.63020116498984" lon="-2.039470611877866"><ele>1053.0</ele><time>2026-05-03T14:03:38.001Z</time></trkpt><trkpt lat="41.630149975449534" lon="-2.0393510378809867"><ele>1053.0</ele><time>2026-05-03T14:03:39.001Z</time></trkpt><trkpt lat="41.63010183821687" lon="-2.0392271095295817"><ele>1053.0</ele><time>2026-05-03T14:03:40.001Z</time></trkpt><trkpt lat="41.63005056949712" lon="-2.039104494935079"><ele>1053.0</ele><time>2026-05-03T14:03:41.001Z</time></trkpt><trkpt lat="41.6299977545824" lon="-2.03898287391295"><ele>1053.0</ele><time>2026-05-03T14:03:42.001Z</time></trkpt><trkpt lat="41.62994749840401" lon="-2.038859721875377"><ele>1053.0</ele><time>2026-05-03T14:03:43.001Z</time></trkpt><trkpt lat="41.62989453727325" lon="-2.0387376377731092"><ele>1052.8</ele><time>2026-05-03T14:03:44.001Z</time></trkpt><trkpt lat="41.62984480917089" lon="-2.0386127383157713"><ele>1052.6</ele><time>2026-05-03T14:03:45.001Z</time></trkpt><trkpt lat="41.629793224883585" lon="-2.038487019629521"><ele>1052.4</ele><time>2026-05-03T14:03:46.001Z</time></trkpt><trkpt lat="41.62974288373165" lon="-2.038363773863207"><ele>1052.2</ele><time>2026-05-03T14:03:47.001Z</time></trkpt><trkpt lat="41.62969339755784" lon="-2.0382391322266216"><ele>1052.0</ele><time>2026-05-03T14:03:48.001Z</time></trkpt><trkpt lat="41.62964115434109" lon="-2.0381158765610383"><ele>1052.0</ele><time>2026-05-03T14:03:49.001Z</time></trkpt><trkpt lat="41.62959127497087" lon="-2.037991486285886"><ele>1052.0</ele><time>2026-05-03T14:03:50.001Z</time></trkpt><trkpt lat="41.629538725003826" lon="-2.037868263733517"><ele>1052.0</ele><time>2026-05-03T14:03:51.001Z</time></trkpt><trkpt lat="41.62949038806273" lon="-2.0377428349095275"><ele>1052.0</ele><time>2026-05-03T14:03:52.001Z</time></trkpt><trkpt lat="41.62943840748947" lon="-2.0376222293861805"><ele>1052.0</ele><time>2026-05-03T14:03:53.001Z</time></trkpt><trkpt lat="41.62938705777545" lon="-2.03749706051762"><ele>1052.2</ele><time>2026-05-03T14:03:54.001Z</time></trkpt><trkpt lat="41.629335513946806" lon="-2.0373739232893358"><ele>1052.4</ele><time>2026-05-03T14:03:55.001Z</time></trkpt><trkpt lat="41.62928410323007" lon="-2.037252250840956"><ele>1052.6</ele><time>2026-05-03T14:03:56.001Z</time></trkpt><trkpt lat="41.629234362779655" lon="-2.0371250938942307"><ele>1052.8</ele><time>2026-05-03T14:03:57.001Z</time></trkpt><trkpt lat="41.62918207818412" lon="-2.0370000044268473"><ele>1053.0</ele><time>2026-05-03T14:03:58.001Z</time></trkpt><trkpt lat="41.62913173377129" lon="-2.0368746444997705"><ele>1053.0</ele><time>2026-05-03T14:03:59.001Z</time></trkpt><trkpt lat="41.62908006606753" lon="-2.036755113515193"><ele>1053.0</ele><time>2026-05-03T14:04:00Z</time></trkpt><trkpt lat="41.62902559419677" lon="-2.0366326189584747"><ele>1053.0</ele><time>2026-05-03T14:04:01Z</time></trkpt><trkpt lat="41.62897595215175" lon="-2.0365111201230657"><ele>1053.0</ele><time>2026-05-03T14:04:02Z</time></trkpt><trkpt lat="41.62892533813621" lon="-2.0363839447424876"><ele>1053.0</ele><time>2026-05-03T14:04:03Z</time></trkpt><trkpt lat="41.62887313426553" lon="-2.0362614485471378"><ele>1053.0</ele><time>2026-05-03T14:04:04Z</time></trkpt><trkpt lat="41.62882404119715" lon="-2.0361382564402573"><ele>1053.0</ele><time>2026-05-03T14:04:05Z</time></trkpt><trkpt lat="41.628773894934426" lon="-2.0360189996691918"><ele>1053.0</ele><time>2026-05-03T14:04:06Z</time></trkpt><trkpt lat="41.62872403389943" lon="-2.035892383203638"><ele>1053.0</ele><time>2026-05-03T14:04:07Z</time></trkpt><trkpt lat="41.62867359606987" lon="-2.035765496952607"><ele>1053.0</ele><time>2026-05-03T14:04:08Z</time></trkpt><trkpt lat="41.628620131143386" lon="-2.0356442953566622"><ele>1053.4</ele><time>2026-05-03T14:04:09Z</time></trkpt><trkpt lat="41.62857133532362" lon="-2.0355214554703975"><ele>1053.8</ele><time>2026-05-03T14:04:10Z</time></trkpt><trkpt lat="41.62851928330946" lon="-2.035396721049349"><ele>1054.2</ele><time>2026-05-03T14:04:11Z</time></trkpt><trkpt lat="41.62846967883978" lon="-2.03527047489177"><ele>1054.6</ele><time>2026-05-03T14:04:12Z</time></trkpt><trkpt lat="41.62841760161769" lon="-2.0351467112603365"><ele>1055.0</ele><time>2026-05-03T14:04:13Z</time></trkpt><trkpt lat="41.62836530621055" lon="-2.03502395626804"><ele>1054.6</ele><time>2026-05-03T14:04:14Z</time></trkpt><trkpt lat="41.628312522681405" lon="-2.03490025826006"><ele>1054.2</ele><time>2026-05-03T14:04:15Z</time></trkpt><trkpt lat="41.62825902601916" lon="-2.034773471851863"><ele>1053.8</ele><time>2026-05-03T14:04:16Z</time></trkpt><trkpt lat="41.62820845979943" lon="-2.03464927110024"><ele>1053.4</ele><time>2026-05-03T14:04:17Z</time></trkpt><trkpt lat="41.62815593343788" lon="-2.0345174636406953"><ele>1053.0</ele><time>2026-05-03T14:04:18Z</time></trkpt><trkpt lat="41.62810302699174" lon="-2.0343949106165224"><ele>1053.0</ele><time>2026-05-03T14:04:19Z</time></trkpt><trkpt lat="41.628052070931766" lon="-2.0342680108773026"><ele>1053.0</ele><time>2026-05-03T14:04:20Z</time></trkpt><trkpt lat="41.62799962599921" lon="-2.0341419198810033"><ele>1053.0</ele><time>2026-05-03T14:04:21Z</time></trkpt><trkpt lat="41.62793533294193" lon="-2.0340231742813075"><ele>1053.0</ele><time>2026-05-03T14:04:22Z</time></trkpt><trkpt lat="41.627895677030175" lon="-2.0338847313005206"><ele>1053.0</ele><time>2026-05-03T14:04:23Z</time></trkpt><trkpt lat="41.62784281332175" lon="-2.0337556562875854"><ele>1053.4</ele><time>2026-05-03T14:04:24Z</time></trkpt><trkpt lat="41.62778880163082" lon="-2.0336248247238338"><ele>1053.8</ele><time>2026-05-03T14:04:25Z</time></trkpt><trkpt lat="41.62773507040812" lon="-2.0334930529697575"><ele>1054.2</ele><time>2026-05-03T14:04:26Z</time></trkpt><trkpt lat="41.62768167896967" lon="-2.033359648871975"><ele>1054.6</ele><time>2026-05-03T14:04:27Z</time></trkpt><trkpt lat="41.627628273306875" lon="-2.0332316499182888"><ele>1055.0</ele><time>2026-05-03T14:04:28Z</time></trkpt><trkpt lat="41.62757509861896" lon="-2.03310395637649"><ele>1055.0</ele><time>2026-05-03T14:04:29Z</time></trkpt><trkpt lat="41.62752351125884" lon="-2.0329761540721685"><ele>1055.0</ele><time>2026-05-03T14:04:30Z</time></trkpt><trkpt lat="41.6274729415483" lon="-2.0328480144470307"><ele>1055.0</ele><time>2026-05-03T14:04:31Z</time></trkpt><trkpt lat="41.62742255600245" lon="-2.032723348175896"><ele>1055.0</ele><time>2026-05-03T14:04:32Z</time></trkpt><trkpt lat="41.6273702848714" lon="-2.0325986418439457"><ele>1055.0</ele><time>2026-05-03T14:04:33Z</time></trkpt><trkpt lat="41.62731814974266" lon="-2.032473287240187"><ele>1054.8</ele><time>2026-05-03T14:04:34Z</time></trkpt><trkpt lat="41.6272688628298" lon="-2.0323498744377826"><ele>1054.6</ele><time>2026-05-03T14:04:35Z</time></trkpt><trkpt lat="41.62721614077359" lon="-2.032227118202673"><ele>1054.4</ele><time>2026-05-03T14:04:36Z</time></trkpt><trkpt lat="41.62716658159445" lon="-2.0321027166957"><ele>1054.2</ele><time>2026-05-03T14:04:37Z</time></trkpt><trkpt lat="41.62711634698533" lon="-2.031981781501585"><ele>1054.0</ele><time>2026-05-03T14:04:38Z</time></trkpt><trkpt lat="41.627066849740494" lon="-2.0318601076808336"><ele>1054.0</ele><time>2026-05-03T14:04:39Z</time></trkpt><trkpt lat="41.627017231823565" lon="-2.0317387448406015"><ele>1054.0</ele><time>2026-05-03T14:04:40Z</time></trkpt><trkpt lat="41.62696708044487" lon="-2.031617984426007"><ele>1054.0</ele><time>2026-05-03T14:04:41Z</time></trkpt><trkpt lat="41.62691653636727" lon="-2.031497497912777"><ele>1054.0</ele><time>2026-05-03T14:04:42Z</time></trkpt><trkpt lat="41.62686530252106" lon="-2.031376089715971"><ele>1054.0</ele><time>2026-05-03T14:04:43Z</time></trkpt><trkpt lat="41.62681662609804" lon="-2.0312551632018563"><ele>1054.2</ele><time>2026-05-03T14:04:44Z</time></trkpt><trkpt lat="41.62677027727234" lon="-2.0311295123933064"><ele>1054.4</ele><time>2026-05-03T14:04:45Z</time></trkpt><trkpt lat="41.62671749536783" lon="-2.031007794057649"><ele>1054.6</ele><time>2026-05-03T14:04:46Z</time></trkpt><trkpt lat="41.626664271755175" lon="-2.030887538295729"><ele>1054.8</ele><time>2026-05-03T14:04:47Z</time></trkpt><trkpt lat="41.62661686710067" lon="-2.0307673877627592"><ele>1055.0</ele><time>2026-05-03T14:04:48Z</time></trkpt><trkpt lat="41.62656898869505" lon="-2.03064476376422"><ele>1055.0</ele><time>2026-05-03T14:04:49Z</time></trkpt><trkpt lat="41.62651784107327" lon="-2.030524126945103"><ele>1055.0</ele><time>2026-05-03T14:04:50Z</time></trkpt><trkpt lat="41.626467341819605" lon="-2.030404265840963"><ele>1055.0</ele><time>2026-05-03T14:04:51Z</time></trkpt><trkpt lat="41.62641673893133" lon="-2.0302833817740575"><ele>1055.0</ele><time>2026-05-03T14:04:52Z</time></trkpt><trkpt lat="41.62636764738744" lon="-2.0301645477500183"><ele>1055.0</ele><time>2026-05-03T14:04:53Z</time></trkpt><trkpt lat="41.626318088076886" lon="-2.0300436804640083"><ele>1055.0</ele><time>2026-05-03T14:04:54Z</time></trkpt><trkpt lat="41.62626962738241" lon="-2.0299226288632504"><ele>1055.0</ele><time>2026-05-03T14:04:55Z</time></trkpt><trkpt lat="41.62622045154255" lon="-2.0297987491730356"><ele>1055.0</ele><time>2026-05-03T14:04:56Z</time></trkpt><trkpt lat="41.62616930631171" lon="-2.02967909094385"><ele>1055.0</ele><time>2026-05-03T14:04:57Z</time></trkpt><trkpt lat="41.626120827417914" lon="-2.029557243683397"><ele>1055.0</ele><time>2026-05-03T14:04:58Z</time></trkpt><trkpt lat="41.62607088605549" lon="-2.0294368316644826"><ele>1055.2</ele><time>2026-05-03T14:04:59Z</time></trkpt><trkpt lat="41.62601967339747" lon="-2.0293151629346515"><ele>1055.4</ele><time>2026-05-03T14:05:00Z</time></trkpt><trkpt lat="41.625970539314565" lon="-2.0291939424607244"><ele>1055.6</ele><time>2026-05-03T14:05:01Z</time></trkpt><trkpt lat="41.62592380419454" lon="-2.0290711578305114"><ele>1055.8</ele><time>2026-05-03T14:05:02Z</time></trkpt><trkpt lat="41.62585979906471" lon="-2.0289614244168637"><ele>1056.0</ele><time>2026-05-03T14:05:03Z</time></trkpt><trkpt lat="41.62581666589577" lon="-2.0288331306043594"><ele>1056.0</ele><time>2026-05-03T14:05:04Z</time></trkpt><trkpt lat="41.62577109626952" lon="-2.0287099786127696"><ele>1056.0</ele><time>2026-05-03T14:05:05Z</time></trkpt><trkpt lat="41.62572044567606" lon="-2.0285841462548806"><ele>1056.0</ele><time>2026-05-03T14:05:06Z</time></trkpt><trkpt lat="41.62566630611628" lon="-2.0284654799378763"><ele>1056.0</ele><time>2026-05-03T14:05:07Z</time></trkpt><trkpt lat="41.62562030922993" lon="-2.02833904371349"><ele>1056.0</ele><time>2026-05-03T14:05:08Z</time></trkpt><trkpt lat="41.6255678699231" lon="-2.0282170717974757"><ele>1056.2</ele><time>2026-05-03T14:05:09Z</time></trkpt><trkpt lat="41.62551698147916" lon="-2.028092974436285"><ele>1056.3999999999999</ele><time>2026-05-03T14:05:10Z</time></trkpt><trkpt lat="41.625463164251485" lon="-2.0279684779139635"><ele>1056.6</ele><time>2026-05-03T14:05:11Z</time></trkpt><trkpt lat="41.62540765629998" lon="-2.0278491342101654"><ele>1056.8</ele><time>2026-05-03T14:05:12Z</time></trkpt><trkpt lat="41.62536178836819" lon="-2.0277227954044066"><ele>1057.0</ele><time>2026-05-03T14:05:13Z</time></trkpt><trkpt lat="41.62531112176978" lon="-2.027601268959728"><ele>1057.2</ele><time>2026-05-03T14:05:14Z</time></trkpt><trkpt lat="41.62525956855247" lon="-2.0274772761801527"><ele>1057.4</ele><time>2026-05-03T14:05:15Z</time></trkpt><trkpt lat="41.6252072645604" lon="-2.0273503136632436"><ele>1057.6</ele><time>2026-05-03T14:05:16Z</time></trkpt><trkpt lat="41.625150125539236" lon="-2.027230515526374"><ele>1057.8</ele><time>2026-05-03T14:05:17Z</time></trkpt><trkpt lat="41.62509341792555" lon="-2.027106387126844"><ele>1058.0</ele><time>2026-05-03T14:05:18Z</time></trkpt><trkpt lat="41.6250505050523" lon="-2.0269800572928975"><ele>1058.0</ele><time>2026-05-03T14:05:19Z</time></trkpt><trkpt lat="41.624997738469546" lon="-2.0268524873295135"><ele>1058.0</ele><time>2026-05-03T14:05:20Z</time></trkpt><trkpt lat="41.624939794844956" lon="-2.0267208324821384"><ele>1058.0</ele><time>2026-05-03T14:05:21Z</time></trkpt><trkpt lat="41.62488742439002" lon="-2.0265881784443174"><ele>1058.0</ele><time>2026-05-03T14:05:22Z</time></trkpt><trkpt lat="41.62483990923181" lon="-2.0264711024062585"><ele>1058.0</ele><time>2026-05-03T14:05:23Z</time></trkpt><trkpt lat="41.62478959950498" lon="-2.0263419997326797"><ele>1058.0</ele><time>2026-05-03T14:05:24.001Z</time></trkpt><trkpt lat="41.62473693766748" lon="-2.0262130372062326"><ele>1058.0</ele><time>2026-05-03T14:05:25.001Z</time></trkpt><trkpt lat="41.62468522644519" lon="-2.0260821094942765"><ele>1058.0</ele><time>2026-05-03T14:05:26.001Z</time></trkpt><trkpt lat="41.62463105543032" lon="-2.0259519299032505"><ele>1058.0</ele><time>2026-05-03T14:05:27.001Z</time></trkpt><trkpt lat="41.624575629021585" lon="-2.0258232690883897"><ele>1058.0</ele><time>2026-05-03T14:05:28.001Z</time></trkpt><trkpt lat="41.624522911211095" lon="-2.0256885535693083"><ele>1058.4</ele><time>2026-05-03T14:05:29.001Z</time></trkpt><trkpt lat="41.6244726422856" lon="-2.0255563017266858"><ele>1058.8</ele><time>2026-05-03T14:05:30.001Z</time></trkpt><trkpt lat="41.62441872799505" lon="-2.025425819243942"><ele>1059.2</ele><time>2026-05-03T14:05:31.001Z</time></trkpt><trkpt lat="41.62436416892815" lon="-2.0252964978812753"><ele>1059.6</ele><time>2026-05-03T14:05:32.001Z</time></trkpt><trkpt lat="41.62431058516208" lon="-2.0251631582247303"><ele>1060.0</ele><time>2026-05-03T14:05:33.001Z</time></trkpt><trkpt lat="41.62425594309855" lon="-2.025036304983353"><ele>1060.0</ele><time>2026-05-03T14:05:34.001Z</time></trkpt><trkpt lat="41.62420253129347" lon="-2.024908275897537"><ele>1060.0</ele><time>2026-05-03T14:05:35.001Z</time></trkpt><trkpt lat="41.62414803017716" lon="-2.0247862275480166"><ele>1060.0</ele><time>2026-05-03T14:05:36.001Z</time></trkpt><trkpt lat="41.624097149070565" lon="-2.0246578017800636"><ele>1060.0</ele><time>2026-05-03T14:05:37.001Z</time></trkpt><trkpt lat="41.62404692927071" lon="-2.0245331635028094"><ele>1060.0</ele><time>2026-05-03T14:05:38.001Z</time></trkpt><trkpt lat="41.623994011220866" lon="-2.0244050075730655"><ele>1060.0</ele><time>2026-05-03T14:05:39.001Z</time></trkpt><trkpt lat="41.62394054184355" lon="-2.0242792215469514"><ele>1060.0</ele><time>2026-05-03T14:05:40.001Z</time></trkpt><trkpt lat="41.62388728466951" lon="-2.0241533971005876"><ele>1060.0</ele><time>2026-05-03T14:05:41.001Z</time></trkpt><trkpt lat="41.62383281882478" lon="-2.0240293897086152"><ele>1060.0</ele><time>2026-05-03T14:05:42.001Z</time></trkpt><trkpt lat="41.623780482397855" lon="-2.023906044756338"><ele>1060.0</ele><time>2026-05-03T14:05:43.001Z</time></trkpt><trkpt lat="41.62372904739962" lon="-2.023782354136952"><ele>1060.4</ele><time>2026-05-03T14:05:44.001Z</time></trkpt><trkpt lat="41.62367651624289" lon="-2.023655195238524"><ele>1060.8</ele><time>2026-05-03T14:05:45.001Z</time></trkpt><trkpt lat="41.623625347769995" lon="-2.023532108581354"><ele>1061.2</ele><time>2026-05-03T14:05:46.001Z</time></trkpt><trkpt lat="41.623573034845954" lon="-2.023410387696787"><ele>1061.6</ele><time>2026-05-03T14:05:47.001Z</time></trkpt><trkpt lat="41.62351987185228" lon="-2.0232880778593554"><ele>1062.0</ele><time>2026-05-03T14:05:48.001Z</time></trkpt><trkpt lat="41.62346631206095" lon="-2.023164865230155"><ele>1062.2</ele><time>2026-05-03T14:05:49.001Z</time></trkpt><trkpt lat="41.62341362864586" lon="-2.0230409031507643"><ele>1062.4</ele><time>2026-05-03T14:05:50.001Z</time></trkpt><trkpt lat="41.623360858727956" lon="-2.0229161337683124"><ele>1062.6</ele><time>2026-05-03T14:05:51.001Z</time></trkpt><trkpt lat="41.62330752568932" lon="-2.0227895543881806"><ele>1062.8</ele><time>2026-05-03T14:05:52.001Z</time></trkpt><trkpt lat="41.623255899072674" lon="-2.02266436074539"><ele>1063.0</ele><time>2026-05-03T14:05:53.001Z</time></trkpt><trkpt lat="41.62320663087366" lon="-2.022538563436597"><ele>1063.2</ele><time>2026-05-03T14:05:54.001Z</time></trkpt><trkpt lat="41.623159660157576" lon="-2.02241127390553"><ele>1063.4</ele><time>2026-05-03T14:05:55.001Z</time></trkpt><trkpt lat="41.623109923756225" lon="-2.0222853416288586"><ele>1063.6000000000001</ele><time>2026-05-03T14:05:56.001Z</time></trkpt><trkpt lat="41.6230628859009" lon="-2.0221631408592655"><ele>1063.8</ele><time>2026-05-03T14:05:57.001Z</time></trkpt><trkpt lat="41.62301161827747" lon="-2.0220394727017754"><ele>1064.0</ele><time>2026-05-03T14:05:58.001Z</time></trkpt><trkpt lat="41.622962098102356" lon="-2.021914992170355"><ele>1064.0</ele><time>2026-05-03T14:05:59.001Z</time></trkpt><trkpt lat="41.62291343253537" lon="-2.02178734991886"><ele>1064.0</ele><time>2026-05-03T14:06:00.001Z</time></trkpt><trkpt lat="41.62286643231299" lon="-2.021657732030862"><ele>1064.0</ele><time>2026-05-03T14:06:01.001Z</time></trkpt><trkpt lat="41.62281578992179" lon="-2.0215331372679333"><ele>1064.0</ele><time>2026-05-03T14:06:02.001Z</time></trkpt><trkpt lat="41.622769766762154" lon="-2.0214111893589766"><ele>1064.0</ele><time>2026-05-03T14:06:03.001Z</time></trkpt><trkpt lat="41.6227186119379" lon="-2.021284922516295"><ele>1064.2</ele><time>2026-05-03T14:06:04.001Z</time></trkpt><trkpt lat="41.62266867437524" lon="-2.0211621181731076"><ele>1064.4</ele><time>2026-05-03T14:06:05.001Z</time></trkpt><trkpt lat="41.62261772686408" lon="-2.0210375294548597"><ele>1064.6</ele><time>2026-05-03T14:06:06Z</time></trkpt><trkpt lat="41.62257013505062" lon="-2.020911553061137"><ele>1064.8</ele><time>2026-05-03T14:06:07Z</time></trkpt><trkpt lat="41.622533346397255" lon="-2.020783512347029"><ele>1065.0</ele><time>2026-05-03T14:06:08Z</time></trkpt><trkpt lat="41.62249572232984" lon="-2.020651653559515"><ele>1065.2</ele><time>2026-05-03T14:06:09Z</time></trkpt><trkpt lat="41.622454998080215" lon="-2.0205223770541503"><ele>1065.4</ele><time>2026-05-03T14:06:10Z</time></trkpt><trkpt lat="41.62242029017832" lon="-2.020391833723688"><ele>1065.6</ele><time>2026-05-03T14:06:11Z</time></trkpt><trkpt lat="41.62238440719494" lon="-2.020261576674172"><ele>1065.8</ele><time>2026-05-03T14:06:12Z</time></trkpt><trkpt lat="41.62234572218917" lon="-2.020132128391602"><ele>1066.0</ele><time>2026-05-03T14:06:13Z</time></trkpt><trkpt lat="41.62230977863995" lon="-2.0200008057969097"><ele>1066.3999999999999</ele><time>2026-05-03T14:06:14Z</time></trkpt><trkpt lat="41.62228100120756" lon="-2.019865209344067"><ele>1066.8</ele><time>2026-05-03T14:06:15Z</time></trkpt><trkpt lat="41.62225577466525" lon="-2.0197274509272516"><ele>1067.1999999999998</ele><time>2026-05-03T14:06:16Z</time></trkpt><trkpt lat="41.62223229374602" lon="-2.0195895616448705"><ele>1067.6</ele><time>2026-05-03T14:06:17Z</time></trkpt><trkpt lat="41.62220758488556" lon="-2.0194527007614003"><ele>1068.0</ele><time>2026-05-03T14:06:18Z</time></trkpt><trkpt lat="41.622185424257076" lon="-2.0193131219556646"><ele>1068.0</ele><time>2026-05-03T14:06:19Z</time></trkpt><trkpt lat="41.62217082841137" lon="-2.0191724201654426"><ele>1068.0</ele><time>2026-05-03T14:06:20Z</time></trkpt><trkpt lat="41.622157390700636" lon="-2.0190307626548645"><ele>1068.0</ele><time>2026-05-03T14:06:21Z</time></trkpt><trkpt lat="41.62214648234655" lon="-2.018889167649861"><ele>1068.0</ele><time>2026-05-03T14:06:22Z</time></trkpt><trkpt lat="41.62213547538577" lon="-2.018747762558959"><ele>1068.0</ele><time>2026-05-03T14:06:23Z</time></trkpt><trkpt lat="41.62212639995634" lon="-2.0186044187663414"><ele>1068.2</ele><time>2026-05-03T14:06:24Z</time></trkpt><trkpt lat="41.622115999027564" lon="-2.0184542670712196"><ele>1068.4</ele><time>2026-05-03T14:06:25Z</time></trkpt><trkpt lat="41.6221166111695" lon="-2.0183279146536894"><ele>1068.6000000000001</ele><time>2026-05-03T14:06:26Z</time></trkpt><trkpt lat="41.62211465109442" lon="-2.0181673181979796"><ele>1068.8</ele><time>2026-05-03T14:06:27Z</time></trkpt><trkpt lat="41.62211759090321" lon="-2.0180237246919432"><ele>1069.0</ele><time>2026-05-03T14:06:28Z</time></trkpt><trkpt lat="41.6221248360217" lon="-2.017884051017037"><ele>1069.6000000000001</ele><time>2026-05-03T14:06:29Z</time></trkpt><trkpt lat="41.62213049305667" lon="-2.0177430646747494"><ele>1070.2</ele><time>2026-05-03T14:06:30Z</time></trkpt><trkpt lat="41.62213943110913" lon="-2.0175983831985795"><ele>1070.8000000000002</ele><time>2026-05-03T14:06:31Z</time></trkpt><trkpt lat="41.62214531441523" lon="-2.0174563078637533"><ele>1071.4</ele><time>2026-05-03T14:06:32Z</time></trkpt><trkpt lat="41.62215473103252" lon="-2.01731585707203"><ele>1072.0</ele><time>2026-05-03T14:06:33Z</time></trkpt><trkpt lat="41.62216588581605" lon="-2.0171733925446316"><ele>1072.0</ele><time>2026-05-03T14:06:34Z</time></trkpt><trkpt lat="41.62217713542558" lon="-2.0170350735880964"><ele>1072.0</ele><time>2026-05-03T14:06:35Z</time></trkpt><trkpt lat="41.62219204805469" lon="-2.016896243546333"><ele>1072.0</ele><time>2026-05-03T14:06:36Z</time></trkpt><trkpt lat="41.62221065146936" lon="-2.0167601900337524"><ele>1072.0</ele><time>2026-05-03T14:06:37Z</time></trkpt><trkpt lat="41.62223165523262" lon="-2.016620691425679"><ele>1072.0</ele><time>2026-05-03T14:06:38Z</time></trkpt><trkpt lat="41.622251612272336" lon="-2.0164864811211207"><ele>1072.2</ele><time>2026-05-03T14:06:39Z</time></trkpt><trkpt lat="41.62227427029265" lon="-2.0163513367024617"><ele>1072.4</ele><time>2026-05-03T14:06:40Z</time></trkpt><trkpt lat="41.62229936235821" lon="-2.016217441950404"><ele>1072.6</ele><time>2026-05-03T14:06:41Z</time></trkpt><trkpt lat="41.62232646260635" lon="-2.0160846531862675"><ele>1072.8</ele><time>2026-05-03T14:06:42Z</time></trkpt><trkpt lat="41.622356788669435" lon="-2.015951408010299"><ele>1073.0</ele><time>2026-05-03T14:06:43Z</time></trkpt><trkpt lat="41.6223870786063" lon="-2.0158215105898685"><ele>1072.8</ele><time>2026-05-03T14:06:44Z</time></trkpt><trkpt lat="41.62241898148357" lon="-2.0156916353102172"><ele>1072.6</ele><time>2026-05-03T14:06:45Z</time></trkpt><trkpt lat="41.6224532795681" lon="-2.0155618157424646"><ele>1072.4</ele><time>2026-05-03T14:06:46Z</time></trkpt><trkpt lat="41.622490354940375" lon="-2.0154356821257"><ele>1072.2</ele><time>2026-05-03T14:06:47Z</time></trkpt><trkpt lat="41.622527520358624" lon="-2.0153082331765813"><ele>1072.0</ele><time>2026-05-03T14:06:48Z</time></trkpt><trkpt lat="41.622569664397886" lon="-2.0151797597744983"><ele>1072.0</ele><time>2026-05-03T14:06:49Z</time></trkpt><trkpt lat="41.62260709559595" lon="-2.015052305671246"><ele>1072.0</ele><time>2026-05-03T14:06:50Z</time></trkpt><trkpt lat="41.62265060438234" lon="-2.0149279506299704"><ele>1072.0</ele><time>2026-05-03T14:06:51Z</time></trkpt><trkpt lat="41.622696887065146" lon="-2.0147991702362438"><ele>1072.0</ele><time>2026-05-03T14:06:52Z</time></trkpt><trkpt lat="41.62273709652385" lon="-2.0146696623869063"><ele>1072.0</ele><time>2026-05-03T14:06:53Z</time></trkpt><trkpt lat="41.62277524216722" lon="-2.014539673151252"><ele>1072.8</ele><time>2026-05-03T14:06:54Z</time></trkpt><trkpt lat="41.622815799801444" lon="-2.0144089703998356"><ele>1073.6</ele><time>2026-05-03T14:06:55Z</time></trkpt><trkpt lat="41.622852866801054" lon="-2.0142764093228385"><ele>1074.3999999999999</ele><time>2026-05-03T14:06:56Z</time></trkpt><trkpt lat="41.62289393544168" lon="-2.0141403629253873"><ele>1075.2</ele><time>2026-05-03T14:06:57Z</time></trkpt><trkpt lat="41.62293070324063" lon="-2.014008835658335"><ele>1076.0</ele><time>2026-05-03T14:06:58Z</time></trkpt><trkpt lat="41.62297162186283" lon="-2.013873926341527"><ele>1076.0</ele><time>2026-05-03T14:06:59Z</time></trkpt><trkpt lat="41.623008483283314" lon="-2.0137331671624934"><ele>1076.0</ele><time>2026-05-03T14:07:00Z</time></trkpt><trkpt lat="41.62304347106165" lon="-2.013534841735931"><ele>1076.0</ele><time>2026-05-03T14:07:01Z</time></trkpt><trkpt lat="41.623107647955145" lon="-2.0133287615063757"><ele>1076.0</ele><time>2026-05-03T14:07:03Z</time></trkpt><trkpt lat="41.623136679837415" lon="-2.0131868113118916"><ele>1075.6</ele><time>2026-05-03T14:07:04Z</time></trkpt><trkpt lat="41.62316186082392" lon="-2.013041806068291"><ele>1075.1999999999998</ele><time>2026-05-03T14:07:05Z</time></trkpt><trkpt lat="41.62318692561139" lon="-2.012897956165666"><ele>1074.8000000000002</ele><time>2026-05-03T14:07:06Z</time></trkpt><trkpt lat="41.623208481950925" lon="-2.0127540174859107"><ele>1074.4</ele><time>2026-05-03T14:07:07Z</time></trkpt><trkpt lat="41.62322455279016" lon="-2.012608645644891"><ele>1074.0</ele><time>2026-05-03T14:07:08Z</time></trkpt><trkpt lat="41.62323890621854" lon="-2.0124600998443625"><ele>1073.8</ele><time>2026-05-03T14:07:09Z</time></trkpt><trkpt lat="41.62325020339918" lon="-2.012313425908982"><ele>1073.6000000000001</ele><time>2026-05-03T14:07:10Z</time></trkpt><trkpt lat="41.62326074114451" lon="-2.0121709224607867"><ele>1073.4</ele><time>2026-05-03T14:07:11Z</time></trkpt><trkpt lat="41.6232682672827" lon="-2.0120226908883203"><ele>1073.2</ele><time>2026-05-03T14:07:12Z</time></trkpt><trkpt lat="41.623275780238714" lon="-2.0118753684477526"><ele>1073.0</ele><time>2026-05-03T14:07:13Z</time></trkpt><trkpt lat="41.623278873130076" lon="-2.011727948301831"><ele>1072.8</ele><time>2026-05-03T14:07:14Z</time></trkpt><trkpt lat="41.623277485117015" lon="-2.011580187878459"><ele>1072.6</ele><time>2026-05-03T14:07:15Z</time></trkpt><trkpt lat="41.623273812591364" lon="-2.0114328183481014"><ele>1072.4</ele><time>2026-05-03T14:07:16Z</time></trkpt><trkpt lat="41.62326997453128" lon="-2.01128384666265"><ele>1072.2</ele><time>2026-05-03T14:07:17Z</time></trkpt><trkpt lat="41.62325881386556" lon="-2.011132199788709"><ele>1072.0</ele><time>2026-05-03T14:07:18Z</time></trkpt><trkpt lat="41.62324868608101" lon="-2.010985086713325"><ele>1072.0</ele><time>2026-05-03T14:07:19Z</time></trkpt><trkpt lat="41.62323255139806" lon="-2.0108375164774723"><ele>1072.0</ele><time>2026-05-03T14:07:20Z</time></trkpt><trkpt lat="41.62321330491818" lon="-2.0106875850804204"><ele>1072.0</ele><time>2026-05-03T14:07:21Z</time></trkpt><trkpt lat="41.623190574125424" lon="-2.0105357071366545"><ele>1072.0</ele><time>2026-05-03T14:07:22Z</time></trkpt><trkpt lat="41.623169455589746" lon="-2.0103926234211755"><ele>1072.2</ele><time>2026-05-03T14:07:23Z</time></trkpt><trkpt lat="41.62314762952679" lon="-2.0102446656162076"><ele>1072.4</ele><time>2026-05-03T14:07:24Z</time></trkpt><trkpt lat="41.62312193354441" lon="-2.0100997234600095"><ele>1072.6</ele><time>2026-05-03T14:07:25Z</time></trkpt><trkpt lat="41.62309548670632" lon="-2.009954562377753"><ele>1072.8</ele><time>2026-05-03T14:07:26.001Z</time></trkpt><trkpt lat="41.62306382022532" lon="-2.00981202097647"><ele>1073.0</ele><time>2026-05-03T14:07:27.001Z</time></trkpt><trkpt lat="41.623027080317115" lon="-2.009672136945088"><ele>1073.0</ele><time>2026-05-03T14:07:28.001Z</time></trkpt><trkpt lat="41.622987238777036" lon="-2.009532164079103"><ele>1073.0</ele><time>2026-05-03T14:07:29.001Z</time></trkpt><trkpt lat="41.62294476002953" lon="-2.009394310227693"><ele>1073.0</ele><time>2026-05-03T14:07:30.001Z</time></trkpt><trkpt lat="41.622902977140726" lon="-2.009259384702419"><ele>1073.0</ele><time>2026-05-03T14:07:31.001Z</time></trkpt><trkpt lat="41.62285481050252" lon="-2.009129101428769"><ele>1073.0</ele><time>2026-05-03T14:07:32.001Z</time></trkpt><trkpt lat="41.62280571515708" lon="-2.0089947669773407"><ele>1073.4</ele><time>2026-05-03T14:07:33.001Z</time></trkpt><trkpt lat="41.622762805097025" lon="-2.008859358721593"><ele>1073.8</ele><time>2026-05-03T14:07:34.001Z</time></trkpt><trkpt lat="41.622713918972025" lon="-2.008738794913726"><ele>1074.2</ele><time>2026-05-03T14:07:35.001Z</time></trkpt><trkpt lat="41.62264617398526" lon="-2.00866668043804"><ele>1074.6</ele><time>2026-05-03T14:07:36.001Z</time></trkpt><trkpt lat="41.62255194899715" lon="-2.00855948521732"><ele>1075.0</ele><time>2026-05-03T14:07:37.001Z</time></trkpt><trkpt lat="41.62256828089945" lon="-2.0083597094473293"><ele>1075.0</ele><time>2026-05-03T14:07:38.001Z</time></trkpt><trkpt lat="41.622527367037954" lon="-2.008248806094656"><ele>1075.0</ele><time>2026-05-03T14:07:39.001Z</time></trkpt><trkpt lat="41.62247917437148" lon="-2.0081120494998435"><ele>1075.0</ele><time>2026-05-03T14:07:40.001Z</time></trkpt><trkpt lat="41.622438528672724" lon="-2.0079456226356207"><ele>1075.0</ele><time>2026-05-03T14:07:41.001Z</time></trkpt><trkpt lat="41.62238052448074" lon="-2.0078321101282546"><ele>1075.0</ele><time>2026-05-03T14:07:42.001Z</time></trkpt><trkpt lat="41.62233472647429" lon="-2.0077021488904188"><ele>1075.0</ele><time>2026-05-03T14:07:43.001Z</time></trkpt><trkpt lat="41.62228820832521" lon="-2.0075701438293527"><ele>1075.0</ele><time>2026-05-03T14:07:44.001Z</time></trkpt><trkpt lat="41.62224242413926" lon="-2.007438752228496"><ele>1075.0</ele><time>2026-05-03T14:07:45.001Z</time></trkpt><trkpt lat="41.62219736728918" lon="-2.007309068557223"><ele>1075.0</ele><time>2026-05-03T14:07:46.001Z</time></trkpt><trkpt lat="41.62215275530385" lon="-2.0071806653842397"><ele>1075.0</ele><time>2026-05-03T14:07:47.001Z</time></trkpt><trkpt lat="41.62212282124718" lon="-2.0070425929330566"><ele>1075.0</ele><time>2026-05-03T14:07:48.001Z</time></trkpt><trkpt lat="41.62207081161071" lon="-2.0069156961291403"><ele>1075.0</ele><time>2026-05-03T14:07:49.001Z</time></trkpt><trkpt lat="41.62202725016196" lon="-2.006786911329623"><ele>1075.0</ele><time>2026-05-03T14:07:50.001Z</time></trkpt><trkpt lat="41.62198356294963" lon="-2.006656640860603"><ele>1075.0</ele><time>2026-05-03T14:07:51.001Z</time></trkpt><trkpt lat="41.621936098034496" lon="-2.006529117706962"><ele>1075.0</ele><time>2026-05-03T14:07:52.001Z</time></trkpt><trkpt lat="41.62189259916465" lon="-2.006397852605594"><ele>1075.0</ele><time>2026-05-03T14:07:53.001Z</time></trkpt><trkpt lat="41.62184824782459" lon="-2.006269866965847"><ele>1075.0</ele><time>2026-05-03T14:07:54.001Z</time></trkpt><trkpt lat="41.621803371749735" lon="-2.006139480033199"><ele>1075.0</ele><time>2026-05-03T14:07:55.001Z</time></trkpt><trkpt lat="41.62175780437126" lon="-2.0060114813147703"><ele>1075.0</ele><time>2026-05-03T14:07:56.001Z</time></trkpt><trkpt lat="41.621715945311415" lon="-2.0058841904263733"><ele>1075.0</ele><time>2026-05-03T14:07:57.001Z</time></trkpt><trkpt lat="41.62167259393219" lon="-2.0057523072372083"><ele>1075.0</ele><time>2026-05-03T14:07:58.001Z</time></trkpt><trkpt lat="41.62162681007954" lon="-2.005619632400262"><ele>1075.0</ele><time>2026-05-03T14:07:59.001Z</time></trkpt><trkpt lat="41.62157896855813" lon="-2.005494708508111"><ele>1075.0</ele><time>2026-05-03T14:08:00.001Z</time></trkpt><trkpt lat="41.6215342820375" lon="-2.005365739178377"><ele>1075.0</ele><time>2026-05-03T14:08:01.001Z</time></trkpt><trkpt lat="41.62149034928867" lon="-2.0052365289439624"><ele>1075.0</ele><time>2026-05-03T14:08:02.001Z</time></trkpt><trkpt lat="41.62144292378092" lon="-2.0051061328226236"><ele>1075.2</ele><time>2026-05-03T14:08:03.001Z</time></trkpt><trkpt lat="41.62139915832713" lon="-2.004980255774903"><ele>1075.4</ele><time>2026-05-03T14:08:04.001Z</time></trkpt><trkpt lat="41.62135337921571" lon="-2.004850990629552"><ele>1075.6</ele><time>2026-05-03T14:08:05.001Z</time></trkpt><trkpt lat="41.621309730433154" lon="-2.0047219414471398"><ele>1075.8</ele><time>2026-05-03T14:08:06.001Z</time></trkpt><trkpt lat="41.621265684027705" lon="-2.004593801416944"><ele>1076.0</ele><time>2026-05-03T14:08:07.001Z</time></trkpt><trkpt lat="41.62122070569379" lon="-2.00446698648929"><ele>1076.0</ele><time>2026-05-03T14:08:08.001Z</time></trkpt><trkpt lat="41.62117603923692" lon="-2.0043353981612766"><ele>1076.0</ele><time>2026-05-03T14:08:09.001Z</time></trkpt><trkpt lat="41.62113059311847" lon="-2.0042093627558333"><ele>1076.0</ele><time>2026-05-03T14:08:10.001Z</time></trkpt><trkpt lat="41.62108468968729" lon="-2.004079506530156"><ele>1076.0</ele><time>2026-05-03T14:08:11.001Z</time></trkpt><trkpt lat="41.62104035704904" lon="-2.003951645296818"><ele>1076.0</ele><time>2026-05-03T14:08:12Z</time></trkpt><trkpt lat="41.620998247998315" lon="-2.003823500507389"><ele>1076.3999999999999</ele><time>2026-05-03T14:08:13Z</time></trkpt><trkpt lat="41.62095298642796" lon="-2.003694707495833"><ele>1076.8</ele><time>2026-05-03T14:08:14Z</time></trkpt><trkpt lat="41.62090747661502" lon="-2.00356737719443"><ele>1077.1999999999998</ele><time>2026-05-03T14:08:15Z</time></trkpt><trkpt lat="41.6208623271393" lon="-2.0034386981965144"><ele>1077.6</ele><time>2026-05-03T14:08:16Z</time></trkpt><trkpt lat="41.62081687193756" lon="-2.003310582652084"><ele>1078.0</ele><time>2026-05-03T14:08:17Z</time></trkpt><trkpt lat="41.620771351671785" lon="-2.0031846394881936"><ele>1078.0</ele><time>2026-05-03T14:08:18Z</time></trkpt><trkpt lat="41.62072692016267" lon="-2.0030570051491066"><ele>1078.0</ele><time>2026-05-03T14:08:19Z</time></trkpt><trkpt lat="41.620682153792615" lon="-2.0029307387591913"><ele>1078.0</ele><time>2026-05-03T14:08:20Z</time></trkpt><trkpt lat="41.620638708437966" lon="-2.002805716635167"><ele>1078.0</ele><time>2026-05-03T14:08:21Z</time></trkpt><trkpt lat="41.62059484770509" lon="-2.0026788627371306"><ele>1078.0</ele><time>2026-05-03T14:08:22Z</time></trkpt><trkpt lat="41.62055136006986" lon="-2.002549739507234"><ele>1078.0</ele><time>2026-05-03T14:08:23Z</time></trkpt><trkpt lat="41.62050803930461" lon="-2.002423630086272"><ele>1078.0</ele><time>2026-05-03T14:08:24Z</time></trkpt><trkpt lat="41.620463621333066" lon="-2.0022974628054655"><ele>1078.0</ele><time>2026-05-03T14:08:25Z</time></trkpt><trkpt lat="41.6204206285949" lon="-2.002171051026081"><ele>1078.0</ele><time>2026-05-03T14:08:26Z</time></trkpt><trkpt lat="41.620377458119094" lon="-2.0020444928718364"><ele>1078.0</ele><time>2026-05-03T14:08:27Z</time></trkpt><trkpt lat="41.62033514527136" lon="-2.001918036963207"><ele>1078.4</ele><time>2026-05-03T14:08:28Z</time></trkpt><trkpt lat="41.620290765678234" lon="-2.001791678797537"><ele>1078.8</ele><time>2026-05-03T14:08:29Z</time></trkpt><trkpt lat="41.620244886900124" lon="-2.001665903878072"><ele>1079.2</ele><time>2026-05-03T14:08:30Z</time></trkpt><trkpt lat="41.62019894055947" lon="-2.001540250944058"><ele>1079.6</ele><time>2026-05-03T14:08:31Z</time></trkpt><trkpt lat="41.6201554513562" lon="-2.001412915044778"><ele>1080.0</ele><time>2026-05-03T14:08:32Z</time></trkpt><trkpt lat="41.62011032572058" lon="-2.001288689291731"><ele>1080.4</ele><time>2026-05-03T14:08:33Z</time></trkpt><trkpt lat="41.62006586606396" lon="-2.001163001117833"><ele>1080.8</ele><time>2026-05-03T14:08:34Z</time></trkpt><trkpt lat="41.6200232470792" lon="-2.0010357893069712"><ele>1081.2</ele><time>2026-05-03T14:08:35Z</time></trkpt><trkpt lat="41.61998108682772" lon="-2.0009101248188963"><ele>1081.6</ele><time>2026-05-03T14:08:36Z</time></trkpt><trkpt lat="41.61993956210557" lon="-2.000780499779924"><ele>1082.0</ele><time>2026-05-03T14:08:37Z</time></trkpt><trkpt lat="41.6198956935464" lon="-2.0006590704465186"><ele>1082.0</ele><time>2026-05-03T14:08:38Z</time></trkpt><trkpt lat="41.61984956450212" lon="-2.0005324483610485"><ele>1082.0</ele><time>2026-05-03T14:08:39Z</time></trkpt><trkpt lat="41.61980638554939" lon="-2.0004058350073404"><ele>1082.0</ele><time>2026-05-03T14:08:40Z</time></trkpt><trkpt lat="41.619766713186806" lon="-2.000277647831759"><ele>1082.0</ele><time>2026-05-03T14:08:41Z</time></trkpt><trkpt lat="41.619719915532485" lon="-2.0001549597531776"><ele>1082.0</ele><time>2026-05-03T14:08:42Z</time></trkpt><trkpt lat="41.61967531715621" lon="-2.000029764302367"><ele>1082.0</ele><time>2026-05-03T14:08:43Z</time></trkpt><trkpt lat="41.619632940171286" lon="-1.9999041888150542"><ele>1082.0</ele><time>2026-05-03T14:08:44Z</time></trkpt><trkpt lat="41.61958972865382" lon="-1.9997784171044217"><ele>1082.0</ele><time>2026-05-03T14:08:45Z</time></trkpt><trkpt lat="41.61954759851977" lon="-1.9996532374591236"><ele>1082.0</ele><time>2026-05-03T14:08:46Z</time></trkpt><trkpt lat="41.61950314077967" lon="-1.9995335881150702"><ele>1082.0</ele><time>2026-05-03T14:08:47Z</time></trkpt><trkpt lat="41.61946360700465" lon="-1.9994077046653638"><ele>1082.2</ele><time>2026-05-03T14:08:48Z</time></trkpt><trkpt lat="41.61942012664463" lon="-1.999283003859924"><ele>1082.4</ele><time>2026-05-03T14:08:49Z</time></trkpt><trkpt lat="41.61937711540534" lon="-1.9991613744298986"><ele>1082.6</ele><time>2026-05-03T14:08:50Z</time></trkpt><trkpt lat="41.61933561562154" lon="-1.9990358630557152"><ele>1082.8</ele><time>2026-05-03T14:08:51Z</time></trkpt><trkpt lat="41.61928886232089" lon="-1.9989123949330105"><ele>1083.0</ele><time>2026-05-03T14:08:52Z</time></trkpt><trkpt lat="41.61924803299998" lon="-1.998789259732488"><ele>1083.4</ele><time>2026-05-03T14:08:53Z</time></trkpt><trkpt lat="41.6192047551521" lon="-1.9986671417066308"><ele>1083.8</ele><time>2026-05-03T14:08:54Z</time></trkpt><trkpt lat="41.619163189401995" lon="-1.9985416050126663"><ele>1084.2</ele><time>2026-05-03T14:08:55Z</time></trkpt><trkpt lat="41.61911681102546" lon="-1.9984222426903406"><ele>1084.6</ele><time>2026-05-03T14:08:56Z</time></trkpt><trkpt lat="41.619074836415926" lon="-1.9982996763505823"><ele>1085.0</ele><time>2026-05-03T14:08:57Z</time></trkpt><trkpt lat="41.619034827643745" lon="-1.9981795533243705"><ele>1085.0</ele><time>2026-05-03T14:08:58Z</time></trkpt><trkpt lat="41.61899069890439" lon="-1.9980592979860758"><ele>1085.0</ele><time>2026-05-03T14:08:59Z</time></trkpt><trkpt lat="41.618946873796126" lon="-1.9979386623928022"><ele>1085.0</ele><time>2026-05-03T14:09:00Z</time></trkpt><trkpt lat="41.61890254872736" lon="-1.9978243377530491"><ele>1085.0</ele><time>2026-05-03T14:09:01Z</time></trkpt><trkpt lat="41.61886088656468" lon="-1.9977002199754341"><ele>1085.0</ele><time>2026-05-03T14:09:02Z</time></trkpt><trkpt lat="41.61881853912485" lon="-1.9975824422591941"><ele>1085.4</ele><time>2026-05-03T14:09:03Z</time></trkpt><trkpt lat="41.61877844184028" lon="-1.997461374466064"><ele>1085.8</ele><time>2026-05-03T14:09:04Z</time></trkpt><trkpt lat="41.618735622954546" lon="-1.9973402759523926"><ele>1086.2</ele><time>2026-05-03T14:09:05Z</time></trkpt><trkpt lat="41.61868958122808" lon="-1.9972231802087776"><ele>1086.6</ele><time>2026-05-03T14:09:06Z</time></trkpt><trkpt lat="41.61865244691247" lon="-1.997099803082096"><ele>1087.0</ele><time>2026-05-03T14:09:07Z</time></trkpt><trkpt lat="41.61860922307822" lon="-1.99698129808438"><ele>1087.4</ele><time>2026-05-03T14:09:08Z</time></trkpt><trkpt lat="41.618567719756236" lon="-1.9968576506248996"><ele>1087.8000000000002</ele><time>2026-05-03T14:09:09Z</time></trkpt><trkpt lat="41.61852629071376" lon="-1.9967380324410275"><ele>1088.2</ele><time>2026-05-03T14:09:10Z</time></trkpt><trkpt lat="41.61848338553944" lon="-1.9966161951146366"><ele>1088.6000000000001</ele><time>2026-05-03T14:09:11Z</time></trkpt><trkpt lat="41.61844314001406" lon="-1.9964955023179982"><ele>1089.0</ele><time>2026-05-03T14:09:12Z</time></trkpt><trkpt lat="41.61840024305437" lon="-1.9963750267380982"><ele>1089.0</ele><time>2026-05-03T14:09:13Z</time></trkpt><trkpt lat="41.618360784219966" lon="-1.9962581314457843"><ele>1089.0</ele><time>2026-05-03T14:09:14Z</time></trkpt><trkpt lat="41.61832187087219" lon="-1.9961362450182978"><ele>1089.0</ele><time>2026-05-03T14:09:15Z</time></trkpt><trkpt lat="41.618278223140656" lon="-1.9960154578337759"><ele>1089.0</ele><time>2026-05-03T14:09:16Z</time></trkpt><trkpt lat="41.61823749982768" lon="-1.9958977259155297"><ele>1089.0</ele><time>2026-05-03T14:09:17Z</time></trkpt><trkpt lat="41.61819361417234" lon="-1.9957797004130386"><ele>1089.6000000000001</ele><time>2026-05-03T14:09:18Z</time></trkpt><trkpt lat="41.618150169702844" lon="-1.995656618833786"><ele>1090.2</ele><time>2026-05-03T14:09:19Z</time></trkpt><trkpt lat="41.61811189743497" lon="-1.9955376452929259"><ele>1090.8000000000002</ele><time>2026-05-03T14:09:20Z</time></trkpt><trkpt lat="41.61806975208135" lon="-1.9954144068793838"><ele>1091.4</ele><time>2026-05-03T14:09:21Z</time></trkpt><trkpt lat="41.61802594939452" lon="-1.995295077599228"><ele>1092.0</ele><time>2026-05-03T14:09:22Z</time></trkpt><trkpt lat="41.61798206873157" lon="-1.9951762452245767"><ele>1092.0</ele><time>2026-05-03T14:09:23Z</time></trkpt><trkpt lat="41.61794184190285" lon="-1.9950522298337305"><ele>1092.0</ele><time>2026-05-03T14:09:24Z</time></trkpt><trkpt lat="41.61789874008022" lon="-1.9949286095764729"><ele>1092.0</ele><time>2026-05-03T14:09:25Z</time></trkpt><trkpt lat="41.617854709438475" lon="-1.9948109427069924"><ele>1092.0</ele><time>2026-05-03T14:09:26Z</time></trkpt><trkpt lat="41.61781185564304" lon="-1.9946871081542892"><ele>1092.0</ele><time>2026-05-03T14:09:27Z</time></trkpt><trkpt lat="41.61777042216048" lon="-1.9945652757702854"><ele>1092.0</ele><time>2026-05-03T14:09:28Z</time></trkpt><trkpt lat="41.61772905452714" lon="-1.9944392707707876"><ele>1092.0</ele><time>2026-05-03T14:09:29Z</time></trkpt><trkpt lat="41.61768690951424" lon="-1.9943173486930394"><ele>1092.0</ele><time>2026-05-03T14:09:30Z</time></trkpt><trkpt lat="41.61764452505728" lon="-1.9941948485228391"><ele>1092.0</ele><time>2026-05-03T14:09:31Z</time></trkpt><trkpt lat="41.61760427076789" lon="-1.9940675497417468"><ele>1092.0</ele><time>2026-05-03T14:09:32Z</time></trkpt><trkpt lat="41.61756004054064" lon="-1.9939498775199518"><ele>1092.8</ele><time>2026-05-03T14:09:33Z</time></trkpt><trkpt lat="41.61751647513267" lon="-1.9938282334292752"><ele>1093.6</ele><time>2026-05-03T14:09:34Z</time></trkpt><trkpt lat="41.617473824420266" lon="-1.9937095578455815"><ele>1094.3999999999999</ele><time>2026-05-03T14:09:35Z</time></trkpt><trkpt lat="41.61743334807448" lon="-1.9935893885170415"><ele>1095.2</ele><time>2026-05-03T14:09:36Z</time></trkpt><trkpt lat="41.617393408692784" lon="-1.9934718408810552"><ele>1096.0</ele><time>2026-05-03T14:09:37Z</time></trkpt><trkpt lat="41.61735186300053" lon="-1.9933546428486597"><ele>1096.2</ele><time>2026-05-03T14:09:38Z</time></trkpt><trkpt lat="41.61731009613148" lon="-1.9932402858718745"><ele>1096.3999999999999</ele><time>2026-05-03T14:09:39Z</time></trkpt><trkpt lat="41.61727044613189" lon="-1.9931255139723816"><ele>1096.6</ele><time>2026-05-03T14:09:40Z</time></trkpt><trkpt lat="41.61723396971639" lon="-1.9930110764206888"><ele>1096.8</ele><time>2026-05-03T14:09:41Z</time></trkpt><trkpt lat="41.61719121112463" lon="-1.9928895687628008"><ele>1097.0</ele><time>2026-05-03T14:09:42Z</time></trkpt><trkpt lat="41.61715147216295" lon="-1.992781994383037"><ele>1097.0</ele><time>2026-05-03T14:09:43Z</time></trkpt><trkpt lat="41.617108818824676" lon="-1.992669165195936"><ele>1097.0</ele><time>2026-05-03T14:09:44Z</time></trkpt><trkpt lat="41.617072344291" lon="-1.9925562488750461"><ele>1097.0</ele><time>2026-05-03T14:09:45.001Z</time></trkpt><trkpt lat="41.61703628737458" lon="-1.992448043412095"><ele>1097.0</ele><time>2026-05-03T14:09:46.001Z</time></trkpt><trkpt lat="41.61699541544333" lon="-1.9923342167577012"><ele>1097.0</ele><time>2026-05-03T14:09:47.001Z</time></trkpt><trkpt lat="41.616954802830676" lon="-1.9922222767138569"><ele>1097.8</ele><time>2026-05-03T14:09:48.001Z</time></trkpt><trkpt lat="41.61691581864699" lon="-1.9921120078076846"><ele>1098.6</ele><time>2026-05-03T14:09:49.001Z</time></trkpt><trkpt lat="41.61688044552035" lon="-1.9919994002920285"><ele>1099.3999999999999</ele><time>2026-05-03T14:09:50.001Z</time></trkpt><trkpt lat="41.616840330151206" lon="-1.9918863321565947"><ele>1100.2</ele><time>2026-05-03T14:09:51.001Z</time></trkpt><trkpt lat="41.61680035063169" lon="-1.9917739551835103"><ele>1101.0</ele><time>2026-05-03T14:09:52.001Z</time></trkpt><trkpt lat="41.61675918744074" lon="-1.991659899535931"><ele>1101.2</ele><time>2026-05-03T14:09:53.001Z</time></trkpt><trkpt lat="41.61672291569428" lon="-1.9915453826512406"><ele>1101.3999999999999</ele><time>2026-05-03T14:09:54.001Z</time></trkpt><trkpt lat="41.616680604040496" lon="-1.9914295452010018"><ele>1101.6</ele><time>2026-05-03T14:09:55.001Z</time></trkpt><trkpt lat="41.61664005640009" lon="-1.9913176818883727"><ele>1101.8</ele><time>2026-05-03T14:09:56.001Z</time></trkpt><trkpt lat="41.61660067917279" lon="-1.991205920235794"><ele>1102.0</ele><time>2026-05-03T14:09:57.001Z</time></trkpt><trkpt lat="41.616563117646294" lon="-1.9910914279838752"><ele>1102.0</ele><time>2026-05-03T14:09:58.001Z</time></trkpt><trkpt lat="41.61652085944489" lon="-1.990975308809283"><ele>1102.0</ele><time>2026-05-03T14:09:59.001Z</time></trkpt><trkpt lat="41.616481653775935" lon="-1.990861089079407"><ele>1102.0</ele><time>2026-05-03T14:10:00.001Z</time></trkpt><trkpt lat="41.61643808652384" lon="-1.9907466924806196"><ele>1102.0</ele><time>2026-05-03T14:10:01.001Z</time></trkpt><trkpt lat="41.61640139059619" lon="-1.9906318435838035"><ele>1102.0</ele><time>2026-05-03T14:10:02.001Z</time></trkpt><trkpt lat="41.616358585735" lon="-1.9905146931341609"><ele>1102.2</ele><time>2026-05-03T14:10:03.001Z</time></trkpt><trkpt lat="41.61631862246203" lon="-1.9903993536427596"><ele>1102.4</ele><time>2026-05-03T14:10:04.001Z</time></trkpt><trkpt lat="41.616278464101505" lon="-1.9902833388538428"><ele>1102.6</ele><time>2026-05-03T14:10:05.001Z</time></trkpt><trkpt lat="41.616240034148056" lon="-1.9901665220637308"><ele>1102.8</ele><time>2026-05-03T14:10:06.001Z</time></trkpt><trkpt lat="41.616197178357915" lon="-1.990048145411257"><ele>1103.0</ele><time>2026-05-03T14:10:07.001Z</time></trkpt><trkpt lat="41.616157430655434" lon="-1.9899327521906516"><ele>1104.4</ele><time>2026-05-03T14:10:08.001Z</time></trkpt><trkpt lat="41.61611965126568" lon="-1.9898143918076474"><ele>1105.8</ele><time>2026-05-03T14:10:09.001Z</time></trkpt><trkpt lat="41.61607762806145" lon="-1.9897009310359461"><ele>1107.2</ele><time>2026-05-03T14:10:10.001Z</time></trkpt><trkpt lat="41.616036012275835" lon="-1.9895818051372443"><ele>1108.6</ele><time>2026-05-03T14:10:11.001Z</time></trkpt><trkpt lat="41.61599784983174" lon="-1.9894660921835587"><ele>1110.0</ele><time>2026-05-03T14:10:12.001Z</time></trkpt><trkpt lat="41.61595381335933" lon="-1.989347960444639"><ele>1110.0</ele><time>2026-05-03T14:10:13.001Z</time></trkpt><trkpt lat="41.615910691826116" lon="-1.9892288136911154"><ele>1110.0</ele><time>2026-05-03T14:10:14.001Z</time></trkpt><trkpt lat="41.61586321428106" lon="-1.9891112023985742"><ele>1110.0</ele><time>2026-05-03T14:10:15.001Z</time></trkpt><trkpt lat="41.615819550637596" lon="-1.9889913104481614"><ele>1110.0</ele><time>2026-05-03T14:10:16.001Z</time></trkpt><trkpt lat="41.61577031397722" lon="-1.9888732097342487"><ele>1110.0</ele><time>2026-05-03T14:10:17.001Z</time></trkpt><trkpt lat="41.61571685367472" lon="-1.9887540070425145"><ele>1109.8</ele><time>2026-05-03T14:10:18Z</time></trkpt><trkpt lat="41.61566177083458" lon="-1.9886400607611106"><ele>1109.6</ele><time>2026-05-03T14:10:19Z</time></trkpt><trkpt lat="41.61559888377446" lon="-1.9885256090870402"><ele>1109.4</ele><time>2026-05-03T14:10:20Z</time></trkpt><trkpt lat="41.61553372419052" lon="-1.9884124840497681"><ele>1109.2</ele><time>2026-05-03T14:10:21Z</time></trkpt><trkpt lat="41.615470256688674" lon="-1.9883021115150192"><ele>1109.0</ele><time>2026-05-03T14:10:22Z</time></trkpt><trkpt lat="41.61539764217403" lon="-1.9881869145678266"><ele>1109.5</ele><time>2026-05-03T14:10:23Z</time></trkpt><trkpt lat="41.61534567261138" lon="-1.9881007254655705"><ele>1110.0</ele><time>2026-05-03T14:10:24Z</time></trkpt><trkpt lat="41.615210638352046" lon="-1.9878326444867171"><ele>1110.5</ele><time>2026-05-03T14:10:26Z</time></trkpt><trkpt lat="41.61513853970123" lon="-1.9877151936266537"><ele>1111.0</ele><time>2026-05-03T14:10:27Z</time></trkpt><trkpt lat="41.61507044777152" lon="-1.9875907367848897"><ele>1111.0</ele><time>2026-05-03T14:10:28Z</time></trkpt><trkpt lat="41.61500302112368" lon="-1.9874704011502777"><ele>1111.0</ele><time>2026-05-03T14:10:29Z</time></trkpt><trkpt lat="41.61493318814846" lon="-1.9873495365313487"><ele>1111.0</ele><time>2026-05-03T14:10:30Z</time></trkpt><trkpt lat="41.614864034659455" lon="-1.987227731186703"><ele>1111.0</ele><time>2026-05-03T14:10:31Z</time></trkpt><trkpt lat="41.614794056002836" lon="-1.9871067478377837"><ele>1111.0</ele><time>2026-05-03T14:10:32Z</time></trkpt><trkpt lat="41.61472545712149" lon="-1.9869879378628215"><ele>1111.0</ele><time>2026-05-03T14:10:33Z</time></trkpt><trkpt lat="41.614656628344484" lon="-1.9868658812783007"><ele>1111.0</ele><time>2026-05-03T14:10:34Z</time></trkpt><trkpt lat="41.61458861937541" lon="-1.9867457619853914"><ele>1111.0</ele><time>2026-05-03T14:10:35Z</time></trkpt><trkpt lat="41.614519506452424" lon="-1.9866235432769765"><ele>1110.25</ele><time>2026-05-03T14:10:36Z</time></trkpt><trkpt lat="41.614450259025965" lon="-1.9864986531932973"><ele>1109.5</ele><time>2026-05-03T14:10:37Z</time></trkpt><trkpt lat="41.61438183078409" lon="-1.9863743192660224"><ele>1108.75</ele><time>2026-05-03T14:10:38Z</time></trkpt><trkpt lat="41.61431098180267" lon="-1.9862551968557474"><ele>1108.0</ele><time>2026-05-03T14:10:39Z</time></trkpt><trkpt lat="41.61423952508396" lon="-1.9861290309743036"><ele>1108.0</ele><time>2026-05-03T14:10:40Z</time></trkpt><trkpt lat="41.61416885053987" lon="-1.9860041016142012"><ele>1108.0</ele><time>2026-05-03T14:10:41Z</time></trkpt><trkpt lat="41.61410056905859" lon="-1.9858838850482783"><ele>1108.0</ele><time>2026-05-03T14:10:42Z</time></trkpt><trkpt lat="41.6140326976084" lon="-1.9857630354075504"><ele>1108.0</ele><time>2026-05-03T14:10:43Z</time></trkpt><trkpt lat="41.613962383493224" lon="-1.9856403585801863"><ele>1108.0</ele><time>2026-05-03T14:10:44Z</time></trkpt><trkpt lat="41.6138938509336" lon="-1.9855192165264557"><ele>1108.0</ele><time>2026-05-03T14:10:45Z</time></trkpt><trkpt lat="41.613821698679125" lon="-1.9853939962752376"><ele>1108.0</ele><time>2026-05-03T14:10:46Z</time></trkpt><trkpt lat="41.6137537540114" lon="-1.9852725655940429"><ele>1108.0</ele><time>2026-05-03T14:10:47Z</time></trkpt><trkpt lat="41.61368583487094" lon="-1.9851521998282728"><ele>1108.25</ele><time>2026-05-03T14:10:48Z</time></trkpt><trkpt lat="41.61362105410918" lon="-1.9850370968800841"><ele>1108.5</ele><time>2026-05-03T14:10:49Z</time></trkpt><trkpt lat="41.613553860341625" lon="-1.9849133005367467"><ele>1108.75</ele><time>2026-05-03T14:10:50Z</time></trkpt><trkpt lat="41.613486520869095" lon="-1.9847920779923274"><ele>1109.0</ele><time>2026-05-03T14:10:51Z</time></trkpt><trkpt lat="41.61341578780596" lon="-1.9846692375834625"><ele>1109.0</ele><time>2026-05-03T14:10:52Z</time></trkpt><trkpt lat="41.6133453516578" lon="-1.984543456228536"><ele>1109.0</ele><time>2026-05-03T14:10:53Z</time></trkpt><trkpt lat="41.613274144991244" lon="-1.9844180691962794"><ele>1109.0</ele><time>2026-05-03T14:10:54Z</time></trkpt><trkpt lat="41.61320575110187" lon="-1.9842935549226424"><ele>1109.0</ele><time>2026-05-03T14:10:55Z</time></trkpt><trkpt lat="41.613136503300815" lon="-1.9841686097792217"><ele>1108.6000000000001</ele><time>2026-05-03T14:10:56Z</time></trkpt><trkpt lat="41.61306671150066" lon="-1.9840472730346348"><ele>1108.2</ele><time>2026-05-03T14:10:57Z</time></trkpt><trkpt lat="41.612995052771545" lon="-1.98393086540824"><ele>1107.8000000000002</ele><time>2026-05-03T14:10:58Z</time></trkpt><trkpt lat="41.61293084938304" lon="-1.9838110146078842"><ele>1107.4</ele><time>2026-05-03T14:10:59Z</time></trkpt><trkpt lat="41.612867671033484" lon="-1.9836901000815939"><ele>1107.0</ele><time>2026-05-03T14:11:00Z</time></trkpt><trkpt lat="41.61279380720267" lon="-1.9835834384986393"><ele>1108.2</ele><time>2026-05-03T14:11:01Z</time></trkpt><trkpt lat="41.612744594218675" lon="-1.9834601683926727"><ele>1109.4</ele><time>2026-05-03T14:11:02Z</time></trkpt><trkpt lat="41.61266622486266" lon="-1.9833336372047932"><ele>1110.6</ele><time>2026-05-03T14:11:03Z</time></trkpt><trkpt lat="41.61261097389435" lon="-1.98324051159777"><ele>1111.8</ele><time>2026-05-03T14:11:04Z</time></trkpt><trkpt lat="41.612549675015714" lon="-1.9831337284113146"><ele>1113.0</ele><time>2026-05-03T14:11:05Z</time></trkpt><trkpt lat="41.612489091471915" lon="-1.983027903742241"><ele>1113.4</ele><time>2026-05-03T14:11:06Z</time></trkpt><trkpt lat="41.61242823287925" lon="-1.9829246520696429"><ele>1113.8</ele><time>2026-05-03T14:11:07Z</time></trkpt><trkpt lat="41.61236761484074" lon="-1.982824443488734"><ele>1114.2</ele><time>2026-05-03T14:11:08Z</time></trkpt><trkpt lat="41.612307326319964" lon="-1.982724413570942"><ele>1114.6</ele><time>2026-05-03T14:11:09Z</time></trkpt><trkpt lat="41.61224516823951" lon="-1.9826262976434108"><ele>1115.0</ele><time>2026-05-03T14:11:10Z</time></trkpt><trkpt lat="41.61218231242394" lon="-1.9825306913568608"><ele>1115.6</ele><time>2026-05-03T14:11:11Z</time></trkpt><trkpt lat="41.612115115889" lon="-1.982431626255619"><ele>1116.2</ele><time>2026-05-03T14:11:12Z</time></trkpt><trkpt lat="41.61204572074376" lon="-1.9823335651244551"><ele>1116.8</ele><time>2026-05-03T14:11:13Z</time></trkpt><trkpt lat="41.611967486156594" lon="-1.9822459457290436"><ele>1117.4</ele><time>2026-05-03T14:11:14Z</time></trkpt><trkpt lat="41.61188361637666" lon="-1.9821635671064124"><ele>1118.0</ele><time>2026-05-03T14:11:15Z</time></trkpt><trkpt lat="41.61179508143334" lon="-1.9820832919628109"><ele>1118.4</ele><time>2026-05-03T14:11:16Z</time></trkpt><trkpt lat="41.61170314210669" lon="-1.982001781093411"><ele>1118.8</ele><time>2026-05-03T14:11:17Z</time></trkpt><trkpt lat="41.61160847316831" lon="-1.9819239090668512"><ele>1119.2</ele><time>2026-05-03T14:11:18Z</time></trkpt><trkpt lat="41.61151274716541" lon="-1.9818462704048454"><ele>1119.6</ele><time>2026-05-03T14:11:19Z</time></trkpt><trkpt lat="41.61141594776824" lon="-1.98176906369489"><ele>1120.0</ele><time>2026-05-03T14:11:20Z</time></trkpt><trkpt lat="41.61131648332275" lon="-1.981694413765822"><ele>1118.5</ele><time>2026-05-03T14:11:21Z</time></trkpt><trkpt lat="41.6112138115433" lon="-1.9816150465332663"><ele>1117.0</ele><time>2026-05-03T14:11:22Z</time></trkpt><trkpt lat="41.61111253855244" lon="-1.9815368931203492"><ele>1115.5</ele><time>2026-05-03T14:11:23Z</time></trkpt><trkpt lat="41.61100892754411" lon="-1.9814555115772452"><ele>1114.0</ele><time>2026-05-03T14:11:24Z</time></trkpt><trkpt lat="41.61091029984808" lon="-1.981373796660726"><ele>1113.0</ele><time>2026-05-03T14:11:25Z</time></trkpt><trkpt lat="41.610817497638514" lon="-1.9812776868709492"><ele>1112.0</ele><time>2026-05-03T14:11:26Z</time></trkpt><trkpt lat="41.610725070115336" lon="-1.981182961203101"><ele>1111.0</ele><time>2026-05-03T14:11:27Z</time></trkpt><trkpt lat="41.61064094995898" lon="-1.981078500538863"><ele>1110.0</ele><time>2026-05-03T14:11:28Z</time></trkpt><trkpt lat="41.61055666161612" lon="-1.9809723008651148"><ele>1110.0</ele><time>2026-05-03T14:11:29Z</time></trkpt><trkpt lat="41.61047745292668" lon="-1.9808623204291225"><ele>1110.0</ele><time>2026-05-03T14:11:30Z</time></trkpt><trkpt lat="41.61039613911892" lon="-1.980750085533162"><ele>1110.0</ele><time>2026-05-03T14:11:31Z</time></trkpt><trkpt lat="41.610317769302156" lon="-1.980634105503009"><ele>1110.0</ele><time>2026-05-03T14:11:32Z</time></trkpt><trkpt lat="41.610254284195264" lon="-1.9805084549577285"><ele>1109.0</ele><time>2026-05-03T14:11:33Z</time></trkpt><trkpt lat="41.610191000091305" lon="-1.9803807216143159"><ele>1108.0</ele><time>2026-05-03T14:11:34Z</time></trkpt><trkpt lat="41.61013063414591" lon="-1.9802534056869983"><ele>1107.0</ele><time>2026-05-03T14:11:35Z</time></trkpt><trkpt lat="41.61007186105432" lon="-1.9801248476453401"><ele>1106.0</ele><time>2026-05-03T14:11:36Z</time></trkpt><trkpt lat="41.610012346326045" lon="-1.9799902464372068"><ele>1104.75</ele><time>2026-05-03T14:11:37Z</time></trkpt><trkpt lat="41.6099541233258" lon="-1.9798572838781854"><ele>1103.5</ele><time>2026-05-03T14:11:38Z</time></trkpt><trkpt lat="41.60989627237205" lon="-1.9797226378282964"><ele>1102.25</ele><time>2026-05-03T14:11:39Z</time></trkpt><trkpt lat="41.60983658793715" lon="-1.9795893570361291"><ele>1101.0</ele><time>2026-05-03T14:11:40Z</time></trkpt><trkpt lat="41.60977917781982" lon="-1.979457863465923"><ele>1101.0</ele><time>2026-05-03T14:11:41Z</time></trkpt><trkpt lat="41.609721008010375" lon="-1.9793259934972816"><ele>1101.0</ele><time>2026-05-03T14:11:42Z</time></trkpt><trkpt lat="41.60966243703488" lon="-1.9791934413661576"><ele>1101.0</ele><time>2026-05-03T14:11:43Z</time></trkpt><trkpt lat="41.609604050602805" lon="-1.9790580900565795"><ele>1101.0</ele><time>2026-05-03T14:11:44Z</time></trkpt><trkpt lat="41.60954596179995" lon="-1.9789282170620919"><ele>1100.5</ele><time>2026-05-03T14:11:45Z</time></trkpt><trkpt lat="41.6094876985249" lon="-1.9787988427377976"><ele>1100.0</ele><time>2026-05-03T14:11:46Z</time></trkpt><trkpt lat="41.60943030728196" lon="-1.9786654175004668"><ele>1099.5</ele><time>2026-05-03T14:11:47Z</time></trkpt><trkpt lat="41.609372171855675" lon="-1.9785344700537615"><ele>1099.0</ele><time>2026-05-03T14:11:48Z</time></trkpt><trkpt lat="41.60931750836428" lon="-1.9784027369244197"><ele>1098.0</ele><time>2026-05-03T14:11:49Z</time></trkpt><trkpt lat="41.609261761670204" lon="-1.9782731386984158"><ele>1097.0</ele><time>2026-05-03T14:11:50.001Z</time></trkpt><trkpt lat="41.609204835511996" lon="-1.9781475843313034"><ele>1096.0</ele><time>2026-05-03T14:11:51.001Z</time></trkpt><trkpt lat="41.609149527934015" lon="-1.978021939052942"><ele>1095.0</ele><time>2026-05-03T14:11:52.001Z</time></trkpt><trkpt lat="41.6090965874554" lon="-1.9778937237307488"><ele>1094.0</ele><time>2026-05-03T14:11:53.001Z</time></trkpt><trkpt lat="41.609035254141254" lon="-1.9777683684357887"><ele>1094.0</ele><time>2026-05-03T14:11:54.001Z</time></trkpt><trkpt lat="41.608978387666426" lon="-1.9776431121920843"><ele>1094.0</ele><time>2026-05-03T14:11:55.001Z</time></trkpt><trkpt lat="41.608923950698426" lon="-1.97751741797797"><ele>1094.0</ele><time>2026-05-03T14:11:56.001Z</time></trkpt><trkpt lat="41.60887167502044" lon="-1.9773868091465916"><ele>1094.0</ele><time>2026-05-03T14:11:57.001Z</time></trkpt><trkpt lat="41.60883121565959" lon="-1.9772624317814815"><ele>1094.0</ele><time>2026-05-03T14:11:58.001Z</time></trkpt><trkpt lat="41.60878377265337" lon="-1.9771397768419663"><ele>1093.4</ele><time>2026-05-03T14:11:59.001Z</time></trkpt><trkpt lat="41.60871567178894" lon="-1.977010913347182"><ele>1092.8000000000002</ele><time>2026-05-03T14:12:00.001Z</time></trkpt><trkpt lat="41.60866284302635" lon="-1.9768859106611347"><ele>1092.1999999999998</ele><time>2026-05-03T14:12:01.001Z</time></trkpt><trkpt lat="41.60860978133793" lon="-1.9767608499657618"><ele>1091.6</ele><time>2026-05-03T14:12:02.001Z</time></trkpt><trkpt lat="41.60855757153824" lon="-1.9766357860762145"><ele>1091.0</ele><time>2026-05-03T14:12:03.001Z</time></trkpt><trkpt lat="41.60850479234485" lon="-1.9765104383288243"><ele>1092.8</ele><time>2026-05-03T14:12:04.001Z</time></trkpt><trkpt lat="41.608453941770776" lon="-1.9763878996621076"><ele>1094.6</ele><time>2026-05-03T14:12:05.001Z</time></trkpt><trkpt lat="41.60840259439594" lon="-1.9762580855743919"><ele>1096.4</ele><time>2026-05-03T14:12:06.001Z</time></trkpt><trkpt lat="41.6083504308194" lon="-1.9761278250688534"><ele>1098.2</ele><time>2026-05-03T14:12:07.001Z</time></trkpt><trkpt lat="41.60829485928947" lon="-1.9760004521862211"><ele>1100.0</ele><time>2026-05-03T14:12:08.001Z</time></trkpt><trkpt lat="41.60823976193004" lon="-1.9758685202593484"><ele>1099.5</ele><time>2026-05-03T14:12:09.001Z</time></trkpt><trkpt lat="41.608187036696414" lon="-1.9757373415145691"><ele>1099.0</ele><time>2026-05-03T14:12:10.001Z</time></trkpt><trkpt lat="41.60813001633887" lon="-1.9756022876630486"><ele>1098.5</ele><time>2026-05-03T14:12:11.001Z</time></trkpt><trkpt lat="41.608067688972994" lon="-1.9754747959287262"><ele>1098.0</ele><time>2026-05-03T14:12:12.001Z</time></trkpt><trkpt lat="41.60799306146171" lon="-1.975356282183953"><ele>1098.0</ele><time>2026-05-03T14:12:13.001Z</time></trkpt><trkpt lat="41.60792021029522" lon="-1.9752428749097874"><ele>1098.0</ele><time>2026-05-03T14:12:14.001Z</time></trkpt><trkpt lat="41.60783909079704" lon="-1.9751306951221586"><ele>1098.0</ele><time>2026-05-03T14:12:15.001Z</time></trkpt><trkpt lat="41.60775696264615" lon="-1.9750187833692576"><ele>1098.0</ele><time>2026-05-03T14:12:16.001Z</time></trkpt><trkpt lat="41.607670135599975" lon="-1.9749130223498494"><ele>1097.0</ele><time>2026-05-03T14:12:17.001Z</time></trkpt><trkpt lat="41.6075802623591" lon="-1.974814826998386"><ele>1096.0</ele><time>2026-05-03T14:12:18.001Z</time></trkpt><trkpt lat="41.607488047369046" lon="-1.9747208608651716"><ele>1095.0</ele><time>2026-05-03T14:12:19.001Z</time></trkpt><trkpt lat="41.60739776989104" lon="-1.974625149771005"><ele>1094.0</ele><time>2026-05-03T14:12:20.001Z</time></trkpt><trkpt lat="41.60730600810619" lon="-1.9745290156754312"><ele>1094.0</ele><time>2026-05-03T14:12:21.001Z</time></trkpt><trkpt lat="41.607214948688366" lon="-1.9744335049166393"><ele>1094.0</ele><time>2026-05-03T14:12:22.001Z</time></trkpt><trkpt lat="41.60712650012994" lon="-1.9743372381712148"><ele>1094.0</ele><time>2026-05-03T14:12:23.001Z</time></trkpt><trkpt lat="41.6070370696858" lon="-1.9742343228768868"><ele>1094.0</ele><time>2026-05-03T14:12:24Z</time></trkpt><trkpt lat="41.60694760152241" lon="-1.9741332094133492"><ele>1093.75</ele><time>2026-05-03T14:12:25Z</time></trkpt><trkpt lat="41.60686250476896" lon="-1.974030766211193"><ele>1093.5</ele><time>2026-05-03T14:12:26Z</time></trkpt><trkpt lat="41.60678395748056" lon="-1.973915354695424"><ele>1093.25</ele><time>2026-05-03T14:12:27Z</time></trkpt><trkpt lat="41.60669574109564" lon="-1.9738185798363683"><ele>1093.0</ele><time>2026-05-03T14:12:28Z</time></trkpt><trkpt lat="41.60663068321428" lon="-1.9736861731810238"><ele>1093.0</ele><time>2026-05-03T14:12:29Z</time></trkpt><trkpt lat="41.60656903670814" lon="-1.9735590503153468"><ele>1093.0</ele><time>2026-05-03T14:12:30Z</time></trkpt><trkpt lat="41.60653072465216" lon="-1.9734089844944123"><ele>1093.0</ele><time>2026-05-03T14:12:31Z</time></trkpt><trkpt lat="41.60647987604661" lon="-1.9732706390725454"><ele>1093.0</ele><time>2026-05-03T14:12:32Z</time></trkpt><trkpt lat="41.60642949276788" lon="-1.9731407875166749"><ele>1092.0</ele><time>2026-05-03T14:12:33Z</time></trkpt><trkpt lat="41.606381464435074" lon="-1.9730062401711443"><ele>1091.0</ele><time>2026-05-03T14:12:34Z</time></trkpt><trkpt lat="41.60633703222812" lon="-1.972867668146753"><ele>1090.0</ele><time>2026-05-03T14:12:35Z</time></trkpt><trkpt lat="41.60630202410143" lon="-1.9727284525696582"><ele>1089.0</ele><time>2026-05-03T14:12:36Z</time></trkpt><trkpt lat="41.60626888930202" lon="-1.9725863315289816"><ele>1088.0</ele><time>2026-05-03T14:12:37Z</time></trkpt><trkpt lat="41.6062344488927" lon="-1.9724498573846307"><ele>1087.5</ele><time>2026-05-03T14:12:38Z</time></trkpt><trkpt lat="41.606202002534" lon="-1.9723061916136646"><ele>1087.0</ele><time>2026-05-03T14:12:39Z</time></trkpt><trkpt lat="41.60616784730516" lon="-1.9721712201370445"><ele>1086.5</ele><time>2026-05-03T14:12:40Z</time></trkpt><trkpt lat="41.606127429451156" lon="-1.9720167924182206"><ele>1086.0</ele><time>2026-05-03T14:12:41Z</time></trkpt><trkpt lat="41.606047382511704" lon="-1.9717694867337057"><ele>1087.0</ele><time>2026-05-03T14:12:42Z</time></trkpt><trkpt lat="41.605990476501496" lon="-1.971638053127715"><ele>1088.0</ele><time>2026-05-03T14:12:44Z</time></trkpt><trkpt lat="41.60593734601953" lon="-1.9715099729338854"><ele>1089.0</ele><time>2026-05-03T14:12:45Z</time></trkpt><trkpt lat="41.605878233210404" lon="-1.971389676035575"><ele>1090.0</ele><time>2026-05-03T14:12:46Z</time></trkpt><trkpt lat="41.605819123823075" lon="-1.9712655341669085"><ele>1091.0</ele><time>2026-05-03T14:12:47Z</time></trkpt><trkpt lat="41.60575042044047" lon="-1.9711484508511439"><ele>1091.0</ele><time>2026-05-03T14:12:48Z</time></trkpt><trkpt lat="41.605679595799685" lon="-1.971033347548702"><ele>1091.0</ele><time>2026-05-03T14:12:49Z</time></trkpt><trkpt lat="41.60560203272192" lon="-1.9709184233339752"><ele>1091.0</ele><time>2026-05-03T14:12:50Z</time></trkpt><trkpt lat="41.60552204657292" lon="-1.9708126174614509"><ele>1091.0</ele><time>2026-05-03T14:12:51Z</time></trkpt><trkpt lat="41.605436414932605" lon="-1.97071683368505"><ele>1090.0</ele><time>2026-05-03T14:12:52Z</time></trkpt><trkpt lat="41.6053456840165" lon="-1.970626097744457"><ele>1089.0</ele><time>2026-05-03T14:12:53Z</time></trkpt><trkpt lat="41.60525221208197" lon="-1.970539053055195"><ele>1088.0</ele><time>2026-05-03T14:12:54Z</time></trkpt><trkpt lat="41.60515573220168" lon="-1.9704622122083675"><ele>1087.0</ele><time>2026-05-03T14:12:55Z</time></trkpt><trkpt lat="41.605044693497234" lon="-1.9704106616175157"><ele>1089.75</ele><time>2026-05-03T14:12:56Z</time></trkpt><trkpt lat="41.60494012767626" lon="-1.9703466912140206"><ele>1092.5</ele><time>2026-05-03T14:12:57Z</time></trkpt><trkpt lat="41.60483475054063" lon="-1.9702887589128832"><ele>1095.25</ele><time>2026-05-03T14:12:58Z</time></trkpt><trkpt lat="41.60472449519418" lon="-1.9702342653760005"><ele>1098.0</ele><time>2026-05-03T14:12:59Z</time></trkpt><trkpt lat="41.60461731871603" lon="-1.970193914531209"><ele>1098.0</ele><time>2026-05-03T14:13:00Z</time></trkpt><trkpt lat="41.604508573231996" lon="-1.9701568779774683"><ele>1098.0</ele><time>2026-05-03T14:13:01Z</time></trkpt><trkpt lat="41.60439702612829" lon="-1.9701206494770127"><ele>1098.0</ele><time>2026-05-03T14:13:02Z</time></trkpt><trkpt lat="41.60429240720522" lon="-1.9700716890371275"><ele>1098.0</ele><time>2026-05-03T14:13:03Z</time></trkpt><trkpt lat="41.604180956966864" lon="-1.970036680805984"><ele>1094.5</ele><time>2026-05-03T14:13:04Z</time></trkpt><trkpt lat="41.60407142786776" lon="-1.9700068153447075"><ele>1091.0</ele><time>2026-05-03T14:13:05Z</time></trkpt><trkpt lat="41.60395848223098" lon="-1.9699691574920473"><ele>1087.5</ele><time>2026-05-03T14:13:06Z</time></trkpt><trkpt lat="41.60384785186455" lon="-1.9699283479855714"><ele>1084.0</ele><time>2026-05-03T14:13:07Z</time></trkpt><trkpt lat="41.60373856492389" lon="-1.9698821012154206"><ele>1084.75</ele><time>2026-05-03T14:13:08Z</time></trkpt><trkpt lat="41.603630996930974" lon="-1.9698224821082908"><ele>1085.5</ele><time>2026-05-03T14:13:09Z</time></trkpt><trkpt lat="41.6035223503173" lon="-1.9697604990569348"><ele>1086.25</ele><time>2026-05-03T14:13:10Z</time></trkpt><trkpt lat="41.603416819281804" lon="-1.9696901234573547"><ele>1087.0</ele><time>2026-05-03T14:13:11Z</time></trkpt><trkpt lat="41.60331718046937" lon="-1.969610564365874"><ele>1087.0</ele><time>2026-05-03T14:13:12Z</time></trkpt><trkpt lat="41.60321712698682" lon="-1.9695326480642832"><ele>1087.0</ele><time>2026-05-03T14:13:13Z</time></trkpt><trkpt lat="41.60312475702962" lon="-1.9694435410284952"><ele>1087.0</ele><time>2026-05-03T14:13:14Z</time></trkpt><trkpt lat="41.60303248676182" lon="-1.969357017837797"><ele>1087.0</ele><time>2026-05-03T14:13:15Z</time></trkpt><trkpt lat="41.602942449538524" lon="-1.9692623971503365"><ele>1086.0</ele><time>2026-05-03T14:13:16Z</time></trkpt><trkpt lat="41.60284976947969" lon="-1.9691684251898995"><ele>1085.0</ele><time>2026-05-03T14:13:17Z</time></trkpt><trkpt lat="41.602757380959815" lon="-1.9690776930514817"><ele>1084.0</ele><time>2026-05-03T14:13:18Z</time></trkpt><trkpt lat="41.60266791876491" lon="-1.9689831197434366"><ele>1083.0</ele><time>2026-05-03T14:13:19Z</time></trkpt><trkpt lat="41.60257479065436" lon="-1.9688899378143556"><ele>1083.0</ele><time>2026-05-03T14:13:20Z</time></trkpt><trkpt lat="41.602482602911124" lon="-1.9687951036973197"><ele>1083.0</ele><time>2026-05-03T14:13:21Z</time></trkpt><trkpt lat="41.602388979762424" lon="-1.9687063564539133"><ele>1083.0</ele><time>2026-05-03T14:13:22Z</time></trkpt><trkpt lat="41.6022931198047" lon="-1.9686179126278893"><ele>1083.0</ele><time>2026-05-03T14:13:23Z</time></trkpt><trkpt lat="41.60219375796206" lon="-1.9685392151913272"><ele>1083.0</ele><time>2026-05-03T14:13:24Z</time></trkpt><trkpt lat="41.602090332352056" lon="-1.96846369218526"><ele>1083.0</ele><time>2026-05-03T14:13:25Z</time></trkpt><trkpt lat="41.6019842188408" lon="-1.9683950314231855"><ele>1083.0</ele><time>2026-05-03T14:13:26Z</time></trkpt><trkpt lat="41.60187691004217" lon="-1.9683297058216722"><ele>1083.0</ele><time>2026-05-03T14:13:27Z</time></trkpt><trkpt lat="41.60176543801457" lon="-1.9682685622695941"><ele>1079.5</ele><time>2026-05-03T14:13:28Z</time></trkpt><trkpt lat="41.601656065484356" lon="-1.9682124454935603"><ele>1076.0</ele><time>2026-05-03T14:13:29Z</time></trkpt><trkpt lat="41.60154387376198" lon="-1.9681575311507256"><ele>1072.5</ele><time>2026-05-03T14:13:30Z</time></trkpt><trkpt lat="41.601432452572574" lon="-1.9681044894956028"><ele>1069.0</ele><time>2026-05-03T14:13:31Z</time></trkpt><trkpt lat="41.6013177898767" lon="-1.9680496225309247"><ele>1069.0</ele><time>2026-05-03T14:13:32Z</time></trkpt><trkpt lat="41.601204742134364" lon="-1.9679893964238586"><ele>1069.0</ele><time>2026-05-03T14:13:33Z</time></trkpt><trkpt lat="41.60109392325991" lon="-1.9679256345703158"><ele>1069.0</ele><time>2026-05-03T14:13:34Z</time></trkpt><trkpt lat="41.60097826976596" lon="-1.967864040197613"><ele>1069.0</ele><time>2026-05-03T14:13:35Z</time></trkpt><trkpt lat="41.60087325790338" lon="-1.9678002268325863"><ele>1071.75</ele><time>2026-05-03T14:13:36Z</time></trkpt><trkpt lat="41.60076534685602" lon="-1.9677272550784004"><ele>1074.5</ele><time>2026-05-03T14:13:37Z</time></trkpt><trkpt lat="41.6006601890881" lon="-1.9676496520712146"><ele>1077.25</ele><time>2026-05-03T14:13:38Z</time></trkpt><trkpt lat="41.60055472491348" lon="-1.967570490913657"><ele>1080.0</ele><time>2026-05-03T14:13:39Z</time></trkpt><trkpt lat="41.60045220791929" lon="-1.967485477053144"><ele>1075.25</ele><time>2026-05-03T14:13:40Z</time></trkpt><trkpt lat="41.600348557075385" lon="-1.9673986480721564"><ele>1070.5</ele><time>2026-05-03T14:13:41Z</time></trkpt><trkpt lat="41.60024867638933" lon="-1.9673150716614474"><ele>1065.75</ele><time>2026-05-03T14:13:42Z</time></trkpt><trkpt lat="41.60015102280423" lon="-1.9672317555321548"><ele>1061.0</ele><time>2026-05-03T14:13:43Z</time></trkpt><trkpt lat="41.6000486135264" lon="-1.9671432285953572"><ele>1061.0</ele><time>2026-05-03T14:13:44Z</time></trkpt><trkpt lat="41.59994910456732" lon="-1.9670593819992777"><ele>1061.0</ele><time>2026-05-03T14:13:45.001Z</time></trkpt><trkpt lat="41.59984200976569" lon="-1.9669708847415182"><ele>1061.0</ele><time>2026-05-03T14:13:46.001Z</time></trkpt><trkpt lat="41.59974490891154" lon="-1.9668875205154526"><ele>1061.0</ele><time>2026-05-03T14:13:47.001Z</time></trkpt><trkpt lat="41.59964414140221" lon="-1.966802074850788"><ele>1061.0</ele><time>2026-05-03T14:13:48.001Z</time></trkpt><trkpt lat="41.59953951293725" lon="-1.9667135169610626"><ele>1061.0</ele><time>2026-05-03T14:13:49.001Z</time></trkpt><trkpt lat="41.59943864172849" lon="-1.9666265887346557"><ele>1061.0</ele><time>2026-05-03T14:13:50.001Z</time></trkpt><trkpt lat="41.599332744823265" lon="-1.9665347441018317"><ele>1061.0</ele><time>2026-05-03T14:13:51.001Z</time></trkpt><trkpt lat="41.59923079867072" lon="-1.9664472879428967"><ele>1058.5</ele><time>2026-05-03T14:13:52.001Z</time></trkpt><trkpt lat="41.59912824535226" lon="-1.966355567743346"><ele>1056.0</ele><time>2026-05-03T14:13:53.001Z</time></trkpt><trkpt lat="41.59902439037206" lon="-1.9662648925355208"><ele>1053.5</ele><time>2026-05-03T14:13:54.001Z</time></trkpt><trkpt lat="41.598925702798" lon="-1.9661741774530779"><ele>1051.0</ele><time>2026-05-03T14:13:55.001Z</time></trkpt><trkpt lat="41.59882631614728" lon="-1.9660797085652377"><ele>1051.0</ele><time>2026-05-03T14:13:56.001Z</time></trkpt><trkpt lat="41.59872938389141" lon="-1.9659834675112735"><ele>1051.0</ele><time>2026-05-03T14:13:57.001Z</time></trkpt><trkpt lat="41.59863410095293" lon="-1.9658822321757385"><ele>1051.0</ele><time>2026-05-03T14:13:58.001Z</time></trkpt><trkpt lat="41.598537250166785" lon="-1.9657774197783702"><ele>1051.0</ele><time>2026-05-03T14:13:59.001Z</time></trkpt><trkpt lat="41.598447467262034" lon="-1.9656695804560813"><ele>1048.0</ele><time>2026-05-03T14:14:00.001Z</time></trkpt><trkpt lat="41.59835451833425" lon="-1.965556656434062"><ele>1045.0</ele><time>2026-05-03T14:14:01.001Z</time></trkpt><trkpt lat="41.59826848294626" lon="-1.9654428469699494"><ele>1042.0</ele><time>2026-05-03T14:14:02.001Z</time></trkpt><trkpt lat="41.59818927360824" lon="-1.9653285976241532"><ele>1039.0</ele><time>2026-05-03T14:14:03.001Z</time></trkpt><trkpt lat="41.59810359406598" lon="-1.9652141086558157"><ele>1039.0</ele><time>2026-05-03T14:14:04.001Z</time></trkpt><trkpt lat="41.59802284982233" lon="-1.9651017243439397"><ele>1039.0</ele><time>2026-05-03T14:14:05.001Z</time></trkpt><trkpt lat="41.59794664188696" lon="-1.964980355865964"><ele>1039.0</ele><time>2026-05-03T14:14:06.001Z</time></trkpt><trkpt lat="41.59786795760994" lon="-1.9648625761520864"><ele>1039.0</ele><time>2026-05-03T14:14:07.001Z</time></trkpt><trkpt lat="41.59778922435146" lon="-1.9647492021253208"><ele>1038.25</ele><time>2026-05-03T14:14:08.001Z</time></trkpt><trkpt lat="41.59771097699685" lon="-1.9646377305666152"><ele>1037.5</ele><time>2026-05-03T14:14:09.001Z</time></trkpt><trkpt lat="41.59763219577541" lon="-1.9645197082149226"><ele>1036.75</ele><time>2026-05-03T14:14:10.001Z</time></trkpt><trkpt lat="41.59755421329194" lon="-1.9644040548822796"><ele>1036.0</ele><time>2026-05-03T14:14:11.001Z</time></trkpt><trkpt lat="41.597475658333096" lon="-1.9642874901369358"><ele>1032.25</ele><time>2026-05-03T14:14:12.001Z</time></trkpt><trkpt lat="41.59739730502881" lon="-1.9641712517029013"><ele>1028.5</ele><time>2026-05-03T14:14:13.001Z</time></trkpt><trkpt lat="41.59731990514609" lon="-1.9640561346992937"><ele>1024.75</ele><time>2026-05-03T14:14:14.001Z</time></trkpt><trkpt lat="41.597241523483035" lon="-1.963943869600621"><ele>1021.0</ele><time>2026-05-03T14:14:15.001Z</time></trkpt><trkpt lat="41.597165728095895" lon="-1.9638314488922535"><ele>1021.0</ele><time>2026-05-03T14:14:16.001Z</time></trkpt><trkpt lat="41.59708882985723" lon="-1.9637171364647195"><ele>1021.0</ele><time>2026-05-03T14:14:17.001Z</time></trkpt><trkpt lat="41.59701070677589" lon="-1.963608789556799"><ele>1021.0</ele><time>2026-05-03T14:14:18.001Z</time></trkpt><trkpt lat="41.59693419103991" lon="-1.963499562124575"><ele>1021.0</ele><time>2026-05-03T14:14:19.001Z</time></trkpt><trkpt lat="41.59685647295234" lon="-1.963388635344473"><ele>1021.0</ele><time>2026-05-03T14:14:20.001Z</time></trkpt><trkpt lat="41.59677568257119" lon="-1.963281550431118"><ele>1021.0</ele><time>2026-05-03T14:14:21.001Z</time></trkpt><trkpt lat="41.596689781772604" lon="-1.963187752778675"><ele>1021.0</ele><time>2026-05-03T14:14:22.001Z</time></trkpt><trkpt lat="41.59659610859329" lon="-1.9630908044783595"><ele>1021.0</ele><time>2026-05-03T14:14:23.001Z</time></trkpt><trkpt lat="41.59650433733831" lon="-1.9629985233837122"><ele>1021.0</ele><time>2026-05-03T14:14:24.001Z</time></trkpt><trkpt lat="41.596407289954634" lon="-1.9629114469958446"><ele>1021.0</ele><time>2026-05-03T14:14:25.001Z</time></trkpt><trkpt lat="41.59630718344038" lon="-1.9628352797092874"><ele>1021.0</ele><time>2026-05-03T14:14:26.001Z</time></trkpt><trkpt lat="41.596205868362794" lon="-1.9627578369320868"><ele>1021.0</ele><time>2026-05-03T14:14:27.001Z</time></trkpt><trkpt lat="41.59610349997889" lon="-1.9626805695614427"><ele>1019.75</ele><time>2026-05-03T14:14:28.001Z</time></trkpt><trkpt lat="41.596001462571486" lon="-1.9626048907192244"><ele>1018.5</ele><time>2026-05-03T14:14:29.001Z</time></trkpt><trkpt lat="41.595896742828394" lon="-1.9625294102512314"><ele>1017.25</ele><time>2026-05-03T14:14:30Z</time></trkpt><trkpt lat="41.59579556724283" lon="-1.9624545791375094"><ele>1016.0</ele><time>2026-05-03T14:14:31Z</time></trkpt><trkpt lat="41.59569306564816" lon="-1.9623743742807087"><ele>1012.75</ele><time>2026-05-03T14:14:32Z</time></trkpt><trkpt lat="41.595593859992704" lon="-1.9622949669793064"><ele>1009.5</ele><time>2026-05-03T14:14:33Z</time></trkpt><trkpt lat="41.59549740728919" lon="-1.9622076161426905"><ele>1006.25</ele><time>2026-05-03T14:14:34Z</time></trkpt><trkpt lat="41.595405063132446" lon="-1.9621136010239875"><ele>1003.0</ele><time>2026-05-03T14:14:35Z</time></trkpt><trkpt lat="41.59531314020271" lon="-1.9620195783121326"><ele>1001.25</ele><time>2026-05-03T14:14:36Z</time></trkpt><trkpt lat="41.59522495005224" lon="-1.9619234770829719"><ele>999.5</ele><time>2026-05-03T14:14:37Z</time></trkpt><trkpt lat="41.59513990802363" lon="-1.9618165712192004"><ele>997.75</ele><time>2026-05-03T14:14:38Z</time></trkpt><trkpt lat="41.595060067210596" lon="-1.9617042085131424"><ele>996.0</ele><time>2026-05-03T14:14:39Z</time></trkpt><trkpt lat="41.5949860024021" lon="-1.9615842712382106"><ele>995.25</ele><time>2026-05-03T14:14:40Z</time></trkpt><trkpt lat="41.59491312467655" lon="-1.9614653059400824"><ele>994.5</ele><time>2026-05-03T14:14:41Z</time></trkpt><trkpt lat="41.594841673883" lon="-1.961345053089634"><ele>993.75</ele><time>2026-05-03T14:14:42Z</time></trkpt><trkpt lat="41.59477067884165" lon="-1.9612264320298267"><ele>993.0</ele><time>2026-05-03T14:14:43Z</time></trkpt><trkpt lat="41.594701195241186" lon="-1.961100473312133"><ele>993.0</ele><time>2026-05-03T14:14:44Z</time></trkpt><trkpt lat="41.59463481986042" lon="-1.9609731279263618"><ele>993.0</ele><time>2026-05-03T14:14:45Z</time></trkpt><trkpt lat="41.59457189652277" lon="-1.9608430474405514"><ele>993.0</ele><time>2026-05-03T14:14:46Z</time></trkpt><trkpt lat="41.59451063207949" lon="-1.960709972753139"><ele>993.0</ele><time>2026-05-03T14:14:47Z</time></trkpt><trkpt lat="41.594451033644546" lon="-1.9605773514602383"><ele>991.25</ele><time>2026-05-03T14:14:48Z</time></trkpt><trkpt lat="41.59439195454028" lon="-1.9604412710022843"><ele>989.5</ele><time>2026-05-03T14:14:49Z</time></trkpt><trkpt lat="41.594330218243556" lon="-1.960313719971218"><ele>987.75</ele><time>2026-05-03T14:14:50Z</time></trkpt><trkpt lat="41.59426962260895" lon="-1.9601829844343122"><ele>986.0</ele><time>2026-05-03T14:14:51Z</time></trkpt><trkpt lat="41.594209249295325" lon="-1.9600563089286631"><ele>986.0</ele><time>2026-05-03T14:14:52Z</time></trkpt><trkpt lat="41.59415150674406" lon="-1.9599250707512323"><ele>986.0</ele><time>2026-05-03T14:14:53Z</time></trkpt><trkpt lat="41.5940936975091" lon="-1.9597955664314695"><ele>986.0</ele><time>2026-05-03T14:14:54Z</time></trkpt><trkpt lat="41.59403576093384" lon="-1.9596621018000677"><ele>986.0</ele><time>2026-05-03T14:14:55Z</time></trkpt><trkpt lat="41.59397274004576" lon="-1.9595366369827616"><ele>986.0</ele><time>2026-05-03T14:14:56Z</time></trkpt><trkpt lat="41.59389165837814" lon="-1.9594322979354657"><ele>986.0</ele><time>2026-05-03T14:14:57Z</time></trkpt><trkpt lat="41.593813692796786" lon="-1.9593241316664514"><ele>986.0</ele><time>2026-05-03T14:14:58Z</time></trkpt><trkpt lat="41.59374315699606" lon="-1.9592044181878536"><ele>986.0</ele><time>2026-05-03T14:14:59Z</time></trkpt><trkpt lat="41.59365837186047" lon="-1.959106723749533"><ele>986.1999999999999</ele><time>2026-05-03T14:15:00Z</time></trkpt><trkpt lat="41.5935648635801" lon="-1.9590302782523694"><ele>986.3999999999999</ele><time>2026-05-03T14:15:01Z</time></trkpt><trkpt lat="41.59347600948922" lon="-1.9589380632743836"><ele>986.6</ele><time>2026-05-03T14:15:02Z</time></trkpt><trkpt lat="41.59338701134877" lon="-1.9588519721945228"><ele>986.8</ele><time>2026-05-03T14:15:03Z</time></trkpt><trkpt lat="41.59329408728399" lon="-1.9587670594684905"><ele>987.0</ele><time>2026-05-03T14:15:04Z</time></trkpt><trkpt lat="41.593201643103846" lon="-1.95868709877792"><ele>987.0</ele><time>2026-05-03T14:15:05Z</time></trkpt><trkpt lat="41.59310688014174" lon="-1.9586062617145137"><ele>987.0</ele><time>2026-05-03T14:15:06Z</time></trkpt><trkpt lat="41.593015019463216" lon="-1.9585283003224676"><ele>987.0</ele><time>2026-05-03T14:15:07Z</time></trkpt><trkpt lat="41.592918506366544" lon="-1.958455268593387"><ele>987.0</ele><time>2026-05-03T14:15:08Z</time></trkpt><trkpt lat="41.592820654259974" lon="-1.9583866780190102"><ele>987.0</ele><time>2026-05-03T14:15:09Z</time></trkpt><trkpt lat="41.592728335737505" lon="-1.9583036429181289"><ele>987.0</ele><time>2026-05-03T14:15:10Z</time></trkpt><trkpt lat="41.592630816983146" lon="-1.9582345155767358"><ele>987.0</ele><time>2026-05-03T14:15:11Z</time></trkpt><trkpt lat="41.59252738990599" lon="-1.9581892480510563"><ele>987.0</ele><time>2026-05-03T14:15:12Z</time></trkpt><trkpt lat="41.59243076697112" lon="-1.9581241828898452"><ele>987.0</ele><time>2026-05-03T14:15:13Z</time></trkpt><trkpt lat="41.592332575447394" lon="-1.9580568046736069"><ele>987.0</ele><time>2026-05-03T14:15:14Z</time></trkpt><trkpt lat="41.59223503017022" lon="-1.957989654777215"><ele>987.0</ele><time>2026-05-03T14:15:15Z</time></trkpt><trkpt lat="41.59214625334777" lon="-1.9579285410496972"><ele>987.0</ele><time>2026-05-03T14:15:16Z</time></trkpt><trkpt lat="41.59208454165067" lon="-1.9578860588854279"><ele>987.0</ele><time>2026-05-03T14:15:17Z</time></trkpt><trkpt lat="41.59202911404785" lon="-1.9578395060350156"><ele>987.0</ele><time>2026-05-03T14:15:18Z</time></trkpt><trkpt lat="41.59186025514007" lon="-1.957709911509115"><ele>987.0</ele><time>2026-05-03T14:15:19Z</time></trkpt><trkpt lat="41.591761989817684" lon="-1.9576540138127254"><ele>987.2</ele><time>2026-05-03T14:15:20Z</time></trkpt><trkpt lat="41.59166916828581" lon="-1.9575862019587877"><ele>987.4000000000001</ele><time>2026-05-03T14:15:21Z</time></trkpt><trkpt lat="41.59157137796585" lon="-1.9575266274310748"><ele>987.5999999999999</ele><time>2026-05-03T14:15:22Z</time></trkpt><trkpt lat="41.591474729264725" lon="-1.9574594913176213"><ele>987.8</ele><time>2026-05-03T14:15:23Z</time></trkpt><trkpt lat="41.591377838091034" lon="-1.9573927569636098"><ele>988.0</ele><time>2026-05-03T14:15:24Z</time></trkpt><trkpt lat="41.59128131035534" lon="-1.9573251678312988"><ele>988.0</ele><time>2026-05-03T14:15:25Z</time></trkpt><trkpt lat="41.591185584749965" lon="-1.9572602647947652"><ele>988.0</ele><time>2026-05-03T14:15:26Z</time></trkpt><trkpt lat="41.59108966486535" lon="-1.9571966517312782"><ele>988.0</ele><time>2026-05-03T14:15:27Z</time></trkpt><trkpt lat="41.590990856279966" lon="-1.9571288134580234"><ele>988.0</ele><time>2026-05-03T14:15:28Z</time></trkpt><trkpt lat="41.59089531060228" lon="-1.9570642053751728"><ele>988.0</ele><time>2026-05-03T14:15:29Z</time></trkpt><trkpt lat="41.590794250629294" lon="-1.9570046208851954"><ele>987.5999999999999</ele><time>2026-05-03T14:15:30Z</time></trkpt><trkpt lat="41.590698425858776" lon="-1.9569388331762951"><ele>987.1999999999999</ele><time>2026-05-03T14:15:31Z</time></trkpt><trkpt lat="41.5906027778966" lon="-1.9568709596731417"><ele>986.8</ele><time>2026-05-03T14:15:32Z</time></trkpt><trkpt lat="41.5905041368877" lon="-1.9568119084536582"><ele>986.4</ele><time>2026-05-03T14:15:33Z</time></trkpt><trkpt lat="41.590408310162076" lon="-1.9567456981295763"><ele>986.0</ele><time>2026-05-03T14:15:34Z</time></trkpt><trkpt lat="41.59031578269265" lon="-1.9566812393211004"><ele>986.8</ele><time>2026-05-03T14:15:35Z</time></trkpt><trkpt lat="41.590216731428434" lon="-1.956630401545729"><ele>987.5999999999999</ele><time>2026-05-03T14:15:36Z</time></trkpt><trkpt lat="41.59012283288316" lon="-1.9565656746314046"><ele>988.4</ele><time>2026-05-03T14:15:37Z</time></trkpt><trkpt lat="41.59002938847502" lon="-1.9564997810187963"><ele>989.2</ele><time>2026-05-03T14:15:38Z</time></trkpt><trkpt lat="41.589941277459396" lon="-1.9564150965242455"><ele>990.0</ele><time>2026-05-03T14:15:39Z</time></trkpt><trkpt lat="41.58984559921562" lon="-1.956347689157603"><ele>990.0</ele><time>2026-05-03T14:15:40Z</time></trkpt><trkpt lat="41.58975061797679" lon="-1.9562788365254355"><ele>990.0</ele><time>2026-05-03T14:15:41Z</time></trkpt><trkpt lat="41.58964918939607" lon="-1.9562189786387505"><ele>990.0</ele><time>2026-05-03T14:15:42Z</time></trkpt><trkpt lat="41.589554115346665" lon="-1.95615288335922"><ele>990.0</ele><time>2026-05-03T14:15:43Z</time></trkpt><trkpt lat="41.589455643908074" lon="-1.9560876232437752"><ele>990.0</ele><time>2026-05-03T14:15:44Z</time></trkpt><trkpt lat="41.589360417293655" lon="-1.956023810919771"><ele>989.6</ele><time>2026-05-03T14:15:45Z</time></trkpt><trkpt lat="41.58926423150807" lon="-1.9559580830941499"><ele>989.2</ele><time>2026-05-03T14:15:46.001Z</time></trkpt><trkpt lat="41.589170202764976" lon="-1.9558909875164248"><ele>988.8</ele><time>2026-05-03T14:15:47.001Z</time></trkpt><trkpt lat="41.58907388199487" lon="-1.955825215136364"><ele>988.4</ele><time>2026-05-03T14:15:48.001Z</time></trkpt><trkpt lat="41.58897553135988" lon="-1.9557584960446401"><ele>988.0</ele><time>2026-05-03T14:15:49.001Z</time></trkpt><trkpt lat="41.58887410178883" lon="-1.955700031519477"><ele>988.2</ele><time>2026-05-03T14:15:50.001Z</time></trkpt><trkpt lat="41.58877589570421" lon="-1.955631042111075"><ele>988.4</ele><time>2026-05-03T14:15:51.001Z</time></trkpt><trkpt lat="41.58867712790001" lon="-1.9555632760601829"><ele>988.6000000000001</ele><time>2026-05-03T14:15:52.001Z</time></trkpt><trkpt lat="41.588574112717545" lon="-1.955499619732062"><ele>988.8000000000001</ele><time>2026-05-03T14:15:53.001Z</time></trkpt><trkpt lat="41.5884748954532" lon="-1.9554302969260327"><ele>989.0</ele><time>2026-05-03T14:15:54.001Z</time></trkpt><trkpt lat="41.588374047033824" lon="-1.9553673695191078"><ele>989.0</ele><time>2026-05-03T14:15:55.001Z</time></trkpt><trkpt lat="41.58827504737659" lon="-1.9552971169554525"><ele>989.0000000000001</ele><time>2026-05-03T14:15:56.001Z</time></trkpt><trkpt lat="41.58817577173813" lon="-1.95523298089732"><ele>989.0000000000001</ele><time>2026-05-03T14:15:57.001Z</time></trkpt><trkpt lat="41.588074239717294" lon="-1.9551661496090982"><ele>989.0</ele><time>2026-05-03T14:15:58.001Z</time></trkpt><trkpt lat="41.587973830425014" lon="-1.9550960169019493"><ele>989.0</ele><time>2026-05-03T14:15:59.001Z</time></trkpt><trkpt lat="41.58787587380869" lon="-1.9550261711702583"><ele>989.0</ele><time>2026-05-03T14:16:00.001Z</time></trkpt><trkpt lat="41.587778680041" lon="-1.9549590163076247"><ele>989.0000000000001</ele><time>2026-05-03T14:16:01.001Z</time></trkpt><trkpt lat="41.587677349059746" lon="-1.9548936556424001"><ele>989.0000000000001</ele><time>2026-05-03T14:16:02.001Z</time></trkpt><trkpt lat="41.5875774747208" lon="-1.954824741011871"><ele>989.0</ele><time>2026-05-03T14:16:03.001Z</time></trkpt><trkpt lat="41.587479637829624" lon="-1.9547569843818136"><ele>989.0</ele><time>2026-05-03T14:16:04.001Z</time></trkpt><trkpt lat="41.58738285635426" lon="-1.9546880833682263"><ele>989.0</ele><time>2026-05-03T14:16:05.001Z</time></trkpt><trkpt lat="41.58728098320091" lon="-1.9546368454800938"><ele>989.0000000000001</ele><time>2026-05-03T14:16:06.001Z</time></trkpt><trkpt lat="41.58718135460277" lon="-1.9545689895857048"><ele>989.0000000000001</ele><time>2026-05-03T14:16:07.001Z</time></trkpt><trkpt lat="41.58708784265397" lon="-1.954487484862917"><ele>989.0</ele><time>2026-05-03T14:16:08.001Z</time></trkpt><trkpt lat="41.58699052134388" lon="-1.9544212195064388"><ele>989.0</ele><time>2026-05-03T14:16:09.001Z</time></trkpt><trkpt lat="41.58689180388968" lon="-1.9543576259354363"><ele>989.0</ele><time>2026-05-03T14:16:10.001Z</time></trkpt><trkpt lat="41.58679518951975" lon="-1.9542877092400195"><ele>989.0000000000001</ele><time>2026-05-03T14:16:11.001Z</time></trkpt><trkpt lat="41.58669524602696" lon="-1.9542177885476684"><ele>989.0000000000001</ele><time>2026-05-03T14:16:12.001Z</time></trkpt><trkpt lat="41.58659495602896" lon="-1.9541535669903862"><ele>989.0</ele><time>2026-05-03T14:16:13.001Z</time></trkpt><trkpt lat="41.58649641753802" lon="-1.9540872657611912"><ele>989.0</ele><time>2026-05-03T14:16:14.001Z</time></trkpt><trkpt lat="41.58639638771468" lon="-1.9540184583465132"><ele>988.8000000000001</ele><time>2026-05-03T14:16:15.001Z</time></trkpt><trkpt lat="41.58629718248823" lon="-1.9539474576071232"><ele>988.6000000000001</ele><time>2026-05-03T14:16:16.001Z</time></trkpt><trkpt lat="41.58619734136749" lon="-1.9538821503375625"><ele>988.4</ele><time>2026-05-03T14:16:17.001Z</time></trkpt><trkpt lat="41.586096485977365" lon="-1.9538146383374089"><ele>988.2</ele><time>2026-05-03T14:16:18.001Z</time></trkpt><trkpt lat="41.58599533605434" lon="-1.9537474441593512"><ele>988.0</ele><time>2026-05-03T14:16:19.001Z</time></trkpt><trkpt lat="41.58589338508368" lon="-1.953678277058025"><ele>988.0</ele><time>2026-05-03T14:16:20.001Z</time></trkpt><trkpt lat="41.585793251729235" lon="-1.953604891537933"><ele>988.0</ele><time>2026-05-03T14:16:21.001Z</time></trkpt><trkpt lat="41.58568970552054" lon="-1.9535406082209854"><ele>988.0</ele><time>2026-05-03T14:16:22.001Z</time></trkpt><trkpt lat="41.585588310263965" lon="-1.9534725774621486"><ele>988.0</ele><time>2026-05-03T14:16:23.001Z</time></trkpt><trkpt lat="41.585486676839146" lon="-1.9534047430162822"><ele>987.75</ele><time>2026-05-03T14:16:24.001Z</time></trkpt><trkpt lat="41.58537831657123" lon="-1.9533501913690992"><ele>987.5</ele><time>2026-05-03T14:16:25.001Z</time></trkpt><trkpt lat="41.58527578059927" lon="-1.953279491587818"><ele>987.25</ele><time>2026-05-03T14:16:26.001Z</time></trkpt><trkpt lat="41.585173721317446" lon="-1.953206045040725"><ele>987.0</ele><time>2026-05-03T14:16:27.001Z</time></trkpt><trkpt lat="41.58507273686396" lon="-1.953130345519789"><ele>987.0</ele><time>2026-05-03T14:16:28.001Z</time></trkpt><trkpt lat="41.58497459395442" lon="-1.9530534549815486"><ele>987.0</ele><time>2026-05-03T14:16:29.001Z</time></trkpt><trkpt lat="41.5848759250648" lon="-1.9529733455632519"><ele>987.0</ele><time>2026-05-03T14:16:30.001Z</time></trkpt><trkpt lat="41.58477790353382" lon="-1.952892463821752"><ele>987.0</ele><time>2026-05-03T14:16:31.001Z</time></trkpt><trkpt lat="41.58468073006995" lon="-1.9528113419421342"><ele>987.0</ele><time>2026-05-03T14:16:32.001Z</time></trkpt><trkpt lat="41.58458409005002" lon="-1.9527300887050156"><ele>987.0</ele><time>2026-05-03T14:16:33.001Z</time></trkpt><trkpt lat="41.58448928488979" lon="-1.9526490710000803"><ele>987.0</ele><time>2026-05-03T14:16:34.001Z</time></trkpt><trkpt lat="41.58439379976761" lon="-1.9525654367749332"><ele>987.0</ele><time>2026-05-03T14:16:35.001Z</time></trkpt><trkpt lat="41.58429949174275" lon="-1.9524822812891556"><ele>987.75</ele><time>2026-05-03T14:16:36Z</time></trkpt><trkpt lat="41.584205463634106" lon="-1.9523993726137667"><ele>988.5</ele><time>2026-05-03T14:16:37Z</time></trkpt><trkpt lat="41.58411154408047" lon="-1.9523143988451277"><ele>989.25</ele><time>2026-05-03T14:16:38Z</time></trkpt><trkpt lat="41.584018429944585" lon="-1.9522296851758423"><ele>990.0</ele><time>2026-05-03T14:16:39Z</time></trkpt><trkpt lat="41.58392530820229" lon="-1.9521449645841789"><ele>990.0</ele><time>2026-05-03T14:16:40Z</time></trkpt><trkpt lat="41.583831312434185" lon="-1.9520594488858642"><ele>990.0</ele><time>2026-05-03T14:16:41Z</time></trkpt><trkpt lat="41.58373853579532" lon="-1.9519750419122077"><ele>990.0</ele><time>2026-05-03T14:16:42Z</time></trkpt><trkpt lat="41.583645076603524" lon="-1.9518936468856847"><ele>990.0</ele><time>2026-05-03T14:16:43Z</time></trkpt><trkpt lat="41.58355756849814" lon="-1.9518165783144161"><ele>990.0</ele><time>2026-05-03T14:16:44Z</time></trkpt><trkpt lat="41.58346087793207" lon="-1.9517311310793377"><ele>990.2</ele><time>2026-05-03T14:16:45Z</time></trkpt><trkpt lat="41.58337978756765" lon="-1.9516349728452278"><ele>990.4</ele><time>2026-05-03T14:16:46Z</time></trkpt><trkpt lat="41.583298382085026" lon="-1.9515602739876647"><ele>990.5999999999999</ele><time>2026-05-03T14:16:47Z</time></trkpt><trkpt lat="41.583203249851344" lon="-1.9514799670291858"><ele>990.8</ele><time>2026-05-03T14:16:48Z</time></trkpt><trkpt lat="41.583113335153044" lon="-1.9514002796819727"><ele>991.0</ele><time>2026-05-03T14:16:49Z</time></trkpt><trkpt lat="41.58302254977908" lon="-1.951322365739077"><ele>991.0</ele><time>2026-05-03T14:16:50Z</time></trkpt><trkpt lat="41.58292886007931" lon="-1.9512455085477263"><ele>990.9999999999999</ele><time>2026-05-03T14:16:51Z</time></trkpt><trkpt lat="41.582842024695424" lon="-1.951161541235634"><ele>990.9999999999999</ele><time>2026-05-03T14:16:52Z</time></trkpt><trkpt lat="41.58274415221394" lon="-1.9510890220419332"><ele>991.0</ele><time>2026-05-03T14:16:53Z</time></trkpt><trkpt lat="41.582655534346976" lon="-1.9510029566875107"><ele>991.0</ele><time>2026-05-03T14:16:54Z</time></trkpt><trkpt lat="41.58256817839102" lon="-1.950915116321509"><ele>991.0</ele><time>2026-05-03T14:16:55Z</time></trkpt><trkpt lat="41.5824833797185" lon="-1.950830140301335"><ele>990.9999999999999</ele><time>2026-05-03T14:16:56Z</time></trkpt><trkpt lat="41.58239650933641" lon="-1.950744737999409"><ele>990.9999999999999</ele><time>2026-05-03T14:16:57Z</time></trkpt><trkpt lat="41.58231063213608" lon="-1.9506568959544102"><ele>991.0</ele><time>2026-05-03T14:16:58Z</time></trkpt><trkpt lat="41.582226078655516" lon="-1.950556420109926"><ele>991.0</ele><time>2026-05-03T14:16:59Z</time></trkpt><trkpt lat="41.58214588957965" lon="-1.9504544840568425"><ele>991.0</ele><time>2026-05-03T14:17:00Z</time></trkpt><trkpt lat="41.582069607904266" lon="-1.950348215880267"><ele>990.9999999999999</ele><time>2026-05-03T14:17:01Z</time></trkpt><trkpt lat="41.58199794572365" lon="-1.9502346962304948"><ele>990.9999999999999</ele><time>2026-05-03T14:17:02Z</time></trkpt><trkpt lat="41.58194188314137" lon="-1.950107819665939"><ele>991.0</ele><time>2026-05-03T14:17:03Z</time></trkpt><trkpt lat="41.58188187493922" lon="-1.9499884394990497"><ele>991.0</ele><time>2026-05-03T14:17:04Z</time></trkpt><trkpt lat="41.581828348798425" lon="-1.949862534203915"><ele>991.0</ele><time>2026-05-03T14:17:05Z</time></trkpt><trkpt lat="41.58176392401612" lon="-1.9497466367168859"><ele>990.9999999999999</ele><time>2026-05-03T14:17:06Z</time></trkpt><trkpt lat="41.58171177349903" lon="-1.9496209509475333"><ele>990.9999999999999</ele><time>2026-05-03T14:17:07Z</time></trkpt><trkpt lat="41.58166199625921" lon="-1.949495988682988"><ele>991.0</ele><time>2026-05-03T14:17:08Z</time></trkpt><trkpt lat="41.58161078862227" lon="-1.9493674355788284"><ele>991.0</ele><time>2026-05-03T14:17:09Z</time></trkpt><trkpt lat="41.58155916268983" lon="-1.9492378323402526"><ele>991.1999999999999</ele><time>2026-05-03T14:17:10Z</time></trkpt><trkpt lat="41.58150995212996" lon="-1.9491080527831308"><ele>991.3999999999999</ele><time>2026-05-03T14:17:11Z</time></trkpt><trkpt lat="41.581463002350816" lon="-1.9489740341623283"><ele>991.6</ele><time>2026-05-03T14:17:12Z</time></trkpt><trkpt lat="41.58141807693549" lon="-1.9488422781611385"><ele>991.8</ele><time>2026-05-03T14:17:13Z</time></trkpt><trkpt lat="41.58139133906388" lon="-1.94870211007843"><ele>992.0</ele><time>2026-05-03T14:17:14Z</time></trkpt><trkpt lat="41.581342367579076" lon="-1.9485776863211997"><ele>992.0</ele><time>2026-05-03T14:17:15Z</time></trkpt><trkpt lat="41.5813252208121" lon="-1.9484354373845645"><ele>992.0</ele><time>2026-05-03T14:17:16Z</time></trkpt><trkpt lat="41.58128758053051" lon="-1.9482978681796406"><ele>992.0</ele><time>2026-05-03T14:17:17Z</time></trkpt><trkpt lat="41.58126310470806" lon="-1.9481602535577063"><ele>992.0</ele><time>2026-05-03T14:17:18Z</time></trkpt><trkpt lat="41.58124304673537" lon="-1.9480168602854913"><ele>992.0</ele><time>2026-05-03T14:17:19Z</time></trkpt><trkpt lat="41.581225791596424" lon="-1.9478726505958142"><ele>991.6</ele><time>2026-05-03T14:17:20Z</time></trkpt><trkpt lat="41.581210466181275" lon="-1.947728445222"><ele>991.2</ele><time>2026-05-03T14:17:21Z</time></trkpt><trkpt lat="41.581197925297495" lon="-1.94758636398706"><ele>990.8</ele><time>2026-05-03T14:17:22Z</time></trkpt><trkpt lat="41.58118287452107" lon="-1.9474426114317263"><ele>990.4</ele><time>2026-05-03T14:17:23Z</time></trkpt><trkpt lat="41.58116978574383" lon="-1.947297629293415"><ele>990.0</ele><time>2026-05-03T14:17:24Z</time></trkpt><trkpt lat="41.5811567469516" lon="-1.9471530632588199"><ele>990.0</ele><time>2026-05-03T14:17:25Z</time></trkpt><trkpt lat="41.58114219931218" lon="-1.9470085470576493"><ele>990.0</ele><time>2026-05-03T14:17:26Z</time></trkpt><trkpt lat="41.58112654712714" lon="-1.9468652617637456"><ele>990.0</ele><time>2026-05-03T14:17:27Z</time></trkpt><trkpt lat="41.581115859054854" lon="-1.946721299537874"><ele>990.0</ele><time>2026-05-03T14:17:28Z</time></trkpt><trkpt lat="41.58110427777983" lon="-1.9465737461963704"><ele>990.0</ele><time>2026-05-03T14:17:29Z</time></trkpt><trkpt lat="41.581089823118134" lon="-1.9464301952848984"><ele>990.2</ele><time>2026-05-03T14:17:30Z</time></trkpt><trkpt lat="41.58107924337203" lon="-1.9462849584112887"><ele>990.4</ele><time>2026-05-03T14:17:31Z</time></trkpt><trkpt lat="41.58106549591052" lon="-1.9461382293167555"><ele>990.5999999999999</ele><time>2026-05-03T14:17:32Z</time></trkpt><trkpt lat="41.581053663121814" lon="-1.945995017859588"><ele>990.8</ele><time>2026-05-03T14:17:33Z</time></trkpt><trkpt lat="41.58103816361317" lon="-1.9458496930739624"><ele>991.0</ele><time>2026-05-03T14:17:34Z</time></trkpt><trkpt lat="41.581027799301026" lon="-1.9457059578171076"><ele>991.5999999999999</ele><time>2026-05-03T14:17:35Z</time></trkpt><trkpt lat="41.58101902120561" lon="-1.9455632951125768"><ele>992.1999999999999</ele><time>2026-05-03T14:17:36Z</time></trkpt><trkpt lat="41.58100575099107" lon="-1.9454177789282538"><ele>992.8000000000001</ele><time>2026-05-03T14:17:37Z</time></trkpt><trkpt lat="41.580991086494784" lon="-1.9452765974103121"><ele>993.4000000000001</ele><time>2026-05-03T14:17:38Z</time></trkpt><trkpt lat="41.58097637146609" lon="-1.9451326263344393"><ele>994.0</ele><time>2026-05-03T14:17:39Z</time></trkpt><trkpt lat="41.580960371446615" lon="-1.944988968903886"><ele>994.0</ele><time>2026-05-03T14:17:40Z</time></trkpt><trkpt lat="41.58094268589127" lon="-1.9448428628326482"><ele>994.0000000000001</ele><time>2026-05-03T14:17:41Z</time></trkpt><trkpt lat="41.58091968153392" lon="-1.944699193906818"><ele>994.0000000000001</ele><time>2026-05-03T14:17:42Z</time></trkpt><trkpt lat="41.580895436015695" lon="-1.9445546178615094"><ele>994.0</ele><time>2026-05-03T14:17:43Z</time></trkpt><trkpt lat="41.58086958132024" lon="-1.9444113238353569"><ele>994.0</ele><time>2026-05-03T14:17:44Z</time></trkpt><trkpt lat="41.5808433656711" lon="-1.9442717279985087"><ele>994.4000000000001</ele><time>2026-05-03T14:17:45Z</time></trkpt><trkpt lat="41.58081022521916" lon="-1.9441336039799062"><ele>994.8000000000001</ele><time>2026-05-03T14:17:46Z</time></trkpt><trkpt lat="41.58077364702808" lon="-1.9440002911787455"><ele>995.1999999999999</ele><time>2026-05-03T14:17:47Z</time></trkpt><trkpt lat="41.58073589818642" lon="-1.9438668888428912"><ele>995.5999999999999</ele><time>2026-05-03T14:17:48Z</time></trkpt><trkpt lat="41.580692781699994" lon="-1.943740802268797"><ele>996.0</ele><time>2026-05-03T14:17:49Z</time></trkpt><trkpt lat="41.580646447034425" lon="-1.9436102313479229"><ele>996.0</ele><time>2026-05-03T14:17:50Z</time></trkpt><trkpt lat="41.580595703720675" lon="-1.943481898608745"><ele>995.9999999999999</ele><time>2026-05-03T14:17:51Z</time></trkpt><trkpt lat="41.58054890835513" lon="-1.9433570949823975"><ele>995.9999999999999</ele><time>2026-05-03T14:17:52.001Z</time></trkpt><trkpt lat="41.58049525562935" lon="-1.9432394577779668"><ele>996.0</ele><time>2026-05-03T14:17:53.001Z</time></trkpt><trkpt lat="41.58044268593843" lon="-1.9431157958366532"><ele>996.0</ele><time>2026-05-03T14:17:54.001Z</time></trkpt><trkpt lat="41.58038641989306" lon="-1.942995113178328"><ele>996.0</ele><time>2026-05-03T14:17:55.001Z</time></trkpt><trkpt lat="41.580333827526765" lon="-1.9428712931249665"><ele>995.9999999999999</ele><time>2026-05-03T14:17:56.001Z</time></trkpt><trkpt lat="41.58027504615203" lon="-1.9427502361958118"><ele>995.9999999999999</ele><time>2026-05-03T14:17:57.001Z</time></trkpt><trkpt lat="41.58022084271616" lon="-1.9426231224474115"><ele>996.0</ele><time>2026-05-03T14:17:58.001Z</time></trkpt><trkpt lat="41.580163993915676" lon="-1.9425027413028517"><ele>996.0</ele><time>2026-05-03T14:17:59.001Z</time></trkpt><trkpt lat="41.580109275762716" lon="-1.9423800020099045"><ele>995.8</ele><time>2026-05-03T14:18:00.001Z</time></trkpt><trkpt lat="41.5800566381725" lon="-1.94225823578071"><ele>995.5999999999999</ele><time>2026-05-03T14:18:01.001Z</time></trkpt><trkpt lat="41.580003384214315" lon="-1.9421364389341214"><ele>995.4</ele><time>2026-05-03T14:18:02.001Z</time></trkpt><trkpt lat="41.57995082237563" lon="-1.9420113539038184"><ele>995.2</ele><time>2026-05-03T14:18:03.001Z</time></trkpt><trkpt lat="41.579888066100494" lon="-1.9418930846373816"><ele>995.0</ele><time>2026-05-03T14:18:04.001Z</time></trkpt><trkpt lat="41.57983172059074" lon="-1.9417724687641764"><ele>995.2</ele><time>2026-05-03T14:18:05.001Z</time></trkpt><trkpt lat="41.579778865049825" lon="-1.9416459517694786"><ele>995.4</ele><time>2026-05-03T14:18:06.001Z</time></trkpt><trkpt lat="41.57972114806912" lon="-1.9415205886566054"><ele>995.5999999999999</ele><time>2026-05-03T14:18:07.001Z</time></trkpt><trkpt lat="41.57966773352111" lon="-1.941401679052863"><ele>995.8</ele><time>2026-05-03T14:18:08.001Z</time></trkpt><trkpt lat="41.579612129860124" lon="-1.9412780685946904"><ele>996.0</ele><time>2026-05-03T14:18:09.001Z</time></trkpt><trkpt lat="41.579559186941545" lon="-1.9411565061274263"><ele>996.5999999999999</ele><time>2026-05-03T14:18:10.001Z</time></trkpt><trkpt lat="41.57950633299752" lon="-1.941033371465513"><ele>997.1999999999999</ele><time>2026-05-03T14:18:11.001Z</time></trkpt><trkpt lat="41.57944971632461" lon="-1.940913180291319"><ele>997.8000000000001</ele><time>2026-05-03T14:18:12.001Z</time></trkpt><trkpt lat="41.57939473500852" lon="-1.940790886659126"><ele>998.4000000000001</ele><time>2026-05-03T14:18:13.001Z</time></trkpt><trkpt lat="41.5793396590515" lon="-1.9406696230064557"><ele>999.0</ele><time>2026-05-03T14:18:14.001Z</time></trkpt><trkpt lat="41.57928640462185" lon="-1.9405492667908522"><ele>999.0</ele><time>2026-05-03T14:18:15.001Z</time></trkpt><trkpt lat="41.57923289063113" lon="-1.9404275388914316"><ele>999.0000000000001</ele><time>2026-05-03T14:18:16.001Z</time></trkpt><trkpt lat="41.57917980362818" lon="-1.9403041201368094"><ele>999.0000000000001</ele><time>2026-05-03T14:18:17.001Z</time></trkpt><trkpt lat="41.57912653249704" lon="-1.9401810756292621"><ele>999.0</ele><time>2026-05-03T14:18:18.001Z</time></trkpt><trkpt lat="41.579071420990154" lon="-1.9400600948457345"><ele>999.0</ele><time>2026-05-03T14:18:19.001Z</time></trkpt><trkpt lat="41.57901316438369" lon="-1.9399411146622625"><ele>999.0</ele><time>2026-05-03T14:18:20.001Z</time></trkpt><trkpt lat="41.57895845559385" lon="-1.9398198219385392"><ele>999.0000000000001</ele><time>2026-05-03T14:18:21.001Z</time></trkpt><trkpt lat="41.578905658231044" lon="-1.939697442026552"><ele>999.0000000000001</ele><time>2026-05-03T14:18:22.001Z</time></trkpt><trkpt lat="41.57884913819284" lon="-1.9395800217437358"><ele>999.0</ele><time>2026-05-03T14:18:23.001Z</time></trkpt><trkpt lat="41.57879924159435" lon="-1.9394562524505994"><ele>999.0</ele><time>2026-05-03T14:18:24.001Z</time></trkpt><trkpt lat="41.57874481446072" lon="-1.9393387943657359"><ele>999.0</ele><time>2026-05-03T14:18:25.001Z</time></trkpt><trkpt lat="41.578691136072514" lon="-1.9392188874800151"><ele>999.0000000000001</ele><time>2026-05-03T14:18:26.001Z</time></trkpt><trkpt lat="41.578635930472664" lon="-1.9390993210207577"><ele>999.0000000000001</ele><time>2026-05-03T14:18:27.001Z</time></trkpt><trkpt lat="41.578583092433675" lon="-1.938981798037846"><ele>999.0</ele><time>2026-05-03T14:18:28.001Z</time></trkpt><trkpt lat="41.57852861070584" lon="-1.938863293776567"><ele>999.0</ele><time>2026-05-03T14:18:29.001Z</time></trkpt><trkpt lat="41.578475356601345" lon="-1.9387442347603505"><ele>999.4000000000001</ele><time>2026-05-03T14:18:30.001Z</time></trkpt><trkpt lat="41.57841933508697" lon="-1.9386276146905395"><ele>999.8000000000001</ele><time>2026-05-03T14:18:31.001Z</time></trkpt><trkpt lat="41.578367536240464" lon="-1.9385086737931247"><ele>1000.1999999999999</ele><time>2026-05-03T14:18:32.001Z</time></trkpt><trkpt lat="41.57831543191352" lon="-1.9383891990755815"><ele>1000.5999999999999</ele><time>2026-05-03T14:18:33.001Z</time></trkpt><trkpt lat="41.57824821506059" lon="-1.9382807634669306"><ele>1001.0</ele><time>2026-05-03T14:18:34.001Z</time></trkpt><trkpt lat="41.578208454694305" lon="-1.9381537678936285"><ele>1001.0</ele><time>2026-05-03T14:18:35.001Z</time></trkpt><trkpt lat="41.57815476189136" lon="-1.9380370643564673"><ele>1000.9999999999999</ele><time>2026-05-03T14:18:36.001Z</time></trkpt><trkpt lat="41.57810247767313" lon="-1.9379217135724371"><ele>1000.9999999999999</ele><time>2026-05-03T14:18:37.001Z</time></trkpt><trkpt lat="41.57805243573795" lon="-1.9378028660042463"><ele>1001.0</ele><time>2026-05-03T14:18:38.001Z</time></trkpt><trkpt lat="41.57798584768642" lon="-1.937696792112959"><ele>1001.0</ele><time>2026-05-03T14:18:39.001Z</time></trkpt><trkpt lat="41.57794419306456" lon="-1.9375703854714883"><ele>1001.1999999999999</ele><time>2026-05-03T14:18:40.001Z</time></trkpt><trkpt lat="41.57789021628517" lon="-1.9374563426869158"><ele>1001.3999999999999</ele><time>2026-05-03T14:18:41.001Z</time></trkpt><trkpt lat="41.57784036212844" lon="-1.9373358308853768"><ele>1001.6</ele><time>2026-05-03T14:18:42Z</time></trkpt><trkpt lat="41.577775626058944" lon="-1.937228885683877"><ele>1001.8</ele><time>2026-05-03T14:18:43Z</time></trkpt><trkpt lat="41.57772277126084" lon="-1.9371112430668036"><ele>1002.0</ele><time>2026-05-03T14:18:44Z</time></trkpt><trkpt lat="41.57767994264237" lon="-1.9369875466133868"><ele>1002.0</ele><time>2026-05-03T14:18:45Z</time></trkpt><trkpt lat="41.57762752001747" lon="-1.9368729779869875"><ele>1002.0</ele><time>2026-05-03T14:18:46Z</time></trkpt><trkpt lat="41.57757656751997" lon="-1.9367533520610176"><ele>1002.0</ele><time>2026-05-03T14:18:47Z</time></trkpt><trkpt lat="41.57752446444249" lon="-1.936638969807531"><ele>1002.0</ele><time>2026-05-03T14:18:48Z</time></trkpt><trkpt lat="41.57747278463562" lon="-1.936523691591563"><ele>1002.0</ele><time>2026-05-03T14:18:49Z</time></trkpt><trkpt lat="41.57740646671445" lon="-1.9364174254652866"><ele>1002.8</ele><time>2026-05-03T14:18:50Z</time></trkpt><trkpt lat="41.57736957662278" lon="-1.9362956565179013"><ele>1003.6</ele><time>2026-05-03T14:18:51Z</time></trkpt><trkpt lat="41.5773176034898" lon="-1.9361821777925314"><ele>1004.3999999999999</ele><time>2026-05-03T14:18:52Z</time></trkpt><trkpt lat="41.5772519140146" lon="-1.9360773129477777"><ele>1005.1999999999999</ele><time>2026-05-03T14:18:53Z</time></trkpt><trkpt lat="41.57721361100417" lon="-1.9359568538906649"><ele>1006.0</ele><time>2026-05-03T14:18:54Z</time></trkpt><trkpt lat="41.577160012834746" lon="-1.935837187807083"><ele>1006.4</ele><time>2026-05-03T14:18:55Z</time></trkpt><trkpt lat="41.57710879216029" lon="-1.9357252269448804"><ele>1006.8</ele><time>2026-05-03T14:18:56Z</time></trkpt><trkpt lat="41.57705860926637" lon="-1.9356058581000932"><ele>1007.1999999999999</ele><time>2026-05-03T14:18:57Z</time></trkpt><trkpt lat="41.577007002074005" lon="-1.9354964147253668"><ele>1007.5999999999999</ele><time>2026-05-03T14:18:58Z</time></trkpt><trkpt lat="41.57695969757451" lon="-1.9353819343457366"><ele>1008.0</ele><time>2026-05-03T14:18:59Z</time></trkpt><trkpt lat="41.57691159416148" lon="-1.935265343108671"><ele>1008.2</ele><time>2026-05-03T14:19:00Z</time></trkpt><trkpt lat="41.57686823573454" lon="-1.93514621628637"><ele>1008.4</ele><time>2026-05-03T14:19:01Z</time></trkpt><trkpt lat="41.57682858953462" lon="-1.9350243968297178"><ele>1008.6000000000001</ele><time>2026-05-03T14:19:02Z</time></trkpt><trkpt lat="41.57679090291371" lon="-1.9349010125747708"><ele>1008.8000000000001</ele><time>2026-05-03T14:19:03Z</time></trkpt><trkpt lat="41.57675286828881" lon="-1.9347843680894703"><ele>1009.0</ele><time>2026-05-03T14:19:04Z</time></trkpt><trkpt lat="41.576722999239735" lon="-1.934656626260393"><ele>1009.0</ele><time>2026-05-03T14:19:05Z</time></trkpt><trkpt lat="41.576696043116065" lon="-1.9345279417032646"><ele>1009.0000000000001</ele><time>2026-05-03T14:19:06Z</time></trkpt><trkpt lat="41.57667191843159" lon="-1.9343970621223747"><ele>1009.0000000000001</ele><time>2026-05-03T14:19:07Z</time></trkpt><trkpt lat="41.576647681001994" lon="-1.9342737132839536"><ele>1009.0</ele><time>2026-05-03T14:19:08Z</time></trkpt><trkpt lat="41.57663417681085" lon="-1.9341402580459106"><ele>1009.0</ele><time>2026-05-03T14:19:09Z</time></trkpt><trkpt lat="41.57662141510226" lon="-1.9340009407602212"><ele>1009.6</ele><time>2026-05-03T14:19:10Z</time></trkpt><trkpt lat="41.57660650093715" lon="-1.9338688851445807"><ele>1010.2</ele><time>2026-05-03T14:19:11Z</time></trkpt><trkpt lat="41.57659604641294" lon="-1.9337355315354146"><ele>1010.8000000000001</ele><time>2026-05-03T14:19:12Z</time></trkpt><trkpt lat="41.576586116112175" lon="-1.9335961657395535"><ele>1011.4000000000001</ele><time>2026-05-03T14:19:13Z</time></trkpt><trkpt lat="41.5765753281399" lon="-1.9334602355012844"><ele>1012.0</ele><time>2026-05-03T14:19:14Z</time></trkpt><trkpt lat="41.5765655244785" lon="-1.9333214677072044"><ele>1012.4000000000001</ele><time>2026-05-03T14:19:15Z</time></trkpt><trkpt lat="41.57655435413568" lon="-1.933184867142864"><ele>1012.8000000000001</ele><time>2026-05-03T14:19:16Z</time></trkpt><trkpt lat="41.57654386329114" lon="-1.933047707244473"><ele>1013.2</ele><time>2026-05-03T14:19:17Z</time></trkpt><trkpt lat="41.5765328996491" lon="-1.9329101511359494"><ele>1013.6</ele><time>2026-05-03T14:19:18Z</time></trkpt><trkpt lat="41.57652431592689" lon="-1.9327714265209686"><ele>1014.0</ele><time>2026-05-03T14:19:19Z</time></trkpt><trkpt lat="41.576516066212385" lon="-1.9326336316670194"><ele>1014.2</ele><time>2026-05-03T14:19:20Z</time></trkpt><trkpt lat="41.5765085830254" lon="-1.9324929512289781"><ele>1014.4000000000001</ele><time>2026-05-03T14:19:21Z</time></trkpt><trkpt lat="41.57649887971565" lon="-1.932356757473458"><ele>1014.6</ele><time>2026-05-03T14:19:22Z</time></trkpt><trkpt lat="41.576489843568424" lon="-1.9322185291062917"><ele>1014.8</ele><time>2026-05-03T14:19:23Z</time></trkpt><trkpt lat="41.57647852962661" lon="-1.9320809742642446"><ele>1015.0</ele><time>2026-05-03T14:19:24Z</time></trkpt><trkpt lat="41.576469064116594" lon="-1.9319449949781762"><ele>1015.0</ele><time>2026-05-03T14:19:25Z</time></trkpt><trkpt lat="41.57645767047371" lon="-1.9318095421898485"><ele>1015.0</ele><time>2026-05-03T14:19:26Z</time></trkpt><trkpt lat="41.57644826473347" lon="-1.931675410504344"><ele>1015.0</ele><time>2026-05-03T14:19:27Z</time></trkpt><trkpt lat="41.57644024872152" lon="-1.9315372302695648"><ele>1015.0</ele><time>2026-05-03T14:19:28Z</time></trkpt><trkpt lat="41.57642997210256" lon="-1.9314027951341541"><ele>1015.0</ele><time>2026-05-03T14:19:29Z</time></trkpt><trkpt lat="41.57641928489434" lon="-1.9312677066613395"><ele>1015.2</ele><time>2026-05-03T14:19:30Z</time></trkpt><trkpt lat="41.57640941413692" lon="-1.9311326068368253"><ele>1015.4</ele><time>2026-05-03T14:19:31Z</time></trkpt><trkpt lat="41.576399937722485" lon="-1.9309977111402918"><ele>1015.5999999999999</ele><time>2026-05-03T14:19:32Z</time></trkpt><trkpt lat="41.576394087731984" lon="-1.9308626888556724"><ele>1015.8</ele><time>2026-05-03T14:19:33Z</time></trkpt><trkpt lat="41.576389447264646" lon="-1.9307279890458386"><ele>1016.0</ele><time>2026-05-03T14:19:34Z</time></trkpt><trkpt lat="41.57638354437446" lon="-1.9305951637335586"><ele>1016.5999999999999</ele><time>2026-05-03T14:19:35Z</time></trkpt><trkpt lat="41.57637645245051" lon="-1.930461187584798"><ele>1017.1999999999999</ele><time>2026-05-03T14:19:36Z</time></trkpt><trkpt lat="41.57636600158932" lon="-1.9303260122559935"><ele>1017.8000000000001</ele><time>2026-05-03T14:19:37Z</time></trkpt><trkpt lat="41.576352911141726" lon="-1.930189745300628"><ele>1018.4000000000001</ele><time>2026-05-03T14:19:38Z</time></trkpt><trkpt lat="41.57634195954395" lon="-1.9300565102266614"><ele>1019.0</ele><time>2026-05-03T14:19:39Z</time></trkpt><trkpt lat="41.57633312277019" lon="-1.9299207917666412"><ele>1019.4000000000001</ele><time>2026-05-03T14:19:40Z</time></trkpt><trkpt lat="41.57632321254607" lon="-1.9297859428165787"><ele>1019.8000000000001</ele><time>2026-05-03T14:19:41Z</time></trkpt><trkpt lat="41.57631018554785" lon="-1.9296559540223464"><ele>1020.1999999999999</ele><time>2026-05-03T14:19:42Z</time></trkpt><trkpt lat="41.576297216707495" lon="-1.9295226535731675"><ele>1020.5999999999999</ele><time>2026-05-03T14:19:43Z</time></trkpt><trkpt lat="41.57628450497435" lon="-1.9293953075795103"><ele>1021.0</ele><time>2026-05-03T14:19:44Z</time></trkpt><trkpt lat="41.576276288307014" lon="-1.9292628072112052"><ele>1021.0</ele><time>2026-05-03T14:19:45Z</time></trkpt><trkpt lat="41.576269187121774" lon="-1.92913344122033"><ele>1020.9999999999999</ele><time>2026-05-03T14:19:46Z</time></trkpt><trkpt lat="41.57625958911726" lon="-1.9290025542444598"><ele>1020.9999999999999</ele><time>2026-05-03T14:19:47Z</time></trkpt><trkpt lat="41.57624918952286" lon="-1.9288717418153132"><ele>1021.0</ele><time>2026-05-03T14:19:48Z</time></trkpt><trkpt lat="41.576240490000025" lon="-1.928742035858464"><ele>1021.0</ele><time>2026-05-03T14:19:49Z</time></trkpt><trkpt lat="41.57623502834409" lon="-1.9286154127960367"><ele>1021.0</ele><time>2026-05-03T14:19:50Z</time></trkpt><trkpt lat="41.57622501392476" lon="-1.928485479889992"><ele>1020.9999999999999</ele><time>2026-05-03T14:19:51Z</time></trkpt><trkpt lat="41.57621559657826" lon="-1.9283595926963821"><ele>1020.9999999999999</ele><time>2026-05-03T14:19:52Z</time></trkpt><trkpt lat="41.5762026446388" lon="-1.9282308010957363"><ele>1021.0</ele><time>2026-05-03T14:19:53Z</time></trkpt><trkpt lat="41.576194658323836" lon="-1.9281066393816535"><ele>1021.0</ele><time>2026-05-03T14:19:54Z</time></trkpt><trkpt lat="41.57618961247064" lon="-1.927982811685366"><ele>1021.1999999999999</ele><time>2026-05-03T14:19:55Z</time></trkpt><trkpt lat="41.57618084372602" lon="-1.9278580488431298"><ele>1021.3999999999999</ele><time>2026-05-03T14:19:56Z</time></trkpt><trkpt lat="41.57617341894504" lon="-1.927735888437015"><ele>1021.6</ele><time>2026-05-03T14:19:57Z</time></trkpt><trkpt lat="41.57616303502907" lon="-1.9276113623962499"><ele>1021.8</ele><time>2026-05-03T14:19:58Z</time></trkpt><trkpt lat="41.57615155595231" lon="-1.9274849862950099"><ele>1022.0</ele><time>2026-05-03T14:19:59Z</time></trkpt><trkpt lat="41.576144451039305" lon="-1.9273615259629477"><ele>1022.4000000000001</ele><time>2026-05-03T14:20:00Z</time></trkpt><trkpt lat="41.57613657203494" lon="-1.9272348462758224"><ele>1022.8000000000001</ele><time>2026-05-03T14:20:01Z</time></trkpt><trkpt lat="41.57612831218015" lon="-1.9271084567072962"><ele>1023.2</ele><time>2026-05-03T14:20:02Z</time></trkpt><trkpt lat="41.57611735152887" lon="-1.9269796777601396"><ele>1023.6</ele><time>2026-05-03T14:20:03.001Z</time></trkpt><trkpt lat="41.576111562764794" lon="-1.9268533393164524"><ele>1024.0</ele><time>2026-05-03T14:20:04.001Z</time></trkpt><trkpt lat="41.57610477416989" lon="-1.926726855629241"><ele>1024.6000000000001</ele><time>2026-05-03T14:20:05.001Z</time></trkpt><trkpt lat="41.57609443367014" lon="-1.9265975264089712"><ele>1025.2</ele><time>2026-05-03T14:20:06.001Z</time></trkpt><trkpt lat="41.57608502602088" lon="-1.9264720310592907"><ele>1025.8000000000002</ele><time>2026-05-03T14:20:07.001Z</time></trkpt><trkpt lat="41.57607401085259" lon="-1.9263447613276294"><ele>1026.4</ele><time>2026-05-03T14:20:08.001Z</time></trkpt><trkpt lat="41.57606006495826" lon="-1.9262163962549577"><ele>1027.0</ele><time>2026-05-03T14:20:09.001Z</time></trkpt><trkpt lat="41.57605122349861" lon="-1.926090565597336"><ele>1027.0</ele><time>2026-05-03T14:20:10.001Z</time></trkpt><trkpt lat="41.57604384104009" lon="-1.9259633848102278"><ele>1027.0</ele><time>2026-05-03T14:20:11.001Z</time></trkpt><trkpt lat="41.576034536546004" lon="-1.925835098584184"><ele>1027.0</ele><time>2026-05-03T14:20:12.001Z</time></trkpt><trkpt lat="41.576028663901575" lon="-1.9257082862153774"><ele>1027.0</ele><time>2026-05-03T14:20:13.001Z</time></trkpt><trkpt lat="41.5760216429861" lon="-1.925579348470616"><ele>1027.0</ele><time>2026-05-03T14:20:14.001Z</time></trkpt><trkpt lat="41.57601001697391" lon="-1.9254509334554732"><ele>1027.6</ele><time>2026-05-03T14:20:15.001Z</time></trkpt><trkpt lat="41.5759967976755" lon="-1.925322908094414"><ele>1028.2</ele><time>2026-05-03T14:20:16.001Z</time></trkpt><trkpt lat="41.575987363135305" lon="-1.9251959067622264"><ele>1028.8</ele><time>2026-05-03T14:20:17.001Z</time></trkpt><trkpt lat="41.57598115780756" lon="-1.9250667006989166"><ele>1029.4</ele><time>2026-05-03T14:20:18.001Z</time></trkpt><trkpt lat="41.575975250833906" lon="-1.9249363278822496"><ele>1030.0</ele><time>2026-05-03T14:20:19.001Z</time></trkpt><trkpt lat="41.57596532932534" lon="-1.9248075995440876"><ele>1030.6</ele><time>2026-05-03T14:20:20.001Z</time></trkpt><trkpt lat="41.57595424679121" lon="-1.9246796262017982"><ele>1031.2</ele><time>2026-05-03T14:20:21.001Z</time></trkpt><trkpt lat="41.57594522069578" lon="-1.9245497664562106"><ele>1031.8</ele><time>2026-05-03T14:20:22.001Z</time></trkpt><trkpt lat="41.57593842155657" lon="-1.9244221894237499"><ele>1032.4</ele><time>2026-05-03T14:20:23.001Z</time></trkpt><trkpt lat="41.57593185525923" lon="-1.9242957295486425"><ele>1033.0</ele><time>2026-05-03T14:20:24.001Z</time></trkpt><trkpt lat="41.57592571759776" lon="-1.9241691739460367"><ele>1033.2</ele><time>2026-05-03T14:20:25.001Z</time></trkpt><trkpt lat="41.575912476549085" lon="-1.9240400799300599"><ele>1033.4</ele><time>2026-05-03T14:20:26.001Z</time></trkpt><trkpt lat="41.57590405764775" lon="-1.9239152405195328"><ele>1033.6000000000001</ele><time>2026-05-03T14:20:27.001Z</time></trkpt><trkpt lat="41.57589566487568" lon="-1.9237900180932759"><ele>1033.8</ele><time>2026-05-03T14:20:28.001Z</time></trkpt><trkpt lat="41.57588971224729" lon="-1.9236643306591905"><ele>1034.0</ele><time>2026-05-03T14:20:29.001Z</time></trkpt><trkpt lat="41.575877930856805" lon="-1.9235371935352028"><ele>1034.0</ele><time>2026-05-03T14:20:30.001Z</time></trkpt><trkpt lat="41.575869405823454" lon="-1.92341345071882"><ele>1034.0</ele><time>2026-05-03T14:20:31.001Z</time></trkpt><trkpt lat="41.57585676912546" lon="-1.9232888531021701"><ele>1034.0</ele><time>2026-05-03T14:20:32.001Z</time></trkpt><trkpt lat="41.57584738512666" lon="-1.9231640964586338"><ele>1034.0</ele><time>2026-05-03T14:20:33.001Z</time></trkpt><trkpt lat="41.57584014529488" lon="-1.923042574172505"><ele>1034.0</ele><time>2026-05-03T14:20:34.001Z</time></trkpt><trkpt lat="41.57583312750015" lon="-1.9229183954392832"><ele>1034.6000000000001</ele><time>2026-05-03T14:20:35.001Z</time></trkpt><trkpt lat="41.57582880518299" lon="-1.9227998814101084"><ele>1035.2</ele><time>2026-05-03T14:20:36.001Z</time></trkpt><trkpt lat="41.57582126401826" lon="-1.922677979781121"><ele>1035.8000000000002</ele><time>2026-05-03T14:20:37.001Z</time></trkpt><trkpt lat="41.575813052021466" lon="-1.922550196231994"><ele>1036.4</ele><time>2026-05-03T14:20:38.001Z</time></trkpt><trkpt lat="41.5758053554437" lon="-1.9224284280721018"><ele>1037.0</ele><time>2026-05-03T14:20:39.001Z</time></trkpt><trkpt lat="41.57579719931822" lon="-1.9223110268518002"><ele>1037.6</ele><time>2026-05-03T14:20:40.001Z</time></trkpt><trkpt lat="41.57578866038042" lon="-1.9221896650127688"><ele>1038.2</ele><time>2026-05-03T14:20:41.001Z</time></trkpt><trkpt lat="41.575779236563505" lon="-1.9220691280706466"><ele>1038.8</ele><time>2026-05-03T14:20:42.001Z</time></trkpt><trkpt lat="41.57577092397382" lon="-1.9219502118371998"><ele>1039.4</ele><time>2026-05-03T14:20:43.001Z</time></trkpt><trkpt lat="41.575762912530664" lon="-1.9218305696969538"><ele>1040.0</ele><time>2026-05-03T14:20:44.001Z</time></trkpt><trkpt lat="41.57575351354268" lon="-1.921711434621592"><ele>1040.3333333333335</ele><time>2026-05-03T14:20:45.001Z</time></trkpt><trkpt lat="41.57574268199734" lon="-1.9215928362816306"><ele>1040.6666666666667</ele><time>2026-05-03T14:20:46.001Z</time></trkpt><trkpt lat="41.575733709288244" lon="-1.9214758738842692"><ele>1041.0</ele><time>2026-05-03T14:20:47.001Z</time></trkpt><trkpt lat="41.575722827414076" lon="-1.9213581746326578"><ele>1041.3333333333333</ele><time>2026-05-03T14:20:48Z</time></trkpt><trkpt lat="41.5757100584711" lon="-1.9212383811920895"><ele>1041.6666666666665</ele><time>2026-05-03T14:20:49Z</time></trkpt><trkpt lat="41.5756980020089" lon="-1.9211228900425026"><ele>1042.0</ele><time>2026-05-03T14:20:50Z</time></trkpt><trkpt lat="41.57568692783804" lon="-1.9210048980595473"><ele>1042.6666666666665</ele><time>2026-05-03T14:20:51Z</time></trkpt><trkpt lat="41.5756754494226" lon="-1.9208875008089603"><ele>1043.3333333333333</ele><time>2026-05-03T14:20:52Z</time></trkpt><trkpt lat="41.57566243853398" lon="-1.9207700011651272"><ele>1044.0</ele><time>2026-05-03T14:20:53Z</time></trkpt><trkpt lat="41.57564908225635" lon="-1.9206532684524489"><ele>1044.6666666666667</ele><time>2026-05-03T14:20:54Z</time></trkpt><trkpt lat="41.57563496533387" lon="-1.9205367306741148"><ele>1045.3333333333335</ele><time>2026-05-03T14:20:55Z</time></trkpt><trkpt lat="41.575618549888006" lon="-1.9204202266620385"><ele>1046.0</ele><time>2026-05-03T14:20:56Z</time></trkpt><trkpt lat="41.57560212382345" lon="-1.9203063635879354"><ele>1046.0</ele><time>2026-05-03T14:20:57Z</time></trkpt><trkpt lat="41.575585921706995" lon="-1.9201888351264325"><ele>1046.0</ele><time>2026-05-03T14:20:58Z</time></trkpt><trkpt lat="41.5755671739627" lon="-1.9200734175509984"><ele>1046.0</ele><time>2026-05-03T14:20:59Z</time></trkpt><trkpt lat="41.57554956423079" lon="-1.9199564341826316"><ele>1046.0</ele><time>2026-05-03T14:21:00Z</time></trkpt><trkpt lat="41.57553052060183" lon="-1.9198405528709406"><ele>1046.0</ele><time>2026-05-03T14:21:01Z</time></trkpt><trkpt lat="41.57551004691805" lon="-1.9197257713535925"><ele>1046.0</ele><time>2026-05-03T14:21:02Z</time></trkpt><trkpt lat="41.57548940841073" lon="-1.919609331503489"><ele>1046.1666666666667</ele><time>2026-05-03T14:21:03Z</time></trkpt><trkpt lat="41.57546955582182" lon="-1.9194939997151186"><ele>1046.3333333333335</ele><time>2026-05-03T14:21:04Z</time></trkpt><trkpt lat="41.57544746461709" lon="-1.9193794341533503"><ele>1046.5</ele><time>2026-05-03T14:21:05Z</time></trkpt><trkpt lat="41.57542320126276" lon="-1.9192637349381794"><ele>1046.6666666666667</ele><time>2026-05-03T14:21:06Z</time></trkpt><trkpt lat="41.57539812983827" lon="-1.919148448273039"><ele>1046.8333333333333</ele><time>2026-05-03T14:21:07Z</time></trkpt><trkpt lat="41.575373740596106" lon="-1.919033817069212"><ele>1047.0</ele><time>2026-05-03T14:21:08Z</time></trkpt><trkpt lat="41.5753471931627" lon="-1.9189186900995538"><ele>1048.1666666666667</ele><time>2026-05-03T14:21:09Z</time></trkpt><trkpt lat="41.57532034858129" lon="-1.9188046687025364"><ele>1049.3333333333333</ele><time>2026-05-03T14:21:10Z</time></trkpt><trkpt lat="41.5752921463095" lon="-1.9186905146693678"><ele>1050.5</ele><time>2026-05-03T14:21:11Z</time></trkpt><trkpt lat="41.57526402452285" lon="-1.9185780341962004"><ele>1051.6666666666665</ele><time>2026-05-03T14:21:12Z</time></trkpt><trkpt lat="41.575233877281974" lon="-1.9184651852153962"><ele>1052.8333333333333</ele><time>2026-05-03T14:21:13Z</time></trkpt><trkpt lat="41.57520303341887" lon="-1.9183550470529451"><ele>1054.0</ele><time>2026-05-03T14:21:14Z</time></trkpt><trkpt lat="41.575172449921475" lon="-1.9182444443607876"><ele>1054.3333333333333</ele><time>2026-05-03T14:21:15Z</time></trkpt><trkpt lat="41.57514265609278" lon="-1.918135833974014"><ele>1054.6666666666665</ele><time>2026-05-03T14:21:16Z</time></trkpt><trkpt lat="41.57511190186972" lon="-1.918027946330758"><ele>1055.0</ele><time>2026-05-03T14:21:17Z</time></trkpt><trkpt lat="41.57507991418321" lon="-1.9179210949520233"><ele>1055.3333333333333</ele><time>2026-05-03T14:21:18Z</time></trkpt><trkpt lat="41.57504735493309" lon="-1.9178125857830306"><ele>1055.6666666666667</ele><time>2026-05-03T14:21:19Z</time></trkpt><trkpt lat="41.57501584662943" lon="-1.917705904302889"><ele>1056.0</ele><time>2026-05-03T14:21:20Z</time></trkpt><trkpt lat="41.57498397404979" lon="-1.9176010159377812"><ele>1056.0</ele><time>2026-05-03T14:21:21Z</time></trkpt><trkpt lat="41.57495014370928" lon="-1.9174979077984469"><ele>1056.0</ele><time>2026-05-03T14:21:22Z</time></trkpt><trkpt lat="41.57491427495066" lon="-1.9173955463217724"><ele>1056.0</ele><time>2026-05-03T14:21:23Z</time></trkpt><trkpt lat="41.57487948387461" lon="-1.917292373606"><ele>1056.0</ele><time>2026-05-03T14:21:24Z</time></trkpt><trkpt lat="41.574842300823825" lon="-1.9171885249344212"><ele>1056.0</ele><time>2026-05-03T14:21:25Z</time></trkpt><trkpt lat="41.57480595526323" lon="-1.917086412704247"><ele>1056.0</ele><time>2026-05-03T14:21:26Z</time></trkpt><trkpt lat="41.57476905348311" lon="-1.9169848543824137"><ele>1056.0</ele><time>2026-05-03T14:21:27Z</time></trkpt><trkpt lat="41.574730764896685" lon="-1.916881199639009"><ele>1056.0</ele><time>2026-05-03T14:21:28Z</time></trkpt><trkpt lat="41.57469456270313" lon="-1.9167812785449907"><ele>1056.0</ele><time>2026-05-03T14:21:29Z</time></trkpt><trkpt lat="41.57465701099129" lon="-1.9166809105935765"><ele>1056.0</ele><time>2026-05-03T14:21:30Z</time></trkpt><trkpt lat="41.57461978707293" lon="-1.9165800504094432"><ele>1056.0</ele><time>2026-05-03T14:21:31Z</time></trkpt><trkpt lat="41.57458249797165" lon="-1.9164822542372943"><ele>1056.0</ele><time>2026-05-03T14:21:32Z</time></trkpt><trkpt lat="41.57454470195779" lon="-1.9163827600908017"><ele>1058.0</ele><time>2026-05-03T14:21:33Z</time></trkpt><trkpt lat="41.57450687416205" lon="-1.916284859015224"><ele>1060.0</ele><time>2026-05-03T14:21:34Z</time></trkpt><trkpt lat="41.574469200167165" lon="-1.9161865625720607"><ele>1062.0</ele><time>2026-05-03T14:21:35Z</time></trkpt><trkpt lat="41.574431528864295" lon="-1.9160886073963674"><ele>1064.0</ele><time>2026-05-03T14:21:36Z</time></trkpt><trkpt lat="41.57439507000752" lon="-1.9159899011213797"><ele>1066.0</ele><time>2026-05-03T14:21:37Z</time></trkpt><trkpt lat="41.57435771724514" lon="-1.9158908657128808"><ele>1068.0</ele><time>2026-05-03T14:21:38Z</time></trkpt><trkpt lat="41.574320621195355" lon="-1.9157922439888677"><ele>1068.0</ele><time>2026-05-03T14:21:39Z</time></trkpt><trkpt lat="41.57428237977299" lon="-1.9156929756287666"><ele>1068.0</ele><time>2026-05-03T14:21:40Z</time></trkpt><trkpt lat="41.57424260180922" lon="-1.9155930755947268"><ele>1068.0</ele><time>2026-05-03T14:21:41Z</time></trkpt><trkpt lat="41.57420238747495" lon="-1.9154922924415025"><ele>1068.0</ele><time>2026-05-03T14:21:42Z</time></trkpt><trkpt lat="41.57416076073015" lon="-1.9153911784823068"><ele>1068.0</ele><time>2026-05-03T14:21:43Z</time></trkpt><trkpt lat="41.57411840147034" lon="-1.9152905299749439"><ele>1068.0</ele><time>2026-05-03T14:21:44Z</time></trkpt><trkpt lat="41.574070723295726" lon="-1.9151878772273707"><ele>1068.0</ele><time>2026-05-03T14:21:45Z</time></trkpt><trkpt lat="41.574022663886076" lon="-1.9150880325423059"><ele>1068.0</ele><time>2026-05-03T14:21:46Z</time></trkpt><trkpt lat="41.573974371487594" lon="-1.9149889883465463"><ele>1068.0</ele><time>2026-05-03T14:21:47Z</time></trkpt><trkpt lat="41.57392383536412" lon="-1.9148870911885305"><ele>1068.0</ele><time>2026-05-03T14:21:48Z</time></trkpt><trkpt lat="41.57387186452972" lon="-1.914784682491777"><ele>1068.0</ele><time>2026-05-03T14:21:49Z</time></trkpt><trkpt lat="41.57381787886317" lon="-1.9146816213862745"><ele>1068.2</ele><time>2026-05-03T14:21:50Z</time></trkpt><trkpt lat="41.57376239597295" lon="-1.9145792150637135"><ele>1068.4</ele><time>2026-05-03T14:21:51Z</time></trkpt><trkpt lat="41.573703007076716" lon="-1.9144775383137702"><ele>1068.6000000000001</ele><time>2026-05-03T14:21:52Z</time></trkpt><trkpt lat="41.57364032774407" lon="-1.914376536392966"><ele>1068.8</ele><time>2026-05-03T14:21:53Z</time></trkpt><trkpt lat="41.573575998392556" lon="-1.914274433449943"><ele>1069.0</ele><time>2026-05-03T14:21:54Z</time></trkpt><trkpt lat="41.57350993952448" lon="-1.9141719662827246"><ele>1069.4</ele><time>2026-05-03T14:21:55Z</time></trkpt><trkpt lat="41.57342890254244" lon="-1.9140833394830836"><ele>1069.8000000000002</ele><time>2026-05-03T14:21:56Z</time></trkpt><trkpt lat="41.57337024920947" lon="-1.9139649729667303"><ele>1070.1999999999998</ele><time>2026-05-03T14:21:57Z</time></trkpt><trkpt lat="41.57329655684202" lon="-1.9138653632258091"><ele>1070.6</ele><time>2026-05-03T14:21:58Z</time></trkpt><trkpt lat="41.57321699542176" lon="-1.9137605227596672"><ele>1071.0</ele><time>2026-05-03T14:21:59Z</time></trkpt><trkpt lat="41.5731342157466" lon="-1.9136767311129492"><ele>1071.0</ele><time>2026-05-03T14:22:00Z</time></trkpt><trkpt lat="41.57306134029682" lon="-1.9135767075940682"><ele>1071.0</ele><time>2026-05-03T14:22:01Z</time></trkpt><trkpt lat="41.57297791230419" lon="-1.9134775524049246"><ele>1071.0</ele><time>2026-05-03T14:22:02Z</time></trkpt><trkpt lat="41.57289176386557" lon="-1.913377475147338"><ele>1071.0</ele><time>2026-05-03T14:22:03Z</time></trkpt><trkpt lat="41.57280516110884" lon="-1.9132797118977856"><ele>1071.0</ele><time>2026-05-03T14:22:04Z</time></trkpt><trkpt lat="41.5727150402174" lon="-1.9131810513129808"><ele>1070.0</ele><time>2026-05-03T14:22:05Z</time></trkpt><trkpt lat="41.57262666653806" lon="-1.913084621179608"><ele>1069.0</ele><time>2026-05-03T14:22:06Z</time></trkpt><trkpt lat="41.57254423077521" lon="-1.9129780063915451"><ele>1068.0</ele><time>2026-05-03T14:22:07Z</time></trkpt><trkpt lat="41.57245226998203" lon="-1.9128900083598293"><ele>1067.0</ele><time>2026-05-03T14:22:08Z</time></trkpt><trkpt lat="41.57235962002701" lon="-1.9127959625911415"><ele>1067.0</ele><time>2026-05-03T14:22:09Z</time></trkpt><trkpt lat="41.572256356244836" lon="-1.9127232178102205"><ele>1067.0</ele><time>2026-05-03T14:22:10Z</time></trkpt><trkpt lat="41.57215846447516" lon="-1.912636748090345"><ele>1067.0</ele><time>2026-05-03T14:22:11Z</time></trkpt><trkpt lat="41.57205947284465" lon="-1.912550839085086"><ele>1067.0</ele><time>2026-05-03T14:22:12Z</time></trkpt><trkpt lat="41.57196114495416" lon="-1.912449350419681"><ele>1065.25</ele><time>2026-05-03T14:22:13Z</time></trkpt><trkpt lat="41.57185999440654" lon="-1.9123647418039995"><ele>1063.5</ele><time>2026-05-03T14:22:14Z</time></trkpt><trkpt lat="41.57176353352175" lon="-1.91227714665773"><ele>1061.75</ele><time>2026-05-03T14:22:15Z</time></trkpt><trkpt lat="41.571661998133095" lon="-1.912187324181989"><ele>1060.0</ele><time>2026-05-03T14:22:16.001Z</time></trkpt><trkpt lat="41.57156076170228" lon="-1.912105789550567"><ele>1060.0</ele><time>2026-05-03T14:22:17.001Z</time></trkpt><trkpt lat="41.57146579423486" lon="-1.9120220115002913"><ele>1060.0</ele><time>2026-05-03T14:22:18.001Z</time></trkpt><trkpt lat="41.571371750696656" lon="-1.9119367399347522"><ele>1060.0</ele><time>2026-05-03T14:22:19.001Z</time></trkpt><trkpt lat="41.571278032620505" lon="-1.9118514100814434"><ele>1060.0</ele><time>2026-05-03T14:22:20.001Z</time></trkpt><trkpt lat="41.57118122979247" lon="-1.9117710236979024"><ele>1058.5</ele><time>2026-05-03T14:22:21.001Z</time></trkpt><trkpt lat="41.571088398989595" lon="-1.9116858728634938"><ele>1057.0</ele><time>2026-05-03T14:22:22.001Z</time></trkpt><trkpt lat="41.570991415775055" lon="-1.9115987499819433"><ele>1055.5</ele><time>2026-05-03T14:22:23.001Z</time></trkpt><trkpt lat="41.57089674899237" lon="-1.911517177113009"><ele>1054.0</ele><time>2026-05-03T14:22:24.001Z</time></trkpt><trkpt lat="41.57080148108162" lon="-1.911430661038955"><ele>1054.0</ele><time>2026-05-03T14:22:25.001Z</time></trkpt><trkpt lat="41.57070629246042" lon="-1.9113483767100738"><ele>1054.0</ele><time>2026-05-03T14:22:26.001Z</time></trkpt><trkpt lat="41.570611646058815" lon="-1.9112633759467188"><ele>1054.0</ele><time>2026-05-03T14:22:27.001Z</time></trkpt><trkpt lat="41.57051626063289" lon="-1.911176684441827"><ele>1054.0</ele><time>2026-05-03T14:22:28.001Z</time></trkpt><trkpt lat="41.57042339155851" lon="-1.9110918933231185"><ele>1054.75</ele><time>2026-05-03T14:22:29.001Z</time></trkpt><trkpt lat="41.570326968646405" lon="-1.9110070470004858"><ele>1055.5</ele><time>2026-05-03T14:22:30.001Z</time></trkpt><trkpt lat="41.570232156103565" lon="-1.9109243512833392"><ele>1056.25</ele><time>2026-05-03T14:22:31.001Z</time></trkpt><trkpt lat="41.57013676660818" lon="-1.910840277182088"><ele>1057.0</ele><time>2026-05-03T14:22:32.001Z</time></trkpt><trkpt lat="41.57004173568301" lon="-1.9107529112215735"><ele>1055.25</ele><time>2026-05-03T14:22:33.001Z</time></trkpt><trkpt lat="41.56994576497657" lon="-1.9106679379679288"><ele>1053.5</ele><time>2026-05-03T14:22:34.001Z</time></trkpt><trkpt lat="41.569853942864505" lon="-1.910578891250884"><ele>1051.75</ele><time>2026-05-03T14:22:35.001Z</time></trkpt><trkpt lat="41.569761173197854" lon="-1.9104913420036564"><ele>1050.0</ele><time>2026-05-03T14:22:36.001Z</time></trkpt><trkpt lat="41.56966630962569" lon="-1.9104086706953811"><ele>1050.0</ele><time>2026-05-03T14:22:37.001Z</time></trkpt><trkpt lat="41.56957087064715" lon="-1.910318492390938"><ele>1050.0</ele><time>2026-05-03T14:22:38.001Z</time></trkpt><trkpt lat="41.569476973826795" lon="-1.9102317994408717"><ele>1050.0</ele><time>2026-05-03T14:22:39.001Z</time></trkpt><trkpt lat="41.569380827863675" lon="-1.9101446534169868"><ele>1050.0</ele><time>2026-05-03T14:22:40.001Z</time></trkpt><trkpt lat="41.56928550077333" lon="-1.9100548731340858"><ele>1048.75</ele><time>2026-05-03T14:22:41.001Z</time></trkpt><trkpt lat="41.56919028889391" lon="-1.909968224806703"><ele>1047.5</ele><time>2026-05-03T14:22:42.001Z</time></trkpt><trkpt lat="41.5690943709809" lon="-1.9098710738396982"><ele>1046.25</ele><time>2026-05-03T14:22:43.001Z</time></trkpt><trkpt lat="41.568999155588955" lon="-1.909786086526418"><ele>1045.0</ele><time>2026-05-03T14:22:44.001Z</time></trkpt><trkpt lat="41.56890322885288" lon="-1.9096931420037964"><ele>1045.0</ele><time>2026-05-03T14:22:45.001Z</time></trkpt><trkpt lat="41.56880733747985" lon="-1.909598093272458"><ele>1045.0</ele><time>2026-05-03T14:22:46.001Z</time></trkpt><trkpt lat="41.56871156226954" lon="-1.9095107601740786"><ele>1045.0</ele><time>2026-05-03T14:22:47.001Z</time></trkpt><trkpt lat="41.56861350677775" lon="-1.90941921220934"><ele>1045.0</ele><time>2026-05-03T14:22:48.001Z</time></trkpt><trkpt lat="41.56851775213666" lon="-1.9093281498730958"><ele>1044.25</ele><time>2026-05-03T14:22:49.001Z</time></trkpt><trkpt lat="41.56841708986689" lon="-1.9092378262536631"><ele>1043.5</ele><time>2026-05-03T14:22:50.001Z</time></trkpt><trkpt lat="41.56831933905142" lon="-1.9091487453992542"><ele>1042.75</ele><time>2026-05-03T14:22:51.001Z</time></trkpt><trkpt lat="41.568221527551884" lon="-1.9090492936979944"><ele>1042.0</ele><time>2026-05-03T14:22:52.001Z</time></trkpt><trkpt lat="41.568125617028834" lon="-1.9089545294792407"><ele>1042.0</ele><time>2026-05-03T14:22:53.001Z</time></trkpt><trkpt lat="41.5680283701619" lon="-1.908867236035467"><ele>1042.0</ele><time>2026-05-03T14:22:54Z</time></trkpt><trkpt lat="41.5679325592055" lon="-1.9087710071836133"><ele>1042.0</ele><time>2026-05-03T14:22:55Z</time></trkpt><trkpt lat="41.56783398203325" lon="-1.9086779860323242"><ele>1042.0</ele><time>2026-05-03T14:22:56Z</time></trkpt><trkpt lat="41.56773589440808" lon="-1.9085861757504594"><ele>1042.25</ele><time>2026-05-03T14:22:57Z</time></trkpt><trkpt lat="41.56764180845699" lon="-1.9084939417161013"><ele>1042.5</ele><time>2026-05-03T14:22:58Z</time></trkpt><trkpt lat="41.567547718153385" lon="-1.9084057900516873"><ele>1042.75</ele><time>2026-05-03T14:22:59Z</time></trkpt><trkpt lat="41.56744991304263" lon="-1.9083143645600193"><ele>1043.0</ele><time>2026-05-03T14:23:00Z</time></trkpt><trkpt lat="41.56735399750434" lon="-1.9082191571773188"><ele>1042.25</ele><time>2026-05-03T14:23:01Z</time></trkpt><trkpt lat="41.567258594926" lon="-1.9081316733996248"><ele>1041.5</ele><time>2026-05-03T14:23:02Z</time></trkpt><trkpt lat="41.567165152619246" lon="-1.9080381861277464"><ele>1040.75</ele><time>2026-05-03T14:23:03Z</time></trkpt><trkpt lat="41.567071050665085" lon="-1.9079450413832741"><ele>1040.0</ele><time>2026-05-03T14:23:04Z</time></trkpt><trkpt lat="41.566976234633046" lon="-1.9078501136209505"><ele>1040.0</ele><time>2026-05-03T14:23:05Z</time></trkpt><trkpt lat="41.56687981379841" lon="-1.9077650413195006"><ele>1040.0</ele><time>2026-05-03T14:23:06Z</time></trkpt><trkpt lat="41.56678673619872" lon="-1.9076817164088156"><ele>1040.0</ele><time>2026-05-03T14:23:07Z</time></trkpt><trkpt lat="41.566693382192575" lon="-1.9075935749290482"><ele>1040.0</ele><time>2026-05-03T14:23:08Z</time></trkpt><trkpt lat="41.566596811824006" lon="-1.9075006738465365"><ele>1039.25</ele><time>2026-05-03T14:23:09Z</time></trkpt><trkpt lat="41.56650884906117" lon="-1.9074166219438569"><ele>1038.5</ele><time>2026-05-03T14:23:10Z</time></trkpt><trkpt lat="41.56639786149074" lon="-1.9073461078635563"><ele>1037.75</ele><time>2026-05-03T14:23:11Z</time></trkpt><trkpt lat="41.56631822703689" lon="-1.9072382438093975"><ele>1037.0</ele><time>2026-05-03T14:23:12Z</time></trkpt><trkpt lat="41.56622720013183" lon="-1.9071546091730032"><ele>1036.25</ele><time>2026-05-03T14:23:13Z</time></trkpt><trkpt lat="41.5661358271178" lon="-1.9070634615257378"><ele>1035.5</ele><time>2026-05-03T14:23:14Z</time></trkpt><trkpt lat="41.5660391784099" lon="-1.9069747751857282"><ele>1034.75</ele><time>2026-05-03T14:23:15Z</time></trkpt><trkpt lat="41.56594559509213" lon="-1.906882300793804"><ele>1034.0</ele><time>2026-05-03T14:23:16Z</time></trkpt><trkpt lat="41.565856459864044" lon="-1.9067932143606696"><ele>1033.75</ele><time>2026-05-03T14:23:17Z</time></trkpt><trkpt lat="41.56576189524151" lon="-1.9066950932415043"><ele>1033.5</ele><time>2026-05-03T14:23:18Z</time></trkpt><trkpt lat="41.565668753347964" lon="-1.906612058421196"><ele>1033.25</ele><time>2026-05-03T14:23:19Z</time></trkpt><trkpt lat="41.5655779340009" lon="-1.9065285960369192"><ele>1033.0</ele><time>2026-05-03T14:23:20Z</time></trkpt><trkpt lat="41.56547834428131" lon="-1.906436648789746"><ele>1033.0</ele><time>2026-05-03T14:23:21Z</time></trkpt><trkpt lat="41.565383359498355" lon="-1.906339967377765"><ele>1033.0</ele><time>2026-05-03T14:23:22Z</time></trkpt><trkpt lat="41.56529263063055" lon="-1.9062610028648452"><ele>1033.0</ele><time>2026-05-03T14:23:23Z</time></trkpt><trkpt lat="41.56519588921043" lon="-1.9061677852852728"><ele>1033.0</ele><time>2026-05-03T14:23:24Z</time></trkpt><trkpt lat="41.5651053397954" lon="-1.9060885360006914"><ele>1032.5</ele><time>2026-05-03T14:23:25Z</time></trkpt><trkpt lat="41.56500940873964" lon="-1.9060143789762871"><ele>1032.0</ele><time>2026-05-03T14:23:26Z</time></trkpt><trkpt lat="41.56491733660561" lon="-1.9059083746959342"><ele>1031.5</ele><time>2026-05-03T14:23:27Z</time></trkpt><trkpt lat="41.564827181759306" lon="-1.9058185284785225"><ele>1031.0</ele><time>2026-05-03T14:23:28Z</time></trkpt><trkpt lat="41.564732450741374" lon="-1.9057351446016664"><ele>1031.0</ele><time>2026-05-03T14:23:29Z</time></trkpt><trkpt lat="41.56464153137842" lon="-1.905644319543263"><ele>1031.0</ele><time>2026-05-03T14:23:30Z</time></trkpt><trkpt lat="41.564546793697325" lon="-1.9055665182087014"><ele>1031.0</ele><time>2026-05-03T14:23:31Z</time></trkpt><trkpt lat="41.564458276032674" lon="-1.9054756307065246"><ele>1031.0</ele><time>2026-05-03T14:23:32Z</time></trkpt><trkpt lat="41.56436859011781" lon="-1.9053872622634842"><ele>1031.0</ele><time>2026-05-03T14:23:33Z</time></trkpt><trkpt lat="41.56427772845635" lon="-1.9052995952839953"><ele>1031.0</ele><time>2026-05-03T14:23:34Z</time></trkpt><trkpt lat="41.56419172516784" lon="-1.9052064734078935"><ele>1031.0</ele><time>2026-05-03T14:23:35Z</time></trkpt><trkpt lat="41.56409507351819" lon="-1.9051207524754634"><ele>1031.0</ele><time>2026-05-03T14:23:36Z</time></trkpt><trkpt lat="41.564017006594845" lon="-1.9050288385112903"><ele>1031.0</ele><time>2026-05-03T14:23:37Z</time></trkpt><trkpt lat="41.56392958087073" lon="-1.9049490955314723"><ele>1031.0</ele><time>2026-05-03T14:23:38Z</time></trkpt><trkpt lat="41.56384482430464" lon="-1.9048593883102203"><ele>1031.0</ele><time>2026-05-03T14:23:39Z</time></trkpt><trkpt lat="41.56376190050699" lon="-1.9047663362509197"><ele>1031.0</ele><time>2026-05-03T14:23:40Z</time></trkpt><trkpt lat="41.563680843212666" lon="-1.9046714238704459"><ele>1031.0</ele><time>2026-05-03T14:23:41Z</time></trkpt><trkpt lat="41.563604339323305" lon="-1.9045743210391397"><ele>1031.0</ele><time>2026-05-03T14:23:42Z</time></trkpt><trkpt lat="41.56352438627531" lon="-1.9044768528756673"><ele>1031.0</ele><time>2026-05-03T14:23:43Z</time></trkpt><trkpt lat="41.56344546013196" lon="-1.9043787201267484"><ele>1030.6</ele><time>2026-05-03T14:23:44Z</time></trkpt><trkpt lat="41.56336862085126" lon="-1.90428089338262"><ele>1030.1999999999998</ele><time>2026-05-03T14:23:45Z</time></trkpt><trkpt lat="41.56328986424497" lon="-1.9041798767038889"><ele>1029.8000000000002</ele><time>2026-05-03T14:23:46Z</time></trkpt><trkpt lat="41.56321090390302" lon="-1.9040756722551233"><ele>1029.4</ele><time>2026-05-03T14:23:47Z</time></trkpt><trkpt lat="41.56313478068093" lon="-1.903970734918629"><ele>1029.0</ele><time>2026-05-03T14:23:48Z</time></trkpt><trkpt lat="41.56306178883676" lon="-1.9038661902883676"><ele>1029.0</ele><time>2026-05-03T14:23:49Z</time></trkpt><trkpt lat="41.56298203857854" lon="-1.9037593697357766"><ele>1029.0</ele><time>2026-05-03T14:23:50Z</time></trkpt><trkpt lat="41.56290529619872" lon="-1.9036547939212978"><ele>1029.0</ele><time>2026-05-03T14:23:51Z</time></trkpt><trkpt lat="41.56282772222258" lon="-1.9035486891833042"><ele>1029.0</ele><time>2026-05-03T14:23:52Z</time></trkpt><trkpt lat="41.56275045643596" lon="-1.9034441888050893"><ele>1029.0</ele><time>2026-05-03T14:23:53Z</time></trkpt><trkpt lat="41.56267690269275" lon="-1.9033457215987089"><ele>1028.6000000000001</ele><time>2026-05-03T14:23:54Z</time></trkpt><trkpt lat="41.5626008620048" lon="-1.9032465828417457"><ele>1028.2</ele><time>2026-05-03T14:23:55Z</time></trkpt><trkpt lat="41.56250983897677" lon="-1.903138599887006"><ele>1027.8000000000002</ele><time>2026-05-03T14:23:56Z</time></trkpt><trkpt lat="41.56243582928917" lon="-1.9030323254126116"><ele>1027.4</ele><time>2026-05-03T14:23:57Z</time></trkpt><trkpt lat="41.562356276714226" lon="-1.9029266496215775"><ele>1027.0</ele><time>2026-05-03T14:23:58Z</time></trkpt><trkpt lat="41.562279793223404" lon="-1.9028219129430108"><ele>1027.0</ele><time>2026-05-03T14:23:59Z</time></trkpt><trkpt lat="41.562202470160685" lon="-1.9027180873811238"><ele>1027.0</ele><time>2026-05-03T14:24:00Z</time></trkpt><trkpt lat="41.56212338472345" lon="-1.9026198964450163"><ele>1027.0</ele><time>2026-05-03T14:24:01Z</time></trkpt><trkpt lat="41.56205155111753" lon="-1.9025301467510978"><ele>1027.0</ele><time>2026-05-03T14:24:02Z</time></trkpt><trkpt lat="41.56196280020212" lon="-1.9024298900976104"><ele>1027.0</ele><time>2026-05-03T14:24:03Z</time></trkpt><trkpt lat="41.5618738380857" lon="-1.9023451092882189"><ele>1027.0</ele><time>2026-05-03T14:24:04Z</time></trkpt><trkpt lat="41.56178263146038" lon="-1.902256857937601"><ele>1027.0</ele><time>2026-05-03T14:24:05Z</time></trkpt><trkpt lat="41.56168633413099" lon="-1.9021724115655136"><ele>1027.0</ele><time>2026-05-03T14:24:06Z</time></trkpt><trkpt lat="41.561577741217505" lon="-1.9020985352157147"><ele>1027.0</ele><time>2026-05-03T14:24:07Z</time></trkpt><trkpt lat="41.561487827115194" lon="-1.902037244203763"><ele>1027.0</ele><time>2026-05-03T14:24:08Z</time></trkpt><trkpt lat="41.561373210052885" lon="-1.901950318979621"><ele>1027.0</ele><time>2026-05-03T14:24:09Z</time></trkpt><trkpt lat="41.56124598134923" lon="-1.901890788852552"><ele>1027.0</ele><time>2026-05-03T14:24:10Z</time></trkpt><trkpt lat="41.56116288877765" lon="-1.9018363612741604"><ele>1027.0</ele><time>2026-05-03T14:24:11Z</time></trkpt><trkpt lat="41.5610696772646" lon="-1.9017811698166802"><ele>1026.4</ele><time>2026-05-03T14:24:12Z</time></trkpt><trkpt lat="41.56096840191427" lon="-1.9017149772640036"><ele>1025.8000000000002</ele><time>2026-05-03T14:24:13Z</time></trkpt><trkpt lat="41.56086746228854" lon="-1.9016711970912565"><ele>1025.2</ele><time>2026-05-03T14:24:14Z</time></trkpt><trkpt lat="41.56077475562824" lon="-1.9016151191492623"><ele>1024.6000000000001</ele><time>2026-05-03T14:24:15Z</time></trkpt><trkpt lat="41.56067340767427" lon="-1.9015546257356342"><ele>1024.0</ele><time>2026-05-03T14:24:16Z</time></trkpt><trkpt lat="41.56057896759569" lon="-1.901484053487635"><ele>1024.0</ele><time>2026-05-03T14:24:17Z</time></trkpt><trkpt lat="41.56046741033256" lon="-1.9014326812255586"><ele>1024.0</ele><time>2026-05-03T14:24:18Z</time></trkpt><trkpt lat="41.560371987873104" lon="-1.9013719055421496"><ele>1024.0</ele><time>2026-05-03T14:24:19Z</time></trkpt><trkpt lat="41.5602748487226" lon="-1.9013085598085049"><ele>1024.0</ele><time>2026-05-03T14:24:20Z</time></trkpt><trkpt lat="41.56017715852956" lon="-1.901241236167085"><ele>1024.0</ele><time>2026-05-03T14:24:21Z</time></trkpt><trkpt lat="41.56008055429131" lon="-1.901171700669962"><ele>1024.0</ele><time>2026-05-03T14:24:22Z</time></trkpt><trkpt lat="41.55998641502696" lon="-1.9010912907719844"><ele>1024.0</ele><time>2026-05-03T14:24:23Z</time></trkpt><trkpt lat="41.559896829771226" lon="-1.9010093663371024"><ele>1024.0</ele><time>2026-05-03T14:24:24Z</time></trkpt><trkpt lat="41.559808827546696" lon="-1.9009161264270524"><ele>1024.0</ele><time>2026-05-03T14:24:25.001Z</time></trkpt><trkpt lat="41.55973116823018" lon="-1.9008140549633465"><ele>1024.0</ele><time>2026-05-03T14:24:26.001Z</time></trkpt><trkpt lat="41.55965118953588" lon="-1.900708413026336"><ele>1024.0</ele><time>2026-05-03T14:24:27.001Z</time></trkpt><trkpt lat="41.559576273562065" lon="-1.9006013459134639"><ele>1024.0</ele><time>2026-05-03T14:24:28.001Z</time></trkpt><trkpt lat="41.559503574410506" lon="-1.9004895046769894"><ele>1024.0</ele><time>2026-05-03T14:24:29.001Z</time></trkpt><trkpt lat="41.559429339571864" lon="-1.9003783495184745"><ele>1024.0</ele><time>2026-05-03T14:24:30.001Z</time></trkpt><trkpt lat="41.559343596267645" lon="-1.9002832825472094"><ele>1024.0</ele><time>2026-05-03T14:24:31.001Z</time></trkpt><trkpt lat="41.55928563436224" lon="-1.9001482646787644"><ele>1022.5</ele><time>2026-05-03T14:24:32.001Z</time></trkpt><trkpt lat="41.55921133032874" lon="-1.9000377273203783"><ele>1021.0</ele><time>2026-05-03T14:24:33.001Z</time></trkpt><trkpt lat="41.559139876977724" lon="-1.8999272516829553"><ele>1019.5</ele><time>2026-05-03T14:24:34.001Z</time></trkpt><trkpt lat="41.55909025758068" lon="-1.8997782495253468"><ele>1018.0</ele><time>2026-05-03T14:24:35.001Z</time></trkpt><trkpt lat="41.55901274855398" lon="-1.8996617805718812"><ele>1018.0</ele><time>2026-05-03T14:24:36.001Z</time></trkpt><trkpt lat="41.55894406977627" lon="-1.8995373753323794"><ele>1018.0</ele><time>2026-05-03T14:24:37.001Z</time></trkpt><trkpt lat="41.55886924870216" lon="-1.8994194662121133"><ele>1018.0</ele><time>2026-05-03T14:24:38.001Z</time></trkpt><trkpt lat="41.5587958205543" lon="-1.8993068140320086"><ele>1018.0</ele><time>2026-05-03T14:24:39.001Z</time></trkpt><trkpt lat="41.55871923708119" lon="-1.8991930621632473"><ele>1017.4</ele><time>2026-05-03T14:24:40.001Z</time></trkpt><trkpt lat="41.558636760006266" lon="-1.899090997708773"><ele>1016.8</ele><time>2026-05-03T14:24:41.001Z</time></trkpt><trkpt lat="41.55855733643878" lon="-1.8989914218611188"><ele>1016.2</ele><time>2026-05-03T14:24:42.001Z</time></trkpt><trkpt lat="41.55847776173547" lon="-1.8988858573840057"><ele>1015.6</ele><time>2026-05-03T14:24:43.001Z</time></trkpt><trkpt lat="41.55838138519215" lon="-1.898802901206906"><ele>1015.0</ele><time>2026-05-03T14:24:44.001Z</time></trkpt><trkpt lat="41.55829741990644" lon="-1.8987017242080584"><ele>1015.0</ele><time>2026-05-03T14:24:45.001Z</time></trkpt><trkpt lat="41.55821278070182" lon="-1.8986018780606382"><ele>1015.0</ele><time>2026-05-03T14:24:46.001Z</time></trkpt><trkpt lat="41.55812274460602" lon="-1.8985045087943202"><ele>1015.0</ele><time>2026-05-03T14:24:47.001Z</time></trkpt><trkpt lat="41.558036294687305" lon="-1.8984117352491698"><ele>1015.0</ele><time>2026-05-03T14:24:48.001Z</time></trkpt><trkpt lat="41.55795409701645" lon="-1.8983072848877096"><ele>1014.25</ele><time>2026-05-03T14:24:49.001Z</time></trkpt><trkpt lat="41.55786800259117" lon="-1.8982114632888858"><ele>1013.5</ele><time>2026-05-03T14:24:50.001Z</time></trkpt><trkpt lat="41.557781968582425" lon="-1.898112271007936"><ele>1012.75</ele><time>2026-05-03T14:24:51.001Z</time></trkpt><trkpt lat="41.557695874542325" lon="-1.8980160769717949"><ele>1012.0</ele><time>2026-05-03T14:24:52.001Z</time></trkpt><trkpt lat="41.55760954059292" lon="-1.8979171111939237"><ele>1012.0</ele><time>2026-05-03T14:24:53.001Z</time></trkpt><trkpt lat="41.55752483935286" lon="-1.8978126217423361"><ele>1012.0</ele><time>2026-05-03T14:24:54.001Z</time></trkpt><trkpt lat="41.557440525844584" lon="-1.8977088289766513"><ele>1012.0</ele><time>2026-05-03T14:24:55.001Z</time></trkpt><trkpt lat="41.55735678379645" lon="-1.897606929019694"><ele>1012.0</ele><time>2026-05-03T14:24:56.001Z</time></trkpt><trkpt lat="41.557273433912705" lon="-1.897504532905051"><ele>1012.25</ele><time>2026-05-03T14:24:57.001Z</time></trkpt><trkpt lat="41.55719506019637" lon="-1.89738764914993"><ele>1012.5</ele><time>2026-05-03T14:24:58.001Z</time></trkpt><trkpt lat="41.557115264203844" lon="-1.8972750161550456"><ele>1012.75</ele><time>2026-05-03T14:24:59.001Z</time></trkpt><trkpt lat="41.5570400085286" lon="-1.897161716582238"><ele>1013.0</ele><time>2026-05-03T14:24:59.999Z</time></trkpt><trkpt lat="41.55697462763677" lon="-1.89704088490753"><ele>1012.0</ele><time>2026-05-03T14:25:00.999Z</time></trkpt><trkpt lat="41.556899851378724" lon="-1.896923818599404"><ele>1011.0</ele><time>2026-05-03T14:25:01.999Z</time></trkpt><trkpt lat="41.55683210184084" lon="-1.8968054786888444"><ele>1010.0</ele><time>2026-05-03T14:25:02.999Z</time></trkpt><trkpt lat="41.55676693797179" lon="-1.8966816680775045"><ele>1009.0</ele><time>2026-05-03T14:25:03.999Z</time></trkpt><trkpt lat="41.5567016778491" lon="-1.8965564540255069"><ele>1008.25</ele><time>2026-05-03T14:25:04.999Z</time></trkpt><trkpt lat="41.556640051724095" lon="-1.8964296817279864"><ele>1007.5</ele><time>2026-05-03T14:25:05.999Z</time></trkpt><trkpt lat="41.556579002006906" lon="-1.8963019342663892"><ele>1006.75</ele><time>2026-05-03T14:25:06.999Z</time></trkpt><trkpt lat="41.5565185696792" lon="-1.8961709917068068"><ele>1006.0</ele><time>2026-05-03T14:25:08Z</time></trkpt><trkpt lat="41.55645761677314" lon="-1.8960440089434163"><ele>1006.1999999999999</ele><time>2026-05-03T14:25:09Z</time></trkpt><trkpt lat="41.55639950820448" lon="-1.8959145522471776"><ele>1006.3999999999999</ele><time>2026-05-03T14:25:10Z</time></trkpt><trkpt lat="41.55634388089561" lon="-1.8957836029654154"><ele>1006.6</ele><time>2026-05-03T14:25:11Z</time></trkpt><trkpt lat="41.55628880161742" lon="-1.8956531384996314"><ele>1006.8</ele><time>2026-05-03T14:25:12Z</time></trkpt><trkpt lat="41.55623671967625" lon="-1.895521630417793"><ele>1007.0</ele><time>2026-05-03T14:25:13Z</time></trkpt><trkpt lat="41.55618485133302" lon="-1.895391049570873"><ele>1007.0</ele><time>2026-05-03T14:25:14Z</time></trkpt><trkpt lat="41.55613508377142" lon="-1.8952556851252784"><ele>1007.0</ele><time>2026-05-03T14:25:15Z</time></trkpt><trkpt lat="41.556086300586315" lon="-1.8951204350276842"><ele>1007.0</ele><time>2026-05-03T14:25:16Z</time></trkpt><trkpt lat="41.55604301487656" lon="-1.894984802342939"><ele>1007.0</ele><time>2026-05-03T14:25:17Z</time></trkpt><trkpt lat="41.55600268824862" lon="-1.8948449438601473"><ele>1007.0</ele><time>2026-05-03T14:25:18Z</time></trkpt><trkpt lat="41.55596510946784" lon="-1.8947042605949016"><ele>1006.4000000000001</ele><time>2026-05-03T14:25:19Z</time></trkpt><trkpt lat="41.55592564808558" lon="-1.8945636694155619"><ele>1005.8000000000001</ele><time>2026-05-03T14:25:20Z</time></trkpt><trkpt lat="41.555886871439235" lon="-1.894423490862891"><ele>1005.2</ele><time>2026-05-03T14:25:21Z</time></trkpt><trkpt lat="41.55585136561142" lon="-1.8942807463980618"><ele>1004.6</ele><time>2026-05-03T14:25:22Z</time></trkpt><trkpt lat="41.55581115806047" lon="-1.894159259238191"><ele>1004.0</ele><time>2026-05-03T14:25:23Z</time></trkpt><trkpt lat="41.555789258158065" lon="-1.894060094420076"><ele>1004.0</ele><time>2026-05-03T14:25:24Z</time></trkpt><trkpt lat="41.55576553650033" lon="-1.8939683220544128"><ele>1004.0</ele><time>2026-05-03T14:25:25Z</time></trkpt><trkpt lat="41.555728304702384" lon="-1.8937205887454962"><ele>1004.0</ele><time>2026-05-03T14:25:26Z</time></trkpt><trkpt lat="41.55569590011601" lon="-1.8935777522177502"><ele>1004.0</ele><time>2026-05-03T14:25:27Z</time></trkpt><trkpt lat="41.555659432110076" lon="-1.893432176507725"><ele>1004.2</ele><time>2026-05-03T14:25:28Z</time></trkpt><trkpt lat="41.55562044401673" lon="-1.8932887904873748"><ele>1004.4000000000001</ele><time>2026-05-03T14:25:29Z</time></trkpt><trkpt lat="41.555580296340985" lon="-1.8931495140942056"><ele>1004.6</ele><time>2026-05-03T14:25:30Z</time></trkpt><trkpt lat="41.55554021917864" lon="-1.8930144071617605"><ele>1004.8</ele><time>2026-05-03T14:25:31Z</time></trkpt><trkpt lat="41.55549633963594" lon="-1.8928742381725978"><ele>1005.0</ele><time>2026-05-03T14:25:32Z</time></trkpt><trkpt lat="41.55544630654926" lon="-1.8927408579910103"><ele>1005.0</ele><time>2026-05-03T14:25:33Z</time></trkpt><trkpt lat="41.5553984375677" lon="-1.892604917040845"><ele>1005.0</ele><time>2026-05-03T14:25:34Z</time></trkpt><trkpt lat="41.55534599202904" lon="-1.8924700632468823"><ele>1005.0</ele><time>2026-05-03T14:25:35Z</time></trkpt><trkpt lat="41.55529588885412" lon="-1.89234010959644"><ele>1005.0</ele><time>2026-05-03T14:25:36Z</time></trkpt><trkpt lat="41.555244372064344" lon="-1.8922097615565527"><ele>1005.0</ele><time>2026-05-03T14:25:37Z</time></trkpt><trkpt lat="41.555184815909264" lon="-1.892079680730271"><ele>1003.6</ele><time>2026-05-03T14:25:38Z</time></trkpt><trkpt lat="41.55512922634772" lon="-1.891950733606173"><ele>1002.2</ele><time>2026-05-03T14:25:39Z</time></trkpt><trkpt lat="41.55507256556696" lon="-1.8918267537129072"><ele>1000.8</ele><time>2026-05-03T14:25:40Z</time></trkpt><trkpt lat="41.555012392116254" lon="-1.8916984949604458"><ele>999.4</ele><time>2026-05-03T14:25:41Z</time></trkpt><trkpt lat="41.55495013445929" lon="-1.891575847743065"><ele>998.0</ele><time>2026-05-03T14:25:42Z</time></trkpt><trkpt lat="41.55488520597183" lon="-1.8914551834892146"><ele>997.8</ele><time>2026-05-03T14:25:43Z</time></trkpt><trkpt lat="41.55482201966594" lon="-1.891334873790899"><ele>997.5999999999999</ele><time>2026-05-03T14:25:44Z</time></trkpt><trkpt lat="41.55475713570878" lon="-1.8912153866690198"><ele>997.4000000000001</ele><time>2026-05-03T14:25:45Z</time></trkpt><trkpt lat="41.55469021800742" lon="-1.8910999926897218"><ele>997.2</ele><time>2026-05-03T14:25:46Z</time></trkpt><trkpt lat="41.55462269252664" lon="-1.890986758838858"><ele>997.0</ele><time>2026-05-03T14:25:47Z</time></trkpt><trkpt lat="41.55454022395001" lon="-1.890851284883207"><ele>996.0</ele><time>2026-05-03T14:25:48Z</time></trkpt><trkpt lat="41.55448364133307" lon="-1.8907330340956643"><ele>995.0</ele><time>2026-05-03T14:25:49Z</time></trkpt><trkpt lat="41.55447934626998" lon="-1.8905808089957001"><ele>994.0</ele><time>2026-05-03T14:25:50Z</time></trkpt><trkpt lat="41.55434301004736" lon="-1.8905245935871577"><ele>993.0</ele><time>2026-05-03T14:25:51Z</time></trkpt><trkpt lat="41.55427296859642" lon="-1.890405662766467"><ele>993.0</ele><time>2026-05-03T14:25:52Z</time></trkpt><trkpt lat="41.55420493201175" lon="-1.8902855542116483"><ele>993.0</ele><time>2026-05-03T14:25:53Z</time></trkpt><trkpt lat="41.554139413044275" lon="-1.8901618676990937"><ele>993.0</ele><time>2026-05-03T14:25:54Z</time></trkpt><trkpt lat="41.554077820124334" lon="-1.8900372111279122"><ele>993.0</ele><time>2026-05-03T14:25:55Z</time></trkpt><trkpt lat="41.55401922726559" lon="-1.8899067113107282"><ele>993.8</ele><time>2026-05-03T14:25:56Z</time></trkpt><trkpt lat="41.553962010436955" lon="-1.8897778518130348"><ele>994.5999999999999</ele><time>2026-05-03T14:25:57Z</time></trkpt><trkpt lat="41.55390635186997" lon="-1.8896504220663495"><ele>995.4000000000001</ele><time>2026-05-03T14:25:58Z</time></trkpt><trkpt lat="41.553851511773814" lon="-1.889517637805556"><ele>996.2</ele><time>2026-05-03T14:25:59Z</time></trkpt><trkpt lat="41.553799005525754" lon="-1.8893868389529807"><ele>997.0</ele><time>2026-05-03T14:26:00Z</time></trkpt><trkpt lat="41.553744171170734" lon="-1.8892521612534967"><ele>995.0</ele><time>2026-05-03T14:26:01Z</time></trkpt><trkpt lat="41.55368877872527" lon="-1.8891187229162822"><ele>993.0</ele><time>2026-05-03T14:26:02Z</time></trkpt><trkpt lat="41.553630960287464" lon="-1.8889882939324778"><ele>991.0</ele><time>2026-05-03T14:26:03Z</time></trkpt><trkpt lat="41.55358026968084" lon="-1.8888579019596563"><ele>989.0</ele><time>2026-05-03T14:26:04Z</time></trkpt><trkpt lat="41.55352825341489" lon="-1.8887226914184747"><ele>989.0</ele><time>2026-05-03T14:26:05Z</time></trkpt><trkpt lat="41.55347200159053" lon="-1.8885904355794534"><ele>989.0000000000001</ele><time>2026-05-03T14:26:06Z</time></trkpt><trkpt lat="41.55341001009915" lon="-1.888466554187818"><ele>989.0000000000001</ele><time>2026-05-03T14:26:07Z</time></trkpt><trkpt lat="41.55334186428939" lon="-1.8883444494976624"><ele>989.0</ele><time>2026-05-03T14:26:08Z</time></trkpt><trkpt lat="41.553275422555465" lon="-1.888227747256014"><ele>989.0</ele><time>2026-05-03T14:26:09Z</time></trkpt><trkpt lat="41.55320620311633" lon="-1.8881128511273713"><ele>989.5</ele><time>2026-05-03T14:26:10Z</time></trkpt><trkpt lat="41.55313351037964" lon="-1.8880025231616775"><ele>990.0</ele><time>2026-05-03T14:26:11Z</time></trkpt><trkpt lat="41.55305842741195" lon="-1.8878928425300034"><ele>990.5</ele><time>2026-05-03T14:26:12Z</time></trkpt><trkpt lat="41.55297988672274" lon="-1.8877873399629304"><ele>991.0</ele><time>2026-05-03T14:26:13Z</time></trkpt><trkpt lat="41.55288262506718" lon="-1.8876673922043765"><ele>990.0</ele><time>2026-05-03T14:26:14Z</time></trkpt><trkpt lat="41.552825864997374" lon="-1.8876109170208966"><ele>989.0</ele><time>2026-05-03T14:26:15Z</time></trkpt><trkpt lat="41.5526377486867" lon="-1.8874046183610351"><ele>988.0</ele><time>2026-05-03T14:26:17Z</time></trkpt><trkpt lat="41.55254182691429" lon="-1.887319674458117"><ele>987.0</ele><time>2026-05-03T14:26:18.001Z</time></trkpt><trkpt lat="41.552442349271885" lon="-1.8872385375917415"><ele>986.75</ele><time>2026-05-03T14:26:19.001Z</time></trkpt><trkpt lat="41.55234324661641" lon="-1.8871680747240513"><ele>986.5</ele><time>2026-05-03T14:26:20.001Z</time></trkpt><trkpt lat="41.55224103500693" lon="-1.8870969456703361"><ele>986.25</ele><time>2026-05-03T14:26:21.001Z</time></trkpt><trkpt lat="41.552140544124185" lon="-1.8870266718083952"><ele>986.0</ele><time>2026-05-03T14:26:22.001Z</time></trkpt><trkpt lat="41.552040090555" lon="-1.886955362983412"><ele>985.5</ele><time>2026-05-03T14:26:23.001Z</time></trkpt><trkpt lat="41.55194053572909" lon="-1.8868786594722546"><ele>985.0</ele><time>2026-05-03T14:26:24.001Z</time></trkpt><trkpt lat="41.55184622358968" lon="-1.8867984101176427"><ele>984.5</ele><time>2026-05-03T14:26:25.001Z</time></trkpt><trkpt lat="41.551755335121186" lon="-1.8867128768808348"><ele>984.0</ele><time>2026-05-03T14:26:26.001Z</time></trkpt><trkpt lat="41.55166594760163" lon="-1.8866214702238584"><ele>984.0</ele><time>2026-05-03T14:26:27.001Z</time></trkpt><trkpt lat="41.551580115285105" lon="-1.8865252339049117"><ele>984.0</ele><time>2026-05-03T14:26:28.001Z</time></trkpt><trkpt lat="41.55149537422066" lon="-1.8864202555700216"><ele>984.0</ele><time>2026-05-03T14:26:29.001Z</time></trkpt><trkpt lat="41.551419867321464" lon="-1.8863126908034744"><ele>984.0</ele><time>2026-05-03T14:26:30.001Z</time></trkpt><trkpt lat="41.55134671653025" lon="-1.8861999915760488"><ele>984.0</ele><time>2026-05-03T14:26:31.001Z</time></trkpt><trkpt lat="41.551276122198594" lon="-1.886083155542957"><ele>984.0000000000001</ele><time>2026-05-03T14:26:32.001Z</time></trkpt><trkpt lat="41.55121730413013" lon="-1.8859561880556588"><ele>984.0000000000001</ele><time>2026-05-03T14:26:33.001Z</time></trkpt><trkpt lat="41.55115971807846" lon="-1.8858282988437867"><ele>984.0</ele><time>2026-05-03T14:26:34.001Z</time></trkpt><trkpt lat="41.55110166736097" lon="-1.885699504950473"><ele>984.0</ele><time>2026-05-03T14:26:35.001Z</time></trkpt><trkpt lat="41.551042218739624" lon="-1.8855703886197965"><ele>984.0</ele><time>2026-05-03T14:26:36.001Z</time></trkpt><trkpt lat="41.55098484293592" lon="-1.8854399813653178"><ele>984.0</ele><time>2026-05-03T14:26:37.001Z</time></trkpt><trkpt lat="41.550923673382464" lon="-1.8853097056473067"><ele>984.0</ele><time>2026-05-03T14:26:38.001Z</time></trkpt><trkpt lat="41.55085703371921" lon="-1.8851789785335826"><ele>984.0</ele><time>2026-05-03T14:26:39.001Z</time></trkpt><trkpt lat="41.550783457406204" lon="-1.8850519860275403"><ele>984.0</ele><time>2026-05-03T14:26:40.001Z</time></trkpt><trkpt lat="41.55070827492352" lon="-1.8849323599893733"><ele>984.0</ele><time>2026-05-03T14:26:41.001Z</time></trkpt><trkpt lat="41.550629296524825" lon="-1.8848144678597865"><ele>984.0</ele><time>2026-05-03T14:26:42.001Z</time></trkpt><trkpt lat="41.5505460605065" lon="-1.8847026801142326"><ele>984.0</ele><time>2026-05-03T14:26:43.001Z</time></trkpt><trkpt lat="41.55046016186425" lon="-1.8845985711798903"><ele>982.5</ele><time>2026-05-03T14:26:44.001Z</time></trkpt><trkpt lat="41.550372050729685" lon="-1.8844985856858565"><ele>981.0</ele><time>2026-05-03T14:26:45.001Z</time></trkpt><trkpt lat="41.55028264061645" lon="-1.884405064140453"><ele>979.5</ele><time>2026-05-03T14:26:46.001Z</time></trkpt><trkpt lat="41.55019271003571" lon="-1.8843149706894573"><ele>978.0</ele><time>2026-05-03T14:26:47.001Z</time></trkpt><trkpt lat="41.550103476839205" lon="-1.8842262490783745"><ele>977.75</ele><time>2026-05-03T14:26:48.001Z</time></trkpt><trkpt lat="41.550014869233046" lon="-1.8841333848950539"><ele>977.5</ele><time>2026-05-03T14:26:49.001Z</time></trkpt><trkpt lat="41.54992860876399" lon="-1.884037119528134"><ele>977.25</ele><time>2026-05-03T14:26:50.001Z</time></trkpt><trkpt lat="41.54984320740525" lon="-1.8839382562301514"><ele>977.0</ele><time>2026-05-03T14:26:51.001Z</time></trkpt><trkpt lat="41.54976021624153" lon="-1.8838349961185432"><ele>977.0</ele><time>2026-05-03T14:26:52.001Z</time></trkpt><trkpt lat="41.54967828259465" lon="-1.8837283576197128"><ele>977.0</ele><time>2026-05-03T14:26:53.001Z</time></trkpt><trkpt lat="41.54959835823514" lon="-1.8836193396955152"><ele>977.0</ele><time>2026-05-03T14:26:54.001Z</time></trkpt><trkpt lat="41.54952074666234" lon="-1.8835064917268869"><ele>977.0</ele><time>2026-05-03T14:26:55.001Z</time></trkpt><trkpt lat="41.5494448263224" lon="-1.883392477653697"><ele>976.25</ele><time>2026-05-03T14:26:56.001Z</time></trkpt><trkpt lat="41.54936618770245" lon="-1.8832767705265236"><ele>975.5</ele><time>2026-05-03T14:26:57.001Z</time></trkpt><trkpt lat="41.54928778719354" lon="-1.8831649742619474"><ele>974.75</ele><time>2026-05-03T14:26:58.001Z</time></trkpt><trkpt lat="41.5492090271637" lon="-1.8830498066059618"><ele>974.0</ele><time>2026-05-03T14:26:59.001Z</time></trkpt><trkpt lat="41.54912970787757" lon="-1.8829344563356032"><ele>974.0</ele><time>2026-05-03T14:27:00.001Z</time></trkpt><trkpt lat="41.549050983822944" lon="-1.8828213808708518"><ele>974.0</ele><time>2026-05-03T14:27:01.001Z</time></trkpt><trkpt lat="41.548973183410475" lon="-1.8827056368457078"><ele>974.0</ele><time>2026-05-03T14:27:02.001Z</time></trkpt><trkpt lat="41.54889573534482" lon="-1.8825893685281851"><ele>974.0</ele><time>2026-05-03T14:27:03.001Z</time></trkpt><trkpt lat="41.5488209528149" lon="-1.882467565207678"><ele>975.0</ele><time>2026-05-03T14:27:04.001Z</time></trkpt><trkpt lat="41.54875017312833" lon="-1.8823455400731517"><ele>976.0</ele><time>2026-05-03T14:27:05.001Z</time></trkpt><trkpt lat="41.5486795914477" lon="-1.8822217813224715"><ele>977.0</ele><time>2026-05-03T14:27:06Z</time></trkpt><trkpt lat="41.54861139839674" lon="-1.8820950420557094"><ele>978.0</ele><time>2026-05-03T14:27:07Z</time></trkpt><trkpt lat="41.5485447278163" lon="-1.8819683369694247"><ele>976.25</ele><time>2026-05-03T14:27:08Z</time></trkpt><trkpt lat="41.54847754192073" lon="-1.8818387742231732"><ele>974.5</ele><time>2026-05-03T14:27:09Z</time></trkpt><trkpt lat="41.54840967741026" lon="-1.881709160473523"><ele>972.75</ele><time>2026-05-03T14:27:10Z</time></trkpt><trkpt lat="41.5483431909147" lon="-1.8815790250402946"><ele>971.0</ele><time>2026-05-03T14:27:11Z</time></trkpt><trkpt lat="41.54827735990623" lon="-1.8814482714612675"><ele>971.0</ele><time>2026-05-03T14:27:12Z</time></trkpt><trkpt lat="41.54821251172849" lon="-1.8813178392618526"><ele>971.0</ele><time>2026-05-03T14:27:13Z</time></trkpt><trkpt lat="41.54814495378446" lon="-1.8811893565154016"><ele>971.0</ele><time>2026-05-03T14:27:14Z</time></trkpt><trkpt lat="41.54807421963217" lon="-1.881065478943039"><ele>971.0</ele><time>2026-05-03T14:27:15Z</time></trkpt><trkpt lat="41.54799964972812" lon="-1.8809451559665997"><ele>970.0</ele><time>2026-05-03T14:27:16Z</time></trkpt><trkpt lat="41.54792172059323" lon="-1.880830577822711"><ele>969.0</ele><time>2026-05-03T14:27:17Z</time></trkpt><trkpt lat="41.54783920961851" lon="-1.8807179343896159"><ele>968.0</ele><time>2026-05-03T14:27:18Z</time></trkpt><trkpt lat="41.54775450867689" lon="-1.880613112322762"><ele>967.0</ele><time>2026-05-03T14:27:19Z</time></trkpt><trkpt lat="41.547664150235065" lon="-1.8805113485885254"><ele>967.0</ele><time>2026-05-03T14:27:20Z</time></trkpt><trkpt lat="41.547574352315316" lon="-1.8804178593483165"><ele>967.0</ele><time>2026-05-03T14:27:21Z</time></trkpt><trkpt lat="41.54748317328929" lon="-1.8803229622682032"><ele>967.0</ele><time>2026-05-03T14:27:22Z</time></trkpt><trkpt lat="41.54739274267975" lon="-1.880226381244958"><ele>967.0</ele><time>2026-05-03T14:27:23Z</time></trkpt><trkpt lat="41.547303010025374" lon="-1.8801322735513817"><ele>968.25</ele><time>2026-05-03T14:27:24Z</time></trkpt><trkpt lat="41.547211082457295" lon="-1.8800338030488917"><ele>969.5</ele><time>2026-05-03T14:27:25Z</time></trkpt><trkpt lat="41.54712395321231" lon="-1.879933337289055"><ele>970.75</ele><time>2026-05-03T14:27:26Z</time></trkpt><trkpt lat="41.54703602396203" lon="-1.879833209471069"><ele>972.0</ele><time>2026-05-03T14:27:27Z</time></trkpt><trkpt lat="41.54694923700709" lon="-1.8797305649697986"><ele>969.25</ele><time>2026-05-03T14:27:28Z</time></trkpt><trkpt lat="41.546862138889146" lon="-1.8796259750093647"><ele>966.5</ele><time>2026-05-03T14:27:29Z</time></trkpt><trkpt lat="41.54677779761625" lon="-1.8795217930908448"><ele>963.75</ele><time>2026-05-03T14:27:30Z</time></trkpt><trkpt lat="41.546694773620096" lon="-1.8794104248404355"><ele>961.0</ele><time>2026-05-03T14:27:31Z</time></trkpt><trkpt lat="41.546614603578455" lon="-1.8792988742771226"><ele>962.0</ele><time>2026-05-03T14:27:32Z</time></trkpt><trkpt lat="41.546533781941434" lon="-1.8791847522186047"><ele>963.0</ele><time>2026-05-03T14:27:33Z</time></trkpt><trkpt lat="41.546457590893674" lon="-1.8790672878028243"><ele>964.0</ele><time>2026-05-03T14:27:34Z</time></trkpt><trkpt lat="41.54638179875553" lon="-1.8789469487053545"><ele>965.0</ele><time>2026-05-03T14:27:35Z</time></trkpt><trkpt lat="41.54630957608834" lon="-1.8788244690266787"><ele>965.0</ele><time>2026-05-03T14:27:36Z</time></trkpt><trkpt lat="41.54624049532028" lon="-1.8787001217466321"><ele>965.0</ele><time>2026-05-03T14:27:37Z</time></trkpt><trkpt lat="41.54616898633972" lon="-1.8785743195887816"><ele>965.0</ele><time>2026-05-03T14:27:38Z</time></trkpt><trkpt lat="41.546103381080535" lon="-1.8784463954698147"><ele>965.0</ele><time>2026-05-03T14:27:39Z</time></trkpt><trkpt lat="41.54604167053838" lon="-1.8783098781365095"><ele>963.5</ele><time>2026-05-03T14:27:40Z</time></trkpt><trkpt lat="41.545979422822555" lon="-1.8781776694133636"><ele>962.0</ele><time>2026-05-03T14:27:41Z</time></trkpt><trkpt lat="41.545919622833466" lon="-1.8780440350906584"><ele>960.5</ele><time>2026-05-03T14:27:42Z</time></trkpt><trkpt lat="41.545862403314395" lon="-1.8779081908484152"><ele>959.0</ele><time>2026-05-03T14:27:43Z</time></trkpt><trkpt lat="41.545800371214774" lon="-1.8777764787311864"><ele>959.0</ele><time>2026-05-03T14:27:44Z</time></trkpt><trkpt lat="41.54573834852286" lon="-1.8776445037709633"><ele>959.0</ele><time>2026-05-03T14:27:45Z</time></trkpt><trkpt lat="41.545678697322764" lon="-1.877515883074933"><ele>959.0</ele><time>2026-05-03T14:27:46Z</time></trkpt><trkpt lat="41.54561723840226" lon="-1.8773885219332809"><ele>959.0</ele><time>2026-05-03T14:27:47Z</time></trkpt><trkpt lat="41.545551139044306" lon="-1.8772559505737316"><ele>960.0</ele><time>2026-05-03T14:27:48Z</time></trkpt><trkpt lat="41.545488647403396" lon="-1.8771273394446844"><ele>961.0</ele><time>2026-05-03T14:27:49Z</time></trkpt><trkpt lat="41.54542482352088" lon="-1.8769995049429866"><ele>962.0</ele><time>2026-05-03T14:27:50Z</time></trkpt><trkpt lat="41.5453607300404" lon="-1.8768719657042583"><ele>963.0</ele><time>2026-05-03T14:27:51Z</time></trkpt><trkpt lat="41.545293188365704" lon="-1.8767442753130337"><ele>961.0</ele><time>2026-05-03T14:27:52Z</time></trkpt><trkpt lat="41.54522473447083" lon="-1.8766202324685373"><ele>959.0</ele><time>2026-05-03T14:27:53Z</time></trkpt><trkpt lat="41.54515762912702" lon="-1.876493657185153"><ele>957.0</ele><time>2026-05-03T14:27:54Z</time></trkpt><trkpt lat="41.545091084728924" lon="-1.8763689434256956"><ele>955.0</ele><time>2026-05-03T14:27:55Z</time></trkpt><trkpt lat="41.545024513656145" lon="-1.876246034453791"><ele>955.0</ele><time>2026-05-03T14:27:56Z</time></trkpt><trkpt lat="41.54495443026697" lon="-1.8761218098456702"><ele>955.0</ele><time>2026-05-03T14:27:57Z</time></trkpt><trkpt lat="41.54488162373137" lon="-1.876002108904945"><ele>955.0</ele><time>2026-05-03T14:27:58Z</time></trkpt><trkpt lat="41.54481122034701" lon="-1.875880245423927"><ele>955.0</ele><time>2026-05-03T14:27:59Z</time></trkpt><trkpt lat="41.54473737363196" lon="-1.8757606125825823"><ele>954.5</ele><time>2026-05-03T14:28:00Z</time></trkpt><trkpt lat="41.54466352039755" lon="-1.875642027396605"><ele>954.0</ele><time>2026-05-03T14:28:01.001Z</time></trkpt><trkpt lat="41.54458806619566" lon="-1.87552365797284"><ele>953.5</ele><time>2026-05-03T14:28:02.001Z</time></trkpt><trkpt lat="41.544509177628754" lon="-1.8754109216452333"><ele>953.0</ele><time>2026-05-03T14:28:03.001Z</time></trkpt><trkpt lat="41.54443314921128" lon="-1.875293326811966"><ele>953.0</ele><time>2026-05-03T14:28:04.001Z</time></trkpt><trkpt lat="41.54435657227708" lon="-1.8751779502862391"><ele>953.0</ele><time>2026-05-03T14:28:05.001Z</time></trkpt><trkpt lat="41.54427909487254" lon="-1.875061541962811"><ele>953.0</ele><time>2026-05-03T14:28:06.001Z</time></trkpt><trkpt lat="41.544189576252776" lon="-1.8749244807643841"><ele>953.0</ele><time>2026-05-03T14:28:07.001Z</time></trkpt><trkpt lat="41.54411799160907" lon="-1.8748724874860112"><ele>953.0</ele><time>2026-05-03T14:28:08.001Z</time></trkpt><trkpt lat="41.544017377377926" lon="-1.8747403425368248"><ele>953.0</ele><time>2026-05-03T14:28:09.001Z</time></trkpt><trkpt lat="41.543928627942485" lon="-1.8746481394485817"><ele>953.0</ele><time>2026-05-03T14:28:10.001Z</time></trkpt><trkpt lat="41.543833135244334" lon="-1.874562582747861"><ele>953.0</ele><time>2026-05-03T14:28:11.001Z</time></trkpt><trkpt lat="41.54373057625907" lon="-1.8744864122357021"><ele>953.25</ele><time>2026-05-03T14:28:12.001Z</time></trkpt><trkpt lat="41.54362805084795" lon="-1.8744105072281918"><ele>953.5</ele><time>2026-05-03T14:28:13.001Z</time></trkpt><trkpt lat="41.54352116878399" lon="-1.8743512359891197"><ele>953.75</ele><time>2026-05-03T14:28:14.001Z</time></trkpt><trkpt lat="41.543409065265145" lon="-1.8742952998010431"><ele>954.0</ele><time>2026-05-03T14:28:15.001Z</time></trkpt><trkpt lat="41.54330234792091" lon="-1.874246053396797"><ele>954.0</ele><time>2026-05-03T14:28:16.001Z</time></trkpt><trkpt lat="41.54318871138353" lon="-1.8742045839741244"><ele>954.0</ele><time>2026-05-03T14:28:17.001Z</time></trkpt><trkpt lat="41.543073476187956" lon="-1.8741789621057163"><ele>954.0</ele><time>2026-05-03T14:28:18.001Z</time></trkpt><trkpt lat="41.54296318120261" lon="-1.874099065829243"><ele>954.0</ele><time>2026-05-03T14:28:19.001Z</time></trkpt><trkpt lat="41.542851822011535" lon="-1.8740641185179039"><ele>952.5</ele><time>2026-05-03T14:28:20.001Z</time></trkpt><trkpt lat="41.54274151630374" lon="-1.874018648995123"><ele>951.0</ele><time>2026-05-03T14:28:21.001Z</time></trkpt><trkpt lat="41.542634274140646" lon="-1.8739604420308973"><ele>949.5</ele><time>2026-05-03T14:28:22.001Z</time></trkpt><trkpt lat="41.542525380273055" lon="-1.8738996784584672"><ele>948.0</ele><time>2026-05-03T14:28:23.001Z</time></trkpt><trkpt lat="41.54242238800976" lon="-1.8738289613499024"><ele>948.0</ele><time>2026-05-03T14:28:24.001Z</time></trkpt><trkpt lat="41.54232450291311" lon="-1.8737477851195967"><ele>948.0</ele><time>2026-05-03T14:28:25.001Z</time></trkpt><trkpt lat="41.54221911761404" lon="-1.8736772496207035"><ele>948.0</ele><time>2026-05-03T14:28:26.001Z</time></trkpt><trkpt lat="41.54213728220963" lon="-1.8735696009926683"><ele>948.0</ele><time>2026-05-03T14:28:27.001Z</time></trkpt><trkpt lat="41.54205043642376" lon="-1.8734790252086488"><ele>947.25</ele><time>2026-05-03T14:28:28.001Z</time></trkpt><trkpt lat="41.54196853255939" lon="-1.8733766272744972"><ele>946.5</ele><time>2026-05-03T14:28:29.001Z</time></trkpt><trkpt lat="41.541882336915535" lon="-1.873267503486798"><ele>945.75</ele><time>2026-05-03T14:28:30.001Z</time></trkpt><trkpt lat="41.541793343046166" lon="-1.8731608955806405"><ele>945.0</ele><time>2026-05-03T14:28:31.001Z</time></trkpt><trkpt lat="41.54172672632843" lon="-1.8730432314094085"><ele>945.0</ele><time>2026-05-03T14:28:32.001Z</time></trkpt><trkpt lat="41.54163892489246" lon="-1.872931253788755"><ele>945.0</ele><time>2026-05-03T14:28:33.001Z</time></trkpt><trkpt lat="41.54156683972124" lon="-1.8728057838559597"><ele>945.0</ele><time>2026-05-03T14:28:34.001Z</time></trkpt><trkpt lat="41.54148795056473" lon="-1.872700161587079"><ele>945.0</ele><time>2026-05-03T14:28:35.001Z</time></trkpt><trkpt lat="41.54140416274627" lon="-1.8725881836961895"><ele>944.25</ele><time>2026-05-03T14:28:36.001Z</time></trkpt><trkpt lat="41.54132563808619" lon="-1.8724703198642738"><ele>943.5</ele><time>2026-05-03T14:28:37.001Z</time></trkpt><trkpt lat="41.54125501553202" lon="-1.872346429484388"><ele>942.75</ele><time>2026-05-03T14:28:38.001Z</time></trkpt><trkpt lat="41.54117049348049" lon="-1.8722396948133428"><ele>942.0</ele><time>2026-05-03T14:28:39.001Z</time></trkpt><trkpt lat="41.54109116767384" lon="-1.872128706325625"><ele>942.0</ele><time>2026-05-03T14:28:40.001Z</time></trkpt><trkpt lat="41.54101370369581" lon="-1.872012617952169"><ele>942.0</ele><time>2026-05-03T14:28:41.001Z</time></trkpt><trkpt lat="41.540933166232236" lon="-1.8718991041715856"><ele>942.0</ele><time>2026-05-03T14:28:42.001Z</time></trkpt><trkpt lat="41.54085412204004" lon="-1.8717874470866973"><ele>942.0</ele><time>2026-05-03T14:28:43.001Z</time></trkpt><trkpt lat="41.540775481636565" lon="-1.8716737524948"><ele>942.25</ele><time>2026-05-03T14:28:44.001Z</time></trkpt><trkpt lat="41.54069929232349" lon="-1.871561618744048"><ele>942.5</ele><time>2026-05-03T14:28:45.001Z</time></trkpt><trkpt lat="41.54061897089163" lon="-1.871450939689376"><ele>942.75</ele><time>2026-05-03T14:28:46.001Z</time></trkpt><trkpt lat="41.540542173242656" lon="-1.8713377680354268"><ele>943.0</ele><time>2026-05-03T14:28:47.001Z</time></trkpt><trkpt lat="41.5404610803942" lon="-1.871227043821739"><ele>942.25</ele><time>2026-05-03T14:28:48.001Z</time></trkpt><trkpt lat="41.54038233343607" lon="-1.8711149629445452"><ele>941.5</ele><time>2026-05-03T14:28:49.001Z</time></trkpt><trkpt lat="41.54031172280545" lon="-1.8709883581222022"><ele>940.75</ele><time>2026-05-03T14:28:50.001Z</time></trkpt><trkpt lat="41.54021962681913" lon="-1.870892350618003"><ele>940.0</ele><time>2026-05-03T14:28:51.001Z</time></trkpt><trkpt lat="41.54014022829633" lon="-1.8707836991349411"><ele>940.0</ele><time>2026-05-03T14:28:52.001Z</time></trkpt><trkpt lat="41.540060933293304" lon="-1.8706712830506125"><ele>940.0</ele><time>2026-05-03T14:28:53.001Z</time></trkpt><trkpt lat="41.53998189891941" lon="-1.8705593457651575"><ele>940.0</ele><time>2026-05-03T14:28:54.001Z</time></trkpt><trkpt lat="41.53989886756" lon="-1.8704492715431982"><ele>940.0</ele><time>2026-05-03T14:28:55.001Z</time></trkpt><trkpt lat="41.53981764927549" lon="-1.8703368648764693"><ele>940.0</ele><time>2026-05-03T14:28:56.001Z</time></trkpt><trkpt lat="41.53973605385305" lon="-1.8702295946568457"><ele>940.0</ele><time>2026-05-03T14:28:57.001Z</time></trkpt><trkpt lat="41.53965223762465" lon="-1.8701195662394317"><ele>940.0</ele><time>2026-05-03T14:28:58.001Z</time></trkpt><trkpt lat="41.53956945631468" lon="-1.870011078809875"><ele>940.0</ele><time>2026-05-03T14:28:59.001Z</time></trkpt><trkpt lat="41.5394864180999" lon="-1.8699002345389486"><ele>939.0</ele><time>2026-05-03T14:29:00.001Z</time></trkpt><trkpt lat="41.539407005759045" lon="-1.8697915146217823"><ele>938.0</ele><time>2026-05-03T14:29:01.001Z</time></trkpt><trkpt lat="41.5393241215238" lon="-1.8696852157537485"><ele>937.0</ele><time>2026-05-03T14:29:02.001Z</time></trkpt><trkpt lat="41.53924066701921" lon="-1.8695756985122216"><ele>936.0</ele><time>2026-05-03T14:29:03.001Z</time></trkpt><trkpt lat="41.53915958362442" lon="-1.8694658396414132"><ele>936.0</ele><time>2026-05-03T14:29:04.001Z</time></trkpt><trkpt lat="41.539077715982096" lon="-1.8693558292978147"><ele>936.0</ele><time>2026-05-03T14:29:05.001Z</time></trkpt><trkpt lat="41.53899470126484" lon="-1.8692473640640421"><ele>936.0</ele><time>2026-05-03T14:29:06.001Z</time></trkpt><trkpt lat="41.53891035623386" lon="-1.8691385572992063"><ele>936.0</ele><time>2026-05-03T14:29:07.001Z</time></trkpt><trkpt lat="41.538825369497765" lon="-1.869028697613263"><ele>935.25</ele><time>2026-05-03T14:29:08.001Z</time></trkpt><trkpt lat="41.538741225912275" lon="-1.8689222500528857"><ele>934.5</ele><time>2026-05-03T14:29:09.001Z</time></trkpt><trkpt lat="41.53865769371956" lon="-1.8688142102643999"><ele>933.75</ele><time>2026-05-03T14:29:10.001Z</time></trkpt><trkpt lat="41.53857233282521" lon="-1.8687054693749625"><ele>933.0</ele><time>2026-05-03T14:29:11.001Z</time></trkpt><trkpt lat="41.53848789575893" lon="-1.868598040863661"><ele>933.0</ele><time>2026-05-03T14:29:12Z</time></trkpt><trkpt lat="41.538404236314385" lon="-1.868489379992289"><ele>933.0</ele><time>2026-05-03T14:29:13Z</time></trkpt><trkpt lat="41.538319355465546" lon="-1.8683787209890963"><ele>933.0</ele><time>2026-05-03T14:29:14Z</time></trkpt><trkpt lat="41.53823313431599" lon="-1.8682702951831258"><ele>933.0</ele><time>2026-05-03T14:29:15Z</time></trkpt><trkpt lat="41.538147124488766" lon="-1.8681633313028994"><ele>933.5</ele><time>2026-05-03T14:29:16Z</time></trkpt><trkpt lat="41.53806028794542" lon="-1.868057244475643"><ele>934.0</ele><time>2026-05-03T14:29:17Z</time></trkpt><trkpt lat="41.53797452587504" lon="-1.8679506375855959"><ele>934.5</ele><time>2026-05-03T14:29:18Z</time></trkpt><trkpt lat="41.53789001649259" lon="-1.8678432856820875"><ele>935.0</ele><time>2026-05-03T14:29:19Z</time></trkpt><trkpt lat="41.537808258403814" lon="-1.867735151067721"><ele>935.0</ele><time>2026-05-03T14:29:20Z</time></trkpt><trkpt lat="41.53772534085631" lon="-1.867629239391694"><ele>935.0</ele><time>2026-05-03T14:29:21Z</time></trkpt><trkpt lat="41.537644618550054" lon="-1.8675235974399258"><ele>935.0</ele><time>2026-05-03T14:29:22Z</time></trkpt><trkpt lat="41.53756206439799" lon="-1.867418528348447"><ele>935.0</ele><time>2026-05-03T14:29:23Z</time></trkpt><trkpt lat="41.53748001034856" lon="-1.867309968513773"><ele>935.0</ele><time>2026-05-03T14:29:24Z</time></trkpt><trkpt lat="41.53739809297766" lon="-1.8672046233657167"><ele>935.0</ele><time>2026-05-03T14:29:25Z</time></trkpt><trkpt lat="41.53731609930861" lon="-1.8670992474931374"><ele>935.0</ele><time>2026-05-03T14:29:26Z</time></trkpt><trkpt lat="41.53723524616445" lon="-1.8669925308933015"><ele>935.0</ele><time>2026-05-03T14:29:27Z</time></trkpt><trkpt lat="41.537152285593365" lon="-1.8668862777671325"><ele>933.5</ele><time>2026-05-03T14:29:28Z</time></trkpt><trkpt lat="41.53706784390311" lon="-1.866777385678595"><ele>932.0</ele><time>2026-05-03T14:29:29Z</time></trkpt><trkpt lat="41.536982224815546" lon="-1.8666693983215286"><ele>930.5</ele><time>2026-05-03T14:29:30Z</time></trkpt><trkpt lat="41.5368965261091" lon="-1.8665632356766595"><ele>929.0</ele><time>2026-05-03T14:29:31Z</time></trkpt><trkpt lat="41.53681253647895" lon="-1.8664586081230943"><ele>929.0</ele><time>2026-05-03T14:29:32Z</time></trkpt><trkpt lat="41.53673077381228" lon="-1.8663513574037085"><ele>929.0</ele><time>2026-05-03T14:29:33Z</time></trkpt><trkpt lat="41.53664581599476" lon="-1.8662439457478215"><ele>929.0</ele><time>2026-05-03T14:29:34Z</time></trkpt><trkpt lat="41.536560510463154" lon="-1.8661359812194906"><ele>929.0</ele><time>2026-05-03T14:29:35Z</time></trkpt><trkpt lat="41.53647639281586" lon="-1.866028075101493"><ele>928.0</ele><time>2026-05-03T14:29:36Z</time></trkpt><trkpt lat="41.53639222949628" lon="-1.8659189017331084"><ele>927.0</ele><time>2026-05-03T14:29:37Z</time></trkpt><trkpt lat="41.53630807551671" lon="-1.8658091232083134"><ele>926.0</ele><time>2026-05-03T14:29:38Z</time></trkpt><trkpt lat="41.53622103624826" lon="-1.8657017180652549"><ele>925.0</ele><time>2026-05-03T14:29:39Z</time></trkpt><trkpt lat="41.53613803976324" lon="-1.8655974533320032"><ele>925.0</ele><time>2026-05-03T14:29:40Z</time></trkpt><trkpt lat="41.53605812318019" lon="-1.8654899820340798"><ele>925.0</ele><time>2026-05-03T14:29:41Z</time></trkpt><trkpt lat="41.53597702101318" lon="-1.8653823869635786"><ele>925.0</ele><time>2026-05-03T14:29:42Z</time></trkpt><trkpt lat="41.535896693913514" lon="-1.8652758211716605"><ele>925.0</ele><time>2026-05-03T14:29:43Z</time></trkpt><trkpt lat="41.53581651169072" lon="-1.8651681891702345"><ele>925.25</ele><time>2026-05-03T14:29:44Z</time></trkpt><trkpt lat="41.53573845875537" lon="-1.8650604096406527"><ele>925.5</ele><time>2026-05-03T14:29:45Z</time></trkpt><trkpt lat="41.53566069322363" lon="-1.8649505892100051"><ele>925.75</ele><time>2026-05-03T14:29:46Z</time></trkpt><trkpt lat="41.53558235667036" lon="-1.8648401713276888"><ele>926.0</ele><time>2026-05-03T14:29:47Z</time></trkpt><trkpt lat="41.535504957111286" lon="-1.8647320259407916"><ele>926.0</ele><time>2026-05-03T14:29:48Z</time></trkpt><trkpt lat="41.53542740902659" lon="-1.8646209648131908"><ele>926.0</ele><time>2026-05-03T14:29:49Z</time></trkpt><trkpt lat="41.53535091356258" lon="-1.8645088876299427"><ele>926.0</ele><time>2026-05-03T14:29:50Z</time></trkpt><trkpt lat="41.53527393011895" lon="-1.8643943442838338"><ele>926.0</ele><time>2026-05-03T14:29:51Z</time></trkpt><trkpt lat="41.53519847062745" lon="-1.8642813038199297"><ele>925.0</ele><time>2026-05-03T14:29:52Z</time></trkpt><trkpt lat="41.535121846663344" lon="-1.8641647104106163"><ele>924.0</ele><time>2026-05-03T14:29:53Z</time></trkpt><trkpt lat="41.53504521739716" lon="-1.8640498296474024"><ele>923.0</ele><time>2026-05-03T14:29:54Z</time></trkpt><trkpt lat="41.53496787409066" lon="-1.8639400842965081"><ele>922.0</ele><time>2026-05-03T14:29:55Z</time></trkpt><trkpt lat="41.53489243396095" lon="-1.863826370269134"><ele>922.0</ele><time>2026-05-03T14:29:56Z</time></trkpt><trkpt lat="41.53481806753254" lon="-1.863711048183576"><ele>922.0</ele><time>2026-05-03T14:29:57Z</time></trkpt><trkpt lat="41.534742813895434" lon="-1.8635973115927813"><ele>922.0</ele><time>2026-05-03T14:29:58Z</time></trkpt><trkpt lat="41.534667486298424" lon="-1.8634814522589762"><ele>922.0</ele><time>2026-05-03T14:29:59Z</time></trkpt><trkpt lat="41.53459295358958" lon="-1.8633667987728768"><ele>921.75</ele><time>2026-05-03T14:30:00Z</time></trkpt><trkpt lat="41.534517842723" lon="-1.8632499640869735"><ele>921.5</ele><time>2026-05-03T14:30:01Z</time></trkpt><trkpt lat="41.534441282722675" lon="-1.8631335487387282"><ele>921.25</ele><time>2026-05-03T14:30:02Z</time></trkpt><trkpt lat="41.53436485865749" lon="-1.8630196527904808"><ele>921.0</ele><time>2026-05-03T14:30:03Z</time></trkpt><trkpt lat="41.53428848520785" lon="-1.862907820898536"><ele>921.0</ele><time>2026-05-03T14:30:04Z</time></trkpt><trkpt lat="41.5342084041166" lon="-1.8627954599978518"><ele>921.0</ele><time>2026-05-03T14:30:05Z</time></trkpt><trkpt lat="41.5341273604234" lon="-1.862688423540557"><ele>921.0</ele><time>2026-05-03T14:30:06Z</time></trkpt><trkpt lat="41.53404577555668" lon="-1.8625810124691953"><ele>921.0</ele><time>2026-05-03T14:30:07Z</time></trkpt><trkpt lat="41.53396370793287" lon="-1.8624734471265139"><ele>921.25</ele><time>2026-05-03T14:30:08Z</time></trkpt><trkpt lat="41.53388054583865" lon="-1.8623625031229891"><ele>921.5</ele><time>2026-05-03T14:30:09Z</time></trkpt><trkpt lat="41.53379885553345" lon="-1.8622498143376653"><ele>921.75</ele><time>2026-05-03T14:30:10Z</time></trkpt><trkpt lat="41.53371426593689" lon="-1.8621364181463518"><ele>922.0</ele><time>2026-05-03T14:30:11Z</time></trkpt><trkpt lat="41.53363059749418" lon="-1.862029237713531"><ele>920.5</ele><time>2026-05-03T14:30:12Z</time></trkpt><trkpt lat="41.53354571429098" lon="-1.8619203915812712"><ele>919.0</ele><time>2026-05-03T14:30:13Z</time></trkpt><trkpt lat="41.5334601928113" lon="-1.8618141527808447"><ele>917.5</ele><time>2026-05-03T14:30:14Z</time></trkpt><trkpt lat="41.53337520243258" lon="-1.8617089567665932"><ele>916.0</ele><time>2026-05-03T14:30:15Z</time></trkpt><trkpt lat="41.53329014616304" lon="-1.861604524735139"><ele>916.0</ele><time>2026-05-03T14:30:16Z</time></trkpt><trkpt lat="41.53320551458095" lon="-1.8614977143520648"><ele>916.0</ele><time>2026-05-03T14:30:17Z</time></trkpt><trkpt lat="41.533119493842875" lon="-1.8613926963905365"><ele>916.0</ele><time>2026-05-03T14:30:18Z</time></trkpt><trkpt lat="41.53303464566156" lon="-1.861290724247324"><ele>916.0</ele><time>2026-05-03T14:30:19Z</time></trkpt><trkpt lat="41.532950216563385" lon="-1.8611913506425593"><ele>916.0</ele><time>2026-05-03T14:30:20Z</time></trkpt><trkpt lat="41.53286557821415" lon="-1.8610872799277105"><ele>916.0</ele><time>2026-05-03T14:30:21Z</time></trkpt><trkpt lat="41.532780867353424" lon="-1.860986659390033"><ele>916.0</ele><time>2026-05-03T14:30:22.001Z</time></trkpt><trkpt lat="41.53269715968643" lon="-1.8608895588119183"><ele>916.0</ele><time>2026-05-03T14:30:23.001Z</time></trkpt><trkpt lat="41.532615394083635" lon="-1.8607886315485487"><ele>916.0</ele><time>2026-05-03T14:30:24.001Z</time></trkpt><trkpt lat="41.532531429241544" lon="-1.8606838596832933"><ele>916.0</ele><time>2026-05-03T14:30:25.001Z</time></trkpt><trkpt lat="41.532447185236535" lon="-1.8605840829551266"><ele>916.0</ele><time>2026-05-03T14:30:26.001Z</time></trkpt><trkpt lat="41.532363259841134" lon="-1.8604848968401924"><ele>916.0</ele><time>2026-05-03T14:30:27.001Z</time></trkpt><trkpt lat="41.53227870862575" lon="-1.8603816972981435"><ele>916.0</ele><time>2026-05-03T14:30:28.001Z</time></trkpt><trkpt lat="41.53219659907488" lon="-1.860278766525552"><ele>915.9999999999999</ele><time>2026-05-03T14:30:29.001Z</time></trkpt><trkpt lat="41.532113621811426" lon="-1.8601796772660055"><ele>915.9999999999999</ele><time>2026-05-03T14:30:30.001Z</time></trkpt><trkpt lat="41.53203134003842" lon="-1.8600812722055098"><ele>916.0</ele><time>2026-05-03T14:30:31.001Z</time></trkpt><trkpt lat="41.5319525028182" lon="-1.859982866336311"><ele>916.0</ele><time>2026-05-03T14:30:32.001Z</time></trkpt><trkpt lat="41.53187101626585" lon="-1.8598880878778088"><ele>915.5999999999999</ele><time>2026-05-03T14:30:33.001Z</time></trkpt><trkpt lat="41.53178410529604" lon="-1.8597962523073421"><ele>915.1999999999999</ele><time>2026-05-03T14:30:34.001Z</time></trkpt><trkpt lat="41.53170626271094" lon="-1.8596883955942325"><ele>914.8000000000001</ele><time>2026-05-03T14:30:35.001Z</time></trkpt><trkpt lat="41.53162243720535" lon="-1.8595894940537954"><ele>914.4000000000001</ele><time>2026-05-03T14:30:36.001Z</time></trkpt><trkpt lat="41.531537010634445" lon="-1.8594874982255583"><ele>914.0</ele><time>2026-05-03T14:30:37.001Z</time></trkpt><trkpt lat="41.53145375076734" lon="-1.85938713268305"><ele>914.0</ele><time>2026-05-03T14:30:38.001Z</time></trkpt><trkpt lat="41.53136670762254" lon="-1.859287336663844"><ele>914.0</ele><time>2026-05-03T14:30:39.001Z</time></trkpt><trkpt lat="41.53128218624108" lon="-1.8591850100015415"><ele>914.0</ele><time>2026-05-03T14:30:40.001Z</time></trkpt><trkpt lat="41.53119787296573" lon="-1.8590819962895053"><ele>914.0</ele><time>2026-05-03T14:30:41.001Z</time></trkpt><trkpt lat="41.53111020157124" lon="-1.8589787883130497"><ele>913.5</ele><time>2026-05-03T14:30:42.001Z</time></trkpt><trkpt lat="41.53102461794821" lon="-1.8588770452716015"><ele>913.0</ele><time>2026-05-03T14:30:43.001Z</time></trkpt><trkpt lat="41.53093947316158" lon="-1.8587739784411266"><ele>912.5</ele><time>2026-05-03T14:30:44.001Z</time></trkpt><trkpt lat="41.53085171980727" lon="-1.8586678067886613"><ele>912.0</ele><time>2026-05-03T14:30:45.001Z</time></trkpt><trkpt lat="41.53076518494847" lon="-1.8585649276913685"><ele>912.0</ele><time>2026-05-03T14:30:46.001Z</time></trkpt><trkpt lat="41.530678427671006" lon="-1.858460395490564"><ele>912.0</ele><time>2026-05-03T14:30:47.001Z</time></trkpt><trkpt lat="41.53059577959173" lon="-1.8583582175563294"><ele>912.0</ele><time>2026-05-03T14:30:48.001Z</time></trkpt><trkpt lat="41.53051269415364" lon="-1.8582524338260695"><ele>912.0</ele><time>2026-05-03T14:30:49.001Z</time></trkpt><trkpt lat="41.53042728169667" lon="-1.8581503843018259"><ele>911.5</ele><time>2026-05-03T14:30:50.001Z</time></trkpt><trkpt lat="41.53034114142288" lon="-1.858049541950061"><ele>911.0</ele><time>2026-05-03T14:30:51.001Z</time></trkpt><trkpt lat="41.530253456835055" lon="-1.8579446626392102"><ele>910.5</ele><time>2026-05-03T14:30:52.001Z</time></trkpt><trkpt lat="41.53016795227926" lon="-1.857839662511192"><ele>910.0</ele><time>2026-05-03T14:30:53.001Z</time></trkpt><trkpt lat="41.53008279219048" lon="-1.8577336547105254"><ele>910.0</ele><time>2026-05-03T14:30:54.001Z</time></trkpt><trkpt lat="41.52999279614361" lon="-1.8576339991205397"><ele>910.0</ele><time>2026-05-03T14:30:55.001Z</time></trkpt><trkpt lat="41.52990316143013" lon="-1.8575242951028912"><ele>910.0</ele><time>2026-05-03T14:30:56.001Z</time></trkpt><trkpt lat="41.529816922532326" lon="-1.857419778647822"><ele>910.0</ele><time>2026-05-03T14:30:57.001Z</time></trkpt><trkpt lat="41.52972813726255" lon="-1.8573116873556363"><ele>909.0</ele><time>2026-05-03T14:30:58.001Z</time></trkpt><trkpt lat="41.52963979353293" lon="-1.857206728826339"><ele>908.0</ele><time>2026-05-03T14:30:59.001Z</time></trkpt><trkpt lat="41.52955438921297" lon="-1.8571009494343227"><ele>907.0</ele><time>2026-05-03T14:31:00.001Z</time></trkpt><trkpt lat="41.529464805607994" lon="-1.8570005835209504"><ele>906.0</ele><time>2026-05-03T14:31:01.001Z</time></trkpt><trkpt lat="41.52937219233508" lon="-1.8568907483470511"><ele>906.0</ele><time>2026-05-03T14:31:02.001Z</time></trkpt><trkpt lat="41.5292879515919" lon="-1.8567921840988142"><ele>906.0</ele><time>2026-05-03T14:31:03.001Z</time></trkpt><trkpt lat="41.52919936128165" lon="-1.8566877257080008"><ele>906.0</ele><time>2026-05-03T14:31:04.001Z</time></trkpt><trkpt lat="41.52910706694117" lon="-1.8565945164525295"><ele>906.0</ele><time>2026-05-03T14:31:05.001Z</time></trkpt><trkpt lat="41.52901065445232" lon="-1.856493258693785"><ele>905.5</ele><time>2026-05-03T14:31:06.001Z</time></trkpt><trkpt lat="41.52891552734873" lon="-1.8563870148395587"><ele>905.0</ele><time>2026-05-03T14:31:07.001Z</time></trkpt><trkpt lat="41.52884091636761" lon="-1.8562853756818367"><ele>904.5</ele><time>2026-05-03T14:31:08.001Z</time></trkpt><trkpt lat="41.528751902855795" lon="-1.856187612964063"><ele>904.0</ele><time>2026-05-03T14:31:09.001Z</time></trkpt><trkpt lat="41.52866174178811" lon="-1.8560845308965834"><ele>904.0</ele><time>2026-05-03T14:31:10.001Z</time></trkpt><trkpt lat="41.52857177103738" lon="-1.8559832805417795"><ele>904.0</ele><time>2026-05-03T14:31:11.001Z</time></trkpt><trkpt lat="41.5284818634001" lon="-1.8558852561671588"><ele>904.0</ele><time>2026-05-03T14:31:12.001Z</time></trkpt><trkpt lat="41.52839025861722" lon="-1.8557875296479018"><ele>904.0</ele><time>2026-05-03T14:31:13.001Z</time></trkpt><trkpt lat="41.52830191083298" lon="-1.8556877114008075"><ele>905.25</ele><time>2026-05-03T14:31:14.001Z</time></trkpt><trkpt lat="41.528214324091174" lon="-1.8555906795648986"><ele>906.5</ele><time>2026-05-03T14:31:15.001Z</time></trkpt><trkpt lat="41.528113512772336" lon="-1.855515537178919"><ele>907.75</ele><time>2026-05-03T14:31:16.001Z</time></trkpt><trkpt lat="41.52802534080372" lon="-1.8554130797916322"><ele>909.0</ele><time>2026-05-03T14:31:17.001Z</time></trkpt><trkpt lat="41.52793781800523" lon="-1.8553061267063387"><ele>908.5</ele><time>2026-05-03T14:31:18Z</time></trkpt><trkpt lat="41.52784622065463" lon="-1.8552069425494473"><ele>908.0</ele><time>2026-05-03T14:31:19Z</time></trkpt><trkpt lat="41.52775582746921" lon="-1.8551248644822491"><ele>907.5</ele><time>2026-05-03T14:31:20Z</time></trkpt><trkpt lat="41.52764058220554" lon="-1.8550487818696881"><ele>907.0</ele><time>2026-05-03T14:31:21Z</time></trkpt><trkpt lat="41.52756675324964" lon="-1.8549314301453768"><ele>907.0</ele><time>2026-05-03T14:31:22Z</time></trkpt><trkpt lat="41.527470435095424" lon="-1.8548246425846964"><ele>907.0</ele><time>2026-05-03T14:31:23Z</time></trkpt><trkpt lat="41.52737575244163" lon="-1.8547366669686893"><ele>907.0</ele><time>2026-05-03T14:31:24Z</time></trkpt><trkpt lat="41.5272771515457" lon="-1.8546423264995793"><ele>907.0</ele><time>2026-05-03T14:31:25Z</time></trkpt><trkpt lat="41.52718495659384" lon="-1.854547713131637"><ele>907.0</ele><time>2026-05-03T14:31:26Z</time></trkpt><trkpt lat="41.52708452344926" lon="-1.8544513992642018"><ele>907.0</ele><time>2026-05-03T14:31:27Z</time></trkpt><trkpt lat="41.52698893853009" lon="-1.8543663814305"><ele>907.0</ele><time>2026-05-03T14:31:28Z</time></trkpt><trkpt lat="41.526894285801724" lon="-1.8542744333502796"><ele>907.0</ele><time>2026-05-03T14:31:29Z</time></trkpt><trkpt lat="41.52680042727341" lon="-1.8541840370115905"><ele>906.75</ele><time>2026-05-03T14:31:30Z</time></trkpt><trkpt lat="41.52672000120517" lon="-1.8540806301815647"><ele>906.5</ele><time>2026-05-03T14:31:31Z</time></trkpt><trkpt lat="41.52661497055521" lon="-1.8539923251779569"><ele>906.25</ele><time>2026-05-03T14:31:32Z</time></trkpt><trkpt lat="41.52651979531454" lon="-1.85390151758855"><ele>906.0</ele><time>2026-05-03T14:31:33Z</time></trkpt><trkpt lat="41.526425136263974" lon="-1.8538113504641085"><ele>906.0</ele><time>2026-05-03T14:31:34Z</time></trkpt><trkpt lat="41.52633171962442" lon="-1.8537220740666298"><ele>906.0</ele><time>2026-05-03T14:31:35Z</time></trkpt><trkpt lat="41.526237111478856" lon="-1.85363441776839"><ele>906.0</ele><time>2026-05-03T14:31:36Z</time></trkpt><trkpt lat="41.52614418840258" lon="-1.853550114856597"><ele>906.0</ele><time>2026-05-03T14:31:37Z</time></trkpt><trkpt lat="41.52604772944697" lon="-1.853454539049859"><ele>905.0</ele><time>2026-05-03T14:31:38Z</time></trkpt><trkpt lat="41.52595078295977" lon="-1.8533700426874475"><ele>904.0</ele><time>2026-05-03T14:31:39Z</time></trkpt><trkpt lat="41.52584818534414" lon="-1.8532953205442582"><ele>903.0</ele><time>2026-05-03T14:31:40Z</time></trkpt><trkpt lat="41.525755570377996" lon="-1.8532046692687327"><ele>902.0</ele><time>2026-05-03T14:31:41Z</time></trkpt><trkpt lat="41.525664178996415" lon="-1.853102605754272"><ele>902.0</ele><time>2026-05-03T14:31:42Z</time></trkpt><trkpt lat="41.52557391299694" lon="-1.853013923880366"><ele>902.0</ele><time>2026-05-03T14:31:43Z</time></trkpt><trkpt lat="41.5254584642668" lon="-1.8529637050115615"><ele>902.0</ele><time>2026-05-03T14:31:44Z</time></trkpt><trkpt lat="41.52536607739444" lon="-1.8528550490243028"><ele>902.0</ele><time>2026-05-03T14:31:45Z</time></trkpt><trkpt lat="41.52527187970019" lon="-1.8527554757246276"><ele>902.0</ele><time>2026-05-03T14:31:46Z</time></trkpt><trkpt lat="41.525184706204506" lon="-1.852658829202499"><ele>902.0</ele><time>2026-05-03T14:31:47Z</time></trkpt><trkpt lat="41.525065320397594" lon="-1.8525966279337767"><ele>902.0</ele><time>2026-05-03T14:31:48Z</time></trkpt><trkpt lat="41.524968316271995" lon="-1.8524984167388507"><ele>902.0</ele><time>2026-05-03T14:31:49Z</time></trkpt><trkpt lat="41.52487228546019" lon="-1.8524109968460996"><ele>902.0</ele><time>2026-05-03T14:31:50Z</time></trkpt><trkpt lat="41.52477487383146" lon="-1.8523274407119001"><ele>902.0</ele><time>2026-05-03T14:31:51Z</time></trkpt><trkpt lat="41.52467194349704" lon="-1.8522440592564067"><ele>902.0</ele><time>2026-05-03T14:31:52Z</time></trkpt><trkpt lat="41.52457641179864" lon="-1.8521740811360787"><ele>902.0</ele><time>2026-05-03T14:31:53Z</time></trkpt><trkpt lat="41.524474250917145" lon="-1.852085512753144"><ele>902.25</ele><time>2026-05-03T14:31:54Z</time></trkpt><trkpt lat="41.52437597744939" lon="-1.852003532431555"><ele>902.5</ele><time>2026-05-03T14:31:55Z</time></trkpt><trkpt lat="41.52427582816931" lon="-1.85191808022196"><ele>902.75</ele><time>2026-05-03T14:31:56Z</time></trkpt><trkpt lat="41.52417849444583" lon="-1.8518344142962875"><ele>903.0</ele><time>2026-05-03T14:31:57Z</time></trkpt><trkpt lat="41.52407941509531" lon="-1.8517449076970618"><ele>903.0</ele><time>2026-05-03T14:31:58Z</time></trkpt><trkpt lat="41.52398802771186" lon="-1.8516516616008332"><ele>903.0</ele><time>2026-05-03T14:31:59Z</time></trkpt><trkpt lat="41.523884633842655" lon="-1.8515401000847158"><ele>903.0</ele><time>2026-05-03T14:32:00Z</time></trkpt><trkpt lat="41.52378537934247" lon="-1.8514774237858536"><ele>903.0</ele><time>2026-05-03T14:32:01Z</time></trkpt><trkpt lat="41.52368884825546" lon="-1.8514025579257782"><ele>901.0</ele><time>2026-05-03T14:32:02Z</time></trkpt><trkpt lat="41.52358433657094" lon="-1.8513085402292098"><ele>899.0</ele><time>2026-05-03T14:32:03Z</time></trkpt><trkpt lat="41.523489804934464" lon="-1.8512316502769612"><ele>897.0</ele><time>2026-05-03T14:32:04Z</time></trkpt><trkpt lat="41.52339322264287" lon="-1.851136390502134"><ele>895.0</ele><time>2026-05-03T14:32:05Z</time></trkpt><trkpt lat="41.523297919992835" lon="-1.8510308405956422"><ele>896.75</ele><time>2026-05-03T14:32:06Z</time></trkpt><trkpt lat="41.52320385406177" lon="-1.850957530237816"><ele>898.5</ele><time>2026-05-03T14:32:07Z</time></trkpt><trkpt lat="41.52310566860682" lon="-1.8508727166521837"><ele>900.25</ele><time>2026-05-03T14:32:08Z</time></trkpt><trkpt lat="41.52301230136858" lon="-1.8507819117344853"><ele>902.0</ele><time>2026-05-03T14:32:09Z</time></trkpt><trkpt lat="41.52292280253393" lon="-1.8506903434511557"><ele>899.25</ele><time>2026-05-03T14:32:10Z</time></trkpt><trkpt lat="41.522827408061026" lon="-1.8506001850296743"><ele>896.5</ele><time>2026-05-03T14:32:11Z</time></trkpt><trkpt lat="41.522739780940654" lon="-1.850507524023143"><ele>893.75</ele><time>2026-05-03T14:32:12Z</time></trkpt><trkpt lat="41.52264695096672" lon="-1.8504122177613498"><ele>891.0</ele><time>2026-05-03T14:32:13Z</time></trkpt><trkpt lat="41.5225481779022" lon="-1.8503187237384433"><ele>891.0</ele><time>2026-05-03T14:32:14Z</time></trkpt><trkpt lat="41.52245848193883" lon="-1.850232629096354"><ele>891.0</ele><time>2026-05-03T14:32:15Z</time></trkpt><trkpt lat="41.52237501822087" lon="-1.8501284032156708"><ele>891.0</ele><time>2026-05-03T14:32:16Z</time></trkpt><trkpt lat="41.52228132975648" lon="-1.8500188324600138"><ele>891.0</ele><time>2026-05-03T14:32:17Z</time></trkpt><trkpt lat="41.52218898643088" lon="-1.8499249269871878"><ele>890.25</ele><time>2026-05-03T14:32:18Z</time></trkpt><trkpt lat="41.52210486200363" lon="-1.8498156922963005"><ele>889.5</ele><time>2026-05-03T14:32:19Z</time></trkpt><trkpt lat="41.522012818227" lon="-1.8497224455635797"><ele>888.75</ele><time>2026-05-03T14:32:20Z</time></trkpt><trkpt lat="41.52192179346211" lon="-1.849619863696568"><ele>888.0</ele><time>2026-05-03T14:32:21Z</time></trkpt><trkpt lat="41.521831704387225" lon="-1.849517325391094"><ele>888.0</ele><time>2026-05-03T14:32:22Z</time></trkpt><trkpt lat="41.52174468794321" lon="-1.8494121994622787"><ele>888.0</ele><time>2026-05-03T14:32:23Z</time></trkpt><trkpt lat="41.52165711999729" lon="-1.8493083740772636"><ele>888.0</ele><time>2026-05-03T14:32:24Z</time></trkpt><trkpt lat="41.5215463158368" lon="-1.849228244848957"><ele>888.0</ele><time>2026-05-03T14:32:25Z</time></trkpt><trkpt lat="41.521477532610916" lon="-1.8491249448159053"><ele>887.0</ele><time>2026-05-03T14:32:26Z</time></trkpt><trkpt lat="41.52140445548659" lon="-1.848987933686028"><ele>886.0</ele><time>2026-05-03T14:32:27Z</time></trkpt><trkpt lat="41.52131885593206" lon="-1.8488797069122087"><ele>885.0</ele><time>2026-05-03T14:32:28Z</time></trkpt><trkpt lat="41.52124040592873" lon="-1.848763742120073"><ele>884.0</ele><time>2026-05-03T14:32:29.001Z</time></trkpt><trkpt lat="41.52116593540038" lon="-1.8486420793123923"><ele>884.0</ele><time>2026-05-03T14:32:30.001Z</time></trkpt><trkpt lat="41.52109350580402" lon="-1.8485206015628164"><ele>884.0</ele><time>2026-05-03T14:32:31.001Z</time></trkpt><trkpt lat="41.52102460810712" lon="-1.8483966918284462"><ele>884.0</ele><time>2026-05-03T14:32:32.001Z</time></trkpt><trkpt lat="41.52095365715521" lon="-1.8482714450096018"><ele>884.0</ele><time>2026-05-03T14:32:33.001Z</time></trkpt><trkpt lat="41.520889728703025" lon="-1.8481463309075417"><ele>884.75</ele><time>2026-05-03T14:32:34.001Z</time></trkpt><trkpt lat="41.52081960721943" lon="-1.8480186878323344"><ele>885.5</ele><time>2026-05-03T14:32:35.001Z</time></trkpt><trkpt lat="41.52076066831174" lon="-1.8478532165668091"><ele>886.25</ele><time>2026-05-03T14:32:36.001Z</time></trkpt><trkpt lat="41.52070705580576" lon="-1.8477427764638295"><ele>887.0</ele><time>2026-05-03T14:32:37.001Z</time></trkpt><trkpt lat="41.520652604302164" lon="-1.8476051472027097"><ele>889.0</ele><time>2026-05-03T14:32:38.001Z</time></trkpt><trkpt lat="41.52059365171376" lon="-1.847463367795783"><ele>891.0</ele><time>2026-05-03T14:32:39.001Z</time></trkpt><trkpt lat="41.52054080331687" lon="-1.8473293982330514"><ele>893.0</ele><time>2026-05-03T14:32:40.001Z</time></trkpt><trkpt lat="41.520486893881895" lon="-1.8471906244490763"><ele>895.0</ele><time>2026-05-03T14:32:41.001Z</time></trkpt><trkpt lat="41.520432800007235" lon="-1.8470545032207033"><ele>891.75</ele><time>2026-05-03T14:32:42.001Z</time></trkpt><trkpt lat="41.52037822094497" lon="-1.8469144368857295"><ele>888.5</ele><time>2026-05-03T14:32:43.001Z</time></trkpt><trkpt lat="41.52033569484043" lon="-1.8467750922941526"><ele>885.25</ele><time>2026-05-03T14:32:44.001Z</time></trkpt><trkpt lat="41.520272865782964" lon="-1.8466441769466955"><ele>882.0</ele><time>2026-05-03T14:32:45.001Z</time></trkpt><trkpt lat="41.52021614058662" lon="-1.8465090353620168"><ele>881.75</ele><time>2026-05-03T14:32:46.001Z</time></trkpt><trkpt lat="41.52016081327388" lon="-1.8463705524414522"><ele>881.5</ele><time>2026-05-03T14:32:47.001Z</time></trkpt><trkpt lat="41.520100140230824" lon="-1.8462360815204106"><ele>881.25</ele><time>2026-05-03T14:32:48.001Z</time></trkpt><trkpt lat="41.520041809051" lon="-1.8461067211398048"><ele>881.0</ele><time>2026-05-03T14:32:49.001Z</time></trkpt><trkpt lat="41.519961207980494" lon="-1.845997243471243"><ele>882.75</ele><time>2026-05-03T14:32:50.001Z</time></trkpt><trkpt lat="41.51991411697689" lon="-1.8458459301426071"><ele>884.5</ele><time>2026-05-03T14:32:51.001Z</time></trkpt><trkpt lat="41.51984411029492" lon="-1.8457242822630004"><ele>886.25</ele><time>2026-05-03T14:32:52.001Z</time></trkpt><trkpt lat="41.5197745425993" lon="-1.8456003903114742"><ele>888.0</ele><time>2026-05-03T14:32:53.001Z</time></trkpt><trkpt lat="41.51970094656102" lon="-1.8454797348840755"><ele>888.0</ele><time>2026-05-03T14:32:54.001Z</time></trkpt><trkpt lat="41.519625214500294" lon="-1.8453645713282816"><ele>888.0</ele><time>2026-05-03T14:32:55.001Z</time></trkpt><trkpt lat="41.51955121601178" lon="-1.8452467934588643"><ele>888.0</ele><time>2026-05-03T14:32:56.001Z</time></trkpt><trkpt lat="41.51947078047732" lon="-1.8451275257900777"><ele>888.0</ele><time>2026-05-03T14:32:57.001Z</time></trkpt><trkpt lat="41.519389972237875" lon="-1.84501569826327"><ele>885.5</ele><time>2026-05-03T14:32:58.001Z</time></trkpt><trkpt lat="41.5193058287588" lon="-1.8449136598281748"><ele>883.0</ele><time>2026-05-03T14:32:59.001Z</time></trkpt><trkpt lat="41.5192173621362" lon="-1.8448107705418728"><ele>880.5</ele><time>2026-05-03T14:33:00.001Z</time></trkpt><trkpt lat="41.51913407443297" lon="-1.8447087277293537"><ele>878.0</ele><time>2026-05-03T14:33:01.001Z</time></trkpt><trkpt lat="41.51904773141565" lon="-1.8446017144903377"><ele>878.0</ele><time>2026-05-03T14:33:02.001Z</time></trkpt><trkpt lat="41.51896269865897" lon="-1.844499819816821"><ele>878.0</ele><time>2026-05-03T14:33:03.001Z</time></trkpt><trkpt lat="41.51887877961069" lon="-1.844399057591546"><ele>878.0</ele><time>2026-05-03T14:33:04.001Z</time></trkpt><trkpt lat="41.51879446523235" lon="-1.8442959660999922"><ele>878.0</ele><time>2026-05-03T14:33:05.001Z</time></trkpt><trkpt lat="41.518712068366085" lon="-1.8441932886112922"><ele>877.0</ele><time>2026-05-03T14:33:06.001Z</time></trkpt><trkpt lat="41.51862523050334" lon="-1.8440883925337541"><ele>876.0</ele><time>2026-05-03T14:33:07.001Z</time></trkpt><trkpt lat="41.51854349574139" lon="-1.8439838748252482"><ele>875.0</ele><time>2026-05-03T14:33:08.001Z</time></trkpt><trkpt lat="41.518457877888004" lon="-1.843878103882545"><ele>874.0</ele><time>2026-05-03T14:33:09.001Z</time></trkpt><trkpt lat="41.518376150767814" lon="-1.8437719049489991"><ele>874.0</ele><time>2026-05-03T14:33:10.001Z</time></trkpt><trkpt lat="41.518297609215274" lon="-1.8436585531981537"><ele>874.0</ele><time>2026-05-03T14:33:11.001Z</time></trkpt><trkpt lat="41.51822266012939" lon="-1.843541819678809"><ele>874.0</ele><time>2026-05-03T14:33:12.001Z</time></trkpt><trkpt lat="41.51814939793255" lon="-1.8434237478429258"><ele>874.0</ele><time>2026-05-03T14:33:13.001Z</time></trkpt><trkpt lat="41.51807728007603" lon="-1.843301563799861"><ele>873.5</ele><time>2026-05-03T14:33:14.001Z</time></trkpt><trkpt lat="41.51800811307255" lon="-1.843177755647104"><ele>873.0</ele><time>2026-05-03T14:33:15.001Z</time></trkpt><trkpt lat="41.51793952868314" lon="-1.843053812842112"><ele>872.5</ele><time>2026-05-03T14:33:16.001Z</time></trkpt><trkpt lat="41.51787224684217" lon="-1.8429266833208198"><ele>872.0</ele><time>2026-05-03T14:33:17.001Z</time></trkpt><trkpt lat="41.51780452289981" lon="-1.8428026768674188"><ele>872.0</ele><time>2026-05-03T14:33:18.001Z</time></trkpt><trkpt lat="41.51773872329566" lon="-1.8426760459694442"><ele>872.0</ele><time>2026-05-03T14:33:19.001Z</time></trkpt><trkpt lat="41.51767532315638" lon="-1.8425488750815155"><ele>872.0</ele><time>2026-05-03T14:33:20.001Z</time></trkpt><trkpt lat="41.517609138637276" lon="-1.842421515638493"><ele>872.0</ele><time>2026-05-03T14:33:21.001Z</time></trkpt><trkpt lat="41.517544759669654" lon="-1.8422953345608353"><ele>872.75</ele><time>2026-05-03T14:33:22.001Z</time></trkpt><trkpt lat="41.51748012246438" lon="-1.8421682360202067"><ele>873.5</ele><time>2026-05-03T14:33:23.001Z</time></trkpt><trkpt lat="41.51741663631428" lon="-1.8420399397160925"><ele>874.25</ele><time>2026-05-03T14:33:24Z</time></trkpt><trkpt lat="41.517352981258846" lon="-1.8419123736737006"><ele>875.0</ele><time>2026-05-03T14:33:25Z</time></trkpt><trkpt lat="41.517287344286146" lon="-1.8417873831860163"><ele>873.5</ele><time>2026-05-03T14:33:26Z</time></trkpt><trkpt lat="41.51722194100463" lon="-1.8416595826970057"><ele>872.0</ele><time>2026-05-03T14:33:27Z</time></trkpt><trkpt lat="41.517158104122046" lon="-1.841532787220478"><ele>870.5</ele><time>2026-05-03T14:33:28Z</time></trkpt><trkpt lat="41.51709643785535" lon="-1.8414069145064105"><ele>869.0</ele><time>2026-05-03T14:33:29Z</time></trkpt><trkpt lat="41.517033325526924" lon="-1.8412802559404753"><ele>869.0</ele><time>2026-05-03T14:33:30Z</time></trkpt><trkpt lat="41.51690696845063" lon="-1.8410290663428395"><ele>869.0</ele><time>2026-05-03T14:33:32Z</time></trkpt><trkpt lat="41.51684304018974" lon="-1.840903630270393"><ele>869.0</ele><time>2026-05-03T14:33:33Z</time></trkpt><trkpt lat="41.516780681437446" lon="-1.8407754236562843"><ele>869.5</ele><time>2026-05-03T14:33:34Z</time></trkpt><trkpt lat="41.51671871081969" lon="-1.8406529603718331"><ele>870.0</ele><time>2026-05-03T14:33:35Z</time></trkpt><trkpt lat="41.51665608129486" lon="-1.8405275603850035"><ele>870.5</ele><time>2026-05-03T14:33:36Z</time></trkpt><trkpt lat="41.51659191818572" lon="-1.8404005309140092"><ele>871.0</ele><time>2026-05-03T14:33:37Z</time></trkpt><trkpt lat="41.516529010665685" lon="-1.8402747835978683"><ele>871.0</ele><time>2026-05-03T14:33:38Z</time></trkpt><trkpt lat="41.516464454859445" lon="-1.8401503299651938"><ele>871.0</ele><time>2026-05-03T14:33:39Z</time></trkpt><trkpt lat="41.51640078888089" lon="-1.8400246286981072"><ele>871.0</ele><time>2026-05-03T14:33:40Z</time></trkpt><trkpt lat="41.51633726119831" lon="-1.8398978116911602"><ele>871.0</ele><time>2026-05-03T14:33:41Z</time></trkpt><trkpt lat="41.51627120708141" lon="-1.8397709671288587"><ele>870.0</ele><time>2026-05-03T14:33:42Z</time></trkpt><trkpt lat="41.51620382976919" lon="-1.8396431825804884"><ele>869.0</ele><time>2026-05-03T14:33:43Z</time></trkpt><trkpt lat="41.51614050169128" lon="-1.8395133842423004"><ele>868.0</ele><time>2026-05-03T14:33:44Z</time></trkpt><trkpt lat="41.51607492859097" lon="-1.83938642370938"><ele>867.0</ele><time>2026-05-03T14:33:45Z</time></trkpt><trkpt lat="41.51600970686723" lon="-1.8392584674835422"><ele>867.0</ele><time>2026-05-03T14:33:46Z</time></trkpt><trkpt lat="41.51594451675605" lon="-1.8391301607438562"><ele>867.0</ele><time>2026-05-03T14:33:47Z</time></trkpt><trkpt lat="41.51588059587406" lon="-1.8390014027043267"><ele>867.0</ele><time>2026-05-03T14:33:48Z</time></trkpt><trkpt lat="41.51581703257528" lon="-1.838877920134068"><ele>867.0</ele><time>2026-05-03T14:33:49Z</time></trkpt><trkpt lat="41.51575401308534" lon="-1.8387501887451192"><ele>867.0</ele><time>2026-05-03T14:33:50Z</time></trkpt><trkpt lat="41.515690522065356" lon="-1.838620989496689"><ele>867.0</ele><time>2026-05-03T14:33:51Z</time></trkpt><trkpt lat="41.5156270753859" lon="-1.8384912030814378"><ele>867.0</ele><time>2026-05-03T14:33:52Z</time></trkpt><trkpt lat="41.51556293039914" lon="-1.8383575282619917"><ele>867.0</ele><time>2026-05-03T14:33:53Z</time></trkpt><trkpt lat="41.51549837565921" lon="-1.8382255440934003"><ele>868.5</ele><time>2026-05-03T14:33:54Z</time></trkpt><trkpt lat="41.5154341963631" lon="-1.83809238999351"><ele>870.0</ele><time>2026-05-03T14:33:55Z</time></trkpt><trkpt lat="41.515373441282684" lon="-1.8379611970858325"><ele>871.5</ele><time>2026-05-03T14:33:56Z</time></trkpt><trkpt lat="41.51531333881773" lon="-1.837822288646418"><ele>873.0</ele><time>2026-05-03T14:33:57Z</time></trkpt><trkpt lat="41.51525364103431" lon="-1.8376860751911244"><ele>870.5</ele><time>2026-05-03T14:33:58Z</time></trkpt><trkpt lat="41.515195441829796" lon="-1.8375495274215716"><ele>868.0</ele><time>2026-05-03T14:33:59Z</time></trkpt><trkpt lat="41.5151418871645" lon="-1.8374118020463917"><ele>865.5</ele><time>2026-05-03T14:34:00Z</time></trkpt><trkpt lat="41.5150896134287" lon="-1.8372730033739013"><ele>863.0</ele><time>2026-05-03T14:34:01Z</time></trkpt><trkpt lat="41.515038669005705" lon="-1.837135293344301"><ele>863.0</ele><time>2026-05-03T14:34:02Z</time></trkpt><trkpt lat="41.514990612558" lon="-1.836998157102726"><ele>863.0</ele><time>2026-05-03T14:34:03Z</time></trkpt><trkpt lat="41.51494181522239" lon="-1.836857727801154"><ele>863.0</ele><time>2026-05-03T14:34:04Z</time></trkpt><trkpt lat="41.514893228810855" lon="-1.8367152343365876"><ele>863.0</ele><time>2026-05-03T14:34:05Z</time></trkpt><trkpt lat="41.51484380803479" lon="-1.836573142858214"><ele>863.25</ele><time>2026-05-03T14:34:06Z</time></trkpt><trkpt lat="41.51479631495478" lon="-1.8364301668445848"><ele>863.5</ele><time>2026-05-03T14:34:07Z</time></trkpt><trkpt lat="41.51474773126436" lon="-1.8362870193257936"><ele>863.75</ele><time>2026-05-03T14:34:08Z</time></trkpt><trkpt lat="41.51470068358229" lon="-1.8361448971138183"><ele>864.0</ele><time>2026-05-03T14:34:09Z</time></trkpt><trkpt lat="41.514656486288104" lon="-1.8360029450058573"><ele>865.0</ele><time>2026-05-03T14:34:10Z</time></trkpt><trkpt lat="41.514615505630985" lon="-1.835861836285762"><ele>866.0</ele><time>2026-05-03T14:34:11Z</time></trkpt><trkpt lat="41.514571947349474" lon="-1.835720254988491"><ele>867.0</ele><time>2026-05-03T14:34:12Z</time></trkpt><trkpt lat="41.51452985583458" lon="-1.8355772409275377"><ele>868.0</ele><time>2026-05-03T14:34:13Z</time></trkpt><trkpt lat="41.51448638714018" lon="-1.835436106230515"><ele>865.75</ele><time>2026-05-03T14:34:14Z</time></trkpt><trkpt lat="41.514441077232426" lon="-1.835297234647539"><ele>863.5</ele><time>2026-05-03T14:34:15Z</time></trkpt><trkpt lat="41.51439418128436" lon="-1.8351598139067125"><ele>861.25</ele><time>2026-05-03T14:34:16Z</time></trkpt><trkpt lat="41.5143455563723" lon="-1.8350230805994272"><ele>859.0</ele><time>2026-05-03T14:34:17Z</time></trkpt><trkpt lat="41.514293631507485" lon="-1.834891937924616"><ele>859.0</ele><time>2026-05-03T14:34:18Z</time></trkpt><trkpt lat="41.514243008936916" lon="-1.8347617195766501"><ele>859.0</ele><time>2026-05-03T14:34:19Z</time></trkpt><trkpt lat="41.51419075028136" lon="-1.8346254133454458"><ele>859.0</ele><time>2026-05-03T14:34:20Z</time></trkpt><trkpt lat="41.51413831576633" lon="-1.8344890805408804"><ele>859.0</ele><time>2026-05-03T14:34:21Z</time></trkpt><trkpt lat="41.51408506902104" lon="-1.8343503434132897"><ele>859.75</ele><time>2026-05-03T14:34:22Z</time></trkpt><trkpt lat="41.51402881187846" lon="-1.834213668335115"><ele>860.5</ele><time>2026-05-03T14:34:23Z</time></trkpt><trkpt lat="41.51397680855234" lon="-1.8340765316830623"><ele>861.25</ele><time>2026-05-03T14:34:24Z</time></trkpt><trkpt lat="41.51392443604415" lon="-1.8339413585856241"><ele>862.0</ele><time>2026-05-03T14:34:25Z</time></trkpt><trkpt lat="41.51387145110363" lon="-1.833806007493823"><ele>862.0</ele><time>2026-05-03T14:34:26Z</time></trkpt><trkpt lat="41.513817426304826" lon="-1.8336693017994052"><ele>862.0</ele><time>2026-05-03T14:34:27Z</time></trkpt><trkpt lat="41.51377038500594" lon="-1.8335437001360317"><ele>862.0</ele><time>2026-05-03T14:34:28Z</time></trkpt><trkpt lat="41.5137289609728" lon="-1.8334563904245273"><ele>862.0</ele><time>2026-05-03T14:34:29Z</time></trkpt><trkpt lat="41.51367444456347" lon="-1.8332939979782463"><ele>862.0</ele><time>2026-05-03T14:34:30Z</time></trkpt><trkpt lat="41.51363684359094" lon="-1.8331810187860595"><ele>860.9999999999999</ele><time>2026-05-03T14:34:31Z</time></trkpt><trkpt lat="41.51359693772034" lon="-1.8330719036086722"><ele>860.0</ele><time>2026-05-03T14:34:32Z</time></trkpt><trkpt lat="41.51355886646372" lon="-1.8329679432168904"><ele>859.0</ele><time>2026-05-03T14:34:33Z</time></trkpt><trkpt lat="41.513505263798066" lon="-1.8328776878455293"><ele>858.0</ele><time>2026-05-03T14:34:34Z</time></trkpt><trkpt lat="41.51348126983169" lon="-1.8327709512889032"><ele>856.9999999999999</ele><time>2026-05-03T14:34:35Z</time></trkpt><trkpt lat="41.51343764653995" lon="-1.8326751889030737"><ele>856.0</ele><time>2026-05-03T14:34:36Z</time></trkpt><trkpt lat="41.513388637045395" lon="-1.8325686693842973"><ele>856.0</ele><time>2026-05-03T14:34:37.001Z</time></trkpt><trkpt lat="41.51334155397786" lon="-1.832442388579895"><ele>855.9999999999999</ele><time>2026-05-03T14:34:38.001Z</time></trkpt><trkpt lat="41.51329690436239" lon="-1.8323195563123078"><ele>855.9999999999999</ele><time>2026-05-03T14:34:39.001Z</time></trkpt><trkpt lat="41.5132481090008" lon="-1.8321876563484973"><ele>856.0</ele><time>2026-05-03T14:34:40.001Z</time></trkpt><trkpt lat="41.51319608165173" lon="-1.8320613474433034"><ele>856.0</ele><time>2026-05-03T14:34:41.001Z</time></trkpt><trkpt lat="41.51314942859629" lon="-1.8319571453895396"><ele>856.0</ele><time>2026-05-03T14:34:42.001Z</time></trkpt><trkpt lat="41.51311711650014" lon="-1.8318735543027282"><ele>856.0</ele><time>2026-05-03T14:34:43.001Z</time></trkpt><trkpt lat="41.51298764252752" lon="-1.8315202251302265"><ele>856.0</ele><time>2026-05-03T14:34:45.001Z</time></trkpt><trkpt lat="41.51293530618372" lon="-1.831379663542074"><ele>855.25</ele><time>2026-05-03T14:34:46.001Z</time></trkpt><trkpt lat="41.51288584331019" lon="-1.831241744616994"><ele>854.5</ele><time>2026-05-03T14:34:47.001Z</time></trkpt><trkpt lat="41.51283803527838" lon="-1.831101485810738"><ele>853.75</ele><time>2026-05-03T14:34:48.001Z</time></trkpt><trkpt lat="41.5127920913358" lon="-1.8309607793597593"><ele>853.0</ele><time>2026-05-03T14:34:49.001Z</time></trkpt><trkpt lat="41.51276208675596" lon="-1.8308085185111604"><ele>852.5</ele><time>2026-05-03T14:34:50.001Z</time></trkpt><trkpt lat="41.51273660111992" lon="-1.8306617359535904"><ele>852.0</ele><time>2026-05-03T14:34:51.001Z</time></trkpt><trkpt lat="41.512711442430984" lon="-1.8305125707961232"><ele>851.5</ele><time>2026-05-03T14:34:52.001Z</time></trkpt><trkpt lat="41.51268746901257" lon="-1.8303602701954236"><ele>851.0</ele><time>2026-05-03T14:34:53.001Z</time></trkpt><trkpt lat="41.51266733317466" lon="-1.8302072815706873"><ele>851.0</ele><time>2026-05-03T14:34:54.001Z</time></trkpt><trkpt lat="41.512645582060735" lon="-1.830054044724286"><ele>851.0</ele><time>2026-05-03T14:34:55.001Z</time></trkpt><trkpt lat="41.51262505970711" lon="-1.8299007367458862"><ele>851.0</ele><time>2026-05-03T14:34:56.001Z</time></trkpt><trkpt lat="41.51260638000477" lon="-1.829745297401593"><ele>851.0</ele><time>2026-05-03T14:34:57.001Z</time></trkpt><trkpt lat="41.51258816281117" lon="-1.829592656929563"><ele>851.0</ele><time>2026-05-03T14:34:58.001Z</time></trkpt><trkpt lat="41.51256897869361" lon="-1.829438749656188"><ele>851.0</ele><time>2026-05-03T14:34:59.001Z</time></trkpt><trkpt lat="41.512551485981525" lon="-1.8292883490880916"><ele>851.0</ele><time>2026-05-03T14:35:00.001Z</time></trkpt><trkpt lat="41.512530497198775" lon="-1.829137733468148"><ele>851.0</ele><time>2026-05-03T14:35:01.001Z</time></trkpt><trkpt lat="41.512511103901765" lon="-1.8289821989557105"><ele>851.25</ele><time>2026-05-03T14:35:02.001Z</time></trkpt><trkpt lat="41.51249143667576" lon="-1.828826262613773"><ele>851.5</ele><time>2026-05-03T14:35:03.001Z</time></trkpt><trkpt lat="41.512473126997456" lon="-1.8286724898861506"><ele>851.75</ele><time>2026-05-03T14:35:04.001Z</time></trkpt><trkpt lat="41.51245477652374" lon="-1.8285222368743672"><ele>852.0</ele><time>2026-05-03T14:35:05.001Z</time></trkpt><trkpt lat="41.512434919058606" lon="-1.8283685950803448"><ele>852.5</ele><time>2026-05-03T14:35:06.001Z</time></trkpt><trkpt lat="41.51241591474324" lon="-1.8282146223219362"><ele>853.0</ele><time>2026-05-03T14:35:07.001Z</time></trkpt><trkpt lat="41.512395608170614" lon="-1.828057733453245"><ele>853.5</ele><time>2026-05-03T14:35:08.001Z</time></trkpt><trkpt lat="41.5123806509278" lon="-1.827892675307035"><ele>854.0</ele><time>2026-05-03T14:35:09.001Z</time></trkpt><trkpt lat="41.51235698769186" lon="-1.827745524855365"><ele>855.0</ele><time>2026-05-03T14:35:10.001Z</time></trkpt><trkpt lat="41.51233665154083" lon="-1.8275898827832244"><ele>856.0</ele><time>2026-05-03T14:35:11.001Z</time></trkpt><trkpt lat="41.512317833388565" lon="-1.8274369546636784"><ele>857.0</ele><time>2026-05-03T14:35:12.001Z</time></trkpt><trkpt lat="41.51229748159518" lon="-1.827283686113707"><ele>858.0</ele><time>2026-05-03T14:35:13.001Z</time></trkpt><trkpt lat="41.51228015328917" lon="-1.8271312282305645"><ele>858.0</ele><time>2026-05-03T14:35:14.001Z</time></trkpt><trkpt lat="41.51226156651025" lon="-1.826976225145119"><ele>858.0</ele><time>2026-05-03T14:35:15.001Z</time></trkpt><trkpt lat="41.512241761025905" lon="-1.8268246955069318"><ele>858.0</ele><time>2026-05-03T14:35:16.001Z</time></trkpt><trkpt lat="41.51222355330137" lon="-1.8266740504228494"><ele>858.0</ele><time>2026-05-03T14:35:17.001Z</time></trkpt><trkpt lat="41.512204227725654" lon="-1.826523001599678"><ele>857.5</ele><time>2026-05-03T14:35:18.001Z</time></trkpt><trkpt lat="41.512184335248996" lon="-1.826368375276056"><ele>857.0</ele><time>2026-05-03T14:35:19.001Z</time></trkpt><trkpt lat="41.51216604543676" lon="-1.8262238729399298"><ele>856.5</ele><time>2026-05-03T14:35:20.001Z</time></trkpt><trkpt lat="41.512147266715026" lon="-1.826071847722707"><ele>856.0</ele><time>2026-05-03T14:35:21.001Z</time></trkpt><trkpt lat="41.51212832276981" lon="-1.8259223071186825"><ele>855.75</ele><time>2026-05-03T14:35:22.001Z</time></trkpt><trkpt lat="41.51211151189577" lon="-1.8257679770657114"><ele>855.5</ele><time>2026-05-03T14:35:23.001Z</time></trkpt><trkpt lat="41.51209430412731" lon="-1.8256188763604069"><ele>855.25</ele><time>2026-05-03T14:35:24.001Z</time></trkpt><trkpt lat="41.51207530749296" lon="-1.8254649524028883"><ele>855.0</ele><time>2026-05-03T14:35:25.001Z</time></trkpt><trkpt lat="41.51206176396389" lon="-1.8253126120782037"><ele>852.75</ele><time>2026-05-03T14:35:26.001Z</time></trkpt><trkpt lat="41.5120414516908" lon="-1.825162131830054"><ele>850.5</ele><time>2026-05-03T14:35:27.001Z</time></trkpt><trkpt lat="41.51202111661091" lon="-1.8250144144748792"><ele>848.25</ele><time>2026-05-03T14:35:28.001Z</time></trkpt><trkpt lat="41.51200399647237" lon="-1.8248662877699444"><ele>846.0</ele><time>2026-05-03T14:35:29.001Z</time></trkpt><trkpt lat="41.51198472756747" lon="-1.8247163423783843"><ele>845.5</ele><time>2026-05-03T14:35:30Z</time></trkpt><trkpt lat="41.511965557863284" lon="-1.8245683645806396"><ele>845.0</ele><time>2026-05-03T14:35:31Z</time></trkpt><trkpt lat="41.511945394385464" lon="-1.824419219255735"><ele>844.5</ele><time>2026-05-03T14:35:32Z</time></trkpt><trkpt lat="41.51192648529725" lon="-1.8242690576079168"><ele>844.0</ele><time>2026-05-03T14:35:33Z</time></trkpt><trkpt lat="41.511907069342186" lon="-1.8241147700168774"><ele>843.25</ele><time>2026-05-03T14:35:34Z</time></trkpt><trkpt lat="41.51188810423448" lon="-1.823966233731653"><ele>842.5</ele><time>2026-05-03T14:35:35Z</time></trkpt><trkpt lat="41.511867141364235" lon="-1.823814161501941"><ele>841.75</ele><time>2026-05-03T14:35:36Z</time></trkpt><trkpt lat="41.511846545694944" lon="-1.8236641401141416"><ele>841.0</ele><time>2026-05-03T14:35:37Z</time></trkpt><trkpt lat="41.511820662923846" lon="-1.8235153133379984"><ele>840.5</ele><time>2026-05-03T14:35:38Z</time></trkpt><trkpt lat="41.51179480310493" lon="-1.8233672432689703"><ele>840.0</ele><time>2026-05-03T14:35:39Z</time></trkpt><trkpt lat="41.511760522890235" lon="-1.8232197054578043"><ele>839.5</ele><time>2026-05-03T14:35:40Z</time></trkpt><trkpt lat="41.51172436538429" lon="-1.8230726990497146"><ele>839.0</ele><time>2026-05-03T14:35:41Z</time></trkpt><trkpt lat="41.51168435688596" lon="-1.8229294697583676"><ele>839.0</ele><time>2026-05-03T14:35:42Z</time></trkpt><trkpt lat="41.51164143583157" lon="-1.8227870140357796"><ele>839.0</ele><time>2026-05-03T14:35:43Z</time></trkpt><trkpt lat="41.511595694991776" lon="-1.8226458099367262"><ele>839.0</ele><time>2026-05-03T14:35:44Z</time></trkpt><trkpt lat="41.511550916410826" lon="-1.8225065631859643"><ele>839.0</ele><time>2026-05-03T14:35:45Z</time></trkpt><trkpt lat="41.511503673375124" lon="-1.8223663049566468"><ele>838.5</ele><time>2026-05-03T14:35:46Z</time></trkpt><trkpt lat="41.51145529032154" lon="-1.8222248510280237"><ele>838.0</ele><time>2026-05-03T14:35:47Z</time></trkpt><trkpt lat="41.51140834925588" lon="-1.8220855794925765"><ele>837.5</ele><time>2026-05-03T14:35:48Z</time></trkpt><trkpt lat="41.51136026124895" lon="-1.8219463359479942"><ele>837.0</ele><time>2026-05-03T14:35:49Z</time></trkpt><trkpt lat="41.511313074534115" lon="-1.8218075896969053"><ele>836.75</ele><time>2026-05-03T14:35:50Z</time></trkpt><trkpt lat="41.51126553388749" lon="-1.8216685039307323"><ele>836.5</ele><time>2026-05-03T14:35:51Z</time></trkpt><trkpt lat="41.51122019643339" lon="-1.8215306929926611"><ele>836.25</ele><time>2026-05-03T14:35:52Z</time></trkpt><trkpt lat="41.511172706906606" lon="-1.8213897536857393"><ele>836.0</ele><time>2026-05-03T14:35:53Z</time></trkpt><trkpt lat="41.511129720916" lon="-1.8212521022990114"><ele>836.0</ele><time>2026-05-03T14:35:54Z</time></trkpt><trkpt lat="41.5110678412999" lon="-1.8211220925878362"><ele>836.0</ele><time>2026-05-03T14:35:55Z</time></trkpt><trkpt lat="41.51102097134428" lon="-1.8209845982911852"><ele>836.0</ele><time>2026-05-03T14:35:56Z</time></trkpt><trkpt lat="41.51097453681758" lon="-1.8208483813389311"><ele>836.0</ele><time>2026-05-03T14:35:57Z</time></trkpt><trkpt lat="41.51092637515071" lon="-1.820707097776119"><ele>835.5</ele><time>2026-05-03T14:35:58Z</time></trkpt><trkpt lat="41.510892168492084" lon="-1.8205613375017697"><ele>835.0</ele><time>2026-05-03T14:35:59Z</time></trkpt><trkpt lat="41.51083898752684" lon="-1.8204277685519652"><ele>834.5</ele><time>2026-05-03T14:36:00Z</time></trkpt><trkpt lat="41.5107896350298" lon="-1.8202904619830216"><ele>834.0</ele><time>2026-05-03T14:36:01Z</time></trkpt><trkpt lat="41.510744831917364" lon="-1.820151829143494"><ele>833.75</ele><time>2026-05-03T14:36:02Z</time></trkpt><trkpt lat="41.51070031907354" lon="-1.820014070077354"><ele>833.5</ele><time>2026-05-03T14:36:03Z</time></trkpt><trkpt lat="41.510654586204396" lon="-1.8198754199172085"><ele>833.25</ele><time>2026-05-03T14:36:04Z</time></trkpt><trkpt lat="41.51060857289789" lon="-1.819737640214918"><ele>833.0</ele><time>2026-05-03T14:36:05Z</time></trkpt><trkpt lat="41.5105633197142" lon="-1.8195986849530648"><ele>833.0</ele><time>2026-05-03T14:36:06Z</time></trkpt><trkpt lat="41.51052143711746" lon="-1.819461675508428"><ele>833.0</ele><time>2026-05-03T14:36:07Z</time></trkpt><trkpt lat="41.51047596017944" lon="-1.81932438322209"><ele>833.0</ele><time>2026-05-03T14:36:08Z</time></trkpt><trkpt lat="41.51043839341755" lon="-1.8191894712755863"><ele>833.0</ele><time>2026-05-03T14:36:09Z</time></trkpt><trkpt lat="41.51039671710864" lon="-1.8190481136074104"><ele>833.0</ele><time>2026-05-03T14:36:10Z</time></trkpt><trkpt lat="41.51036610695435" lon="-1.818904017177071"><ele>832.4</ele><time>2026-05-03T14:36:11Z</time></trkpt><trkpt lat="41.51033835475521" lon="-1.8187617494294055"><ele>831.8</ele><time>2026-05-03T14:36:12Z</time></trkpt><trkpt lat="41.51031499153262" lon="-1.818614726391757"><ele>831.2</ele><time>2026-05-03T14:36:13Z</time></trkpt><trkpt lat="41.510295796301975" lon="-1.8184654447793667"><ele>830.6</ele><time>2026-05-03T14:36:14Z</time></trkpt><trkpt lat="41.510285672258114" lon="-1.8183207479566914"><ele>830.0</ele><time>2026-05-03T14:36:15Z</time></trkpt><trkpt lat="41.510282818756814" lon="-1.818170603901238"><ele>829.75</ele><time>2026-05-03T14:36:16Z</time></trkpt><trkpt lat="41.51028013587294" lon="-1.8180189927921726"><ele>829.5</ele><time>2026-05-03T14:36:17Z</time></trkpt><trkpt lat="41.51027763526285" lon="-1.8178673572163278"><ele>829.25</ele><time>2026-05-03T14:36:18Z</time></trkpt><trkpt lat="41.510273171041334" lon="-1.8177193122170026"><ele>829.0</ele><time>2026-05-03T14:36:19Z</time></trkpt><trkpt lat="41.51026436127544" lon="-1.8175689448183145"><ele>829.0</ele><time>2026-05-03T14:36:20Z</time></trkpt><trkpt lat="41.51023505353376" lon="-1.8174239723003125"><ele>829.0</ele><time>2026-05-03T14:36:21Z</time></trkpt><trkpt lat="41.51021437883095" lon="-1.817277638527723"><ele>829.0</ele><time>2026-05-03T14:36:22Z</time></trkpt><trkpt lat="41.510187912247034" lon="-1.8171307946048811"><ele>829.0</ele><time>2026-05-03T14:36:23Z</time></trkpt><trkpt lat="41.51017176359227" lon="-1.8169808481671967"><ele>829.0</ele><time>2026-05-03T14:36:24Z</time></trkpt><trkpt lat="41.510132674880126" lon="-1.81683447115084"><ele>829.0</ele><time>2026-05-03T14:36:25Z</time></trkpt><trkpt lat="41.51007327819426" lon="-1.8167067237000385"><ele>829.0</ele><time>2026-05-03T14:36:26Z</time></trkpt><trkpt lat="41.51002596933132" lon="-1.8165702849771272"><ele>829.0</ele><time>2026-05-03T14:36:27Z</time></trkpt><trkpt lat="41.509985917958886" lon="-1.8164287483082724"><ele>829.5</ele><time>2026-05-03T14:36:28Z</time></trkpt><trkpt lat="41.509928595647786" lon="-1.8162967134778356"><ele>830.0</ele><time>2026-05-03T14:36:29Z</time></trkpt><trkpt lat="41.509864399625066" lon="-1.8161733184650293"><ele>830.5</ele><time>2026-05-03T14:36:30Z</time></trkpt><trkpt lat="41.50979165968429" lon="-1.816063016838827"><ele>831.0</ele><time>2026-05-03T14:36:31Z</time></trkpt><trkpt lat="41.509720911840105" lon="-1.8159403810201147"><ele>831.5</ele><time>2026-05-03T14:36:32Z</time></trkpt><trkpt lat="41.50964342008589" lon="-1.815830695352773"><ele>832.0</ele><time>2026-05-03T14:36:33Z</time></trkpt><trkpt lat="41.50956310362381" lon="-1.8157245026496391"><ele>832.5</ele><time>2026-05-03T14:36:34.001Z</time></trkpt><trkpt lat="41.50947924164299" lon="-1.8156206460487088"><ele>833.0</ele><time>2026-05-03T14:36:35.001Z</time></trkpt><trkpt lat="41.50939371603823" lon="-1.8155198377535933"><ele>833.25</ele><time>2026-05-03T14:36:36.001Z</time></trkpt><trkpt lat="41.509306705987626" lon="-1.8154216907366505"><ele>833.5</ele><time>2026-05-03T14:36:37.001Z</time></trkpt><trkpt lat="41.50921890122869" lon="-1.8153260143444416"><ele>833.75</ele><time>2026-05-03T14:36:38.001Z</time></trkpt><trkpt lat="41.50913037342218" lon="-1.8152252341915087"><ele>834.0</ele><time>2026-05-03T14:36:39.001Z</time></trkpt><trkpt lat="41.50904286793015" lon="-1.8151237818910921"><ele>834.0</ele><time>2026-05-03T14:36:40.001Z</time></trkpt><trkpt lat="41.508957456488204" lon="-1.8150253292167207"><ele>834.0</ele><time>2026-05-03T14:36:41.001Z</time></trkpt><trkpt lat="41.508868409669546" lon="-1.8149307714068128"><ele>834.0</ele><time>2026-05-03T14:36:42.001Z</time></trkpt><trkpt lat="41.50878001649407" lon="-1.8148292142882994"><ele>834.0</ele><time>2026-05-03T14:36:43.001Z</time></trkpt><trkpt lat="41.50869159055101" lon="-1.8147276219294202"><ele>832.0</ele><time>2026-05-03T14:36:44.001Z</time></trkpt><trkpt lat="41.50860297844629" lon="-1.814629431744132"><ele>830.0</ele><time>2026-05-03T14:36:45.001Z</time></trkpt><trkpt lat="41.50851432980893" lon="-1.814526124319759"><ele>828.0</ele><time>2026-05-03T14:36:46.001Z</time></trkpt><trkpt lat="41.508424409542556" lon="-1.8144252006545676"><ele>826.0</ele><time>2026-05-03T14:36:47.001Z</time></trkpt><trkpt lat="41.508336049542415" lon="-1.8143216618212077"><ele>827.25</ele><time>2026-05-03T14:36:48.001Z</time></trkpt><trkpt lat="41.50824486477693" lon="-1.8142224986731097"><ele>828.5</ele><time>2026-05-03T14:36:49.001Z</time></trkpt><trkpt lat="41.50815642865801" lon="-1.814118722629085"><ele>829.75</ele><time>2026-05-03T14:36:50.001Z</time></trkpt><trkpt lat="41.50806861928598" lon="-1.814025034069342"><ele>831.0</ele><time>2026-05-03T14:36:51.001Z</time></trkpt><trkpt lat="41.50797997015572" lon="-1.8139204805790508"><ele>829.25</ele><time>2026-05-03T14:36:52.001Z</time></trkpt><trkpt lat="41.507891922874514" lon="-1.813821234947862"><ele>827.5</ele><time>2026-05-03T14:36:53.001Z</time></trkpt><trkpt lat="41.50780371312104" lon="-1.8137230826242523"><ele>825.75</ele><time>2026-05-03T14:36:54.001Z</time></trkpt><trkpt lat="41.5077156504096" lon="-1.8136222821108776"><ele>824.0</ele><time>2026-05-03T14:36:55.001Z</time></trkpt><trkpt lat="41.50762716125265" lon="-1.8135239438205593"><ele>824.5</ele><time>2026-05-03T14:36:56.001Z</time></trkpt><trkpt lat="41.50753936202057" lon="-1.8134231140812613"><ele>825.0</ele><time>2026-05-03T14:36:57.001Z</time></trkpt><trkpt lat="41.50745107913665" lon="-1.8133194252465565"><ele>825.5</ele><time>2026-05-03T14:36:58.001Z</time></trkpt><trkpt lat="41.50736491807946" lon="-1.8132178990474845"><ele>826.0</ele><time>2026-05-03T14:36:59.001Z</time></trkpt><trkpt lat="41.50727316962626" lon="-1.8131235228582936"><ele>826.0</ele><time>2026-05-03T14:37:00.001Z</time></trkpt><trkpt lat="41.507188331789486" lon="-1.8130247445344156"><ele>826.0</ele><time>2026-05-03T14:37:01.001Z</time></trkpt><trkpt lat="41.50710155386191" lon="-1.8129261821464995"><ele>826.0</ele><time>2026-05-03T14:37:02.001Z</time></trkpt><trkpt lat="41.50701540151534" lon="-1.8128255835067173"><ele>826.0</ele><time>2026-05-03T14:37:03.001Z</time></trkpt><trkpt lat="41.506927059687335" lon="-1.8127245118372377"><ele>825.0</ele><time>2026-05-03T14:37:04.001Z</time></trkpt><trkpt lat="41.506839735829466" lon="-1.8126316693173585"><ele>824.0</ele><time>2026-05-03T14:37:05.001Z</time></trkpt><trkpt lat="41.50675230832114" lon="-1.8125365661911177"><ele>823.0</ele><time>2026-05-03T14:37:06.001Z</time></trkpt><trkpt lat="41.50666254530451" lon="-1.8124408552645916"><ele>822.0</ele><time>2026-05-03T14:37:07.001Z</time></trkpt><trkpt lat="41.50656956528342" lon="-1.8123453410841046"><ele>822.0</ele><time>2026-05-03T14:37:08.001Z</time></trkpt><trkpt lat="41.506478225655464" lon="-1.8122478976437886"><ele>822.0</ele><time>2026-05-03T14:37:09.001Z</time></trkpt><trkpt lat="41.50638568274164" lon="-1.812150537603769"><ele>822.0</ele><time>2026-05-03T14:37:10.001Z</time></trkpt><trkpt lat="41.506292955764145" lon="-1.812055342911072"><ele>822.0</ele><time>2026-05-03T14:37:11.001Z</time></trkpt><trkpt lat="41.506199834991406" lon="-1.811966340355703"><ele>821.5</ele><time>2026-05-03T14:37:12.001Z</time></trkpt><trkpt lat="41.506106686647655" lon="-1.8118669722818272"><ele>821.0</ele><time>2026-05-03T14:37:13.001Z</time></trkpt><trkpt lat="41.50601332417681" lon="-1.8117778413831755"><ele>820.5</ele><time>2026-05-03T14:37:14.001Z</time></trkpt><trkpt lat="41.50591827494992" lon="-1.8116842095579164"><ele>820.0</ele><time>2026-05-03T14:37:15.001Z</time></trkpt><trkpt lat="41.505821874808646" lon="-1.8115967578172973"><ele>820.0</ele><time>2026-05-03T14:37:16.001Z</time></trkpt><trkpt lat="41.505728439345965" lon="-1.8115087745291847"><ele>820.0</ele><time>2026-05-03T14:37:17.001Z</time></trkpt><trkpt lat="41.50563501994804" lon="-1.8114245867163652"><ele>820.0</ele><time>2026-05-03T14:37:18.001Z</time></trkpt><trkpt lat="41.50554010351494" lon="-1.8113359801805575"><ele>820.0</ele><time>2026-05-03T14:37:19.001Z</time></trkpt><trkpt lat="41.505444274404255" lon="-1.811249866303788"><ele>820.25</ele><time>2026-05-03T14:37:20.001Z</time></trkpt><trkpt lat="41.50534888301936" lon="-1.8111660528186007"><ele>820.5</ele><time>2026-05-03T14:37:21.001Z</time></trkpt><trkpt lat="41.50525472679969" lon="-1.8110798660050766"><ele>820.75</ele><time>2026-05-03T14:37:22.001Z</time></trkpt><trkpt lat="41.50516117069429" lon="-1.8109929819413104"><ele>821.0</ele><time>2026-05-03T14:37:23.001Z</time></trkpt><trkpt lat="41.50506713143111" lon="-1.8109116730098576"><ele>821.0</ele><time>2026-05-03T14:37:24.001Z</time></trkpt><trkpt lat="41.50497398236907" lon="-1.8108279165563042"><ele>821.0</ele><time>2026-05-03T14:37:25.001Z</time></trkpt><trkpt lat="41.50487925749001" lon="-1.8107422522000962"><ele>821.0</ele><time>2026-05-03T14:37:26.001Z</time></trkpt><trkpt lat="41.504784346575924" lon="-1.8106554381700282"><ele>821.0</ele><time>2026-05-03T14:37:27.001Z</time></trkpt><trkpt lat="41.50468878119172" lon="-1.8105705204521396"><ele>821.0</ele><time>2026-05-03T14:37:28.001Z</time></trkpt><trkpt lat="41.504591802498226" lon="-1.8104869244600195"><ele>821.0</ele><time>2026-05-03T14:37:29.001Z</time></trkpt><trkpt lat="41.50450350426794" lon="-1.8104100660348248"><ele>821.0</ele><time>2026-05-03T14:37:30.001Z</time></trkpt><trkpt lat="41.504413426881236" lon="-1.810325992995313"><ele>821.0</ele><time>2026-05-03T14:37:31.001Z</time></trkpt><trkpt lat="41.504318420894755" lon="-1.8102416836228266"><ele>821.0</ele><time>2026-05-03T14:37:32.001Z</time></trkpt><trkpt lat="41.50422387429844" lon="-1.8101567849216935"><ele>820.5</ele><time>2026-05-03T14:37:33.001Z</time></trkpt><trkpt lat="41.5041262924073" lon="-1.8100732221104023"><ele>820.0</ele><time>2026-05-03T14:37:34.001Z</time></trkpt><trkpt lat="41.50402951439173" lon="-1.8099870244401814"><ele>819.5</ele><time>2026-05-03T14:37:35.001Z</time></trkpt><trkpt lat="41.50393423251178" lon="-1.8099010109722562"><ele>819.0</ele><time>2026-05-03T14:37:36Z</time></trkpt><trkpt lat="41.50383761753008" lon="-1.8098128924754728"><ele>817.75</ele><time>2026-05-03T14:37:37Z</time></trkpt><trkpt lat="41.50374138890645" lon="-1.8097261704301486"><ele>816.5</ele><time>2026-05-03T14:37:38Z</time></trkpt><trkpt lat="41.5036437696593" lon="-1.8096410747284415"><ele>815.25</ele><time>2026-05-03T14:37:39Z</time></trkpt><trkpt lat="41.50354617971942" lon="-1.809554757373836"><ele>814.0</ele><time>2026-05-03T14:37:40Z</time></trkpt><trkpt lat="41.50344856922435" lon="-1.8094667006504965"><ele>814.0</ele><time>2026-05-03T14:37:41Z</time></trkpt><trkpt lat="41.50335045093475" lon="-1.8093794530170142"><ele>814.0</ele><time>2026-05-03T14:37:42Z</time></trkpt><trkpt lat="41.50325470470016" lon="-1.8092949928680484"><ele>814.0</ele><time>2026-05-03T14:37:43Z</time></trkpt><trkpt lat="41.50315882103249" lon="-1.809223748752867"><ele>814.0</ele><time>2026-05-03T14:37:44Z</time></trkpt><trkpt lat="41.503058681980804" lon="-1.8091189887954102"><ele>813.5</ele><time>2026-05-03T14:37:45Z</time></trkpt><trkpt lat="41.502962025114336" lon="-1.8090317753954952"><ele>813.0</ele><time>2026-05-03T14:37:46Z</time></trkpt><trkpt lat="41.50286202926935" lon="-1.808945588369983"><ele>812.5</ele><time>2026-05-03T14:37:47Z</time></trkpt><trkpt lat="41.502758120771816" lon="-1.8088577285852063"><ele>812.0</ele><time>2026-05-03T14:37:48Z</time></trkpt><trkpt lat="41.502664641310865" lon="-1.8087752611242107"><ele>812.0</ele><time>2026-05-03T14:37:49Z</time></trkpt><trkpt lat="41.50256539061801" lon="-1.8086837903381556"><ele>812.0</ele><time>2026-05-03T14:37:50Z</time></trkpt><trkpt lat="41.502468915271514" lon="-1.8085958495988428"><ele>812.0</ele><time>2026-05-03T14:37:51Z</time></trkpt><trkpt lat="41.502371249167254" lon="-1.8085088282066601"><ele>812.0</ele><time>2026-05-03T14:37:52Z</time></trkpt><trkpt lat="41.50227372054112" lon="-1.80842284813181"><ele>811.25</ele><time>2026-05-03T14:37:53Z</time></trkpt><trkpt lat="41.50217649559042" lon="-1.8083345148178824"><ele>810.5</ele><time>2026-05-03T14:37:54Z</time></trkpt><trkpt lat="41.502080472372356" lon="-1.8082479996193495"><ele>809.75</ele><time>2026-05-03T14:37:55Z</time></trkpt><trkpt lat="41.50198331392007" lon="-1.8081624192994228"><ele>809.0</ele><time>2026-05-03T14:37:56Z</time></trkpt><trkpt lat="41.50188584500864" lon="-1.8080742648132555"><ele>809.0</ele><time>2026-05-03T14:37:57Z</time></trkpt><trkpt lat="41.50179058396095" lon="-1.8079882286583044"><ele>809.0</ele><time>2026-05-03T14:37:58Z</time></trkpt><trkpt lat="41.50169563769052" lon="-1.8078992694165763"><ele>809.0</ele><time>2026-05-03T14:37:59Z</time></trkpt><trkpt lat="41.50159971895708" lon="-1.8078144127764437"><ele>809.0</ele><time>2026-05-03T14:38:00Z</time></trkpt><trkpt lat="41.501502208304984" lon="-1.8077274082660084"><ele>808.75</ele><time>2026-05-03T14:38:01Z</time></trkpt><trkpt lat="41.501407342146855" lon="-1.8076413150752684"><ele>808.5</ele><time>2026-05-03T14:38:02Z</time></trkpt><trkpt lat="41.50131101176387" lon="-1.8075561389008208"><ele>808.25</ele><time>2026-05-03T14:38:03Z</time></trkpt><trkpt lat="41.501212239657086" lon="-1.8074698858718088"><ele>808.0</ele><time>2026-05-03T14:38:04Z</time></trkpt><trkpt lat="41.50111569311301" lon="-1.8073853880834512"><ele>808.0</ele><time>2026-05-03T14:38:05Z</time></trkpt><trkpt lat="41.5010200453014" lon="-1.8072993034994462"><ele>808.0</ele><time>2026-05-03T14:38:06Z</time></trkpt><trkpt lat="41.500925120734955" lon="-1.807216007921452"><ele>808.0</ele><time>2026-05-03T14:38:07Z</time></trkpt><trkpt lat="41.500827740818224" lon="-1.8071320794169672"><ele>808.0</ele><time>2026-05-03T14:38:08Z</time></trkpt><trkpt lat="41.50072993008002" lon="-1.8070488975681667"><ele>808.0</ele><time>2026-05-03T14:38:09Z</time></trkpt><trkpt lat="41.5006332725017" lon="-1.80696769390963"><ele>808.0</ele><time>2026-05-03T14:38:10Z</time></trkpt><trkpt lat="41.50053477349581" lon="-1.8068875981909542"><ele>808.0</ele><time>2026-05-03T14:38:11Z</time></trkpt><trkpt lat="41.50043197849084" lon="-1.8068122569545422"><ele>808.0</ele><time>2026-05-03T14:38:12Z</time></trkpt><trkpt lat="41.500333603308945" lon="-1.8067397040981164"><ele>808.0</ele><time>2026-05-03T14:38:13Z</time></trkpt><trkpt lat="41.50022951051525" lon="-1.8066678276576007"><ele>808.0</ele><time>2026-05-03T14:38:14Z</time></trkpt><trkpt lat="41.50012529383354" lon="-1.8065972184345096"><ele>808.0</ele><time>2026-05-03T14:38:15Z</time></trkpt><trkpt lat="41.50002470748661" lon="-1.8065289848654371"><ele>808.0</ele><time>2026-05-03T14:38:16Z</time></trkpt><trkpt lat="41.49991829341357" lon="-1.8064606329353528"><ele>808.0</ele><time>2026-05-03T14:38:17Z</time></trkpt><trkpt lat="41.49981331960759" lon="-1.8063990983606235"><ele>808.0</ele><time>2026-05-03T14:38:18Z</time></trkpt><trkpt lat="41.49970475959789" lon="-1.8063359332705926"><ele>808.0</ele><time>2026-05-03T14:38:19Z</time></trkpt><trkpt lat="41.49959735264383" lon="-1.8062758779824875"><ele>808.0</ele><time>2026-05-03T14:38:20Z</time></trkpt><trkpt lat="41.49948767152086" lon="-1.8062200288782064"><ele>806.75</ele><time>2026-05-03T14:38:21Z</time></trkpt><trkpt lat="41.499379598256944" lon="-1.8061609183304652"><ele>805.5</ele><time>2026-05-03T14:38:22Z</time></trkpt><trkpt lat="41.499271814323215" lon="-1.8061033302451488"><ele>804.25</ele><time>2026-05-03T14:38:23Z</time></trkpt><trkpt lat="41.499163327201" lon="-1.8060509009957308"><ele>803.0</ele><time>2026-05-03T14:38:24Z</time></trkpt><trkpt lat="41.49905307041673" lon="-1.805999368885339"><ele>803.5</ele><time>2026-05-03T14:38:25.001Z</time></trkpt><trkpt lat="41.49894456589935" lon="-1.805941256343179"><ele>804.0</ele><time>2026-05-03T14:38:26.001Z</time></trkpt><trkpt lat="41.498837888227044" lon="-1.8058861920833877"><ele>804.5</ele><time>2026-05-03T14:38:27.001Z</time></trkpt><trkpt lat="41.49873022399291" lon="-1.8058346469584892"><ele>805.0</ele><time>2026-05-03T14:38:28.001Z</time></trkpt><trkpt lat="41.49862162989543" lon="-1.8057774602149694"><ele>804.0</ele><time>2026-05-03T14:38:29.001Z</time></trkpt><trkpt lat="41.49851181305547" lon="-1.8057237003889581"><ele>803.0</ele><time>2026-05-03T14:38:30.001Z</time></trkpt><trkpt lat="41.49840398138572" lon="-1.8056667105763506"><ele>802.0</ele><time>2026-05-03T14:38:31.001Z</time></trkpt><trkpt lat="41.498295089183976" lon="-1.8056077458455315"><ele>801.0</ele><time>2026-05-03T14:38:32.001Z</time></trkpt><trkpt lat="41.498185785266855" lon="-1.8055525131385073"><ele>801.0</ele><time>2026-05-03T14:38:33.001Z</time></trkpt><trkpt lat="41.49807949353803" lon="-1.8054970952711031"><ele>801.0</ele><time>2026-05-03T14:38:34.001Z</time></trkpt><trkpt lat="41.497970125181546" lon="-1.8054445881591568"><ele>801.0</ele><time>2026-05-03T14:38:35.001Z</time></trkpt><trkpt lat="41.497859187358564" lon="-1.8053867623545228"><ele>801.0</ele><time>2026-05-03T14:38:36.001Z</time></trkpt><trkpt lat="41.49775124113959" lon="-1.8053297120241645"><ele>801.5</ele><time>2026-05-03T14:38:37.001Z</time></trkpt><trkpt lat="41.49764372099073" lon="-1.8052731711694012"><ele>802.0</ele><time>2026-05-03T14:38:38.001Z</time></trkpt><trkpt lat="41.49753509442053" lon="-1.8052162183820786"><ele>802.5</ele><time>2026-05-03T14:38:39.001Z</time></trkpt><trkpt lat="41.49742688031357" lon="-1.805160042280738"><ele>803.0</ele><time>2026-05-03T14:38:40.001Z</time></trkpt><trkpt lat="41.49731910826732" lon="-1.8051102640641274"><ele>803.0</ele><time>2026-05-03T14:38:41.001Z</time></trkpt><trkpt lat="41.497211303437474" lon="-1.8050574620071187"><ele>803.0</ele><time>2026-05-03T14:38:42.001Z</time></trkpt><trkpt lat="41.4971038356319" lon="-1.804998388675979"><ele>803.0</ele><time>2026-05-03T14:38:43.001Z</time></trkpt><trkpt lat="41.49699757635675" lon="-1.8049407252968923"><ele>803.0</ele><time>2026-05-03T14:38:44.001Z</time></trkpt><trkpt lat="41.49689102053909" lon="-1.8048865616457397"><ele>801.75</ele><time>2026-05-03T14:38:45.001Z</time></trkpt><trkpt lat="41.49678468082082" lon="-1.8048300040256007"><ele>800.5</ele><time>2026-05-03T14:38:46.001Z</time></trkpt><trkpt lat="41.496677735371804" lon="-1.8047751166618087"><ele>799.25</ele><time>2026-05-03T14:38:47.001Z</time></trkpt><trkpt lat="41.49657011470306" lon="-1.8047201766378778"><ele>798.0</ele><time>2026-05-03T14:38:48.001Z</time></trkpt><trkpt lat="41.49646342729127" lon="-1.804666961107054"><ele>798.0</ele><time>2026-05-03T14:38:49.001Z</time></trkpt><trkpt lat="41.496360488151026" lon="-1.8046161367000901"><ele>798.0</ele><time>2026-05-03T14:38:50.001Z</time></trkpt><trkpt lat="41.4962572225883" lon="-1.8045620912893012"><ele>798.0</ele><time>2026-05-03T14:38:51.001Z</time></trkpt><trkpt lat="41.49614717290467" lon="-1.804505094047685"><ele>798.0</ele><time>2026-05-03T14:38:52.001Z</time></trkpt><trkpt lat="41.49604229104138" lon="-1.804449061399794"><ele>798.25</ele><time>2026-05-03T14:38:53.001Z</time></trkpt><trkpt lat="41.49593548028165" lon="-1.8043951653040564"><ele>798.5</ele><time>2026-05-03T14:38:54.001Z</time></trkpt><trkpt lat="41.495827017409496" lon="-1.8043414397812547"><ele>798.75</ele><time>2026-05-03T14:38:55.001Z</time></trkpt><trkpt lat="41.495719361067145" lon="-1.8042871467452806"><ele>799.0</ele><time>2026-05-03T14:38:56.001Z</time></trkpt><trkpt lat="41.495610706833624" lon="-1.8042339080679153"><ele>799.0</ele><time>2026-05-03T14:38:57.001Z</time></trkpt><trkpt lat="41.49550506431071" lon="-1.8041796178053"><ele>799.0</ele><time>2026-05-03T14:38:58.001Z</time></trkpt><trkpt lat="41.49539965058412" lon="-1.804123250218065"><ele>799.0</ele><time>2026-05-03T14:38:59.001Z</time></trkpt><trkpt lat="41.49529458309241" lon="-1.804066495265988"><ele>799.0</ele><time>2026-05-03T14:39:00.001Z</time></trkpt><trkpt lat="41.495189065248724" lon="-1.8040129454368192"><ele>797.75</ele><time>2026-05-03T14:39:01.001Z</time></trkpt><trkpt lat="41.495082715348694" lon="-1.8039579643458403"><ele>796.5</ele><time>2026-05-03T14:39:02.001Z</time></trkpt><trkpt lat="41.49497754985914" lon="-1.8039033271407978"><ele>795.25</ele><time>2026-05-03T14:39:03.001Z</time></trkpt><trkpt lat="41.49487152650369" lon="-1.8038469540266893"><ele>794.0</ele><time>2026-05-03T14:39:04.001Z</time></trkpt><trkpt lat="41.49476386676186" lon="-1.8037905202082714"><ele>794.0</ele><time>2026-05-03T14:39:05.001Z</time></trkpt><trkpt lat="41.494656415993546" lon="-1.8037364955602488"><ele>794.0</ele><time>2026-05-03T14:39:06.001Z</time></trkpt><trkpt lat="41.494551408180676" lon="-1.8036855027214604"><ele>794.0</ele><time>2026-05-03T14:39:07.001Z</time></trkpt><trkpt lat="41.49445018070079" lon="-1.8036343096963996"><ele>794.0</ele><time>2026-05-03T14:39:08.001Z</time></trkpt><trkpt lat="41.49434598127437" lon="-1.803580402234287"><ele>794.0</ele><time>2026-05-03T14:39:09.001Z</time></trkpt><trkpt lat="41.49423891608014" lon="-1.8035263376010036"><ele>794.5</ele><time>2026-05-03T14:39:10.001Z</time></trkpt><trkpt lat="41.49413317427853" lon="-1.8034674700205122"><ele>795.0</ele><time>2026-05-03T14:39:11.001Z</time></trkpt><trkpt lat="41.4940269297416" lon="-1.803414744837692"><ele>795.5</ele><time>2026-05-03T14:39:12.001Z</time></trkpt><trkpt lat="41.49391872634621" lon="-1.8033595327042997"><ele>796.0</ele><time>2026-05-03T14:39:13.001Z</time></trkpt><trkpt lat="41.49381374877314" lon="-1.8033043260751453"><ele>795.25</ele><time>2026-05-03T14:39:14.001Z</time></trkpt><trkpt lat="41.493708368128615" lon="-1.8032431455429776"><ele>794.5</ele><time>2026-05-03T14:39:15.001Z</time></trkpt><trkpt lat="41.49359823314836" lon="-1.8031907625185315"><ele>793.75</ele><time>2026-05-03T14:39:16.001Z</time></trkpt><trkpt lat="41.49349241759001" lon="-1.8031381812798633"><ele>793.0</ele><time>2026-05-03T14:39:17.001Z</time></trkpt><trkpt lat="41.493384573203464" lon="-1.8030855875792775"><ele>793.0</ele><time>2026-05-03T14:39:18.001Z</time></trkpt><trkpt lat="41.49327776989226" lon="-1.803034038583102"><ele>793.0</ele><time>2026-05-03T14:39:19.001Z</time></trkpt><trkpt lat="41.49317029154367" lon="-1.8029806511748872"><ele>793.0</ele><time>2026-05-03T14:39:20.001Z</time></trkpt><trkpt lat="41.49306372101107" lon="-1.8029253736518172"><ele>793.0</ele><time>2026-05-03T14:39:21.001Z</time></trkpt><trkpt lat="41.492956084637534" lon="-1.802870918948512"><ele>792.5</ele><time>2026-05-03T14:39:22.001Z</time></trkpt><trkpt lat="41.49284667887362" lon="-1.8028136242382287"><ele>792.0</ele><time>2026-05-03T14:39:23.001Z</time></trkpt><trkpt lat="41.49273962745448" lon="-1.8027576552486657"><ele>791.5</ele><time>2026-05-03T14:39:24.001Z</time></trkpt><trkpt lat="41.49263109332396" lon="-1.8027013786873616"><ele>791.0</ele><time>2026-05-03T14:39:25.001Z</time></trkpt><trkpt lat="41.492524120202056" lon="-1.8026427243989007"><ele>793.0</ele><time>2026-05-03T14:39:26.001Z</time></trkpt><trkpt lat="41.49241630333313" lon="-1.8025851983728156"><ele>795.0</ele><time>2026-05-03T14:39:27.001Z</time></trkpt><trkpt lat="41.492309360906226" lon="-1.8025311532061192"><ele>797.0</ele><time>2026-05-03T14:39:28.001Z</time></trkpt><trkpt lat="41.492201452924256" lon="-1.8024775533384652"><ele>799.0</ele><time>2026-05-03T14:39:29.001Z</time></trkpt><trkpt lat="41.49209452913288" lon="-1.802422261418719"><ele>797.5</ele><time>2026-05-03T14:39:30.001Z</time></trkpt><trkpt lat="41.49198641729241" lon="-1.8023641856211317"><ele>796.0</ele><time>2026-05-03T14:39:31.001Z</time></trkpt><trkpt lat="41.4918776400596" lon="-1.802306525521857"><ele>794.5</ele><time>2026-05-03T14:39:32.001Z</time></trkpt><trkpt lat="41.49176837644227" lon="-1.8022498138268017"><ele>793.0</ele><time>2026-05-03T14:39:33.001Z</time></trkpt><trkpt lat="41.491658990766524" lon="-1.8021923471763468"><ele>793.0</ele><time>2026-05-03T14:39:34.001Z</time></trkpt><trkpt lat="41.4915489563011" lon="-1.802136841472682"><ele>793.0</ele><time>2026-05-03T14:39:35.001Z</time></trkpt><trkpt lat="41.491440461556905" lon="-1.8020817697915337"><ele>793.0</ele><time>2026-05-03T14:39:36.001Z</time></trkpt><trkpt lat="41.49133076794477" lon="-1.8020255319446152"><ele>793.0</ele><time>2026-05-03T14:39:37.002Z</time></trkpt><trkpt lat="41.49122224576437" lon="-1.8019698822427483"><ele>793.0</ele><time>2026-05-03T14:39:38.001Z</time></trkpt><trkpt lat="41.49111273697732" lon="-1.801914946096799"><ele>793.0</ele><time>2026-05-03T14:39:39.001Z</time></trkpt><trkpt lat="41.49100621623252" lon="-1.8018609926586604"><ele>793.0</ele><time>2026-05-03T14:39:40.001Z</time></trkpt><trkpt lat="41.490897278358474" lon="-1.8018070519153027"><ele>793.0</ele><time>2026-05-03T14:39:41.001Z</time></trkpt><trkpt lat="41.49078720712012" lon="-1.8017578827627039"><ele>793.0</ele><time>2026-05-03T14:39:42Z</time></trkpt><trkpt lat="41.490681291346945" lon="-1.8017060234116096"><ele>793.0</ele><time>2026-05-03T14:39:43Z</time></trkpt><trkpt lat="41.49056959682085" lon="-1.8016553634991668"><ele>793.0</ele><time>2026-05-03T14:39:44Z</time></trkpt><trkpt lat="41.49045710222807" lon="-1.8016185233097284"><ele>793.0</ele><time>2026-05-03T14:39:45Z</time></trkpt><trkpt lat="41.49034729506447" lon="-1.801595067670644"><ele>791.5</ele><time>2026-05-03T14:39:46Z</time></trkpt><trkpt lat="41.490235070536635" lon="-1.801573041100811"><ele>790.0</ele><time>2026-05-03T14:39:47Z</time></trkpt><trkpt lat="41.49011981923037" lon="-1.8015582418321388"><ele>788.5</ele><time>2026-05-03T14:39:48Z</time></trkpt><trkpt lat="41.49000539608219" lon="-1.8015484144057547"><ele>787.0</ele><time>2026-05-03T14:39:49Z</time></trkpt><trkpt lat="41.48989048390992" lon="-1.8015317488667462"><ele>787.0</ele><time>2026-05-03T14:39:50Z</time></trkpt><trkpt lat="41.48977681583912" lon="-1.8015345777412248"><ele>787.0</ele><time>2026-05-03T14:39:51Z</time></trkpt><trkpt lat="41.489663853862226" lon="-1.8015462181795399"><ele>787.0</ele><time>2026-05-03T14:39:52Z</time></trkpt><trkpt lat="41.48954841795332" lon="-1.8015656772382973"><ele>787.0</ele><time>2026-05-03T14:39:53Z</time></trkpt><trkpt lat="41.489436986663776" lon="-1.801589583500287"><ele>786.5</ele><time>2026-05-03T14:39:54Z</time></trkpt><trkpt lat="41.489322400604856" lon="-1.8016085241984916"><ele>786.0</ele><time>2026-05-03T14:39:55Z</time></trkpt><trkpt lat="41.48920712444071" lon="-1.8016311076134066"><ele>785.5</ele><time>2026-05-03T14:39:56Z</time></trkpt><trkpt lat="41.489094966308706" lon="-1.801664418798218"><ele>785.0</ele><time>2026-05-03T14:39:57Z</time></trkpt><trkpt lat="41.48898133108967" lon="-1.80168651305177"><ele>785.0</ele><time>2026-05-03T14:39:58Z</time></trkpt><trkpt lat="41.48886720362742" lon="-1.801706393886453"><ele>785.0</ele><time>2026-05-03T14:39:59Z</time></trkpt><trkpt lat="41.48875237049766" lon="-1.8017286219444877"><ele>785.0</ele><time>2026-05-03T14:40:00Z</time></trkpt><trkpt lat="41.488640343977245" lon="-1.8017526620928945"><ele>785.0</ele><time>2026-05-03T14:40:01Z</time></trkpt><trkpt lat="41.48852411771213" lon="-1.801776788215403"><ele>785.0</ele><time>2026-05-03T14:40:02Z</time></trkpt><trkpt lat="41.48840849580489" lon="-1.8017985193862538"><ele>785.0</ele><time>2026-05-03T14:40:03Z</time></trkpt><trkpt lat="41.48829235966131" lon="-1.801824242625866"><ele>785.0</ele><time>2026-05-03T14:40:04Z</time></trkpt><trkpt lat="41.48817940038578" lon="-1.8018462469031324"><ele>785.0</ele><time>2026-05-03T14:40:05Z</time></trkpt><trkpt lat="41.48806645622298" lon="-1.8018736441451144"><ele>784.5</ele><time>2026-05-03T14:40:06Z</time></trkpt><trkpt lat="41.487954278780016" lon="-1.8018996614974545"><ele>784.0</ele><time>2026-05-03T14:40:07Z</time></trkpt><trkpt lat="41.487841108879586" lon="-1.8019239805443301"><ele>783.5</ele><time>2026-05-03T14:40:08Z</time></trkpt><trkpt lat="41.487727841028665" lon="-1.801944885624959"><ele>783.0</ele><time>2026-05-03T14:40:09Z</time></trkpt><trkpt lat="41.48761269502059" lon="-1.8019638463947683"><ele>783.0</ele><time>2026-05-03T14:40:10Z</time></trkpt><trkpt lat="41.48749835122457" lon="-1.80198127641232"><ele>783.0</ele><time>2026-05-03T14:40:11Z</time></trkpt><trkpt lat="41.48738446552" lon="-1.801993034590514"><ele>783.0</ele><time>2026-05-03T14:40:12Z</time></trkpt><trkpt lat="41.48726924069028" lon="-1.8019905552409372"><ele>783.0</ele><time>2026-05-03T14:40:13Z</time></trkpt><trkpt lat="41.487144370399385" lon="-1.8020004392505427"><ele>782.4</ele><time>2026-05-03T14:40:14Z</time></trkpt><trkpt lat="41.48704290075449" lon="-1.8019852721187364"><ele>781.8</ele><time>2026-05-03T14:40:15Z</time></trkpt><trkpt lat="41.48692600186807" lon="-1.8019647543615243"><ele>781.2</ele><time>2026-05-03T14:40:16.001Z</time></trkpt><trkpt lat="41.486812980411464" lon="-1.8019415441388542"><ele>780.6</ele><time>2026-05-03T14:40:17.001Z</time></trkpt><trkpt lat="41.48669977772868" lon="-1.8019152018184483"><ele>780.0</ele><time>2026-05-03T14:40:18.001Z</time></trkpt><trkpt lat="41.48658914953409" lon="-1.801869639051796"><ele>779.75</ele><time>2026-05-03T14:40:19.001Z</time></trkpt><trkpt lat="41.48647951667159" lon="-1.8018255845504947"><ele>779.5</ele><time>2026-05-03T14:40:20.001Z</time></trkpt><trkpt lat="41.486370560803124" lon="-1.801770147097172"><ele>779.25</ele><time>2026-05-03T14:40:21.001Z</time></trkpt><trkpt lat="41.4862640929314" lon="-1.801718492442625"><ele>779.0</ele><time>2026-05-03T14:40:22.001Z</time></trkpt><trkpt lat="41.48615418984548" lon="-1.8016668660670188"><ele>779.0</ele><time>2026-05-03T14:40:23.001Z</time></trkpt><trkpt lat="41.48604599033342" lon="-1.801614600921392"><ele>779.0</ele><time>2026-05-03T14:40:24.001Z</time></trkpt><trkpt lat="41.48593950042748" lon="-1.801562241333697"><ele>779.0</ele><time>2026-05-03T14:40:25.001Z</time></trkpt><trkpt lat="41.48583021288133" lon="-1.801510620531062"><ele>779.0</ele><time>2026-05-03T14:40:26.001Z</time></trkpt><trkpt lat="41.4857206178405" lon="-1.801466827718414"><ele>779.0</ele><time>2026-05-03T14:40:27.001Z</time></trkpt><trkpt lat="41.48560796822582" lon="-1.8014349863535248"><ele>779.0</ele><time>2026-05-03T14:40:28.001Z</time></trkpt><trkpt lat="41.48549479132287" lon="-1.8014116580735595"><ele>779.0</ele><time>2026-05-03T14:40:29.001Z</time></trkpt><trkpt lat="41.485381079174765" lon="-1.801392724787972"><ele>779.0</ele><time>2026-05-03T14:40:30.001Z</time></trkpt><trkpt lat="41.485269018404246" lon="-1.8013699869979556"><ele>778.5</ele><time>2026-05-03T14:40:31.001Z</time></trkpt><trkpt lat="41.48515413390358" lon="-1.8013594750675759"><ele>778.0</ele><time>2026-05-03T14:40:32.001Z</time></trkpt><trkpt lat="41.485036924427874" lon="-1.801349013136808"><ele>777.5</ele><time>2026-05-03T14:40:33.001Z</time></trkpt><trkpt lat="41.48491828496384" lon="-1.80133171942492"><ele>777.0</ele><time>2026-05-03T14:40:34.001Z</time></trkpt><trkpt lat="41.484801541992994" lon="-1.8013229730177347"><ele>777.0</ele><time>2026-05-03T14:40:35.001Z</time></trkpt><trkpt lat="41.48468755888319" lon="-1.8013001722391693"><ele>777.0</ele><time>2026-05-03T14:40:36.001Z</time></trkpt><trkpt lat="41.48457153190314" lon="-1.8012766917171394"><ele>777.0</ele><time>2026-05-03T14:40:37.001Z</time></trkpt><trkpt lat="41.48445543665366" lon="-1.8012478470052888"><ele>777.0</ele><time>2026-05-03T14:40:38.001Z</time></trkpt><trkpt lat="41.484340668993575" lon="-1.8012168752144417"><ele>776.75</ele><time>2026-05-03T14:40:39.001Z</time></trkpt><trkpt lat="41.484224974050655" lon="-1.801184623254099"><ele>776.5</ele><time>2026-05-03T14:40:40.001Z</time></trkpt><trkpt lat="41.4841108498634" lon="-1.8011468161990136"><ele>776.25</ele><time>2026-05-03T14:40:41.001Z</time></trkpt><trkpt lat="41.48399853711075" lon="-1.8011052461673818"><ele>776.0</ele><time>2026-05-03T14:40:42.001Z</time></trkpt><trkpt lat="41.483886869257525" lon="-1.8010640409740302"><ele>776.0</ele><time>2026-05-03T14:40:43.001Z</time></trkpt><trkpt lat="41.483775789893954" lon="-1.8010123850899404"><ele>776.0</ele><time>2026-05-03T14:40:44.001Z</time></trkpt><trkpt lat="41.483665157997926" lon="-1.8009777439794648"><ele>776.0</ele><time>2026-05-03T14:40:45.001Z</time></trkpt><trkpt lat="41.48355562909326" lon="-1.800927991189331"><ele>776.0</ele><time>2026-05-03T14:40:46.001Z</time></trkpt><trkpt lat="41.48344400525251" lon="-1.80088558848839"><ele>775.75</ele><time>2026-05-03T14:40:47.001Z</time></trkpt><trkpt lat="41.48332996471684" lon="-1.800842116469848"><ele>775.5</ele><time>2026-05-03T14:40:48.001Z</time></trkpt><trkpt lat="41.48321900695442" lon="-1.8007975398222296"><ele>775.25</ele><time>2026-05-03T14:40:49.001Z</time></trkpt><trkpt lat="41.48310886684953" lon="-1.8007515160129106"><ele>775.0</ele><time>2026-05-03T14:40:50.001Z</time></trkpt><trkpt lat="41.48300090511281" lon="-1.8007089722861762"><ele>774.25</ele><time>2026-05-03T14:40:51.001Z</time></trkpt><trkpt lat="41.48289122882595" lon="-1.8006605871114518"><ele>773.5</ele><time>2026-05-03T14:40:52.001Z</time></trkpt><trkpt lat="41.48278093363519" lon="-1.8006169624572543"><ele>772.75</ele><time>2026-05-03T14:40:53.001Z</time></trkpt><trkpt lat="41.48266853814997" lon="-1.8005727824446138"><ele>772.0</ele><time>2026-05-03T14:40:54.001Z</time></trkpt><trkpt lat="41.48256331981427" lon="-1.8005142866683879"><ele>772.0</ele><time>2026-05-03T14:40:55.001Z</time></trkpt><trkpt lat="41.482451655302015" lon="-1.8004817725859668"><ele>772.0</ele><time>2026-05-03T14:40:56.001Z</time></trkpt><trkpt lat="41.48233765805121" lon="-1.800439739208954"><ele>772.0</ele><time>2026-05-03T14:40:57.001Z</time></trkpt><trkpt lat="41.48222794634108" lon="-1.800394170880993"><ele>772.0</ele><time>2026-05-03T14:40:58.001Z</time></trkpt><trkpt lat="41.48211946777524" lon="-1.8003477939941674"><ele>771.5</ele><time>2026-05-03T14:40:59.001Z</time></trkpt><trkpt lat="41.48200925640473" lon="-1.8003032744151528"><ele>771.0</ele><time>2026-05-03T14:41:00.001Z</time></trkpt><trkpt lat="41.48190031111689" lon="-1.8002566066264845"><ele>770.5</ele><time>2026-05-03T14:41:01.001Z</time></trkpt><trkpt lat="41.4817889342551" lon="-1.800210050658047"><ele>770.0</ele><time>2026-05-03T14:41:02.001Z</time></trkpt><trkpt lat="41.481679676544324" lon="-1.8001664265597266"><ele>770.0</ele><time>2026-05-03T14:41:03.001Z</time></trkpt><trkpt lat="41.481567840634185" lon="-1.8001247899144668"><ele>770.0</ele><time>2026-05-03T14:41:04.001Z</time></trkpt><trkpt lat="41.4814576615227" lon="-1.8000828088537"><ele>770.0</ele><time>2026-05-03T14:41:05.001Z</time></trkpt><trkpt lat="41.481350147593396" lon="-1.8000376384769776"><ele>770.0</ele><time>2026-05-03T14:41:06.001Z</time></trkpt><trkpt lat="41.4812405085044" lon="-1.7999912197580616"><ele>770.0</ele><time>2026-05-03T14:41:07.001Z</time></trkpt><trkpt lat="41.4811301296062" lon="-1.7999481268204043"><ele>770.0</ele><time>2026-05-03T14:41:08.001Z</time></trkpt><trkpt lat="41.481018235774194" lon="-1.7999041284288104"><ele>770.0</ele><time>2026-05-03T14:41:09.001Z</time></trkpt><trkpt lat="41.480908538211935" lon="-1.7998547760206787"><ele>770.0</ele><time>2026-05-03T14:41:10.001Z</time></trkpt><trkpt lat="41.48079700453211" lon="-1.7998135833160105"><ele>770.0</ele><time>2026-05-03T14:41:11.001Z</time></trkpt><trkpt lat="41.480684232597014" lon="-1.799766506197564"><ele>770.0</ele><time>2026-05-03T14:41:12.001Z</time></trkpt><trkpt lat="41.48057061259533" lon="-1.7997216705347152"><ele>770.0</ele><time>2026-05-03T14:41:13.001Z</time></trkpt><trkpt lat="41.480455603673796" lon="-1.799675387909517"><ele>770.0</ele><time>2026-05-03T14:41:14.001Z</time></trkpt><trkpt lat="41.480344153047525" lon="-1.7996302324076463"><ele>769.25</ele><time>2026-05-03T14:41:15.001Z</time></trkpt><trkpt lat="41.48022962857559" lon="-1.79958088129325"><ele>768.5</ele><time>2026-05-03T14:41:16.001Z</time></trkpt><trkpt lat="41.48011763902767" lon="-1.7995337452236917"><ele>767.75</ele><time>2026-05-03T14:41:17.001Z</time></trkpt><trkpt lat="41.4800054197822" lon="-1.799487261789465"><ele>767.0</ele><time>2026-05-03T14:41:18.001Z</time></trkpt><trkpt lat="41.47989421296141" lon="-1.799441295172366"><ele>767.0</ele><time>2026-05-03T14:41:19.001Z</time></trkpt><trkpt lat="41.47978049347948" lon="-1.7993996906860332"><ele>767.0</ele><time>2026-05-03T14:41:20.001Z</time></trkpt><trkpt lat="41.47966699438777" lon="-1.799358070996925"><ele>767.0</ele><time>2026-05-03T14:41:21.001Z</time></trkpt><trkpt lat="41.47955595762227" lon="-1.7993085630989731"><ele>767.0</ele><time>2026-05-03T14:41:22.001Z</time></trkpt><trkpt lat="41.47944458811299" lon="-1.7992621469106587"><ele>767.25</ele><time>2026-05-03T14:41:23.001Z</time></trkpt><trkpt lat="41.479332506719764" lon="-1.7992186616631967"><ele>767.5</ele><time>2026-05-03T14:41:24.001Z</time></trkpt><trkpt lat="41.47921916005136" lon="-1.7991729421574527"><ele>767.75</ele><time>2026-05-03T14:41:25.001Z</time></trkpt><trkpt lat="41.47910464493154" lon="-1.7991321487104415"><ele>768.0</ele><time>2026-05-03T14:41:26.001Z</time></trkpt><trkpt lat="41.4789966135203" lon="-1.7990798045186238"><ele>768.0</ele><time>2026-05-03T14:41:27.001Z</time></trkpt><trkpt lat="41.47888262685327" lon="-1.7990331939993212"><ele>768.0</ele><time>2026-05-03T14:41:28.001Z</time></trkpt><trkpt lat="41.47876950981772" lon="-1.79898919134461"><ele>768.0</ele><time>2026-05-03T14:41:29.001Z</time></trkpt><trkpt lat="41.47865789112232" lon="-1.7989433059348756"><ele>768.0</ele><time>2026-05-03T14:41:30.001Z</time></trkpt><trkpt lat="41.478542535788925" lon="-1.7988996326867728"><ele>767.5</ele><time>2026-05-03T14:41:31.001Z</time></trkpt><trkpt lat="41.47843009530293" lon="-1.7988532869907978"><ele>767.0</ele><time>2026-05-03T14:41:32.001Z</time></trkpt><trkpt lat="41.47831675326956" lon="-1.7988066666259726"><ele>766.5</ele><time>2026-05-03T14:41:33.001Z</time></trkpt><trkpt lat="41.47820818838479" lon="-1.7987583583509115"><ele>766.0</ele><time>2026-05-03T14:41:34.001Z</time></trkpt><trkpt lat="41.47809407614923" lon="-1.7987122569656624"><ele>766.0</ele><time>2026-05-03T14:41:35.001Z</time></trkpt><trkpt lat="41.477983588544255" lon="-1.7986648055695973"><ele>766.0</ele><time>2026-05-03T14:41:36.001Z</time></trkpt><trkpt lat="41.47787107661567" lon="-1.7986220319328472"><ele>766.0</ele><time>2026-05-03T14:41:37.001Z</time></trkpt><trkpt lat="41.47776227117306" lon="-1.7985756839885292"><ele>766.0</ele><time>2026-05-03T14:41:38.001Z</time></trkpt><trkpt lat="41.47764986597051" lon="-1.7985296376340922"><ele>765.25</ele><time>2026-05-03T14:41:39.001Z</time></trkpt><trkpt lat="41.47754268181298" lon="-1.7984828130412471"><ele>764.5</ele><time>2026-05-03T14:41:40.001Z</time></trkpt><trkpt lat="41.477429636483336" lon="-1.7984372591733389"><ele>763.75</ele><time>2026-05-03T14:41:41.001Z</time></trkpt><trkpt lat="41.47732061677632" lon="-1.7983888073085703"><ele>763.0</ele><time>2026-05-03T14:41:42.001Z</time></trkpt><trkpt lat="41.4772113271215" lon="-1.7983383032269564"><ele>762.75</ele><time>2026-05-03T14:41:43.001Z</time></trkpt><trkpt lat="41.47709972138303" lon="-1.7982886765424364"><ele>762.5</ele><time>2026-05-03T14:41:44.001Z</time></trkpt><trkpt lat="41.47699197012524" lon="-1.7982379827786372"><ele>762.25</ele><time>2026-05-03T14:41:45.001Z</time></trkpt><trkpt lat="41.4768866768247" lon="-1.798173584315721"><ele>762.0</ele><time>2026-05-03T14:41:46.001Z</time></trkpt><trkpt lat="41.476777394381166" lon="-1.79812424964174"><ele>762.0</ele><time>2026-05-03T14:41:47.002Z</time></trkpt><trkpt lat="41.47667221872452" lon="-1.7980667386076958"><ele>762.0</ele><time>2026-05-03T14:41:48.001Z</time></trkpt><trkpt lat="41.47656507374753" lon="-1.7980019290502218"><ele>762.0</ele><time>2026-05-03T14:41:49.001Z</time></trkpt><trkpt lat="41.476458118611255" lon="-1.7979387137541927"><ele>762.0</ele><time>2026-05-03T14:41:50.001Z</time></trkpt><trkpt lat="41.476352947163186" lon="-1.7978760003617997"><ele>761.75</ele><time>2026-05-03T14:41:51.001Z</time></trkpt><trkpt lat="41.47624840721643" lon="-1.7978110343222538"><ele>761.5</ele><time>2026-05-03T14:41:52.001Z</time></trkpt><trkpt lat="41.476148047201185" lon="-1.7977397528142003"><ele>761.25</ele><time>2026-05-03T14:41:53.001Z</time></trkpt><trkpt lat="41.4760454291767" lon="-1.7976719113701005"><ele>761.0</ele><time>2026-05-03T14:41:54.001Z</time></trkpt><trkpt lat="41.47594171594272" lon="-1.7976031447887642"><ele>761.75</ele><time>2026-05-03T14:41:55Z</time></trkpt><trkpt lat="41.475838501802755" lon="-1.7975302576316092"><ele>762.5</ele><time>2026-05-03T14:41:56Z</time></trkpt><trkpt lat="41.475735330471636" lon="-1.797457604170577"><ele>763.25</ele><time>2026-05-03T14:41:57Z</time></trkpt><trkpt lat="41.47563359825344" lon="-1.797382142813968"><ele>764.0</ele><time>2026-05-03T14:41:58Z</time></trkpt><trkpt lat="41.47553274220296" lon="-1.7973019487654387"><ele>762.75</ele><time>2026-05-03T14:41:59Z</time></trkpt><trkpt lat="41.47543480289549" lon="-1.7972190798602081"><ele>761.5</ele><time>2026-05-03T14:42:00Z</time></trkpt><trkpt lat="41.475337500066296" lon="-1.7971344418837412"><ele>760.25</ele><time>2026-05-03T14:42:01Z</time></trkpt><trkpt lat="41.4752370204753" lon="-1.7970512784237023"><ele>759.0</ele><time>2026-05-03T14:42:02Z</time></trkpt><trkpt lat="41.47513796218118" lon="-1.796965208588162"><ele>759.0</ele><time>2026-05-03T14:42:03Z</time></trkpt><trkpt lat="41.47503934265297" lon="-1.796881463759091"><ele>759.0</ele><time>2026-05-03T14:42:04Z</time></trkpt><trkpt lat="41.47494302118977" lon="-1.7967946666897034"><ele>759.0</ele><time>2026-05-03T14:42:05Z</time></trkpt><trkpt lat="41.47483754148779" lon="-1.7967026065553482"><ele>759.0</ele><time>2026-05-03T14:42:06Z</time></trkpt><trkpt lat="41.47475356744084" lon="-1.7966132698870254"><ele>758.75</ele><time>2026-05-03T14:42:07Z</time></trkpt><trkpt lat="41.47466089364899" lon="-1.7965195468846518"><ele>758.5</ele><time>2026-05-03T14:42:08Z</time></trkpt><trkpt lat="41.47456914870397" lon="-1.7964223500876428"><ele>758.25</ele><time>2026-05-03T14:42:09Z</time></trkpt><trkpt lat="41.474477291850604" lon="-1.7963238273079976"><ele>758.0</ele><time>2026-05-03T14:42:10Z</time></trkpt><trkpt lat="41.47438276893708" lon="-1.796227380687151"><ele>758.0</ele><time>2026-05-03T14:42:11Z</time></trkpt><trkpt lat="41.47428837513659" lon="-1.796129314449743"><ele>758.0</ele><time>2026-05-03T14:42:12Z</time></trkpt><trkpt lat="41.47419510835994" lon="-1.7960271206333889"><ele>758.0</ele><time>2026-05-03T14:42:13Z</time></trkpt><trkpt lat="41.47410132465558" lon="-1.7959290418094145"><ele>758.0</ele><time>2026-05-03T14:42:14Z</time></trkpt><trkpt lat="41.474010722815315" lon="-1.7958308549430757"><ele>758.25</ele><time>2026-05-03T14:42:15Z</time></trkpt><trkpt lat="41.47392033085228" lon="-1.7957282782359185"><ele>758.5</ele><time>2026-05-03T14:42:16Z</time></trkpt><trkpt lat="41.47382900593017" lon="-1.7956263830926342"><ele>758.75</ele><time>2026-05-03T14:42:17Z</time></trkpt><trkpt lat="41.47373516295861" lon="-1.7955269005246093"><ele>759.0</ele><time>2026-05-03T14:42:18Z</time></trkpt><trkpt lat="41.473646489113875" lon="-1.7954264718885975"><ele>758.75</ele><time>2026-05-03T14:42:19Z</time></trkpt><trkpt lat="41.47355522797579" lon="-1.7953296623497006"><ele>758.5</ele><time>2026-05-03T14:42:20Z</time></trkpt><trkpt lat="41.47346173090611" lon="-1.7952311366268976"><ele>758.25</ele><time>2026-05-03T14:42:21Z</time></trkpt><trkpt lat="41.47336971786939" lon="-1.795136011441022"><ele>758.0</ele><time>2026-05-03T14:42:22Z</time></trkpt><trkpt lat="41.47327642030603" lon="-1.7950391891206476"><ele>758.0</ele><time>2026-05-03T14:42:23Z</time></trkpt><trkpt lat="41.47318302384097" lon="-1.7949411255672372"><ele>758.0</ele><time>2026-05-03T14:42:24Z</time></trkpt><trkpt lat="41.47309477411458" lon="-1.794839759960919"><ele>758.0</ele><time>2026-05-03T14:42:25Z</time></trkpt><trkpt lat="41.473003386214224" lon="-1.794741333973603"><ele>758.0</ele><time>2026-05-03T14:42:26Z</time></trkpt><trkpt lat="41.472914145668526" lon="-1.7946376944774232"><ele>757.75</ele><time>2026-05-03T14:42:27Z</time></trkpt><trkpt lat="41.47282129806685" lon="-1.794540208820269"><ele>757.5</ele><time>2026-05-03T14:42:28.001Z</time></trkpt><trkpt lat="41.472731764135766" lon="-1.7944385001727952"><ele>757.25</ele><time>2026-05-03T14:42:29.001Z</time></trkpt><trkpt lat="41.47263815816449" lon="-1.7943408060404005"><ele>757.0</ele><time>2026-05-03T14:42:30.001Z</time></trkpt><trkpt lat="41.47254825673608" lon="-1.7942416354634663"><ele>757.0</ele><time>2026-05-03T14:42:31.001Z</time></trkpt><trkpt lat="41.47245359190933" lon="-1.7941479146044452"><ele>757.0</ele><time>2026-05-03T14:42:32.001Z</time></trkpt><trkpt lat="41.47236335258331" lon="-1.7940508462891145"><ele>757.0</ele><time>2026-05-03T14:42:33.001Z</time></trkpt><trkpt lat="41.472271631135364" lon="-1.793954172458487"><ele>757.0</ele><time>2026-05-03T14:42:34.001Z</time></trkpt><trkpt lat="41.47218342080106" lon="-1.7938547591713938"><ele>756.5</ele><time>2026-05-03T14:42:35.001Z</time></trkpt><trkpt lat="41.472092118401534" lon="-1.7937576240330602"><ele>756.0</ele><time>2026-05-03T14:42:36.001Z</time></trkpt><trkpt lat="41.47198486192329" lon="-1.7936823123255106"><ele>755.5</ele><time>2026-05-03T14:42:37.001Z</time></trkpt><trkpt lat="41.47190275299314" lon="-1.7935721269845701"><ele>755.0</ele><time>2026-05-03T14:42:38.001Z</time></trkpt><trkpt lat="41.4718143162729" lon="-1.7934712092571328"><ele>755.0</ele><time>2026-05-03T14:42:39.001Z</time></trkpt><trkpt lat="41.47172596180728" lon="-1.7933727885970188"><ele>755.0</ele><time>2026-05-03T14:42:40.001Z</time></trkpt><trkpt lat="41.471636529401955" lon="-1.7932712775492674"><ele>755.0</ele><time>2026-05-03T14:42:41.001Z</time></trkpt><trkpt lat="41.47154457011468" lon="-1.7931750122964476"><ele>755.0</ele><time>2026-05-03T14:42:42.001Z</time></trkpt><trkpt lat="41.47145386961021" lon="-1.7930755381828813"><ele>755.0</ele><time>2026-05-03T14:42:43.001Z</time></trkpt><trkpt lat="41.471363706409186" lon="-1.79297418704467"><ele>755.0</ele><time>2026-05-03T14:42:44.001Z</time></trkpt><trkpt lat="41.471272723478236" lon="-1.7928750942307548"><ele>755.0</ele><time>2026-05-03T14:42:45.001Z</time></trkpt><trkpt lat="41.471182327080385" lon="-1.792774415167791"><ele>755.0</ele><time>2026-05-03T14:42:46.001Z</time></trkpt><trkpt lat="41.47108652443615" lon="-1.7926721016586242"><ele>754.25</ele><time>2026-05-03T14:42:47.001Z</time></trkpt><trkpt lat="41.47099611165472" lon="-1.7925797880704273"><ele>753.5</ele><time>2026-05-03T14:42:48.001Z</time></trkpt><trkpt lat="41.47090687701096" lon="-1.7924834125425242"><ele>752.75</ele><time>2026-05-03T14:42:49.001Z</time></trkpt><trkpt lat="41.470816132880536" lon="-1.7923856246756629"><ele>752.0</ele><time>2026-05-03T14:42:50.001Z</time></trkpt><trkpt lat="41.47072773612399" lon="-1.7922865970327964"><ele>752.0</ele><time>2026-05-03T14:42:51.001Z</time></trkpt><trkpt lat="41.47063819471209" lon="-1.792189238326291"><ele>752.0</ele><time>2026-05-03T14:42:52.001Z</time></trkpt><trkpt lat="41.470546635572916" lon="-1.7920941673749455"><ele>752.0</ele><time>2026-05-03T14:42:53.001Z</time></trkpt><trkpt lat="41.47045768935954" lon="-1.7919976181593549"><ele>752.0</ele><time>2026-05-03T14:42:54.001Z</time></trkpt><trkpt lat="41.470367161901244" lon="-1.7919007747250806"><ele>750.75</ele><time>2026-05-03T14:42:55.001Z</time></trkpt><trkpt lat="41.470274126280835" lon="-1.7918099510149035"><ele>749.5</ele><time>2026-05-03T14:42:56.001Z</time></trkpt><trkpt lat="41.47016357605172" lon="-1.7917453582838592"><ele>748.25</ele><time>2026-05-03T14:42:57.001Z</time></trkpt><trkpt lat="41.47009100143345" lon="-1.7916300387007715"><ele>747.0</ele><time>2026-05-03T14:42:58.001Z</time></trkpt><trkpt lat="41.4700032534778" lon="-1.7915340864835343"><ele>747.0</ele><time>2026-05-03T14:42:59.001Z</time></trkpt><trkpt lat="41.46991447324844" lon="-1.7914383169178079"><ele>747.0</ele><time>2026-05-03T14:43:00.001Z</time></trkpt><trkpt lat="41.46982537210442" lon="-1.7913422159213677"><ele>747.0</ele><time>2026-05-03T14:43:01.001Z</time></trkpt><trkpt lat="41.46973444436285" lon="-1.7912461751572006"><ele>747.0</ele><time>2026-05-03T14:43:02.001Z</time></trkpt><trkpt lat="41.469644896239" lon="-1.7911499570841456"><ele>746.75</ele><time>2026-05-03T14:43:03.001Z</time></trkpt><trkpt lat="41.46955597205606" lon="-1.791054420519897"><ele>746.5</ele><time>2026-05-03T14:43:04.001Z</time></trkpt><trkpt lat="41.469466158067576" lon="-1.7909598212475915"><ele>746.25</ele><time>2026-05-03T14:43:05.001Z</time></trkpt><trkpt lat="41.469375139522626" lon="-1.7908677747810418"><ele>746.0</ele><time>2026-05-03T14:43:06.001Z</time></trkpt><trkpt lat="41.46928878081361" lon="-1.7907748395372043"><ele>746.0</ele><time>2026-05-03T14:43:07.001Z</time></trkpt><trkpt lat="41.46919841756974" lon="-1.790677322572864"><ele>746.0</ele><time>2026-05-03T14:43:08.001Z</time></trkpt><trkpt lat="41.469109057155414" lon="-1.7905835876514828"><ele>746.0</ele><time>2026-05-03T14:43:09.001Z</time></trkpt><trkpt lat="41.469017021680514" lon="-1.790489538026465"><ele>746.0</ele><time>2026-05-03T14:43:10.001Z</time></trkpt><trkpt lat="41.46892417173648" lon="-1.7903943369541704"><ele>746.0</ele><time>2026-05-03T14:43:11.001Z</time></trkpt><trkpt lat="41.468835299528045" lon="-1.7902975824699867"><ele>746.0</ele><time>2026-05-03T14:43:12.001Z</time></trkpt><trkpt lat="41.46874811562641" lon="-1.790200586128472"><ele>746.0</ele><time>2026-05-03T14:43:13.001Z</time></trkpt><trkpt lat="41.468659528916056" lon="-1.790109054720016"><ele>746.0</ele><time>2026-05-03T14:43:14.001Z</time></trkpt><trkpt lat="41.46856694036458" lon="-1.7900200058890747"><ele>745.75</ele><time>2026-05-03T14:43:15.001Z</time></trkpt><trkpt lat="41.46847967953529" lon="-1.7899249597092786"><ele>745.5</ele><time>2026-05-03T14:43:16.001Z</time></trkpt><trkpt lat="41.468392572979134" lon="-1.7898298817381513"><ele>745.25</ele><time>2026-05-03T14:43:17.001Z</time></trkpt><trkpt lat="41.46829993323284" lon="-1.7897350232666684"><ele>745.0</ele><time>2026-05-03T14:43:18.001Z</time></trkpt><trkpt lat="41.468213167020394" lon="-1.7896409153081336"><ele>745.0</ele><time>2026-05-03T14:43:19.001Z</time></trkpt><trkpt lat="41.46812345900797" lon="-1.7895444763093622"><ele>745.0</ele><time>2026-05-03T14:43:20.001Z</time></trkpt><trkpt lat="41.4680318680865" lon="-1.789452659843874"><ele>745.0</ele><time>2026-05-03T14:43:21.001Z</time></trkpt><trkpt lat="41.4679412041416" lon="-1.7893580021892157"><ele>745.0</ele><time>2026-05-03T14:43:22.001Z</time></trkpt><trkpt lat="41.4678507668335" lon="-1.7892634352722034"><ele>744.25</ele><time>2026-05-03T14:43:23.001Z</time></trkpt><trkpt lat="41.46776145307303" lon="-1.7891659682770606"><ele>743.5</ele><time>2026-05-03T14:43:24.001Z</time></trkpt><trkpt lat="41.46766835927554" lon="-1.7890703358701983"><ele>742.75</ele><time>2026-05-03T14:43:25.001Z</time></trkpt><trkpt lat="41.46757691341399" lon="-1.788975571703229"><ele>742.0</ele><time>2026-05-03T14:43:26.001Z</time></trkpt><trkpt lat="41.467488318057086" lon="-1.7888810199340377"><ele>742.0</ele><time>2026-05-03T14:43:27.001Z</time></trkpt><trkpt lat="41.467390951733584" lon="-1.7887985836294888"><ele>742.0</ele><time>2026-05-03T14:43:28.001Z</time></trkpt><trkpt lat="41.467313551064464" lon="-1.7886904469035807"><ele>742.0</ele><time>2026-05-03T14:43:29.001Z</time></trkpt><trkpt lat="41.467220481250926" lon="-1.7885986522932582"><ele>742.0</ele><time>2026-05-03T14:43:30.001Z</time></trkpt><trkpt lat="41.46711025689242" lon="-1.7885212514961066"><ele>742.0</ele><time>2026-05-03T14:43:31.001Z</time></trkpt><trkpt lat="41.46705168987707" lon="-1.7884471582173216"><ele>742.0</ele><time>2026-05-03T14:43:32.001Z</time></trkpt><trkpt lat="41.46697231764984" lon="-1.7883649402637845"><ele>742.0</ele><time>2026-05-03T14:43:33.001Z</time></trkpt><trkpt lat="41.46689361408881" lon="-1.7882834149517544"><ele>742.0</ele><time>2026-05-03T14:43:34.001Z</time></trkpt><trkpt lat="41.4668194891487" lon="-1.7882066324077341"><ele>742.0</ele><time>2026-05-03T14:43:35.001Z</time></trkpt><trkpt lat="41.466743694892685" lon="-1.7881280976706602"><ele>742.0</ele><time>2026-05-03T14:43:36.001Z</time></trkpt><trkpt lat="41.466669820923876" lon="-1.7880512318257438"><ele>742.0</ele><time>2026-05-03T14:43:37.001Z</time></trkpt><trkpt lat="41.46660374877659" lon="-1.7879824837760718"><ele>742.0</ele><time>2026-05-03T14:43:38.001Z</time></trkpt><trkpt lat="41.466539881587174" lon="-1.7879160299739825"><ele>742.0</ele><time>2026-05-03T14:43:39.001Z</time></trkpt><trkpt lat="41.466477993910885" lon="-1.7878516356745235"><ele>742.0</ele><time>2026-05-03T14:43:40.001Z</time></trkpt><trkpt lat="41.466423506731154" lon="-1.7877956070072627"><ele>742.0</ele><time>2026-05-03T14:43:41.001Z</time></trkpt><trkpt lat="41.46633288977976" lon="-1.7877019677218358"><ele>741.4000000000001</ele><time>2026-05-03T14:43:43.001Z</time></trkpt><trkpt lat="41.466345426352454" lon="-1.787590069478944"><ele>740.8000000000001</ele><time>2026-05-03T14:43:44.001Z</time></trkpt><trkpt lat="41.466321922780175" lon="-1.7874816068832249"><ele>740.2</ele><time>2026-05-03T14:43:47.001Z</time></trkpt><trkpt lat="41.46628297270646" lon="-1.787384389440423"><ele>739.6</ele><time>2026-05-03T14:43:50.001Z</time></trkpt><trkpt lat="41.466231027924096" lon="-1.7873356942555059"><ele>739.0</ele><time>2026-05-03T14:49:13.001Z</time></trkpt><trkpt lat="41.46608955086048" lon="-1.7874515401638689"><ele>739.0</ele><time>2026-05-03T14:49:34.001Z</time></trkpt><trkpt lat="41.46616880507667" lon="-1.7873169466598107"><ele>739.0</ele><time>2026-05-03T14:51:11Z</time></trkpt><trkpt lat="41.46608861331512" lon="-1.7874505709142356"><ele>739.0</ele><time>2026-05-03T14:52:15.001Z</time></trkpt><trkpt lat="41.46617210282995" lon="-1.7873078159545246"><ele>739.0</ele><time>2026-05-03T14:53:18Z</time></trkpt><trkpt lat="41.46608861331683" lon="-1.7874505709113366"><ele>739.0</ele><time>2026-05-03T14:54:41Z</time></trkpt><trkpt lat="41.46617210282995" lon="-1.7873078159545246"><ele>739.0</ele><time>2026-05-03T14:55:06Z</time></trkpt></trkseg><trkseg><trkpt lat="41.46611783238655" lon="-1.7873318320964449"><ele>739.0</ele><time>2026-05-03T15:15:30.001Z</time></trkpt><trkpt lat="41.466034066272535" lon="-1.7873617308815009"><ele>739.0</ele><time>2026-05-03T15:15:36Z</time></trkpt><trkpt lat="41.46596468967077" lon="-1.7873061428767278"><ele>739.0</ele><time>2026-05-03T15:15:38Z</time></trkpt><trkpt lat="41.46588218541742" lon="-1.78721372981688"><ele>739.0</ele><time>2026-05-03T15:15:40Z</time></trkpt><trkpt lat="41.46579589587201" lon="-1.7871110744162393"><ele>739.0</ele><time>2026-05-03T15:15:42Z</time></trkpt><trkpt lat="41.465694935249644" lon="-1.787030047270953"><ele>739.0</ele><time>2026-05-03T15:15:44Z</time></trkpt><trkpt lat="41.46563800276932" lon="-1.7869935335608198"><ele>739.0</ele><time>2026-05-03T15:15:45Z</time></trkpt><trkpt lat="41.46557345983605" lon="-1.7869529701287223"><ele>739.0</ele><time>2026-05-03T15:15:46Z</time></trkpt><trkpt lat="41.46550385202741" lon="-1.7869141505489112"><ele>739.0</ele><time>2026-05-03T15:15:47Z</time></trkpt><trkpt lat="41.46544003663832" lon="-1.7868799626058396"><ele>739.0</ele><time>2026-05-03T15:15:48Z</time></trkpt><trkpt lat="41.46536284468811" lon="-1.786849989381555"><ele>739.0</ele><time>2026-05-03T15:15:49Z</time></trkpt><trkpt lat="41.46529386197269" lon="-1.7868135687034763"><ele>739.0</ele><time>2026-05-03T15:15:50Z</time></trkpt><trkpt lat="41.46522097569858" lon="-1.7867735347384022"><ele>739.5</ele><time>2026-05-03T15:15:51Z</time></trkpt><trkpt lat="41.46514702076298" lon="-1.7867361900456387"><ele>740.0</ele><time>2026-05-03T15:15:52Z</time></trkpt><trkpt lat="41.465072472047005" lon="-1.7866985071010868"><ele>740.5</ele><time>2026-05-03T15:15:53Z</time></trkpt><trkpt lat="41.46500009959193" lon="-1.7866634461683766"><ele>741.0</ele><time>2026-05-03T15:15:54Z</time></trkpt><trkpt lat="41.46492459995608" lon="-1.786621455475099"><ele>741.5</ele><time>2026-05-03T15:15:55Z</time></trkpt><trkpt lat="41.464848256672404" lon="-1.7865832830474258"><ele>742.0</ele><time>2026-05-03T15:15:56Z</time></trkpt><trkpt lat="41.46477026410037" lon="-1.7865412330655235"><ele>742.0</ele><time>2026-05-03T15:15:57Z</time></trkpt><trkpt lat="41.464692898428275" lon="-1.78649858042933"><ele>742.0</ele><time>2026-05-03T15:15:58Z</time></trkpt><trkpt lat="41.464613081469466" lon="-1.7864554690372316"><ele>742.0</ele><time>2026-05-03T15:15:59Z</time></trkpt><trkpt lat="41.46452592004254" lon="-1.786446032189828"><ele>742.0</ele><time>2026-05-03T15:16:00Z</time></trkpt><trkpt lat="41.46444952588593" lon="-1.7864002180893777"><ele>742.0</ele><time>2026-05-03T15:16:01Z</time></trkpt><trkpt lat="41.464365135742945" lon="-1.7863444374825284"><ele>742.0</ele><time>2026-05-03T15:16:02Z</time></trkpt><trkpt lat="41.464288457546154" lon="-1.7862690442726445"><ele>741.6</ele><time>2026-05-03T15:16:03Z</time></trkpt><trkpt lat="41.464215751105485" lon="-1.7861917613793898"><ele>741.2</ele><time>2026-05-03T15:16:04Z</time></trkpt><trkpt lat="41.46414391188853" lon="-1.7861142032637563"><ele>740.8</ele><time>2026-05-03T15:16:05Z</time></trkpt><trkpt lat="41.46407222866414" lon="-1.786036859906311"><ele>740.4</ele><time>2026-05-03T15:16:06Z</time></trkpt><trkpt lat="41.46400068484873" lon="-1.7859596658163432"><ele>740.0</ele><time>2026-05-03T15:16:07Z</time></trkpt><trkpt lat="41.46392746822262" lon="-1.7858806679871198"><ele>740.0</ele><time>2026-05-03T15:16:08Z</time></trkpt><trkpt lat="41.46385807140581" lon="-1.78580579159358"><ele>740.0</ele><time>2026-05-03T15:16:09Z</time></trkpt><trkpt lat="41.46379044149828" lon="-1.7857332164550954"><ele>740.0</ele><time>2026-05-03T15:16:10Z</time></trkpt><trkpt lat="41.46372421255082" lon="-1.7856628386849551"><ele>740.0</ele><time>2026-05-03T15:16:11Z</time></trkpt><trkpt lat="41.46365610973779" lon="-1.7855904696167408"><ele>740.0</ele><time>2026-05-03T15:16:12Z</time></trkpt><trkpt lat="41.46358818159043" lon="-1.7855173793847336"><ele>740.0</ele><time>2026-05-03T15:16:13Z</time></trkpt><trkpt lat="41.46352475937072" lon="-1.7854436870702235"><ele>739.5</ele><time>2026-05-03T15:16:14Z</time></trkpt><trkpt lat="41.4634751207812" lon="-1.7853518297856692"><ele>739.0</ele><time>2026-05-03T15:16:15Z</time></trkpt><trkpt lat="41.46341899356417" lon="-1.7852657614367202"><ele>738.5</ele><time>2026-05-03T15:16:16Z</time></trkpt><trkpt lat="41.46336451664816" lon="-1.7851780733494238"><ele>738.0</ele><time>2026-05-03T15:16:17Z</time></trkpt><trkpt lat="41.46330952463627" lon="-1.7850879982765422"><ele>737.5</ele><time>2026-05-03T15:16:18Z</time></trkpt><trkpt lat="41.46325084986486" lon="-1.7849946664085734"><ele>737.0</ele><time>2026-05-03T15:16:19Z</time></trkpt><trkpt lat="41.463193162493454" lon="-1.7849036197468222"><ele>737.0</ele><time>2026-05-03T15:16:20Z</time></trkpt><trkpt lat="41.46313728592643" lon="-1.7848106499772147"><ele>737.0</ele><time>2026-05-03T15:16:21Z</time></trkpt><trkpt lat="41.463077147681034" lon="-1.7847148317894017"><ele>737.0</ele><time>2026-05-03T15:16:22Z</time></trkpt><trkpt lat="41.463017854602725" lon="-1.784629535282875"><ele>737.0</ele><time>2026-05-03T15:16:23Z</time></trkpt><trkpt lat="41.46294842216444" lon="-1.7845536881078614"><ele>737.0</ele><time>2026-05-03T15:16:24Z</time></trkpt><trkpt lat="41.4628626573934" lon="-1.7845074908300966"><ele>736.6</ele><time>2026-05-03T15:16:25Z</time></trkpt><trkpt lat="41.46279098127208" lon="-1.7844328194137042"><ele>736.2</ele><time>2026-05-03T15:16:26Z</time></trkpt><trkpt lat="41.4627203001274" lon="-1.7843554485914088"><ele>735.8</ele><time>2026-05-03T15:16:27Z</time></trkpt><trkpt lat="41.46264691587434" lon="-1.7842744314121053"><ele>735.4</ele><time>2026-05-03T15:16:28Z</time></trkpt><trkpt lat="41.46258387599743" lon="-1.7841773046559677"><ele>735.0</ele><time>2026-05-03T15:16:29Z</time></trkpt><trkpt lat="41.462512993168254" lon="-1.7840984482303492"><ele>735.0</ele><time>2026-05-03T15:16:30Z</time></trkpt><trkpt lat="41.46243232868932" lon="-1.7840274014237587"><ele>735.0</ele><time>2026-05-03T15:16:31.001Z</time></trkpt><trkpt lat="41.46237450842142" lon="-1.7839387982392372"><ele>735.0</ele><time>2026-05-03T15:16:32.001Z</time></trkpt><trkpt lat="41.46231911483573" lon="-1.7838327647312686"><ele>735.0</ele><time>2026-05-03T15:16:33.001Z</time></trkpt><trkpt lat="41.462274833557125" lon="-1.7837235333254644"><ele>735.0</ele><time>2026-05-03T15:16:34.001Z</time></trkpt><trkpt lat="41.462240122213366" lon="-1.7836027026860308"><ele>735.3333333333334</ele><time>2026-05-03T15:16:35.001Z</time></trkpt><trkpt lat="41.46221099775341" lon="-1.7834846204353965"><ele>735.6666666666666</ele><time>2026-05-03T15:16:36.001Z</time></trkpt><trkpt lat="41.462188944102245" lon="-1.7833707562813532"><ele>736.0</ele><time>2026-05-03T15:16:37.001Z</time></trkpt><trkpt lat="41.46216978551311" lon="-1.78325614947809"><ele>736.3333333333333</ele><time>2026-05-03T15:16:38.001Z</time></trkpt><trkpt lat="41.462150255994416" lon="-1.783141358439647"><ele>736.6666666666666</ele><time>2026-05-03T15:16:39.001Z</time></trkpt><trkpt lat="41.462130143925016" lon="-1.783023143302692"><ele>737.0</ele><time>2026-05-03T15:16:40.001Z</time></trkpt><trkpt lat="41.4621112615012" lon="-1.7829121555094685"><ele>736.8333333333333</ele><time>2026-05-03T15:16:41.001Z</time></trkpt><trkpt lat="41.46209188272099" lon="-1.7828012623537572"><ele>736.6666666666666</ele><time>2026-05-03T15:16:42.001Z</time></trkpt><trkpt lat="41.46207229880361" lon="-1.782688475140754"><ele>736.5</ele><time>2026-05-03T15:16:43.001Z</time></trkpt><trkpt lat="41.462054737148335" lon="-1.7825821433396762"><ele>736.3333333333334</ele><time>2026-05-03T15:16:44.001Z</time></trkpt><trkpt lat="41.46203623801193" lon="-1.7824719971574288"><ele>736.1666666666667</ele><time>2026-05-03T15:16:45.001Z</time></trkpt><trkpt lat="41.46201669849171" lon="-1.7823618186876373"><ele>736.0</ele><time>2026-05-03T15:16:46.001Z</time></trkpt><trkpt lat="41.461996707515716" lon="-1.782250300399039"><ele>736.0</ele><time>2026-05-03T15:16:47.001Z</time></trkpt><trkpt lat="41.461976999171355" lon="-1.7821403587608027"><ele>736.0</ele><time>2026-05-03T15:16:48.001Z</time></trkpt><trkpt lat="41.46195795489611" lon="-1.7820341215548254"><ele>736.0</ele><time>2026-05-03T15:16:49.001Z</time></trkpt><trkpt lat="41.46193781549857" lon="-1.7819217749900802"><ele>736.0</ele><time>2026-05-03T15:16:50.001Z</time></trkpt><trkpt lat="41.46191886804648" lon="-1.7818175866597525"><ele>736.0</ele><time>2026-05-03T15:16:51.001Z</time></trkpt><trkpt lat="41.46189912749191" lon="-1.7817167052432819"><ele>736.0</ele><time>2026-05-03T15:16:52.001Z</time></trkpt><trkpt lat="41.46187109668332" lon="-1.7816226366576697"><ele>737.1666666666667</ele><time>2026-05-03T15:16:53.001Z</time></trkpt><trkpt lat="41.461836363042906" lon="-1.7815218935724688"><ele>738.3333333333334</ele><time>2026-05-03T15:16:54.001Z</time></trkpt><trkpt lat="41.461798158633044" lon="-1.7814262868970332"><ele>739.5</ele><time>2026-05-03T15:16:55.001Z</time></trkpt><trkpt lat="41.461734069729694" lon="-1.7813583652813128"><ele>740.6666666666666</ele><time>2026-05-03T15:16:56.001Z</time></trkpt><trkpt lat="41.461668838292006" lon="-1.7812915721208669"><ele>741.8333333333333</ele><time>2026-05-03T15:16:57.001Z</time></trkpt><trkpt lat="41.461601606142814" lon="-1.7812362718153538"><ele>743.0</ele><time>2026-05-03T15:16:58.001Z</time></trkpt><trkpt lat="41.46153143317837" lon="-1.7811846432231526"><ele>743.0</ele><time>2026-05-03T15:16:59.001Z</time></trkpt><trkpt lat="41.461456787816" lon="-1.7811364765071864"><ele>743.0</ele><time>2026-05-03T15:17:00.001Z</time></trkpt><trkpt lat="41.46137876912187" lon="-1.7810866208732137"><ele>743.0</ele><time>2026-05-03T15:17:01.001Z</time></trkpt><trkpt lat="41.4613020321866" lon="-1.781042478019774"><ele>743.0</ele><time>2026-05-03T15:17:02.001Z</time></trkpt><trkpt lat="41.46122646056735" lon="-1.7809900850191396"><ele>743.0</ele><time>2026-05-03T15:17:03.001Z</time></trkpt><trkpt lat="41.46115350692768" lon="-1.7809341959829565"><ele>743.0</ele><time>2026-05-03T15:17:04.001Z</time></trkpt><trkpt lat="41.46107895816745" lon="-1.7808736080119714"><ele>743.5999999999999</ele><time>2026-05-03T15:17:05.001Z</time></trkpt><trkpt lat="41.46100530167817" lon="-1.7808151758791542"><ele>744.1999999999999</ele><time>2026-05-03T15:17:06.001Z</time></trkpt><trkpt lat="41.460922146753" lon="-1.7807715187777242"><ele>744.8</ele><time>2026-05-03T15:17:07.001Z</time></trkpt><trkpt lat="41.460847383945904" lon="-1.7807006229117195"><ele>745.4</ele><time>2026-05-03T15:17:08.001Z</time></trkpt><trkpt lat="41.46078356607583" lon="-1.780609087760085"><ele>746.0</ele><time>2026-05-03T15:17:09.001Z</time></trkpt><trkpt lat="41.46070532774712" lon="-1.780546607425809"><ele>746.0</ele><time>2026-05-03T15:17:10.001Z</time></trkpt><trkpt lat="41.460633010730945" lon="-1.7804621069515734"><ele>746.0</ele><time>2026-05-03T15:17:11.001Z</time></trkpt><trkpt lat="41.46056354414023" lon="-1.7803719988027242"><ele>746.0</ele><time>2026-05-03T15:17:12.001Z</time></trkpt><trkpt lat="41.460498144345046" lon="-1.7802775642491577"><ele>746.0</ele><time>2026-05-03T15:17:13.001Z</time></trkpt><trkpt lat="41.460432621194684" lon="-1.780174854569227"><ele>746.0</ele><time>2026-05-03T15:17:14.001Z</time></trkpt><trkpt lat="41.46037070479858" lon="-1.7800692194899899"><ele>744.5999999999999</ele><time>2026-05-03T15:17:15.001Z</time></trkpt><trkpt lat="41.460313217923165" lon="-1.779957302008814"><ele>743.2</ele><time>2026-05-03T15:17:16.001Z</time></trkpt><trkpt lat="41.4602591356475" lon="-1.7798384381304053"><ele>741.8</ele><time>2026-05-03T15:17:17.001Z</time></trkpt><trkpt lat="41.46020669284543" lon="-1.779715756246202"><ele>740.4000000000001</ele><time>2026-05-03T15:17:18.001Z</time></trkpt><trkpt lat="41.46015467477855" lon="-1.7795914060265643"><ele>739.0</ele><time>2026-05-03T15:17:19.001Z</time></trkpt><trkpt lat="41.460101282759254" lon="-1.7794637707301144"><ele>739.0</ele><time>2026-05-03T15:17:20.001Z</time></trkpt><trkpt lat="41.46005576602257" lon="-1.7793383729901526"><ele>739.0</ele><time>2026-05-03T15:17:21.001Z</time></trkpt><trkpt lat="41.46001628658835" lon="-1.7792212168355581"><ele>739.0</ele><time>2026-05-03T15:17:22.001Z</time></trkpt><trkpt lat="41.45997769163943" lon="-1.779106685424169"><ele>739.0</ele><time>2026-05-03T15:17:23.001Z</time></trkpt><trkpt lat="41.45993983445577" lon="-1.7789943433354298"><ele>739.0</ele><time>2026-05-03T15:17:24.001Z</time></trkpt><trkpt lat="41.459898907517065" lon="-1.7788775847269194"><ele>739.0</ele><time>2026-05-03T15:17:25.001Z</time></trkpt><trkpt lat="41.45986910096823" lon="-1.77875059697902"><ele>739.0</ele><time>2026-05-03T15:17:26.001Z</time></trkpt><trkpt lat="41.45980606016896" lon="-1.7786434346110018"><ele>739.0</ele><time>2026-05-03T15:17:27.001Z</time></trkpt><trkpt lat="41.45975034784441" lon="-1.7785263580826616"><ele>739.0</ele><time>2026-05-03T15:17:28.001Z</time></trkpt><trkpt lat="41.45970259286647" lon="-1.7783981559093756"><ele>739.0</ele><time>2026-05-03T15:17:29.001Z</time></trkpt><trkpt lat="41.45962141640361" lon="-1.7783062375081882"><ele>739.4000000000001</ele><time>2026-05-03T15:17:30.001Z</time></trkpt><trkpt lat="41.459560163553164" lon="-1.7781913561824967"><ele>739.8</ele><time>2026-05-03T15:17:31.001Z</time></trkpt><trkpt lat="41.45948300264262" lon="-1.7780974719052802"><ele>740.2</ele><time>2026-05-03T15:17:32.001Z</time></trkpt><trkpt lat="41.45940503321124" lon="-1.7780073482508054"><ele>740.5999999999999</ele><time>2026-05-03T15:17:33.001Z</time></trkpt><trkpt lat="41.45932066442753" lon="-1.7779266161404783"><ele>741.0</ele><time>2026-05-03T15:17:34.001Z</time></trkpt><trkpt lat="41.45923190785565" lon="-1.7778577123098045"><ele>741.0</ele><time>2026-05-03T15:17:35.001Z</time></trkpt><trkpt lat="41.45913872633893" lon="-1.7778003038713825"><ele>741.0</ele><time>2026-05-03T15:17:36.001Z</time></trkpt><trkpt lat="41.459044923622855" lon="-1.7777498313183784"><ele>741.0</ele><time>2026-05-03T15:17:37.001Z</time></trkpt><trkpt lat="41.45894389313155" lon="-1.7777018911527742"><ele>741.0</ele><time>2026-05-03T15:17:37.998Z</time></trkpt><trkpt lat="41.458844331911266" lon="-1.7776658734884287"><ele>741.0</ele><time>2026-05-03T15:17:38.998Z</time></trkpt><trkpt lat="41.45874168804573" lon="-1.7776343029656663"><ele>741.5999999999999</ele><time>2026-05-03T15:17:39.998Z</time></trkpt><trkpt lat="41.458638238890025" lon="-1.7776083555143254"><ele>742.2</ele><time>2026-05-03T15:17:40.998Z</time></trkpt><trkpt lat="41.458535133748406" lon="-1.7775811494999654"><ele>742.8</ele><time>2026-05-03T15:17:41.998Z</time></trkpt><trkpt lat="41.45843338982739" lon="-1.7775505384814811"><ele>743.4000000000001</ele><time>2026-05-03T15:17:42.998Z</time></trkpt><trkpt lat="41.45832922466498" lon="-1.7775231783931928"><ele>744.0</ele><time>2026-05-03T15:17:43.998Z</time></trkpt><trkpt lat="41.458223406980935" lon="-1.7774929182583052"><ele>744.0</ele><time>2026-05-03T15:17:44.998Z</time></trkpt><trkpt lat="41.458119885530984" lon="-1.7774600062925185"><ele>744.0</ele><time>2026-05-03T15:17:45.998Z</time></trkpt><trkpt lat="41.45801736268165" lon="-1.7774236567760608"><ele>744.0</ele><time>2026-05-03T15:17:46.998Z</time></trkpt><trkpt lat="41.45791424893717" lon="-1.777383362833286"><ele>744.0</ele><time>2026-05-03T15:17:47.998Z</time></trkpt><trkpt lat="41.45781358615585" lon="-1.7773357789656508"><ele>744.0</ele><time>2026-05-03T15:17:48.998Z</time></trkpt><trkpt lat="41.45771458876113" lon="-1.7772769227746266"><ele>743.0</ele><time>2026-05-03T15:17:49.998Z</time></trkpt><trkpt lat="41.45761579902098" lon="-1.7772130283630192"><ele>742.0</ele><time>2026-05-03T15:17:50.998Z</time></trkpt><trkpt lat="41.45751904645578" lon="-1.7771403497627336"><ele>741.0</ele><time>2026-05-03T15:17:51.998Z</time></trkpt><trkpt lat="41.457426142543305" lon="-1.7770616229325273"><ele>740.0</ele><time>2026-05-03T15:17:52.998Z</time></trkpt><trkpt lat="41.45733926779866" lon="-1.7769688920975948"><ele>739.0</ele><time>2026-05-03T15:17:53.998Z</time></trkpt><trkpt lat="41.45724433539165" lon="-1.7768878824677983"><ele>739.0</ele><time>2026-05-03T15:17:54.999Z</time></trkpt><trkpt lat="41.45715833519668" lon="-1.7767877866443824"><ele>739.0</ele><time>2026-05-03T15:17:55.999Z</time></trkpt><trkpt lat="41.4570741591241" lon="-1.7766820435070494"><ele>739.0</ele><time>2026-05-03T15:17:56.999Z</time></trkpt><trkpt lat="41.45699009836834" lon="-1.7765715504791049"><ele>739.0</ele><time>2026-05-03T15:17:57.999Z</time></trkpt><trkpt lat="41.45691271410246" lon="-1.7764542327978912"><ele>738.25</ele><time>2026-05-03T15:17:58.999Z</time></trkpt><trkpt lat="41.456833512022286" lon="-1.7763412914783636"><ele>737.5</ele><time>2026-05-03T15:17:59.999Z</time></trkpt><trkpt lat="41.45674851757857" lon="-1.7762332634244171"><ele>736.75</ele><time>2026-05-03T15:18:00.999Z</time></trkpt><trkpt lat="41.456667249978764" lon="-1.7761179910801561"><ele>736.0</ele><time>2026-05-03T15:18:01.999Z</time></trkpt><trkpt lat="41.45658421682583" lon="-1.7760099711535298"><ele>736.0</ele><time>2026-05-03T15:18:02.999Z</time></trkpt><trkpt lat="41.45650534967539" lon="-1.7758990012117815"><ele>736.0</ele><time>2026-05-03T15:18:03.999Z</time></trkpt><trkpt lat="41.4564272668623" lon="-1.775790947032783"><ele>736.0</ele><time>2026-05-03T15:18:04.999Z</time></trkpt><trkpt lat="41.456347674278476" lon="-1.775689162128604"><ele>736.0</ele><time>2026-05-03T15:18:05.999Z</time></trkpt><trkpt lat="41.456272265929044" lon="-1.7755884130867292"><ele>736.0</ele><time>2026-05-03T15:18:06.999Z</time></trkpt><trkpt lat="41.45620018453912" lon="-1.775483506630586"><ele>735.5999999999999</ele><time>2026-05-03T15:18:07.999Z</time></trkpt><trkpt lat="41.45612558194734" lon="-1.7753805531802906"><ele>735.2</ele><time>2026-05-03T15:18:08.999Z</time></trkpt><trkpt lat="41.456056817019956" lon="-1.775269428611846"><ele>734.8</ele><time>2026-05-03T15:18:09.999Z</time></trkpt><trkpt lat="41.455992359077364" lon="-1.77516119282539"><ele>734.4000000000001</ele><time>2026-05-03T15:18:10.999Z</time></trkpt><trkpt lat="41.455925731499576" lon="-1.7750506971719224"><ele>734.0</ele><time>2026-05-03T15:18:11.999Z</time></trkpt><trkpt lat="41.4558665522829" lon="-1.774941803345115"><ele>735.0</ele><time>2026-05-03T15:18:12.999Z</time></trkpt><trkpt lat="41.45581668940467" lon="-1.7748286450323565"><ele>736.0</ele><time>2026-05-03T15:18:13.999Z</time></trkpt><trkpt lat="41.45576046042943" lon="-1.7747153349045732"><ele>737.0</ele><time>2026-05-03T15:18:14.999Z</time></trkpt><trkpt lat="41.455710734709534" lon="-1.7745971956587994"><ele>738.0</ele><time>2026-05-03T15:18:15.999Z</time></trkpt><trkpt lat="41.455666976757975" lon="-1.7744795154629092"><ele>739.0</ele><time>2026-05-03T15:18:16.999Z</time></trkpt><trkpt lat="41.455626843481966" lon="-1.7743621626878654"><ele>740.6</ele><time>2026-05-03T15:18:17.999Z</time></trkpt><trkpt lat="41.45559235686025" lon="-1.7742450661700175"><ele>742.2</ele><time>2026-05-03T15:18:19Z</time></trkpt><trkpt lat="41.45555605556935" lon="-1.7741279415535451"><ele>743.8000000000001</ele><time>2026-05-03T15:18:20Z</time></trkpt><trkpt lat="41.4555251468252" lon="-1.774009761363721"><ele>745.4000000000001</ele><time>2026-05-03T15:18:21Z</time></trkpt><trkpt lat="41.45549976758064" lon="-1.7738846919094222"><ele>747.0</ele><time>2026-05-03T15:18:22Z</time></trkpt><trkpt lat="41.45548327388542" lon="-1.7737603029871076"><ele>747.0</ele><time>2026-05-03T15:18:23Z</time></trkpt><trkpt lat="41.45546017536214" lon="-1.7736389575166807"><ele>747.0</ele><time>2026-05-03T15:18:24Z</time></trkpt><trkpt lat="41.45543527308281" lon="-1.7735167968131675"><ele>747.0</ele><time>2026-05-03T15:18:25Z</time></trkpt><trkpt lat="41.45542695937306" lon="-1.7733932240069266"><ele>747.0</ele><time>2026-05-03T15:18:26Z</time></trkpt><trkpt lat="41.4554140135823" lon="-1.7732673230695393"><ele>747.0</ele><time>2026-05-03T15:18:27Z</time></trkpt><trkpt lat="41.455402289449815" lon="-1.7731396735419531"><ele>746.6</ele><time>2026-05-03T15:18:28Z</time></trkpt><trkpt lat="41.455391408489" lon="-1.773012520416977"><ele>746.2</ele><time>2026-05-03T15:18:29Z</time></trkpt><trkpt lat="41.45537926899586" lon="-1.7728827952393278"><ele>745.8</ele><time>2026-05-03T15:18:30Z</time></trkpt><trkpt lat="41.455374545136955" lon="-1.7727543583015073"><ele>745.4</ele><time>2026-05-03T15:18:31Z</time></trkpt><trkpt lat="41.45536787832414" lon="-1.7726212859198949"><ele>745.0</ele><time>2026-05-03T15:18:32Z</time></trkpt><trkpt lat="41.45535743275433" lon="-1.772488229105769"><ele>745.0</ele><time>2026-05-03T15:18:33Z</time></trkpt><trkpt lat="41.455349041634456" lon="-1.7723545432388454"><ele>745.0</ele><time>2026-05-03T15:18:34Z</time></trkpt><trkpt lat="41.45533275403912" lon="-1.77222019371273"><ele>745.0</ele><time>2026-05-03T15:18:35Z</time></trkpt><trkpt lat="41.455317987061676" lon="-1.7720859010976755"><ele>745.0</ele><time>2026-05-03T15:18:36Z</time></trkpt><trkpt lat="41.455295936992655" lon="-1.7719539882039668"><ele>745.0</ele><time>2026-05-03T15:18:37Z</time></trkpt><trkpt lat="41.45527229798222" lon="-1.7718211537255448"><ele>746.0</ele><time>2026-05-03T15:18:38Z</time></trkpt><trkpt lat="41.45523443199124" lon="-1.7716910437938522"><ele>747.0</ele><time>2026-05-03T15:18:39Z</time></trkpt><trkpt lat="41.455200938459654" lon="-1.7715554393692483"><ele>748.0</ele><time>2026-05-03T15:18:40Z</time></trkpt><trkpt lat="41.4551736628715" lon="-1.7714256555765422"><ele>749.0</ele><time>2026-05-03T15:18:41Z</time></trkpt><trkpt lat="41.45513979709922" lon="-1.7712996639164449"><ele>750.0</ele><time>2026-05-03T15:18:42Z</time></trkpt><trkpt lat="41.455099111278805" lon="-1.771169086856705"><ele>750.0</ele><time>2026-05-03T15:18:43Z</time></trkpt><trkpt lat="41.4550516312739" lon="-1.771041510431816"><ele>750.0</ele><time>2026-05-03T15:18:44Z</time></trkpt><trkpt lat="41.455000902486915" lon="-1.7709175362948752"><ele>750.0</ele><time>2026-05-03T15:18:45Z</time></trkpt><trkpt lat="41.45493090378778" lon="-1.7707993854211541"><ele>750.0</ele><time>2026-05-03T15:18:46Z</time></trkpt><trkpt lat="41.454883217154936" lon="-1.7706726422144365"><ele>750.0</ele><time>2026-05-03T15:18:47Z</time></trkpt><trkpt lat="41.45482603348344" lon="-1.770553775397583"><ele>750.4</ele><time>2026-05-03T15:18:48Z</time></trkpt><trkpt lat="41.45476688555012" lon="-1.770438558158072"><ele>750.8</ele><time>2026-05-03T15:18:49Z</time></trkpt><trkpt lat="41.45470708657161" lon="-1.7703204594669746"><ele>751.2</ele><time>2026-05-03T15:18:50Z</time></trkpt><trkpt lat="41.45464027569447" lon="-1.7702060663075792"><ele>751.6</ele><time>2026-05-03T15:18:51Z</time></trkpt><trkpt lat="41.45458005609342" lon="-1.770086342233684"><ele>752.0</ele><time>2026-05-03T15:18:52Z</time></trkpt><trkpt lat="41.454515720081055" lon="-1.7699676104194157"><ele>750.25</ele><time>2026-05-03T15:18:53Z</time></trkpt><trkpt lat="41.45445536588754" lon="-1.769846033664639"><ele>748.5</ele><time>2026-05-03T15:18:54Z</time></trkpt><trkpt lat="41.45439373582647" lon="-1.7697194893741401"><ele>746.75</ele><time>2026-05-03T15:18:55Z</time></trkpt><trkpt lat="41.45433763368379" lon="-1.7695886706866026"><ele>745.0</ele><time>2026-05-03T15:18:56Z</time></trkpt><trkpt lat="41.45428209394334" lon="-1.7694538500678885"><ele>743.75</ele><time>2026-05-03T15:18:57Z</time></trkpt><trkpt lat="41.4542318418593" lon="-1.7693189728298393"><ele>742.5</ele><time>2026-05-03T15:18:58Z</time></trkpt><trkpt lat="41.454179042434426" lon="-1.7691845764036676"><ele>741.25</ele><time>2026-05-03T15:18:59Z</time></trkpt><trkpt lat="41.45413921870036" lon="-1.7690321053267934"><ele>740.0</ele><time>2026-05-03T15:19:00Z</time></trkpt><trkpt lat="41.45410300006512" lon="-1.7688859274361046"><ele>740.0</ele><time>2026-05-03T15:19:01Z</time></trkpt><trkpt lat="41.45406900490669" lon="-1.7687383897742697"><ele>740.0</ele><time>2026-05-03T15:19:02Z</time></trkpt><trkpt lat="41.45403681816753" lon="-1.7685897394550358"><ele>740.0</ele><time>2026-05-03T15:19:03Z</time></trkpt><trkpt lat="41.45400848727499" lon="-1.768436557870629"><ele>740.0</ele><time>2026-05-03T15:19:04Z</time></trkpt><trkpt lat="41.45398559195387" lon="-1.7682812435039024"><ele>738.5</ele><time>2026-05-03T15:19:05Z</time></trkpt><trkpt lat="41.453961239134195" lon="-1.7681255940197942"><ele>737.0</ele><time>2026-05-03T15:19:06Z</time></trkpt><trkpt lat="41.45394107675434" lon="-1.767970982888253"><ele>735.5</ele><time>2026-05-03T15:19:07Z</time></trkpt><trkpt lat="41.45391693663687" lon="-1.767818810914747"><ele>734.0</ele><time>2026-05-03T15:19:08Z</time></trkpt><trkpt lat="41.45389224823046" lon="-1.7676659700460786"><ele>732.75</ele><time>2026-05-03T15:19:09.001Z</time></trkpt><trkpt lat="41.45387307670153" lon="-1.7675104217224458"><ele>731.5</ele><time>2026-05-03T15:19:10.001Z</time></trkpt><trkpt lat="41.453848406978466" lon="-1.7673571752254191"><ele>730.25</ele><time>2026-05-03T15:19:11.001Z</time></trkpt><trkpt lat="41.45382724687527" lon="-1.767206352309164"><ele>729.0</ele><time>2026-05-03T15:19:12.001Z</time></trkpt><trkpt lat="41.45380196484444" lon="-1.7670584980341786"><ele>728.75</ele><time>2026-05-03T15:19:13.001Z</time></trkpt><trkpt lat="41.45377802399074" lon="-1.7669092242802509"><ele>728.5</ele><time>2026-05-03T15:19:14.001Z</time></trkpt><trkpt lat="41.45375878682744" lon="-1.7667540738069454"><ele>728.25</ele><time>2026-05-03T15:19:15.001Z</time></trkpt><trkpt lat="41.45373596561864" lon="-1.7666027681953713"><ele>728.0</ele><time>2026-05-03T15:19:16.001Z</time></trkpt><trkpt lat="41.453713526825815" lon="-1.7664542802686425"><ele>726.75</ele><time>2026-05-03T15:19:17.001Z</time></trkpt><trkpt lat="41.45368907488784" lon="-1.7663061665047004"><ele>725.5</ele><time>2026-05-03T15:19:18.001Z</time></trkpt><trkpt lat="41.453664997929735" lon="-1.7661562834045859"><ele>724.25</ele><time>2026-05-03T15:19:19.001Z</time></trkpt><trkpt lat="41.453645584435975" lon="-1.7660044989384722"><ele>723.0</ele><time>2026-05-03T15:19:20.001Z</time></trkpt><trkpt lat="41.45362274778879" lon="-1.765853565808827"><ele>722.2</ele><time>2026-05-03T15:19:21.001Z</time></trkpt><trkpt lat="41.45359764330508" lon="-1.7657041457933587"><ele>721.4</ele><time>2026-05-03T15:19:22.001Z</time></trkpt><trkpt lat="41.45356611629519" lon="-1.7655605078021084"><ele>720.6</ele><time>2026-05-03T15:19:23.001Z</time></trkpt><trkpt lat="41.453539672255346" lon="-1.765413870199086"><ele>719.8000000000001</ele><time>2026-05-03T15:19:24.001Z</time></trkpt><trkpt lat="41.45350934910248" lon="-1.7652747875658137"><ele>719.0</ele><time>2026-05-03T15:19:25.001Z</time></trkpt><trkpt lat="41.45347394668591" lon="-1.7651408250237055"><ele>721.5</ele><time>2026-05-03T15:19:26.001Z</time></trkpt><trkpt lat="41.45343823628106" lon="-1.7650060201177546"><ele>724.0</ele><time>2026-05-03T15:19:27.001Z</time></trkpt><trkpt lat="41.45338280426885" lon="-1.7648830120373884"><ele>726.5</ele><time>2026-05-03T15:19:28.001Z</time></trkpt><trkpt lat="41.45333865482554" lon="-1.7647541151606438"><ele>729.0</ele><time>2026-05-03T15:19:29.001Z</time></trkpt><trkpt lat="41.45324763861048" lon="-1.764500809061594"><ele>729.0</ele><time>2026-05-03T15:19:31.001Z</time></trkpt><trkpt lat="41.45321071920961" lon="-1.7643682042323574"><ele>729.0</ele><time>2026-05-03T15:19:32.001Z</time></trkpt><trkpt lat="41.45316013552732" lon="-1.7642462551999158"><ele>729.0</ele><time>2026-05-03T15:19:33.001Z</time></trkpt><trkpt lat="41.45310375914189" lon="-1.7641244393007203"><ele>729.0</ele><time>2026-05-03T15:19:34.001Z</time></trkpt><trkpt lat="41.4530459766938" lon="-1.7640104092119293"><ele>729.0</ele><time>2026-05-03T15:19:35.001Z</time></trkpt><trkpt lat="41.45298482163566" lon="-1.7638936469928594"><ele>729.6</ele><time>2026-05-03T15:19:36.001Z</time></trkpt><trkpt lat="41.452919609276634" lon="-1.7637812605433387"><ele>730.2</ele><time>2026-05-03T15:19:37.001Z</time></trkpt><trkpt lat="41.45285338535547" lon="-1.763669563479854"><ele>730.8000000000001</ele><time>2026-05-03T15:19:38.001Z</time></trkpt><trkpt lat="41.4527833655508" lon="-1.763559831613983"><ele>731.4000000000001</ele><time>2026-05-03T15:19:39.001Z</time></trkpt><trkpt lat="41.45271154821086" lon="-1.763452715444122"><ele>732.0</ele><time>2026-05-03T15:19:40.001Z</time></trkpt><trkpt lat="41.45263683644944" lon="-1.7633505023596083"><ele>732.0</ele><time>2026-05-03T15:19:41.001Z</time></trkpt><trkpt lat="41.452561359351975" lon="-1.7632503517517681"><ele>732.0</ele><time>2026-05-03T15:19:42.001Z</time></trkpt><trkpt lat="41.45248454161222" lon="-1.76315227444724"><ele>732.0</ele><time>2026-05-03T15:19:43.001Z</time></trkpt><trkpt lat="41.45240114863193" lon="-1.7630600180615281"><ele>732.0</ele><time>2026-05-03T15:19:43.999Z</time></trkpt><trkpt lat="41.45231975624201" lon="-1.7629635283721912"><ele>732.0</ele><time>2026-05-03T15:19:44.999Z</time></trkpt><trkpt lat="41.45223529759526" lon="-1.7628751542347132"><ele>732.0</ele><time>2026-05-03T15:19:45.999Z</time></trkpt><trkpt lat="41.45214828930541" lon="-1.7627915901712339"><ele>732.0</ele><time>2026-05-03T15:19:46.999Z</time></trkpt><trkpt lat="41.45205789711371" lon="-1.762707254391746"><ele>732.0</ele><time>2026-05-03T15:19:47.999Z</time></trkpt><trkpt lat="41.45196340959566" lon="-1.7626298967673033"><ele>732.0</ele><time>2026-05-03T15:19:48.999Z</time></trkpt><trkpt lat="41.451873449950696" lon="-1.7625519084878778"><ele>732.0</ele><time>2026-05-03T15:19:49.999Z</time></trkpt><trkpt lat="41.4517784532889" lon="-1.7624768750000148"><ele>730.6</ele><time>2026-05-03T15:19:50.999Z</time></trkpt><trkpt lat="41.451683882503495" lon="-1.7623982430464118"><ele>729.2</ele><time>2026-05-03T15:19:51.999Z</time></trkpt><trkpt lat="41.45158917064288" lon="-1.7623200489348088"><ele>727.8</ele><time>2026-05-03T15:19:52.999Z</time></trkpt><trkpt lat="41.45149416321373" lon="-1.7622409668318078"><ele>726.4</ele><time>2026-05-03T15:19:53.999Z</time></trkpt><trkpt lat="41.45139899600166" lon="-1.7621620800903313"><ele>725.0</ele><time>2026-05-03T15:19:54.999Z</time></trkpt><trkpt lat="41.451310407975924" lon="-1.7620868528370235"><ele>723.3333333333333</ele><time>2026-05-03T15:19:55.999Z</time></trkpt><trkpt lat="41.45121860233721" lon="-1.76200909857931"><ele>721.6666666666666</ele><time>2026-05-03T15:19:56.999Z</time></trkpt><trkpt lat="41.45101443005013" lon="-1.7618503066341098"><ele>720.0</ele><time>2026-05-03T15:19:58.999Z</time></trkpt><trkpt lat="41.45092039032783" lon="-1.7617716787300006"><ele>719.75</ele><time>2026-05-03T15:19:59.999Z</time></trkpt><trkpt lat="41.450815566814896" lon="-1.7616920252709802"><ele>719.5</ele><time>2026-05-03T15:20:00.999Z</time></trkpt><trkpt lat="41.450722243461016" lon="-1.7616127285395062"><ele>719.25</ele><time>2026-05-03T15:20:01.999Z</time></trkpt><trkpt lat="41.45062355902452" lon="-1.761531184599091"><ele>719.0</ele><time>2026-05-03T15:20:02.999Z</time></trkpt><trkpt lat="41.45053653248431" lon="-1.761454632588638"><ele>718.25</ele><time>2026-05-03T15:20:03.999Z</time></trkpt><trkpt lat="41.45043852438331" lon="-1.761376773029877"><ele>717.5</ele><time>2026-05-03T15:20:05Z</time></trkpt><trkpt lat="41.45033525424074" lon="-1.7612923140606578"><ele>716.75</ele><time>2026-05-03T15:20:06Z</time></trkpt><trkpt lat="41.45023269985912" lon="-1.761215406331156"><ele>716.0</ele><time>2026-05-03T15:20:07Z</time></trkpt><trkpt lat="41.450131763458124" lon="-1.7611350725616628"><ele>716.0</ele><time>2026-05-03T15:20:08Z</time></trkpt><trkpt lat="41.450031621896166" lon="-1.7610568482816888"><ele>716.0</ele><time>2026-05-03T15:20:09Z</time></trkpt><trkpt lat="41.44993526698256" lon="-1.760977918196173"><ele>716.0</ele><time>2026-05-03T15:20:10Z</time></trkpt><trkpt lat="41.44983787638588" lon="-1.7609015271921635"><ele>716.0</ele><time>2026-05-03T15:20:11Z</time></trkpt><trkpt lat="41.449737453852045" lon="-1.760823004513459"><ele>716.0</ele><time>2026-05-03T15:20:12Z</time></trkpt><trkpt lat="41.44963875753479" lon="-1.7607434049160915"><ele>716.0</ele><time>2026-05-03T15:20:13Z</time></trkpt><trkpt lat="41.449537536335406" lon="-1.7606638405557984"><ele>716.0</ele><time>2026-05-03T15:20:14Z</time></trkpt><trkpt lat="41.44943798603329" lon="-1.7605811708724162"><ele>716.0</ele><time>2026-05-03T15:20:15Z</time></trkpt><trkpt lat="41.449339725576756" lon="-1.7605021755502972"><ele>716.0</ele><time>2026-05-03T15:20:16Z</time></trkpt><trkpt lat="41.44924265562021" lon="-1.7604239592668687"><ele>716.0</ele><time>2026-05-03T15:20:17Z</time></trkpt><trkpt lat="41.44914292535434" lon="-1.7603446709774615"><ele>716.0</ele><time>2026-05-03T15:20:18Z</time></trkpt><trkpt lat="41.44904480107916" lon="-1.7602624612091187"><ele>716.0</ele><time>2026-05-03T15:20:19Z</time></trkpt><trkpt lat="41.448946995346006" lon="-1.7601810987378865"><ele>715.5</ele><time>2026-05-03T15:20:20Z</time></trkpt><trkpt lat="41.44884705707412" lon="-1.7601006786497233"><ele>715.0</ele><time>2026-05-03T15:20:21Z</time></trkpt><trkpt lat="41.44874815018765" lon="-1.7600220843421992"><ele>714.5</ele><time>2026-05-03T15:20:22Z</time></trkpt><trkpt lat="41.44864956258848" lon="-1.7599434759577204"><ele>714.0</ele><time>2026-05-03T15:20:23Z</time></trkpt><trkpt lat="41.448548919155094" lon="-1.759866655356415"><ele>714.0</ele><time>2026-05-03T15:20:24Z</time></trkpt><trkpt lat="41.44845094547641" lon="-1.7597841976235682"><ele>714.0</ele><time>2026-05-03T15:20:25Z</time></trkpt><trkpt lat="41.4483528677806" lon="-1.7597065983140427"><ele>714.0</ele><time>2026-05-03T15:20:26Z</time></trkpt><trkpt lat="41.448254304753384" lon="-1.7596271246842097"><ele>714.0</ele><time>2026-05-03T15:20:27Z</time></trkpt><trkpt lat="41.44815436830096" lon="-1.759553010062923"><ele>714.0</ele><time>2026-05-03T15:20:28Z</time></trkpt><trkpt lat="41.44805581485247" lon="-1.7594739881731911"><ele>714.0</ele><time>2026-05-03T15:20:29Z</time></trkpt><trkpt lat="41.44795832525778" lon="-1.7593893512640768"><ele>714.0</ele><time>2026-05-03T15:20:30Z</time></trkpt><trkpt lat="41.44785914636051" lon="-1.7593105939806415"><ele>714.0</ele><time>2026-05-03T15:20:31Z</time></trkpt><trkpt lat="41.447763913276624" lon="-1.7592193519722708"><ele>712.25</ele><time>2026-05-03T15:20:32Z</time></trkpt><trkpt lat="41.44765753169593" lon="-1.759148798344777"><ele>710.5</ele><time>2026-05-03T15:20:33Z</time></trkpt><trkpt lat="41.44757369422214" lon="-1.7590431009065093"><ele>708.75</ele><time>2026-05-03T15:20:34Z</time></trkpt><trkpt lat="41.44747126560295" lon="-1.7589679123478221"><ele>707.0</ele><time>2026-05-03T15:20:35Z</time></trkpt><trkpt lat="41.44738976383528" lon="-1.7588550982397058"><ele>707.0</ele><time>2026-05-03T15:20:36Z</time></trkpt><trkpt lat="41.44730016728036" lon="-1.7587594547491527"><ele>707.0</ele><time>2026-05-03T15:20:37Z</time></trkpt><trkpt lat="41.44721436997698" lon="-1.7586657763006945"><ele>707.0</ele><time>2026-05-03T15:20:38Z</time></trkpt><trkpt lat="41.44713113144227" lon="-1.758569577828219"><ele>707.0</ele><time>2026-05-03T15:20:39Z</time></trkpt><trkpt lat="41.447052018757084" lon="-1.758467382584566"><ele>707.0</ele><time>2026-05-03T15:20:40Z</time></trkpt><trkpt lat="41.44695985814032" lon="-1.7583525945316714"><ele>708.0</ele><time>2026-05-03T15:20:41Z</time></trkpt><trkpt lat="41.44687841123532" lon="-1.7582378412633641"><ele>709.0</ele><time>2026-05-03T15:20:42Z</time></trkpt><trkpt lat="41.4467758576515" lon="-1.758129988043002"><ele>710.0</ele><time>2026-05-03T15:20:43.001Z</time></trkpt><trkpt lat="41.44668284809757" lon="-1.758003516449117"><ele>711.0</ele><time>2026-05-03T15:20:44.001Z</time></trkpt><trkpt lat="41.44663287522999" lon="-1.7579136507881685"><ele>711.0</ele><time>2026-05-03T15:20:45.001Z</time></trkpt><trkpt lat="41.44654963380288" lon="-1.7578012131652296"><ele>711.0</ele><time>2026-05-03T15:20:46.001Z</time></trkpt><trkpt lat="41.44647427386506" lon="-1.7576928151376532"><ele>711.0</ele><time>2026-05-03T15:20:47.001Z</time></trkpt><trkpt lat="41.44640019294894" lon="-1.7575797021621793"><ele>711.0</ele><time>2026-05-03T15:20:48.001Z</time></trkpt><trkpt lat="41.446324277154126" lon="-1.7574494422755604"><ele>712.8</ele><time>2026-05-03T15:20:49.001Z</time></trkpt><trkpt lat="41.446271443024315" lon="-1.7573493293116378"><ele>714.5999999999999</ele><time>2026-05-03T15:20:50.001Z</time></trkpt><trkpt lat="41.44621573050731" lon="-1.7572799056427029"><ele>716.4</ele><time>2026-05-03T15:20:51.001Z</time></trkpt><trkpt lat="41.44616679288182" lon="-1.757195738035344"><ele>718.2</ele><time>2026-05-03T15:20:52.001Z</time></trkpt><trkpt lat="41.44605495904188" lon="-1.7570069939184716"><ele>720.0</ele><time>2026-05-03T15:20:53.001Z</time></trkpt><trkpt lat="41.44594470486136" lon="-1.7568487779387563"><ele>720.25</ele><time>2026-05-03T15:20:54.001Z</time></trkpt><trkpt lat="41.44584845301248" lon="-1.7566499875413943"><ele>720.5</ele><time>2026-05-03T15:20:55.001Z</time></trkpt><trkpt lat="41.44579384952354" lon="-1.7565097009294428"><ele>720.75</ele><time>2026-05-03T15:20:57.001Z</time></trkpt><trkpt lat="41.44573590825556" lon="-1.7563824579177507"><ele>721.0</ele><time>2026-05-03T15:20:58.001Z</time></trkpt><trkpt lat="41.44567938187009" lon="-1.7562565661097427"><ele>721.0</ele><time>2026-05-03T15:20:59.001Z</time></trkpt><trkpt lat="41.44562484496111" lon="-1.7561264901019362"><ele>721.0</ele><time>2026-05-03T15:21:00.001Z</time></trkpt><trkpt lat="41.44557440479938" lon="-1.755996550595554"><ele>721.0</ele><time>2026-05-03T15:21:01.001Z</time></trkpt><trkpt lat="41.44552038348849" lon="-1.7558701668193941"><ele>721.0</ele><time>2026-05-03T15:21:02.001Z</time></trkpt><trkpt lat="41.44546924766224" lon="-1.7557380214414227"><ele>721.0</ele><time>2026-05-03T15:21:03.001Z</time></trkpt><trkpt lat="41.44542297304343" lon="-1.755603109403901"><ele>719.5999999999999</ele><time>2026-05-03T15:21:04.001Z</time></trkpt><trkpt lat="41.44537781369012" lon="-1.755466872573873"><ele>718.2</ele><time>2026-05-03T15:21:05.001Z</time></trkpt><trkpt lat="41.44533394210748" lon="-1.7553307047510187"><ele>716.8</ele><time>2026-05-03T15:21:06.001Z</time></trkpt><trkpt lat="41.445291890420705" lon="-1.7551943746463359"><ele>715.4000000000001</ele><time>2026-05-03T15:21:07.001Z</time></trkpt><trkpt lat="41.44524880731286" lon="-1.7550572313566726"><ele>714.0</ele><time>2026-05-03T15:21:08.001Z</time></trkpt><trkpt lat="41.44520847434957" lon="-1.7549194750543113"><ele>714.0</ele><time>2026-05-03T15:21:09.001Z</time></trkpt><trkpt lat="41.44516784445069" lon="-1.754782110365944"><ele>714.0</ele><time>2026-05-03T15:21:10.001Z</time></trkpt><trkpt lat="41.445130514174984" lon="-1.7546412235407183"><ele>714.0</ele><time>2026-05-03T15:21:11.001Z</time></trkpt><trkpt lat="41.44509562008455" lon="-1.7545017316157931"><ele>714.0</ele><time>2026-05-03T15:21:12.001Z</time></trkpt><trkpt lat="41.445064629814865" lon="-1.7543601815352017"><ele>714.0</ele><time>2026-05-03T15:21:13.001Z</time></trkpt><trkpt lat="41.44503401446583" lon="-1.7542154416527322"><ele>713.8000000000001</ele><time>2026-05-03T15:21:14.001Z</time></trkpt><trkpt lat="41.445003491609704" lon="-1.7540709294232197"><ele>713.6</ele><time>2026-05-03T15:21:15.001Z</time></trkpt><trkpt lat="41.4449743702266" lon="-1.753929438574729"><ele>713.4</ele><time>2026-05-03T15:21:16.001Z</time></trkpt><trkpt lat="41.44494463128668" lon="-1.7537860543474957"><ele>713.2</ele><time>2026-05-03T15:21:17.001Z</time></trkpt><trkpt lat="41.44491238161873" lon="-1.7536458948959115"><ele>713.0</ele><time>2026-05-03T15:21:18.001Z</time></trkpt><trkpt lat="41.44488185526489" lon="-1.7535037561694404"><ele>713.0</ele><time>2026-05-03T15:21:19.001Z</time></trkpt><trkpt lat="41.44484961626076" lon="-1.7533625319011577"><ele>713.0</ele><time>2026-05-03T15:21:20.001Z</time></trkpt><trkpt lat="41.44482129791379" lon="-1.7532207109253013"><ele>713.0</ele><time>2026-05-03T15:21:21.001Z</time></trkpt><trkpt lat="41.4447890668044" lon="-1.753080300998655"><ele>713.0</ele><time>2026-05-03T15:21:22.001Z</time></trkpt><trkpt lat="41.444760836368225" lon="-1.7529370682608856"><ele>713.0</ele><time>2026-05-03T15:21:23.001Z</time></trkpt><trkpt lat="41.44472829173747" lon="-1.752798257277555"><ele>713.0</ele><time>2026-05-03T15:21:24.001Z</time></trkpt><trkpt lat="41.44470085922737" lon="-1.7526592650652"><ele>713.0</ele><time>2026-05-03T15:21:25.001Z</time></trkpt><trkpt lat="41.44466869038999" lon="-1.7525196984589348"><ele>713.0</ele><time>2026-05-03T15:21:26.001Z</time></trkpt><trkpt lat="41.4446389800331" lon="-1.7523834266449339"><ele>713.0</ele><time>2026-05-03T15:21:27.001Z</time></trkpt><trkpt lat="41.44461321850917" lon="-1.7522469684240867"><ele>713.0</ele><time>2026-05-03T15:21:28.001Z</time></trkpt><trkpt lat="41.44458482915723" lon="-1.7521116520457558"><ele>712.5999999999999</ele><time>2026-05-03T15:21:29.001Z</time></trkpt><trkpt lat="41.44455403153169" lon="-1.751979023472384"><ele>712.1999999999999</ele><time>2026-05-03T15:21:30.001Z</time></trkpt><trkpt lat="41.444526148139076" lon="-1.7518470754705258"><ele>711.8</ele><time>2026-05-03T15:21:31.002Z</time></trkpt><trkpt lat="41.444498956357926" lon="-1.7517181899671808"><ele>711.4</ele><time>2026-05-03T15:21:32.002Z</time></trkpt><trkpt lat="41.444473526654804" lon="-1.7515892234020651"><ele>711.0</ele><time>2026-05-03T15:21:33.002Z</time></trkpt><trkpt lat="41.44444614710403" lon="-1.751461567867442"><ele>711.4</ele><time>2026-05-03T15:21:34.002Z</time></trkpt><trkpt lat="41.44441698204095" lon="-1.7513329013564263"><ele>711.8</ele><time>2026-05-03T15:21:35.002Z</time></trkpt><trkpt lat="41.444388979661234" lon="-1.7512012617300263"><ele>712.1999999999999</ele><time>2026-05-03T15:21:36.002Z</time></trkpt><trkpt lat="41.444362353204944" lon="-1.7510709351126432"><ele>712.5999999999999</ele><time>2026-05-03T15:21:37.002Z</time></trkpt><trkpt lat="41.44433144438433" lon="-1.7509373320086723"><ele>713.0</ele><time>2026-05-03T15:21:38.002Z</time></trkpt><trkpt lat="41.44430460699884" lon="-1.750799040537838"><ele>713.0</ele><time>2026-05-03T15:21:39.002Z</time></trkpt><trkpt lat="41.444273959430596" lon="-1.7506614912977652"><ele>713.0</ele><time>2026-05-03T15:21:40.002Z</time></trkpt><trkpt lat="41.444246197517764" lon="-1.7505190855307373"><ele>713.0</ele><time>2026-05-03T15:21:41.002Z</time></trkpt><trkpt lat="41.4442161155234" lon="-1.7503805236501588"><ele>713.0</ele><time>2026-05-03T15:21:42.002Z</time></trkpt><trkpt lat="41.44418699521781" lon="-1.750244140201954"><ele>713.0</ele><time>2026-05-03T15:21:43.002Z</time></trkpt><trkpt lat="41.44415787909426" lon="-1.7501081861364336"><ele>713.0</ele><time>2026-05-03T15:21:44.002Z</time></trkpt><trkpt lat="41.44412905827904" lon="-1.7499726189535423"><ele>713.0</ele><time>2026-05-03T15:21:45.002Z</time></trkpt><trkpt lat="41.44410065703856" lon="-1.7498366163314794"><ele>713.0</ele><time>2026-05-03T15:21:46.002Z</time></trkpt><trkpt lat="41.44407199573475" lon="-1.7497008347274767"><ele>713.0</ele><time>2026-05-03T15:21:47.002Z</time></trkpt><trkpt lat="41.44404117765856" lon="-1.7495628823226639"><ele>713.0</ele><time>2026-05-03T15:21:48.002Z</time></trkpt><trkpt lat="41.44401230278392" lon="-1.749425530617053"><ele>712.8</ele><time>2026-05-03T15:21:49.002Z</time></trkpt><trkpt lat="41.44398298999542" lon="-1.7492870576263235"><ele>712.5999999999999</ele><time>2026-05-03T15:21:50Z</time></trkpt><trkpt lat="41.44395262882031" lon="-1.7491462625044567"><ele>712.4000000000001</ele><time>2026-05-03T15:21:51Z</time></trkpt><trkpt lat="41.44392194651824" lon="-1.7490071582095559"><ele>712.2</ele><time>2026-05-03T15:21:52Z</time></trkpt><trkpt lat="41.44389451429634" lon="-1.748865147662554"><ele>712.0</ele><time>2026-05-03T15:21:53Z</time></trkpt><trkpt lat="41.44386283088556" lon="-1.7487275237467348"><ele>712.0</ele><time>2026-05-03T15:21:54Z</time></trkpt><trkpt lat="41.44383532490896" lon="-1.7485876615757854"><ele>712.0</ele><time>2026-05-03T15:21:55Z</time></trkpt><trkpt lat="41.443807707428185" lon="-1.748447566375069"><ele>712.0</ele><time>2026-05-03T15:21:56Z</time></trkpt><trkpt lat="41.443777094798286" lon="-1.748308928155584"><ele>712.0</ele><time>2026-05-03T15:21:57Z</time></trkpt><trkpt lat="41.44374298449047" lon="-1.748167062455682"><ele>712.0</ele><time>2026-05-03T15:21:58Z</time></trkpt><trkpt lat="41.443716607722884" lon="-1.7480245631144762"><ele>712.2</ele><time>2026-05-03T15:21:59Z</time></trkpt><trkpt lat="41.44368527273235" lon="-1.7478848649806964"><ele>712.4000000000001</ele><time>2026-05-03T15:22:00Z</time></trkpt><trkpt lat="41.44365444290891" lon="-1.7477432130196393"><ele>712.5999999999999</ele><time>2026-05-03T15:22:01Z</time></trkpt><trkpt lat="41.44362486156743" lon="-1.7476013556624628"><ele>712.8</ele><time>2026-05-03T15:22:02Z</time></trkpt><trkpt lat="41.44359354800525" lon="-1.7474584407422737"><ele>713.0</ele><time>2026-05-03T15:22:03Z</time></trkpt><trkpt lat="41.44356097699971" lon="-1.7473163512297276"><ele>713.0</ele><time>2026-05-03T15:22:04Z</time></trkpt><trkpt lat="41.44352543499757" lon="-1.7471748677484578"><ele>713.0</ele><time>2026-05-03T15:22:05Z</time></trkpt><trkpt lat="41.44348964068929" lon="-1.7470376136430865"><ele>713.0</ele><time>2026-05-03T15:22:06Z</time></trkpt><trkpt lat="41.44345179240422" lon="-1.7468989091810339"><ele>713.0</ele><time>2026-05-03T15:22:07Z</time></trkpt><trkpt lat="41.44340908085943" lon="-1.746764347930129"><ele>713.0</ele><time>2026-05-03T15:22:08Z</time></trkpt><trkpt lat="41.443359682638814" lon="-1.7466310586468168"><ele>713.0</ele><time>2026-05-03T15:22:09Z</time></trkpt><trkpt lat="41.44330184865904" lon="-1.7465019784298048"><ele>713.0</ele><time>2026-05-03T15:22:10Z</time></trkpt><trkpt lat="41.44324312973671" lon="-1.746378644852356"><ele>713.0</ele><time>2026-05-03T15:22:11Z</time></trkpt><trkpt lat="41.443179494981166" lon="-1.746254836747097"><ele>713.0</ele><time>2026-05-03T15:22:12Z</time></trkpt><trkpt lat="41.44311297146532" lon="-1.7461326169301532"><ele>713.0</ele><time>2026-05-03T15:22:13Z</time></trkpt><trkpt lat="41.443042575722515" lon="-1.74601929347547"><ele>713.8</ele><time>2026-05-03T15:22:14Z</time></trkpt><trkpt lat="41.44296580848139" lon="-1.7459114731088854"><ele>714.5999999999999</ele><time>2026-05-03T15:22:15Z</time></trkpt><trkpt lat="41.44288455580936" lon="-1.7458092831220275"><ele>715.4000000000001</ele><time>2026-05-03T15:22:16Z</time></trkpt><trkpt lat="41.44279982970823" lon="-1.745712091167924"><ele>716.2</ele><time>2026-05-03T15:22:17Z</time></trkpt><trkpt lat="41.44271498902257" lon="-1.7456160822274114"><ele>717.0</ele><time>2026-05-03T15:22:18Z</time></trkpt><trkpt lat="41.442629301837066" lon="-1.745523120193459"><ele>714.75</ele><time>2026-05-03T15:22:19Z</time></trkpt><trkpt lat="41.44254435396075" lon="-1.7454245387778504"><ele>712.5</ele><time>2026-05-03T15:22:20Z</time></trkpt><trkpt lat="41.44245531447525" lon="-1.7453294003744804"><ele>710.25</ele><time>2026-05-03T15:22:21Z</time></trkpt><trkpt lat="41.442365635319064" lon="-1.7452310777143534"><ele>708.0</ele><time>2026-05-03T15:22:22Z</time></trkpt><trkpt lat="41.442276966217754" lon="-1.7451407124326719"><ele>708.0</ele><time>2026-05-03T15:22:23.001Z</time></trkpt><trkpt lat="41.44218979600861" lon="-1.7450445318366241"><ele>708.0</ele><time>2026-05-03T15:22:24.001Z</time></trkpt><trkpt lat="41.44210260284046" lon="-1.7449443987660858"><ele>708.0</ele><time>2026-05-03T15:22:25.001Z</time></trkpt><trkpt lat="41.44201395511582" lon="-1.7448505696762138"><ele>708.0</ele><time>2026-05-03T15:22:26.001Z</time></trkpt><trkpt lat="41.44192661938077" lon="-1.744750791252395"><ele>706.75</ele><time>2026-05-03T15:22:27.001Z</time></trkpt><trkpt lat="41.441836323444676" lon="-1.744653942129653"><ele>705.5</ele><time>2026-05-03T15:22:28.001Z</time></trkpt><trkpt lat="41.44174554842809" lon="-1.7445556295772935"><ele>704.25</ele><time>2026-05-03T15:22:29.001Z</time></trkpt><trkpt lat="41.44165414705584" lon="-1.7444569634228428"><ele>703.0</ele><time>2026-05-03T15:22:30.001Z</time></trkpt><trkpt lat="41.44156424872676" lon="-1.744359907676211"><ele>703.0</ele><time>2026-05-03T15:22:31.001Z</time></trkpt><trkpt lat="41.44147679609313" lon="-1.744262879952544"><ele>703.0</ele><time>2026-05-03T15:22:32.001Z</time></trkpt><trkpt lat="41.441388105637095" lon="-1.7441666764424848"><ele>703.0</ele><time>2026-05-03T15:22:33.001Z</time></trkpt><trkpt lat="41.44129871277292" lon="-1.744072845319871"><ele>703.0</ele><time>2026-05-03T15:22:34.001Z</time></trkpt><trkpt lat="41.44121113771875" lon="-1.743981379487333"><ele>701.5</ele><time>2026-05-03T15:22:35.001Z</time></trkpt><trkpt lat="41.44112751842142" lon="-1.7438692891362193"><ele>700.0</ele><time>2026-05-03T15:22:36.001Z</time></trkpt><trkpt lat="41.44103738426113" lon="-1.7437998428902766"><ele>698.5</ele><time>2026-05-03T15:22:37.001Z</time></trkpt><trkpt lat="41.440947772994704" lon="-1.743689807614689"><ele>697.0</ele><time>2026-05-03T15:22:38.001Z</time></trkpt><trkpt lat="41.44086009846409" lon="-1.7435915722710662"><ele>697.25</ele><time>2026-05-03T15:22:39.001Z</time></trkpt><trkpt lat="41.44077111600268" lon="-1.743498234779889"><ele>697.5</ele><time>2026-05-03T15:22:40.001Z</time></trkpt><trkpt lat="41.440683016255264" lon="-1.7434018071301762"><ele>697.75</ele><time>2026-05-03T15:22:41.001Z</time></trkpt><trkpt lat="41.440596058199475" lon="-1.7433059346417217"><ele>698.0</ele><time>2026-05-03T15:22:42.001Z</time></trkpt><trkpt lat="41.44050185963103" lon="-1.7432113003478686"><ele>697.0</ele><time>2026-05-03T15:22:43.001Z</time></trkpt><trkpt lat="41.4404121013791" lon="-1.7431122376877515"><ele>696.0</ele><time>2026-05-03T15:22:44.001Z</time></trkpt><trkpt lat="41.44032393274264" lon="-1.7430187249377966"><ele>695.0</ele><time>2026-05-03T15:22:45.001Z</time></trkpt><trkpt lat="41.440237996255796" lon="-1.7429205577774185"><ele>694.0</ele><time>2026-05-03T15:22:46.001Z</time></trkpt><trkpt lat="41.44014822506755" lon="-1.7428248598094982"><ele>694.0</ele><time>2026-05-03T15:22:47.001Z</time></trkpt><trkpt lat="41.44006035743199" lon="-1.7427308677225741"><ele>694.0</ele><time>2026-05-03T15:22:48.001Z</time></trkpt><trkpt lat="41.439973475305635" lon="-1.742632643836546"><ele>694.0</ele><time>2026-05-03T15:22:49.001Z</time></trkpt><trkpt lat="41.43988937805953" lon="-1.7425388003125815"><ele>694.0</ele><time>2026-05-03T15:22:50.001Z</time></trkpt><trkpt lat="41.43980392626003" lon="-1.742446595537311"><ele>694.0</ele><time>2026-05-03T15:22:51.001Z</time></trkpt><trkpt lat="41.439716629270414" lon="-1.7423524847484089"><ele>694.25</ele><time>2026-05-03T15:22:52.001Z</time></trkpt><trkpt lat="41.43962849116164" lon="-1.7422577853350434"><ele>694.5</ele><time>2026-05-03T15:22:53.001Z</time></trkpt><trkpt lat="41.439542659061466" lon="-1.742163231712365"><ele>694.75</ele><time>2026-05-03T15:22:54.001Z</time></trkpt><trkpt lat="41.43945642440947" lon="-1.7420657863031037"><ele>695.0</ele><time>2026-05-03T15:22:55.001Z</time></trkpt><trkpt lat="41.43936434936079" lon="-1.7419728297198094"><ele>696.0</ele><time>2026-05-03T15:22:56.001Z</time></trkpt><trkpt lat="41.43927752469124" lon="-1.741874905328902"><ele>697.0</ele><time>2026-05-03T15:22:57.001Z</time></trkpt><trkpt lat="41.43919006979203" lon="-1.7417767039181882"><ele>698.0</ele><time>2026-05-03T15:22:58.001Z</time></trkpt><trkpt lat="41.43910074046333" lon="-1.7416879883440939"><ele>699.0</ele><time>2026-05-03T15:22:59.001Z</time></trkpt><trkpt lat="41.43901172133332" lon="-1.7415905645732024"><ele>699.0</ele><time>2026-05-03T15:23:00.001Z</time></trkpt><trkpt lat="41.438923839107964" lon="-1.7414954870621764"><ele>699.0</ele><time>2026-05-03T15:23:01.001Z</time></trkpt><trkpt lat="41.43883716774903" lon="-1.7413958543321244"><ele>699.0</ele><time>2026-05-03T15:23:02.001Z</time></trkpt><trkpt lat="41.43875184908462" lon="-1.741303809429715"><ele>699.0</ele><time>2026-05-03T15:23:03.001Z</time></trkpt><trkpt lat="41.438663820363374" lon="-1.741206229263625"><ele>699.2</ele><time>2026-05-03T15:23:04.001Z</time></trkpt><trkpt lat="41.438578389785086" lon="-1.7411157260872017"><ele>699.4000000000001</ele><time>2026-05-03T15:23:05.001Z</time></trkpt><trkpt lat="41.43849228138725" lon="-1.7410227002137162"><ele>699.6</ele><time>2026-05-03T15:23:06.001Z</time></trkpt><trkpt lat="41.43840543922771" lon="-1.740930453266986"><ele>699.8</ele><time>2026-05-03T15:23:07.001Z</time></trkpt><trkpt lat="41.438319594992926" lon="-1.7408369039391671"><ele>700.0</ele><time>2026-05-03T15:23:08.001Z</time></trkpt><trkpt lat="41.43823400673472" lon="-1.7407430996240716"><ele>700.0</ele><time>2026-05-03T15:23:09.001Z</time></trkpt><trkpt lat="41.438147806554994" lon="-1.7406532318307621"><ele>700.0</ele><time>2026-05-03T15:23:10.001Z</time></trkpt><trkpt lat="41.4380589468404" lon="-1.7405605935380637"><ele>700.0</ele><time>2026-05-03T15:23:11.001Z</time></trkpt><trkpt lat="41.437976717417676" lon="-1.74046713792297"><ele>700.0</ele><time>2026-05-03T15:23:12.001Z</time></trkpt><trkpt lat="41.437892430663766" lon="-1.7403728126626903"><ele>700.0</ele><time>2026-05-03T15:23:13.001Z</time></trkpt><trkpt lat="41.43780916065576" lon="-1.7402683884896393"><ele>699.6</ele><time>2026-05-03T15:23:14.002Z</time></trkpt><trkpt lat="41.4377304537281" lon="-1.7401625898240705"><ele>699.2</ele><time>2026-05-03T15:23:15.002Z</time></trkpt><trkpt lat="41.43765970374409" lon="-1.7400488474367979"><ele>698.8</ele><time>2026-05-03T15:23:16.002Z</time></trkpt><trkpt lat="41.43758716916934" lon="-1.7399355144527746"><ele>698.4</ele><time>2026-05-03T15:23:17.002Z</time></trkpt><trkpt lat="41.43752032719474" lon="-1.7398194122649189"><ele>698.0</ele><time>2026-05-03T15:23:18.002Z</time></trkpt><trkpt lat="41.43745646712412" lon="-1.7396909641184417"><ele>698.0</ele><time>2026-05-03T15:23:19.002Z</time></trkpt><trkpt lat="41.43739792724831" lon="-1.7395672128738124"><ele>698.0</ele><time>2026-05-03T15:23:20.002Z</time></trkpt><trkpt lat="41.43735034254279" lon="-1.739432116695865"><ele>698.0</ele><time>2026-05-03T15:23:21.002Z</time></trkpt><trkpt lat="41.437302187801585" lon="-1.739303701122044"><ele>698.0</ele><time>2026-05-03T15:23:22.002Z</time></trkpt><trkpt lat="41.43725472919104" lon="-1.7391679569732468"><ele>698.0</ele><time>2026-05-03T15:23:23.002Z</time></trkpt><trkpt lat="41.437209800839106" lon="-1.739032421963357"><ele>698.5999999999999</ele><time>2026-05-03T15:23:24.002Z</time></trkpt><trkpt lat="41.43716643882861" lon="-1.73889193203808"><ele>699.1999999999999</ele><time>2026-05-03T15:23:25.002Z</time></trkpt><trkpt lat="41.43712511241713" lon="-1.738753513584977"><ele>699.8</ele><time>2026-05-03T15:23:26.002Z</time></trkpt><trkpt lat="41.4370809931128" lon="-1.738616944992558"><ele>700.4</ele><time>2026-05-03T15:23:27.002Z</time></trkpt><trkpt lat="41.43703909087382" lon="-1.7384785199854247"><ele>701.0</ele><time>2026-05-03T15:23:28.002Z</time></trkpt><trkpt lat="41.43699399984808" lon="-1.738345347412597"><ele>699.1999999999999</ele><time>2026-05-03T15:23:29.002Z</time></trkpt><trkpt lat="41.436946543695825" lon="-1.7382108374412315"><ele>697.4</ele><time>2026-05-03T15:23:30.002Z</time></trkpt><trkpt lat="41.43689522530093" lon="-1.7380811375758345"><ele>695.6</ele><time>2026-05-03T15:23:31.002Z</time></trkpt><trkpt lat="41.43684337071832" lon="-1.7379496033607436"><ele>693.8</ele><time>2026-05-03T15:23:32.002Z</time></trkpt><trkpt lat="41.43678309339511" lon="-1.7378215188942814"><ele>692.0</ele><time>2026-05-03T15:23:33.002Z</time></trkpt><trkpt lat="41.43671892164612" lon="-1.7376999593427351"><ele>692.0</ele><time>2026-05-03T15:23:34.002Z</time></trkpt><trkpt lat="41.4366347431797" lon="-1.7375949958213988"><ele>692.0</ele><time>2026-05-03T15:23:35.002Z</time></trkpt><trkpt lat="41.4365596298733" lon="-1.7374810316262115"><ele>692.0</ele><time>2026-05-03T15:23:36.002Z</time></trkpt><trkpt lat="41.43649142636264" lon="-1.7373596983639559"><ele>692.0</ele><time>2026-05-03T15:23:37.002Z</time></trkpt><trkpt lat="41.43640931137327" lon="-1.7372531285926405"><ele>692.0</ele><time>2026-05-03T15:23:38.002Z</time></trkpt><trkpt lat="41.43632506458718" lon="-1.7371573554337436"><ele>692.0</ele><time>2026-05-03T15:23:39.002Z</time></trkpt><trkpt lat="41.43624094658486" lon="-1.7370623796806655"><ele>692.0</ele><time>2026-05-03T15:23:40.002Z</time></trkpt><trkpt lat="41.43615935909924" lon="-1.7369703155953469"><ele>692.0</ele><time>2026-05-03T15:23:41.002Z</time></trkpt><trkpt lat="41.43607571681177" lon="-1.7368748753427554"><ele>692.0</ele><time>2026-05-03T15:23:42.002Z</time></trkpt><trkpt lat="41.43599153983705" lon="-1.7367791960992462"><ele>691.6</ele><time>2026-05-03T15:23:43.002Z</time></trkpt><trkpt lat="41.43590865263875" lon="-1.7366856786357763"><ele>691.2</ele><time>2026-05-03T15:23:44.002Z</time></trkpt><trkpt lat="41.43582284506055" lon="-1.7365895270995046"><ele>690.8</ele><time>2026-05-03T15:23:45.002Z</time></trkpt><trkpt lat="41.4357390296582" lon="-1.7364925910983984"><ele>690.4</ele><time>2026-05-03T15:23:46.002Z</time></trkpt><trkpt lat="41.43565325489334" lon="-1.7363934664690885"><ele>690.0</ele><time>2026-05-03T15:23:47.002Z</time></trkpt><trkpt lat="41.435569276044234" lon="-1.7362981029989661"><ele>690.0</ele><time>2026-05-03T15:23:48.002Z</time></trkpt><trkpt lat="41.43548590760823" lon="-1.7361997004823728"><ele>690.0</ele><time>2026-05-03T15:23:49.002Z</time></trkpt><trkpt lat="41.43540096176906" lon="-1.736105490263925"><ele>690.0</ele><time>2026-05-03T15:23:50.002Z</time></trkpt><trkpt lat="41.4353175907338" lon="-1.7360086398165635"><ele>690.0</ele><time>2026-05-03T15:23:51.002Z</time></trkpt><trkpt lat="41.435234752350006" lon="-1.7359161361531021"><ele>690.0</ele><time>2026-05-03T15:23:52.002Z</time></trkpt><trkpt lat="41.4351512404406" lon="-1.7358176541837211"><ele>689.4</ele><time>2026-05-03T15:23:53.002Z</time></trkpt><trkpt lat="41.43507085068732" lon="-1.7357229239085505"><ele>688.8</ele><time>2026-05-03T15:23:54.002Z</time></trkpt><trkpt lat="41.434992611064054" lon="-1.7356260210512828"><ele>688.2</ele><time>2026-05-03T15:23:55.002Z</time></trkpt><trkpt lat="41.43491519123564" lon="-1.735524477386519"><ele>687.6</ele><time>2026-05-03T15:23:56.001Z</time></trkpt><trkpt lat="41.4348389028924" lon="-1.7354208948859595"><ele>687.0</ele><time>2026-05-03T15:23:57.001Z</time></trkpt><trkpt lat="41.43476131859913" lon="-1.735315994350748"><ele>687.4000000000001</ele><time>2026-05-03T15:23:58.001Z</time></trkpt><trkpt lat="41.4346868419038" lon="-1.7352050332686655"><ele>687.8000000000001</ele><time>2026-05-03T15:23:59.001Z</time></trkpt><trkpt lat="41.43461283063064" lon="-1.7350902997558155"><ele>688.2</ele><time>2026-05-03T15:24:00.001Z</time></trkpt><trkpt lat="41.43454478211748" lon="-1.7349736863062502"><ele>688.6</ele><time>2026-05-03T15:24:01.001Z</time></trkpt><trkpt lat="41.43447832583944" lon="-1.7348560130833468"><ele>689.0</ele><time>2026-05-03T15:24:02.001Z</time></trkpt><trkpt lat="41.43441151424789" lon="-1.734738892966308"><ele>689.5</ele><time>2026-05-03T15:24:03.001Z</time></trkpt><trkpt lat="41.434347767252184" lon="-1.7346161451854434"><ele>690.0</ele><time>2026-05-03T15:24:04.001Z</time></trkpt><trkpt lat="41.43428829994496" lon="-1.7344813412080025"><ele>690.5</ele><time>2026-05-03T15:24:05.001Z</time></trkpt><trkpt lat="41.434226686969474" lon="-1.7343534033785193"><ele>691.0</ele><time>2026-05-03T15:24:06.001Z</time></trkpt><trkpt lat="41.434162823896564" lon="-1.7342246305938471"><ele>689.5</ele><time>2026-05-03T15:24:07.001Z</time></trkpt><trkpt lat="41.43410481747626" lon="-1.7340944823633362"><ele>688.0</ele><time>2026-05-03T15:24:08.001Z</time></trkpt><trkpt lat="41.43404669348732" lon="-1.7339630758727604"><ele>686.5</ele><time>2026-05-03T15:24:09.001Z</time></trkpt><trkpt lat="41.43398562777954" lon="-1.7338338768052048"><ele>685.0</ele><time>2026-05-03T15:24:10.001Z</time></trkpt><trkpt lat="41.43393255323519" lon="-1.733699585285885"><ele>685.0</ele><time>2026-05-03T15:24:11.001Z</time></trkpt><trkpt lat="41.433882097706764" lon="-1.7335727809202954"><ele>685.0</ele><time>2026-05-03T15:24:12.001Z</time></trkpt><trkpt lat="41.43380837561046" lon="-1.7334383742146275"><ele>685.0</ele><time>2026-05-03T15:24:13.001Z</time></trkpt><trkpt lat="41.43374307387941" lon="-1.7332745775054983"><ele>685.0</ele><time>2026-05-03T15:24:14.001Z</time></trkpt><trkpt lat="41.433655688481124" lon="-1.7330620204699405"><ele>684.25</ele><time>2026-05-03T15:24:15.001Z</time></trkpt><trkpt lat="41.433557651418454" lon="-1.7328324313450438"><ele>683.5</ele><time>2026-05-03T15:24:16.001Z</time></trkpt><trkpt lat="41.43358104666547" lon="-1.7329219831849625"><ele>682.75</ele><time>2026-05-03T15:24:17.001Z</time></trkpt><trkpt lat="41.43352387754797" lon="-1.732795493735646"><ele>682.0</ele><time>2026-05-03T15:24:18.001Z</time></trkpt><trkpt lat="41.43347047399568" lon="-1.7326661373200671"><ele>680.8</ele><time>2026-05-03T15:24:19.001Z</time></trkpt><trkpt lat="41.43341478977312" lon="-1.7325394105852796"><ele>679.6</ele><time>2026-05-03T15:24:20.001Z</time></trkpt><trkpt lat="41.433356841108505" lon="-1.7324164431899944"><ele>678.4</ele><time>2026-05-03T15:24:21.001Z</time></trkpt><trkpt lat="41.43329920351199" lon="-1.7322874538735646"><ele>677.1999999999999</ele><time>2026-05-03T15:24:22.001Z</time></trkpt><trkpt lat="41.43324444336856" lon="-1.7321569244950907"><ele>676.0</ele><time>2026-05-03T15:24:23.001Z</time></trkpt><trkpt lat="41.43319022388009" lon="-1.7320268203480091"><ele>676.0</ele><time>2026-05-03T15:24:24.001Z</time></trkpt><trkpt lat="41.43313419559159" lon="-1.731896792978135"><ele>676.0</ele><time>2026-05-03T15:24:25.001Z</time></trkpt><trkpt lat="41.433077639906095" lon="-1.7317671016059484"><ele>676.0</ele><time>2026-05-03T15:24:26.001Z</time></trkpt><trkpt lat="41.433024797216845" lon="-1.731640128628081"><ele>676.0</ele><time>2026-05-03T15:24:27.001Z</time></trkpt><trkpt lat="41.43296998144888" lon="-1.7315133403400633"><ele>676.0</ele><time>2026-05-03T15:24:28.001Z</time></trkpt><trkpt lat="41.432917013460965" lon="-1.7313848160853142"><ele>676.0</ele><time>2026-05-03T15:24:29.001Z</time></trkpt><trkpt lat="41.43286075798657" lon="-1.7312581999242314"><ele>676.0</ele><time>2026-05-03T15:24:30.001Z</time></trkpt><trkpt lat="41.43280449383342" lon="-1.7311322724319411"><ele>676.0</ele><time>2026-05-03T15:24:31.001Z</time></trkpt><trkpt lat="41.432748908674874" lon="-1.7310033153749789"><ele>676.0</ele><time>2026-05-03T15:24:32.001Z</time></trkpt><trkpt lat="41.43269441940431" lon="-1.7308767770137985"><ele>676.0</ele><time>2026-05-03T15:24:33.001Z</time></trkpt><trkpt lat="41.432640924974336" lon="-1.730749109224099"><ele>676.0</ele><time>2026-05-03T15:24:34.001Z</time></trkpt><trkpt lat="41.43258672427876" lon="-1.7306253108565126"><ele>676.0</ele><time>2026-05-03T15:24:35.001Z</time></trkpt><trkpt lat="41.43253371399722" lon="-1.7305004100507297"><ele>676.0</ele><time>2026-05-03T15:24:36.001Z</time></trkpt><trkpt lat="41.43248084201276" lon="-1.730374759624125"><ele>676.0</ele><time>2026-05-03T15:24:37.001Z</time></trkpt><trkpt lat="41.43242717751703" lon="-1.7302515888474703"><ele>676.0</ele><time>2026-05-03T15:24:38.001Z</time></trkpt><trkpt lat="41.432373878165215" lon="-1.7301300219250209"><ele>675.8</ele><time>2026-05-03T15:24:39.001Z</time></trkpt><trkpt lat="41.432316784248314" lon="-1.7300051695029737"><ele>675.5999999999999</ele><time>2026-05-03T15:24:40.001Z</time></trkpt><trkpt lat="41.43225925590974" lon="-1.7298811532966543"><ele>675.4</ele><time>2026-05-03T15:24:41.001Z</time></trkpt><trkpt lat="41.432204064308486" lon="-1.7297555116932681"><ele>675.2</ele><time>2026-05-03T15:24:42.001Z</time></trkpt><trkpt lat="41.4321469427403" lon="-1.7296259619138286"><ele>675.0</ele><time>2026-05-03T15:24:43.001Z</time></trkpt><trkpt lat="41.43209396426672" lon="-1.729500376506638"><ele>675.2</ele><time>2026-05-03T15:24:44.001Z</time></trkpt><trkpt lat="41.43203855058225" lon="-1.7293725704691176"><ele>675.4</ele><time>2026-05-03T15:24:45.001Z</time></trkpt><trkpt lat="41.4319802231619" lon="-1.7292474380871623"><ele>675.5999999999999</ele><time>2026-05-03T15:24:46.001Z</time></trkpt><trkpt lat="41.43192126456346" lon="-1.729123993391532"><ele>675.8</ele><time>2026-05-03T15:24:47.001Z</time></trkpt><trkpt lat="41.43186642432762" lon="-1.7289988937022627"><ele>676.0</ele><time>2026-05-03T15:24:48.001Z</time></trkpt><trkpt lat="41.431811560460766" lon="-1.7288720145757903"><ele>676.0</ele><time>2026-05-03T15:24:49.001Z</time></trkpt><trkpt lat="41.4317540402182" lon="-1.728743394563022"><ele>676.0</ele><time>2026-05-03T15:24:50.001Z</time></trkpt><trkpt lat="41.43170008188965" lon="-1.7286138827996322"><ele>676.0</ele><time>2026-05-03T15:24:51.001Z</time></trkpt><trkpt lat="41.43164290883874" lon="-1.728486685755447"><ele>676.0</ele><time>2026-05-03T15:24:52.001Z</time></trkpt><trkpt lat="41.43159387645411" lon="-1.728354622825374"><ele>676.0</ele><time>2026-05-03T15:24:53.001Z</time></trkpt><trkpt lat="41.431537097236664" lon="-1.7282285101705301"><ele>675.75</ele><time>2026-05-03T15:24:54.001Z</time></trkpt><trkpt lat="41.43146606574818" lon="-1.7280973827805317"><ele>675.5</ele><time>2026-05-03T15:24:55.001Z</time></trkpt><trkpt lat="41.43141104756665" lon="-1.7279659196686503"><ele>675.25</ele><time>2026-05-03T15:24:56.001Z</time></trkpt><trkpt lat="41.43135651065023" lon="-1.7278333938315313"><ele>675.0</ele><time>2026-05-03T15:24:57.001Z</time></trkpt><trkpt lat="41.43129657114644" lon="-1.7277018777506092"><ele>674.25</ele><time>2026-05-03T15:24:58.001Z</time></trkpt><trkpt lat="41.43123599083692" lon="-1.7275694736784197"><ele>673.5</ele><time>2026-05-03T15:24:59.001Z</time></trkpt><trkpt lat="41.43117884445381" lon="-1.7274376370874838"><ele>672.75</ele><time>2026-05-03T15:25:00.001Z</time></trkpt><trkpt lat="41.43112445627374" lon="-1.727303730318626"><ele>672.0</ele><time>2026-05-03T15:25:01.001Z</time></trkpt><trkpt lat="41.43106717583379" lon="-1.7271714355323349"><ele>672.0</ele><time>2026-05-03T15:25:02.001Z</time></trkpt><trkpt lat="41.431007335621935" lon="-1.7270398652957855"><ele>672.0</ele><time>2026-05-03T15:25:03.001Z</time></trkpt><trkpt lat="41.43094854746848" lon="-1.726908323287245"><ele>672.0</ele><time>2026-05-03T15:25:04.001Z</time></trkpt><trkpt lat="41.430890400408856" lon="-1.7267729671187575"><ele>672.0</ele><time>2026-05-03T15:25:05.001Z</time></trkpt><trkpt lat="41.4308323634123" lon="-1.7266413435004246"><ele>670.75</ele><time>2026-05-03T15:25:06.001Z</time></trkpt><trkpt lat="41.430775388575974" lon="-1.7265139629998842"><ele>669.5</ele><time>2026-05-03T15:25:07.001Z</time></trkpt><trkpt lat="41.43071785742314" lon="-1.7263835060504804"><ele>668.25</ele><time>2026-05-03T15:25:08.001Z</time></trkpt><trkpt lat="41.430659793723" lon="-1.726248934523618"><ele>667.0</ele><time>2026-05-03T15:25:09.001Z</time></trkpt><trkpt lat="41.43060235592631" lon="-1.7261209152097232"><ele>666.8</ele><time>2026-05-03T15:25:10.001Z</time></trkpt><trkpt lat="41.43054479680292" lon="-1.7259891710998434"><ele>666.6</ele><time>2026-05-03T15:25:11.001Z</time></trkpt><trkpt lat="41.43048629846028" lon="-1.7258631370953252"><ele>666.4</ele><time>2026-05-03T15:25:12.001Z</time></trkpt><trkpt lat="41.4304326971538" lon="-1.7257367355480517"><ele>666.1999999999999</ele><time>2026-05-03T15:25:13.001Z</time></trkpt><trkpt lat="41.43038109033112" lon="-1.725603887869566"><ele>666.0</ele><time>2026-05-03T15:25:14.002Z</time></trkpt><trkpt lat="41.4303254558453" lon="-1.7254765874405655"><ele>665.75</ele><time>2026-05-03T15:25:15.002Z</time></trkpt><trkpt lat="41.43027118221633" lon="-1.7253472819370903"><ele>665.5</ele><time>2026-05-03T15:25:16.002Z</time></trkpt><trkpt lat="41.43021212335538" lon="-1.7252499352726332"><ele>665.25</ele><time>2026-05-03T15:25:17.002Z</time></trkpt><trkpt lat="41.430136945638644" lon="-1.7250931328053385"><ele>665.0</ele><time>2026-05-03T15:25:18.002Z</time></trkpt><trkpt lat="41.43008301627725" lon="-1.7249634975239896"><ele>665.0</ele><time>2026-05-03T15:25:19.002Z</time></trkpt><trkpt lat="41.43002711082135" lon="-1.7248348756655514"><ele>665.0</ele><time>2026-05-03T15:25:20.002Z</time></trkpt><trkpt lat="41.429969944243965" lon="-1.7247032432563607"><ele>665.0</ele><time>2026-05-03T15:25:21.002Z</time></trkpt><trkpt lat="41.42991123781483" lon="-1.724576765055539"><ele>665.0</ele><time>2026-05-03T15:25:22.002Z</time></trkpt><trkpt lat="41.429854374138344" lon="-1.7244493007490618"><ele>665.0</ele><time>2026-05-03T15:25:23.002Z</time></trkpt><trkpt lat="41.42979687442891" lon="-1.724321127881079"><ele>665.0</ele><time>2026-05-03T15:25:24.002Z</time></trkpt><trkpt lat="41.429741284036595" lon="-1.72418820198947"><ele>665.0</ele><time>2026-05-03T15:25:25.002Z</time></trkpt><trkpt lat="41.42968579047551" lon="-1.7240610552963402"><ele>665.0</ele><time>2026-05-03T15:25:26.002Z</time></trkpt><trkpt lat="41.429629608811666" lon="-1.7239339844607355"><ele>665.0</ele><time>2026-05-03T15:25:27.002Z</time></trkpt><trkpt lat="41.42957311913333" lon="-1.7238064029627216"><ele>665.0</ele><time>2026-05-03T15:25:28.002Z</time></trkpt><trkpt lat="41.429517414290146" lon="-1.723679075831079"><ele>664.6</ele><time>2026-05-03T15:25:29.002Z</time></trkpt><trkpt lat="41.42945996563104" lon="-1.7235493666881723"><ele>664.2</ele><time>2026-05-03T15:25:30.002Z</time></trkpt><trkpt lat="41.429403603031616" lon="-1.7234207905988514"><ele>663.8</ele><time>2026-05-03T15:25:31.002Z</time></trkpt><trkpt lat="41.42934861954071" lon="-1.7232962214143783"><ele>663.4</ele><time>2026-05-03T15:25:32.002Z</time></trkpt><trkpt lat="41.429292379271686" lon="-1.7231709392785375"><ele>663.0</ele><time>2026-05-03T15:25:33.002Z</time></trkpt><trkpt lat="41.42923747146604" lon="-1.7230466691434734"><ele>663.0</ele><time>2026-05-03T15:25:34.002Z</time></trkpt><trkpt lat="41.42918270429674" lon="-1.7229184409098248"><ele>663.0</ele><time>2026-05-03T15:25:35.002Z</time></trkpt><trkpt lat="41.42912843857117" lon="-1.722791531629492"><ele>663.0</ele><time>2026-05-03T15:25:36.002Z</time></trkpt><trkpt lat="41.429073681156886" lon="-1.7226693541676361"><ele>663.0</ele><time>2026-05-03T15:25:37.002Z</time></trkpt><trkpt lat="41.42901761730447" lon="-1.722547508398629"><ele>663.0</ele><time>2026-05-03T15:25:38.002Z</time></trkpt><trkpt lat="41.42896288142045" lon="-1.7224252846397106"><ele>663.2</ele><time>2026-05-03T15:25:39.002Z</time></trkpt><trkpt lat="41.42890788793549" lon="-1.7223003077035433"><ele>663.4</ele><time>2026-05-03T15:25:40.002Z</time></trkpt><trkpt lat="41.42885212085955" lon="-1.7221730625939462"><ele>663.6</ele><time>2026-05-03T15:25:41.002Z</time></trkpt><trkpt lat="41.4287967731898" lon="-1.7220478060006155"><ele>663.8000000000001</ele><time>2026-05-03T15:25:42.002Z</time></trkpt><trkpt lat="41.4287405621006" lon="-1.721925519952857"><ele>664.0</ele><time>2026-05-03T15:25:43.002Z</time></trkpt><trkpt lat="41.42868787345779" lon="-1.7218001915299825"><ele>664.4000000000001</ele><time>2026-05-03T15:25:44.002Z</time></trkpt><trkpt lat="41.428634087641505" lon="-1.7216753290129148"><ele>664.8</ele><time>2026-05-03T15:25:45.002Z</time></trkpt><trkpt lat="41.428578528390055" lon="-1.7215523824569843"><ele>665.2</ele><time>2026-05-03T15:25:46.002Z</time></trkpt><trkpt lat="41.4285236166499" lon="-1.7214298291013042"><ele>665.5999999999999</ele><time>2026-05-03T15:25:47.002Z</time></trkpt><trkpt lat="41.428469286097496" lon="-1.7213061034582955"><ele>666.0</ele><time>2026-05-03T15:25:48.002Z</time></trkpt><trkpt lat="41.42841665092618" lon="-1.7211819021575738"><ele>666.8</ele><time>2026-05-03T15:25:49.002Z</time></trkpt><trkpt lat="41.4283621237776" lon="-1.7210598335164362"><ele>667.5999999999999</ele><time>2026-05-03T15:25:50.002Z</time></trkpt><trkpt lat="41.42830675264358" lon="-1.7209391342752092"><ele>668.4</ele><time>2026-05-03T15:25:51.002Z</time></trkpt><trkpt lat="41.42825283732414" lon="-1.7208157549375467"><ele>669.2</ele><time>2026-05-03T15:25:52.002Z</time></trkpt><trkpt lat="41.428199582640595" lon="-1.720693487284116"><ele>670.0</ele><time>2026-05-03T15:25:53.002Z</time></trkpt><trkpt lat="41.42814614282287" lon="-1.7205699117374473"><ele>670.0</ele><time>2026-05-03T15:25:54.002Z</time></trkpt><trkpt lat="41.42809284051657" lon="-1.7204485870335013"><ele>670.0</ele><time>2026-05-03T15:25:55.002Z</time></trkpt><trkpt lat="41.42804007330016" lon="-1.7203260883449507"><ele>670.0</ele><time>2026-05-03T15:25:56.002Z</time></trkpt><trkpt lat="41.42798648179069" lon="-1.7202051196020935"><ele>670.0</ele><time>2026-05-03T15:25:57.002Z</time></trkpt><trkpt lat="41.427932461721866" lon="-1.7200857503708928"><ele>670.0</ele><time>2026-05-03T15:25:58.002Z</time></trkpt><trkpt lat="41.427878871887366" lon="-1.719966429260663"><ele>670.2</ele><time>2026-05-03T15:25:59.002Z</time></trkpt><trkpt lat="41.42782538224371" lon="-1.719847720053799"><ele>670.4</ele><time>2026-05-03T15:26:00.002Z</time></trkpt><trkpt lat="41.42777276679315" lon="-1.7197278215506764"><ele>670.5999999999999</ele><time>2026-05-03T15:26:01.002Z</time></trkpt><trkpt lat="41.42771907650038" lon="-1.7196099735739212"><ele>670.8</ele><time>2026-05-03T15:26:02.001Z</time></trkpt><trkpt lat="41.42766520753595" lon="-1.7194887941947308"><ele>671.0</ele><time>2026-05-03T15:26:03.001Z</time></trkpt><trkpt lat="41.427610695446376" lon="-1.7193715266805496"><ele>671.0</ele><time>2026-05-03T15:26:04.001Z</time></trkpt><trkpt lat="41.42755690205004" lon="-1.7192499366976115"><ele>671.0</ele><time>2026-05-03T15:26:05.001Z</time></trkpt><trkpt lat="41.42750321037193" lon="-1.7191265370496809"><ele>671.0</ele><time>2026-05-03T15:26:06.001Z</time></trkpt><trkpt lat="41.42744928419856" lon="-1.7190073089185123"><ele>671.0</ele><time>2026-05-03T15:26:07.001Z</time></trkpt><trkpt lat="41.42739579109399" lon="-1.7188891547168093"><ele>671.0</ele><time>2026-05-03T15:26:08.001Z</time></trkpt><trkpt lat="41.42734234294488" lon="-1.7187657190250534"><ele>671.0</ele><time>2026-05-03T15:26:09.001Z</time></trkpt><trkpt lat="41.42728736873474" lon="-1.7186445362550384"><ele>671.0</ele><time>2026-05-03T15:26:10.001Z</time></trkpt><trkpt lat="41.42723590329914" lon="-1.7185219628651949"><ele>671.0</ele><time>2026-05-03T15:26:11.001Z</time></trkpt><trkpt lat="41.427182924885784" lon="-1.7184004929430623"><ele>671.0</ele><time>2026-05-03T15:26:12.001Z</time></trkpt><trkpt lat="41.42712917728999" lon="-1.7182794107340904"><ele>671.0</ele><time>2026-05-03T15:26:13.001Z</time></trkpt><trkpt lat="41.42707593991444" lon="-1.7181548709656935"><ele>670.8</ele><time>2026-05-03T15:26:14.001Z</time></trkpt><trkpt lat="41.42702138068417" lon="-1.7180328345438616"><ele>670.5999999999999</ele><time>2026-05-03T15:26:15.001Z</time></trkpt><trkpt lat="41.4269661116883" lon="-1.717907386810017"><ele>670.4</ele><time>2026-05-03T15:26:16.001Z</time></trkpt><trkpt lat="41.42691126861413" lon="-1.71778391546728"><ele>670.2</ele><time>2026-05-03T15:26:17.001Z</time></trkpt><trkpt lat="41.42685635936501" lon="-1.7176597394680504"><ele>670.0</ele><time>2026-05-03T15:26:18.001Z</time></trkpt><trkpt lat="41.4268011356993" lon="-1.7175341388507457"><ele>670.0</ele><time>2026-05-03T15:26:19.001Z</time></trkpt><trkpt lat="41.426743549307574" lon="-1.7174089937055304"><ele>670.0</ele><time>2026-05-03T15:26:20.001Z</time></trkpt><trkpt lat="41.426690256497636" lon="-1.7172816801033468"><ele>670.0</ele><time>2026-05-03T15:26:21.001Z</time></trkpt><trkpt lat="41.426634438539786" lon="-1.7171529037850717"><ele>670.0</ele><time>2026-05-03T15:26:22.001Z</time></trkpt><trkpt lat="41.42657697249683" lon="-1.7170364202957549"><ele>670.0</ele><time>2026-05-03T15:26:23.001Z</time></trkpt><trkpt lat="41.42653045233686" lon="-1.7168962845721343"><ele>670.5</ele><time>2026-05-03T15:26:24.001Z</time></trkpt><trkpt lat="41.426468339991445" lon="-1.716770688391961"><ele>671.0</ele><time>2026-05-03T15:26:25.001Z</time></trkpt><trkpt lat="41.42641241159801" lon="-1.7166395469837594"><ele>671.5</ele><time>2026-05-03T15:26:26.001Z</time></trkpt><trkpt lat="41.426349482001115" lon="-1.7165111279513277"><ele>672.0</ele><time>2026-05-03T15:26:27.001Z</time></trkpt><trkpt lat="41.426299781772734" lon="-1.7163806602557012"><ele>671.0</ele><time>2026-05-03T15:26:28.001Z</time></trkpt><trkpt lat="41.42623108359435" lon="-1.7162623404476616"><ele>670.0</ele><time>2026-05-03T15:26:29.001Z</time></trkpt><trkpt lat="41.42613135004063" lon="-1.7161517100052202"><ele>669.0</ele><time>2026-05-03T15:26:30.001Z</time></trkpt><trkpt lat="41.42604813144143" lon="-1.7160218395919276"><ele>668.0</ele><time>2026-05-03T15:26:31.001Z</time></trkpt><trkpt lat="41.426063315822034" lon="-1.715874531945696"><ele>667.8</ele><time>2026-05-03T15:26:32.001Z</time></trkpt><trkpt lat="41.426005114717256" lon="-1.7157464783087542"><ele>667.5999999999999</ele><time>2026-05-03T15:26:33.001Z</time></trkpt><trkpt lat="41.42594894076486" lon="-1.7156171029759433"><ele>667.4000000000001</ele><time>2026-05-03T15:26:34.001Z</time></trkpt><trkpt lat="41.42589177349404" lon="-1.7154875377071126"><ele>667.2</ele><time>2026-05-03T15:26:35.001Z</time></trkpt><trkpt lat="41.42583450814218" lon="-1.7153589176765756"><ele>667.0</ele><time>2026-05-03T15:26:36.001Z</time></trkpt><trkpt lat="41.4257785929293" lon="-1.7152310400314397"><ele>668.2</ele><time>2026-05-03T15:26:37.001Z</time></trkpt><trkpt lat="41.42572220105491" lon="-1.7151054252230653"><ele>669.4000000000001</ele><time>2026-05-03T15:26:38.001Z</time></trkpt><trkpt lat="41.425670936703305" lon="-1.7149815754028739"><ele>670.5999999999999</ele><time>2026-05-03T15:26:39.001Z</time></trkpt><trkpt lat="41.42561809074927" lon="-1.7148568805166695"><ele>671.8</ele><time>2026-05-03T15:26:40.001Z</time></trkpt><trkpt lat="41.42556147887316" lon="-1.7147312269375083"><ele>673.0</ele><time>2026-05-03T15:26:41.001Z</time></trkpt><trkpt lat="41.42550712850554" lon="-1.714609828118038"><ele>673.2</ele><time>2026-05-03T15:26:42.001Z</time></trkpt><trkpt lat="41.42545416754089" lon="-1.7144851187677081"><ele>673.4</ele><time>2026-05-03T15:26:43.001Z</time></trkpt><trkpt lat="41.42540183876324" lon="-1.7143672431678885"><ele>673.6</ele><time>2026-05-03T15:26:44.001Z</time></trkpt><trkpt lat="41.42534990798546" lon="-1.7142499088187897"><ele>673.8000000000001</ele><time>2026-05-03T15:26:45.001Z</time></trkpt><trkpt lat="41.425299471724855" lon="-1.714133233846901"><ele>674.0</ele><time>2026-05-03T15:26:46.001Z</time></trkpt><trkpt lat="41.425249777516974" lon="-1.7140169494056323"><ele>674.0</ele><time>2026-05-03T15:26:47.001Z</time></trkpt><trkpt lat="41.425196295356" lon="-1.7138993802463771"><ele>674.0</ele><time>2026-05-03T15:26:48.001Z</time></trkpt><trkpt lat="41.42514438468577" lon="-1.7137862308405476"><ele>674.0</ele><time>2026-05-03T15:26:49.001Z</time></trkpt><trkpt lat="41.425096038723275" lon="-1.713672384303551"><ele>674.0</ele><time>2026-05-03T15:26:50.001Z</time></trkpt><trkpt lat="41.42504781811267" lon="-1.713557559804472"><ele>674.0</ele><time>2026-05-03T15:26:51.001Z</time></trkpt><trkpt lat="41.424999149635134" lon="-1.7134457538664498"><ele>675.4000000000001</ele><time>2026-05-03T15:26:52.001Z</time></trkpt><trkpt lat="41.42494962549658" lon="-1.713332831860946"><ele>676.8</ele><time>2026-05-03T15:26:53.001Z</time></trkpt><trkpt lat="41.42489942464484" lon="-1.7132188342900918"><ele>678.2</ele><time>2026-05-03T15:26:54.001Z</time></trkpt><trkpt lat="41.42484589736019" lon="-1.7131086742846844"><ele>679.5999999999999</ele><time>2026-05-03T15:26:55.001Z</time></trkpt><trkpt lat="41.42479633258445" lon="-1.712993579648889"><ele>681.0</ele><time>2026-05-03T15:26:56.001Z</time></trkpt><trkpt lat="41.42474469617519" lon="-1.712879393281274"><ele>681.0</ele><time>2026-05-03T15:26:57.001Z</time></trkpt><trkpt lat="41.42469019651926" lon="-1.712765285420804"><ele>681.0</ele><time>2026-05-03T15:26:58.001Z</time></trkpt><trkpt lat="41.42463947218251" lon="-1.7126501631911148"><ele>681.0</ele><time>2026-05-03T15:26:59.001Z</time></trkpt><trkpt lat="41.42458649061601" lon="-1.7125339212821507"><ele>681.0</ele><time>2026-05-03T15:27:00.001Z</time></trkpt><trkpt lat="41.424533879750754" lon="-1.7124156395050636"><ele>681.0</ele><time>2026-05-03T15:27:01.001Z</time></trkpt><trkpt lat="41.424482755943096" lon="-1.7122938385214317"><ele>681.0</ele><time>2026-05-03T15:27:02.001Z</time></trkpt><trkpt lat="41.42443112080374" lon="-1.712172569148101"><ele>681.0</ele><time>2026-05-03T15:27:03.001Z</time></trkpt><trkpt lat="41.4243769650529" lon="-1.712053533001571"><ele>681.0</ele><time>2026-05-03T15:27:04.001Z</time></trkpt><trkpt lat="41.42432121397548" lon="-1.7119325039057753"><ele>681.0</ele><time>2026-05-03T15:27:05.001Z</time></trkpt><trkpt lat="41.42426770164075" lon="-1.7118098816153966"><ele>681.0</ele><time>2026-05-03T15:27:06.001Z</time></trkpt><trkpt lat="41.4242131376044" lon="-1.7116892433129625"><ele>681.0</ele><time>2026-05-03T15:27:07.001Z</time></trkpt><trkpt lat="41.42415658147627" lon="-1.711565929395686"><ele>681.0</ele><time>2026-05-03T15:27:08.001Z</time></trkpt><trkpt lat="41.424102253844325" lon="-1.7114421933296025"><ele>681.0</ele><time>2026-05-03T15:27:09.001Z</time></trkpt><trkpt lat="41.42404876656629" lon="-1.7113176299898927"><ele>681.0</ele><time>2026-05-03T15:27:10.001Z</time></trkpt><trkpt lat="41.4239953647022" lon="-1.7111929593852357"><ele>681.0</ele><time>2026-05-03T15:27:11.001Z</time></trkpt><trkpt lat="41.42394114932898" lon="-1.7110704925814655"><ele>681.0</ele><time>2026-05-03T15:27:12.001Z</time></trkpt><trkpt lat="41.42388500878824" lon="-1.7109487526752292"><ele>681.0</ele><time>2026-05-03T15:27:13.001Z</time></trkpt><trkpt lat="41.42382897977992" lon="-1.7108247591206407"><ele>681.0</ele><time>2026-05-03T15:27:14.001Z</time></trkpt><trkpt lat="41.42377464379014" lon="-1.7106988287453238"><ele>681.0</ele><time>2026-05-03T15:27:15.001Z</time></trkpt><trkpt lat="41.42371740170778" lon="-1.710572258545463"><ele>681.0</ele><time>2026-05-03T15:27:16.001Z</time></trkpt><trkpt lat="41.42366405763465" lon="-1.7104453422918438"><ele>680.8</ele><time>2026-05-03T15:27:17.001Z</time></trkpt><trkpt lat="41.42360696807096" lon="-1.7103213893279625"><ele>680.5999999999999</ele><time>2026-05-03T15:27:18.001Z</time></trkpt><trkpt lat="41.423551494409224" lon="-1.7101973826792463"><ele>680.4</ele><time>2026-05-03T15:27:19.001Z</time></trkpt><trkpt lat="41.42349101914334" lon="-1.7100725457247843"><ele>680.2</ele><time>2026-05-03T15:27:20.002Z</time></trkpt><trkpt lat="41.42342977120897" lon="-1.7099518200205848"><ele>680.0</ele><time>2026-05-03T15:27:21.002Z</time></trkpt><trkpt lat="41.42336944661309" lon="-1.7098276033096413"><ele>680.0</ele><time>2026-05-03T15:27:22.002Z</time></trkpt><trkpt lat="41.42330075194535" lon="-1.709716297525863"><ele>680.0</ele><time>2026-05-03T15:27:23.002Z</time></trkpt><trkpt lat="41.42323113210111" lon="-1.7095965432608784"><ele>680.0</ele><time>2026-05-03T15:27:24.002Z</time></trkpt><trkpt lat="41.42315583018073" lon="-1.7094871460794294"><ele>680.0</ele><time>2026-05-03T15:27:25.002Z</time></trkpt><trkpt lat="41.42306229584982" lon="-1.7093945661228604"><ele>680.0</ele><time>2026-05-03T15:27:26.002Z</time></trkpt><trkpt lat="41.42298365049798" lon="-1.7092965331265557"><ele>680.0</ele><time>2026-05-03T15:27:27.002Z</time></trkpt><trkpt lat="41.422889115321524" lon="-1.7092074513752036"><ele>680.0</ele><time>2026-05-03T15:27:28.002Z</time></trkpt><trkpt lat="41.4228073322302" lon="-1.7091242981942631"><ele>680.0</ele><time>2026-05-03T15:27:29.002Z</time></trkpt><trkpt lat="41.42272249733473" lon="-1.7090460922258606"><ele>680.0</ele><time>2026-05-03T15:27:30.002Z</time></trkpt><trkpt lat="41.422508070243296" lon="-1.708898984498436"><ele>679.75</ele><time>2026-05-03T15:27:32.002Z</time></trkpt><trkpt lat="41.422402520444294" lon="-1.7088360999508274"><ele>679.5</ele><time>2026-05-03T15:27:33.002Z</time></trkpt><trkpt lat="41.422295430269415" lon="-1.7087836207955265"><ele>679.25</ele><time>2026-05-03T15:27:34.002Z</time></trkpt><trkpt lat="41.422186625731015" lon="-1.7087433361439697"><ele>679.0</ele><time>2026-05-03T15:27:35.002Z</time></trkpt><trkpt lat="41.4220773067321" lon="-1.7087081176443402"><ele>678.75</ele><time>2026-05-03T15:27:36.002Z</time></trkpt><trkpt lat="41.42196548484133" lon="-1.7086679666674425"><ele>678.5</ele><time>2026-05-03T15:27:37.002Z</time></trkpt><trkpt lat="41.42185352722277" lon="-1.7086486801833454"><ele>678.25</ele><time>2026-05-03T15:27:38.002Z</time></trkpt><trkpt lat="41.421742128927995" lon="-1.70863613244897"><ele>678.0</ele><time>2026-05-03T15:27:39.002Z</time></trkpt><trkpt lat="41.42162650274125" lon="-1.7086329731042293"><ele>678.0</ele><time>2026-05-03T15:27:40.002Z</time></trkpt><trkpt lat="41.42151122562931" lon="-1.7086336692836623"><ele>678.0</ele><time>2026-05-03T15:27:41.002Z</time></trkpt><trkpt lat="41.42139543761985" lon="-1.708640897644941"><ele>678.0</ele><time>2026-05-03T15:27:42.002Z</time></trkpt><trkpt lat="41.421282886229164" lon="-1.7086491477692365"><ele>678.0</ele><time>2026-05-03T15:27:43.002Z</time></trkpt><trkpt lat="41.4211702912664" lon="-1.7086568119089764"><ele>677.25</ele><time>2026-05-03T15:27:44.002Z</time></trkpt><trkpt lat="41.42105481090426" lon="-1.7086638447755642"><ele>676.5</ele><time>2026-05-03T15:27:45.002Z</time></trkpt><trkpt lat="41.42093889773025" lon="-1.7086722035518014"><ele>675.75</ele><time>2026-05-03T15:27:46.002Z</time></trkpt><trkpt lat="41.420822492620715" lon="-1.7086795144458657"><ele>675.0</ele><time>2026-05-03T15:27:47.002Z</time></trkpt><trkpt lat="41.420709495400814" lon="-1.708687582179922"><ele>675.0</ele><time>2026-05-03T15:27:48.002Z</time></trkpt><trkpt lat="41.420594075106926" lon="-1.7086886714452212"><ele>675.0</ele><time>2026-05-03T15:27:49.002Z</time></trkpt><trkpt lat="41.42048280230435" lon="-1.7086826368170545"><ele>675.0</ele><time>2026-05-03T15:27:50.002Z</time></trkpt><trkpt lat="41.420369749874155" lon="-1.7086710054741099"><ele>675.0</ele><time>2026-05-03T15:27:51.002Z</time></trkpt><trkpt lat="41.420252405188585" lon="-1.7086545961915733"><ele>674.0</ele><time>2026-05-03T15:27:52.002Z</time></trkpt><trkpt lat="41.4201365676731" lon="-1.7086340794429304"><ele>673.0</ele><time>2026-05-03T15:27:53.002Z</time></trkpt><trkpt lat="41.42002113798259" lon="-1.708608403874029"><ele>672.0</ele><time>2026-05-03T15:27:54.002Z</time></trkpt><trkpt lat="41.419907866464094" lon="-1.7085759793928754"><ele>671.0</ele><time>2026-05-03T15:27:55.002Z</time></trkpt><trkpt lat="41.41979564595533" lon="-1.7085354818215779"><ele>670.0</ele><time>2026-05-03T15:27:56.002Z</time></trkpt><trkpt lat="41.41968610770309" lon="-1.7084900647729186"><ele>669.0</ele><time>2026-05-03T15:27:57.002Z</time></trkpt><trkpt lat="41.41957781468955" lon="-1.7084391188809607"><ele>668.0</ele><time>2026-05-03T15:27:58.002Z</time></trkpt><trkpt lat="41.419469923758065" lon="-1.7083834321939235"><ele>667.0</ele><time>2026-05-03T15:27:59.002Z</time></trkpt><trkpt lat="41.4193591356417" lon="-1.708326202792556"><ele>666.0</ele><time>2026-05-03T15:28:00.002Z</time></trkpt><trkpt lat="41.419248535492144" lon="-1.708275096846195"><ele>665.0</ele><time>2026-05-03T15:28:01.002Z</time></trkpt><trkpt lat="41.41913782235196" lon="-1.7082155681722049"><ele>664.0</ele><time>2026-05-03T15:28:02.002Z</time></trkpt><trkpt lat="41.419031965349205" lon="-1.7081602755420042"><ele>663.0</ele><time>2026-05-03T15:28:03.002Z</time></trkpt><trkpt lat="41.41892460479977" lon="-1.708105726614296"><ele>662.75</ele><time>2026-05-03T15:28:04.002Z</time></trkpt><trkpt lat="41.418815955125844" lon="-1.7080526475911508"><ele>662.5</ele><time>2026-05-03T15:28:05.002Z</time></trkpt><trkpt lat="41.41871000311543" lon="-1.707996406946643"><ele>662.25</ele><time>2026-05-03T15:28:06.002Z</time></trkpt><trkpt lat="41.41860270533786" lon="-1.7079413784809505"><ele>662.0</ele><time>2026-05-03T15:28:07.002Z</time></trkpt><trkpt lat="41.418496614531946" lon="-1.7078891692188136"><ele>662.0</ele><time>2026-05-03T15:28:08.001Z</time></trkpt><trkpt lat="41.418390235601606" lon="-1.7078338143176326"><ele>662.0</ele><time>2026-05-03T15:28:09.001Z</time></trkpt><trkpt lat="41.4182818932306" lon="-1.7077813476095518"><ele>662.0</ele><time>2026-05-03T15:28:10.001Z</time></trkpt><trkpt lat="41.41817408813444" lon="-1.7077302476633474"><ele>662.0</ele><time>2026-05-03T15:28:11.001Z</time></trkpt><trkpt lat="41.41806822946369" lon="-1.7076766269990267"><ele>660.2</ele><time>2026-05-03T15:28:12.001Z</time></trkpt><trkpt lat="41.417971854467716" lon="-1.7076254899728862"><ele>658.4000000000001</ele><time>2026-05-03T15:28:13.001Z</time></trkpt><trkpt lat="41.417865640237316" lon="-1.7075704406956485"><ele>656.5999999999999</ele><time>2026-05-03T15:28:14.001Z</time></trkpt><trkpt lat="41.417759765048444" lon="-1.7075113956898653"><ele>654.8</ele><time>2026-05-03T15:28:15.001Z</time></trkpt><trkpt lat="41.417648365726166" lon="-1.7074666439005735"><ele>653.0</ele><time>2026-05-03T15:28:16.001Z</time></trkpt><trkpt lat="41.41754202043576" lon="-1.7074156350927947"><ele>653.0</ele><time>2026-05-03T15:28:17.001Z</time></trkpt><trkpt lat="41.41743449383744" lon="-1.7073606592476562"><ele>653.0</ele><time>2026-05-03T15:28:18.001Z</time></trkpt><trkpt lat="41.417329155686566" lon="-1.707304243015908"><ele>653.0</ele><time>2026-05-03T15:28:19.001Z</time></trkpt><trkpt lat="41.417223998079244" lon="-1.707249882710899"><ele>653.0</ele><time>2026-05-03T15:28:20.001Z</time></trkpt><trkpt lat="41.41711977264783" lon="-1.7071914327573505"><ele>652.75</ele><time>2026-05-03T15:28:21.001Z</time></trkpt><trkpt lat="41.417018341940484" lon="-1.7071388831340863"><ele>652.5</ele><time>2026-05-03T15:28:22.001Z</time></trkpt><trkpt lat="41.41691040574063" lon="-1.707097326885558"><ele>652.25</ele><time>2026-05-03T15:28:23.001Z</time></trkpt><trkpt lat="41.41680117009501" lon="-1.707041372946881"><ele>652.0</ele><time>2026-05-03T15:28:24.001Z</time></trkpt><trkpt lat="41.4166954240749" lon="-1.7069815271182598"><ele>652.0</ele><time>2026-05-03T15:28:25.001Z</time></trkpt><trkpt lat="41.41658849832907" lon="-1.7069269477484321"><ele>652.0</ele><time>2026-05-03T15:28:26.001Z</time></trkpt><trkpt lat="41.416480276848255" lon="-1.706876466808807"><ele>652.0</ele><time>2026-05-03T15:28:27.001Z</time></trkpt><trkpt lat="41.416373773242015" lon="-1.7068225806222288"><ele>652.0</ele><time>2026-05-03T15:28:28.001Z</time></trkpt><trkpt lat="41.416267806218514" lon="-1.706767651501359"><ele>651.0</ele><time>2026-05-03T15:28:29.001Z</time></trkpt><trkpt lat="41.41616185192242" lon="-1.7067128265170088"><ele>650.0</ele><time>2026-05-03T15:28:30.001Z</time></trkpt><trkpt lat="41.416060204226405" lon="-1.7066497336109527"><ele>649.0</ele><time>2026-05-03T15:28:31.001Z</time></trkpt><trkpt lat="41.41595137862402" lon="-1.7065876205926058"><ele>648.0</ele><time>2026-05-03T15:28:32.001Z</time></trkpt><trkpt lat="41.41586215855643" lon="-1.7065178014768032"><ele>647.0</ele><time>2026-05-03T15:28:33.001Z</time></trkpt><trkpt lat="41.41576380859206" lon="-1.7064457588115884"><ele>647.0</ele><time>2026-05-03T15:28:34.001Z</time></trkpt><trkpt lat="41.41565100286967" lon="-1.7063655357558252"><ele>647.0</ele><time>2026-05-03T15:28:35.001Z</time></trkpt><trkpt lat="41.41555381232438" lon="-1.706284140163031"><ele>647.0</ele><time>2026-05-03T15:28:36.001Z</time></trkpt><trkpt lat="41.41545882969614" lon="-1.7062049607636798"><ele>647.0</ele><time>2026-05-03T15:28:37.001Z</time></trkpt><trkpt lat="41.41536368994987" lon="-1.706118939328767"><ele>645.5</ele><time>2026-05-03T15:28:38.001Z</time></trkpt><trkpt lat="41.41527236542751" lon="-1.70603034123844"><ele>644.0</ele><time>2026-05-03T15:28:39.001Z</time></trkpt><trkpt lat="41.41518179661896" lon="-1.705933676117431"><ele>642.5</ele><time>2026-05-03T15:28:40.001Z</time></trkpt><trkpt lat="41.41509140534688" lon="-1.705831849420005"><ele>641.0</ele><time>2026-05-03T15:28:41.001Z</time></trkpt><trkpt lat="41.4150057968681" lon="-1.705729698949999"><ele>641.0</ele><time>2026-05-03T15:28:42.001Z</time></trkpt><trkpt lat="41.414921770524955" lon="-1.7056192528849567"><ele>641.0</ele><time>2026-05-03T15:28:43.001Z</time></trkpt><trkpt lat="41.41484057663254" lon="-1.7055076067010866"><ele>641.0</ele><time>2026-05-03T15:28:44.001Z</time></trkpt><trkpt lat="41.4147625495806" lon="-1.70539223098571"><ele>641.0</ele><time>2026-05-03T15:28:45.001Z</time></trkpt><trkpt lat="41.414688439799335" lon="-1.705274309524197"><ele>640.5</ele><time>2026-05-03T15:28:46.001Z</time></trkpt><trkpt lat="41.41461795196111" lon="-1.7051496525891474"><ele>640.0</ele><time>2026-05-03T15:28:47.001Z</time></trkpt><trkpt lat="41.41454688778787" lon="-1.70502425967812"><ele>639.5</ele><time>2026-05-03T15:28:48.001Z</time></trkpt><trkpt lat="41.414476073828894" lon="-1.704898853881465"><ele>639.0</ele><time>2026-05-03T15:28:49.001Z</time></trkpt><trkpt lat="41.414406028743606" lon="-1.7047743647891986"><ele>639.0</ele><time>2026-05-03T15:28:50.001Z</time></trkpt><trkpt lat="41.41433730643078" lon="-1.7046476926405143"><ele>639.0</ele><time>2026-05-03T15:28:51.001Z</time></trkpt><trkpt lat="41.41427000975853" lon="-1.7045216209110332"><ele>639.0</ele><time>2026-05-03T15:28:52.001Z</time></trkpt><trkpt lat="41.41420181283136" lon="-1.7043983065534105"><ele>639.0</ele><time>2026-05-03T15:28:53.001Z</time></trkpt><trkpt lat="41.41413363976294" lon="-1.7042769366615709"><ele>637.25</ele><time>2026-05-03T15:28:54.001Z</time></trkpt><trkpt lat="41.414065206853365" lon="-1.704152791286555"><ele>635.5</ele><time>2026-05-03T15:28:55.001Z</time></trkpt><trkpt lat="41.413996121726804" lon="-1.7040294413205281"><ele>633.75</ele><time>2026-05-03T15:28:56.001Z</time></trkpt><trkpt lat="41.41392776204888" lon="-1.7039065208031854"><ele>632.0</ele><time>2026-05-03T15:28:57.001Z</time></trkpt><trkpt lat="41.413859488985864" lon="-1.7037833786226662"><ele>632.0</ele><time>2026-05-03T15:28:58.001Z</time></trkpt><trkpt lat="41.413791352901484" lon="-1.7036628445280757"><ele>632.0</ele><time>2026-05-03T15:28:59.001Z</time></trkpt><trkpt lat="41.41372411097409" lon="-1.7035392512265757"><ele>632.0</ele><time>2026-05-03T15:29:00.001Z</time></trkpt><trkpt lat="41.41365562561254" lon="-1.7034139558689083"><ele>632.0</ele><time>2026-05-03T15:29:01.001Z</time></trkpt><trkpt lat="41.41358898378969" lon="-1.7032893354107308"><ele>631.5</ele><time>2026-05-03T15:29:02.001Z</time></trkpt><trkpt lat="41.41352028509985" lon="-1.7031644524174123"><ele>631.0</ele><time>2026-05-03T15:29:03.001Z</time></trkpt><trkpt lat="41.413451764611814" lon="-1.703042026201006"><ele>630.5</ele><time>2026-05-03T15:29:04.001Z</time></trkpt><trkpt lat="41.41338417783037" lon="-1.702920246877581"><ele>630.0</ele><time>2026-05-03T15:29:05.001Z</time></trkpt><trkpt lat="41.41331696493872" lon="-1.7027974454517898"><ele>629.5</ele><time>2026-05-03T15:29:06.001Z</time></trkpt><trkpt lat="41.413249676038355" lon="-1.7026712748519244"><ele>629.0</ele><time>2026-05-03T15:29:07.001Z</time></trkpt><trkpt lat="41.413183642746965" lon="-1.7025505984877538"><ele>628.5</ele><time>2026-05-03T15:29:08.001Z</time></trkpt><trkpt lat="41.41311698762525" lon="-1.702427618474199"><ele>628.0</ele><time>2026-05-03T15:29:09.001Z</time></trkpt><trkpt lat="41.41304873660499" lon="-1.7023100226498182"><ele>627.75</ele><time>2026-05-03T15:29:10.001Z</time></trkpt><trkpt lat="41.41298322460324" lon="-1.7021804164956431"><ele>627.5</ele><time>2026-05-03T15:29:11.001Z</time></trkpt><trkpt lat="41.41291621129603" lon="-1.7020645997211425"><ele>627.25</ele><time>2026-05-03T15:29:12.001Z</time></trkpt><trkpt lat="41.412848300207294" lon="-1.7019438928258406"><ele>627.0</ele><time>2026-05-03T15:29:13.001Z</time></trkpt><trkpt lat="41.41277931964259" lon="-1.7018224124099768"><ele>627.0</ele><time>2026-05-03T15:29:14.001Z</time></trkpt><trkpt lat="41.41271141699443" lon="-1.7017020922946975"><ele>627.0</ele><time>2026-05-03T15:29:15.001Z</time></trkpt><trkpt lat="41.4126470257723" lon="-1.7015762894548"><ele>627.0</ele><time>2026-05-03T15:29:16.001Z</time></trkpt><trkpt lat="41.41258141194108" lon="-1.7014538356726037"><ele>627.0</ele><time>2026-05-03T15:29:17.001Z</time></trkpt><trkpt lat="41.412514932540525" lon="-1.7013308151641515"><ele>627.0</ele><time>2026-05-03T15:29:18.001Z</time></trkpt><trkpt lat="41.41244977957674" lon="-1.7012166920788336"><ele>627.0</ele><time>2026-05-03T15:29:19.001Z</time></trkpt><trkpt lat="41.41238314175698" lon="-1.7010869366216046"><ele>627.0</ele><time>2026-05-03T15:29:20.001Z</time></trkpt><trkpt lat="41.412316380394316" lon="-1.700977405990621"><ele>627.0</ele><time>2026-05-03T15:29:21.001Z</time></trkpt><trkpt lat="41.412246868732964" lon="-1.700850848047471"><ele>627.0</ele><time>2026-05-03T15:29:22.001Z</time></trkpt><trkpt lat="41.41217964039702" lon="-1.7007304491396837"><ele>626.5</ele><time>2026-05-03T15:29:23.001Z</time></trkpt><trkpt lat="41.41211229985855" lon="-1.7006094021266311"><ele>626.0</ele><time>2026-05-03T15:29:24.001Z</time></trkpt><trkpt lat="41.4120448629966" lon="-1.7004878811244213"><ele>625.5</ele><time>2026-05-03T15:29:25.001Z</time></trkpt><trkpt lat="41.41197715040584" lon="-1.7003624002056978"><ele>625.0</ele><time>2026-05-03T15:29:26.001Z</time></trkpt><trkpt lat="41.411908690866014" lon="-1.7002390152434999"><ele>625.0</ele><time>2026-05-03T15:29:27.001Z</time></trkpt><trkpt lat="41.41184070848384" lon="-1.7001173299164192"><ele>625.0</ele><time>2026-05-03T15:29:28.001Z</time></trkpt><trkpt lat="41.41177498744012" lon="-1.6999912860517776"><ele>625.0</ele><time>2026-05-03T15:29:29.001Z</time></trkpt><trkpt lat="41.411709656552" lon="-1.699868754171149"><ele>625.0</ele><time>2026-05-03T15:29:30.001Z</time></trkpt><trkpt lat="41.41164723768396" lon="-1.6997424477668208"><ele>625.0</ele><time>2026-05-03T15:29:31.001Z</time></trkpt><trkpt lat="41.41158797555662" lon="-1.699611432610067"><ele>625.0</ele><time>2026-05-03T15:29:32.001Z</time></trkpt><trkpt lat="41.41152979072653" lon="-1.69947723160252"><ele>625.0</ele><time>2026-05-03T15:29:33.001Z</time></trkpt><trkpt lat="41.41147671469906" lon="-1.6993402747298971"><ele>625.0</ele><time>2026-05-03T15:29:34.001Z</time></trkpt><trkpt lat="41.411430732137994" lon="-1.6992000631493576"><ele>624.0</ele><time>2026-05-03T15:29:35.001Z</time></trkpt><trkpt lat="41.41138893124403" lon="-1.6990555257348685"><ele>623.0</ele><time>2026-05-03T15:29:36.001Z</time></trkpt><trkpt lat="41.41135102831113" lon="-1.6989099089907143"><ele>622.0</ele><time>2026-05-03T15:29:37.001Z</time></trkpt><trkpt lat="41.41131802984159" lon="-1.6987614809316134"><ele>621.0</ele><time>2026-05-03T15:29:38.001Z</time></trkpt><trkpt lat="41.41128665924438" lon="-1.6986138332496428"><ele>620.5</ele><time>2026-05-03T15:29:39.001Z</time></trkpt><trkpt lat="41.41125912789744" lon="-1.6984631255645428"><ele>620.0</ele><time>2026-05-03T15:29:40.001Z</time></trkpt><trkpt lat="41.41123441988797" lon="-1.698308516509859"><ele>619.5</ele><time>2026-05-03T15:29:41.001Z</time></trkpt><trkpt lat="41.411209525485766" lon="-1.698158304987336"><ele>619.0</ele><time>2026-05-03T15:29:42.001Z</time></trkpt><trkpt lat="41.411185897522266" lon="-1.6980056876924585"><ele>619.0</ele><time>2026-05-03T15:29:43.001Z</time></trkpt><trkpt lat="41.411160732648476" lon="-1.6978565996619568"><ele>619.0</ele><time>2026-05-03T15:29:44.001Z</time></trkpt><trkpt lat="41.411136505164706" lon="-1.6977083743997394"><ele>619.0</ele><time>2026-05-03T15:29:45.001Z</time></trkpt><trkpt lat="41.411111471794584" lon="-1.6975600189862603"><ele>619.0</ele><time>2026-05-03T15:29:46.001Z</time></trkpt><trkpt lat="41.411087915587345" lon="-1.6974093700968926"><ele>618.75</ele><time>2026-05-03T15:29:47.001Z</time></trkpt><trkpt lat="41.41106486522911" lon="-1.6972599831838673"><ele>618.5</ele><time>2026-05-03T15:29:48.001Z</time></trkpt><trkpt lat="41.4110360799148" lon="-1.6971102764477008"><ele>618.25</ele><time>2026-05-03T15:29:49.001Z</time></trkpt><trkpt lat="41.41100805936544" lon="-1.6969636288400625"><ele>618.0</ele><time>2026-05-03T15:29:50.002Z</time></trkpt><trkpt lat="41.4109757767736" lon="-1.6968179250198703"><ele>619.0</ele><time>2026-05-03T15:29:51.002Z</time></trkpt><trkpt lat="41.4109398617611" lon="-1.6966742337444978"><ele>620.0</ele><time>2026-05-03T15:29:52.002Z</time></trkpt><trkpt lat="41.41089931146581" lon="-1.6965340573202985"><ele>621.0</ele><time>2026-05-03T15:29:53.002Z</time></trkpt><trkpt lat="41.41085476640973" lon="-1.6963946767219584"><ele>622.0</ele><time>2026-05-03T15:29:54.002Z</time></trkpt><trkpt lat="41.41080576807403" lon="-1.6962565341892428"><ele>622.0</ele><time>2026-05-03T15:29:55.002Z</time></trkpt><trkpt lat="41.410752153131874" lon="-1.696121817245416"><ele>622.0</ele><time>2026-05-03T15:29:56.002Z</time></trkpt><trkpt lat="41.410692392803064" lon="-1.6959936273831757"><ele>622.0</ele><time>2026-05-03T15:29:57.002Z</time></trkpt><trkpt lat="41.410628281585176" lon="-1.6958686451417548"><ele>622.0</ele><time>2026-05-03T15:29:58.002Z</time></trkpt><trkpt lat="41.410562624812314" lon="-1.695742580819474"><ele>622.0</ele><time>2026-05-03T15:29:59.002Z</time></trkpt><trkpt lat="41.41049254536032" lon="-1.695620140190232"><ele>622.0</ele><time>2026-05-03T15:30:00.002Z</time></trkpt><trkpt lat="41.41041787161838" lon="-1.6955009936721577"><ele>622.0</ele><time>2026-05-03T15:30:01.002Z</time></trkpt><trkpt lat="41.410340324031495" lon="-1.6953873761719225"><ele>622.0</ele><time>2026-05-03T15:30:02.002Z</time></trkpt><trkpt lat="41.41025776006015" lon="-1.6952791928655226"><ele>621.75</ele><time>2026-05-03T15:30:03.002Z</time></trkpt><trkpt lat="41.410172710806506" lon="-1.69517577935911"><ele>621.5</ele><time>2026-05-03T15:30:04.002Z</time></trkpt><trkpt lat="41.41008614293213" lon="-1.6950724935392385"><ele>621.25</ele><time>2026-05-03T15:30:05.002Z</time></trkpt><trkpt lat="41.409999379932536" lon="-1.6949697281909855"><ele>621.0</ele><time>2026-05-03T15:30:06.002Z</time></trkpt><trkpt lat="41.409912088203455" lon="-1.6948663487329982"><ele>621.0</ele><time>2026-05-03T15:30:07.002Z</time></trkpt><trkpt lat="41.40982537068537" lon="-1.694762699602436"><ele>621.0</ele><time>2026-05-03T15:30:08.002Z</time></trkpt><trkpt lat="41.409739397267046" lon="-1.6946574507078174"><ele>621.0</ele><time>2026-05-03T15:30:09.002Z</time></trkpt><trkpt lat="41.40965248507363" lon="-1.6945531130990992"><ele>621.0</ele><time>2026-05-03T15:30:10.002Z</time></trkpt><trkpt lat="41.40956531259083" lon="-1.6944507214917957"><ele>619.75</ele><time>2026-05-03T15:30:11.002Z</time></trkpt><trkpt lat="41.40947915022306" lon="-1.6943465823243478"><ele>618.5</ele><time>2026-05-03T15:30:12.002Z</time></trkpt><trkpt lat="41.40939257627105" lon="-1.6942462397295546"><ele>617.25</ele><time>2026-05-03T15:30:13.002Z</time></trkpt><trkpt lat="41.40930676434841" lon="-1.6941460791067053"><ele>616.0</ele><time>2026-05-03T15:30:14.001Z</time></trkpt><trkpt lat="41.40922194327894" lon="-1.6940458693358909"><ele>616.0</ele><time>2026-05-03T15:30:15.001Z</time></trkpt><trkpt lat="41.40914009929024" lon="-1.693946804935464"><ele>616.0</ele><time>2026-05-03T15:30:16.001Z</time></trkpt><trkpt lat="41.40905615607121" lon="-1.6938455683891547"><ele>616.0</ele><time>2026-05-03T15:30:17.001Z</time></trkpt><trkpt lat="41.408971727872355" lon="-1.6937445097811437"><ele>616.0</ele><time>2026-05-03T15:30:18.001Z</time></trkpt><trkpt lat="41.408884238578615" lon="-1.6936448108310622"><ele>615.6</ele><time>2026-05-03T15:30:19.001Z</time></trkpt><trkpt lat="41.40879874182463" lon="-1.6935452619657214"><ele>615.2</ele><time>2026-05-03T15:30:20.001Z</time></trkpt><trkpt lat="41.408714166926366" lon="-1.6934422157001512"><ele>614.8</ele><time>2026-05-03T15:30:21.001Z</time></trkpt><trkpt lat="41.40863764734945" lon="-1.6933567690055897"><ele>614.4</ele><time>2026-05-03T15:30:22.001Z</time></trkpt><trkpt lat="41.40855466813671" lon="-1.6932647324011811"><ele>614.0</ele><time>2026-05-03T15:30:23.001Z</time></trkpt><trkpt lat="41.408456686894134" lon="-1.6931508922465088"><ele>614.0</ele><time>2026-05-03T15:30:24.001Z</time></trkpt><trkpt lat="41.408376401604485" lon="-1.6930463015348614"><ele>614.0</ele><time>2026-05-03T15:30:25.001Z</time></trkpt><trkpt lat="41.40830023680221" lon="-1.6929534290486066"><ele>614.0</ele><time>2026-05-03T15:30:26.001Z</time></trkpt><trkpt lat="41.40821839203962" lon="-1.6928547847602793"><ele>614.0</ele><time>2026-05-03T15:30:27.001Z</time></trkpt><trkpt lat="41.40813574053576" lon="-1.692759577174448"><ele>614.0</ele><time>2026-05-03T15:30:28.001Z</time></trkpt><trkpt lat="41.40805537819248" lon="-1.692661117547435"><ele>613.8</ele><time>2026-05-03T15:30:29.001Z</time></trkpt><trkpt lat="41.407975692844715" lon="-1.6925696759576274"><ele>613.5999999999999</ele><time>2026-05-03T15:30:30.001Z</time></trkpt><trkpt lat="41.4078950461116" lon="-1.692470948756605"><ele>613.4</ele><time>2026-05-03T15:30:31.001Z</time></trkpt><trkpt lat="41.407817352450905" lon="-1.692366057424943"><ele>613.1999999999999</ele><time>2026-05-03T15:30:32.001Z</time></trkpt><trkpt lat="41.40774097389221" lon="-1.6922603431362295"><ele>613.0</ele><time>2026-05-03T15:30:33.001Z</time></trkpt><trkpt lat="41.407667003313186" lon="-1.6921481055926682"><ele>613.0</ele><time>2026-05-03T15:30:34.001Z</time></trkpt><trkpt lat="41.40759332705264" lon="-1.692032746798916"><ele>613.0</ele><time>2026-05-03T15:30:35.001Z</time></trkpt><trkpt lat="41.40752192565717" lon="-1.6919222092868538"><ele>613.0</ele><time>2026-05-03T15:30:36.001Z</time></trkpt><trkpt lat="41.40745612042329" lon="-1.6918029771544771"><ele>613.0</ele><time>2026-05-03T15:30:37.001Z</time></trkpt><trkpt lat="41.40739468847652" lon="-1.6916812668826315"><ele>613.0</ele><time>2026-05-03T15:30:38.001Z</time></trkpt><trkpt lat="41.40733668147888" lon="-1.6915634786605627"><ele>612.6</ele><time>2026-05-03T15:30:39.001Z</time></trkpt><trkpt lat="41.40727520125421" lon="-1.6914403530525777"><ele>612.1999999999999</ele><time>2026-05-03T15:30:40.001Z</time></trkpt><trkpt lat="41.407220747803095" lon="-1.6913146978601559"><ele>611.8</ele><time>2026-05-03T15:30:41.001Z</time></trkpt><trkpt lat="41.407171774849076" lon="-1.6911924207499245"><ele>611.4</ele><time>2026-05-03T15:30:42.001Z</time></trkpt><trkpt lat="41.40712572156988" lon="-1.6910667229103247"><ele>611.0</ele><time>2026-05-03T15:30:43.001Z</time></trkpt><trkpt lat="41.40708245635274" lon="-1.6909405288661794"><ele>611.0</ele><time>2026-05-03T15:30:44.001Z</time></trkpt><trkpt lat="41.407040475360525" lon="-1.6908101917312983"><ele>611.0</ele><time>2026-05-03T15:30:45.001Z</time></trkpt><trkpt lat="41.40700128088695" lon="-1.6906794820059023"><ele>611.0</ele><time>2026-05-03T15:30:46.001Z</time></trkpt><trkpt lat="41.40696386570813" lon="-1.6905463550255202"><ele>611.0</ele><time>2026-05-03T15:30:47.001Z</time></trkpt><trkpt lat="41.406926791899224" lon="-1.6904094807288346"><ele>611.0</ele><time>2026-05-03T15:30:48.001Z</time></trkpt><trkpt lat="41.406885939525054" lon="-1.690270636246438"><ele>611.4</ele><time>2026-05-03T15:30:49.001Z</time></trkpt><trkpt lat="41.40684914413118" lon="-1.6901342326106683"><ele>611.8</ele><time>2026-05-03T15:30:50.001Z</time></trkpt><trkpt lat="41.40681350562468" lon="-1.6899971636625057"><ele>612.1999999999999</ele><time>2026-05-03T15:30:51.001Z</time></trkpt><trkpt lat="41.406776768754696" lon="-1.6898612409571039"><ele>612.6</ele><time>2026-05-03T15:30:52.001Z</time></trkpt><trkpt lat="41.40674029591306" lon="-1.6897234376058874"><ele>613.0</ele><time>2026-05-03T15:30:53.001Z</time></trkpt><trkpt lat="41.40670296142859" lon="-1.689586581324982"><ele>613.0</ele><time>2026-05-03T15:30:54.001Z</time></trkpt><trkpt lat="41.40666241466268" lon="-1.689443340174267"><ele>613.0</ele><time>2026-05-03T15:30:55.001Z</time></trkpt><trkpt lat="41.40662367570181" lon="-1.6893062087964588"><ele>613.0</ele><time>2026-05-03T15:30:56.001Z</time></trkpt><trkpt lat="41.406583716114945" lon="-1.689155704967097"><ele>613.0</ele><time>2026-05-03T15:30:57.001Z</time></trkpt><trkpt lat="41.40654008645005" lon="-1.6890376684384825"><ele>613.0</ele><time>2026-05-03T15:30:58.001Z</time></trkpt><trkpt lat="41.406482928353164" lon="-1.688969323427044"><ele>612.75</ele><time>2026-05-03T15:30:59.001Z</time></trkpt><trkpt lat="41.406469228532764" lon="-1.6887417300262446"><ele>612.5</ele><time>2026-05-03T15:31:00.001Z</time></trkpt><trkpt lat="41.40643007264029" lon="-1.6886000341756442"><ele>612.25</ele><time>2026-05-03T15:31:01.001Z</time></trkpt><trkpt lat="41.4063887775281" lon="-1.6884588997607954"><ele>612.0</ele><time>2026-05-03T15:31:02.001Z</time></trkpt><trkpt lat="41.40634796819586" lon="-1.68831362979204"><ele>611.6</ele><time>2026-05-03T15:31:03.001Z</time></trkpt><trkpt lat="41.406309882211445" lon="-1.6881722413597433"><ele>611.2</ele><time>2026-05-03T15:31:04.001Z</time></trkpt><trkpt lat="41.4062733740325" lon="-1.688027216114779"><ele>610.8</ele><time>2026-05-03T15:31:05.001Z</time></trkpt><trkpt lat="41.40623415161031" lon="-1.6878881012496214"><ele>610.4</ele><time>2026-05-03T15:31:06.001Z</time></trkpt><trkpt lat="41.40619344109825" lon="-1.6877520213757244"><ele>610.0</ele><time>2026-05-03T15:31:07.001Z</time></trkpt><trkpt lat="41.40615586539711" lon="-1.6876146218821855"><ele>610.0</ele><time>2026-05-03T15:31:08.001Z</time></trkpt><trkpt lat="41.40611812036003" lon="-1.6874791784983842"><ele>610.0</ele><time>2026-05-03T15:31:09.001Z</time></trkpt><trkpt lat="41.406080145179885" lon="-1.687342398405433"><ele>610.0</ele><time>2026-05-03T15:31:10.001Z</time></trkpt><trkpt lat="41.40604457705519" lon="-1.6872052520533944"><ele>610.0</ele><time>2026-05-03T15:31:11.001Z</time></trkpt><trkpt lat="41.40600687566888" lon="-1.6870710086439669"><ele>610.0</ele><time>2026-05-03T15:31:12.001Z</time></trkpt><trkpt lat="41.405966275385104" lon="-1.6869333998004241"><ele>610.0</ele><time>2026-05-03T15:31:13.001Z</time></trkpt><trkpt lat="41.40592934402755" lon="-1.686801662078959"><ele>610.0</ele><time>2026-05-03T15:31:14.001Z</time></trkpt><trkpt lat="41.40589315826301" lon="-1.6866670104717794"><ele>610.0</ele><time>2026-05-03T15:31:15.001Z</time></trkpt><trkpt lat="41.405854095652224" lon="-1.6865332656741105"><ele>610.0</ele><time>2026-05-03T15:31:16.001Z</time></trkpt><trkpt lat="41.4058178152894" lon="-1.6863944067529069"><ele>610.0</ele><time>2026-05-03T15:31:17.001Z</time></trkpt><trkpt lat="41.405781055963494" lon="-1.6862549115406542"><ele>610.0</ele><time>2026-05-03T15:31:18.001Z</time></trkpt><trkpt lat="41.405743803651504" lon="-1.6861151862931367"><ele>610.0</ele><time>2026-05-03T15:31:19.001Z</time></trkpt><trkpt lat="41.4057043000316" lon="-1.685975882841881"><ele>610.0</ele><time>2026-05-03T15:31:20.001Z</time></trkpt><trkpt lat="41.40566623560534" lon="-1.6858427929281883"><ele>610.0</ele><time>2026-05-03T15:31:21.001Z</time></trkpt><trkpt lat="41.405628759257446" lon="-1.6857092008504562"><ele>610.0</ele><time>2026-05-03T15:31:22.001Z</time></trkpt><trkpt lat="41.405590769360124" lon="-1.6855728591499688"><ele>609.8</ele><time>2026-05-03T15:31:23.001Z</time></trkpt><trkpt lat="41.405554367062734" lon="-1.6854340905204044"><ele>609.6</ele><time>2026-05-03T15:31:24.001Z</time></trkpt><trkpt lat="41.40551912796794" lon="-1.6852920133517024"><ele>609.4</ele><time>2026-05-03T15:31:25.001Z</time></trkpt><trkpt lat="41.405487161662855" lon="-1.6851518777043066"><ele>609.2</ele><time>2026-05-03T15:31:26.001Z</time></trkpt><trkpt lat="41.40543868511423" lon="-1.685013764945786"><ele>609.0</ele><time>2026-05-03T15:31:27.001Z</time></trkpt><trkpt lat="41.40540911314461" lon="-1.684873196488618"><ele>607.75</ele><time>2026-05-03T15:31:28.001Z</time></trkpt><trkpt lat="41.40536101452454" lon="-1.684730622380241"><ele>606.5</ele><time>2026-05-03T15:31:29.001Z</time></trkpt><trkpt lat="41.40533176562712" lon="-1.684595149693301"><ele>605.25</ele><time>2026-05-03T15:31:30.001Z</time></trkpt><trkpt lat="41.4052986479138" lon="-1.6844519474154882"><ele>604.0</ele><time>2026-05-03T15:31:31.001Z</time></trkpt><trkpt lat="41.40524621086327" lon="-1.6843146860429108"><ele>604.0</ele><time>2026-05-03T15:31:32.001Z</time></trkpt><trkpt lat="41.405208117453526" lon="-1.6841757280199632"><ele>604.0</ele><time>2026-05-03T15:31:33.001Z</time></trkpt><trkpt lat="41.40517340411214" lon="-1.6840342149662424"><ele>604.0</ele><time>2026-05-03T15:31:34.001Z</time></trkpt><trkpt lat="41.40513554456378" lon="-1.6838947295227138"><ele>604.0</ele><time>2026-05-03T15:31:35.001Z</time></trkpt><trkpt lat="41.40509522608728" lon="-1.6837527429659278"><ele>604.0</ele><time>2026-05-03T15:31:36.001Z</time></trkpt><trkpt lat="41.405058249145455" lon="-1.6836148358556111"><ele>603.0</ele><time>2026-05-03T15:31:37.001Z</time></trkpt><trkpt lat="41.405019588908836" lon="-1.6834749390925632"><ele>602.0</ele><time>2026-05-03T15:31:38.001Z</time></trkpt><trkpt lat="41.40498110468326" lon="-1.6833339507156224"><ele>601.0</ele><time>2026-05-03T15:31:39.001Z</time></trkpt><trkpt lat="41.40494147234614" lon="-1.6831927288044808"><ele>600.0</ele><time>2026-05-03T15:31:40.001Z</time></trkpt><trkpt lat="41.404902765014086" lon="-1.683050893693854"><ele>600.0</ele><time>2026-05-03T15:31:41.001Z</time></trkpt><trkpt lat="41.404863039155806" lon="-1.682908783838142"><ele>600.0</ele><time>2026-05-03T15:31:42.001Z</time></trkpt><trkpt lat="41.40482409462603" lon="-1.6827662086717075"><ele>600.0</ele><time>2026-05-03T15:31:43.001Z</time></trkpt><trkpt lat="41.40478703447076" lon="-1.6826246734052572"><ele>600.0</ele><time>2026-05-03T15:31:44.001Z</time></trkpt><trkpt lat="41.40474689997551" lon="-1.6824808553717958"><ele>599.75</ele><time>2026-05-03T15:31:45.001Z</time></trkpt><trkpt lat="41.40470974743103" lon="-1.6823423150096253"><ele>599.5</ele><time>2026-05-03T15:31:46.001Z</time></trkpt><trkpt lat="41.40466859940492" lon="-1.6821990288007556"><ele>599.25</ele><time>2026-05-03T15:31:47.001Z</time></trkpt><trkpt lat="41.40462895521919" lon="-1.6820581992993195"><ele>599.0</ele><time>2026-05-03T15:31:48.001Z</time></trkpt><trkpt lat="41.40459065504774" lon="-1.681910644659326"><ele>596.75</ele><time>2026-05-03T15:31:49.001Z</time></trkpt><trkpt lat="41.40455138359326" lon="-1.6817662826146982"><ele>594.5</ele><time>2026-05-03T15:31:50.001Z</time></trkpt><trkpt lat="41.40451095127162" lon="-1.6816231634954681"><ele>592.25</ele><time>2026-05-03T15:31:51.001Z</time></trkpt><trkpt lat="41.40447186780481" lon="-1.6814781347958117"><ele>590.0</ele><time>2026-05-03T15:31:52.001Z</time></trkpt><trkpt lat="41.40443340492532" lon="-1.6813326066784737"><ele>590.0</ele><time>2026-05-03T15:31:53.001Z</time></trkpt><trkpt lat="41.404395235602976" lon="-1.6811929935352257"><ele>590.0</ele><time>2026-05-03T15:31:54.001Z</time></trkpt><trkpt lat="41.40435722134134" lon="-1.68105599776258"><ele>590.0</ele><time>2026-05-03T15:31:55.001Z</time></trkpt><trkpt lat="41.40431976967743" lon="-1.6809168733331694"><ele>590.0</ele><time>2026-05-03T15:31:56.001Z</time></trkpt><trkpt lat="41.40428108903221" lon="-1.6807760330344377"><ele>590.0</ele><time>2026-05-03T15:31:57.001Z</time></trkpt><trkpt lat="41.404243562687064" lon="-1.6806371192077512"><ele>590.4</ele><time>2026-05-03T15:31:58.001Z</time></trkpt><trkpt lat="41.40420392163461" lon="-1.680496024724366"><ele>590.8</ele><time>2026-05-03T15:31:59.001Z</time></trkpt><trkpt lat="41.4041642179497" lon="-1.680358752952218"><ele>591.2</ele><time>2026-05-03T15:32:00.001Z</time></trkpt><trkpt lat="41.404124376792936" lon="-1.680217445554333"><ele>591.6</ele><time>2026-05-03T15:32:01.001Z</time></trkpt><trkpt lat="41.404086628122684" lon="-1.6800806573114762"><ele>592.0</ele><time>2026-05-03T15:32:02.001Z</time></trkpt><trkpt lat="41.40404538074558" lon="-1.6799420621813"><ele>592.2</ele><time>2026-05-03T15:32:03.001Z</time></trkpt><trkpt lat="41.40400208013259" lon="-1.6798060201132592"><ele>592.4000000000001</ele><time>2026-05-03T15:32:04.001Z</time></trkpt><trkpt lat="41.40395934746168" lon="-1.679665492151873"><ele>592.5999999999999</ele><time>2026-05-03T15:32:05.001Z</time></trkpt><trkpt lat="41.40391258537355" lon="-1.679531134896049"><ele>592.8</ele><time>2026-05-03T15:32:06.001Z</time></trkpt><trkpt lat="41.40386653363026" lon="-1.6793946710306447"><ele>593.0</ele><time>2026-05-03T15:32:07.001Z</time></trkpt><trkpt lat="41.403818454462645" lon="-1.6792574221784369"><ele>591.0</ele><time>2026-05-03T15:32:08.001Z</time></trkpt><trkpt lat="41.403771242568084" lon="-1.6791197704795882"><ele>589.0</ele><time>2026-05-03T15:32:09.001Z</time></trkpt><trkpt lat="41.403721792714975" lon="-1.6789822425029424"><ele>587.0</ele><time>2026-05-03T15:32:10.001Z</time></trkpt><trkpt lat="41.403673105962426" lon="-1.6788447875592405"><ele>585.0</ele><time>2026-05-03T15:32:11.001Z</time></trkpt><trkpt lat="41.403623151504085" lon="-1.6787122381032291"><ele>585.0</ele><time>2026-05-03T15:32:12.001Z</time></trkpt><trkpt lat="41.40357350983004" lon="-1.678580588009754"><ele>585.0</ele><time>2026-05-03T15:32:13.001Z</time></trkpt><trkpt lat="41.40352259392491" lon="-1.6784508680494872"><ele>585.0</ele><time>2026-05-03T15:32:14.001Z</time></trkpt><trkpt lat="41.403468453934785" lon="-1.6783208219726828"><ele>585.0</ele><time>2026-05-03T15:32:15.001Z</time></trkpt><trkpt lat="41.4034146928371" lon="-1.6781913465381193"><ele>585.0</ele><time>2026-05-03T15:32:16.001Z</time></trkpt><trkpt lat="41.40336028488288" lon="-1.6780646779807071"><ele>585.0</ele><time>2026-05-03T15:32:17.001Z</time></trkpt><trkpt lat="41.40330359941151" lon="-1.6779363445790314"><ele>585.0</ele><time>2026-05-03T15:32:18.001Z</time></trkpt><trkpt lat="41.403246470731446" lon="-1.6778100425906637"><ele>585.0</ele><time>2026-05-03T15:32:19.001Z</time></trkpt><trkpt lat="41.403186729002" lon="-1.6776823800789753"><ele>585.0</ele><time>2026-05-03T15:32:20.001Z</time></trkpt><trkpt lat="41.40312742485568" lon="-1.6775557102419705"><ele>585.0</ele><time>2026-05-03T15:32:21.001Z</time></trkpt><trkpt lat="41.40306965226978" lon="-1.6774296618203943"><ele>584.6</ele><time>2026-05-03T15:32:22.001Z</time></trkpt><trkpt lat="41.40301575242383" lon="-1.677301521240962"><ele>584.2</ele><time>2026-05-03T15:32:23.001Z</time></trkpt><trkpt lat="41.40295949001945" lon="-1.6771713995285114"><ele>583.8</ele><time>2026-05-03T15:32:24.001Z</time></trkpt><trkpt lat="41.40290306015627" lon="-1.6770415351934855"><ele>583.4</ele><time>2026-05-03T15:32:25.001Z</time></trkpt><trkpt lat="41.40285401085695" lon="-1.6769106658155535"><ele>583.0</ele><time>2026-05-03T15:32:26Z</time></trkpt><trkpt lat="41.4028063515084" lon="-1.6767809606826523"><ele>582.8</ele><time>2026-05-03T15:32:27Z</time></trkpt><trkpt lat="41.402764924026975" lon="-1.6766478770596127"><ele>582.5999999999999</ele><time>2026-05-03T15:32:28Z</time></trkpt><trkpt lat="41.40272445774416" lon="-1.676508252159921"><ele>582.4000000000001</ele><time>2026-05-03T15:32:29Z</time></trkpt><trkpt lat="41.40268845779049" lon="-1.6763658063406979"><ele>582.2</ele><time>2026-05-03T15:32:30Z</time></trkpt><trkpt lat="41.402659040501156" lon="-1.6762202772525518"><ele>582.0</ele><time>2026-05-03T15:32:31Z</time></trkpt><trkpt lat="41.402637785913214" lon="-1.6760737432816215"><ele>581.8000000000001</ele><time>2026-05-03T15:32:32Z</time></trkpt><trkpt lat="41.4026235786195" lon="-1.6759212274408792"><ele>581.6</ele><time>2026-05-03T15:32:33Z</time></trkpt><trkpt lat="41.402612662751686" lon="-1.6757782340095535"><ele>581.4000000000001</ele><time>2026-05-03T15:32:34Z</time></trkpt><trkpt lat="41.40260319572195" lon="-1.6756303686568068"><ele>581.2</ele><time>2026-05-03T15:32:35Z</time></trkpt><trkpt lat="41.402591799625036" lon="-1.6754843513354298"><ele>581.0</ele><time>2026-05-03T15:32:36Z</time></trkpt><trkpt lat="41.40258312227143" lon="-1.6753419080997163"><ele>580.8</ele><time>2026-05-03T15:32:37Z</time></trkpt><trkpt lat="41.402574051371865" lon="-1.675201282467057"><ele>580.6</ele><time>2026-05-03T15:32:38Z</time></trkpt><trkpt lat="41.402566030603154" lon="-1.6750543394433315"><ele>580.4</ele><time>2026-05-03T15:32:39Z</time></trkpt><trkpt lat="41.40255518545119" lon="-1.674906041653703"><ele>580.2</ele><time>2026-05-03T15:32:40Z</time></trkpt><trkpt lat="41.40254535760295" lon="-1.674759795237804"><ele>580.0</ele><time>2026-05-03T15:32:41Z</time></trkpt><trkpt lat="41.40253337067442" lon="-1.6746110219694088"><ele>580.0</ele><time>2026-05-03T15:32:42Z</time></trkpt><trkpt lat="41.40252436542569" lon="-1.6744681630512495"><ele>580.0</ele><time>2026-05-03T15:32:43Z</time></trkpt><trkpt lat="41.40251209296591" lon="-1.6743213898201676"><ele>580.0</ele><time>2026-05-03T15:32:44Z</time></trkpt><trkpt lat="41.402499929283366" lon="-1.6741736365230497"><ele>580.0</ele><time>2026-05-03T15:32:45Z</time></trkpt><trkpt lat="41.40248635211924" lon="-1.6740231216676573"><ele>580.0</ele><time>2026-05-03T15:32:46Z</time></trkpt><trkpt lat="41.40246928767914" lon="-1.6738737566976787"><ele>580.6</ele><time>2026-05-03T15:32:47Z</time></trkpt><trkpt lat="41.40245151647677" lon="-1.6737266938494322"><ele>581.2</ele><time>2026-05-03T15:32:48Z</time></trkpt><trkpt lat="41.40243378703531" lon="-1.673583504993267"><ele>581.8</ele><time>2026-05-03T15:32:49Z</time></trkpt><trkpt lat="41.402415653206155" lon="-1.6734363179262035"><ele>582.4</ele><time>2026-05-03T15:32:50Z</time></trkpt><trkpt lat="41.402397117346496" lon="-1.6732904275168778"><ele>583.0</ele><time>2026-05-03T15:32:51Z</time></trkpt><trkpt lat="41.40237737019036" lon="-1.6731480416641686"><ele>583.0</ele><time>2026-05-03T15:32:52Z</time></trkpt><trkpt lat="41.40235759179763" lon="-1.6730039402933703"><ele>583.0</ele><time>2026-05-03T15:32:53Z</time></trkpt><trkpt lat="41.40233433605743" lon="-1.6728585382660746"><ele>583.0</ele><time>2026-05-03T15:32:54Z</time></trkpt><trkpt lat="41.40231149499978" lon="-1.6727124967360425"><ele>583.0</ele><time>2026-05-03T15:32:55Z</time></trkpt><trkpt lat="41.402277027429825" lon="-1.6725634290635236"><ele>583.0</ele><time>2026-05-03T15:32:56Z</time></trkpt><trkpt lat="41.402251116098384" lon="-1.6724231270450465"><ele>583.0</ele><time>2026-05-03T15:32:57Z</time></trkpt><trkpt lat="41.40224409131271" lon="-1.6722672502974252"><ele>583.0</ele><time>2026-05-03T15:32:58Z</time></trkpt><trkpt lat="41.40220861911922" lon="-1.6720967547582581"><ele>583.0</ele><time>2026-05-03T15:32:59Z</time></trkpt><trkpt lat="41.402194420683536" lon="-1.6719865894059254"><ele>583.0</ele><time>2026-05-03T15:33:00Z</time></trkpt><trkpt lat="41.40217146211226" lon="-1.671842436705715"><ele>581.6</ele><time>2026-05-03T15:33:01Z</time></trkpt><trkpt lat="41.40214732775052" lon="-1.671696859410106"><ele>580.1999999999999</ele><time>2026-05-03T15:33:02Z</time></trkpt><trkpt lat="41.40212428959168" lon="-1.6715518267732288"><ele>578.8</ele><time>2026-05-03T15:33:03Z</time></trkpt><trkpt lat="41.40209960184914" lon="-1.6714111269623335"><ele>577.4</ele><time>2026-05-03T15:33:04Z</time></trkpt><trkpt lat="41.402074511378096" lon="-1.671269851657584"><ele>576.0</ele><time>2026-05-03T15:33:05Z</time></trkpt><trkpt lat="41.402047880067286" lon="-1.6711273300919989"><ele>576.0</ele><time>2026-05-03T15:33:06.001Z</time></trkpt><trkpt lat="41.402018497870074" lon="-1.6709887087409239"><ele>576.0</ele><time>2026-05-03T15:33:07.001Z</time></trkpt><trkpt lat="41.40198958036455" lon="-1.6708467796937818"><ele>576.0</ele><time>2026-05-03T15:33:08.001Z</time></trkpt><trkpt lat="41.40195609187345" lon="-1.6707032342267072"><ele>576.0</ele><time>2026-05-03T15:33:09.001Z</time></trkpt><trkpt lat="41.401921300615264" lon="-1.6705611749318594"><ele>576.0</ele><time>2026-05-03T15:33:10.001Z</time></trkpt><trkpt lat="41.401885593115395" lon="-1.6704223403785696"><ele>576.0</ele><time>2026-05-03T15:33:11.001Z</time></trkpt><trkpt lat="41.4018490058969" lon="-1.6702834801317505"><ele>576.0</ele><time>2026-05-03T15:33:12.001Z</time></trkpt><trkpt lat="41.401811319860634" lon="-1.670150566846952"><ele>576.0</ele><time>2026-05-03T15:33:13.001Z</time></trkpt><trkpt lat="41.40176854298705" lon="-1.6700140313597749"><ele>576.0</ele><time>2026-05-03T15:33:14.001Z</time></trkpt><trkpt lat="41.40172482400637" lon="-1.6698817381095024"><ele>576.0</ele><time>2026-05-03T15:33:15.001Z</time></trkpt><trkpt lat="41.40168203966579" lon="-1.6697479653628788"><ele>576.0</ele><time>2026-05-03T15:33:16.001Z</time></trkpt><trkpt lat="41.401638743210206" lon="-1.6696146446617623"><ele>576.0</ele><time>2026-05-03T15:33:17.001Z</time></trkpt><trkpt lat="41.40159866338851" lon="-1.669488852278775"><ele>576.0</ele><time>2026-05-03T15:33:18.001Z</time></trkpt><trkpt lat="41.4015534957244" lon="-1.6693547731091933"><ele>576.0</ele><time>2026-05-03T15:33:19.001Z</time></trkpt><trkpt lat="41.40150857971692" lon="-1.6692252472237241"><ele>576.0</ele><time>2026-05-03T15:33:20.001Z</time></trkpt><trkpt lat="41.40146455594901" lon="-1.6690937039588083"><ele>576.4</ele><time>2026-05-03T15:33:21.001Z</time></trkpt><trkpt lat="41.40142253717483" lon="-1.6689629342867747"><ele>576.8</ele><time>2026-05-03T15:33:22.001Z</time></trkpt><trkpt lat="41.40138340919779" lon="-1.6688344574773903"><ele>577.1999999999999</ele><time>2026-05-03T15:33:23.001Z</time></trkpt><trkpt lat="41.401343862451206" lon="-1.6687017815105107"><ele>577.6</ele><time>2026-05-03T15:33:24.001Z</time></trkpt><trkpt lat="41.40130547034591" lon="-1.6685687153667639"><ele>578.0</ele><time>2026-05-03T15:33:25.001Z</time></trkpt><trkpt lat="41.401266674634904" lon="-1.6684338481041046"><ele>578.0</ele><time>2026-05-03T15:33:26.001Z</time></trkpt><trkpt lat="41.40123149189332" lon="-1.6682994486657559"><ele>578.0</ele><time>2026-05-03T15:33:27.001Z</time></trkpt><trkpt lat="41.401201494687605" lon="-1.6681606726071283"><ele>578.0</ele><time>2026-05-03T15:33:28.001Z</time></trkpt><trkpt lat="41.40117225654105" lon="-1.6680199448869042"><ele>578.0</ele><time>2026-05-03T15:33:29.001Z</time></trkpt><trkpt lat="41.40114287520218" lon="-1.6678779884909944"><ele>578.0</ele><time>2026-05-03T15:33:30.001Z</time></trkpt><trkpt lat="41.401118019708356" lon="-1.6677357401122357"><ele>578.4</ele><time>2026-05-03T15:33:31.001Z</time></trkpt><trkpt lat="41.4010970570541" lon="-1.6675892468379225"><ele>578.8</ele><time>2026-05-03T15:33:32.001Z</time></trkpt><trkpt lat="41.40108031410876" lon="-1.6674514217827192"><ele>579.2</ele><time>2026-05-03T15:33:33.001Z</time></trkpt><trkpt lat="41.401060653698835" lon="-1.667300785879671"><ele>579.6</ele><time>2026-05-03T15:33:34.001Z</time></trkpt><trkpt lat="41.401037105070735" lon="-1.6671488805445014"><ele>580.0</ele><time>2026-05-03T15:33:35.001Z</time></trkpt><trkpt lat="41.40101252595922" lon="-1.6670022954041221"><ele>580.2</ele><time>2026-05-03T15:33:36.001Z</time></trkpt><trkpt lat="41.40099243491096" lon="-1.6668574036259607"><ele>580.4</ele><time>2026-05-03T15:33:37.001Z</time></trkpt><trkpt lat="41.400989102423736" lon="-1.6667097807042077"><ele>580.6</ele><time>2026-05-03T15:33:38.001Z</time></trkpt><trkpt lat="41.4009757128411" lon="-1.666560355769166"><ele>580.8</ele><time>2026-05-03T15:33:39.001Z</time></trkpt><trkpt lat="41.400956857048364" lon="-1.6664166202428974"><ele>581.0</ele><time>2026-05-03T15:33:40.001Z</time></trkpt><trkpt lat="41.40092922618415" lon="-1.6662770851898685"><ele>581.0</ele><time>2026-05-03T15:33:41.001Z</time></trkpt><trkpt lat="41.40091353898993" lon="-1.6661526710292773"><ele>581.0</ele><time>2026-05-03T15:33:42.001Z</time></trkpt><trkpt lat="41.4008925911256" lon="-1.6659722899441778"><ele>581.0</ele><time>2026-05-03T15:33:43.001Z</time></trkpt><trkpt lat="41.400867229897216" lon="-1.6658278177553167"><ele>581.0</ele><time>2026-05-03T15:33:44.001Z</time></trkpt><trkpt lat="41.40083989979668" lon="-1.6656862173739932"><ele>580.6</ele><time>2026-05-03T15:33:45.001Z</time></trkpt><trkpt lat="41.40081420583133" lon="-1.665548350455922"><ele>580.2</ele><time>2026-05-03T15:33:46.001Z</time></trkpt><trkpt lat="41.40078989827974" lon="-1.6654114335161594"><ele>579.8</ele><time>2026-05-03T15:33:47.001Z</time></trkpt><trkpt lat="41.40076290384842" lon="-1.6652800537290948"><ele>579.4</ele><time>2026-05-03T15:33:48.001Z</time></trkpt><trkpt lat="41.40073083136174" lon="-1.6651496274706583"><ele>579.0</ele><time>2026-05-03T15:33:49.001Z</time></trkpt><trkpt lat="41.40069565809038" lon="-1.6650212672403357"><ele>579.0</ele><time>2026-05-03T15:33:50.001Z</time></trkpt><trkpt lat="41.40065746176636" lon="-1.6648931680487566"><ele>579.0</ele><time>2026-05-03T15:33:51.001Z</time></trkpt><trkpt lat="41.40062139415958" lon="-1.6647660606020795"><ele>579.0</ele><time>2026-05-03T15:33:52.001Z</time></trkpt><trkpt lat="41.40058219367509" lon="-1.6646362779669492"><ele>579.0</ele><time>2026-05-03T15:33:53.001Z</time></trkpt><trkpt lat="41.40054807034114" lon="-1.6645120368324362"><ele>579.0</ele><time>2026-05-03T15:33:54.001Z</time></trkpt><trkpt lat="41.400513595156866" lon="-1.6643928604094234"><ele>577.4</ele><time>2026-05-03T15:33:55.001Z</time></trkpt><trkpt lat="41.40047584379123" lon="-1.664274913537611"><ele>575.8</ele><time>2026-05-03T15:33:56.001Z</time></trkpt><trkpt lat="41.400433155829475" lon="-1.6641595550381083"><ele>574.2</ele><time>2026-05-03T15:33:57.001Z</time></trkpt><trkpt lat="41.4003974813311" lon="-1.6640446567831915"><ele>572.6</ele><time>2026-05-03T15:33:58.001Z</time></trkpt><trkpt lat="41.40035658105039" lon="-1.663927774768016"><ele>571.0</ele><time>2026-05-03T15:33:59.001Z</time></trkpt><trkpt lat="41.40031965226151" lon="-1.6638129682430283"><ele>571.0</ele><time>2026-05-03T15:34:00.001Z</time></trkpt><trkpt lat="41.400281928211534" lon="-1.663694030656568"><ele>571.0</ele><time>2026-05-03T15:34:01.001Z</time></trkpt><trkpt lat="41.400245340538625" lon="-1.6635773376905467"><ele>571.0</ele><time>2026-05-03T15:34:02.001Z</time></trkpt><trkpt lat="41.40020763365221" lon="-1.6634596773416703"><ele>571.0</ele><time>2026-05-03T15:34:03.001Z</time></trkpt><trkpt lat="41.40017018219448" lon="-1.6633418670996232"><ele>571.0</ele><time>2026-05-03T15:34:04.001Z</time></trkpt><trkpt lat="41.40013226243721" lon="-1.6632235155867805"><ele>571.6</ele><time>2026-05-03T15:34:05.001Z</time></trkpt><trkpt lat="41.400092518054144" lon="-1.6631047344357919"><ele>572.2</ele><time>2026-05-03T15:34:06.001Z</time></trkpt><trkpt lat="41.4000555660546" lon="-1.662987338217223"><ele>572.8</ele><time>2026-05-03T15:34:07.001Z</time></trkpt><trkpt lat="41.400017714224184" lon="-1.6628697802710142"><ele>573.4</ele><time>2026-05-03T15:34:08.001Z</time></trkpt><trkpt lat="41.39997840597156" lon="-1.6627530828593735"><ele>574.0</ele><time>2026-05-03T15:34:09.001Z</time></trkpt><trkpt lat="41.39993693495134" lon="-1.6626355155110764"><ele>574.4</ele><time>2026-05-03T15:34:10.001Z</time></trkpt><trkpt lat="41.399893647992904" lon="-1.662516776779015"><ele>574.8</ele><time>2026-05-03T15:34:11.001Z</time></trkpt><trkpt lat="41.399848726324464" lon="-1.662400413368568"><ele>575.2</ele><time>2026-05-03T15:34:12.001Z</time></trkpt><trkpt lat="41.3997938881768" lon="-1.6622850528347786"><ele>575.6</ele><time>2026-05-03T15:34:13.001Z</time></trkpt><trkpt lat="41.39973428465938" lon="-1.6621757755115454"><ele>576.0</ele><time>2026-05-03T15:34:14.001Z</time></trkpt><trkpt lat="41.39967082677533" lon="-1.6620674873842909"><ele>575.2</ele><time>2026-05-03T15:34:15.001Z</time></trkpt><trkpt lat="41.399605321918024" lon="-1.6619604374273904"><ele>574.4000000000001</ele><time>2026-05-03T15:34:16.001Z</time></trkpt><trkpt lat="41.399538621499055" lon="-1.661852936801171"><ele>573.6</ele><time>2026-05-03T15:34:17.001Z</time></trkpt><trkpt lat="41.399464508706735" lon="-1.66174678496351"><ele>572.8000000000001</ele><time>2026-05-03T15:34:18.001Z</time></trkpt><trkpt lat="41.39939137633406" lon="-1.6616422399125215"><ele>572.0</ele><time>2026-05-03T15:34:19.001Z</time></trkpt><trkpt lat="41.39931735054775" lon="-1.661545487330513"><ele>572.0</ele><time>2026-05-03T15:34:20.001Z</time></trkpt><trkpt lat="41.39923706587415" lon="-1.6614579750780116"><ele>572.0</ele><time>2026-05-03T15:34:21.001Z</time></trkpt><trkpt lat="41.39915253478321" lon="-1.6613643645998997"><ele>572.0</ele><time>2026-05-03T15:34:22.001Z</time></trkpt><trkpt lat="41.39906424942577" lon="-1.6612799459116283"><ele>572.0</ele><time>2026-05-03T15:34:23.001Z</time></trkpt><trkpt lat="41.398975924747056" lon="-1.661192533028427"><ele>572.0</ele><time>2026-05-03T15:34:24.001Z</time></trkpt><trkpt lat="41.398888281241796" lon="-1.6611081264147687"><ele>571.0</ele><time>2026-05-03T15:34:25.001Z</time></trkpt><trkpt lat="41.39879822116106" lon="-1.6610248413382864"><ele>570.0</ele><time>2026-05-03T15:34:26Z</time></trkpt><trkpt lat="41.398703697084976" lon="-1.6609384471201805"><ele>569.0</ele><time>2026-05-03T15:34:27Z</time></trkpt><trkpt lat="41.39862114115593" lon="-1.6608582634352391"><ele>568.0</ele><time>2026-05-03T15:34:28Z</time></trkpt><trkpt lat="41.398530849251955" lon="-1.6607692059792316"><ele>567.0</ele><time>2026-05-03T15:34:29Z</time></trkpt><trkpt lat="41.39843378190451" lon="-1.660683695140057"><ele>567.0</ele><time>2026-05-03T15:34:30Z</time></trkpt><trkpt lat="41.39834277872862" lon="-1.660602286990793"><ele>567.0</ele><time>2026-05-03T15:34:31Z</time></trkpt><trkpt lat="41.3982518356857" lon="-1.66052325115426"><ele>567.0</ele><time>2026-05-03T15:34:32Z</time></trkpt><trkpt lat="41.39816731971869" lon="-1.6604422030001198"><ele>567.0</ele><time>2026-05-03T15:34:33Z</time></trkpt><trkpt lat="41.39808138497864" lon="-1.6603568361582473"><ele>567.0</ele><time>2026-05-03T15:34:34Z</time></trkpt><trkpt lat="41.3979940822874" lon="-1.6602751125130113"><ele>566.4</ele><time>2026-05-03T15:34:35Z</time></trkpt><trkpt lat="41.397907106143414" lon="-1.6601883774779918"><ele>565.8000000000001</ele><time>2026-05-03T15:34:36Z</time></trkpt><trkpt lat="41.39782158581966" lon="-1.660096877382557"><ele>565.2</ele><time>2026-05-03T15:34:37Z</time></trkpt><trkpt lat="41.39773812428549" lon="-1.6599986521788181"><ele>564.6</ele><time>2026-05-03T15:34:38Z</time></trkpt><trkpt lat="41.39765923583855" lon="-1.659896782789504"><ele>564.0</ele><time>2026-05-03T15:34:39Z</time></trkpt><trkpt lat="41.397585329781734" lon="-1.659792745284441"><ele>564.0</ele><time>2026-05-03T15:34:40Z</time></trkpt><trkpt lat="41.39750557235312" lon="-1.6596771482770234"><ele>564.0</ele><time>2026-05-03T15:34:41Z</time></trkpt><trkpt lat="41.39743522460537" lon="-1.6595669156575807"><ele>564.0</ele><time>2026-05-03T15:34:42Z</time></trkpt><trkpt lat="41.397366542982866" lon="-1.6594492037434074"><ele>564.0</ele><time>2026-05-03T15:34:43Z</time></trkpt><trkpt lat="41.3973004362267" lon="-1.6593283322966212"><ele>564.2</ele><time>2026-05-03T15:34:44Z</time></trkpt><trkpt lat="41.39723481935744" lon="-1.6592137964661091"><ele>564.4</ele><time>2026-05-03T15:34:45Z</time></trkpt><trkpt lat="41.397169125794754" lon="-1.6590942809413547"><ele>564.6</ele><time>2026-05-03T15:34:46Z</time></trkpt><trkpt lat="41.39710470501855" lon="-1.6589762611540049"><ele>564.8</ele><time>2026-05-03T15:34:47Z</time></trkpt><trkpt lat="41.3970390472228" lon="-1.658859751417094"><ele>565.0</ele><time>2026-05-03T15:34:48Z</time></trkpt><trkpt lat="41.396968690108395" lon="-1.6587474721438173"><ele>565.0</ele><time>2026-05-03T15:34:49Z</time></trkpt><trkpt lat="41.39689430992755" lon="-1.6586399175846405"><ele>565.0</ele><time>2026-05-03T15:34:50Z</time></trkpt><trkpt lat="41.39681543177015" lon="-1.658537733288489"><ele>565.0</ele><time>2026-05-03T15:34:51Z</time></trkpt><trkpt lat="41.396732228303385" lon="-1.6584308846654077"><ele>565.0</ele><time>2026-05-03T15:34:52Z</time></trkpt><trkpt lat="41.396648764046994" lon="-1.658333666168052"><ele>565.0</ele><time>2026-05-03T15:34:53Z</time></trkpt><trkpt lat="41.396558932398534" lon="-1.6582375658020119"><ele>564.75</ele><time>2026-05-03T15:34:54Z</time></trkpt><trkpt lat="41.39646191255983" lon="-1.658155294515224"><ele>564.5</ele><time>2026-05-03T15:34:55Z</time></trkpt><trkpt lat="41.39636256642764" lon="-1.6580766928948114"><ele>564.25</ele><time>2026-05-03T15:34:56Z</time></trkpt><trkpt lat="41.396264725958375" lon="-1.65800011311395"><ele>564.0</ele><time>2026-05-03T15:34:57Z</time></trkpt><trkpt lat="41.396163467649004" lon="-1.6579273796097735"><ele>563.75</ele><time>2026-05-03T15:34:58Z</time></trkpt><trkpt lat="41.39605850519664" lon="-1.6578648001301148"><ele>563.5</ele><time>2026-05-03T15:34:59Z</time></trkpt><trkpt lat="41.395954290598965" lon="-1.6578083437365587"><ele>563.25</ele><time>2026-05-03T15:35:00Z</time></trkpt><trkpt lat="41.395844057181385" lon="-1.657767482288648"><ele>563.0</ele><time>2026-05-03T15:35:01Z</time></trkpt><trkpt lat="41.39573356545671" lon="-1.6577333194111066"><ele>562.8</ele><time>2026-05-03T15:35:02Z</time></trkpt><trkpt lat="41.395622930010155" lon="-1.657700441556044"><ele>562.5999999999999</ele><time>2026-05-03T15:35:03Z</time></trkpt><trkpt lat="41.39551427598336" lon="-1.6576838806358827"><ele>562.4000000000001</ele><time>2026-05-03T15:35:04Z</time></trkpt><trkpt lat="41.395400957569834" lon="-1.6576695110548654"><ele>562.2</ele><time>2026-05-03T15:35:05Z</time></trkpt><trkpt lat="41.39528920432377" lon="-1.6576626622612927"><ele>562.0</ele><time>2026-05-03T15:35:06Z</time></trkpt><trkpt lat="41.39517439204322" lon="-1.6576543896151552"><ele>561.6</ele><time>2026-05-03T15:35:07Z</time></trkpt><trkpt lat="41.395061554441135" lon="-1.6576514376971376"><ele>561.2</ele><time>2026-05-03T15:35:08Z</time></trkpt><trkpt lat="41.39495430269033" lon="-1.65766537110179"><ele>560.8</ele><time>2026-05-03T15:35:09Z</time></trkpt><trkpt lat="41.394841052757286" lon="-1.6576488155406832"><ele>560.4</ele><time>2026-05-03T15:35:10Z</time></trkpt><trkpt lat="41.39472688492828" lon="-1.6576593787030696"><ele>560.0</ele><time>2026-05-03T15:35:11Z</time></trkpt><trkpt lat="41.39461389149745" lon="-1.6576785768457767"><ele>560.0</ele><time>2026-05-03T15:35:12Z</time></trkpt><trkpt lat="41.39451569183984" lon="-1.6577398428436985"><ele>560.0</ele><time>2026-05-03T15:35:13Z</time></trkpt><trkpt lat="41.394385649304695" lon="-1.6576550836416235"><ele>560.0</ele><time>2026-05-03T15:35:14Z</time></trkpt><trkpt lat="41.39427454510444" lon="-1.657647331765713"><ele>560.0</ele><time>2026-05-03T15:35:15Z</time></trkpt><trkpt lat="41.394164506358635" lon="-1.6576337649797015"><ele>560.0</ele><time>2026-05-03T15:35:16Z</time></trkpt><trkpt lat="41.394054046386955" lon="-1.657617278710925"><ele>560.0</ele><time>2026-05-03T15:35:17Z</time></trkpt><trkpt lat="41.39394404586926" lon="-1.657592036455301"><ele>560.0</ele><time>2026-05-03T15:35:18Z</time></trkpt><trkpt lat="41.39383466426618" lon="-1.6575598748014544"><ele>560.0</ele><time>2026-05-03T15:35:19Z</time></trkpt><trkpt lat="41.39372630720816" lon="-1.6575222371015772"><ele>560.0</ele><time>2026-05-03T15:35:20Z</time></trkpt><trkpt lat="41.39361755976966" lon="-1.6574832244062183"><ele>561.25</ele><time>2026-05-03T15:35:21Z</time></trkpt><trkpt lat="41.39350743666003" lon="-1.6574343613416278"><ele>562.5</ele><time>2026-05-03T15:35:22Z</time></trkpt><trkpt lat="41.39340180721714" lon="-1.6573832720903663"><ele>563.75</ele><time>2026-05-03T15:35:23Z</time></trkpt><trkpt lat="41.393291622112585" lon="-1.6573300985880153"><ele>565.0</ele><time>2026-05-03T15:35:24Z</time></trkpt><trkpt lat="41.39318146286794" lon="-1.6572759225688016"><ele>565.0</ele><time>2026-05-03T15:35:25Z</time></trkpt><trkpt lat="41.39307077138182" lon="-1.6572259795808497"><ele>565.0</ele><time>2026-05-03T15:35:26Z</time></trkpt><trkpt lat="41.39296119706207" lon="-1.6571737520242638"><ele>565.0</ele><time>2026-05-03T15:35:27Z</time></trkpt><trkpt lat="41.39285432808436" lon="-1.6571213927678092"><ele>565.0</ele><time>2026-05-03T15:35:28Z</time></trkpt><trkpt lat="41.39274668080893" lon="-1.657069942631154"><ele>565.75</ele><time>2026-05-03T15:35:29Z</time></trkpt><trkpt lat="41.392636468562806" lon="-1.6570219331844314"><ele>566.5</ele><time>2026-05-03T15:35:30Z</time></trkpt><trkpt lat="41.392527028806136" lon="-1.6569743622034883"><ele>567.25</ele><time>2026-05-03T15:35:31Z</time></trkpt><trkpt lat="41.39241978801361" lon="-1.656931100165677"><ele>568.0</ele><time>2026-05-03T15:35:32Z</time></trkpt><trkpt lat="41.39230785156591" lon="-1.6568865237853942"><ele>567.0</ele><time>2026-05-03T15:35:33Z</time></trkpt><trkpt lat="41.39220144127807" lon="-1.656845831546298"><ele>566.0</ele><time>2026-05-03T15:35:34Z</time></trkpt><trkpt lat="41.39209328017854" lon="-1.6568025478521584"><ele>565.0</ele><time>2026-05-03T15:35:35Z</time></trkpt><trkpt lat="41.39198880448573" lon="-1.6567667003027815"><ele>564.0</ele><time>2026-05-03T15:35:36Z</time></trkpt><trkpt lat="41.39182042443124" lon="-1.6567032387446075"><ele>564.0</ele><time>2026-05-03T15:35:38Z</time></trkpt><trkpt lat="41.39168608581216" lon="-1.6566652371221526"><ele>564.0</ele><time>2026-05-03T15:35:39Z</time></trkpt><trkpt lat="41.391576792990286" lon="-1.6566273402423597"><ele>564.0</ele><time>2026-05-03T15:35:40Z</time></trkpt><trkpt lat="41.39147661589406" lon="-1.656589990222278"><ele>564.0</ele><time>2026-05-03T15:35:41Z</time></trkpt><trkpt lat="41.39137407833126" lon="-1.656553369504356"><ele>565.2</ele><time>2026-05-03T15:35:42Z</time></trkpt><trkpt lat="41.391274350856094" lon="-1.6565212122285857"><ele>566.4</ele><time>2026-05-03T15:35:43Z</time></trkpt><trkpt lat="41.39117392692369" lon="-1.6564875430150234"><ele>567.6</ele><time>2026-05-03T15:35:44Z</time></trkpt><trkpt lat="41.39107628182714" lon="-1.6564554068016402"><ele>568.8</ele><time>2026-05-03T15:35:45Z</time></trkpt><trkpt lat="41.39097761238493" lon="-1.6564210909348023"><ele>570.0</ele><time>2026-05-03T15:35:46Z</time></trkpt><trkpt lat="41.39087642113796" lon="-1.6563933588632342"><ele>570.0</ele><time>2026-05-03T15:35:47Z</time></trkpt><trkpt lat="41.39077522958974" lon="-1.6563660386145898"><ele>570.0</ele><time>2026-05-03T15:35:48Z</time></trkpt><trkpt lat="41.39067344089066" lon="-1.6563456341669585"><ele>570.0</ele><time>2026-05-03T15:35:49.001Z</time></trkpt><trkpt lat="41.390570431564" lon="-1.6563282079407637"><ele>570.0</ele><time>2026-05-03T15:35:50.001Z</time></trkpt><trkpt lat="41.390466553510066" lon="-1.6563181428729319"><ele>570.0</ele><time>2026-05-03T15:35:51.001Z</time></trkpt><trkpt lat="41.390364700073334" lon="-1.6563105685418456"><ele>570.6</ele><time>2026-05-03T15:35:52.001Z</time></trkpt><trkpt lat="41.39026116894711" lon="-1.656309322413498"><ele>571.2</ele><time>2026-05-03T15:35:53.001Z</time></trkpt><trkpt lat="41.390158988558134" lon="-1.6563096826251635"><ele>571.8</ele><time>2026-05-03T15:35:54.001Z</time></trkpt><trkpt lat="41.39005773707256" lon="-1.6563180669758621"><ele>572.4</ele><time>2026-05-03T15:35:55.001Z</time></trkpt><trkpt lat="41.38995741376667" lon="-1.6563323443700577"><ele>573.0</ele><time>2026-05-03T15:35:56.001Z</time></trkpt><trkpt lat="41.38985659997928" lon="-1.6563529634930725"><ele>573.0</ele><time>2026-05-03T15:35:57.001Z</time></trkpt><trkpt lat="41.389755504440856" lon="-1.6563773632918863"><ele>573.0</ele><time>2026-05-03T15:35:58.001Z</time></trkpt><trkpt lat="41.38965487457239" lon="-1.6564036999019494"><ele>573.0</ele><time>2026-05-03T15:35:59.001Z</time></trkpt><trkpt lat="41.38955405661266" lon="-1.6564344303882164"><ele>573.0</ele><time>2026-05-03T15:36:00.001Z</time></trkpt><trkpt lat="41.38945209633307" lon="-1.656468205664996"><ele>573.0</ele><time>2026-05-03T15:36:01.001Z</time></trkpt><trkpt lat="41.3893487019704" lon="-1.6564992638892515"><ele>573.8</ele><time>2026-05-03T15:36:02.001Z</time></trkpt><trkpt lat="41.389246655947325" lon="-1.6565300439107664"><ele>574.5999999999999</ele><time>2026-05-03T15:36:03.001Z</time></trkpt><trkpt lat="41.38914509691001" lon="-1.6565632617465127"><ele>575.4000000000001</ele><time>2026-05-03T15:36:04.001Z</time></trkpt><trkpt lat="41.38904291333095" lon="-1.6565953253067032"><ele>576.2</ele><time>2026-05-03T15:36:05.001Z</time></trkpt><trkpt lat="41.38894160714315" lon="-1.656630398992135"><ele>577.0</ele><time>2026-05-03T15:36:06.001Z</time></trkpt><trkpt lat="41.38883793843792" lon="-1.6566644874549143"><ele>577.0</ele><time>2026-05-03T15:36:07.001Z</time></trkpt><trkpt lat="41.3887287165149" lon="-1.6566903698666593"><ele>577.0</ele><time>2026-05-03T15:36:08.001Z</time></trkpt><trkpt lat="41.38862923845814" lon="-1.656724111784665"><ele>577.0</ele><time>2026-05-03T15:36:09.001Z</time></trkpt><trkpt lat="41.38852435644969" lon="-1.656758680101469"><ele>577.0</ele><time>2026-05-03T15:36:10.001Z</time></trkpt><trkpt lat="41.38841881602293" lon="-1.6567916121688324"><ele>577.0</ele><time>2026-05-03T15:36:11.001Z</time></trkpt><trkpt lat="41.38831292195966" lon="-1.656827106653716"><ele>577.0</ele><time>2026-05-03T15:36:12.001Z</time></trkpt><trkpt lat="41.388209153030736" lon="-1.656860585442753"><ele>577.0</ele><time>2026-05-03T15:36:13.001Z</time></trkpt><trkpt lat="41.388094328181914" lon="-1.6569009395139414"><ele>577.0</ele><time>2026-05-03T15:36:14.001Z</time></trkpt><trkpt lat="41.38799478688933" lon="-1.656932225486059"><ele>577.0</ele><time>2026-05-03T15:36:15.001Z</time></trkpt><trkpt lat="41.387883357607436" lon="-1.6569611320424653"><ele>577.0</ele><time>2026-05-03T15:36:16.001Z</time></trkpt><trkpt lat="41.38778120827959" lon="-1.6569976862225093"><ele>578.25</ele><time>2026-05-03T15:36:17.001Z</time></trkpt><trkpt lat="41.38767017647648" lon="-1.6570349028849376"><ele>579.5</ele><time>2026-05-03T15:36:18.001Z</time></trkpt><trkpt lat="41.3875693273462" lon="-1.657083323775544"><ele>580.75</ele><time>2026-05-03T15:36:19.001Z</time></trkpt><trkpt lat="41.38744686006968" lon="-1.6571029297300308"><ele>582.0</ele><time>2026-05-03T15:36:20.001Z</time></trkpt><trkpt lat="41.38733788387506" lon="-1.6571330329928613"><ele>582.0</ele><time>2026-05-03T15:36:21.001Z</time></trkpt><trkpt lat="41.38722993379481" lon="-1.6571701045044898"><ele>582.0</ele><time>2026-05-03T15:36:22.001Z</time></trkpt><trkpt lat="41.38712166628038" lon="-1.657200198864519"><ele>582.0</ele><time>2026-05-03T15:36:23.001Z</time></trkpt><trkpt lat="41.38701335798981" lon="-1.657230754736184"><ele>582.0</ele><time>2026-05-03T15:36:24.001Z</time></trkpt><trkpt lat="41.38690611299473" lon="-1.6572666470018143"><ele>582.0</ele><time>2026-05-03T15:36:25.001Z</time></trkpt><trkpt lat="41.386797705923684" lon="-1.6573031799108633"><ele>581.75</ele><time>2026-05-03T15:36:26.001Z</time></trkpt><trkpt lat="41.38668662059531" lon="-1.6573408507327436"><ele>581.5</ele><time>2026-05-03T15:36:27.001Z</time></trkpt><trkpt lat="41.38657703604714" lon="-1.6573721677798325"><ele>581.25</ele><time>2026-05-03T15:36:28.001Z</time></trkpt><trkpt lat="41.386464967772504" lon="-1.6574077376321796"><ele>581.0</ele><time>2026-05-03T15:36:29.001Z</time></trkpt><trkpt lat="41.38635823128345" lon="-1.657436082752254"><ele>580.6</ele><time>2026-05-03T15:36:30.001Z</time></trkpt><trkpt lat="41.386248178822214" lon="-1.6574625315103833"><ele>580.2</ele><time>2026-05-03T15:36:31.001Z</time></trkpt><trkpt lat="41.3861397114372" lon="-1.6574884981826956"><ele>579.8</ele><time>2026-05-03T15:36:32Z</time></trkpt><trkpt lat="41.38602946015269" lon="-1.6575139471493214"><ele>579.4</ele><time>2026-05-03T15:36:33Z</time></trkpt><trkpt lat="41.38592167570812" lon="-1.657534450549456"><ele>579.0</ele><time>2026-05-03T15:36:34Z</time></trkpt><trkpt lat="41.385813768581535" lon="-1.657552038526823"><ele>579.0</ele><time>2026-05-03T15:36:35Z</time></trkpt><trkpt lat="41.385702974659075" lon="-1.6575685891141185"><ele>579.0</ele><time>2026-05-03T15:36:36Z</time></trkpt><trkpt lat="41.38559198936488" lon="-1.657571287547869"><ele>579.0</ele><time>2026-05-03T15:36:37Z</time></trkpt><trkpt lat="41.38548435547922" lon="-1.657567922970009"><ele>579.0</ele><time>2026-05-03T15:36:38Z</time></trkpt><trkpt lat="41.38537674169238" lon="-1.657554862198921"><ele>579.0</ele><time>2026-05-03T15:36:39Z</time></trkpt><trkpt lat="41.38527071016002" lon="-1.6575381477259337"><ele>579.6</ele><time>2026-05-03T15:36:40Z</time></trkpt><trkpt lat="41.385163613389764" lon="-1.6575158167137878"><ele>580.2</ele><time>2026-05-03T15:36:41Z</time></trkpt><trkpt lat="41.38506035765061" lon="-1.6574827069243325"><ele>580.8000000000001</ele><time>2026-05-03T15:36:42Z</time></trkpt><trkpt lat="41.38496118646329" lon="-1.657444887154979"><ele>581.4</ele><time>2026-05-03T15:36:43Z</time></trkpt><trkpt lat="41.38486366820946" lon="-1.6574035683450568"><ele>582.0</ele><time>2026-05-03T15:36:44Z</time></trkpt><trkpt lat="41.384771901055686" lon="-1.6573536998344145"><ele>582.8000000000001</ele><time>2026-05-03T15:36:45Z</time></trkpt><trkpt lat="41.3846789385461" lon="-1.6573041098795311"><ele>583.6</ele><time>2026-05-03T15:36:46Z</time></trkpt><trkpt lat="41.384587229947954" lon="-1.6572521765224013"><ele>584.4000000000001</ele><time>2026-05-03T15:36:47Z</time></trkpt><trkpt lat="41.38449566412253" lon="-1.6571992924157293"><ele>585.2</ele><time>2026-05-03T15:36:48Z</time></trkpt><trkpt lat="41.384405501618886" lon="-1.6571462122892506"><ele>586.0</ele><time>2026-05-03T15:36:49Z</time></trkpt><trkpt lat="41.384317082883584" lon="-1.6570921290435923"><ele>586.0</ele><time>2026-05-03T15:36:50Z</time></trkpt><trkpt lat="41.38422806334463" lon="-1.6570400225396642"><ele>586.0</ele><time>2026-05-03T15:36:51Z</time></trkpt><trkpt lat="41.384138372798844" lon="-1.6569846038485003"><ele>586.0</ele><time>2026-05-03T15:36:52Z</time></trkpt><trkpt lat="41.38404997928066" lon="-1.65693730241033"><ele>586.0</ele><time>2026-05-03T15:36:53Z</time></trkpt><trkpt lat="41.383962888612444" lon="-1.656887942641908"><ele>586.0</ele><time>2026-05-03T15:36:54Z</time></trkpt><trkpt lat="41.383874966918015" lon="-1.6568369434174965"><ele>587.4</ele><time>2026-05-03T15:36:55Z</time></trkpt><trkpt lat="41.38378699778614" lon="-1.6567877861942895"><ele>588.8</ele><time>2026-05-03T15:36:56Z</time></trkpt><trkpt lat="41.38369950455277" lon="-1.6567378178694707"><ele>590.1999999999999</ele><time>2026-05-03T15:36:57Z</time></trkpt><trkpt lat="41.383617965608266" lon="-1.656683712445647"><ele>591.6</ele><time>2026-05-03T15:36:58Z</time></trkpt><trkpt lat="41.3835318347859" lon="-1.656631300331854"><ele>593.0</ele><time>2026-05-03T15:36:59Z</time></trkpt><trkpt lat="41.383442051637424" lon="-1.6565819036991463"><ele>593.0</ele><time>2026-05-03T15:37:00Z</time></trkpt><trkpt lat="41.38335241566965" lon="-1.6565352878792214"><ele>593.0</ele><time>2026-05-03T15:37:01Z</time></trkpt><trkpt lat="41.38327144277755" lon="-1.656485248836347"><ele>593.0</ele><time>2026-05-03T15:37:02Z</time></trkpt><trkpt lat="41.383184202604234" lon="-1.6564383966675282"><ele>593.0</ele><time>2026-05-03T15:37:03Z</time></trkpt><trkpt lat="41.3830998209338" lon="-1.6563839256002062"><ele>593.0</ele><time>2026-05-03T15:37:04Z</time></trkpt><trkpt lat="41.38300992029623" lon="-1.6563324158878334"><ele>593.0</ele><time>2026-05-03T15:37:05Z</time></trkpt><trkpt lat="41.38291877880272" lon="-1.656279035105969"><ele>593.0</ele><time>2026-05-03T15:37:06Z</time></trkpt><trkpt lat="41.382825850971216" lon="-1.6562266248155708"><ele>593.0</ele><time>2026-05-03T15:37:07Z</time></trkpt><trkpt lat="41.38273244547586" lon="-1.6561657478900196"><ele>593.0</ele><time>2026-05-03T15:37:08Z</time></trkpt><trkpt lat="41.38263608928918" lon="-1.656097685697743"><ele>593.0</ele><time>2026-05-03T15:37:09Z</time></trkpt><trkpt lat="41.3825404349346" lon="-1.6560287996903962"><ele>593.0</ele><time>2026-05-03T15:37:10Z</time></trkpt><trkpt lat="41.38244505476442" lon="-1.6559526159529903"><ele>593.0</ele><time>2026-05-03T15:37:11Z</time></trkpt><trkpt lat="41.382353210980526" lon="-1.6558750145040646"><ele>593.0</ele><time>2026-05-03T15:37:12Z</time></trkpt><trkpt lat="41.38226712122764" lon="-1.6557863992636208"><ele>593.0</ele><time>2026-05-03T15:37:13Z</time></trkpt><trkpt lat="41.38217543128716" lon="-1.6556825865399396"><ele>593.0</ele><time>2026-05-03T15:37:14Z</time></trkpt><trkpt lat="41.38208865358781" lon="-1.655578447229191"><ele>593.0</ele><time>2026-05-03T15:37:15Z</time></trkpt><trkpt lat="41.38200894440381" lon="-1.6554700612874975"><ele>593.0</ele><time>2026-05-03T15:37:16Z</time></trkpt><trkpt lat="41.38193164185443" lon="-1.6553599810452233"><ele>593.0</ele><time>2026-05-03T15:37:17Z</time></trkpt><trkpt lat="41.38185781991187" lon="-1.6552436823898167"><ele>593.0</ele><time>2026-05-03T15:37:18Z</time></trkpt><trkpt lat="41.38178829795241" lon="-1.6551235072474075"><ele>592.0</ele><time>2026-05-03T15:37:19Z</time></trkpt><trkpt lat="41.381720610382075" lon="-1.6549956393657799"><ele>591.0</ele><time>2026-05-03T15:37:20Z</time></trkpt><trkpt lat="41.381654968225334" lon="-1.6548688742543343"><ele>590.0</ele><time>2026-05-03T15:37:21Z</time></trkpt><trkpt lat="41.38158907644525" lon="-1.654743408693567"><ele>589.0</ele><time>2026-05-03T15:37:22Z</time></trkpt><trkpt lat="41.381523370825015" lon="-1.6546167074265394"><ele>589.0</ele><time>2026-05-03T15:37:23Z</time></trkpt><trkpt lat="41.38145760072495" lon="-1.6544871170183941"><ele>589.0</ele><time>2026-05-03T15:37:24Z</time></trkpt><trkpt lat="41.38139224771919" lon="-1.6543567781632904"><ele>589.0</ele><time>2026-05-03T15:37:25Z</time></trkpt><trkpt lat="41.38132644787602" lon="-1.6542257082170153"><ele>589.0</ele><time>2026-05-03T15:37:26Z</time></trkpt><trkpt lat="41.38126122135869" lon="-1.6540968570771368"><ele>588.75</ele><time>2026-05-03T15:37:27Z</time></trkpt><trkpt lat="41.38119493329125" lon="-1.6539695554779337"><ele>588.5</ele><time>2026-05-03T15:37:28Z</time></trkpt><trkpt lat="41.38113061153089" lon="-1.653844386662012"><ele>588.25</ele><time>2026-05-03T15:37:29Z</time></trkpt><trkpt lat="41.38106659846465" lon="-1.653720559996672"><ele>588.0</ele><time>2026-05-03T15:37:30Z</time></trkpt><trkpt lat="41.38100566000279" lon="-1.6535984019959769"><ele>587.6</ele><time>2026-05-03T15:37:31Z</time></trkpt><trkpt lat="41.38094470548738" lon="-1.6534739213414917"><ele>587.1999999999999</ele><time>2026-05-03T15:37:32Z</time></trkpt><trkpt lat="41.380882900411535" lon="-1.6533435881955827"><ele>586.8</ele><time>2026-05-03T15:37:33Z</time></trkpt><trkpt lat="41.38081960849237" lon="-1.6532271546215473"><ele>586.4</ele><time>2026-05-03T15:37:34Z</time></trkpt><trkpt lat="41.380757062588195" lon="-1.6531025850454857"><ele>586.0</ele><time>2026-05-03T15:37:35Z</time></trkpt><trkpt lat="41.38069229156688" lon="-1.6529767315114028"><ele>586.0</ele><time>2026-05-03T15:37:36Z</time></trkpt><trkpt lat="41.380627025853066" lon="-1.6528518672558674"><ele>586.0</ele><time>2026-05-03T15:37:37Z</time></trkpt><trkpt lat="41.38056372023025" lon="-1.6527251647073702"><ele>586.0</ele><time>2026-05-03T15:37:38Z</time></trkpt><trkpt lat="41.380497665847436" lon="-1.6526008046799503"><ele>586.0</ele><time>2026-05-03T15:37:39Z</time></trkpt><trkpt lat="41.380433774394106" lon="-1.6524705167282285"><ele>586.0</ele><time>2026-05-03T15:37:40Z</time></trkpt><trkpt lat="41.380368393558115" lon="-1.6523423287369194"><ele>586.0</ele><time>2026-05-03T15:37:41Z</time></trkpt><trkpt lat="41.38030270825335" lon="-1.6522158014702115"><ele>586.0</ele><time>2026-05-03T15:37:42Z</time></trkpt><trkpt lat="41.38023723906757" lon="-1.652084982125136"><ele>586.0</ele><time>2026-05-03T15:37:43Z</time></trkpt><trkpt lat="41.38017100104229" lon="-1.6519536850785335"><ele>585.25</ele><time>2026-05-03T15:37:44Z</time></trkpt><trkpt lat="41.38010205418055" lon="-1.651823126041814"><ele>584.5</ele><time>2026-05-03T15:37:45Z</time></trkpt><trkpt lat="41.38003443083266" lon="-1.6516921131553364"><ele>583.75</ele><time>2026-05-03T15:37:46Z</time></trkpt><trkpt lat="41.379967809812335" lon="-1.6515605156886974"><ele>583.0</ele><time>2026-05-03T15:37:47Z</time></trkpt><trkpt lat="41.379902315161694" lon="-1.6514284218389876"><ele>583.0</ele><time>2026-05-03T15:37:48Z</time></trkpt><trkpt lat="41.37983588741481" lon="-1.6512955843538708"><ele>583.0</ele><time>2026-05-03T15:37:49Z</time></trkpt><trkpt lat="41.379771007113455" lon="-1.6511634674529778"><ele>583.0</ele><time>2026-05-03T15:37:50Z</time></trkpt><trkpt lat="41.37970450143873" lon="-1.6510355837740445"><ele>583.0</ele><time>2026-05-03T15:37:51Z</time></trkpt><trkpt lat="41.379639390525604" lon="-1.650906833578282"><ele>581.75</ele><time>2026-05-03T15:37:52Z</time></trkpt><trkpt lat="41.379574005817524" lon="-1.650775017748914"><ele>580.5</ele><time>2026-05-03T15:37:53Z</time></trkpt><trkpt lat="41.37950723990779" lon="-1.6506469272695965"><ele>579.25</ele><time>2026-05-03T15:37:54.001Z</time></trkpt><trkpt lat="41.379441017500625" lon="-1.650520151392612"><ele>578.0</ele><time>2026-05-03T15:37:55.001Z</time></trkpt><trkpt lat="41.379373874483136" lon="-1.650389709899997"><ele>577.5</ele><time>2026-05-03T15:37:56.001Z</time></trkpt><trkpt lat="41.379307597504926" lon="-1.6502578422933598"><ele>577.0</ele><time>2026-05-03T15:37:57.001Z</time></trkpt><trkpt lat="41.37923818500989" lon="-1.6501286663185826"><ele>576.5</ele><time>2026-05-03T15:37:58.001Z</time></trkpt><trkpt lat="41.37917171453157" lon="-1.649996523148444"><ele>576.0</ele><time>2026-05-03T15:37:59.001Z</time></trkpt><trkpt lat="41.37910349530418" lon="-1.6498635396056132"><ele>576.0</ele><time>2026-05-03T15:38:00.001Z</time></trkpt><trkpt lat="41.37903628273844" lon="-1.6497316153983423"><ele>576.0</ele><time>2026-05-03T15:38:01.001Z</time></trkpt><trkpt lat="41.378968666676144" lon="-1.649600256496559"><ele>576.0</ele><time>2026-05-03T15:38:02.001Z</time></trkpt><trkpt lat="41.37890166500465" lon="-1.6494690138688084"><ele>576.0</ele><time>2026-05-03T15:38:03.001Z</time></trkpt><trkpt lat="41.37883535175704" lon="-1.6493381056771879"><ele>575.25</ele><time>2026-05-03T15:38:04.001Z</time></trkpt><trkpt lat="41.378770095592564" lon="-1.6492088830816465"><ele>574.5</ele><time>2026-05-03T15:38:05.001Z</time></trkpt><trkpt lat="41.37870569934147" lon="-1.6490764980145898"><ele>573.75</ele><time>2026-05-03T15:38:06.001Z</time></trkpt><trkpt lat="41.37863736930965" lon="-1.6489475585867603"><ele>573.0</ele><time>2026-05-03T15:38:07.001Z</time></trkpt><trkpt lat="41.378571204528015" lon="-1.648816325321565"><ele>573.0</ele><time>2026-05-03T15:38:08.001Z</time></trkpt><trkpt lat="41.378506266951725" lon="-1.6486874006526828"><ele>573.0</ele><time>2026-05-03T15:38:09.001Z</time></trkpt><trkpt lat="41.37844190823596" lon="-1.6485524353237968"><ele>573.0</ele><time>2026-05-03T15:38:10.001Z</time></trkpt><trkpt lat="41.3783748836775" lon="-1.648423096227585"><ele>573.0</ele><time>2026-05-03T15:38:11.001Z</time></trkpt><trkpt lat="41.37830706820267" lon="-1.6482965844341204"><ele>572.75</ele><time>2026-05-03T15:38:12.001Z</time></trkpt><trkpt lat="41.378240022293625" lon="-1.6481628197341402"><ele>572.5</ele><time>2026-05-03T15:38:13.001Z</time></trkpt><trkpt lat="41.37817385176065" lon="-1.6480329635727418"><ele>572.25</ele><time>2026-05-03T15:38:14.001Z</time></trkpt><trkpt lat="41.37810745886747" lon="-1.6478998871735384"><ele>572.0</ele><time>2026-05-03T15:38:15.001Z</time></trkpt><trkpt lat="41.37804050144422" lon="-1.6477715835302622"><ele>573.25</ele><time>2026-05-03T15:38:16.001Z</time></trkpt><trkpt lat="41.37797236320415" lon="-1.6476414576232974"><ele>574.5</ele><time>2026-05-03T15:38:17.001Z</time></trkpt><trkpt lat="41.377906428057564" lon="-1.647503798735246"><ele>575.75</ele><time>2026-05-03T15:38:18.001Z</time></trkpt><trkpt lat="41.37784072921849" lon="-1.6473730674124758"><ele>577.0</ele><time>2026-05-03T15:38:19.001Z</time></trkpt><trkpt lat="41.37777209729063" lon="-1.6472426244594642"><ele>577.0</ele><time>2026-05-03T15:38:20.001Z</time></trkpt><trkpt lat="41.37770773581137" lon="-1.6471091978817651"><ele>577.0</ele><time>2026-05-03T15:38:21.001Z</time></trkpt><trkpt lat="41.37763926303706" lon="-1.646976571537254"><ele>577.0</ele><time>2026-05-03T15:38:22.001Z</time></trkpt><trkpt lat="41.377571740965784" lon="-1.646844158930712"><ele>577.0</ele><time>2026-05-03T15:38:23.001Z</time></trkpt><trkpt lat="41.37750483684875" lon="-1.6467145750635186"><ele>576.5</ele><time>2026-05-03T15:38:24.001Z</time></trkpt><trkpt lat="41.377436891850564" lon="-1.6465815422623724"><ele>576.0</ele><time>2026-05-03T15:38:25.001Z</time></trkpt><trkpt lat="41.377367225375934" lon="-1.6464545883802149"><ele>575.5</ele><time>2026-05-03T15:38:26.001Z</time></trkpt><trkpt lat="41.377299532681405" lon="-1.6463199884789994"><ele>575.0</ele><time>2026-05-03T15:38:27.001Z</time></trkpt><trkpt lat="41.37723333500083" lon="-1.646184543530152"><ele>574.25</ele><time>2026-05-03T15:38:28.001Z</time></trkpt><trkpt lat="41.377166703912124" lon="-1.6460509184296268"><ele>573.5</ele><time>2026-05-03T15:38:29.001Z</time></trkpt><trkpt lat="41.377097825198774" lon="-1.645918362977888"><ele>572.75</ele><time>2026-05-03T15:38:30.001Z</time></trkpt><trkpt lat="41.37703023782802" lon="-1.645785010091331"><ele>572.0</ele><time>2026-05-03T15:38:31.001Z</time></trkpt><trkpt lat="41.37696497401243" lon="-1.6456495596582423"><ele>572.0</ele><time>2026-05-03T15:38:32.001Z</time></trkpt><trkpt lat="41.376896536204036" lon="-1.6455182222997902"><ele>572.0</ele><time>2026-05-03T15:38:33.001Z</time></trkpt><trkpt lat="41.37682914365169" lon="-1.645386922276211"><ele>572.0</ele><time>2026-05-03T15:38:34.001Z</time></trkpt><trkpt lat="41.37676224814783" lon="-1.6452566012712633"><ele>572.0</ele><time>2026-05-03T15:38:35.001Z</time></trkpt><trkpt lat="41.37669676896308" lon="-1.645125615169144"><ele>572.25</ele><time>2026-05-03T15:38:36.001Z</time></trkpt><trkpt lat="41.37663009801684" lon="-1.6449891232837057"><ele>572.5</ele><time>2026-05-03T15:38:37.001Z</time></trkpt><trkpt lat="41.37656393518344" lon="-1.6448609036577764"><ele>572.75</ele><time>2026-05-03T15:38:38Z</time></trkpt><trkpt lat="41.376498257923835" lon="-1.6447311079840963"><ele>573.0</ele><time>2026-05-03T15:38:39Z</time></trkpt><trkpt lat="41.37643091337475" lon="-1.644600723756652"><ele>573.0</ele><time>2026-05-03T15:38:40Z</time></trkpt><trkpt lat="41.37636160431917" lon="-1.6444687060601262"><ele>573.0</ele><time>2026-05-03T15:38:41Z</time></trkpt><trkpt lat="41.37629442586489" lon="-1.6443357197962505"><ele>573.0</ele><time>2026-05-03T15:38:42Z</time></trkpt><trkpt lat="41.37622889120465" lon="-1.6442059658756545"><ele>573.0</ele><time>2026-05-03T15:38:43Z</time></trkpt><trkpt lat="41.37616244238765" lon="-1.644077229803926"><ele>572.5</ele><time>2026-05-03T15:38:44Z</time></trkpt><trkpt lat="41.37609751911851" lon="-1.6439461071043238"><ele>572.0</ele><time>2026-05-03T15:38:45Z</time></trkpt><trkpt lat="41.37603123768627" lon="-1.6438157733251293"><ele>571.5</ele><time>2026-05-03T15:38:46Z</time></trkpt><trkpt lat="41.375963463490415" lon="-1.6436879690940365"><ele>571.0</ele><time>2026-05-03T15:38:47Z</time></trkpt><trkpt lat="41.37589647569532" lon="-1.6435523569915476"><ele>571.0</ele><time>2026-05-03T15:38:48Z</time></trkpt><trkpt lat="41.37583075964542" lon="-1.643419319522298"><ele>571.0</ele><time>2026-05-03T15:38:49Z</time></trkpt><trkpt lat="41.3757645974409" lon="-1.6432887087828043"><ele>571.0</ele><time>2026-05-03T15:38:50Z</time></trkpt><trkpt lat="41.375696275001246" lon="-1.6431579135160284"><ele>571.0</ele><time>2026-05-03T15:38:51Z</time></trkpt><trkpt lat="41.37562885849566" lon="-1.6430274711414965"><ele>571.0</ele><time>2026-05-03T15:38:52Z</time></trkpt><trkpt lat="41.37556065803159" lon="-1.6428947731242074"><ele>571.0</ele><time>2026-05-03T15:38:53Z</time></trkpt><trkpt lat="41.37549328122069" lon="-1.642762137288908"><ele>571.0</ele><time>2026-05-03T15:38:54Z</time></trkpt><trkpt lat="41.37542544844513" lon="-1.6426287048424981"><ele>571.0</ele><time>2026-05-03T15:38:55Z</time></trkpt><trkpt lat="41.375360918151216" lon="-1.642497534130023"><ele>569.75</ele><time>2026-05-03T15:38:56Z</time></trkpt><trkpt lat="41.375295300298994" lon="-1.6423682217980844"><ele>568.5</ele><time>2026-05-03T15:38:57Z</time></trkpt><trkpt lat="41.37522934763234" lon="-1.6422388095341685"><ele>567.25</ele><time>2026-05-03T15:38:58Z</time></trkpt><trkpt lat="41.37516382200928" lon="-1.6421087799781964"><ele>566.0</ele><time>2026-05-03T15:38:59Z</time></trkpt><trkpt lat="41.375097989761436" lon="-1.6419775733838775"><ele>566.0</ele><time>2026-05-03T15:39:00Z</time></trkpt><trkpt lat="41.375030464154" lon="-1.6418496278089634"><ele>566.0</ele><time>2026-05-03T15:39:01Z</time></trkpt><trkpt lat="41.374964089612156" lon="-1.6417222577149302"><ele>566.0</ele><time>2026-05-03T15:39:02Z</time></trkpt><trkpt lat="41.37489957064372" lon="-1.6415932465430223"><ele>566.0</ele><time>2026-05-03T15:39:03Z</time></trkpt><trkpt lat="41.37483312055094" lon="-1.641465585005501"><ele>566.0</ele><time>2026-05-03T15:39:04Z</time></trkpt><trkpt lat="41.37476914484843" lon="-1.6413359511925645"><ele>566.0</ele><time>2026-05-03T15:39:05Z</time></trkpt><trkpt lat="41.374703145108505" lon="-1.6412071521082323"><ele>566.0</ele><time>2026-05-03T15:39:06Z</time></trkpt><trkpt lat="41.37463480332859" lon="-1.6410781488366006"><ele>566.0</ele><time>2026-05-03T15:39:07Z</time></trkpt><trkpt lat="41.374562915492284" lon="-1.6409509237404283"><ele>566.5</ele><time>2026-05-03T15:39:08Z</time></trkpt><trkpt lat="41.37448731850498" lon="-1.6408276734693479"><ele>567.0</ele><time>2026-05-03T15:39:09Z</time></trkpt><trkpt lat="41.37440913001958" lon="-1.6407103828650942"><ele>567.5</ele><time>2026-05-03T15:39:10Z</time></trkpt><trkpt lat="41.374329071864324" lon="-1.640587980614404"><ele>568.0</ele><time>2026-05-03T15:39:11Z</time></trkpt><trkpt lat="41.374249286764744" lon="-1.6404706603723167"><ele>568.0</ele><time>2026-05-03T15:39:12Z</time></trkpt><trkpt lat="41.37416603893851" lon="-1.640354089707779"><ele>568.0</ele><time>2026-05-03T15:39:13Z</time></trkpt><trkpt lat="41.374084712341784" lon="-1.6402333287363777"><ele>568.0</ele><time>2026-05-03T15:39:14Z</time></trkpt><trkpt lat="41.37400076349782" lon="-1.64011868277982"><ele>568.0</ele><time>2026-05-03T15:39:15Z</time></trkpt><trkpt lat="41.373915931912656" lon="-1.6400057095853529"><ele>566.25</ele><time>2026-05-03T15:39:16Z</time></trkpt><trkpt lat="41.373831997886484" lon="-1.6398872024749187"><ele>564.5</ele><time>2026-05-03T15:39:17Z</time></trkpt><trkpt lat="41.37374755333556" lon="-1.6397704513589877"><ele>562.75</ele><time>2026-05-03T15:39:18Z</time></trkpt><trkpt lat="41.37366167071215" lon="-1.6396571352634661"><ele>561.0</ele><time>2026-05-03T15:39:19Z</time></trkpt><trkpt lat="41.373576823274355" lon="-1.6395399660593488"><ele>560.0</ele><time>2026-05-03T15:39:20Z</time></trkpt><trkpt lat="41.37349341787761" lon="-1.6394206770699609"><ele>559.0</ele><time>2026-05-03T15:39:21Z</time></trkpt><trkpt lat="41.37340938505465" lon="-1.6393026614750499"><ele>558.0</ele><time>2026-05-03T15:39:22Z</time></trkpt><trkpt lat="41.373325457077655" lon="-1.6391882488597558"><ele>557.0</ele><time>2026-05-03T15:39:23Z</time></trkpt><trkpt lat="41.37324268222998" lon="-1.639070731302474"><ele>557.0</ele><time>2026-05-03T15:39:24Z</time></trkpt><trkpt lat="41.37315895161304" lon="-1.6389576247775564"><ele>557.0</ele><time>2026-05-03T15:39:25Z</time></trkpt><trkpt lat="41.37307374097908" lon="-1.6388377529723954"><ele>557.0</ele><time>2026-05-03T15:39:26Z</time></trkpt><trkpt lat="41.37298987524957" lon="-1.638721304650525"><ele>557.0</ele><time>2026-05-03T15:39:27Z</time></trkpt><trkpt lat="41.37290699349581" lon="-1.6386005838008102"><ele>556.0</ele><time>2026-05-03T15:39:28Z</time></trkpt><trkpt lat="41.37282609111974" lon="-1.6384858944558263"><ele>555.0</ele><time>2026-05-03T15:39:29Z</time></trkpt><trkpt lat="41.372742891836204" lon="-1.6383673801173582"><ele>554.0</ele><time>2026-05-03T15:39:30Z</time></trkpt><trkpt lat="41.37266003125254" lon="-1.6382492497355319"><ele>553.0</ele><time>2026-05-03T15:39:31Z</time></trkpt><trkpt lat="41.372579545071176" lon="-1.6381327963168437"><ele>553.0</ele><time>2026-05-03T15:39:32Z</time></trkpt><trkpt lat="41.37249947809562" lon="-1.6380127529730348"><ele>553.0</ele><time>2026-05-03T15:39:33Z</time></trkpt><trkpt lat="41.372420890893835" lon="-1.6378902109068652"><ele>553.0</ele><time>2026-05-03T15:39:34Z</time></trkpt><trkpt lat="41.372345844733694" lon="-1.6377627296880655"><ele>553.0</ele><time>2026-05-03T15:39:35Z</time></trkpt><trkpt lat="41.37227323443344" lon="-1.6376322745717116"><ele>552.5</ele><time>2026-05-03T15:39:36Z</time></trkpt><trkpt lat="41.3722013460933" lon="-1.637502940636325"><ele>552.0</ele><time>2026-05-03T15:39:37Z</time></trkpt><trkpt lat="41.372132743935154" lon="-1.637370559703281"><ele>551.5</ele><time>2026-05-03T15:39:38Z</time></trkpt><trkpt lat="41.37206755689391" lon="-1.6372350878433146"><ele>551.0</ele><time>2026-05-03T15:39:39Z</time></trkpt><trkpt lat="41.372004649172084" lon="-1.6370985574782602"><ele>551.0</ele><time>2026-05-03T15:39:40Z</time></trkpt><trkpt lat="41.37194534806945" lon="-1.6369626895317724"><ele>551.0</ele><time>2026-05-03T15:39:41Z</time></trkpt><trkpt lat="41.37189050080791" lon="-1.6368228020289513"><ele>551.0</ele><time>2026-05-03T15:39:42Z</time></trkpt><trkpt lat="41.37183673051209" lon="-1.6366824855129178"><ele>551.0</ele><time>2026-05-03T15:39:43Z</time></trkpt><trkpt lat="41.3717875438246" lon="-1.6365439533981816"><ele>551.0</ele><time>2026-05-03T15:39:44Z</time></trkpt><trkpt lat="41.37174048386161" lon="-1.6364007105655638"><ele>551.0</ele><time>2026-05-03T15:39:45Z</time></trkpt><trkpt lat="41.37169044376608" lon="-1.6362535166154455"><ele>551.0</ele><time>2026-05-03T15:39:46Z</time></trkpt><trkpt lat="41.37164380232073" lon="-1.636108439810656"><ele>551.0</ele><time>2026-05-03T15:39:47Z</time></trkpt><trkpt lat="41.37159992424138" lon="-1.6359637623166026"><ele>550.0</ele><time>2026-05-03T15:39:48Z</time></trkpt><trkpt lat="41.3715570837688" lon="-1.6358180660254276"><ele>549.0</ele><time>2026-05-03T15:39:49Z</time></trkpt><trkpt lat="41.37151308746507" lon="-1.6356736025881777"><ele>548.0</ele><time>2026-05-03T15:39:50Z</time></trkpt><trkpt lat="41.37146988788668" lon="-1.6355293877417951"><ele>547.0</ele><time>2026-05-03T15:39:51Z</time></trkpt><trkpt lat="41.37142955981965" lon="-1.6353841161185585"><ele>546.25</ele><time>2026-05-03T15:39:52Z</time></trkpt><trkpt lat="41.37138747123916" lon="-1.6352362630662916"><ele>545.5</ele><time>2026-05-03T15:39:53Z</time></trkpt><trkpt lat="41.37134372188545" lon="-1.6350913171746222"><ele>544.75</ele><time>2026-05-03T15:39:54Z</time></trkpt><trkpt lat="41.37130142799682" lon="-1.6349491902505981"><ele>544.0</ele><time>2026-05-03T15:39:55.001Z</time></trkpt><trkpt lat="41.37126057225744" lon="-1.6348042394893572"><ele>544.25</ele><time>2026-05-03T15:39:56.001Z</time></trkpt><trkpt lat="41.37122054302665" lon="-1.6346587671106263"><ele>544.5</ele><time>2026-05-03T15:39:57.001Z</time></trkpt><trkpt lat="41.37118004497237" lon="-1.6345155717088893"><ele>544.75</ele><time>2026-05-03T15:39:58.001Z</time></trkpt><trkpt lat="41.37113850021029" lon="-1.6343709836642013"><ele>545.0</ele><time>2026-05-03T15:39:59.001Z</time></trkpt><trkpt lat="41.37109389308505" lon="-1.6342265031675056"><ele>545.0</ele><time>2026-05-03T15:40:00.001Z</time></trkpt><trkpt lat="41.37105398498234" lon="-1.6340801682034378"><ele>545.0</ele><time>2026-05-03T15:40:01.001Z</time></trkpt><trkpt lat="41.37101399380795" lon="-1.6339314665442028"><ele>545.0</ele><time>2026-05-03T15:40:02.001Z</time></trkpt><trkpt lat="41.37097019110408" lon="-1.6337822042665997"><ele>545.0</ele><time>2026-05-03T15:40:03.001Z</time></trkpt><trkpt lat="41.370925454175485" lon="-1.6336364280889022"><ele>543.75</ele><time>2026-05-03T15:40:04.001Z</time></trkpt><trkpt lat="41.3708799398942" lon="-1.6334946149309248"><ele>542.5</ele><time>2026-05-03T15:40:05.001Z</time></trkpt><trkpt lat="41.37083675097226" lon="-1.6333481939425536"><ele>541.25</ele><time>2026-05-03T15:40:06.001Z</time></trkpt><trkpt lat="41.3707955397635" lon="-1.6331961834030513"><ele>540.0</ele><time>2026-05-03T15:40:07.001Z</time></trkpt><trkpt lat="41.37075500710231" lon="-1.6330393815365014"><ele>540.0</ele><time>2026-05-03T15:40:08.001Z</time></trkpt><trkpt lat="41.37071292150845" lon="-1.632888332151064"><ele>540.0</ele><time>2026-05-03T15:40:09.001Z</time></trkpt><trkpt lat="41.370668577543924" lon="-1.6327401050171846"><ele>540.0</ele><time>2026-05-03T15:40:10.001Z</time></trkpt><trkpt lat="41.3706235609381" lon="-1.632592437101081"><ele>540.0</ele><time>2026-05-03T15:40:11.001Z</time></trkpt><trkpt lat="41.37058072680857" lon="-1.6324429816497472"><ele>540.0</ele><time>2026-05-03T15:40:12.001Z</time></trkpt><trkpt lat="41.37053754413651" lon="-1.6322942220030234"><ele>540.0</ele><time>2026-05-03T15:40:13.001Z</time></trkpt><trkpt lat="41.370494752954414" lon="-1.632148443435073"><ele>540.0</ele><time>2026-05-03T15:40:14.001Z</time></trkpt><trkpt lat="41.370452270297214" lon="-1.6320048619343583"><ele>540.0</ele><time>2026-05-03T15:40:15.001Z</time></trkpt><trkpt lat="41.370411899065935" lon="-1.6318606319450517"><ele>540.0</ele><time>2026-05-03T15:40:16.001Z</time></trkpt><trkpt lat="41.37036927504962" lon="-1.6317172215173423"><ele>540.0</ele><time>2026-05-03T15:40:17.001Z</time></trkpt><trkpt lat="41.37033081593607" lon="-1.6315710124269995"><ele>540.0</ele><time>2026-05-03T15:40:18.001Z</time></trkpt><trkpt lat="41.37028926083365" lon="-1.6314264123187825"><ele>540.0</ele><time>2026-05-03T15:40:19.001Z</time></trkpt><trkpt lat="41.37024693257996" lon="-1.6312822912992113"><ele>540.0</ele><time>2026-05-03T15:40:20.001Z</time></trkpt><trkpt lat="41.37020532772511" lon="-1.6311427067884496"><ele>540.0</ele><time>2026-05-03T15:40:21.001Z</time></trkpt><trkpt lat="41.37016475567923" lon="-1.6310073025708494"><ele>540.0</ele><time>2026-05-03T15:40:22.001Z</time></trkpt><trkpt lat="41.370124343864425" lon="-1.630856186101104"><ele>540.0</ele><time>2026-05-03T15:40:23.001Z</time></trkpt><trkpt lat="41.37008634184113" lon="-1.6307065403029777"><ele>539.75</ele><time>2026-05-03T15:40:24.001Z</time></trkpt><trkpt lat="41.37004409524565" lon="-1.6305627734732762"><ele>539.5</ele><time>2026-05-03T15:40:25.001Z</time></trkpt><trkpt lat="41.37000415969736" lon="-1.6304182898692892"><ele>539.25</ele><time>2026-05-03T15:40:26.001Z</time></trkpt><trkpt lat="41.36996468512156" lon="-1.6302722607927442"><ele>539.0</ele><time>2026-05-03T15:40:27.001Z</time></trkpt><trkpt lat="41.36992830981806" lon="-1.6301266727354926"><ele>538.75</ele><time>2026-05-03T15:40:28.001Z</time></trkpt><trkpt lat="41.36989305713892" lon="-1.629980371345694"><ele>538.5</ele><time>2026-05-03T15:40:29.001Z</time></trkpt><trkpt lat="41.36985731632557" lon="-1.6298327846944378"><ele>538.25</ele><time>2026-05-03T15:40:30.001Z</time></trkpt><trkpt lat="41.36982070703599" lon="-1.62968625224675"><ele>538.0</ele><time>2026-05-03T15:40:31.001Z</time></trkpt><trkpt lat="41.369786946828846" lon="-1.629540915891759"><ele>537.75</ele><time>2026-05-03T15:40:32.001Z</time></trkpt><trkpt lat="41.36975105170374" lon="-1.6293969077309782"><ele>537.5</ele><time>2026-05-03T15:40:33.001Z</time></trkpt><trkpt lat="41.36971309064876" lon="-1.6292564879708413"><ele>537.25</ele><time>2026-05-03T15:40:34.001Z</time></trkpt><trkpt lat="41.369673653284" lon="-1.6291114529734059"><ele>537.0</ele><time>2026-05-03T15:40:35.001Z</time></trkpt><trkpt lat="41.3696312628341" lon="-1.6289686806806947"><ele>537.75</ele><time>2026-05-03T15:40:36.001Z</time></trkpt><trkpt lat="41.36958729784098" lon="-1.6288275909579129"><ele>538.5</ele><time>2026-05-03T15:40:37.001Z</time></trkpt><trkpt lat="41.369543352720704" lon="-1.6286834655035658"><ele>539.25</ele><time>2026-05-03T15:40:38.001Z</time></trkpt><trkpt lat="41.36949874662225" lon="-1.6285370757012392"><ele>540.0</ele><time>2026-05-03T15:40:39.001Z</time></trkpt><trkpt lat="41.36943010877507" lon="-1.6284025533530126"><ele>540.0</ele><time>2026-05-03T15:40:40.001Z</time></trkpt><trkpt lat="41.369366387449666" lon="-1.628259341168771"><ele>540.0</ele><time>2026-05-03T15:40:41.001Z</time></trkpt><trkpt lat="41.36929997254411" lon="-1.6281236275185862"><ele>540.0</ele><time>2026-05-03T15:40:42.001Z</time></trkpt><trkpt lat="41.36924163703708" lon="-1.6279960431728273"><ele>540.0</ele><time>2026-05-03T15:40:43.001Z</time></trkpt><trkpt lat="41.36916841527223" lon="-1.6278824749248388"><ele>538.75</ele><time>2026-05-03T15:40:44Z</time></trkpt><trkpt lat="41.36909209192332" lon="-1.6277643756482836"><ele>537.5</ele><time>2026-05-03T15:40:45Z</time></trkpt><trkpt lat="41.36901212542872" lon="-1.6276473762435533"><ele>536.25</ele><time>2026-05-03T15:40:46Z</time></trkpt><trkpt lat="41.36892767261749" lon="-1.627535589522989"><ele>535.0</ele><time>2026-05-03T15:40:47Z</time></trkpt><trkpt lat="41.368838621105624" lon="-1.627429446317571"><ele>534.75</ele><time>2026-05-03T15:40:48Z</time></trkpt><trkpt lat="41.36874636444359" lon="-1.6273302431099048"><ele>534.5</ele><time>2026-05-03T15:40:49Z</time></trkpt><trkpt lat="41.36865334591309" lon="-1.627234456366797"><ele>534.25</ele><time>2026-05-03T15:40:50Z</time></trkpt><trkpt lat="41.36855395162844" lon="-1.6271422530919106"><ele>534.0</ele><time>2026-05-03T15:40:51Z</time></trkpt><trkpt lat="41.368448066864715" lon="-1.6270614265886663"><ele>534.0</ele><time>2026-05-03T15:40:52Z</time></trkpt><trkpt lat="41.368343086833825" lon="-1.6269870182611519"><ele>534.0</ele><time>2026-05-03T15:40:53Z</time></trkpt><trkpt lat="41.368233147665244" lon="-1.6269156333793118"><ele>534.0</ele><time>2026-05-03T15:40:54Z</time></trkpt><trkpt lat="41.36811862275018" lon="-1.6268493896304415"><ele>534.0</ele><time>2026-05-03T15:40:55Z</time></trkpt><trkpt lat="41.36800504466007" lon="-1.6267904477321546"><ele>532.25</ele><time>2026-05-03T15:40:56Z</time></trkpt><trkpt lat="41.36789182792389" lon="-1.6267378992271424"><ele>530.5</ele><time>2026-05-03T15:40:57Z</time></trkpt><trkpt lat="41.36777801910923" lon="-1.6266875868550486"><ele>528.75</ele><time>2026-05-03T15:40:58Z</time></trkpt><trkpt lat="41.367660391571334" lon="-1.6266455726684521"><ele>527.0</ele><time>2026-05-03T15:40:59Z</time></trkpt><trkpt lat="41.367540721298205" lon="-1.6266069948218365"><ele>527.0</ele><time>2026-05-03T15:41:00Z</time></trkpt><trkpt lat="41.36742222136943" lon="-1.6265772223431367"><ele>527.0</ele><time>2026-05-03T15:41:01Z</time></trkpt><trkpt lat="41.36730544118279" lon="-1.6265582153079228"><ele>527.0</ele><time>2026-05-03T15:41:02Z</time></trkpt><trkpt lat="41.367191030859345" lon="-1.6265516104094422"><ele>527.0</ele><time>2026-05-03T15:41:03Z</time></trkpt><trkpt lat="41.367080546099984" lon="-1.6265480954020648"><ele>526.5</ele><time>2026-05-03T15:41:04Z</time></trkpt><trkpt lat="41.36696787996045" lon="-1.6265374472143086"><ele>526.0</ele><time>2026-05-03T15:41:05Z</time></trkpt><trkpt lat="41.366855769773196" lon="-1.6265292146913028"><ele>525.5</ele><time>2026-05-03T15:41:06Z</time></trkpt><trkpt lat="41.36674383348951" lon="-1.6265201467435564"><ele>525.0</ele><time>2026-05-03T15:41:07Z</time></trkpt><trkpt lat="41.36663066711944" lon="-1.6265145164226642"><ele>525.0</ele><time>2026-05-03T15:41:08Z</time></trkpt><trkpt lat="41.36651566740764" lon="-1.6265116685356045"><ele>525.0</ele><time>2026-05-03T15:41:09Z</time></trkpt><trkpt lat="41.36640038180713" lon="-1.626507385897917"><ele>525.0</ele><time>2026-05-03T15:41:10Z</time></trkpt><trkpt lat="41.36628459346603" lon="-1.6264997969919834"><ele>525.0</ele><time>2026-05-03T15:41:11Z</time></trkpt><trkpt lat="41.36616607459174" lon="-1.6264977956939355"><ele>524.0</ele><time>2026-05-03T15:41:12Z</time></trkpt><trkpt lat="41.366048140784024" lon="-1.6264932303717576"><ele>523.0</ele><time>2026-05-03T15:41:13Z</time></trkpt><trkpt lat="41.365933575569144" lon="-1.6264861892936326"><ele>522.0</ele><time>2026-05-03T15:41:14Z</time></trkpt><trkpt lat="41.36581729832846" lon="-1.6264761761880362"><ele>521.0</ele><time>2026-05-03T15:41:15Z</time></trkpt><trkpt lat="41.365699331560975" lon="-1.6264651155690881"><ele>521.0</ele><time>2026-05-03T15:41:16Z</time></trkpt><trkpt lat="41.36558240455113" lon="-1.626461879113866"><ele>521.0</ele><time>2026-05-03T15:41:17Z</time></trkpt><trkpt lat="41.36546877150306" lon="-1.6264594194120519"><ele>521.0</ele><time>2026-05-03T15:41:18Z</time></trkpt><trkpt lat="41.365353535248595" lon="-1.6264522652730775"><ele>521.0</ele><time>2026-05-03T15:41:19Z</time></trkpt><trkpt lat="41.3652362952025" lon="-1.6264434314795002"><ele>520.75</ele><time>2026-05-03T15:41:20Z</time></trkpt><trkpt lat="41.365116127020414" lon="-1.6264299462691603"><ele>520.5</ele><time>2026-05-03T15:41:21Z</time></trkpt><trkpt lat="41.36499584436054" lon="-1.6264147264839666"><ele>520.25</ele><time>2026-05-03T15:41:22Z</time></trkpt><trkpt lat="41.36487772631598" lon="-1.6263957308552848"><ele>520.0</ele><time>2026-05-03T15:41:23Z</time></trkpt><trkpt lat="41.36476039654266" lon="-1.6263746375200416"><ele>520.25</ele><time>2026-05-03T15:41:24Z</time></trkpt><trkpt lat="41.36464554401946" lon="-1.6263489074869573"><ele>520.5</ele><time>2026-05-03T15:41:25Z</time></trkpt><trkpt lat="41.36453102933932" lon="-1.6263212456745368"><ele>520.75</ele><time>2026-05-03T15:41:26Z</time></trkpt><trkpt lat="41.364416660742535" lon="-1.6262918421742067"><ele>521.0</ele><time>2026-05-03T15:41:27Z</time></trkpt><trkpt lat="41.364300879077646" lon="-1.6262591673032218"><ele>521.0</ele><time>2026-05-03T15:41:28Z</time></trkpt><trkpt lat="41.36418573557541" lon="-1.6262272922586047"><ele>521.0</ele><time>2026-05-03T15:41:29Z</time></trkpt><trkpt lat="41.36407798997218" lon="-1.6262041773979998"><ele>521.0</ele><time>2026-05-03T15:41:30Z</time></trkpt><trkpt lat="41.363970800996455" lon="-1.6261733276615178"><ele>521.0</ele><time>2026-05-03T15:41:31Z</time></trkpt><trkpt lat="41.36386392367185" lon="-1.6261359228305772"><ele>521.0</ele><time>2026-05-03T15:41:32Z</time></trkpt><trkpt lat="41.36375631535075" lon="-1.62609116286595"><ele>521.0</ele><time>2026-05-03T15:41:33Z</time></trkpt><trkpt lat="41.36365025810455" lon="-1.6260435003352245"><ele>521.0</ele><time>2026-05-03T15:41:34Z</time></trkpt><trkpt lat="41.36354786117181" lon="-1.6259866539416896"><ele>521.0</ele><time>2026-05-03T15:41:35Z</time></trkpt><trkpt lat="41.36346397169716" lon="-1.6259719517610967"><ele>521.0</ele><time>2026-05-03T15:41:36Z</time></trkpt><trkpt lat="41.36337661364908" lon="-1.626011172547674"><ele>521.0</ele><time>2026-05-03T15:41:38Z</time></trkpt><trkpt lat="41.36335945417767" lon="-1.6262137879037883"><ele>521.0</ele><time>2026-05-03T15:41:39Z</time></trkpt><trkpt lat="41.36303960664556" lon="-1.625715636972164"><ele>521.0</ele><time>2026-05-03T15:41:40Z</time></trkpt><trkpt lat="41.3629396646249" lon="-1.6256624456095121"><ele>521.0</ele><time>2026-05-03T15:41:41Z</time></trkpt><trkpt lat="41.36284728698185" lon="-1.6255963089893228"><ele>521.0</ele><time>2026-05-03T15:41:42Z</time></trkpt><trkpt lat="41.36274995661429" lon="-1.6255314440987554"><ele>521.0</ele><time>2026-05-03T15:41:43Z</time></trkpt><trkpt lat="41.36265351223437" lon="-1.6254644861015195"><ele>521.0</ele><time>2026-05-03T15:41:44Z</time></trkpt><trkpt lat="41.36255876881424" lon="-1.6253904320432369"><ele>521.0</ele><time>2026-05-03T15:41:45Z</time></trkpt><trkpt lat="41.362465722453514" lon="-1.6253214768128572"><ele>521.0</ele><time>2026-05-03T15:41:46Z</time></trkpt><trkpt lat="41.3623667986902" lon="-1.6252630434475397"><ele>521.0</ele><time>2026-05-03T15:41:47Z</time></trkpt><trkpt lat="41.36227726189626" lon="-1.625191834844717"><ele>521.0</ele><time>2026-05-03T15:41:48Z</time></trkpt><trkpt lat="41.362185613268956" lon="-1.6251148548215948"><ele>521.0</ele><time>2026-05-03T15:41:49Z</time></trkpt><trkpt lat="41.36209581860505" lon="-1.625034945568445"><ele>520.8</ele><time>2026-05-03T15:41:50Z</time></trkpt><trkpt lat="41.362006349070235" lon="-1.6249499573572463"><ele>520.6</ele><time>2026-05-03T15:41:51Z</time></trkpt><trkpt lat="41.36191866746333" lon="-1.6248621356361765"><ele>520.4</ele><time>2026-05-03T15:41:52Z</time></trkpt><trkpt lat="41.361829956551695" lon="-1.6247701279050133"><ele>520.2</ele><time>2026-05-03T15:41:53Z</time></trkpt><trkpt lat="41.36174249238273" lon="-1.6246770879396257"><ele>520.0</ele><time>2026-05-03T15:41:54Z</time></trkpt><trkpt lat="41.36165212535741" lon="-1.6245788766202827"><ele>520.0</ele><time>2026-05-03T15:41:55Z</time></trkpt><trkpt lat="41.3615659523371" lon="-1.624479121003529"><ele>520.0</ele><time>2026-05-03T15:41:56Z</time></trkpt><trkpt lat="41.36148187794268" lon="-1.6243800677045162"><ele>520.0</ele><time>2026-05-03T15:41:57Z</time></trkpt><trkpt lat="41.361407835122144" lon="-1.6242613543713325"><ele>520.0</ele><time>2026-05-03T15:41:58Z</time></trkpt><trkpt lat="41.36132578958525" lon="-1.6241605245204318"><ele>520.25</ele><time>2026-05-03T15:41:59Z</time></trkpt><trkpt lat="41.36123830038785" lon="-1.6240607397474278"><ele>520.5</ele><time>2026-05-03T15:42:00.001Z</time></trkpt><trkpt lat="41.36115744702207" lon="-1.6239553042791792"><ele>520.75</ele><time>2026-05-03T15:42:01.001Z</time></trkpt><trkpt lat="41.36107808555649" lon="-1.6238436602540003"><ele>521.0</ele><time>2026-05-03T15:42:02.001Z</time></trkpt><trkpt lat="41.36099967783483" lon="-1.6237323912956767"><ele>520.5</ele><time>2026-05-03T15:42:03.001Z</time></trkpt><trkpt lat="41.36092165559443" lon="-1.6236193278585862"><ele>520.0</ele><time>2026-05-03T15:42:04.001Z</time></trkpt><trkpt lat="41.36084914402657" lon="-1.6235019725397126"><ele>519.5</ele><time>2026-05-03T15:42:05.001Z</time></trkpt><trkpt lat="41.360775471745356" lon="-1.623385433741229"><ele>519.0</ele><time>2026-05-03T15:42:06.001Z</time></trkpt><trkpt lat="41.36070356696917" lon="-1.6232680135365642"><ele>519.0</ele><time>2026-05-03T15:42:07.001Z</time></trkpt><trkpt lat="41.36063291692326" lon="-1.6231493499550378"><ele>519.0</ele><time>2026-05-03T15:42:08.001Z</time></trkpt><trkpt lat="41.36056789448142" lon="-1.6230284773870163"><ele>519.0</ele><time>2026-05-03T15:42:09.001Z</time></trkpt><trkpt lat="41.36050407387789" lon="-1.6229040958777783"><ele>519.0</ele><time>2026-05-03T15:42:10.001Z</time></trkpt><trkpt lat="41.36043771929622" lon="-1.6227820892364864"><ele>519.5</ele><time>2026-05-03T15:42:11.001Z</time></trkpt><trkpt lat="41.36037095157544" lon="-1.622660711821142"><ele>520.0</ele><time>2026-05-03T15:42:12.001Z</time></trkpt><trkpt lat="41.36030939138172" lon="-1.6225371350540854"><ele>520.5</ele><time>2026-05-03T15:42:13.001Z</time></trkpt><trkpt lat="41.36024452667617" lon="-1.6224117621325378"><ele>521.0</ele><time>2026-05-03T15:42:14.001Z</time></trkpt><trkpt lat="41.360179978753195" lon="-1.6222885391775883"><ele>521.0</ele><time>2026-05-03T15:42:15.001Z</time></trkpt><trkpt lat="41.36011683994989" lon="-1.6221677490660331"><ele>521.0</ele><time>2026-05-03T15:42:16.001Z</time></trkpt><trkpt lat="41.360049970812696" lon="-1.6220470477619247"><ele>521.0</ele><time>2026-05-03T15:42:17.001Z</time></trkpt><trkpt lat="41.359987249268286" lon="-1.62192536762442"><ele>521.0</ele><time>2026-05-03T15:42:18.001Z</time></trkpt><trkpt lat="41.35991590717895" lon="-1.6218123794691295"><ele>521.0</ele><time>2026-05-03T15:42:19.001Z</time></trkpt><trkpt lat="41.35985497795849" lon="-1.6216864071644754"><ele>521.0</ele><time>2026-05-03T15:42:20.001Z</time></trkpt><trkpt lat="41.359794784675536" lon="-1.6215809228378038"><ele>521.0</ele><time>2026-05-03T15:42:21.001Z</time></trkpt><trkpt lat="41.35973273204252" lon="-1.621458679809547"><ele>521.0</ele><time>2026-05-03T15:42:22.001Z</time></trkpt><trkpt lat="41.359670070766505" lon="-1.6213388377455318"><ele>521.0</ele><time>2026-05-03T15:42:23.001Z</time></trkpt><trkpt lat="41.359610060834335" lon="-1.6212217254120405"><ele>521.0</ele><time>2026-05-03T15:42:24.001Z</time></trkpt><trkpt lat="41.35955140161185" lon="-1.6211019943993292"><ele>521.0</ele><time>2026-05-03T15:42:25.001Z</time></trkpt><trkpt lat="41.35949135697943" lon="-1.6209844001508034"><ele>521.0</ele><time>2026-05-03T15:42:26.001Z</time></trkpt><trkpt lat="41.35943047094668" lon="-1.6208680790991836"><ele>521.0</ele><time>2026-05-03T15:42:27.001Z</time></trkpt><trkpt lat="41.35936905620297" lon="-1.6207503144184374"><ele>521.0</ele><time>2026-05-03T15:42:28.001Z</time></trkpt><trkpt lat="41.3593061945121" lon="-1.6206368471768458"><ele>521.0</ele><time>2026-05-03T15:42:29.001Z</time></trkpt><trkpt lat="41.35924422465825" lon="-1.6205229580065095"><ele>521.0</ele><time>2026-05-03T15:42:30.001Z</time></trkpt><trkpt lat="41.35918492602618" lon="-1.6204049439664194"><ele>521.0</ele><time>2026-05-03T15:42:31.001Z</time></trkpt><trkpt lat="41.35912297553424" lon="-1.620289023835981"><ele>521.0</ele><time>2026-05-03T15:42:32.001Z</time></trkpt><trkpt lat="41.35906234113909" lon="-1.6201729284295696"><ele>521.0</ele><time>2026-05-03T15:42:33.001Z</time></trkpt><trkpt lat="41.359000793086636" lon="-1.6200570252944906"><ele>521.0</ele><time>2026-05-03T15:42:34.001Z</time></trkpt><trkpt lat="41.35894047776364" lon="-1.61993991985847"><ele>520.8</ele><time>2026-05-03T15:42:35.001Z</time></trkpt><trkpt lat="41.35887909119872" lon="-1.6198245650297718"><ele>520.6</ele><time>2026-05-03T15:42:36.001Z</time></trkpt><trkpt lat="41.358818029082386" lon="-1.6197098332269089"><ele>520.4</ele><time>2026-05-03T15:42:37.001Z</time></trkpt><trkpt lat="41.3587544107647" lon="-1.6195928364013834"><ele>520.2</ele><time>2026-05-03T15:42:38.001Z</time></trkpt><trkpt lat="41.35869084063088" lon="-1.6194761804940707"><ele>520.0</ele><time>2026-05-03T15:42:39.001Z</time></trkpt><trkpt lat="41.35862673158055" lon="-1.6193594362234358"><ele>519.75</ele><time>2026-05-03T15:42:40.001Z</time></trkpt><trkpt lat="41.3585617434775" lon="-1.6192430431072478"><ele>519.5</ele><time>2026-05-03T15:42:41.001Z</time></trkpt><trkpt lat="41.35849534617751" lon="-1.6191314299841153"><ele>519.25</ele><time>2026-05-03T15:42:42.001Z</time></trkpt><trkpt lat="41.358428829688904" lon="-1.6190011232221049"><ele>519.0</ele><time>2026-05-03T15:42:43.001Z</time></trkpt><trkpt lat="41.35835077697846" lon="-1.6188498053551752"><ele>519.0</ele><time>2026-05-03T15:42:44.001Z</time></trkpt><trkpt lat="41.35829620711182" lon="-1.6187483582844113"><ele>519.0</ele><time>2026-05-03T15:42:45.001Z</time></trkpt><trkpt lat="41.35823135937516" lon="-1.618652895953573"><ele>519.0</ele><time>2026-05-03T15:42:46.001Z</time></trkpt><trkpt lat="41.35816794232383" lon="-1.6185333912567594"><ele>519.0</ele><time>2026-05-03T15:42:47.001Z</time></trkpt><trkpt lat="41.35810450721829" lon="-1.6184074716044212"><ele>519.0</ele><time>2026-05-03T15:42:48.001Z</time></trkpt><trkpt lat="41.358045134056304" lon="-1.6182793174769439"><ele>519.75</ele><time>2026-05-03T15:42:49.001Z</time></trkpt><trkpt lat="41.35797751501577" lon="-1.6181575166843012"><ele>520.5</ele><time>2026-05-03T15:42:50Z</time></trkpt><trkpt lat="41.35791361394737" lon="-1.6180370615626127"><ele>521.25</ele><time>2026-05-03T15:42:51Z</time></trkpt><trkpt lat="41.35784773779521" lon="-1.6179129866988713"><ele>522.0</ele><time>2026-05-03T15:42:52Z</time></trkpt><trkpt lat="41.35778354641964" lon="-1.6177870066377649"><ele>522.0</ele><time>2026-05-03T15:42:53Z</time></trkpt><trkpt lat="41.35771375723511" lon="-1.6176626782841108"><ele>522.0</ele><time>2026-05-03T15:42:54Z</time></trkpt><trkpt lat="41.3576486859884" lon="-1.6175406779880932"><ele>522.0</ele><time>2026-05-03T15:42:55Z</time></trkpt><trkpt lat="41.357583407164526" lon="-1.617416912441424"><ele>522.0</ele><time>2026-05-03T15:42:56Z</time></trkpt><trkpt lat="41.35751924335409" lon="-1.6173034642809674"><ele>522.0</ele><time>2026-05-03T15:42:57Z</time></trkpt><trkpt lat="41.357464756895276" lon="-1.617196703315823"><ele>522.0</ele><time>2026-05-03T15:42:58Z</time></trkpt><trkpt lat="41.35741359391876" lon="-1.6170876975432782"><ele>522.0</ele><time>2026-05-03T15:42:59Z</time></trkpt><trkpt lat="41.35735466155482" lon="-1.6169865299008215"><ele>522.0</ele><time>2026-05-03T15:43:00Z</time></trkpt><trkpt lat="41.35729976685954" lon="-1.6168855272525449"><ele>522.0</ele><time>2026-05-03T15:43:01Z</time></trkpt><trkpt lat="41.35724197666174" lon="-1.616801672012828"><ele>522.0</ele><time>2026-05-03T15:43:02Z</time></trkpt><trkpt lat="41.35717477951191" lon="-1.6167370185022254"><ele>523.4</ele><time>2026-05-03T15:43:03Z</time></trkpt><trkpt lat="41.35710302232732" lon="-1.616681594250684"><ele>524.8000000000001</ele><time>2026-05-03T15:43:04Z</time></trkpt><trkpt lat="41.357020640364496" lon="-1.6166356786566252"><ele>526.2</ele><time>2026-05-03T15:43:05Z</time></trkpt><trkpt lat="41.356930527380364" lon="-1.6166144675944223"><ele>527.6</ele><time>2026-05-03T15:43:06Z</time></trkpt><trkpt lat="41.35683631165786" lon="-1.6166241950286195"><ele>529.0</ele><time>2026-05-03T15:43:07Z</time></trkpt><trkpt lat="41.35674120641732" lon="-1.6166603178670689"><ele>529.0</ele><time>2026-05-03T15:43:08Z</time></trkpt><trkpt lat="41.35664508311276" lon="-1.6167111434411825"><ele>529.0</ele><time>2026-05-03T15:43:09Z</time></trkpt><trkpt lat="41.356553334548856" lon="-1.616773639566821"><ele>529.0</ele><time>2026-05-03T15:43:10Z</time></trkpt><trkpt lat="41.3564736618579" lon="-1.6168544239946236"><ele>529.0</ele><time>2026-05-03T15:43:11Z</time></trkpt><trkpt lat="41.35639965131047" lon="-1.616950702785754"><ele>529.0</ele><time>2026-05-03T15:43:12Z</time></trkpt><trkpt lat="41.35634399111849" lon="-1.6170613410356534"><ele>529.2</ele><time>2026-05-03T15:43:13Z</time></trkpt><trkpt lat="41.35630888491406" lon="-1.6171798152113694"><ele>529.4</ele><time>2026-05-03T15:43:14Z</time></trkpt><trkpt lat="41.356298792794064" lon="-1.6173036367588582"><ele>529.6</ele><time>2026-05-03T15:43:15Z</time></trkpt><trkpt lat="41.35631278420241" lon="-1.6174232201695489"><ele>529.8</ele><time>2026-05-03T15:43:16Z</time></trkpt><trkpt lat="41.356352588567184" lon="-1.6175315593874557"><ele>530.0</ele><time>2026-05-03T15:43:17Z</time></trkpt><trkpt lat="41.35642192345756" lon="-1.6176148113940725"><ele>529.1666666666666</ele><time>2026-05-03T15:43:18Z</time></trkpt><trkpt lat="41.3565016835896" lon="-1.6176690962138958"><ele>528.3333333333333</ele><time>2026-05-03T15:43:19Z</time></trkpt><trkpt lat="41.356566154934775" lon="-1.617727594171626"><ele>527.5</ele><time>2026-05-03T15:43:20Z</time></trkpt><trkpt lat="41.3566644684713" lon="-1.6176981571120392"><ele>526.6666666666666</ele><time>2026-05-03T15:43:21Z</time></trkpt><trkpt lat="41.35674628009553" lon="-1.617674140116883"><ele>525.8333333333334</ele><time>2026-05-03T15:43:22Z</time></trkpt><trkpt lat="41.356832114115775" lon="-1.6176444256738651"><ele>525.0</ele><time>2026-05-03T15:43:23Z</time></trkpt><trkpt lat="41.356923728939165" lon="-1.6176162655068884"><ele>525.0</ele><time>2026-05-03T15:43:24Z</time></trkpt><trkpt lat="41.35701502658663" lon="-1.61757662527767"><ele>525.0</ele><time>2026-05-03T15:43:25Z</time></trkpt><trkpt lat="41.35709640179481" lon="-1.6175032634895017"><ele>525.0</ele><time>2026-05-03T15:43:26Z</time></trkpt><trkpt lat="41.35716611510286" lon="-1.6174085165485417"><ele>525.0</ele><time>2026-05-03T15:43:27Z</time></trkpt><trkpt lat="41.357238012615284" lon="-1.6173147213498396"><ele>525.0</ele><time>2026-05-03T15:43:28Z</time></trkpt><trkpt lat="41.35731527747174" lon="-1.6172283087589545"><ele>525.0</ele><time>2026-05-03T15:43:29Z</time></trkpt><trkpt lat="41.357394673706786" lon="-1.6171517721017614"><ele>525.0</ele><time>2026-05-03T15:43:30Z</time></trkpt><trkpt lat="41.357473448135735" lon="-1.6170720614335448"><ele>525.0</ele><time>2026-05-03T15:43:31Z</time></trkpt><trkpt lat="41.357557105741854" lon="-1.616991249127401"><ele>525.0</ele><time>2026-05-03T15:43:32Z</time></trkpt><trkpt lat="41.35763800502507" lon="-1.6169088486229206"><ele>525.0</ele><time>2026-05-03T15:43:33Z</time></trkpt><trkpt lat="41.35771672993153" lon="-1.6168242271579496"><ele>525.0</ele><time>2026-05-03T15:43:34Z</time></trkpt><trkpt lat="41.35779688622348" lon="-1.6167430307194763"><ele>525.0</ele><time>2026-05-03T15:43:35Z</time></trkpt><trkpt lat="41.35787753452185" lon="-1.6166591518497369"><ele>525.0</ele><time>2026-05-03T15:43:36Z</time></trkpt><trkpt lat="41.35795197914416" lon="-1.6165772617209646"><ele>525.0</ele><time>2026-05-03T15:43:37Z</time></trkpt><trkpt lat="41.35801771014558" lon="-1.6164930425858326"><ele>525.0</ele><time>2026-05-03T15:43:38Z</time></trkpt><trkpt lat="41.35807468469207" lon="-1.616401372585512"><ele>524.8</ele><time>2026-05-03T15:43:39Z</time></trkpt><trkpt lat="41.35811697078202" lon="-1.616298037020517"><ele>524.6</ele><time>2026-05-03T15:43:40Z</time></trkpt><trkpt lat="41.35815690815933" lon="-1.6161876923660086"><ele>524.4</ele><time>2026-05-03T15:43:41Z</time></trkpt><trkpt lat="41.358206055625594" lon="-1.6160852947587836"><ele>524.2</ele><time>2026-05-03T15:43:42Z</time></trkpt><trkpt lat="41.35827869497152" lon="-1.6160124364113029"><ele>524.0</ele><time>2026-05-03T15:43:43Z</time></trkpt><trkpt lat="41.358363260179296" lon="-1.6159604236411953"><ele>524.8</ele><time>2026-05-03T15:43:44Z</time></trkpt><trkpt lat="41.35845707609105" lon="-1.6159270318055032"><ele>525.5999999999999</ele><time>2026-05-03T15:43:45Z</time></trkpt><trkpt lat="41.35855725930275" lon="-1.6159011447369114"><ele>526.4</ele><time>2026-05-03T15:43:46Z</time></trkpt><trkpt lat="41.358652863677904" lon="-1.615840045296666"><ele>527.1999999999999</ele><time>2026-05-03T15:43:47Z</time></trkpt><trkpt lat="41.358734944779954" lon="-1.6157506820490446"><ele>528.0</ele><time>2026-05-03T15:43:48Z</time></trkpt><trkpt lat="41.35881138540091" lon="-1.6156538003125684"><ele>528.4</ele><time>2026-05-03T15:43:49Z</time></trkpt><trkpt lat="41.35888653004798" lon="-1.6155532022673138"><ele>528.8</ele><time>2026-05-03T15:43:50Z</time></trkpt><trkpt lat="41.358965139115654" lon="-1.6154609137265432"><ele>529.2</ele><time>2026-05-03T15:43:51Z</time></trkpt><trkpt lat="41.35905043181658" lon="-1.6153776922521148"><ele>529.6</ele><time>2026-05-03T15:43:52Z</time></trkpt><trkpt lat="41.359134875907195" lon="-1.6152950118259426"><ele>530.0</ele><time>2026-05-03T15:43:53Z</time></trkpt><trkpt lat="41.35921599155949" lon="-1.6152101604839888"><ele>530.0</ele><time>2026-05-03T15:43:54Z</time></trkpt><trkpt lat="41.35929644962437" lon="-1.615124779229894"><ele>530.0</ele><time>2026-05-03T15:43:55Z</time></trkpt><trkpt lat="41.35937634794784" lon="-1.6150349774797554"><ele>530.0</ele><time>2026-05-03T15:43:56Z</time></trkpt><trkpt lat="41.359451994387285" lon="-1.6149458667753553"><ele>530.0</ele><time>2026-05-03T15:43:57Z</time></trkpt><trkpt lat="41.35953033366935" lon="-1.6148604811208014"><ele>530.0</ele><time>2026-05-03T15:43:58Z</time></trkpt><trkpt lat="41.35960933841691" lon="-1.6147764659418087"><ele>530.0</ele><time>2026-05-03T15:43:59Z</time></trkpt><trkpt lat="41.35968850859312" lon="-1.6146917798629281"><ele>530.0</ele><time>2026-05-03T15:44:00Z</time></trkpt><trkpt lat="41.359768176357825" lon="-1.614608445201518"><ele>530.0</ele><time>2026-05-03T15:44:01.001Z</time></trkpt><trkpt lat="41.35984544258932" lon="-1.614524964499936"><ele>530.0</ele><time>2026-05-03T15:44:02.001Z</time></trkpt><trkpt lat="41.359925265671585" lon="-1.6144404885958017"><ele>530.0</ele><time>2026-05-03T15:44:03.001Z</time></trkpt><trkpt lat="41.36000289727989" lon="-1.6143605105492993"><ele>531.4</ele><time>2026-05-03T15:44:04.001Z</time></trkpt><trkpt lat="41.36008071233033" lon="-1.6142752363231985"><ele>532.8</ele><time>2026-05-03T15:44:05.001Z</time></trkpt><trkpt lat="41.360154291553286" lon="-1.6141943940621826"><ele>534.2</ele><time>2026-05-03T15:44:06.001Z</time></trkpt><trkpt lat="41.36022875823624" lon="-1.6141106905208933"><ele>535.6</ele><time>2026-05-03T15:44:07.001Z</time></trkpt><trkpt lat="41.36030493363956" lon="-1.6140295891297964"><ele>537.0</ele><time>2026-05-03T15:44:08.001Z</time></trkpt><trkpt lat="41.36037675608714" lon="-1.613948956623067"><ele>537.0</ele><time>2026-05-03T15:44:09.001Z</time></trkpt><trkpt lat="41.36044396415494" lon="-1.6138670326290983"><ele>537.0</ele><time>2026-05-03T15:44:10.001Z</time></trkpt><trkpt lat="41.36050492720289" lon="-1.613776940312631"><ele>537.0</ele><time>2026-05-03T15:44:11.001Z</time></trkpt><trkpt lat="41.3605574114067" lon="-1.613684847316311"><ele>537.0</ele><time>2026-05-03T15:44:12.001Z</time></trkpt><trkpt lat="41.36060337110115" lon="-1.6135895408710876"><ele>537.0</ele><time>2026-05-03T15:44:13.001Z</time></trkpt><trkpt lat="41.360648441654206" lon="-1.613493904200864"><ele>537.0</ele><time>2026-05-03T15:44:14.001Z</time></trkpt><trkpt lat="41.36069197843915" lon="-1.6133956955926423"><ele>537.0</ele><time>2026-05-03T15:44:15.001Z</time></trkpt><trkpt lat="41.36072660888099" lon="-1.6132860875599127"><ele>537.0</ele><time>2026-05-03T15:44:16.001Z</time></trkpt><trkpt lat="41.360759230934875" lon="-1.6131862501379328"><ele>537.0</ele><time>2026-05-03T15:44:17.001Z</time></trkpt><trkpt lat="41.36078558494464" lon="-1.613076765652616"><ele>537.0</ele><time>2026-05-03T15:44:18.001Z</time></trkpt><trkpt lat="41.36080935856151" lon="-1.6129630077945503"><ele>537.0</ele><time>2026-05-03T15:44:19.001Z</time></trkpt><trkpt lat="41.360825589038576" lon="-1.6128471844995602"><ele>537.0</ele><time>2026-05-03T15:44:20.001Z</time></trkpt><trkpt lat="41.36083809457227" lon="-1.6127284263814536"><ele>537.6</ele><time>2026-05-03T15:44:21.001Z</time></trkpt><trkpt lat="41.36084875311003" lon="-1.61260418978005"><ele>538.2</ele><time>2026-05-03T15:44:22.001Z</time></trkpt><trkpt lat="41.36085597974961" lon="-1.6124749662007787"><ele>538.8</ele><time>2026-05-03T15:44:23.001Z</time></trkpt><trkpt lat="41.36085484182232" lon="-1.6123388318159926"><ele>539.4</ele><time>2026-05-03T15:44:24.001Z</time></trkpt><trkpt lat="41.36084939981359" lon="-1.612198840545405"><ele>540.0</ele><time>2026-05-03T15:44:25.001Z</time></trkpt><trkpt lat="41.36084184768969" lon="-1.6120572046120465"><ele>540.2</ele><time>2026-05-03T15:44:26.001Z</time></trkpt><trkpt lat="41.3608323706876" lon="-1.6119169213003528"><ele>540.4</ele><time>2026-05-03T15:44:27.001Z</time></trkpt><trkpt lat="41.36082286219868" lon="-1.6117773227634755"><ele>540.6</ele><time>2026-05-03T15:44:28.001Z</time></trkpt><trkpt lat="41.360812586798716" lon="-1.611636499277381"><ele>540.8</ele><time>2026-05-03T15:44:29.001Z</time></trkpt><trkpt lat="41.36080221018321" lon="-1.6114954426494454"><ele>541.0</ele><time>2026-05-03T15:44:30.001Z</time></trkpt><trkpt lat="41.36079097332776" lon="-1.6113547679640599"><ele>541.0</ele><time>2026-05-03T15:44:31.001Z</time></trkpt><trkpt lat="41.360777020045845" lon="-1.6112112611958924"><ele>541.0</ele><time>2026-05-03T15:44:32.001Z</time></trkpt><trkpt lat="41.36076221539557" lon="-1.6110642926326357"><ele>541.0</ele><time>2026-05-03T15:44:33.001Z</time></trkpt><trkpt lat="41.36075903734401" lon="-1.6109227137445785"><ele>541.0</ele><time>2026-05-03T15:44:34.001Z</time></trkpt><trkpt lat="41.36074795414225" lon="-1.6107750509710332"><ele>541.0</ele><time>2026-05-03T15:44:35.001Z</time></trkpt><trkpt lat="41.36073685993106" lon="-1.6106300372867215"><ele>540.8</ele><time>2026-05-03T15:44:36.001Z</time></trkpt><trkpt lat="41.36072766644085" lon="-1.6104912724938947"><ele>540.6</ele><time>2026-05-03T15:44:37.001Z</time></trkpt><trkpt lat="41.36072130483556" lon="-1.6103570718575038"><ele>540.4</ele><time>2026-05-03T15:44:38.001Z</time></trkpt><trkpt lat="41.36071347331164" lon="-1.610221975194642"><ele>540.2</ele><time>2026-05-03T15:44:39.001Z</time></trkpt><trkpt lat="41.36071118864594" lon="-1.6100943271592099"><ele>540.0</ele><time>2026-05-03T15:44:40.001Z</time></trkpt><trkpt lat="41.36071384570644" lon="-1.6099631066444071"><ele>539.25</ele><time>2026-05-03T15:44:41.001Z</time></trkpt><trkpt lat="41.360721728606705" lon="-1.6098266720997945"><ele>538.5</ele><time>2026-05-03T15:44:42.001Z</time></trkpt><trkpt lat="41.36073665050694" lon="-1.609699328777072"><ele>537.75</ele><time>2026-05-03T15:44:43.001Z</time></trkpt><trkpt lat="41.360762917660814" lon="-1.609578534792055"><ele>537.0</ele><time>2026-05-03T15:44:44.001Z</time></trkpt><trkpt lat="41.36081918196468" lon="-1.6093507918893861"><ele>536.3333333333334</ele><time>2026-05-03T15:44:46.001Z</time></trkpt><trkpt lat="41.36083570566667" lon="-1.6092439586225393"><ele>535.6666666666666</ele><time>2026-05-03T15:44:47.001Z</time></trkpt><trkpt lat="41.36082498112624" lon="-1.6091415294166624"><ele>535.0</ele><time>2026-05-03T15:44:48.001Z</time></trkpt><trkpt lat="41.360784836897075" lon="-1.609048746550549"><ele>534.3333333333333</ele><time>2026-05-03T15:44:49.001Z</time></trkpt><trkpt lat="41.360728146097905" lon="-1.6089641419840217"><ele>533.6666666666666</ele><time>2026-05-03T15:44:50.001Z</time></trkpt><trkpt lat="41.36063549740102" lon="-1.6089091958200012"><ele>533.0</ele><time>2026-05-03T15:44:51.001Z</time></trkpt><trkpt lat="41.360593911317146" lon="-1.6088015994551972"><ele>533.0</ele><time>2026-05-03T15:44:52.001Z</time></trkpt><trkpt lat="41.36054255686875" lon="-1.6087047514876307"><ele>533.0</ele><time>2026-05-03T15:44:53.001Z</time></trkpt><trkpt lat="41.36050317900248" lon="-1.6085925943514572"><ele>533.0</ele><time>2026-05-03T15:44:54.001Z</time></trkpt><trkpt lat="41.36047654548271" lon="-1.6084723741310059"><ele>533.0</ele><time>2026-05-03T15:44:55.001Z</time></trkpt><trkpt lat="41.360450497279366" lon="-1.6083525247379815"><ele>533.0</ele><time>2026-05-03T15:44:56Z</time></trkpt><trkpt lat="41.36042675787532" lon="-1.6082244016026404"><ele>535.4</ele><time>2026-05-03T15:44:57Z</time></trkpt><trkpt lat="41.360403325665935" lon="-1.6081012036483158"><ele>537.8</ele><time>2026-05-03T15:44:58Z</time></trkpt><trkpt lat="41.36037570990107" lon="-1.6079830615749358"><ele>540.2</ele><time>2026-05-03T15:44:59Z</time></trkpt><trkpt lat="41.36034916211854" lon="-1.6078664791574302"><ele>542.6</ele><time>2026-05-03T15:45:00Z</time></trkpt><trkpt lat="41.36032153491417" lon="-1.6077450948616092"><ele>545.0</ele><time>2026-05-03T15:45:01Z</time></trkpt><trkpt lat="41.36028609635392" lon="-1.6076256750166686"><ele>545.0</ele><time>2026-05-03T15:45:02Z</time></trkpt><trkpt lat="41.360246058348274" lon="-1.607513224222398"><ele>545.0</ele><time>2026-05-03T15:45:03Z</time></trkpt><trkpt lat="41.360197319409515" lon="-1.6074044586240692"><ele>545.0</ele><time>2026-05-03T15:45:04Z</time></trkpt><trkpt lat="41.36015025333601" lon="-1.6072994759379955"><ele>545.0</ele><time>2026-05-03T15:45:05Z</time></trkpt><trkpt lat="41.36010117529448" lon="-1.6071936313241437"><ele>545.0</ele><time>2026-05-03T15:45:06Z</time></trkpt><trkpt lat="41.36004881580991" lon="-1.6070881433980195"><ele>543.2</ele><time>2026-05-03T15:45:07Z</time></trkpt><trkpt lat="41.35999718615261" lon="-1.6069773866872112"><ele>541.4</ele><time>2026-05-03T15:45:08Z</time></trkpt><trkpt lat="41.35994370907785" lon="-1.606867958167747"><ele>539.6</ele><time>2026-05-03T15:45:09Z</time></trkpt><trkpt lat="41.35988814834815" lon="-1.606755558614245"><ele>537.8</ele><time>2026-05-03T15:45:10Z</time></trkpt><trkpt lat="41.35983404012619" lon="-1.606643086192049"><ele>536.0</ele><time>2026-05-03T15:45:11Z</time></trkpt><trkpt lat="41.35978117611182" lon="-1.6065286929511151"><ele>536.0</ele><time>2026-05-03T15:45:12Z</time></trkpt><trkpt lat="41.3597241955219" lon="-1.6064173102114176"><ele>536.0</ele><time>2026-05-03T15:45:13Z</time></trkpt><trkpt lat="41.35966840741133" lon="-1.6063029501930026"><ele>536.0</ele><time>2026-05-03T15:45:14Z</time></trkpt><trkpt lat="41.35961235158477" lon="-1.6061874752305927"><ele>536.0</ele><time>2026-05-03T15:45:15Z</time></trkpt><trkpt lat="41.35955574151695" lon="-1.6060713340329222"><ele>536.0</ele><time>2026-05-03T15:45:16Z</time></trkpt><trkpt lat="41.359497535429554" lon="-1.605958554200914"><ele>537.2</ele><time>2026-05-03T15:45:17Z</time></trkpt><trkpt lat="41.35943756104692" lon="-1.605842256488598"><ele>538.4000000000001</ele><time>2026-05-03T15:45:18Z</time></trkpt><trkpt lat="41.35937553144058" lon="-1.6057329836952956"><ele>539.6</ele><time>2026-05-03T15:45:19Z</time></trkpt><trkpt lat="41.35930185578049" lon="-1.6056291078608806"><ele>540.8000000000001</ele><time>2026-05-03T15:45:20Z</time></trkpt><trkpt lat="41.35922178346175" lon="-1.6055351331388519"><ele>542.0</ele><time>2026-05-03T15:45:21Z</time></trkpt><trkpt lat="41.35913599687372" lon="-1.6054514621121374"><ele>542.0</ele><time>2026-05-03T15:45:22Z</time></trkpt><trkpt lat="41.35904538236811" lon="-1.6053754011797434"><ele>542.0</ele><time>2026-05-03T15:45:23Z</time></trkpt><trkpt lat="41.35895367992507" lon="-1.6053188095092832"><ele>542.0</ele><time>2026-05-03T15:45:24Z</time></trkpt><trkpt lat="41.35885843523442" lon="-1.6052635413438732"><ele>542.0</ele><time>2026-05-03T15:45:25Z</time></trkpt><trkpt lat="41.358765201677265" lon="-1.6052253492059407"><ele>542.0</ele><time>2026-05-03T15:45:26Z</time></trkpt><trkpt lat="41.358680170148084" lon="-1.6051636201640191"><ele>542.4</ele><time>2026-05-03T15:45:27Z</time></trkpt><trkpt lat="41.35858036546894" lon="-1.6051105057901272"><ele>542.8000000000001</ele><time>2026-05-03T15:45:28Z</time></trkpt><trkpt lat="41.358490745918296" lon="-1.6050547414465712"><ele>543.2</ele><time>2026-05-03T15:45:29Z</time></trkpt><trkpt lat="41.3583988630481" lon="-1.6050064008859564"><ele>543.6</ele><time>2026-05-03T15:45:30Z</time></trkpt><trkpt lat="41.358306159703595" lon="-1.604959789764686"><ele>544.0</ele><time>2026-05-03T15:45:31Z</time></trkpt><trkpt lat="41.358214937279094" lon="-1.604912322458016"><ele>544.0</ele><time>2026-05-03T15:45:32Z</time></trkpt><trkpt lat="41.35812481255386" lon="-1.6048611721616577"><ele>544.0</ele><time>2026-05-03T15:45:33Z</time></trkpt><trkpt lat="41.35803394752064" lon="-1.6048062654188662"><ele>544.0</ele><time>2026-05-03T15:45:34Z</time></trkpt><trkpt lat="41.35794822418016" lon="-1.6047485495545424"><ele>544.0</ele><time>2026-05-03T15:45:35Z</time></trkpt><trkpt lat="41.35786454304048" lon="-1.604687372996059"><ele>544.0</ele><time>2026-05-03T15:45:36Z</time></trkpt><trkpt lat="41.35778167941768" lon="-1.604618947416922"><ele>543.6</ele><time>2026-05-03T15:45:37Z</time></trkpt><trkpt lat="41.35770148502225" lon="-1.6045457471637523"><ele>543.2</ele><time>2026-05-03T15:45:38Z</time></trkpt><trkpt lat="41.35762638502463" lon="-1.6044691588051008"><ele>542.8000000000001</ele><time>2026-05-03T15:45:39Z</time></trkpt><trkpt lat="41.35755271263612" lon="-1.604385686526793"><ele>542.4</ele><time>2026-05-03T15:45:40Z</time></trkpt><trkpt lat="41.35748368923949" lon="-1.6042905951046171"><ele>542.0</ele><time>2026-05-03T15:45:41Z</time></trkpt><trkpt lat="41.357420397869504" lon="-1.6041960507706492"><ele>542.0</ele><time>2026-05-03T15:45:42Z</time></trkpt><trkpt lat="41.357354109323076" lon="-1.6040986607930279"><ele>542.0</ele><time>2026-05-03T15:45:43Z</time></trkpt><trkpt lat="41.35728441811948" lon="-1.604000901620019"><ele>542.0</ele><time>2026-05-03T15:45:44Z</time></trkpt><trkpt lat="41.35720353640458" lon="-1.603914333136983"><ele>542.0</ele><time>2026-05-03T15:45:45Z</time></trkpt><trkpt lat="41.35713561129095" lon="-1.6038151716185383"><ele>542.0</ele><time>2026-05-03T15:45:46Z</time></trkpt><trkpt lat="41.35707710389567" lon="-1.603696680225588"><ele>543.8000000000001</ele><time>2026-05-03T15:45:47Z</time></trkpt><trkpt lat="41.35700507612138" lon="-1.603594470651146"><ele>545.6</ele><time>2026-05-03T15:45:48Z</time></trkpt><trkpt lat="41.3569321764462" lon="-1.6034952344960451"><ele>547.4000000000001</ele><time>2026-05-03T15:45:49Z</time></trkpt><trkpt lat="41.35685932447563" lon="-1.6033962196969964"><ele>549.2</ele><time>2026-05-03T15:45:50Z</time></trkpt><trkpt lat="41.356787302156256" lon="-1.6033048044592644"><ele>551.0</ele><time>2026-05-03T15:45:51Z</time></trkpt><trkpt lat="41.356710612196835" lon="-1.6032136161853519"><ele>551.0</ele><time>2026-05-03T15:45:52Z</time></trkpt><trkpt lat="41.35662235726187" lon="-1.6031499024619027"><ele>551.0</ele><time>2026-05-03T15:45:53Z</time></trkpt><trkpt lat="41.35654453386573" lon="-1.6030794226408376"><ele>551.0</ele><time>2026-05-03T15:45:54Z</time></trkpt><trkpt lat="41.356461156860654" lon="-1.6030057185081419"><ele>551.0</ele><time>2026-05-03T15:45:55Z</time></trkpt><trkpt lat="41.356379761745" lon="-1.6029337663453498"><ele>551.0</ele><time>2026-05-03T15:45:56Z</time></trkpt><trkpt lat="41.35630080775269" lon="-1.6028639722927578"><ele>551.6</ele><time>2026-05-03T15:45:57Z</time></trkpt><trkpt lat="41.35621791802348" lon="-1.6027893799652226"><ele>552.2</ele><time>2026-05-03T15:45:58Z</time></trkpt><trkpt lat="41.35614948025421" lon="-1.6027037827885755"><ele>552.8</ele><time>2026-05-03T15:45:59Z</time></trkpt><trkpt lat="41.35606840884593" lon="-1.6026372637439021"><ele>553.4</ele><time>2026-05-03T15:46:00Z</time></trkpt><trkpt lat="41.355988018386064" lon="-1.602558100964881"><ele>554.0</ele><time>2026-05-03T15:46:01Z</time></trkpt><trkpt lat="41.35591107996706" lon="-1.6024848796485573"><ele>554.0</ele><time>2026-05-03T15:46:02Z</time></trkpt><trkpt lat="41.35583104928104" lon="-1.6024067589790747"><ele>554.0</ele><time>2026-05-03T15:46:03Z</time></trkpt><trkpt lat="41.355748761917475" lon="-1.6023290972662325"><ele>554.0</ele><time>2026-05-03T15:46:04Z</time></trkpt><trkpt lat="41.35566647025932" lon="-1.6022510451201837"><ele>554.0</ele><time>2026-05-03T15:46:05Z</time></trkpt><trkpt lat="41.35557912955244" lon="-1.6021715474133573"><ele>554.0</ele><time>2026-05-03T15:46:06Z</time></trkpt><trkpt lat="41.35550067118795" lon="-1.6020827848900865"><ele>554.8</ele><time>2026-05-03T15:46:07Z</time></trkpt><trkpt lat="41.355419622317385" lon="-1.6019933199462713"><ele>555.5999999999999</ele><time>2026-05-03T15:46:08.001Z</time></trkpt><trkpt lat="41.355341456101954" lon="-1.6018990419693748"><ele>556.4</ele><time>2026-05-03T15:46:09.001Z</time></trkpt><trkpt lat="41.355271292465666" lon="-1.6017998562539004"><ele>557.1999999999999</ele><time>2026-05-03T15:46:10.001Z</time></trkpt><trkpt lat="41.3552037062698" lon="-1.601693669061382"><ele>558.0</ele><time>2026-05-03T15:46:11.001Z</time></trkpt><trkpt lat="41.3551450389465" lon="-1.601580289690277"><ele>558.0</ele><time>2026-05-03T15:46:12.001Z</time></trkpt><trkpt lat="41.355095054533464" lon="-1.6014567260838357"><ele>558.0</ele><time>2026-05-03T15:46:13.001Z</time></trkpt><trkpt lat="41.35505843915674" lon="-1.6013288533630579"><ele>558.0</ele><time>2026-05-03T15:46:14.001Z</time></trkpt><trkpt lat="41.355028567923384" lon="-1.601193907105856"><ele>558.0</ele><time>2026-05-03T15:46:15.001Z</time></trkpt><trkpt lat="41.35499757784004" lon="-1.601057452170491"><ele>558.0</ele><time>2026-05-03T15:46:16.001Z</time></trkpt><trkpt lat="41.35494977413495" lon="-1.60092581344461"><ele>556.6</ele><time>2026-05-03T15:46:17.001Z</time></trkpt><trkpt lat="41.35488285472921" lon="-1.60081876689226"><ele>555.1999999999999</ele><time>2026-05-03T15:46:18.001Z</time></trkpt><trkpt lat="41.354833123500406" lon="-1.600697861780764"><ele>553.8</ele><time>2026-05-03T15:46:19.001Z</time></trkpt><trkpt lat="41.35474549968519" lon="-1.6006123694699044"><ele>552.4</ele><time>2026-05-03T15:46:20.001Z</time></trkpt><trkpt lat="41.354681863157985" lon="-1.6005017882464285"><ele>551.0</ele><time>2026-05-03T15:46:21.001Z</time></trkpt><trkpt lat="41.35460397360176" lon="-1.600406128640994"><ele>553.6</ele><time>2026-05-03T15:46:22.001Z</time></trkpt><trkpt lat="41.354526457783834" lon="-1.6003116116603846"><ele>556.2</ele><time>2026-05-03T15:46:23.001Z</time></trkpt><trkpt lat="41.35445509968529" lon="-1.600206210166444"><ele>558.8</ele><time>2026-05-03T15:46:24.001Z</time></trkpt><trkpt lat="41.35439494220149" lon="-1.6000889014779367"><ele>561.4</ele><time>2026-05-03T15:46:25.001Z</time></trkpt><trkpt lat="41.354341138166994" lon="-1.5999674878545516"><ele>564.0</ele><time>2026-05-03T15:46:26.001Z</time></trkpt><trkpt lat="41.35429409949857" lon="-1.5998399728709596"><ele>564.0</ele><time>2026-05-03T15:46:27.001Z</time></trkpt><trkpt lat="41.35425011990019" lon="-1.5997110130361083"><ele>564.0</ele><time>2026-05-03T15:46:28.001Z</time></trkpt><trkpt lat="41.35420671407182" lon="-1.5995821141055924"><ele>564.0</ele><time>2026-05-03T15:46:29.001Z</time></trkpt><trkpt lat="41.35416235124251" lon="-1.5994526445085382"><ele>564.0</ele><time>2026-05-03T15:46:30.001Z</time></trkpt><trkpt lat="41.35411689042367" lon="-1.5993247868284681"><ele>564.0</ele><time>2026-05-03T15:46:31.001Z</time></trkpt><trkpt lat="41.35407367502728" lon="-1.5991938755119706"><ele>563.8</ele><time>2026-05-03T15:46:32.001Z</time></trkpt><trkpt lat="41.35401164546784" lon="-1.599072474039786"><ele>563.5999999999999</ele><time>2026-05-03T15:46:33.001Z</time></trkpt><trkpt lat="41.35397014468806" lon="-1.5989409611868244"><ele>563.4</ele><time>2026-05-03T15:46:34.001Z</time></trkpt><trkpt lat="41.35388515428207" lon="-1.5988488173731141"><ele>563.1999999999999</ele><time>2026-05-03T15:46:35.001Z</time></trkpt><trkpt lat="41.353806931489885" lon="-1.5987527622224766"><ele>563.0</ele><time>2026-05-03T15:46:36.001Z</time></trkpt><trkpt lat="41.353730053853994" lon="-1.5986521176993835"><ele>563.0</ele><time>2026-05-03T15:46:37.001Z</time></trkpt><trkpt lat="41.353667368755744" lon="-1.5985376904523008"><ele>563.0</ele><time>2026-05-03T15:46:38.001Z</time></trkpt><trkpt lat="41.35358913640309" lon="-1.5984447373860065"><ele>563.0</ele><time>2026-05-03T15:46:39.001Z</time></trkpt><trkpt lat="41.35351813419255" lon="-1.5983452798996742"><ele>563.0</ele><time>2026-05-03T15:46:40.001Z</time></trkpt><trkpt lat="41.35344574751205" lon="-1.5982475277021408"><ele>563.0</ele><time>2026-05-03T15:46:41.001Z</time></trkpt><trkpt lat="41.35337357717401" lon="-1.5981448131754623"><ele>563.0</ele><time>2026-05-03T15:46:42.001Z</time></trkpt><trkpt lat="41.35330060822922" lon="-1.5980425256862107"><ele>563.0</ele><time>2026-05-03T15:46:43.001Z</time></trkpt><trkpt lat="41.353226179719776" lon="-1.5979489643782914"><ele>563.0</ele><time>2026-05-03T15:46:44.001Z</time></trkpt><trkpt lat="41.35315453636217" lon="-1.5978454169686203"><ele>563.0</ele><time>2026-05-03T15:46:45.001Z</time></trkpt><trkpt lat="41.35308008731247" lon="-1.5977482723984007"><ele>563.0</ele><time>2026-05-03T15:46:46.001Z</time></trkpt><trkpt lat="41.35300753601098" lon="-1.597650051761509"><ele>563.6</ele><time>2026-05-03T15:46:47.001Z</time></trkpt><trkpt lat="41.35293783099174" lon="-1.5975457992590236"><ele>564.1999999999999</ele><time>2026-05-03T15:46:48.001Z</time></trkpt><trkpt lat="41.3528724233456" lon="-1.5974377039448593"><ele>564.8</ele><time>2026-05-03T15:46:49.001Z</time></trkpt><trkpt lat="41.35280782335067" lon="-1.597325709114612"><ele>565.4</ele><time>2026-05-03T15:46:50.001Z</time></trkpt><trkpt lat="41.352745452923145" lon="-1.5972123175638495"><ele>566.0</ele><time>2026-05-03T15:46:51.001Z</time></trkpt><trkpt lat="41.352682226032044" lon="-1.5970979439904185"><ele>563.8</ele><time>2026-05-03T15:46:52.001Z</time></trkpt><trkpt lat="41.35262032117998" lon="-1.5969854175180425"><ele>561.6</ele><time>2026-05-03T15:46:53.001Z</time></trkpt><trkpt lat="41.35255854339976" lon="-1.596871752160093"><ele>559.4</ele><time>2026-05-03T15:46:54.001Z</time></trkpt><trkpt lat="41.35250055973353" lon="-1.5967532309446495"><ele>557.2</ele><time>2026-05-03T15:46:55.001Z</time></trkpt><trkpt lat="41.352446443562215" lon="-1.5966337331244138"><ele>555.0</ele><time>2026-05-03T15:46:56.001Z</time></trkpt><trkpt lat="41.352395311866594" lon="-1.5965087038052266"><ele>555.0</ele><time>2026-05-03T15:46:57.001Z</time></trkpt><trkpt lat="41.352346904891014" lon="-1.596386035459348"><ele>555.0</ele><time>2026-05-03T15:46:58.001Z</time></trkpt><trkpt lat="41.35229534672721" lon="-1.596259693045952"><ele>555.0</ele><time>2026-05-03T15:46:59.001Z</time></trkpt><trkpt lat="41.35224987860767" lon="-1.5961376131761944"><ele>555.0</ele><time>2026-05-03T15:47:00.001Z</time></trkpt><trkpt lat="41.35220396185958" lon="-1.5960126295838946"><ele>555.0</ele><time>2026-05-03T15:47:01.001Z</time></trkpt><trkpt lat="41.352158822480504" lon="-1.5958892080383842"><ele>557.0</ele><time>2026-05-03T15:47:02Z</time></trkpt><trkpt lat="41.352114031841445" lon="-1.595767567449299"><ele>559.0</ele><time>2026-05-03T15:47:03Z</time></trkpt><trkpt lat="41.35207415235745" lon="-1.595643411815026"><ele>561.0</ele><time>2026-05-03T15:47:04Z</time></trkpt><trkpt lat="41.35203344749127" lon="-1.5955194904168293"><ele>563.0</ele><time>2026-05-03T15:47:05Z</time></trkpt><trkpt lat="41.35199534748662" lon="-1.5953981266374164"><ele>565.0</ele><time>2026-05-03T15:47:06Z</time></trkpt><trkpt lat="41.35195584357006" lon="-1.5952791250908598"><ele>565.0</ele><time>2026-05-03T15:47:07Z</time></trkpt><trkpt lat="41.3519118531865" lon="-1.5951580202882605"><ele>565.0</ele><time>2026-05-03T15:47:08Z</time></trkpt><trkpt lat="41.3518711335696" lon="-1.5950422359696164"><ele>565.0</ele><time>2026-05-03T15:47:09Z</time></trkpt><trkpt lat="41.35183165387562" lon="-1.5949246738605063"><ele>565.0</ele><time>2026-05-03T15:47:10Z</time></trkpt><trkpt lat="41.351792009101366" lon="-1.594803737565126"><ele>565.0</ele><time>2026-05-03T15:47:11Z</time></trkpt><trkpt lat="41.351754089903814" lon="-1.5946864036007764"><ele>565.0</ele><time>2026-05-03T15:47:12Z</time></trkpt><trkpt lat="41.351713615732955" lon="-1.5945663693659513"><ele>565.0</ele><time>2026-05-03T15:47:13Z</time></trkpt><trkpt lat="41.3516738459133" lon="-1.5944453239626417"><ele>565.0</ele><time>2026-05-03T15:47:14Z</time></trkpt><trkpt lat="41.35163654268388" lon="-1.5943264155440988"><ele>565.0</ele><time>2026-05-03T15:47:15Z</time></trkpt><trkpt lat="41.35159849027705" lon="-1.5942035074214156"><ele>565.0</ele><time>2026-05-03T15:47:16Z</time></trkpt><trkpt lat="41.35155511853549" lon="-1.594079641874429"><ele>565.6</ele><time>2026-05-03T15:47:17Z</time></trkpt><trkpt lat="41.35151051312376" lon="-1.5939533472520397"><ele>566.2</ele><time>2026-05-03T15:47:18Z</time></trkpt><trkpt lat="41.35146448888173" lon="-1.5938317872064676"><ele>566.8</ele><time>2026-05-03T15:47:19Z</time></trkpt><trkpt lat="41.35142285053761" lon="-1.5937081808003148"><ele>567.4</ele><time>2026-05-03T15:47:20Z</time></trkpt><trkpt lat="41.351380232814435" lon="-1.593580253271886"><ele>568.0</ele><time>2026-05-03T15:47:21Z</time></trkpt><trkpt lat="41.35133714737533" lon="-1.593452432680424"><ele>568.0</ele><time>2026-05-03T15:47:22Z</time></trkpt><trkpt lat="41.35129482859018" lon="-1.5933264245650403"><ele>568.0</ele><time>2026-05-03T15:47:23Z</time></trkpt><trkpt lat="41.35125272137445" lon="-1.5931974724456315"><ele>568.0</ele><time>2026-05-03T15:47:24Z</time></trkpt><trkpt lat="41.35121160440601" lon="-1.5930656360110091"><ele>568.0</ele><time>2026-05-03T15:47:25Z</time></trkpt><trkpt lat="41.35116967288822" lon="-1.5929361383073957"><ele>568.0</ele><time>2026-05-03T15:47:26Z</time></trkpt><trkpt lat="41.351126929090064" lon="-1.5928015802619486"><ele>568.1999999999999</ele><time>2026-05-03T15:47:27Z</time></trkpt><trkpt lat="41.35108838161719" lon="-1.5926672098509065"><ele>568.4</ele><time>2026-05-03T15:47:28Z</time></trkpt><trkpt lat="41.35105185893429" lon="-1.5925330119800587"><ele>568.5999999999999</ele><time>2026-05-03T15:47:29Z</time></trkpt><trkpt lat="41.35101946758848" lon="-1.5924045799793416"><ele>568.8</ele><time>2026-05-03T15:47:30Z</time></trkpt><trkpt lat="41.35097978925642" lon="-1.5922812975951326"><ele>569.0</ele><time>2026-05-03T15:47:31Z</time></trkpt><trkpt lat="41.35095837950358" lon="-1.5921181404789106"><ele>567.8</ele><time>2026-05-03T15:47:32Z</time></trkpt><trkpt lat="41.35092815378903" lon="-1.5919821068655982"><ele>566.5999999999999</ele><time>2026-05-03T15:47:33Z</time></trkpt><trkpt lat="41.350896633532436" lon="-1.5918438311053353"><ele>565.4</ele><time>2026-05-03T15:47:34Z</time></trkpt><trkpt lat="41.350863163787515" lon="-1.5917077247916878"><ele>564.1999999999999</ele><time>2026-05-03T15:47:35Z</time></trkpt><trkpt lat="41.350827142172825" lon="-1.591573942818091"><ele>563.0</ele><time>2026-05-03T15:47:36Z</time></trkpt><trkpt lat="41.35078974820303" lon="-1.5914389459675549"><ele>563.0</ele><time>2026-05-03T15:47:37Z</time></trkpt><trkpt lat="41.35074702421544" lon="-1.591305662221625"><ele>563.0</ele><time>2026-05-03T15:47:38Z</time></trkpt><trkpt lat="41.35070084386811" lon="-1.5911740680325288"><ele>563.0</ele><time>2026-05-03T15:47:39Z</time></trkpt><trkpt lat="41.3506517321873" lon="-1.5910414927154646"><ele>563.0</ele><time>2026-05-03T15:47:40Z</time></trkpt><trkpt lat="41.3505956598128" lon="-1.5909092309321264"><ele>563.0</ele><time>2026-05-03T15:47:41Z</time></trkpt><trkpt lat="41.350535194280184" lon="-1.5907888569712885"><ele>564.25</ele><time>2026-05-03T15:47:42Z</time></trkpt><trkpt lat="41.3504630855003" lon="-1.5906702868173357"><ele>565.5</ele><time>2026-05-03T15:47:43Z</time></trkpt><trkpt lat="41.35038655532875" lon="-1.5905669295921088"><ele>566.75</ele><time>2026-05-03T15:47:44Z</time></trkpt><trkpt lat="41.35030846825793" lon="-1.5904613656366455"><ele>568.0</ele><time>2026-05-03T15:47:45Z</time></trkpt><trkpt lat="41.35022757985541" lon="-1.5903528266415274"><ele>567.4</ele><time>2026-05-03T15:47:46Z</time></trkpt><trkpt lat="41.35014842045278" lon="-1.5902496974193707"><ele>566.8</ele><time>2026-05-03T15:47:47Z</time></trkpt><trkpt lat="41.3500661293245" lon="-1.5901463778490366"><ele>566.2</ele><time>2026-05-03T15:47:48Z</time></trkpt><trkpt lat="41.349985569842744" lon="-1.5900472872858713"><ele>565.6</ele><time>2026-05-03T15:47:49Z</time></trkpt><trkpt lat="41.3499046993319" lon="-1.5899471012287187"><ele>565.0</ele><time>2026-05-03T15:47:50Z</time></trkpt><trkpt lat="41.34982667129283" lon="-1.589848660731285"><ele>565.0</ele><time>2026-05-03T15:47:51Z</time></trkpt><trkpt lat="41.34974776974186" lon="-1.5897467434462136"><ele>565.0</ele><time>2026-05-03T15:47:52Z</time></trkpt><trkpt lat="41.34966727613822" lon="-1.5896475439229474"><ele>565.0</ele><time>2026-05-03T15:47:53Z</time></trkpt><trkpt lat="41.34945366054444" lon="-1.5893118751212199"><ele>568.0</ele><time>2026-05-03T15:47:56Z</time></trkpt><trkpt lat="41.34938987902506" lon="-1.5891917745705042"><ele>571.0</ele><time>2026-05-03T15:47:57Z</time></trkpt><trkpt lat="41.3493289610812" lon="-1.5890747694099068"><ele>574.0</ele><time>2026-05-03T15:47:58Z</time></trkpt><trkpt lat="41.349265291108324" lon="-1.588960087577109"><ele>577.0</ele><time>2026-05-03T15:47:59Z</time></trkpt><trkpt lat="41.349180207225714" lon="-1.588872366370183"><ele>580.0</ele><time>2026-05-03T15:48:00Z</time></trkpt><trkpt lat="41.349106145080505" lon="-1.58877236486148"><ele>580.0</ele><time>2026-05-03T15:48:01Z</time></trkpt><trkpt lat="41.34903062001582" lon="-1.5886832432758258"><ele>580.0</ele><time>2026-05-03T15:48:02Z</time></trkpt><trkpt lat="41.34894875125955" lon="-1.5885998336018348"><ele>580.0</ele><time>2026-05-03T15:48:03Z</time></trkpt><trkpt lat="41.34887247633086" lon="-1.5885111929293245"><ele>580.0</ele><time>2026-05-03T15:48:04Z</time></trkpt><trkpt lat="41.34879475406513" lon="-1.5884151138911682"><ele>580.0</ele><time>2026-05-03T15:48:05Z</time></trkpt><trkpt lat="41.34872182469075" lon="-1.5883147137174265"><ele>581.2</ele><time>2026-05-03T15:48:06Z</time></trkpt><trkpt lat="41.34864988690132" lon="-1.588219193998892"><ele>582.4</ele><time>2026-05-03T15:48:07.001Z</time></trkpt><trkpt lat="41.34857860802468" lon="-1.5881152724875554"><ele>583.6</ele><time>2026-05-03T15:48:08.001Z</time></trkpt><trkpt lat="41.34850436504374" lon="-1.588014273164067"><ele>584.8</ele><time>2026-05-03T15:48:09.001Z</time></trkpt><trkpt lat="41.348437842899216" lon="-1.5879047718945944"><ele>586.0</ele><time>2026-05-03T15:48:10.001Z</time></trkpt><trkpt lat="41.348364902236845" lon="-1.5878051295835935"><ele>582.6</ele><time>2026-05-03T15:48:11.001Z</time></trkpt><trkpt lat="41.34829487183248" lon="-1.5877072608127998"><ele>579.2</ele><time>2026-05-03T15:48:12.001Z</time></trkpt><trkpt lat="41.34822331611013" lon="-1.5876014545576715"><ele>575.8</ele><time>2026-05-03T15:48:13.001Z</time></trkpt><trkpt lat="41.34816850249165" lon="-1.587480704741001"><ele>572.4</ele><time>2026-05-03T15:48:14.001Z</time></trkpt><trkpt lat="41.34812539927842" lon="-1.587340952084425"><ele>569.0</ele><time>2026-05-03T15:48:15.001Z</time></trkpt><trkpt lat="41.348096624758895" lon="-1.587192788365749"><ele>569.0</ele><time>2026-05-03T15:48:16.001Z</time></trkpt><trkpt lat="41.34806265280541" lon="-1.5870431190076784"><ele>569.0</ele><time>2026-05-03T15:48:17.001Z</time></trkpt><trkpt lat="41.348033595763994" lon="-1.5868826041911617"><ele>569.0</ele><time>2026-05-03T15:48:18.001Z</time></trkpt><trkpt lat="41.347996595506764" lon="-1.5867348828098706"><ele>569.0</ele><time>2026-05-03T15:48:19.001Z</time></trkpt><trkpt lat="41.34795826393172" lon="-1.58658898109464"><ele>568.5</ele><time>2026-05-03T15:48:20.001Z</time></trkpt><trkpt lat="41.34789715035034" lon="-1.5864664665814616"><ele>568.0</ele><time>2026-05-03T15:48:21.001Z</time></trkpt><trkpt lat="41.34785066671002" lon="-1.5863258260638464"><ele>567.5</ele><time>2026-05-03T15:48:22.001Z</time></trkpt><trkpt lat="41.347766605540166" lon="-1.586229373130748"><ele>567.0</ele><time>2026-05-03T15:48:23.001Z</time></trkpt><trkpt lat="41.34770577426999" lon="-1.586099406923981"><ele>567.0</ele><time>2026-05-03T15:48:24.001Z</time></trkpt><trkpt lat="41.347634262784275" lon="-1.5859911290561355"><ele>567.0</ele><time>2026-05-03T15:48:25.001Z</time></trkpt><trkpt lat="41.34757292433228" lon="-1.5858848353219517"><ele>567.0</ele><time>2026-05-03T15:48:26.001Z</time></trkpt><trkpt lat="41.34750884834772" lon="-1.5857741130861298"><ele>567.0</ele><time>2026-05-03T15:48:27.001Z</time></trkpt><trkpt lat="41.347438764493056" lon="-1.585664200402384"><ele>567.0</ele><time>2026-05-03T15:48:28.001Z</time></trkpt><trkpt lat="41.34737597320496" lon="-1.585547563247751"><ele>567.0</ele><time>2026-05-03T15:48:29.001Z</time></trkpt><trkpt lat="41.34730737602189" lon="-1.5854377301091398"><ele>567.0</ele><time>2026-05-03T15:48:30.001Z</time></trkpt><trkpt lat="41.34723888632565" lon="-1.5853289687397054"><ele>567.0</ele><time>2026-05-03T15:48:31.001Z</time></trkpt><trkpt lat="41.34717291001748" lon="-1.5852151177772287"><ele>567.0</ele><time>2026-05-03T15:48:32.001Z</time></trkpt><trkpt lat="41.34710378909706" lon="-1.5850985059504759"><ele>567.0</ele><time>2026-05-03T15:48:33.001Z</time></trkpt><trkpt lat="41.34703769457439" lon="-1.5850011618349245"><ele>567.4</ele><time>2026-05-03T15:48:34.001Z</time></trkpt><trkpt lat="41.34699770784427" lon="-1.584933442637318"><ele>567.8000000000001</ele><time>2026-05-03T15:48:35.001Z</time></trkpt><trkpt lat="41.346960729742584" lon="-1.5848534824497107"><ele>568.2</ele><time>2026-05-03T15:48:36.001Z</time></trkpt><trkpt lat="41.34685470097598" lon="-1.584704352525786"><ele>568.6</ele><time>2026-05-03T15:48:37.001Z</time></trkpt><trkpt lat="41.34676786254345" lon="-1.5845378301958033"><ele>569.0</ele><time>2026-05-03T15:48:38.001Z</time></trkpt><trkpt lat="41.34667458336837" lon="-1.5843777259150027"><ele>569.0</ele><time>2026-05-03T15:48:39.001Z</time></trkpt><trkpt lat="41.34662636260216" lon="-1.5843031809511885"><ele>569.0</ele><time>2026-05-03T15:48:40.001Z</time></trkpt><trkpt lat="41.34655467957309" lon="-1.584170862295416"><ele>569.0</ele><time>2026-05-03T15:48:41.001Z</time></trkpt><trkpt lat="41.34649678660879" lon="-1.584046536219684"><ele>569.0</ele><time>2026-05-03T15:48:42.001Z</time></trkpt><trkpt lat="41.34645384584002" lon="-1.5839316604344158"><ele>569.0</ele><time>2026-05-03T15:48:43.001Z</time></trkpt><trkpt lat="41.346431187152135" lon="-1.5838384157044612"><ele>569.0</ele><time>2026-05-03T15:48:44.001Z</time></trkpt><trkpt lat="41.34641545026108" lon="-1.5837533417626355"><ele>569.0</ele><time>2026-05-03T15:48:45.001Z</time></trkpt><trkpt lat="41.34634012580583" lon="-1.583510659909309"><ele>569.0</ele><time>2026-05-03T15:48:46.001Z</time></trkpt><trkpt lat="41.34630830088437" lon="-1.5833645862324972"><ele>569.0</ele><time>2026-05-03T15:48:47.001Z</time></trkpt><trkpt lat="41.34627668506533" lon="-1.5832226212314062"><ele>569.6</ele><time>2026-05-03T15:48:48.001Z</time></trkpt><trkpt lat="41.346245753656994" lon="-1.5830819006588768"><ele>570.2</ele><time>2026-05-03T15:48:49.001Z</time></trkpt><trkpt lat="41.346210684054206" lon="-1.5829426279989969"><ele>570.8000000000001</ele><time>2026-05-03T15:48:50.001Z</time></trkpt><trkpt lat="41.34617815713955" lon="-1.5828084169563104"><ele>571.4</ele><time>2026-05-03T15:48:51.001Z</time></trkpt><trkpt lat="41.346144731810256" lon="-1.5826719989661915"><ele>572.0</ele><time>2026-05-03T15:48:52.001Z</time></trkpt><trkpt lat="41.34611307286181" lon="-1.582539935623972"><ele>572.0</ele><time>2026-05-03T15:48:53.001Z</time></trkpt><trkpt lat="41.346080124452136" lon="-1.5824100857503"><ele>572.0</ele><time>2026-05-03T15:48:54.001Z</time></trkpt><trkpt lat="41.34604840612957" lon="-1.5822787111757488"><ele>572.0</ele><time>2026-05-03T15:48:55.001Z</time></trkpt><trkpt lat="41.34601436300299" lon="-1.5821440611547504"><ele>572.0</ele><time>2026-05-03T15:48:56.001Z</time></trkpt><trkpt lat="41.34598084922552" lon="-1.5820049513148318"><ele>572.0</ele><time>2026-05-03T15:48:57.001Z</time></trkpt><trkpt lat="41.34594562167138" lon="-1.5818629567371307"><ele>571.5</ele><time>2026-05-03T15:48:58.001Z</time></trkpt><trkpt lat="41.34591037827383" lon="-1.5817179077808956"><ele>571.0</ele><time>2026-05-03T15:48:59.001Z</time></trkpt><trkpt lat="41.34587617094601" lon="-1.5815743588468056"><ele>570.5</ele><time>2026-05-03T15:49:00.001Z</time></trkpt><trkpt lat="41.34583955156374" lon="-1.5814308790076033"><ele>570.0</ele><time>2026-05-03T15:49:01.001Z</time></trkpt><trkpt lat="41.345803650129845" lon="-1.5812870593343973"><ele>570.0</ele><time>2026-05-03T15:49:02.001Z</time></trkpt><trkpt lat="41.345768949553566" lon="-1.5811451689302654"><ele>570.0</ele><time>2026-05-03T15:49:03.001Z</time></trkpt><trkpt lat="41.345734399725785" lon="-1.5810012727239713"><ele>570.0</ele><time>2026-05-03T15:49:04.001Z</time></trkpt><trkpt lat="41.34569989209953" lon="-1.5808618850817655"><ele>570.0</ele><time>2026-05-03T15:49:05.001Z</time></trkpt><trkpt lat="41.3456673020391" lon="-1.5807245090869182"><ele>570.0</ele><time>2026-05-03T15:49:06.001Z</time></trkpt><trkpt lat="41.34563362052563" lon="-1.5805846009493834"><ele>570.0</ele><time>2026-05-03T15:49:07.001Z</time></trkpt><trkpt lat="41.34560189904944" lon="-1.5804481198058462"><ele>570.0</ele><time>2026-05-03T15:49:08Z</time></trkpt><trkpt lat="41.345568967653" lon="-1.5803084996903154"><ele>570.0</ele><time>2026-05-03T15:49:09Z</time></trkpt><trkpt lat="41.34553717863837" lon="-1.580170531733709"><ele>570.0</ele><time>2026-05-03T15:49:10Z</time></trkpt><trkpt lat="41.3455000036561" lon="-1.5800270233496758"><ele>570.0</ele><time>2026-05-03T15:49:11Z</time></trkpt><trkpt lat="41.34546883072183" lon="-1.5798880100190895"><ele>570.2</ele><time>2026-05-03T15:49:12Z</time></trkpt><trkpt lat="41.34543393856241" lon="-1.5797494227324116"><ele>570.4</ele><time>2026-05-03T15:49:13Z</time></trkpt><trkpt lat="41.34539966767705" lon="-1.5796126141260045"><ele>570.6</ele><time>2026-05-03T15:49:14Z</time></trkpt><trkpt lat="41.34536571538716" lon="-1.579472524820146"><ele>570.8</ele><time>2026-05-03T15:49:15Z</time></trkpt><trkpt lat="41.345331505881454" lon="-1.5793345477887357"><ele>571.0</ele><time>2026-05-03T15:49:16Z</time></trkpt><trkpt lat="41.34529909870577" lon="-1.5791951833871358"><ele>571.0</ele><time>2026-05-03T15:49:17Z</time></trkpt><trkpt lat="41.34526502088113" lon="-1.5790565433577268"><ele>571.0</ele><time>2026-05-03T15:49:18Z</time></trkpt><trkpt lat="41.34523164110197" lon="-1.5789202974137078"><ele>571.0</ele><time>2026-05-03T15:49:19Z</time></trkpt><trkpt lat="41.34519832010813" lon="-1.5787813376943132"><ele>571.0</ele><time>2026-05-03T15:49:20Z</time></trkpt><trkpt lat="41.345164549290345" lon="-1.5786423371709237"><ele>571.0</ele><time>2026-05-03T15:49:21Z</time></trkpt><trkpt lat="41.345130454294825" lon="-1.578506560428266"><ele>571.2</ele><time>2026-05-03T15:49:22Z</time></trkpt><trkpt lat="41.3450968267555" lon="-1.5783689036316308"><ele>571.4000000000001</ele><time>2026-05-03T15:49:23Z</time></trkpt><trkpt lat="41.34506474637548" lon="-1.5782314019822374"><ele>571.6</ele><time>2026-05-03T15:49:24Z</time></trkpt><trkpt lat="41.345032030549575" lon="-1.5780952038841503"><ele>571.8000000000001</ele><time>2026-05-03T15:49:25Z</time></trkpt><trkpt lat="41.344997024693775" lon="-1.577958884024224"><ele>572.0</ele><time>2026-05-03T15:49:26Z</time></trkpt><trkpt lat="41.344963292287" lon="-1.5778225078565633"><ele>572.2</ele><time>2026-05-03T15:49:27Z</time></trkpt><trkpt lat="41.344931006771525" lon="-1.5776882961794383"><ele>572.4000000000001</ele><time>2026-05-03T15:49:28Z</time></trkpt><trkpt lat="41.344896751738766" lon="-1.5775526749230717"><ele>572.5999999999999</ele><time>2026-05-03T15:49:29Z</time></trkpt><trkpt lat="41.34486252457723" lon="-1.5774252608355546"><ele>572.8</ele><time>2026-05-03T15:49:30Z</time></trkpt><trkpt lat="41.3448313868291" lon="-1.577294384224393"><ele>573.0</ele><time>2026-05-03T15:49:31Z</time></trkpt><trkpt lat="41.34480174321493" lon="-1.5771636550485533"><ele>573.0</ele><time>2026-05-03T15:49:32Z</time></trkpt><trkpt lat="41.34476856662371" lon="-1.577033255413528"><ele>573.0</ele><time>2026-05-03T15:49:33Z</time></trkpt><trkpt lat="41.344734302928" lon="-1.5768980161018236"><ele>573.0</ele><time>2026-05-03T15:49:34Z</time></trkpt><trkpt lat="41.344701102979094" lon="-1.5767603356775828"><ele>573.0</ele><time>2026-05-03T15:49:35Z</time></trkpt><trkpt lat="41.34466727519377" lon="-1.576620412921169"><ele>573.0</ele><time>2026-05-03T15:49:36Z</time></trkpt><trkpt lat="41.34463183590516" lon="-1.5764813125194743"><ele>573.4</ele><time>2026-05-03T15:49:37Z</time></trkpt><trkpt lat="41.34460157219415" lon="-1.5763455087541032"><ele>573.8</ele><time>2026-05-03T15:49:38Z</time></trkpt><trkpt lat="41.3445682370357" lon="-1.576202270843233"><ele>574.2</ele><time>2026-05-03T15:49:39Z</time></trkpt><trkpt lat="41.344538043002274" lon="-1.5760727621835993"><ele>574.6</ele><time>2026-05-03T15:49:40Z</time></trkpt><trkpt lat="41.344501030982855" lon="-1.5759241354913307"><ele>575.0</ele><time>2026-05-03T15:49:41Z</time></trkpt><trkpt lat="41.34446367898183" lon="-1.575796624306895"><ele>575.2</ele><time>2026-05-03T15:49:42Z</time></trkpt><trkpt lat="41.34443090964525" lon="-1.5756558513987329"><ele>575.4</ele><time>2026-05-03T15:49:43Z</time></trkpt><trkpt lat="41.34439476396677" lon="-1.5755224521092732"><ele>575.6</ele><time>2026-05-03T15:49:44Z</time></trkpt><trkpt lat="41.34436533006604" lon="-1.5753841559478117"><ele>575.8</ele><time>2026-05-03T15:49:45Z</time></trkpt><trkpt lat="41.34433622815038" lon="-1.5752472514526592"><ele>576.0</ele><time>2026-05-03T15:49:46Z</time></trkpt><trkpt lat="41.344305851251924" lon="-1.5751086792137856"><ele>576.2</ele><time>2026-05-03T15:49:47Z</time></trkpt><trkpt lat="41.3442690203915" lon="-1.5749738162549372"><ele>576.4000000000001</ele><time>2026-05-03T15:49:48Z</time></trkpt><trkpt lat="41.344235422600775" lon="-1.574837746262024"><ele>576.6</ele><time>2026-05-03T15:49:49Z</time></trkpt><trkpt lat="41.34420366604642" lon="-1.5747000456993168"><ele>576.8000000000001</ele><time>2026-05-03T15:49:50Z</time></trkpt><trkpt lat="41.34417289948633" lon="-1.5745628912104888"><ele>577.0</ele><time>2026-05-03T15:49:51Z</time></trkpt><trkpt lat="41.34413850426199" lon="-1.574426523540586"><ele>577.2</ele><time>2026-05-03T15:49:52Z</time></trkpt><trkpt lat="41.34410665654587" lon="-1.5742921486901773"><ele>577.4000000000001</ele><time>2026-05-03T15:49:53Z</time></trkpt><trkpt lat="41.344072889051" lon="-1.5741602582736234"><ele>577.5999999999999</ele><time>2026-05-03T15:49:54Z</time></trkpt><trkpt lat="41.344039529979895" lon="-1.574026345143004"><ele>577.8</ele><time>2026-05-03T15:49:55Z</time></trkpt><trkpt lat="41.3440088440847" lon="-1.5738910776051247"><ele>578.0</ele><time>2026-05-03T15:49:56Z</time></trkpt><trkpt lat="41.3439762970983" lon="-1.5737587989140938"><ele>578.0</ele><time>2026-05-03T15:49:57Z</time></trkpt><trkpt lat="41.343945641459655" lon="-1.5736236453818673"><ele>578.0</ele><time>2026-05-03T15:49:58Z</time></trkpt><trkpt lat="41.3439092325673" lon="-1.5734938954936137"><ele>578.0</ele><time>2026-05-03T15:49:59Z</time></trkpt><trkpt lat="41.34387977334417" lon="-1.5733632602392236"><ele>578.0</ele><time>2026-05-03T15:50:00Z</time></trkpt><trkpt lat="41.34384922052601" lon="-1.5732322542947677"><ele>578.0</ele><time>2026-05-03T15:50:01Z</time></trkpt><trkpt lat="41.34381998724132" lon="-1.5731019935057675"><ele>578.6</ele><time>2026-05-03T15:50:02Z</time></trkpt><trkpt lat="41.343785591684906" lon="-1.5729741630369418"><ele>579.1999999999999</ele><time>2026-05-03T15:50:03Z</time></trkpt><trkpt lat="41.34375405360866" lon="-1.5728465867064803"><ele>579.8</ele><time>2026-05-03T15:50:04Z</time></trkpt><trkpt lat="41.34372387357492" lon="-1.5727153358575248"><ele>580.4</ele><time>2026-05-03T15:50:05Z</time></trkpt><trkpt lat="41.34369061535342" lon="-1.5725843730195563"><ele>581.0</ele><time>2026-05-03T15:50:06Z</time></trkpt><trkpt lat="41.34365902876024" lon="-1.572449282578113"><ele>581.0</ele><time>2026-05-03T15:50:07Z</time></trkpt><trkpt lat="41.343624149082224" lon="-1.5723135610562191"><ele>581.0</ele><time>2026-05-03T15:50:08Z</time></trkpt><trkpt lat="41.34358839903611" lon="-1.5721776759095873"><ele>581.0</ele><time>2026-05-03T15:50:09.001Z</time></trkpt><trkpt lat="41.34355391420452" lon="-1.572034705630542"><ele>581.0</ele><time>2026-05-03T15:50:10.001Z</time></trkpt><trkpt lat="41.3435259295456" lon="-1.5718911318640658"><ele>581.0</ele><time>2026-05-03T15:50:11.001Z</time></trkpt><trkpt lat="41.34346588395034" lon="-1.5717114859770094"><ele>581.0</ele><time>2026-05-03T15:50:12.001Z</time></trkpt><trkpt lat="41.343426715746574" lon="-1.5715522860826066"><ele>581.0</ele><time>2026-05-03T15:50:13.001Z</time></trkpt><trkpt lat="41.34342115750207" lon="-1.5714661137059118"><ele>581.0</ele><time>2026-05-03T15:50:14.001Z</time></trkpt><trkpt lat="41.34334932060815" lon="-1.5713883019096044"><ele>581.0</ele><time>2026-05-03T15:50:15.001Z</time></trkpt><trkpt lat="41.34331152891942" lon="-1.5712628761604526"><ele>581.0</ele><time>2026-05-03T15:50:16.001Z</time></trkpt><trkpt lat="41.34331444756878" lon="-1.5710573341096776"><ele>581.0</ele><time>2026-05-03T15:50:17.001Z</time></trkpt><trkpt lat="41.34328164532467" lon="-1.5709206900813997"><ele>581.0</ele><time>2026-05-03T15:50:18.001Z</time></trkpt><trkpt lat="41.343248484472134" lon="-1.5707800255655318"><ele>581.0</ele><time>2026-05-03T15:50:19.001Z</time></trkpt><trkpt lat="41.343214922779474" lon="-1.5706424981251281"><ele>581.0</ele><time>2026-05-03T15:50:20.001Z</time></trkpt><trkpt lat="41.343182420010635" lon="-1.5705090922783056"><ele>581.0</ele><time>2026-05-03T15:50:21.001Z</time></trkpt><trkpt lat="41.34314468063552" lon="-1.570375838859367"><ele>581.2</ele><time>2026-05-03T15:50:22.001Z</time></trkpt><trkpt lat="41.343116248793976" lon="-1.570241693008009"><ele>581.4000000000001</ele><time>2026-05-03T15:50:23.001Z</time></trkpt><trkpt lat="41.343087199593526" lon="-1.5701102385422137"><ele>581.6</ele><time>2026-05-03T15:50:24.001Z</time></trkpt><trkpt lat="41.34305215925678" lon="-1.5699756044131543"><ele>581.8000000000001</ele><time>2026-05-03T15:50:25.001Z</time></trkpt><trkpt lat="41.34302058497617" lon="-1.5698400484671484"><ele>582.0</ele><time>2026-05-03T15:50:26.001Z</time></trkpt><trkpt lat="41.34298522236326" lon="-1.5697102176600566"><ele>583.4</ele><time>2026-05-03T15:50:27.001Z</time></trkpt><trkpt lat="41.34295553245262" lon="-1.5695751742035298"><ele>584.8000000000001</ele><time>2026-05-03T15:50:28.001Z</time></trkpt><trkpt lat="41.34292463761001" lon="-1.569440378034834"><ele>586.2</ele><time>2026-05-03T15:50:29.001Z</time></trkpt><trkpt lat="41.34288750799758" lon="-1.5693053428919637"><ele>587.6</ele><time>2026-05-03T15:50:30.001Z</time></trkpt><trkpt lat="41.34285806983438" lon="-1.5691711940166038"><ele>589.0</ele><time>2026-05-03T15:50:31.001Z</time></trkpt><trkpt lat="41.34282739846457" lon="-1.569032085317471"><ele>589.2</ele><time>2026-05-03T15:50:32.001Z</time></trkpt><trkpt lat="41.34279223874516" lon="-1.5688950048474448"><ele>589.4</ele><time>2026-05-03T15:50:33.001Z</time></trkpt><trkpt lat="41.342764341632076" lon="-1.5687646970050597"><ele>589.6</ele><time>2026-05-03T15:50:34.001Z</time></trkpt><trkpt lat="41.342733661742066" lon="-1.5686327946008396"><ele>589.8</ele><time>2026-05-03T15:50:35.001Z</time></trkpt><trkpt lat="41.342702480279925" lon="-1.5684983024126407"><ele>590.0</ele><time>2026-05-03T15:50:36.001Z</time></trkpt><trkpt lat="41.34267217829196" lon="-1.5683668338600183"><ele>590.0</ele><time>2026-05-03T15:50:37.001Z</time></trkpt><trkpt lat="41.342641031745565" lon="-1.568232690406173"><ele>590.0</ele><time>2026-05-03T15:50:38.001Z</time></trkpt><trkpt lat="41.342608027502145" lon="-1.5680998516189963"><ele>590.0</ele><time>2026-05-03T15:50:39.001Z</time></trkpt><trkpt lat="41.34257713285047" lon="-1.5679683974445215"><ele>590.0</ele><time>2026-05-03T15:50:40.001Z</time></trkpt><trkpt lat="41.34254628886421" lon="-1.5678364981010149"><ele>590.0</ele><time>2026-05-03T15:50:41.001Z</time></trkpt><trkpt lat="41.3425125461391" lon="-1.5677041542798544"><ele>589.8</ele><time>2026-05-03T15:50:42.001Z</time></trkpt><trkpt lat="41.34248095688047" lon="-1.5675737237859548"><ele>589.6</ele><time>2026-05-03T15:50:43.001Z</time></trkpt><trkpt lat="41.34244951659783" lon="-1.56744176814079"><ele>589.4</ele><time>2026-05-03T15:50:44.001Z</time></trkpt><trkpt lat="41.342419866246324" lon="-1.567315012104141"><ele>589.2</ele><time>2026-05-03T15:50:45.001Z</time></trkpt><trkpt lat="41.342384154941094" lon="-1.5671920471025755"><ele>589.0</ele><time>2026-05-03T15:50:46.001Z</time></trkpt><trkpt lat="41.342330859312874" lon="-1.5670811764442323"><ele>589.0</ele><time>2026-05-03T15:50:47.001Z</time></trkpt><trkpt lat="41.34225940740779" lon="-1.5669871099218096"><ele>589.0</ele><time>2026-05-03T15:50:48.001Z</time></trkpt><trkpt lat="41.342164366331744" lon="-1.5669349480521138"><ele>589.0</ele><time>2026-05-03T15:50:49.001Z</time></trkpt><trkpt lat="41.34208348885704" lon="-1.5668704177558446"><ele>589.0</ele><time>2026-05-03T15:50:50.001Z</time></trkpt><trkpt lat="41.34198874164722" lon="-1.566838024623812"><ele>589.0</ele><time>2026-05-03T15:50:51.001Z</time></trkpt><trkpt lat="41.34189872196426" lon="-1.5668021706052584"><ele>589.6</ele><time>2026-05-03T15:50:52.001Z</time></trkpt><trkpt lat="41.34180985887305" lon="-1.5667568716120035"><ele>590.2</ele><time>2026-05-03T15:50:53.001Z</time></trkpt><trkpt lat="41.34172321323262" lon="-1.5667229648709358"><ele>590.8000000000001</ele><time>2026-05-03T15:50:54.001Z</time></trkpt><trkpt lat="41.341630628736574" lon="-1.5666848619290714"><ele>591.4</ele><time>2026-05-03T15:50:55.001Z</time></trkpt><trkpt lat="41.341540071522836" lon="-1.566646296539919"><ele>592.0</ele><time>2026-05-03T15:50:56.001Z</time></trkpt><trkpt lat="41.34144143559891" lon="-1.5666228216093376"><ele>592.2</ele><time>2026-05-03T15:50:57.001Z</time></trkpt><trkpt lat="41.34134076421021" lon="-1.5666252164657248"><ele>592.4000000000001</ele><time>2026-05-03T15:50:58.001Z</time></trkpt><trkpt lat="41.34123701268448" lon="-1.5666603265810217"><ele>592.5999999999999</ele><time>2026-05-03T15:50:59.001Z</time></trkpt><trkpt lat="41.34114175261347" lon="-1.5666898863237386"><ele>592.8</ele><time>2026-05-03T15:51:00.001Z</time></trkpt><trkpt lat="41.341035761041674" lon="-1.5667041729293911"><ele>593.0</ele><time>2026-05-03T15:51:01.001Z</time></trkpt><trkpt lat="41.34093708456241" lon="-1.5667412382340338"><ele>593.0</ele><time>2026-05-03T15:51:02.001Z</time></trkpt><trkpt lat="41.340832133397626" lon="-1.5667780911537164"><ele>593.0</ele><time>2026-05-03T15:51:03.001Z</time></trkpt><trkpt lat="41.340731878964874" lon="-1.5668109221253548"><ele>593.0</ele><time>2026-05-03T15:51:04.001Z</time></trkpt><trkpt lat="41.34062805251177" lon="-1.566842610048295"><ele>593.0</ele><time>2026-05-03T15:51:05.001Z</time></trkpt><trkpt lat="41.34052402462236" lon="-1.5668784938763898"><ele>593.0</ele><time>2026-05-03T15:51:06.001Z</time></trkpt><trkpt lat="41.34042313150038" lon="-1.5669130631754467"><ele>592.6</ele><time>2026-05-03T15:51:07.001Z</time></trkpt><trkpt lat="41.34031947826521" lon="-1.566945542554031"><ele>592.1999999999999</ele><time>2026-05-03T15:51:08.001Z</time></trkpt><trkpt lat="41.34021435100173" lon="-1.566976665332139"><ele>591.8</ele><time>2026-05-03T15:51:09.001Z</time></trkpt><trkpt lat="41.340115439163704" lon="-1.566999736054157"><ele>591.4</ele><time>2026-05-03T15:51:10.001Z</time></trkpt><trkpt lat="41.340012919110045" lon="-1.5670387182878038"><ele>591.0</ele><time>2026-05-03T15:51:11.001Z</time></trkpt><trkpt lat="41.339906303323545" lon="-1.567017608580149"><ele>591.0</ele><time>2026-05-03T15:51:12.001Z</time></trkpt><trkpt lat="41.33980462413098" lon="-1.566997964853674"><ele>591.0</ele><time>2026-05-03T15:51:13.001Z</time></trkpt><trkpt lat="41.339712694874216" lon="-1.5669507968946799"><ele>591.0</ele><time>2026-05-03T15:51:14Z</time></trkpt><trkpt lat="41.33962202602071" lon="-1.5668802128416264"><ele>591.0</ele><time>2026-05-03T15:51:15Z</time></trkpt><trkpt lat="41.339537681073054" lon="-1.5668169888637373"><ele>591.0</ele><time>2026-05-03T15:51:16Z</time></trkpt><trkpt lat="41.339454738779" lon="-1.5667476250728287"><ele>592.2</ele><time>2026-05-03T15:51:17Z</time></trkpt><trkpt lat="41.33937799248514" lon="-1.566666137058081"><ele>593.4000000000001</ele><time>2026-05-03T15:51:18Z</time></trkpt><trkpt lat="41.339299331843314" lon="-1.5665879988173985"><ele>594.6</ele><time>2026-05-03T15:51:19Z</time></trkpt><trkpt lat="41.33921091647393" lon="-1.5665232111071279"><ele>595.8000000000001</ele><time>2026-05-03T15:51:20Z</time></trkpt><trkpt lat="41.339117833468286" lon="-1.566467246907548"><ele>597.0</ele><time>2026-05-03T15:51:21Z</time></trkpt><trkpt lat="41.339018851673494" lon="-1.5664197481868083"><ele>597.0</ele><time>2026-05-03T15:51:22Z</time></trkpt><trkpt lat="41.338917373445575" lon="-1.566382078920364"><ele>597.0</ele><time>2026-05-03T15:51:23Z</time></trkpt><trkpt lat="41.338815290908414" lon="-1.5663466407149176"><ele>597.0</ele><time>2026-05-03T15:51:24Z</time></trkpt><trkpt lat="41.33871315061877" lon="-1.566310523020143"><ele>597.0</ele><time>2026-05-03T15:51:25Z</time></trkpt><trkpt lat="41.338614373351376" lon="-1.5662677665023612"><ele>597.0</ele><time>2026-05-03T15:51:26Z</time></trkpt><trkpt lat="41.33851121369094" lon="-1.5662138105791288"><ele>595.8000000000001</ele><time>2026-05-03T15:51:27Z</time></trkpt><trkpt lat="41.338419444854175" lon="-1.5661463101020914"><ele>594.6</ele><time>2026-05-03T15:51:28Z</time></trkpt><trkpt lat="41.33832937651093" lon="-1.5660678268913302"><ele>593.4000000000001</ele><time>2026-05-03T15:51:29Z</time></trkpt><trkpt lat="41.3382436087781" lon="-1.5659834406503204"><ele>592.2</ele><time>2026-05-03T15:51:30Z</time></trkpt><trkpt lat="41.338155734651195" lon="-1.5658953924362153"><ele>591.0</ele><time>2026-05-03T15:51:31Z</time></trkpt><trkpt lat="41.3380722341941" lon="-1.5658084319209356"><ele>592.0</ele><time>2026-05-03T15:51:32Z</time></trkpt><trkpt lat="41.337988114096056" lon="-1.56571341318552"><ele>593.0</ele><time>2026-05-03T15:51:33Z</time></trkpt><trkpt lat="41.337891176093386" lon="-1.5656284854935512"><ele>594.0</ele><time>2026-05-03T15:51:34Z</time></trkpt><trkpt lat="41.337803621001" lon="-1.5655482916405905"><ele>595.0</ele><time>2026-05-03T15:51:35Z</time></trkpt><trkpt lat="41.33771044171865" lon="-1.5654532016875713"><ele>594.4</ele><time>2026-05-03T15:51:36Z</time></trkpt><trkpt lat="41.337585481020376" lon="-1.5653373284253584"><ele>593.8</ele><time>2026-05-03T15:51:37Z</time></trkpt><trkpt lat="41.337525986570654" lon="-1.5653063434188512"><ele>593.2</ele><time>2026-05-03T15:51:38Z</time></trkpt><trkpt lat="41.337446744981136" lon="-1.5652240966331066"><ele>592.6</ele><time>2026-05-03T15:51:39Z</time></trkpt><trkpt lat="41.337361177946704" lon="-1.565136781711462"><ele>592.0</ele><time>2026-05-03T15:51:40Z</time></trkpt><trkpt lat="41.33728051979154" lon="-1.5650422105213857"><ele>592.8000000000001</ele><time>2026-05-03T15:51:41Z</time></trkpt><trkpt lat="41.33720201304837" lon="-1.5649480822695976"><ele>593.6</ele><time>2026-05-03T15:51:42Z</time></trkpt><trkpt lat="41.33712422439795" lon="-1.5648587519409416"><ele>594.4000000000001</ele><time>2026-05-03T15:51:43Z</time></trkpt><trkpt lat="41.33704606237942" lon="-1.564774796202299"><ele>595.2</ele><time>2026-05-03T15:51:44Z</time></trkpt><trkpt lat="41.336974986281945" lon="-1.5646768205923471"><ele>596.0</ele><time>2026-05-03T15:51:45Z</time></trkpt><trkpt lat="41.33690175876766" lon="-1.5645739105900964"><ele>595.6</ele><time>2026-05-03T15:51:46Z</time></trkpt><trkpt lat="41.33683089623263" lon="-1.564469342094196"><ele>595.2</ele><time>2026-05-03T15:51:47Z</time></trkpt><trkpt lat="41.33675893450799" lon="-1.5643621497583187"><ele>594.8</ele><time>2026-05-03T15:51:48Z</time></trkpt><trkpt lat="41.33668505714106" lon="-1.5642540374653051"><ele>594.4</ele><time>2026-05-03T15:51:49Z</time></trkpt><trkpt lat="41.33661816972491" lon="-1.5641470419206152"><ele>594.0</ele><time>2026-05-03T15:51:50Z</time></trkpt><trkpt lat="41.33654770378514" lon="-1.5640415054085866"><ele>594.0</ele><time>2026-05-03T15:51:51Z</time></trkpt><trkpt lat="41.33647882105127" lon="-1.5639400119452735"><ele>594.0</ele><time>2026-05-03T15:51:52Z</time></trkpt><trkpt lat="41.336413913166794" lon="-1.5638299758721697"><ele>594.0</ele><time>2026-05-03T15:51:53Z</time></trkpt><trkpt lat="41.33634981146098" lon="-1.5637206553715184"><ele>594.0</ele><time>2026-05-03T15:51:54Z</time></trkpt><trkpt lat="41.33628622195943" lon="-1.5636124314093054"><ele>594.0</ele><time>2026-05-03T15:51:55Z</time></trkpt><trkpt lat="41.33623009476665" lon="-1.563503662618116"><ele>594.8</ele><time>2026-05-03T15:51:56Z</time></trkpt><trkpt lat="41.33618247073519" lon="-1.5633926400777214"><ele>595.5999999999999</ele><time>2026-05-03T15:51:57Z</time></trkpt><trkpt lat="41.336138105457245" lon="-1.5632803543277367"><ele>596.4</ele><time>2026-05-03T15:51:58Z</time></trkpt><trkpt lat="41.33609695204367" lon="-1.5631640157973101"><ele>597.1999999999999</ele><time>2026-05-03T15:51:59Z</time></trkpt><trkpt lat="41.33605502866992" lon="-1.5630533628680001"><ele>598.0</ele><time>2026-05-03T15:52:00Z</time></trkpt><trkpt lat="41.33601053712982" lon="-1.5629452626090605"><ele>597.8333333333334</ele><time>2026-05-03T15:52:01Z</time></trkpt><trkpt lat="41.335964821987794" lon="-1.562828308407684"><ele>597.6666666666667</ele><time>2026-05-03T15:52:02Z</time></trkpt><trkpt lat="41.335923711814594" lon="-1.5627285151794026"><ele>597.5</ele><time>2026-05-03T15:52:03Z</time></trkpt><trkpt lat="41.33588480129014" lon="-1.5626368855737163"><ele>597.3333333333334</ele><time>2026-05-03T15:52:04Z</time></trkpt><trkpt lat="41.335843749430296" lon="-1.5625515047345984"><ele>597.1666666666666</ele><time>2026-05-03T15:52:05Z</time></trkpt><trkpt lat="41.335804588135176" lon="-1.5624640382353325"><ele>597.0</ele><time>2026-05-03T15:52:06Z</time></trkpt><trkpt lat="41.335777655990476" lon="-1.562377221243836"><ele>597.0</ele><time>2026-05-03T15:52:07.001Z</time></trkpt><trkpt lat="41.33573611569297" lon="-1.5622996630693913"><ele>597.0</ele><time>2026-05-03T15:52:08.001Z</time></trkpt><trkpt lat="41.33569290090332" lon="-1.562208114557761"><ele>597.0</ele><time>2026-05-03T15:52:09.001Z</time></trkpt><trkpt lat="41.335651769386196" lon="-1.562118864961051"><ele>597.0</ele><time>2026-05-03T15:52:10.001Z</time></trkpt><trkpt lat="41.33561380850183" lon="-1.5620233053115942"><ele>597.0</ele><time>2026-05-03T15:52:11.001Z</time></trkpt><trkpt lat="41.3355723066542" lon="-1.561926986716979"><ele>597.0</ele><time>2026-05-03T15:52:12.001Z</time></trkpt><trkpt lat="41.33552835134904" lon="-1.5618299006883605"><ele>598.0</ele><time>2026-05-03T15:52:13.001Z</time></trkpt><trkpt lat="41.335487044217196" lon="-1.561735288414304"><ele>599.0</ele><time>2026-05-03T15:52:14.001Z</time></trkpt><trkpt lat="41.33544620860121" lon="-1.5616355349391136"><ele>600.0</ele><time>2026-05-03T15:52:15.001Z</time></trkpt><trkpt lat="41.33540214867472" lon="-1.5615346356138178"><ele>601.0</ele><time>2026-05-03T15:52:16.001Z</time></trkpt><trkpt lat="41.33536157262897" lon="-1.5614323873560196"><ele>602.0</ele><time>2026-05-03T15:52:17.001Z</time></trkpt><trkpt lat="41.33532421734679" lon="-1.5613274133252353"><ele>603.0</ele><time>2026-05-03T15:52:18.001Z</time></trkpt><trkpt lat="41.33528285704126" lon="-1.5612245729904346"><ele>601.8</ele><time>2026-05-03T15:52:19.001Z</time></trkpt><trkpt lat="41.33522322104679" lon="-1.5611338323426136"><ele>600.5999999999999</ele><time>2026-05-03T15:52:20.001Z</time></trkpt><trkpt lat="41.335180368389416" lon="-1.5610200128072946"><ele>599.4000000000001</ele><time>2026-05-03T15:52:21.001Z</time></trkpt><trkpt lat="41.335102848895495" lon="-1.5609601785876732"><ele>598.2</ele><time>2026-05-03T15:52:22.001Z</time></trkpt><trkpt lat="41.33501235426887" lon="-1.5609491067895063"><ele>597.0</ele><time>2026-05-03T15:52:23.001Z</time></trkpt><trkpt lat="41.33493151503789" lon="-1.5610030173010412"><ele>597.0</ele><time>2026-05-03T15:52:24.001Z</time></trkpt><trkpt lat="41.334846385353224" lon="-1.5610111889283507"><ele>597.0</ele><time>2026-05-03T15:52:25.001Z</time></trkpt><trkpt lat="41.334768785695324" lon="-1.5610525395178019"><ele>597.0</ele><time>2026-05-03T15:52:26.001Z</time></trkpt><trkpt lat="41.334680266671356" lon="-1.5610655058436889"><ele>597.0</ele><time>2026-05-03T15:52:27.001Z</time></trkpt><trkpt lat="41.33458719335946" lon="-1.5610737182566035"><ele>597.0</ele><time>2026-05-03T15:52:28.001Z</time></trkpt><trkpt lat="41.33449490730555" lon="-1.561057432834903"><ele>597.0</ele><time>2026-05-03T15:52:29.001Z</time></trkpt><trkpt lat="41.334402554332165" lon="-1.5609991673303019"><ele>599.6</ele><time>2026-05-03T15:52:30.001Z</time></trkpt><trkpt lat="41.33432540383466" lon="-1.5609358157018476"><ele>602.2</ele><time>2026-05-03T15:52:31.001Z</time></trkpt><trkpt lat="41.33426374574637" lon="-1.5608381846859278"><ele>604.8</ele><time>2026-05-03T15:52:32.001Z</time></trkpt><trkpt lat="41.334204322938206" lon="-1.560732234471336"><ele>607.4</ele><time>2026-05-03T15:52:33.001Z</time></trkpt><trkpt lat="41.334144765999326" lon="-1.5606386933531367"><ele>610.0</ele><time>2026-05-03T15:52:34.001Z</time></trkpt><trkpt lat="41.33411881906573" lon="-1.5605276003962312"><ele>610.0</ele><time>2026-05-03T15:52:35.001Z</time></trkpt><trkpt lat="41.33407146366139" lon="-1.560419944326687"><ele>610.0</ele><time>2026-05-03T15:52:36.001Z</time></trkpt><trkpt lat="41.33404989892036" lon="-1.5602895771899554"><ele>610.0</ele><time>2026-05-03T15:52:37.001Z</time></trkpt><trkpt lat="41.33402866790798" lon="-1.5601616999350716"><ele>610.0</ele><time>2026-05-03T15:52:38.001Z</time></trkpt><trkpt lat="41.33398545924166" lon="-1.5600392092308646"><ele>610.0</ele><time>2026-05-03T15:52:39.001Z</time></trkpt><trkpt lat="41.333971855842044" lon="-1.5599117604507318"><ele>608.2</ele><time>2026-05-03T15:52:40.001Z</time></trkpt><trkpt lat="41.333931320709006" lon="-1.5597851370211189"><ele>606.4</ele><time>2026-05-03T15:52:41.001Z</time></trkpt><trkpt lat="41.333906042350876" lon="-1.5596665055749743"><ele>604.6</ele><time>2026-05-03T15:52:42.001Z</time></trkpt><trkpt lat="41.33389076082974" lon="-1.5595410728559822"><ele>602.8</ele><time>2026-05-03T15:52:43.001Z</time></trkpt><trkpt lat="41.33386712846968" lon="-1.5594161504129047"><ele>601.0</ele><time>2026-05-03T15:52:44.001Z</time></trkpt><trkpt lat="41.33384440924468" lon="-1.5592909648417443"><ele>607.0</ele><time>2026-05-03T15:52:45.001Z</time></trkpt><trkpt lat="41.33383441405373" lon="-1.5591619535113033"><ele>613.0</ele><time>2026-05-03T15:52:46.001Z</time></trkpt><trkpt lat="41.33382971987936" lon="-1.5590365770911552"><ele>619.0</ele><time>2026-05-03T15:52:47.001Z</time></trkpt><trkpt lat="41.33382578764394" lon="-1.5589096473437085"><ele>625.0</ele><time>2026-05-03T15:52:48.001Z</time></trkpt><trkpt lat="41.33382569694316" lon="-1.5587786206375818"><ele>631.0</ele><time>2026-05-03T15:52:49.001Z</time></trkpt><trkpt lat="41.33382676797047" lon="-1.558651573038369"><ele>631.0</ele><time>2026-05-03T15:52:50.001Z</time></trkpt><trkpt lat="41.33382133668997" lon="-1.5585197334073309"><ele>631.0</ele><time>2026-05-03T15:52:51.001Z</time></trkpt><trkpt lat="41.333812614488615" lon="-1.5583923766384997"><ele>631.0</ele><time>2026-05-03T15:52:52.001Z</time></trkpt><trkpt lat="41.333810465362966" lon="-1.5582627498214503"><ele>631.0</ele><time>2026-05-03T15:52:53.001Z</time></trkpt><trkpt lat="41.33380921088384" lon="-1.5581320899663893"><ele>631.0</ele><time>2026-05-03T15:52:54.001Z</time></trkpt><trkpt lat="41.333801827999864" lon="-1.5580022670789726"><ele>631.0</ele><time>2026-05-03T15:52:55.001Z</time></trkpt><trkpt lat="41.333784154054484" lon="-1.557870226228975"><ele>631.0</ele><time>2026-05-03T15:52:56.001Z</time></trkpt><trkpt lat="41.33378476328499" lon="-1.5577453762846236"><ele>631.0</ele><time>2026-05-03T15:52:57.001Z</time></trkpt><trkpt lat="41.33376129560187" lon="-1.557621129166511"><ele>631.0</ele><time>2026-05-03T15:52:58.001Z</time></trkpt><trkpt lat="41.33373470084059" lon="-1.5574957518048311"><ele>631.0</ele><time>2026-05-03T15:52:59.001Z</time></trkpt><trkpt lat="41.33366847659119" lon="-1.5574008650882032"><ele>627.2</ele><time>2026-05-03T15:53:00.001Z</time></trkpt><trkpt lat="41.33360510051919" lon="-1.5573042432330653"><ele>623.4000000000001</ele><time>2026-05-03T15:53:01.001Z</time></trkpt><trkpt lat="41.333539158399205" lon="-1.5572113032033257"><ele>619.6</ele><time>2026-05-03T15:53:02.001Z</time></trkpt><trkpt lat="41.33347015815622" lon="-1.5571191837328682"><ele>615.8000000000001</ele><time>2026-05-03T15:53:03.001Z</time></trkpt><trkpt lat="41.33339838300912" lon="-1.557026022364062"><ele>612.0</ele><time>2026-05-03T15:53:04.001Z</time></trkpt><trkpt lat="41.33332809677869" lon="-1.5569277255225449"><ele>611.0</ele><time>2026-05-03T15:53:05.001Z</time></trkpt><trkpt lat="41.33325829799603" lon="-1.5568297467845889"><ele>610.0</ele><time>2026-05-03T15:53:06.001Z</time></trkpt><trkpt lat="41.33319098353151" lon="-1.5567334384482716"><ele>609.0</ele><time>2026-05-03T15:53:07.001Z</time></trkpt><trkpt lat="41.33312365569686" lon="-1.5566316782707739"><ele>608.0</ele><time>2026-05-03T15:53:08.001Z</time></trkpt><trkpt lat="41.33306070117788" lon="-1.5565230787479452"><ele>607.0</ele><time>2026-05-03T15:53:09.001Z</time></trkpt><trkpt lat="41.333007485371496" lon="-1.5564042149023578"><ele>610.2</ele><time>2026-05-03T15:53:10.001Z</time></trkpt><trkpt lat="41.33296584471423" lon="-1.5562799012292339"><ele>613.4000000000001</ele><time>2026-05-03T15:53:11.001Z</time></trkpt><trkpt lat="41.33292960011109" lon="-1.5561514628422823"><ele>616.5999999999999</ele><time>2026-05-03T15:53:12.001Z</time></trkpt><trkpt lat="41.33291214466165" lon="-1.5560109752712552"><ele>619.8</ele><time>2026-05-03T15:53:13.001Z</time></trkpt><trkpt lat="41.33286539192946" lon="-1.5558857194114102"><ele>623.0</ele><time>2026-05-03T15:53:14.001Z</time></trkpt><trkpt lat="41.332833158890345" lon="-1.555748528666174"><ele>623.0</ele><time>2026-05-03T15:53:15.001Z</time></trkpt><trkpt lat="41.332799916192435" lon="-1.5556136578736284"><ele>623.0</ele><time>2026-05-03T15:53:16.001Z</time></trkpt><trkpt lat="41.33276539715879" lon="-1.5554802612067227"><ele>623.0</ele><time>2026-05-03T15:53:17.001Z</time></trkpt><trkpt lat="41.33272511922387" lon="-1.5553481268472549"><ele>623.0</ele><time>2026-05-03T15:53:18.001Z</time></trkpt><trkpt lat="41.33267611035618" lon="-1.5552150827243743"><ele>623.0</ele><time>2026-05-03T15:53:19.001Z</time></trkpt><trkpt lat="41.33263975189914" lon="-1.5550845797648354"><ele>619.6</ele><time>2026-05-03T15:53:20Z</time></trkpt><trkpt lat="41.33256944724403" lon="-1.55497262531652"><ele>616.1999999999999</ele><time>2026-05-03T15:53:21Z</time></trkpt><trkpt lat="41.3325211853675" lon="-1.554838049151372"><ele>612.8</ele><time>2026-05-03T15:53:22Z</time></trkpt><trkpt lat="41.33245862659219" lon="-1.5547156347596702"><ele>609.4</ele><time>2026-05-03T15:53:23Z</time></trkpt><trkpt lat="41.332397948028316" lon="-1.554595398669975"><ele>606.0</ele><time>2026-05-03T15:53:24Z</time></trkpt><trkpt lat="41.33233933216047" lon="-1.5544761675567402"><ele>605.4</ele><time>2026-05-03T15:53:25Z</time></trkpt><trkpt lat="41.3322780653182" lon="-1.5543578723552718"><ele>604.8</ele><time>2026-05-03T15:53:26Z</time></trkpt><trkpt lat="41.33221917283488" lon="-1.554238724710396"><ele>604.1999999999999</ele><time>2026-05-03T15:53:27Z</time></trkpt><trkpt lat="41.332157393845726" lon="-1.5541220389523642"><ele>603.6</ele><time>2026-05-03T15:53:28Z</time></trkpt><trkpt lat="41.33209906127569" lon="-1.5540076502241518"><ele>603.0</ele><time>2026-05-03T15:53:29Z</time></trkpt><trkpt lat="41.3320391657074" lon="-1.553889490399605"><ele>603.8</ele><time>2026-05-03T15:53:30Z</time></trkpt><trkpt lat="41.33198194761872" lon="-1.5537752277950532"><ele>604.5999999999999</ele><time>2026-05-03T15:53:31Z</time></trkpt><trkpt lat="41.33192676563051" lon="-1.553663440167757"><ele>605.4000000000001</ele><time>2026-05-03T15:53:32Z</time></trkpt><trkpt lat="41.33186872369044" lon="-1.5535507238278108"><ele>606.2</ele><time>2026-05-03T15:53:33Z</time></trkpt><trkpt lat="41.331811789700424" lon="-1.5534399977752162"><ele>607.0</ele><time>2026-05-03T15:53:34Z</time></trkpt><trkpt lat="41.3317549389333" lon="-1.5533280623109909"><ele>607.0</ele><time>2026-05-03T15:53:35Z</time></trkpt><trkpt lat="41.33169933178039" lon="-1.5532207790144092"><ele>607.0</ele><time>2026-05-03T15:53:36Z</time></trkpt><trkpt lat="41.33164137808646" lon="-1.5531148665986754"><ele>607.0</ele><time>2026-05-03T15:53:37Z</time></trkpt><trkpt lat="41.33156509531481" lon="-1.553036524674917"><ele>607.0</ele><time>2026-05-03T15:53:38Z</time></trkpt><trkpt lat="41.331494961733625" lon="-1.5529491990946978"><ele>607.0</ele><time>2026-05-03T15:53:39Z</time></trkpt><trkpt lat="41.331435655438746" lon="-1.5528544795797572"><ele>608.4</ele><time>2026-05-03T15:53:40Z</time></trkpt><trkpt lat="41.33136373765602" lon="-1.5527720175448692"><ele>609.8000000000001</ele><time>2026-05-03T15:53:41Z</time></trkpt><trkpt lat="41.33129411421364" lon="-1.5526931765054164"><ele>611.2</ele><time>2026-05-03T15:53:42Z</time></trkpt><trkpt lat="41.331226486949085" lon="-1.5526155307623413"><ele>612.6</ele><time>2026-05-03T15:53:43Z</time></trkpt><trkpt lat="41.331160607252386" lon="-1.552535166933506"><ele>614.0</ele><time>2026-05-03T15:53:44Z</time></trkpt><trkpt lat="41.331087371658434" lon="-1.5524540458374447"><ele>614.0</ele><time>2026-05-03T15:53:45Z</time></trkpt><trkpt lat="41.331019438896476" lon="-1.5523702503316845"><ele>614.0</ele><time>2026-05-03T15:53:46Z</time></trkpt><trkpt lat="41.330937170247154" lon="-1.5523006695968034"><ele>614.0</ele><time>2026-05-03T15:53:47Z</time></trkpt><trkpt lat="41.33086882168504" lon="-1.5522005924688091"><ele>614.0</ele><time>2026-05-03T15:53:48Z</time></trkpt><trkpt lat="41.330789098662414" lon="-1.552115159096175"><ele>614.0</ele><time>2026-05-03T15:53:49Z</time></trkpt><trkpt lat="41.33070932403089" lon="-1.5520224904068887"><ele>614.4</ele><time>2026-05-03T15:53:50Z</time></trkpt><trkpt lat="41.33062744684895" lon="-1.5519366942430917"><ele>614.8</ele><time>2026-05-03T15:53:51Z</time></trkpt><trkpt lat="41.330544058801635" lon="-1.5518537958238172"><ele>615.2</ele><time>2026-05-03T15:53:52Z</time></trkpt><trkpt lat="41.33045973224091" lon="-1.5517644638835963"><ele>615.6</ele><time>2026-05-03T15:53:53Z</time></trkpt><trkpt lat="41.33037447700585" lon="-1.5516728395373445"><ele>616.0</ele><time>2026-05-03T15:53:54Z</time></trkpt><trkpt lat="41.33028972099243" lon="-1.5515844802399759"><ele>616.0</ele><time>2026-05-03T15:53:55Z</time></trkpt><trkpt lat="41.33020140056289" lon="-1.551495690292858"><ele>616.0</ele><time>2026-05-03T15:53:56Z</time></trkpt><trkpt lat="41.33011460096094" lon="-1.5514209730178798"><ele>616.0</ele><time>2026-05-03T15:53:57Z</time></trkpt><trkpt lat="41.33002630987821" lon="-1.5513323933130123"><ele>616.0</ele><time>2026-05-03T15:53:58Z</time></trkpt><trkpt lat="41.3299369634927" lon="-1.5512492343288289"><ele>616.0</ele><time>2026-05-03T15:53:59Z</time></trkpt><trkpt lat="41.3298484330015" lon="-1.5511634878356968"><ele>616.6</ele><time>2026-05-03T15:54:00Z</time></trkpt><trkpt lat="41.32976191348449" lon="-1.5510845297082763"><ele>617.2</ele><time>2026-05-03T15:54:01Z</time></trkpt><trkpt lat="41.32967782681101" lon="-1.5510015412460016"><ele>617.8</ele><time>2026-05-03T15:54:02Z</time></trkpt><trkpt lat="41.329595030238835" lon="-1.5509188060680348"><ele>618.4</ele><time>2026-05-03T15:54:03Z</time></trkpt><trkpt lat="41.329510623617665" lon="-1.550843610306577"><ele>619.0</ele><time>2026-05-03T15:54:04Z</time></trkpt><trkpt lat="41.329430483024495" lon="-1.5507661726761652"><ele>619.0</ele><time>2026-05-03T15:54:05Z</time></trkpt><trkpt lat="41.32934766129875" lon="-1.5506917195549152"><ele>619.0</ele><time>2026-05-03T15:54:06Z</time></trkpt><trkpt lat="41.32928150822782" lon="-1.5505964466269848"><ele>619.0</ele><time>2026-05-03T15:54:07Z</time></trkpt><trkpt lat="41.32921168886786" lon="-1.5505054227676995"><ele>619.0</ele><time>2026-05-03T15:54:08Z</time></trkpt><trkpt lat="41.329146485810966" lon="-1.5504127831956251"><ele>619.0</ele><time>2026-05-03T15:54:09Z</time></trkpt><trkpt lat="41.329084504742845" lon="-1.5503204099677939"><ele>620.0</ele><time>2026-05-03T15:54:10Z</time></trkpt><trkpt lat="41.329021165069456" lon="-1.5502269146060892"><ele>621.0</ele><time>2026-05-03T15:54:11Z</time></trkpt><trkpt lat="41.32895822767556" lon="-1.550128619033773"><ele>622.0</ele><time>2026-05-03T15:54:12.001Z</time></trkpt><trkpt lat="41.328898469335876" lon="-1.550035114426065"><ele>623.0</ele><time>2026-05-03T15:54:13.001Z</time></trkpt><trkpt lat="41.32884121075043" lon="-1.5499444831488272"><ele>624.0</ele><time>2026-05-03T15:54:14.001Z</time></trkpt><trkpt lat="41.3287825312469" lon="-1.5498458257799264"><ele>624.0</ele><time>2026-05-03T15:54:15.001Z</time></trkpt><trkpt lat="41.32871741516532" lon="-1.549752950901705"><ele>624.0</ele><time>2026-05-03T15:54:16.001Z</time></trkpt><trkpt lat="41.32864815429356" lon="-1.5496580417555783"><ele>624.0</ele><time>2026-05-03T15:54:17.001Z</time></trkpt><trkpt lat="41.32858137655486" lon="-1.5495570615843564"><ele>624.0</ele><time>2026-05-03T15:54:18.001Z</time></trkpt><trkpt lat="41.3285141534363" lon="-1.5494572548282382"><ele>624.0</ele><time>2026-05-03T15:54:19.001Z</time></trkpt><trkpt lat="41.328445805982476" lon="-1.5493561724919735"><ele>622.8</ele><time>2026-05-03T15:54:20.001Z</time></trkpt><trkpt lat="41.32837733682399" lon="-1.5492602967373401"><ele>621.5999999999999</ele><time>2026-05-03T15:54:21.001Z</time></trkpt><trkpt lat="41.3283132030886" lon="-1.5491625279626502"><ele>620.4</ele><time>2026-05-03T15:54:22.001Z</time></trkpt><trkpt lat="41.32824657983057" lon="-1.5490616068349607"><ele>619.1999999999999</ele><time>2026-05-03T15:54:23.001Z</time></trkpt><trkpt lat="41.328180138027854" lon="-1.5489648085445378"><ele>618.0</ele><time>2026-05-03T15:54:24.001Z</time></trkpt><trkpt lat="41.32811020158293" lon="-1.548867440738267"><ele>618.6</ele><time>2026-05-03T15:54:25.001Z</time></trkpt><trkpt lat="41.3280427861677" lon="-1.5487692625347618"><ele>619.1999999999999</ele><time>2026-05-03T15:54:26.001Z</time></trkpt><trkpt lat="41.327976397663676" lon="-1.5486674887117575"><ele>619.8</ele><time>2026-05-03T15:54:27.001Z</time></trkpt><trkpt lat="41.32790800894521" lon="-1.5485693105652771"><ele>620.4</ele><time>2026-05-03T15:54:28.001Z</time></trkpt><trkpt lat="41.32783731757017" lon="-1.548469908235577"><ele>621.0</ele><time>2026-05-03T15:54:29.001Z</time></trkpt><trkpt lat="41.327768261885666" lon="-1.5483732920853215"><ele>621.0</ele><time>2026-05-03T15:54:30.001Z</time></trkpt><trkpt lat="41.3276971784904" lon="-1.5482770457156156"><ele>621.0</ele><time>2026-05-03T15:54:31.001Z</time></trkpt><trkpt lat="41.32762410332755" lon="-1.5481769086351411"><ele>621.0</ele><time>2026-05-03T15:54:32.001Z</time></trkpt><trkpt lat="41.32755532109201" lon="-1.548078525788429"><ele>621.0</ele><time>2026-05-03T15:54:33.001Z</time></trkpt><trkpt lat="41.32748754328388" lon="-1.5479854198671839"><ele>621.0</ele><time>2026-05-03T15:54:34.001Z</time></trkpt><trkpt lat="41.32742809547956" lon="-1.5479039514154165"><ele>620.8571428571428</ele><time>2026-05-03T15:54:35.001Z</time></trkpt><trkpt lat="41.327371419647996" lon="-1.547832782831096"><ele>620.7142857142857</ele><time>2026-05-03T15:54:36.001Z</time></trkpt><trkpt lat="41.3273104795297" lon="-1.5477713017688446"><ele>620.5714285714286</ele><time>2026-05-03T15:54:37.001Z</time></trkpt><trkpt lat="41.32725254396266" lon="-1.5477245579764034"><ele>620.4285714285713</ele><time>2026-05-03T15:54:38.001Z</time></trkpt><trkpt lat="41.32719319291038" lon="-1.5476799060443787"><ele>620.2857142857142</ele><time>2026-05-03T15:54:39.001Z</time></trkpt><trkpt lat="41.32712770387941" lon="-1.5476340507123165"><ele>620.1428571428571</ele><time>2026-05-03T15:54:40.001Z</time></trkpt><trkpt lat="41.32705631317505" lon="-1.547592208177028"><ele>620.0</ele><time>2026-05-03T15:54:41.001Z</time></trkpt><trkpt lat="41.326976524821085" lon="-1.5475583121060548"><ele>620.0</ele><time>2026-05-03T15:54:42.001Z</time></trkpt><trkpt lat="41.326894619288225" lon="-1.5475274519612088"><ele>620.0</ele><time>2026-05-03T15:54:43.001Z</time></trkpt><trkpt lat="41.326807571611766" lon="-1.5475015514612416"><ele>620.0</ele><time>2026-05-03T15:54:44.001Z</time></trkpt><trkpt lat="41.32671652035423" lon="-1.5474726785136723"><ele>620.0</ele><time>2026-05-03T15:54:45.001Z</time></trkpt><trkpt lat="41.326618136962104" lon="-1.5474629801830198"><ele>620.0</ele><time>2026-05-03T15:54:46.001Z</time></trkpt><trkpt lat="41.32652860697229" lon="-1.5474124357581371"><ele>620.0</ele><time>2026-05-03T15:54:47.001Z</time></trkpt><trkpt lat="41.32643536304684" lon="-1.5473846612030366"><ele>620.0</ele><time>2026-05-03T15:54:48.001Z</time></trkpt><trkpt lat="41.32634503812821" lon="-1.5473611196995878"><ele>620.0</ele><time>2026-05-03T15:54:49.001Z</time></trkpt><trkpt lat="41.326255501158805" lon="-1.5473314548611001"><ele>620.0</ele><time>2026-05-03T15:54:50.001Z</time></trkpt><trkpt lat="41.32616571451144" lon="-1.547301167794523"><ele>620.0</ele><time>2026-05-03T15:54:51.001Z</time></trkpt><trkpt lat="41.32607584477058" lon="-1.5472757156423351"><ele>620.8333333333333</ele><time>2026-05-03T15:54:52.001Z</time></trkpt><trkpt lat="41.32598787054324" lon="-1.5472458449649442"><ele>621.6666666666666</ele><time>2026-05-03T15:54:53.001Z</time></trkpt><trkpt lat="41.3258977422442" lon="-1.547217941644057"><ele>622.5</ele><time>2026-05-03T15:54:54.001Z</time></trkpt><trkpt lat="41.32581095505316" lon="-1.5471873380355206"><ele>623.3333333333334</ele><time>2026-05-03T15:54:55.001Z</time></trkpt><trkpt lat="41.325727227709066" lon="-1.547158455478211"><ele>624.1666666666667</ele><time>2026-05-03T15:54:56.001Z</time></trkpt><trkpt lat="41.32564306665476" lon="-1.547123636750686"><ele>625.0</ele><time>2026-05-03T15:54:57.001Z</time></trkpt><trkpt lat="41.325555163842" lon="-1.5470873208077034"><ele>624.6</ele><time>2026-05-03T15:54:58.001Z</time></trkpt><trkpt lat="41.32546863924267" lon="-1.5470352990896528"><ele>624.2</ele><time>2026-05-03T15:54:59.001Z</time></trkpt><trkpt lat="41.32537927794162" lon="-1.5469826577492327"><ele>623.8</ele><time>2026-05-03T15:55:00.001Z</time></trkpt><trkpt lat="41.32528757965978" lon="-1.5469283485373275"><ele>623.4</ele><time>2026-05-03T15:55:01.001Z</time></trkpt><trkpt lat="41.325192173052315" lon="-1.5468778609736928"><ele>623.0</ele><time>2026-05-03T15:55:02.001Z</time></trkpt><trkpt lat="41.32509652896169" lon="-1.5468184238425777"><ele>623.0</ele><time>2026-05-03T15:55:03.001Z</time></trkpt><trkpt lat="41.32500118166801" lon="-1.5467598986679751"><ele>623.0</ele><time>2026-05-03T15:55:04.001Z</time></trkpt><trkpt lat="41.32490583629397" lon="-1.5466938938850097"><ele>623.0</ele><time>2026-05-03T15:55:05.001Z</time></trkpt><trkpt lat="41.32481467879012" lon="-1.54663171399814"><ele>623.0</ele><time>2026-05-03T15:55:06.001Z</time></trkpt><trkpt lat="41.32472067553793" lon="-1.5465666029062184"><ele>623.0</ele><time>2026-05-03T15:55:07.001Z</time></trkpt><trkpt lat="41.324626387766585" lon="-1.5465010417955027"><ele>623.0</ele><time>2026-05-03T15:55:08.001Z</time></trkpt><trkpt lat="41.32453046274529" lon="-1.5464383899078367"><ele>623.0</ele><time>2026-05-03T15:55:09.001Z</time></trkpt><trkpt lat="41.324434912481124" lon="-1.5463771795142969"><ele>623.0</ele><time>2026-05-03T15:55:10.001Z</time></trkpt><trkpt lat="41.32434058494894" lon="-1.546311532248972"><ele>623.0</ele><time>2026-05-03T15:55:11.001Z</time></trkpt><trkpt lat="41.32424550254312" lon="-1.5462555655763375"><ele>623.0</ele><time>2026-05-03T15:55:12.001Z</time></trkpt><trkpt lat="41.324152089370834" lon="-1.546194228087968"><ele>623.0</ele><time>2026-05-03T15:55:13.001Z</time></trkpt><trkpt lat="41.32405804454096" lon="-1.546137180375044"><ele>623.0</ele><time>2026-05-03T15:55:14.001Z</time></trkpt><trkpt lat="41.32396688202466" lon="-1.5460781398154653"><ele>623.0</ele><time>2026-05-03T15:55:15.001Z</time></trkpt><trkpt lat="41.323875359626" lon="-1.5460178906231183"><ele>623.0</ele><time>2026-05-03T15:55:16.001Z</time></trkpt><trkpt lat="41.323783243829695" lon="-1.5459605512474834"><ele>623.0</ele><time>2026-05-03T15:55:17.001Z</time></trkpt><trkpt lat="41.32368953533156" lon="-1.5458993579739744"><ele>624.1999999999999</ele><time>2026-05-03T15:55:18.001Z</time></trkpt><trkpt lat="41.3236003260474" lon="-1.5458388875251043"><ele>625.4</ele><time>2026-05-03T15:55:19.001Z</time></trkpt><trkpt lat="41.323507894384186" lon="-1.5457789562800492"><ele>626.5999999999999</ele><time>2026-05-03T15:55:20.001Z</time></trkpt><trkpt lat="41.32341708045467" lon="-1.5457239630254043"><ele>627.8</ele><time>2026-05-03T15:55:21.001Z</time></trkpt><trkpt lat="41.3233263863091" lon="-1.5456646601868003"><ele>629.0</ele><time>2026-05-03T15:55:22.001Z</time></trkpt><trkpt lat="41.32323546434939" lon="-1.5456050262361243"><ele>629.0</ele><time>2026-05-03T15:55:23.001Z</time></trkpt><trkpt lat="41.323147429526614" lon="-1.5455424171613006"><ele>629.0</ele><time>2026-05-03T15:55:24.001Z</time></trkpt><trkpt lat="41.323058297211404" lon="-1.5454870566652883"><ele>629.0</ele><time>2026-05-03T15:55:25.001Z</time></trkpt><trkpt lat="41.322967340067976" lon="-1.5454280721271736"><ele>629.0</ele><time>2026-05-03T15:55:26Z</time></trkpt><trkpt lat="41.32287843252175" lon="-1.5453715274432018"><ele>629.0</ele><time>2026-05-03T15:55:27Z</time></trkpt><trkpt lat="41.32278944121655" lon="-1.5453164166525528"><ele>628.2</ele><time>2026-05-03T15:55:28Z</time></trkpt><trkpt lat="41.322699603783775" lon="-1.5452648973174559"><ele>627.4</ele><time>2026-05-03T15:55:29Z</time></trkpt><trkpt lat="41.3226061532716" lon="-1.5452208784414596"><ele>626.6</ele><time>2026-05-03T15:55:30Z</time></trkpt><trkpt lat="41.322509540159416" lon="-1.5451884545078116"><ele>625.8</ele><time>2026-05-03T15:55:31Z</time></trkpt><trkpt lat="41.3224079854553" lon="-1.545192603610005"><ele>625.0</ele><time>2026-05-03T15:55:32Z</time></trkpt><trkpt lat="41.322308712192005" lon="-1.5451817702613957"><ele>625.8</ele><time>2026-05-03T15:55:33Z</time></trkpt><trkpt lat="41.32220888506131" lon="-1.5451709112071343"><ele>626.6</ele><time>2026-05-03T15:55:34Z</time></trkpt><trkpt lat="41.322110288581726" lon="-1.5451365643819146"><ele>627.4</ele><time>2026-05-03T15:55:35Z</time></trkpt><trkpt lat="41.32200988828231" lon="-1.5451293685933138"><ele>628.2</ele><time>2026-05-03T15:55:36Z</time></trkpt><trkpt lat="41.32190767091668" lon="-1.5451142941099145"><ele>629.0</ele><time>2026-05-03T15:55:37Z</time></trkpt><trkpt lat="41.32180646960402" lon="-1.5450972660442435"><ele>629.0</ele><time>2026-05-03T15:55:38Z</time></trkpt><trkpt lat="41.32170418683166" lon="-1.5451047661503663"><ele>629.0</ele><time>2026-05-03T15:55:39Z</time></trkpt><trkpt lat="41.32160214600876" lon="-1.545091342009212"><ele>629.0</ele><time>2026-05-03T15:55:40Z</time></trkpt><trkpt lat="41.321497772441596" lon="-1.5450770887786343"><ele>629.0</ele><time>2026-05-03T15:55:41Z</time></trkpt><trkpt lat="41.321395431049545" lon="-1.5450413387807558"><ele>629.0</ele><time>2026-05-03T15:55:42Z</time></trkpt><trkpt lat="41.32129010153136" lon="-1.545027036565622"><ele>629.8</ele><time>2026-05-03T15:55:43Z</time></trkpt><trkpt lat="41.32118440515534" lon="-1.5450131001394631"><ele>630.5999999999999</ele><time>2026-05-03T15:55:44Z</time></trkpt><trkpt lat="41.321077628072594" lon="-1.5450018496481719"><ele>631.4</ele><time>2026-05-03T15:55:45Z</time></trkpt><trkpt lat="41.32097037485641" lon="-1.544989274448544"><ele>632.1999999999999</ele><time>2026-05-03T15:55:46Z</time></trkpt><trkpt lat="41.32086118408715" lon="-1.544974698717755"><ele>633.0</ele><time>2026-05-03T15:55:47Z</time></trkpt><trkpt lat="41.32075828444912" lon="-1.544961956345839"><ele>633.0</ele><time>2026-05-03T15:55:48Z</time></trkpt><trkpt lat="41.32064901735181" lon="-1.5449698839524126"><ele>633.0</ele><time>2026-05-03T15:55:49Z</time></trkpt><trkpt lat="41.3205462024878" lon="-1.5449581169604434"><ele>633.0</ele><time>2026-05-03T15:55:50Z</time></trkpt><trkpt lat="41.320438217342115" lon="-1.5449457582486055"><ele>633.0</ele><time>2026-05-03T15:55:51Z</time></trkpt><trkpt lat="41.32032934428329" lon="-1.5449298660896968"><ele>633.0</ele><time>2026-05-03T15:55:52Z</time></trkpt><trkpt lat="41.320220621562235" lon="-1.5449014359585196"><ele>633.0</ele><time>2026-05-03T15:55:53Z</time></trkpt><trkpt lat="41.32011495060887" lon="-1.5448564120793393"><ele>633.0</ele><time>2026-05-03T15:55:54Z</time></trkpt><trkpt lat="41.32000972224199" lon="-1.5448002462650934"><ele>633.0</ele><time>2026-05-03T15:55:55Z</time></trkpt><trkpt lat="41.31991065267074" lon="-1.5447381163312965"><ele>633.0</ele><time>2026-05-03T15:55:56Z</time></trkpt><trkpt lat="41.31981291500144" lon="-1.5446738922748169"><ele>633.0</ele><time>2026-05-03T15:55:57Z</time></trkpt><trkpt lat="41.31971829542639" lon="-1.5446105308757931"><ele>632.1999999999999</ele><time>2026-05-03T15:55:58Z</time></trkpt><trkpt lat="41.31961548419249" lon="-1.544543200138426"><ele>631.4</ele><time>2026-05-03T15:55:59Z</time></trkpt><trkpt lat="41.319523206774754" lon="-1.5444613414087156"><ele>630.5999999999999</ele><time>2026-05-03T15:56:00Z</time></trkpt><trkpt lat="41.31942638271123" lon="-1.5443974097326005"><ele>629.8</ele><time>2026-05-03T15:56:01Z</time></trkpt><trkpt lat="41.31932214114191" lon="-1.5443560034471455"><ele>629.0</ele><time>2026-05-03T15:56:02Z</time></trkpt><trkpt lat="41.31923344034516" lon="-1.5442762291074106"><ele>629.0</ele><time>2026-05-03T15:56:03Z</time></trkpt><trkpt lat="41.3191363271149" lon="-1.5442175007414394"><ele>629.0</ele><time>2026-05-03T15:56:04Z</time></trkpt><trkpt lat="41.31904047130322" lon="-1.5441593349610363"><ele>629.0</ele><time>2026-05-03T15:56:05Z</time></trkpt><trkpt lat="41.318944413799834" lon="-1.544095495781536"><ele>629.0</ele><time>2026-05-03T15:56:06Z</time></trkpt><trkpt lat="41.318848995646654" lon="-1.544031923469726"><ele>629.0</ele><time>2026-05-03T15:56:07Z</time></trkpt><trkpt lat="41.31875172037075" lon="-1.543969328407385"><ele>628.6</ele><time>2026-05-03T15:56:08Z</time></trkpt><trkpt lat="41.31865510910304" lon="-1.5439074106185775"><ele>628.2</ele><time>2026-05-03T15:56:09Z</time></trkpt><trkpt lat="41.31855570086398" lon="-1.5438491291433656"><ele>627.8000000000001</ele><time>2026-05-03T15:56:10Z</time></trkpt><trkpt lat="41.31846116307198" lon="-1.5437879545133666"><ele>627.4</ele><time>2026-05-03T15:56:11Z</time></trkpt><trkpt lat="41.31836526226252" lon="-1.5437228153942315"><ele>627.0</ele><time>2026-05-03T15:56:12Z</time></trkpt><trkpt lat="41.31827019553575" lon="-1.5436584592549267"><ele>627.0</ele><time>2026-05-03T15:56:13Z</time></trkpt><trkpt lat="41.31817198075153" lon="-1.5435979190924487"><ele>627.0</ele><time>2026-05-03T15:56:14Z</time></trkpt><trkpt lat="41.318076120145776" lon="-1.5435376408867256"><ele>627.0</ele><time>2026-05-03T15:56:15Z</time></trkpt><trkpt lat="41.31797948204259" lon="-1.5434758849136447"><ele>627.0</ele><time>2026-05-03T15:56:16Z</time></trkpt><trkpt lat="41.317883858123096" lon="-1.5434137120215112"><ele>627.0</ele><time>2026-05-03T15:56:17Z</time></trkpt><trkpt lat="41.31778642147726" lon="-1.543352414003651"><ele>628.8000000000001</ele><time>2026-05-03T15:56:18Z</time></trkpt><trkpt lat="41.31769000147341" lon="-1.5432923674179109"><ele>630.6</ele><time>2026-05-03T15:56:19Z</time></trkpt><trkpt lat="41.31759476948881" lon="-1.5432299762979844"><ele>632.4000000000001</ele><time>2026-05-03T15:56:20Z</time></trkpt><trkpt lat="41.317493292843956" lon="-1.5431856659128833"><ele>634.2</ele><time>2026-05-03T15:56:21Z</time></trkpt><trkpt lat="41.31740794312908" lon="-1.5430971450556303"><ele>636.0</ele><time>2026-05-03T15:56:22Z</time></trkpt><trkpt lat="41.31731939641833" lon="-1.5430243867328166"><ele>635.4</ele><time>2026-05-03T15:56:23Z</time></trkpt><trkpt lat="41.317232019896174" lon="-1.542944298434813"><ele>634.8</ele><time>2026-05-03T15:56:24Z</time></trkpt><trkpt lat="41.31714684737505" lon="-1.5428671062363286"><ele>634.1999999999999</ele><time>2026-05-03T15:56:25Z</time></trkpt><trkpt lat="41.31706184361159" lon="-1.5427842876617057"><ele>633.6</ele><time>2026-05-03T15:56:26Z</time></trkpt><trkpt lat="41.3169762825576" lon="-1.5427009729691925"><ele>633.0</ele><time>2026-05-03T15:56:27Z</time></trkpt><trkpt lat="41.31688982504487" lon="-1.5426175961069992"><ele>633.0</ele><time>2026-05-03T15:56:28Z</time></trkpt><trkpt lat="41.316801362287634" lon="-1.5425336366589433"><ele>633.0</ele><time>2026-05-03T15:56:29Z</time></trkpt><trkpt lat="41.316713791407714" lon="-1.5424504045767338"><ele>633.0</ele><time>2026-05-03T15:56:30.001Z</time></trkpt><trkpt lat="41.316624585272535" lon="-1.5423673682824595"><ele>633.0</ele><time>2026-05-03T15:56:31.001Z</time></trkpt><trkpt lat="41.31653688746015" lon="-1.5422853336168716"><ele>633.0</ele><time>2026-05-03T15:56:32.001Z</time></trkpt><trkpt lat="41.31644788923379" lon="-1.5422029381687832"><ele>633.1999999999999</ele><time>2026-05-03T15:56:33.001Z</time></trkpt><trkpt lat="41.31635969649572" lon="-1.542118073576538"><ele>633.4</ele><time>2026-05-03T15:56:34.001Z</time></trkpt><trkpt lat="41.31627706989733" lon="-1.5420307965878048"><ele>633.5999999999999</ele><time>2026-05-03T15:56:35.001Z</time></trkpt><trkpt lat="41.316191306592955" lon="-1.541948082260417"><ele>633.8</ele><time>2026-05-03T15:56:36.001Z</time></trkpt><trkpt lat="41.31610841582457" lon="-1.5418702322987445"><ele>634.0</ele><time>2026-05-03T15:56:37.001Z</time></trkpt><trkpt lat="41.31602474033848" lon="-1.541794624964313"><ele>634.0</ele><time>2026-05-03T15:56:38.001Z</time></trkpt><trkpt lat="41.3159420898498" lon="-1.541721634190727"><ele>634.0</ele><time>2026-05-03T15:56:39.001Z</time></trkpt><trkpt lat="41.315864008218384" lon="-1.5416449305181292"><ele>634.0</ele><time>2026-05-03T15:56:40.001Z</time></trkpt><trkpt lat="41.31578530723723" lon="-1.5415667268725726"><ele>634.0</ele><time>2026-05-03T15:56:41.001Z</time></trkpt><trkpt lat="41.31570501827396" lon="-1.5414928720027214"><ele>634.0</ele><time>2026-05-03T15:56:42.001Z</time></trkpt><trkpt lat="41.31562238141889" lon="-1.5414231526626316"><ele>634.6</ele><time>2026-05-03T15:56:43.001Z</time></trkpt><trkpt lat="41.315551089616335" lon="-1.5413348763381745"><ele>635.2</ele><time>2026-05-03T15:56:44.001Z</time></trkpt><trkpt lat="41.31549325554129" lon="-1.5412240923214502"><ele>635.8000000000001</ele><time>2026-05-03T15:56:45.001Z</time></trkpt><trkpt lat="41.31542549552413" lon="-1.5411222536120108"><ele>636.4</ele><time>2026-05-03T15:56:46.001Z</time></trkpt><trkpt lat="41.31534530873519" lon="-1.5410340186299618"><ele>637.0</ele><time>2026-05-03T15:56:47.001Z</time></trkpt><trkpt lat="41.31527869625093" lon="-1.540936442080783"><ele>637.0</ele><time>2026-05-03T15:56:48.001Z</time></trkpt><trkpt lat="41.315212921111694" lon="-1.5408400921721508"><ele>637.0</ele><time>2026-05-03T15:56:49.001Z</time></trkpt><trkpt lat="41.315160499902966" lon="-1.5407345861075412"><ele>637.0</ele><time>2026-05-03T15:56:50.001Z</time></trkpt><trkpt lat="41.315099792910345" lon="-1.5406437132931727"><ele>637.0</ele><time>2026-05-03T15:56:51.001Z</time></trkpt><trkpt lat="41.31504007169026" lon="-1.5405512474378216"><ele>637.0</ele><time>2026-05-03T15:56:52.001Z</time></trkpt><trkpt lat="41.314980648873885" lon="-1.5404555372788697"><ele>636.8000000000001</ele><time>2026-05-03T15:56:53.001Z</time></trkpt><trkpt lat="41.31491834430483" lon="-1.540363370179766"><ele>636.6</ele><time>2026-05-03T15:56:54.001Z</time></trkpt><trkpt lat="41.3148578032428" lon="-1.5402706389337917"><ele>636.4000000000001</ele><time>2026-05-03T15:56:55.001Z</time></trkpt><trkpt lat="41.31479944501729" lon="-1.5401783104945976"><ele>636.2</ele><time>2026-05-03T15:56:56.001Z</time></trkpt><trkpt lat="41.31474025809046" lon="-1.5400895631111275"><ele>636.0</ele><time>2026-05-03T15:56:57.001Z</time></trkpt><trkpt lat="41.31468382690724" lon="-1.5400001260185965"><ele>636.3333333333334</ele><time>2026-05-03T15:56:58.001Z</time></trkpt><trkpt lat="41.31462939198444" lon="-1.539915684990428"><ele>636.6666666666666</ele><time>2026-05-03T15:56:59.001Z</time></trkpt><trkpt lat="41.31457391008688" lon="-1.5398314492613177"><ele>637.0</ele><time>2026-05-03T15:57:00.001Z</time></trkpt><trkpt lat="41.3145174087212" lon="-1.5397480132392583"><ele>637.3333333333333</ele><time>2026-05-03T15:57:01.001Z</time></trkpt><trkpt lat="41.31445878599715" lon="-1.5396618739533974"><ele>637.6666666666666</ele><time>2026-05-03T15:57:02.001Z</time></trkpt><trkpt lat="41.31439837316868" lon="-1.5395809924312747"><ele>638.0</ele><time>2026-05-03T15:57:03.001Z</time></trkpt><trkpt lat="41.31433601481516" lon="-1.5395032171272411"><ele>638.0</ele><time>2026-05-03T15:57:04.001Z</time></trkpt><trkpt lat="41.31427080932351" lon="-1.5394318550534127"><ele>638.0</ele><time>2026-05-03T15:57:05.001Z</time></trkpt><trkpt lat="41.314193057127895" lon="-1.5393831640799742"><ele>638.0</ele><time>2026-05-03T15:57:06.001Z</time></trkpt><trkpt lat="41.31413272781745" lon="-1.5393010454584597"><ele>638.0</ele><time>2026-05-03T15:57:07.001Z</time></trkpt><trkpt lat="41.31406389942133" lon="-1.5392331177339724"><ele>638.0</ele><time>2026-05-03T15:57:08.001Z</time></trkpt><trkpt lat="41.31399456813641" lon="-1.5391642765318998"><ele>638.0</ele><time>2026-05-03T15:57:09.001Z</time></trkpt><trkpt lat="41.31392319558041" lon="-1.5390981124034977"><ele>639.6666666666666</ele><time>2026-05-03T15:57:10.001Z</time></trkpt><trkpt lat="41.31385355745429" lon="-1.539031676492008"><ele>641.3333333333333</ele><time>2026-05-03T15:57:11.001Z</time></trkpt><trkpt lat="41.31378454673629" lon="-1.5389682199493961"><ele>643.0</ele><time>2026-05-03T15:57:12.001Z</time></trkpt><trkpt lat="41.31371630790609" lon="-1.5389056478051972"><ele>644.6666666666666</ele><time>2026-05-03T15:57:13.001Z</time></trkpt><trkpt lat="41.31365027294874" lon="-1.5388401663403612"><ele>646.3333333333334</ele><time>2026-05-03T15:57:14.001Z</time></trkpt><trkpt lat="41.31357617545043" lon="-1.5387926675664434"><ele>648.0</ele><time>2026-05-03T15:57:15.001Z</time></trkpt><trkpt lat="41.31350808038968" lon="-1.5387334620875"><ele>647.0</ele><time>2026-05-03T15:57:16.001Z</time></trkpt><trkpt lat="41.31344095021929" lon="-1.5386757130475306"><ele>646.0</ele><time>2026-05-03T15:57:17.001Z</time></trkpt><trkpt lat="41.313371995852926" lon="-1.538615774956883"><ele>645.0</ele><time>2026-05-03T15:57:18.001Z</time></trkpt><trkpt lat="41.313318878326356" lon="-1.53853045632376"><ele>644.0</ele><time>2026-05-03T15:57:19.001Z</time></trkpt><trkpt lat="41.313262799183654" lon="-1.5384483761687089"><ele>643.0</ele><time>2026-05-03T15:57:20.001Z</time></trkpt><trkpt lat="41.31322883462576" lon="-1.5383560565992684"><ele>642.0</ele><time>2026-05-03T15:57:21.001Z</time></trkpt><trkpt lat="41.31320942548519" lon="-1.5382615812756437"><ele>641.9999999999999</ele><time>2026-05-03T15:57:22.001Z</time></trkpt><trkpt lat="41.313194537493104" lon="-1.538163498143314"><ele>642.0</ele><time>2026-05-03T15:57:23.001Z</time></trkpt><trkpt lat="41.31319643523237" lon="-1.5380754909582242"><ele>642.0</ele><time>2026-05-03T15:57:24.001Z</time></trkpt><trkpt lat="41.313200235559485" lon="-1.5379907159302644"><ele>642.0</ele><time>2026-05-03T15:57:25.001Z</time></trkpt><trkpt lat="41.313218259358976" lon="-1.5379080034765742"><ele>642.0</ele><time>2026-05-03T15:57:26.001Z</time></trkpt><trkpt lat="41.31324078138363" lon="-1.5378223514343954"><ele>641.9999999999999</ele><time>2026-05-03T15:57:27.001Z</time></trkpt><trkpt lat="41.313283277907985" lon="-1.5377482198427337"><ele>642.0</ele><time>2026-05-03T15:57:28.001Z</time></trkpt><trkpt lat="41.313339104147985" lon="-1.5376854243291656"><ele>641.8333333333334</ele><time>2026-05-03T15:57:29.001Z</time></trkpt><trkpt lat="41.313383404775394" lon="-1.53760734515639"><ele>641.6666666666666</ele><time>2026-05-03T15:57:30.001Z</time></trkpt><trkpt lat="41.31340600204438" lon="-1.537518516790578"><ele>641.5</ele><time>2026-05-03T15:57:31.001Z</time></trkpt><trkpt lat="41.31341566053217" lon="-1.5374225117666254"><ele>641.3333333333333</ele><time>2026-05-03T15:57:32Z</time></trkpt><trkpt lat="41.31340884695196" lon="-1.537321656838997"><ele>641.1666666666666</ele><time>2026-05-03T15:57:33Z</time></trkpt><trkpt lat="41.31338842202025" lon="-1.5372217339720515"><ele>641.0</ele><time>2026-05-03T15:57:34Z</time></trkpt><trkpt lat="41.3133420885611" lon="-1.537133566738525"><ele>640.3333333333333</ele><time>2026-05-03T15:57:35Z</time></trkpt><trkpt lat="41.313317935094844" lon="-1.537031172358777"><ele>639.6666666666666</ele><time>2026-05-03T15:57:36Z</time></trkpt><trkpt lat="41.31327687149508" lon="-1.5369372266155135"><ele>639.0</ele><time>2026-05-03T15:57:37Z</time></trkpt><trkpt lat="41.313236895985945" lon="-1.5368386118297535"><ele>638.3333333333334</ele><time>2026-05-03T15:57:38Z</time></trkpt><trkpt lat="41.31319976063193" lon="-1.536740321779714"><ele>637.6666666666667</ele><time>2026-05-03T15:57:39Z</time></trkpt><trkpt lat="41.31316177001775" lon="-1.5366409324728296"><ele>637.0</ele><time>2026-05-03T15:57:40Z</time></trkpt><trkpt lat="41.313122053989964" lon="-1.5365407035765783"><ele>637.0</ele><time>2026-05-03T15:57:41Z</time></trkpt><trkpt lat="41.313080444862194" lon="-1.536438336542626"><ele>637.0</ele><time>2026-05-03T15:57:42Z</time></trkpt><trkpt lat="41.31301797156494" lon="-1.5363567113227454"><ele>637.0</ele><time>2026-05-03T15:57:43Z</time></trkpt><trkpt lat="41.31296293229747" lon="-1.5362727393043896"><ele>637.0</ele><time>2026-05-03T15:57:44Z</time></trkpt><trkpt lat="41.31291250704564" lon="-1.5361754422941212"><ele>637.0</ele><time>2026-05-03T15:57:45Z</time></trkpt><trkpt lat="41.3128409812457" lon="-1.5361056918955205"><ele>637.0</ele><time>2026-05-03T15:57:46Z</time></trkpt><trkpt lat="41.31278397082866" lon="-1.536008561804255"><ele>638.4000000000001</ele><time>2026-05-03T15:57:47Z</time></trkpt><trkpt lat="41.31270441058102" lon="-1.5359419855591319"><ele>639.8000000000001</ele><time>2026-05-03T15:57:48Z</time></trkpt><trkpt lat="41.31262724842056" lon="-1.5358664842040397"><ele>641.2</ele><time>2026-05-03T15:57:49Z</time></trkpt><trkpt lat="41.3125531466791" lon="-1.5357852892650081"><ele>642.6</ele><time>2026-05-03T15:57:50Z</time></trkpt><trkpt lat="41.31251434223957" lon="-1.5356616096754383"><ele>644.0</ele><time>2026-05-03T15:57:51Z</time></trkpt><trkpt lat="41.31246893573021" lon="-1.5355489916328118"><ele>644.0</ele><time>2026-05-03T15:57:52Z</time></trkpt><trkpt lat="41.31242751848615" lon="-1.535434824735321"><ele>644.0</ele><time>2026-05-03T15:57:53Z</time></trkpt><trkpt lat="41.31239020056124" lon="-1.5353148927620726"><ele>644.0</ele><time>2026-05-03T15:57:54Z</time></trkpt><trkpt lat="41.31233741443211" lon="-1.5352052003896939"><ele>644.0</ele><time>2026-05-03T15:57:55Z</time></trkpt><trkpt lat="41.312297662893826" lon="-1.5350877234987952"><ele>644.0</ele><time>2026-05-03T15:57:56Z</time></trkpt><trkpt lat="41.31226036992046" lon="-1.534969596520924"><ele>645.2</ele><time>2026-05-03T15:57:57Z</time></trkpt><trkpt lat="41.31222259499291" lon="-1.534849933815395"><ele>646.4000000000001</ele><time>2026-05-03T15:57:58Z</time></trkpt><trkpt lat="41.312201513649484" lon="-1.5347212892558448"><ele>647.6</ele><time>2026-05-03T15:57:59Z</time></trkpt><trkpt lat="41.31216401317944" lon="-1.534600838750472"><ele>648.8</ele><time>2026-05-03T15:58:00Z</time></trkpt><trkpt lat="41.3121266390116" lon="-1.534478226503579"><ele>650.0</ele><time>2026-05-03T15:58:01Z</time></trkpt><trkpt lat="41.31208775234229" lon="-1.5343566787191099"><ele>650.0</ele><time>2026-05-03T15:58:02Z</time></trkpt><trkpt lat="41.3120504311317" lon="-1.5342327205960602"><ele>650.0</ele><time>2026-05-03T15:58:03Z</time></trkpt><trkpt lat="41.31201805672359" lon="-1.5341075547090297"><ele>650.0</ele><time>2026-05-03T15:58:04Z</time></trkpt><trkpt lat="41.31198261807938" lon="-1.5339814235600016"><ele>650.0</ele><time>2026-05-03T15:58:05Z</time></trkpt><trkpt lat="41.311946560666335" lon="-1.5338575581058749"><ele>650.0</ele><time>2026-05-03T15:58:06Z</time></trkpt><trkpt lat="41.3119087118967" lon="-1.5337343085165727"><ele>648.8</ele><time>2026-05-03T15:58:07Z</time></trkpt><trkpt lat="41.311870911690654" lon="-1.5336093429650934"><ele>647.6</ele><time>2026-05-03T15:58:08Z</time></trkpt><trkpt lat="41.31182805937148" lon="-1.5334858212219724"><ele>646.4000000000001</ele><time>2026-05-03T15:58:09Z</time></trkpt><trkpt lat="41.31177860652605" lon="-1.5333674071269656"><ele>645.2</ele><time>2026-05-03T15:58:10Z</time></trkpt><trkpt lat="41.31172479580013" lon="-1.5332484431743865"><ele>644.0</ele><time>2026-05-03T15:58:11Z</time></trkpt><trkpt lat="41.31167046262965" lon="-1.5331337335071824"><ele>644.0</ele><time>2026-05-03T15:58:12Z</time></trkpt><trkpt lat="41.31161470427639" lon="-1.5330196377588385"><ele>644.0</ele><time>2026-05-03T15:58:13Z</time></trkpt><trkpt lat="41.311560794919835" lon="-1.5329048055005414"><ele>644.0</ele><time>2026-05-03T15:58:14Z</time></trkpt><trkpt lat="41.31150479266425" lon="-1.5327886779979492"><ele>644.0</ele><time>2026-05-03T15:58:15Z</time></trkpt><trkpt lat="41.311447132864494" lon="-1.5326748617666097"><ele>644.0</ele><time>2026-05-03T15:58:16Z</time></trkpt><trkpt lat="41.31139111916155" lon="-1.5325574481827267"><ele>644.4000000000001</ele><time>2026-05-03T15:58:17Z</time></trkpt><trkpt lat="41.31133350772781" lon="-1.5324438618719873"><ele>644.8</ele><time>2026-05-03T15:58:18Z</time></trkpt><trkpt lat="41.31127516161965" lon="-1.5323316820982487"><ele>645.2</ele><time>2026-05-03T15:58:19.001Z</time></trkpt><trkpt lat="41.311217205891985" lon="-1.5322146124676632"><ele>645.5999999999999</ele><time>2026-05-03T15:58:20.001Z</time></trkpt><trkpt lat="41.31116198260729" lon="-1.5320948319972343"><ele>646.0</ele><time>2026-05-03T15:58:21.001Z</time></trkpt><trkpt lat="41.31110434518661" lon="-1.5319781518837101"><ele>646.0</ele><time>2026-05-03T15:58:22.001Z</time></trkpt><trkpt lat="41.31104889050559" lon="-1.5318609145948066"><ele>646.0</ele><time>2026-05-03T15:58:23.001Z</time></trkpt><trkpt lat="41.31099165909125" lon="-1.5317455515332632"><ele>646.0</ele><time>2026-05-03T15:58:24.001Z</time></trkpt><trkpt lat="41.310934188930055" lon="-1.5316278869781068"><ele>646.0</ele><time>2026-05-03T15:58:25.001Z</time></trkpt><trkpt lat="41.31087614810969" lon="-1.5315133895960635"><ele>646.0</ele><time>2026-05-03T15:58:26.001Z</time></trkpt><trkpt lat="41.31082037577375" lon="-1.5313983756620675"><ele>646.0</ele><time>2026-05-03T15:58:27.001Z</time></trkpt><trkpt lat="41.310765033711306" lon="-1.531279948584354"><ele>646.0</ele><time>2026-05-03T15:58:28.001Z</time></trkpt><trkpt lat="41.31071098038227" lon="-1.5311598556141044"><ele>646.0</ele><time>2026-05-03T15:58:29.001Z</time></trkpt><trkpt lat="41.31065354801321" lon="-1.531044089856033"><ele>646.0</ele><time>2026-05-03T15:58:30.001Z</time></trkpt><trkpt lat="41.310599675227216" lon="-1.530929326075268"><ele>646.0</ele><time>2026-05-03T15:58:31.001Z</time></trkpt><trkpt lat="41.31054700206839" lon="-1.530814274775108"><ele>646.5999999999999</ele><time>2026-05-03T15:58:32.001Z</time></trkpt><trkpt lat="41.31049211234472" lon="-1.5307002237111227"><ele>647.2</ele><time>2026-05-03T15:58:33.001Z</time></trkpt><trkpt lat="41.31043235397162" lon="-1.5305898414410952"><ele>647.8</ele><time>2026-05-03T15:58:34.001Z</time></trkpt><trkpt lat="41.31037144208226" lon="-1.5304822722847602"><ele>648.4000000000001</ele><time>2026-05-03T15:58:35.001Z</time></trkpt><trkpt lat="41.31030660637512" lon="-1.5303769411916432"><ele>649.0</ele><time>2026-05-03T15:58:36.001Z</time></trkpt><trkpt lat="41.31023509245353" lon="-1.5302805978512872"><ele>649.0</ele><time>2026-05-03T15:58:37.001Z</time></trkpt><trkpt lat="41.310156398682686" lon="-1.5301918851717395"><ele>649.0</ele><time>2026-05-03T15:58:38.001Z</time></trkpt><trkpt lat="41.310076915204036" lon="-1.5301075019022963"><ele>649.0</ele><time>2026-05-03T15:58:39.001Z</time></trkpt><trkpt lat="41.309994416965196" lon="-1.530028246726166"><ele>649.0</ele><time>2026-05-03T15:58:40.001Z</time></trkpt><trkpt lat="41.30991247004552" lon="-1.5299468171525334"><ele>649.0</ele><time>2026-05-03T15:58:41.001Z</time></trkpt><trkpt lat="41.3098310631772" lon="-1.529868808417129"><ele>649.0</ele><time>2026-05-03T15:58:42.001Z</time></trkpt><trkpt lat="41.30974907923255" lon="-1.529793404141953"><ele>649.0</ele><time>2026-05-03T15:58:43.001Z</time></trkpt><trkpt lat="41.30967060562483" lon="-1.5297158300905276"><ele>649.0</ele><time>2026-05-03T15:58:44.001Z</time></trkpt><trkpt lat="41.30959377807717" lon="-1.5296350844328601"><ele>649.0</ele><time>2026-05-03T15:58:45.001Z</time></trkpt><trkpt lat="41.309514083249496" lon="-1.5295573685633546"><ele>649.0</ele><time>2026-05-03T15:58:46.001Z</time></trkpt><trkpt lat="41.30944002513757" lon="-1.5294740633595794"><ele>650.0</ele><time>2026-05-03T15:58:47.001Z</time></trkpt><trkpt lat="41.30936457162388" lon="-1.5293942691478442"><ele>651.0</ele><time>2026-05-03T15:58:48.001Z</time></trkpt><trkpt lat="41.30929268468203" lon="-1.529306430323841"><ele>652.0</ele><time>2026-05-03T15:58:49.001Z</time></trkpt><trkpt lat="41.30921933869035" lon="-1.5292221187846844"><ele>653.0</ele><time>2026-05-03T15:58:50.001Z</time></trkpt><trkpt lat="41.3091567507664" lon="-1.5291223361736048"><ele>654.0</ele><time>2026-05-03T15:58:51.001Z</time></trkpt><trkpt lat="41.30909631347519" lon="-1.5290195329219525"><ele>654.0</ele><time>2026-05-03T15:58:52.001Z</time></trkpt><trkpt lat="41.30903532495661" lon="-1.5289177138578358"><ele>654.0</ele><time>2026-05-03T15:58:53.001Z</time></trkpt><trkpt lat="41.30897641908324" lon="-1.5288141337010526"><ele>654.0</ele><time>2026-05-03T15:58:54.001Z</time></trkpt><trkpt lat="41.30891514500072" lon="-1.5287124788622222"><ele>654.0</ele><time>2026-05-03T15:58:55.001Z</time></trkpt><trkpt lat="41.30885453613586" lon="-1.528610521646054"><ele>654.0</ele><time>2026-05-03T15:58:56.001Z</time></trkpt><trkpt lat="41.30879206549186" lon="-1.5285118879028938"><ele>655.4000000000001</ele><time>2026-05-03T15:58:57.001Z</time></trkpt><trkpt lat="41.308729587362095" lon="-1.5284123683757302"><ele>656.8</ele><time>2026-05-03T15:58:58.001Z</time></trkpt><trkpt lat="41.30866902264838" lon="-1.5283082601792883"><ele>658.2</ele><time>2026-05-03T15:58:59.001Z</time></trkpt><trkpt lat="41.30860979815609" lon="-1.5282055948828492"><ele>659.5999999999999</ele><time>2026-05-03T15:59:00.001Z</time></trkpt><trkpt lat="41.308549661394785" lon="-1.5281067278471405"><ele>661.0</ele><time>2026-05-03T15:59:01.001Z</time></trkpt><trkpt lat="41.30848773581202" lon="-1.528007215809612"><ele>661.0</ele><time>2026-05-03T15:59:02.001Z</time></trkpt><trkpt lat="41.30842554375368" lon="-1.5279088747834477"><ele>661.0</ele><time>2026-05-03T15:59:03.001Z</time></trkpt><trkpt lat="41.30836447387327" lon="-1.5278078648799456"><ele>661.0</ele><time>2026-05-03T15:59:04.001Z</time></trkpt><trkpt lat="41.30830570378741" lon="-1.5277049000584606"><ele>661.0</ele><time>2026-05-03T15:59:05.001Z</time></trkpt><trkpt lat="41.30824627665071" lon="-1.5276012263715915"><ele>661.0</ele><time>2026-05-03T15:59:06.001Z</time></trkpt><trkpt lat="41.308185346870005" lon="-1.5274976392810895"><ele>661.5999999999999</ele><time>2026-05-03T15:59:07.001Z</time></trkpt><trkpt lat="41.30812131776056" lon="-1.5273995729489536"><ele>662.2</ele><time>2026-05-03T15:59:08.001Z</time></trkpt><trkpt lat="41.30806144523838" lon="-1.5272963062996696"><ele>662.8</ele><time>2026-05-03T15:59:09.001Z</time></trkpt><trkpt lat="41.307995410588575" lon="-1.5271991314153741"><ele>663.4000000000001</ele><time>2026-05-03T15:59:10.001Z</time></trkpt><trkpt lat="41.30793356339458" lon="-1.5270990555262338"><ele>664.0</ele><time>2026-05-03T15:59:11.001Z</time></trkpt><trkpt lat="41.30786983033045" lon="-1.526998867581783"><ele>664.0</ele><time>2026-05-03T15:59:12.001Z</time></trkpt><trkpt lat="41.307806458585006" lon="-1.5268983027690906"><ele>664.0</ele><time>2026-05-03T15:59:13.001Z</time></trkpt><trkpt lat="41.30774496190348" lon="-1.5267978600748096"><ele>664.0</ele><time>2026-05-03T15:59:14.001Z</time></trkpt><trkpt lat="41.3076808258358" lon="-1.5267014066166336"><ele>664.0</ele><time>2026-05-03T15:59:15.001Z</time></trkpt><trkpt lat="41.307609473119555" lon="-1.5266072426174084"><ele>664.0</ele><time>2026-05-03T15:59:16.001Z</time></trkpt><trkpt lat="41.30753609559475" lon="-1.5265158021010996"><ele>664.0</ele><time>2026-05-03T15:59:17.001Z</time></trkpt><trkpt lat="41.307461997368534" lon="-1.5264209715767145"><ele>664.0</ele><time>2026-05-03T15:59:18.001Z</time></trkpt><trkpt lat="41.307385192367505" lon="-1.5263252682610275"><ele>664.0</ele><time>2026-05-03T15:59:19.001Z</time></trkpt><trkpt lat="41.307311089544626" lon="-1.5262299004663085"><ele>664.0</ele><time>2026-05-03T15:59:20.001Z</time></trkpt><trkpt lat="41.30723581542904" lon="-1.5261330825635069"><ele>664.0</ele><time>2026-05-03T15:59:21.001Z</time></trkpt><trkpt lat="41.307156686408376" lon="-1.5260364841527356"><ele>664.4000000000001</ele><time>2026-05-03T15:59:22.001Z</time></trkpt><trkpt lat="41.30707587223015" lon="-1.5259401261715277"><ele>664.8</ele><time>2026-05-03T15:59:23.001Z</time></trkpt><trkpt lat="41.30699844782757" lon="-1.5258428121537417"><ele>665.2</ele><time>2026-05-03T15:59:24.001Z</time></trkpt><trkpt lat="41.306921345829494" lon="-1.5257475935751215"><ele>665.5999999999999</ele><time>2026-05-03T15:59:25.001Z</time></trkpt><trkpt lat="41.30684474868793" lon="-1.525650741839322"><ele>666.0</ele><time>2026-05-03T15:59:26.001Z</time></trkpt><trkpt lat="41.30676778610602" lon="-1.5255500333768024"><ele>666.0</ele><time>2026-05-03T15:59:27.001Z</time></trkpt><trkpt lat="41.30669020318029" lon="-1.5254501450197628"><ele>666.0</ele><time>2026-05-03T15:59:28.001Z</time></trkpt><trkpt lat="41.306611145684236" lon="-1.5253573302931946"><ele>666.0</ele><time>2026-05-03T15:59:29.001Z</time></trkpt><trkpt lat="41.30653131310177" lon="-1.5252607513189982"><ele>666.0</ele><time>2026-05-03T15:59:30.001Z</time></trkpt><trkpt lat="41.30645381300745" lon="-1.5251637557280846"><ele>666.0</ele><time>2026-05-03T15:59:31.001Z</time></trkpt><trkpt lat="41.30637915612929" lon="-1.5250666004542361"><ele>667.0</ele><time>2026-05-03T15:59:32.001Z</time></trkpt><trkpt lat="41.30630353603361" lon="-1.5249676264342187"><ele>668.0</ele><time>2026-05-03T15:59:33.001Z</time></trkpt><trkpt lat="41.30622686284486" lon="-1.5248735207201274"><ele>669.0</ele><time>2026-05-03T15:59:34.001Z</time></trkpt><trkpt lat="41.30615182353391" lon="-1.5247796653511707"><ele>670.0</ele><time>2026-05-03T15:59:35.001Z</time></trkpt><trkpt lat="41.30607796031035" lon="-1.5246818362982362"><ele>671.0</ele><time>2026-05-03T15:59:36.001Z</time></trkpt><trkpt lat="41.30600567821934" lon="-1.5245826396301585"><ele>669.1999999999999</ele><time>2026-05-03T15:59:37.001Z</time></trkpt><trkpt lat="41.30593419597937" lon="-1.5244868661347994"><ele>667.4</ele><time>2026-05-03T15:59:38Z</time></trkpt><trkpt lat="41.30585901886179" lon="-1.5243947765491868"><ele>665.6</ele><time>2026-05-03T15:59:39Z</time></trkpt><trkpt lat="41.305785443156054" lon="-1.524302546358282"><ele>663.8</ele><time>2026-05-03T15:59:40Z</time></trkpt><trkpt lat="41.305712881783904" lon="-1.5242107920003969"><ele>662.0</ele><time>2026-05-03T15:59:41Z</time></trkpt><trkpt lat="41.305640899036845" lon="-1.5241175815601127"><ele>662.8</ele><time>2026-05-03T15:59:42Z</time></trkpt><trkpt lat="41.30556801941575" lon="-1.524024290453841"><ele>663.6</ele><time>2026-05-03T15:59:43Z</time></trkpt><trkpt lat="41.30549628202125" lon="-1.5239316020592684"><ele>664.4</ele><time>2026-05-03T15:59:44Z</time></trkpt><trkpt lat="41.30542540845287" lon="-1.5238373762865711"><ele>665.1999999999999</ele><time>2026-05-03T15:59:45Z</time></trkpt><trkpt lat="41.30535403573651" lon="-1.5237374250725655"><ele>666.0</ele><time>2026-05-03T15:59:46Z</time></trkpt><trkpt lat="41.30527973292641" lon="-1.523642284660584"><ele>666.0</ele><time>2026-05-03T15:59:47Z</time></trkpt><trkpt lat="41.305205308124" lon="-1.5235468887934922"><ele>666.0</ele><time>2026-05-03T15:59:48Z</time></trkpt><trkpt lat="41.30512677103026" lon="-1.5234510928955898"><ele>666.0</ele><time>2026-05-03T15:59:49Z</time></trkpt><trkpt lat="41.305041235843504" lon="-1.523369959409452"><ele>666.0</ele><time>2026-05-03T15:59:50Z</time></trkpt><trkpt lat="41.30494359266245" lon="-1.5233062399623554"><ele>666.0</ele><time>2026-05-03T15:59:51Z</time></trkpt><trkpt lat="41.30483960758424" lon="-1.523266022460402"><ele>666.1999999999999</ele><time>2026-05-03T15:59:52Z</time></trkpt><trkpt lat="41.30473343706698" lon="-1.5232482364780169"><ele>666.4</ele><time>2026-05-03T15:59:53Z</time></trkpt><trkpt lat="41.30462927982509" lon="-1.5232464945452144"><ele>666.6</ele><time>2026-05-03T15:59:54Z</time></trkpt><trkpt lat="41.30452706324817" lon="-1.5232515822392685"><ele>666.8</ele><time>2026-05-03T15:59:55Z</time></trkpt><trkpt lat="41.30442410433126" lon="-1.5232618355390477"><ele>667.0</ele><time>2026-05-03T15:59:56Z</time></trkpt><trkpt lat="41.304319719814764" lon="-1.5232634740883944"><ele>667.0</ele><time>2026-05-03T15:59:57Z</time></trkpt><trkpt lat="41.30421854110147" lon="-1.5232689287114252"><ele>667.0</ele><time>2026-05-03T15:59:58Z</time></trkpt><trkpt lat="41.30411924288755" lon="-1.5232786650944263"><ele>667.0</ele><time>2026-05-03T15:59:59Z</time></trkpt><trkpt lat="41.30402068266802" lon="-1.5232904544462151"><ele>667.0</ele><time>2026-05-03T16:00:00Z</time></trkpt><trkpt lat="41.30392202131882" lon="-1.523308096766735"><ele>667.0</ele><time>2026-05-03T16:00:01Z</time></trkpt><trkpt lat="41.303825557308386" lon="-1.5233393833434539"><ele>666.8</ele><time>2026-05-03T16:00:02Z</time></trkpt><trkpt lat="41.303730977764396" lon="-1.5233837704403863"><ele>666.6</ele><time>2026-05-03T16:00:03Z</time></trkpt><trkpt lat="41.30363635810552" lon="-1.5234362250628133"><ele>666.4</ele><time>2026-05-03T16:00:04Z</time></trkpt><trkpt lat="41.30354187185887" lon="-1.5234951255982037"><ele>666.1999999999999</ele><time>2026-05-03T16:00:05Z</time></trkpt><trkpt lat="41.30344971298809" lon="-1.52356221882303"><ele>666.0</ele><time>2026-05-03T16:00:06Z</time></trkpt><trkpt lat="41.30335595018235" lon="-1.5236261094619636"><ele>666.0</ele><time>2026-05-03T16:00:07Z</time></trkpt><trkpt lat="41.30325755146167" lon="-1.5236779879742817"><ele>666.0</ele><time>2026-05-03T16:00:08Z</time></trkpt><trkpt lat="41.30315770267995" lon="-1.523722292244998"><ele>666.0</ele><time>2026-05-03T16:00:09Z</time></trkpt><trkpt lat="41.30305344628504" lon="-1.5237560929746083"><ele>666.0</ele><time>2026-05-03T16:00:10Z</time></trkpt><trkpt lat="41.30294746476789" lon="-1.5237734687252311"><ele>666.0</ele><time>2026-05-03T16:00:11Z</time></trkpt><trkpt lat="41.30284114208528" lon="-1.523778710514171"><ele>667.1999999999999</ele><time>2026-05-03T16:00:12Z</time></trkpt><trkpt lat="41.3027336236533" lon="-1.5237779486609089"><ele>668.4</ele><time>2026-05-03T16:00:13Z</time></trkpt><trkpt lat="41.302625720715724" lon="-1.5237749831594731"><ele>669.6</ele><time>2026-05-03T16:00:14Z</time></trkpt><trkpt lat="41.30251751828148" lon="-1.5237663781612625"><ele>670.8</ele><time>2026-05-03T16:00:15Z</time></trkpt><trkpt lat="41.30240508050498" lon="-1.5237635777787448"><ele>672.0</ele><time>2026-05-03T16:00:16Z</time></trkpt><trkpt lat="41.30232514130426" lon="-1.5237676436981091"><ele>672.5</ele><time>2026-05-03T16:00:17Z</time></trkpt><trkpt lat="41.30223966099538" lon="-1.5238027098083478"><ele>673.0</ele><time>2026-05-03T16:00:18Z</time></trkpt><trkpt lat="41.30213086345919" lon="-1.523778864782421"><ele>673.5</ele><time>2026-05-03T16:00:19Z</time></trkpt><trkpt lat="41.30198933601281" lon="-1.5237639190593075"><ele>674.0</ele><time>2026-05-03T16:00:20Z</time></trkpt><trkpt lat="41.301813749494904" lon="-1.5237453765885849"><ele>673.0</ele><time>2026-05-03T16:00:21Z</time></trkpt><trkpt lat="41.30173919976658" lon="-1.5236743559307042"><ele>672.0</ele><time>2026-05-03T16:00:22Z</time></trkpt><trkpt lat="41.3016281251165" lon="-1.5236613901249842"><ele>671.0</ele><time>2026-05-03T16:00:23Z</time></trkpt><trkpt lat="41.30151806343763" lon="-1.523653380101778"><ele>670.0</ele><time>2026-05-03T16:00:24Z</time></trkpt><trkpt lat="41.301401028208815" lon="-1.5236370104995145"><ele>669.0</ele><time>2026-05-03T16:00:25Z</time></trkpt><trkpt lat="41.301290441509416" lon="-1.5236259306482174"><ele>668.4000000000001</ele><time>2026-05-03T16:00:26Z</time></trkpt><trkpt lat="41.30117532126426" lon="-1.5236264933458687"><ele>667.8</ele><time>2026-05-03T16:00:27.001Z</time></trkpt><trkpt lat="41.30106392751365" lon="-1.5236182488538828"><ele>667.2</ele><time>2026-05-03T16:00:28.001Z</time></trkpt><trkpt lat="41.300959423807065" lon="-1.5236072837673862"><ele>666.5999999999999</ele><time>2026-05-03T16:00:29.001Z</time></trkpt><trkpt lat="41.300848793822695" lon="-1.5235907031339175"><ele>666.0</ele><time>2026-05-03T16:00:30.001Z</time></trkpt><trkpt lat="41.300739690939714" lon="-1.5235746141825273"><ele>666.0</ele><time>2026-05-03T16:00:31.001Z</time></trkpt><trkpt lat="41.30062975567521" lon="-1.5235597750234755"><ele>666.0</ele><time>2026-05-03T16:00:32.001Z</time></trkpt><trkpt lat="41.30052051338349" lon="-1.5235662936677592"><ele>666.0</ele><time>2026-05-03T16:00:33.001Z</time></trkpt><trkpt lat="41.30041067535023" lon="-1.5235561170780556"><ele>666.0</ele><time>2026-05-03T16:00:34.001Z</time></trkpt><trkpt lat="41.30030361494464" lon="-1.5235336335015501"><ele>666.0</ele><time>2026-05-03T16:00:35.001Z</time></trkpt><trkpt lat="41.300194356153725" lon="-1.5235224812747956"><ele>665.8</ele><time>2026-05-03T16:00:36.001Z</time></trkpt><trkpt lat="41.30008722791805" lon="-1.5235092577004858"><ele>665.5999999999999</ele><time>2026-05-03T16:00:37.001Z</time></trkpt><trkpt lat="41.29997809995005" lon="-1.523498518727071"><ele>665.4</ele><time>2026-05-03T16:00:38.001Z</time></trkpt><trkpt lat="41.29986923831979" lon="-1.5234841616098163"><ele>665.2</ele><time>2026-05-03T16:00:39.001Z</time></trkpt><trkpt lat="41.299763584146795" lon="-1.5234841158694752"><ele>665.0</ele><time>2026-05-03T16:00:40.001Z</time></trkpt><trkpt lat="41.299659329006545" lon="-1.5234720205859233"><ele>665.8</ele><time>2026-05-03T16:00:41.001Z</time></trkpt><trkpt lat="41.2995528295387" lon="-1.523460577242075"><ele>666.6</ele><time>2026-05-03T16:00:42.001Z</time></trkpt><trkpt lat="41.29944323937853" lon="-1.5234468646927837"><ele>667.4000000000001</ele><time>2026-05-03T16:00:43.001Z</time></trkpt><trkpt lat="41.29933867979808" lon="-1.523436495503556"><ele>668.2</ele><time>2026-05-03T16:00:44.001Z</time></trkpt><trkpt lat="41.299234062775824" lon="-1.5234245238864617"><ele>669.0</ele><time>2026-05-03T16:00:45.001Z</time></trkpt><trkpt lat="41.29912548625923" lon="-1.523415253092026"><ele>669.0</ele><time>2026-05-03T16:00:46.001Z</time></trkpt><trkpt lat="41.29901684106335" lon="-1.523406599386218"><ele>669.0</ele><time>2026-05-03T16:00:47.001Z</time></trkpt><trkpt lat="41.29891067846259" lon="-1.5234046756611754"><ele>669.0</ele><time>2026-05-03T16:00:48.001Z</time></trkpt><trkpt lat="41.298803291425585" lon="-1.523390757184355"><ele>669.0</ele><time>2026-05-03T16:00:49.001Z</time></trkpt><trkpt lat="41.29869942015769" lon="-1.5233784135509136"><ele>669.0</ele><time>2026-05-03T16:00:50.001Z</time></trkpt><trkpt lat="41.298592674556765" lon="-1.523372721720445"><ele>669.8000000000001</ele><time>2026-05-03T16:00:51.001Z</time></trkpt><trkpt lat="41.29848893097028" lon="-1.5233567992649892"><ele>670.6</ele><time>2026-05-03T16:00:52.001Z</time></trkpt><trkpt lat="41.298387445737106" lon="-1.5233395999567731"><ele>671.4</ele><time>2026-05-03T16:00:53.001Z</time></trkpt><trkpt lat="41.29828256096929" lon="-1.5233229126544012"><ele>672.2</ele><time>2026-05-03T16:00:54.001Z</time></trkpt><trkpt lat="41.29818191735124" lon="-1.5233177051299542"><ele>673.0</ele><time>2026-05-03T16:00:55.001Z</time></trkpt><trkpt lat="41.298078868597806" lon="-1.5233013716518218"><ele>673.5999999999999</ele><time>2026-05-03T16:00:56.001Z</time></trkpt><trkpt lat="41.29796637402103" lon="-1.5232863075445395"><ele>674.1999999999999</ele><time>2026-05-03T16:00:57.001Z</time></trkpt><trkpt lat="41.29785948774952" lon="-1.5232776275935633"><ele>674.8</ele><time>2026-05-03T16:00:58.001Z</time></trkpt><trkpt lat="41.29775183633606" lon="-1.5232627648623511"><ele>675.4</ele><time>2026-05-03T16:00:59.001Z</time></trkpt><trkpt lat="41.29764358626593" lon="-1.5232508314154887"><ele>676.0</ele><time>2026-05-03T16:01:00.001Z</time></trkpt><trkpt lat="41.2975384993411" lon="-1.5232358274588012"><ele>676.0</ele><time>2026-05-03T16:01:01.001Z</time></trkpt><trkpt lat="41.29743045989601" lon="-1.5232185457111527"><ele>676.0</ele><time>2026-05-03T16:01:02.001Z</time></trkpt><trkpt lat="41.297323104154685" lon="-1.5232036678256125"><ele>676.0</ele><time>2026-05-03T16:01:03.001Z</time></trkpt><trkpt lat="41.297215802770516" lon="-1.523190337396208"><ele>676.0</ele><time>2026-05-03T16:01:04.001Z</time></trkpt><trkpt lat="41.2971064106169" lon="-1.5231778780608576"><ele>676.0</ele><time>2026-05-03T16:01:05.001Z</time></trkpt><trkpt lat="41.296998061178286" lon="-1.5231669701103396"><ele>676.0</ele><time>2026-05-03T16:01:06.001Z</time></trkpt><trkpt lat="41.296889718874404" lon="-1.5231515804550766"><ele>676.0</ele><time>2026-05-03T16:01:07.001Z</time></trkpt><trkpt lat="41.29678237192901" lon="-1.5231352760795636"><ele>676.0</ele><time>2026-05-03T16:01:08.001Z</time></trkpt><trkpt lat="41.296677649112524" lon="-1.5231022066364408"><ele>676.0</ele><time>2026-05-03T16:01:09.001Z</time></trkpt><trkpt lat="41.29657240914292" lon="-1.5230652794294428"><ele>676.0</ele><time>2026-05-03T16:01:10.001Z</time></trkpt><trkpt lat="41.29646056390724" lon="-1.5230328441054488"><ele>675.1999999999999</ele><time>2026-05-03T16:01:11.001Z</time></trkpt><trkpt lat="41.296365066825906" lon="-1.5230026107429837"><ele>674.4</ele><time>2026-05-03T16:01:12.001Z</time></trkpt><trkpt lat="41.29628751319659" lon="-1.5229920943510562"><ele>673.6</ele><time>2026-05-03T16:01:13.001Z</time></trkpt><trkpt lat="41.296201355604175" lon="-1.5229776058949709"><ele>672.8</ele><time>2026-05-03T16:01:14.001Z</time></trkpt><trkpt lat="41.29604942927335" lon="-1.5228773317261308"><ele>672.0</ele><time>2026-05-03T16:01:15.001Z</time></trkpt><trkpt lat="41.295942988583654" lon="-1.522834297910276"><ele>672.0</ele><time>2026-05-03T16:01:16.001Z</time></trkpt><trkpt lat="41.29583753874767" lon="-1.5227929404644613"><ele>672.0</ele><time>2026-05-03T16:01:17.001Z</time></trkpt><trkpt lat="41.29573538218461" lon="-1.5227545994527905"><ele>672.0</ele><time>2026-05-03T16:01:18.001Z</time></trkpt><trkpt lat="41.295630928117795" lon="-1.5227236022459307"><ele>672.0</ele><time>2026-05-03T16:01:19.001Z</time></trkpt><trkpt lat="41.29552672357089" lon="-1.5226805349319894"><ele>672.0</ele><time>2026-05-03T16:01:20.001Z</time></trkpt><trkpt lat="41.29542288235989" lon="-1.5226436228985767"><ele>672.4000000000001</ele><time>2026-05-03T16:01:21.001Z</time></trkpt><trkpt lat="41.295317823328936" lon="-1.5226013936396299"><ele>672.8000000000001</ele><time>2026-05-03T16:01:22.001Z</time></trkpt><trkpt lat="41.295212711738024" lon="-1.522560211547451"><ele>673.2</ele><time>2026-05-03T16:01:23.001Z</time></trkpt><trkpt lat="41.29510749238887" lon="-1.522522458442258"><ele>673.6</ele><time>2026-05-03T16:01:24.001Z</time></trkpt><trkpt lat="41.2949987419906" lon="-1.5224836257903183"><ele>674.0</ele><time>2026-05-03T16:01:25.001Z</time></trkpt><trkpt lat="41.29490046149717" lon="-1.522454627685734"><ele>674.5</ele><time>2026-05-03T16:01:26.001Z</time></trkpt><trkpt lat="41.29457314755104" lon="-1.5223286843127388"><ele>675.0</ele><time>2026-05-03T16:01:29.001Z</time></trkpt><trkpt lat="41.29446647775153" lon="-1.5222863150015855"><ele>675.0</ele><time>2026-05-03T16:01:30.001Z</time></trkpt><trkpt lat="41.294353750182765" lon="-1.5222555604287293"><ele>675.0</ele><time>2026-05-03T16:01:31.001Z</time></trkpt><trkpt lat="41.29424447705318" lon="-1.5222065310038762"><ele>675.0</ele><time>2026-05-03T16:01:32.001Z</time></trkpt><trkpt lat="41.294142412562366" lon="-1.5221634308482554"><ele>675.0</ele><time>2026-05-03T16:01:33.001Z</time></trkpt><trkpt lat="41.29403628148462" lon="-1.5221256881856617"><ele>675.0</ele><time>2026-05-03T16:01:34.001Z</time></trkpt><trkpt lat="41.29393287585401" lon="-1.5220862268681246"><ele>675.4</ele><time>2026-05-03T16:01:35.001Z</time></trkpt><trkpt lat="41.293826699479546" lon="-1.5220640479421665"><ele>675.8</ele><time>2026-05-03T16:01:36.001Z</time></trkpt><trkpt lat="41.29372339420986" lon="-1.5220252796495308"><ele>676.2</ele><time>2026-05-03T16:01:37.001Z</time></trkpt><trkpt lat="41.29362057270444" lon="-1.52198433364957"><ele>676.6</ele><time>2026-05-03T16:01:38.001Z</time></trkpt><trkpt lat="41.29352445653389" lon="-1.5219035247139359"><ele>677.0</ele><time>2026-05-03T16:01:39.001Z</time></trkpt><trkpt lat="41.293435807387894" lon="-1.5218277077010691"><ele>677.0</ele><time>2026-05-03T16:01:40.001Z</time></trkpt><trkpt lat="41.293351097133566" lon="-1.5217406338731334"><ele>677.0</ele><time>2026-05-03T16:01:41.001Z</time></trkpt><trkpt lat="41.29328201115696" lon="-1.5216345760274808"><ele>677.0</ele><time>2026-05-03T16:01:42.001Z</time></trkpt><trkpt lat="41.29320481415848" lon="-1.5215362449672205"><ele>677.0</ele><time>2026-05-03T16:01:43.001Z</time></trkpt><trkpt lat="41.29313400940389" lon="-1.521434185086212"><ele>677.0</ele><time>2026-05-03T16:01:44Z</time></trkpt><trkpt lat="41.293060379691596" lon="-1.5213432982297344"><ele>677.6</ele><time>2026-05-03T16:01:45Z</time></trkpt><trkpt lat="41.29299552596438" lon="-1.5212383922762658"><ele>678.2</ele><time>2026-05-03T16:01:46Z</time></trkpt><trkpt lat="41.29293636568638" lon="-1.5211290254162777"><ele>678.8</ele><time>2026-05-03T16:01:47Z</time></trkpt><trkpt lat="41.29288429635397" lon="-1.5210135765389428"><ele>679.4</ele><time>2026-05-03T16:01:48Z</time></trkpt><trkpt lat="41.29284488095374" lon="-1.5208858947309996"><ele>680.0</ele><time>2026-05-03T16:01:49Z</time></trkpt><trkpt lat="41.292817282924815" lon="-1.520751652863748"><ele>680.0</ele><time>2026-05-03T16:01:50Z</time></trkpt><trkpt lat="41.29280160727645" lon="-1.520614531799951"><ele>680.0</ele><time>2026-05-03T16:01:51Z</time></trkpt><trkpt lat="41.292786455948345" lon="-1.5204736469156195"><ele>680.0</ele><time>2026-05-03T16:01:52Z</time></trkpt><trkpt lat="41.29275744329689" lon="-1.5203340927842894"><ele>680.0</ele><time>2026-05-03T16:01:53Z</time></trkpt><trkpt lat="41.292728869048155" lon="-1.520193342940403"><ele>680.0</ele><time>2026-05-03T16:01:54Z</time></trkpt><trkpt lat="41.292689262640174" lon="-1.5200576404598132"><ele>680.0</ele><time>2026-05-03T16:01:55Z</time></trkpt><trkpt lat="41.29265251576231" lon="-1.5199119516337614"><ele>680.0</ele><time>2026-05-03T16:01:56Z</time></trkpt><trkpt lat="41.29259735013085" lon="-1.5197973132084197"><ele>680.0</ele><time>2026-05-03T16:01:57Z</time></trkpt><trkpt lat="41.29251080063447" lon="-1.5196878552311952"><ele>680.0</ele><time>2026-05-03T16:01:58Z</time></trkpt><trkpt lat="41.29244651555861" lon="-1.519593137101264"><ele>680.0</ele><time>2026-05-03T16:01:59Z</time></trkpt><trkpt lat="41.292323833839994" lon="-1.5195552689694576"><ele>681.0</ele><time>2026-05-03T16:02:01Z</time></trkpt><trkpt lat="41.29219976211108" lon="-1.5194200741717818"><ele>682.0</ele><time>2026-05-03T16:02:02Z</time></trkpt><trkpt lat="41.292093190446096" lon="-1.5192867501451686"><ele>683.0</ele><time>2026-05-03T16:02:03Z</time></trkpt><trkpt lat="41.292004945716386" lon="-1.5191964614260351"><ele>684.0</ele><time>2026-05-03T16:02:04Z</time></trkpt><trkpt lat="41.291923147656775" lon="-1.5191114424965817"><ele>684.0</ele><time>2026-05-03T16:02:05Z</time></trkpt><trkpt lat="41.29184043707876" lon="-1.5190224561879297"><ele>684.0</ele><time>2026-05-03T16:02:06Z</time></trkpt><trkpt lat="41.291756460529875" lon="-1.518939996106788"><ele>684.0</ele><time>2026-05-03T16:02:07Z</time></trkpt><trkpt lat="41.291674284889915" lon="-1.5188589024420671"><ele>684.0</ele><time>2026-05-03T16:02:08Z</time></trkpt><trkpt lat="41.29159406732163" lon="-1.518775701594737"><ele>684.0</ele><time>2026-05-03T16:02:09Z</time></trkpt><trkpt lat="41.29150446611657" lon="-1.5187067851867306"><ele>684.2</ele><time>2026-05-03T16:02:10Z</time></trkpt><trkpt lat="41.29142980681093" lon="-1.5186135605876612"><ele>684.4000000000001</ele><time>2026-05-03T16:02:11Z</time></trkpt><trkpt lat="41.2913476920808" lon="-1.5185330484957373"><ele>684.6</ele><time>2026-05-03T16:02:12Z</time></trkpt><trkpt lat="41.29126590759182" lon="-1.5184521056399303"><ele>684.8</ele><time>2026-05-03T16:02:13Z</time></trkpt><trkpt lat="41.291183788094855" lon="-1.5183750322032816"><ele>685.0</ele><time>2026-05-03T16:02:14Z</time></trkpt><trkpt lat="41.2911018297128" lon="-1.518296119351024"><ele>685.0</ele><time>2026-05-03T16:02:15Z</time></trkpt><trkpt lat="41.291018017611606" lon="-1.5182180775987306"><ele>685.0</ele><time>2026-05-03T16:02:16Z</time></trkpt><trkpt lat="41.29093275208859" lon="-1.5181431169256445"><ele>685.0</ele><time>2026-05-03T16:02:17Z</time></trkpt><trkpt lat="41.290847689695866" lon="-1.5180704985321671"><ele>685.0</ele><time>2026-05-03T16:02:18Z</time></trkpt><trkpt lat="41.29076175420666" lon="-1.5179916394721422"><ele>685.0</ele><time>2026-05-03T16:02:19Z</time></trkpt><trkpt lat="41.290676600019886" lon="-1.517913390369022"><ele>684.8</ele><time>2026-05-03T16:02:20Z</time></trkpt><trkpt lat="41.29059289563354" lon="-1.5178350669026517"><ele>684.6</ele><time>2026-05-03T16:02:21Z</time></trkpt><trkpt lat="41.29050502778553" lon="-1.5177605136024575"><ele>684.4000000000001</ele><time>2026-05-03T16:02:22Z</time></trkpt><trkpt lat="41.290416440738504" lon="-1.517693334547666"><ele>684.2</ele><time>2026-05-03T16:02:23Z</time></trkpt><trkpt lat="41.290329349892154" lon="-1.5176199339958267"><ele>684.0</ele><time>2026-05-03T16:02:24Z</time></trkpt><trkpt lat="41.2902432493916" lon="-1.5175428127297794"><ele>684.6</ele><time>2026-05-03T16:02:25Z</time></trkpt><trkpt lat="41.29015721287893" lon="-1.517466122847376"><ele>685.2</ele><time>2026-05-03T16:02:26Z</time></trkpt><trkpt lat="41.29007332849876" lon="-1.5173862206283388"><ele>685.8000000000001</ele><time>2026-05-03T16:02:27Z</time></trkpt><trkpt lat="41.28997919765137" lon="-1.5173301342825112"><ele>686.4000000000001</ele><time>2026-05-03T16:02:28Z</time></trkpt><trkpt lat="41.28990305958511" lon="-1.517232801577525"><ele>687.0</ele><time>2026-05-03T16:02:29Z</time></trkpt><trkpt lat="41.289816662234564" lon="-1.5171591244061264"><ele>687.0</ele><time>2026-05-03T16:02:30Z</time></trkpt><trkpt lat="41.289726662706" lon="-1.5170832534460332"><ele>687.0</ele><time>2026-05-03T16:02:31Z</time></trkpt><trkpt lat="41.28963573641574" lon="-1.517016297107156"><ele>687.0</ele><time>2026-05-03T16:02:32Z</time></trkpt><trkpt lat="41.289537199379346" lon="-1.5169650894163795"><ele>687.0</ele><time>2026-05-03T16:02:33Z</time></trkpt><trkpt lat="41.28943788426821" lon="-1.5169295233494309"><ele>687.0</ele><time>2026-05-03T16:02:34Z</time></trkpt><trkpt lat="41.2893352823874" lon="-1.516911506256359"><ele>687.0</ele><time>2026-05-03T16:02:35Z</time></trkpt><trkpt lat="41.28923086681853" lon="-1.5169352692735516"><ele>687.0</ele><time>2026-05-03T16:02:36.001Z</time></trkpt><trkpt lat="41.28912484828666" lon="-1.5169252012184626"><ele>687.0</ele><time>2026-05-03T16:02:37.001Z</time></trkpt><trkpt lat="41.289022048690455" lon="-1.5169467651387487"><ele>687.0</ele><time>2026-05-03T16:02:38.001Z</time></trkpt><trkpt lat="41.28891697340066" lon="-1.5169546765588213"><ele>687.0</ele><time>2026-05-03T16:02:39.001Z</time></trkpt><trkpt lat="41.288809298835716" lon="-1.516960963280976"><ele>687.2</ele><time>2026-05-03T16:02:40.001Z</time></trkpt><trkpt lat="41.28870451513994" lon="-1.5169683816071362"><ele>687.4000000000001</ele><time>2026-05-03T16:02:41.001Z</time></trkpt><trkpt lat="41.28859720627988" lon="-1.5169744336906703"><ele>687.5999999999999</ele><time>2026-05-03T16:02:42.001Z</time></trkpt><trkpt lat="41.28849173122263" lon="-1.5169841085953875"><ele>687.8</ele><time>2026-05-03T16:02:43.001Z</time></trkpt><trkpt lat="41.28838612989153" lon="-1.5169883135135718"><ele>688.0</ele><time>2026-05-03T16:02:44.001Z</time></trkpt><trkpt lat="41.28828146894485" lon="-1.516991429612812"><ele>688.0</ele><time>2026-05-03T16:02:45.001Z</time></trkpt><trkpt lat="41.28817586910697" lon="-1.5169925080842301"><ele>688.0</ele><time>2026-05-03T16:02:46.001Z</time></trkpt><trkpt lat="41.28806864473443" lon="-1.5170010316152347"><ele>688.0</ele><time>2026-05-03T16:02:47.001Z</time></trkpt><trkpt lat="41.287963104626755" lon="-1.5170122107573494"><ele>688.0</ele><time>2026-05-03T16:02:48.001Z</time></trkpt><trkpt lat="41.28786010058808" lon="-1.5170196804460085"><ele>688.0</ele><time>2026-05-03T16:02:49.001Z</time></trkpt><trkpt lat="41.28775639129416" lon="-1.5170142695591293"><ele>688.8</ele><time>2026-05-03T16:02:50.001Z</time></trkpt><trkpt lat="41.28765611019932" lon="-1.51699170846345"><ele>689.5999999999999</ele><time>2026-05-03T16:02:51.001Z</time></trkpt><trkpt lat="41.28755422064357" lon="-1.5169620345791877"><ele>690.4000000000001</ele><time>2026-05-03T16:02:52.001Z</time></trkpt><trkpt lat="41.28745098759936" lon="-1.5169297166505464"><ele>691.2</ele><time>2026-05-03T16:02:53.001Z</time></trkpt><trkpt lat="41.287350157654025" lon="-1.5168946394287224"><ele>692.0</ele><time>2026-05-03T16:02:54.001Z</time></trkpt><trkpt lat="41.287253604726594" lon="-1.5168606545440686"><ele>693.0</ele><time>2026-05-03T16:02:55.001Z</time></trkpt><trkpt lat="41.28715183155028" lon="-1.5168190613750299"><ele>694.0</ele><time>2026-05-03T16:02:56.001Z</time></trkpt><trkpt lat="41.287054434851015" lon="-1.5167866176922118"><ele>695.0</ele><time>2026-05-03T16:02:57.001Z</time></trkpt><trkpt lat="41.28695795587234" lon="-1.5167500395720648"><ele>696.0</ele><time>2026-05-03T16:02:58.001Z</time></trkpt><trkpt lat="41.28686058555645" lon="-1.5167115311202108"><ele>697.0</ele><time>2026-05-03T16:02:59.001Z</time></trkpt><trkpt lat="41.28676676733992" lon="-1.5166683401314673"><ele>697.0</ele><time>2026-05-03T16:03:00.001Z</time></trkpt><trkpt lat="41.28667715134054" lon="-1.5166105680050468"><ele>697.0</ele><time>2026-05-03T16:03:01.001Z</time></trkpt><trkpt lat="41.2865897776775" lon="-1.5165367264394662"><ele>697.0</ele><time>2026-05-03T16:03:02.001Z</time></trkpt><trkpt lat="41.28651220565324" lon="-1.5164561357845348"><ele>697.0</ele><time>2026-05-03T16:03:03.001Z</time></trkpt><trkpt lat="41.28643603703118" lon="-1.516367965157281"><ele>697.0</ele><time>2026-05-03T16:03:04.001Z</time></trkpt><trkpt lat="41.286359984815775" lon="-1.5162833458554799"><ele>697.6</ele><time>2026-05-03T16:03:05.001Z</time></trkpt><trkpt lat="41.286283012128415" lon="-1.5162012099260345"><ele>698.2</ele><time>2026-05-03T16:03:06.001Z</time></trkpt><trkpt lat="41.286205031760886" lon="-1.516127079866189"><ele>698.8</ele><time>2026-05-03T16:03:07.001Z</time></trkpt><trkpt lat="41.28611835454452" lon="-1.5160690237782553"><ele>699.4</ele><time>2026-05-03T16:03:08.001Z</time></trkpt><trkpt lat="41.286027630505714" lon="-1.5160149447999485"><ele>700.0</ele><time>2026-05-03T16:03:09.001Z</time></trkpt><trkpt lat="41.285931892183704" lon="-1.5159929265430536"><ele>700.0</ele><time>2026-05-03T16:03:10.001Z</time></trkpt><trkpt lat="41.28584555867073" lon="-1.5159325218972468"><ele>700.0</ele><time>2026-05-03T16:03:11.001Z</time></trkpt><trkpt lat="41.2857544375369" lon="-1.515913663887346"><ele>700.0</ele><time>2026-05-03T16:03:12.001Z</time></trkpt><trkpt lat="41.285662061963556" lon="-1.5158800131497054"><ele>700.0</ele><time>2026-05-03T16:03:13.001Z</time></trkpt><trkpt lat="41.28557049484946" lon="-1.5158496270149462"><ele>700.0</ele><time>2026-05-03T16:03:14.001Z</time></trkpt><trkpt lat="41.28547804815469" lon="-1.5158174072643837"><ele>701.4</ele><time>2026-05-03T16:03:15.001Z</time></trkpt><trkpt lat="41.28538885863082" lon="-1.5157847340038797"><ele>702.8</ele><time>2026-05-03T16:03:16.001Z</time></trkpt><trkpt lat="41.28529808008111" lon="-1.515749897837938"><ele>704.2</ele><time>2026-05-03T16:03:17.001Z</time></trkpt><trkpt lat="41.28520680821877" lon="-1.5157067181850545"><ele>705.6</ele><time>2026-05-03T16:03:18.001Z</time></trkpt><trkpt lat="41.28511994157045" lon="-1.5156548401218415"><ele>707.0</ele><time>2026-05-03T16:03:19.001Z</time></trkpt><trkpt lat="41.285039337504145" lon="-1.5155867217213317"><ele>707.0</ele><time>2026-05-03T16:03:20.001Z</time></trkpt><trkpt lat="41.28495891285899" lon="-1.515516770395944"><ele>707.0</ele><time>2026-05-03T16:03:21.001Z</time></trkpt><trkpt lat="41.28488110077684" lon="-1.5154417630043717"><ele>707.0</ele><time>2026-05-03T16:03:22.001Z</time></trkpt><trkpt lat="41.28480247225872" lon="-1.5153621325697706"><ele>707.0</ele><time>2026-05-03T16:03:23.001Z</time></trkpt><trkpt lat="41.28472540856744" lon="-1.5152842510319702"><ele>707.0</ele><time>2026-05-03T16:03:24.001Z</time></trkpt><trkpt lat="41.28465088599878" lon="-1.5151997728732711"><ele>708.0</ele><time>2026-05-03T16:03:25.001Z</time></trkpt><trkpt lat="41.28458471156399" lon="-1.5151061650468458"><ele>709.0</ele><time>2026-05-03T16:03:26.001Z</time></trkpt><trkpt lat="41.28452111161671" lon="-1.5150047659002022"><ele>710.0</ele><time>2026-05-03T16:03:27.001Z</time></trkpt><trkpt lat="41.28446810520669" lon="-1.5148949980026227"><ele>711.0</ele><time>2026-05-03T16:03:28.001Z</time></trkpt><trkpt lat="41.284419912265754" lon="-1.5147770252516792"><ele>712.0</ele><time>2026-05-03T16:03:29.001Z</time></trkpt><trkpt lat="41.284368190151" lon="-1.5146611903412184"><ele>709.8</ele><time>2026-05-03T16:03:30.001Z</time></trkpt><trkpt lat="41.284310860028064" lon="-1.5145492657655077"><ele>707.6</ele><time>2026-05-03T16:03:31.001Z</time></trkpt><trkpt lat="41.28424735908096" lon="-1.5144365706009617"><ele>705.4</ele><time>2026-05-03T16:03:32.001Z</time></trkpt><trkpt lat="41.28417991676409" lon="-1.514327773670009"><ele>703.1999999999999</ele><time>2026-05-03T16:03:33.001Z</time></trkpt><trkpt lat="41.284112171063285" lon="-1.514219437582781"><ele>701.0</ele><time>2026-05-03T16:03:34.001Z</time></trkpt><trkpt lat="41.284031664757414" lon="-1.5141140604142203"><ele>701.0</ele><time>2026-05-03T16:03:35.001Z</time></trkpt><trkpt lat="41.28396374131262" lon="-1.5139980148111187"><ele>701.0</ele><time>2026-05-03T16:03:36.001Z</time></trkpt><trkpt lat="41.283891009467" lon="-1.5138895520214388"><ele>701.0</ele><time>2026-05-03T16:03:37.001Z</time></trkpt><trkpt lat="41.2838154052294" lon="-1.513782560128121"><ele>701.0</ele><time>2026-05-03T16:03:38.001Z</time></trkpt><trkpt lat="41.28374264717398" lon="-1.5136688078986742"><ele>701.0</ele><time>2026-05-03T16:03:39.001Z</time></trkpt><trkpt lat="41.283668418847974" lon="-1.5135569204323644"><ele>701.4</ele><time>2026-05-03T16:03:40.001Z</time></trkpt><trkpt lat="41.283595367046935" lon="-1.5134443589053397"><ele>701.8</ele><time>2026-05-03T16:03:41.001Z</time></trkpt><trkpt lat="41.2835220278312" lon="-1.5133309294087265"><ele>702.1999999999999</ele><time>2026-05-03T16:03:42.001Z</time></trkpt><trkpt lat="41.28344454319749" lon="-1.5132220106212229"><ele>702.5999999999999</ele><time>2026-05-03T16:03:43.001Z</time></trkpt><trkpt lat="41.28337338061551" lon="-1.5131109172920045"><ele>703.0</ele><time>2026-05-03T16:03:44.001Z</time></trkpt><trkpt lat="41.28330173902723" lon="-1.5129983313274875"><ele>703.0</ele><time>2026-05-03T16:03:45.001Z</time></trkpt><trkpt lat="41.28323068935022" lon="-1.5128899650139334"><ele>703.0</ele><time>2026-05-03T16:03:46.001Z</time></trkpt><trkpt lat="41.28315493788208" lon="-1.512781463078731"><ele>703.0</ele><time>2026-05-03T16:03:47.001Z</time></trkpt><trkpt lat="41.28306741816388" lon="-1.512666748569976"><ele>703.0</ele><time>2026-05-03T16:03:48.001Z</time></trkpt><trkpt lat="41.28297836611015" lon="-1.51253531650566"><ele>703.0</ele><time>2026-05-03T16:03:49.001Z</time></trkpt><trkpt lat="41.28291862707457" lon="-1.5124480422377407"><ele>703.0</ele><time>2026-05-03T16:03:50Z</time></trkpt><trkpt lat="41.28285007846863" lon="-1.5123422859297668"><ele>703.0</ele><time>2026-05-03T16:03:51Z</time></trkpt><trkpt lat="41.28277905968928" lon="-1.5122269877125616"><ele>703.0</ele><time>2026-05-03T16:03:52Z</time></trkpt><trkpt lat="41.28270611806536" lon="-1.5121108317856047"><ele>703.0</ele><time>2026-05-03T16:03:53Z</time></trkpt><trkpt lat="41.28263117600282" lon="-1.512000312369164"><ele>702.5999999999999</ele><time>2026-05-03T16:03:54Z</time></trkpt><trkpt lat="41.28255570553638" lon="-1.51189407855523"><ele>702.1999999999999</ele><time>2026-05-03T16:03:55Z</time></trkpt><trkpt lat="41.282481560015036" lon="-1.5117820802117306"><ele>701.8</ele><time>2026-05-03T16:03:56Z</time></trkpt><trkpt lat="41.28240650486337" lon="-1.5116736954826528"><ele>701.4</ele><time>2026-05-03T16:03:57Z</time></trkpt><trkpt lat="41.282330100351544" lon="-1.5115687549024703"><ele>701.0</ele><time>2026-05-03T16:03:58Z</time></trkpt><trkpt lat="41.28225849262237" lon="-1.5114604093838828"><ele>702.0</ele><time>2026-05-03T16:03:59Z</time></trkpt><trkpt lat="41.282181620454175" lon="-1.511353369001772"><ele>703.0</ele><time>2026-05-03T16:04:00Z</time></trkpt><trkpt lat="41.28210528361696" lon="-1.511256682013758"><ele>704.0</ele><time>2026-05-03T16:04:01Z</time></trkpt><trkpt lat="41.28204149466621" lon="-1.5111616240006154"><ele>705.0</ele><time>2026-05-03T16:04:02Z</time></trkpt><trkpt lat="41.28196500948504" lon="-1.5110244420433283"><ele>706.0</ele><time>2026-05-03T16:04:03Z</time></trkpt><trkpt lat="41.28189110409916" lon="-1.5109141298981053"><ele>706.0</ele><time>2026-05-03T16:04:04Z</time></trkpt><trkpt lat="41.28181740432157" lon="-1.510809483417826"><ele>706.0</ele><time>2026-05-03T16:04:05Z</time></trkpt><trkpt lat="41.28174763127072" lon="-1.5107020795599435"><ele>706.0</ele><time>2026-05-03T16:04:06Z</time></trkpt><trkpt lat="41.28167326271341" lon="-1.5106030082608495"><ele>706.0</ele><time>2026-05-03T16:04:07Z</time></trkpt><trkpt lat="41.28160365870422" lon="-1.5104979703349175"><ele>706.0</ele><time>2026-05-03T16:04:08Z</time></trkpt><trkpt lat="41.281534943454815" lon="-1.5103954040202898"><ele>706.0</ele><time>2026-05-03T16:04:09Z</time></trkpt><trkpt lat="41.28146611439908" lon="-1.5102911064392326"><ele>706.0</ele><time>2026-05-03T16:04:10Z</time></trkpt><trkpt lat="41.28139245335377" lon="-1.5101932849852606"><ele>706.0</ele><time>2026-05-03T16:04:11Z</time></trkpt><trkpt lat="41.28132367300839" lon="-1.5100918485263848"><ele>706.0</ele><time>2026-05-03T16:04:12Z</time></trkpt><trkpt lat="41.281235621514554" lon="-1.5100137289137594"><ele>706.0</ele><time>2026-05-03T16:04:13Z</time></trkpt><trkpt lat="41.28114737906758" lon="-1.5099442938504815"><ele>706.0</ele><time>2026-05-03T16:04:14Z</time></trkpt><trkpt lat="41.2810555316554" lon="-1.5098957228770802"><ele>706.0</ele><time>2026-05-03T16:04:15Z</time></trkpt><trkpt lat="41.280963118950424" lon="-1.5098498064084585"><ele>706.0</ele><time>2026-05-03T16:04:16Z</time></trkpt><trkpt lat="41.28087326866493" lon="-1.5098088930911064"><ele>706.0</ele><time>2026-05-03T16:04:17Z</time></trkpt><trkpt lat="41.280783300917356" lon="-1.5097678919839395"><ele>706.0</ele><time>2026-05-03T16:04:18Z</time></trkpt><trkpt lat="41.280695177651786" lon="-1.509727456630839"><ele>706.0</ele><time>2026-05-03T16:04:19Z</time></trkpt><trkpt lat="41.280606645504896" lon="-1.509685571771436"><ele>706.0</ele><time>2026-05-03T16:04:20Z</time></trkpt><trkpt lat="41.28051961893892" lon="-1.509644399090343"><ele>706.0</ele><time>2026-05-03T16:04:21Z</time></trkpt><trkpt lat="41.28043258990277" lon="-1.509602155796084"><ele>706.0</ele><time>2026-05-03T16:04:22Z</time></trkpt><trkpt lat="41.280347316490094" lon="-1.5095600382139742"><ele>706.0</ele><time>2026-05-03T16:04:23Z</time></trkpt><trkpt lat="41.28026341795457" lon="-1.5095185997849994"><ele>706.4</ele><time>2026-05-03T16:04:24Z</time></trkpt><trkpt lat="41.28017907421601" lon="-1.5094769414284068"><ele>706.8</ele><time>2026-05-03T16:04:25Z</time></trkpt><trkpt lat="41.28009544791713" lon="-1.509436517860452"><ele>707.1999999999999</ele><time>2026-05-03T16:04:26Z</time></trkpt><trkpt lat="41.28001128520653" lon="-1.5093963787044085"><ele>707.5999999999999</ele><time>2026-05-03T16:04:27Z</time></trkpt><trkpt lat="41.27992339587208" lon="-1.5093544215481387"><ele>708.0</ele><time>2026-05-03T16:04:28Z</time></trkpt><trkpt lat="41.27983787584337" lon="-1.5093135370077724"><ele>709.0</ele><time>2026-05-03T16:04:29Z</time></trkpt><trkpt lat="41.27975698310781" lon="-1.5092529839576518"><ele>710.0</ele><time>2026-05-03T16:04:30Z</time></trkpt><trkpt lat="41.279671514543566" lon="-1.5092140671794787"><ele>711.0</ele><time>2026-05-03T16:04:31Z</time></trkpt><trkpt lat="41.27958005047673" lon="-1.5091748236071816"><ele>712.0</ele><time>2026-05-03T16:04:32Z</time></trkpt><trkpt lat="41.27949127931122" lon="-1.5091340269504567"><ele>713.0</ele><time>2026-05-03T16:04:33Z</time></trkpt><trkpt lat="41.279400852493055" lon="-1.5090912550328615"><ele>713.0</ele><time>2026-05-03T16:04:34Z</time></trkpt><trkpt lat="41.27931086350089" lon="-1.5090474341467297"><ele>713.0</ele><time>2026-05-03T16:04:35Z</time></trkpt><trkpt lat="41.27921892431562" lon="-1.5090033707935069"><ele>713.0</ele><time>2026-05-03T16:04:36Z</time></trkpt><trkpt lat="41.279127610068954" lon="-1.5089576657748216"><ele>713.0</ele><time>2026-05-03T16:04:37Z</time></trkpt><trkpt lat="41.27903734095668" lon="-1.5089143059438161"><ele>713.0</ele><time>2026-05-03T16:04:38Z</time></trkpt><trkpt lat="41.27894584616699" lon="-1.5088673303866473"><ele>713.0</ele><time>2026-05-03T16:04:39Z</time></trkpt><trkpt lat="41.27885274224714" lon="-1.508820505093329"><ele>713.0</ele><time>2026-05-03T16:04:40Z</time></trkpt><trkpt lat="41.27876194314453" lon="-1.5087766424896183"><ele>713.0</ele><time>2026-05-03T16:04:41Z</time></trkpt><trkpt lat="41.27866972544656" lon="-1.5087352097401545"><ele>713.0</ele><time>2026-05-03T16:04:42Z</time></trkpt><trkpt lat="41.27857649152225" lon="-1.5086921110297395"><ele>713.0</ele><time>2026-05-03T16:04:43.001Z</time></trkpt><trkpt lat="41.27848378016276" lon="-1.5086467401023187"><ele>713.0</ele><time>2026-05-03T16:04:44.001Z</time></trkpt><trkpt lat="41.278394167676915" lon="-1.5086020665169038"><ele>713.0</ele><time>2026-05-03T16:04:45.001Z</time></trkpt><trkpt lat="41.27829990063672" lon="-1.5085556561629982"><ele>713.0</ele><time>2026-05-03T16:04:46.001Z</time></trkpt><trkpt lat="41.278208959383086" lon="-1.5085114793510912"><ele>713.0</ele><time>2026-05-03T16:04:47.001Z</time></trkpt><trkpt lat="41.278118917538144" lon="-1.508466773621577"><ele>713.0</ele><time>2026-05-03T16:04:48.001Z</time></trkpt><trkpt lat="41.27803016949328" lon="-1.5084176054681875"><ele>714.2</ele><time>2026-05-03T16:04:49.001Z</time></trkpt><trkpt lat="41.2779333252203" lon="-1.5083918449240044"><ele>715.4</ele><time>2026-05-03T16:04:50.001Z</time></trkpt><trkpt lat="41.277842664319955" lon="-1.5083488716194855"><ele>716.6</ele><time>2026-05-03T16:04:51.001Z</time></trkpt><trkpt lat="41.27774900057236" lon="-1.5083064113867417"><ele>717.8000000000001</ele><time>2026-05-03T16:04:52.001Z</time></trkpt><trkpt lat="41.27765404359754" lon="-1.5082621639142504"><ele>719.0</ele><time>2026-05-03T16:04:53.001Z</time></trkpt><trkpt lat="41.27756219418148" lon="-1.5081978687453623"><ele>719.0</ele><time>2026-05-03T16:04:54.001Z</time></trkpt><trkpt lat="41.27746498444322" lon="-1.5081531697709705"><ele>719.0</ele><time>2026-05-03T16:04:55.001Z</time></trkpt><trkpt lat="41.27737147597099" lon="-1.5080944517861867"><ele>719.0</ele><time>2026-05-03T16:04:56.001Z</time></trkpt><trkpt lat="41.27727315855394" lon="-1.508046342322438"><ele>719.0</ele><time>2026-05-03T16:04:57.001Z</time></trkpt><trkpt lat="41.27718785575234" lon="-1.5079684775366096"><ele>719.0</ele><time>2026-05-03T16:04:58.001Z</time></trkpt><trkpt lat="41.27710364015418" lon="-1.5078818202823518"><ele>718.8000000000001</ele><time>2026-05-03T16:04:59.001Z</time></trkpt><trkpt lat="41.27702864000685" lon="-1.5077735176831355"><ele>718.6</ele><time>2026-05-03T16:05:00.001Z</time></trkpt><trkpt lat="41.27693559150965" lon="-1.507698260161477"><ele>718.4</ele><time>2026-05-03T16:05:01.001Z</time></trkpt><trkpt lat="41.27685190426917" lon="-1.5075947947747879"><ele>718.2</ele><time>2026-05-03T16:05:02.001Z</time></trkpt><trkpt lat="41.27677421747047" lon="-1.5075041217389538"><ele>718.0</ele><time>2026-05-03T16:05:03.001Z</time></trkpt><trkpt lat="41.27668142069364" lon="-1.507417134511388"><ele>718.0</ele><time>2026-05-03T16:05:04.001Z</time></trkpt><trkpt lat="41.276597614406036" lon="-1.5073250361349495"><ele>718.0</ele><time>2026-05-03T16:05:05.001Z</time></trkpt><trkpt lat="41.27651253192607" lon="-1.5072423440020186"><ele>718.0</ele><time>2026-05-03T16:05:06.001Z</time></trkpt><trkpt lat="41.276414117125" lon="-1.507201190743435"><ele>718.0</ele><time>2026-05-03T16:05:07.001Z</time></trkpt><trkpt lat="41.27634276811728" lon="-1.5071194902354152"><ele>718.0</ele><time>2026-05-03T16:05:08.001Z</time></trkpt><trkpt lat="41.27626079702137" lon="-1.5069418350201056"><ele>718.0</ele><time>2026-05-03T16:05:09.001Z</time></trkpt><trkpt lat="41.27617363472323" lon="-1.5068455625458521"><ele>718.0</ele><time>2026-05-03T16:05:10.001Z</time></trkpt><trkpt lat="41.27608521964048" lon="-1.5067564331500072"><ele>718.0</ele><time>2026-05-03T16:05:11.001Z</time></trkpt><trkpt lat="41.27599965478237" lon="-1.5066563512556261"><ele>718.0</ele><time>2026-05-03T16:05:12.001Z</time></trkpt><trkpt lat="41.27590860403184" lon="-1.5065669348092088"><ele>718.0</ele><time>2026-05-03T16:05:13.001Z</time></trkpt><trkpt lat="41.27582249146583" lon="-1.5064711512633011"><ele>718.0</ele><time>2026-05-03T16:05:14.001Z</time></trkpt><trkpt lat="41.27573761472421" lon="-1.5063772111051459"><ele>718.0</ele><time>2026-05-03T16:05:15.001Z</time></trkpt><trkpt lat="41.275649801122334" lon="-1.5062812984059635"><ele>718.0</ele><time>2026-05-03T16:05:16.001Z</time></trkpt><trkpt lat="41.27556559392804" lon="-1.5061899605045197"><ele>718.0</ele><time>2026-05-03T16:05:17.001Z</time></trkpt><trkpt lat="41.27547668982297" lon="-1.5061003393269363"><ele>718.2</ele><time>2026-05-03T16:05:18.001Z</time></trkpt><trkpt lat="41.27539640560801" lon="-1.5060012349092973"><ele>718.4</ele><time>2026-05-03T16:05:19.001Z</time></trkpt><trkpt lat="41.27530826176635" lon="-1.5059125118209629"><ele>718.6</ele><time>2026-05-03T16:05:20.001Z</time></trkpt><trkpt lat="41.27522248971586" lon="-1.5058127917224464"><ele>718.8000000000001</ele><time>2026-05-03T16:05:21.001Z</time></trkpt><trkpt lat="41.27513798214721" lon="-1.5057156015370303"><ele>719.0</ele><time>2026-05-03T16:05:22.001Z</time></trkpt><trkpt lat="41.27504986020264" lon="-1.5056239437940806"><ele>719.0</ele><time>2026-05-03T16:05:23.001Z</time></trkpt><trkpt lat="41.274967716848636" lon="-1.5055277288858004"><ele>719.0</ele><time>2026-05-03T16:05:24.001Z</time></trkpt><trkpt lat="41.274885350282176" lon="-1.5054315666635603"><ele>719.0</ele><time>2026-05-03T16:05:25.001Z</time></trkpt><trkpt lat="41.27480406003915" lon="-1.505341749910759"><ele>719.0</ele><time>2026-05-03T16:05:26.001Z</time></trkpt><trkpt lat="41.27472404191856" lon="-1.5052510396743815"><ele>719.0</ele><time>2026-05-03T16:05:27.001Z</time></trkpt><trkpt lat="41.27464504523014" lon="-1.5051623255507243"><ele>720.6</ele><time>2026-05-03T16:05:28.001Z</time></trkpt><trkpt lat="41.27456297296682" lon="-1.5050767763991888"><ele>722.2</ele><time>2026-05-03T16:05:29.001Z</time></trkpt><trkpt lat="41.27448477488865" lon="-1.504987221371219"><ele>723.8000000000001</ele><time>2026-05-03T16:05:30.001Z</time></trkpt><trkpt lat="41.27441065725467" lon="-1.5048997698514581"><ele>725.4000000000001</ele><time>2026-05-03T16:05:31.001Z</time></trkpt><trkpt lat="41.27433357211525" lon="-1.50481367217089"><ele>727.0</ele><time>2026-05-03T16:05:32.001Z</time></trkpt><trkpt lat="41.274255632080596" lon="-1.5047312611993067"><ele>727.0</ele><time>2026-05-03T16:05:33.001Z</time></trkpt><trkpt lat="41.27417859023364" lon="-1.5046477389055035"><ele>727.0</ele><time>2026-05-03T16:05:34.001Z</time></trkpt><trkpt lat="41.27410137667752" lon="-1.5045625596541348"><ele>727.0</ele><time>2026-05-03T16:05:35.001Z</time></trkpt><trkpt lat="41.27402992209677" lon="-1.5044747972438226"><ele>727.0</ele><time>2026-05-03T16:05:36.001Z</time></trkpt><trkpt lat="41.27395317161236" lon="-1.5043852740368298"><ele>727.0</ele><time>2026-05-03T16:05:37.001Z</time></trkpt><trkpt lat="41.273876364775134" lon="-1.504303738611848"><ele>727.4000000000001</ele><time>2026-05-03T16:05:38.001Z</time></trkpt><trkpt lat="41.273795629160574" lon="-1.5042214586696592"><ele>727.8000000000001</ele><time>2026-05-03T16:05:39.001Z</time></trkpt><trkpt lat="41.273719612296425" lon="-1.5041425922015823"><ele>728.2</ele><time>2026-05-03T16:05:40.001Z</time></trkpt><trkpt lat="41.27364105798066" lon="-1.5040570143695882"><ele>728.6</ele><time>2026-05-03T16:05:41.001Z</time></trkpt><trkpt lat="41.27356538920942" lon="-1.5039762224523936"><ele>729.0</ele><time>2026-05-03T16:05:42.001Z</time></trkpt><trkpt lat="41.27348776404795" lon="-1.5038947279259447"><ele>729.0</ele><time>2026-05-03T16:05:43.001Z</time></trkpt><trkpt lat="41.27340961442919" lon="-1.5038141551327757"><ele>729.0</ele><time>2026-05-03T16:05:44.001Z</time></trkpt><trkpt lat="41.27333780289726" lon="-1.5037308301545222"><ele>729.0</ele><time>2026-05-03T16:05:45.001Z</time></trkpt><trkpt lat="41.27326500149253" lon="-1.5036463639551625"><ele>729.0</ele><time>2026-05-03T16:05:46.001Z</time></trkpt><trkpt lat="41.27319250919671" lon="-1.5035642186985156"><ele>729.0</ele><time>2026-05-03T16:05:47.001Z</time></trkpt><trkpt lat="41.27311780136804" lon="-1.5034847627830217"><ele>728.8000000000001</ele><time>2026-05-03T16:05:48.001Z</time></trkpt><trkpt lat="41.273042104623826" lon="-1.503402637578156"><ele>728.6</ele><time>2026-05-03T16:05:49.001Z</time></trkpt><trkpt lat="41.272970708541486" lon="-1.5033200047801816"><ele>728.4</ele><time>2026-05-03T16:05:50.001Z</time></trkpt><trkpt lat="41.2728930895764" lon="-1.5032355136256315"><ele>728.2</ele><time>2026-05-03T16:05:51.001Z</time></trkpt><trkpt lat="41.27281398300433" lon="-1.503155748011644"><ele>728.0</ele><time>2026-05-03T16:05:52.001Z</time></trkpt><trkpt lat="41.272727305307285" lon="-1.5030795024066805"><ele>728.0</ele><time>2026-05-03T16:05:53.001Z</time></trkpt><trkpt lat="41.27263477709607" lon="-1.5030168623524671"><ele>728.0</ele><time>2026-05-03T16:05:54.001Z</time></trkpt><trkpt lat="41.272525350264836" lon="-1.502998831325731"><ele>728.0</ele><time>2026-05-03T16:05:55.001Z</time></trkpt><trkpt lat="41.27242585283242" lon="-1.5030002770312"><ele>728.0</ele><time>2026-05-03T16:05:56Z</time></trkpt><trkpt lat="41.272315916065956" lon="-1.503013295606722"><ele>728.0</ele><time>2026-05-03T16:05:57Z</time></trkpt><trkpt lat="41.27220922898158" lon="-1.5030292554994862"><ele>727.8</ele><time>2026-05-03T16:05:58Z</time></trkpt><trkpt lat="41.272102402227155" lon="-1.5030458373863866"><ele>727.5999999999999</ele><time>2026-05-03T16:05:59Z</time></trkpt><trkpt lat="41.27199509196972" lon="-1.5030624943386528"><ele>727.4000000000001</ele><time>2026-05-03T16:06:00Z</time></trkpt><trkpt lat="41.27188709515251" lon="-1.5030582006615303"><ele>727.2</ele><time>2026-05-03T16:06:01Z</time></trkpt><trkpt lat="41.27177735939081" lon="-1.5030738203669112"><ele>727.0</ele><time>2026-05-03T16:06:02Z</time></trkpt><trkpt lat="41.27166999204479" lon="-1.5030914961752262"><ele>727.0</ele><time>2026-05-03T16:06:03Z</time></trkpt><trkpt lat="41.271562655047596" lon="-1.503098167488385"><ele>727.0</ele><time>2026-05-03T16:06:04Z</time></trkpt><trkpt lat="41.2714512436314" lon="-1.5031136625877262"><ele>727.0</ele><time>2026-05-03T16:06:05Z</time></trkpt><trkpt lat="41.27134573305052" lon="-1.503127241724629"><ele>727.0</ele><time>2026-05-03T16:06:06Z</time></trkpt><trkpt lat="41.271237865667715" lon="-1.5031377382808582"><ele>727.0</ele><time>2026-05-03T16:06:07Z</time></trkpt><trkpt lat="41.27113217868796" lon="-1.50315292070536"><ele>727.2</ele><time>2026-05-03T16:06:08Z</time></trkpt><trkpt lat="41.27102440765492" lon="-1.5031677114647537"><ele>727.4000000000001</ele><time>2026-05-03T16:06:09Z</time></trkpt><trkpt lat="41.27091670812492" lon="-1.5031802935310141"><ele>727.5999999999999</ele><time>2026-05-03T16:06:10Z</time></trkpt><trkpt lat="41.2708094261273" lon="-1.5031900595278656"><ele>727.8</ele><time>2026-05-03T16:06:11Z</time></trkpt><trkpt lat="41.270704782288234" lon="-1.5032022603695423"><ele>728.0</ele><time>2026-05-03T16:06:12Z</time></trkpt><trkpt lat="41.270600824057844" lon="-1.5032123576396423"><ele>728.2</ele><time>2026-05-03T16:06:13Z</time></trkpt><trkpt lat="41.270497581918356" lon="-1.5032239586156264"><ele>728.4</ele><time>2026-05-03T16:06:14Z</time></trkpt><trkpt lat="41.27039276570005" lon="-1.503236784966988"><ele>728.6</ele><time>2026-05-03T16:06:15Z</time></trkpt><trkpt lat="41.27029037646302" lon="-1.5032545489573557"><ele>728.8000000000001</ele><time>2026-05-03T16:06:16Z</time></trkpt><trkpt lat="41.27018451818495" lon="-1.5032680181996032"><ele>729.0</ele><time>2026-05-03T16:06:17Z</time></trkpt><trkpt lat="41.27007918976007" lon="-1.503280187630519"><ele>729.0</ele><time>2026-05-03T16:06:18Z</time></trkpt><trkpt lat="41.26997088726557" lon="-1.5032924656794946"><ele>729.0</ele><time>2026-05-03T16:06:19Z</time></trkpt><trkpt lat="41.26986567064735" lon="-1.5033065561111947"><ele>729.0</ele><time>2026-05-03T16:06:20Z</time></trkpt><trkpt lat="41.26975762165859" lon="-1.5033157377282145"><ele>729.0</ele><time>2026-05-03T16:06:21Z</time></trkpt><trkpt lat="41.269649180504615" lon="-1.5033230653859686"><ele>729.0</ele><time>2026-05-03T16:06:22Z</time></trkpt><trkpt lat="41.26954600203857" lon="-1.5033350643601529"><ele>729.2</ele><time>2026-05-03T16:06:23Z</time></trkpt><trkpt lat="41.26943882788121" lon="-1.5033269354566428"><ele>729.4000000000001</ele><time>2026-05-03T16:06:24Z</time></trkpt><trkpt lat="41.26933530285292" lon="-1.503322592610998"><ele>729.6</ele><time>2026-05-03T16:06:25Z</time></trkpt><trkpt lat="41.269228577868965" lon="-1.5033170980377573"><ele>729.8</ele><time>2026-05-03T16:06:26Z</time></trkpt><trkpt lat="41.269124549856556" lon="-1.5032945256876156"><ele>730.0</ele><time>2026-05-03T16:06:27Z</time></trkpt><trkpt lat="41.2690200949701" lon="-1.5032733823815094"><ele>730.2</ele><time>2026-05-03T16:06:28Z</time></trkpt><trkpt lat="41.268915275415374" lon="-1.503243894018921"><ele>730.4</ele><time>2026-05-03T16:06:29Z</time></trkpt><trkpt lat="41.268813318583305" lon="-1.5032127649746256"><ele>730.5999999999999</ele><time>2026-05-03T16:06:30Z</time></trkpt><trkpt lat="41.268713022064205" lon="-1.5031967009062466"><ele>730.8</ele><time>2026-05-03T16:06:31Z</time></trkpt><trkpt lat="41.26860985467031" lon="-1.5031697672312525"><ele>731.0</ele><time>2026-05-03T16:06:32Z</time></trkpt><trkpt lat="41.26850952656439" lon="-1.503145279518108"><ele>731.0</ele><time>2026-05-03T16:06:33Z</time></trkpt><trkpt lat="41.26840977045357" lon="-1.5031192401668096"><ele>731.0</ele><time>2026-05-03T16:06:34Z</time></trkpt><trkpt lat="41.2683101130201" lon="-1.5030905465010511"><ele>731.0</ele><time>2026-05-03T16:06:35Z</time></trkpt><trkpt lat="41.26821303275337" lon="-1.5030635480682142"><ele>731.0</ele><time>2026-05-03T16:06:36Z</time></trkpt><trkpt lat="41.2681121557308" lon="-1.5030332241473339"><ele>731.0</ele><time>2026-05-03T16:06:37Z</time></trkpt><trkpt lat="41.26801087695806" lon="-1.503005926495033"><ele>731.4</ele><time>2026-05-03T16:06:38Z</time></trkpt><trkpt lat="41.26791198390185" lon="-1.5029808407973655"><ele>731.8</ele><time>2026-05-03T16:06:39Z</time></trkpt><trkpt lat="41.267813303485994" lon="-1.5029537068162908"><ele>732.1999999999999</ele><time>2026-05-03T16:06:40Z</time></trkpt><trkpt lat="41.26771264788594" lon="-1.50293252243882"><ele>732.5999999999999</ele><time>2026-05-03T16:06:41Z</time></trkpt><trkpt lat="41.26761567539503" lon="-1.502900734247814"><ele>733.0</ele><time>2026-05-03T16:06:42Z</time></trkpt><trkpt lat="41.26751659667976" lon="-1.5028802434556212"><ele>733.0</ele><time>2026-05-03T16:06:43Z</time></trkpt><trkpt lat="41.26741683819562" lon="-1.5028513002922237"><ele>733.0</ele><time>2026-05-03T16:06:44Z</time></trkpt><trkpt lat="41.26731743082399" lon="-1.5028258621116153"><ele>733.0</ele><time>2026-05-03T16:06:45Z</time></trkpt><trkpt lat="41.26721833232635" lon="-1.5027991068663817"><ele>733.0</ele><time>2026-05-03T16:06:46.001Z</time></trkpt><trkpt lat="41.26711601492805" lon="-1.5027800009056667"><ele>733.0</ele><time>2026-05-03T16:06:47.001Z</time></trkpt><trkpt lat="41.26701416856533" lon="-1.502749614303808"><ele>733.0</ele><time>2026-05-03T16:06:48.001Z</time></trkpt><trkpt lat="41.26691153774696" lon="-1.5027307624479989"><ele>733.0</ele><time>2026-05-03T16:06:49.001Z</time></trkpt><trkpt lat="41.26681065833355" lon="-1.5026995898355506"><ele>733.0</ele><time>2026-05-03T16:06:50.001Z</time></trkpt><trkpt lat="41.266710649309665" lon="-1.5026797825127154"><ele>733.0</ele><time>2026-05-03T16:06:51.001Z</time></trkpt><trkpt lat="41.26661210846473" lon="-1.5026562692022432"><ele>733.0</ele><time>2026-05-03T16:06:52.001Z</time></trkpt><trkpt lat="41.266510059537" lon="-1.502634640723523"><ele>734.0</ele><time>2026-05-03T16:06:53.001Z</time></trkpt><trkpt lat="41.2664090286314" lon="-1.5026136516614192"><ele>735.0</ele><time>2026-05-03T16:06:54.001Z</time></trkpt><trkpt lat="41.26630420141803" lon="-1.5025905417592498"><ele>736.0</ele><time>2026-05-03T16:06:55.001Z</time></trkpt><trkpt lat="41.26619989246682" lon="-1.502562440453527"><ele>737.0</ele><time>2026-05-03T16:06:56.001Z</time></trkpt><trkpt lat="41.2660991214849" lon="-1.5025334545291595"><ele>738.0</ele><time>2026-05-03T16:06:57.001Z</time></trkpt><trkpt lat="41.2659973614019" lon="-1.5025002385448736"><ele>738.0</ele><time>2026-05-03T16:06:58.001Z</time></trkpt><trkpt lat="41.26589665330201" lon="-1.502464801862462"><ele>738.0</ele><time>2026-05-03T16:06:59.001Z</time></trkpt><trkpt lat="41.26580304606454" lon="-1.5024098759485531"><ele>738.0</ele><time>2026-05-03T16:07:00.001Z</time></trkpt><trkpt lat="41.26571493145822" lon="-1.5023346036329668"><ele>738.0</ele><time>2026-05-03T16:07:01.001Z</time></trkpt><trkpt lat="41.265631266702016" lon="-1.5022461490491994"><ele>738.0</ele><time>2026-05-03T16:07:02.001Z</time></trkpt><trkpt lat="41.265550058892536" lon="-1.5021620199526635"><ele>737.4</ele><time>2026-05-03T16:07:03.001Z</time></trkpt><trkpt lat="41.265467475576244" lon="-1.502079987347455"><ele>736.8</ele><time>2026-05-03T16:07:04.001Z</time></trkpt><trkpt lat="41.265384362475146" lon="-1.5019947858625806"><ele>736.2</ele><time>2026-05-03T16:07:05.001Z</time></trkpt><trkpt lat="41.265313082816405" lon="-1.501920248135038"><ele>735.6</ele><time>2026-05-03T16:07:06.001Z</time></trkpt><trkpt lat="41.26524623862644" lon="-1.5018368834357254"><ele>735.0</ele><time>2026-05-03T16:07:07.001Z</time></trkpt><trkpt lat="41.265191467660735" lon="-1.501741209335187"><ele>735.0</ele><time>2026-05-03T16:07:08.001Z</time></trkpt><trkpt lat="41.26514774345067" lon="-1.5016295083843958"><ele>735.0</ele><time>2026-05-03T16:07:09.001Z</time></trkpt><trkpt lat="41.265127755731285" lon="-1.5015017727886155"><ele>735.0</ele><time>2026-05-03T16:07:10.001Z</time></trkpt><trkpt lat="41.26512208903068" lon="-1.5013686095711785"><ele>735.0</ele><time>2026-05-03T16:07:11.001Z</time></trkpt><trkpt lat="41.2651324744689" lon="-1.501233064678178"><ele>735.0</ele><time>2026-05-03T16:07:12.001Z</time></trkpt><trkpt lat="41.265148783890986" lon="-1.5010992978350663"><ele>735.0</ele><time>2026-05-03T16:07:13.001Z</time></trkpt><trkpt lat="41.265160169592555" lon="-1.5009628131885973"><ele>735.0</ele><time>2026-05-03T16:07:14.001Z</time></trkpt><trkpt lat="41.265166493754286" lon="-1.50082398956318"><ele>735.0</ele><time>2026-05-03T16:07:15.001Z</time></trkpt><trkpt lat="41.26517284084096" lon="-1.50068557242788"><ele>735.0</ele><time>2026-05-03T16:07:16.001Z</time></trkpt><trkpt lat="41.26517883372392" lon="-1.5005468787827336"><ele>735.0</ele><time>2026-05-03T16:07:17.001Z</time></trkpt><trkpt lat="41.26518479053438" lon="-1.500408319470773"><ele>735.0</ele><time>2026-05-03T16:07:18.001Z</time></trkpt><trkpt lat="41.26519248686779" lon="-1.5002678663156837"><ele>735.0</ele><time>2026-05-03T16:07:19.001Z</time></trkpt><trkpt lat="41.265199264447915" lon="-1.5001257433120492"><ele>735.0</ele><time>2026-05-03T16:07:20.001Z</time></trkpt><trkpt lat="41.265207326619695" lon="-1.4999827615580383"><ele>735.0</ele><time>2026-05-03T16:07:21.001Z</time></trkpt><trkpt lat="41.26521694341117" lon="-1.4998394849662193"><ele>735.0</ele><time>2026-05-03T16:07:22.001Z</time></trkpt><trkpt lat="41.26522818915341" lon="-1.4997053486474092"><ele>735.6</ele><time>2026-05-03T16:07:23.001Z</time></trkpt><trkpt lat="41.26523603633199" lon="-1.4995677230348254"><ele>736.2</ele><time>2026-05-03T16:07:24.001Z</time></trkpt><trkpt lat="41.265242139967185" lon="-1.4994426273404966"><ele>736.8</ele><time>2026-05-03T16:07:25.001Z</time></trkpt><trkpt lat="41.26524270458061" lon="-1.499320504576459"><ele>737.4</ele><time>2026-05-03T16:07:26.001Z</time></trkpt><trkpt lat="41.265232609833234" lon="-1.4992022258220408"><ele>738.0</ele><time>2026-05-03T16:07:27.001Z</time></trkpt><trkpt lat="41.26519900478051" lon="-1.4990852146832534"><ele>738.0</ele><time>2026-05-03T16:07:28.001Z</time></trkpt><trkpt lat="41.265141532665055" lon="-1.498987606934644"><ele>738.0</ele><time>2026-05-03T16:07:29.001Z</time></trkpt><trkpt lat="41.26506371867689" lon="-1.4989162435554557"><ele>738.0</ele><time>2026-05-03T16:07:30.001Z</time></trkpt><trkpt lat="41.2649764253182" lon="-1.4988773051756443"><ele>738.0</ele><time>2026-05-03T16:07:31.001Z</time></trkpt><trkpt lat="41.2648892354572" lon="-1.4988528042255789"><ele>738.0</ele><time>2026-05-03T16:07:32.001Z</time></trkpt><trkpt lat="41.264812101045116" lon="-1.4988236304848817"><ele>738.0</ele><time>2026-05-03T16:07:33.001Z</time></trkpt><trkpt lat="41.26473574342665" lon="-1.4987757432991908"><ele>739.6666666666666</ele><time>2026-05-03T16:07:34.001Z</time></trkpt><trkpt lat="41.26466451412697" lon="-1.4987216398363583"><ele>741.3333333333334</ele><time>2026-05-03T16:07:35.001Z</time></trkpt><trkpt lat="41.264594862750755" lon="-1.4986651332789445"><ele>743.0</ele><time>2026-05-03T16:07:36.001Z</time></trkpt><trkpt lat="41.264526457950566" lon="-1.4986072666415402"><ele>744.6666666666667</ele><time>2026-05-03T16:07:37.001Z</time></trkpt><trkpt lat="41.26445716158008" lon="-1.4985517060631133"><ele>746.3333333333334</ele><time>2026-05-03T16:07:38.001Z</time></trkpt><trkpt lat="41.26438641993959" lon="-1.4984951018859938"><ele>748.0</ele><time>2026-05-03T16:07:39.001Z</time></trkpt><trkpt lat="41.26431571133383" lon="-1.4984443330896557"><ele>748.0</ele><time>2026-05-03T16:07:40.001Z</time></trkpt><trkpt lat="41.26424031781719" lon="-1.4983978610044848"><ele>748.0</ele><time>2026-05-03T16:07:41.001Z</time></trkpt><trkpt lat="41.264156703639095" lon="-1.4983750379158722"><ele>748.0</ele><time>2026-05-03T16:07:42.001Z</time></trkpt><trkpt lat="41.264083146870625" lon="-1.4983142856179925"><ele>748.0</ele><time>2026-05-03T16:07:43.001Z</time></trkpt><trkpt lat="41.26400090998953" lon="-1.4982777370195957"><ele>748.0</ele><time>2026-05-03T16:07:44.001Z</time></trkpt><trkpt lat="41.26391446405132" lon="-1.4982382251172939"><ele>748.0</ele><time>2026-05-03T16:07:45.001Z</time></trkpt><trkpt lat="41.263836457603624" lon="-1.4981935075543364"><ele>747.0</ele><time>2026-05-03T16:07:46.001Z</time></trkpt><trkpt lat="41.26374627963222" lon="-1.4981743156529956"><ele>746.0</ele><time>2026-05-03T16:07:47.001Z</time></trkpt><trkpt lat="41.26366123128112" lon="-1.4981385106467997"><ele>745.0</ele><time>2026-05-03T16:07:48.001Z</time></trkpt><trkpt lat="41.26357482231701" lon="-1.4981078360077091"><ele>744.0</ele><time>2026-05-03T16:07:49.001Z</time></trkpt><trkpt lat="41.26348250501174" lon="-1.498093427620068"><ele>743.0</ele><time>2026-05-03T16:07:50.001Z</time></trkpt><trkpt lat="41.26339597453925" lon="-1.4980728668317502"><ele>743.0</ele><time>2026-05-03T16:07:51.001Z</time></trkpt><trkpt lat="41.263303645955865" lon="-1.4980403655116135"><ele>743.0</ele><time>2026-05-03T16:07:52.001Z</time></trkpt><trkpt lat="41.263212311776684" lon="-1.4979924023710138"><ele>743.0</ele><time>2026-05-03T16:07:53.001Z</time></trkpt><trkpt lat="41.26312181041961" lon="-1.4979247730346186"><ele>743.0</ele><time>2026-05-03T16:07:54.001Z</time></trkpt><trkpt lat="41.26303976019266" lon="-1.4978487904315607"><ele>743.0</ele><time>2026-05-03T16:07:55.001Z</time></trkpt><trkpt lat="41.262955175377755" lon="-1.4977710830935547"><ele>743.0</ele><time>2026-05-03T16:07:56.001Z</time></trkpt><trkpt lat="41.262867805928515" lon="-1.4976889524963681"><ele>743.0</ele><time>2026-05-03T16:07:57.001Z</time></trkpt><trkpt lat="41.26278152633976" lon="-1.4976019761614638"><ele>743.0</ele><time>2026-05-03T16:07:58.001Z</time></trkpt><trkpt lat="41.26270203244086" lon="-1.497509831853397"><ele>743.0</ele><time>2026-05-03T16:07:59.001Z</time></trkpt><trkpt lat="41.26262799499548" lon="-1.4974146312097982"><ele>743.0</ele><time>2026-05-03T16:08:00.001Z</time></trkpt><trkpt lat="41.262561269139844" lon="-1.4973078215335927"><ele>743.0</ele><time>2026-05-03T16:08:01.001Z</time></trkpt><trkpt lat="41.2624995444632" lon="-1.4971967766634156"><ele>743.0</ele><time>2026-05-03T16:08:02Z</time></trkpt><trkpt lat="41.26244134351837" lon="-1.497089255391805"><ele>743.0</ele><time>2026-05-03T16:08:03Z</time></trkpt><trkpt lat="41.26238309190783" lon="-1.4969810492713933"><ele>743.0</ele><time>2026-05-03T16:08:04Z</time></trkpt><trkpt lat="41.26233121985354" lon="-1.4968679672265572"><ele>743.0</ele><time>2026-05-03T16:08:05Z</time></trkpt><trkpt lat="41.26224298302926" lon="-1.4968015384519235"><ele>743.2</ele><time>2026-05-03T16:08:06Z</time></trkpt><trkpt lat="41.26214714607495" lon="-1.496770717409219"><ele>743.4</ele><time>2026-05-03T16:08:07Z</time></trkpt><trkpt lat="41.26205596191052" lon="-1.4967199418605548"><ele>743.6</ele><time>2026-05-03T16:08:08Z</time></trkpt><trkpt lat="41.26197016880613" lon="-1.4966320740091121"><ele>743.8000000000001</ele><time>2026-05-03T16:08:09Z</time></trkpt><trkpt lat="41.26190857203104" lon="-1.4965153351917289"><ele>744.0</ele><time>2026-05-03T16:08:10Z</time></trkpt><trkpt lat="41.26186822314665" lon="-1.4963842264552534"><ele>744.0</ele><time>2026-05-03T16:08:11Z</time></trkpt><trkpt lat="41.26183373095715" lon="-1.496259205156506"><ele>744.0</ele><time>2026-05-03T16:08:12Z</time></trkpt><trkpt lat="41.261782945324754" lon="-1.496141390399219"><ele>744.0</ele><time>2026-05-03T16:08:13Z</time></trkpt><trkpt lat="41.26173782944901" lon="-1.496024800968799"><ele>744.0</ele><time>2026-05-03T16:08:14Z</time></trkpt><trkpt lat="41.26170126706499" lon="-1.4959031316121747"><ele>744.0</ele><time>2026-05-03T16:08:15Z</time></trkpt><trkpt lat="41.26165468607641" lon="-1.4957972615706274"><ele>744.8000000000001</ele><time>2026-05-03T16:08:16Z</time></trkpt><trkpt lat="41.26161215516463" lon="-1.49568672737541"><ele>745.6</ele><time>2026-05-03T16:08:17Z</time></trkpt><trkpt lat="41.26157046634983" lon="-1.4955757432507188"><ele>746.4</ele><time>2026-05-03T16:08:18Z</time></trkpt><trkpt lat="41.261527390470036" lon="-1.4954662369706484"><ele>747.2</ele><time>2026-05-03T16:08:19Z</time></trkpt><trkpt lat="41.261480448872724" lon="-1.4953590193958473"><ele>748.0</ele><time>2026-05-03T16:08:20Z</time></trkpt><trkpt lat="41.26143748572658" lon="-1.4952514583761072"><ele>748.0</ele><time>2026-05-03T16:08:21Z</time></trkpt><trkpt lat="41.26139700825268" lon="-1.4951434813112925"><ele>748.0</ele><time>2026-05-03T16:08:22Z</time></trkpt><trkpt lat="41.26135434098599" lon="-1.4950374802903381"><ele>748.0</ele><time>2026-05-03T16:08:23Z</time></trkpt><trkpt lat="41.26131167579811" lon="-1.4949341551467048"><ele>748.0</ele><time>2026-05-03T16:08:24Z</time></trkpt><trkpt lat="41.261264601073094" lon="-1.4948338477447434"><ele>748.0</ele><time>2026-05-03T16:08:25Z</time></trkpt><trkpt lat="41.26120939599641" lon="-1.4947397240915241"><ele>748.0</ele><time>2026-05-03T16:08:26Z</time></trkpt><trkpt lat="41.2611519759925" lon="-1.4946515390630477"><ele>749.1666666666667</ele><time>2026-05-03T16:08:27Z</time></trkpt><trkpt lat="41.26109193561265" lon="-1.4945683217058394"><ele>750.3333333333334</ele><time>2026-05-03T16:08:28Z</time></trkpt><trkpt lat="41.26102590776461" lon="-1.4944901026321005"><ele>751.5</ele><time>2026-05-03T16:08:29Z</time></trkpt><trkpt lat="41.26095964567509" lon="-1.494413206665579"><ele>752.6666666666666</ele><time>2026-05-03T16:08:30Z</time></trkpt><trkpt lat="41.260892675000875" lon="-1.4943363599226058"><ele>753.8333333333333</ele><time>2026-05-03T16:08:31Z</time></trkpt><trkpt lat="41.260833966129226" lon="-1.4942695423320216"><ele>755.0</ele><time>2026-05-03T16:08:32Z</time></trkpt><trkpt lat="41.26077914044126" lon="-1.4942008591511404"><ele>755.0</ele><time>2026-05-03T16:08:33Z</time></trkpt><trkpt lat="41.260722026776435" lon="-1.4941284850052452"><ele>755.0</ele><time>2026-05-03T16:08:34Z</time></trkpt><trkpt lat="41.26066221480518" lon="-1.4940565774804924"><ele>755.0</ele><time>2026-05-03T16:08:35Z</time></trkpt><trkpt lat="41.26060148675967" lon="-1.4939857623758208"><ele>755.0</ele><time>2026-05-03T16:08:36Z</time></trkpt><trkpt lat="41.26053826567954" lon="-1.4939085935138503"><ele>755.0</ele><time>2026-05-03T16:08:37Z</time></trkpt><trkpt lat="41.260473978204615" lon="-1.493838290869106"><ele>755.0</ele><time>2026-05-03T16:08:38Z</time></trkpt><trkpt lat="41.260408327145115" lon="-1.4937742849752873"><ele>755.6666666666666</ele><time>2026-05-03T16:08:39Z</time></trkpt><trkpt lat="41.26033191679481" lon="-1.4937245619063888"><ele>756.3333333333333</ele><time>2026-05-03T16:08:40Z</time></trkpt><trkpt lat="41.26026076602637" lon="-1.4936574732096797"><ele>757.0</ele><time>2026-05-03T16:08:41Z</time></trkpt><trkpt lat="41.260198096271814" lon="-1.4935758188577553"><ele>757.6666666666666</ele><time>2026-05-03T16:08:42Z</time></trkpt><trkpt lat="41.26012127217096" lon="-1.4935142292462804"><ele>758.3333333333334</ele><time>2026-05-03T16:08:43Z</time></trkpt><trkpt lat="41.26004206663976" lon="-1.4934445207633518"><ele>759.0</ele><time>2026-05-03T16:08:44Z</time></trkpt><trkpt lat="41.25996085134704" lon="-1.493372860505432"><ele>759.0</ele><time>2026-05-03T16:08:45Z</time></trkpt><trkpt lat="41.25988497038573" lon="-1.4933042162380996"><ele>759.0</ele><time>2026-05-03T16:08:46Z</time></trkpt><trkpt lat="41.25981157745407" lon="-1.4932338999771058"><ele>759.0</ele><time>2026-05-03T16:08:47Z</time></trkpt><trkpt lat="41.25974359001447" lon="-1.4931685986524836"><ele>759.0</ele><time>2026-05-03T16:08:48Z</time></trkpt><trkpt lat="41.25967022344491" lon="-1.4931044462357856"><ele>759.0</ele><time>2026-05-03T16:08:49Z</time></trkpt><trkpt lat="41.25960345860359" lon="-1.49303225862221"><ele>759.0</ele><time>2026-05-03T16:08:50Z</time></trkpt><trkpt lat="41.259534205626075" lon="-1.492959389906537"><ele>759.5</ele><time>2026-05-03T16:08:51Z</time></trkpt><trkpt lat="41.2594626559738" lon="-1.49288547241546"><ele>760.0</ele><time>2026-05-03T16:08:52Z</time></trkpt><trkpt lat="41.25939072804933" lon="-1.4928140609873546"><ele>760.5</ele><time>2026-05-03T16:08:53Z</time></trkpt><trkpt lat="41.25931804345827" lon="-1.4927534567798375"><ele>761.0</ele><time>2026-05-03T16:08:54Z</time></trkpt><trkpt lat="41.25925250556735" lon="-1.4926864300533387"><ele>761.5</ele><time>2026-05-03T16:08:55Z</time></trkpt><trkpt lat="41.25919404815025" lon="-1.4926188136481924"><ele>762.0</ele><time>2026-05-03T16:08:56Z</time></trkpt><trkpt lat="41.259151193333736" lon="-1.4925391444593525"><ele>762.0</ele><time>2026-05-03T16:08:57Z</time></trkpt><trkpt lat="41.25912001873163" lon="-1.492444751288354"><ele>762.0</ele><time>2026-05-03T16:08:58Z</time></trkpt><trkpt lat="41.25911111576888" lon="-1.492349526774573"><ele>762.0</ele><time>2026-05-03T16:08:59Z</time></trkpt><trkpt lat="41.25912611064761" lon="-1.4922416518126838"><ele>762.0</ele><time>2026-05-03T16:09:00Z</time></trkpt><trkpt lat="41.259160291831" lon="-1.492150190429041"><ele>762.0</ele><time>2026-05-03T16:09:01Z</time></trkpt><trkpt lat="41.259207415346424" lon="-1.492072624255315"><ele>762.0</ele><time>2026-05-03T16:09:02Z</time></trkpt><trkpt lat="41.25926524724021" lon="-1.4920079940861313"><ele>763.1428571428571</ele><time>2026-05-03T16:09:03Z</time></trkpt><trkpt lat="41.259325314081465" lon="-1.4919470266719828"><ele>764.2857142857143</ele><time>2026-05-03T16:09:04Z</time></trkpt><trkpt lat="41.259384871964755" lon="-1.4918918221038984"><ele>765.4285714285714</ele><time>2026-05-03T16:09:05Z</time></trkpt><trkpt lat="41.25944480573164" lon="-1.4918359990513563"><ele>766.5714285714286</ele><time>2026-05-03T16:09:06Z</time></trkpt><trkpt lat="41.25949977866041" lon="-1.4917733391964096"><ele>767.7142857142858</ele><time>2026-05-03T16:09:07Z</time></trkpt><trkpt lat="41.25955303892871" lon="-1.4917156819930397"><ele>768.8571428571429</ele><time>2026-05-03T16:09:08Z</time></trkpt><trkpt lat="41.25960863789022" lon="-1.4916622310995042"><ele>770.0</ele><time>2026-05-03T16:09:09Z</time></trkpt><trkpt lat="41.259662438100634" lon="-1.4916073024646854"><ele>770.0</ele><time>2026-05-03T16:09:10Z</time></trkpt><trkpt lat="41.25971911375634" lon="-1.4915616611190938"><ele>770.0</ele><time>2026-05-03T16:09:11Z</time></trkpt><trkpt lat="41.259781008976084" lon="-1.4915249156234311"><ele>770.0</ele><time>2026-05-03T16:09:12Z</time></trkpt><trkpt lat="41.25985094233575" lon="-1.4914973466013357"><ele>770.0</ele><time>2026-05-03T16:09:13Z</time></trkpt><trkpt lat="41.25992127529289" lon="-1.4914710526678026"><ele>770.0</ele><time>2026-05-03T16:09:14Z</time></trkpt><trkpt lat="41.259992167994376" lon="-1.4914443037217955"><ele>770.0</ele><time>2026-05-03T16:09:15Z</time></trkpt><trkpt lat="41.260064635700644" lon="-1.491420735688472"><ele>770.0</ele><time>2026-05-03T16:09:16Z</time></trkpt><trkpt lat="41.260136488410126" lon="-1.4913970155703102"><ele>769.5000000000001</ele><time>2026-05-03T16:09:17Z</time></trkpt><trkpt lat="41.26020841338763" lon="-1.4913722934356584"><ele>769.0</ele><time>2026-05-03T16:09:18Z</time></trkpt><trkpt lat="41.26028051790631" lon="-1.4913412522510483"><ele>768.5</ele><time>2026-05-03T16:09:19Z</time></trkpt><trkpt lat="41.260349730008976" lon="-1.491301616016776"><ele>768.0</ele><time>2026-05-03T16:09:20Z</time></trkpt><trkpt lat="41.26041675361901" lon="-1.4912487002664587"><ele>767.5</ele><time>2026-05-03T16:09:21.001Z</time></trkpt><trkpt lat="41.26047590851731" lon="-1.4911856949291307"><ele>767.0</ele><time>2026-05-03T16:09:22.001Z</time></trkpt><trkpt lat="41.26052643974392" lon="-1.4911148288918554"><ele>768.1428571428571</ele><time>2026-05-03T16:09:23.001Z</time></trkpt><trkpt lat="41.26057268805775" lon="-1.4910428626443244"><ele>769.2857142857143</ele><time>2026-05-03T16:09:24.001Z</time></trkpt><trkpt lat="41.260617701222394" lon="-1.490966561400804"><ele>770.4285714285713</ele><time>2026-05-03T16:09:25.001Z</time></trkpt><trkpt lat="41.2606594183455" lon="-1.490888383846196"><ele>771.5714285714286</ele><time>2026-05-03T16:09:26.001Z</time></trkpt><trkpt lat="41.260697574421954" lon="-1.490807041321053"><ele>772.7142857142857</ele><time>2026-05-03T16:09:27.001Z</time></trkpt><trkpt lat="41.260731327638645" lon="-1.4907209813111946"><ele>773.8571428571428</ele><time>2026-05-03T16:09:28.001Z</time></trkpt><trkpt lat="41.26076458666416" lon="-1.4906360623612667"><ele>775.0</ele><time>2026-05-03T16:09:29.001Z</time></trkpt><trkpt lat="41.26079250767805" lon="-1.4905500821691724"><ele>775.1666666666666</ele><time>2026-05-03T16:09:30.001Z</time></trkpt><trkpt lat="41.26081490700222" lon="-1.4904476912774833"><ele>775.3333333333333</ele><time>2026-05-03T16:09:31.001Z</time></trkpt><trkpt lat="41.260829219086226" lon="-1.4903544623929075"><ele>775.5</ele><time>2026-05-03T16:09:32.001Z</time></trkpt><trkpt lat="41.26083672407085" lon="-1.4902531619114088"><ele>775.6666666666667</ele><time>2026-05-03T16:09:33.001Z</time></trkpt><trkpt lat="41.26084003016374" lon="-1.4901536577056047"><ele>775.8333333333334</ele><time>2026-05-03T16:09:34.001Z</time></trkpt><trkpt lat="41.26083104698644" lon="-1.4900590500937316"><ele>776.0</ele><time>2026-05-03T16:09:35.001Z</time></trkpt><trkpt lat="41.26080913698328" lon="-1.489962318239398"><ele>776.5714285714286</ele><time>2026-05-03T16:09:36.001Z</time></trkpt><trkpt lat="41.260745625824725" lon="-1.4899067007093645"><ele>777.1428571428572</ele><time>2026-05-03T16:09:37.001Z</time></trkpt><trkpt lat="41.26070464839914" lon="-1.489825052156925"><ele>777.7142857142858</ele><time>2026-05-03T16:09:38.001Z</time></trkpt><trkpt lat="41.260655447201216" lon="-1.4897645062882852"><ele>778.2857142857142</ele><time>2026-05-03T16:09:39.001Z</time></trkpt><trkpt lat="41.26059899086158" lon="-1.4897116076740926"><ele>778.8571428571429</ele><time>2026-05-03T16:09:40.001Z</time></trkpt><trkpt lat="41.26056012516196" lon="-1.489642037033909"><ele>779.4285714285714</ele><time>2026-05-03T16:09:41.001Z</time></trkpt><trkpt lat="41.26053640263873" lon="-1.4895502203695121"><ele>780.0</ele><time>2026-05-03T16:09:42.001Z</time></trkpt><trkpt lat="41.26050895656976" lon="-1.489469321751503"><ele>781.1428571428571</ele><time>2026-05-03T16:09:43.001Z</time></trkpt><trkpt lat="41.26048127139402" lon="-1.4893828131855091"><ele>782.2857142857142</ele><time>2026-05-03T16:09:44.001Z</time></trkpt><trkpt lat="41.260449365683904" lon="-1.4893024034741777"><ele>783.4285714285714</ele><time>2026-05-03T16:09:45.001Z</time></trkpt><trkpt lat="41.260420743676136" lon="-1.489217710887439"><ele>784.5714285714286</ele><time>2026-05-03T16:09:46.001Z</time></trkpt><trkpt lat="41.26039126137821" lon="-1.4891364895613006"><ele>785.7142857142858</ele><time>2026-05-03T16:09:47.001Z</time></trkpt><trkpt lat="41.260359654897925" lon="-1.4890559524550733"><ele>786.8571428571429</ele><time>2026-05-03T16:09:48.001Z</time></trkpt><trkpt lat="41.26032935049396" lon="-1.4889712631268868"><ele>788.0</ele><time>2026-05-03T16:09:49.001Z</time></trkpt><trkpt lat="41.26030265236916" lon="-1.4888857325730978"><ele>788.0</ele><time>2026-05-03T16:09:50.001Z</time></trkpt><trkpt lat="41.26027624651154" lon="-1.4888030142858504"><ele>788.0</ele><time>2026-05-03T16:09:51.001Z</time></trkpt><trkpt lat="41.26025163325161" lon="-1.4887152137533721"><ele>788.0</ele><time>2026-05-03T16:09:52.001Z</time></trkpt><trkpt lat="41.26022488847003" lon="-1.4886327727672084"><ele>788.0</ele><time>2026-05-03T16:09:53.001Z</time></trkpt><trkpt lat="41.26019848457164" lon="-1.4885538721444538"><ele>788.0</ele><time>2026-05-03T16:09:54.001Z</time></trkpt><trkpt lat="41.26017377472494" lon="-1.4884761658072942"><ele>788.0</ele><time>2026-05-03T16:09:55.001Z</time></trkpt><trkpt lat="41.26015385995106" lon="-1.4883939581962946"><ele>788.0</ele><time>2026-05-03T16:09:56.001Z</time></trkpt><trkpt lat="41.26013023931147" lon="-1.4883112318341551"><ele>788.5714285714286</ele><time>2026-05-03T16:09:57.001Z</time></trkpt><trkpt lat="41.26013066610394" lon="-1.4882231504515613"><ele>789.1428571428571</ele><time>2026-05-03T16:09:58.001Z</time></trkpt><trkpt lat="41.260138947783396" lon="-1.4881292891149625"><ele>789.7142857142858</ele><time>2026-05-03T16:09:59.001Z</time></trkpt><trkpt lat="41.26014940364827" lon="-1.4880459309599918"><ele>790.2857142857142</ele><time>2026-05-03T16:10:00.001Z</time></trkpt><trkpt lat="41.26016486729733" lon="-1.4879625815450497"><ele>790.8571428571428</ele><time>2026-05-03T16:10:01.001Z</time></trkpt><trkpt lat="41.260180041965555" lon="-1.4878760927287535"><ele>791.4285714285714</ele><time>2026-05-03T16:10:02.001Z</time></trkpt><trkpt lat="41.260199572434516" lon="-1.4877936423878242"><ele>792.0</ele><time>2026-05-03T16:10:03.001Z</time></trkpt><trkpt lat="41.260220761417656" lon="-1.4877128733076364"><ele>792.0</ele><time>2026-05-03T16:10:04.001Z</time></trkpt><trkpt lat="41.26024401518832" lon="-1.487628379020106"><ele>792.0</ele><time>2026-05-03T16:10:05.001Z</time></trkpt><trkpt lat="41.2602642731119" lon="-1.4875431938796975"><ele>792.0</ele><time>2026-05-03T16:10:06.001Z</time></trkpt><trkpt lat="41.2602856818648" lon="-1.4874556194823445"><ele>792.0</ele><time>2026-05-03T16:10:07.001Z</time></trkpt><trkpt lat="41.26030931831303" lon="-1.4873663234352905"><ele>792.0</ele><time>2026-05-03T16:10:07.999Z</time></trkpt><trkpt lat="41.26033524624432" lon="-1.4872819919232478"><ele>792.0</ele><time>2026-05-03T16:10:08.999Z</time></trkpt><trkpt lat="41.26035725107827" lon="-1.4871947051317522"><ele>792.0</ele><time>2026-05-03T16:10:09.999Z</time></trkpt><trkpt lat="41.26037857859037" lon="-1.4870987262342867"><ele>792.3333333333334</ele><time>2026-05-03T16:10:10.999Z</time></trkpt><trkpt lat="41.260398917973326" lon="-1.4870034156542355"><ele>792.6666666666667</ele><time>2026-05-03T16:10:11.999Z</time></trkpt><trkpt lat="41.26042374403455" lon="-1.4869068749611125"><ele>793.0</ele><time>2026-05-03T16:10:12.999Z</time></trkpt><trkpt lat="41.26045062517505" lon="-1.4868081960985429"><ele>793.3333333333334</ele><time>2026-05-03T16:10:13.999Z</time></trkpt><trkpt lat="41.26047347548242" lon="-1.4867111099017858"><ele>793.6666666666667</ele><time>2026-05-03T16:10:14.999Z</time></trkpt><trkpt lat="41.26049608110494" lon="-1.4866146165257434"><ele>794.0</ele><time>2026-05-03T16:10:15.999Z</time></trkpt><trkpt lat="41.26052046582356" lon="-1.486517113684756"><ele>794.0000000000001</ele><time>2026-05-03T16:10:16.999Z</time></trkpt><trkpt lat="41.26054763542915" lon="-1.4864194832461457"><ele>794.0</ele><time>2026-05-03T16:10:17.999Z</time></trkpt><trkpt lat="41.260573327795626" lon="-1.486322063391817"><ele>794.0</ele><time>2026-05-03T16:10:18.999Z</time></trkpt><trkpt lat="41.26060014206018" lon="-1.4862226749173424"><ele>794.0</ele><time>2026-05-03T16:10:19.999Z</time></trkpt><trkpt lat="41.260625742037305" lon="-1.4861199341899856"><ele>794.0000000000001</ele><time>2026-05-03T16:10:20.999Z</time></trkpt><trkpt lat="41.26064652269848" lon="-1.4860184007206234"><ele>794.0</ele><time>2026-05-03T16:10:21.999Z</time></trkpt><trkpt lat="41.2606712717022" lon="-1.4859206319715252"><ele>794.8333333333334</ele><time>2026-05-03T16:10:22.999Z</time></trkpt><trkpt lat="41.260699250594364" lon="-1.4858136761075362"><ele>795.6666666666667</ele><time>2026-05-03T16:10:24Z</time></trkpt><trkpt lat="41.260726026245955" lon="-1.48571541633911"><ele>796.5</ele><time>2026-05-03T16:10:25Z</time></trkpt><trkpt lat="41.260752218299494" lon="-1.4856140888609703"><ele>797.3333333333333</ele><time>2026-05-03T16:10:26Z</time></trkpt><trkpt lat="41.26077797696764" lon="-1.485511816093884"><ele>798.1666666666666</ele><time>2026-05-03T16:10:27Z</time></trkpt><trkpt lat="41.26080297621956" lon="-1.4854095420199835"><ele>799.0</ele><time>2026-05-03T16:10:28Z</time></trkpt><trkpt lat="41.260828299674294" lon="-1.4853089019171115"><ele>799.1666666666666</ele><time>2026-05-03T16:10:29Z</time></trkpt><trkpt lat="41.2608518585129" lon="-1.4852016180749918"><ele>799.3333333333333</ele><time>2026-05-03T16:10:30Z</time></trkpt><trkpt lat="41.26088037521645" lon="-1.48509899977757"><ele>799.5</ele><time>2026-05-03T16:10:31Z</time></trkpt><trkpt lat="41.26090986052973" lon="-1.484999015635439"><ele>799.6666666666667</ele><time>2026-05-03T16:10:32Z</time></trkpt><trkpt lat="41.26093574796197" lon="-1.484894657668392"><ele>799.8333333333334</ele><time>2026-05-03T16:10:33Z</time></trkpt><trkpt lat="41.260961799814496" lon="-1.4847918829279318"><ele>800.0</ele><time>2026-05-03T16:10:34Z</time></trkpt><trkpt lat="41.260983062342326" lon="-1.4846894457148976"><ele>800.0000000000001</ele><time>2026-05-03T16:10:35Z</time></trkpt><trkpt lat="41.26101172272687" lon="-1.4845871160707111"><ele>800.0</ele><time>2026-05-03T16:10:36Z</time></trkpt><trkpt lat="41.26103983809336" lon="-1.4844844107312165"><ele>800.0</ele><time>2026-05-03T16:10:37Z</time></trkpt><trkpt lat="41.26106477020942" lon="-1.4843799434815288"><ele>800.0</ele><time>2026-05-03T16:10:38Z</time></trkpt><trkpt lat="41.261090351785725" lon="-1.484277085580983"><ele>800.0000000000001</ele><time>2026-05-03T16:10:39Z</time></trkpt><trkpt lat="41.26111864076158" lon="-1.4841744368879346"><ele>800.0</ele><time>2026-05-03T16:10:40Z</time></trkpt><trkpt lat="41.2611491765439" lon="-1.4840758136330925"><ele>800.0000000000001</ele><time>2026-05-03T16:10:41Z</time></trkpt><trkpt lat="41.26116358333515" lon="-1.48396719452959"><ele>800.0</ele><time>2026-05-03T16:10:42Z</time></trkpt><trkpt lat="41.26119689695028" lon="-1.4838699554954229"><ele>800.0</ele><time>2026-05-03T16:10:43Z</time></trkpt><trkpt lat="41.26119943642409" lon="-1.483763860113671"><ele>800.0</ele><time>2026-05-03T16:10:44Z</time></trkpt><trkpt lat="41.261227072941765" lon="-1.4836635664390176"><ele>800.0000000000001</ele><time>2026-05-03T16:10:45Z</time></trkpt><trkpt lat="41.26123359479303" lon="-1.483555509802721"><ele>800.0</ele><time>2026-05-03T16:10:46Z</time></trkpt><trkpt lat="41.26124330299473" lon="-1.4834481354692866"><ele>801.1666666666667</ele><time>2026-05-03T16:10:47Z</time></trkpt><trkpt lat="41.261243613716466" lon="-1.4833399159315326"><ele>802.3333333333334</ele><time>2026-05-03T16:10:48Z</time></trkpt><trkpt lat="41.261241089127786" lon="-1.4832299344192812"><ele>803.5</ele><time>2026-05-03T16:10:49Z</time></trkpt><trkpt lat="41.26124410510157" lon="-1.4831233513649182"><ele>804.6666666666667</ele><time>2026-05-03T16:10:50Z</time></trkpt><trkpt lat="41.26124343675092" lon="-1.4830113609893294"><ele>805.8333333333334</ele><time>2026-05-03T16:10:51Z</time></trkpt><trkpt lat="41.26124436090728" lon="-1.4828975553544306"><ele>807.0</ele><time>2026-05-03T16:10:52Z</time></trkpt><trkpt lat="41.26124705477208" lon="-1.4827824211192442"><ele>807.1666666666666</ele><time>2026-05-03T16:10:53Z</time></trkpt><trkpt lat="41.26124878137823" lon="-1.4826662120320877"><ele>807.3333333333333</ele><time>2026-05-03T16:10:54Z</time></trkpt><trkpt lat="41.261254051265055" lon="-1.482551011858836"><ele>807.5</ele><time>2026-05-03T16:10:55Z</time></trkpt><trkpt lat="41.26125937668608" lon="-1.482435086022337"><ele>807.6666666666666</ele><time>2026-05-03T16:10:56Z</time></trkpt><trkpt lat="41.26126610052707" lon="-1.4823189305778708"><ele>807.8333333333333</ele><time>2026-05-03T16:10:57Z</time></trkpt><trkpt lat="41.26126845900608" lon="-1.4821981211396997"><ele>808.0</ele><time>2026-05-03T16:10:58Z</time></trkpt><trkpt lat="41.26127379112217" lon="-1.4820804870414657"><ele>808.8</ele><time>2026-05-03T16:10:59Z</time></trkpt><trkpt lat="41.261276290814514" lon="-1.4819562906999721"><ele>809.5999999999999</ele><time>2026-05-03T16:11:00Z</time></trkpt><trkpt lat="41.261278645514146" lon="-1.4818355389677464"><ele>810.4000000000001</ele><time>2026-05-03T16:11:01Z</time></trkpt><trkpt lat="41.26128240225483" lon="-1.4817147882016595"><ele>811.2</ele><time>2026-05-03T16:11:02Z</time></trkpt><trkpt lat="41.261277799531776" lon="-1.481585820790582"><ele>812.0</ele><time>2026-05-03T16:11:03Z</time></trkpt><trkpt lat="41.26127111888311" lon="-1.4814638842551013"><ele>812.0000000000001</ele><time>2026-05-03T16:11:04Z</time></trkpt><trkpt lat="41.26125456339269" lon="-1.481343469323268"><ele>812.0</ele><time>2026-05-03T16:11:05Z</time></trkpt><trkpt lat="41.261228703277816" lon="-1.4812296059590708"><ele>812.0</ele><time>2026-05-03T16:11:06Z</time></trkpt><trkpt lat="41.26120031649369" lon="-1.481120281520418"><ele>812.0</ele><time>2026-05-03T16:11:07Z</time></trkpt><trkpt lat="41.26116792848298" lon="-1.4810154515514315"><ele>812.0000000000001</ele><time>2026-05-03T16:11:08Z</time></trkpt><trkpt lat="41.26113125547969" lon="-1.480911430257657"><ele>812.0</ele><time>2026-05-03T16:11:09Z</time></trkpt><trkpt lat="41.261096231233445" lon="-1.4808117425109177"><ele>813.0000000000001</ele><time>2026-05-03T16:11:10Z</time></trkpt><trkpt lat="41.26106353317262" lon="-1.480707851738965"><ele>814.0</ele><time>2026-05-03T16:11:11Z</time></trkpt><trkpt lat="41.261035364920225" lon="-1.4806057643968058"><ele>815.0</ele><time>2026-05-03T16:11:12Z</time></trkpt><trkpt lat="41.26100480441904" lon="-1.4805065729412101"><ele>816.0</ele><time>2026-05-03T16:11:13Z</time></trkpt><trkpt lat="41.26097231594268" lon="-1.480404998957741"><ele>817.0000000000001</ele><time>2026-05-03T16:11:14Z</time></trkpt><trkpt lat="41.2609461107503" lon="-1.4802973697867916"><ele>818.0</ele><time>2026-05-03T16:11:15Z</time></trkpt><trkpt lat="41.26091523889604" lon="-1.4801969834973068"><ele>818.6666666666667</ele><time>2026-05-03T16:11:16Z</time></trkpt><trkpt lat="41.260891663901425" lon="-1.4800925492205455"><ele>819.3333333333334</ele><time>2026-05-03T16:11:17Z</time></trkpt><trkpt lat="41.26087589003885" lon="-1.4799812567865387"><ele>820.0</ele><time>2026-05-03T16:11:18Z</time></trkpt><trkpt lat="41.26086175724634" lon="-1.4798727521219874"><ele>820.6666666666667</ele><time>2026-05-03T16:11:19Z</time></trkpt><trkpt lat="41.26085953150661" lon="-1.4797667289512588"><ele>821.3333333333334</ele><time>2026-05-03T16:11:20Z</time></trkpt><trkpt lat="41.26086636128337" lon="-1.479657527772577"><ele>822.0</ele><time>2026-05-03T16:11:21Z</time></trkpt><trkpt lat="41.26088100075349" lon="-1.4795493652113532"><ele>822.8333333333334</ele><time>2026-05-03T16:11:22Z</time></trkpt><trkpt lat="41.26090282127815" lon="-1.4794418878510043"><ele>823.6666666666667</ele><time>2026-05-03T16:11:23Z</time></trkpt><trkpt lat="41.26093054902899" lon="-1.4793374601520062"><ele>824.5</ele><time>2026-05-03T16:11:24Z</time></trkpt><trkpt lat="41.26095767813248" lon="-1.4792402106364662"><ele>825.3333333333334</ele><time>2026-05-03T16:11:25Z</time></trkpt><trkpt lat="41.26098204117659" lon="-1.479133447679147"><ele>826.1666666666667</ele><time>2026-05-03T16:11:26Z</time></trkpt><trkpt lat="41.261007331864775" lon="-1.4790295964612612"><ele>827.0</ele><time>2026-05-03T16:11:27Z</time></trkpt><trkpt lat="41.26102927028317" lon="-1.4789308001998902"><ele>827.0000000000001</ele><time>2026-05-03T16:11:28Z</time></trkpt><trkpt lat="41.2610498933681" lon="-1.4788297625472477"><ele>827.0</ele><time>2026-05-03T16:11:29Z</time></trkpt><trkpt lat="41.261070091535075" lon="-1.4787310108797709"><ele>827.0</ele><time>2026-05-03T16:11:30Z</time></trkpt><trkpt lat="41.261092747182545" lon="-1.4786330045389644"><ele>827.0</ele><time>2026-05-03T16:11:31Z</time></trkpt><trkpt lat="41.261117684575105" lon="-1.4785368893721258"><ele>827.0000000000001</ele><time>2026-05-03T16:11:32.001Z</time></trkpt><trkpt lat="41.26113871005642" lon="-1.478439424062308"><ele>827.0</ele><time>2026-05-03T16:11:33.001Z</time></trkpt><trkpt lat="41.26115288582384" lon="-1.4783385363106776"><ele>827.5000000000001</ele><time>2026-05-03T16:11:34.001Z</time></trkpt><trkpt lat="41.2611710422171" lon="-1.4782354265456632"><ele>828.0</ele><time>2026-05-03T16:11:35.001Z</time></trkpt><trkpt lat="41.26119095736716" lon="-1.4781340928737605"><ele>828.5</ele><time>2026-05-03T16:11:36.001Z</time></trkpt><trkpt lat="41.26120815961218" lon="-1.4780298270181293"><ele>829.0</ele><time>2026-05-03T16:11:37.001Z</time></trkpt><trkpt lat="41.26123249806689" lon="-1.4779287406228756"><ele>829.5000000000001</ele><time>2026-05-03T16:11:38.001Z</time></trkpt><trkpt lat="41.26125658593872" lon="-1.4778292118199676"><ele>830.0</ele><time>2026-05-03T16:11:39.001Z</time></trkpt><trkpt lat="41.26127572521731" lon="-1.4777231310253074"><ele>830.5000000000001</ele><time>2026-05-03T16:11:40.001Z</time></trkpt><trkpt lat="41.2612912135987" lon="-1.477623204843214"><ele>831.0</ele><time>2026-05-03T16:11:41.001Z</time></trkpt><trkpt lat="41.2613151237618" lon="-1.4775242793393875"><ele>831.5</ele><time>2026-05-03T16:11:42.001Z</time></trkpt><trkpt lat="41.26133464254686" lon="-1.4774211447273513"><ele>832.0</ele><time>2026-05-03T16:11:43.001Z</time></trkpt><trkpt lat="41.26135696475929" lon="-1.4773206153839038"><ele>832.5000000000001</ele><time>2026-05-03T16:11:44.001Z</time></trkpt><trkpt lat="41.26138558562885" lon="-1.4772197994175498"><ele>833.0</ele><time>2026-05-03T16:11:45.001Z</time></trkpt><trkpt lat="41.261421483901685" lon="-1.477126356375338"><ele>835.5000000000001</ele><time>2026-05-03T16:11:46.001Z</time></trkpt><trkpt lat="41.26147166555624" lon="-1.4770475038313546"><ele>838.0</ele><time>2026-05-03T16:11:47.001Z</time></trkpt><trkpt lat="41.26153612814317" lon="-1.4769825938482546"><ele>840.5</ele><time>2026-05-03T16:11:48.001Z</time></trkpt><trkpt lat="41.26160878086059" lon="-1.4769415632178775"><ele>843.0</ele><time>2026-05-03T16:11:49.001Z</time></trkpt><trkpt lat="41.26168361603528" lon="-1.4769137286250207"><ele>845.5000000000001</ele><time>2026-05-03T16:11:50.001Z</time></trkpt><trkpt lat="41.26175809440997" lon="-1.4768855163508987"><ele>848.0</ele><time>2026-05-03T16:11:51.001Z</time></trkpt><trkpt lat="41.26183211402043" lon="-1.4768452200386495"><ele>848.0000000000001</ele><time>2026-05-03T16:11:52.001Z</time></trkpt><trkpt lat="41.2619018048833" lon="-1.4767999793234647"><ele>848.0</ele><time>2026-05-03T16:11:53.001Z</time></trkpt><trkpt lat="41.261965581166265" lon="-1.4767432052550047"><ele>848.0</ele><time>2026-05-03T16:11:54.001Z</time></trkpt><trkpt lat="41.26202349992435" lon="-1.4766688129703645"><ele>848.0</ele><time>2026-05-03T16:11:55.001Z</time></trkpt><trkpt lat="41.262061395758074" lon="-1.4765793858586838"><ele>848.0000000000001</ele><time>2026-05-03T16:11:56.001Z</time></trkpt><trkpt lat="41.262088844561745" lon="-1.476486407327203"><ele>848.0</ele><time>2026-05-03T16:11:57.001Z</time></trkpt><trkpt lat="41.262107383825295" lon="-1.4763929740144428"><ele>848.0</ele><time>2026-05-03T16:11:58.001Z</time></trkpt><trkpt lat="41.26212418734079" lon="-1.4763034161679702"><ele>848.0</ele><time>2026-05-03T16:11:59.001Z</time></trkpt><trkpt lat="41.26214602790139" lon="-1.476206885913227"><ele>848.0</ele><time>2026-05-03T16:12:00.001Z</time></trkpt><trkpt lat="41.26215708863325" lon="-1.4761128611651964"><ele>848.0</ele><time>2026-05-03T16:12:01.001Z</time></trkpt><trkpt lat="41.26216311152096" lon="-1.4760173229254303"><ele>848.0</ele><time>2026-05-03T16:12:02.001Z</time></trkpt><trkpt lat="41.262165995731706" lon="-1.4759202038537698"><ele>848.0</ele><time>2026-05-03T16:12:03.001Z</time></trkpt><trkpt lat="41.26216206478551" lon="-1.4758235674973763"><ele>848.0</ele><time>2026-05-03T16:12:04.001Z</time></trkpt><trkpt lat="41.26215327382034" lon="-1.4757266501812316"><ele>849.0</ele><time>2026-05-03T16:12:05.001Z</time></trkpt><trkpt lat="41.26213701970931" lon="-1.4756268530145087"><ele>850.0</ele><time>2026-05-03T16:12:06.001Z</time></trkpt><trkpt lat="41.262095492308276" lon="-1.4755406981000943"><ele>851.0</ele><time>2026-05-03T16:12:07.001Z</time></trkpt><trkpt lat="41.26205182377439" lon="-1.4754666489881734"><ele>852.0</ele><time>2026-05-03T16:12:08.001Z</time></trkpt><trkpt lat="41.2620234546819" lon="-1.4753796927538463"><ele>853.0</ele><time>2026-05-03T16:12:09.001Z</time></trkpt><trkpt lat="41.2619834800244" lon="-1.4752992416459323"><ele>854.0</ele><time>2026-05-03T16:12:10.001Z</time></trkpt><trkpt lat="41.261947447478136" lon="-1.475210922983643"><ele>855.0</ele><time>2026-05-03T16:12:11.001Z</time></trkpt><trkpt lat="41.2619171910156" lon="-1.4751257496210286"><ele>855.4285714285714</ele><time>2026-05-03T16:12:12.001Z</time></trkpt><trkpt lat="41.26189467793309" lon="-1.47503442884224"><ele>855.8571428571428</ele><time>2026-05-03T16:12:13.001Z</time></trkpt><trkpt lat="41.261887553745495" lon="-1.4749385066712148"><ele>856.2857142857142</ele><time>2026-05-03T16:12:14Z</time></trkpt><trkpt lat="41.26187668236774" lon="-1.4748431375068038"><ele>856.7142857142858</ele><time>2026-05-03T16:12:15Z</time></trkpt><trkpt lat="41.26185928333755" lon="-1.4747486242978038"><ele>857.1428571428571</ele><time>2026-05-03T16:12:16Z</time></trkpt><trkpt lat="41.261824001968584" lon="-1.4746651083645914"><ele>857.5714285714286</ele><time>2026-05-03T16:12:17Z</time></trkpt><trkpt lat="41.261768240813055" lon="-1.4745996066233191"><ele>858.0</ele><time>2026-05-03T16:12:18Z</time></trkpt><trkpt lat="41.26170057245147" lon="-1.474563046292375"><ele>858.7142857142858</ele><time>2026-05-03T16:12:19Z</time></trkpt><trkpt lat="41.261634025314876" lon="-1.4745329465812433"><ele>859.4285714285714</ele><time>2026-05-03T16:12:20Z</time></trkpt><trkpt lat="41.261567236409476" lon="-1.4745104002094767"><ele>860.1428571428571</ele><time>2026-05-03T16:12:21Z</time></trkpt><trkpt lat="41.26150202856237" lon="-1.4744805706382198"><ele>860.8571428571429</ele><time>2026-05-03T16:12:22Z</time></trkpt><trkpt lat="41.26143491310405" lon="-1.4744533727944533"><ele>861.5714285714286</ele><time>2026-05-03T16:12:23Z</time></trkpt><trkpt lat="41.261364868639404" lon="-1.4744221865134148"><ele>862.2857142857143</ele><time>2026-05-03T16:12:24Z</time></trkpt><trkpt lat="41.26129582183798" lon="-1.4743898475879884"><ele>863.0</ele><time>2026-05-03T16:12:25Z</time></trkpt><trkpt lat="41.261227375092965" lon="-1.4743512157840746"><ele>863.0000000000001</ele><time>2026-05-03T16:12:26Z</time></trkpt><trkpt lat="41.26115025649489" lon="-1.4743352192879102"><ele>863.0</ele><time>2026-05-03T16:12:27Z</time></trkpt><trkpt lat="41.26108311346481" lon="-1.4742809069417964"><ele>863.0</ele><time>2026-05-03T16:12:28Z</time></trkpt><trkpt lat="41.26100863181662" lon="-1.4742544818679033"><ele>863.0</ele><time>2026-05-03T16:12:29Z</time></trkpt><trkpt lat="41.26093358518492" lon="-1.4742209834166076"><ele>863.0000000000001</ele><time>2026-05-03T16:12:30Z</time></trkpt><trkpt lat="41.260856984551644" lon="-1.474186205630987"><ele>863.0</ele><time>2026-05-03T16:12:31Z</time></trkpt><trkpt lat="41.26077853766533" lon="-1.4741576992360246"><ele>863.0000000000001</ele><time>2026-05-03T16:12:32Z</time></trkpt><trkpt lat="41.26069687612645" lon="-1.4741357333760368"><ele>863.0</ele><time>2026-05-03T16:12:33Z</time></trkpt><trkpt lat="41.26061420279674" lon="-1.474122391072251"><ele>863.0</ele><time>2026-05-03T16:12:34Z</time></trkpt><trkpt lat="41.26052547599854" lon="-1.4741446472070447"><ele>863.0</ele><time>2026-05-03T16:12:35Z</time></trkpt><trkpt lat="41.26044382376455" lon="-1.474164400868484"><ele>863.0000000000001</ele><time>2026-05-03T16:12:36Z</time></trkpt><trkpt lat="41.26035592623348" lon="-1.4741597315560313"><ele>863.0</ele><time>2026-05-03T16:12:37Z</time></trkpt><trkpt lat="41.26027001479384" lon="-1.4741649604385485"><ele>863.3333333333334</ele><time>2026-05-03T16:12:38Z</time></trkpt><trkpt lat="41.260185377654025" lon="-1.4741422038093976"><ele>863.6666666666667</ele><time>2026-05-03T16:12:39Z</time></trkpt><trkpt lat="41.260105520957715" lon="-1.4740895973621297"><ele>864.0</ele><time>2026-05-03T16:12:40Z</time></trkpt><trkpt lat="41.26004360852833" lon="-1.4740118956461468"><ele>864.3333333333333</ele><time>2026-05-03T16:12:41Z</time></trkpt><trkpt lat="41.25998517119015" lon="-1.4739198093744166"><ele>864.6666666666666</ele><time>2026-05-03T16:12:42Z</time></trkpt><trkpt lat="41.259924969052484" lon="-1.473838979775741"><ele>865.0</ele><time>2026-05-03T16:12:43Z</time></trkpt><trkpt lat="41.25986514151458" lon="-1.4737587437864892"><ele>864.3333333333333</ele><time>2026-05-03T16:12:44Z</time></trkpt><trkpt lat="41.2598065637082" lon="-1.4736802028941514"><ele>863.6666666666666</ele><time>2026-05-03T16:12:45Z</time></trkpt><trkpt lat="41.25974520280919" lon="-1.4736055537414035"><ele>863.0</ele><time>2026-05-03T16:12:46Z</time></trkpt><trkpt lat="41.25968621926501" lon="-1.4735297382509156"><ele>862.3333333333333</ele><time>2026-05-03T16:12:47Z</time></trkpt><trkpt lat="41.25962625869689" lon="-1.4734565016207186"><ele>861.6666666666666</ele><time>2026-05-03T16:12:48Z</time></trkpt><trkpt lat="41.259565048633036" lon="-1.473378948009308"><ele>861.0</ele><time>2026-05-03T16:12:49Z</time></trkpt><trkpt lat="41.25950376926752" lon="-1.4733082976878926"><ele>863.3333333333334</ele><time>2026-05-03T16:12:50Z</time></trkpt><trkpt lat="41.25944409473114" lon="-1.4732328899112643"><ele>865.6666666666667</ele><time>2026-05-03T16:12:51Z</time></trkpt><trkpt lat="41.259387305442395" lon="-1.473153839790674"><ele>868.0</ele><time>2026-05-03T16:12:52Z</time></trkpt><trkpt lat="41.25934015677028" lon="-1.4730677231612115"><ele>870.3333333333334</ele><time>2026-05-03T16:12:53Z</time></trkpt><trkpt lat="41.25930028820406" lon="-1.4729751064108694"><ele>872.6666666666667</ele><time>2026-05-03T16:12:54Z</time></trkpt><trkpt lat="41.25927466146944" lon="-1.4728773702500708"><ele>875.0</ele><time>2026-05-03T16:12:55Z</time></trkpt><trkpt lat="41.25925607404654" lon="-1.472776137811862"><ele>875.3333333333334</ele><time>2026-05-03T16:12:56Z</time></trkpt><trkpt lat="41.25923883618511" lon="-1.472678927283372"><ele>875.6666666666667</ele><time>2026-05-03T16:12:57Z</time></trkpt><trkpt lat="41.25921886018616" lon="-1.4725794716747007"><ele>876.0</ele><time>2026-05-03T16:12:58Z</time></trkpt><trkpt lat="41.259200145721934" lon="-1.4724792712954171"><ele>876.3333333333333</ele><time>2026-05-03T16:12:59Z</time></trkpt><trkpt lat="41.25918302072793" lon="-1.4723827944517995"><ele>876.6666666666666</ele><time>2026-05-03T16:13:00Z</time></trkpt><trkpt lat="41.259169158160546" lon="-1.4722855457876807"><ele>877.0</ele><time>2026-05-03T16:13:01Z</time></trkpt><trkpt lat="41.259158767752666" lon="-1.4721833585576782"><ele>877.6666666666666</ele><time>2026-05-03T16:13:02Z</time></trkpt><trkpt lat="41.25915042465473" lon="-1.4720835376480819"><ele>878.3333333333333</ele><time>2026-05-03T16:13:03Z</time></trkpt><trkpt lat="41.25915154843751" lon="-1.471981579449361"><ele>879.0</ele><time>2026-05-03T16:13:04Z</time></trkpt><trkpt lat="41.259170261776845" lon="-1.4718858510638795"><ele>879.6666666666667</ele><time>2026-05-03T16:13:05Z</time></trkpt><trkpt lat="41.25920609958148" lon="-1.4717918148475078"><ele>880.3333333333334</ele><time>2026-05-03T16:13:06Z</time></trkpt><trkpt lat="41.2592534572009" lon="-1.471708285216466"><ele>881.0</ele><time>2026-05-03T16:13:07Z</time></trkpt><trkpt lat="41.25931107452958" lon="-1.471640066206482"><ele>881.0000000000001</ele><time>2026-05-03T16:13:08Z</time></trkpt><trkpt lat="41.25937083160424" lon="-1.4715793468251062"><ele>881.0</ele><time>2026-05-03T16:13:09Z</time></trkpt><trkpt lat="41.25943199558167" lon="-1.4715166801827482"><ele>881.0</ele><time>2026-05-03T16:13:10.001Z</time></trkpt><trkpt lat="41.25949359901444" lon="-1.4714489293179394"><ele>881.0</ele><time>2026-05-03T16:13:11.001Z</time></trkpt><trkpt lat="41.259554650998794" lon="-1.4713840199221626"><ele>881.0000000000001</ele><time>2026-05-03T16:13:12.001Z</time></trkpt><trkpt lat="41.25961940217584" lon="-1.4713273352209664"><ele>881.0</ele><time>2026-05-03T16:13:13.001Z</time></trkpt><trkpt lat="41.25968726894221" lon="-1.4712759698795452"><ele>881.3333333333334</ele><time>2026-05-03T16:13:14.001Z</time></trkpt><trkpt lat="41.2597603680208" lon="-1.4712330081733929"><ele>881.6666666666667</ele><time>2026-05-03T16:13:15.001Z</time></trkpt><trkpt lat="41.259834973217416" lon="-1.4712007985676998"><ele>882.0</ele><time>2026-05-03T16:13:16.001Z</time></trkpt><trkpt lat="41.259907080696934" lon="-1.4711647671945263"><ele>882.3333333333333</ele><time>2026-05-03T16:13:17.001Z</time></trkpt><trkpt lat="41.25997900678887" lon="-1.4711162108452718"><ele>882.6666666666666</ele><time>2026-05-03T16:13:18.001Z</time></trkpt><trkpt lat="41.26004182774009" lon="-1.4710516932448863"><ele>883.0</ele><time>2026-05-03T16:13:19.001Z</time></trkpt><trkpt lat="41.26009565128335" lon="-1.470976206369487"><ele>882.9999999999999</ele><time>2026-05-03T16:13:20.001Z</time></trkpt><trkpt lat="41.26014293355613" lon="-1.470890676009111"><ele>883.0</ele><time>2026-05-03T16:13:21.001Z</time></trkpt><trkpt lat="41.260183085528695" lon="-1.470802103673403"><ele>883.0</ele><time>2026-05-03T16:13:22.001Z</time></trkpt><trkpt lat="41.26022080211796" lon="-1.4707091114238962"><ele>883.0</ele><time>2026-05-03T16:13:23.001Z</time></trkpt><trkpt lat="41.26024804700597" lon="-1.4706100916640996"><ele>882.9999999999999</ele><time>2026-05-03T16:13:24.001Z</time></trkpt><trkpt lat="41.26026193459365" lon="-1.470508426243681"><ele>883.0</ele><time>2026-05-03T16:13:25.001Z</time></trkpt><trkpt lat="41.260253715840285" lon="-1.4704065922128569"><ele>884.0</ele><time>2026-05-03T16:13:26.001Z</time></trkpt><trkpt lat="41.260228433383865" lon="-1.4703121012025806"><ele>885.0</ele><time>2026-05-03T16:13:27.001Z</time></trkpt><trkpt lat="41.260186854250676" lon="-1.4702273094417198"><ele>886.0</ele><time>2026-05-03T16:13:28.001Z</time></trkpt><trkpt lat="41.26014569123798" lon="-1.4701495835033238"><ele>887.0</ele><time>2026-05-03T16:13:29.001Z</time></trkpt><trkpt lat="41.26010355084487" lon="-1.4700709600481088"><ele>888.0</ele><time>2026-05-03T16:13:30.001Z</time></trkpt><trkpt lat="41.260060770405225" lon="-1.46999575983047"><ele>889.0</ele><time>2026-05-03T16:13:31.001Z</time></trkpt><trkpt lat="41.26000819996917" lon="-1.469924804866811"><ele>890.0</ele><time>2026-05-03T16:13:32.001Z</time></trkpt><trkpt lat="41.25995710417933" lon="-1.4698570959112518"><ele>890.0</ele><time>2026-05-03T16:13:33.001Z</time></trkpt><trkpt lat="41.259898159565225" lon="-1.4697937088656847"><ele>890.0</ele><time>2026-05-03T16:13:34.001Z</time></trkpt><trkpt lat="41.25984137559173" lon="-1.4697354559810643"><ele>890.0</ele><time>2026-05-03T16:13:35.001Z</time></trkpt><trkpt lat="41.2597837818944" lon="-1.4696699585218536"><ele>890.0</ele><time>2026-05-03T16:13:36.001Z</time></trkpt><trkpt lat="41.25973252449902" lon="-1.4695966718496878"><ele>890.0</ele><time>2026-05-03T16:13:37.001Z</time></trkpt><trkpt lat="41.25968443419985" lon="-1.4695224110687375"><ele>890.0</ele><time>2026-05-03T16:13:38.001Z</time></trkpt><trkpt lat="41.259646832675124" lon="-1.4694343857743386"><ele>890.0</ele><time>2026-05-03T16:13:39.001Z</time></trkpt><trkpt lat="41.25962105434113" lon="-1.4693372007747947"><ele>893.3333333333334</ele><time>2026-05-03T16:13:40.001Z</time></trkpt><trkpt lat="41.25960518405956" lon="-1.4692408631155196"><ele>896.6666666666667</ele><time>2026-05-03T16:13:41.001Z</time></trkpt><trkpt lat="41.25959321438165" lon="-1.4691268352438376"><ele>900.0</ele><time>2026-05-03T16:13:42.001Z</time></trkpt><trkpt lat="41.25959121848199" lon="-1.4690398837471559"><ele>903.3333333333333</ele><time>2026-05-03T16:13:43.001Z</time></trkpt><trkpt lat="41.25960766289001" lon="-1.468940497035511"><ele>906.6666666666666</ele><time>2026-05-03T16:13:44.001Z</time></trkpt><trkpt lat="41.25963441295444" lon="-1.4688442155449095"><ele>910.0</ele><time>2026-05-03T16:13:45.001Z</time></trkpt><trkpt lat="41.25967339192308" lon="-1.4687545655550198"><ele>910.6666666666666</ele><time>2026-05-03T16:13:46.001Z</time></trkpt><trkpt lat="41.25972480091127" lon="-1.4686694257675952"><ele>911.3333333333333</ele><time>2026-05-03T16:13:47.001Z</time></trkpt><trkpt lat="41.259772982687096" lon="-1.4685836290570868"><ele>912.0</ele><time>2026-05-03T16:13:48.001Z</time></trkpt><trkpt lat="41.25980538689668" lon="-1.4684861128668723"><ele>912.6666666666667</ele><time>2026-05-03T16:13:49.001Z</time></trkpt><trkpt lat="41.259827172612624" lon="-1.4683867436012117"><ele>913.3333333333334</ele><time>2026-05-03T16:13:50.001Z</time></trkpt><trkpt lat="41.259850887524955" lon="-1.4682878665747463"><ele>914.0</ele><time>2026-05-03T16:13:51.001Z</time></trkpt><trkpt lat="41.25987012771115" lon="-1.4681889975657294"><ele>911.7142857142858</ele><time>2026-05-03T16:13:52.001Z</time></trkpt><trkpt lat="41.25988578791269" lon="-1.4680939107291076"><ele>909.4285714285714</ele><time>2026-05-03T16:13:53.001Z</time></trkpt><trkpt lat="41.259894411028526" lon="-1.4679896714078873"><ele>907.1428571428571</ele><time>2026-05-03T16:13:54.001Z</time></trkpt><trkpt lat="41.25989767758802" lon="-1.4678891773116494"><ele>904.8571428571429</ele><time>2026-05-03T16:13:55.001Z</time></trkpt><trkpt lat="41.25989677236686" lon="-1.467788236456128"><ele>902.5714285714284</ele><time>2026-05-03T16:13:56.001Z</time></trkpt><trkpt lat="41.259891540386995" lon="-1.4676959341913065"><ele>900.2857142857142</ele><time>2026-05-03T16:13:57.001Z</time></trkpt><trkpt lat="41.25987677327926" lon="-1.4675971056280717"><ele>898.0</ele><time>2026-05-03T16:13:58.001Z</time></trkpt><trkpt lat="41.25985451328813" lon="-1.4675045834874798"><ele>898.0</ele><time>2026-05-03T16:13:59.001Z</time></trkpt><trkpt lat="41.259830867215115" lon="-1.4674086546363287"><ele>897.9999999999999</ele><time>2026-05-03T16:14:00.001Z</time></trkpt><trkpt lat="41.2598064219927" lon="-1.4673164593469066"><ele>898.0</ele><time>2026-05-03T16:14:01.001Z</time></trkpt><trkpt lat="41.259783944827966" lon="-1.4672244423843568"><ele>898.0</ele><time>2026-05-03T16:14:02.001Z</time></trkpt><trkpt lat="41.25976523111168" lon="-1.4671330404371465"><ele>897.9999999999999</ele><time>2026-05-03T16:14:03.001Z</time></trkpt><trkpt lat="41.2597436690792" lon="-1.46703487127811"><ele>898.0</ele><time>2026-05-03T16:14:04.001Z</time></trkpt><trkpt lat="41.2597221199934" lon="-1.466940941620885"><ele>898.0</ele><time>2026-05-03T16:14:05.001Z</time></trkpt><trkpt lat="41.25970200918254" lon="-1.4668483500137934"><ele>900.4285714285713</ele><time>2026-05-03T16:14:06.001Z</time></trkpt><trkpt lat="41.25968207930305" lon="-1.4667583427296267"><ele>902.8571428571428</ele><time>2026-05-03T16:14:07.001Z</time></trkpt><trkpt lat="41.259661990668555" lon="-1.4666631521162186"><ele>905.2857142857142</ele><time>2026-05-03T16:14:08.001Z</time></trkpt><trkpt lat="41.259647617745934" lon="-1.4665707365898342"><ele>907.7142857142858</ele><time>2026-05-03T16:14:09.001Z</time></trkpt><trkpt lat="41.25962925574736" lon="-1.4664716385369985"><ele>910.1428571428572</ele><time>2026-05-03T16:14:10.001Z</time></trkpt><trkpt lat="41.25960973209446" lon="-1.4663771416407472"><ele>912.5714285714287</ele><time>2026-05-03T16:14:11.001Z</time></trkpt><trkpt lat="41.259589241105374" lon="-1.4662862227135536"><ele>915.0</ele><time>2026-05-03T16:14:12.001Z</time></trkpt><trkpt lat="41.25957117231586" lon="-1.4661925495467405"><ele>915.0</ele><time>2026-05-03T16:14:13.001Z</time></trkpt><trkpt lat="41.25954694374071" lon="-1.4661007704147664"><ele>915.0000000000001</ele><time>2026-05-03T16:14:14.001Z</time></trkpt><trkpt lat="41.25951411457298" lon="-1.4660122163984406"><ele>915.0</ele><time>2026-05-03T16:14:15.001Z</time></trkpt><trkpt lat="41.25946773158149" lon="-1.4659370082940546"><ele>915.0</ele><time>2026-05-03T16:14:16.001Z</time></trkpt><trkpt lat="41.25940751831635" lon="-1.4658768217404161"><ele>915.0000000000001</ele><time>2026-05-03T16:14:17.001Z</time></trkpt><trkpt lat="41.259349817001144" lon="-1.465830855513865"><ele>915.0</ele><time>2026-05-03T16:14:18.001Z</time></trkpt><trkpt lat="41.25929066607665" lon="-1.465791340919655"><ele>915.0</ele><time>2026-05-03T16:14:19.001Z</time></trkpt><trkpt lat="41.2592277797568" lon="-1.4657548323370329"><ele>915.0</ele><time>2026-05-03T16:14:20Z</time></trkpt><trkpt lat="41.25915994578871" lon="-1.465723267387516"><ele>915.0000000000001</ele><time>2026-05-03T16:14:21Z</time></trkpt><trkpt lat="41.259085955494136" lon="-1.4657107728087044"><ele>915.0</ele><time>2026-05-03T16:14:22Z</time></trkpt><trkpt lat="41.25901426872583" lon="-1.465715184420518"><ele>915.0</ele><time>2026-05-03T16:14:23Z</time></trkpt><trkpt lat="41.25894357193599" lon="-1.4657491573555184"><ele>915.0000000000001</ele><time>2026-05-03T16:14:24Z</time></trkpt><trkpt lat="41.25888526337412" lon="-1.4658107893322687"><ele>915.0</ele><time>2026-05-03T16:14:25Z</time></trkpt><trkpt lat="41.25883417601868" lon="-1.4658816490587092"><ele>915.0</ele><time>2026-05-03T16:14:26Z</time></trkpt><trkpt lat="41.25878281247576" lon="-1.4659505660275691"><ele>914.5714285714287</ele><time>2026-05-03T16:14:27Z</time></trkpt><trkpt lat="41.25873490104187" lon="-1.4660207213725858"><ele>914.1428571428572</ele><time>2026-05-03T16:14:28Z</time></trkpt><trkpt lat="41.25868715578519" lon="-1.4660908708748046"><ele>913.7142857142858</ele><time>2026-05-03T16:14:29Z</time></trkpt><trkpt lat="41.25863779557219" lon="-1.4661623501466876"><ele>913.2857142857142</ele><time>2026-05-03T16:14:30Z</time></trkpt><trkpt lat="41.258588996668415" lon="-1.4662383210360899"><ele>912.8571428571428</ele><time>2026-05-03T16:14:31Z</time></trkpt><trkpt lat="41.258538573962134" lon="-1.4663122413014213"><ele>912.4285714285713</ele><time>2026-05-03T16:14:32Z</time></trkpt><trkpt lat="41.25848551595967" lon="-1.4663867630726992"><ele>912.0</ele><time>2026-05-03T16:14:33Z</time></trkpt><trkpt lat="41.258434426755585" lon="-1.4664605759188598"><ele>914.0</ele><time>2026-05-03T16:14:34Z</time></trkpt><trkpt lat="41.258382268494515" lon="-1.4665363225781272"><ele>916.0</ele><time>2026-05-03T16:14:35Z</time></trkpt><trkpt lat="41.258331150301615" lon="-1.466610751638981"><ele>918.0</ele><time>2026-05-03T16:14:36Z</time></trkpt><trkpt lat="41.25827796214776" lon="-1.46668389717347"><ele>920.0</ele><time>2026-05-03T16:14:37Z</time></trkpt><trkpt lat="41.2582238745496" lon="-1.466759521320891"><ele>922.0</ele><time>2026-05-03T16:14:38Z</time></trkpt><trkpt lat="41.2581698962665" lon="-1.4668373252468079"><ele>924.0</ele><time>2026-05-03T16:14:39Z</time></trkpt><trkpt lat="41.25811471029954" lon="-1.4669156695029155"><ele>924.0</ele><time>2026-05-03T16:14:40Z</time></trkpt><trkpt lat="41.25805839349281" lon="-1.4669918715544479"><ele>924.0</ele><time>2026-05-03T16:14:41Z</time></trkpt><trkpt lat="41.258002768045515" lon="-1.4670655780915505"><ele>924.0</ele><time>2026-05-03T16:14:42Z</time></trkpt><trkpt lat="41.25794613262746" lon="-1.467136880513711"><ele>924.0</ele><time>2026-05-03T16:14:43Z</time></trkpt><trkpt lat="41.257884117772015" lon="-1.467203662891652"><ele>924.0</ele><time>2026-05-03T16:14:44Z</time></trkpt><trkpt lat="41.25781560770788" lon="-1.4672610216935316"><ele>924.0</ele><time>2026-05-03T16:14:45Z</time></trkpt><trkpt lat="41.25774665166237" lon="-1.4673337241546365"><ele>924.5</ele><time>2026-05-03T16:14:46Z</time></trkpt><trkpt lat="41.2576668033847" lon="-1.4673736191920057"><ele>925.0</ele><time>2026-05-03T16:14:47Z</time></trkpt><trkpt lat="41.2575843693424" lon="-1.4674015165538883"><ele>925.5</ele><time>2026-05-03T16:14:48Z</time></trkpt><trkpt lat="41.25749869653382" lon="-1.4674226151973404"><ele>926.0</ele><time>2026-05-03T16:14:49Z</time></trkpt><trkpt lat="41.25741364144343" lon="-1.4674453618655192"><ele>926.5</ele><time>2026-05-03T16:14:50Z</time></trkpt><trkpt lat="41.25732253241002" lon="-1.4674671091665656"><ele>927.0</ele><time>2026-05-03T16:14:51Z</time></trkpt><trkpt lat="41.25723121208664" lon="-1.4674781824016734"><ele>927.4000000000001</ele><time>2026-05-03T16:14:52Z</time></trkpt><trkpt lat="41.25713863566831" lon="-1.4674577156725814"><ele>927.8000000000001</ele><time>2026-05-03T16:14:53Z</time></trkpt><trkpt lat="41.25704898201205" lon="-1.4674229067246773"><ele>928.2</ele><time>2026-05-03T16:14:54Z</time></trkpt><trkpt lat="41.25697002830253" lon="-1.467359815817019"><ele>928.6</ele><time>2026-05-03T16:14:55Z</time></trkpt><trkpt lat="41.25689326164894" lon="-1.4672915173306478"><ele>929.0</ele><time>2026-05-03T16:14:56Z</time></trkpt><trkpt lat="41.256842794586994" lon="-1.4671874000332206"><ele>928.8000000000001</ele><time>2026-05-03T16:14:57Z</time></trkpt><trkpt lat="41.25678226963384" lon="-1.4670976301989054"><ele>928.6000000000001</ele><time>2026-05-03T16:14:58Z</time></trkpt><trkpt lat="41.25671984268324" lon="-1.4670054405399702"><ele>928.4</ele><time>2026-05-03T16:14:59Z</time></trkpt><trkpt lat="41.25666033757183" lon="-1.4669111439150953"><ele>928.2</ele><time>2026-05-03T16:15:00Z</time></trkpt><trkpt lat="41.25659993510672" lon="-1.4668135218326994"><ele>928.0</ele><time>2026-05-03T16:15:01.001Z</time></trkpt><trkpt lat="41.256537291872895" lon="-1.4667194494863596"><ele>928.0</ele><time>2026-05-03T16:15:02.001Z</time></trkpt><trkpt lat="41.25647355104942" lon="-1.4666244835199471"><ele>928.0</ele><time>2026-05-03T16:15:03.001Z</time></trkpt><trkpt lat="41.25641270069986" lon="-1.466526250037951"><ele>928.0</ele><time>2026-05-03T16:15:04.001Z</time></trkpt><trkpt lat="41.256352957254116" lon="-1.466428264498553"><ele>928.0</ele><time>2026-05-03T16:15:05.001Z</time></trkpt><trkpt lat="41.2562923783079" lon="-1.4663292842358457"><ele>928.0</ele><time>2026-05-03T16:15:06.001Z</time></trkpt><trkpt lat="41.25622774504872" lon="-1.466230345615876"><ele>927.4</ele><time>2026-05-03T16:15:07.001Z</time></trkpt><trkpt lat="41.2561612659799" lon="-1.4661285875561456"><ele>926.8</ele><time>2026-05-03T16:15:08.001Z</time></trkpt><trkpt lat="41.256096728025796" lon="-1.4660257145297153"><ele>926.2</ele><time>2026-05-03T16:15:09.001Z</time></trkpt><trkpt lat="41.25602885981387" lon="-1.4659242556550205"><ele>925.6</ele><time>2026-05-03T16:15:10.001Z</time></trkpt><trkpt lat="41.25596414882329" lon="-1.4658200771826255"><ele>925.0</ele><time>2026-05-03T16:15:11.001Z</time></trkpt><trkpt lat="41.255897387825684" lon="-1.4657190856497568"><ele>925.0</ele><time>2026-05-03T16:15:12.001Z</time></trkpt><trkpt lat="41.255833885305904" lon="-1.465612278284956"><ele>925.0</ele><time>2026-05-03T16:15:13.001Z</time></trkpt><trkpt lat="41.25576315414489" lon="-1.4655072439748975"><ele>925.0</ele><time>2026-05-03T16:15:14.001Z</time></trkpt><trkpt lat="41.255696873639785" lon="-1.4654082151248535"><ele>925.0</ele><time>2026-05-03T16:15:15.001Z</time></trkpt><trkpt lat="41.255624198890935" lon="-1.4653144178059827"><ele>925.0</ele><time>2026-05-03T16:15:16.001Z</time></trkpt><trkpt lat="41.255549737084536" lon="-1.4652189375890918"><ele>925.0</ele><time>2026-05-03T16:15:17.001Z</time></trkpt><trkpt lat="41.25547611586571" lon="-1.465125216578138"><ele>925.0</ele><time>2026-05-03T16:15:18.001Z</time></trkpt><trkpt lat="41.25540154714995" lon="-1.4650307032090224"><ele>925.0</ele><time>2026-05-03T16:15:19.001Z</time></trkpt><trkpt lat="41.255326807331656" lon="-1.4649373748345882"><ele>925.0</ele><time>2026-05-03T16:15:20.001Z</time></trkpt><trkpt lat="41.25523898451919" lon="-1.464857685489744"><ele>925.0</ele><time>2026-05-03T16:15:21.001Z</time></trkpt><trkpt lat="41.25517323931296" lon="-1.4647482991113387"><ele>925.0</ele><time>2026-05-03T16:15:22.001Z</time></trkpt><trkpt lat="41.255094166931" lon="-1.4646560547544893"><ele>925.0</ele><time>2026-05-03T16:15:23.001Z</time></trkpt><trkpt lat="41.25501494003856" lon="-1.4645640409777818"><ele>925.0</ele><time>2026-05-03T16:15:24.001Z</time></trkpt><trkpt lat="41.254937045736725" lon="-1.4644721957905615"><ele>925.0</ele><time>2026-05-03T16:15:25.001Z</time></trkpt><trkpt lat="41.254859467308684" lon="-1.4643780947645952"><ele>925.0</ele><time>2026-05-03T16:15:26.001Z</time></trkpt><trkpt lat="41.254784421469" lon="-1.4642850959231684"><ele>923.6</ele><time>2026-05-03T16:15:27.001Z</time></trkpt><trkpt lat="41.254711716186215" lon="-1.4641912618892665"><ele>922.2</ele><time>2026-05-03T16:15:28.001Z</time></trkpt><trkpt lat="41.254635086439635" lon="-1.464095217092866"><ele>920.8</ele><time>2026-05-03T16:15:29.001Z</time></trkpt><trkpt lat="41.25455770900951" lon="-1.4639975036078106"><ele>919.4</ele><time>2026-05-03T16:15:30.001Z</time></trkpt><trkpt lat="41.25448566473354" lon="-1.4639010154991234"><ele>918.0</ele><time>2026-05-03T16:15:31.001Z</time></trkpt><trkpt lat="41.25441973501472" lon="-1.4638041675758229"><ele>919.8</ele><time>2026-05-03T16:15:32.001Z</time></trkpt><trkpt lat="41.25435572107287" lon="-1.4636930483131785"><ele>921.5999999999999</ele><time>2026-05-03T16:15:33.001Z</time></trkpt><trkpt lat="41.2543040617938" lon="-1.4635716998140005"><ele>923.4000000000001</ele><time>2026-05-03T16:15:34.001Z</time></trkpt><trkpt lat="41.25427578921428" lon="-1.4634409735912506"><ele>925.2</ele><time>2026-05-03T16:15:35.001Z</time></trkpt><trkpt lat="41.25426337477013" lon="-1.4633021852218633"><ele>927.0</ele><time>2026-05-03T16:15:36.001Z</time></trkpt><trkpt lat="41.25425921653728" lon="-1.4631646762532766"><ele>927.0</ele><time>2026-05-03T16:15:37.001Z</time></trkpt><trkpt lat="41.25426012186654" lon="-1.463024654505239"><ele>927.0</ele><time>2026-05-03T16:15:38.001Z</time></trkpt><trkpt lat="41.25426270327437" lon="-1.4628919849579713"><ele>927.0</ele><time>2026-05-03T16:15:39.001Z</time></trkpt><trkpt lat="41.25426871168864" lon="-1.462760366992992"><ele>927.0</ele><time>2026-05-03T16:15:40.001Z</time></trkpt><trkpt lat="41.25426762840034" lon="-1.4626292307174815"><ele>927.0</ele><time>2026-05-03T16:15:41.001Z</time></trkpt><trkpt lat="41.2542654062518" lon="-1.4624952569979253"><ele>927.4000000000001</ele><time>2026-05-03T16:15:42.001Z</time></trkpt><trkpt lat="41.25426333437217" lon="-1.4623638014994742"><ele>927.8000000000001</ele><time>2026-05-03T16:15:43.001Z</time></trkpt><trkpt lat="41.25426555226837" lon="-1.4622317619098786"><ele>928.2</ele><time>2026-05-03T16:15:44.001Z</time></trkpt><trkpt lat="41.25426366514485" lon="-1.4620970435342124"><ele>928.6</ele><time>2026-05-03T16:15:45.001Z</time></trkpt><trkpt lat="41.25427053412991" lon="-1.4619645590696584"><ele>929.0</ele><time>2026-05-03T16:15:46.001Z</time></trkpt><trkpt lat="41.254276516522616" lon="-1.4618300187918893"><ele>929.0</ele><time>2026-05-03T16:15:47.001Z</time></trkpt><trkpt lat="41.2542875367083" lon="-1.4616957082076767"><ele>929.0000000000001</ele><time>2026-05-03T16:15:48.001Z</time></trkpt><trkpt lat="41.25430563715444" lon="-1.4615573371869381"><ele>929.0000000000001</ele><time>2026-05-03T16:15:49.001Z</time></trkpt><trkpt lat="41.25432184338668" lon="-1.4614215107228408"><ele>929.0</ele><time>2026-05-03T16:15:50.001Z</time></trkpt><trkpt lat="41.25434129815582" lon="-1.461283130844364"><ele>929.0</ele><time>2026-05-03T16:15:51.001Z</time></trkpt><trkpt lat="41.254361365265375" lon="-1.4611445480472898"><ele>929.8000000000001</ele><time>2026-05-03T16:15:52.001Z</time></trkpt><trkpt lat="41.25437862876978" lon="-1.461009634653429"><ele>930.6000000000001</ele><time>2026-05-03T16:15:53.001Z</time></trkpt><trkpt lat="41.254398372583644" lon="-1.460875370504582"><ele>931.4</ele><time>2026-05-03T16:15:54.001Z</time></trkpt><trkpt lat="41.254423829723294" lon="-1.4607447001070597"><ele>932.2</ele><time>2026-05-03T16:15:55.001Z</time></trkpt><trkpt lat="41.254443077082" lon="-1.460607370473356"><ele>933.0</ele><time>2026-05-03T16:15:56.001Z</time></trkpt><trkpt lat="41.254462858130374" lon="-1.4604682654261771"><ele>933.2</ele><time>2026-05-03T16:15:57.001Z</time></trkpt><trkpt lat="41.254483132688335" lon="-1.4603362382114553"><ele>933.4</ele><time>2026-05-03T16:15:58.001Z</time></trkpt><trkpt lat="41.254501178119455" lon="-1.4602020807592322"><ele>933.6000000000001</ele><time>2026-05-03T16:15:59.001Z</time></trkpt><trkpt lat="41.25452189650888" lon="-1.460066195634103"><ele>933.8000000000001</ele><time>2026-05-03T16:16:00.001Z</time></trkpt><trkpt lat="41.254540723509386" lon="-1.4599337512449353"><ele>934.0</ele><time>2026-05-03T16:16:01.001Z</time></trkpt><trkpt lat="41.25456107923496" lon="-1.4597986211773468"><ele>934.0</ele><time>2026-05-03T16:16:02.001Z</time></trkpt><trkpt lat="41.25457338420665" lon="-1.4596598945214097"><ele>934.0000000000001</ele><time>2026-05-03T16:16:03.001Z</time></trkpt><trkpt lat="41.254589728319075" lon="-1.4595217350811382"><ele>934.0000000000001</ele><time>2026-05-03T16:16:04.001Z</time></trkpt><trkpt lat="41.254608288914035" lon="-1.4593849685944573"><ele>934.0</ele><time>2026-05-03T16:16:05.001Z</time></trkpt><trkpt lat="41.25462526945769" lon="-1.4592461090679274"><ele>934.0</ele><time>2026-05-03T16:16:06.001Z</time></trkpt><trkpt lat="41.254647629322214" lon="-1.4591113353200762"><ele>933.8000000000001</ele><time>2026-05-03T16:16:07.001Z</time></trkpt><trkpt lat="41.25467103666859" lon="-1.4589729092092636"><ele>933.6000000000001</ele><time>2026-05-03T16:16:08.001Z</time></trkpt><trkpt lat="41.25469118579515" lon="-1.4588324485175497"><ele>933.4</ele><time>2026-05-03T16:16:09.001Z</time></trkpt><trkpt lat="41.25471265766708" lon="-1.4586936133160424"><ele>933.2</ele><time>2026-05-03T16:16:10.001Z</time></trkpt><trkpt lat="41.254734104609014" lon="-1.4585538637191962"><ele>933.0</ele><time>2026-05-03T16:16:11.001Z</time></trkpt><trkpt lat="41.25475422924266" lon="-1.4584137244422264"><ele>933.0</ele><time>2026-05-03T16:16:12.001Z</time></trkpt><trkpt lat="41.25476870466955" lon="-1.4582734196821308"><ele>933.0</ele><time>2026-05-03T16:16:13.001Z</time></trkpt><trkpt lat="41.25479306128402" lon="-1.4581329276439026"><ele>933.0</ele><time>2026-05-03T16:16:14.001Z</time></trkpt><trkpt lat="41.254813802873194" lon="-1.4579987097359168"><ele>933.0</ele><time>2026-05-03T16:16:15.001Z</time></trkpt><trkpt lat="41.25483472127057" lon="-1.4578630013017846"><ele>933.0</ele><time>2026-05-03T16:16:16.001Z</time></trkpt><trkpt lat="41.25485488724062" lon="-1.457722351906134"><ele>933.0</ele><time>2026-05-03T16:16:17.001Z</time></trkpt><trkpt lat="41.254873242864456" lon="-1.4575772883016167"><ele>933.0</ele><time>2026-05-03T16:16:18.001Z</time></trkpt><trkpt lat="41.254890049876195" lon="-1.4574359893933815"><ele>933.0</ele><time>2026-05-03T16:16:19.001Z</time></trkpt><trkpt lat="41.254907943540275" lon="-1.4573011148243102"><ele>933.0</ele><time>2026-05-03T16:16:20.001Z</time></trkpt><trkpt lat="41.254928780198775" lon="-1.4571598042705551"><ele>933.0</ele><time>2026-05-03T16:16:21.001Z</time></trkpt><trkpt lat="41.25494928674346" lon="-1.4570203043329433"><ele>932.5999999999999</ele><time>2026-05-03T16:16:22.001Z</time></trkpt><trkpt lat="41.25497008413339" lon="-1.456886904648612"><ele>932.1999999999999</ele><time>2026-05-03T16:16:23.001Z</time></trkpt><trkpt lat="41.254987868553265" lon="-1.4567468617119816"><ele>931.8</ele><time>2026-05-03T16:16:24.001Z</time></trkpt><trkpt lat="41.25500979611892" lon="-1.4566194953428078"><ele>931.4</ele><time>2026-05-03T16:16:25.001Z</time></trkpt><trkpt lat="41.25502491275959" lon="-1.4564993979776406"><ele>931.0</ele><time>2026-05-03T16:16:26Z</time></trkpt><trkpt lat="41.25503871096017" lon="-1.4563863342445262"><ele>930.9999999999999</ele><time>2026-05-03T16:16:27Z</time></trkpt><trkpt lat="41.25505261912312" lon="-1.4562827722912561"><ele>931.0</ele><time>2026-05-03T16:16:28Z</time></trkpt><trkpt lat="41.25506825297972" lon="-1.4561884819118749"><ele>931.0</ele><time>2026-05-03T16:16:29Z</time></trkpt><trkpt lat="41.25508284387759" lon="-1.4560995349219714"><ele>931.0</ele><time>2026-05-03T16:16:30Z</time></trkpt><trkpt lat="41.25510420746309" lon="-1.4559477305100208"><ele>930.9999999999999</ele><time>2026-05-03T16:16:32Z</time></trkpt><trkpt lat="41.2551200762213" lon="-1.4558179970841274"><ele>931.0</ele><time>2026-05-03T16:16:34Z</time></trkpt><trkpt lat="41.25512832096249" lon="-1.455720310285234"><ele>930.9999999999999</ele><time>2026-05-03T16:16:36Z</time></trkpt><trkpt lat="41.25514598783917" lon="-1.4556231270597841"><ele>931.0</ele><time>2026-05-03T16:16:39Z</time></trkpt><trkpt lat="41.25517291498692" lon="-1.455543144200676"><ele>931.0</ele><time>2026-05-03T16:29:48Z</time></trkpt><trkpt lat="41.255184538817296" lon="-1.4554404117034216"><ele>931.0</ele><time>2026-05-03T16:29:50Z</time></trkpt><trkpt lat="41.25520546734525" lon="-1.455305667548365"><ele>930.9999999999999</ele><time>2026-05-03T16:29:52Z</time></trkpt><trkpt lat="41.25521718739679" lon="-1.45522005363707"><ele>931.0</ele><time>2026-05-03T16:29:53Z</time></trkpt><trkpt lat="41.255228089852984" lon="-1.4551330219555336"><ele>930.9999999999999</ele><time>2026-05-03T16:29:54Z</time></trkpt><trkpt lat="41.255241908711156" lon="-1.4550427835906101"><ele>931.0</ele><time>2026-05-03T16:29:55Z</time></trkpt><trkpt lat="41.25525598048835" lon="-1.4549463352466119"><ele>931.0</ele><time>2026-05-03T16:29:56Z</time></trkpt><trkpt lat="41.255267739620336" lon="-1.4548450541517404"><ele>931.0</ele><time>2026-05-03T16:29:57Z</time></trkpt><trkpt lat="41.25528492128703" lon="-1.4547393388296697"><ele>930.9999999999999</ele><time>2026-05-03T16:29:58Z</time></trkpt><trkpt lat="41.25529850951996" lon="-1.454636851282496"><ele>931.0</ele><time>2026-05-03T16:29:59Z</time></trkpt><trkpt lat="41.255314799033684" lon="-1.4545277209176246"><ele>930.9999999999999</ele><time>2026-05-03T16:30:00Z</time></trkpt><trkpt lat="41.25533114255295" lon="-1.4544180468028989"><ele>931.0</ele><time>2026-05-03T16:30:01Z</time></trkpt><trkpt lat="41.25534716397453" lon="-1.4543061376598325"><ele>931.0</ele><time>2026-05-03T16:30:02Z</time></trkpt><trkpt lat="41.255361585954425" lon="-1.454191322162816"><ele>931.0</ele><time>2026-05-03T16:30:03Z</time></trkpt><trkpt lat="41.255379067295614" lon="-1.4540773114896306"><ele>930.9999999999999</ele><time>2026-05-03T16:30:04Z</time></trkpt><trkpt lat="41.25539273746025" lon="-1.4539607503041883"><ele>931.0</ele><time>2026-05-03T16:30:05Z</time></trkpt><trkpt lat="41.25540633268652" lon="-1.4538410735809506"><ele>931.1999999999999</ele><time>2026-05-03T16:30:06Z</time></trkpt><trkpt lat="41.25542352868031" lon="-1.4537236556768076"><ele>931.3999999999999</ele><time>2026-05-03T16:30:07Z</time></trkpt><trkpt lat="41.25544128963336" lon="-1.4536042631479964"><ele>931.6</ele><time>2026-05-03T16:30:08Z</time></trkpt><trkpt lat="41.25545700116096" lon="-1.4534843102107646"><ele>931.8</ele><time>2026-05-03T16:30:09Z</time></trkpt><trkpt lat="41.25547163546746" lon="-1.4533662901411069"><ele>932.0</ele><time>2026-05-03T16:30:10Z</time></trkpt><trkpt lat="41.25549116013297" lon="-1.453247665406521"><ele>932.0</ele><time>2026-05-03T16:30:11Z</time></trkpt><trkpt lat="41.255505066725426" lon="-1.4531246089939047"><ele>932.0</ele><time>2026-05-03T16:30:12Z</time></trkpt><trkpt lat="41.25552138775328" lon="-1.4530036260705605"><ele>932.0</ele><time>2026-05-03T16:30:13Z</time></trkpt><trkpt lat="41.25554308237089" lon="-1.452881904785189"><ele>932.0</ele><time>2026-05-03T16:30:14Z</time></trkpt><trkpt lat="41.25555809151192" lon="-1.4527618719941084"><ele>932.0</ele><time>2026-05-03T16:30:15Z</time></trkpt><trkpt lat="41.25557449604735" lon="-1.4526371908378746"><ele>931.8</ele><time>2026-05-03T16:30:16Z</time></trkpt><trkpt lat="41.25559215023537" lon="-1.4525139562287275"><ele>931.6</ele><time>2026-05-03T16:30:17Z</time></trkpt><trkpt lat="41.255613133387975" lon="-1.452393507265536"><ele>931.3999999999999</ele><time>2026-05-03T16:30:18Z</time></trkpt><trkpt lat="41.255627363398936" lon="-1.452266253234366"><ele>931.1999999999999</ele><time>2026-05-03T16:30:19Z</time></trkpt><trkpt lat="41.25564672963051" lon="-1.4521448363854967"><ele>931.0</ele><time>2026-05-03T16:30:20Z</time></trkpt><trkpt lat="41.25566272043902" lon="-1.452021145129678"><ele>930.4</ele><time>2026-05-03T16:30:21Z</time></trkpt><trkpt lat="41.2556822639138" lon="-1.451897456680599"><ele>929.8</ele><time>2026-05-03T16:30:22Z</time></trkpt><trkpt lat="41.25569766361903" lon="-1.4517715772219364"><ele>929.1999999999999</ele><time>2026-05-03T16:30:23Z</time></trkpt><trkpt lat="41.255716577212524" lon="-1.4516428465179718"><ele>928.5999999999999</ele><time>2026-05-03T16:30:24Z</time></trkpt><trkpt lat="41.255734795386864" lon="-1.451515490617934"><ele>928.0</ele><time>2026-05-03T16:30:25Z</time></trkpt><trkpt lat="41.255749010097674" lon="-1.4513843980775603"><ele>928.2</ele><time>2026-05-03T16:30:26Z</time></trkpt><trkpt lat="41.255773011786374" lon="-1.451252209246407"><ele>928.4</ele><time>2026-05-03T16:30:27Z</time></trkpt><trkpt lat="41.25578428399543" lon="-1.4511194949666697"><ele>928.6000000000001</ele><time>2026-05-03T16:30:28Z</time></trkpt><trkpt lat="41.25580865722575" lon="-1.4509897003048189"><ele>928.8000000000001</ele><time>2026-05-03T16:30:29Z</time></trkpt><trkpt lat="41.25582491943249" lon="-1.4508595161902897"><ele>929.0</ele><time>2026-05-03T16:30:30Z</time></trkpt><trkpt lat="41.25584802693445" lon="-1.4507253081689653"><ele>929.0</ele><time>2026-05-03T16:30:31Z</time></trkpt><trkpt lat="41.25585182510355" lon="-1.450592208369425"><ele>929.0000000000001</ele><time>2026-05-03T16:30:32Z</time></trkpt><trkpt lat="41.25587088897408" lon="-1.4504562030013715"><ele>929.0000000000001</ele><time>2026-05-03T16:30:33Z</time></trkpt><trkpt lat="41.25588926485229" lon="-1.4503251057855555"><ele>929.0</ele><time>2026-05-03T16:30:34Z</time></trkpt><trkpt lat="41.25592382985627" lon="-1.450195040470309"><ele>929.0</ele><time>2026-05-03T16:30:35Z</time></trkpt><trkpt lat="41.255935199222485" lon="-1.450057504118263"><ele>929.0</ele><time>2026-05-03T16:30:36Z</time></trkpt><trkpt lat="41.25595577091197" lon="-1.4499225280583083"><ele>929.0000000000001</ele><time>2026-05-03T16:30:37Z</time></trkpt><trkpt lat="41.25597564458383" lon="-1.4497833400361708"><ele>929.0000000000001</ele><time>2026-05-03T16:30:38Z</time></trkpt><trkpt lat="41.25599593445903" lon="-1.4496462225213875"><ele>929.0</ele><time>2026-05-03T16:30:39Z</time></trkpt><trkpt lat="41.25601473180707" lon="-1.4495071031532165"><ele>929.0</ele><time>2026-05-03T16:30:40Z</time></trkpt><trkpt lat="41.25603976150869" lon="-1.449370101521684"><ele>929.2</ele><time>2026-05-03T16:30:41Z</time></trkpt><trkpt lat="41.25605503819338" lon="-1.449235197277337"><ele>929.4000000000001</ele><time>2026-05-03T16:30:42Z</time></trkpt><trkpt lat="41.25607263259094" lon="-1.449094301583425"><ele>929.6</ele><time>2026-05-03T16:30:43Z</time></trkpt><trkpt lat="41.256095276216854" lon="-1.448953977718533"><ele>929.8</ele><time>2026-05-03T16:30:44Z</time></trkpt><trkpt lat="41.256119617642064" lon="-1.448815504549"><ele>930.0</ele><time>2026-05-03T16:30:45Z</time></trkpt><trkpt lat="41.256138608751485" lon="-1.44867732233733"><ele>930.2</ele><time>2026-05-03T16:30:46Z</time></trkpt><trkpt lat="41.256165737449415" lon="-1.4485380013829745"><ele>930.4</ele><time>2026-05-03T16:30:47Z</time></trkpt><trkpt lat="41.2561918076571" lon="-1.4483983256478543"><ele>930.5999999999999</ele><time>2026-05-03T16:30:48Z</time></trkpt><trkpt lat="41.256219612779525" lon="-1.4482606205824888"><ele>930.8</ele><time>2026-05-03T16:30:49Z</time></trkpt><trkpt lat="41.25624707251886" lon="-1.448122615809776"><ele>931.0</ele><time>2026-05-03T16:30:50Z</time></trkpt><trkpt lat="41.25627081051571" lon="-1.4479832763589333"><ele>930.5999999999999</ele><time>2026-05-03T16:30:51Z</time></trkpt><trkpt lat="41.256296669706956" lon="-1.4478461765095805"><ele>930.1999999999999</ele><time>2026-05-03T16:30:52Z</time></trkpt><trkpt lat="41.25632199772971" lon="-1.4477087517415899"><ele>929.8000000000001</ele><time>2026-05-03T16:30:53Z</time></trkpt><trkpt lat="41.25635025709165" lon="-1.4475658444121986"><ele>929.4000000000001</ele><time>2026-05-03T16:30:54Z</time></trkpt><trkpt lat="41.256370539861145" lon="-1.4474308378171485"><ele>929.0</ele><time>2026-05-03T16:30:55Z</time></trkpt><trkpt lat="41.25639907273934" lon="-1.4472897798122597"><ele>929.0</ele><time>2026-05-03T16:30:56Z</time></trkpt><trkpt lat="41.25642690349329" lon="-1.4471527825332586"><ele>929.0000000000001</ele><time>2026-05-03T16:30:57Z</time></trkpt><trkpt lat="41.25645219203313" lon="-1.4470144094007618"><ele>929.0000000000001</ele><time>2026-05-03T16:30:58Z</time></trkpt><trkpt lat="41.2564786054619" lon="-1.4468770372077975"><ele>929.0</ele><time>2026-05-03T16:30:59Z</time></trkpt><trkpt lat="41.256506015605034" lon="-1.4467405186166333"><ele>929.0</ele><time>2026-05-03T16:31:00Z</time></trkpt><trkpt lat="41.25653151540453" lon="-1.446601186033755"><ele>929.0</ele><time>2026-05-03T16:31:01Z</time></trkpt><trkpt lat="41.25655869351514" lon="-1.4464624213291428"><ele>929.0000000000001</ele><time>2026-05-03T16:31:02Z</time></trkpt><trkpt lat="41.25658093108841" lon="-1.446318169930857"><ele>929.0000000000001</ele><time>2026-05-03T16:31:03Z</time></trkpt><trkpt lat="41.25661052296309" lon="-1.4461801559432468"><ele>929.0</ele><time>2026-05-03T16:31:04Z</time></trkpt><trkpt lat="41.25663425808803" lon="-1.4460422691844341"><ele>929.0</ele><time>2026-05-03T16:31:05Z</time></trkpt><trkpt lat="41.25665753822737" lon="-1.445902315081703"><ele>929.0</ele><time>2026-05-03T16:31:06Z</time></trkpt><trkpt lat="41.256685097361434" lon="-1.4457634230507184"><ele>929.0000000000001</ele><time>2026-05-03T16:31:07Z</time></trkpt><trkpt lat="41.256709871049836" lon="-1.4456235351150084"><ele>929.0000000000001</ele><time>2026-05-03T16:31:07.999Z</time></trkpt><trkpt lat="41.25673554508343" lon="-1.4454849550837021"><ele>929.0</ele><time>2026-05-03T16:31:08.999Z</time></trkpt><trkpt lat="41.25676218837288" lon="-1.445345879302444"><ele>929.0</ele><time>2026-05-03T16:31:09.999Z</time></trkpt><trkpt lat="41.256790218645115" lon="-1.4452099549872723"><ele>929.0</ele><time>2026-05-03T16:31:10.999Z</time></trkpt><trkpt lat="41.25681623237099" lon="-1.4450705307301617"><ele>929.0000000000001</ele><time>2026-05-03T16:31:11.999Z</time></trkpt><trkpt lat="41.25683798122151" lon="-1.444937553469217"><ele>929.0000000000001</ele><time>2026-05-03T16:31:12.999Z</time></trkpt><trkpt lat="41.25686537441538" lon="-1.44479788120737"><ele>929.0</ele><time>2026-05-03T16:31:13.999Z</time></trkpt><trkpt lat="41.256893964261515" lon="-1.4446612932904577"><ele>929.0</ele><time>2026-05-03T16:31:14.999Z</time></trkpt><trkpt lat="41.25691366763973" lon="-1.4445248269928461"><ele>928.8000000000001</ele><time>2026-05-03T16:31:15.999Z</time></trkpt><trkpt lat="41.25693574079504" lon="-1.4443834531553796"><ele>928.6000000000001</ele><time>2026-05-03T16:31:16.999Z</time></trkpt><trkpt lat="41.25696171292885" lon="-1.4442464655568807"><ele>928.4</ele><time>2026-05-03T16:31:17.999Z</time></trkpt><trkpt lat="41.25699139036074" lon="-1.4441087712645826"><ele>928.2</ele><time>2026-05-03T16:31:18.999Z</time></trkpt><trkpt lat="41.257018619260435" lon="-1.4439757189181959"><ele>928.0</ele><time>2026-05-03T16:31:19.999Z</time></trkpt><trkpt lat="41.25704737825781" lon="-1.4438376471487882"><ele>928.2</ele><time>2026-05-03T16:31:20.999Z</time></trkpt><trkpt lat="41.25705843060696" lon="-1.4436969632170655"><ele>928.4</ele><time>2026-05-03T16:31:21.999Z</time></trkpt><trkpt lat="41.257098326033955" lon="-1.4435647568065901"><ele>928.6000000000001</ele><time>2026-05-03T16:31:22.999Z</time></trkpt><trkpt lat="41.25712443366682" lon="-1.4434246930114685"><ele>928.8000000000001</ele><time>2026-05-03T16:31:23.999Z</time></trkpt><trkpt lat="41.257150571962065" lon="-1.4432870328572955"><ele>929.0</ele><time>2026-05-03T16:31:24.999Z</time></trkpt><trkpt lat="41.25717136296793" lon="-1.4431500140234277"><ele>929.0</ele><time>2026-05-03T16:31:25.999Z</time></trkpt><trkpt lat="41.25719635475238" lon="-1.4430109131030349"><ele>929.0000000000001</ele><time>2026-05-03T16:31:26.999Z</time></trkpt><trkpt lat="41.257219116555895" lon="-1.4428774272699214"><ele>929.0000000000001</ele><time>2026-05-03T16:31:27.999Z</time></trkpt><trkpt lat="41.25723679642224" lon="-1.4427394617870613"><ele>929.0</ele><time>2026-05-03T16:31:28.999Z</time></trkpt><trkpt lat="41.257278010669644" lon="-1.4426112023394146"><ele>929.0</ele><time>2026-05-03T16:31:29.999Z</time></trkpt><trkpt lat="41.25728876125596" lon="-1.442464117591058"><ele>928.2</ele><time>2026-05-03T16:31:31Z</time></trkpt><trkpt lat="41.2573273651229" lon="-1.4423298990311795"><ele>927.4000000000001</ele><time>2026-05-03T16:31:32Z</time></trkpt><trkpt lat="41.25735329294519" lon="-1.4421921556176116"><ele>926.6</ele><time>2026-05-03T16:31:33Z</time></trkpt><trkpt lat="41.25738564607394" lon="-1.4420554983049736"><ele>925.8</ele><time>2026-05-03T16:31:34Z</time></trkpt><trkpt lat="41.25742090859171" lon="-1.441919721013794"><ele>925.0</ele><time>2026-05-03T16:31:35Z</time></trkpt><trkpt lat="41.257460339655104" lon="-1.4417897324389977"><ele>925.0</ele><time>2026-05-03T16:31:36Z</time></trkpt><trkpt lat="41.25750631403392" lon="-1.4416595832105477"><ele>925.0</ele><time>2026-05-03T16:31:37Z</time></trkpt><trkpt lat="41.25755981174795" lon="-1.441536317575017"><ele>925.0</ele><time>2026-05-03T16:31:38Z</time></trkpt><trkpt lat="41.25761944405044" lon="-1.4414172404888308"><ele>925.0</ele><time>2026-05-03T16:31:39Z</time></trkpt><trkpt lat="41.25768256724736" lon="-1.441298356149251"><ele>925.0</ele><time>2026-05-03T16:31:40Z</time></trkpt><trkpt lat="41.25774692556775" lon="-1.441180029177388"><ele>925.0</ele><time>2026-05-03T16:31:41Z</time></trkpt><trkpt lat="41.25780933512442" lon="-1.4410633008030214"><ele>925.0</ele><time>2026-05-03T16:31:42Z</time></trkpt><trkpt lat="41.25786841067364" lon="-1.4409449260358975"><ele>925.0</ele><time>2026-05-03T16:31:43Z</time></trkpt><trkpt lat="41.25793049902295" lon="-1.440824015720971"><ele>925.0</ele><time>2026-05-03T16:31:44Z</time></trkpt><trkpt lat="41.257991525665005" lon="-1.4407078927586832"><ele>925.0</ele><time>2026-05-03T16:31:45Z</time></trkpt><trkpt lat="41.25805364526694" lon="-1.4405938056778917"><ele>925.0</ele><time>2026-05-03T16:31:46Z</time></trkpt><trkpt lat="41.25811419645137" lon="-1.4404798127601663"><ele>925.0</ele><time>2026-05-03T16:31:47Z</time></trkpt><trkpt lat="41.25817687550252" lon="-1.4403639438310754"><ele>925.0</ele><time>2026-05-03T16:31:48Z</time></trkpt><trkpt lat="41.25823898152364" lon="-1.4402444169624775"><ele>925.0</ele><time>2026-05-03T16:31:49Z</time></trkpt><trkpt lat="41.25829876827543" lon="-1.4401294437803007"><ele>925.0</ele><time>2026-05-03T16:31:50Z</time></trkpt><trkpt lat="41.25835850733457" lon="-1.4400103829890512"><ele>924.8</ele><time>2026-05-03T16:31:51Z</time></trkpt><trkpt lat="41.25841771302254" lon="-1.4398953429787973"><ele>924.6</ele><time>2026-05-03T16:31:52Z</time></trkpt><trkpt lat="41.25847773287862" lon="-1.4397736774361893"><ele>924.4000000000001</ele><time>2026-05-03T16:31:53Z</time></trkpt><trkpt lat="41.25853744338716" lon="-1.4396542746429077"><ele>924.2</ele><time>2026-05-03T16:31:54Z</time></trkpt><trkpt lat="41.25859661613353" lon="-1.439535567637993"><ele>924.0</ele><time>2026-05-03T16:31:55Z</time></trkpt><trkpt lat="41.2586584105958" lon="-1.4394164967103422"><ele>924.0</ele><time>2026-05-03T16:31:56Z</time></trkpt><trkpt lat="41.25872004339333" lon="-1.4392976454944466"><ele>924.0000000000001</ele><time>2026-05-03T16:31:57Z</time></trkpt><trkpt lat="41.25878056572576" lon="-1.4391797990866262"><ele>924.0000000000001</ele><time>2026-05-03T16:31:58Z</time></trkpt><trkpt lat="41.25884040947854" lon="-1.4390555549338075"><ele>924.0</ele><time>2026-05-03T16:31:59Z</time></trkpt><trkpt lat="41.2589005550849" lon="-1.4389382052914022"><ele>924.0</ele><time>2026-05-03T16:32:00Z</time></trkpt><trkpt lat="41.25896497919012" lon="-1.4388217844689082"><ele>924.0</ele><time>2026-05-03T16:32:01Z</time></trkpt><trkpt lat="41.25903502406159" lon="-1.4387035152044576"><ele>924.0000000000001</ele><time>2026-05-03T16:32:02Z</time></trkpt><trkpt lat="41.25909197707983" lon="-1.4385820521102808"><ele>924.0000000000001</ele><time>2026-05-03T16:32:03Z</time></trkpt><trkpt lat="41.25915271014389" lon="-1.4384610347882503"><ele>924.0</ele><time>2026-05-03T16:32:04Z</time></trkpt><trkpt lat="41.25921767718671" lon="-1.4383425419706408"><ele>924.0</ele><time>2026-05-03T16:32:05Z</time></trkpt><trkpt lat="41.25927697260386" lon="-1.4382235327862856"><ele>924.0</ele><time>2026-05-03T16:32:06Z</time></trkpt><trkpt lat="41.25933904686172" lon="-1.438098422601"><ele>924.0000000000001</ele><time>2026-05-03T16:32:07Z</time></trkpt><trkpt lat="41.25940300700656" lon="-1.437979122175414"><ele>924.0000000000001</ele><time>2026-05-03T16:32:08Z</time></trkpt><trkpt lat="41.25946526089225" lon="-1.4378636320036613"><ele>924.0</ele><time>2026-05-03T16:32:09Z</time></trkpt><trkpt lat="41.2595283846572" lon="-1.43774388358888"><ele>924.0</ele><time>2026-05-03T16:32:10Z</time></trkpt><trkpt lat="41.259584474558984" lon="-1.4376216021094552"><ele>924.0</ele><time>2026-05-03T16:32:11Z</time></trkpt><trkpt lat="41.25964205357721" lon="-1.4374998009402675"><ele>924.0000000000001</ele><time>2026-05-03T16:32:12Z</time></trkpt><trkpt lat="41.25970422581805" lon="-1.4373785564345103"><ele>924.0000000000001</ele><time>2026-05-03T16:32:13Z</time></trkpt><trkpt lat="41.25976748745547" lon="-1.437262665314607"><ele>924.0</ele><time>2026-05-03T16:32:14Z</time></trkpt><trkpt lat="41.25983623510191" lon="-1.4371457785909374"><ele>924.0</ele><time>2026-05-03T16:32:15Z</time></trkpt><trkpt lat="41.25989881017686" lon="-1.4370303078665438"><ele>924.2</ele><time>2026-05-03T16:32:16Z</time></trkpt><trkpt lat="41.25995624268251" lon="-1.4369084495142614"><ele>924.4000000000001</ele><time>2026-05-03T16:32:17Z</time></trkpt><trkpt lat="41.260016415076244" lon="-1.436791862018642"><ele>924.6</ele><time>2026-05-03T16:32:18Z</time></trkpt><trkpt lat="41.26007354336769" lon="-1.4366727206175158"><ele>924.8</ele><time>2026-05-03T16:32:19Z</time></trkpt><trkpt lat="41.26013050426991" lon="-1.4365535925436368"><ele>925.0</ele><time>2026-05-03T16:32:20Z</time></trkpt><trkpt lat="41.2601920150434" lon="-1.4364324707341996"><ele>925.0</ele><time>2026-05-03T16:32:21Z</time></trkpt><trkpt lat="41.26025368780739" lon="-1.436317709727815"><ele>925.0</ele><time>2026-05-03T16:32:22Z</time></trkpt><trkpt lat="41.26031728938356" lon="-1.4362020758973324"><ele>925.0</ele><time>2026-05-03T16:32:23Z</time></trkpt><trkpt lat="41.26038081734918" lon="-1.4360854070104483"><ele>925.0</ele><time>2026-05-03T16:32:24Z</time></trkpt><trkpt lat="41.260443531224126" lon="-1.4359731840412404"><ele>925.0</ele><time>2026-05-03T16:32:25Z</time></trkpt><trkpt lat="41.26048852029877" lon="-1.4358440967671526"><ele>924.8</ele><time>2026-05-03T16:32:26Z</time></trkpt><trkpt lat="41.26055789347167" lon="-1.4357347258221873"><ele>924.6</ele><time>2026-05-03T16:32:27Z</time></trkpt><trkpt lat="41.26061181447846" lon="-1.4356127291850813"><ele>924.4000000000001</ele><time>2026-05-03T16:32:28Z</time></trkpt><trkpt lat="41.26066205820459" lon="-1.435489745626021"><ele>924.2</ele><time>2026-05-03T16:32:29Z</time></trkpt><trkpt lat="41.26071272795906" lon="-1.43536315494872"><ele>924.0</ele><time>2026-05-03T16:32:30Z</time></trkpt><trkpt lat="41.260760025401154" lon="-1.4352347562060246"><ele>923.4000000000001</ele><time>2026-05-03T16:32:31Z</time></trkpt><trkpt lat="41.26080986193949" lon="-1.435107363353875"><ele>922.8000000000001</ele><time>2026-05-03T16:32:32Z</time></trkpt><trkpt lat="41.26084809894769" lon="-1.4349789515778804"><ele>922.1999999999999</ele><time>2026-05-03T16:32:33Z</time></trkpt><trkpt lat="41.260894683773245" lon="-1.4348483703910015"><ele>921.5999999999999</ele><time>2026-05-03T16:32:34Z</time></trkpt><trkpt lat="41.26093956220255" lon="-1.4347170139274454"><ele>921.0</ele><time>2026-05-03T16:32:35Z</time></trkpt><trkpt lat="41.26098179548286" lon="-1.434586081023297"><ele>920.8</ele><time>2026-05-03T16:32:36Z</time></trkpt><trkpt lat="41.261031322251796" lon="-1.434455362711229"><ele>920.5999999999999</ele><time>2026-05-03T16:32:37Z</time></trkpt><trkpt lat="41.26107683411206" lon="-1.4343260871680932"><ele>920.4</ele><time>2026-05-03T16:32:38Z</time></trkpt><trkpt lat="41.26111572486116" lon="-1.434193222471201"><ele>920.2</ele><time>2026-05-03T16:32:39Z</time></trkpt><trkpt lat="41.26115189245672" lon="-1.43406138196939"><ele>920.0</ele><time>2026-05-03T16:32:40Z</time></trkpt><trkpt lat="41.26120835224322" lon="-1.4339398153643992"><ele>920.0</ele><time>2026-05-03T16:32:41Z</time></trkpt><trkpt lat="41.261254904457815" lon="-1.4338143760825237"><ele>920.0</ele><time>2026-05-03T16:32:42Z</time></trkpt><trkpt lat="41.26128805125718" lon="-1.4336709083085843"><ele>920.0</ele><time>2026-05-03T16:32:43Z</time></trkpt><trkpt lat="41.261345897507326" lon="-1.4335549750652916"><ele>920.0</ele><time>2026-05-03T16:32:44Z</time></trkpt><trkpt lat="41.2613892265728" lon="-1.4334211640218222"><ele>920.0</ele><time>2026-05-03T16:32:45Z</time></trkpt><trkpt lat="41.26142997440788" lon="-1.4332889991421012"><ele>919.6</ele><time>2026-05-03T16:32:46Z</time></trkpt><trkpt lat="41.26147464834538" lon="-1.4331623789371788"><ele>919.2</ele><time>2026-05-03T16:32:47Z</time></trkpt><trkpt lat="41.26151990795612" lon="-1.4330343960872982"><ele>918.8</ele><time>2026-05-03T16:32:48Z</time></trkpt><trkpt lat="41.26156463996937" lon="-1.4329044207546178"><ele>918.4</ele><time>2026-05-03T16:32:49Z</time></trkpt><trkpt lat="41.2616127716856" lon="-1.4327731372228454"><ele>918.0</ele><time>2026-05-03T16:32:50Z</time></trkpt><trkpt lat="41.26165558186868" lon="-1.4326471440085768"><ele>918.0</ele><time>2026-05-03T16:32:51Z</time></trkpt><trkpt lat="41.26169691016891" lon="-1.4325149800795463"><ele>918.0</ele><time>2026-05-03T16:32:52Z</time></trkpt><trkpt lat="41.26174604701278" lon="-1.4323854129928344"><ele>918.0</ele><time>2026-05-03T16:32:53Z</time></trkpt><trkpt lat="41.26179012357942" lon="-1.4322564093792396"><ele>918.0</ele><time>2026-05-03T16:32:54Z</time></trkpt><trkpt lat="41.261836068565614" lon="-1.4321292005790356"><ele>918.0</ele><time>2026-05-03T16:32:55Z</time></trkpt><trkpt lat="41.26188198193798" lon="-1.432005966791415"><ele>917.8</ele><time>2026-05-03T16:32:56Z</time></trkpt><trkpt lat="41.261910491367566" lon="-1.4318757322821483"><ele>917.5999999999999</ele><time>2026-05-03T16:32:57Z</time></trkpt><trkpt lat="41.26195047786929" lon="-1.4317498206001325"><ele>917.4000000000001</ele><time>2026-05-03T16:32:58Z</time></trkpt><trkpt lat="41.26198493215636" lon="-1.4316189736195044"><ele>917.2</ele><time>2026-05-03T16:32:59Z</time></trkpt><trkpt lat="41.2620085207928" lon="-1.4314841566054644"><ele>917.0</ele><time>2026-05-03T16:33:00Z</time></trkpt><trkpt lat="41.262013663483465" lon="-1.4313455121590273"><ele>916.4000000000001</ele><time>2026-05-03T16:33:01Z</time></trkpt><trkpt lat="41.26201384457155" lon="-1.4312055484997217"><ele>915.8000000000001</ele><time>2026-05-03T16:33:02Z</time></trkpt><trkpt lat="41.26201286489948" lon="-1.4310608132270703"><ele>915.2</ele><time>2026-05-03T16:33:03Z</time></trkpt><trkpt lat="41.2620102338117" lon="-1.4309196554877683"><ele>914.6</ele><time>2026-05-03T16:33:04Z</time></trkpt><trkpt lat="41.26200760406613" lon="-1.4307765312699947"><ele>914.0</ele><time>2026-05-03T16:33:05Z</time></trkpt><trkpt lat="41.26200531545311" lon="-1.4306346977894322"><ele>914.0</ele><time>2026-05-03T16:33:06Z</time></trkpt><trkpt lat="41.26200307009123" lon="-1.4304955446246086"><ele>914.0000000000001</ele><time>2026-05-03T16:33:07Z</time></trkpt><trkpt lat="41.262000868630544" lon="-1.4303591123047323"><ele>914.0000000000001</ele><time>2026-05-03T16:33:08Z</time></trkpt><trkpt lat="41.261998586671034" lon="-1.4302176911957993"><ele>914.0</ele><time>2026-05-03T16:33:09Z</time></trkpt><trkpt lat="41.26199633893799" lon="-1.430078391132824"><ele>914.0</ele><time>2026-05-03T16:33:10Z</time></trkpt><trkpt lat="41.26199402938437" lon="-1.4299352598398463"><ele>914.0</ele><time>2026-05-03T16:33:11Z</time></trkpt><trkpt lat="41.26199164753917" lon="-1.429787648369871"><ele>914.0000000000001</ele><time>2026-05-03T16:33:12Z</time></trkpt><trkpt lat="41.26198941421865" lon="-1.4296492416757063"><ele>914.0000000000001</ele><time>2026-05-03T16:33:13Z</time></trkpt><trkpt lat="41.26198724918353" lon="-1.429515066593274"><ele>914.0</ele><time>2026-05-03T16:33:13.999Z</time></trkpt><trkpt lat="41.261984991290134" lon="-1.4293751368409306"><ele>914.0</ele><time>2026-05-03T16:33:14.999Z</time></trkpt><trkpt lat="41.261982870138716" lon="-1.429243681494569"><ele>913.0</ele><time>2026-05-03T16:33:15.999Z</time></trkpt><trkpt lat="41.26198073963756" lon="-1.4291116466899103"><ele>912.0000000000001</ele><time>2026-05-03T16:33:16.999Z</time></trkpt><trkpt lat="41.261978501839685" lon="-1.4289729623808907"><ele>911.0000000000001</ele><time>2026-05-03T16:33:17.999Z</time></trkpt><trkpt lat="41.26199461344417" lon="-1.428833674885094"><ele>910.0</ele><time>2026-05-03T16:33:18.999Z</time></trkpt><trkpt lat="41.261998422307656" lon="-1.4286916889920116"><ele>909.0</ele><time>2026-05-03T16:33:19.999Z</time></trkpt><trkpt lat="41.262011654932415" lon="-1.4285486643905503"><ele>908.6</ele><time>2026-05-03T16:33:20.999Z</time></trkpt><trkpt lat="41.262028706495926" lon="-1.428405118565242"><ele>908.2</ele><time>2026-05-03T16:33:21.999Z</time></trkpt><trkpt lat="41.26205770691308" lon="-1.4282644018046773"><ele>907.8000000000001</ele><time>2026-05-03T16:33:22.999Z</time></trkpt><trkpt lat="41.26207602298141" lon="-1.428126328002281"><ele>907.4000000000001</ele><time>2026-05-03T16:33:23.999Z</time></trkpt><trkpt lat="41.26208189043286" lon="-1.4279753731864868"><ele>907.0</ele><time>2026-05-03T16:33:24.999Z</time></trkpt><trkpt lat="41.26211576122987" lon="-1.4278377004612939"><ele>907.0</ele><time>2026-05-03T16:33:25.999Z</time></trkpt><trkpt lat="41.262129773583496" lon="-1.4276987272006125"><ele>907.0</ele><time>2026-05-03T16:33:26.999Z</time></trkpt><trkpt lat="41.26214728721505" lon="-1.4275560643835308"><ele>907.0</ele><time>2026-05-03T16:33:27.999Z</time></trkpt><trkpt lat="41.26216924028723" lon="-1.427418615429854"><ele>907.0</ele><time>2026-05-03T16:33:28.999Z</time></trkpt><trkpt lat="41.26218345400966" lon="-1.4272809869178202"><ele>907.0</ele><time>2026-05-03T16:33:29.999Z</time></trkpt><trkpt lat="41.26220096847957" lon="-1.427137588031155"><ele>907.0</ele><time>2026-05-03T16:33:30.999Z</time></trkpt><trkpt lat="41.26222166545038" lon="-1.4269987830864481"><ele>907.0</ele><time>2026-05-03T16:33:31.999Z</time></trkpt><trkpt lat="41.26224538468641" lon="-1.4268557000011861"><ele>907.0</ele><time>2026-05-03T16:33:32.999Z</time></trkpt><trkpt lat="41.26226398367667" lon="-1.4267206908301935"><ele>907.0</ele><time>2026-05-03T16:33:33.999Z</time></trkpt><trkpt lat="41.26227524457639" lon="-1.4265804016567403"><ele>907.0</ele><time>2026-05-03T16:33:34.999Z</time></trkpt><trkpt lat="41.26229520259258" lon="-1.4264379256798718"><ele>905.8</ele><time>2026-05-03T16:33:35.999Z</time></trkpt><trkpt lat="41.26231428789378" lon="-1.4263016796785353"><ele>904.6</ele><time>2026-05-03T16:33:36.999Z</time></trkpt><trkpt lat="41.26233372748344" lon="-1.4261629045389914"><ele>903.3999999999999</ele><time>2026-05-03T16:33:37.999Z</time></trkpt><trkpt lat="41.26235306999317" lon="-1.426024822390811"><ele>902.1999999999999</ele><time>2026-05-03T16:33:38.999Z</time></trkpt><trkpt lat="41.26237301868135" lon="-1.4258824129430163"><ele>901.0</ele><time>2026-05-03T16:33:39.999Z</time></trkpt><trkpt lat="41.262392168799956" lon="-1.4257457042572008"><ele>901.0</ele><time>2026-05-03T16:33:40.999Z</time></trkpt><trkpt lat="41.26241186465526" lon="-1.4256050997036682"><ele>900.9999999999999</ele><time>2026-05-03T16:33:41.999Z</time></trkpt><trkpt lat="41.26243135476176" lon="-1.4254659639313594"><ele>900.9999999999999</ele><time>2026-05-03T16:33:42.999Z</time></trkpt><trkpt lat="41.262450684426796" lon="-1.4253279735356397"><ele>901.0</ele><time>2026-05-03T16:33:44Z</time></trkpt><trkpt lat="41.26247045141168" lon="-1.4251868612043983"><ele>901.0</ele><time>2026-05-03T16:33:45Z</time></trkpt><trkpt lat="41.262496317238" lon="-1.4250488102192282"><ele>900.8</ele><time>2026-05-03T16:33:46Z</time></trkpt><trkpt lat="41.26251851048946" lon="-1.424909573110553"><ele>900.5999999999999</ele><time>2026-05-03T16:33:47Z</time></trkpt><trkpt lat="41.26253881362036" lon="-1.4247678995118935"><ele>900.4</ele><time>2026-05-03T16:33:48Z</time></trkpt><trkpt lat="41.262561326460016" lon="-1.4246269648162213"><ele>900.2</ele><time>2026-05-03T16:33:49Z</time></trkpt><trkpt lat="41.26257509083586" lon="-1.424488359482183"><ele>900.0</ele><time>2026-05-03T16:33:50Z</time></trkpt><trkpt lat="41.26259806080696" lon="-1.4243490371005916"><ele>899.4</ele><time>2026-05-03T16:33:51Z</time></trkpt><trkpt lat="41.26261300920474" lon="-1.4242119051290818"><ele>898.8</ele><time>2026-05-03T16:33:52Z</time></trkpt><trkpt lat="41.26263281864756" lon="-1.4240807207606219"><ele>898.2</ele><time>2026-05-03T16:33:53Z</time></trkpt><trkpt lat="41.26265399166747" lon="-1.4239448101643863"><ele>897.6</ele><time>2026-05-03T16:33:54Z</time></trkpt><trkpt lat="41.26266626354019" lon="-1.4238092320992388"><ele>897.0</ele><time>2026-05-03T16:33:55Z</time></trkpt><trkpt lat="41.26265714452811" lon="-1.4236764955898968"><ele>896.2</ele><time>2026-05-03T16:33:56Z</time></trkpt><trkpt lat="41.26264751470229" lon="-1.4235456718544706"><ele>895.4000000000001</ele><time>2026-05-03T16:33:57Z</time></trkpt><trkpt lat="41.26263045393317" lon="-1.423413388463373"><ele>894.5999999999999</ele><time>2026-05-03T16:33:58Z</time></trkpt><trkpt lat="41.26260897045937" lon="-1.4232803385013086"><ele>893.8</ele><time>2026-05-03T16:33:59Z</time></trkpt><trkpt lat="41.26258863747722" lon="-1.423146059756085"><ele>893.0</ele><time>2026-05-03T16:34:00Z</time></trkpt><trkpt lat="41.26256869520537" lon="-1.423011316649802"><ele>893.0</ele><time>2026-05-03T16:34:01Z</time></trkpt><trkpt lat="41.26254857788415" lon="-1.4228753902988378"><ele>893.0</ele><time>2026-05-03T16:34:02Z</time></trkpt><trkpt lat="41.262529047613086" lon="-1.422743430640353"><ele>893.0</ele><time>2026-05-03T16:34:03Z</time></trkpt><trkpt lat="41.26250877183121" lon="-1.4226064334662947"><ele>893.0</ele><time>2026-05-03T16:34:04Z</time></trkpt><trkpt lat="41.26248722198692" lon="-1.4224714839456094"><ele>893.0</ele><time>2026-05-03T16:34:05Z</time></trkpt><trkpt lat="41.262466072048376" lon="-1.4223392818760865"><ele>893.0</ele><time>2026-05-03T16:34:06Z</time></trkpt><trkpt lat="41.262444269072034" lon="-1.422202997528183"><ele>893.0</ele><time>2026-05-03T16:34:07Z</time></trkpt><trkpt lat="41.262423128397565" lon="-1.4220655476690267"><ele>893.0</ele><time>2026-05-03T16:34:08Z</time></trkpt><trkpt lat="41.262413869073754" lon="-1.4219225591958626"><ele>893.0</ele><time>2026-05-03T16:34:09Z</time></trkpt><trkpt lat="41.26241930422253" lon="-1.421773528025814"><ele>893.0</ele><time>2026-05-03T16:34:10Z</time></trkpt><trkpt lat="41.26244311137567" lon="-1.4216284342581085"><ele>893.0</ele><time>2026-05-03T16:34:11Z</time></trkpt><trkpt lat="41.26246000223829" lon="-1.4214904228341287"><ele>893.0</ele><time>2026-05-03T16:34:12Z</time></trkpt><trkpt lat="41.26245823108758" lon="-1.4213525681209687"><ele>893.0</ele><time>2026-05-03T16:34:13Z</time></trkpt><trkpt lat="41.26247216580274" lon="-1.421212329461253"><ele>893.0</ele><time>2026-05-03T16:34:14Z</time></trkpt><trkpt lat="41.26248567965859" lon="-1.4210763261226482"><ele>893.0</ele><time>2026-05-03T16:34:15Z</time></trkpt><trkpt lat="41.262498473093395" lon="-1.420947573063295"><ele>892.4</ele><time>2026-05-03T16:34:16Z</time></trkpt><trkpt lat="41.26251147577988" lon="-1.4208127363678877"><ele>891.8</ele><time>2026-05-03T16:34:17Z</time></trkpt><trkpt lat="41.262522970808085" lon="-1.4206836147080517"><ele>891.2</ele><time>2026-05-03T16:34:18Z</time></trkpt><trkpt lat="41.26253458300079" lon="-1.4205531770428634"><ele>890.6</ele><time>2026-05-03T16:34:19Z</time></trkpt><trkpt lat="41.26254716178098" lon="-1.4204118821975036"><ele>890.0</ele><time>2026-05-03T16:34:20Z</time></trkpt><trkpt lat="41.26255918187715" lon="-1.4202768626382956"><ele>889.2</ele><time>2026-05-03T16:34:21Z</time></trkpt><trkpt lat="41.262571163873616" lon="-1.4201422713584622"><ele>888.4</ele><time>2026-05-03T16:34:22Z</time></trkpt><trkpt lat="41.262582888923106" lon="-1.4200105657278523"><ele>887.5999999999999</ele><time>2026-05-03T16:34:23Z</time></trkpt><trkpt lat="41.262595138762705" lon="-1.4198729656028168"><ele>886.8</ele><time>2026-05-03T16:34:24Z</time></trkpt><trkpt lat="41.26260732551245" lon="-1.4197360744306786"><ele>886.0</ele><time>2026-05-03T16:34:25Z</time></trkpt><trkpt lat="41.262620097560884" lon="-1.419592607763692"><ele>885.5999999999999</ele><time>2026-05-03T16:34:26Z</time></trkpt><trkpt lat="41.2626318478808" lon="-1.4194606187565688"><ele>885.1999999999999</ele><time>2026-05-03T16:34:27Z</time></trkpt><trkpt lat="41.262643253525475" lon="-1.4193251242645917"><ele>884.8000000000001</ele><time>2026-05-03T16:34:28Z</time></trkpt><trkpt lat="41.26265401067379" lon="-1.4191932749577467"><ele>884.4000000000001</ele><time>2026-05-03T16:34:29Z</time></trkpt><trkpt lat="41.262665327634245" lon="-1.4190545642268833"><ele>884.0</ele><time>2026-05-03T16:34:30Z</time></trkpt><trkpt lat="41.26267688338961" lon="-1.4189129271085763"><ele>883.2</ele><time>2026-05-03T16:34:31Z</time></trkpt><trkpt lat="41.2626879926485" lon="-1.4187767620211968"><ele>882.4000000000001</ele><time>2026-05-03T16:34:32Z</time></trkpt><trkpt lat="41.26269504058028" lon="-1.4186417256913617"><ele>881.6</ele><time>2026-05-03T16:34:33Z</time></trkpt><trkpt lat="41.262699077805976" lon="-1.4185130361534695"><ele>880.8</ele><time>2026-05-03T16:34:34Z</time></trkpt><trkpt lat="41.262694756574135" lon="-1.4183859473299738"><ele>880.0</ele><time>2026-05-03T16:34:35Z</time></trkpt><trkpt lat="41.26267005220128" lon="-1.4182608101094307"><ele>880.0</ele><time>2026-05-03T16:34:36Z</time></trkpt><trkpt lat="41.26263745414179" lon="-1.418127629090775"><ele>880.0</ele><time>2026-05-03T16:34:37Z</time></trkpt><trkpt lat="41.26260030371102" lon="-1.417991618337571"><ele>880.0</ele><time>2026-05-03T16:34:38Z</time></trkpt><trkpt lat="41.26256234990716" lon="-1.4178586566699634"><ele>880.0</ele><time>2026-05-03T16:34:39Z</time></trkpt><trkpt lat="41.26252605218331" lon="-1.4177331088293377"><ele>880.0</ele><time>2026-05-03T16:34:40Z</time></trkpt><trkpt lat="41.2624919060968" lon="-1.4176132799614198"><ele>879.8</ele><time>2026-05-03T16:34:41Z</time></trkpt><trkpt lat="41.262461508019754" lon="-1.4174993549201633"><ele>879.6</ele><time>2026-05-03T16:34:42Z</time></trkpt><trkpt lat="41.26243561154023" lon="-1.417383494514041"><ele>879.4000000000001</ele><time>2026-05-03T16:34:43Z</time></trkpt><trkpt lat="41.262413038697844" lon="-1.417263765452625"><ele>879.2</ele><time>2026-05-03T16:34:44Z</time></trkpt><trkpt lat="41.26242172550675" lon="-1.4171325661969212"><ele>879.0</ele><time>2026-05-03T16:34:45Z</time></trkpt><trkpt lat="41.26243012408594" lon="-1.4170013791717169"><ele>878.6</ele><time>2026-05-03T16:34:46Z</time></trkpt><trkpt lat="41.262454248433585" lon="-1.4168704715039264"><ele>878.2</ele><time>2026-05-03T16:34:47Z</time></trkpt><trkpt lat="41.2624810656949" lon="-1.4167354108406507"><ele>877.8000000000001</ele><time>2026-05-03T16:34:48Z</time></trkpt><trkpt lat="41.262505567236985" lon="-1.416598616196957"><ele>877.4000000000001</ele><time>2026-05-03T16:34:49Z</time></trkpt><trkpt lat="41.26252749027155" lon="-1.416461309084717"><ele>877.0</ele><time>2026-05-03T16:34:50Z</time></trkpt><trkpt lat="41.26254782790799" lon="-1.4163230298900467"><ele>876.2</ele><time>2026-05-03T16:34:51Z</time></trkpt><trkpt lat="41.26256687912331" lon="-1.4161823800126099"><ele>875.4000000000001</ele><time>2026-05-03T16:34:52Z</time></trkpt><trkpt lat="41.262591026778296" lon="-1.4160462764091968"><ele>874.5999999999999</ele><time>2026-05-03T16:34:53Z</time></trkpt><trkpt lat="41.262610900888376" lon="-1.4159117278065918"><ele>873.8</ele><time>2026-05-03T16:34:54Z</time></trkpt><trkpt lat="41.262634806621136" lon="-1.4157791963842745"><ele>873.0</ele><time>2026-05-03T16:34:55Z</time></trkpt><trkpt lat="41.262658864381585" lon="-1.4156478576187967"><ele>873.0</ele><time>2026-05-03T16:34:56Z</time></trkpt><trkpt lat="41.26267832045843" lon="-1.415515801756947"><ele>873.0</ele><time>2026-05-03T16:34:57Z</time></trkpt><trkpt lat="41.26270047941975" lon="-1.4153812392060876"><ele>873.0</ele><time>2026-05-03T16:34:58Z</time></trkpt><trkpt lat="41.262722224634466" lon="-1.4152427554930365"><ele>873.0</ele><time>2026-05-03T16:34:59Z</time></trkpt><trkpt lat="41.26276386567974" lon="-1.415119684063575"><ele>873.0</ele><time>2026-05-03T16:35:00Z</time></trkpt><trkpt lat="41.26279829111295" lon="-1.4149936780155645"><ele>872.2</ele><time>2026-05-03T16:35:01Z</time></trkpt><trkpt lat="41.262880340576025" lon="-1.4148985994966459"><ele>871.4</ele><time>2026-05-03T16:35:02Z</time></trkpt><trkpt lat="41.26295056108573" lon="-1.4148015237022669"><ele>870.6000000000001</ele><time>2026-05-03T16:35:03Z</time></trkpt><trkpt lat="41.26302856571912" lon="-1.4147118804154477"><ele>869.8000000000001</ele><time>2026-05-03T16:35:04Z</time></trkpt><trkpt lat="41.26311575626776" lon="-1.4146335464810684"><ele>869.0</ele><time>2026-05-03T16:35:05Z</time></trkpt><trkpt lat="41.2632029461232" lon="-1.41455418540802"><ele>868.6</ele><time>2026-05-03T16:35:06Z</time></trkpt><trkpt lat="41.26328075178772" lon="-1.4144640952726457"><ele>868.2</ele><time>2026-05-03T16:35:07Z</time></trkpt><trkpt lat="41.263360410261654" lon="-1.4143769516849822"><ele>867.8000000000001</ele><time>2026-05-03T16:35:08Z</time></trkpt><trkpt lat="41.26344155027931" lon="-1.4142890245460653"><ele>867.4000000000001</ele><time>2026-05-03T16:35:09Z</time></trkpt><trkpt lat="41.263528617736064" lon="-1.4142027880227792"><ele>867.0</ele><time>2026-05-03T16:35:10Z</time></trkpt><trkpt lat="41.2636157086781" lon="-1.4141179689004126"><ele>867.0</ele><time>2026-05-03T16:35:11Z</time></trkpt><trkpt lat="41.263698111715065" lon="-1.4140327559389227"><ele>867.0</ele><time>2026-05-03T16:35:12Z</time></trkpt><trkpt lat="41.263780972796525" lon="-1.4139416199671793"><ele>867.0</ele><time>2026-05-03T16:35:13Z</time></trkpt><trkpt lat="41.263866587548264" lon="-1.413859418468803"><ele>867.0</ele><time>2026-05-03T16:35:14Z</time></trkpt><trkpt lat="41.26395165348994" lon="-1.4137695880295151"><ele>867.0</ele><time>2026-05-03T16:35:15.001Z</time></trkpt><trkpt lat="41.2640340941521" lon="-1.413680818029955"><ele>866.0</ele><time>2026-05-03T16:35:16.001Z</time></trkpt><trkpt lat="41.26411895774154" lon="-1.413591515058399"><ele>865.0</ele><time>2026-05-03T16:35:17.001Z</time></trkpt><trkpt lat="41.26420376639793" lon="-1.4135061125983586"><ele>864.0</ele><time>2026-05-03T16:35:18.001Z</time></trkpt><trkpt lat="41.26428598615531" lon="-1.4134181268279176"><ele>863.0</ele><time>2026-05-03T16:35:19.001Z</time></trkpt><trkpt lat="41.264371920592154" lon="-1.4133295838069837"><ele>862.0</ele><time>2026-05-03T16:35:19.999Z</time></trkpt><trkpt lat="41.26445572028668" lon="-1.413242238031869"><ele>862.0</ele><time>2026-05-03T16:35:20.999Z</time></trkpt><trkpt lat="41.264540569954896" lon="-1.4131577742633654"><ele>862.0</ele><time>2026-05-03T16:35:21.999Z</time></trkpt><trkpt lat="41.26462272257015" lon="-1.4130738126262914"><ele>862.0</ele><time>2026-05-03T16:35:22.999Z</time></trkpt><trkpt lat="41.264706808385554" lon="-1.412990176021779"><ele>862.0</ele><time>2026-05-03T16:35:23.999Z</time></trkpt><trkpt lat="41.26479207442873" lon="-1.4129059698263426"><ele>862.0</ele><time>2026-05-03T16:35:24.999Z</time></trkpt><trkpt lat="41.26487560457777" lon="-1.412817445663361"><ele>861.8</ele><time>2026-05-03T16:35:25.999Z</time></trkpt><trkpt lat="41.26495711250762" lon="-1.412728513610843"><ele>861.6</ele><time>2026-05-03T16:35:26.999Z</time></trkpt><trkpt lat="41.26504185796972" lon="-1.4126443895823502"><ele>861.3999999999999</ele><time>2026-05-03T16:35:27.999Z</time></trkpt><trkpt lat="41.26512600461021" lon="-1.4125577435875794"><ele>861.1999999999999</ele><time>2026-05-03T16:35:28.999Z</time></trkpt><trkpt lat="41.26520809687043" lon="-1.412465430222979"><ele>861.0</ele><time>2026-05-03T16:35:29.999Z</time></trkpt><trkpt lat="41.26528239472701" lon="-1.4123640966318838"><ele>861.0</ele><time>2026-05-03T16:35:30.999Z</time></trkpt><trkpt lat="41.265350781218025" lon="-1.41225765193677"><ele>860.9999999999999</ele><time>2026-05-03T16:35:31.999Z</time></trkpt><trkpt lat="41.265417476207226" lon="-1.4121431281595664"><ele>860.9999999999999</ele><time>2026-05-03T16:35:32.999Z</time></trkpt><trkpt lat="41.26547909463102" lon="-1.4120363065758672"><ele>861.0</ele><time>2026-05-03T16:35:33.999Z</time></trkpt><trkpt lat="41.26554226991756" lon="-1.4119261818460058"><ele>861.0</ele><time>2026-05-03T16:35:34.999Z</time></trkpt><trkpt lat="41.265611872788234" lon="-1.411814800847776"><ele>861.4</ele><time>2026-05-03T16:35:35.999Z</time></trkpt><trkpt lat="41.26567341199562" lon="-1.4116988073127443"><ele>861.8</ele><time>2026-05-03T16:35:36.999Z</time></trkpt><trkpt lat="41.26576114178187" lon="-1.4116153472187734"><ele>862.1999999999999</ele><time>2026-05-03T16:35:37.999Z</time></trkpt><trkpt lat="41.26584056394271" lon="-1.4115169345351093"><ele>862.5999999999999</ele><time>2026-05-03T16:35:38.999Z</time></trkpt><trkpt lat="41.26590971146503" lon="-1.411413916441086"><ele>863.0</ele><time>2026-05-03T16:35:39.999Z</time></trkpt><trkpt lat="41.26599467200741" lon="-1.4113303545932963"><ele>861.8</ele><time>2026-05-03T16:35:40.999Z</time></trkpt><trkpt lat="41.26607592663464" lon="-1.4112466824877243"><ele>860.5999999999999</ele><time>2026-05-03T16:35:41.999Z</time></trkpt><trkpt lat="41.26615684429384" lon="-1.41115442096394"><ele>859.4000000000001</ele><time>2026-05-03T16:35:42.999Z</time></trkpt><trkpt lat="41.26623415529271" lon="-1.4110601887460847"><ele>858.2</ele><time>2026-05-03T16:35:44Z</time></trkpt><trkpt lat="41.26631173799451" lon="-1.410967570534743"><ele>857.0</ele><time>2026-05-03T16:35:45Z</time></trkpt><trkpt lat="41.26639035893934" lon="-1.4108780087524995"><ele>857.2</ele><time>2026-05-03T16:35:46Z</time></trkpt><trkpt lat="41.26646003665822" lon="-1.4107788618587471"><ele>857.4000000000001</ele><time>2026-05-03T16:35:47Z</time></trkpt><trkpt lat="41.26652526223544" lon="-1.4106677708238142"><ele>857.5999999999999</ele><time>2026-05-03T16:35:48Z</time></trkpt><trkpt lat="41.26656389663215" lon="-1.410541301171169"><ele>857.8</ele><time>2026-05-03T16:35:49Z</time></trkpt><trkpt lat="41.26661255278968" lon="-1.410419849597546"><ele>858.0</ele><time>2026-05-03T16:35:50Z</time></trkpt><trkpt lat="41.26667279605849" lon="-1.4103119435982783"><ele>857.4</ele><time>2026-05-03T16:35:51Z</time></trkpt><trkpt lat="41.26671558080846" lon="-1.4101932379601163"><ele>856.8</ele><time>2026-05-03T16:35:52Z</time></trkpt><trkpt lat="41.266757081898255" lon="-1.410081140892876"><ele>856.2</ele><time>2026-05-03T16:35:53Z</time></trkpt><trkpt lat="41.266790477159965" lon="-1.409972809516089"><ele>855.6</ele><time>2026-05-03T16:35:54Z</time></trkpt><trkpt lat="41.26683444416766" lon="-1.4098698398063851"><ele>855.0</ele><time>2026-05-03T16:35:55Z</time></trkpt><trkpt lat="41.26687394571373" lon="-1.4097737172674838"><ele>855.0</ele><time>2026-05-03T16:35:56Z</time></trkpt><trkpt lat="41.266909577672976" lon="-1.4096750333968648"><ele>855.0</ele><time>2026-05-03T16:35:57Z</time></trkpt><trkpt lat="41.26694832785018" lon="-1.4095840748353807"><ele>855.0</ele><time>2026-05-03T16:35:58Z</time></trkpt><trkpt lat="41.2669799748936" lon="-1.409496530833501"><ele>855.0</ele><time>2026-05-03T16:35:59Z</time></trkpt><trkpt lat="41.26700114690076" lon="-1.4094031746043645"><ele>855.0</ele><time>2026-05-03T16:36:00Z</time></trkpt><trkpt lat="41.26700515386909" lon="-1.4093130377886722"><ele>855.0</ele><time>2026-05-03T16:36:01Z</time></trkpt><trkpt lat="41.26697416680916" lon="-1.4092258072489505"><ele>855.0</ele><time>2026-05-03T16:36:02Z</time></trkpt><trkpt lat="41.26695208391484" lon="-1.4091411343367226"><ele>854.75</ele><time>2026-05-03T16:36:03Z</time></trkpt><trkpt lat="41.26688672100639" lon="-1.4089997746611225"><ele>854.5</ele><time>2026-05-03T16:36:05Z</time></trkpt><trkpt lat="41.266822480961196" lon="-1.4088646820479511"><ele>854.25</ele><time>2026-05-03T16:36:07Z</time></trkpt><trkpt lat="41.26676235296282" lon="-1.4087424381260338"><ele>854.0</ele><time>2026-05-03T16:36:09Z</time></trkpt><trkpt lat="41.26670579314791" lon="-1.4086274484563708"><ele>853.8000000000001</ele><time>2026-05-03T16:36:11Z</time></trkpt><trkpt lat="41.266651171285964" lon="-1.4085163997214107"><ele>853.6000000000001</ele><time>2026-05-03T16:36:13Z</time></trkpt><trkpt lat="41.266599258391864" lon="-1.4084109218742613"><ele>853.4</ele><time>2026-05-03T16:36:15Z</time></trkpt><trkpt lat="41.26655742511069" lon="-1.4082902971315145"><ele>853.2</ele><time>2026-05-03T16:36:17Z</time></trkpt><trkpt lat="41.26653567252257" lon="-1.4081599998022445"><ele>853.0</ele><time>2026-05-03T16:36:19Z</time></trkpt><trkpt lat="41.2665405143393" lon="-1.4080353369351615"><ele>853.0</ele><time>2026-05-03T16:36:21Z</time></trkpt><trkpt lat="41.26653564441564" lon="-1.4081473426599875"><ele>853.0</ele><time>2026-05-03T16:36:56.001Z</time></trkpt><trkpt lat="41.266559564634946" lon="-1.4083012728862903"><ele>853.0</ele><time>2026-05-03T16:36:58.001Z</time></trkpt><trkpt lat="41.26661181763835" lon="-1.4084483468377746"><ele>853.0</ele><time>2026-05-03T16:37:00.001Z</time></trkpt><trkpt lat="41.26665917517134" lon="-1.4085326807512142"><ele>853.0</ele><time>2026-05-03T16:37:01.001Z</time></trkpt><trkpt lat="41.26669738575686" lon="-1.4086103310186133"><ele>852.9999999999999</ele><time>2026-05-03T16:37:02.001Z</time></trkpt><trkpt lat="41.266732397124606" lon="-1.4086814793494087"><ele>853.0</ele><time>2026-05-03T16:37:03.001Z</time></trkpt><trkpt lat="41.266797438233276" lon="-1.4088136521782249"><ele>853.0</ele><time>2026-05-03T16:37:04.001Z</time></trkpt><trkpt lat="41.26684723660637" lon="-1.4089150063809428"><ele>853.0</ele><time>2026-05-03T16:37:05.001Z</time></trkpt><trkpt lat="41.26689240441865" lon="-1.4090068356117325"><ele>852.9999999999999</ele><time>2026-05-03T16:37:06.001Z</time></trkpt><trkpt lat="41.26693693111452" lon="-1.409097360760004"><ele>853.0</ele><time>2026-05-03T16:37:07.001Z</time></trkpt><trkpt lat="41.26697844782221" lon="-1.409181766642476"><ele>853.2</ele><time>2026-05-03T16:37:08.001Z</time></trkpt><trkpt lat="41.267023823195515" lon="-1.4092602778744892"><ele>853.4</ele><time>2026-05-03T16:37:09.001Z</time></trkpt><trkpt lat="41.26703069349232" lon="-1.4093608408597424"><ele>853.6000000000001</ele><time>2026-05-03T16:37:10.001Z</time></trkpt><trkpt lat="41.267021164768735" lon="-1.4094655316004985"><ele>853.8000000000001</ele><time>2026-05-03T16:37:11.001Z</time></trkpt><trkpt lat="41.266946952358765" lon="-1.4096572339953397"><ele>854.0</ele><time>2026-05-03T16:37:13.001Z</time></trkpt><trkpt lat="41.26690741908458" lon="-1.409754777166895"><ele>854.1666666666667</ele><time>2026-05-03T16:37:14.001Z</time></trkpt><trkpt lat="41.266865890799345" lon="-1.4098485284925206"><ele>854.3333333333334</ele><time>2026-05-03T16:37:15.001Z</time></trkpt><trkpt lat="41.266828311683014" lon="-1.4099448038761424"><ele>854.5</ele><time>2026-05-03T16:37:16.001Z</time></trkpt><trkpt lat="41.26679361607643" lon="-1.4100475739332228"><ele>854.6666666666667</ele><time>2026-05-03T16:37:17.001Z</time></trkpt><trkpt lat="41.266755993109534" lon="-1.410148815159219"><ele>854.8333333333334</ele><time>2026-05-03T16:37:18.001Z</time></trkpt><trkpt lat="41.26671649171799" lon="-1.4102514908797648"><ele>855.0</ele><time>2026-05-03T16:37:19.001Z</time></trkpt><trkpt lat="41.266677072007035" lon="-1.4103521064683269"><ele>855.0</ele><time>2026-05-03T16:37:20.001Z</time></trkpt><trkpt lat="41.26663341218285" lon="-1.4104510170968463"><ele>855.0</ele><time>2026-05-03T16:37:21.001Z</time></trkpt><trkpt lat="41.26659538788331" lon="-1.4105563178797156"><ele>855.0</ele><time>2026-05-03T16:37:22.001Z</time></trkpt><trkpt lat="41.2665566098219" lon="-1.410659029451733"><ele>855.0</ele><time>2026-05-03T16:37:23.001Z</time></trkpt><trkpt lat="41.26650922398948" lon="-1.410754276810959"><ele>855.0</ele><time>2026-05-03T16:37:24.001Z</time></trkpt><trkpt lat="41.26645255339549" lon="-1.4108427726323494"><ele>855.0</ele><time>2026-05-03T16:37:25.001Z</time></trkpt><trkpt lat="41.26638777380524" lon="-1.4109226139863427"><ele>855.3333333333334</ele><time>2026-05-03T16:37:26Z</time></trkpt><trkpt lat="41.26631639571994" lon="-1.4109931178287227"><ele>855.6666666666667</ele><time>2026-05-03T16:37:27Z</time></trkpt><trkpt lat="41.26624376448746" lon="-1.411068688134197"><ele>856.0</ele><time>2026-05-03T16:37:28Z</time></trkpt><trkpt lat="41.266177046246185" lon="-1.411146082359358"><ele>856.3333333333334</ele><time>2026-05-03T16:37:29Z</time></trkpt><trkpt lat="41.266110019295" lon="-1.4112237582700182"><ele>856.6666666666667</ele><time>2026-05-03T16:37:30Z</time></trkpt><trkpt lat="41.26604580456933" lon="-1.411303291647491"><ele>857.0</ele><time>2026-05-03T16:37:31Z</time></trkpt><trkpt lat="41.26597956442104" lon="-1.4113866291608508"><ele>858.2</ele><time>2026-05-03T16:37:32Z</time></trkpt><trkpt lat="41.26591213574345" lon="-1.4114640545271373"><ele>859.4000000000001</ele><time>2026-05-03T16:37:33Z</time></trkpt><trkpt lat="41.26584242938913" lon="-1.4115409473621499"><ele>860.5999999999999</ele><time>2026-05-03T16:37:34Z</time></trkpt><trkpt lat="41.2657716520408" lon="-1.4116192459340704"><ele>861.8</ele><time>2026-05-03T16:37:35Z</time></trkpt><trkpt lat="41.26570295031431" lon="-1.4117014885596646"><ele>863.0</ele><time>2026-05-03T16:37:36Z</time></trkpt><trkpt lat="41.26564225091755" lon="-1.4117894844594014"><ele>862.8</ele><time>2026-05-03T16:37:37Z</time></trkpt><trkpt lat="41.26558420380104" lon="-1.411884914342979"><ele>862.5999999999999</ele><time>2026-05-03T16:37:38Z</time></trkpt><trkpt lat="41.26552940065981" lon="-1.4119857118403134"><ele>862.4000000000001</ele><time>2026-05-03T16:37:39Z</time></trkpt><trkpt lat="41.26547551173284" lon="-1.41208462137902"><ele>862.2</ele><time>2026-05-03T16:37:40Z</time></trkpt><trkpt lat="41.26541656210235" lon="-1.4121800169400731"><ele>862.0</ele><time>2026-05-03T16:37:41Z</time></trkpt><trkpt lat="41.265356685844836" lon="-1.41227439213963"><ele>861.8333333333333</ele><time>2026-05-03T16:37:42Z</time></trkpt><trkpt lat="41.26529774881251" lon="-1.4123694454723208"><ele>861.6666666666666</ele><time>2026-05-03T16:37:43Z</time></trkpt><trkpt lat="41.26523892297" lon="-1.4124611259844333"><ele>861.5</ele><time>2026-05-03T16:37:44Z</time></trkpt><trkpt lat="41.26517394763027" lon="-1.412537845614594"><ele>861.3333333333333</ele><time>2026-05-03T16:37:45Z</time></trkpt><trkpt lat="41.26511320656407" lon="-1.412603259556748"><ele>861.1666666666666</ele><time>2026-05-03T16:37:46Z</time></trkpt><trkpt lat="41.26505168560748" lon="-1.4126499752385062"><ele>861.0</ele><time>2026-05-03T16:37:47Z</time></trkpt><trkpt lat="41.26500116515304" lon="-1.4127094019213404"><ele>861.0</ele><time>2026-05-03T16:37:48Z</time></trkpt><trkpt lat="41.26490410955312" lon="-1.4128044181496198"><ele>860.9999999999999</ele><time>2026-05-03T16:37:50Z</time></trkpt><trkpt lat="41.26482588424995" lon="-1.412886982171015"><ele>860.9999999999999</ele><time>2026-05-03T16:37:52Z</time></trkpt><trkpt lat="41.26475824487846" lon="-1.4129563881963674"><ele>861.0</ele><time>2026-05-03T16:37:54Z</time></trkpt><trkpt lat="41.264708846737925" lon="-1.41301194305704"><ele>861.0</ele><time>2026-05-03T16:37:56Z</time></trkpt><trkpt lat="41.264644214526484" lon="-1.4130750650589532"><ele>861.1666666666666</ele><time>2026-05-03T16:38:13Z</time></trkpt><trkpt lat="41.26457945349546" lon="-1.4131385803705838"><ele>861.3333333333333</ele><time>2026-05-03T16:38:15Z</time></trkpt><trkpt lat="41.26448794962842" lon="-1.4132321070342226"><ele>861.5</ele><time>2026-05-03T16:38:17Z</time></trkpt><trkpt lat="41.26443900708187" lon="-1.4132858878391832"><ele>861.6666666666666</ele><time>2026-05-03T16:38:18Z</time></trkpt><trkpt lat="41.264388421227856" lon="-1.41334074903097"><ele>861.8333333333333</ele><time>2026-05-03T16:38:19Z</time></trkpt><trkpt lat="41.26433700986733" lon="-1.4133988820969208"><ele>862.0</ele><time>2026-05-03T16:38:20Z</time></trkpt><trkpt lat="41.26428154682427" lon="-1.41345972785831"><ele>861.9999999999999</ele><time>2026-05-03T16:38:21Z</time></trkpt><trkpt lat="41.26422163594849" lon="-1.4135222773844043"><ele>862.0</ele><time>2026-05-03T16:38:22Z</time></trkpt><trkpt lat="41.2641617631809" lon="-1.4135843992144193"><ele>862.0</ele><time>2026-05-03T16:38:23Z</time></trkpt><trkpt lat="41.2641000354765" lon="-1.4136448730648923"><ele>862.0</ele><time>2026-05-03T16:38:24Z</time></trkpt><trkpt lat="41.264036507228205" lon="-1.4137066491363124"><ele>861.9999999999999</ele><time>2026-05-03T16:38:25Z</time></trkpt><trkpt lat="41.2639709147901" lon="-1.4137742679714516"><ele>862.0</ele><time>2026-05-03T16:38:26Z</time></trkpt><trkpt lat="41.26391294291124" lon="-1.4138461783639755"><ele>862.8333333333333</ele><time>2026-05-03T16:38:27.001Z</time></trkpt><trkpt lat="41.26384828303683" lon="-1.4139151576322015"><ele>863.6666666666666</ele><time>2026-05-03T16:38:28.001Z</time></trkpt><trkpt lat="41.2637808015078" lon="-1.4139770188393868"><ele>864.5</ele><time>2026-05-03T16:38:29.001Z</time></trkpt><trkpt lat="41.26371310723962" lon="-1.4140439804436562"><ele>865.3333333333333</ele><time>2026-05-03T16:38:30.001Z</time></trkpt><trkpt lat="41.2636440755485" lon="-1.4141087543058777"><ele>866.1666666666666</ele><time>2026-05-03T16:38:31.001Z</time></trkpt><trkpt lat="41.263576214476984" lon="-1.4141778814706447"><ele>867.0</ele><time>2026-05-03T16:38:32.001Z</time></trkpt><trkpt lat="41.26350666999678" lon="-1.4142513491553759"><ele>867.0</ele><time>2026-05-03T16:38:33.001Z</time></trkpt><trkpt lat="41.26343964083099" lon="-1.4143260845068406"><ele>867.0</ele><time>2026-05-03T16:38:34.001Z</time></trkpt><trkpt lat="41.26337351411788" lon="-1.414398932596835"><ele>867.0</ele><time>2026-05-03T16:38:35.001Z</time></trkpt><trkpt lat="41.26330347144626" lon="-1.4144708195239593"><ele>867.0</ele><time>2026-05-03T16:38:36.001Z</time></trkpt><trkpt lat="41.26323561765241" lon="-1.4145485156095732"><ele>867.0</ele><time>2026-05-03T16:38:37.001Z</time></trkpt><trkpt lat="41.263165300471144" lon="-1.4146158312748742"><ele>867.0</ele><time>2026-05-03T16:38:38.001Z</time></trkpt><trkpt lat="41.263092968219595" lon="-1.4146859686921902"><ele>867.3333333333334</ele><time>2026-05-03T16:38:39.001Z</time></trkpt><trkpt lat="41.263019883508726" lon="-1.4147586296369423"><ele>867.6666666666667</ele><time>2026-05-03T16:38:40.001Z</time></trkpt><trkpt lat="41.26295004468268" lon="-1.4148320343474543"><ele>868.0</ele><time>2026-05-03T16:38:41.001Z</time></trkpt><trkpt lat="41.26288718218029" lon="-1.4149099034183517"><ele>868.3333333333334</ele><time>2026-05-03T16:38:42.001Z</time></trkpt><trkpt lat="41.26283116331532" lon="-1.4149917945573323"><ele>868.6666666666667</ele><time>2026-05-03T16:38:43.001Z</time></trkpt><trkpt lat="41.26278757849723" lon="-1.415088912416953"><ele>869.0</ele><time>2026-05-03T16:38:44.001Z</time></trkpt><trkpt lat="41.26275259814789" lon="-1.4151949104789086"><ele>869.0000000000001</ele><time>2026-05-03T16:38:45.001Z</time></trkpt><trkpt lat="41.26272893408424" lon="-1.41530697163504"><ele>869.0</ele><time>2026-05-03T16:38:46.001Z</time></trkpt><trkpt lat="41.26271439080845" lon="-1.4154249071063842"><ele>869.0</ele><time>2026-05-03T16:38:47.001Z</time></trkpt><trkpt lat="41.262700636176326" lon="-1.4155424952254116"><ele>869.0</ele><time>2026-05-03T16:38:48.001Z</time></trkpt><trkpt lat="41.26268279305649" lon="-1.4156594865315821"><ele>869.0000000000001</ele><time>2026-05-03T16:38:49.001Z</time></trkpt><trkpt lat="41.26266081544669" lon="-1.4157783167920976"><ele>869.0</ele><time>2026-05-03T16:38:50.001Z</time></trkpt><trkpt lat="41.26263627964283" lon="-1.4158950746053385"><ele>869.8000000000001</ele><time>2026-05-03T16:38:51.001Z</time></trkpt><trkpt lat="41.262614317830526" lon="-1.416017717947826"><ele>870.6000000000001</ele><time>2026-05-03T16:38:52.001Z</time></trkpt><trkpt lat="41.26259654622037" lon="-1.4161379696201473"><ele>871.4</ele><time>2026-05-03T16:38:53.001Z</time></trkpt><trkpt lat="41.26257975579332" lon="-1.4162598990768762"><ele>872.2</ele><time>2026-05-03T16:38:54.001Z</time></trkpt><trkpt lat="41.262558514785304" lon="-1.4163819579651964"><ele>873.0</ele><time>2026-05-03T16:38:55.001Z</time></trkpt><trkpt lat="41.262540580828095" lon="-1.4165011307934139"><ele>873.6666666666666</ele><time>2026-05-03T16:38:56.001Z</time></trkpt><trkpt lat="41.262519718193566" lon="-1.416625624494415"><ele>874.3333333333333</ele><time>2026-05-03T16:38:57.001Z</time></trkpt><trkpt lat="41.26249835617835" lon="-1.4167412834449922"><ele>875.0</ele><time>2026-05-03T16:38:58.001Z</time></trkpt><trkpt lat="41.26247858565367" lon="-1.4168571936668442"><ele>875.6666666666666</ele><time>2026-05-03T16:38:59.001Z</time></trkpt><trkpt lat="41.26245936737466" lon="-1.4169641544263323"><ele>876.3333333333333</ele><time>2026-05-03T16:39:00.001Z</time></trkpt><trkpt lat="41.262445720480876" lon="-1.4170644810342337"><ele>877.0</ele><time>2026-05-03T16:39:01.001Z</time></trkpt><trkpt lat="41.262436818752555" lon="-1.417154535476101"><ele>876.9999999999999</ele><time>2026-05-03T16:39:02.001Z</time></trkpt><trkpt lat="41.262434898343926" lon="-1.4173038810760572"><ele>877.0</ele><time>2026-05-03T16:39:04.001Z</time></trkpt><trkpt lat="41.26247212817371" lon="-1.4173924995201812"><ele>877.0</ele><time>2026-05-03T16:39:06.001Z</time></trkpt><trkpt lat="41.262453690382166" lon="-1.4173056581300927"><ele>877.0</ele><time>2026-05-03T16:39:30.001Z</time></trkpt><trkpt lat="41.26244401588765" lon="-1.4172170915091629"><ele>876.9999999999999</ele><time>2026-05-03T16:39:37Z</time></trkpt><trkpt lat="41.262427516415" lon="-1.4171350200191626"><ele>877.0</ele><time>2026-05-03T16:47:27.001Z</time></trkpt><trkpt lat="41.262447575546744" lon="-1.4169980607736052"><ele>877.0</ele><time>2026-05-03T16:47:32.001Z</time></trkpt><trkpt lat="41.262465187959684" lon="-1.4168597408943313"><ele>877.0</ele><time>2026-05-03T16:47:34.001Z</time></trkpt><trkpt lat="41.26249100634457" lon="-1.416715312501024"><ele>877.0</ele><time>2026-05-03T16:47:36.001Z</time></trkpt><trkpt lat="41.26251784187724" lon="-1.4165666334771854"><ele>877.0</ele><time>2026-05-03T16:47:38.001Z</time></trkpt><trkpt lat="41.262531102197435" lon="-1.4164761490756737"><ele>877.0</ele><time>2026-05-03T16:47:39.001Z</time></trkpt><trkpt lat="41.262543917272566" lon="-1.4163886353897794"><ele>876.3333333333333</ele><time>2026-05-03T16:47:40.001Z</time></trkpt><trkpt lat="41.262560405679466" lon="-1.4162912435188477"><ele>875.6666666666666</ele><time>2026-05-03T16:47:41.001Z</time></trkpt><trkpt lat="41.262578816787695" lon="-1.4161931270017412"><ele>875.0</ele><time>2026-05-03T16:47:42.001Z</time></trkpt><trkpt lat="41.26259905206358" lon="-1.4160911439895083"><ele>874.3333333333333</ele><time>2026-05-03T16:47:43.001Z</time></trkpt><trkpt lat="41.262619106875384" lon="-1.4159868270226872"><ele>873.6666666666666</ele><time>2026-05-03T16:47:44.001Z</time></trkpt><trkpt lat="41.26263580607924" lon="-1.4158765352399592"><ele>873.0</ele><time>2026-05-03T16:47:45.001Z</time></trkpt><trkpt lat="41.26265259900124" lon="-1.4157748357801612"><ele>873.0</ele><time>2026-05-03T16:47:46.001Z</time></trkpt><trkpt lat="41.262668158783114" lon="-1.4156788970785237"><ele>873.0</ele><time>2026-05-03T16:47:47.001Z</time></trkpt><trkpt lat="41.26265927278931" lon="-1.4155691983145948"><ele>873.0</ele><time>2026-05-03T16:47:48.001Z</time></trkpt><trkpt lat="41.262675636819495" lon="-1.4154684582965196"><ele>873.0</ele><time>2026-05-03T16:47:49.001Z</time></trkpt><trkpt lat="41.26269249093762" lon="-1.4153647017137285"><ele>873.0</ele><time>2026-05-03T16:47:50.001Z</time></trkpt><trkpt lat="41.262711360586415" lon="-1.4152607364039096"><ele>873.0</ele><time>2026-05-03T16:47:51.001Z</time></trkpt><trkpt lat="41.262735822072784" lon="-1.4151628592998895"><ele>872.3333333333334</ele><time>2026-05-03T16:47:52.001Z</time></trkpt><trkpt lat="41.26276336448185" lon="-1.4150785847323115"><ele>871.6666666666667</ele><time>2026-05-03T16:47:53.001Z</time></trkpt><trkpt lat="41.26279782127743" lon="-1.4149948864092696"><ele>871.0</ele><time>2026-05-03T16:47:54.001Z</time></trkpt><trkpt lat="41.26285207600674" lon="-1.4149145843129096"><ele>870.3333333333334</ele><time>2026-05-03T16:47:55.001Z</time></trkpt><trkpt lat="41.26291155114482" lon="-1.4148422412569215"><ele>869.6666666666667</ele><time>2026-05-03T16:47:56Z</time></trkpt><trkpt lat="41.2629715854759" lon="-1.414771111993047"><ele>869.0</ele><time>2026-05-03T16:47:57Z</time></trkpt><trkpt lat="41.263046567995055" lon="-1.4147187755733885"><ele>868.6666666666667</ele><time>2026-05-03T16:47:58Z</time></trkpt><trkpt lat="41.263107381703215" lon="-1.4146526863419089"><ele>868.3333333333334</ele><time>2026-05-03T16:47:59Z</time></trkpt><trkpt lat="41.26316997581461" lon="-1.4145811607392362"><ele>868.0</ele><time>2026-05-03T16:48:00Z</time></trkpt><trkpt lat="41.26323580202982" lon="-1.4145119726581115"><ele>867.6666666666667</ele><time>2026-05-03T16:48:01Z</time></trkpt><trkpt lat="41.26330570983336" lon="-1.41443776319515"><ele>867.3333333333334</ele><time>2026-05-03T16:48:02Z</time></trkpt><trkpt lat="41.26336880562575" lon="-1.4143697597431697"><ele>867.0</ele><time>2026-05-03T16:48:03Z</time></trkpt><trkpt lat="41.263434375631505" lon="-1.4143066127043464"><ele>867.0</ele><time>2026-05-03T16:48:04Z</time></trkpt><trkpt lat="41.26350215581579" lon="-1.4142429966871024"><ele>867.0</ele><time>2026-05-03T16:48:05Z</time></trkpt><trkpt lat="41.263570466362964" lon="-1.4141746830368183"><ele>867.0</ele><time>2026-05-03T16:48:06Z</time></trkpt><trkpt lat="41.263637064870025" lon="-1.4141056532065654"><ele>867.0</ele><time>2026-05-03T16:48:07Z</time></trkpt><trkpt lat="41.26370208178138" lon="-1.4140339516364255"><ele>867.0</ele><time>2026-05-03T16:48:08Z</time></trkpt><trkpt lat="41.26376500065474" lon="-1.4139619647528037"><ele>867.0</ele><time>2026-05-03T16:48:09Z</time></trkpt><trkpt lat="41.263833508987226" lon="-1.4138888664252387"><ele>867.5</ele><time>2026-05-03T16:48:10Z</time></trkpt><trkpt lat="41.26390165135763" lon="-1.4138169084933268"><ele>868.0</ele><time>2026-05-03T16:48:11Z</time></trkpt><trkpt lat="41.26397305293045" lon="-1.413744963136772"><ele>868.5</ele><time>2026-05-03T16:48:12Z</time></trkpt><trkpt lat="41.26404516935491" lon="-1.4136739226390325"><ele>869.0</ele><time>2026-05-03T16:48:13Z</time></trkpt><trkpt lat="41.26411754331103" lon="-1.4136036243258674"><ele>869.5</ele><time>2026-05-03T16:48:14Z</time></trkpt><trkpt lat="41.2641870521928" lon="-1.413526196907222"><ele>870.0</ele><time>2026-05-03T16:48:15Z</time></trkpt><trkpt lat="41.26426248068198" lon="-1.4134517722515976"><ele>868.4</ele><time>2026-05-03T16:48:16Z</time></trkpt><trkpt lat="41.264330710286885" lon="-1.4133704433547012"><ele>866.8</ele><time>2026-05-03T16:48:17Z</time></trkpt><trkpt lat="41.26440089762472" lon="-1.413297149287388"><ele>865.2</ele><time>2026-05-03T16:48:18Z</time></trkpt><trkpt lat="41.26447298467309" lon="-1.4132199591539536"><ele>863.6</ele><time>2026-05-03T16:48:19Z</time></trkpt><trkpt lat="41.264545121262366" lon="-1.4131454194561515"><ele>862.0</ele><time>2026-05-03T16:48:20Z</time></trkpt><trkpt lat="41.26461741399937" lon="-1.4130728081850017"><ele>862.0</ele><time>2026-05-03T16:48:21Z</time></trkpt><trkpt lat="41.26468921924937" lon="-1.4130007253345436"><ele>862.0</ele><time>2026-05-03T16:48:22Z</time></trkpt><trkpt lat="41.26476356282758" lon="-1.4129266776583953"><ele>862.0</ele><time>2026-05-03T16:48:23Z</time></trkpt><trkpt lat="41.26483751117481" lon="-1.4128547884350975"><ele>862.0</ele><time>2026-05-03T16:48:24Z</time></trkpt><trkpt lat="41.26490794138996" lon="-1.412780794294921"><ele>862.0</ele><time>2026-05-03T16:48:25Z</time></trkpt><trkpt lat="41.26498225318791" lon="-1.4127039217075343"><ele>861.8</ele><time>2026-05-03T16:48:26Z</time></trkpt><trkpt lat="41.2650567673521" lon="-1.412627665033817"><ele>861.6</ele><time>2026-05-03T16:48:27Z</time></trkpt><trkpt lat="41.26513724664539" lon="-1.4125504969919103"><ele>861.3999999999999</ele><time>2026-05-03T16:48:28Z</time></trkpt><trkpt lat="41.2652109535979" lon="-1.4124677132957864"><ele>861.1999999999999</ele><time>2026-05-03T16:48:29Z</time></trkpt><trkpt lat="41.26527828343549" lon="-1.4123760921402388"><ele>861.0</ele><time>2026-05-03T16:48:30Z</time></trkpt><trkpt lat="41.265342392384646" lon="-1.4122806336836136"><ele>861.0</ele><time>2026-05-03T16:48:31Z</time></trkpt><trkpt lat="41.26540142067595" lon="-1.412173955372634"><ele>860.9999999999999</ele><time>2026-05-03T16:48:32Z</time></trkpt><trkpt lat="41.265461879682654" lon="-1.4120734771349857"><ele>860.9999999999999</ele><time>2026-05-03T16:48:33Z</time></trkpt><trkpt lat="41.26551496508735" lon="-1.4119735326611897"><ele>861.0</ele><time>2026-05-03T16:48:34Z</time></trkpt><trkpt lat="41.26557482320373" lon="-1.4118770998014853"><ele>861.0</ele><time>2026-05-03T16:48:35Z</time></trkpt><trkpt lat="41.26563756794772" lon="-1.4117757957981474"><ele>861.4</ele><time>2026-05-03T16:48:36Z</time></trkpt><trkpt lat="41.26570528866889" lon="-1.4116826945716203"><ele>861.8</ele><time>2026-05-03T16:48:37Z</time></trkpt><trkpt lat="41.265774437716125" lon="-1.411592405394189"><ele>862.1999999999999</ele><time>2026-05-03T16:48:38Z</time></trkpt><trkpt lat="41.2658457599938" lon="-1.4114997962908205"><ele>862.5999999999999</ele><time>2026-05-03T16:48:39Z</time></trkpt><trkpt lat="41.265921364732414" lon="-1.411417732915588"><ele>863.0</ele><time>2026-05-03T16:48:40Z</time></trkpt><trkpt lat="41.26599934320279" lon="-1.4113359491541158"><ele>861.8</ele><time>2026-05-03T16:48:41Z</time></trkpt><trkpt lat="41.26607614828698" lon="-1.411246167566423"><ele>860.5999999999999</ele><time>2026-05-03T16:48:42Z</time></trkpt><trkpt lat="41.266147847830304" lon="-1.4111627091259995"><ele>859.4000000000001</ele><time>2026-05-03T16:48:43Z</time></trkpt><trkpt lat="41.26621320333952" lon="-1.411078698602935"><ele>858.2</ele><time>2026-05-03T16:48:44Z</time></trkpt><trkpt lat="41.26628477228202" lon="-1.4109938184837179"><ele>857.0</ele><time>2026-05-03T16:48:45Z</time></trkpt><trkpt lat="41.26636088760331" lon="-1.4109081135831596"><ele>857.0</ele><time>2026-05-03T16:48:46Z</time></trkpt><trkpt lat="41.26642921857014" lon="-1.4108210205889153"><ele>857.0</ele><time>2026-05-03T16:48:47Z</time></trkpt><trkpt lat="41.26649148075032" lon="-1.410730657222462"><ele>857.0</ele><time>2026-05-03T16:48:48Z</time></trkpt><trkpt lat="41.26653211986657" lon="-1.4106166260889794"><ele>857.0</ele><time>2026-05-03T16:48:49Z</time></trkpt><trkpt lat="41.266577616203286" lon="-1.4105070546820415"><ele>857.0</ele><time>2026-05-03T16:48:50Z</time></trkpt><trkpt lat="41.26662297033882" lon="-1.4103926926852297"><ele>856.6</ele><time>2026-05-03T16:48:51Z</time></trkpt><trkpt lat="41.26668218964658" lon="-1.4102850330573655"><ele>856.2</ele><time>2026-05-03T16:48:52Z</time></trkpt><trkpt lat="41.26672587087618" lon="-1.4101662172047895"><ele>855.8</ele><time>2026-05-03T16:48:53Z</time></trkpt><trkpt lat="41.26676585553281" lon="-1.410037940272676"><ele>855.4</ele><time>2026-05-03T16:48:54Z</time></trkpt><trkpt lat="41.26681085500141" lon="-1.4099230911718035"><ele>855.0</ele><time>2026-05-03T16:48:55Z</time></trkpt><trkpt lat="41.26685565112894" lon="-1.4098094788548665"><ele>855.0</ele><time>2026-05-03T16:48:56Z</time></trkpt><trkpt lat="41.26690029007298" lon="-1.4097056896585043"><ele>855.0</ele><time>2026-05-03T16:48:57Z</time></trkpt><trkpt lat="41.26693890680424" lon="-1.4096069665848145"><ele>855.0</ele><time>2026-05-03T16:48:58Z</time></trkpt><trkpt lat="41.26697434213207" lon="-1.4095122574654582"><ele>855.0</ele><time>2026-05-03T16:48:59Z</time></trkpt><trkpt lat="41.266995524816295" lon="-1.409415316689836"><ele>855.0</ele><time>2026-05-03T16:49:00Z</time></trkpt><trkpt lat="41.26700500608173" lon="-1.4093086416586145"><ele>855.0</ele><time>2026-05-03T16:49:01Z</time></trkpt><trkpt lat="41.26697134345879" lon="-1.4092029025768449"><ele>854.8333333333334</ele><time>2026-05-03T16:49:02Z</time></trkpt><trkpt lat="41.26693583877355" lon="-1.4091119054065713"><ele>854.6666666666667</ele><time>2026-05-03T16:49:03Z</time></trkpt><trkpt lat="41.266895809571956" lon="-1.4090205310276371"><ele>854.5</ele><time>2026-05-03T16:49:04Z</time></trkpt><trkpt lat="41.266855775516014" lon="-1.4089291039920406"><ele>854.3333333333334</ele><time>2026-05-03T16:49:05Z</time></trkpt><trkpt lat="41.26680853537408" lon="-1.4088363304500404"><ele>854.1666666666667</ele><time>2026-05-03T16:49:06Z</time></trkpt><trkpt lat="41.26676041516588" lon="-1.4087384992455663"><ele>854.0</ele><time>2026-05-03T16:49:07Z</time></trkpt><trkpt lat="41.26671392643615" lon="-1.4086439847855878"><ele>853.8333333333334</ele><time>2026-05-03T16:49:08Z</time></trkpt><trkpt lat="41.266667559673266" lon="-1.4085497175398416"><ele>853.6666666666667</ele><time>2026-05-03T16:49:09Z</time></trkpt><trkpt lat="41.26662732664569" lon="-1.4084679622893144"><ele>853.5</ele><time>2026-05-03T16:49:10Z</time></trkpt><trkpt lat="41.26658858380553" lon="-1.408389229009499"><ele>853.3333333333333</ele><time>2026-05-03T16:49:11.001Z</time></trkpt><trkpt lat="41.266557310186364" lon="-1.408303173676271"><ele>853.1666666666666</ele><time>2026-05-03T16:49:12.001Z</time></trkpt><trkpt lat="41.266537579109325" lon="-1.4081976827744371"><ele>853.0</ele><time>2026-05-03T16:49:13.001Z</time></trkpt><trkpt lat="41.26653278228122" lon="-1.4080795795160737"><ele>852.5999999999999</ele><time>2026-05-03T16:49:14.001Z</time></trkpt><trkpt lat="41.26656078313446" lon="-1.4079627696313075"><ele>852.1999999999999</ele><time>2026-05-03T16:49:15.001Z</time></trkpt><trkpt lat="41.266582148497044" lon="-1.407841666603194"><ele>851.8</ele><time>2026-05-03T16:49:16.001Z</time></trkpt><trkpt lat="41.26660389949089" lon="-1.4077182511704716"><ele>851.4</ele><time>2026-05-03T16:49:17.001Z</time></trkpt><trkpt lat="41.266620041088146" lon="-1.4075957838880622"><ele>851.0</ele><time>2026-05-03T16:49:18.001Z</time></trkpt><trkpt lat="41.26664545672303" lon="-1.4074668526192657"><ele>851.0</ele><time>2026-05-03T16:49:19.001Z</time></trkpt><trkpt lat="41.26667159181552" lon="-1.4073408228874815"><ele>851.0</ele><time>2026-05-03T16:49:20.001Z</time></trkpt><trkpt lat="41.26671772472961" lon="-1.4072164509443532"><ele>851.0</ele><time>2026-05-03T16:49:21.001Z</time></trkpt><trkpt lat="41.266772628192975" lon="-1.4070999239264423"><ele>851.0</ele><time>2026-05-03T16:49:22.001Z</time></trkpt><trkpt lat="41.26683606963223" lon="-1.4069897905890854"><ele>851.0</ele><time>2026-05-03T16:49:23.001Z</time></trkpt><trkpt lat="41.26690739827514" lon="-1.406875540105134"><ele>850.4</ele><time>2026-05-03T16:49:24.001Z</time></trkpt><trkpt lat="41.266973287016484" lon="-1.4067662664837683"><ele>849.8</ele><time>2026-05-03T16:49:25.001Z</time></trkpt><trkpt lat="41.26703613348253" lon="-1.4066513487058725"><ele>849.1999999999999</ele><time>2026-05-03T16:49:26.001Z</time></trkpt><trkpt lat="41.26709739026872" lon="-1.4065372692718665"><ele>848.5999999999999</ele><time>2026-05-03T16:49:27.001Z</time></trkpt><trkpt lat="41.26715985537657" lon="-1.4064295124384287"><ele>848.0</ele><time>2026-05-03T16:49:28.001Z</time></trkpt><trkpt lat="41.267234623461086" lon="-1.4063224009633235"><ele>847.4</ele><time>2026-05-03T16:49:29.001Z</time></trkpt><trkpt lat="41.26731201874013" lon="-1.4062266565186177"><ele>846.8</ele><time>2026-05-03T16:49:30.001Z</time></trkpt><trkpt lat="41.26739364347982" lon="-1.406132831168495"><ele>846.2</ele><time>2026-05-03T16:49:31.001Z</time></trkpt><trkpt lat="41.26747588579886" lon="-1.40604427703734"><ele>845.6</ele><time>2026-05-03T16:49:32.001Z</time></trkpt><trkpt lat="41.267558359136075" lon="-1.405954185472376"><ele>845.0</ele><time>2026-05-03T16:49:33.001Z</time></trkpt><trkpt lat="41.26763479863848" lon="-1.4058622008355564"><ele>845.0</ele><time>2026-05-03T16:49:34.001Z</time></trkpt><trkpt lat="41.26771483678858" lon="-1.405768862966522"><ele>845.0</ele><time>2026-05-03T16:49:35.001Z</time></trkpt><trkpt lat="41.267798066076445" lon="-1.4056822750743305"><ele>845.0</ele><time>2026-05-03T16:49:36.001Z</time></trkpt><trkpt lat="41.26789167195709" lon="-1.4056047402714087"><ele>845.0</ele><time>2026-05-03T16:49:37.001Z</time></trkpt><trkpt lat="41.267986340956455" lon="-1.405543719813343"><ele>845.0</ele><time>2026-05-03T16:49:38.001Z</time></trkpt><trkpt lat="41.26807930792434" lon="-1.4054841448942046"><ele>844.2</ele><time>2026-05-03T16:49:39.001Z</time></trkpt><trkpt lat="41.26817795860196" lon="-1.405426150989266"><ele>843.4</ele><time>2026-05-03T16:49:40.001Z</time></trkpt><trkpt lat="41.26827330653122" lon="-1.405371894066177"><ele>842.5999999999999</ele><time>2026-05-03T16:49:41.001Z</time></trkpt><trkpt lat="41.26836528659224" lon="-1.4053050181777542"><ele>841.8</ele><time>2026-05-03T16:49:42.001Z</time></trkpt><trkpt lat="41.268455558163055" lon="-1.4052353280590713"><ele>841.0</ele><time>2026-05-03T16:49:43.001Z</time></trkpt><trkpt lat="41.26854733427781" lon="-1.4051524283870203"><ele>841.0</ele><time>2026-05-03T16:49:44.001Z</time></trkpt><trkpt lat="41.26862944599457" lon="-1.4050544050781006"><ele>841.0</ele><time>2026-05-03T16:49:45.001Z</time></trkpt><trkpt lat="41.268705103795746" lon="-1.4049513572486718"><ele>841.0</ele><time>2026-05-03T16:49:46.001Z</time></trkpt><trkpt lat="41.26878173342553" lon="-1.4048484528721907"><ele>841.0</ele><time>2026-05-03T16:49:47.001Z</time></trkpt><trkpt lat="41.268856035892235" lon="-1.4047509949725154"><ele>841.0</ele><time>2026-05-03T16:49:48.001Z</time></trkpt><trkpt lat="41.26892920900384" lon="-1.4046457697759445"><ele>840.0</ele><time>2026-05-03T16:49:49.001Z</time></trkpt><trkpt lat="41.269001808934895" lon="-1.4045423985546108"><ele>839.0</ele><time>2026-05-03T16:49:50.001Z</time></trkpt><trkpt lat="41.26907524744969" lon="-1.4044407448797307"><ele>838.0</ele><time>2026-05-03T16:49:51.001Z</time></trkpt><trkpt lat="41.269151702476506" lon="-1.4043367803536697"><ele>837.0</ele><time>2026-05-03T16:49:52.001Z</time></trkpt><trkpt lat="41.26922727690169" lon="-1.4042353230663744"><ele>836.0</ele><time>2026-05-03T16:49:53.001Z</time></trkpt><trkpt lat="41.26931056812689" lon="-1.4041441902008152"><ele>836.0</ele><time>2026-05-03T16:49:54.001Z</time></trkpt><trkpt lat="41.26939641403088" lon="-1.4040690630117054"><ele>836.0</ele><time>2026-05-03T16:49:55.001Z</time></trkpt><trkpt lat="41.26949007987041" lon="-1.4040249211382396"><ele>836.0</ele><time>2026-05-03T16:49:56.001Z</time></trkpt><trkpt lat="41.269593123873136" lon="-1.4039911576371333"><ele>836.0</ele><time>2026-05-03T16:49:57.001Z</time></trkpt><trkpt lat="41.26969641006293" lon="-1.4039894813903324"><ele>836.0</ele><time>2026-05-03T16:49:58.001Z</time></trkpt><trkpt lat="41.269802428387706" lon="-1.4039970757921205"><ele>836.1999999999999</ele><time>2026-05-03T16:49:59.001Z</time></trkpt><trkpt lat="41.2699110668385" lon="-1.4040176858157862"><ele>836.4</ele><time>2026-05-03T16:50:00.001Z</time></trkpt><trkpt lat="41.270015322637406" lon="-1.4040377724823665"><ele>836.6</ele><time>2026-05-03T16:50:01.001Z</time></trkpt><trkpt lat="41.270122875838915" lon="-1.4040539896657043"><ele>836.8</ele><time>2026-05-03T16:50:02Z</time></trkpt><trkpt lat="41.27022259701182" lon="-1.4040773317430355"><ele>837.0</ele><time>2026-05-03T16:50:02.999Z</time></trkpt><trkpt lat="41.27031825007582" lon="-1.4041113487813546"><ele>837.0</ele><time>2026-05-03T16:50:04Z</time></trkpt><trkpt lat="41.27041689285705" lon="-1.4041577094770323"><ele>837.0</ele><time>2026-05-03T16:50:05Z</time></trkpt><trkpt lat="41.27051186890222" lon="-1.404202410669957"><ele>837.0</ele><time>2026-05-03T16:50:05.999Z</time></trkpt><trkpt lat="41.270601430690284" lon="-1.4042432926107238"><ele>837.0</ele><time>2026-05-03T16:50:07Z</time></trkpt><trkpt lat="41.27069497463176" lon="-1.4042790541425352"><ele>837.0</ele><time>2026-05-03T16:50:08Z</time></trkpt><trkpt lat="41.27079144763795" lon="-1.4043106033886936"><ele>836.0</ele><time>2026-05-03T16:50:09Z</time></trkpt><trkpt lat="41.27089348962784" lon="-1.4043320971370568"><ele>835.0</ele><time>2026-05-03T16:50:10Z</time></trkpt><trkpt lat="41.27099539736391" lon="-1.4043427938058364"><ele>834.0</ele><time>2026-05-03T16:50:11Z</time></trkpt><trkpt lat="41.27109746428409" lon="-1.4043392791542293"><ele>833.0</ele><time>2026-05-03T16:50:12Z</time></trkpt><trkpt lat="41.27119844577107" lon="-1.4043367484652995"><ele>832.0</ele><time>2026-05-03T16:50:13Z</time></trkpt><trkpt lat="41.271302189662435" lon="-1.4043463955170064"><ele>832.0</ele><time>2026-05-03T16:50:14Z</time></trkpt><trkpt lat="41.27140107042716" lon="-1.4043805231064372"><ele>832.0</ele><time>2026-05-03T16:50:15Z</time></trkpt><trkpt lat="41.2715006806842" lon="-1.4044127555486319"><ele>832.0</ele><time>2026-05-03T16:50:16Z</time></trkpt><trkpt lat="41.271597510224886" lon="-1.4044336253024927"><ele>832.0</ele><time>2026-05-03T16:50:17Z</time></trkpt><trkpt lat="41.27169865354016" lon="-1.4044252446738281"><ele>832.0</ele><time>2026-05-03T16:50:18Z</time></trkpt><trkpt lat="41.27179510131444" lon="-1.4043915781513232"><ele>831.2</ele><time>2026-05-03T16:50:19Z</time></trkpt><trkpt lat="41.27187973645975" lon="-1.4043295753150626"><ele>830.4000000000001</ele><time>2026-05-03T16:50:20Z</time></trkpt><trkpt lat="41.27194687050737" lon="-1.4042263370842045"><ele>829.5999999999999</ele><time>2026-05-03T16:50:21Z</time></trkpt><trkpt lat="41.272016301035535" lon="-1.4041326069415068"><ele>828.8</ele><time>2026-05-03T16:50:22Z</time></trkpt><trkpt lat="41.27209992610584" lon="-1.4040560846882584"><ele>828.0</ele><time>2026-05-03T16:50:23Z</time></trkpt><trkpt lat="41.27218106866683" lon="-1.4039718909274677"><ele>828.0</ele><time>2026-05-03T16:50:24Z</time></trkpt><trkpt lat="41.27226574368021" lon="-1.4039157439009995"><ele>828.0</ele><time>2026-05-03T16:50:25Z</time></trkpt><trkpt lat="41.27235969933777" lon="-1.4038789841780683"><ele>828.0</ele><time>2026-05-03T16:50:26Z</time></trkpt><trkpt lat="41.272460187039236" lon="-1.4038518478055746"><ele>828.0</ele><time>2026-05-03T16:50:27Z</time></trkpt><trkpt lat="41.272565731208466" lon="-1.4038365103157882"><ele>828.0</ele><time>2026-05-03T16:50:28Z</time></trkpt><trkpt lat="41.272675175513" lon="-1.403826445267183"><ele>827.0</ele><time>2026-05-03T16:50:29Z</time></trkpt><trkpt lat="41.27277813472013" lon="-1.4038166842154023"><ele>826.0</ele><time>2026-05-03T16:50:30Z</time></trkpt><trkpt lat="41.272885415086485" lon="-1.4037997013136527"><ele>825.0</ele><time>2026-05-03T16:50:31Z</time></trkpt><trkpt lat="41.27299587154037" lon="-1.4037815062988008"><ele>824.0</ele><time>2026-05-03T16:50:32Z</time></trkpt><trkpt lat="41.273100134755076" lon="-1.403764418532098"><ele>823.0</ele><time>2026-05-03T16:50:33Z</time></trkpt><trkpt lat="41.27320936365634" lon="-1.4037483696906183"><ele>823.0</ele><time>2026-05-03T16:50:34Z</time></trkpt><trkpt lat="41.273319386567664" lon="-1.4037297737083387"><ele>823.0</ele><time>2026-05-03T16:50:35Z</time></trkpt><trkpt lat="41.27342442394901" lon="-1.4037068062606965"><ele>823.0</ele><time>2026-05-03T16:50:36Z</time></trkpt><trkpt lat="41.273524723944675" lon="-1.4036669406906734"><ele>823.0</ele><time>2026-05-03T16:50:37Z</time></trkpt><trkpt lat="41.27362327838784" lon="-1.4036170105957733"><ele>823.0</ele><time>2026-05-03T16:50:38Z</time></trkpt><trkpt lat="41.27371215602946" lon="-1.4035490868377123"><ele>823.0</ele><time>2026-05-03T16:50:39Z</time></trkpt><trkpt lat="41.273803145818086" lon="-1.4034661992244286"><ele>823.0</ele><time>2026-05-03T16:50:40Z</time></trkpt><trkpt lat="41.27388534081706" lon="-1.4033883848910897"><ele>823.0</ele><time>2026-05-03T16:50:41Z</time></trkpt><trkpt lat="41.27396752975603" lon="-1.403304214379105"><ele>823.0</ele><time>2026-05-03T16:50:42Z</time></trkpt><trkpt lat="41.274045081676555" lon="-1.403231462183315"><ele>823.0</ele><time>2026-05-03T16:50:43Z</time></trkpt><trkpt lat="41.27413437721984" lon="-1.403179059084181"><ele>822.8</ele><time>2026-05-03T16:50:44Z</time></trkpt><trkpt lat="41.27423028150522" lon="-1.4031414181576651"><ele>822.5999999999999</ele><time>2026-05-03T16:50:45Z</time></trkpt><trkpt lat="41.2743349064258" lon="-1.4031133260943787"><ele>822.4000000000001</ele><time>2026-05-03T16:50:46Z</time></trkpt><trkpt lat="41.27443740075996" lon="-1.4031107995053895"><ele>822.2</ele><time>2026-05-03T16:50:47Z</time></trkpt><trkpt lat="41.2745390565364" lon="-1.4031083813245098"><ele>822.0</ele><time>2026-05-03T16:50:48Z</time></trkpt><trkpt lat="41.274635358152345" lon="-1.4030739069272478"><ele>822.0</ele><time>2026-05-03T16:50:49Z</time></trkpt><trkpt lat="41.27472865250123" lon="-1.4030397138905628"><ele>822.0</ele><time>2026-05-03T16:50:50Z</time></trkpt><trkpt lat="41.27482046057996" lon="-1.4029828896347685"><ele>822.0</ele><time>2026-05-03T16:50:51Z</time></trkpt><trkpt lat="41.274904347751175" lon="-1.4029138128758505"><ele>822.0</ele><time>2026-05-03T16:50:52Z</time></trkpt><trkpt lat="41.27498057379262" lon="-1.4028213567003824"><ele>822.0</ele><time>2026-05-03T16:50:53Z</time></trkpt><trkpt lat="41.27505344108789" lon="-1.4027323782361727"><ele>821.2</ele><time>2026-05-03T16:50:54Z</time></trkpt><trkpt lat="41.275126989355286" lon="-1.4026352713572443"><ele>820.4000000000001</ele><time>2026-05-03T16:50:55Z</time></trkpt><trkpt lat="41.27520814644864" lon="-1.4025515899963625"><ele>819.5999999999999</ele><time>2026-05-03T16:50:56Z</time></trkpt><trkpt lat="41.27526886193992" lon="-1.4024500649255958"><ele>818.8</ele><time>2026-05-03T16:50:57Z</time></trkpt><trkpt lat="41.27533386976017" lon="-1.4023399760025657"><ele>818.0</ele><time>2026-05-03T16:50:58Z</time></trkpt><trkpt lat="41.275381549773066" lon="-1.4022165980159969"><ele>818.2</ele><time>2026-05-03T16:50:59Z</time></trkpt><trkpt lat="41.275437539679864" lon="-1.4021040595848475"><ele>818.4</ele><time>2026-05-03T16:51:00Z</time></trkpt><trkpt lat="41.27550238048725" lon="-1.4019970204993693"><ele>818.6</ele><time>2026-05-03T16:51:01Z</time></trkpt><trkpt lat="41.27555547000147" lon="-1.4018797361063449"><ele>818.8000000000001</ele><time>2026-05-03T16:51:02Z</time></trkpt><trkpt lat="41.27560603465924" lon="-1.4017552104131397"><ele>819.0</ele><time>2026-05-03T16:51:03Z</time></trkpt><trkpt lat="41.27565860758211" lon="-1.4016371287869862"><ele>819.0</ele><time>2026-05-03T16:51:04Z</time></trkpt><trkpt lat="41.275707809160856" lon="-1.401522091806563"><ele>819.0</ele><time>2026-05-03T16:51:05Z</time></trkpt><trkpt lat="41.2757741387367" lon="-1.401419768450261"><ele>819.0</ele><time>2026-05-03T16:51:06Z</time></trkpt><trkpt lat="41.27585058018247" lon="-1.4013295784008253"><ele>819.0</ele><time>2026-05-03T16:51:07Z</time></trkpt><trkpt lat="41.27594029964627" lon="-1.401262694931234"><ele>819.0</ele><time>2026-05-03T16:51:08Z</time></trkpt><trkpt lat="41.276038652116874" lon="-1.4012108381521269"><ele>817.8000000000001</ele><time>2026-05-03T16:51:09Z</time></trkpt><trkpt lat="41.27614115749664" lon="-1.4011719644832497"><ele>816.6</ele><time>2026-05-03T16:51:10Z</time></trkpt><trkpt lat="41.27624707020455" lon="-1.4011399148089851"><ele>815.4</ele><time>2026-05-03T16:51:11Z</time></trkpt><trkpt lat="41.276352939313" lon="-1.4011088844126594"><ele>814.2</ele><time>2026-05-03T16:51:12Z</time></trkpt><trkpt lat="41.27645185708388" lon="-1.4010656932736227"><ele>813.0</ele><time>2026-05-03T16:51:13Z</time></trkpt><trkpt lat="41.27654971465986" lon="-1.4010206019742228"><ele>813.0</ele><time>2026-05-03T16:51:14Z</time></trkpt><trkpt lat="41.27664212410928" lon="-1.4009580495248148"><ele>813.0</ele><time>2026-05-03T16:51:15Z</time></trkpt><trkpt lat="41.276735054807105" lon="-1.4008856732692776"><ele>813.0</ele><time>2026-05-03T16:51:16Z</time></trkpt><trkpt lat="41.276820987351634" lon="-1.4008007721262001"><ele>813.0</ele><time>2026-05-03T16:51:17Z</time></trkpt><trkpt lat="41.2769033531083" lon="-1.4007162756380274"><ele>813.0</ele><time>2026-05-03T16:51:18Z</time></trkpt><trkpt lat="41.27698818040198" lon="-1.400629074118488"><ele>813.0</ele><time>2026-05-03T16:51:19Z</time></trkpt><trkpt lat="41.27707155631693" lon="-1.4005434336242275"><ele>813.0</ele><time>2026-05-03T16:51:20Z</time></trkpt><trkpt lat="41.27715898594498" lon="-1.4004662750737258"><ele>813.0</ele><time>2026-05-03T16:51:21Z</time></trkpt><trkpt lat="41.27725430570627" lon="-1.4003970854401937"><ele>813.0</ele><time>2026-05-03T16:51:22Z</time></trkpt><trkpt lat="41.277348478749005" lon="-1.400333550489565"><ele>813.0</ele><time>2026-05-03T16:51:23Z</time></trkpt><trkpt lat="41.277442412397534" lon="-1.4002691590494616"><ele>812.0</ele><time>2026-05-03T16:51:24Z</time></trkpt><trkpt lat="41.27753403992546" lon="-1.4001944307929712"><ele>811.0</ele><time>2026-05-03T16:51:25Z</time></trkpt><trkpt lat="41.2776260823325" lon="-1.4001252350339883"><ele>810.0</ele><time>2026-05-03T16:51:26Z</time></trkpt><trkpt lat="41.277721729476504" lon="-1.4000575095999142"><ele>809.0</ele><time>2026-05-03T16:51:27Z</time></trkpt><trkpt lat="41.27781696115419" lon="-1.3999873925283417"><ele>808.0</ele><time>2026-05-03T16:51:28Z</time></trkpt><trkpt lat="41.27791071736567" lon="-1.399915449807566"><ele>808.0</ele><time>2026-05-03T16:51:29Z</time></trkpt><trkpt lat="41.277999188965744" lon="-1.3998466731985229"><ele>808.0</ele><time>2026-05-03T16:51:30Z</time></trkpt><trkpt lat="41.27809463086403" lon="-1.3997766164610195"><ele>808.0</ele><time>2026-05-03T16:51:31Z</time></trkpt><trkpt lat="41.2781880879731" lon="-1.399718540961986"><ele>808.0</ele><time>2026-05-03T16:51:32Z</time></trkpt><trkpt lat="41.27828376044641" lon="-1.3996746722167774"><ele>808.0</ele><time>2026-05-03T16:51:33Z</time></trkpt><trkpt lat="41.27838241924616" lon="-1.3996580527347102"><ele>807.2</ele><time>2026-05-03T16:51:34Z</time></trkpt><trkpt lat="41.278486412179944" lon="-1.3996582467598044"><ele>806.4</ele><time>2026-05-03T16:51:35Z</time></trkpt><trkpt lat="41.27858918891001" lon="-1.399671945793801"><ele>805.6</ele><time>2026-05-03T16:51:36Z</time></trkpt><trkpt lat="41.27869491446353" lon="-1.3996548330450387"><ele>804.8000000000001</ele><time>2026-05-03T16:51:37Z</time></trkpt><trkpt lat="41.278802450547175" lon="-1.39966868069568"><ele>804.0</ele><time>2026-05-03T16:51:38Z</time></trkpt><trkpt lat="41.27889853926556" lon="-1.399618110979446"><ele>803.6</ele><time>2026-05-03T16:51:39Z</time></trkpt><trkpt lat="41.27899143736574" lon="-1.3995724991279022"><ele>803.2</ele><time>2026-05-03T16:51:40Z</time></trkpt><trkpt lat="41.27909218476673" lon="-1.399535458083963"><ele>802.8000000000001</ele><time>2026-05-03T16:51:41Z</time></trkpt><trkpt lat="41.27918808585685" lon="-1.3994736129391945"><ele>802.4000000000001</ele><time>2026-05-03T16:51:42Z</time></trkpt><trkpt lat="41.279284173556526" lon="-1.3994147470134264"><ele>802.0</ele><time>2026-05-03T16:51:43Z</time></trkpt><trkpt lat="41.2793830665644" lon="-1.3993591290994056"><ele>802.0</ele><time>2026-05-03T16:51:44Z</time></trkpt><trkpt lat="41.279484378301376" lon="-1.399304723359197"><ele>802.0</ele><time>2026-05-03T16:51:45Z</time></trkpt><trkpt lat="41.279582118260315" lon="-1.399246393288182"><ele>802.0</ele><time>2026-05-03T16:51:46Z</time></trkpt><trkpt lat="41.279669813511134" lon="-1.399172704360509"><ele>802.0</ele><time>2026-05-03T16:51:47Z</time></trkpt><trkpt lat="41.27974744834443" lon="-1.3990806459386973"><ele>802.0</ele><time>2026-05-03T16:51:48Z</time></trkpt><trkpt lat="41.27982092995446" lon="-1.3989786853468276"><ele>801.6</ele><time>2026-05-03T16:51:49Z</time></trkpt><trkpt lat="41.27988266611612" lon="-1.3988633760716611"><ele>801.2</ele><time>2026-05-03T16:51:50Z</time></trkpt><trkpt lat="41.279938794886476" lon="-1.3987462652125369"><ele>800.8</ele><time>2026-05-03T16:51:51Z</time></trkpt><trkpt lat="41.27999053695482" lon="-1.398631828958835"><ele>800.4</ele><time>2026-05-03T16:51:52Z</time></trkpt><trkpt lat="41.28004798157606" lon="-1.3985195391967917"><ele>800.0</ele><time>2026-05-03T16:51:53Z</time></trkpt><trkpt lat="41.28010458781161" lon="-1.3984062048655856"><ele>800.0</ele><time>2026-05-03T16:51:54Z</time></trkpt><trkpt lat="41.280174413617935" lon="-1.3982986672451627"><ele>800.0</ele><time>2026-05-03T16:51:55.001Z</time></trkpt><trkpt lat="41.280252309014706" lon="-1.3982086110274876"><ele>800.0</ele><time>2026-05-03T16:51:56.001Z</time></trkpt><trkpt lat="41.2803338751049" lon="-1.3981124060081267"><ele>800.0</ele><time>2026-05-03T16:51:57.001Z</time></trkpt><trkpt lat="41.28041261331433" lon="-1.3980231768640563"><ele>800.0</ele><time>2026-05-03T16:51:58.001Z</time></trkpt><trkpt lat="41.28049831582298" lon="-1.3979341138792858"><ele>800.2</ele><time>2026-05-03T16:51:59.001Z</time></trkpt><trkpt lat="41.28058612135415" lon="-1.3978510543804483"><ele>800.4</ele><time>2026-05-03T16:52:00.001Z</time></trkpt><trkpt lat="41.280672509782555" lon="-1.3977700544557343"><ele>800.5999999999999</ele><time>2026-05-03T16:52:01.001Z</time></trkpt><trkpt lat="41.280760480370965" lon="-1.397682164965056"><ele>800.8</ele><time>2026-05-03T16:52:02.001Z</time></trkpt><trkpt lat="41.28084678859712" lon="-1.3975945778208962"><ele>801.0</ele><time>2026-05-03T16:52:03.001Z</time></trkpt><trkpt lat="41.28094058424854" lon="-1.3975010375739088"><ele>799.75</ele><time>2026-05-03T16:52:04.001Z</time></trkpt><trkpt lat="41.28102693916947" lon="-1.3974164814636423"><ele>798.5</ele><time>2026-05-03T16:52:05.001Z</time></trkpt><trkpt lat="41.2811305879064" lon="-1.3973160060198668"><ele>797.25</ele><time>2026-05-03T16:52:06.001Z</time></trkpt><trkpt lat="41.28125484923547" lon="-1.397167884988061"><ele>796.0</ele><time>2026-05-03T16:52:07.001Z</time></trkpt><trkpt lat="41.28135898112973" lon="-1.39706044000174"><ele>796.0</ele><time>2026-05-03T16:52:07.999Z</time></trkpt><trkpt lat="41.281423567722626" lon="-1.3970069673433123"><ele>796.0</ele><time>2026-05-03T16:52:09.999Z</time></trkpt><trkpt lat="41.28157812498534" lon="-1.3968542775253037"><ele>796.0</ele><time>2026-05-03T16:52:10.999Z</time></trkpt><trkpt lat="41.28166636953713" lon="-1.3967613515595898"><ele>796.0</ele><time>2026-05-03T16:52:11.999Z</time></trkpt><trkpt lat="41.281754980410554" lon="-1.396670017676173"><ele>796.0</ele><time>2026-05-03T16:52:12.999Z</time></trkpt><trkpt lat="41.28184004297271" lon="-1.3965741045157085"><ele>796.0</ele><time>2026-05-03T16:52:13.999Z</time></trkpt><trkpt lat="41.28193257328485" lon="-1.3964926363376748"><ele>796.0</ele><time>2026-05-03T16:52:14.999Z</time></trkpt><trkpt lat="41.28203178978092" lon="-1.3964125007832058"><ele>796.0</ele><time>2026-05-03T16:52:15.999Z</time></trkpt><trkpt lat="41.28212941241272" lon="-1.3963363235230437"><ele>795.25</ele><time>2026-05-03T16:52:16.999Z</time></trkpt><trkpt lat="41.28222484205909" lon="-1.3962557758873604"><ele>794.5</ele><time>2026-05-03T16:52:17.999Z</time></trkpt><trkpt lat="41.28232564874511" lon="-1.3961851924038584"><ele>793.75</ele><time>2026-05-03T16:52:18.999Z</time></trkpt><trkpt lat="41.28242530166796" lon="-1.3961137467846547"><ele>793.0</ele><time>2026-05-03T16:52:19.999Z</time></trkpt><trkpt lat="41.28251945571947" lon="-1.3960358651482572"><ele>792.8</ele><time>2026-05-03T16:52:20.999Z</time></trkpt><trkpt lat="41.28261696219539" lon="-1.395971646378342"><ele>792.5999999999999</ele><time>2026-05-03T16:52:21.999Z</time></trkpt><trkpt lat="41.28271223660175" lon="-1.395905917886939"><ele>792.4000000000001</ele><time>2026-05-03T16:52:22.999Z</time></trkpt><trkpt lat="41.28280342939258" lon="-1.3958429456704884"><ele>792.2</ele><time>2026-05-03T16:52:24Z</time></trkpt><trkpt lat="41.282893642181705" lon="-1.395776615551988"><ele>792.0</ele><time>2026-05-03T16:52:25Z</time></trkpt><trkpt lat="41.28298277683808" lon="-1.3957024180502187"><ele>792.0</ele><time>2026-05-03T16:52:26Z</time></trkpt><trkpt lat="41.28304939387379" lon="-1.3955955272831335"><ele>792.0</ele><time>2026-05-03T16:52:27Z</time></trkpt><trkpt lat="41.28311980093838" lon="-1.395494094562303"><ele>792.0</ele><time>2026-05-03T16:52:28Z</time></trkpt><trkpt lat="41.283182783401614" lon="-1.3953863568053544"><ele>792.0</ele><time>2026-05-03T16:52:29Z</time></trkpt><trkpt lat="41.28324735126956" lon="-1.3952778671936836"><ele>792.0</ele><time>2026-05-03T16:52:30Z</time></trkpt><trkpt lat="41.28331239671546" lon="-1.3951639982853328"><ele>791.6</ele><time>2026-05-03T16:52:31Z</time></trkpt><trkpt lat="41.28337741988436" lon="-1.3950495576427975"><ele>791.2</ele><time>2026-05-03T16:52:32Z</time></trkpt><trkpt lat="41.28344130900285" lon="-1.3949383614218196"><ele>790.8</ele><time>2026-05-03T16:52:33Z</time></trkpt><trkpt lat="41.28350399406464" lon="-1.394829512856635"><ele>790.4</ele><time>2026-05-03T16:52:34Z</time></trkpt><trkpt lat="41.28356532293564" lon="-1.3947153021712793"><ele>790.0</ele><time>2026-05-03T16:52:35Z</time></trkpt><trkpt lat="41.28363155381669" lon="-1.3946083872709178"><ele>788.6</ele><time>2026-05-03T16:52:36Z</time></trkpt><trkpt lat="41.283684456752894" lon="-1.3944811246906845"><ele>787.2</ele><time>2026-05-03T16:52:37Z</time></trkpt><trkpt lat="41.28373980698931" lon="-1.3943593502479406"><ele>785.8</ele><time>2026-05-03T16:52:38Z</time></trkpt><trkpt lat="41.2837895412968" lon="-1.394229825859775"><ele>784.4</ele><time>2026-05-03T16:52:39Z</time></trkpt><trkpt lat="41.28384383719216" lon="-1.394105613488879"><ele>783.0</ele><time>2026-05-03T16:52:40Z</time></trkpt><trkpt lat="41.28389610859788" lon="-1.3939824953205537"><ele>784.0</ele><time>2026-05-03T16:52:41Z</time></trkpt><trkpt lat="41.283946642597115" lon="-1.3938500972899714"><ele>785.0</ele><time>2026-05-03T16:52:42Z</time></trkpt><trkpt lat="41.28400534816692" lon="-1.3937210386691892"><ele>786.0</ele><time>2026-05-03T16:52:43Z</time></trkpt><trkpt lat="41.284064276751394" lon="-1.3935950296111657"><ele>787.0</ele><time>2026-05-03T16:52:44Z</time></trkpt><trkpt lat="41.28411171865828" lon="-1.3934529155621689"><ele>787.0</ele><time>2026-05-03T16:52:45Z</time></trkpt><trkpt lat="41.28415550879105" lon="-1.3933123239706577"><ele>787.0</ele><time>2026-05-03T16:52:46Z</time></trkpt><trkpt lat="41.28422752596502" lon="-1.3932069777962353"><ele>787.0</ele><time>2026-05-03T16:52:47Z</time></trkpt><trkpt lat="41.284288214082686" lon="-1.3930716321989507"><ele>787.0</ele><time>2026-05-03T16:52:48Z</time></trkpt><trkpt lat="41.284342051153665" lon="-1.3929385430294308"><ele>786.0</ele><time>2026-05-03T16:52:49Z</time></trkpt><trkpt lat="41.28439524021633" lon="-1.3928033875175292"><ele>785.0</ele><time>2026-05-03T16:52:50Z</time></trkpt><trkpt lat="41.284454680692036" lon="-1.392674579574892"><ele>784.0</ele><time>2026-05-03T16:52:51Z</time></trkpt><trkpt lat="41.28450757904642" lon="-1.3925459884947704"><ele>783.0</ele><time>2026-05-03T16:52:52Z</time></trkpt><trkpt lat="41.28455802697774" lon="-1.3924230560568078"><ele>782.0</ele><time>2026-05-03T16:52:53Z</time></trkpt><trkpt lat="41.28461824243086" lon="-1.3922990268086721"><ele>782.0</ele><time>2026-05-03T16:52:54Z</time></trkpt><trkpt lat="41.28467852502035" lon="-1.3921762036083352"><ele>782.0</ele><time>2026-05-03T16:52:55Z</time></trkpt><trkpt lat="41.28473553512964" lon="-1.3920512538406695"><ele>782.0</ele><time>2026-05-03T16:52:56Z</time></trkpt><trkpt lat="41.284804287396284" lon="-1.3919348206568234"><ele>782.0</ele><time>2026-05-03T16:52:57Z</time></trkpt><trkpt lat="41.28486458416567" lon="-1.3918222169120413"><ele>782.0</ele><time>2026-05-03T16:52:58Z</time></trkpt><trkpt lat="41.28493603431501" lon="-1.3917106539840012"><ele>782.2</ele><time>2026-05-03T16:52:59Z</time></trkpt><trkpt lat="41.285004053089914" lon="-1.3915923158480734"><ele>782.4000000000001</ele><time>2026-05-03T16:53:00Z</time></trkpt><trkpt lat="41.285069279672804" lon="-1.3914756342602026"><ele>782.5999999999999</ele><time>2026-05-03T16:53:01Z</time></trkpt><trkpt lat="41.285135012906444" lon="-1.391357141439866"><ele>782.8</ele><time>2026-05-03T16:53:02Z</time></trkpt><trkpt lat="41.28519856078097" lon="-1.3912383771116683"><ele>783.0</ele><time>2026-05-03T16:53:03Z</time></trkpt><trkpt lat="41.28525857215661" lon="-1.3911196312950158"><ele>781.5999999999999</ele><time>2026-05-03T16:53:04Z</time></trkpt><trkpt lat="41.28531696243" lon="-1.391000790202321"><ele>780.1999999999999</ele><time>2026-05-03T16:53:05Z</time></trkpt><trkpt lat="41.285379431185184" lon="-1.390880952311671"><ele>778.8</ele><time>2026-05-03T16:53:06Z</time></trkpt><trkpt lat="41.28544612815067" lon="-1.3907614616108457"><ele>777.4</ele><time>2026-05-03T16:53:07Z</time></trkpt><trkpt lat="41.285505856698805" lon="-1.390644255252391"><ele>776.0</ele><time>2026-05-03T16:53:08Z</time></trkpt><trkpt lat="41.28556553740269" lon="-1.3905238348187483"><ele>777.4</ele><time>2026-05-03T16:53:09Z</time></trkpt><trkpt lat="41.285620936485905" lon="-1.3903951319013923"><ele>778.8</ele><time>2026-05-03T16:53:10Z</time></trkpt><trkpt lat="41.285660843284454" lon="-1.39026291571286"><ele>780.1999999999999</ele><time>2026-05-03T16:53:11Z</time></trkpt><trkpt lat="41.28569657249044" lon="-1.3901292786641575"><ele>781.5999999999999</ele><time>2026-05-03T16:53:12Z</time></trkpt><trkpt lat="41.285731637325945" lon="-1.3899923559005112"><ele>783.0</ele><time>2026-05-03T16:53:13Z</time></trkpt><trkpt lat="41.285774304355996" lon="-1.3898558075809684"><ele>783.0</ele><time>2026-05-03T16:53:14Z</time></trkpt><trkpt lat="41.285806949496454" lon="-1.3897146687200501"><ele>783.0</ele><time>2026-05-03T16:53:15Z</time></trkpt><trkpt lat="41.28584476517405" lon="-1.389576290303779"><ele>783.0</ele><time>2026-05-03T16:53:16Z</time></trkpt><trkpt lat="41.2858781390981" lon="-1.3894423700291496"><ele>783.0</ele><time>2026-05-03T16:53:17Z</time></trkpt><trkpt lat="41.28592136400767" lon="-1.3893080948629333"><ele>783.0</ele><time>2026-05-03T16:53:18Z</time></trkpt><trkpt lat="41.285958513827715" lon="-1.3891728145677624"><ele>781.0</ele><time>2026-05-03T16:53:19Z</time></trkpt><trkpt lat="41.28602173457727" lon="-1.3890502312328565"><ele>779.0</ele><time>2026-05-03T16:53:20Z</time></trkpt><trkpt lat="41.28608324318928" lon="-1.3889301337853543"><ele>777.0</ele><time>2026-05-03T16:53:21Z</time></trkpt><trkpt lat="41.28614373603228" lon="-1.3888040515560558"><ele>775.0</ele><time>2026-05-03T16:53:22Z</time></trkpt><trkpt lat="41.28621087202294" lon="-1.3886852710122253"><ele>773.0</ele><time>2026-05-03T16:53:23Z</time></trkpt><trkpt lat="41.28627451732292" lon="-1.3885647850289866"><ele>773.0</ele><time>2026-05-03T16:53:24Z</time></trkpt><trkpt lat="41.28633598392216" lon="-1.3884428750381865"><ele>773.0</ele><time>2026-05-03T16:53:25Z</time></trkpt><trkpt lat="41.2863988485929" lon="-1.3883157451106347"><ele>773.0</ele><time>2026-05-03T16:53:26Z</time></trkpt><trkpt lat="41.28645657925518" lon="-1.3881935515775514"><ele>773.0</ele><time>2026-05-03T16:53:27Z</time></trkpt><trkpt lat="41.286516953686174" lon="-1.3880712174582177"><ele>773.0</ele><time>2026-05-03T16:53:28Z</time></trkpt><trkpt lat="41.286575854914936" lon="-1.3879495124620176"><ele>771.8</ele><time>2026-05-03T16:53:29Z</time></trkpt><trkpt lat="41.28663950772948" lon="-1.3878282554742025"><ele>770.5999999999999</ele><time>2026-05-03T16:53:30Z</time></trkpt><trkpt lat="41.28670361562233" lon="-1.3877043886120795"><ele>769.4000000000001</ele><time>2026-05-03T16:53:31Z</time></trkpt><trkpt lat="41.28677231691335" lon="-1.3875918546154768"><ele>768.2</ele><time>2026-05-03T16:53:32Z</time></trkpt><trkpt lat="41.28684692368126" lon="-1.3874822160634084"><ele>767.0</ele><time>2026-05-03T16:53:33Z</time></trkpt><trkpt lat="41.2869242707273" lon="-1.3873776647982283"><ele>767.0</ele><time>2026-05-03T16:53:34Z</time></trkpt><trkpt lat="41.287012124196636" lon="-1.3872670329804422"><ele>767.0</ele><time>2026-05-03T16:53:35Z</time></trkpt><trkpt lat="41.28709897237299" lon="-1.3871648794537261"><ele>767.0</ele><time>2026-05-03T16:53:36Z</time></trkpt><trkpt lat="41.28717712214373" lon="-1.3870628649798296"><ele>767.0</ele><time>2026-05-03T16:53:37Z</time></trkpt><trkpt lat="41.28725195921775" lon="-1.386953367546487"><ele>766.25</ele><time>2026-05-03T16:53:38Z</time></trkpt><trkpt lat="41.28733274563819" lon="-1.386840521617722"><ele>765.5</ele><time>2026-05-03T16:53:39Z</time></trkpt><trkpt lat="41.28741645832552" lon="-1.3867306935250796"><ele>764.75</ele><time>2026-05-03T16:53:40Z</time></trkpt><trkpt lat="41.28749123785876" lon="-1.386607718252328"><ele>764.0</ele><time>2026-05-03T16:53:41Z</time></trkpt><trkpt lat="41.28756409793787" lon="-1.386487773863189"><ele>764.0</ele><time>2026-05-03T16:53:42Z</time></trkpt><trkpt lat="41.287640217585015" lon="-1.3863734018482545"><ele>764.0</ele><time>2026-05-03T16:53:43Z</time></trkpt><trkpt lat="41.287724645034" lon="-1.3862691670036926"><ele>764.0</ele><time>2026-05-03T16:53:44Z</time></trkpt><trkpt lat="41.28781607193883" lon="-1.386169516258064"><ele>764.0</ele><time>2026-05-03T16:53:45Z</time></trkpt><trkpt lat="41.287904711153864" lon="-1.3860667837991394"><ele>764.25</ele><time>2026-05-03T16:53:46Z</time></trkpt><trkpt lat="41.28798672123132" lon="-1.3859605552644128"><ele>764.5</ele><time>2026-05-03T16:53:47Z</time></trkpt><trkpt lat="41.288073679485215" lon="-1.3858663459735332"><ele>764.75</ele><time>2026-05-03T16:53:48Z</time></trkpt><trkpt lat="41.28814603151327" lon="-1.3857462038502015"><ele>765.0</ele><time>2026-05-03T16:53:49Z</time></trkpt><trkpt lat="41.288226936588586" lon="-1.3856374297426657"><ele>765.0</ele><time>2026-05-03T16:53:50Z</time></trkpt><trkpt lat="41.28829871041618" lon="-1.3855361763479894"><ele>765.0</ele><time>2026-05-03T16:53:51Z</time></trkpt><trkpt lat="41.288350583039445" lon="-1.3854212417622882"><ele>765.0</ele><time>2026-05-03T16:53:52Z</time></trkpt><trkpt lat="41.28843141329033" lon="-1.3852682141629526"><ele>765.0</ele><time>2026-05-03T16:53:53Z</time></trkpt><trkpt lat="41.288368736414576" lon="-1.38511182013525"><ele>764.25</ele><time>2026-05-03T16:53:54Z</time></trkpt><trkpt lat="41.28835609799123" lon="-1.3849701243485446"><ele>763.5</ele><time>2026-05-03T16:53:55Z</time></trkpt><trkpt lat="41.28835463286539" lon="-1.3848471714431039"><ele>762.75</ele><time>2026-05-03T16:53:56Z</time></trkpt><trkpt lat="41.28836609550996" lon="-1.3847483909681826"><ele>762.0</ele><time>2026-05-03T16:53:57Z</time></trkpt><trkpt lat="41.28848780451097" lon="-1.3845447563422228"><ele>761.0</ele><time>2026-05-03T16:53:58Z</time></trkpt><trkpt lat="41.28853775653563" lon="-1.3844149208050538"><ele>760.0</ele><time>2026-05-03T16:53:59Z</time></trkpt><trkpt lat="41.28860812410582" lon="-1.384298547427737"><ele>759.0</ele><time>2026-05-03T16:54:00Z</time></trkpt><trkpt lat="41.28868975125246" lon="-1.3841983772357302"><ele>758.0</ele><time>2026-05-03T16:54:01Z</time></trkpt><trkpt lat="41.288778980402526" lon="-1.3841158280181032"><ele>757.0</ele><time>2026-05-03T16:54:02Z</time></trkpt><trkpt lat="41.288868099702064" lon="-1.3840238555598827"><ele>755.75</ele><time>2026-05-03T16:54:03Z</time></trkpt><trkpt lat="41.288957362938085" lon="-1.3839292487339019"><ele>754.5</ele><time>2026-05-03T16:54:04Z</time></trkpt><trkpt lat="41.289045305428004" lon="-1.3838386673363192"><ele>753.25</ele><time>2026-05-03T16:54:05Z</time></trkpt><trkpt lat="41.28913547773348" lon="-1.3837400624425644"><ele>752.0</ele><time>2026-05-03T16:54:06Z</time></trkpt><trkpt lat="41.289223372584864" lon="-1.383642453576089"><ele>752.0</ele><time>2026-05-03T16:54:07Z</time></trkpt><trkpt lat="41.28931118687415" lon="-1.3835434019460717"><ele>752.0</ele><time>2026-05-03T16:54:08Z</time></trkpt><trkpt lat="41.289382932110904" lon="-1.3834282214954001"><ele>752.0</ele><time>2026-05-03T16:54:09Z</time></trkpt><trkpt lat="41.2894576802373" lon="-1.383314875795411"><ele>752.0</ele><time>2026-05-03T16:54:10Z</time></trkpt><trkpt lat="41.289534344386944" lon="-1.383203827333412"><ele>752.0</ele><time>2026-05-03T16:54:11Z</time></trkpt><trkpt lat="41.28960382750987" lon="-1.383080875374004"><ele>752.0</ele><time>2026-05-03T16:54:12Z</time></trkpt><trkpt lat="41.28967098388458" lon="-1.3829526890021673"><ele>752.0</ele><time>2026-05-03T16:54:13Z</time></trkpt><trkpt lat="41.28973088142307" lon="-1.3828221034541353"><ele>752.0</ele><time>2026-05-03T16:54:13.999Z</time></trkpt><trkpt lat="41.28979731931718" lon="-1.382696690907362"><ele>753.0</ele><time>2026-05-03T16:54:14.999Z</time></trkpt><trkpt lat="41.28986496745891" lon="-1.3825698940020328"><ele>754.0</ele><time>2026-05-03T16:54:15.999Z</time></trkpt><trkpt lat="41.289934121897964" lon="-1.3824402224545789"><ele>755.0</ele><time>2026-05-03T16:54:16.999Z</time></trkpt><trkpt lat="41.28999548976368" lon="-1.382311176792457"><ele>756.0</ele><time>2026-05-03T16:54:17.999Z</time></trkpt><trkpt lat="41.29006287854009" lon="-1.3821910756038094"><ele>754.25</ele><time>2026-05-03T16:54:18.999Z</time></trkpt><trkpt lat="41.290131605259496" lon="-1.3820691322399583"><ele>752.5</ele><time>2026-05-03T16:54:19.999Z</time></trkpt><trkpt lat="41.29019661066518" lon="-1.3819475487625705"><ele>750.75</ele><time>2026-05-03T16:54:20.999Z</time></trkpt><trkpt lat="41.2902616373289" lon="-1.381826933080781"><ele>749.0</ele><time>2026-05-03T16:54:21.999Z</time></trkpt><trkpt lat="41.29032959489411" lon="-1.38170916108819"><ele>749.0</ele><time>2026-05-03T16:54:22.999Z</time></trkpt><trkpt lat="41.29039156577931" lon="-1.3815893712924017"><ele>749.0</ele><time>2026-05-03T16:54:23.999Z</time></trkpt><trkpt lat="41.290461251343054" lon="-1.3814735832591387"><ele>749.0</ele><time>2026-05-03T16:54:24.999Z</time></trkpt><trkpt lat="41.29053104226397" lon="-1.3813603801505812"><ele>749.0</ele><time>2026-05-03T16:54:25.999Z</time></trkpt><trkpt lat="41.29060495424666" lon="-1.3812525331304268"><ele>749.0</ele><time>2026-05-03T16:54:26.999Z</time></trkpt><trkpt lat="41.29067752758839" lon="-1.3811450340212557"><ele>749.0</ele><time>2026-05-03T16:54:27.999Z</time></trkpt><trkpt lat="41.29074780516487" lon="-1.381036219971791"><ele>749.0</ele><time>2026-05-03T16:54:28.999Z</time></trkpt><trkpt lat="41.29081262092988" lon="-1.3809202047969318"><ele>749.0</ele><time>2026-05-03T16:54:29.999Z</time></trkpt><trkpt lat="41.29088722026568" lon="-1.3808150605813867"><ele>749.0</ele><time>2026-05-03T16:54:30.999Z</time></trkpt><trkpt lat="41.290959224214326" lon="-1.3807094950105159"><ele>749.0</ele><time>2026-05-03T16:54:31.999Z</time></trkpt><trkpt lat="41.29103323577278" lon="-1.3805948542315853"><ele>748.0</ele><time>2026-05-03T16:54:32.999Z</time></trkpt><trkpt lat="41.29110619431637" lon="-1.380487742148922"><ele>747.0</ele><time>2026-05-03T16:54:33.999Z</time></trkpt><trkpt lat="41.29117824502108" lon="-1.3803790470320074"><ele>746.0</ele><time>2026-05-03T16:54:34.999Z</time></trkpt><trkpt lat="41.2912500313346" lon="-1.3802690427119748"><ele>745.0</ele><time>2026-05-03T16:54:35.999Z</time></trkpt><trkpt lat="41.29132952990243" lon="-1.380161736898541"><ele>744.0</ele><time>2026-05-03T16:54:37Z</time></trkpt><trkpt lat="41.29139185796835" lon="-1.3800407658517861"><ele>743.6</ele><time>2026-05-03T16:54:38Z</time></trkpt><trkpt lat="41.29147335499445" lon="-1.3799417361835196"><ele>743.2</ele><time>2026-05-03T16:54:39Z</time></trkpt><trkpt lat="41.29154861276792" lon="-1.3798291600201373"><ele>742.8000000000001</ele><time>2026-05-03T16:54:40Z</time></trkpt><trkpt lat="41.291618092248264" lon="-1.3797188318575002"><ele>742.4000000000001</ele><time>2026-05-03T16:54:41Z</time></trkpt><trkpt lat="41.29169593061456" lon="-1.379613050971468"><ele>742.0</ele><time>2026-05-03T16:54:42Z</time></trkpt><trkpt lat="41.29175826329922" lon="-1.3794873903737053"><ele>742.0</ele><time>2026-05-03T16:54:43Z</time></trkpt><trkpt lat="41.291827521939965" lon="-1.3793731753499203"><ele>742.0</ele><time>2026-05-03T16:54:44Z</time></trkpt><trkpt lat="41.29190235656545" lon="-1.3792639209982929"><ele>742.0</ele><time>2026-05-03T16:54:45Z</time></trkpt><trkpt lat="41.29196237238215" lon="-1.3791457160917748"><ele>742.0</ele><time>2026-05-03T16:54:46Z</time></trkpt><trkpt lat="41.29202293222976" lon="-1.379005919966758"><ele>742.0</ele><time>2026-05-03T16:54:47Z</time></trkpt><trkpt lat="41.29208292759346" lon="-1.378877254674957"><ele>742.0</ele><time>2026-05-03T16:54:48Z</time></trkpt><trkpt lat="41.29215052462076" lon="-1.378750731523393"><ele>742.0</ele><time>2026-05-03T16:54:49Z</time></trkpt><trkpt lat="41.29221494430695" lon="-1.3786245300562745"><ele>742.0</ele><time>2026-05-03T16:54:50Z</time></trkpt><trkpt lat="41.292280688563544" lon="-1.378496159428172"><ele>742.25</ele><time>2026-05-03T16:54:51Z</time></trkpt><trkpt lat="41.29234245351412" lon="-1.378366434297989"><ele>742.5</ele><time>2026-05-03T16:54:52Z</time></trkpt><trkpt lat="41.29241856732997" lon="-1.3782416526353143"><ele>742.75</ele><time>2026-05-03T16:54:53Z</time></trkpt><trkpt lat="41.2924979322409" lon="-1.378126995687683"><ele>743.0</ele><time>2026-05-03T16:54:54Z</time></trkpt><trkpt lat="41.2925739394677" lon="-1.3780199305200411"><ele>741.8</ele><time>2026-05-03T16:54:55Z</time></trkpt><trkpt lat="41.29265078231156" lon="-1.3779142265992614"><ele>740.5999999999999</ele><time>2026-05-03T16:54:56Z</time></trkpt><trkpt lat="41.29272566691778" lon="-1.3777982506120316"><ele>739.4000000000001</ele><time>2026-05-03T16:54:57Z</time></trkpt><trkpt lat="41.29279681562373" lon="-1.3776906834888365"><ele>738.2</ele><time>2026-05-03T16:54:58Z</time></trkpt><trkpt lat="41.292860259940866" lon="-1.3775913868150462"><ele>737.0</ele><time>2026-05-03T16:54:59Z</time></trkpt><trkpt lat="41.29292477478345" lon="-1.3775005178327318"><ele>737.0</ele><time>2026-05-03T16:55:00Z</time></trkpt><trkpt lat="41.29298965065308" lon="-1.3774101613114829"><ele>737.0</ele><time>2026-05-03T16:55:01Z</time></trkpt><trkpt lat="41.29305693068317" lon="-1.3773307130428765"><ele>737.0</ele><time>2026-05-03T16:55:02Z</time></trkpt><trkpt lat="41.29312449736961" lon="-1.3772532283123617"><ele>737.0</ele><time>2026-05-03T16:55:03Z</time></trkpt><trkpt lat="41.29319381040291" lon="-1.3771761637145206"><ele>737.0</ele><time>2026-05-03T16:55:04Z</time></trkpt><trkpt lat="41.29326444016036" lon="-1.3771014155254961"><ele>737.0</ele><time>2026-05-03T16:55:05Z</time></trkpt><trkpt lat="41.293320393352175" lon="-1.3770050249349726"><ele>737.0</ele><time>2026-05-03T16:55:06Z</time></trkpt><trkpt lat="41.2933765422817" lon="-1.3769144791003238"><ele>737.0</ele><time>2026-05-03T16:55:07Z</time></trkpt><trkpt lat="41.2934370699609" lon="-1.376834039776192"><ele>737.0</ele><time>2026-05-03T16:55:08Z</time></trkpt><trkpt lat="41.293473259567314" lon="-1.376736073102815"><ele>737.0</ele><time>2026-05-03T16:55:09Z</time></trkpt><trkpt lat="41.29350057124758" lon="-1.3766418945561436"><ele>737.0</ele><time>2026-05-03T16:55:10Z</time></trkpt><trkpt lat="41.29350610539166" lon="-1.3765445176863365"><ele>737.0000000000001</ele><time>2026-05-03T16:55:11Z</time></trkpt><trkpt lat="41.293524595092975" lon="-1.376457028575782"><ele>737.0</ele><time>2026-05-03T16:55:12Z</time></trkpt><trkpt lat="41.29355806400521" lon="-1.3763688979166175"><ele>737.0</ele><time>2026-05-03T16:55:13Z</time></trkpt><trkpt lat="41.293574323172145" lon="-1.3762618433849716"><ele>737.0</ele><time>2026-05-03T16:55:14Z</time></trkpt><trkpt lat="41.29358994922089" lon="-1.3761639739407232"><ele>737.0</ele><time>2026-05-03T16:55:15Z</time></trkpt><trkpt lat="41.29360843744962" lon="-1.3760701708743897"><ele>737.0000000000001</ele><time>2026-05-03T16:55:16Z</time></trkpt><trkpt lat="41.29362304553337" lon="-1.3759780179290357"><ele>737.0</ele><time>2026-05-03T16:55:17Z</time></trkpt><trkpt lat="41.29364569152896" lon="-1.375890274558389"><ele>736.8571428571429</ele><time>2026-05-03T16:55:18Z</time></trkpt><trkpt lat="41.2936639706013" lon="-1.375792614733727"><ele>736.7142857142858</ele><time>2026-05-03T16:55:19Z</time></trkpt><trkpt lat="41.29369232573879" lon="-1.3757043409358047"><ele>736.5714285714287</ele><time>2026-05-03T16:55:20Z</time></trkpt><trkpt lat="41.29373932421899" lon="-1.375639351765585"><ele>736.4285714285714</ele><time>2026-05-03T16:55:21Z</time></trkpt><trkpt lat="41.293802801026" lon="-1.375613354164667"><ele>736.2857142857142</ele><time>2026-05-03T16:55:22Z</time></trkpt><trkpt lat="41.29387835856465" lon="-1.3755763866720516"><ele>736.1428571428572</ele><time>2026-05-03T16:55:23Z</time></trkpt><trkpt lat="41.29395483411756" lon="-1.375578024219103"><ele>736.0</ele><time>2026-05-03T16:55:24Z</time></trkpt><trkpt lat="41.29403136827513" lon="-1.3755609535022182"><ele>736.5999999999999</ele><time>2026-05-03T16:55:25Z</time></trkpt><trkpt lat="41.29411292669421" lon="-1.375548845068125"><ele>737.2</ele><time>2026-05-03T16:55:26Z</time></trkpt><trkpt lat="41.29420413641737" lon="-1.3755324298825828"><ele>737.8</ele><time>2026-05-03T16:55:27Z</time></trkpt><trkpt lat="41.2943013194399" lon="-1.375512324040579"><ele>738.4000000000001</ele><time>2026-05-03T16:55:28Z</time></trkpt><trkpt lat="41.294396526418055" lon="-1.3755032538758478"><ele>739.0</ele><time>2026-05-03T16:55:29Z</time></trkpt><trkpt lat="41.294479469566085" lon="-1.3754951785756722"><ele>739.0</ele><time>2026-05-03T16:55:30Z</time></trkpt><trkpt lat="41.294559493994164" lon="-1.3754892194687909"><ele>739.0</ele><time>2026-05-03T16:55:31Z</time></trkpt><trkpt lat="41.29463784121767" lon="-1.375497004147101"><ele>739.0</ele><time>2026-05-03T16:55:32Z</time></trkpt><trkpt lat="41.294712321048614" lon="-1.3755052681224513"><ele>739.0</ele><time>2026-05-03T16:55:33Z</time></trkpt><trkpt lat="41.2947848248869" lon="-1.375512294297022"><ele>739.0</ele><time>2026-05-03T16:55:34Z</time></trkpt><trkpt lat="41.29486181049791" lon="-1.3755224659374605"><ele>739.0</ele><time>2026-05-03T16:55:35Z</time></trkpt><trkpt lat="41.29494979170444" lon="-1.3755347045700475"><ele>738.8000000000001</ele><time>2026-05-03T16:55:36Z</time></trkpt><trkpt lat="41.29503719558693" lon="-1.3755499082848828"><ele>738.6</ele><time>2026-05-03T16:55:37Z</time></trkpt><trkpt lat="41.29511648715124" lon="-1.3755634719195624"><ele>738.4</ele><time>2026-05-03T16:55:38Z</time></trkpt><trkpt lat="41.2951941931477" lon="-1.3755430728491687"><ele>738.2</ele><time>2026-05-03T16:55:39Z</time></trkpt><trkpt lat="41.295273840071225" lon="-1.3753563008383252"><ele>738.0</ele><time>2026-05-03T16:55:41Z</time></trkpt><trkpt lat="41.29531333487963" lon="-1.3752482681845897"><ele>738.1666666666666</ele><time>2026-05-03T16:55:42Z</time></trkpt><trkpt lat="41.295362196960255" lon="-1.3751518676430865"><ele>738.3333333333334</ele><time>2026-05-03T16:55:43Z</time></trkpt><trkpt lat="41.29539941556752" lon="-1.3750456267834197"><ele>738.5</ele><time>2026-05-03T16:55:44Z</time></trkpt><trkpt lat="41.29543760713035" lon="-1.3749370359996336"><ele>738.6666666666667</ele><time>2026-05-03T16:55:45Z</time></trkpt><trkpt lat="41.29547220669983" lon="-1.3748311399451245"><ele>738.8333333333334</ele><time>2026-05-03T16:55:46.001Z</time></trkpt><trkpt lat="41.295504115317144" lon="-1.3747374995305264"><ele>739.0</ele><time>2026-05-03T16:55:47.001Z</time></trkpt><trkpt lat="41.295535913745915" lon="-1.374646738640379"><ele>739.0</ele><time>2026-05-03T16:55:48.001Z</time></trkpt><trkpt lat="41.295566264357184" lon="-1.374556418030512"><ele>739.0</ele><time>2026-05-03T16:55:49.001Z</time></trkpt><trkpt lat="41.295601121732815" lon="-1.3744694254763334"><ele>739.0</ele><time>2026-05-03T16:55:50.001Z</time></trkpt><trkpt lat="41.29563634625923" lon="-1.3743846060109133"><ele>739.0</ele><time>2026-05-03T16:55:51.001Z</time></trkpt><trkpt lat="41.29567606501005" lon="-1.3742990971883406"><ele>739.0</ele><time>2026-05-03T16:55:52.001Z</time></trkpt><trkpt lat="41.29571382450185" lon="-1.3742184070388686"><ele>739.0</ele><time>2026-05-03T16:55:53.001Z</time></trkpt><trkpt lat="41.295756813776535" lon="-1.3741326681000836"><ele>739.0</ele><time>2026-05-03T16:55:54.001Z</time></trkpt><trkpt lat="41.29579738078748" lon="-1.3740515152302848"><ele>738.1428571428571</ele><time>2026-05-03T16:55:55.001Z</time></trkpt><trkpt lat="41.29584108333093" lon="-1.373972071658925"><ele>737.2857142857143</ele><time>2026-05-03T16:55:56.001Z</time></trkpt><trkpt lat="41.295883009418326" lon="-1.3738931652234982"><ele>736.4285714285713</ele><time>2026-05-03T16:55:57.001Z</time></trkpt><trkpt lat="41.295930729078385" lon="-1.3738140332289708"><ele>735.5714285714286</ele><time>2026-05-03T16:55:58.001Z</time></trkpt><trkpt lat="41.2959738186731" lon="-1.3737365665095689"><ele>734.7142857142857</ele><time>2026-05-03T16:55:59.001Z</time></trkpt><trkpt lat="41.296019411684135" lon="-1.3736596854059386"><ele>733.8571428571428</ele><time>2026-05-03T16:56:00.001Z</time></trkpt><trkpt lat="41.29606516072957" lon="-1.3735801698723462"><ele>733.0</ele><time>2026-05-03T16:56:01.001Z</time></trkpt><trkpt lat="41.29611007653689" lon="-1.3735025360258997"><ele>735.1666666666667</ele><time>2026-05-03T16:56:02.001Z</time></trkpt><trkpt lat="41.29615244811225" lon="-1.3734189177947893"><ele>737.3333333333334</ele><time>2026-05-03T16:56:03.001Z</time></trkpt><trkpt lat="41.296195798930874" lon="-1.37334011658723"><ele>739.5</ele><time>2026-05-03T16:56:04.001Z</time></trkpt><trkpt lat="41.29624181196175" lon="-1.3732589141149212"><ele>741.6666666666666</ele><time>2026-05-03T16:56:05.001Z</time></trkpt><trkpt lat="41.29627956177381" lon="-1.3731725680326794"><ele>743.8333333333333</ele><time>2026-05-03T16:56:06.001Z</time></trkpt><trkpt lat="41.29627454233742" lon="-1.3730682224104156"><ele>746.0</ele><time>2026-05-03T16:56:07.001Z</time></trkpt><trkpt lat="41.29627174421469" lon="-1.3729703117114407"><ele>746.7142857142858</ele><time>2026-05-03T16:56:08.001Z</time></trkpt><trkpt lat="41.29623189621935" lon="-1.372891770817911"><ele>747.4285714285714</ele><time>2026-05-03T16:56:09.001Z</time></trkpt><trkpt lat="41.296199320164014" lon="-1.3728101925477638"><ele>748.1428571428571</ele><time>2026-05-03T16:56:10.001Z</time></trkpt><trkpt lat="41.29616570959362" lon="-1.3727276250559137"><ele>748.8571428571429</ele><time>2026-05-03T16:56:11.001Z</time></trkpt><trkpt lat="41.29614580968745" lon="-1.372635265154565"><ele>749.5714285714286</ele><time>2026-05-03T16:56:12.001Z</time></trkpt><trkpt lat="41.2960974778144" lon="-1.3725647846854852"><ele>750.2857142857143</ele><time>2026-05-03T16:56:13.001Z</time></trkpt><trkpt lat="41.296061253668356" lon="-1.3724783326718346"><ele>751.0</ele><time>2026-05-03T16:56:14.001Z</time></trkpt><trkpt lat="41.29602680622549" lon="-1.3723945061753664"><ele>751.0000000000001</ele><time>2026-05-03T16:56:15.001Z</time></trkpt><trkpt lat="41.295991807559986" lon="-1.3723080312320177"><ele>751.0</ele><time>2026-05-03T16:56:16.001Z</time></trkpt><trkpt lat="41.295957609309006" lon="-1.372223533826262"><ele>751.0</ele><time>2026-05-03T16:56:17.001Z</time></trkpt><trkpt lat="41.29592346691397" lon="-1.3721391749153755"><ele>751.0</ele><time>2026-05-03T16:56:18.001Z</time></trkpt><trkpt lat="41.29588705255259" lon="-1.372049202008162"><ele>751.0</ele><time>2026-05-03T16:56:19.001Z</time></trkpt><trkpt lat="41.29585121203336" lon="-1.3719610798470336"><ele>751.0000000000001</ele><time>2026-05-03T16:56:19.999Z</time></trkpt><trkpt lat="41.295815789444795" lon="-1.3718759700588294"><ele>751.0</ele><time>2026-05-03T16:56:20.999Z</time></trkpt><trkpt lat="41.295781099227135" lon="-1.371792619916922"><ele>751.1666666666667</ele><time>2026-05-03T16:56:21.999Z</time></trkpt><trkpt lat="41.29575933120053" lon="-1.3716960058816576"><ele>751.3333333333334</ele><time>2026-05-03T16:56:22.999Z</time></trkpt><trkpt lat="41.29571697926907" lon="-1.3716127640304763"><ele>751.5</ele><time>2026-05-03T16:56:23.999Z</time></trkpt><trkpt lat="41.295681840340905" lon="-1.37152777300879"><ele>751.6666666666666</ele><time>2026-05-03T16:56:24.999Z</time></trkpt><trkpt lat="41.29565302018065" lon="-1.3714357569374733"><ele>751.8333333333333</ele><time>2026-05-03T16:56:25.999Z</time></trkpt><trkpt lat="41.29562094877151" lon="-1.37134757083159"><ele>752.0</ele><time>2026-05-03T16:56:26.999Z</time></trkpt><trkpt lat="41.29560231238235" lon="-1.3712479383956064"><ele>752.0</ele><time>2026-05-03T16:56:27.999Z</time></trkpt><trkpt lat="41.29559213316783" lon="-1.3711431030838328"><ele>752.0</ele><time>2026-05-03T16:56:28.999Z</time></trkpt><trkpt lat="41.29559884017482" lon="-1.3710363656801516"><ele>752.0</ele><time>2026-05-03T16:56:29.999Z</time></trkpt><trkpt lat="41.29562494101091" lon="-1.370932467874349"><ele>752.0</ele><time>2026-05-03T16:56:30.999Z</time></trkpt><trkpt lat="41.29566665708797" lon="-1.3708268756687365"><ele>752.0</ele><time>2026-05-03T16:56:31.999Z</time></trkpt><trkpt lat="41.295693137897786" lon="-1.3707192487962638"><ele>752.0</ele><time>2026-05-03T16:56:32.999Z</time></trkpt><trkpt lat="41.29571281201844" lon="-1.3706043701205939"><ele>752.6666666666666</ele><time>2026-05-03T16:56:33.999Z</time></trkpt><trkpt lat="41.295703914993666" lon="-1.3704859295711165"><ele>753.3333333333333</ele><time>2026-05-03T16:56:34.999Z</time></trkpt><trkpt lat="41.29571525129545" lon="-1.370370764982501"><ele>754.0</ele><time>2026-05-03T16:56:35.999Z</time></trkpt><trkpt lat="41.29571077752959" lon="-1.3702513764963016"><ele>754.6666666666666</ele><time>2026-05-03T16:56:36.999Z</time></trkpt><trkpt lat="41.29570417901563" lon="-1.370132617181798"><ele>755.3333333333334</ele><time>2026-05-03T16:56:38Z</time></trkpt><trkpt lat="41.29570034513274" lon="-1.3700082474998634"><ele>756.0</ele><time>2026-05-03T16:56:39Z</time></trkpt><trkpt lat="41.295672366224196" lon="-1.3698901812080584"><ele>756.0</ele><time>2026-05-03T16:56:40Z</time></trkpt><trkpt lat="41.29566876739519" lon="-1.3697638051454304"><ele>756.0</ele><time>2026-05-03T16:56:41Z</time></trkpt><trkpt lat="41.29564270111366" lon="-1.3696426949287297"><ele>756.0</ele><time>2026-05-03T16:56:42Z</time></trkpt><trkpt lat="41.2956063907571" lon="-1.3695290926574026"><ele>756.0</ele><time>2026-05-03T16:56:43Z</time></trkpt><trkpt lat="41.295596704152366" lon="-1.3694063491462696"><ele>756.0</ele><time>2026-05-03T16:56:44Z</time></trkpt><trkpt lat="41.295571063079336" lon="-1.3692872666531541"><ele>759.4</ele><time>2026-05-03T16:56:45Z</time></trkpt><trkpt lat="41.2955469689751" lon="-1.3691647650816567"><ele>762.8</ele><time>2026-05-03T16:56:46Z</time></trkpt><trkpt lat="41.29552046209799" lon="-1.3690417053344415"><ele>766.1999999999999</ele><time>2026-05-03T16:56:47Z</time></trkpt><trkpt lat="41.295486857449966" lon="-1.3689199751666032"><ele>769.5999999999999</ele><time>2026-05-03T16:56:48Z</time></trkpt><trkpt lat="41.295463169829524" lon="-1.3687976402068351"><ele>773.0</ele><time>2026-05-03T16:56:49Z</time></trkpt><trkpt lat="41.295437087735436" lon="-1.3686735415168156"><ele>773.2</ele><time>2026-05-03T16:56:50Z</time></trkpt><trkpt lat="41.295406565191755" lon="-1.3685494963295695"><ele>773.4</ele><time>2026-05-03T16:56:51Z</time></trkpt><trkpt lat="41.29538655141204" lon="-1.368426872082081"><ele>773.6</ele><time>2026-05-03T16:56:52Z</time></trkpt><trkpt lat="41.2953585029441" lon="-1.3683022758123162"><ele>773.8000000000001</ele><time>2026-05-03T16:56:53Z</time></trkpt><trkpt lat="41.295346766544434" lon="-1.3681773790061915"><ele>774.0</ele><time>2026-05-03T16:56:54Z</time></trkpt><trkpt lat="41.29533885658507" lon="-1.3680525168808069"><ele>774.0</ele><time>2026-05-03T16:56:55Z</time></trkpt><trkpt lat="41.295343338791405" lon="-1.3679260028785392"><ele>774.0</ele><time>2026-05-03T16:56:56Z</time></trkpt><trkpt lat="41.295353698903156" lon="-1.3678007277527955"><ele>774.0</ele><time>2026-05-03T16:56:57Z</time></trkpt><trkpt lat="41.29538303220408" lon="-1.3676819422278896"><ele>774.0</ele><time>2026-05-03T16:56:58Z</time></trkpt><trkpt lat="41.29543914891716" lon="-1.3675754220401346"><ele>774.0</ele><time>2026-05-03T16:56:59Z</time></trkpt><trkpt lat="41.29551728204626" lon="-1.3674993014700874"><ele>773.3333333333334</ele><time>2026-05-03T16:57:00Z</time></trkpt><trkpt lat="41.295603432331745" lon="-1.3674825633428154"><ele>772.6666666666667</ele><time>2026-05-03T16:57:01Z</time></trkpt><trkpt lat="41.29568502089124" lon="-1.3675009980546027"><ele>772.0</ele><time>2026-05-03T16:57:02Z</time></trkpt><trkpt lat="41.295754827512965" lon="-1.3675512081537924"><ele>771.3333333333334</ele><time>2026-05-03T16:57:03Z</time></trkpt><trkpt lat="41.29581449858238" lon="-1.367616841524982"><ele>770.6666666666667</ele><time>2026-05-03T16:57:04Z</time></trkpt><trkpt lat="41.2958646567626" lon="-1.367690149142492"><ele>770.0</ele><time>2026-05-03T16:57:05Z</time></trkpt><trkpt lat="41.295917153957305" lon="-1.3677604282843636"><ele>770.0000000000001</ele><time>2026-05-03T16:57:06Z</time></trkpt><trkpt lat="41.295972532582326" lon="-1.3678272639951383"><ele>770.0</ele><time>2026-05-03T16:57:07Z</time></trkpt><trkpt lat="41.29603778392762" lon="-1.3678749070018654"><ele>770.0</ele><time>2026-05-03T16:57:08Z</time></trkpt><trkpt lat="41.29611411655246" lon="-1.3678844738411806"><ele>770.0</ele><time>2026-05-03T16:57:09Z</time></trkpt><trkpt lat="41.29619179453191" lon="-1.3678599350339955"><ele>770.0000000000001</ele><time>2026-05-03T16:57:10Z</time></trkpt><trkpt lat="41.29625741610534" lon="-1.3678001782504368"><ele>770.0</ele><time>2026-05-03T16:57:11Z</time></trkpt><trkpt lat="41.29628557145678" lon="-1.367697869980952"><ele>770.0</ele><time>2026-05-03T16:57:12Z</time></trkpt><trkpt lat="41.29633798571043" lon="-1.3676303514253167"><ele>770.0</ele><time>2026-05-03T16:57:13Z</time></trkpt><trkpt lat="41.2963752643735" lon="-1.367549234072936"><ele>770.0</ele><time>2026-05-03T16:57:14Z</time></trkpt><trkpt lat="41.29641615411531" lon="-1.3674662650199547"><ele>770.0</ele><time>2026-05-03T16:57:15Z</time></trkpt><trkpt lat="41.296461106169936" lon="-1.3673861155338471"><ele>770.0</ele><time>2026-05-03T16:57:16Z</time></trkpt><trkpt lat="41.2965027223143" lon="-1.3673070224617265"><ele>770.0</ele><time>2026-05-03T16:57:17Z</time></trkpt><trkpt lat="41.29654790021357" lon="-1.3672268016837419"><ele>770.0</ele><time>2026-05-03T16:57:18Z</time></trkpt><trkpt lat="41.29659393573447" lon="-1.3671449754707812"><ele>771.4285714285714</ele><time>2026-05-03T16:57:19Z</time></trkpt><trkpt lat="41.2966336138207" lon="-1.3670601609379054"><ele>772.8571428571429</ele><time>2026-05-03T16:57:20Z</time></trkpt><trkpt lat="41.296678900786695" lon="-1.3669775419072923"><ele>774.2857142857142</ele><time>2026-05-03T16:57:21Z</time></trkpt><trkpt lat="41.29672138450439" lon="-1.3668958039769121"><ele>775.7142857142858</ele><time>2026-05-03T16:57:22Z</time></trkpt><trkpt lat="41.29676337590107" lon="-1.3668152406701108"><ele>777.1428571428571</ele><time>2026-05-03T16:57:23Z</time></trkpt><trkpt lat="41.29680958118389" lon="-1.3667391388739152"><ele>778.5714285714286</ele><time>2026-05-03T16:57:24Z</time></trkpt><trkpt lat="41.29685308112928" lon="-1.3666629787747258"><ele>780.0</ele><time>2026-05-03T16:57:25Z</time></trkpt><trkpt lat="41.29689799157583" lon="-1.3665840450945532"><ele>780.0</ele><time>2026-05-03T16:57:26Z</time></trkpt><trkpt lat="41.29694175301729" lon="-1.3665041996610587"><ele>780.0</ele><time>2026-05-03T16:57:27Z</time></trkpt><trkpt lat="41.29698119557534" lon="-1.3664217524603306"><ele>780.0</ele><time>2026-05-03T16:57:28Z</time></trkpt><trkpt lat="41.29701821963007" lon="-1.3663382457764608"><ele>780.0</ele><time>2026-05-03T16:57:29Z</time></trkpt><trkpt lat="41.297056345324165" lon="-1.3662498754013013"><ele>780.0</ele><time>2026-05-03T16:57:30Z</time></trkpt><trkpt lat="41.29708558500857" lon="-1.366156933572875"><ele>780.0</ele><time>2026-05-03T16:57:31.001Z</time></trkpt><trkpt lat="41.297085934827024" lon="-1.3660575139806854"><ele>780.0</ele><time>2026-05-03T16:57:32.001Z</time></trkpt><trkpt lat="41.2970925009341" lon="-1.3659588073546893"><ele>781.3333333333334</ele><time>2026-05-03T16:57:33.001Z</time></trkpt><trkpt lat="41.29710805885535" lon="-1.3658583992427424"><ele>782.6666666666667</ele><time>2026-05-03T16:57:34.001Z</time></trkpt><trkpt lat="41.2970994166833" lon="-1.3657565644380818"><ele>784.0</ele><time>2026-05-03T16:57:35.001Z</time></trkpt><trkpt lat="41.29709010712893" lon="-1.36565519809173"><ele>785.3333333333334</ele><time>2026-05-03T16:57:36.001Z</time></trkpt><trkpt lat="41.29707708548581" lon="-1.3655508711314461"><ele>786.6666666666667</ele><time>2026-05-03T16:57:37.001Z</time></trkpt><trkpt lat="41.29705963697475" lon="-1.3654535634824858"><ele>788.0</ele><time>2026-05-03T16:57:38.001Z</time></trkpt><trkpt lat="41.29704716499875" lon="-1.3653541830998204"><ele>788.5000000000001</ele><time>2026-05-03T16:57:39.001Z</time></trkpt><trkpt lat="41.297060881111506" lon="-1.3652542220487212"><ele>789.0</ele><time>2026-05-03T16:57:40.001Z</time></trkpt><trkpt lat="41.29709847176214" lon="-1.3651613363471768"><ele>789.5</ele><time>2026-05-03T16:57:41.001Z</time></trkpt><trkpt lat="41.29715911861642" lon="-1.3650962665922421"><ele>790.0</ele><time>2026-05-03T16:57:42.001Z</time></trkpt><trkpt lat="41.29723905912994" lon="-1.3650767618813675"><ele>790.5000000000001</ele><time>2026-05-03T16:57:43.001Z</time></trkpt><trkpt lat="41.29732105549241" lon="-1.365096393819936"><ele>791.0</ele><time>2026-05-03T16:57:44.001Z</time></trkpt><trkpt lat="41.297387948560605" lon="-1.365159934635732"><ele>791.3333333333334</ele><time>2026-05-03T16:57:45.001Z</time></trkpt><trkpt lat="41.29744224106711" lon="-1.3652354039077539"><ele>791.6666666666667</ele><time>2026-05-03T16:57:46.001Z</time></trkpt><trkpt lat="41.297486757673774" lon="-1.365315657565891"><ele>792.0</ele><time>2026-05-03T16:57:47.001Z</time></trkpt><trkpt lat="41.29753902294572" lon="-1.3653914853286726"><ele>792.3333333333333</ele><time>2026-05-03T16:57:48.001Z</time></trkpt><trkpt lat="41.29759888770505" lon="-1.365457806754826"><ele>792.6666666666666</ele><time>2026-05-03T16:57:49.001Z</time></trkpt><trkpt lat="41.29766719958974" lon="-1.3655078035054393"><ele>793.0</ele><time>2026-05-03T16:57:50.001Z</time></trkpt><trkpt lat="41.297753552745355" lon="-1.3655216680349054"><ele>793.0</ele><time>2026-05-03T16:57:51.001Z</time></trkpt><trkpt lat="41.29782804705746" lon="-1.365447160524752"><ele>793.0</ele><time>2026-05-03T16:57:52.001Z</time></trkpt><trkpt lat="41.2979136822748" lon="-1.3654012976840162"><ele>793.0</ele><time>2026-05-03T16:57:53.001Z</time></trkpt><trkpt lat="41.29798473681846" lon="-1.3653306158639031"><ele>793.0</ele><time>2026-05-03T16:57:54.001Z</time></trkpt><trkpt lat="41.29806062881803" lon="-1.3652628967362652"><ele>793.0</ele><time>2026-05-03T16:57:55.001Z</time></trkpt><trkpt lat="41.29812335849759" lon="-1.3651649001535755"><ele>792.5999999999999</ele><time>2026-05-03T16:57:56.001Z</time></trkpt><trkpt lat="41.29816456845615" lon="-1.3650508745531034"><ele>792.1999999999999</ele><time>2026-05-03T16:57:57.001Z</time></trkpt><trkpt lat="41.29819162610269" lon="-1.3649201233479678"><ele>791.8</ele><time>2026-05-03T16:57:58.001Z</time></trkpt><trkpt lat="41.298219550684365" lon="-1.3647876780368269"><ele>791.4</ele><time>2026-05-03T16:57:59.001Z</time></trkpt><trkpt lat="41.29824767679233" lon="-1.3646533203462838"><ele>791.0</ele><time>2026-05-03T16:58:00.001Z</time></trkpt><trkpt lat="41.29827753688753" lon="-1.3645143783846647"><ele>791.0</ele><time>2026-05-03T16:58:01.001Z</time></trkpt><trkpt lat="41.298308301743084" lon="-1.364375655176544"><ele>791.0</ele><time>2026-05-03T16:58:02.001Z</time></trkpt><trkpt lat="41.29833921137102" lon="-1.3642396583020655"><ele>791.0</ele><time>2026-05-03T16:58:03.001Z</time></trkpt><trkpt lat="41.29837015487757" lon="-1.3641035122064435"><ele>791.0</ele><time>2026-05-03T16:58:04.001Z</time></trkpt><trkpt lat="41.298401019699405" lon="-1.3639677125986058"><ele>791.0</ele><time>2026-05-03T16:58:05.001Z</time></trkpt><trkpt lat="41.29843098721125" lon="-1.363829725637544"><ele>792.0</ele><time>2026-05-03T16:58:06.001Z</time></trkpt><trkpt lat="41.298461023261396" lon="-1.3636908388584172"><ele>793.0</ele><time>2026-05-03T16:58:07.001Z</time></trkpt><trkpt lat="41.29849175097365" lon="-1.363548753684188"><ele>794.0</ele><time>2026-05-03T16:58:08.001Z</time></trkpt><trkpt lat="41.29852141972232" lon="-1.3634115653597767"><ele>795.0</ele><time>2026-05-03T16:58:09.001Z</time></trkpt><trkpt lat="41.2985511520828" lon="-1.363274082719142"><ele>796.0</ele><time>2026-05-03T16:58:10.001Z</time></trkpt><trkpt lat="41.29858163946576" lon="-1.3631362062769476"><ele>797.4</ele><time>2026-05-03T16:58:11.001Z</time></trkpt><trkpt lat="41.29861350028688" lon="-1.362995585289338"><ele>798.8</ele><time>2026-05-03T16:58:12.001Z</time></trkpt><trkpt lat="41.29864552615288" lon="-1.362854235827346"><ele>800.1999999999999</ele><time>2026-05-03T16:58:13.001Z</time></trkpt><trkpt lat="41.2986909488549" lon="-1.3627190533262672"><ele>801.5999999999999</ele><time>2026-05-03T16:58:14.001Z</time></trkpt><trkpt lat="41.29871796003093" lon="-1.3625820324212254"><ele>803.0</ele><time>2026-05-03T16:58:15.001Z</time></trkpt><trkpt lat="41.298745763558344" lon="-1.3624427285793403"><ele>803.0</ele><time>2026-05-03T16:58:16.001Z</time></trkpt><trkpt lat="41.298776324056156" lon="-1.3623049604512534"><ele>803.0</ele><time>2026-05-03T16:58:17.001Z</time></trkpt><trkpt lat="41.29881117961088" lon="-1.3621665140028276"><ele>803.0</ele><time>2026-05-03T16:58:18.001Z</time></trkpt><trkpt lat="41.298839239038735" lon="-1.3620258427183431"><ele>803.0</ele><time>2026-05-03T16:58:19.001Z</time></trkpt><trkpt lat="41.29886817471356" lon="-1.3618893961980125"><ele>803.0</ele><time>2026-05-03T16:58:20.001Z</time></trkpt><trkpt lat="41.29890682654839" lon="-1.361756691053155"><ele>802.4</ele><time>2026-05-03T16:58:21.001Z</time></trkpt><trkpt lat="41.29895368076144" lon="-1.3616247053880517"><ele>801.8</ele><time>2026-05-03T16:58:22.001Z</time></trkpt><trkpt lat="41.29899807896027" lon="-1.3614940887266356"><ele>801.2</ele><time>2026-05-03T16:58:23.001Z</time></trkpt><trkpt lat="41.2990529310358" lon="-1.361372317352188"><ele>800.6</ele><time>2026-05-03T16:58:24.001Z</time></trkpt><trkpt lat="41.29910897132595" lon="-1.3612434031536929"><ele>800.0</ele><time>2026-05-03T16:58:25.001Z</time></trkpt><trkpt lat="41.29916071429822" lon="-1.3611206259004858"><ele>800.0</ele><time>2026-05-03T16:58:26Z</time></trkpt><trkpt lat="41.29921368841001" lon="-1.3609983748787782"><ele>800.0</ele><time>2026-05-03T16:58:27Z</time></trkpt><trkpt lat="41.29926835363913" lon="-1.3608759652013904"><ele>800.0</ele><time>2026-05-03T16:58:28Z</time></trkpt><trkpt lat="41.29932125524779" lon="-1.3607540876346864"><ele>800.0</ele><time>2026-05-03T16:58:29Z</time></trkpt><trkpt lat="41.29937831494703" lon="-1.3606314397783787"><ele>800.0</ele><time>2026-05-03T16:58:30Z</time></trkpt><trkpt lat="41.29943106846299" lon="-1.3605046858879906"><ele>799.4</ele><time>2026-05-03T16:58:31Z</time></trkpt><trkpt lat="41.29949787910978" lon="-1.360394106945708"><ele>798.8</ele><time>2026-05-03T16:58:32Z</time></trkpt><trkpt lat="41.2995566270911" lon="-1.3602766198378604"><ele>798.2</ele><time>2026-05-03T16:58:33Z</time></trkpt><trkpt lat="41.2996289503812" lon="-1.3601700945295436"><ele>797.6</ele><time>2026-05-03T16:58:34Z</time></trkpt><trkpt lat="41.29970806752659" lon="-1.3600775732177168"><ele>797.0</ele><time>2026-05-03T16:58:35Z</time></trkpt><trkpt lat="41.299787359315694" lon="-1.3599959971509223"><ele>797.0000000000001</ele><time>2026-05-03T16:58:36Z</time></trkpt><trkpt lat="41.299857634893115" lon="-1.359914378486115"><ele>797.0</ele><time>2026-05-03T16:58:37Z</time></trkpt><trkpt lat="41.29992042564293" lon="-1.3598294120352719"><ele>797.0</ele><time>2026-05-03T16:58:38Z</time></trkpt><trkpt lat="41.29998087034181" lon="-1.359752159749638"><ele>797.0</ele><time>2026-05-03T16:58:39Z</time></trkpt><trkpt lat="41.300044446026824" lon="-1.3596885692800276"><ele>797.0000000000001</ele><time>2026-05-03T16:58:40Z</time></trkpt><trkpt lat="41.300113941148155" lon="-1.3596498027461232"><ele>797.0</ele><time>2026-05-03T16:58:41Z</time></trkpt><trkpt lat="41.30018746470135" lon="-1.3596393014740673"><ele>797.0000000000001</ele><time>2026-05-03T16:58:42Z</time></trkpt><trkpt lat="41.30026279023261" lon="-1.3596814128350267"><ele>797.0</ele><time>2026-05-03T16:58:43Z</time></trkpt><trkpt lat="41.30032008621923" lon="-1.3597588725055387"><ele>797.0</ele><time>2026-05-03T16:58:44Z</time></trkpt><trkpt lat="41.30034887223866" lon="-1.3598722058991088"><ele>797.0</ele><time>2026-05-03T16:58:45Z</time></trkpt><trkpt lat="41.300334875054496" lon="-1.359986624667702"><ele>797.0000000000001</ele><time>2026-05-03T16:58:46Z</time></trkpt><trkpt lat="41.300284491558344" lon="-1.3600851384609396"><ele>797.0</ele><time>2026-05-03T16:58:47Z</time></trkpt><trkpt lat="41.300250465382824" lon="-1.3601871607299882"><ele>797.0000000000001</ele><time>2026-05-03T16:58:48Z</time></trkpt><trkpt lat="41.30021366039628" lon="-1.360278078687596"><ele>797.0</ele><time>2026-05-03T16:58:49Z</time></trkpt><trkpt lat="41.300235604394715" lon="-1.360382966450497"><ele>797.0</ele><time>2026-05-03T16:58:50Z</time></trkpt><trkpt lat="41.3002343393905" lon="-1.3604917403311763"><ele>797.0</ele><time>2026-05-03T16:58:51Z</time></trkpt><trkpt lat="41.30026007823729" lon="-1.360595613444063"><ele>797.0000000000001</ele><time>2026-05-03T16:58:52Z</time></trkpt><trkpt lat="41.3002832417859" lon="-1.3606994294525812"><ele>797.0</ele><time>2026-05-03T16:58:53Z</time></trkpt><trkpt lat="41.30030486686216" lon="-1.360805173936291"><ele>796.6666666666667</ele><time>2026-05-03T16:58:54Z</time></trkpt><trkpt lat="41.30032616898201" lon="-1.3609105634819112"><ele>796.3333333333334</ele><time>2026-05-03T16:58:55Z</time></trkpt><trkpt lat="41.30034915724397" lon="-1.3610168439376047"><ele>796.0</ele><time>2026-05-03T16:58:56Z</time></trkpt><trkpt lat="41.30037124816639" lon="-1.3611263840720282"><ele>795.6666666666667</ele><time>2026-05-03T16:58:57Z</time></trkpt><trkpt lat="41.30039689116032" lon="-1.3612310599741195"><ele>795.3333333333334</ele><time>2026-05-03T16:58:58Z</time></trkpt><trkpt lat="41.30041883627842" lon="-1.361339960862711"><ele>795.0</ele><time>2026-05-03T16:58:59Z</time></trkpt><trkpt lat="41.30044057022958" lon="-1.3614496958819697"><ele>794.3333333333334</ele><time>2026-05-03T16:59:00Z</time></trkpt><trkpt lat="41.300467245985885" lon="-1.361556669346287"><ele>793.6666666666667</ele><time>2026-05-03T16:59:01Z</time></trkpt><trkpt lat="41.30049075627438" lon="-1.3616693801563606"><ele>793.0</ele><time>2026-05-03T16:59:02Z</time></trkpt><trkpt lat="41.300512202927486" lon="-1.3617814752740862"><ele>792.3333333333334</ele><time>2026-05-03T16:59:03Z</time></trkpt><trkpt lat="41.30053407284278" lon="-1.3618948905246586"><ele>791.6666666666667</ele><time>2026-05-03T16:59:04Z</time></trkpt><trkpt lat="41.30055462821514" lon="-1.3620075760258"><ele>791.0</ele><time>2026-05-03T16:59:05Z</time></trkpt><trkpt lat="41.30056053229713" lon="-1.362121197584539"><ele>791.0000000000001</ele><time>2026-05-03T16:59:06Z</time></trkpt><trkpt lat="41.300530141631576" lon="-1.3622310245093259"><ele>791.0</ele><time>2026-05-03T16:59:07Z</time></trkpt><trkpt lat="41.30048478340565" lon="-1.3623380245158514"><ele>791.0</ele><time>2026-05-03T16:59:08Z</time></trkpt><trkpt lat="41.30046564122444" lon="-1.3624489504016772"><ele>791.0</ele><time>2026-05-03T16:59:09Z</time></trkpt><trkpt lat="41.30045306814611" lon="-1.3625599704287839"><ele>791.0000000000001</ele><time>2026-05-03T16:59:10Z</time></trkpt><trkpt lat="41.3004485633579" lon="-1.3626760487581182"><ele>791.0</ele><time>2026-05-03T16:59:11Z</time></trkpt><trkpt lat="41.30049956030347" lon="-1.3627759278333267"><ele>791.0000000000001</ele><time>2026-05-03T16:59:12Z</time></trkpt><trkpt lat="41.30053386520064" lon="-1.3628833812778294"><ele>791.0</ele><time>2026-05-03T16:59:13Z</time></trkpt><trkpt lat="41.300561219093154" lon="-1.3629912205180597"><ele>791.0</ele><time>2026-05-03T16:59:14Z</time></trkpt><trkpt lat="41.30059402465878" lon="-1.3630947816743124"><ele>791.0</ele><time>2026-05-03T16:59:15Z</time></trkpt><trkpt lat="41.300624681919224" lon="-1.3631961825739844"><ele>791.0000000000001</ele><time>2026-05-03T16:59:16Z</time></trkpt><trkpt lat="41.30065679147933" lon="-1.3633009950640336"><ele>791.0</ele><time>2026-05-03T16:59:17Z</time></trkpt><trkpt lat="41.30068973996817" lon="-1.363402221644673"><ele>794.8333333333334</ele><time>2026-05-03T16:59:18Z</time></trkpt><trkpt lat="41.30071974987818" lon="-1.363504862373299"><ele>798.6666666666667</ele><time>2026-05-03T16:59:19Z</time></trkpt><trkpt lat="41.30073975031727" lon="-1.3636052194343518"><ele>802.5</ele><time>2026-05-03T16:59:20Z</time></trkpt><trkpt lat="41.30076293950881" lon="-1.363703875633314"><ele>806.3333333333333</ele><time>2026-05-03T16:59:21Z</time></trkpt><trkpt lat="41.300786280498166" lon="-1.363804223944341"><ele>810.1666666666666</ele><time>2026-05-03T16:59:22Z</time></trkpt><trkpt lat="41.30080706844421" lon="-1.363905450748572"><ele>814.0</ele><time>2026-05-03T16:59:23Z</time></trkpt><trkpt lat="41.30082603523864" lon="-1.364009412514184"><ele>813.9999999999999</ele><time>2026-05-03T16:59:24Z</time></trkpt><trkpt lat="41.30084239007758" lon="-1.3641126849881622"><ele>814.0</ele><time>2026-05-03T16:59:25.001Z</time></trkpt><trkpt lat="41.30085504705298" lon="-1.3642151229887465"><ele>814.0</ele><time>2026-05-03T16:59:26.001Z</time></trkpt><trkpt lat="41.300871681807884" lon="-1.3643167465908688"><ele>814.0</ele><time>2026-05-03T16:59:27.001Z</time></trkpt><trkpt lat="41.300893762518974" lon="-1.3644140948809995"><ele>813.9999999999999</ele><time>2026-05-03T16:59:28.001Z</time></trkpt><trkpt lat="41.30091482213052" lon="-1.364515364838672"><ele>814.0</ele><time>2026-05-03T16:59:29.001Z</time></trkpt><trkpt lat="41.30093536502125" lon="-1.3646171217548517"><ele>813.6666666666666</ele><time>2026-05-03T16:59:30.001Z</time></trkpt><trkpt lat="41.30096511132826" lon="-1.3647143304709954"><ele>813.3333333333333</ele><time>2026-05-03T16:59:31.001Z</time></trkpt><trkpt lat="41.30099529288788" lon="-1.3648119208079872"><ele>813.0</ele><time>2026-05-03T16:59:32.001Z</time></trkpt><trkpt lat="41.301030223511844" lon="-1.3649040993229347"><ele>812.6666666666667</ele><time>2026-05-03T16:59:33.001Z</time></trkpt><trkpt lat="41.30106201112115" lon="-1.3649980655257754"><ele>812.3333333333334</ele><time>2026-05-03T16:59:34.001Z</time></trkpt><trkpt lat="41.30109314709516" lon="-1.3650910322997605"><ele>812.0</ele><time>2026-05-03T16:59:35.001Z</time></trkpt><trkpt lat="41.301126205547234" lon="-1.3651846284463118"><ele>812.0000000000001</ele><time>2026-05-03T16:59:36.001Z</time></trkpt><trkpt lat="41.301162979459605" lon="-1.3652779791711753"><ele>812.0</ele><time>2026-05-03T16:59:37.001Z</time></trkpt><trkpt lat="41.30119217915654" lon="-1.3653735023713038"><ele>812.0</ele><time>2026-05-03T16:59:38.001Z</time></trkpt><trkpt lat="41.30121683435553" lon="-1.3654694795103821"><ele>812.0</ele><time>2026-05-03T16:59:39.001Z</time></trkpt><trkpt lat="41.301249053530086" lon="-1.3655616686095662"><ele>812.0000000000001</ele><time>2026-05-03T16:59:40.001Z</time></trkpt><trkpt lat="41.30129455283521" lon="-1.365646813161759"><ele>812.0</ele><time>2026-05-03T16:59:41.001Z</time></trkpt><trkpt lat="41.301361833010155" lon="-1.365705372442214"><ele>814.0</ele><time>2026-05-03T16:59:42.001Z</time></trkpt><trkpt lat="41.3014434825186" lon="-1.3657129728438882"><ele>816.0</ele><time>2026-05-03T16:59:43.001Z</time></trkpt><trkpt lat="41.30152086685529" lon="-1.3656707611163277"><ele>818.0</ele><time>2026-05-03T16:59:44.001Z</time></trkpt><trkpt lat="41.301573149039484" lon="-1.3655963871076782"><ele>820.0</ele><time>2026-05-03T16:59:45.001Z</time></trkpt><trkpt lat="41.30157267169798" lon="-1.3654800976604806"><ele>822.0</ele><time>2026-05-03T16:59:46.001Z</time></trkpt><trkpt lat="41.30158284970586" lon="-1.365307380746855"><ele>823.0</ele><time>2026-05-03T16:59:48.001Z</time></trkpt><trkpt lat="41.301607805441606" lon="-1.3652229251579089"><ele>824.0</ele><time>2026-05-03T16:59:49.001Z</time></trkpt><trkpt lat="41.30161521059591" lon="-1.3651352860909203"><ele>825.0</ele><time>2026-05-03T16:59:50.001Z</time></trkpt><trkpt lat="41.30162405106859" lon="-1.3650497519076736"><ele>826.0</ele><time>2026-05-03T16:59:51.001Z</time></trkpt><trkpt lat="41.30163136962274" lon="-1.3649562896918663"><ele>827.0</ele><time>2026-05-03T16:59:52.001Z</time></trkpt><trkpt lat="41.30163949823451" lon="-1.364865748669144"><ele>828.0</ele><time>2026-05-03T16:59:53.001Z</time></trkpt><trkpt lat="41.30164987350969" lon="-1.3647770062554134"><ele>829.0</ele><time>2026-05-03T16:59:54.001Z</time></trkpt><trkpt lat="41.301664035746235" lon="-1.3646857519281366"><ele>829.4285714285714</ele><time>2026-05-03T16:59:55.001Z</time></trkpt><trkpt lat="41.30167378665631" lon="-1.3645961450565425"><ele>829.8571428571429</ele><time>2026-05-03T16:59:56.001Z</time></trkpt><trkpt lat="41.301682724331165" lon="-1.3645023660578632"><ele>830.2857142857142</ele><time>2026-05-03T16:59:57.001Z</time></trkpt><trkpt lat="41.30169461875338" lon="-1.3644108835626783"><ele>830.7142857142858</ele><time>2026-05-03T16:59:58.001Z</time></trkpt><trkpt lat="41.301704655158225" lon="-1.3643192082043112"><ele>831.1428571428572</ele><time>2026-05-03T16:59:59.001Z</time></trkpt><trkpt lat="41.301717818004626" lon="-1.3642260399280326"><ele>831.5714285714286</ele><time>2026-05-03T17:00:00.001Z</time></trkpt><trkpt lat="41.30172794389798" lon="-1.364131109372939"><ele>832.0</ele><time>2026-05-03T17:00:01.001Z</time></trkpt><trkpt lat="41.301734418849" lon="-1.3640331206969003"><ele>832.0</ele><time>2026-05-03T17:00:02.001Z</time></trkpt><trkpt lat="41.30174759698694" lon="-1.3639392403494934"><ele>832.0</ele><time>2026-05-03T17:00:03.001Z</time></trkpt><trkpt lat="41.30175689263008" lon="-1.363844279118592"><ele>832.0</ele><time>2026-05-03T17:00:04.001Z</time></trkpt><trkpt lat="41.30176828341895" lon="-1.363751062768099"><ele>832.0</ele><time>2026-05-03T17:00:05.001Z</time></trkpt><trkpt lat="41.30177681798007" lon="-1.363657280964265"><ele>832.0</ele><time>2026-05-03T17:00:06.001Z</time></trkpt><trkpt lat="41.30178878941215" lon="-1.3635575915179712"><ele>832.0</ele><time>2026-05-03T17:00:07.001Z</time></trkpt><trkpt lat="41.30180215485551" lon="-1.3634633493864161"><ele>832.0</ele><time>2026-05-03T17:00:08.001Z</time></trkpt><trkpt lat="41.3018153585442" lon="-1.3633685340870532"><ele>832.4285714285714</ele><time>2026-05-03T17:00:09.001Z</time></trkpt><trkpt lat="41.30182553957227" lon="-1.3632728722184229"><ele>832.8571428571429</ele><time>2026-05-03T17:00:10.001Z</time></trkpt><trkpt lat="41.30183960270571" lon="-1.3631767193632367"><ele>833.2857142857143</ele><time>2026-05-03T17:00:11.001Z</time></trkpt><trkpt lat="41.30184949379759" lon="-1.3630773011445247"><ele>833.7142857142858</ele><time>2026-05-03T17:00:12.001Z</time></trkpt><trkpt lat="41.30186176173833" lon="-1.3629816839818405"><ele>834.1428571428571</ele><time>2026-05-03T17:00:13.001Z</time></trkpt><trkpt lat="41.301866623637586" lon="-1.362884980768869"><ele>834.5714285714287</ele><time>2026-05-03T17:00:14.001Z</time></trkpt><trkpt lat="41.30187994457503" lon="-1.3627898914334162"><ele>835.0</ele><time>2026-05-03T17:00:15.001Z</time></trkpt><trkpt lat="41.30189046151139" lon="-1.3626944466185305"><ele>835.2857142857143</ele><time>2026-05-03T17:00:16.001Z</time></trkpt><trkpt lat="41.30190113874767" lon="-1.362600247566724"><ele>835.5714285714286</ele><time>2026-05-03T17:00:17.001Z</time></trkpt><trkpt lat="41.30191517293068" lon="-1.3625067312954733"><ele>835.8571428571429</ele><time>2026-05-03T17:00:18.001Z</time></trkpt><trkpt lat="41.301923215641786" lon="-1.3624081895446942"><ele>836.1428571428571</ele><time>2026-05-03T17:00:19.001Z</time></trkpt><trkpt lat="41.30193632987881" lon="-1.3623135456909001"><ele>836.4285714285714</ele><time>2026-05-03T17:00:20.001Z</time></trkpt><trkpt lat="41.301947976117674" lon="-1.3622179684588998"><ele>836.7142857142858</ele><time>2026-05-03T17:00:21.001Z</time></trkpt><trkpt lat="41.30196281145361" lon="-1.3621246103113231"><ele>837.0</ele><time>2026-05-03T17:00:22.001Z</time></trkpt><trkpt lat="41.301985776592325" lon="-1.3620284126053572"><ele>837.1666666666666</ele><time>2026-05-03T17:00:23.001Z</time></trkpt><trkpt lat="41.30201651483656" lon="-1.3619410065553221"><ele>837.3333333333333</ele><time>2026-05-03T17:00:24.001Z</time></trkpt><trkpt lat="41.302046066421894" lon="-1.3618505619840142"><ele>837.5</ele><time>2026-05-03T17:00:25.001Z</time></trkpt><trkpt lat="41.302069483019935" lon="-1.36175209274494"><ele>837.6666666666666</ele><time>2026-05-03T17:00:26.001Z</time></trkpt><trkpt lat="41.30209671231893" lon="-1.3616583013879038"><ele>837.8333333333333</ele><time>2026-05-03T17:00:27.001Z</time></trkpt><trkpt lat="41.30212480482894" lon="-1.3615656513433083"><ele>838.0</ele><time>2026-05-03T17:00:28.001Z</time></trkpt><trkpt lat="41.302156884229" lon="-1.3614711323476156"><ele>837.9999999999999</ele><time>2026-05-03T17:00:29.001Z</time></trkpt><trkpt lat="41.30218870385744" lon="-1.3613851992078485"><ele>838.0</ele><time>2026-05-03T17:00:30.001Z</time></trkpt><trkpt lat="41.30222233379001" lon="-1.3612983823146438"><ele>838.0</ele><time>2026-05-03T17:00:31.001Z</time></trkpt><trkpt lat="41.30225857787141" lon="-1.361214724583753"><ele>838.0</ele><time>2026-05-03T17:00:32Z</time></trkpt><trkpt lat="41.302298559116714" lon="-1.361131191968107"><ele>838.0</ele><time>2026-05-03T17:00:33Z</time></trkpt><trkpt lat="41.3023467708704" lon="-1.3610520446199557"><ele>837.9999999999999</ele><time>2026-05-03T17:00:34Z</time></trkpt><trkpt lat="41.30240123505072" lon="-1.3609804485740393"><ele>838.0</ele><time>2026-05-03T17:00:35Z</time></trkpt><trkpt lat="41.302457903628046" lon="-1.3609156509328737"><ele>839.8571428571428</ele><time>2026-05-03T17:00:36Z</time></trkpt><trkpt lat="41.30251641957683" lon="-1.3608522205824092"><ele>841.7142857142857</ele><time>2026-05-03T17:00:37Z</time></trkpt><trkpt lat="41.30257476240046" lon="-1.360791244285745"><ele>843.5714285714286</ele><time>2026-05-03T17:00:38Z</time></trkpt><trkpt lat="41.30263530307006" lon="-1.36073373086502"><ele>845.4285714285713</ele><time>2026-05-03T17:00:39Z</time></trkpt><trkpt lat="41.30269334635971" lon="-1.3606714574269414"><ele>847.2857142857143</ele><time>2026-05-03T17:00:40Z</time></trkpt><trkpt lat="41.302748539052295" lon="-1.3606095813298988"><ele>849.1428571428571</ele><time>2026-05-03T17:00:41Z</time></trkpt><trkpt lat="41.30280419804299" lon="-1.3605440273721559"><ele>851.0</ele><time>2026-05-03T17:00:42Z</time></trkpt><trkpt lat="41.3028598785636" lon="-1.3604732020586183"><ele>851.8333333333334</ele><time>2026-05-03T17:00:43Z</time></trkpt><trkpt lat="41.30291314917562" lon="-1.3604020579760119"><ele>852.6666666666667</ele><time>2026-05-03T17:00:44Z</time></trkpt><trkpt lat="41.30295680404673" lon="-1.3603148370380014"><ele>853.5</ele><time>2026-05-03T17:00:45Z</time></trkpt><trkpt lat="41.30295710400087" lon="-1.3602122621987354"><ele>854.3333333333333</ele><time>2026-05-03T17:00:46Z</time></trkpt><trkpt lat="41.302970040831674" lon="-1.3601150856679798"><ele>855.1666666666666</ele><time>2026-05-03T17:00:47Z</time></trkpt><trkpt lat="41.30297695254899" lon="-1.3600158226327572"><ele>856.0</ele><time>2026-05-03T17:00:48Z</time></trkpt><trkpt lat="41.30298495173612" lon="-1.3599153676869138"><ele>855.9999999999999</ele><time>2026-05-03T17:00:49Z</time></trkpt><trkpt lat="41.303007223022604" lon="-1.3598168508968358"><ele>856.0</ele><time>2026-05-03T17:00:50Z</time></trkpt><trkpt lat="41.30300838746929" lon="-1.3597121997219612"><ele>856.0</ele><time>2026-05-03T17:00:51Z</time></trkpt><trkpt lat="41.30302565136793" lon="-1.3596114004898863"><ele>856.0</ele><time>2026-05-03T17:00:52Z</time></trkpt><trkpt lat="41.30304044238957" lon="-1.3595081048372928"><ele>855.9999999999999</ele><time>2026-05-03T17:00:53Z</time></trkpt><trkpt lat="41.30304482924634" lon="-1.3594038607279557"><ele>856.0</ele><time>2026-05-03T17:00:54Z</time></trkpt><trkpt lat="41.30306909942871" lon="-1.3593035109832499"><ele>856.1666666666666</ele><time>2026-05-03T17:00:55Z</time></trkpt><trkpt lat="41.30309412106922" lon="-1.3592077081235687"><ele>856.3333333333333</ele><time>2026-05-03T17:00:56Z</time></trkpt><trkpt lat="41.30312427356557" lon="-1.3591093488251729"><ele>856.5</ele><time>2026-05-03T17:00:57Z</time></trkpt><trkpt lat="41.303163746411144" lon="-1.359021341722452"><ele>856.6666666666667</ele><time>2026-05-03T17:00:58Z</time></trkpt><trkpt lat="41.30320642893444" lon="-1.3589363766873457"><ele>856.8333333333334</ele><time>2026-05-03T17:00:59Z</time></trkpt><trkpt lat="41.30325605413371" lon="-1.358856883940206"><ele>857.0</ele><time>2026-05-03T17:01:00Z</time></trkpt><trkpt lat="41.303306894004834" lon="-1.3587795410888561"><ele>857.6666666666667</ele><time>2026-05-03T17:01:01Z</time></trkpt><trkpt lat="41.30335877310751" lon="-1.3587078754736894"><ele>858.3333333333334</ele><time>2026-05-03T17:01:02Z</time></trkpt><trkpt lat="41.30340849984409" lon="-1.3586311642128972"><ele>859.0</ele><time>2026-05-03T17:01:03Z</time></trkpt><trkpt lat="41.30346132238949" lon="-1.358552432630893"><ele>859.6666666666667</ele><time>2026-05-03T17:01:04Z</time></trkpt><trkpt lat="41.30351022459929" lon="-1.3584753695362484"><ele>860.3333333333334</ele><time>2026-05-03T17:01:05Z</time></trkpt><trkpt lat="41.30356069478377" lon="-1.3584009434626494"><ele>861.0</ele><time>2026-05-03T17:01:06Z</time></trkpt><trkpt lat="41.30360865523382" lon="-1.3583283125777812"><ele>861.0</ele><time>2026-05-03T17:01:07Z</time></trkpt><trkpt lat="41.30366660301678" lon="-1.3582706358004608"><ele>861.0</ele><time>2026-05-03T17:01:08Z</time></trkpt><trkpt lat="41.30373774317356" lon="-1.3582432602695353"><ele>861.0</ele><time>2026-05-03T17:01:09Z</time></trkpt><trkpt lat="41.3038160286207" lon="-1.3582636107589072"><ele>861.0</ele><time>2026-05-03T17:01:10Z</time></trkpt><trkpt lat="41.303883075929384" lon="-1.3583194669562053"><ele>861.0</ele><time>2026-05-03T17:01:11Z</time></trkpt><trkpt lat="41.30392506055938" lon="-1.3583867813812882"><ele>861.0</ele><time>2026-05-03T17:01:12Z</time></trkpt><trkpt lat="41.30396020924345" lon="-1.3584739444181808"><ele>861.0</ele><time>2026-05-03T17:01:14Z</time></trkpt><trkpt lat="41.304014827787775" lon="-1.358579145647129"><ele>861.8</ele><time>2026-05-03T17:03:07.001Z</time></trkpt><trkpt lat="41.304072717837826" lon="-1.3586805596382734"><ele>862.5999999999999</ele><time>2026-05-03T17:03:09.001Z</time></trkpt><trkpt lat="41.30415217914778" lon="-1.358784344811722"><ele>863.4</ele><time>2026-05-03T17:03:11.001Z</time></trkpt><trkpt lat="41.30425003041259" lon="-1.3588899054297587"><ele>864.2</ele><time>2026-05-03T17:03:13.001Z</time></trkpt><trkpt lat="41.30430405987165" lon="-1.3589411622266552"><ele>865.0</ele><time>2026-05-03T17:03:14.001Z</time></trkpt><trkpt lat="41.3043647752687" lon="-1.358989464456649"><ele>864.9999999999999</ele><time>2026-05-03T17:03:15.001Z</time></trkpt><trkpt lat="41.30442978759599" lon="-1.3590345284108425"><ele>865.0</ele><time>2026-05-03T17:03:16.001Z</time></trkpt><trkpt lat="41.30449871293581" lon="-1.359086446508841"><ele>865.0</ele><time>2026-05-03T17:03:17.001Z</time></trkpt><trkpt lat="41.304569818130325" lon="-1.3591365939860525"><ele>865.0</ele><time>2026-05-03T17:03:18.001Z</time></trkpt><trkpt lat="41.3046507677894" lon="-1.3591677880932636"><ele>864.9999999999999</ele><time>2026-05-03T17:03:19.001Z</time></trkpt><trkpt lat="41.304735567035735" lon="-1.3591230270119838"><ele>865.0</ele><time>2026-05-03T17:03:20.001Z</time></trkpt><trkpt lat="41.304810931571446" lon="-1.3590743234055718"><ele>865.6666666666666</ele><time>2026-05-03T17:03:21.001Z</time></trkpt><trkpt lat="41.304867020041684" lon="-1.3589953350946815"><ele>866.3333333333333</ele><time>2026-05-03T17:03:22.001Z</time></trkpt><trkpt lat="41.304928177288716" lon="-1.3589225914098053"><ele>867.0</ele><time>2026-05-03T17:03:23.001Z</time></trkpt><trkpt lat="41.30499633489518" lon="-1.3588569136256043"><ele>867.6666666666667</ele><time>2026-05-03T17:03:24.001Z</time></trkpt><trkpt lat="41.30505179492331" lon="-1.3587791335703472"><ele>868.3333333333334</ele><time>2026-05-03T17:03:25.001Z</time></trkpt><trkpt lat="41.30510858558861" lon="-1.3586982416186923"><ele>869.0</ele><time>2026-05-03T17:03:26.001Z</time></trkpt><trkpt lat="41.30516632269858" lon="-1.3586168966965906"><ele>871.6666666666667</ele><time>2026-05-03T17:03:27.001Z</time></trkpt><trkpt lat="41.30522419606172" lon="-1.3585356969011602"><ele>874.3333333333334</ele><time>2026-05-03T17:03:28.001Z</time></trkpt><trkpt lat="41.30528531762019" lon="-1.358458519753372"><ele>877.0</ele><time>2026-05-03T17:03:29.001Z</time></trkpt><trkpt lat="41.305341804797735" lon="-1.3583785121271605"><ele>879.6666666666667</ele><time>2026-05-03T17:03:30.001Z</time></trkpt><trkpt lat="41.3053925779941" lon="-1.3582881632713901"><ele>882.3333333333334</ele><time>2026-05-03T17:03:31.001Z</time></trkpt><trkpt lat="41.30543135545879" lon="-1.3581875220051607"><ele>885.0</ele><time>2026-05-03T17:03:32.001Z</time></trkpt><trkpt lat="41.30544031720974" lon="-1.358073000496906"><ele>886.1666666666666</ele><time>2026-05-03T17:03:33.001Z</time></trkpt><trkpt lat="41.30546599140996" lon="-1.3579689123901717"><ele>887.3333333333333</ele><time>2026-05-03T17:03:34.001Z</time></trkpt><trkpt lat="41.3054936571043" lon="-1.3578604878378224"><ele>888.5</ele><time>2026-05-03T17:03:35.001Z</time></trkpt><trkpt lat="41.3055203070985" lon="-1.3577528730819484"><ele>889.6666666666666</ele><time>2026-05-03T17:03:36.001Z</time></trkpt><trkpt lat="41.305547036273175" lon="-1.3576430805827753"><ele>890.8333333333333</ele><time>2026-05-03T17:03:37.001Z</time></trkpt><trkpt lat="41.30557217075716" lon="-1.3575398386069213"><ele>892.0</ele><time>2026-05-03T17:03:38.001Z</time></trkpt><trkpt lat="41.30561438692068" lon="-1.3574373837728844"><ele>890.3333333333333</ele><time>2026-05-03T17:03:39.001Z</time></trkpt><trkpt lat="41.305637923205964" lon="-1.3573295050414713"><ele>888.6666666666666</ele><time>2026-05-03T17:03:40.001Z</time></trkpt><trkpt lat="41.30566560604137" lon="-1.3572250934073016"><ele>887.0</ele><time>2026-05-03T17:03:41.001Z</time></trkpt><trkpt lat="41.30569350757224" lon="-1.3571210051884481"><ele>885.3333333333333</ele><time>2026-05-03T17:03:42.001Z</time></trkpt><trkpt lat="41.3057201531724" lon="-1.3570158657119598"><ele>883.6666666666666</ele><time>2026-05-03T17:03:43.001Z</time></trkpt><trkpt lat="41.30574226679331" lon="-1.3569111344615956"><ele>882.0</ele><time>2026-05-03T17:03:44.001Z</time></trkpt><trkpt lat="41.30576383190112" lon="-1.3568066638532557"><ele>882.0</ele><time>2026-05-03T17:03:45.001Z</time></trkpt><trkpt lat="41.30578538017443" lon="-1.35670017691086"><ele>882.0</ele><time>2026-05-03T17:03:46.001Z</time></trkpt><trkpt lat="41.30580871051762" lon="-1.3565972150071774"><ele>882.0</ele><time>2026-05-03T17:03:47.001Z</time></trkpt><trkpt lat="41.305828916242916" lon="-1.3564949510745379"><ele>882.0</ele><time>2026-05-03T17:03:48.001Z</time></trkpt><trkpt lat="41.305842842239535" lon="-1.356386897864421"><ele>882.0</ele><time>2026-05-03T17:03:49.001Z</time></trkpt><trkpt lat="41.305863920214414" lon="-1.3562798087226766"><ele>882.0</ele><time>2026-05-03T17:03:50.001Z</time></trkpt><trkpt lat="41.305885471565205" lon="-1.3561785448754067"><ele>884.1666666666666</ele><time>2026-05-03T17:03:51.001Z</time></trkpt><trkpt lat="41.30590026698201" lon="-1.3560682304132972"><ele>886.3333333333333</ele><time>2026-05-03T17:03:52.001Z</time></trkpt><trkpt lat="41.305922868022186" lon="-1.355961689268673"><ele>888.5</ele><time>2026-05-03T17:03:53.001Z</time></trkpt><trkpt lat="41.3059469112243" lon="-1.3558559196734916"><ele>890.6666666666666</ele><time>2026-05-03T17:03:54.001Z</time></trkpt><trkpt lat="41.30596201048426" lon="-1.3557499935260338"><ele>892.8333333333333</ele><time>2026-05-03T17:03:55.001Z</time></trkpt><trkpt lat="41.30599273881353" lon="-1.3556496421952224"><ele>895.0</ele><time>2026-05-03T17:03:56.001Z</time></trkpt><trkpt lat="41.306002435613316" lon="-1.3555492364320878"><ele>895.8333333333333</ele><time>2026-05-03T17:03:57.001Z</time></trkpt><trkpt lat="41.306029168064775" lon="-1.3554493585679008"><ele>896.6666666666666</ele><time>2026-05-03T17:03:58.001Z</time></trkpt><trkpt lat="41.30606769137905" lon="-1.355355799955613"><ele>897.5</ele><time>2026-05-03T17:03:59.001Z</time></trkpt><trkpt lat="41.306106075783774" lon="-1.355266086061786"><ele>898.3333333333333</ele><time>2026-05-03T17:04:00.001Z</time></trkpt><trkpt lat="41.30614934051408" lon="-1.355178197447776"><ele>899.1666666666666</ele><time>2026-05-03T17:04:01.001Z</time></trkpt><trkpt lat="41.306198970059405" lon="-1.3550905110604476"><ele>900.0</ele><time>2026-05-03T17:04:02.001Z</time></trkpt><trkpt lat="41.306253288315936" lon="-1.355007103654661"><ele>900.0</ele><time>2026-05-03T17:04:03.001Z</time></trkpt><trkpt lat="41.3063101205989" lon="-1.3549223707248412"><ele>900.0</ele><time>2026-05-03T17:04:04.001Z</time></trkpt><trkpt lat="41.306363287431026" lon="-1.354840615316589"><ele>900.0</ele><time>2026-05-03T17:04:05.001Z</time></trkpt><trkpt lat="41.30642063804931" lon="-1.3547588607536776"><ele>900.0</ele><time>2026-05-03T17:04:06.001Z</time></trkpt><trkpt lat="41.30647546629659" lon="-1.3546810773133142"><ele>900.0</ele><time>2026-05-03T17:04:07.001Z</time></trkpt><trkpt lat="41.30653319605631" lon="-1.3546083468078287"><ele>900.0</ele><time>2026-05-03T17:04:08.001Z</time></trkpt><trkpt lat="41.30659455105788" lon="-1.3545420383931042"><ele>901.6666666666666</ele><time>2026-05-03T17:04:09.001Z</time></trkpt><trkpt lat="41.30666475169982" lon="-1.3544898557208764"><ele>903.3333333333333</ele><time>2026-05-03T17:04:10.001Z</time></trkpt><trkpt lat="41.30673712529257" lon="-1.354451239603784"><ele>905.0</ele><time>2026-05-03T17:04:11.001Z</time></trkpt><trkpt lat="41.30681460476276" lon="-1.3544256908068724"><ele>906.6666666666666</ele><time>2026-05-03T17:04:12.001Z</time></trkpt><trkpt lat="41.30688955092211" lon="-1.354408627547992"><ele>908.3333333333333</ele><time>2026-05-03T17:04:13.001Z</time></trkpt><trkpt lat="41.30696572634996" lon="-1.3543902675634973"><ele>910.0</ele><time>2026-05-03T17:04:14.001Z</time></trkpt><trkpt lat="41.30703744237128" lon="-1.3543639456363736"><ele>909.9999999999999</ele><time>2026-05-03T17:04:15.001Z</time></trkpt><trkpt lat="41.30710807719117" lon="-1.3543349100028763"><ele>910.0</ele><time>2026-05-03T17:04:16.001Z</time></trkpt><trkpt lat="41.30718265781911" lon="-1.3543018787039371"><ele>910.0</ele><time>2026-05-03T17:04:17.001Z</time></trkpt><trkpt lat="41.307254915986235" lon="-1.3542629937921171"><ele>910.0</ele><time>2026-05-03T17:04:18.001Z</time></trkpt><trkpt lat="41.307325419964016" lon="-1.3542091886217482"><ele>909.9999999999999</ele><time>2026-05-03T17:04:19.001Z</time></trkpt><trkpt lat="41.307364393730765" lon="-1.3541127943172513"><ele>910.0</ele><time>2026-05-03T17:04:20.001Z</time></trkpt><trkpt lat="41.30739237383332" lon="-1.3540132594417764"><ele>909.8333333333333</ele><time>2026-05-03T17:04:21.001Z</time></trkpt><trkpt lat="41.30740138221296" lon="-1.3539119022335082"><ele>909.6666666666666</ele><time>2026-05-03T17:04:22.001Z</time></trkpt><trkpt lat="41.307418306742626" lon="-1.3538065170221558"><ele>909.5</ele><time>2026-05-03T17:04:23.001Z</time></trkpt><trkpt lat="41.307434251139185" lon="-1.3537058535356485"><ele>909.3333333333333</ele><time>2026-05-03T17:04:24.001Z</time></trkpt><trkpt lat="41.307462550250605" lon="-1.3536056750504686"><ele>909.1666666666666</ele><time>2026-05-03T17:04:25.001Z</time></trkpt><trkpt lat="41.307473144166124" lon="-1.3535004599862386"><ele>909.0</ele><time>2026-05-03T17:04:26.001Z</time></trkpt><trkpt lat="41.30748848094889" lon="-1.35339937737238"><ele>909.0</ele><time>2026-05-03T17:04:27.002Z</time></trkpt><trkpt lat="41.30750333903306" lon="-1.3532915881893977"><ele>909.0</ele><time>2026-05-03T17:04:28.002Z</time></trkpt><trkpt lat="41.30751643234246" lon="-1.3531852498978991"><ele>909.0</ele><time>2026-05-03T17:04:29.002Z</time></trkpt><trkpt lat="41.307534601886225" lon="-1.3530835286073706"><ele>909.0</ele><time>2026-05-03T17:04:30.002Z</time></trkpt><trkpt lat="41.307549891799695" lon="-1.352972893771639"><ele>909.0</ele><time>2026-05-03T17:04:31.002Z</time></trkpt><trkpt lat="41.307570120442534" lon="-1.3528709198571107"><ele>909.0</ele><time>2026-05-03T17:04:32.002Z</time></trkpt><trkpt lat="41.30758867044744" lon="-1.3527674223934143"><ele>910.5</ele><time>2026-05-03T17:04:33.002Z</time></trkpt><trkpt lat="41.3076108080031" lon="-1.3526645057720361"><ele>912.0</ele><time>2026-05-03T17:04:34.002Z</time></trkpt><trkpt lat="41.30762886356396" lon="-1.3525623982467263"><ele>913.5</ele><time>2026-05-03T17:04:35.002Z</time></trkpt><trkpt lat="41.30765283290961" lon="-1.352458860089305"><ele>915.0</ele><time>2026-05-03T17:04:36.002Z</time></trkpt><trkpt lat="41.307675997231456" lon="-1.3523551552203714"><ele>916.5</ele><time>2026-05-03T17:04:37.002Z</time></trkpt><trkpt lat="41.30769945274412" lon="-1.3522549606151053"><ele>918.0</ele><time>2026-05-03T17:04:38.002Z</time></trkpt><trkpt lat="41.30772142458258" lon="-1.3521568596866422"><ele>919.5</ele><time>2026-05-03T17:04:39.002Z</time></trkpt><trkpt lat="41.307742478936696" lon="-1.3520574844179691"><ele>921.0</ele><time>2026-05-03T17:04:40.002Z</time></trkpt><trkpt lat="41.30776367505527" lon="-1.3519556970210989"><ele>922.5</ele><time>2026-05-03T17:04:41.002Z</time></trkpt><trkpt lat="41.307786769900254" lon="-1.3518579474994812"><ele>924.0</ele><time>2026-05-03T17:04:42.002Z</time></trkpt><trkpt lat="41.307810791961856" lon="-1.3517631551177756"><ele>925.5</ele><time>2026-05-03T17:04:43.002Z</time></trkpt><trkpt lat="41.3078580903587" lon="-1.3516815461028757"><ele>927.0</ele><time>2026-05-03T17:04:44Z</time></trkpt><trkpt lat="41.307914892817365" lon="-1.3516103892132174"><ele>927.0</ele><time>2026-05-03T17:04:45Z</time></trkpt><trkpt lat="41.307983287936615" lon="-1.3515521528543348"><ele>927.0</ele><time>2026-05-03T17:04:46Z</time></trkpt><trkpt lat="41.30805799054066" lon="-1.3515055730896646"><ele>927.0</ele><time>2026-05-03T17:04:47Z</time></trkpt><trkpt lat="41.308132381500826" lon="-1.3514638377904427"><ele>927.0</ele><time>2026-05-03T17:04:48Z</time></trkpt><trkpt lat="41.30820202853843" lon="-1.3514142099138158"><ele>927.0</ele><time>2026-05-03T17:04:49Z</time></trkpt><trkpt lat="41.30826858920768" lon="-1.35134732565215"><ele>927.0</ele><time>2026-05-03T17:04:50Z</time></trkpt><trkpt lat="41.308325897310944" lon="-1.3512721507530998"><ele>926.3333333333334</ele><time>2026-05-03T17:04:51Z</time></trkpt><trkpt lat="41.30835318005583" lon="-1.351172359801647"><ele>925.6666666666667</ele><time>2026-05-03T17:04:52Z</time></trkpt><trkpt lat="41.30837665888426" lon="-1.3510754363321986"><ele>925.0</ele><time>2026-05-03T17:04:53Z</time></trkpt><trkpt lat="41.30839274769861" lon="-1.350977873693738"><ele>924.3333333333334</ele><time>2026-05-03T17:04:54Z</time></trkpt><trkpt lat="41.30840740409478" lon="-1.3508751289110672"><ele>923.6666666666667</ele><time>2026-05-03T17:04:55Z</time></trkpt><trkpt lat="41.30842143160163" lon="-1.3507703663544235"><ele>923.0</ele><time>2026-05-03T17:04:56Z</time></trkpt><trkpt lat="41.30844361151214" lon="-1.350665313645052"><ele>923.0000000000001</ele><time>2026-05-03T17:04:57Z</time></trkpt><trkpt lat="41.30845870982364" lon="-1.3505633747601165"><ele>923.0</ele><time>2026-05-03T17:04:58Z</time></trkpt><trkpt lat="41.30846902540592" lon="-1.3504564396703875"><ele>923.0</ele><time>2026-05-03T17:04:59Z</time></trkpt><trkpt lat="41.30848220288066" lon="-1.3503507285216265"><ele>923.0</ele><time>2026-05-03T17:05:00Z</time></trkpt><trkpt lat="41.308493412068856" lon="-1.3502422747358696"><ele>923.0000000000001</ele><time>2026-05-03T17:05:01Z</time></trkpt><trkpt lat="41.30850564538078" lon="-1.3501330863564658"><ele>923.0</ele><time>2026-05-03T17:05:02Z</time></trkpt><trkpt lat="41.30852473715988" lon="-1.3500290180950356"><ele>924.6666666666667</ele><time>2026-05-03T17:05:03Z</time></trkpt><trkpt lat="41.30855131559901" lon="-1.3499240936311305"><ele>926.3333333333334</ele><time>2026-05-03T17:05:04Z</time></trkpt><trkpt lat="41.30859508047971" lon="-1.3498371239189806"><ele>928.0</ele><time>2026-05-03T17:05:05Z</time></trkpt><trkpt lat="41.30865065856414" lon="-1.3497532899472529"><ele>929.6666666666667</ele><time>2026-05-03T17:05:06Z</time></trkpt><trkpt lat="41.308715522535316" lon="-1.349682361805189"><ele>931.3333333333334</ele><time>2026-05-03T17:05:07Z</time></trkpt><trkpt lat="41.308777548574795" lon="-1.3496085252533347"><ele>933.0</ele><time>2026-05-03T17:05:08Z</time></trkpt><trkpt lat="41.30883772419265" lon="-1.3495326346285208"><ele>932.0</ele><time>2026-05-03T17:05:09Z</time></trkpt><trkpt lat="41.30889277084595" lon="-1.3494508159691132"><ele>931.0</ele><time>2026-05-03T17:05:10Z</time></trkpt><trkpt lat="41.30894743236496" lon="-1.3493680537770965"><ele>930.0</ele><time>2026-05-03T17:05:11Z</time></trkpt><trkpt lat="41.30899780710762" lon="-1.3492791555473003"><ele>929.0</ele><time>2026-05-03T17:05:12Z</time></trkpt><trkpt lat="41.30905083963733" lon="-1.3491974950364467"><ele>928.0</ele><time>2026-05-03T17:05:13Z</time></trkpt><trkpt lat="41.30910453448242" lon="-1.3491111999823813"><ele>927.0</ele><time>2026-05-03T17:05:14Z</time></trkpt><trkpt lat="41.30915816939839" lon="-1.3490247948848475"><ele>927.0</ele><time>2026-05-03T17:05:15Z</time></trkpt><trkpt lat="41.309210555296296" lon="-1.348938381578293"><ele>927.0</ele><time>2026-05-03T17:05:16Z</time></trkpt><trkpt lat="41.30926239183494" lon="-1.3488560876261961"><ele>927.0</ele><time>2026-05-03T17:05:17Z</time></trkpt><trkpt lat="41.30931367239417" lon="-1.3487694414263456"><ele>927.0</ele><time>2026-05-03T17:05:18Z</time></trkpt><trkpt lat="41.3093647531611" lon="-1.3486875016037816"><ele>927.0</ele><time>2026-05-03T17:05:19.001Z</time></trkpt><trkpt lat="41.30941243424079" lon="-1.3486005621359982"><ele>927.0</ele><time>2026-05-03T17:05:20.001Z</time></trkpt><trkpt lat="41.30946074676684" lon="-1.3485188803724513"><ele>929.5</ele><time>2026-05-03T17:05:21.001Z</time></trkpt><trkpt lat="41.3095125779461" lon="-1.3484456563895555"><ele>932.0</ele><time>2026-05-03T17:05:22.001Z</time></trkpt><trkpt lat="41.30957100917282" lon="-1.348384074226593"><ele>934.5</ele><time>2026-05-03T17:05:23.001Z</time></trkpt><trkpt lat="41.30963573506082" lon="-1.3483322356314678"><ele>937.0</ele><time>2026-05-03T17:05:24.001Z</time></trkpt><trkpt lat="41.30970377946972" lon="-1.3482893521388357"><ele>939.5</ele><time>2026-05-03T17:05:25.001Z</time></trkpt><trkpt lat="41.30977411538141" lon="-1.3482537698199548"><ele>942.0</ele><time>2026-05-03T17:05:26.001Z</time></trkpt><trkpt lat="41.30984331756001" lon="-1.3482200783487395"><ele>942.0000000000001</ele><time>2026-05-03T17:05:27.001Z</time></trkpt><trkpt lat="41.30990945420952" lon="-1.348183905732462"><ele>942.0</ele><time>2026-05-03T17:05:28.001Z</time></trkpt><trkpt lat="41.30997125026013" lon="-1.3481454757599567"><ele>942.0000000000001</ele><time>2026-05-03T17:05:29.001Z</time></trkpt><trkpt lat="41.310037639259875" lon="-1.348114492619726"><ele>942.0000000000001</ele><time>2026-05-03T17:05:30.001Z</time></trkpt><trkpt lat="41.310102142787954" lon="-1.3480977779431393"><ele>942.0</ele><time>2026-05-03T17:05:31.001Z</time></trkpt><trkpt lat="41.31017286046492" lon="-1.3481138095921261"><ele>942.0000000000001</ele><time>2026-05-03T17:05:32.001Z</time></trkpt><trkpt lat="41.31023511308155" lon="-1.3481569365801667"><ele>942.0000000000001</ele><time>2026-05-03T17:05:33.001Z</time></trkpt><trkpt lat="41.31028561310511" lon="-1.3482237161916202"><ele>942.0000000000001</ele><time>2026-05-03T17:05:34.001Z</time></trkpt><trkpt lat="41.31032233996501" lon="-1.3483031197851074"><ele>942.0</ele><time>2026-05-03T17:05:35.001Z</time></trkpt><trkpt lat="41.31034702945081" lon="-1.3483867149596718"><ele>942.0000000000001</ele><time>2026-05-03T17:05:36.001Z</time></trkpt><trkpt lat="41.31036031286908" lon="-1.3484744992397928"><ele>942.0000000000001</ele><time>2026-05-03T17:05:37.001Z</time></trkpt><trkpt lat="41.31036620104184" lon="-1.3485633203296692"><ele>942.0</ele><time>2026-05-03T17:05:38.001Z</time></trkpt><trkpt lat="41.310370565927826" lon="-1.3486489328290772"><ele>942.0000000000001</ele><time>2026-05-03T17:05:39.001Z</time></trkpt><trkpt lat="41.31037980767185" lon="-1.3487374461841197"><ele>942.0000000000001</ele><time>2026-05-03T17:05:40.001Z</time></trkpt><trkpt lat="41.31039097529051" lon="-1.3488224149263421"><ele>939.6666666666666</ele><time>2026-05-03T17:05:41.001Z</time></trkpt><trkpt lat="41.31039903217817" lon="-1.3489104854681122"><ele>937.3333333333333</ele><time>2026-05-03T17:05:42.001Z</time></trkpt><trkpt lat="41.310412285443434" lon="-1.348996298269224"><ele>935.0</ele><time>2026-05-03T17:05:43.001Z</time></trkpt><trkpt lat="41.31045715927221" lon="-1.3491552756008196"><ele>932.6666666666666</ele><time>2026-05-03T17:05:45.001Z</time></trkpt><trkpt lat="41.310489643536584" lon="-1.3492313406779364"><ele>930.3333333333333</ele><time>2026-05-03T17:05:46.001Z</time></trkpt><trkpt lat="41.31052416608093" lon="-1.3493081889239038"><ele>928.0</ele><time>2026-05-03T17:05:47.001Z</time></trkpt><trkpt lat="41.31055206577077" lon="-1.3493861909656644"><ele>930.7142857142858</ele><time>2026-05-03T17:05:48.001Z</time></trkpt><trkpt lat="41.310579345686925" lon="-1.3494663131574554"><ele>933.4285714285714</ele><time>2026-05-03T17:05:49.001Z</time></trkpt><trkpt lat="41.310606635781205" lon="-1.3495450028490679"><ele>936.1428571428571</ele><time>2026-05-03T17:05:50.001Z</time></trkpt><trkpt lat="41.31063674361635" lon="-1.3496208505096308"><ele>938.8571428571429</ele><time>2026-05-03T17:05:51.001Z</time></trkpt><trkpt lat="41.31066809457857" lon="-1.3497041080589949"><ele>941.5714285714284</ele><time>2026-05-03T17:05:52.001Z</time></trkpt><trkpt lat="41.31070266864029" lon="-1.3497842237747817"><ele>944.2857142857142</ele><time>2026-05-03T17:05:53.001Z</time></trkpt><trkpt lat="41.310745805193505" lon="-1.3498660272939556"><ele>947.0</ele><time>2026-05-03T17:05:54.001Z</time></trkpt><trkpt lat="41.310799853012284" lon="-1.3499351129813293"><ele>947.0</ele><time>2026-05-03T17:05:55.001Z</time></trkpt><trkpt lat="41.31086736582076" lon="-1.3499812885994023"><ele>946.9999999999999</ele><time>2026-05-03T17:05:56.001Z</time></trkpt><trkpt lat="41.310940871024016" lon="-1.3500095427450727"><ele>947.0</ele><time>2026-05-03T17:05:57.001Z</time></trkpt><trkpt lat="41.31101409402033" lon="-1.35002260102111"><ele>947.0</ele><time>2026-05-03T17:05:58.001Z</time></trkpt><trkpt lat="41.311087298945765" lon="-1.3500427751831288"><ele>946.9999999999999</ele><time>2026-05-03T17:05:59.001Z</time></trkpt><trkpt lat="41.31115874211432" lon="-1.3500662635938598"><ele>947.0</ele><time>2026-05-03T17:06:00.001Z</time></trkpt><trkpt lat="41.31122780684502" lon="-1.3500825201514621"><ele>947.0</ele><time>2026-05-03T17:06:01.001Z</time></trkpt><trkpt lat="41.311298362785095" lon="-1.3500973695038545"><ele>947.0</ele><time>2026-05-03T17:06:02.001Z</time></trkpt><trkpt lat="41.311370432379064" lon="-1.35010658519436"><ele>946.9999999999999</ele><time>2026-05-03T17:06:03.001Z</time></trkpt><trkpt lat="41.311439427739224" lon="-1.3501138301754565"><ele>947.0</ele><time>2026-05-03T17:06:04.001Z</time></trkpt><trkpt lat="41.311511482410886" lon="-1.3501208495885462"><ele>947.0</ele><time>2026-05-03T17:06:05.001Z</time></trkpt><trkpt lat="41.311580462669525" lon="-1.3501323381617933"><ele>946.9999999999999</ele><time>2026-05-03T17:06:06.001Z</time></trkpt><trkpt lat="41.311653111374696" lon="-1.3501404610036045"><ele>947.0</ele><time>2026-05-03T17:06:07.001Z</time></trkpt><trkpt lat="41.311724443573645" lon="-1.3501394146707002"><ele>947.0</ele><time>2026-05-03T17:06:08.001Z</time></trkpt><trkpt lat="41.31179508095833" lon="-1.3501257637577042"><ele>948.5714285714286</ele><time>2026-05-03T17:06:09.001Z</time></trkpt><trkpt lat="41.311864338929055" lon="-1.3500843820210302"><ele>950.1428571428571</ele><time>2026-05-03T17:06:10.001Z</time></trkpt><trkpt lat="41.31192621715689" lon="-1.3500357720722642"><ele>951.7142857142857</ele><time>2026-05-03T17:06:11.001Z</time></trkpt><trkpt lat="41.31198139727607" lon="-1.3499700267390584"><ele>953.2857142857142</ele><time>2026-05-03T17:06:12.001Z</time></trkpt><trkpt lat="41.31203352237941" lon="-1.3499015607557525"><ele>954.8571428571429</ele><time>2026-05-03T17:06:13.001Z</time></trkpt><trkpt lat="41.31209184581718" lon="-1.349840964192958"><ele>956.4285714285713</ele><time>2026-05-03T17:06:14.001Z</time></trkpt><trkpt lat="41.31214755476073" lon="-1.3497752329929542"><ele>958.0</ele><time>2026-05-03T17:06:15.001Z</time></trkpt><trkpt lat="41.31220409872669" lon="-1.3497087787377482"><ele>960.6666666666666</ele><time>2026-05-03T17:06:16.001Z</time></trkpt><trkpt lat="41.31226173308977" lon="-1.3496458646062583"><ele>963.3333333333333</ele><time>2026-05-03T17:06:17.001Z</time></trkpt><trkpt lat="41.31231761374216" lon="-1.3495812444447142"><ele>966.0</ele><time>2026-05-03T17:06:18.001Z</time></trkpt><trkpt lat="41.312375930265446" lon="-1.3495151294039687"><ele>968.6666666666667</ele><time>2026-05-03T17:06:19.001Z</time></trkpt><trkpt lat="41.31243239886149" lon="-1.3494525306007554"><ele>971.3333333333334</ele><time>2026-05-03T17:06:20.001Z</time></trkpt><trkpt lat="41.31249366710489" lon="-1.349387464137454"><ele>974.0</ele><time>2026-05-03T17:06:21.001Z</time></trkpt><trkpt lat="41.31254818784892" lon="-1.3493212290690109"><ele>974.0</ele><time>2026-05-03T17:06:22.001Z</time></trkpt><trkpt lat="41.31260563336154" lon="-1.34925717183816"><ele>974.0</ele><time>2026-05-03T17:06:23.001Z</time></trkpt><trkpt lat="41.31266061632589" lon="-1.3491981708209833"><ele>974.0</ele><time>2026-05-03T17:06:24.001Z</time></trkpt><trkpt lat="41.312717394603" lon="-1.3491370464604437"><ele>974.0</ele><time>2026-05-03T17:06:25.001Z</time></trkpt><trkpt lat="41.31277346806503" lon="-1.3490784309158077"><ele>974.0</ele><time>2026-05-03T17:06:26.001Z</time></trkpt><trkpt lat="41.312832071865124" lon="-1.3490193330536258"><ele>974.0</ele><time>2026-05-03T17:06:27.001Z</time></trkpt><trkpt lat="41.31288904768157" lon="-1.348963515129341"><ele>974.0</ele><time>2026-05-03T17:06:28.001Z</time></trkpt><trkpt lat="41.312945342597146" lon="-1.3489061797312674"><ele>974.5714285714287</ele><time>2026-05-03T17:06:29.001Z</time></trkpt><trkpt lat="41.31300096256833" lon="-1.3488504479118257"><ele>975.1428571428571</ele><time>2026-05-03T17:06:30.001Z</time></trkpt><trkpt lat="41.313061258628174" lon="-1.3487950041278027"><ele>975.7142857142858</ele><time>2026-05-03T17:06:31.001Z</time></trkpt><trkpt lat="41.3131222535551" lon="-1.3487395604432846"><ele>976.2857142857143</ele><time>2026-05-03T17:06:32.001Z</time></trkpt><trkpt lat="41.31318045375951" lon="-1.3486839696196622"><ele>976.8571428571429</ele><time>2026-05-03T17:06:33.001Z</time></trkpt><trkpt lat="41.31324079663433" lon="-1.3486272592782136"><ele>977.4285714285714</ele><time>2026-05-03T17:06:34.001Z</time></trkpt><trkpt lat="41.31329972090566" lon="-1.3485687953064116"><ele>978.0</ele><time>2026-05-03T17:06:35.001Z</time></trkpt><trkpt lat="41.31335509325562" lon="-1.3485149135956682"><ele>978.0</ele><time>2026-05-03T17:06:36.001Z</time></trkpt><trkpt lat="41.313413633932804" lon="-1.3484589483334763"><ele>978.0000000000001</ele><time>2026-05-03T17:06:37.001Z</time></trkpt><trkpt lat="41.31347059406026" lon="-1.348405218224888"><ele>978.0</ele><time>2026-05-03T17:06:38.001Z</time></trkpt><trkpt lat="41.31352460201575" lon="-1.3483475265523956"><ele>978.0</ele><time>2026-05-03T17:06:39.001Z</time></trkpt><trkpt lat="41.31355490115424" lon="-1.3482617153245513"><ele>978.0000000000001</ele><time>2026-05-03T17:06:40.001Z</time></trkpt><trkpt lat="41.313594223597825" lon="-1.348190257103981"><ele>978.0</ele><time>2026-05-03T17:06:41.001Z</time></trkpt><trkpt lat="41.31363965044198" lon="-1.348120643920298"><ele>978.0</ele><time>2026-05-03T17:06:42.001Z</time></trkpt><trkpt lat="41.313676993228206" lon="-1.3480421328678835"><ele>976.2857142857143</ele><time>2026-05-03T17:06:43.001Z</time></trkpt><trkpt lat="41.31371135343662" lon="-1.3479647560442594"><ele>974.5714285714287</ele><time>2026-05-03T17:06:44.001Z</time></trkpt><trkpt lat="41.31374586666835" lon="-1.3478824207574576"><ele>972.8571428571429</ele><time>2026-05-03T17:06:45.002Z</time></trkpt><trkpt lat="41.313778045884376" lon="-1.3478018865215682"><ele>971.1428571428571</ele><time>2026-05-03T17:06:46.002Z</time></trkpt><trkpt lat="41.31381431172626" lon="-1.3477202104272274"><ele>969.4285714285714</ele><time>2026-05-03T17:06:47.002Z</time></trkpt><trkpt lat="41.313848186238346" lon="-1.3476399537966544"><ele>967.7142857142858</ele><time>2026-05-03T17:06:48.002Z</time></trkpt><trkpt lat="41.31388260129781" lon="-1.347555910365375"><ele>966.0</ele><time>2026-05-03T17:06:49.002Z</time></trkpt><trkpt lat="41.3139107372142" lon="-1.3474678086671945"><ele>966.0</ele><time>2026-05-03T17:06:50Z</time></trkpt><trkpt lat="41.31391793773481" lon="-1.347374031487832"><ele>966.0</ele><time>2026-05-03T17:06:51Z</time></trkpt><trkpt lat="41.313894766062354" lon="-1.3472797126594112"><ele>966.0</ele><time>2026-05-03T17:06:52Z</time></trkpt><trkpt lat="41.31387551793585" lon="-1.3471923798969123"><ele>966.0</ele><time>2026-05-03T17:06:53Z</time></trkpt><trkpt lat="41.313850057199495" lon="-1.3471096563746419"><ele>966.0</ele><time>2026-05-03T17:06:54Z</time></trkpt><trkpt lat="41.31382915789616" lon="-1.3470238593082018"><ele>966.0</ele><time>2026-05-03T17:06:55Z</time></trkpt><trkpt lat="41.31380811318868" lon="-1.3469337983461849"><ele>966.0</ele><time>2026-05-03T17:06:56Z</time></trkpt><trkpt lat="41.31378858225345" lon="-1.3468458097239147"><ele>972.2857142857142</ele><time>2026-05-03T17:06:57Z</time></trkpt><trkpt lat="41.313768952404665" lon="-1.346757375510804"><ele>978.5714285714286</ele><time>2026-05-03T17:06:58Z</time></trkpt><trkpt lat="41.3137482796654" lon="-1.3466642429640228"><ele>984.8571428571429</ele><time>2026-05-03T17:06:59Z</time></trkpt><trkpt lat="41.31374393181667" lon="-1.3465696423331155"><ele>991.1428571428571</ele><time>2026-05-03T17:07:00Z</time></trkpt><trkpt lat="41.313719271694694" lon="-1.346481783588628"><ele>997.4285714285713</ele><time>2026-05-03T17:07:01Z</time></trkpt><trkpt lat="41.31369575964905" lon="-1.346395224523637"><ele>1003.7142857142857</ele><time>2026-05-03T17:07:02Z</time></trkpt><trkpt lat="41.31368115654279" lon="-1.346308927882697"><ele>1010.0</ele><time>2026-05-03T17:07:03Z</time></trkpt><trkpt lat="41.31366152693571" lon="-1.3462207566403737"><ele>1010.2857142857142</ele><time>2026-05-03T17:07:04Z</time></trkpt><trkpt lat="41.31363818435825" lon="-1.3461336434261904"><ele>1010.5714285714284</ele><time>2026-05-03T17:07:05Z</time></trkpt><trkpt lat="41.31361867146474" lon="-1.3460454009550247"><ele>1010.8571428571429</ele><time>2026-05-03T17:07:06Z</time></trkpt><trkpt lat="41.313612892963555" lon="-1.3459551365355358"><ele>1011.1428571428571</ele><time>2026-05-03T17:07:07Z</time></trkpt><trkpt lat="41.313604848660226" lon="-1.345863110862126"><ele>1011.4285714285714</ele><time>2026-05-03T17:07:08Z</time></trkpt><trkpt lat="41.31360088589411" lon="-1.3457719592689354"><ele>1011.7142857142858</ele><time>2026-05-03T17:07:09Z</time></trkpt><trkpt lat="41.31361115273705" lon="-1.345681274701405"><ele>1012.0000000000001</ele><time>2026-05-03T17:07:10Z</time></trkpt><trkpt lat="41.31362627541018" lon="-1.3455893657013616"><ele>1012.7142857142858</ele><time>2026-05-03T17:07:11Z</time></trkpt><trkpt lat="41.313645468892425" lon="-1.3455005496730208"><ele>1013.4285714285714</ele><time>2026-05-03T17:07:12Z</time></trkpt><trkpt lat="41.313663558342874" lon="-1.345413731215042"><ele>1014.1428571428571</ele><time>2026-05-03T17:07:13Z</time></trkpt><trkpt lat="41.31368429635572" lon="-1.3453239147166285"><ele>1014.8571428571429</ele><time>2026-05-03T17:07:14Z</time></trkpt><trkpt lat="41.313707134310796" lon="-1.3452352253789543"><ele>1015.5714285714284</ele><time>2026-05-03T17:07:15Z</time></trkpt><trkpt lat="41.313731085372055" lon="-1.3451488142398436"><ele>1016.2857142857142</ele><time>2026-05-03T17:07:16Z</time></trkpt><trkpt lat="41.313756641098905" lon="-1.3450604338612848"><ele>1017.0</ele><time>2026-05-03T17:07:17Z</time></trkpt><trkpt lat="41.31377627473466" lon="-1.3449694417876472"><ele>1017.0</ele><time>2026-05-03T17:07:18Z</time></trkpt><trkpt lat="41.31379490101073" lon="-1.3448797803530357"><ele>1016.9999999999999</ele><time>2026-05-03T17:07:19Z</time></trkpt><trkpt lat="41.313815784558784" lon="-1.3447930611246284"><ele>1017.0</ele><time>2026-05-03T17:07:20Z</time></trkpt><trkpt lat="41.31383812222665" lon="-1.3447057559054212"><ele>1017.0</ele><time>2026-05-03T17:07:21Z</time></trkpt><trkpt lat="41.31386017967276" lon="-1.3446215341274597"><ele>1016.9999999999999</ele><time>2026-05-03T17:07:22Z</time></trkpt><trkpt lat="41.31388193263354" lon="-1.3445411794999758"><ele>1017.0</ele><time>2026-05-03T17:07:23Z</time></trkpt><trkpt lat="41.31390809109415" lon="-1.3444551341744695"><ele>1017.0</ele><time>2026-05-03T17:07:24Z</time></trkpt><trkpt lat="41.3139236419929" lon="-1.344367595509183"><ele>1015.0</ele><time>2026-05-03T17:07:25Z</time></trkpt><trkpt lat="41.31394336294529" lon="-1.3442863664149902"><ele>1012.9999999999999</ele><time>2026-05-03T17:07:26Z</time></trkpt><trkpt lat="41.31398089072336" lon="-1.3442089340124215"><ele>1011.0</ele><time>2026-05-03T17:07:27Z</time></trkpt><trkpt lat="41.3140229498679" lon="-1.3441372511158995"><ele>1009.0</ele><time>2026-05-03T17:07:28Z</time></trkpt><trkpt lat="41.31407903244351" lon="-1.3440866086296843"><ele>1006.9999999999999</ele><time>2026-05-03T17:07:29Z</time></trkpt><trkpt lat="41.31414866890485" lon="-1.3440553647646614"><ele>1005.0</ele><time>2026-05-03T17:07:30Z</time></trkpt><trkpt lat="41.31421760067223" lon="-1.3440450810211628"><ele>1003.0</ele><time>2026-05-03T17:07:31Z</time></trkpt><trkpt lat="41.3142871544275" lon="-1.3440472556719223"><ele>1003.0</ele><time>2026-05-03T17:07:32Z</time></trkpt><trkpt lat="41.314357377080164" lon="-1.3440634770173638"><ele>1002.9999999999999</ele><time>2026-05-03T17:07:33Z</time></trkpt><trkpt lat="41.314428374623255" lon="-1.3440757672894534"><ele>1003.0</ele><time>2026-05-03T17:07:34Z</time></trkpt><trkpt lat="41.31449723493432" lon="-1.3440807910518782"><ele>1003.0</ele><time>2026-05-03T17:07:35Z</time></trkpt><trkpt lat="41.314567232185816" lon="-1.3440816934787108"><ele>1002.9999999999999</ele><time>2026-05-03T17:07:36Z</time></trkpt><trkpt lat="41.31463784753995" lon="-1.3440811805388746"><ele>1003.0</ele><time>2026-05-03T17:07:37Z</time></trkpt><trkpt lat="41.31470362929191" lon="-1.3440906728634483"><ele>1003.0</ele><time>2026-05-03T17:07:38Z</time></trkpt><trkpt lat="41.31477523077247" lon="-1.3440953839589351"><ele>1003.7142857142857</ele><time>2026-05-03T17:07:39Z</time></trkpt><trkpt lat="41.31484313125892" lon="-1.344103654302868"><ele>1004.4285714285713</ele><time>2026-05-03T17:07:40Z</time></trkpt><trkpt lat="41.3149106009311" lon="-1.3441138673901973"><ele>1005.1428571428571</ele><time>2026-05-03T17:07:41Z</time></trkpt><trkpt lat="41.31497930592082" lon="-1.344123453121442"><ele>1005.8571428571429</ele><time>2026-05-03T17:07:42Z</time></trkpt><trkpt lat="41.31504933061642" lon="-1.344132109187887"><ele>1006.5714285714286</ele><time>2026-05-03T17:07:43Z</time></trkpt><trkpt lat="41.31511941140484" lon="-1.344145236249191"><ele>1007.2857142857142</ele><time>2026-05-03T17:07:44Z</time></trkpt><trkpt lat="41.315188308309594" lon="-1.344159369253064"><ele>1008.0</ele><time>2026-05-03T17:07:45Z</time></trkpt><trkpt lat="41.31526189596202" lon="-1.344174471752212"><ele>1008.0</ele><time>2026-05-03T17:07:46Z</time></trkpt><trkpt lat="41.31533036236534" lon="-1.3441890222257886"><ele>1008.0</ele><time>2026-05-03T17:07:47Z</time></trkpt><trkpt lat="41.31540067770564" lon="-1.344206578902526"><ele>1008.0</ele><time>2026-05-03T17:07:48Z</time></trkpt><trkpt lat="41.31546724700858" lon="-1.344218812728486"><ele>1008.0</ele><time>2026-05-03T17:07:49Z</time></trkpt><trkpt lat="41.315534912494634" lon="-1.344229761097818"><ele>1008.0</ele><time>2026-05-03T17:07:50.001Z</time></trkpt><trkpt lat="41.31560168879759" lon="-1.3442400187801589"><ele>1008.0</ele><time>2026-05-03T17:07:51.001Z</time></trkpt><trkpt lat="41.315667771953" lon="-1.3442479649936392"><ele>1008.0</ele><time>2026-05-03T17:07:52.001Z</time></trkpt><trkpt lat="41.31573480561039" lon="-1.344258562158691"><ele>1009.0</ele><time>2026-05-03T17:07:53.001Z</time></trkpt><trkpt lat="41.31580322112789" lon="-1.3442658638593654"><ele>1010.0</ele><time>2026-05-03T17:07:54.001Z</time></trkpt><trkpt lat="41.31587261459554" lon="-1.34427167901163"><ele>1011.0</ele><time>2026-05-03T17:07:55.001Z</time></trkpt><trkpt lat="41.315939531775925" lon="-1.3442733067290045"><ele>1012.0</ele><time>2026-05-03T17:07:56.001Z</time></trkpt><trkpt lat="41.316007080463784" lon="-1.3442639094093973"><ele>1013.0</ele><time>2026-05-03T17:07:57.001Z</time></trkpt><trkpt lat="41.31607465948999" lon="-1.344255246089945"><ele>1014.0</ele><time>2026-05-03T17:07:58.001Z</time></trkpt><trkpt lat="41.316144119757325" lon="-1.3442511779913922"><ele>1015.0</ele><time>2026-05-03T17:07:59.001Z</time></trkpt><trkpt lat="41.31621446321613" lon="-1.3442405280800664"><ele>1015.0</ele><time>2026-05-03T17:08:00.001Z</time></trkpt><trkpt lat="41.31628515432189" lon="-1.34423854474183"><ele>1015.0</ele><time>2026-05-03T17:08:01.001Z</time></trkpt><trkpt lat="41.316354300851124" lon="-1.3442281307088981"><ele>1015.0</ele><time>2026-05-03T17:08:02.001Z</time></trkpt><trkpt lat="41.31642442860136" lon="-1.3442181486787643"><ele>1015.0</ele><time>2026-05-03T17:08:03.001Z</time></trkpt><trkpt lat="41.31649445449876" lon="-1.3442026714028066"><ele>1015.0</ele><time>2026-05-03T17:08:04.001Z</time></trkpt><trkpt lat="41.31656769315366" lon="-1.3441960903316752"><ele>1015.0</ele><time>2026-05-03T17:08:05.001Z</time></trkpt><trkpt lat="41.31663714322062" lon="-1.3441925627631295"><ele>1015.0</ele><time>2026-05-03T17:08:06.001Z</time></trkpt><trkpt lat="41.31670826356044" lon="-1.3441919384984753"><ele>1015.2857142857142</ele><time>2026-05-03T17:08:07.001Z</time></trkpt><trkpt lat="41.316776995588974" lon="-1.344184626998953"><ele>1015.5714285714286</ele><time>2026-05-03T17:08:08.001Z</time></trkpt><trkpt lat="41.316846446831796" lon="-1.3441698055155946"><ele>1015.8571428571429</ele><time>2026-05-03T17:08:09.001Z</time></trkpt><trkpt lat="41.31691519400191" lon="-1.3441502962776455"><ele>1016.1428571428571</ele><time>2026-05-03T17:08:10.001Z</time></trkpt><trkpt lat="41.31697987708727" lon="-1.3441168826376493"><ele>1016.4285714285713</ele><time>2026-05-03T17:08:11.001Z</time></trkpt><trkpt lat="41.31703164013723" lon="-1.3440645522768946"><ele>1016.7142857142857</ele><time>2026-05-03T17:08:12.001Z</time></trkpt><trkpt lat="41.317078594532354" lon="-1.3439980189033938"><ele>1017.0</ele><time>2026-05-03T17:08:13.001Z</time></trkpt><trkpt lat="41.3171214899341" lon="-1.3439278572358477"><ele>1019.7142857142857</ele><time>2026-05-03T17:08:14.001Z</time></trkpt><trkpt lat="41.317161778229256" lon="-1.3438620146065916"><ele>1022.4285714285713</ele><time>2026-05-03T17:08:15.001Z</time></trkpt><trkpt lat="41.31720560670915" lon="-1.3437934932383806"><ele>1025.142857142857</ele><time>2026-05-03T17:08:16.001Z</time></trkpt><trkpt lat="41.317252098899885" lon="-1.3437319598231043"><ele>1027.857142857143</ele><time>2026-05-03T17:08:17.001Z</time></trkpt><trkpt lat="41.31729825460127" lon="-1.3436683603879453"><ele>1030.5714285714284</ele><time>2026-05-03T17:08:18.001Z</time></trkpt><trkpt lat="41.31733857884725" lon="-1.3435997312198367"><ele>1033.2857142857142</ele><time>2026-05-03T17:08:19.001Z</time></trkpt><trkpt lat="41.317379761999874" lon="-1.3435310230484878"><ele>1036.0</ele><time>2026-05-03T17:08:20.001Z</time></trkpt><trkpt lat="41.31742376476533" lon="-1.34346739594411"><ele>1036.0</ele><time>2026-05-03T17:08:21.001Z</time></trkpt><trkpt lat="41.31747076282481" lon="-1.343404420485846"><ele>1036.0</ele><time>2026-05-03T17:08:22.001Z</time></trkpt><trkpt lat="41.31752188848803" lon="-1.3433500967401688"><ele>1036.0</ele><time>2026-05-03T17:08:23.001Z</time></trkpt><trkpt lat="41.317638733250355" lon="-1.3432678140377852"><ele>1036.0</ele><time>2026-05-03T17:08:25.001Z</time></trkpt><trkpt lat="41.317704307395694" lon="-1.3432401233111337"><ele>1036.0</ele><time>2026-05-03T17:08:26.001Z</time></trkpt><trkpt lat="41.317772155710294" lon="-1.3432189049365544"><ele>1036.0</ele><time>2026-05-03T17:08:27.001Z</time></trkpt><trkpt lat="41.31783766207004" lon="-1.3431994260099132"><ele>1036.0</ele><time>2026-05-03T17:08:28.001Z</time></trkpt><trkpt lat="41.31790315711999" lon="-1.3431772394508092"><ele>1036.0</ele><time>2026-05-03T17:08:29.001Z</time></trkpt><trkpt lat="41.31796755221979" lon="-1.3431536589175808"><ele>1036.0</ele><time>2026-05-03T17:08:30.001Z</time></trkpt><trkpt lat="41.31803274932193" lon="-1.3431355595017185"><ele>1036.0</ele><time>2026-05-03T17:08:31.001Z</time></trkpt><trkpt lat="41.31809735946602" lon="-1.3431180181065923"><ele>1036.0</ele><time>2026-05-03T17:08:32.001Z</time></trkpt><trkpt lat="41.31816450751315" lon="-1.3430859018328785"><ele>1036.0</ele><time>2026-05-03T17:08:33.001Z</time></trkpt><trkpt lat="41.318223559323705" lon="-1.343043462684757"><ele>1036.0</ele><time>2026-05-03T17:08:34.001Z</time></trkpt><trkpt lat="41.31828409584801" lon="-1.3430005101199731"><ele>1037.5714285714287</ele><time>2026-05-03T17:08:35.001Z</time></trkpt><trkpt lat="41.31834177892794" lon="-1.3429565681613285"><ele>1039.142857142857</ele><time>2026-05-03T17:08:36.001Z</time></trkpt><trkpt lat="41.31840256063509" lon="-1.342915175741615"><ele>1040.7142857142858</ele><time>2026-05-03T17:08:37.001Z</time></trkpt><trkpt lat="41.31846313485718" lon="-1.3428780663433995"><ele>1042.2857142857142</ele><time>2026-05-03T17:08:38.001Z</time></trkpt><trkpt lat="41.3185275793219" lon="-1.3428420072011125"><ele>1043.857142857143</ele><time>2026-05-03T17:08:39.001Z</time></trkpt><trkpt lat="41.31858777661195" lon="-1.3428061996468441"><ele>1045.4285714285716</ele><time>2026-05-03T17:08:40.001Z</time></trkpt><trkpt lat="41.31864703997237" lon="-1.3427695934740522"><ele>1047.0</ele><time>2026-05-03T17:08:41.001Z</time></trkpt><trkpt lat="41.318703234527035" lon="-1.3427280205790681"><ele>1047.0</ele><time>2026-05-03T17:08:42.001Z</time></trkpt><trkpt lat="41.318756728763304" lon="-1.3426740104538393"><ele>1047.0</ele><time>2026-05-03T17:08:43.001Z</time></trkpt><trkpt lat="41.31879968879285" lon="-1.3426054105651386"><ele>1047.0</ele><time>2026-05-03T17:08:44.001Z</time></trkpt><trkpt lat="41.318827244681714" lon="-1.342519527937678"><ele>1047.0</ele><time>2026-05-03T17:08:45.001Z</time></trkpt><trkpt lat="41.31879904505521" lon="-1.342427485247585"><ele>1047.0</ele><time>2026-05-03T17:08:46.001Z</time></trkpt><trkpt lat="41.318778761400786" lon="-1.3423460749924767"><ele>1047.0</ele><time>2026-05-03T17:08:47.001Z</time></trkpt><trkpt lat="41.31874562891106" lon="-1.3421847920912489"><ele>1048.5</ele><time>2026-05-03T17:08:49.001Z</time></trkpt><trkpt lat="41.31872883636431" lon="-1.342103021128766"><ele>1050.0</ele><time>2026-05-03T17:08:50.001Z</time></trkpt><trkpt lat="41.31869753044617" lon="-1.3419350167115385"><ele>1051.5</ele><time>2026-05-03T17:08:52.001Z</time></trkpt><trkpt lat="41.31868446665365" lon="-1.3418463238045526"><ele>1053.0</ele><time>2026-05-03T17:08:53.001Z</time></trkpt><trkpt lat="41.31867997101868" lon="-1.3417535289359845"><ele>1054.5</ele><time>2026-05-03T17:08:54.001Z</time></trkpt><trkpt lat="41.318684159103256" lon="-1.3416630234674627"><ele>1056.0</ele><time>2026-05-03T17:08:55.001Z</time></trkpt><trkpt lat="41.31872618559641" lon="-1.341580929976484"><ele>1056.0</ele><time>2026-05-03T17:08:56Z</time></trkpt><trkpt lat="41.31876640328939" lon="-1.3415056019458222"><ele>1056.0</ele><time>2026-05-03T17:08:57Z</time></trkpt><trkpt lat="41.31882140037603" lon="-1.3414555295755817"><ele>1056.0</ele><time>2026-05-03T17:08:58Z</time></trkpt><trkpt lat="41.31888682113781" lon="-1.3414211289446734"><ele>1056.0</ele><time>2026-05-03T17:08:59Z</time></trkpt><trkpt lat="41.31895891718263" lon="-1.341395412480986"><ele>1056.0</ele><time>2026-05-03T17:09:00Z</time></trkpt><trkpt lat="41.319029476516484" lon="-1.341370219339408"><ele>1056.0</ele><time>2026-05-03T17:09:01Z</time></trkpt><trkpt lat="41.3190976308483" lon="-1.3413438315164332"><ele>1056.0</ele><time>2026-05-03T17:09:02Z</time></trkpt><trkpt lat="41.31916525655533" lon="-1.3413134475745785"><ele>1056.4285714285713</ele><time>2026-05-03T17:09:03Z</time></trkpt><trkpt lat="41.319233257407085" lon="-1.3412848928570813"><ele>1056.857142857143</ele><time>2026-05-03T17:09:04Z</time></trkpt><trkpt lat="41.31930174843034" lon="-1.341260903053344"><ele>1057.2857142857142</ele><time>2026-05-03T17:09:05Z</time></trkpt><trkpt lat="41.319370806761945" lon="-1.3412355218148266"><ele>1057.7142857142858</ele><time>2026-05-03T17:09:06Z</time></trkpt><trkpt lat="41.31943632953723" lon="-1.3412072935174972"><ele>1058.142857142857</ele><time>2026-05-03T17:09:07Z</time></trkpt><trkpt lat="41.31950239366971" lon="-1.3411808210767264"><ele>1058.5714285714284</ele><time>2026-05-03T17:09:08Z</time></trkpt><trkpt lat="41.31956609437305" lon="-1.3411545382412924"><ele>1059.0</ele><time>2026-05-03T17:09:09Z</time></trkpt><trkpt lat="41.319630518904866" lon="-1.341130172600543"><ele>1059.0</ele><time>2026-05-03T17:09:10Z</time></trkpt><trkpt lat="41.319698687230776" lon="-1.3411022368423509"><ele>1059.0</ele><time>2026-05-03T17:09:11Z</time></trkpt><trkpt lat="41.3197655981771" lon="-1.3410795952968033"><ele>1059.0</ele><time>2026-05-03T17:09:12Z</time></trkpt><trkpt lat="41.31982929407014" lon="-1.3410519229401305"><ele>1059.0</ele><time>2026-05-03T17:09:13Z</time></trkpt><trkpt lat="41.31989455518712" lon="-1.3410260365198414"><ele>1059.0</ele><time>2026-05-03T17:09:14Z</time></trkpt><trkpt lat="41.31996052339294" lon="-1.3409988899778287"><ele>1059.0</ele><time>2026-05-03T17:09:15Z</time></trkpt><trkpt lat="41.32002977278692" lon="-1.3409691546248743"><ele>1059.0</ele><time>2026-05-03T17:09:16Z</time></trkpt><trkpt lat="41.32009526835306" lon="-1.3409390419616771"><ele>1057.6666666666667</ele><time>2026-05-03T17:09:17Z</time></trkpt><trkpt lat="41.32015621168527" lon="-1.340913464524407"><ele>1056.3333333333333</ele><time>2026-05-03T17:09:18Z</time></trkpt><trkpt lat="41.32026880765367" lon="-1.3408887206480675"><ele>1055.0</ele><time>2026-05-03T17:09:20Z</time></trkpt><trkpt lat="41.32033396401732" lon="-1.3408858924077562"><ele>1053.6666666666665</ele><time>2026-05-03T17:09:21Z</time></trkpt><trkpt lat="41.32040483433404" lon="-1.3408933275614345"><ele>1052.3333333333333</ele><time>2026-05-03T17:09:22Z</time></trkpt><trkpt lat="41.320481819768176" lon="-1.3409024981835553"><ele>1051.0</ele><time>2026-05-03T17:09:23Z</time></trkpt><trkpt lat="41.32055721212611" lon="-1.3409223850852037"><ele>1049.3999999999999</ele><time>2026-05-03T17:09:24Z</time></trkpt><trkpt lat="41.32063739361023" lon="-1.3409504672842827"><ele>1047.8</ele><time>2026-05-03T17:09:25Z</time></trkpt><trkpt lat="41.32072273284828" lon="-1.3409839042112102"><ele>1046.1999999999998</ele><time>2026-05-03T17:09:26Z</time></trkpt><trkpt lat="41.32081184823331" lon="-1.3410102591278947"><ele>1044.6</ele><time>2026-05-03T17:09:27Z</time></trkpt><trkpt lat="41.320904336537964" lon="-1.3410423802238383"><ele>1043.0</ele><time>2026-05-03T17:09:28Z</time></trkpt><trkpt lat="41.32099536100478" lon="-1.3410751492703599"><ele>1043.0</ele><time>2026-05-03T17:09:29Z</time></trkpt><trkpt lat="41.32108487292327" lon="-1.3411069352663683"><ele>1043.0</ele><time>2026-05-03T17:09:30Z</time></trkpt><trkpt lat="41.32117258373408" lon="-1.3411377657789272"><ele>1043.0</ele><time>2026-05-03T17:09:31Z</time></trkpt><trkpt lat="41.32126175760882" lon="-1.3411729368996783"><ele>1043.0</ele><time>2026-05-03T17:09:32Z</time></trkpt><trkpt lat="41.32135278829948" lon="-1.341206257116959"><ele>1043.0</ele><time>2026-05-03T17:09:33Z</time></trkpt><trkpt lat="41.32144386583253" lon="-1.3412331856235427"><ele>1042.0</ele><time>2026-05-03T17:09:34Z</time></trkpt><trkpt lat="41.321536823820225" lon="-1.341249364090162"><ele>1041.0</ele><time>2026-05-03T17:09:35Z</time></trkpt><trkpt lat="41.321629420818546" lon="-1.3412436989533814"><ele>1040.0</ele><time>2026-05-03T17:09:36Z</time></trkpt><trkpt lat="41.32171622929096" lon="-1.3412199034272405"><ele>1039.0</ele><time>2026-05-03T17:09:37Z</time></trkpt><trkpt lat="41.32179878393666" lon="-1.3411701330226"><ele>1038.0</ele><time>2026-05-03T17:09:38Z</time></trkpt><trkpt lat="41.32188125529882" lon="-1.3411229261731263"><ele>1038.0</ele><time>2026-05-03T17:09:39Z</time></trkpt><trkpt lat="41.321962742912696" lon="-1.3410638708410758"><ele>1038.0</ele><time>2026-05-03T17:09:40Z</time></trkpt><trkpt lat="41.322044662844476" lon="-1.3409958216203446"><ele>1038.0</ele><time>2026-05-03T17:09:41Z</time></trkpt><trkpt lat="41.322111712884286" lon="-1.3409028353323778"><ele>1038.0</ele><time>2026-05-03T17:09:42Z</time></trkpt><trkpt lat="41.32217314088262" lon="-1.3408008205444966"><ele>1038.0</ele><time>2026-05-03T17:09:43Z</time></trkpt><trkpt lat="41.32222769229897" lon="-1.3406917012393427"><ele>1038.3333333333333</ele><time>2026-05-03T17:09:44Z</time></trkpt><trkpt lat="41.32227608279832" lon="-1.3405795850123858"><ele>1038.6666666666667</ele><time>2026-05-03T17:09:45Z</time></trkpt><trkpt lat="41.32232545710035" lon="-1.3404800125014542"><ele>1039.0</ele><time>2026-05-03T17:09:46Z</time></trkpt><trkpt lat="41.322375955308196" lon="-1.3403783854986324"><ele>1039.3333333333335</ele><time>2026-05-03T17:09:47Z</time></trkpt><trkpt lat="41.322418608483744" lon="-1.3402775162626903"><ele>1039.6666666666667</ele><time>2026-05-03T17:09:48Z</time></trkpt><trkpt lat="41.3224498695502" lon="-1.3401735795573795"><ele>1040.0</ele><time>2026-05-03T17:09:49Z</time></trkpt><trkpt lat="41.32245657400781" lon="-1.3400569200382129"><ele>1040.0</ele><time>2026-05-03T17:09:50Z</time></trkpt><trkpt lat="41.32245617047807" lon="-1.3399481804868343"><ele>1040.0</ele><time>2026-05-03T17:09:51Z</time></trkpt><trkpt lat="41.322471873213736" lon="-1.3398370208725632"><ele>1040.0</ele><time>2026-05-03T17:09:52Z</time></trkpt><trkpt lat="41.322475043797986" lon="-1.339725477956958"><ele>1040.0</ele><time>2026-05-03T17:09:53Z</time></trkpt><trkpt lat="41.32248352307064" lon="-1.339612012491581"><ele>1040.0</ele><time>2026-05-03T17:09:54Z</time></trkpt><trkpt lat="41.32249138242967" lon="-1.3394947610882597"><ele>1040.0</ele><time>2026-05-03T17:09:55Z</time></trkpt><trkpt lat="41.32249287386201" lon="-1.3393810556353916"><ele>1038.5</ele><time>2026-05-03T17:09:56Z</time></trkpt><trkpt lat="41.322495677818424" lon="-1.3392694517836774"><ele>1037.0</ele><time>2026-05-03T17:09:57Z</time></trkpt><trkpt lat="41.32249548924997" lon="-1.3391596278965399"><ele>1035.5</ele><time>2026-05-03T17:09:58Z</time></trkpt><trkpt lat="41.32249837213433" lon="-1.3390537288721958"><ele>1034.0</ele><time>2026-05-03T17:09:59Z</time></trkpt><trkpt lat="41.32250173059741" lon="-1.3389488964491505"><ele>1032.5</ele><time>2026-05-03T17:10:00.001Z</time></trkpt><trkpt lat="41.32250857156772" lon="-1.3388461518691637"><ele>1031.0</ele><time>2026-05-03T17:10:01.001Z</time></trkpt><trkpt lat="41.32249480786602" lon="-1.3387396251709582"><ele>1029.142857142857</ele><time>2026-05-03T17:10:02.001Z</time></trkpt><trkpt lat="41.32252255191973" lon="-1.3386544306675512"><ele>1027.2857142857142</ele><time>2026-05-03T17:10:03.001Z</time></trkpt><trkpt lat="41.32256183865701" lon="-1.3385758927796219"><ele>1025.4285714285713</ele><time>2026-05-03T17:10:04.001Z</time></trkpt><trkpt lat="41.322613511640824" lon="-1.338526721189487"><ele>1023.5714285714284</ele><time>2026-05-03T17:10:05.001Z</time></trkpt><trkpt lat="41.32268421635376" lon="-1.3385070022869863"><ele>1021.7142857142857</ele><time>2026-05-03T17:10:06.001Z</time></trkpt><trkpt lat="41.32275993647308" lon="-1.3385205864199565"><ele>1019.8571428571427</ele><time>2026-05-03T17:10:07.001Z</time></trkpt><trkpt lat="41.322840491482424" lon="-1.338548388067585"><ele>1017.9999999999999</ele><time>2026-05-03T17:10:08.001Z</time></trkpt><trkpt lat="41.32292323799839" lon="-1.3385790275848688"><ele>1018.0</ele><time>2026-05-03T17:10:09.001Z</time></trkpt><trkpt lat="41.32301177305394" lon="-1.3386138877350757"><ele>1018.0</ele><time>2026-05-03T17:10:10.001Z</time></trkpt><trkpt lat="41.3231045789579" lon="-1.3386476984108948"><ele>1018.0</ele><time>2026-05-03T17:10:11.001Z</time></trkpt><trkpt lat="41.32319866679878" lon="-1.3386815521853397"><ele>1018.0</ele><time>2026-05-03T17:10:12.001Z</time></trkpt><trkpt lat="41.323291783427784" lon="-1.3387168638402303"><ele>1018.0</ele><time>2026-05-03T17:10:13.001Z</time></trkpt><trkpt lat="41.32337942065937" lon="-1.3387461767883841"><ele>1017.5999999999999</ele><time>2026-05-03T17:10:14.001Z</time></trkpt><trkpt lat="41.32346633516858" lon="-1.3387681001626126"><ele>1017.1999999999999</ele><time>2026-05-03T17:10:15.001Z</time></trkpt><trkpt lat="41.3235564186124" lon="-1.3387597343875555"><ele>1016.8</ele><time>2026-05-03T17:10:16.001Z</time></trkpt><trkpt lat="41.323652326587826" lon="-1.338723458682092"><ele>1016.4</ele><time>2026-05-03T17:10:17.001Z</time></trkpt><trkpt lat="41.32374029634927" lon="-1.3386492170849336"><ele>1016.0</ele><time>2026-05-03T17:10:18.001Z</time></trkpt><trkpt lat="41.32382608317789" lon="-1.3385631725879614"><ele>1018.0</ele><time>2026-05-03T17:10:19.001Z</time></trkpt><trkpt lat="41.32391213205968" lon="-1.3385022307231935"><ele>1019.9999999999999</ele><time>2026-05-03T17:10:20.001Z</time></trkpt><trkpt lat="41.32400622327711" lon="-1.3384653428446323"><ele>1021.9999999999999</ele><time>2026-05-03T17:10:21.001Z</time></trkpt><trkpt lat="41.32409765913585" lon="-1.3384329667592054"><ele>1024.0</ele><time>2026-05-03T17:10:22.001Z</time></trkpt><trkpt lat="41.32418664120708" lon="-1.3383868764093887"><ele>1026.0</ele><time>2026-05-03T17:10:23.001Z</time></trkpt><trkpt lat="41.324263864747856" lon="-1.3383163206005926"><ele>1026.0</ele><time>2026-05-03T17:10:24.001Z</time></trkpt><trkpt lat="41.324326693710745" lon="-1.338221669988484"><ele>1026.0</ele><time>2026-05-03T17:10:25.001Z</time></trkpt><trkpt lat="41.324334836741514" lon="-1.33809394385594"><ele>1026.0</ele><time>2026-05-03T17:10:26.001Z</time></trkpt><trkpt lat="41.32433449695237" lon="-1.337963946582549"><ele>1026.0</ele><time>2026-05-03T17:10:27.001Z</time></trkpt><trkpt lat="41.32433171210893" lon="-1.3378245293046318"><ele>1026.0</ele><time>2026-05-03T17:10:28.001Z</time></trkpt><trkpt lat="41.32431387167393" lon="-1.3376894894982299"><ele>1023.0</ele><time>2026-05-03T17:10:29.001Z</time></trkpt><trkpt lat="41.324278657072426" lon="-1.3375669015264617"><ele>1019.9999999999999</ele><time>2026-05-03T17:10:30.001Z</time></trkpt><trkpt lat="41.324237220977636" lon="-1.3374553988011324"><ele>1016.9999999999999</ele><time>2026-05-03T17:10:31.001Z</time></trkpt><trkpt lat="41.324191191556565" lon="-1.3373404965756246"><ele>1014.0</ele><time>2026-05-03T17:10:32.001Z</time></trkpt><trkpt lat="41.324148480380664" lon="-1.3372359485446288"><ele>1011.0</ele><time>2026-05-03T17:10:33.001Z</time></trkpt><trkpt lat="41.324106613390796" lon="-1.3371328344606324"><ele>1010.5999999999999</ele><time>2026-05-03T17:10:34.001Z</time></trkpt><trkpt lat="41.324064252401385" lon="-1.3370167763663392"><ele>1010.1999999999999</ele><time>2026-05-03T17:10:35.001Z</time></trkpt><trkpt lat="41.32403882738967" lon="-1.3368839554927046"><ele>1009.8000000000001</ele><time>2026-05-03T17:10:36.001Z</time></trkpt><trkpt lat="41.323995372741926" lon="-1.336769629682103"><ele>1009.4000000000001</ele><time>2026-05-03T17:10:37.001Z</time></trkpt><trkpt lat="41.32396466675847" lon="-1.336652797984646"><ele>1009.0</ele><time>2026-05-03T17:10:38.001Z</time></trkpt><trkpt lat="41.323933067674126" lon="-1.3365415271085104"><ele>1008.9999999999999</ele><time>2026-05-03T17:10:39.001Z</time></trkpt><trkpt lat="41.323907615395704" lon="-1.3364288496283148"><ele>1009.0</ele><time>2026-05-03T17:10:40.001Z</time></trkpt><trkpt lat="41.32390021170205" lon="-1.3363179734148571"><ele>1009.0</ele><time>2026-05-03T17:10:41.001Z</time></trkpt><trkpt lat="41.32391369975252" lon="-1.3362027518006496"><ele>1009.0</ele><time>2026-05-03T17:10:42.001Z</time></trkpt><trkpt lat="41.323944342130524" lon="-1.3360991165367808"><ele>1008.9999999999999</ele><time>2026-05-03T17:10:43.001Z</time></trkpt><trkpt lat="41.32399457140116" lon="-1.3360226331863516"><ele>1009.0</ele><time>2026-05-03T17:10:44.001Z</time></trkpt><trkpt lat="41.324060761816504" lon="-1.3359809408025232"><ele>1006.2</ele><time>2026-05-03T17:10:45.001Z</time></trkpt><trkpt lat="41.32414345359307" lon="-1.3359770496016266"><ele>1003.4000000000001</ele><time>2026-05-03T17:10:46.001Z</time></trkpt><trkpt lat="41.32423006962452" lon="-1.3360109131612359"><ele>1000.6</ele><time>2026-05-03T17:10:47.001Z</time></trkpt><trkpt lat="41.32431974767332" lon="-1.336063387740894"><ele>997.8</ele><time>2026-05-03T17:10:48.001Z</time></trkpt><trkpt lat="41.324405924452385" lon="-1.336120550548515"><ele>995.0</ele><time>2026-05-03T17:10:49.001Z</time></trkpt><trkpt lat="41.324497308786974" lon="-1.3361735156203236"><ele>995.0</ele><time>2026-05-03T17:10:50.001Z</time></trkpt><trkpt lat="41.32458801578092" lon="-1.3362217803116183"><ele>995.0</ele><time>2026-05-03T17:10:51.001Z</time></trkpt><trkpt lat="41.32467899184502" lon="-1.3362632839737"><ele>995.0</ele><time>2026-05-03T17:10:52.001Z</time></trkpt><trkpt lat="41.324765199359284" lon="-1.3363079295777907"><ele>995.0</ele><time>2026-05-03T17:10:53.001Z</time></trkpt><trkpt lat="41.32485060097669" lon="-1.3363476180406944"><ele>995.0</ele><time>2026-05-03T17:10:54.001Z</time></trkpt><trkpt lat="41.324937534698314" lon="-1.3363842841283362"><ele>995.1666666666667</ele><time>2026-05-03T17:10:55.001Z</time></trkpt><trkpt lat="41.32502502113813" lon="-1.3364135891000608"><ele>995.3333333333334</ele><time>2026-05-03T17:10:56.001Z</time></trkpt><trkpt lat="41.32510689576537" lon="-1.3364258940514557"><ele>995.5</ele><time>2026-05-03T17:10:57.001Z</time></trkpt><trkpt lat="41.32517847551411" lon="-1.3364188722613781"><ele>995.6666666666667</ele><time>2026-05-03T17:10:58.001Z</time></trkpt><trkpt lat="41.325244368721336" lon="-1.3363789118099896"><ele>995.8333333333334</ele><time>2026-05-03T17:10:59.001Z</time></trkpt><trkpt lat="41.32529079777941" lon="-1.3363080908846503"><ele>996.0</ele><time>2026-05-03T17:11:00.001Z</time></trkpt><trkpt lat="41.32528817751903" lon="-1.336201370786785"><ele>996.0</ele><time>2026-05-03T17:11:01.001Z</time></trkpt><trkpt lat="41.32523028542095" lon="-1.3361166674035687"><ele>995.9999999999999</ele><time>2026-05-03T17:11:02Z</time></trkpt><trkpt lat="41.32517705405776" lon="-1.3360321634868568"><ele>995.9999999999999</ele><time>2026-05-03T17:11:03Z</time></trkpt><trkpt lat="41.325130305312896" lon="-1.3359206359489018"><ele>996.0</ele><time>2026-05-03T17:11:04Z</time></trkpt><trkpt lat="41.325091500020534" lon="-1.33580283005738"><ele>996.0</ele><time>2026-05-03T17:11:05Z</time></trkpt><trkpt lat="41.32507876419048" lon="-1.3356774948619978"><ele>996.0</ele><time>2026-05-03T17:11:06Z</time></trkpt><trkpt lat="41.32505094645494" lon="-1.3355619960074427"><ele>995.9999999999999</ele><time>2026-05-03T17:11:07Z</time></trkpt><trkpt lat="41.32501979796261" lon="-1.3354425829616423"><ele>995.9999999999999</ele><time>2026-05-03T17:11:08Z</time></trkpt><trkpt lat="41.325035296708165" lon="-1.3353095593101507"><ele>996.0</ele><time>2026-05-03T17:11:09Z</time></trkpt><trkpt lat="41.32505773905863" lon="-1.3351739318650868"><ele>996.0</ele><time>2026-05-03T17:11:10Z</time></trkpt><trkpt lat="41.325062804860394" lon="-1.3350347235621245"><ele>995.0</ele><time>2026-05-03T17:11:11Z</time></trkpt><trkpt lat="41.325067638301256" lon="-1.334899541962863"><ele>993.9999999999999</ele><time>2026-05-03T17:11:12Z</time></trkpt><trkpt lat="41.325046350145236" lon="-1.3347700246589365"><ele>992.9999999999999</ele><time>2026-05-03T17:11:13Z</time></trkpt><trkpt lat="41.325020124275824" lon="-1.3346349315785466"><ele>992.0</ele><time>2026-05-03T17:11:14Z</time></trkpt><trkpt lat="41.32499239147018" lon="-1.3345015302603218"><ele>991.0</ele><time>2026-05-03T17:11:15Z</time></trkpt><trkpt lat="41.3249640916605" lon="-1.3343737276470482"><ele>991.0</ele><time>2026-05-03T17:11:16Z</time></trkpt><trkpt lat="41.324927904914404" lon="-1.3342567459362258"><ele>990.9999999999999</ele><time>2026-05-03T17:11:17Z</time></trkpt><trkpt lat="41.32488058116622" lon="-1.3341479091325443"><ele>990.9999999999999</ele><time>2026-05-03T17:11:18Z</time></trkpt><trkpt lat="41.32482493024047" lon="-1.3340368413802055"><ele>991.0</ele><time>2026-05-03T17:11:19Z</time></trkpt><trkpt lat="41.32476293530997" lon="-1.3339269583492446"><ele>991.0</ele><time>2026-05-03T17:11:20Z</time></trkpt><trkpt lat="41.324698587439265" lon="-1.3338176923256717"><ele>985.8</ele><time>2026-05-03T17:11:21Z</time></trkpt><trkpt lat="41.32463195272214" lon="-1.333704543125542"><ele>980.5999999999999</ele><time>2026-05-03T17:11:22Z</time></trkpt><trkpt lat="41.32456684526691" lon="-1.3335939872715752"><ele>975.4</ele><time>2026-05-03T17:11:23Z</time></trkpt><trkpt lat="41.32450243339162" lon="-1.333482801089456"><ele>970.2</ele><time>2026-05-03T17:11:24Z</time></trkpt><trkpt lat="41.324437082835686" lon="-1.3333697877376913"><ele>965.0</ele><time>2026-05-03T17:11:25Z</time></trkpt><trkpt lat="41.32438840287062" lon="-1.3332401227877042"><ele>965.0</ele><time>2026-05-03T17:11:26Z</time></trkpt><trkpt lat="41.324334333417276" lon="-1.3331234655115223"><ele>965.0</ele><time>2026-05-03T17:11:27Z</time></trkpt><trkpt lat="41.32428679632683" lon="-1.3329989149948471"><ele>965.0</ele><time>2026-05-03T17:11:28Z</time></trkpt><trkpt lat="41.324230731904386" lon="-1.3328831851184308"><ele>965.0</ele><time>2026-05-03T17:11:29Z</time></trkpt><trkpt lat="41.324226124780154" lon="-1.3327398046619272"><ele>965.0</ele><time>2026-05-03T17:11:30Z</time></trkpt><trkpt lat="41.32421573458622" lon="-1.3326022951192737"><ele>966.0</ele><time>2026-05-03T17:11:31Z</time></trkpt><trkpt lat="41.324213055353155" lon="-1.3324612966685336"><ele>967.0</ele><time>2026-05-03T17:11:32Z</time></trkpt><trkpt lat="41.324213577178064" lon="-1.3323145672180603"><ele>968.0</ele><time>2026-05-03T17:11:33Z</time></trkpt><trkpt lat="41.32421046971177" lon="-1.3321663722612516"><ele>969.0</ele><time>2026-05-03T17:11:34Z</time></trkpt><trkpt lat="41.32421606481237" lon="-1.332020965393617"><ele>970.0</ele><time>2026-05-03T17:11:35Z</time></trkpt><trkpt lat="41.32421262737245" lon="-1.3318790084149283"><ele>970.0</ele><time>2026-05-03T17:11:36Z</time></trkpt><trkpt lat="41.324213670599626" lon="-1.3317380698550814"><ele>970.0</ele><time>2026-05-03T17:11:37Z</time></trkpt><trkpt lat="41.32421355605405" lon="-1.3315947981102534"><ele>970.0</ele><time>2026-05-03T17:11:38Z</time></trkpt><trkpt lat="41.32420759781744" lon="-1.331450010331382"><ele>970.0</ele><time>2026-05-03T17:11:39Z</time></trkpt><trkpt lat="41.324172488251264" lon="-1.3313115784084164"><ele>970.0</ele><time>2026-05-03T17:11:40Z</time></trkpt><trkpt lat="41.324140792871205" lon="-1.3311671088838963"><ele>969.8</ele><time>2026-05-03T17:11:41Z</time></trkpt><trkpt lat="41.324106412547216" lon="-1.3310312321546414"><ele>969.6</ele><time>2026-05-03T17:11:42Z</time></trkpt><trkpt lat="41.32407147680827" lon="-1.3308975949987607"><ele>969.4000000000001</ele><time>2026-05-03T17:11:43Z</time></trkpt><trkpt lat="41.32403572348813" lon="-1.3307608304054277"><ele>969.2</ele><time>2026-05-03T17:11:44Z</time></trkpt><trkpt lat="41.32401030594848" lon="-1.3306241477336824"><ele>969.0</ele><time>2026-05-03T17:11:45Z</time></trkpt><trkpt lat="41.323976730762425" lon="-1.3304983993315547"><ele>968.8000000000001</ele><time>2026-05-03T17:11:46.001Z</time></trkpt><trkpt lat="41.32394535012183" lon="-1.3303656716663483"><ele>968.6000000000001</ele><time>2026-05-03T17:11:47.001Z</time></trkpt><trkpt lat="41.323907401139685" lon="-1.3302321530084316"><ele>968.4</ele><time>2026-05-03T17:11:48.001Z</time></trkpt><trkpt lat="41.3238830197018" lon="-1.330088631426404"><ele>968.2</ele><time>2026-05-03T17:11:49.001Z</time></trkpt><trkpt lat="41.32386622974261" lon="-1.3299524306896138"><ele>968.0</ele><time>2026-05-03T17:11:50.001Z</time></trkpt><trkpt lat="41.323856191617764" lon="-1.3298148897226925"><ele>966.4</ele><time>2026-05-03T17:11:51.001Z</time></trkpt><trkpt lat="41.3238452836726" lon="-1.3296833807720039"><ele>964.8</ele><time>2026-05-03T17:11:52.001Z</time></trkpt><trkpt lat="41.32386383978232" lon="-1.3295380366014704"><ele>963.2</ele><time>2026-05-03T17:11:53.001Z</time></trkpt><trkpt lat="41.323870792102234" lon="-1.3293941163416685"><ele>961.6</ele><time>2026-05-03T17:11:54.001Z</time></trkpt><trkpt lat="41.3238949970623" lon="-1.3292538301811305"><ele>960.0</ele><time>2026-05-03T17:11:55.001Z</time></trkpt><trkpt lat="41.3239286760755" lon="-1.3291214435635015"><ele>960.0</ele><time>2026-05-03T17:11:56.001Z</time></trkpt><trkpt lat="41.32395862008071" lon="-1.328984748544795"><ele>960.0</ele><time>2026-05-03T17:11:57.001Z</time></trkpt><trkpt lat="41.32398627760161" lon="-1.3288583150246758"><ele>960.0</ele><time>2026-05-03T17:11:58.001Z</time></trkpt><trkpt lat="41.32402580749026" lon="-1.3287271840887513"><ele>960.0</ele><time>2026-05-03T17:11:59.001Z</time></trkpt><trkpt lat="41.324083455562935" lon="-1.3286014882580397"><ele>960.0</ele><time>2026-05-03T17:12:00.001Z</time></trkpt><trkpt lat="41.32416123448943" lon="-1.3284931948078327"><ele>957.2</ele><time>2026-05-03T17:12:01.001Z</time></trkpt><trkpt lat="41.32424205386239" lon="-1.3283914950032447"><ele>954.4</ele><time>2026-05-03T17:12:02.001Z</time></trkpt><trkpt lat="41.32430813479624" lon="-1.328279424478822"><ele>951.5999999999999</ele><time>2026-05-03T17:12:03.001Z</time></trkpt><trkpt lat="41.324347565538545" lon="-1.3281424063260538"><ele>948.8</ele><time>2026-05-03T17:12:04.001Z</time></trkpt><trkpt lat="41.32438858306629" lon="-1.3280149289156016"><ele>946.0</ele><time>2026-05-03T17:12:05.001Z</time></trkpt><trkpt lat="41.324429954165254" lon="-1.3278873674290004"><ele>943.1999999999999</ele><time>2026-05-03T17:12:06.001Z</time></trkpt><trkpt lat="41.3244593070512" lon="-1.3277611141881889"><ele>940.3999999999999</ele><time>2026-05-03T17:12:07.001Z</time></trkpt><trkpt lat="41.32449394638018" lon="-1.3276395588770313"><ele>937.6</ele><time>2026-05-03T17:12:08.001Z</time></trkpt><trkpt lat="41.32452040265723" lon="-1.3275286337899872"><ele>934.8</ele><time>2026-05-03T17:12:09.001Z</time></trkpt><trkpt lat="41.32456046847975" lon="-1.3274259013676202"><ele>932.0</ele><time>2026-05-03T17:12:10.001Z</time></trkpt><trkpt lat="41.324616332393774" lon="-1.3273440620347667"><ele>932.0000000000001</ele><time>2026-05-03T17:12:11.001Z</time></trkpt><trkpt lat="41.324686303095945" lon="-1.3272965159757963"><ele>932.0</ele><time>2026-05-03T17:12:12.001Z</time></trkpt><trkpt lat="41.32476631599045" lon="-1.3272834217162452"><ele>932.0</ele><time>2026-05-03T17:12:13.001Z</time></trkpt><trkpt lat="41.324834180456676" lon="-1.3273048311610907"><ele>932.0</ele><time>2026-05-03T17:12:14.001Z</time></trkpt><trkpt lat="41.32491347845493" lon="-1.3273809588462901"><ele>932.0000000000001</ele><time>2026-05-03T17:12:15.001Z</time></trkpt><trkpt lat="41.32497791752868" lon="-1.3274818119678558"><ele>932.0</ele><time>2026-05-03T17:12:16.001Z</time></trkpt><trkpt lat="41.3250647534765" lon="-1.3275902346818576"><ele>933.5</ele><time>2026-05-03T17:12:17.001Z</time></trkpt><trkpt lat="41.325162604835704" lon="-1.3276699497595148"><ele>935.0</ele><time>2026-05-03T17:12:18.001Z</time></trkpt><trkpt lat="41.325261987486364" lon="-1.3277705091070395"><ele>936.5</ele><time>2026-05-03T17:12:19.001Z</time></trkpt><trkpt lat="41.32530154756208" lon="-1.3278921120164329"><ele>938.0</ele><time>2026-05-03T17:12:20.001Z</time></trkpt><trkpt lat="41.32536640504305" lon="-1.3280155005791296"><ele>941.2</ele><time>2026-05-03T17:12:21.001Z</time></trkpt><trkpt lat="41.32542532632731" lon="-1.3281372862278045"><ele>944.4</ele><time>2026-05-03T17:12:22.001Z</time></trkpt><trkpt lat="41.3254826912637" lon="-1.3282615005103735"><ele>947.6000000000001</ele><time>2026-05-03T17:12:23.001Z</time></trkpt><trkpt lat="41.325542874176854" lon="-1.3283881448183266"><ele>950.8000000000001</ele><time>2026-05-03T17:12:24.001Z</time></trkpt><trkpt lat="41.325594371019235" lon="-1.3285162627021683"><ele>954.0</ele><time>2026-05-03T17:12:25.001Z</time></trkpt><trkpt lat="41.32564025476568" lon="-1.3286208077475283"><ele>950.2</ele><time>2026-05-03T17:12:26.001Z</time></trkpt><trkpt lat="41.32568489124664" lon="-1.3287738025281814"><ele>946.4000000000001</ele><time>2026-05-03T17:12:27.001Z</time></trkpt><trkpt lat="41.325746468271134" lon="-1.328916830405154"><ele>942.6</ele><time>2026-05-03T17:12:28.001Z</time></trkpt><trkpt lat="41.325786000820855" lon="-1.3290271925675874"><ele>938.8</ele><time>2026-05-03T17:12:29.001Z</time></trkpt><trkpt lat="41.325855791588005" lon="-1.3291291811718844"><ele>935.0</ele><time>2026-05-03T17:12:30.001Z</time></trkpt><trkpt lat="41.32592712211865" lon="-1.329226295975632"><ele>935.0</ele><time>2026-05-03T17:12:31.001Z</time></trkpt><trkpt lat="41.32600272818087" lon="-1.3293136490681627"><ele>935.0</ele><time>2026-05-03T17:12:32.001Z</time></trkpt><trkpt lat="41.32610461018493" lon="-1.3293531466638042"><ele>935.0</ele><time>2026-05-03T17:12:33.001Z</time></trkpt><trkpt lat="41.326207816133476" lon="-1.3294217370726944"><ele>935.0</ele><time>2026-05-03T17:12:34.001Z</time></trkpt><trkpt lat="41.32630182116428" lon="-1.32947750472064"><ele>935.0</ele><time>2026-05-03T17:12:35.001Z</time></trkpt><trkpt lat="41.32639958220437" lon="-1.3295463774444445"><ele>934.0</ele><time>2026-05-03T17:12:36.001Z</time></trkpt><trkpt lat="41.32649712528728" lon="-1.3296196791565575"><ele>933.0</ele><time>2026-05-03T17:12:37.001Z</time></trkpt><trkpt lat="41.32658814494992" lon="-1.3297041801228673"><ele>932.0</ele><time>2026-05-03T17:12:38.001Z</time></trkpt><trkpt lat="41.326676728326824" lon="-1.3297970866378201"><ele>931.0</ele><time>2026-05-03T17:12:39.001Z</time></trkpt><trkpt lat="41.3267652164383" lon="-1.3298808576242542"><ele>930.0</ele><time>2026-05-03T17:12:40.001Z</time></trkpt><trkpt lat="41.326859605694274" lon="-1.3299653837426353"><ele>930.0</ele><time>2026-05-03T17:12:41.001Z</time></trkpt><trkpt lat="41.32694482815127" lon="-1.3300507169200813"><ele>930.0</ele><time>2026-05-03T17:12:42.001Z</time></trkpt><trkpt lat="41.32704297704221" lon="-1.330127342688889"><ele>930.0</ele><time>2026-05-03T17:12:43.001Z</time></trkpt><trkpt lat="41.327137282031444" lon="-1.3302010216140236"><ele>930.0</ele><time>2026-05-03T17:12:44.001Z</time></trkpt><trkpt lat="41.327241629743106" lon="-1.3302742298743997"><ele>930.0</ele><time>2026-05-03T17:12:45.001Z</time></trkpt><trkpt lat="41.32733732320455" lon="-1.3303456608781234"><ele>930.0</ele><time>2026-05-03T17:12:46.001Z</time></trkpt><trkpt lat="41.32743191980669" lon="-1.3304175512674237"><ele>930.0</ele><time>2026-05-03T17:12:47.001Z</time></trkpt><trkpt lat="41.32752870274559" lon="-1.3304860012393163"><ele>930.0</ele><time>2026-05-03T17:12:48.001Z</time></trkpt><trkpt lat="41.32761252373086" lon="-1.3305556706003627"><ele>930.0</ele><time>2026-05-03T17:12:49.001Z</time></trkpt><trkpt lat="41.32769627159931" lon="-1.330622521733014"><ele>930.0</ele><time>2026-05-03T17:12:50.001Z</time></trkpt><trkpt lat="41.32777733091469" lon="-1.330684938398619"><ele>930.0</ele><time>2026-05-03T17:12:51.001Z</time></trkpt><trkpt lat="41.32785023728529" lon="-1.3307455063602613"><ele>930.0</ele><time>2026-05-03T17:12:52.001Z</time></trkpt><trkpt lat="41.32792166411435" lon="-1.3308034672376534"><ele>930.0</ele><time>2026-05-03T17:12:53.001Z</time></trkpt><trkpt lat="41.32798951417193" lon="-1.3308410210634516"><ele>930.0</ele><time>2026-05-03T17:12:54.001Z</time></trkpt><trkpt lat="41.328059307333824" lon="-1.3308488516189576"><ele>930.0</ele><time>2026-05-03T17:12:55.001Z</time></trkpt><trkpt lat="41.32812190309692" lon="-1.3307789270480215"><ele>930.0</ele><time>2026-05-03T17:12:56.002Z</time></trkpt><trkpt lat="41.32817539075886" lon="-1.3307185970202697"><ele>929.8</ele><time>2026-05-03T17:12:57.002Z</time></trkpt><trkpt lat="41.328157387824625" lon="-1.3306065276618693"><ele>929.6</ele><time>2026-05-03T17:12:58.002Z</time></trkpt><trkpt lat="41.328119955652575" lon="-1.3305098754359077"><ele>929.4000000000001</ele><time>2026-05-03T17:12:59.002Z</time></trkpt><trkpt lat="41.32804847336044" lon="-1.3304316492384203"><ele>929.2</ele><time>2026-05-03T17:13:00.002Z</time></trkpt><trkpt lat="41.32799051669711" lon="-1.3303265351118099"><ele>929.0</ele><time>2026-05-03T17:13:01.002Z</time></trkpt><trkpt lat="41.32793092132673" lon="-1.3302184489000686"><ele>925.8000000000001</ele><time>2026-05-03T17:13:02.002Z</time></trkpt><trkpt lat="41.32787113249555" lon="-1.3301100118289095"><ele>922.6000000000001</ele><time>2026-05-03T17:13:03.002Z</time></trkpt><trkpt lat="41.327810884532475" lon="-1.3299962864692911"><ele>919.4</ele><time>2026-05-03T17:13:04.002Z</time></trkpt><trkpt lat="41.32774977733126" lon="-1.3298804962782735"><ele>916.2</ele><time>2026-05-03T17:13:05.002Z</time></trkpt><trkpt lat="41.32769872269255" lon="-1.3297503132104511"><ele>913.0</ele><time>2026-05-03T17:13:06.002Z</time></trkpt><trkpt lat="41.32763237347358" lon="-1.329626924729236"><ele>912.5</ele><time>2026-05-03T17:13:07.002Z</time></trkpt><trkpt lat="41.32756743779467" lon="-1.3294967799195283"><ele>912.0</ele><time>2026-05-03T17:13:08Z</time></trkpt><trkpt lat="41.32751283623418" lon="-1.329370317158723"><ele>911.5</ele><time>2026-05-03T17:13:09Z</time></trkpt><trkpt lat="41.327455249903096" lon="-1.329234731717855"><ele>911.0</ele><time>2026-05-03T17:13:10Z</time></trkpt><trkpt lat="41.327396238767555" lon="-1.3291088075651527"><ele>911.0</ele><time>2026-05-03T17:13:11Z</time></trkpt><trkpt lat="41.32733816790097" lon="-1.328977580757869"><ele>911.0</ele><time>2026-05-03T17:13:12Z</time></trkpt><trkpt lat="41.327283838054655" lon="-1.3288507353205115"><ele>911.0</ele><time>2026-05-03T17:13:13Z</time></trkpt><trkpt lat="41.32723223121294" lon="-1.3287180640478686"><ele>911.0</ele><time>2026-05-03T17:13:14Z</time></trkpt><trkpt lat="41.32717794219882" lon="-1.3285853343188818"><ele>907.5999999999999</ele><time>2026-05-03T17:13:15Z</time></trkpt><trkpt lat="41.32712333264549" lon="-1.3284613353521992"><ele>904.1999999999999</ele><time>2026-05-03T17:13:16Z</time></trkpt><trkpt lat="41.32707652825014" lon="-1.328337728276704"><ele>900.8000000000001</ele><time>2026-05-03T17:13:17Z</time></trkpt><trkpt lat="41.32703417369666" lon="-1.3282098027510838"><ele>897.4000000000001</ele><time>2026-05-03T17:13:18Z</time></trkpt><trkpt lat="41.327001446001304" lon="-1.3280713309086005"><ele>894.0</ele><time>2026-05-03T17:13:19Z</time></trkpt><trkpt lat="41.32698067091185" lon="-1.3279263878143566"><ele>892.4000000000001</ele><time>2026-05-03T17:13:20Z</time></trkpt><trkpt lat="41.3269676364959" lon="-1.3277774135273759"><ele>890.8000000000001</ele><time>2026-05-03T17:13:21Z</time></trkpt><trkpt lat="41.32696124915665" lon="-1.3276309490139444"><ele>889.1999999999999</ele><time>2026-05-03T17:13:22Z</time></trkpt><trkpt lat="41.3269606032498" lon="-1.327487115858396"><ele>887.5999999999999</ele><time>2026-05-03T17:13:23Z</time></trkpt><trkpt lat="41.32695571104039" lon="-1.327345415613455"><ele>886.0</ele><time>2026-05-03T17:13:24Z</time></trkpt><trkpt lat="41.326960895202646" lon="-1.3271949039021191"><ele>884.5999999999999</ele><time>2026-05-03T17:13:25Z</time></trkpt><trkpt lat="41.32698372643171" lon="-1.327047466812807"><ele>883.1999999999999</ele><time>2026-05-03T17:13:26Z</time></trkpt><trkpt lat="41.32702691690984" lon="-1.3269113916983941"><ele>881.8000000000001</ele><time>2026-05-03T17:13:27Z</time></trkpt><trkpt lat="41.327079525270385" lon="-1.326787651775829"><ele>880.4000000000001</ele><time>2026-05-03T17:13:28Z</time></trkpt><trkpt lat="41.32712961888206" lon="-1.3266675473364637"><ele>879.0</ele><time>2026-05-03T17:13:29Z</time></trkpt><trkpt lat="41.327164923267176" lon="-1.326541233329929"><ele>879.0</ele><time>2026-05-03T17:13:30Z</time></trkpt><trkpt lat="41.32717295814617" lon="-1.3263958984933548"><ele>879.0000000000001</ele><time>2026-05-03T17:13:31Z</time></trkpt><trkpt lat="41.327156195917105" lon="-1.3262518445718314"><ele>879.0000000000001</ele><time>2026-05-03T17:13:32Z</time></trkpt><trkpt lat="41.32710500494686" lon="-1.326118673143391"><ele>879.0</ele><time>2026-05-03T17:13:33Z</time></trkpt><trkpt lat="41.32703981821837" lon="-1.3259957327952898"><ele>879.0</ele><time>2026-05-03T17:13:34Z</time></trkpt><trkpt lat="41.326985156355" lon="-1.3258652385061767"><ele>878.6</ele><time>2026-05-03T17:13:35Z</time></trkpt><trkpt lat="41.32695672255428" lon="-1.3257190316906988"><ele>878.2</ele><time>2026-05-03T17:13:36Z</time></trkpt><trkpt lat="41.326928836577615" lon="-1.3255618622585024"><ele>877.8000000000001</ele><time>2026-05-03T17:13:37Z</time></trkpt><trkpt lat="41.326904921304774" lon="-1.3254339695236252"><ele>877.4000000000001</ele><time>2026-05-03T17:13:38Z</time></trkpt><trkpt lat="41.326885572468775" lon="-1.3252821116046667"><ele>877.0</ele><time>2026-05-03T17:13:39Z</time></trkpt><trkpt lat="41.32686093189273" lon="-1.3251336738461976"><ele>877.0</ele><time>2026-05-03T17:13:40Z</time></trkpt><trkpt lat="41.32683122249419" lon="-1.3249871377909819"><ele>877.0</ele><time>2026-05-03T17:13:41Z</time></trkpt><trkpt lat="41.32680600954801" lon="-1.3248443045075409"><ele>877.0</ele><time>2026-05-03T17:13:42Z</time></trkpt><trkpt lat="41.32678192230799" lon="-1.3247026799191595"><ele>877.0</ele><time>2026-05-03T17:13:43Z</time></trkpt><trkpt lat="41.3267536627405" lon="-1.3245631126448538"><ele>877.0</ele><time>2026-05-03T17:13:44Z</time></trkpt><trkpt lat="41.326737470703286" lon="-1.32442680314291"><ele>876.6</ele><time>2026-05-03T17:13:45Z</time></trkpt><trkpt lat="41.32674219405011" lon="-1.324283206004043"><ele>876.2</ele><time>2026-05-03T17:13:46Z</time></trkpt><trkpt lat="41.32676235389953" lon="-1.3241307491090804"><ele>875.8</ele><time>2026-05-03T17:13:47Z</time></trkpt><trkpt lat="41.32678607243341" lon="-1.3239769534818822"><ele>875.4</ele><time>2026-05-03T17:13:48Z</time></trkpt><trkpt lat="41.32682808895957" lon="-1.3238474177902704"><ele>875.0</ele><time>2026-05-03T17:13:49.001Z</time></trkpt><trkpt lat="41.326910431134756" lon="-1.3237524931916036"><ele>871.6666666666667</ele><time>2026-05-03T17:13:50.001Z</time></trkpt><trkpt lat="41.32700404617643" lon="-1.3236731557703918"><ele>868.3333333333333</ele><time>2026-05-03T17:13:51.001Z</time></trkpt><trkpt lat="41.32691612871801" lon="-1.3233869671747585"><ele>865.0</ele><time>2026-05-03T17:13:52.001Z</time></trkpt><trkpt lat="41.326931630752746" lon="-1.3232383534783616"><ele>865.0</ele><time>2026-05-03T17:13:53.001Z</time></trkpt><trkpt lat="41.326939376145496" lon="-1.3230882432485642"><ele>865.0</ele><time>2026-05-03T17:13:54.001Z</time></trkpt><trkpt lat="41.326930202340904" lon="-1.3229385528462965"><ele>865.0</ele><time>2026-05-03T17:13:55.001Z</time></trkpt><trkpt lat="41.32690941562193" lon="-1.322788900951063"><ele>865.0</ele><time>2026-05-03T17:13:56.001Z</time></trkpt><trkpt lat="41.3268926261967" lon="-1.3226398739605079"><ele>863.8</ele><time>2026-05-03T17:13:57.001Z</time></trkpt><trkpt lat="41.32687527038625" lon="-1.3224926778105577"><ele>862.6</ele><time>2026-05-03T17:13:58.001Z</time></trkpt><trkpt lat="41.32685870873624" lon="-1.3223433556555944"><ele>861.4000000000001</ele><time>2026-05-03T17:13:59.001Z</time></trkpt><trkpt lat="41.32684221811948" lon="-1.3221973788957215"><ele>860.2</ele><time>2026-05-03T17:14:00.001Z</time></trkpt><trkpt lat="41.326826176605344" lon="-1.322052042384737"><ele>859.0</ele><time>2026-05-03T17:14:01.001Z</time></trkpt><trkpt lat="41.3268107223009" lon="-1.3219101968839957"><ele>858.6</ele><time>2026-05-03T17:14:02.001Z</time></trkpt><trkpt lat="41.32679516995384" lon="-1.3217744014831356"><ele>858.2</ele><time>2026-05-03T17:14:03.001Z</time></trkpt><trkpt lat="41.32678709130542" lon="-1.3216341969249306"><ele>857.8000000000001</ele><time>2026-05-03T17:14:04.001Z</time></trkpt><trkpt lat="41.32679634133613" lon="-1.3214953854482523"><ele>857.4000000000001</ele><time>2026-05-03T17:14:05.001Z</time></trkpt><trkpt lat="41.32681611439752" lon="-1.3213523784107928"><ele>857.0</ele><time>2026-05-03T17:14:06.001Z</time></trkpt><trkpt lat="41.32684524769584" lon="-1.3212100959745297"><ele>855.4000000000001</ele><time>2026-05-03T17:14:07.001Z</time></trkpt><trkpt lat="41.32685407216769" lon="-1.3210660789727184"><ele>853.8000000000001</ele><time>2026-05-03T17:14:08.001Z</time></trkpt><trkpt lat="41.326872561513866" lon="-1.320923496657348"><ele>852.2</ele><time>2026-05-03T17:14:09.001Z</time></trkpt><trkpt lat="41.32689474208274" lon="-1.320779106486433"><ele>850.6</ele><time>2026-05-03T17:14:10.001Z</time></trkpt><trkpt lat="41.326927911455975" lon="-1.3206356198493125"><ele>849.0</ele><time>2026-05-03T17:14:11.001Z</time></trkpt><trkpt lat="41.32696714607487" lon="-1.3204946228728365"><ele>847.0</ele><time>2026-05-03T17:14:12.001Z</time></trkpt><trkpt lat="41.32700302272658" lon="-1.3203643313657865"><ele>845.0</ele><time>2026-05-03T17:14:13.001Z</time></trkpt><trkpt lat="41.32704190749745" lon="-1.3202416125945486"><ele>843.0</ele><time>2026-05-03T17:14:14.001Z</time></trkpt><trkpt lat="41.327084677114726" lon="-1.320136912482746"><ele>841.0</ele><time>2026-05-03T17:14:15.001Z</time></trkpt><trkpt lat="41.32712970015275" lon="-1.3200228600049737"><ele>839.0</ele><time>2026-05-03T17:14:16.001Z</time></trkpt><trkpt lat="41.327182874981474" lon="-1.3199194963620218"><ele>839.4000000000001</ele><time>2026-05-03T17:14:17.001Z</time></trkpt><trkpt lat="41.32725778757563" lon="-1.3198369516432087"><ele>839.8</ele><time>2026-05-03T17:14:18.001Z</time></trkpt><trkpt lat="41.32735212846252" lon="-1.319785152190717"><ele>840.2</ele><time>2026-05-03T17:14:19.001Z</time></trkpt><trkpt lat="41.32746599397311" lon="-1.3197529923638274"><ele>840.5999999999999</ele><time>2026-05-03T17:14:20.001Z</time></trkpt><trkpt lat="41.32757022480708" lon="-1.319715486970373"><ele>841.0</ele><time>2026-05-03T17:14:21.001Z</time></trkpt><trkpt lat="41.32765799490942" lon="-1.3196283049731525"><ele>841.0</ele><time>2026-05-03T17:14:22.001Z</time></trkpt><trkpt lat="41.327717639044835" lon="-1.3195085555441202"><ele>841.0</ele><time>2026-05-03T17:14:23.001Z</time></trkpt><trkpt lat="41.32774339756473" lon="-1.3193609533021966"><ele>841.0</ele><time>2026-05-03T17:14:24.001Z</time></trkpt><trkpt lat="41.327751726652956" lon="-1.319212245734396"><ele>841.0</ele><time>2026-05-03T17:14:25.001Z</time></trkpt><trkpt lat="41.32776621590395" lon="-1.319071264118451"><ele>841.0</ele><time>2026-05-03T17:14:26.001Z</time></trkpt><trkpt lat="41.32778935920977" lon="-1.318938755842933"><ele>841.8</ele><time>2026-05-03T17:14:27.001Z</time></trkpt><trkpt lat="41.32781832464263" lon="-1.3188103223081777"><ele>842.5999999999999</ele><time>2026-05-03T17:14:28.001Z</time></trkpt><trkpt lat="41.32786335206795" lon="-1.3186901536089193"><ele>843.4</ele><time>2026-05-03T17:14:29.001Z</time></trkpt><trkpt lat="41.32792886288402" lon="-1.3185768131194988"><ele>844.2</ele><time>2026-05-03T17:14:30.001Z</time></trkpt><trkpt lat="41.32801231776745" lon="-1.3184801114137619"><ele>845.0</ele><time>2026-05-03T17:14:31.001Z</time></trkpt><trkpt lat="41.32810711060613" lon="-1.3183971216478232"><ele>845.0</ele><time>2026-05-03T17:14:32.001Z</time></trkpt><trkpt lat="41.32820070836982" lon="-1.318320702290113"><ele>845.0</ele><time>2026-05-03T17:14:33.001Z</time></trkpt><trkpt lat="41.328295199006035" lon="-1.3182413433489155"><ele>845.0</ele><time>2026-05-03T17:14:34.001Z</time></trkpt><trkpt lat="41.328385509756245" lon="-1.318172578351378"><ele>845.0</ele><time>2026-05-03T17:14:35.001Z</time></trkpt><trkpt lat="41.32848879486201" lon="-1.318129082995465"><ele>845.0</ele><time>2026-05-03T17:14:36.001Z</time></trkpt><trkpt lat="41.32859957215639" lon="-1.318105900391926"><ele>845.0</ele><time>2026-05-03T17:14:37.001Z</time></trkpt><trkpt lat="41.32871362174382" lon="-1.318107611102782"><ele>845.0</ele><time>2026-05-03T17:14:38.001Z</time></trkpt><trkpt lat="41.32882764428984" lon="-1.3181099582652795"><ele>845.0</ele><time>2026-05-03T17:14:39.001Z</time></trkpt><trkpt lat="41.328934406223816" lon="-1.3181104886120223"><ele>845.0</ele><time>2026-05-03T17:14:40.001Z</time></trkpt><trkpt lat="41.32904520552128" lon="-1.318112815486703"><ele>845.0</ele><time>2026-05-03T17:14:41.001Z</time></trkpt><trkpt lat="41.32915421214496" lon="-1.3181143612556383"><ele>844.6</ele><time>2026-05-03T17:14:42.001Z</time></trkpt><trkpt lat="41.329254722570866" lon="-1.318116115303317"><ele>844.2</ele><time>2026-05-03T17:14:43.001Z</time></trkpt><trkpt lat="41.32936332241545" lon="-1.3181257220070377"><ele>843.8</ele><time>2026-05-03T17:14:44.001Z</time></trkpt><trkpt lat="41.32946799746457" lon="-1.3181454105214894"><ele>843.4</ele><time>2026-05-03T17:14:45.001Z</time></trkpt><trkpt lat="41.3295708917479" lon="-1.3181629536532726"><ele>843.0</ele><time>2026-05-03T17:14:46.001Z</time></trkpt><trkpt lat="41.32966837502393" lon="-1.3181653048561062"><ele>842.8333333333334</ele><time>2026-05-03T17:14:47.001Z</time></trkpt><trkpt lat="41.32975386213287" lon="-1.3181304324737677"><ele>842.6666666666667</ele><time>2026-05-03T17:14:48.001Z</time></trkpt><trkpt lat="41.32981847145041" lon="-1.3180653529815725"><ele>842.5</ele><time>2026-05-03T17:14:49.001Z</time></trkpt><trkpt lat="41.329861506438974" lon="-1.3179767118949846"><ele>842.3333333333334</ele><time>2026-05-03T17:14:50.001Z</time></trkpt><trkpt lat="41.32984434121611" lon="-1.317864384937624"><ele>842.1666666666667</ele><time>2026-05-03T17:14:51.001Z</time></trkpt><trkpt lat="41.32980567829813" lon="-1.3177767242264988"><ele>842.0</ele><time>2026-05-03T17:14:52.001Z</time></trkpt><trkpt lat="41.32974993242734" lon="-1.317702873571987"><ele>839.2</ele><time>2026-05-03T17:14:53.001Z</time></trkpt><trkpt lat="41.32968371968352" lon="-1.3176282075240824"><ele>836.4000000000001</ele><time>2026-05-03T17:14:54.001Z</time></trkpt><trkpt lat="41.32962026743889" lon="-1.3175330960598532"><ele>833.5999999999999</ele><time>2026-05-03T17:14:55.001Z</time></trkpt><trkpt lat="41.32955559257169" lon="-1.3174302181906397"><ele>830.8</ele><time>2026-05-03T17:14:56.001Z</time></trkpt><trkpt lat="41.32948827226824" lon="-1.3173176700020124"><ele>828.0</ele><time>2026-05-03T17:14:57.001Z</time></trkpt><trkpt lat="41.32942103384711" lon="-1.3172035180641406"><ele>827.5999999999999</ele><time>2026-05-03T17:14:58.001Z</time></trkpt><trkpt lat="41.32935481390598" lon="-1.3170886954748813"><ele>827.1999999999999</ele><time>2026-05-03T17:14:59.001Z</time></trkpt><trkpt lat="41.329299257885104" lon="-1.316957185114053"><ele>826.8</ele><time>2026-05-03T17:15:00.001Z</time></trkpt><trkpt lat="41.329221466617845" lon="-1.316842114039391"><ele>826.4</ele><time>2026-05-03T17:15:01.001Z</time></trkpt><trkpt lat="41.32916014890161" lon="-1.3167285966353104"><ele>826.0</ele><time>2026-05-03T17:15:02.001Z</time></trkpt><trkpt lat="41.32909576217329" lon="-1.316614742684079"><ele>826.0</ele><time>2026-05-03T17:15:03.001Z</time></trkpt><trkpt lat="41.32902781732575" lon="-1.3164943933998436"><ele>826.0</ele><time>2026-05-03T17:15:04.001Z</time></trkpt><trkpt lat="41.32899024808349" lon="-1.3163535080981845"><ele>826.0</ele><time>2026-05-03T17:15:05.001Z</time></trkpt><trkpt lat="41.328940190366716" lon="-1.316224204029338"><ele>826.0</ele><time>2026-05-03T17:15:06.001Z</time></trkpt><trkpt lat="41.328899770611976" lon="-1.31610068881923"><ele>826.0</ele><time>2026-05-03T17:15:07.002Z</time></trkpt><trkpt lat="41.32886483316204" lon="-1.3159741335108324"><ele>824.1999999999999</ele><time>2026-05-03T17:15:08.002Z</time></trkpt><trkpt lat="41.328848392956914" lon="-1.3158399673325916"><ele>822.4</ele><time>2026-05-03T17:15:09.002Z</time></trkpt><trkpt lat="41.32885105906687" lon="-1.315689944965391"><ele>820.6</ele><time>2026-05-03T17:15:10.002Z</time></trkpt><trkpt lat="41.32887046675584" lon="-1.3155405286354416"><ele>818.8</ele><time>2026-05-03T17:15:11.002Z</time></trkpt><trkpt lat="41.328903945800214" lon="-1.315394559293675"><ele>817.0</ele><time>2026-05-03T17:15:12.002Z</time></trkpt><trkpt lat="41.32894757336856" lon="-1.3152504977624304"><ele>817.0</ele><time>2026-05-03T17:15:13.002Z</time></trkpt><trkpt lat="41.329010869445774" lon="-1.3151288379859827"><ele>817.0</ele><time>2026-05-03T17:15:14Z</time></trkpt><trkpt lat="41.32908370549789" lon="-1.315016445916864"><ele>817.0</ele><time>2026-05-03T17:15:15Z</time></trkpt><trkpt lat="41.32915739916346" lon="-1.314904747255677"><ele>817.0</ele><time>2026-05-03T17:15:16Z</time></trkpt><trkpt lat="41.32920769269812" lon="-1.3147669951045287"><ele>817.0</ele><time>2026-05-03T17:15:17Z</time></trkpt><trkpt lat="41.32924204812172" lon="-1.3146141969646947"><ele>815.4000000000001</ele><time>2026-05-03T17:15:18Z</time></trkpt><trkpt lat="41.329259851709196" lon="-1.3144708021973408"><ele>813.8000000000001</ele><time>2026-05-03T17:15:19Z</time></trkpt><trkpt lat="41.32928072966606" lon="-1.3143263862908727"><ele>812.2</ele><time>2026-05-03T17:15:20Z</time></trkpt><trkpt lat="41.329295521688934" lon="-1.3141838009831077"><ele>810.6</ele><time>2026-05-03T17:15:21Z</time></trkpt><trkpt lat="41.32930603447389" lon="-1.3140447870034282"><ele>809.0</ele><time>2026-05-03T17:15:22Z</time></trkpt><trkpt lat="41.32932019592462" lon="-1.3139081671556527"><ele>807.3333333333334</ele><time>2026-05-03T17:15:23Z</time></trkpt><trkpt lat="41.32933995437553" lon="-1.3137854572304455"><ele>805.6666666666667</ele><time>2026-05-03T17:15:24Z</time></trkpt><trkpt lat="41.329369421505845" lon="-1.3136789486665972"><ele>804.0</ele><time>2026-05-03T17:15:25Z</time></trkpt><trkpt lat="41.32941372283598" lon="-1.3135842679343572"><ele>802.3333333333333</ele><time>2026-05-03T17:15:26Z</time></trkpt><trkpt lat="41.32947518023267" lon="-1.3135035865389093"><ele>800.6666666666666</ele><time>2026-05-03T17:15:27Z</time></trkpt><trkpt lat="41.32955829310322" lon="-1.3134573483855896"><ele>799.0</ele><time>2026-05-03T17:15:28Z</time></trkpt><trkpt lat="41.32965028334396" lon="-1.3134597924168294"><ele>800.0</ele><time>2026-05-03T17:15:29Z</time></trkpt><trkpt lat="41.329736769244676" lon="-1.3135034869502693"><ele>801.0</ele><time>2026-05-03T17:15:30Z</time></trkpt><trkpt lat="41.32980999222401" lon="-1.3135888119690726"><ele>802.0</ele><time>2026-05-03T17:15:31Z</time></trkpt><trkpt lat="41.32986392022793" lon="-1.313702550031538"><ele>803.0</ele><time>2026-05-03T17:15:32Z</time></trkpt><trkpt lat="41.3299250240335" lon="-1.313808195992167"><ele>804.0</ele><time>2026-05-03T17:15:33Z</time></trkpt><trkpt lat="41.33000879283434" lon="-1.313860610349613"><ele>804.0</ele><time>2026-05-03T17:15:34Z</time></trkpt><trkpt lat="41.33010640084893" lon="-1.3138644747165813"><ele>804.0</ele><time>2026-05-03T17:15:35Z</time></trkpt><trkpt lat="41.33020300480292" lon="-1.3138322527643604"><ele>804.0</ele><time>2026-05-03T17:15:36Z</time></trkpt><trkpt lat="41.330291435368046" lon="-1.3137703071659095"><ele>804.0</ele><time>2026-05-03T17:15:37Z</time></trkpt><trkpt lat="41.330370401749136" lon="-1.3137071563429052"><ele>804.0</ele><time>2026-05-03T17:15:38Z</time></trkpt><trkpt lat="41.330433370804506" lon="-1.3136314452524078"><ele>804.0</ele><time>2026-05-03T17:15:39Z</time></trkpt><trkpt lat="41.33047718614333" lon="-1.3135369156162542"><ele>804.0</ele><time>2026-05-03T17:15:40Z</time></trkpt><trkpt lat="41.33046802850582" lon="-1.3134183387778076"><ele>804.0</ele><time>2026-05-03T17:15:41Z</time></trkpt><trkpt lat="41.33044116764355" lon="-1.3133068295965504"><ele>804.0</ele><time>2026-05-03T17:15:42Z</time></trkpt><trkpt lat="41.330396172819505" lon="-1.313205928151893"><ele>804.0</ele><time>2026-05-03T17:15:43Z</time></trkpt><trkpt lat="41.33035854664517" lon="-1.313088125062888"><ele>804.0</ele><time>2026-05-03T17:15:44Z</time></trkpt><trkpt lat="41.3303138294258" lon="-1.3129745700987314"><ele>803.4000000000001</ele><time>2026-05-03T17:15:45Z</time></trkpt><trkpt lat="41.330260832005195" lon="-1.3128654161056221"><ele>802.8</ele><time>2026-05-03T17:15:46Z</time></trkpt><trkpt lat="41.33019951791684" lon="-1.312761507219439"><ele>802.2</ele><time>2026-05-03T17:15:47Z</time></trkpt><trkpt lat="41.33013274084142" lon="-1.3126583119367345"><ele>801.5999999999999</ele><time>2026-05-03T17:15:48Z</time></trkpt><trkpt lat="41.330065678918366" lon="-1.312555393329189"><ele>801.0</ele><time>2026-05-03T17:15:49Z</time></trkpt><trkpt lat="41.32999541313989" lon="-1.3124475582886246"><ele>801.0</ele><time>2026-05-03T17:15:50Z</time></trkpt><trkpt lat="41.32992394325348" lon="-1.3123378751609982"><ele>801.0</ele><time>2026-05-03T17:15:51Z</time></trkpt><trkpt lat="41.329855354245154" lon="-1.31223263453214"><ele>801.0</ele><time>2026-05-03T17:15:52Z</time></trkpt><trkpt lat="41.329801170642185" lon="-1.3121187314339469"><ele>801.0</ele><time>2026-05-03T17:15:53Z</time></trkpt><trkpt lat="41.32973250825668" lon="-1.3120243490188233"><ele>801.0</ele><time>2026-05-03T17:15:54Z</time></trkpt><trkpt lat="41.32966499397142" lon="-1.311929058496651"><ele>799.8</ele><time>2026-05-03T17:15:55Z</time></trkpt><trkpt lat="41.329624667647515" lon="-1.3118070881874044"><ele>798.5999999999999</ele><time>2026-05-03T17:15:56Z</time></trkpt><trkpt lat="41.32962948412308" lon="-1.3116712213325235"><ele>797.4</ele><time>2026-05-03T17:15:57Z</time></trkpt><trkpt lat="41.32965207159924" lon="-1.311541684710102"><ele>796.2</ele><time>2026-05-03T17:15:58Z</time></trkpt><trkpt lat="41.329695263746615" lon="-1.311418783183173"><ele>795.0</ele><time>2026-05-03T17:15:59Z</time></trkpt><trkpt lat="41.32974412878117" lon="-1.3112827590971026"><ele>795.0</ele><time>2026-05-03T17:16:00Z</time></trkpt><trkpt lat="41.329763617321" lon="-1.3111536836810178"><ele>795.0</ele><time>2026-05-03T17:16:01Z</time></trkpt><trkpt lat="41.329799179688045" lon="-1.3110229546158085"><ele>795.0</ele><time>2026-05-03T17:16:02Z</time></trkpt><trkpt lat="41.32983278158516" lon="-1.310888389311676"><ele>795.0</ele><time>2026-05-03T17:16:03.001Z</time></trkpt><trkpt lat="41.32985886235178" lon="-1.3107466135904196"><ele>795.0</ele><time>2026-05-03T17:16:04.001Z</time></trkpt><trkpt lat="41.32988497159043" lon="-1.310604987131999"><ele>793.4</ele><time>2026-05-03T17:16:05.001Z</time></trkpt><trkpt lat="41.329909863168226" lon="-1.3104607026729118"><ele>791.8</ele><time>2026-05-03T17:16:06.001Z</time></trkpt><trkpt lat="41.32993755126546" lon="-1.3103184118935256"><ele>790.2</ele><time>2026-05-03T17:16:07.001Z</time></trkpt><trkpt lat="41.329953131812566" lon="-1.3101775316904936"><ele>788.6</ele><time>2026-05-03T17:16:08.001Z</time></trkpt><trkpt lat="41.329988101279596" lon="-1.310028788890237"><ele>787.0</ele><time>2026-05-03T17:16:09.001Z</time></trkpt><trkpt lat="41.32999568391737" lon="-1.3098827175138061"><ele>785.8</ele><time>2026-05-03T17:16:10.001Z</time></trkpt><trkpt lat="41.330017352762965" lon="-1.3097325888081104"><ele>784.6</ele><time>2026-05-03T17:16:11.001Z</time></trkpt><trkpt lat="41.33005344472388" lon="-1.309596485799779"><ele>783.4</ele><time>2026-05-03T17:16:12.001Z</time></trkpt><trkpt lat="41.330058572797626" lon="-1.3094470038004982"><ele>782.1999999999999</ele><time>2026-05-03T17:16:13.001Z</time></trkpt><trkpt lat="41.3300857428854" lon="-1.309302006917847"><ele>781.0</ele><time>2026-05-03T17:16:14.001Z</time></trkpt><trkpt lat="41.330111228611365" lon="-1.3091583188917777"><ele>781.0</ele><time>2026-05-03T17:16:15.001Z</time></trkpt><trkpt lat="41.33012293561468" lon="-1.3090072551346965"><ele>781.0</ele><time>2026-05-03T17:16:16.001Z</time></trkpt><trkpt lat="41.33014550177867" lon="-1.3088591947192432"><ele>781.0</ele><time>2026-05-03T17:16:17.001Z</time></trkpt><trkpt lat="41.33016601173219" lon="-1.3087171221201752"><ele>781.0</ele><time>2026-05-03T17:16:18.001Z</time></trkpt><trkpt lat="41.33019205136502" lon="-1.3085811119145907"><ele>781.0</ele><time>2026-05-03T17:16:19.001Z</time></trkpt><trkpt lat="41.33020610648755" lon="-1.3084396818597979"><ele>779.8</ele><time>2026-05-03T17:16:20.001Z</time></trkpt><trkpt lat="41.330240742831094" lon="-1.3083053290741173"><ele>778.5999999999999</ele><time>2026-05-03T17:16:21.001Z</time></trkpt><trkpt lat="41.3302589716541" lon="-1.3081560649278"><ele>777.4</ele><time>2026-05-03T17:16:22.001Z</time></trkpt><trkpt lat="41.3302842275734" lon="-1.3080132125308541"><ele>776.2</ele><time>2026-05-03T17:16:23.001Z</time></trkpt><trkpt lat="41.33029148925124" lon="-1.3078601255482958"><ele>775.0</ele><time>2026-05-03T17:16:24.001Z</time></trkpt><trkpt lat="41.3303142206369" lon="-1.3077138595757656"><ele>773.5</ele><time>2026-05-03T17:16:25.001Z</time></trkpt><trkpt lat="41.33035201708293" lon="-1.3075642488712946"><ele>772.0</ele><time>2026-05-03T17:16:26.001Z</time></trkpt><trkpt lat="41.330360372412315" lon="-1.3074168942240667"><ele>770.5</ele><time>2026-05-03T17:16:27.001Z</time></trkpt><trkpt lat="41.330392445335676" lon="-1.3072733561781054"><ele>769.0</ele><time>2026-05-03T17:16:28.001Z</time></trkpt><trkpt lat="41.33041586020613" lon="-1.3071316512188937"><ele>767.75</ele><time>2026-05-03T17:16:29.001Z</time></trkpt><trkpt lat="41.330437322116566" lon="-1.3069809078694616"><ele>766.5</ele><time>2026-05-03T17:16:30.001Z</time></trkpt><trkpt lat="41.330459860072054" lon="-1.3068217016338741"><ele>765.25</ele><time>2026-05-03T17:16:31.001Z</time></trkpt><trkpt lat="41.33048150799504" lon="-1.3066781872518722"><ele>764.0</ele><time>2026-05-03T17:16:32.001Z</time></trkpt><trkpt lat="41.330505578173685" lon="-1.3065301242471201"><ele>763.75</ele><time>2026-05-03T17:16:33.001Z</time></trkpt><trkpt lat="41.33052666740085" lon="-1.3063789274273698"><ele>763.5</ele><time>2026-05-03T17:16:34.001Z</time></trkpt><trkpt lat="41.330538366152375" lon="-1.3062116760876532"><ele>763.25</ele><time>2026-05-03T17:16:35.001Z</time></trkpt><trkpt lat="41.330590834401384" lon="-1.3059633517602998"><ele>763.0</ele><time>2026-05-03T17:16:36.001Z</time></trkpt><trkpt lat="41.330614557477574" lon="-1.3057901849136424"><ele>763.5</ele><time>2026-05-03T17:16:38.001Z</time></trkpt><trkpt lat="41.330637038526646" lon="-1.305642513485264"><ele>764.0</ele><time>2026-05-03T17:16:39.001Z</time></trkpt><trkpt lat="41.33065549738905" lon="-1.3054939083034354"><ele>764.5</ele><time>2026-05-03T17:16:40.001Z</time></trkpt><trkpt lat="41.33067926813336" lon="-1.3053462990603788"><ele>765.0</ele><time>2026-05-03T17:16:41.001Z</time></trkpt><trkpt lat="41.33069765677896" lon="-1.3051989744502523"><ele>763.25</ele><time>2026-05-03T17:16:42.001Z</time></trkpt><trkpt lat="41.33071258033226" lon="-1.3050508549771904"><ele>761.5</ele><time>2026-05-03T17:16:43.001Z</time></trkpt><trkpt lat="41.33072591588293" lon="-1.3048980885770876"><ele>759.75</ele><time>2026-05-03T17:16:44.001Z</time></trkpt><trkpt lat="41.330739099655524" lon="-1.3047468679384604"><ele>758.0</ele><time>2026-05-03T17:16:45.001Z</time></trkpt><trkpt lat="41.330748458048156" lon="-1.3045935011754508"><ele>757.2</ele><time>2026-05-03T17:16:46.001Z</time></trkpt><trkpt lat="41.3307516095679" lon="-1.304442242093018"><ele>756.4</ele><time>2026-05-03T17:16:47.001Z</time></trkpt><trkpt lat="41.3307644883246" lon="-1.3042979946934454"><ele>755.6</ele><time>2026-05-03T17:16:48.001Z</time></trkpt><trkpt lat="41.330774188948794" lon="-1.3041516908289923"><ele>754.8000000000001</ele><time>2026-05-03T17:16:49.001Z</time></trkpt><trkpt lat="41.33077215211327" lon="-1.304006413614383"><ele>754.0</ele><time>2026-05-03T17:16:50.001Z</time></trkpt><trkpt lat="41.33073613631734" lon="-1.3038665226065207"><ele>754.2</ele><time>2026-05-03T17:16:51.001Z</time></trkpt><trkpt lat="41.33070216761848" lon="-1.3037338946087738"><ele>754.4000000000001</ele><time>2026-05-03T17:16:52.001Z</time></trkpt><trkpt lat="41.33066408019336" lon="-1.3035969567888899"><ele>754.6</ele><time>2026-05-03T17:16:53.001Z</time></trkpt><trkpt lat="41.33062353076149" lon="-1.3034566940965795"><ele>754.8</ele><time>2026-05-03T17:16:54.001Z</time></trkpt><trkpt lat="41.33058188303854" lon="-1.303324666066082"><ele>755.0</ele><time>2026-05-03T17:16:55.001Z</time></trkpt><trkpt lat="41.33053905525468" lon="-1.3032017882079334"><ele>755.0</ele><time>2026-05-03T17:16:56.001Z</time></trkpt><trkpt lat="41.33049097016654" lon="-1.3030839183138798"><ele>755.0</ele><time>2026-05-03T17:16:57.001Z</time></trkpt><trkpt lat="41.330433146389275" lon="-1.302981058723603"><ele>755.0</ele><time>2026-05-03T17:16:58.001Z</time></trkpt><trkpt lat="41.33036418417419" lon="-1.3029014843912432"><ele>755.0</ele><time>2026-05-03T17:16:59.001Z</time></trkpt><trkpt lat="41.33028157142831" lon="-1.3028395767313279"><ele>755.0</ele><time>2026-05-03T17:17:00.001Z</time></trkpt><trkpt lat="41.33019775343391" lon="-1.302803123296352"><ele>755.0</ele><time>2026-05-03T17:17:01.001Z</time></trkpt><trkpt lat="41.33011404432735" lon="-1.30275203588101"><ele>755.0</ele><time>2026-05-03T17:17:02.001Z</time></trkpt><trkpt lat="41.33004374364659" lon="-1.3026891942035663"><ele>755.0</ele><time>2026-05-03T17:17:03.001Z</time></trkpt><trkpt lat="41.32999075926625" lon="-1.3025854788148117"><ele>755.0</ele><time>2026-05-03T17:17:04.001Z</time></trkpt><trkpt lat="41.32998080138463" lon="-1.3024571585216975"><ele>755.0</ele><time>2026-05-03T17:17:05.001Z</time></trkpt><trkpt lat="41.32998325590698" lon="-1.3023310172903213"><ele>754.4</ele><time>2026-05-03T17:17:06.001Z</time></trkpt><trkpt lat="41.33000412364227" lon="-1.3022037165293392"><ele>753.8</ele><time>2026-05-03T17:17:07.001Z</time></trkpt><trkpt lat="41.33003728987086" lon="-1.3020784386646982"><ele>753.2</ele><time>2026-05-03T17:17:08.001Z</time></trkpt><trkpt lat="41.33006598543213" lon="-1.3019498652732315"><ele>752.6</ele><time>2026-05-03T17:17:09.001Z</time></trkpt><trkpt lat="41.33010210687332" lon="-1.3018226984166505"><ele>752.0</ele><time>2026-05-03T17:17:10.001Z</time></trkpt><trkpt lat="41.3301490353073" lon="-1.3016877555455575"><ele>752.0</ele><time>2026-05-03T17:17:11.001Z</time></trkpt><trkpt lat="41.33018294261953" lon="-1.3015574261141618"><ele>752.0</ele><time>2026-05-03T17:17:12.001Z</time></trkpt><trkpt lat="41.330221137699205" lon="-1.3014262171540263"><ele>752.0</ele><time>2026-05-03T17:17:13.001Z</time></trkpt><trkpt lat="41.3302642633285" lon="-1.3012979181880355"><ele>752.0</ele><time>2026-05-03T17:17:14.001Z</time></trkpt><trkpt lat="41.33032369244929" lon="-1.3011761455591102"><ele>752.0</ele><time>2026-05-03T17:17:15.001Z</time></trkpt><trkpt lat="41.33040050525825" lon="-1.3010702906675233"><ele>752.4000000000001</ele><time>2026-05-03T17:17:16.001Z</time></trkpt><trkpt lat="41.33047466239362" lon="-1.3009753120832888"><ele>752.8000000000001</ele><time>2026-05-03T17:17:17.001Z</time></trkpt><trkpt lat="41.33055516283133" lon="-1.3008956172611417"><ele>753.2</ele><time>2026-05-03T17:17:18.001Z</time></trkpt><trkpt lat="41.33062956970083" lon="-1.300810937739087"><ele>753.6</ele><time>2026-05-03T17:17:19.001Z</time></trkpt><trkpt lat="41.33069222547463" lon="-1.3007035927143917"><ele>754.0</ele><time>2026-05-03T17:17:20Z</time></trkpt><trkpt lat="41.330717499607346" lon="-1.3005681033404026"><ele>752.6</ele><time>2026-05-03T17:17:21Z</time></trkpt><trkpt lat="41.330764779772714" lon="-1.3004431462045198"><ele>751.2</ele><time>2026-05-03T17:17:22Z</time></trkpt><trkpt lat="41.330792302619784" lon="-1.3003097496320812"><ele>749.8000000000001</ele><time>2026-05-03T17:17:23Z</time></trkpt><trkpt lat="41.330823667595226" lon="-1.3001719369642075"><ele>748.4000000000001</ele><time>2026-05-03T17:17:24Z</time></trkpt><trkpt lat="41.33084803983762" lon="-1.3000260928010352"><ele>747.0</ele><time>2026-05-03T17:17:25Z</time></trkpt><trkpt lat="41.33088524894807" lon="-1.299880364074355"><ele>746.25</ele><time>2026-05-03T17:17:26Z</time></trkpt><trkpt lat="41.3309130054392" lon="-1.299742380609182"><ele>745.5</ele><time>2026-05-03T17:17:27Z</time></trkpt><trkpt lat="41.33093244291603" lon="-1.299597472133612"><ele>744.75</ele><time>2026-05-03T17:17:28Z</time></trkpt><trkpt lat="41.33094690783361" lon="-1.2994402501886477"><ele>744.0</ele><time>2026-05-03T17:17:29Z</time></trkpt><trkpt lat="41.33093238605578" lon="-1.2992904843412343"><ele>744.0</ele><time>2026-05-03T17:17:30Z</time></trkpt><trkpt lat="41.33094351685268" lon="-1.2991398167298707"><ele>744.0</ele><time>2026-05-03T17:17:31Z</time></trkpt><trkpt lat="41.33093581748821" lon="-1.2989865489220698"><ele>744.0</ele><time>2026-05-03T17:17:32Z</time></trkpt><trkpt lat="41.3309307437327" lon="-1.2988424048182816"><ele>744.0</ele><time>2026-05-03T17:17:33Z</time></trkpt><trkpt lat="41.3309289296132" lon="-1.29868114679649"><ele>743.0</ele><time>2026-05-03T17:17:34Z</time></trkpt><trkpt lat="41.33091792294202" lon="-1.2985185904565208"><ele>742.0</ele><time>2026-05-03T17:17:35Z</time></trkpt><trkpt lat="41.330875392938204" lon="-1.2982820228098397"><ele>741.0</ele><time>2026-05-03T17:17:36Z</time></trkpt><trkpt lat="41.330917635087886" lon="-1.2980795373782938"><ele>740.1999999999999</ele><time>2026-05-03T17:17:38Z</time></trkpt><trkpt lat="41.33092110730148" lon="-1.2979326124395565"><ele>739.4</ele><time>2026-05-03T17:17:39Z</time></trkpt><trkpt lat="41.33090693486018" lon="-1.297788235469039"><ele>738.6</ele><time>2026-05-03T17:17:40Z</time></trkpt><trkpt lat="41.33090385064223" lon="-1.2976386436512657"><ele>737.8</ele><time>2026-05-03T17:17:41Z</time></trkpt><trkpt lat="41.330900694412506" lon="-1.2974855590157037"><ele>737.0</ele><time>2026-05-03T17:17:42Z</time></trkpt><trkpt lat="41.33090485706398" lon="-1.297335059685118"><ele>736.2</ele><time>2026-05-03T17:17:43Z</time></trkpt><trkpt lat="41.33089996352823" lon="-1.2971860480298059"><ele>735.4000000000001</ele><time>2026-05-03T17:17:44Z</time></trkpt><trkpt lat="41.330898593810666" lon="-1.297036145519477"><ele>734.5999999999999</ele><time>2026-05-03T17:17:45Z</time></trkpt><trkpt lat="41.330894381578275" lon="-1.296886584871869"><ele>733.8</ele><time>2026-05-03T17:17:46Z</time></trkpt><trkpt lat="41.33089613936346" lon="-1.296737967023765"><ele>733.0</ele><time>2026-05-03T17:17:47Z</time></trkpt><trkpt lat="41.33088596106295" lon="-1.2965931228766794"><ele>733.0</ele><time>2026-05-03T17:17:48Z</time></trkpt><trkpt lat="41.33088540834549" lon="-1.2964492487038497"><ele>733.0</ele><time>2026-05-03T17:17:49Z</time></trkpt><trkpt lat="41.33088225339228" lon="-1.2962982800743417"><ele>733.0</ele><time>2026-05-03T17:17:50Z</time></trkpt><trkpt lat="41.33087981008643" lon="-1.296146654981537"><ele>733.0</ele><time>2026-05-03T17:17:51Z</time></trkpt><trkpt lat="41.33087572310063" lon="-1.2959965565488059"><ele>733.0</ele><time>2026-05-03T17:17:52Z</time></trkpt><trkpt lat="41.33087603216463" lon="-1.295846155323656"><ele>733.0</ele><time>2026-05-03T17:17:53Z</time></trkpt><trkpt lat="41.330872407943104" lon="-1.2956954468881523"><ele>733.0</ele><time>2026-05-03T17:17:54Z</time></trkpt><trkpt lat="41.33087274841197" lon="-1.2955453700540072"><ele>733.0</ele><time>2026-05-03T17:17:55Z</time></trkpt><trkpt lat="41.33086933416402" lon="-1.2953938864256356"><ele>733.0</ele><time>2026-05-03T17:17:56Z</time></trkpt><trkpt lat="41.330865897111266" lon="-1.295243528668666"><ele>731.8</ele><time>2026-05-03T17:17:57Z</time></trkpt><trkpt lat="41.33085970560469" lon="-1.2950947110430537"><ele>730.5999999999999</ele><time>2026-05-03T17:17:58Z</time></trkpt><trkpt lat="41.330864123756946" lon="-1.2949452288876278"><ele>729.4000000000001</ele><time>2026-05-03T17:17:59Z</time></trkpt><trkpt lat="41.330861470728415" lon="-1.2948013799981284"><ele>728.2</ele><time>2026-05-03T17:18:00Z</time></trkpt><trkpt lat="41.33084451833883" lon="-1.2946495800600508"><ele>727.0</ele><time>2026-05-03T17:18:01Z</time></trkpt><trkpt lat="41.33084162623908" lon="-1.294495744205586"><ele>726.25</ele><time>2026-05-03T17:18:02Z</time></trkpt><trkpt lat="41.33083878481601" lon="-1.294344604021181"><ele>725.5</ele><time>2026-05-03T17:18:03Z</time></trkpt><trkpt lat="41.33084761507538" lon="-1.2941886892146512"><ele>724.75</ele><time>2026-05-03T17:18:04Z</time></trkpt><trkpt lat="41.33084036410522" lon="-1.294037020433395"><ele>724.0</ele><time>2026-05-03T17:18:05Z</time></trkpt><trkpt lat="41.33083909490779" lon="-1.2938844459387056"><ele>723.0</ele><time>2026-05-03T17:18:06Z</time></trkpt><trkpt lat="41.3308384350641" lon="-1.2937315572343484"><ele>722.0</ele><time>2026-05-03T17:18:07Z</time></trkpt><trkpt lat="41.33083236497937" lon="-1.2935811320420065"><ele>721.0</ele><time>2026-05-03T17:18:08Z</time></trkpt><trkpt lat="41.330820480137064" lon="-1.293423474997583"><ele>720.0</ele><time>2026-05-03T17:18:09Z</time></trkpt><trkpt lat="41.33082158590226" lon="-1.2932759396205546"><ele>720.0</ele><time>2026-05-03T17:18:10Z</time></trkpt><trkpt lat="41.33082098696318" lon="-1.2931268145942285"><ele>720.0</ele><time>2026-05-03T17:18:11Z</time></trkpt><trkpt lat="41.33082206452282" lon="-1.2929768211211699"><ele>720.0</ele><time>2026-05-03T17:18:12Z</time></trkpt><trkpt lat="41.33081822721457" lon="-1.292827106179322"><ele>720.0</ele><time>2026-05-03T17:18:13Z</time></trkpt><trkpt lat="41.330816695094214" lon="-1.2926723063538237"><ele>719.5</ele><time>2026-05-03T17:18:14Z</time></trkpt><trkpt lat="41.33081648703561" lon="-1.2925215735792595"><ele>719.0</ele><time>2026-05-03T17:18:15Z</time></trkpt><trkpt lat="41.33081302273718" lon="-1.2923676809814553"><ele>718.5</ele><time>2026-05-03T17:18:16Z</time></trkpt><trkpt lat="41.33080623411661" lon="-1.2922166921594707"><ele>718.0</ele><time>2026-05-03T17:18:17.001Z</time></trkpt><trkpt lat="41.330804278172884" lon="-1.2920687060511242"><ele>717.5</ele><time>2026-05-03T17:18:18.001Z</time></trkpt><trkpt lat="41.33080403151757" lon="-1.2919151360704713"><ele>717.0</ele><time>2026-05-03T17:18:19.001Z</time></trkpt><trkpt lat="41.33080104207103" lon="-1.291765457390088"><ele>716.5</ele><time>2026-05-03T17:18:20.001Z</time></trkpt><trkpt lat="41.33079924987306" lon="-1.2916087753820484"><ele>716.0</ele><time>2026-05-03T17:18:21.001Z</time></trkpt><trkpt lat="41.33079664584164" lon="-1.2914526719704422"><ele>714.75</ele><time>2026-05-03T17:18:22.001Z</time></trkpt><trkpt lat="41.33079441892221" lon="-1.29130015593529"><ele>713.5</ele><time>2026-05-03T17:18:23.001Z</time></trkpt><trkpt lat="41.33079353214382" lon="-1.291149519491249"><ele>712.25</ele><time>2026-05-03T17:18:24.001Z</time></trkpt><trkpt lat="41.330779423818456" lon="-1.2909985094832785"><ele>711.0</ele><time>2026-05-03T17:18:25.001Z</time></trkpt><trkpt lat="41.3307769297177" lon="-1.2908404142668775"><ele>711.0</ele><time>2026-05-03T17:18:26.001Z</time></trkpt><trkpt lat="41.33077470189049" lon="-1.2906840580571086"><ele>711.0</ele><time>2026-05-03T17:18:27.001Z</time></trkpt><trkpt lat="41.330782109636466" lon="-1.2905302270222463"><ele>711.0</ele><time>2026-05-03T17:18:28.001Z</time></trkpt><trkpt lat="41.33078107482965" lon="-1.2903770514243145"><ele>711.0</ele><time>2026-05-03T17:18:29.001Z</time></trkpt><trkpt lat="41.33077848881608" lon="-1.2902225985153095"><ele>710.0</ele><time>2026-05-03T17:18:30.001Z</time></trkpt><trkpt lat="41.33077308044193" lon="-1.2900721195076172"><ele>709.0</ele><time>2026-05-03T17:18:31.001Z</time></trkpt><trkpt lat="41.33077345967189" lon="-1.289925510412233"><ele>708.0</ele><time>2026-05-03T17:18:32.001Z</time></trkpt><trkpt lat="41.33077092939897" lon="-1.2897678650045552"><ele>707.0</ele><time>2026-05-03T17:18:33.001Z</time></trkpt><trkpt lat="41.33075563151036" lon="-1.2895655767800205"><ele>706.0</ele><time>2026-05-03T17:18:34.001Z</time></trkpt><trkpt lat="41.330751342734025" lon="-1.2893583604181276"><ele>705.0</ele><time>2026-05-03T17:18:35.001Z</time></trkpt><trkpt lat="41.33075749165282" lon="-1.2891791774839427"><ele>704.0</ele><time>2026-05-03T17:18:37.001Z</time></trkpt><trkpt lat="41.330759642686665" lon="-1.2890331140125195"><ele>703.0</ele><time>2026-05-03T17:18:38.001Z</time></trkpt><trkpt lat="41.33076891157371" lon="-1.2888845205803723"><ele>703.0</ele><time>2026-05-03T17:18:39.001Z</time></trkpt><trkpt lat="41.330792791668856" lon="-1.2887331021433632"><ele>703.0</ele><time>2026-05-03T17:18:40.001Z</time></trkpt><trkpt lat="41.330841196912814" lon="-1.2885994581944709"><ele>703.0</ele><time>2026-05-03T17:18:41.001Z</time></trkpt><trkpt lat="41.330908853174975" lon="-1.2884733143698952"><ele>703.0</ele><time>2026-05-03T17:18:42.001Z</time></trkpt><trkpt lat="41.3309705477535" lon="-1.2883439447460634"><ele>703.0</ele><time>2026-05-03T17:18:43.001Z</time></trkpt><trkpt lat="41.331028376201964" lon="-1.288216706298005"><ele>703.0</ele><time>2026-05-03T17:18:44.001Z</time></trkpt><trkpt lat="41.33109092062775" lon="-1.2880909652695605"><ele>703.0</ele><time>2026-05-03T17:18:45.001Z</time></trkpt><trkpt lat="41.33115514902412" lon="-1.287968033412472"><ele>703.0</ele><time>2026-05-03T17:18:46.001Z</time></trkpt><trkpt lat="41.331198835545834" lon="-1.2878301862418842"><ele>703.0</ele><time>2026-05-03T17:18:47.001Z</time></trkpt><trkpt lat="41.331255906469664" lon="-1.2876980921715895"><ele>703.0</ele><time>2026-05-03T17:18:48.001Z</time></trkpt><trkpt lat="41.33131145301437" lon="-1.287569526301959"><ele>703.0</ele><time>2026-05-03T17:18:49.001Z</time></trkpt><trkpt lat="41.33136772064985" lon="-1.2874392915055153"><ele>703.0</ele><time>2026-05-03T17:18:50.001Z</time></trkpt><trkpt lat="41.331423596753815" lon="-1.287309962914609"><ele>701.5</ele><time>2026-05-03T17:18:51.001Z</time></trkpt><trkpt lat="41.33147810655588" lon="-1.2871837966642061"><ele>700.0</ele><time>2026-05-03T17:18:52.001Z</time></trkpt><trkpt lat="41.3315357075827" lon="-1.2870504756325256"><ele>698.5</ele><time>2026-05-03T17:18:53.001Z</time></trkpt><trkpt lat="41.33159326983415" lon="-1.2869172443272823"><ele>697.0</ele><time>2026-05-03T17:18:54.001Z</time></trkpt><trkpt lat="41.33165903105633" lon="-1.2867906287257853"><ele>697.0</ele><time>2026-05-03T17:18:55.001Z</time></trkpt><trkpt lat="41.33171226247178" lon="-1.286665653629311"><ele>697.0</ele><time>2026-05-03T17:18:56.001Z</time></trkpt><trkpt lat="41.331768790060586" lon="-1.286531861289528"><ele>697.0</ele><time>2026-05-03T17:18:57.001Z</time></trkpt><trkpt lat="41.33182597326319" lon="-1.2863989166084764"><ele>697.0</ele><time>2026-05-03T17:18:58.001Z</time></trkpt><trkpt lat="41.33188589494354" lon="-1.2862673141375325"><ele>696.25</ele><time>2026-05-03T17:18:59.001Z</time></trkpt><trkpt lat="41.3319427423606" lon="-1.2861340024438754"><ele>695.5</ele><time>2026-05-03T17:19:00.001Z</time></trkpt><trkpt lat="41.33200000655351" lon="-1.2859991506990327"><ele>694.75</ele><time>2026-05-03T17:19:01.001Z</time></trkpt><trkpt lat="41.332061356387285" lon="-1.285870727902145"><ele>694.0</ele><time>2026-05-03T17:19:02.001Z</time></trkpt><trkpt lat="41.33211664773247" lon="-1.2857402380915468"><ele>694.0</ele><time>2026-05-03T17:19:03.001Z</time></trkpt><trkpt lat="41.33217719095763" lon="-1.2856092133292454"><ele>694.0</ele><time>2026-05-03T17:19:04.001Z</time></trkpt><trkpt lat="41.332229811053224" lon="-1.2854710618273375"><ele>694.0</ele><time>2026-05-03T17:19:05.001Z</time></trkpt><trkpt lat="41.332287814659175" lon="-1.2853357390014755"><ele>694.0</ele><time>2026-05-03T17:19:06.001Z</time></trkpt><trkpt lat="41.332348556544474" lon="-1.285201811330102"><ele>693.25</ele><time>2026-05-03T17:19:07.001Z</time></trkpt><trkpt lat="41.33240737371697" lon="-1.2850633221797099"><ele>692.5</ele><time>2026-05-03T17:19:08.001Z</time></trkpt><trkpt lat="41.332464609373616" lon="-1.2849314590211098"><ele>691.75</ele><time>2026-05-03T17:19:09.001Z</time></trkpt><trkpt lat="41.33252573537131" lon="-1.284795252547102"><ele>691.0</ele><time>2026-05-03T17:19:10.001Z</time></trkpt><trkpt lat="41.3325804688567" lon="-1.2846641974996322"><ele>690.5</ele><time>2026-05-03T17:19:11.001Z</time></trkpt><trkpt lat="41.33263782419551" lon="-1.2845363542552533"><ele>690.0</ele><time>2026-05-03T17:19:12.001Z</time></trkpt><trkpt lat="41.33269300524382" lon="-1.2844072119693628"><ele>689.5</ele><time>2026-05-03T17:19:13.001Z</time></trkpt><trkpt lat="41.33275055579825" lon="-1.2842770807956572"><ele>689.0</ele><time>2026-05-03T17:19:14.001Z</time></trkpt><trkpt lat="41.332807113827435" lon="-1.2841421450968478"><ele>689.0</ele><time>2026-05-03T17:19:15.001Z</time></trkpt><trkpt lat="41.33286193847252" lon="-1.2840055986144692"><ele>689.0</ele><time>2026-05-03T17:19:16.001Z</time></trkpt><trkpt lat="41.332921812470516" lon="-1.2838795566866072"><ele>689.0</ele><time>2026-05-03T17:19:17.001Z</time></trkpt><trkpt lat="41.332979864441036" lon="-1.2837506612580578"><ele>689.0</ele><time>2026-05-03T17:19:18.001Z</time></trkpt><trkpt lat="41.33302638691193" lon="-1.2836322265179474"><ele>689.0</ele><time>2026-05-03T17:19:19.001Z</time></trkpt><trkpt lat="41.33319999008895" lon="-1.2832268222930756"><ele>687.75</ele><time>2026-05-03T17:19:22.001Z</time></trkpt><trkpt lat="41.33325730663111" lon="-1.2830945524565867"><ele>686.5</ele><time>2026-05-03T17:19:23.001Z</time></trkpt><trkpt lat="41.33331350326494" lon="-1.2829648670887972"><ele>685.25</ele><time>2026-05-03T17:19:24.001Z</time></trkpt><trkpt lat="41.33337702254254" lon="-1.2828397987824802"><ele>684.0</ele><time>2026-05-03T17:19:25.001Z</time></trkpt><trkpt lat="41.333435257826515" lon="-1.2827107602201488"><ele>684.0</ele><time>2026-05-03T17:19:26Z</time></trkpt><trkpt lat="41.33349315445783" lon="-1.2825805537093136"><ele>684.0</ele><time>2026-05-03T17:19:27Z</time></trkpt><trkpt lat="41.333556703464545" lon="-1.2824521073305348"><ele>684.0</ele><time>2026-05-03T17:19:28Z</time></trkpt><trkpt lat="41.3336213149086" lon="-1.282316979061726"><ele>684.0</ele><time>2026-05-03T17:19:29Z</time></trkpt><trkpt lat="41.333676523062316" lon="-1.282187771972001"><ele>683.75</ele><time>2026-05-03T17:19:30Z</time></trkpt><trkpt lat="41.33373746028228" lon="-1.2820534603276619"><ele>683.5</ele><time>2026-05-03T17:19:31Z</time></trkpt><trkpt lat="41.33379342712908" lon="-1.281923500040957"><ele>683.25</ele><time>2026-05-03T17:19:32Z</time></trkpt><trkpt lat="41.33384869009476" lon="-1.281790920346004"><ele>683.0</ele><time>2026-05-03T17:19:33Z</time></trkpt><trkpt lat="41.33390345914329" lon="-1.2816570391772153"><ele>683.0</ele><time>2026-05-03T17:19:34Z</time></trkpt><trkpt lat="41.33396221419401" lon="-1.2815299274635543"><ele>683.0</ele><time>2026-05-03T17:19:35Z</time></trkpt><trkpt lat="41.33402372120433" lon="-1.281406279772964"><ele>683.0</ele><time>2026-05-03T17:19:36Z</time></trkpt><trkpt lat="41.33409637162096" lon="-1.2812892823627733"><ele>683.0</ele><time>2026-05-03T17:19:37Z</time></trkpt><trkpt lat="41.33417276537491" lon="-1.2811728998659373"><ele>682.25</ele><time>2026-05-03T17:19:38Z</time></trkpt><trkpt lat="41.334242967742505" lon="-1.2810509672899302"><ele>681.5</ele><time>2026-05-03T17:19:39Z</time></trkpt><trkpt lat="41.33431221318941" lon="-1.2809310275414234"><ele>680.75</ele><time>2026-05-03T17:19:40Z</time></trkpt><trkpt lat="41.33438290133576" lon="-1.2808142871322932"><ele>680.0</ele><time>2026-05-03T17:19:41Z</time></trkpt><trkpt lat="41.33445532994985" lon="-1.2806974364183854"><ele>678.75</ele><time>2026-05-03T17:19:42Z</time></trkpt><trkpt lat="41.334525934157114" lon="-1.2805793866764974"><ele>677.5</ele><time>2026-05-03T17:19:43Z</time></trkpt><trkpt lat="41.33459730381668" lon="-1.2804624342323492"><ele>676.25</ele><time>2026-05-03T17:19:44Z</time></trkpt><trkpt lat="41.3346616452872" lon="-1.2803396685637805"><ele>675.0</ele><time>2026-05-03T17:19:45Z</time></trkpt><trkpt lat="41.334706469715556" lon="-1.280198440609415"><ele>675.0</ele><time>2026-05-03T17:19:46Z</time></trkpt><trkpt lat="41.334815972608176" lon="-1.2801121265626345"><ele>675.0</ele><time>2026-05-03T17:19:47Z</time></trkpt><trkpt lat="41.33487817190637" lon="-1.2799977229015094"><ele>675.0</ele><time>2026-05-03T17:19:48Z</time></trkpt><trkpt lat="41.33496183585045" lon="-1.279874345367554"><ele>675.0</ele><time>2026-05-03T17:19:49Z</time></trkpt><trkpt lat="41.335034279098394" lon="-1.2797562121837032"><ele>675.0</ele><time>2026-05-03T17:19:50Z</time></trkpt><trkpt lat="41.335104881794244" lon="-1.2796386369112065"><ele>675.0</ele><time>2026-05-03T17:19:51Z</time></trkpt><trkpt lat="41.33517629433177" lon="-1.279522142713085"><ele>675.0</ele><time>2026-05-03T17:19:52Z</time></trkpt><trkpt lat="41.33524929911333" lon="-1.2794024967880488"><ele>675.0</ele><time>2026-05-03T17:19:53Z</time></trkpt><trkpt lat="41.33532074733529" lon="-1.2792839523714206"><ele>675.0</ele><time>2026-05-03T17:19:54Z</time></trkpt><trkpt lat="41.335391629817785" lon="-1.27916426198066"><ele>675.0</ele><time>2026-05-03T17:19:55Z</time></trkpt><trkpt lat="41.33546273223378" lon="-1.2790441292982888"><ele>675.0</ele><time>2026-05-03T17:19:56Z</time></trkpt><trkpt lat="41.33553594098088" lon="-1.2789247014106107"><ele>675.0</ele><time>2026-05-03T17:19:57Z</time></trkpt><trkpt lat="41.33560814871463" lon="-1.278809578487933"><ele>674.5</ele><time>2026-05-03T17:19:58Z</time></trkpt><trkpt lat="41.33567969426482" lon="-1.278689887821359"><ele>674.0</ele><time>2026-05-03T17:19:59Z</time></trkpt><trkpt lat="41.33575097486746" lon="-1.2785724334823014"><ele>673.5</ele><time>2026-05-03T17:20:00Z</time></trkpt><trkpt lat="41.33581868479242" lon="-1.2784539362681169"><ele>673.0</ele><time>2026-05-03T17:20:01Z</time></trkpt><trkpt lat="41.335891415852494" lon="-1.2783365782375453"><ele>673.0</ele><time>2026-05-03T17:20:02Z</time></trkpt><trkpt lat="41.33596341963536" lon="-1.2782171578524952"><ele>673.0</ele><time>2026-05-03T17:20:03Z</time></trkpt><trkpt lat="41.336033671335734" lon="-1.2781003613432136"><ele>673.0</ele><time>2026-05-03T17:20:04Z</time></trkpt><trkpt lat="41.33610627333209" lon="-1.2779830879104612"><ele>673.0</ele><time>2026-05-03T17:20:05Z</time></trkpt><trkpt lat="41.33617754929091" lon="-1.2778667628491402"><ele>672.5</ele><time>2026-05-03T17:20:06Z</time></trkpt><trkpt lat="41.336247311274164" lon="-1.2777486190041694"><ele>672.0</ele><time>2026-05-03T17:20:07Z</time></trkpt><trkpt lat="41.33631702159155" lon="-1.2776265659235404"><ele>671.5</ele><time>2026-05-03T17:20:08Z</time></trkpt><trkpt lat="41.3363850192899" lon="-1.2775062816989544"><ele>671.0</ele><time>2026-05-03T17:20:09Z</time></trkpt><trkpt lat="41.33645931290642" lon="-1.2773871320483852"><ele>670.25</ele><time>2026-05-03T17:20:10Z</time></trkpt><trkpt lat="41.33653103474484" lon="-1.2772667269189788"><ele>669.5</ele><time>2026-05-03T17:20:11Z</time></trkpt><trkpt lat="41.33660178606105" lon="-1.2771469323119102"><ele>668.75</ele><time>2026-05-03T17:20:12Z</time></trkpt><trkpt lat="41.33667426404314" lon="-1.2770260665863227"><ele>668.0</ele><time>2026-05-03T17:20:13Z</time></trkpt><trkpt lat="41.336744921206986" lon="-1.2769072391455116"><ele>668.0</ele><time>2026-05-03T17:20:14Z</time></trkpt><trkpt lat="41.33681912013402" lon="-1.2767912632000704"><ele>668.0</ele><time>2026-05-03T17:20:15.001Z</time></trkpt><trkpt lat="41.336890469412495" lon="-1.2766764501168055"><ele>668.0</ele><time>2026-05-03T17:20:16.001Z</time></trkpt><trkpt lat="41.33695357135944" lon="-1.2765634215047703"><ele>668.0</ele><time>2026-05-03T17:20:17.001Z</time></trkpt><trkpt lat="41.337015201343" lon="-1.2764501233111254"><ele>668.0</ele><time>2026-05-03T17:20:18.001Z</time></trkpt><trkpt lat="41.337074888892445" lon="-1.2763418327930969"><ele>667.5999999999999</ele><time>2026-05-03T17:20:19.001Z</time></trkpt><trkpt lat="41.33713275596381" lon="-1.2762309809425845"><ele>667.1999999999999</ele><time>2026-05-03T17:20:20.001Z</time></trkpt><trkpt lat="41.337188123278494" lon="-1.2761150701723591"><ele>666.8</ele><time>2026-05-03T17:20:21.001Z</time></trkpt><trkpt lat="41.337239210263554" lon="-1.2760004377124716"><ele>666.4</ele><time>2026-05-03T17:20:22.001Z</time></trkpt><trkpt lat="41.33728345802346" lon="-1.2758809572456393"><ele>666.0</ele><time>2026-05-03T17:20:23.001Z</time></trkpt><trkpt lat="41.33733419008621" lon="-1.2757601973053156"><ele>666.0</ele><time>2026-05-03T17:20:24.001Z</time></trkpt><trkpt lat="41.33738484494322" lon="-1.2756397781013205"><ele>666.0</ele><time>2026-05-03T17:20:25.001Z</time></trkpt><trkpt lat="41.337438152864486" lon="-1.2755207124336676"><ele>666.0</ele><time>2026-05-03T17:20:26.001Z</time></trkpt><trkpt lat="41.337489858364194" lon="-1.275397545722899"><ele>666.0</ele><time>2026-05-03T17:20:27.001Z</time></trkpt><trkpt lat="41.33753948796496" lon="-1.2752759523418937"><ele>666.0</ele><time>2026-05-03T17:20:28.001Z</time></trkpt><trkpt lat="41.33759155364432" lon="-1.2751522427422701"><ele>664.8</ele><time>2026-05-03T17:20:29.001Z</time></trkpt><trkpt lat="41.33764476320945" lon="-1.2750331951294471"><ele>663.5999999999999</ele><time>2026-05-03T17:20:30.001Z</time></trkpt><trkpt lat="41.33770040052617" lon="-1.2749210400029327"><ele>662.4</ele><time>2026-05-03T17:20:31.001Z</time></trkpt><trkpt lat="41.337758160355605" lon="-1.274805599450359"><ele>661.2</ele><time>2026-05-03T17:20:32.001Z</time></trkpt><trkpt lat="41.33783227239111" lon="-1.2747058189534504"><ele>660.0</ele><time>2026-05-03T17:20:33.001Z</time></trkpt><trkpt lat="41.3379049463935" lon="-1.2746061887854352"><ele>659.0</ele><time>2026-05-03T17:20:34.001Z</time></trkpt><trkpt lat="41.33797806041544" lon="-1.2745099026354438"><ele>658.0</ele><time>2026-05-03T17:20:35.001Z</time></trkpt><trkpt lat="41.33805384438008" lon="-1.274414116275088"><ele>657.0</ele><time>2026-05-03T17:20:36.001Z</time></trkpt><trkpt lat="41.33813464139634" lon="-1.2743184600225865"><ele>656.0</ele><time>2026-05-03T17:20:37.001Z</time></trkpt><trkpt lat="41.338216962555954" lon="-1.27421421757755"><ele>655.0</ele><time>2026-05-03T17:20:38.001Z</time></trkpt><trkpt lat="41.33829483189461" lon="-1.2741093917826338"><ele>655.0</ele><time>2026-05-03T17:20:39.001Z</time></trkpt><trkpt lat="41.33837478249781" lon="-1.274014094584936"><ele>655.0</ele><time>2026-05-03T17:20:40.001Z</time></trkpt><trkpt lat="41.33845343538972" lon="-1.2739147034512828"><ele>655.0</ele><time>2026-05-03T17:20:41.001Z</time></trkpt><trkpt lat="41.33853244367184" lon="-1.2738200008610685"><ele>655.0</ele><time>2026-05-03T17:20:42.001Z</time></trkpt><trkpt lat="41.338615359181446" lon="-1.273735637468972"><ele>655.0</ele><time>2026-05-03T17:20:43.001Z</time></trkpt><trkpt lat="41.338700492101374" lon="-1.2736486824934106"><ele>654.6</ele><time>2026-05-03T17:20:44.001Z</time></trkpt><trkpt lat="41.33878874736883" lon="-1.2735598333527516"><ele>654.2</ele><time>2026-05-03T17:20:45.001Z</time></trkpt><trkpt lat="41.338875057581426" lon="-1.273475517268674"><ele>653.8</ele><time>2026-05-03T17:20:46.001Z</time></trkpt><trkpt lat="41.33896290369079" lon="-1.273389315269705"><ele>653.4</ele><time>2026-05-03T17:20:47.001Z</time></trkpt><trkpt lat="41.339044488883395" lon="-1.2733056310270623"><ele>653.0</ele><time>2026-05-03T17:20:48.001Z</time></trkpt><trkpt lat="41.33912720464716" lon="-1.2732230611976538"><ele>653.0</ele><time>2026-05-03T17:20:49.001Z</time></trkpt><trkpt lat="41.33920454355932" lon="-1.2731458908549405"><ele>653.0</ele><time>2026-05-03T17:20:50.001Z</time></trkpt><trkpt lat="41.33927879088338" lon="-1.2730634810657793"><ele>653.0</ele><time>2026-05-03T17:20:51.001Z</time></trkpt><trkpt lat="41.33934668587765" lon="-1.2729783992561847"><ele>653.0</ele><time>2026-05-03T17:20:52.001Z</time></trkpt><trkpt lat="41.339386248815245" lon="-1.2728671430108343"><ele>653.0</ele><time>2026-05-03T17:20:53.001Z</time></trkpt><trkpt lat="41.339432445604935" lon="-1.2727590440035328"><ele>651.4</ele><time>2026-05-03T17:20:54.001Z</time></trkpt><trkpt lat="41.339488530504966" lon="-1.2726581788545377"><ele>649.8</ele><time>2026-05-03T17:20:55.001Z</time></trkpt><trkpt lat="41.339537249830144" lon="-1.2725485659604538"><ele>648.2</ele><time>2026-05-03T17:20:56.001Z</time></trkpt><trkpt lat="41.33960357014514" lon="-1.2724476085822902"><ele>646.6</ele><time>2026-05-03T17:20:57.001Z</time></trkpt><trkpt lat="41.33968004183819" lon="-1.2723555583105157"><ele>645.0</ele><time>2026-05-03T17:20:58.001Z</time></trkpt><trkpt lat="41.339755037534644" lon="-1.2722603202569518"><ele>645.0</ele><time>2026-05-03T17:20:59.001Z</time></trkpt><trkpt lat="41.33983811942308" lon="-1.2721773042227076"><ele>645.0</ele><time>2026-05-03T17:21:00.001Z</time></trkpt><trkpt lat="41.33991323618583" lon="-1.2720892617276924"><ele>645.0</ele><time>2026-05-03T17:21:01.001Z</time></trkpt><trkpt lat="41.33998470535907" lon="-1.2720046326796774"><ele>645.0</ele><time>2026-05-03T17:21:02.001Z</time></trkpt><trkpt lat="41.34005570762887" lon="-1.27192302769783"><ele>645.0</ele><time>2026-05-03T17:21:03.001Z</time></trkpt><trkpt lat="41.34012365229648" lon="-1.2718338490379826"><ele>645.0</ele><time>2026-05-03T17:21:04.001Z</time></trkpt><trkpt lat="41.34017561053136" lon="-1.2717241259836025"><ele>645.0</ele><time>2026-05-03T17:21:05.001Z</time></trkpt><trkpt lat="41.340237154240036" lon="-1.271622873919136"><ele>645.0</ele><time>2026-05-03T17:21:06.001Z</time></trkpt><trkpt lat="41.340300834174386" lon="-1.2715180108141781"><ele>645.0</ele><time>2026-05-03T17:21:07.001Z</time></trkpt><trkpt lat="41.340363527812265" lon="-1.2714147721479063"><ele>645.0</ele><time>2026-05-03T17:21:08.001Z</time></trkpt><trkpt lat="41.34043001283942" lon="-1.271318879226287"><ele>644.4</ele><time>2026-05-03T17:21:09.001Z</time></trkpt><trkpt lat="41.34049547620846" lon="-1.2712171216454924"><ele>643.8</ele><time>2026-05-03T17:21:10.001Z</time></trkpt><trkpt lat="41.340552692985995" lon="-1.2711216601742286"><ele>643.2</ele><time>2026-05-03T17:21:11.001Z</time></trkpt><trkpt lat="41.34060780075538" lon="-1.271015877460406"><ele>642.6</ele><time>2026-05-03T17:21:12.001Z</time></trkpt><trkpt lat="41.3406539484313" lon="-1.2709088975256737"><ele>642.0</ele><time>2026-05-03T17:21:13.001Z</time></trkpt><trkpt lat="41.34069049757691" lon="-1.2707976837662698"><ele>642.0</ele><time>2026-05-03T17:21:14.001Z</time></trkpt><trkpt lat="41.34068921346825" lon="-1.2706759253320428"><ele>642.0</ele><time>2026-05-03T17:21:15.001Z</time></trkpt><trkpt lat="41.34069465746906" lon="-1.2705656585665244"><ele>642.0</ele><time>2026-05-03T17:21:16.001Z</time></trkpt><trkpt lat="41.340638420587524" lon="-1.2704747214433962"><ele>642.0</ele><time>2026-05-03T17:21:17.001Z</time></trkpt><trkpt lat="41.340554998892586" lon="-1.2704239134979094"><ele>642.0</ele><time>2026-05-03T17:21:18.001Z</time></trkpt><trkpt lat="41.34047305956881" lon="-1.2703987379337016"><ele>642.0</ele><time>2026-05-03T17:21:19.001Z</time></trkpt><trkpt lat="41.34038952210699" lon="-1.2703769758106982"><ele>642.0</ele><time>2026-05-03T17:21:20.001Z</time></trkpt><trkpt lat="41.340343556109886" lon="-1.2702695678904856"><ele>642.0</ele><time>2026-05-03T17:21:21.001Z</time></trkpt><trkpt lat="41.34032081147858" lon="-1.2701553749338583"><ele>642.0</ele><time>2026-05-03T17:21:22.001Z</time></trkpt><trkpt lat="41.34028320503036" lon="-1.270053312884534"><ele>642.0</ele><time>2026-05-03T17:21:23.001Z</time></trkpt><trkpt lat="41.34022943532091" lon="-1.2699621572839563"><ele>642.0</ele><time>2026-05-03T17:21:24.001Z</time></trkpt><trkpt lat="41.34013136806182" lon="-1.269915613394244"><ele>642.0</ele><time>2026-05-03T17:21:25.001Z</time></trkpt><trkpt lat="41.34009080081535" lon="-1.2698189466792764"><ele>642.0</ele><time>2026-05-03T17:21:26.001Z</time></trkpt><trkpt lat="41.340031619770954" lon="-1.269741750031237"><ele>642.0</ele><time>2026-05-03T17:21:27.001Z</time></trkpt><trkpt lat="41.339972796216514" lon="-1.2696649365089063"><ele>642.0</ele><time>2026-05-03T17:21:28.001Z</time></trkpt><trkpt lat="41.339912887296556" lon="-1.269595632059265"><ele>642.0</ele><time>2026-05-03T17:21:29.001Z</time></trkpt><trkpt lat="41.33986109227008" lon="-1.269528815035669"><ele>642.0</ele><time>2026-05-03T17:21:30.001Z</time></trkpt><trkpt lat="41.33984016936699" lon="-1.2694341520813173"><ele>642.3333333333334</ele><time>2026-05-03T17:21:31.001Z</time></trkpt><trkpt lat="41.33986256069591" lon="-1.2693161293743962"><ele>642.6666666666666</ele><time>2026-05-03T17:21:32Z</time></trkpt><trkpt lat="41.33991415247551" lon="-1.2692212774839833"><ele>643.0</ele><time>2026-05-03T17:21:33Z</time></trkpt><trkpt lat="41.339961159952345" lon="-1.2691313526122812"><ele>643.3333333333333</ele><time>2026-05-03T17:21:34Z</time></trkpt><trkpt lat="41.340007769555804" lon="-1.2690393250628733"><ele>643.6666666666666</ele><time>2026-05-03T17:21:35Z</time></trkpt><trkpt lat="41.34005150525058" lon="-1.2689406496941558"><ele>644.0</ele><time>2026-05-03T17:21:36Z</time></trkpt><trkpt lat="41.340087576984324" lon="-1.2688358045598618"><ele>644.8333333333333</ele><time>2026-05-03T17:21:37Z</time></trkpt><trkpt lat="41.340129005980074" lon="-1.2687401315373092"><ele>645.6666666666666</ele><time>2026-05-03T17:21:38Z</time></trkpt><trkpt lat="41.34017071371455" lon="-1.2686433584833086"><ele>646.5</ele><time>2026-05-03T17:21:39Z</time></trkpt><trkpt lat="41.34021440283346" lon="-1.2685444144913922"><ele>647.3333333333334</ele><time>2026-05-03T17:21:40Z</time></trkpt><trkpt lat="41.34024804775443" lon="-1.268436045785428"><ele>648.1666666666667</ele><time>2026-05-03T17:21:41Z</time></trkpt><trkpt lat="41.34028593870946" lon="-1.2683309635013722"><ele>649.0</ele><time>2026-05-03T17:21:42Z</time></trkpt><trkpt lat="41.340320087812145" lon="-1.2682253835822417"><ele>649.0</ele><time>2026-05-03T17:21:43Z</time></trkpt><trkpt lat="41.3403536647259" lon="-1.2681193264231283"><ele>649.0</ele><time>2026-05-03T17:21:44Z</time></trkpt><trkpt lat="41.34038127003016" lon="-1.268006783167531"><ele>649.0</ele><time>2026-05-03T17:21:45Z</time></trkpt><trkpt lat="41.34041103079414" lon="-1.267901209421031"><ele>649.0</ele><time>2026-05-03T17:21:46Z</time></trkpt><trkpt lat="41.34044003019491" lon="-1.2677942906412238"><ele>649.0</ele><time>2026-05-03T17:21:47Z</time></trkpt><trkpt lat="41.34046182636937" lon="-1.2676875500122338"><ele>649.0</ele><time>2026-05-03T17:21:48Z</time></trkpt><trkpt lat="41.34049849953781" lon="-1.2675897779430658"><ele>650.1666666666667</ele><time>2026-05-03T17:21:49Z</time></trkpt><trkpt lat="41.34052061083987" lon="-1.2674822452979067"><ele>651.3333333333334</ele><time>2026-05-03T17:21:50Z</time></trkpt><trkpt lat="41.340533171773444" lon="-1.2673717031321337"><ele>652.5</ele><time>2026-05-03T17:21:51Z</time></trkpt><trkpt lat="41.340512537799086" lon="-1.2672631446681992"><ele>653.6666666666666</ele><time>2026-05-03T17:21:52Z</time></trkpt><trkpt lat="41.34049963582816" lon="-1.2671591027167761"><ele>654.8333333333333</ele><time>2026-05-03T17:21:53Z</time></trkpt><trkpt lat="41.340483651737955" lon="-1.2670540154388952"><ele>656.0</ele><time>2026-05-03T17:21:54Z</time></trkpt><trkpt lat="41.34047958825099" lon="-1.266943218427809"><ele>656.1666666666666</ele><time>2026-05-03T17:21:55Z</time></trkpt><trkpt lat="41.34045654700771" lon="-1.26683692474391"><ele>656.3333333333333</ele><time>2026-05-03T17:21:56Z</time></trkpt><trkpt lat="41.340432262578766" lon="-1.2667309816169954"><ele>656.5</ele><time>2026-05-03T17:21:57Z</time></trkpt><trkpt lat="41.3404117235303" lon="-1.2666211446562963"><ele>656.6666666666666</ele><time>2026-05-03T17:21:58Z</time></trkpt><trkpt lat="41.34039225675033" lon="-1.2665036895081045"><ele>656.8333333333334</ele><time>2026-05-03T17:21:59Z</time></trkpt><trkpt lat="41.34036622780618" lon="-1.2663889390546177"><ele>657.0</ele><time>2026-05-03T17:22:00Z</time></trkpt><trkpt lat="41.34034683482009" lon="-1.2662757600264936"><ele>657.0</ele><time>2026-05-03T17:22:01Z</time></trkpt><trkpt lat="41.34032666954049" lon="-1.2661597413628878"><ele>657.0</ele><time>2026-05-03T17:22:02Z</time></trkpt><trkpt lat="41.34030207141664" lon="-1.2660374417014855"><ele>657.0</ele><time>2026-05-03T17:22:03Z</time></trkpt><trkpt lat="41.34027412007744" lon="-1.2659186395921633"><ele>657.0</ele><time>2026-05-03T17:22:04Z</time></trkpt><trkpt lat="41.34025057249988" lon="-1.2657941087854316"><ele>657.0</ele><time>2026-05-03T17:22:05Z</time></trkpt><trkpt lat="41.34022469911902" lon="-1.2656690839162563"><ele>656.8</ele><time>2026-05-03T17:22:06Z</time></trkpt><trkpt lat="41.34020732908763" lon="-1.2655483286274314"><ele>656.6</ele><time>2026-05-03T17:22:07Z</time></trkpt><trkpt lat="41.34018164392292" lon="-1.265431365755885"><ele>656.4</ele><time>2026-05-03T17:22:08Z</time></trkpt><trkpt lat="41.340159475048104" lon="-1.2653144546515191"><ele>656.1999999999999</ele><time>2026-05-03T17:22:09Z</time></trkpt><trkpt lat="41.34013687589923" lon="-1.2651926598336414"><ele>656.0</ele><time>2026-05-03T17:22:10Z</time></trkpt><trkpt lat="41.34011553314332" lon="-1.265084802071345"><ele>656.0</ele><time>2026-05-03T17:22:11Z</time></trkpt><trkpt lat="41.340101506206345" lon="-1.2649801953402162"><ele>656.0</ele><time>2026-05-03T17:22:12Z</time></trkpt><trkpt lat="41.34008818088403" lon="-1.2648753131591601"><ele>656.0</ele><time>2026-05-03T17:22:13Z</time></trkpt><trkpt lat="41.340071316428514" lon="-1.2647644510250244"><ele>656.0</ele><time>2026-05-03T17:22:14Z</time></trkpt><trkpt lat="41.34005832866823" lon="-1.2646496106368044"><ele>656.0</ele><time>2026-05-03T17:22:15Z</time></trkpt><trkpt lat="41.34005210802655" lon="-1.2645278917810778"><ele>656.0</ele><time>2026-05-03T17:22:16Z</time></trkpt><trkpt lat="41.3400558861125" lon="-1.2643997897004366"><ele>655.1999999999999</ele><time>2026-05-03T17:22:17Z</time></trkpt><trkpt lat="41.340067250816105" lon="-1.264272527130462"><ele>654.4</ele><time>2026-05-03T17:22:18Z</time></trkpt><trkpt lat="41.340088231752944" lon="-1.2641551655899552"><ele>653.6</ele><time>2026-05-03T17:22:19Z</time></trkpt><trkpt lat="41.340112678430515" lon="-1.2640312795870852"><ele>652.8</ele><time>2026-05-03T17:22:20.001Z</time></trkpt><trkpt lat="41.340141233576865" lon="-1.263905518703939"><ele>652.0</ele><time>2026-05-03T17:22:21.001Z</time></trkpt><trkpt lat="41.34017077054709" lon="-1.2637758553539078"><ele>651.4000000000001</ele><time>2026-05-03T17:22:22.001Z</time></trkpt><trkpt lat="41.34020719103871" lon="-1.2636454078419121"><ele>650.8000000000001</ele><time>2026-05-03T17:22:23.001Z</time></trkpt><trkpt lat="41.34023967130092" lon="-1.2635174615218814"><ele>650.2</ele><time>2026-05-03T17:22:24.001Z</time></trkpt><trkpt lat="41.3402738252629" lon="-1.2633903559197157"><ele>649.6</ele><time>2026-05-03T17:22:25.001Z</time></trkpt><trkpt lat="41.34030959023636" lon="-1.263260104430236"><ele>649.0</ele><time>2026-05-03T17:22:26.001Z</time></trkpt><trkpt lat="41.34034091587352" lon="-1.263132251284493"><ele>650.0</ele><time>2026-05-03T17:22:27.001Z</time></trkpt><trkpt lat="41.3403711873859" lon="-1.2630014685840514"><ele>651.0</ele><time>2026-05-03T17:22:28.001Z</time></trkpt><trkpt lat="41.340406453345295" lon="-1.262872681288017"><ele>652.0</ele><time>2026-05-03T17:22:29.001Z</time></trkpt><trkpt lat="41.3404446438121" lon="-1.2627464352817293"><ele>653.0</ele><time>2026-05-03T17:22:30.001Z</time></trkpt><trkpt lat="41.34048215860056" lon="-1.2626119213019258"><ele>654.0</ele><time>2026-05-03T17:22:31.001Z</time></trkpt><trkpt lat="41.34052232460801" lon="-1.262474179953598"><ele>653.0</ele><time>2026-05-03T17:22:32.001Z</time></trkpt><trkpt lat="41.34056056014112" lon="-1.2623370259183824"><ele>652.0</ele><time>2026-05-03T17:22:33.001Z</time></trkpt><trkpt lat="41.3405964213438" lon="-1.2621963785048942"><ele>651.0</ele><time>2026-05-03T17:22:34.001Z</time></trkpt><trkpt lat="41.340631881858755" lon="-1.2620577454840942"><ele>650.0</ele><time>2026-05-03T17:22:35.001Z</time></trkpt><trkpt lat="41.34066595094097" lon="-1.2619226622612227"><ele>649.0</ele><time>2026-05-03T17:22:36.001Z</time></trkpt><trkpt lat="41.34070102280319" lon="-1.2617861487559492"><ele>649.0</ele><time>2026-05-03T17:22:37.001Z</time></trkpt><trkpt lat="41.340732561034486" lon="-1.2616466635887045"><ele>649.0</ele><time>2026-05-03T17:22:38.001Z</time></trkpt><trkpt lat="41.34076710674177" lon="-1.2615092540598511"><ele>649.0</ele><time>2026-05-03T17:22:39.001Z</time></trkpt><trkpt lat="41.340805669135314" lon="-1.2613736561356004"><ele>649.0</ele><time>2026-05-03T17:22:40.001Z</time></trkpt><trkpt lat="41.340843583284304" lon="-1.261241138154572"><ele>649.0</ele><time>2026-05-03T17:22:41.001Z</time></trkpt><trkpt lat="41.34087860724391" lon="-1.2611060643765917"><ele>649.2</ele><time>2026-05-03T17:22:42.001Z</time></trkpt><trkpt lat="41.340911749518" lon="-1.2609710933087748"><ele>649.4000000000001</ele><time>2026-05-03T17:22:43.001Z</time></trkpt><trkpt lat="41.34094642063231" lon="-1.260841879669611"><ele>649.6</ele><time>2026-05-03T17:22:44.001Z</time></trkpt><trkpt lat="41.34098414811022" lon="-1.2607030061339177"><ele>649.8</ele><time>2026-05-03T17:22:45.001Z</time></trkpt><trkpt lat="41.341016915740695" lon="-1.2605695535855326"><ele>650.0</ele><time>2026-05-03T17:22:46.001Z</time></trkpt><trkpt lat="41.341048926866314" lon="-1.2604350633070414"><ele>651.0</ele><time>2026-05-03T17:22:47.001Z</time></trkpt><trkpt lat="41.34108574674906" lon="-1.2603017899052786"><ele>652.0</ele><time>2026-05-03T17:22:48.001Z</time></trkpt><trkpt lat="41.34112489839232" lon="-1.260170502581765"><ele>653.0</ele><time>2026-05-03T17:22:49.001Z</time></trkpt><trkpt lat="41.34116079199591" lon="-1.2600412192228323"><ele>654.0</ele><time>2026-05-03T17:22:50.001Z</time></trkpt><trkpt lat="41.34119372906294" lon="-1.2599063827921528"><ele>655.0</ele><time>2026-05-03T17:22:51.001Z</time></trkpt><trkpt lat="41.34122822553798" lon="-1.2597738118387631"><ele>654.4</ele><time>2026-05-03T17:22:52.001Z</time></trkpt><trkpt lat="41.341263520624544" lon="-1.2596420529750192"><ele>653.8</ele><time>2026-05-03T17:22:53.001Z</time></trkpt><trkpt lat="41.34129747323657" lon="-1.2595086787920802"><ele>653.2</ele><time>2026-05-03T17:22:54.001Z</time></trkpt><trkpt lat="41.34133296597836" lon="-1.2593782038991055"><ele>652.6</ele><time>2026-05-03T17:22:55.001Z</time></trkpt><trkpt lat="41.34136865099449" lon="-1.259248183699169"><ele>652.0</ele><time>2026-05-03T17:22:56.001Z</time></trkpt><trkpt lat="41.34140488580188" lon="-1.2591158332410046"><ele>652.0</ele><time>2026-05-03T17:22:57.001Z</time></trkpt><trkpt lat="41.34144059623482" lon="-1.258983310042884"><ele>652.0</ele><time>2026-05-03T17:22:58.001Z</time></trkpt><trkpt lat="41.34147572117006" lon="-1.258852696946389"><ele>652.0</ele><time>2026-05-03T17:22:59.001Z</time></trkpt><trkpt lat="41.341509741574775" lon="-1.2587220341855998"><ele>652.0</ele><time>2026-05-03T17:23:00.001Z</time></trkpt><trkpt lat="41.34154416989285" lon="-1.2585910348495686"><ele>652.0</ele><time>2026-05-03T17:23:01.001Z</time></trkpt><trkpt lat="41.341578728149514" lon="-1.2584610021032758"><ele>652.6</ele><time>2026-05-03T17:23:02.001Z</time></trkpt><trkpt lat="41.341613863451194" lon="-1.2583306221893953"><ele>653.2</ele><time>2026-05-03T17:23:03.001Z</time></trkpt><trkpt lat="41.341648885892994" lon="-1.2581979558814333"><ele>653.8</ele><time>2026-05-03T17:23:04.001Z</time></trkpt><trkpt lat="41.34168445036424" lon="-1.2580685156517666"><ele>654.4</ele><time>2026-05-03T17:23:05.001Z</time></trkpt><trkpt lat="41.34171708922644" lon="-1.2579351666729097"><ele>655.0</ele><time>2026-05-03T17:23:06.001Z</time></trkpt><trkpt lat="41.341746250280565" lon="-1.2577950932870485"><ele>655.0</ele><time>2026-05-03T17:23:07.001Z</time></trkpt><trkpt lat="41.34177399813267" lon="-1.2576553298818238"><ele>655.0</ele><time>2026-05-03T17:23:08.001Z</time></trkpt><trkpt lat="41.34180370508053" lon="-1.2575170592963625"><ele>655.0</ele><time>2026-05-03T17:23:09.001Z</time></trkpt><trkpt lat="41.34183371231846" lon="-1.2573385189367041"><ele>655.0</ele><time>2026-05-03T17:23:10.001Z</time></trkpt><trkpt lat="41.34188422058233" lon="-1.2570583684308119"><ele>655.4</ele><time>2026-05-03T17:23:11.001Z</time></trkpt><trkpt lat="41.341935520646025" lon="-1.2569395294054921"><ele>655.8</ele><time>2026-05-03T17:23:13.001Z</time></trkpt><trkpt lat="41.34196337088197" lon="-1.2568018007681425"><ele>656.2</ele><time>2026-05-03T17:23:14.001Z</time></trkpt><trkpt lat="41.3419883855859" lon="-1.2566678191624312"><ele>656.6</ele><time>2026-05-03T17:23:15.001Z</time></trkpt><trkpt lat="41.34201427238777" lon="-1.256539358433358"><ele>657.0</ele><time>2026-05-03T17:23:16.001Z</time></trkpt><trkpt lat="41.342044185155345" lon="-1.2564101834137877"><ele>657.4000000000001</ele><time>2026-05-03T17:23:17.001Z</time></trkpt><trkpt lat="41.34208070180214" lon="-1.2562904062765778"><ele>657.8000000000001</ele><time>2026-05-03T17:23:18.001Z</time></trkpt><trkpt lat="41.34212390346998" lon="-1.2561762185229246"><ele>658.2</ele><time>2026-05-03T17:23:19.001Z</time></trkpt><trkpt lat="41.342183716668934" lon="-1.2560753629175454"><ele>658.6</ele><time>2026-05-03T17:23:20.001Z</time></trkpt><trkpt lat="41.342250924594474" lon="-1.2559863959854785"><ele>659.0</ele><time>2026-05-03T17:23:21.001Z</time></trkpt><trkpt lat="41.342319650341786" lon="-1.2558986011241988"><ele>659.0</ele><time>2026-05-03T17:23:22.001Z</time></trkpt><trkpt lat="41.34238626727022" lon="-1.2558076633792192"><ele>659.0</ele><time>2026-05-03T17:23:23.001Z</time></trkpt><trkpt lat="41.3424509678636" lon="-1.255721487307708"><ele>659.0</ele><time>2026-05-03T17:23:24.001Z</time></trkpt><trkpt lat="41.342520502637605" lon="-1.2556302458267743"><ele>659.0</ele><time>2026-05-03T17:23:25.001Z</time></trkpt><trkpt lat="41.34259295599811" lon="-1.2555373475156406"><ele>659.0</ele><time>2026-05-03T17:23:26.001Z</time></trkpt><trkpt lat="41.3426672096063" lon="-1.2554403933271276"><ele>659.2</ele><time>2026-05-03T17:23:27.001Z</time></trkpt><trkpt lat="41.342715817914154" lon="-1.2553131774602462"><ele>659.4000000000001</ele><time>2026-05-03T17:23:28.001Z</time></trkpt><trkpt lat="41.34276405574486" lon="-1.2551837497419551"><ele>659.6</ele><time>2026-05-03T17:23:29.001Z</time></trkpt><trkpt lat="41.3427800370949" lon="-1.2550488429495423"><ele>659.8</ele><time>2026-05-03T17:23:30.001Z</time></trkpt><trkpt lat="41.34278084413788" lon="-1.254904404787389"><ele>660.0</ele><time>2026-05-03T17:23:31.001Z</time></trkpt><trkpt lat="41.342764861414516" lon="-1.2547639705034501"><ele>659.0</ele><time>2026-05-03T17:23:32.001Z</time></trkpt><trkpt lat="41.34274687441691" lon="-1.2546184172865051"><ele>658.0</ele><time>2026-05-03T17:23:33.001Z</time></trkpt><trkpt lat="41.34272825394685" lon="-1.2544677854552868"><ele>657.0</ele><time>2026-05-03T17:23:34.001Z</time></trkpt><trkpt lat="41.342709771898114" lon="-1.254316642621692"><ele>656.0</ele><time>2026-05-03T17:23:35.001Z</time></trkpt><trkpt lat="41.34269504232522" lon="-1.2541573868991542"><ele>656.0</ele><time>2026-05-03T17:23:36.001Z</time></trkpt><trkpt lat="41.342673213100795" lon="-1.2540080628166856"><ele>656.0</ele><time>2026-05-03T17:23:37.001Z</time></trkpt><trkpt lat="41.342652858918115" lon="-1.25383194475875"><ele>656.0</ele><time>2026-05-03T17:23:38Z</time></trkpt><trkpt lat="41.34264657189705" lon="-1.2537060397427109"><ele>656.0</ele><time>2026-05-03T17:23:39Z</time></trkpt><trkpt lat="41.34262249005421" lon="-1.253557299863758"><ele>655.75</ele><time>2026-05-03T17:23:40Z</time></trkpt><trkpt lat="41.34261421800049" lon="-1.253401180554356"><ele>655.5</ele><time>2026-05-03T17:23:41Z</time></trkpt><trkpt lat="41.3426011046095" lon="-1.2532485350130362"><ele>655.25</ele><time>2026-05-03T17:23:42Z</time></trkpt><trkpt lat="41.34259077684262" lon="-1.2530958188552153"><ele>655.0</ele><time>2026-05-03T17:23:43Z</time></trkpt><trkpt lat="41.34258177636747" lon="-1.2529392782841058"><ele>653.75</ele><time>2026-05-03T17:23:44Z</time></trkpt><trkpt lat="41.342585252153995" lon="-1.252782645509691"><ele>652.5</ele><time>2026-05-03T17:23:45Z</time></trkpt><trkpt lat="41.34258388560314" lon="-1.2526283697674843"><ele>651.25</ele><time>2026-05-03T17:23:46Z</time></trkpt><trkpt lat="41.34258560413978" lon="-1.252469514753275"><ele>650.0</ele><time>2026-05-03T17:23:47Z</time></trkpt><trkpt lat="41.3425870906208" lon="-1.2523142027687817"><ele>648.75</ele><time>2026-05-03T17:23:48Z</time></trkpt><trkpt lat="41.34259113120668" lon="-1.2521547115593394"><ele>647.5</ele><time>2026-05-03T17:23:49Z</time></trkpt><trkpt lat="41.34259429582889" lon="-1.2519988107254223"><ele>646.25</ele><time>2026-05-03T17:23:50Z</time></trkpt><trkpt lat="41.342597219311585" lon="-1.2518440425400195"><ele>645.0</ele><time>2026-05-03T17:23:51Z</time></trkpt><trkpt lat="41.34259945782084" lon="-1.2516845852163856"><ele>645.0</ele><time>2026-05-03T17:23:52Z</time></trkpt><trkpt lat="41.3426000774263" lon="-1.2515267969307458"><ele>645.0</ele><time>2026-05-03T17:23:53Z</time></trkpt><trkpt lat="41.34260181930092" lon="-1.251369090102653"><ele>645.0</ele><time>2026-05-03T17:23:54Z</time></trkpt><trkpt lat="41.34260237737913" lon="-1.2512122747838936"><ele>645.0</ele><time>2026-05-03T17:23:55Z</time></trkpt><trkpt lat="41.34260062817619" lon="-1.2510563627581375"><ele>644.75</ele><time>2026-05-03T17:23:56Z</time></trkpt><trkpt lat="41.34260105917485" lon="-1.2509005083123301"><ele>644.5</ele><time>2026-05-03T17:23:57Z</time></trkpt><trkpt lat="41.342604045330425" lon="-1.2507454068542205"><ele>644.25</ele><time>2026-05-03T17:23:58Z</time></trkpt><trkpt lat="41.342608613490555" lon="-1.2505858556926823"><ele>644.0</ele><time>2026-05-03T17:23:59Z</time></trkpt><trkpt lat="41.342610499603225" lon="-1.2504256632173008"><ele>642.75</ele><time>2026-05-03T17:24:00Z</time></trkpt><trkpt lat="41.3426121780769" lon="-1.2502651894526418"><ele>641.5</ele><time>2026-05-03T17:24:01Z</time></trkpt><trkpt lat="41.34261439116666" lon="-1.250108095416067"><ele>640.25</ele><time>2026-05-03T17:24:02Z</time></trkpt><trkpt lat="41.342615029559845" lon="-1.249953493470678"><ele>639.0</ele><time>2026-05-03T17:24:03Z</time></trkpt><trkpt lat="41.34261751254125" lon="-1.249796711590236"><ele>639.25</ele><time>2026-05-03T17:24:04Z</time></trkpt><trkpt lat="41.34262300836017" lon="-1.2496407904504419"><ele>639.5</ele><time>2026-05-03T17:24:05Z</time></trkpt><trkpt lat="41.34262661603359" lon="-1.2494834350455375"><ele>639.75</ele><time>2026-05-03T17:24:06Z</time></trkpt><trkpt lat="41.342626958926644" lon="-1.2493265368276865"><ele>640.0</ele><time>2026-05-03T17:24:07Z</time></trkpt><trkpt lat="41.34262665877955" lon="-1.2491680900269462"><ele>640.0</ele><time>2026-05-03T17:24:08Z</time></trkpt><trkpt lat="41.34262330139129" lon="-1.2490090994427476"><ele>640.0</ele><time>2026-05-03T17:24:09Z</time></trkpt><trkpt lat="41.34262703675189" lon="-1.2488516904085607"><ele>640.0</ele><time>2026-05-03T17:24:10Z</time></trkpt><trkpt lat="41.342633873380834" lon="-1.2486943706486628"><ele>640.0</ele><time>2026-05-03T17:24:11Z</time></trkpt><trkpt lat="41.3426370463214" lon="-1.2485321104628295"><ele>639.0</ele><time>2026-05-03T17:24:12Z</time></trkpt><trkpt lat="41.34263826549383" lon="-1.248373227373254"><ele>638.0</ele><time>2026-05-03T17:24:13Z</time></trkpt><trkpt lat="41.342637792239486" lon="-1.2482151232457408"><ele>637.0</ele><time>2026-05-03T17:24:14Z</time></trkpt><trkpt lat="41.34263790531465" lon="-1.248059863729173"><ele>636.0</ele><time>2026-05-03T17:24:15Z</time></trkpt><trkpt lat="41.34264048827392" lon="-1.2479011165269855"><ele>635.0</ele><time>2026-05-03T17:24:16Z</time></trkpt><trkpt lat="41.34264822682688" lon="-1.2477438883951073"><ele>634.0</ele><time>2026-05-03T17:24:17Z</time></trkpt><trkpt lat="41.34266390572468" lon="-1.2475836361336041"><ele>633.0</ele><time>2026-05-03T17:24:18Z</time></trkpt><trkpt lat="41.34268256117108" lon="-1.24742619158918"><ele>632.0</ele><time>2026-05-03T17:24:19Z</time></trkpt><trkpt lat="41.342703874357056" lon="-1.2472692574635655"><ele>631.25</ele><time>2026-05-03T17:24:20Z</time></trkpt><trkpt lat="41.34272577558105" lon="-1.247105819440689"><ele>630.5</ele><time>2026-05-03T17:24:21Z</time></trkpt><trkpt lat="41.34274436273502" lon="-1.2469557404832698"><ele>629.75</ele><time>2026-05-03T17:24:22Z</time></trkpt><trkpt lat="41.34276366000908" lon="-1.2468011732325657"><ele>629.0</ele><time>2026-05-03T17:24:23Z</time></trkpt><trkpt lat="41.34277987246888" lon="-1.246643210846528"><ele>629.0</ele><time>2026-05-03T17:24:24Z</time></trkpt><trkpt lat="41.342798432096956" lon="-1.2464880790327288"><ele>629.0</ele><time>2026-05-03T17:24:25Z</time></trkpt><trkpt lat="41.342817908624085" lon="-1.2463356662028655"><ele>629.0</ele><time>2026-05-03T17:24:26Z</time></trkpt><trkpt lat="41.342834726828755" lon="-1.2461748044061425"><ele>629.0</ele><time>2026-05-03T17:24:27Z</time></trkpt><trkpt lat="41.34285544325288" lon="-1.2460245623145456"><ele>628.5</ele><time>2026-05-03T17:24:28Z</time></trkpt><trkpt lat="41.34287600876799" lon="-1.2458696875580064"><ele>628.0</ele><time>2026-05-03T17:24:29Z</time></trkpt><trkpt lat="41.342892330627016" lon="-1.245716422357999"><ele>627.5</ele><time>2026-05-03T17:24:30Z</time></trkpt><trkpt lat="41.34291365636451" lon="-1.245563971605976"><ele>627.0</ele><time>2026-05-03T17:24:31Z</time></trkpt><trkpt lat="41.34293301952534" lon="-1.245410391620063"><ele>627.5</ele><time>2026-05-03T17:24:32Z</time></trkpt><trkpt lat="41.34295221056367" lon="-1.2452542413071375"><ele>628.0</ele><time>2026-05-03T17:24:33Z</time></trkpt><trkpt lat="41.3429705275147" lon="-1.245100933969306"><ele>628.5</ele><time>2026-05-03T17:24:34Z</time></trkpt><trkpt lat="41.342989467020104" lon="-1.2449481348091382"><ele>629.0</ele><time>2026-05-03T17:24:35.001Z</time></trkpt><trkpt lat="41.34300934735987" lon="-1.2447924738872034"><ele>629.0</ele><time>2026-05-03T17:24:36.001Z</time></trkpt><trkpt lat="41.34302847314369" lon="-1.2446417247878512"><ele>629.0</ele><time>2026-05-03T17:24:37.001Z</time></trkpt><trkpt lat="41.34304843508037" lon="-1.2444834107752913"><ele>629.0</ele><time>2026-05-03T17:24:38.001Z</time></trkpt><trkpt lat="41.343064903681274" lon="-1.2443289487215499"><ele>629.0</ele><time>2026-05-03T17:24:39.001Z</time></trkpt><trkpt lat="41.343080444663535" lon="-1.2441707576795493"><ele>628.0</ele><time>2026-05-03T17:24:40.001Z</time></trkpt><trkpt lat="41.34309118577934" lon="-1.2440144990657824"><ele>627.0</ele><time>2026-05-03T17:24:41.001Z</time></trkpt><trkpt lat="41.34309777421059" lon="-1.243856899259957"><ele>626.0</ele><time>2026-05-03T17:24:42.001Z</time></trkpt><trkpt lat="41.34310029817406" lon="-1.243699106139552"><ele>625.0</ele><time>2026-05-03T17:24:43.001Z</time></trkpt><trkpt lat="41.343090863363926" lon="-1.243540692166228"><ele>625.0</ele><time>2026-05-03T17:24:44.001Z</time></trkpt><trkpt lat="41.343076604633815" lon="-1.2433819452420534"><ele>625.0</ele><time>2026-05-03T17:24:45.001Z</time></trkpt><trkpt lat="41.34305846855206" lon="-1.2432270970601762"><ele>625.0</ele><time>2026-05-03T17:24:46.001Z</time></trkpt><trkpt lat="41.34303888784428" lon="-1.2430712049726529"><ele>625.0</ele><time>2026-05-03T17:24:47.001Z</time></trkpt><trkpt lat="41.34301903261106" lon="-1.2429147005116776"><ele>624.75</ele><time>2026-05-03T17:24:48.001Z</time></trkpt><trkpt lat="41.34300292796538" lon="-1.2427577177453142"><ele>624.5</ele><time>2026-05-03T17:24:49.001Z</time></trkpt><trkpt lat="41.34298305097646" lon="-1.2426033334663393"><ele>624.25</ele><time>2026-05-03T17:24:50.001Z</time></trkpt><trkpt lat="41.342957785025895" lon="-1.2424497323317993"><ele>624.0</ele><time>2026-05-03T17:24:51.001Z</time></trkpt><trkpt lat="41.342935845407666" lon="-1.2422974278262409"><ele>623.25</ele><time>2026-05-03T17:24:52.001Z</time></trkpt><trkpt lat="41.34291342629498" lon="-1.2421396295108935"><ele>622.5</ele><time>2026-05-03T17:24:53.001Z</time></trkpt><trkpt lat="41.34289229978685" lon="-1.2419877770022194"><ele>621.75</ele><time>2026-05-03T17:24:54.001Z</time></trkpt><trkpt lat="41.342869289064545" lon="-1.241830328112996"><ele>621.0</ele><time>2026-05-03T17:24:55.001Z</time></trkpt><trkpt lat="41.34285085103009" lon="-1.241677686580633"><ele>621.0</ele><time>2026-05-03T17:24:56.001Z</time></trkpt><trkpt lat="41.34283251914411" lon="-1.241521646693671"><ele>621.0</ele><time>2026-05-03T17:24:57.001Z</time></trkpt><trkpt lat="41.34281471991201" lon="-1.2413644886369521"><ele>621.0</ele><time>2026-05-03T17:24:58.001Z</time></trkpt><trkpt lat="41.34279883909835" lon="-1.241212264269591"><ele>621.0</ele><time>2026-05-03T17:24:59.001Z</time></trkpt><trkpt lat="41.34278169535014" lon="-1.2410571275720672"><ele>619.75</ele><time>2026-05-03T17:25:00.001Z</time></trkpt><trkpt lat="41.34275634617709" lon="-1.2409054146849312"><ele>618.5</ele><time>2026-05-03T17:25:01.001Z</time></trkpt><trkpt lat="41.3427346955824" lon="-1.240751748409662"><ele>617.25</ele><time>2026-05-03T17:25:02.001Z</time></trkpt><trkpt lat="41.34271294378733" lon="-1.2405968947884622"><ele>616.0</ele><time>2026-05-03T17:25:03.001Z</time></trkpt><trkpt lat="41.34269341428129" lon="-1.240441092569857"><ele>614.75</ele><time>2026-05-03T17:25:04.001Z</time></trkpt><trkpt lat="41.34267273450573" lon="-1.2402872111133307"><ele>613.5</ele><time>2026-05-03T17:25:05.001Z</time></trkpt><trkpt lat="41.342655169375334" lon="-1.2401315151839092"><ele>612.25</ele><time>2026-05-03T17:25:06.001Z</time></trkpt><trkpt lat="41.34263490423973" lon="-1.2399772138470992"><ele>611.0</ele><time>2026-05-03T17:25:07.001Z</time></trkpt><trkpt lat="41.34261147337282" lon="-1.2398210503959812"><ele>610.75</ele><time>2026-05-03T17:25:08.001Z</time></trkpt><trkpt lat="41.34258935331809" lon="-1.2396619654896006"><ele>610.5</ele><time>2026-05-03T17:25:09.001Z</time></trkpt><trkpt lat="41.342568767375624" lon="-1.2395070468262075"><ele>610.25</ele><time>2026-05-03T17:25:10.001Z</time></trkpt><trkpt lat="41.34255159720715" lon="-1.239355007720126"><ele>610.0</ele><time>2026-05-03T17:25:11.001Z</time></trkpt><trkpt lat="41.342526685750876" lon="-1.2392020754245943"><ele>610.0</ele><time>2026-05-03T17:25:12.001Z</time></trkpt><trkpt lat="41.34250237678165" lon="-1.2390448246451278"><ele>610.0</ele><time>2026-05-03T17:25:13.001Z</time></trkpt><trkpt lat="41.34248609241292" lon="-1.2388886075850671"><ele>610.0</ele><time>2026-05-03T17:25:14.001Z</time></trkpt><trkpt lat="41.34246536986431" lon="-1.2387394254162585"><ele>610.0</ele><time>2026-05-03T17:25:15.001Z</time></trkpt><trkpt lat="41.34244413365782" lon="-1.2385883771251671"><ele>609.25</ele><time>2026-05-03T17:25:16.001Z</time></trkpt><trkpt lat="41.342424607484965" lon="-1.2384343272948233"><ele>608.5</ele><time>2026-05-03T17:25:17.001Z</time></trkpt><trkpt lat="41.342402955322434" lon="-1.2382814576885746"><ele>607.75</ele><time>2026-05-03T17:25:18.001Z</time></trkpt><trkpt lat="41.34238894595285" lon="-1.238128243509895"><ele>607.0</ele><time>2026-05-03T17:25:19.001Z</time></trkpt><trkpt lat="41.342379008474" lon="-1.2379734280145356"><ele>606.0</ele><time>2026-05-03T17:25:20.001Z</time></trkpt><trkpt lat="41.34237987177622" lon="-1.237819356080809"><ele>605.0</ele><time>2026-05-03T17:25:21.001Z</time></trkpt><trkpt lat="41.34239799775551" lon="-1.2376626655113183"><ele>604.0</ele><time>2026-05-03T17:25:22.001Z</time></trkpt><trkpt lat="41.342431821116925" lon="-1.2375083313531117"><ele>603.0</ele><time>2026-05-03T17:25:23.001Z</time></trkpt><trkpt lat="41.34247574468563" lon="-1.2373625760591354"><ele>603.0</ele><time>2026-05-03T17:25:24.001Z</time></trkpt><trkpt lat="41.34252604386662" lon="-1.2372272293831073"><ele>603.0</ele><time>2026-05-03T17:25:25.001Z</time></trkpt><trkpt lat="41.34257952143776" lon="-1.2370887775343056"><ele>603.0</ele><time>2026-05-03T17:25:26.001Z</time></trkpt><trkpt lat="41.342633860151025" lon="-1.2369511170100949"><ele>603.0</ele><time>2026-05-03T17:25:27.001Z</time></trkpt><trkpt lat="41.34268835646837" lon="-1.236812192796291"><ele>603.0</ele><time>2026-05-03T17:25:28.001Z</time></trkpt><trkpt lat="41.34274635541153" lon="-1.2366795449365182"><ele>603.0</ele><time>2026-05-03T17:25:29.001Z</time></trkpt><trkpt lat="41.34280152508589" lon="-1.2365404984837756"><ele>603.0</ele><time>2026-05-03T17:25:30.001Z</time></trkpt><trkpt lat="41.34285525168563" lon="-1.2364068970578632"><ele>603.0</ele><time>2026-05-03T17:25:31.001Z</time></trkpt><trkpt lat="41.34291292434995" lon="-1.2362720976948065"><ele>602.5</ele><time>2026-05-03T17:25:32.001Z</time></trkpt><trkpt lat="41.34297218681175" lon="-1.236138790536632"><ele>602.0</ele><time>2026-05-03T17:25:33.001Z</time></trkpt><trkpt lat="41.343029488001974" lon="-1.2360056702125968"><ele>601.5</ele><time>2026-05-03T17:25:34.001Z</time></trkpt><trkpt lat="41.34307938838897" lon="-1.235864457901445"><ele>601.0</ele><time>2026-05-03T17:25:35.001Z</time></trkpt><trkpt lat="41.34309823569049" lon="-1.2357193033889802"><ele>600.2</ele><time>2026-05-03T17:25:36.001Z</time></trkpt><trkpt lat="41.34309915342546" lon="-1.2355882836905507"><ele>599.4000000000001</ele><time>2026-05-03T17:25:37.001Z</time></trkpt><trkpt lat="41.3430946243427" lon="-1.2354515436136673"><ele>598.6</ele><time>2026-05-03T17:25:38.001Z</time></trkpt><trkpt lat="41.34309950841839" lon="-1.2353137628489612"><ele>597.8000000000001</ele><time>2026-05-03T17:25:39.001Z</time></trkpt><trkpt lat="41.343084172952864" lon="-1.2351735522905187"><ele>597.0</ele><time>2026-05-03T17:25:40.001Z</time></trkpt><trkpt lat="41.34303182272783" lon="-1.2350503578213725"><ele>597.0</ele><time>2026-05-03T17:25:41.001Z</time></trkpt><trkpt lat="41.342971677369675" lon="-1.2349290396625"><ele>597.0</ele><time>2026-05-03T17:25:42.001Z</time></trkpt><trkpt lat="41.34289549976863" lon="-1.234823497147749"><ele>597.0</ele><time>2026-05-03T17:25:43.001Z</time></trkpt><trkpt lat="41.34281283413331" lon="-1.2347212017494165"><ele>597.0</ele><time>2026-05-03T17:25:44Z</time></trkpt><trkpt lat="41.34272861308975" lon="-1.2346244487727542"><ele>597.0</ele><time>2026-05-03T17:25:45Z</time></trkpt><trkpt lat="41.34264232740609" lon="-1.2345302449702287"><ele>596.75</ele><time>2026-05-03T17:25:46Z</time></trkpt><trkpt lat="41.3425519112207" lon="-1.23443153163486"><ele>596.5</ele><time>2026-05-03T17:25:47Z</time></trkpt><trkpt lat="41.34245926593132" lon="-1.2343303845488665"><ele>596.25</ele><time>2026-05-03T17:25:48Z</time></trkpt><trkpt lat="41.34237179468879" lon="-1.234233631255015"><ele>596.0</ele><time>2026-05-03T17:25:49Z</time></trkpt><trkpt lat="41.342282431638544" lon="-1.2341345656988107"><ele>596.75</ele><time>2026-05-03T17:25:50Z</time></trkpt><trkpt lat="41.34219974539125" lon="-1.2340255057583618"><ele>597.5</ele><time>2026-05-03T17:25:51Z</time></trkpt><trkpt lat="41.342111028293495" lon="-1.233926703694756"><ele>598.25</ele><time>2026-05-03T17:25:52Z</time></trkpt><trkpt lat="41.34202969957643" lon="-1.2338264097307454"><ele>599.0</ele><time>2026-05-03T17:25:53Z</time></trkpt><trkpt lat="41.3419518523946" lon="-1.2337204715468588"><ele>599.0</ele><time>2026-05-03T17:25:54Z</time></trkpt><trkpt lat="41.341887032140455" lon="-1.2336038715902016"><ele>599.0</ele><time>2026-05-03T17:25:55Z</time></trkpt><trkpt lat="41.34182647909176" lon="-1.2334748004867675"><ele>599.0</ele><time>2026-05-03T17:25:56Z</time></trkpt><trkpt lat="41.34177650860983" lon="-1.2333366046410006"><ele>599.0</ele><time>2026-05-03T17:25:57Z</time></trkpt><trkpt lat="41.341742543156776" lon="-1.2331901393386129"><ele>598.6</ele><time>2026-05-03T17:25:58Z</time></trkpt><trkpt lat="41.34171715494319" lon="-1.233046453363252"><ele>598.2</ele><time>2026-05-03T17:25:59Z</time></trkpt><trkpt lat="41.34170428146123" lon="-1.2328977403878605"><ele>597.8000000000001</ele><time>2026-05-03T17:26:00Z</time></trkpt><trkpt lat="41.341683986202035" lon="-1.2327481182735376"><ele>597.4</ele><time>2026-05-03T17:26:01Z</time></trkpt><trkpt lat="41.34166319433685" lon="-1.2326015314961956"><ele>597.0</ele><time>2026-05-03T17:26:02Z</time></trkpt><trkpt lat="41.3416449324419" lon="-1.2324489666304272"><ele>596.5</ele><time>2026-05-03T17:26:03Z</time></trkpt><trkpt lat="41.341623026447756" lon="-1.232296281131543"><ele>596.0</ele><time>2026-05-03T17:26:04Z</time></trkpt><trkpt lat="41.341604232225315" lon="-1.2321440985816663"><ele>595.5</ele><time>2026-05-03T17:26:05Z</time></trkpt><trkpt lat="41.34158449475313" lon="-1.2319973239256445"><ele>595.0</ele><time>2026-05-03T17:26:06Z</time></trkpt><trkpt lat="41.34156588716354" lon="-1.2318491906256117"><ele>595.0</ele><time>2026-05-03T17:26:07Z</time></trkpt><trkpt lat="41.341545586311554" lon="-1.231700742020544"><ele>595.0</ele><time>2026-05-03T17:26:08Z</time></trkpt><trkpt lat="41.341532874609165" lon="-1.2315459001818032"><ele>595.0</ele><time>2026-05-03T17:26:09Z</time></trkpt><trkpt lat="41.34150710578488" lon="-1.2314045794063218"><ele>595.0</ele><time>2026-05-03T17:26:10Z</time></trkpt><trkpt lat="41.341490255039126" lon="-1.2312557729402571"><ele>594.8</ele><time>2026-05-03T17:26:11Z</time></trkpt><trkpt lat="41.341468741890196" lon="-1.231108666955726"><ele>594.6</ele><time>2026-05-03T17:26:12Z</time></trkpt><trkpt lat="41.341450443509345" lon="-1.2309544329987043"><ele>594.4</ele><time>2026-05-03T17:26:13Z</time></trkpt><trkpt lat="41.341426443175926" lon="-1.2308144360112288"><ele>594.2</ele><time>2026-05-03T17:26:14Z</time></trkpt><trkpt lat="41.34140672897488" lon="-1.2306702126319773"><ele>594.0</ele><time>2026-05-03T17:26:15Z</time></trkpt><trkpt lat="41.34139522439638" lon="-1.2305204576644933"><ele>594.5</ele><time>2026-05-03T17:26:16Z</time></trkpt><trkpt lat="41.34136501881757" lon="-1.2303729238455974"><ele>595.0</ele><time>2026-05-03T17:26:17Z</time></trkpt><trkpt lat="41.341356139183034" lon="-1.2302197493036309"><ele>595.5</ele><time>2026-05-03T17:26:18Z</time></trkpt><trkpt lat="41.34132600145158" lon="-1.2300741345622064"><ele>596.0</ele><time>2026-05-03T17:26:19Z</time></trkpt><trkpt lat="41.34131856752392" lon="-1.229922002244244"><ele>595.8</ele><time>2026-05-03T17:26:20Z</time></trkpt><trkpt lat="41.341299388368114" lon="-1.2297734903901214"><ele>595.6</ele><time>2026-05-03T17:26:21Z</time></trkpt><trkpt lat="41.34126974757906" lon="-1.2296346979992416"><ele>595.4</ele><time>2026-05-03T17:26:22Z</time></trkpt><trkpt lat="41.34125662329456" lon="-1.2294927411287606"><ele>595.2</ele><time>2026-05-03T17:26:23Z</time></trkpt><trkpt lat="41.34123633869654" lon="-1.229363034877376"><ele>595.0</ele><time>2026-05-03T17:26:24Z</time></trkpt><trkpt lat="41.34122471665277" lon="-1.229238077151585"><ele>595.0</ele><time>2026-05-03T17:26:25Z</time></trkpt><trkpt lat="41.34121109946602" lon="-1.229117972706283"><ele>595.0</ele><time>2026-05-03T17:26:26Z</time></trkpt><trkpt lat="41.34119600470474" lon="-1.2289960525898984"><ele>595.0</ele><time>2026-05-03T17:26:27Z</time></trkpt><trkpt lat="41.34117682959519" lon="-1.228875963837398"><ele>595.0</ele><time>2026-05-03T17:26:28Z</time></trkpt><trkpt lat="41.341162605337345" lon="-1.2287492830364781"><ele>595.0</ele><time>2026-05-03T17:26:29Z</time></trkpt><trkpt lat="41.34114628344969" lon="-1.2286211052025993"><ele>594.4</ele><time>2026-05-03T17:26:30Z</time></trkpt><trkpt lat="41.3411279470041" lon="-1.228489036943999"><ele>593.8</ele><time>2026-05-03T17:26:31Z</time></trkpt><trkpt lat="41.34111041663424" lon="-1.228361706317018"><ele>593.2</ele><time>2026-05-03T17:26:32Z</time></trkpt><trkpt lat="41.341092798900455" lon="-1.2282228128873098"><ele>592.6</ele><time>2026-05-03T17:26:33Z</time></trkpt><trkpt lat="41.3410747938609" lon="-1.228088763129569"><ele>592.0</ele><time>2026-05-03T17:26:34Z</time></trkpt><trkpt lat="41.341056576855365" lon="-1.2279485865273103"><ele>592.0</ele><time>2026-05-03T17:26:35Z</time></trkpt><trkpt lat="41.34104036384047" lon="-1.2278093958989191"><ele>592.0</ele><time>2026-05-03T17:26:36Z</time></trkpt><trkpt lat="41.341020528623666" lon="-1.227673790948323"><ele>592.0</ele><time>2026-05-03T17:26:37Z</time></trkpt><trkpt lat="41.34100082741528" lon="-1.22753647265725"><ele>592.0</ele><time>2026-05-03T17:26:38Z</time></trkpt><trkpt lat="41.34098239714399" lon="-1.2273993088402462"><ele>592.0</ele><time>2026-05-03T17:26:39Z</time></trkpt><trkpt lat="41.34096440335374" lon="-1.2272616421517037"><ele>592.0</ele><time>2026-05-03T17:26:40Z</time></trkpt><trkpt lat="41.340949713346305" lon="-1.2271234461870304"><ele>592.0</ele><time>2026-05-03T17:26:41Z</time></trkpt><trkpt lat="41.34093758913651" lon="-1.2269842988131971"><ele>592.0</ele><time>2026-05-03T17:26:42Z</time></trkpt><trkpt lat="41.34093509691704" lon="-1.2268523404171052"><ele>592.0</ele><time>2026-05-03T17:26:43.001Z</time></trkpt><trkpt lat="41.34094291017473" lon="-1.2267240416690484"><ele>592.0</ele><time>2026-05-03T17:26:44.001Z</time></trkpt><trkpt lat="41.34096918739307" lon="-1.226605081655043"><ele>592.0</ele><time>2026-05-03T17:26:45.001Z</time></trkpt><trkpt lat="41.341010297011714" lon="-1.2264924887472677"><ele>592.0</ele><time>2026-05-03T17:26:46.001Z</time></trkpt><trkpt lat="41.341060391932636" lon="-1.2263920614448276"><ele>592.0</ele><time>2026-05-03T17:26:47.001Z</time></trkpt><trkpt lat="41.34111679651587" lon="-1.2262942015061815"><ele>592.0</ele><time>2026-05-03T17:26:48.001Z</time></trkpt><trkpt lat="41.34117504626407" lon="-1.2261948823662672"><ele>592.0</ele><time>2026-05-03T17:26:49.001Z</time></trkpt><trkpt lat="41.341215559460956" lon="-1.226087291747779"><ele>592.2</ele><time>2026-05-03T17:26:50.001Z</time></trkpt><trkpt lat="41.34123593134717" lon="-1.225968906803051"><ele>592.4000000000001</ele><time>2026-05-03T17:26:51.001Z</time></trkpt><trkpt lat="41.34122497877673" lon="-1.2258473793827733"><ele>592.5999999999999</ele><time>2026-05-03T17:26:52.001Z</time></trkpt><trkpt lat="41.34120269250393" lon="-1.225730414458877"><ele>592.8</ele><time>2026-05-03T17:26:53.001Z</time></trkpt><trkpt lat="41.34116833870485" lon="-1.2256206401669116"><ele>593.0</ele><time>2026-05-03T17:26:54.001Z</time></trkpt><trkpt lat="41.341122549821144" lon="-1.2255202496407145"><ele>592.6666666666666</ele><time>2026-05-03T17:26:55.001Z</time></trkpt><trkpt lat="41.341065589821774" lon="-1.2254312486545542"><ele>592.3333333333333</ele><time>2026-05-03T17:26:56.001Z</time></trkpt><trkpt lat="41.340998496071094" lon="-1.22535977688306"><ele>592.0</ele><time>2026-05-03T17:26:57.001Z</time></trkpt><trkpt lat="41.34092606494322" lon="-1.2252908021267146"><ele>591.6666666666666</ele><time>2026-05-03T17:26:58.001Z</time></trkpt><trkpt lat="41.34085419864236" lon="-1.225218138590701"><ele>591.3333333333334</ele><time>2026-05-03T17:26:59.001Z</time></trkpt><trkpt lat="41.34078559544614" lon="-1.2251408230186436"><ele>591.0</ele><time>2026-05-03T17:27:00.001Z</time></trkpt><trkpt lat="41.340721747209486" lon="-1.2250588948209107"><ele>591.0</ele><time>2026-05-03T17:27:01.001Z</time></trkpt><trkpt lat="41.34067273787312" lon="-1.224966371929259"><ele>591.0</ele><time>2026-05-03T17:27:02.001Z</time></trkpt><trkpt lat="41.3406357680669" lon="-1.2248659464670337"><ele>591.0</ele><time>2026-05-03T17:27:03.001Z</time></trkpt><trkpt lat="41.340617612394304" lon="-1.2247528448152465"><ele>591.0</ele><time>2026-05-03T17:27:04.001Z</time></trkpt><trkpt lat="41.34061192531928" lon="-1.2246292932794192"><ele>591.0</ele><time>2026-05-03T17:27:05.001Z</time></trkpt><trkpt lat="41.34061518870799" lon="-1.2245079622568544"><ele>591.0</ele><time>2026-05-03T17:27:06.001Z</time></trkpt><trkpt lat="41.34063281472715" lon="-1.2243904581574567"><ele>591.0</ele><time>2026-05-03T17:27:07.001Z</time></trkpt><trkpt lat="41.34065108110568" lon="-1.2242736901896978"><ele>591.0</ele><time>2026-05-03T17:27:08.001Z</time></trkpt><trkpt lat="41.340672071080185" lon="-1.2241503151535837"><ele>591.0</ele><time>2026-05-03T17:27:09.001Z</time></trkpt><trkpt lat="41.340690470490514" lon="-1.2240272074332397"><ele>591.0</ele><time>2026-05-03T17:27:10.001Z</time></trkpt><trkpt lat="41.340706710070684" lon="-1.2238983979124711"><ele>591.0</ele><time>2026-05-03T17:27:11.001Z</time></trkpt><trkpt lat="41.3407258397584" lon="-1.2237732217451969"><ele>590.6</ele><time>2026-05-03T17:27:12.001Z</time></trkpt><trkpt lat="41.34073617298447" lon="-1.2236490058166039"><ele>590.2</ele><time>2026-05-03T17:27:13.001Z</time></trkpt><trkpt lat="41.34073043968961" lon="-1.2235255218528673"><ele>589.8</ele><time>2026-05-03T17:27:14.001Z</time></trkpt><trkpt lat="41.34070663323079" lon="-1.2233984318368283"><ele>589.4</ele><time>2026-05-03T17:27:15.001Z</time></trkpt><trkpt lat="41.340671967111916" lon="-1.223280534317352"><ele>589.0</ele><time>2026-05-03T17:27:16.001Z</time></trkpt><trkpt lat="41.340626384234135" lon="-1.223165325421451"><ele>588.4</ele><time>2026-05-03T17:27:17.001Z</time></trkpt><trkpt lat="41.34054917683558" lon="-1.2230794760004131"><ele>587.8</ele><time>2026-05-03T17:27:18.001Z</time></trkpt><trkpt lat="41.34049775649728" lon="-1.2229604150072158"><ele>587.2</ele><time>2026-05-03T17:27:19.001Z</time></trkpt><trkpt lat="41.34042885052918" lon="-1.2228662000059223"><ele>586.6</ele><time>2026-05-03T17:27:20.001Z</time></trkpt><trkpt lat="41.34036419952179" lon="-1.222768244161229"><ele>586.0</ele><time>2026-05-03T17:27:21.001Z</time></trkpt><trkpt lat="41.34030921021882" lon="-1.2226729634324935"><ele>586.0</ele><time>2026-05-03T17:27:22.001Z</time></trkpt><trkpt lat="41.34025324423095" lon="-1.222582113310574"><ele>586.0</ele><time>2026-05-03T17:27:23.001Z</time></trkpt><trkpt lat="41.34020611536649" lon="-1.2224872802549525"><ele>586.0</ele><time>2026-05-03T17:27:24.001Z</time></trkpt><trkpt lat="41.34016518795552" lon="-1.222379507385671"><ele>586.0</ele><time>2026-05-03T17:27:25.001Z</time></trkpt><trkpt lat="41.340142775870646" lon="-1.2222566262432772"><ele>586.0</ele><time>2026-05-03T17:27:26.001Z</time></trkpt><trkpt lat="41.34013093354196" lon="-1.222129453110033"><ele>585.6</ele><time>2026-05-03T17:27:27.001Z</time></trkpt><trkpt lat="41.3401236130917" lon="-1.2220022916739175"><ele>585.2</ele><time>2026-05-03T17:27:28.001Z</time></trkpt><trkpt lat="41.34012728892161" lon="-1.2218726606837842"><ele>584.8</ele><time>2026-05-03T17:27:29.001Z</time></trkpt><trkpt lat="41.340141900623244" lon="-1.221746157022434"><ele>584.4</ele><time>2026-05-03T17:27:30.001Z</time></trkpt><trkpt lat="41.34017101924715" lon="-1.2216114123910078"><ele>584.0</ele><time>2026-05-03T17:27:31.001Z</time></trkpt><trkpt lat="41.34019868424294" lon="-1.2214846790521998"><ele>584.0</ele><time>2026-05-03T17:27:32.001Z</time></trkpt><trkpt lat="41.34023018765276" lon="-1.2213526963934347"><ele>584.0</ele><time>2026-05-03T17:27:33.001Z</time></trkpt><trkpt lat="41.340265146508735" lon="-1.2212239806674914"><ele>584.0</ele><time>2026-05-03T17:27:34.001Z</time></trkpt><trkpt lat="41.34030129498395" lon="-1.2210921878993053"><ele>584.0</ele><time>2026-05-03T17:27:35.001Z</time></trkpt><trkpt lat="41.340334075980124" lon="-1.22096188931638"><ele>584.0</ele><time>2026-05-03T17:27:36.001Z</time></trkpt><trkpt lat="41.3403589956207" lon="-1.2208311175192126"><ele>584.0</ele><time>2026-05-03T17:27:37.001Z</time></trkpt><trkpt lat="41.34039269153191" lon="-1.2207129139907045"><ele>584.0</ele><time>2026-05-03T17:27:38.001Z</time></trkpt><trkpt lat="41.34041994281458" lon="-1.220588307197397"><ele>584.0</ele><time>2026-05-03T17:27:39.001Z</time></trkpt><trkpt lat="41.340442691063934" lon="-1.2204733547030582"><ele>584.0</ele><time>2026-05-03T17:27:40.001Z</time></trkpt><trkpt lat="41.34045395682005" lon="-1.2203592917781432"><ele>584.0</ele><time>2026-05-03T17:27:41.001Z</time></trkpt><trkpt lat="41.34046996275437" lon="-1.220259115914707"><ele>584.0</ele><time>2026-05-03T17:27:42.001Z</time></trkpt><trkpt lat="41.34046728419882" lon="-1.2201558807745692"><ele>584.1666666666666</ele><time>2026-05-03T17:27:43.001Z</time></trkpt><trkpt lat="41.34046115452035" lon="-1.2200722137730278"><ele>584.3333333333333</ele><time>2026-05-03T17:27:44.001Z</time></trkpt><trkpt lat="41.340468027595385" lon="-1.219956450772549"><ele>584.5</ele><time>2026-05-03T17:27:46.001Z</time></trkpt><trkpt lat="41.34048640200619" lon="-1.2198540326327465"><ele>584.6666666666666</ele><time>2026-05-03T17:27:56Z</time></trkpt><trkpt lat="41.34058688202053" lon="-1.2197450609810017"><ele>584.8333333333334</ele><time>2026-05-03T17:27:59Z</time></trkpt><trkpt lat="41.3406601916631" lon="-1.2197307579534669"><ele>585.0</ele><time>2026-05-03T17:28:00Z</time></trkpt><trkpt lat="41.34072993530768" lon="-1.2197225261024656"><ele>585.5</ele><time>2026-05-03T17:28:01Z</time></trkpt><trkpt lat="41.34082805004188" lon="-1.2197267317738496"><ele>586.0</ele><time>2026-05-03T17:28:02Z</time></trkpt><trkpt lat="41.34089368027672" lon="-1.2197238756865947"><ele>586.5</ele><time>2026-05-03T17:28:03Z</time></trkpt><trkpt lat="41.34097985276804" lon="-1.219726477723099"><ele>587.0</ele><time>2026-05-03T17:28:04Z</time></trkpt><trkpt lat="41.34107381545108" lon="-1.2197220217431093"><ele>587.5</ele><time>2026-05-03T17:28:05Z</time></trkpt><trkpt lat="41.341172190964414" lon="-1.2197143704890436"><ele>588.0</ele><time>2026-05-03T17:28:06Z</time></trkpt><trkpt lat="41.341272125961375" lon="-1.2197096693689018"><ele>588.0</ele><time>2026-05-03T17:28:07Z</time></trkpt><trkpt lat="41.341375342976455" lon="-1.2196992315746404"><ele>588.0</ele><time>2026-05-03T17:28:08Z</time></trkpt><trkpt lat="41.34148301790268" lon="-1.2196939013637762"><ele>588.0</ele><time>2026-05-03T17:28:09Z</time></trkpt><trkpt lat="41.34158933148714" lon="-1.2196923717251311"><ele>588.0</ele><time>2026-05-03T17:28:10Z</time></trkpt><trkpt lat="41.34169622286563" lon="-1.2196919619554216"><ele>588.0</ele><time>2026-05-03T17:28:11Z</time></trkpt><trkpt lat="41.341805952844176" lon="-1.219686970781195"><ele>587.6</ele><time>2026-05-03T17:28:12Z</time></trkpt><trkpt lat="41.34191716074064" lon="-1.2196815222406578"><ele>587.1999999999999</ele><time>2026-05-03T17:28:13Z</time></trkpt><trkpt lat="41.34203207272972" lon="-1.2196743272891464"><ele>586.8</ele><time>2026-05-03T17:28:14Z</time></trkpt><trkpt lat="41.34213530055966" lon="-1.2196807241935648"><ele>586.4</ele><time>2026-05-03T17:28:15Z</time></trkpt><trkpt lat="41.34224894701503" lon="-1.2196846144165927"><ele>586.0</ele><time>2026-05-03T17:28:16Z</time></trkpt><trkpt lat="41.34236169130619" lon="-1.2196827782114374"><ele>586.0</ele><time>2026-05-03T17:28:17Z</time></trkpt><trkpt lat="41.34247692590559" lon="-1.2196794172250542"><ele>586.0</ele><time>2026-05-03T17:28:18Z</time></trkpt><trkpt lat="41.34259064544818" lon="-1.2196680582620891"><ele>586.0</ele><time>2026-05-03T17:28:19Z</time></trkpt><trkpt lat="41.3427012124785" lon="-1.2196825065721257"><ele>586.0</ele><time>2026-05-03T17:28:20Z</time></trkpt><trkpt lat="41.34281669378146" lon="-1.2196836028839881"><ele>586.0</ele><time>2026-05-03T17:28:21Z</time></trkpt><trkpt lat="41.34293154025796" lon="-1.2196910493293522"><ele>586.0</ele><time>2026-05-03T17:28:22Z</time></trkpt><trkpt lat="41.34304952655665" lon="-1.2196969823973758"><ele>586.0</ele><time>2026-05-03T17:28:23Z</time></trkpt><trkpt lat="41.34316585446264" lon="-1.219695466969235"><ele>586.0</ele><time>2026-05-03T17:28:24Z</time></trkpt><trkpt lat="41.34327833660462" lon="-1.2196960816868754"><ele>586.0</ele><time>2026-05-03T17:28:25Z</time></trkpt><trkpt lat="41.34339138830988" lon="-1.2196929057670998"><ele>586.0</ele><time>2026-05-03T17:28:26Z</time></trkpt><trkpt lat="41.343503218755565" lon="-1.219691129102851"><ele>586.0</ele><time>2026-05-03T17:28:27Z</time></trkpt><trkpt lat="41.34361963733048" lon="-1.219688610880784"><ele>586.0</ele><time>2026-05-03T17:28:28Z</time></trkpt><trkpt lat="41.343734307544665" lon="-1.2196760991197935"><ele>586.0</ele><time>2026-05-03T17:28:29Z</time></trkpt><trkpt lat="41.34384806730566" lon="-1.2196628002430858"><ele>586.0</ele><time>2026-05-03T17:28:30Z</time></trkpt><trkpt lat="41.34395846508973" lon="-1.2196475645511229"><ele>586.0</ele><time>2026-05-03T17:28:31Z</time></trkpt><trkpt lat="41.34407443915418" lon="-1.2196288516519362"><ele>586.0</ele><time>2026-05-03T17:28:32Z</time></trkpt><trkpt lat="41.34418972711374" lon="-1.2196036770211511"><ele>585.5</ele><time>2026-05-03T17:28:33Z</time></trkpt><trkpt lat="41.34430290695791" lon="-1.2195724935070535"><ele>585.0</ele><time>2026-05-03T17:28:34Z</time></trkpt><trkpt lat="41.34441529725096" lon="-1.2195437725249711"><ele>584.5</ele><time>2026-05-03T17:28:35Z</time></trkpt><trkpt lat="41.344526037322645" lon="-1.2195158326323032"><ele>584.0</ele><time>2026-05-03T17:28:36Z</time></trkpt><trkpt lat="41.34463720652173" lon="-1.2194807137509867"><ele>584.0</ele><time>2026-05-03T17:28:37Z</time></trkpt><trkpt lat="41.344746902844136" lon="-1.2194421420296984"><ele>584.0</ele><time>2026-05-03T17:28:38Z</time></trkpt><trkpt lat="41.344858297481444" lon="-1.2194012783729211"><ele>584.0</ele><time>2026-05-03T17:28:39Z</time></trkpt><trkpt lat="41.34496936422941" lon="-1.2193556011923308"><ele>584.0</ele><time>2026-05-03T17:28:40Z</time></trkpt><trkpt lat="41.34507957811599" lon="-1.2193090799652837"><ele>584.0</ele><time>2026-05-03T17:28:41Z</time></trkpt><trkpt lat="41.345187539699474" lon="-1.2192552870662585"><ele>584.0</ele><time>2026-05-03T17:28:42Z</time></trkpt><trkpt lat="41.34529287072809" lon="-1.2192044730781635"><ele>584.0</ele><time>2026-05-03T17:28:43Z</time></trkpt><trkpt lat="41.34540186005145" lon="-1.219153486324431"><ele>584.0</ele><time>2026-05-03T17:28:44Z</time></trkpt><trkpt lat="41.345508415383826" lon="-1.2191002989703086"><ele>583.0</ele><time>2026-05-03T17:28:45Z</time></trkpt><trkpt lat="41.3456146996504" lon="-1.2190446450260528"><ele>582.0</ele><time>2026-05-03T17:28:46.001Z</time></trkpt><trkpt lat="41.34572080581336" lon="-1.2189952007013893"><ele>581.0</ele><time>2026-05-03T17:28:47.001Z</time></trkpt><trkpt lat="41.345828019471995" lon="-1.2189466928415276"><ele>580.0</ele><time>2026-05-03T17:28:48.001Z</time></trkpt><trkpt lat="41.34593687997561" lon="-1.2188918528494832"><ele>580.0</ele><time>2026-05-03T17:28:49.001Z</time></trkpt><trkpt lat="41.34604189744087" lon="-1.2188419573912654"><ele>580.0</ele><time>2026-05-03T17:28:50.001Z</time></trkpt><trkpt lat="41.34615137617072" lon="-1.218794892845471"><ele>580.0</ele><time>2026-05-03T17:28:51.001Z</time></trkpt><trkpt lat="41.34625875643964" lon="-1.2187401556746271"><ele>580.0</ele><time>2026-05-03T17:28:52.001Z</time></trkpt><trkpt lat="41.346365420046546" lon="-1.2186852741936776"><ele>578.75</ele><time>2026-05-03T17:28:53.001Z</time></trkpt><trkpt lat="41.34646946975307" lon="-1.2186298982519739"><ele>577.5</ele><time>2026-05-03T17:28:54.001Z</time></trkpt><trkpt lat="41.34657962290262" lon="-1.218580052646971"><ele>576.25</ele><time>2026-05-03T17:28:55.001Z</time></trkpt><trkpt lat="41.346687415963125" lon="-1.218532238209364"><ele>575.0</ele><time>2026-05-03T17:28:56.001Z</time></trkpt><trkpt lat="41.34679349563161" lon="-1.2184777896721959"><ele>575.0</ele><time>2026-05-03T17:28:57.001Z</time></trkpt><trkpt lat="41.34690134056852" lon="-1.21842465968277"><ele>575.0</ele><time>2026-05-03T17:28:58.001Z</time></trkpt><trkpt lat="41.347011223822726" lon="-1.2183716463244716"><ele>575.0</ele><time>2026-05-03T17:28:59.001Z</time></trkpt><trkpt lat="41.34711921831165" lon="-1.2183191386800456"><ele>575.0</ele><time>2026-05-03T17:29:00.001Z</time></trkpt><trkpt lat="41.34722798221179" lon="-1.2182719178108607"><ele>574.5</ele><time>2026-05-03T17:29:01.001Z</time></trkpt><trkpt lat="41.34733518790934" lon="-1.2182197716411511"><ele>574.0</ele><time>2026-05-03T17:29:02.001Z</time></trkpt><trkpt lat="41.347442838137425" lon="-1.218167032782055"><ele>573.5</ele><time>2026-05-03T17:29:03.001Z</time></trkpt><trkpt lat="41.347549288221686" lon="-1.218112504885769"><ele>573.0</ele><time>2026-05-03T17:29:04.001Z</time></trkpt><trkpt lat="41.34765947707059" lon="-1.2180591942283505"><ele>573.0</ele><time>2026-05-03T17:29:05.001Z</time></trkpt><trkpt lat="41.34776756925827" lon="-1.218008748915373"><ele>573.0</ele><time>2026-05-03T17:29:06.001Z</time></trkpt><trkpt lat="41.34787520092683" lon="-1.2179596887988762"><ele>573.0</ele><time>2026-05-03T17:29:07.001Z</time></trkpt><trkpt lat="41.34798233492249" lon="-1.2179035181013056"><ele>573.0</ele><time>2026-05-03T17:29:08.001Z</time></trkpt><trkpt lat="41.348090695352745" lon="-1.2178477955687512"><ele>572.75</ele><time>2026-05-03T17:29:09.001Z</time></trkpt><trkpt lat="41.34820023269474" lon="-1.2177965706000247"><ele>572.5</ele><time>2026-05-03T17:29:10.001Z</time></trkpt><trkpt lat="41.348306768337785" lon="-1.2177489974970162"><ele>572.25</ele><time>2026-05-03T17:29:11.001Z</time></trkpt><trkpt lat="41.3484157609132" lon="-1.2176969641868103"><ele>572.0</ele><time>2026-05-03T17:29:12.001Z</time></trkpt><trkpt lat="41.348524723978514" lon="-1.2176421216497675"><ele>572.0</ele><time>2026-05-03T17:29:13.001Z</time></trkpt><trkpt lat="41.348630988853664" lon="-1.2175880767717522"><ele>572.0</ele><time>2026-05-03T17:29:14.001Z</time></trkpt><trkpt lat="41.348740172794734" lon="-1.217534854797049"><ele>572.0</ele><time>2026-05-03T17:29:15.001Z</time></trkpt><trkpt lat="41.34884925101717" lon="-1.2174822347256287"><ele>572.0</ele><time>2026-05-03T17:29:16.001Z</time></trkpt><trkpt lat="41.3489561010967" lon="-1.2174278966299188"><ele>571.75</ele><time>2026-05-03T17:29:17.001Z</time></trkpt><trkpt lat="41.349064068512554" lon="-1.2173775266688682"><ele>571.5</ele><time>2026-05-03T17:29:18.001Z</time></trkpt><trkpt lat="41.34917385919627" lon="-1.2173262012289994"><ele>571.25</ele><time>2026-05-03T17:29:19.001Z</time></trkpt><trkpt lat="41.349283382198735" lon="-1.2172730733282007"><ele>571.0</ele><time>2026-05-03T17:29:20.001Z</time></trkpt><trkpt lat="41.34939139815205" lon="-1.2172201830596112"><ele>571.0</ele><time>2026-05-03T17:29:21.001Z</time></trkpt><trkpt lat="41.34949852843076" lon="-1.2171627425222675"><ele>571.0</ele><time>2026-05-03T17:29:22.001Z</time></trkpt><trkpt lat="41.34960626912165" lon="-1.2171105933024096"><ele>571.0</ele><time>2026-05-03T17:29:23.001Z</time></trkpt><trkpt lat="41.34971458929939" lon="-1.2170579373683597"><ele>571.0</ele><time>2026-05-03T17:29:24.001Z</time></trkpt><trkpt lat="41.349824001103805" lon="-1.2170098327563577"><ele>570.5</ele><time>2026-05-03T17:29:25.001Z</time></trkpt><trkpt lat="41.34993403976209" lon="-1.2169577031904069"><ele>570.0</ele><time>2026-05-03T17:29:26.001Z</time></trkpt><trkpt lat="41.35004308087562" lon="-1.2169009812342269"><ele>569.5</ele><time>2026-05-03T17:29:27.001Z</time></trkpt><trkpt lat="41.35014960387493" lon="-1.216847976529058"><ele>569.0</ele><time>2026-05-03T17:29:28.001Z</time></trkpt><trkpt lat="41.350258544590204" lon="-1.216795110888934"><ele>569.0</ele><time>2026-05-03T17:29:29.001Z</time></trkpt><trkpt lat="41.35036563961259" lon="-1.2167386803790194"><ele>569.0</ele><time>2026-05-03T17:29:30.001Z</time></trkpt><trkpt lat="41.35047521506144" lon="-1.2166878585035201"><ele>569.0</ele><time>2026-05-03T17:29:31.001Z</time></trkpt><trkpt lat="41.35057953123406" lon="-1.2166349773722391"><ele>569.0</ele><time>2026-05-03T17:29:32.001Z</time></trkpt><trkpt lat="41.350689807875604" lon="-1.216581630370683"><ele>569.0</ele><time>2026-05-03T17:29:33.001Z</time></trkpt><trkpt lat="41.3507985104375" lon="-1.2165296844695497"><ele>569.0</ele><time>2026-05-03T17:29:34.001Z</time></trkpt><trkpt lat="41.35090669596601" lon="-1.2164753720395562"><ele>569.0</ele><time>2026-05-03T17:29:35.001Z</time></trkpt><trkpt lat="41.35101732650554" lon="-1.2164272816800974"><ele>569.0</ele><time>2026-05-03T17:29:36.001Z</time></trkpt><trkpt lat="41.35112431685545" lon="-1.216371028104945"><ele>569.0</ele><time>2026-05-03T17:29:37.001Z</time></trkpt><trkpt lat="41.351232333377204" lon="-1.2163225414942564"><ele>569.0</ele><time>2026-05-03T17:29:38.001Z</time></trkpt><trkpt lat="41.351339995888765" lon="-1.2162694720451055"><ele>569.0</ele><time>2026-05-03T17:29:39.001Z</time></trkpt><trkpt lat="41.35144960622889" lon="-1.216216804808951"><ele>569.0</ele><time>2026-05-03T17:29:40.001Z</time></trkpt><trkpt lat="41.351560944184975" lon="-1.2161629324240206"><ele>567.75</ele><time>2026-05-03T17:29:41.001Z</time></trkpt><trkpt lat="41.351668152214394" lon="-1.21610879141213"><ele>566.5</ele><time>2026-05-03T17:29:42.001Z</time></trkpt><trkpt lat="41.351772073215095" lon="-1.2160606014976505"><ele>565.25</ele><time>2026-05-03T17:29:43.001Z</time></trkpt><trkpt lat="41.351881168716204" lon="-1.2160137616189273"><ele>564.0</ele><time>2026-05-03T17:29:44.001Z</time></trkpt><trkpt lat="41.351986627797494" lon="-1.2159694115697306"><ele>564.0</ele><time>2026-05-03T17:29:45.001Z</time></trkpt><trkpt lat="41.35210268335955" lon="-1.2159030314688717"><ele>564.0</ele><time>2026-05-03T17:29:46.001Z</time></trkpt><trkpt lat="41.35220952544671" lon="-1.215848379943215"><ele>564.0</ele><time>2026-05-03T17:29:47.001Z</time></trkpt><trkpt lat="41.352314540310196" lon="-1.215786576664811"><ele>564.0</ele><time>2026-05-03T17:29:48.001Z</time></trkpt><trkpt lat="41.35241661857842" lon="-1.2157220214450142"><ele>564.25</ele><time>2026-05-03T17:29:49.001Z</time></trkpt><trkpt lat="41.35251574733797" lon="-1.2156486251991931"><ele>564.5</ele><time>2026-05-03T17:29:50.001Z</time></trkpt><trkpt lat="41.35261949411538" lon="-1.2155705031025084"><ele>564.75</ele><time>2026-05-03T17:29:51.001Z</time></trkpt><trkpt lat="41.35273575334614" lon="-1.2154417537823956"><ele>565.0</ele><time>2026-05-03T17:29:52.001Z</time></trkpt><trkpt lat="41.3528115162207" lon="-1.2154410728531164"><ele>565.0</ele><time>2026-05-03T17:29:53.001Z</time></trkpt><trkpt lat="41.35286868376428" lon="-1.2154033318663533"><ele>565.0</ele><time>2026-05-03T17:29:54.001Z</time></trkpt><trkpt lat="41.35300603078454" lon="-1.215274021870322"><ele>565.0</ele><time>2026-05-03T17:29:55.001Z</time></trkpt><trkpt lat="41.35309753494042" lon="-1.2151902089273487"><ele>565.0</ele><time>2026-05-03T17:29:56Z</time></trkpt><trkpt lat="41.35319367151014" lon="-1.2151050450422038"><ele>565.25</ele><time>2026-05-03T17:29:57Z</time></trkpt><trkpt lat="41.353286202126895" lon="-1.2150198416600766"><ele>565.5</ele><time>2026-05-03T17:29:58Z</time></trkpt><trkpt lat="41.353378411565764" lon="-1.2149284315560156"><ele>565.75</ele><time>2026-05-03T17:29:59Z</time></trkpt><trkpt lat="41.35346905725007" lon="-1.2148358440562832"><ele>566.0</ele><time>2026-05-03T17:30:00Z</time></trkpt><trkpt lat="41.35355949976359" lon="-1.2147458065301346"><ele>566.25</ele><time>2026-05-03T17:30:01Z</time></trkpt><trkpt lat="41.35365224711318" lon="-1.2146553048090425"><ele>566.5</ele><time>2026-05-03T17:30:02Z</time></trkpt><trkpt lat="41.353744269860826" lon="-1.2145666751684192"><ele>566.75</ele><time>2026-05-03T17:30:03Z</time></trkpt><trkpt lat="41.35383570294705" lon="-1.2144770605428865"><ele>567.0</ele><time>2026-05-03T17:30:04Z</time></trkpt><trkpt lat="41.35392635215356" lon="-1.2143873269031435"><ele>567.25</ele><time>2026-05-03T17:30:05Z</time></trkpt><trkpt lat="41.354015716937056" lon="-1.2142976531955778"><ele>567.5</ele><time>2026-05-03T17:30:06Z</time></trkpt><trkpt lat="41.354108129949445" lon="-1.214206425620484"><ele>567.75</ele><time>2026-05-03T17:30:07Z</time></trkpt><trkpt lat="41.354200808978376" lon="-1.2141173168648385"><ele>568.0</ele><time>2026-05-03T17:30:08Z</time></trkpt><trkpt lat="41.354296296222046" lon="-1.2140295479003078"><ele>567.8</ele><time>2026-05-03T17:30:09Z</time></trkpt><trkpt lat="41.35438415289124" lon="-1.213939152715167"><ele>567.5999999999999</ele><time>2026-05-03T17:30:10Z</time></trkpt><trkpt lat="41.35447635355484" lon="-1.2138477725499206"><ele>567.4000000000001</ele><time>2026-05-03T17:30:11Z</time></trkpt><trkpt lat="41.35456606454404" lon="-1.2137587692880851"><ele>567.2</ele><time>2026-05-03T17:30:12Z</time></trkpt><trkpt lat="41.35465593740374" lon="-1.21367048609194"><ele>567.0</ele><time>2026-05-03T17:30:13Z</time></trkpt><trkpt lat="41.35474718481307" lon="-1.213579028473049"><ele>566.25</ele><time>2026-05-03T17:30:14Z</time></trkpt><trkpt lat="41.35483868831411" lon="-1.2134855122701615"><ele>565.5</ele><time>2026-05-03T17:30:15Z</time></trkpt><trkpt lat="41.35493034300571" lon="-1.2133923626573129"><ele>564.75</ele><time>2026-05-03T17:30:16Z</time></trkpt><trkpt lat="41.3550222750488" lon="-1.2133016821693496"><ele>564.0</ele><time>2026-05-03T17:30:17Z</time></trkpt><trkpt lat="41.35511428262241" lon="-1.2132138195533246"><ele>564.75</ele><time>2026-05-03T17:30:18Z</time></trkpt><trkpt lat="41.35520538917454" lon="-1.2131263455660188"><ele>565.5</ele><time>2026-05-03T17:30:19Z</time></trkpt><trkpt lat="41.35529794032349" lon="-1.213033233084084"><ele>566.25</ele><time>2026-05-03T17:30:20Z</time></trkpt><trkpt lat="41.35538912168774" lon="-1.2129433610726859"><ele>567.0</ele><time>2026-05-03T17:30:21Z</time></trkpt><trkpt lat="41.35548209035225" lon="-1.2128515663518686"><ele>565.5</ele><time>2026-05-03T17:30:22Z</time></trkpt><trkpt lat="41.35557410129601" lon="-1.2127568309518462"><ele>564.0</ele><time>2026-05-03T17:30:23Z</time></trkpt><trkpt lat="41.355666859047616" lon="-1.2126665915775316"><ele>562.5</ele><time>2026-05-03T17:30:24Z</time></trkpt><trkpt lat="41.355760490026206" lon="-1.2125769148796557"><ele>561.0</ele><time>2026-05-03T17:30:25Z</time></trkpt><trkpt lat="41.35585207770619" lon="-1.2124860749046436"><ele>561.0</ele><time>2026-05-03T17:30:26Z</time></trkpt><trkpt lat="41.35594869616848" lon="-1.2123975693409597"><ele>561.0</ele><time>2026-05-03T17:30:27Z</time></trkpt><trkpt lat="41.35604177729659" lon="-1.2123047487580163"><ele>561.0</ele><time>2026-05-03T17:30:28Z</time></trkpt><trkpt lat="41.35613345112473" lon="-1.2122131174248667"><ele>561.0</ele><time>2026-05-03T17:30:29Z</time></trkpt><trkpt lat="41.35622256002619" lon="-1.2121205149767038"><ele>561.5</ele><time>2026-05-03T17:30:30Z</time></trkpt><trkpt lat="41.35631557281148" lon="-1.2120285157205004"><ele>562.0</ele><time>2026-05-03T17:30:31Z</time></trkpt><trkpt lat="41.356407895543924" lon="-1.2119392198316548"><ele>562.5</ele><time>2026-05-03T17:30:32Z</time></trkpt><trkpt lat="41.35649897355123" lon="-1.2118472314716908"><ele>563.0</ele><time>2026-05-03T17:30:33Z</time></trkpt><trkpt lat="41.35659181957375" lon="-1.2117586872070791"><ele>563.0</ele><time>2026-05-03T17:30:34Z</time></trkpt><trkpt lat="41.35667850715295" lon="-1.2116760267734483"><ele>563.0</ele><time>2026-05-03T17:30:35Z</time></trkpt><trkpt lat="41.35678347247403" lon="-1.2115765958560938"><ele>563.0</ele><time>2026-05-03T17:30:36Z</time></trkpt><trkpt lat="41.35691330197333" lon="-1.2114527859764892"><ele>563.0</ele><time>2026-05-03T17:30:37Z</time></trkpt><trkpt lat="41.35701367028057" lon="-1.2113337468711391"><ele>562.5</ele><time>2026-05-03T17:30:38Z</time></trkpt><trkpt lat="41.35713386140542" lon="-1.2112310606901084"><ele>562.0</ele><time>2026-05-03T17:30:40Z</time></trkpt><trkpt lat="41.35722528698859" lon="-1.211140254340987"><ele>561.5</ele><time>2026-05-03T17:30:41Z</time></trkpt><trkpt lat="41.35731564424127" lon="-1.2110535115096677"><ele>561.0</ele><time>2026-05-03T17:30:42Z</time></trkpt><trkpt lat="41.35740326693015" lon="-1.2109650884657057"><ele>561.0</ele><time>2026-05-03T17:30:43Z</time></trkpt><trkpt lat="41.3574931514638" lon="-1.2108734488724127"><ele>561.0</ele><time>2026-05-03T17:30:44Z</time></trkpt><trkpt lat="41.35758408298995" lon="-1.2107879962586807"><ele>561.0</ele><time>2026-05-03T17:30:45Z</time></trkpt><trkpt lat="41.35767355393759" lon="-1.2106954705941222"><ele>561.0</ele><time>2026-05-03T17:30:46Z</time></trkpt><trkpt lat="41.35776117011508" lon="-1.2106090686794044"><ele>561.0</ele><time>2026-05-03T17:30:47Z</time></trkpt><trkpt lat="41.35785221465331" lon="-1.2105183658512846"><ele>561.4</ele><time>2026-05-03T17:30:48Z</time></trkpt><trkpt lat="41.35793603476157" lon="-1.2104330387372082"><ele>561.8</ele><time>2026-05-03T17:30:49Z</time></trkpt><trkpt lat="41.35802721706225" lon="-1.210344125298148"><ele>562.1999999999999</ele><time>2026-05-03T17:30:50Z</time></trkpt><trkpt lat="41.35811857431389" lon="-1.2102544962206543"><ele>562.6</ele><time>2026-05-03T17:30:51Z</time></trkpt><trkpt lat="41.35820807448406" lon="-1.210167032430372"><ele>563.0</ele><time>2026-05-03T17:30:52Z</time></trkpt><trkpt lat="41.3583014637643" lon="-1.2100753051632827"><ele>563.0</ele><time>2026-05-03T17:30:53Z</time></trkpt><trkpt lat="41.35839365168608" lon="-1.2099855101932604"><ele>563.0</ele><time>2026-05-03T17:30:54.001Z</time></trkpt><trkpt lat="41.35848077094231" lon="-1.2098983698899453"><ele>563.0</ele><time>2026-05-03T17:30:55.001Z</time></trkpt><trkpt lat="41.35856605054508" lon="-1.2098097921435853"><ele>563.0</ele><time>2026-05-03T17:30:56.001Z</time></trkpt><trkpt lat="41.35865336203625" lon="-1.2097236965871903"><ele>563.0</ele><time>2026-05-03T17:30:57.001Z</time></trkpt><trkpt lat="41.358743746113774" lon="-1.2096357536334066"><ele>562.8</ele><time>2026-05-03T17:30:58.001Z</time></trkpt><trkpt lat="41.35883436751162" lon="-1.2095465030108934"><ele>562.5999999999999</ele><time>2026-05-03T17:30:59.001Z</time></trkpt><trkpt lat="41.35892293595267" lon="-1.209452879400117"><ele>562.4000000000001</ele><time>2026-05-03T17:31:00.001Z</time></trkpt><trkpt lat="41.35900922690426" lon="-1.2093546963563655"><ele>562.2</ele><time>2026-05-03T17:31:01.001Z</time></trkpt><trkpt lat="41.35909017418339" lon="-1.2092584795402965"><ele>562.0</ele><time>2026-05-03T17:31:02.001Z</time></trkpt><trkpt lat="41.35917814654157" lon="-1.2091617076236403"><ele>562.0</ele><time>2026-05-03T17:31:03.001Z</time></trkpt><trkpt lat="41.35926608788739" lon="-1.2090701674855242"><ele>562.0</ele><time>2026-05-03T17:31:04.001Z</time></trkpt><trkpt lat="41.35935533612044" lon="-1.2089814625835418"><ele>562.0</ele><time>2026-05-03T17:31:05.001Z</time></trkpt><trkpt lat="41.35944901911754" lon="-1.2088932717721714"><ele>562.0</ele><time>2026-05-03T17:31:06.001Z</time></trkpt><trkpt lat="41.35954137713405" lon="-1.2088136697460516"><ele>562.0</ele><time>2026-05-03T17:31:07.001Z</time></trkpt><trkpt lat="41.35962752973951" lon="-1.2087450134861701"><ele>561.8333333333334</ele><time>2026-05-03T17:31:08.001Z</time></trkpt><trkpt lat="41.35970825736044" lon="-1.2086732626072547"><ele>561.6666666666667</ele><time>2026-05-03T17:31:09.001Z</time></trkpt><trkpt lat="41.35978586569311" lon="-1.2086071420338447"><ele>561.5</ele><time>2026-05-03T17:31:10.001Z</time></trkpt><trkpt lat="41.3598595649111" lon="-1.20854271136793"><ele>561.3333333333334</ele><time>2026-05-03T17:31:11.001Z</time></trkpt><trkpt lat="41.35993076959209" lon="-1.2084836739487206"><ele>561.1666666666666</ele><time>2026-05-03T17:31:12.001Z</time></trkpt><trkpt lat="41.35998871963735" lon="-1.2084084364056225"><ele>561.0</ele><time>2026-05-03T17:31:13.001Z</time></trkpt><trkpt lat="41.36004191283351" lon="-1.2083564581407784"><ele>561.0</ele><time>2026-05-03T17:31:14.001Z</time></trkpt><trkpt lat="41.36010788991096" lon="-1.2082919882590064"><ele>561.0</ele><time>2026-05-03T17:31:16.001Z</time></trkpt><trkpt lat="41.36024896290641" lon="-1.2085157456324578"><ele>561.0</ele><time>2026-05-03T17:31:17.001Z</time></trkpt><trkpt lat="41.36028989498663" lon="-1.2086079667836789"><ele>561.0</ele><time>2026-05-03T17:31:18.001Z</time></trkpt><trkpt lat="41.360328714873155" lon="-1.2086781446976154"><ele>561.0</ele><time>2026-05-03T17:31:19.001Z</time></trkpt><trkpt lat="41.36044333018296" lon="-1.2085615221023522"><ele>561.0</ele><time>2026-05-03T17:31:22.001Z</time></trkpt><trkpt lat="41.36049287785834" lon="-1.208495574941621"><ele>561.0</ele><time>2026-05-03T17:31:23.001Z</time></trkpt><trkpt lat="41.36054968224861" lon="-1.2084199319827809"><ele>561.0</ele><time>2026-05-03T17:31:24.001Z</time></trkpt><trkpt lat="41.36061888667433" lon="-1.2083596461972717"><ele>561.0</ele><time>2026-05-03T17:31:25.001Z</time></trkpt><trkpt lat="41.36068178945403" lon="-1.2082800053188645"><ele>561.0</ele><time>2026-05-03T17:31:26.001Z</time></trkpt><trkpt lat="41.360740888767545" lon="-1.2082145238043953"><ele>561.0</ele><time>2026-05-03T17:31:27.001Z</time></trkpt><trkpt lat="41.36079620192264" lon="-1.208161153421653"><ele>560.8333333333334</ele><time>2026-05-03T17:31:28.001Z</time></trkpt><trkpt lat="41.36083544080979" lon="-1.208093085986443"><ele>560.6666666666666</ele><time>2026-05-03T17:31:29.001Z</time></trkpt><trkpt lat="41.36092978141439" lon="-1.207967451399846"><ele>560.5</ele><time>2026-05-03T17:31:31.001Z</time></trkpt><trkpt lat="41.361003223964985" lon="-1.207867744635394"><ele>560.3333333333333</ele><time>2026-05-03T17:31:33.001Z</time></trkpt><trkpt lat="41.361068353835165" lon="-1.207899856263533"><ele>560.1666666666666</ele><time>2026-05-03T17:31:34.001Z</time></trkpt><trkpt lat="41.361136828312134" lon="-1.2078969351856728"><ele>560.0</ele><time>2026-05-03T17:31:36.001Z</time></trkpt><trkpt lat="41.361096135803315" lon="-1.2077416008727067"><ele>560.0</ele><time>2026-05-03T17:31:38.001Z</time></trkpt><trkpt lat="41.361187561277774" lon="-1.207951131309585"><ele>560.0</ele><time>2026-05-03T17:31:39.001Z</time></trkpt><trkpt lat="41.36127083532673" lon="-1.2078995362418927"><ele>560.0</ele><time>2026-05-03T17:32:48Z</time></trkpt><trkpt lat="41.36133174493279" lon="-1.2079470013536036"><ele>560.0</ele><time>2026-05-03T17:38:37.001Z</time></trkpt><trkpt lat="41.36135532950305" lon="-1.2080287875249236"><ele>560.0</ele><time>2026-05-03T17:42:38Z</time></trkpt><trkpt lat="41.36131524636679" lon="-1.2081195205993616"><ele>559.6666666666666</ele><time>2026-05-03T17:42:42Z</time></trkpt><trkpt lat="41.36127666277739" lon="-1.2082035993653901"><ele>559.3333333333333</ele><time>2026-05-03T17:42:44Z</time></trkpt><trkpt lat="41.36124329163854" lon="-1.208279609447624"><ele>559.0</ele><time>2026-05-03T17:42:47Z</time></trkpt><trkpt lat="41.36108981377712" lon="-1.208288662225553"><ele>558.6666666666666</ele><time>2026-05-03T17:42:50Z</time></trkpt><trkpt lat="41.36101398679721" lon="-1.2082512703591255"><ele>558.3333333333334</ele><time>2026-05-03T17:42:52Z</time></trkpt><trkpt lat="41.36094746201196" lon="-1.2082184656867199"><ele>558.0</ele><time>2026-05-03T17:42:54Z</time></trkpt><trkpt lat="41.36088183499673" lon="-1.2081891906122504"><ele>558.0</ele><time>2026-05-03T17:42:56Z</time></trkpt><trkpt lat="41.36075523868761" lon="-1.208236973154004"><ele>558.0</ele><time>2026-05-03T17:42:59Z</time></trkpt><trkpt lat="41.36068925403739" lon="-1.2083386832476615"><ele>558.0</ele><time>2026-05-03T17:43:01Z</time></trkpt><trkpt lat="41.36060210991072" lon="-1.208425363331013"><ele>558.0</ele><time>2026-05-03T17:43:03Z</time></trkpt><trkpt lat="41.360516432519" lon="-1.2085100068020835"><ele>558.0</ele><time>2026-05-03T17:43:05Z</time></trkpt><trkpt lat="41.360433760949626" lon="-1.208609730444185"><ele>558.5</ele><time>2026-05-03T17:43:07Z</time></trkpt><trkpt lat="41.360378204848715" lon="-1.208694534800913"><ele>559.0</ele><time>2026-05-03T17:43:09Z</time></trkpt><trkpt lat="41.360313643757195" lon="-1.2086665861981052"><ele>559.5</ele><time>2026-05-03T17:43:10Z</time></trkpt><trkpt lat="41.360224564817614" lon="-1.208620527296841"><ele>560.0</ele><time>2026-05-03T17:43:12Z</time></trkpt><trkpt lat="41.360174465801045" lon="-1.20852501716677"><ele>560.5</ele><time>2026-05-03T17:43:14Z</time></trkpt><trkpt lat="41.360141036400144" lon="-1.2084386893730024"><ele>561.0</ele><time>2026-05-03T17:43:16Z</time></trkpt><trkpt lat="41.360123015747725" lon="-1.2083315080565402"><ele>561.0</ele><time>2026-05-03T17:43:19Z</time></trkpt><trkpt lat="41.36018450425305" lon="-1.20821544560223"><ele>561.0</ele><time>2026-05-03T17:43:21Z</time></trkpt><trkpt lat="41.360265187551974" lon="-1.2081013533759601"><ele>561.0</ele><time>2026-05-03T17:43:23Z</time></trkpt><trkpt lat="41.360315544418995" lon="-1.2080461183274234"><ele>561.0</ele><time>2026-05-03T17:43:24Z</time></trkpt><trkpt lat="41.36037254510537" lon="-1.207996802124478"><ele>561.0</ele><time>2026-05-03T17:43:25Z</time></trkpt><trkpt lat="41.36043316654436" lon="-1.2079484518204595"><ele>561.0</ele><time>2026-05-03T17:43:26Z</time></trkpt><trkpt lat="41.36049589052782" lon="-1.2078987272657562"><ele>560.8333333333334</ele><time>2026-05-03T17:43:27Z</time></trkpt><trkpt lat="41.36056328061704" lon="-1.207842678276831"><ele>560.6666666666666</ele><time>2026-05-03T17:43:28Z</time></trkpt><trkpt lat="41.36062994140001" lon="-1.2077780771494164"><ele>560.5</ele><time>2026-05-03T17:43:29Z</time></trkpt><trkpt lat="41.36069844405733" lon="-1.207708135055218"><ele>560.3333333333333</ele><time>2026-05-03T17:43:30Z</time></trkpt><trkpt lat="41.36076884725474" lon="-1.2076372884825888"><ele>560.1666666666666</ele><time>2026-05-03T17:43:31Z</time></trkpt><trkpt lat="41.3608417543727" lon="-1.2075671393155187"><ele>560.0</ele><time>2026-05-03T17:43:32Z</time></trkpt><trkpt lat="41.36091755331366" lon="-1.2074961978342331"><ele>560.0</ele><time>2026-05-03T17:43:33Z</time></trkpt><trkpt lat="41.3609941865194" lon="-1.2074230851049963"><ele>560.0</ele><time>2026-05-03T17:43:34Z</time></trkpt><trkpt lat="41.361071316549726" lon="-1.2073476454160819"><ele>560.0</ele><time>2026-05-03T17:43:35Z</time></trkpt><trkpt lat="41.36114858776594" lon="-1.2072651757029047"><ele>560.0</ele><time>2026-05-03T17:43:36Z</time></trkpt><trkpt lat="41.361227589083455" lon="-1.2071885393657351"><ele>560.0</ele><time>2026-05-03T17:43:37Z</time></trkpt><trkpt lat="41.36130921329869" lon="-1.2071137814282473"><ele>559.8</ele><time>2026-05-03T17:43:38Z</time></trkpt><trkpt lat="41.36138716622465" lon="-1.2070370951440135"><ele>559.6</ele><time>2026-05-03T17:43:39Z</time></trkpt><trkpt lat="41.3614679639908" lon="-1.2069568202475613"><ele>559.4</ele><time>2026-05-03T17:43:40Z</time></trkpt><trkpt lat="41.36154827341895" lon="-1.2068825844985156"><ele>559.2</ele><time>2026-05-03T17:43:41Z</time></trkpt><trkpt lat="41.36162621367628" lon="-1.2068017956018546"><ele>559.0</ele><time>2026-05-03T17:43:42Z</time></trkpt><trkpt lat="41.3617004718911" lon="-1.2067288838220156"><ele>559.0</ele><time>2026-05-03T17:43:43Z</time></trkpt><trkpt lat="41.36178053105779" lon="-1.2066565207429971"><ele>559.0</ele><time>2026-05-03T17:43:44Z</time></trkpt><trkpt lat="41.36185835948137" lon="-1.206582611935918"><ele>559.0</ele><time>2026-05-03T17:43:45Z</time></trkpt><trkpt lat="41.36193369427985" lon="-1.2065047902028894"><ele>559.0</ele><time>2026-05-03T17:43:46Z</time></trkpt><trkpt lat="41.362010581889834" lon="-1.2064271816378553"><ele>559.0</ele><time>2026-05-03T17:43:47Z</time></trkpt><trkpt lat="41.362091220449095" lon="-1.2063510778424982"><ele>558.8</ele><time>2026-05-03T17:43:48Z</time></trkpt><trkpt lat="41.36216894289106" lon="-1.2062748533985808"><ele>558.5999999999999</ele><time>2026-05-03T17:43:49Z</time></trkpt><trkpt lat="41.36224738825634" lon="-1.2061975712554425"><ele>558.4</ele><time>2026-05-03T17:43:50Z</time></trkpt><trkpt lat="41.3623301435706" lon="-1.2061193265810377"><ele>558.1999999999999</ele><time>2026-05-03T17:43:51Z</time></trkpt><trkpt lat="41.362409081565694" lon="-1.2060443329709796"><ele>558.0</ele><time>2026-05-03T17:43:52Z</time></trkpt><trkpt lat="41.36248723732591" lon="-1.2059637903710307"><ele>558.0</ele><time>2026-05-03T17:43:53Z</time></trkpt><trkpt lat="41.362570230212654" lon="-1.2058834609344846"><ele>558.0</ele><time>2026-05-03T17:43:54Z</time></trkpt><trkpt lat="41.362649323798394" lon="-1.205805927512264"><ele>558.0</ele><time>2026-05-03T17:43:55Z</time></trkpt><trkpt lat="41.36273153099048" lon="-1.2057289460734142"><ele>558.0</ele><time>2026-05-03T17:43:56Z</time></trkpt><trkpt lat="41.36281389656441" lon="-1.2056438433085146"><ele>558.0</ele><time>2026-05-03T17:43:57Z</time></trkpt><trkpt lat="41.36289577429356" lon="-1.2055677107149372"><ele>558.0</ele><time>2026-05-03T17:43:58Z</time></trkpt><trkpt lat="41.362979296828904" lon="-1.2054862010964966"><ele>558.0</ele><time>2026-05-03T17:43:59Z</time></trkpt><trkpt lat="41.36306071556286" lon="-1.2054046001006415"><ele>558.0</ele><time>2026-05-03T17:44:00Z</time></trkpt><trkpt lat="41.36314207177926" lon="-1.2053226837253683"><ele>558.0</ele><time>2026-05-03T17:44:01Z</time></trkpt><trkpt lat="41.36322255659777" lon="-1.2052499745964826"><ele>558.0</ele><time>2026-05-03T17:44:02.001Z</time></trkpt><trkpt lat="41.36330176827086" lon="-1.2051731897214804"><ele>558.0</ele><time>2026-05-03T17:44:03.001Z</time></trkpt><trkpt lat="41.36338073603006" lon="-1.205090091105364"><ele>558.0</ele><time>2026-05-03T17:44:04.001Z</time></trkpt><trkpt lat="41.36346126177726" lon="-1.2050121615771108"><ele>558.0</ele><time>2026-05-03T17:44:05.001Z</time></trkpt><trkpt lat="41.36353824758567" lon="-1.204937919269142"><ele>558.0</ele><time>2026-05-03T17:44:06.001Z</time></trkpt><trkpt lat="41.36361717541611" lon="-1.2048605198843305"><ele>558.0</ele><time>2026-05-03T17:44:07.001Z</time></trkpt><trkpt lat="41.3636929321627" lon="-1.204784580083297"><ele>558.1999999999999</ele><time>2026-05-03T17:44:08.001Z</time></trkpt><trkpt lat="41.363771593589334" lon="-1.2047104376689355"><ele>558.4</ele><time>2026-05-03T17:44:09.001Z</time></trkpt><trkpt lat="41.363847818192255" lon="-1.2046418310640257"><ele>558.5999999999999</ele><time>2026-05-03T17:44:10.001Z</time></trkpt><trkpt lat="41.36393077050688" lon="-1.2045809887433794"><ele>558.8</ele><time>2026-05-03T17:44:11.001Z</time></trkpt><trkpt lat="41.36401146230126" lon="-1.2045244873279037"><ele>559.0</ele><time>2026-05-03T17:44:12.001Z</time></trkpt><trkpt lat="41.36408935266479" lon="-1.204473672181462"><ele>558.3333333333334</ele><time>2026-05-03T17:44:13.001Z</time></trkpt><trkpt lat="41.36415909815808" lon="-1.2044237186909463"><ele>557.6666666666667</ele><time>2026-05-03T17:44:14.001Z</time></trkpt><trkpt lat="41.36422761704747" lon="-1.2043630524422828"><ele>557.0</ele><time>2026-05-03T17:44:15.001Z</time></trkpt><trkpt lat="41.364293071446" lon="-1.2042917463350362"><ele>556.3333333333334</ele><time>2026-05-03T17:44:16.001Z</time></trkpt><trkpt lat="41.36435566407837" lon="-1.2042126793827999"><ele>555.6666666666666</ele><time>2026-05-03T17:44:17.001Z</time></trkpt><trkpt lat="41.36441495844161" lon="-1.2041267801688273"><ele>555.0</ele><time>2026-05-03T17:44:18.001Z</time></trkpt><trkpt lat="41.364479043232194" lon="-1.2040465279190218"><ele>555.25</ele><time>2026-05-03T17:44:19.001Z</time></trkpt><trkpt lat="41.36455090794931" lon="-1.2039779216768003"><ele>555.5</ele><time>2026-05-03T17:44:20.001Z</time></trkpt><trkpt lat="41.364630310399995" lon="-1.2039138852526199"><ele>555.75</ele><time>2026-05-03T17:44:21.001Z</time></trkpt><trkpt lat="41.36471067919089" lon="-1.2038542131347933"><ele>556.0</ele><time>2026-05-03T17:44:22.001Z</time></trkpt><trkpt lat="41.36485720160653" lon="-1.2037041280740748"><ele>556.0</ele><time>2026-05-03T17:44:24.001Z</time></trkpt><trkpt lat="41.36492698557485" lon="-1.203618242732833"><ele>556.0</ele><time>2026-05-03T17:44:25.001Z</time></trkpt><trkpt lat="41.364991382662154" lon="-1.203528311132685"><ele>556.0</ele><time>2026-05-03T17:44:26.001Z</time></trkpt><trkpt lat="41.3650622281019" lon="-1.2034408079710293"><ele>556.0</ele><time>2026-05-03T17:44:27.001Z</time></trkpt><trkpt lat="41.3651381258461" lon="-1.2033616916235599"><ele>556.0</ele><time>2026-05-03T17:44:28.001Z</time></trkpt><trkpt lat="41.3652179021927" lon="-1.2032884478635757"><ele>556.0</ele><time>2026-05-03T17:44:29.001Z</time></trkpt><trkpt lat="41.36530493392036" lon="-1.203205153531552"><ele>556.0</ele><time>2026-05-03T17:44:30.001Z</time></trkpt><trkpt lat="41.36538774005" lon="-1.20311885400995"><ele>556.0</ele><time>2026-05-03T17:44:31.001Z</time></trkpt><trkpt lat="41.36546570563174" lon="-1.2030299640401354"><ele>556.0</ele><time>2026-05-03T17:44:32.001Z</time></trkpt><trkpt lat="41.36555521230899" lon="-1.202954242880551"><ele>556.0</ele><time>2026-05-03T17:44:33.001Z</time></trkpt><trkpt lat="41.36564396060532" lon="-1.2028695081485687"><ele>555.4</ele><time>2026-05-03T17:44:34.001Z</time></trkpt><trkpt lat="41.365734948147534" lon="-1.2027856107288217"><ele>554.8</ele><time>2026-05-03T17:44:35.001Z</time></trkpt><trkpt lat="41.36582272112001" lon="-1.202700205148531"><ele>554.1999999999999</ele><time>2026-05-03T17:44:36.001Z</time></trkpt><trkpt lat="41.36591282928578" lon="-1.20261431406687"><ele>553.6</ele><time>2026-05-03T17:44:37.001Z</time></trkpt><trkpt lat="41.366000198957344" lon="-1.2025253358481052"><ele>553.0</ele><time>2026-05-03T17:44:37.999Z</time></trkpt><trkpt lat="41.3660889982011" lon="-1.2024376135235015"><ele>553.0</ele><time>2026-05-03T17:44:38.999Z</time></trkpt><trkpt lat="41.366179976841416" lon="-1.2023479155766736"><ele>553.0</ele><time>2026-05-03T17:44:39.999Z</time></trkpt><trkpt lat="41.36626878548697" lon="-1.202261139399369"><ele>553.0</ele><time>2026-05-03T17:44:40.999Z</time></trkpt><trkpt lat="41.36635603637574" lon="-1.2021741844009697"><ele>553.0</ele><time>2026-05-03T17:44:41.999Z</time></trkpt><trkpt lat="41.36644358825108" lon="-1.2020905113869587"><ele>553.0</ele><time>2026-05-03T17:44:42.999Z</time></trkpt><trkpt lat="41.366534553687536" lon="-1.2020037998364237"><ele>553.0</ele><time>2026-05-03T17:44:43.999Z</time></trkpt><trkpt lat="41.36662101931754" lon="-1.201917859784785"><ele>553.0</ele><time>2026-05-03T17:44:44.999Z</time></trkpt><trkpt lat="41.366707422826536" lon="-1.201830873941914"><ele>553.0</ele><time>2026-05-03T17:44:45.999Z</time></trkpt><trkpt lat="41.366793196190336" lon="-1.201747701671702"><ele>553.0</ele><time>2026-05-03T17:44:46.999Z</time></trkpt><trkpt lat="41.36688236219001" lon="-1.2016598600675823"><ele>553.0</ele><time>2026-05-03T17:44:47.999Z</time></trkpt><trkpt lat="41.36697020139517" lon="-1.2015752326036766"><ele>553.1999999999999</ele><time>2026-05-03T17:44:48.999Z</time></trkpt><trkpt lat="41.367053821468126" lon="-1.2014929199884523"><ele>553.4</ele><time>2026-05-03T17:44:49.999Z</time></trkpt><trkpt lat="41.36713942115397" lon="-1.2014062929973899"><ele>553.5999999999999</ele><time>2026-05-03T17:44:50.999Z</time></trkpt><trkpt lat="41.36722585487249" lon="-1.2013204980295267"><ele>553.8</ele><time>2026-05-03T17:44:51.999Z</time></trkpt><trkpt lat="41.367311326125545" lon="-1.2012390227726406"><ele>554.0</ele><time>2026-05-03T17:44:52.999Z</time></trkpt><trkpt lat="41.367397620436456" lon="-1.201158493442746"><ele>553.4</ele><time>2026-05-03T17:44:53.999Z</time></trkpt><trkpt lat="41.36748543552969" lon="-1.2010732162596194"><ele>552.8</ele><time>2026-05-03T17:44:54.999Z</time></trkpt><trkpt lat="41.36757051604017" lon="-1.2009943435951436"><ele>552.2</ele><time>2026-05-03T17:44:55.999Z</time></trkpt><trkpt lat="41.36765579362613" lon="-1.2009085804172006"><ele>551.6</ele><time>2026-05-03T17:44:56.999Z</time></trkpt><trkpt lat="41.36773841823375" lon="-1.200821089230307"><ele>551.0</ele><time>2026-05-03T17:44:57.999Z</time></trkpt><trkpt lat="41.36782353398761" lon="-1.2007373359511093"><ele>551.2</ele><time>2026-05-03T17:44:58.999Z</time></trkpt><trkpt lat="41.36790809158909" lon="-1.200653547233337"><ele>551.4000000000001</ele><time>2026-05-03T17:45:00Z</time></trkpt><trkpt lat="41.367995029546876" lon="-1.2005692779247186"><ele>551.6</ele><time>2026-05-03T17:45:01Z</time></trkpt><trkpt lat="41.36808009387547" lon="-1.2004886987160948"><ele>551.8000000000001</ele><time>2026-05-03T17:45:02Z</time></trkpt><trkpt lat="41.36816362432714" lon="-1.200406588759183"><ele>552.0</ele><time>2026-05-03T17:45:03Z</time></trkpt><trkpt lat="41.36824921551306" lon="-1.2003212568329642"><ele>552.0</ele><time>2026-05-03T17:45:04Z</time></trkpt><trkpt lat="41.368335831156465" lon="-1.2002406180623306"><ele>552.0</ele><time>2026-05-03T17:45:05Z</time></trkpt><trkpt lat="41.36842236329941" lon="-1.2001577016070168"><ele>552.0</ele><time>2026-05-03T17:45:06Z</time></trkpt><trkpt lat="41.36850690378208" lon="-1.200079931234502"><ele>552.0</ele><time>2026-05-03T17:45:07Z</time></trkpt><trkpt lat="41.36859677089375" lon="-1.199999934388081"><ele>552.0</ele><time>2026-05-03T17:45:08Z</time></trkpt><trkpt lat="41.36868700982307" lon="-1.1999299954405191"><ele>552.0</ele><time>2026-05-03T17:45:09Z</time></trkpt><trkpt lat="41.36877785139825" lon="-1.1998710180237284"><ele>552.0</ele><time>2026-05-03T17:45:10Z</time></trkpt><trkpt lat="41.36886033074348" lon="-1.1998066733350343"><ele>552.0</ele><time>2026-05-03T17:45:11Z</time></trkpt><trkpt lat="41.36895520805744" lon="-1.1997475011305994"><ele>552.0</ele><time>2026-05-03T17:45:12Z</time></trkpt><trkpt lat="41.36903664335241" lon="-1.1996910827516722"><ele>552.0</ele><time>2026-05-03T17:45:13Z</time></trkpt><trkpt lat="41.36910929476238" lon="-1.199617525665465"><ele>551.6</ele><time>2026-05-03T17:45:14Z</time></trkpt><trkpt lat="41.36917099513309" lon="-1.1995220120597763"><ele>551.2</ele><time>2026-05-03T17:45:15Z</time></trkpt><trkpt lat="41.36922553130042" lon="-1.1994161179102056"><ele>550.8</ele><time>2026-05-03T17:45:16Z</time></trkpt><trkpt lat="41.36929461138085" lon="-1.1993321109006785"><ele>550.4</ele><time>2026-05-03T17:45:17Z</time></trkpt><trkpt lat="41.369387355394075" lon="-1.1993030564568878"><ele>550.0</ele><time>2026-05-03T17:45:18Z</time></trkpt><trkpt lat="41.36946327209425" lon="-1.1992035154643772"><ele>550.0</ele><time>2026-05-03T17:45:19Z</time></trkpt><trkpt lat="41.36953976009513" lon="-1.1991234439251721"><ele>550.0</ele><time>2026-05-03T17:45:20Z</time></trkpt><trkpt lat="41.36961073166874" lon="-1.1990428684894516"><ele>550.0</ele><time>2026-05-03T17:45:21Z</time></trkpt><trkpt lat="41.36968490988105" lon="-1.1989612435033805"><ele>550.0</ele><time>2026-05-03T17:45:22Z</time></trkpt><trkpt lat="41.36975344180281" lon="-1.1988732775179183"><ele>550.0</ele><time>2026-05-03T17:45:23Z</time></trkpt><trkpt lat="41.369820493523065" lon="-1.1987881539926188"><ele>550.0</ele><time>2026-05-03T17:45:24Z</time></trkpt><trkpt lat="41.36989168181968" lon="-1.198703398322773"><ele>550.0</ele><time>2026-05-03T17:45:25Z</time></trkpt><trkpt lat="41.36996822131963" lon="-1.1986267484921067"><ele>550.0</ele><time>2026-05-03T17:45:26Z</time></trkpt><trkpt lat="41.37004810660158" lon="-1.19855427183877"><ele>550.0</ele><time>2026-05-03T17:45:27Z</time></trkpt><trkpt lat="41.37012344544655" lon="-1.1984811229610233"><ele>550.0</ele><time>2026-05-03T17:45:28Z</time></trkpt><trkpt lat="41.37019293654854" lon="-1.1984119059109668"><ele>550.0</ele><time>2026-05-03T17:45:29Z</time></trkpt><trkpt lat="41.370260882755645" lon="-1.1983430473994336"><ele>550.0</ele><time>2026-05-03T17:45:30Z</time></trkpt><trkpt lat="41.370328708770465" lon="-1.1982777584556772"><ele>550.0</ele><time>2026-05-03T17:45:31Z</time></trkpt><trkpt lat="41.3703901284897" lon="-1.198217359055246"><ele>550.0</ele><time>2026-05-03T17:45:32Z</time></trkpt><trkpt lat="41.37044619875627" lon="-1.1981605280176204"><ele>550.0</ele><time>2026-05-03T17:45:33Z</time></trkpt><trkpt lat="41.370529384868654" lon="-1.1980726259230874"><ele>550.0</ele><time>2026-05-03T17:45:35Z</time></trkpt><trkpt lat="41.37044842089946" lon="-1.198084544773627"><ele>550.0</ele><time>2026-05-03T17:46:03Z</time></trkpt><trkpt lat="41.37038173520271" lon="-1.1981499771010395"><ele>550.0</ele><time>2026-05-03T17:46:05Z</time></trkpt><trkpt lat="41.370303679497496" lon="-1.1982268164346228"><ele>550.0</ele><time>2026-05-03T17:46:07Z</time></trkpt><trkpt lat="41.370218294499836" lon="-1.1983100210025341"><ele>550.0</ele><time>2026-05-03T17:46:09Z</time></trkpt><trkpt lat="41.37015189122948" lon="-1.1983743810272738"><ele>550.0</ele><time>2026-05-03T17:46:11Z</time></trkpt><trkpt lat="41.370071116399615" lon="-1.1984037911518228"><ele>550.3333333333334</ele><time>2026-05-03T17:46:15Z</time></trkpt><trkpt lat="41.36987225523986" lon="-1.1980969373280637"><ele>550.6666666666666</ele><time>2026-05-03T17:46:16Z</time></trkpt><trkpt lat="41.36980532064407" lon="-1.198052278289118"><ele>551.0</ele><time>2026-05-03T17:46:18Z</time></trkpt><trkpt lat="41.36971828508916" lon="-1.1980267639666735"><ele>551.0</ele><time>2026-05-03T17:46:21Z</time></trkpt><trkpt lat="41.369787971182014" lon="-1.1980552588807496"><ele>551.0</ele><time>2026-05-03T17:47:23Z</time></trkpt><trkpt lat="41.36985778027629" lon="-1.198092634799729"><ele>551.0</ele><time>2026-05-03T17:47:26Z</time></trkpt><trkpt lat="41.36991412745535" lon="-1.1981447162250711"><ele>551.0</ele><time>2026-05-03T17:47:28Z</time></trkpt><trkpt lat="41.370007377822986" lon="-1.198152282945417"><ele>551.0</ele><time>2026-05-03T17:47:30Z</time></trkpt><trkpt lat="41.370120371457844" lon="-1.1981272909110616"><ele>551.0</ele><time>2026-05-03T17:47:32Z</time></trkpt><trkpt lat="41.370180066089695" lon="-1.1981001410401309"><ele>551.0</ele><time>2026-05-03T17:47:33Z</time></trkpt><trkpt lat="41.37028574852181" lon="-1.1980759450381455"><ele>551.0</ele><time>2026-05-03T17:47:35Z</time></trkpt><trkpt lat="41.3703693044099" lon="-1.1980582780280062"><ele>551.0</ele><time>2026-05-03T17:47:37Z</time></trkpt><trkpt lat="41.37044524502825" lon="-1.1980306389657485"><ele>551.0</ele><time>2026-05-03T17:47:38Z</time></trkpt><trkpt lat="41.37050687526313" lon="-1.1979968527781562"><ele>551.0</ele><time>2026-05-03T17:47:39Z</time></trkpt><trkpt lat="41.37058665159479" lon="-1.1979533542543774"><ele>551.0</ele><time>2026-05-03T17:47:41Z</time></trkpt><trkpt lat="41.37065886193957" lon="-1.19791240857759"><ele>550.6666666666666</ele><time>2026-05-03T17:47:43Z</time></trkpt><trkpt lat="41.37073316668743" lon="-1.1978747224943884"><ele>550.3333333333333</ele><time>2026-05-03T17:47:45Z</time></trkpt><trkpt lat="41.370833846173014" lon="-1.1977716192825172"><ele>550.0</ele><time>2026-05-03T17:47:47Z</time></trkpt><trkpt lat="41.37089341022492" lon="-1.1977136747292119"><ele>549.6666666666666</ele><time>2026-05-03T17:47:48Z</time></trkpt><trkpt lat="41.37095725790068" lon="-1.1976484043537696"><ele>549.3333333333334</ele><time>2026-05-03T17:47:49Z</time></trkpt><trkpt lat="41.37102422112774" lon="-1.1975805688910175"><ele>549.0</ele><time>2026-05-03T17:47:50Z</time></trkpt><trkpt lat="41.37109532924822" lon="-1.197511636578859"><ele>549.0</ele><time>2026-05-03T17:47:51Z</time></trkpt><trkpt lat="41.371170307286725" lon="-1.1974404858537857"><ele>549.0</ele><time>2026-05-03T17:47:52Z</time></trkpt><trkpt lat="41.37124887839264" lon="-1.1973697129669127"><ele>549.0</ele><time>2026-05-03T17:47:53Z</time></trkpt><trkpt lat="41.3713268628004" lon="-1.1972925472802587"><ele>549.0</ele><time>2026-05-03T17:47:54Z</time></trkpt><trkpt lat="41.371408842132894" lon="-1.1972126077518375"><ele>549.0</ele><time>2026-05-03T17:47:55Z</time></trkpt><trkpt lat="41.37148796267972" lon="-1.1971307858329385"><ele>549.2</ele><time>2026-05-03T17:47:56Z</time></trkpt><trkpt lat="41.37157133200979" lon="-1.1970491625522204"><ele>549.4</ele><time>2026-05-03T17:47:57Z</time></trkpt><trkpt lat="41.37165171320255" lon="-1.196960693710198"><ele>549.6</ele><time>2026-05-03T17:47:58Z</time></trkpt><trkpt lat="41.37174309817177" lon="-1.1968828506633087"><ele>549.8</ele><time>2026-05-03T17:47:59Z</time></trkpt><trkpt lat="41.37182678929907" lon="-1.1967946484636998"><ele>550.0</ele><time>2026-05-03T17:48:00Z</time></trkpt><trkpt lat="41.371914025352346" lon="-1.1967104867510496"><ele>550.0</ele><time>2026-05-03T17:48:01Z</time></trkpt><trkpt lat="41.372003439719556" lon="-1.196622113568319"><ele>550.0</ele><time>2026-05-03T17:48:02Z</time></trkpt><trkpt lat="41.37209046729663" lon="-1.196536257684784"><ele>550.0</ele><time>2026-05-03T17:48:03Z</time></trkpt><trkpt lat="41.372180727540524" lon="-1.1964498693486982"><ele>550.0</ele><time>2026-05-03T17:48:04Z</time></trkpt><trkpt lat="41.372269262305295" lon="-1.1963642553588578"><ele>550.0</ele><time>2026-05-03T17:48:05Z</time></trkpt><trkpt lat="41.37235781365838" lon="-1.1962773418060444"><ele>549.8</ele><time>2026-05-03T17:48:06Z</time></trkpt><trkpt lat="41.37244523705083" lon="-1.1961880073653817"><ele>549.6</ele><time>2026-05-03T17:48:07Z</time></trkpt><trkpt lat="41.37253770324037" lon="-1.1960902886902027"><ele>549.4</ele><time>2026-05-03T17:48:08Z</time></trkpt><trkpt lat="41.37262190945693" lon="-1.1960182943154685"><ele>549.2</ele><time>2026-05-03T17:48:09Z</time></trkpt><trkpt lat="41.37271604409142" lon="-1.195926041670991"><ele>549.0</ele><time>2026-05-03T17:48:10Z</time></trkpt><trkpt lat="41.372891047940875" lon="-1.1957544711024948"><ele>549.4</ele><time>2026-05-03T17:48:12Z</time></trkpt><trkpt lat="41.37298557530695" lon="-1.195657226119659"><ele>549.8</ele><time>2026-05-03T17:48:13Z</time></trkpt><trkpt lat="41.37307472879438" lon="-1.1955698766968592"><ele>550.2</ele><time>2026-05-03T17:48:14Z</time></trkpt><trkpt lat="41.373161371188274" lon="-1.1954837831161598"><ele>550.6</ele><time>2026-05-03T17:48:15Z</time></trkpt><trkpt lat="41.373248864768954" lon="-1.1953948065135054"><ele>551.0</ele><time>2026-05-03T17:48:16Z</time></trkpt><trkpt lat="41.37334479029497" lon="-1.1953034154392055"><ele>551.0</ele><time>2026-05-03T17:48:17Z</time></trkpt><trkpt lat="41.37343215280474" lon="-1.195219796527638"><ele>551.0</ele><time>2026-05-03T17:48:18Z</time></trkpt><trkpt lat="41.37352822041206" lon="-1.195127221845828"><ele>551.0</ele><time>2026-05-03T17:48:19Z</time></trkpt><trkpt lat="41.37359939273577" lon="-1.195042497727681"><ele>551.0</ele><time>2026-05-03T17:48:20Z</time></trkpt><trkpt lat="41.373796015227576" lon="-1.1948631741957276"><ele>551.2</ele><time>2026-05-03T17:48:22Z</time></trkpt><trkpt lat="41.37388649758538" lon="-1.194775672622169"><ele>551.4000000000001</ele><time>2026-05-03T17:48:23.001Z</time></trkpt><trkpt lat="41.37397697359953" lon="-1.194684853498642"><ele>551.6</ele><time>2026-05-03T17:48:24.001Z</time></trkpt><trkpt lat="41.374066655819945" lon="-1.1945952376176596"><ele>551.8000000000001</ele><time>2026-05-03T17:48:25.001Z</time></trkpt><trkpt lat="41.37415624977836" lon="-1.1945066566546187"><ele>552.0</ele><time>2026-05-03T17:48:26.001Z</time></trkpt><trkpt lat="41.37424819789683" lon="-1.1944159561119763"><ele>552.0</ele><time>2026-05-03T17:48:27.001Z</time></trkpt><trkpt lat="41.37433839504938" lon="-1.1943270943692414"><ele>552.0</ele><time>2026-05-03T17:48:28.001Z</time></trkpt><trkpt lat="41.374429796981204" lon="-1.1942369315026695"><ele>552.0</ele><time>2026-05-03T17:48:29.001Z</time></trkpt><trkpt lat="41.3745210683208" lon="-1.1941484969430562"><ele>552.0</ele><time>2026-05-03T17:48:30.001Z</time></trkpt><trkpt lat="41.37460975782267" lon="-1.1940575879502247"><ele>552.0</ele><time>2026-05-03T17:48:31.001Z</time></trkpt><trkpt lat="41.37469825260145" lon="-1.1939701268583487"><ele>552.0</ele><time>2026-05-03T17:48:32.001Z</time></trkpt><trkpt lat="41.3747903282524" lon="-1.1938803338428061"><ele>552.0</ele><time>2026-05-03T17:48:33.001Z</time></trkpt><trkpt lat="41.37488148114019" lon="-1.1937925469244548"><ele>552.0</ele><time>2026-05-03T17:48:34.001Z</time></trkpt><trkpt lat="41.37497141553838" lon="-1.193705089074634"><ele>552.0</ele><time>2026-05-03T17:48:35.001Z</time></trkpt><trkpt lat="41.37506059670866" lon="-1.1936171506533289"><ele>552.0</ele><time>2026-05-03T17:48:36.001Z</time></trkpt><trkpt lat="41.37515200033849" lon="-1.1935292233903314"><ele>552.0</ele><time>2026-05-03T17:48:37.001Z</time></trkpt><trkpt lat="41.37524178183749" lon="-1.1934384549463923"><ele>552.0</ele><time>2026-05-03T17:48:38.001Z</time></trkpt><trkpt lat="41.3753307577605" lon="-1.193345318881184"><ele>552.0</ele><time>2026-05-03T17:48:39.001Z</time></trkpt><trkpt lat="41.375424204598936" lon="-1.1932566536287366"><ele>552.25</ele><time>2026-05-03T17:48:40.001Z</time></trkpt><trkpt lat="41.37551374201963" lon="-1.1931676356662877"><ele>552.5</ele><time>2026-05-03T17:48:41.001Z</time></trkpt><trkpt lat="41.37560484716257" lon="-1.1930778905923245"><ele>552.75</ele><time>2026-05-03T17:48:42.001Z</time></trkpt><trkpt lat="41.375695887021564" lon="-1.1929857933410772"><ele>553.0</ele><time>2026-05-03T17:48:43.001Z</time></trkpt><trkpt lat="41.375786697697556" lon="-1.1928958259748468"><ele>552.4</ele><time>2026-05-03T17:48:44.001Z</time></trkpt><trkpt lat="41.37587753876786" lon="-1.192808370440962"><ele>551.8</ele><time>2026-05-03T17:48:45.001Z</time></trkpt><trkpt lat="41.375967622813064" lon="-1.192720724867986"><ele>551.2</ele><time>2026-05-03T17:48:46.001Z</time></trkpt><trkpt lat="41.37605941249656" lon="-1.1926335274940352"><ele>550.6</ele><time>2026-05-03T17:48:47.001Z</time></trkpt><trkpt lat="41.37614850692771" lon="-1.1925483642004726"><ele>550.0</ele><time>2026-05-03T17:48:48.001Z</time></trkpt><trkpt lat="41.37623800783153" lon="-1.1924606519496719"><ele>550.0</ele><time>2026-05-03T17:48:49.001Z</time></trkpt><trkpt lat="41.37632431490548" lon="-1.1923758747380502"><ele>550.0</ele><time>2026-05-03T17:48:49.999Z</time></trkpt><trkpt lat="41.37641300936715" lon="-1.1922894141495224"><ele>550.0</ele><time>2026-05-03T17:48:50.999Z</time></trkpt><trkpt lat="41.376498987110864" lon="-1.1922005015164288"><ele>550.0</ele><time>2026-05-03T17:48:51.999Z</time></trkpt><trkpt lat="41.37658474542645" lon="-1.1921157526262438"><ele>550.0</ele><time>2026-05-03T17:48:52.999Z</time></trkpt><trkpt lat="41.37667603857142" lon="-1.1920196557649785"><ele>550.4</ele><time>2026-05-03T17:48:53.999Z</time></trkpt><trkpt lat="41.37676408097024" lon="-1.1919325243547716"><ele>550.8</ele><time>2026-05-03T17:48:54.999Z</time></trkpt><trkpt lat="41.37685173623393" lon="-1.1918488948577393"><ele>551.2</ele><time>2026-05-03T17:48:55.999Z</time></trkpt><trkpt lat="41.3769403585063" lon="-1.191763620572705"><ele>551.6</ele><time>2026-05-03T17:48:56.999Z</time></trkpt><trkpt lat="41.37702722304251" lon="-1.1916761112034409"><ele>552.0</ele><time>2026-05-03T17:48:57.999Z</time></trkpt><trkpt lat="41.37711687022049" lon="-1.1915898620545229"><ele>552.2</ele><time>2026-05-03T17:48:58.999Z</time></trkpt><trkpt lat="41.37720406094052" lon="-1.1915012650191954"><ele>552.4000000000001</ele><time>2026-05-03T17:48:59.999Z</time></trkpt><trkpt lat="41.377293380873056" lon="-1.191415248895629"><ele>552.5999999999999</ele><time>2026-05-03T17:49:00.999Z</time></trkpt><trkpt lat="41.37737916017068" lon="-1.1913323755686636"><ele>552.8</ele><time>2026-05-03T17:49:01.999Z</time></trkpt><trkpt lat="41.377469545725255" lon="-1.1912479711646844"><ele>553.0</ele><time>2026-05-03T17:49:02.999Z</time></trkpt><trkpt lat="41.377558399782394" lon="-1.191158813590573"><ele>553.0</ele><time>2026-05-03T17:49:04Z</time></trkpt><trkpt lat="41.377646026973416" lon="-1.1910696956586702"><ele>553.0</ele><time>2026-05-03T17:49:05Z</time></trkpt><trkpt lat="41.37773119856201" lon="-1.1909801505241622"><ele>553.0</ele><time>2026-05-03T17:49:06Z</time></trkpt><trkpt lat="41.377821850404025" lon="-1.1908980156046154"><ele>553.0</ele><time>2026-05-03T17:49:07Z</time></trkpt><trkpt lat="41.37791152810857" lon="-1.1908120559332862"><ele>553.0</ele><time>2026-05-03T17:49:08Z</time></trkpt><trkpt lat="41.37800233311799" lon="-1.1907244911080093"><ele>553.5</ele><time>2026-05-03T17:49:09Z</time></trkpt><trkpt lat="41.37808964146548" lon="-1.1906303353464291"><ele>554.0</ele><time>2026-05-03T17:49:10Z</time></trkpt><trkpt lat="41.378187992646275" lon="-1.1905455795282696"><ele>554.5</ele><time>2026-05-03T17:49:11Z</time></trkpt><trkpt lat="41.378274373018826" lon="-1.1904356461254364"><ele>555.0</ele><time>2026-05-03T17:49:12Z</time></trkpt><trkpt lat="41.37837505129107" lon="-1.1902761465354337"><ele>555.0</ele><time>2026-05-03T17:49:13Z</time></trkpt><trkpt lat="41.37844963336095" lon="-1.1902750936137694"><ele>555.0</ele><time>2026-05-03T17:49:14Z</time></trkpt><trkpt lat="41.37853880333877" lon="-1.1901860101435557"><ele>555.0</ele><time>2026-05-03T17:49:15Z</time></trkpt><trkpt lat="41.37862820371027" lon="-1.1900989245303384"><ele>555.0</ele><time>2026-05-03T17:49:16Z</time></trkpt><trkpt lat="41.37872168029714" lon="-1.1900100691938922"><ele>555.0</ele><time>2026-05-03T17:49:17Z</time></trkpt><trkpt lat="41.37881509328358" lon="-1.1899213340103907"><ele>555.25</ele><time>2026-05-03T17:49:18Z</time></trkpt><trkpt lat="41.378908151814336" lon="-1.189834228968558"><ele>555.5</ele><time>2026-05-03T17:49:19Z</time></trkpt><trkpt lat="41.378999345354664" lon="-1.1897436729110085"><ele>555.75</ele><time>2026-05-03T17:49:20Z</time></trkpt><trkpt lat="41.37909118567206" lon="-1.1896542337199825"><ele>556.0</ele><time>2026-05-03T17:49:21Z</time></trkpt><trkpt lat="41.37918139389399" lon="-1.1895659735618576"><ele>556.0</ele><time>2026-05-03T17:49:22Z</time></trkpt><trkpt lat="41.379274010720565" lon="-1.1894755561359405"><ele>556.0</ele><time>2026-05-03T17:49:23Z</time></trkpt><trkpt lat="41.37936376047474" lon="-1.1893843419259256"><ele>556.0</ele><time>2026-05-03T17:49:24Z</time></trkpt><trkpt lat="41.379454869024414" lon="-1.1892922222712632"><ele>556.0</ele><time>2026-05-03T17:49:25Z</time></trkpt><trkpt lat="41.37954829061864" lon="-1.1891996142754628"><ele>556.0</ele><time>2026-05-03T17:49:26Z</time></trkpt><trkpt lat="41.379640145814676" lon="-1.189108661782462"><ele>556.0</ele><time>2026-05-03T17:49:27Z</time></trkpt><trkpt lat="41.379731927852276" lon="-1.1890171390153517"><ele>556.0</ele><time>2026-05-03T17:49:28Z</time></trkpt><trkpt lat="41.379824568224535" lon="-1.1889256556130008"><ele>556.0</ele><time>2026-05-03T17:49:29Z</time></trkpt><trkpt lat="41.379915359463034" lon="-1.1888361647391998"><ele>555.0</ele><time>2026-05-03T17:49:30Z</time></trkpt><trkpt lat="41.38000888475098" lon="-1.1887459024149787"><ele>554.0</ele><time>2026-05-03T17:49:31Z</time></trkpt><trkpt lat="41.38009984313377" lon="-1.1886568803996225"><ele>553.0</ele><time>2026-05-03T17:49:32Z</time></trkpt><trkpt lat="41.3801909655626" lon="-1.188564540901969"><ele>552.0</ele><time>2026-05-03T17:49:33Z</time></trkpt><trkpt lat="41.380283088344505" lon="-1.1884729317735716"><ele>552.0</ele><time>2026-05-03T17:49:34Z</time></trkpt><trkpt lat="41.38037490887728" lon="-1.1883864962836415"><ele>552.0</ele><time>2026-05-03T17:49:35Z</time></trkpt><trkpt lat="41.3804690212107" lon="-1.1882962938001447"><ele>552.0</ele><time>2026-05-03T17:49:36Z</time></trkpt><trkpt lat="41.38055990922469" lon="-1.1882024005380014"><ele>552.0</ele><time>2026-05-03T17:49:37Z</time></trkpt><trkpt lat="41.38065374082988" lon="-1.1881103871176473"><ele>552.75</ele><time>2026-05-03T17:49:38Z</time></trkpt><trkpt lat="41.38074772227367" lon="-1.1880209543516154"><ele>553.5</ele><time>2026-05-03T17:49:39Z</time></trkpt><trkpt lat="41.380840237615615" lon="-1.1879278198502836"><ele>554.25</ele><time>2026-05-03T17:49:40Z</time></trkpt><trkpt lat="41.3809335614411" lon="-1.18783759257875"><ele>555.0</ele><time>2026-05-03T17:49:41Z</time></trkpt><trkpt lat="41.38102534439445" lon="-1.187746740595281"><ele>555.0</ele><time>2026-05-03T17:49:42Z</time></trkpt><trkpt lat="41.38111819620583" lon="-1.187652991948678"><ele>555.0</ele><time>2026-05-03T17:49:43Z</time></trkpt><trkpt lat="41.38121108274423" lon="-1.187560341541288"><ele>555.0</ele><time>2026-05-03T17:49:44Z</time></trkpt><trkpt lat="41.38130615370729" lon="-1.1874702725843684"><ele>555.0</ele><time>2026-05-03T17:49:45Z</time></trkpt><trkpt lat="41.38140341870344" lon="-1.1873796386486655"><ele>554.75</ele><time>2026-05-03T17:49:46Z</time></trkpt><trkpt lat="41.38149758343592" lon="-1.1872836720209903"><ele>554.5</ele><time>2026-05-03T17:49:47Z</time></trkpt><trkpt lat="41.38158965864393" lon="-1.1871869638229482"><ele>554.25</ele><time>2026-05-03T17:49:48Z</time></trkpt><trkpt lat="41.381685145044" lon="-1.1870971729718294"><ele>554.0</ele><time>2026-05-03T17:49:49Z</time></trkpt><trkpt lat="41.38177742918524" lon="-1.1870035672277632"><ele>554.0</ele><time>2026-05-03T17:49:50Z</time></trkpt><trkpt lat="41.381872808100745" lon="-1.1869152535438035"><ele>554.0</ele><time>2026-05-03T17:49:51Z</time></trkpt><trkpt lat="41.38196150355252" lon="-1.1868261712975734"><ele>554.0</ele><time>2026-05-03T17:49:52Z</time></trkpt><trkpt lat="41.382051150216675" lon="-1.186737581633583"><ele>554.0</ele><time>2026-05-03T17:49:53Z</time></trkpt><trkpt lat="41.382147828712455" lon="-1.1866498769690208"><ele>554.0</ele><time>2026-05-03T17:49:54Z</time></trkpt><trkpt lat="41.38223260651207" lon="-1.186554586368567"><ele>554.0</ele><time>2026-05-03T17:49:55Z</time></trkpt><trkpt lat="41.38232849433114" lon="-1.1864646403823016"><ele>554.0</ele><time>2026-05-03T17:49:56Z</time></trkpt><trkpt lat="41.38242205868489" lon="-1.1863716270452647"><ele>554.0</ele><time>2026-05-03T17:49:57Z</time></trkpt><trkpt lat="41.38251549102688" lon="-1.1862833494998475"><ele>554.0</ele><time>2026-05-03T17:49:58Z</time></trkpt><trkpt lat="41.38260618165268" lon="-1.186189844399782"><ele>554.0</ele><time>2026-05-03T17:49:59Z</time></trkpt><trkpt lat="41.38269914196334" lon="-1.1860975014313881"><ele>554.0</ele><time>2026-05-03T17:50:00Z</time></trkpt><trkpt lat="41.3827910360479" lon="-1.1860080317112962"><ele>554.0</ele><time>2026-05-03T17:50:01Z</time></trkpt><trkpt lat="41.38288502416213" lon="-1.1859157332312116"><ele>554.0</ele><time>2026-05-03T17:50:02Z</time></trkpt><trkpt lat="41.382976718030946" lon="-1.1858249147760607"><ele>554.0</ele><time>2026-05-03T17:50:03Z</time></trkpt><trkpt lat="41.383068228650195" lon="-1.1857317279827762"><ele>554.0</ele><time>2026-05-03T17:50:04Z</time></trkpt><trkpt lat="41.38316229407967" lon="-1.1856391309606824"><ele>554.0</ele><time>2026-05-03T17:50:05Z</time></trkpt><trkpt lat="41.38325526667911" lon="-1.1855516647507764"><ele>553.75</ele><time>2026-05-03T17:50:06Z</time></trkpt><trkpt lat="41.38334861234441" lon="-1.1854623512140843"><ele>553.5</ele><time>2026-05-03T17:50:07.001Z</time></trkpt><trkpt lat="41.38343861118323" lon="-1.1853673363770854"><ele>553.25</ele><time>2026-05-03T17:50:08.001Z</time></trkpt><trkpt lat="41.38353304002882" lon="-1.185279385972537"><ele>553.0</ele><time>2026-05-03T17:50:09.001Z</time></trkpt><trkpt lat="41.38362485640289" lon="-1.1851880035332998"><ele>553.0</ele><time>2026-05-03T17:50:10.001Z</time></trkpt><trkpt lat="41.383719237579484" lon="-1.185099277115258"><ele>553.0</ele><time>2026-05-03T17:50:11.001Z</time></trkpt><trkpt lat="41.383812445779746" lon="-1.185003666465753"><ele>553.0</ele><time>2026-05-03T17:50:12.001Z</time></trkpt><trkpt lat="41.38390609011992" lon="-1.1849122064408637"><ele>553.0</ele><time>2026-05-03T17:50:13.001Z</time></trkpt><trkpt lat="41.38400033841788" lon="-1.1848180578095646"><ele>553.25</ele><time>2026-05-03T17:50:14.001Z</time></trkpt><trkpt lat="41.38409402567144" lon="-1.184724726933795"><ele>553.5</ele><time>2026-05-03T17:50:15.001Z</time></trkpt><trkpt lat="41.384188395524625" lon="-1.1846297844654319"><ele>553.75</ele><time>2026-05-03T17:50:16.001Z</time></trkpt><trkpt lat="41.38428140546419" lon="-1.1845411649682633"><ele>554.0</ele><time>2026-05-03T17:50:17.001Z</time></trkpt><trkpt lat="41.384375590822714" lon="-1.1844452652937485"><ele>554.0</ele><time>2026-05-03T17:50:18.001Z</time></trkpt><trkpt lat="41.384468303758354" lon="-1.184353611146615"><ele>554.0</ele><time>2026-05-03T17:50:19.001Z</time></trkpt><trkpt lat="41.38456010350464" lon="-1.1842628433353986"><ele>554.0</ele><time>2026-05-03T17:50:20.001Z</time></trkpt><trkpt lat="41.384653015912754" lon="-1.1841751778497087"><ele>554.0</ele><time>2026-05-03T17:50:21.001Z</time></trkpt><trkpt lat="41.384745607190304" lon="-1.1840846230300344"><ele>554.75</ele><time>2026-05-03T17:50:22.001Z</time></trkpt><trkpt lat="41.38483697004149" lon="-1.1839937228030568"><ele>555.5</ele><time>2026-05-03T17:50:23.001Z</time></trkpt><trkpt lat="41.38492943101226" lon="-1.1839027511334304"><ele>556.25</ele><time>2026-05-03T17:50:24.001Z</time></trkpt><trkpt lat="41.385022619676484" lon="-1.1838129849844718"><ele>557.0</ele><time>2026-05-03T17:50:25.001Z</time></trkpt><trkpt lat="41.38511330331237" lon="-1.1837213145897865"><ele>557.0</ele><time>2026-05-03T17:50:26.001Z</time></trkpt><trkpt lat="41.385203416995004" lon="-1.1836317237653562"><ele>557.0</ele><time>2026-05-03T17:50:27.001Z</time></trkpt><trkpt lat="41.3852941540898" lon="-1.1835381424672629"><ele>557.0</ele><time>2026-05-03T17:50:28.001Z</time></trkpt><trkpt lat="41.38538517674781" lon="-1.1834494021511452"><ele>557.0</ele><time>2026-05-03T17:50:29.001Z</time></trkpt><trkpt lat="41.38547476145746" lon="-1.1833637395052063"><ele>557.0</ele><time>2026-05-03T17:50:30.001Z</time></trkpt><trkpt lat="41.385567643671045" lon="-1.183271307171376"><ele>557.0</ele><time>2026-05-03T17:50:31.001Z</time></trkpt><trkpt lat="41.385657555844595" lon="-1.1831762220295319"><ele>557.0</ele><time>2026-05-03T17:50:32.001Z</time></trkpt><trkpt lat="41.3857520053557" lon="-1.1830960639471109"><ele>557.0</ele><time>2026-05-03T17:50:33.001Z</time></trkpt><trkpt lat="41.385845133294495" lon="-1.1830013454125075"><ele>557.0</ele><time>2026-05-03T17:50:34.001Z</time></trkpt><trkpt lat="41.3859349817345" lon="-1.1829124765949905"><ele>557.0</ele><time>2026-05-03T17:50:35.001Z</time></trkpt><trkpt lat="41.38602962150013" lon="-1.1828229793133505"><ele>557.0</ele><time>2026-05-03T17:50:36.001Z</time></trkpt><trkpt lat="41.38612134181748" lon="-1.1827309026618051"><ele>557.0</ele><time>2026-05-03T17:50:37.001Z</time></trkpt><trkpt lat="41.38621338873401" lon="-1.182638103506207"><ele>557.0</ele><time>2026-05-03T17:50:38.001Z</time></trkpt><trkpt lat="41.38630428929191" lon="-1.1825474682040518"><ele>557.0</ele><time>2026-05-03T17:50:39.001Z</time></trkpt><trkpt lat="41.3863983357263" lon="-1.1824615242181147"><ele>557.0</ele><time>2026-05-03T17:50:40.001Z</time></trkpt><trkpt lat="41.386490425766986" lon="-1.1823694047385598"><ele>557.0</ele><time>2026-05-03T17:50:41.001Z</time></trkpt><trkpt lat="41.386582338922544" lon="-1.1822790794444655"><ele>555.75</ele><time>2026-05-03T17:50:42.001Z</time></trkpt><trkpt lat="41.38667445584422" lon="-1.1821883652288363"><ele>554.5</ele><time>2026-05-03T17:50:43.001Z</time></trkpt><trkpt lat="41.38676206634524" lon="-1.182093028224635"><ele>553.25</ele><time>2026-05-03T17:50:44.001Z</time></trkpt><trkpt lat="41.38685447297312" lon="-1.1819983085259091"><ele>552.0</ele><time>2026-05-03T17:50:45.001Z</time></trkpt><trkpt lat="41.38694836477981" lon="-1.1819115606862152"><ele>552.0</ele><time>2026-05-03T17:50:46.001Z</time></trkpt><trkpt lat="41.38704218652341" lon="-1.1818266573314868"><ele>552.0</ele><time>2026-05-03T17:50:47.001Z</time></trkpt><trkpt lat="41.38713330970284" lon="-1.1817346497582182"><ele>552.0</ele><time>2026-05-03T17:50:48.001Z</time></trkpt><trkpt lat="41.38722078690018" lon="-1.1816377976827332"><ele>552.0</ele><time>2026-05-03T17:50:49.001Z</time></trkpt><trkpt lat="41.3873143772885" lon="-1.1815460998269842"><ele>552.5</ele><time>2026-05-03T17:50:50.001Z</time></trkpt><trkpt lat="41.3874109952164" lon="-1.1814590489204717"><ele>553.0</ele><time>2026-05-03T17:50:51.001Z</time></trkpt><trkpt lat="41.387504205982424" lon="-1.1813681677127472"><ele>553.5</ele><time>2026-05-03T17:50:52.001Z</time></trkpt><trkpt lat="41.38759572104133" lon="-1.181271077436606"><ele>554.0</ele><time>2026-05-03T17:50:53.001Z</time></trkpt><trkpt lat="41.387687321877216" lon="-1.1811812980296235"><ele>554.0</ele><time>2026-05-03T17:50:54.001Z</time></trkpt><trkpt lat="41.38778177041158" lon="-1.1810919461121305"><ele>554.0</ele><time>2026-05-03T17:50:55.001Z</time></trkpt><trkpt lat="41.38787322853204" lon="-1.1810017129099564"><ele>554.0</ele><time>2026-05-03T17:50:56Z</time></trkpt><trkpt lat="41.387964654613334" lon="-1.1809068107828287"><ele>554.0</ele><time>2026-05-03T17:50:57Z</time></trkpt><trkpt lat="41.38805659075192" lon="-1.1808136578389479"><ele>553.75</ele><time>2026-05-03T17:50:58Z</time></trkpt><trkpt lat="41.38815059490938" lon="-1.1807231300990195"><ele>553.5</ele><time>2026-05-03T17:50:59Z</time></trkpt><trkpt lat="41.38824393255312" lon="-1.1806333524561974"><ele>553.25</ele><time>2026-05-03T17:51:00Z</time></trkpt><trkpt lat="41.388338968167695" lon="-1.1805398446275501"><ele>553.0</ele><time>2026-05-03T17:51:01Z</time></trkpt><trkpt lat="41.388431511514945" lon="-1.18044724889917"><ele>553.0</ele><time>2026-05-03T17:51:02Z</time></trkpt><trkpt lat="41.38852440266607" lon="-1.180355523360583"><ele>553.0</ele><time>2026-05-03T17:51:03Z</time></trkpt><trkpt lat="41.38861833953952" lon="-1.1802630832525638"><ele>553.0</ele><time>2026-05-03T17:51:04Z</time></trkpt><trkpt lat="41.388710750527224" lon="-1.180166654522768"><ele>553.0</ele><time>2026-05-03T17:51:05Z</time></trkpt><trkpt lat="41.388804518368886" lon="-1.180073304554607"><ele>552.5</ele><time>2026-05-03T17:51:06Z</time></trkpt><trkpt lat="41.38889687897455" lon="-1.1799854314913825"><ele>552.0</ele><time>2026-05-03T17:51:07Z</time></trkpt><trkpt lat="41.388989831131255" lon="-1.179893660953497"><ele>551.5</ele><time>2026-05-03T17:51:08Z</time></trkpt><trkpt lat="41.38908241060544" lon="-1.179802982921045"><ele>551.0</ele><time>2026-05-03T17:51:09Z</time></trkpt><trkpt lat="41.38917595252706" lon="-1.1797085394502664"><ele>550.5</ele><time>2026-05-03T17:51:10Z</time></trkpt><trkpt lat="41.389269902143745" lon="-1.1796171548368817"><ele>550.0</ele><time>2026-05-03T17:51:11Z</time></trkpt><trkpt lat="41.389362726419165" lon="-1.1795228748341176"><ele>549.5</ele><time>2026-05-03T17:51:12Z</time></trkpt><trkpt lat="41.38945561762857" lon="-1.1794319521356784"><ele>549.0</ele><time>2026-05-03T17:51:13Z</time></trkpt><trkpt lat="41.38954835909089" lon="-1.1793410667969868"><ele>549.0</ele><time>2026-05-03T17:51:14Z</time></trkpt><trkpt lat="41.38964205944962" lon="-1.179248613347646"><ele>549.0</ele><time>2026-05-03T17:51:15Z</time></trkpt><trkpt lat="41.38973599870577" lon="-1.1791554485666886"><ele>549.0</ele><time>2026-05-03T17:51:16Z</time></trkpt><trkpt lat="41.389827315122325" lon="-1.1790629323590038"><ele>549.0</ele><time>2026-05-03T17:51:17Z</time></trkpt><trkpt lat="41.38991940476489" lon="-1.1789694516229758"><ele>547.25</ele><time>2026-05-03T17:51:18Z</time></trkpt><trkpt lat="41.39001204655894" lon="-1.1788828120568855"><ele>545.5</ele><time>2026-05-03T17:51:19Z</time></trkpt><trkpt lat="41.39010551435557" lon="-1.1787943011860673"><ele>543.75</ele><time>2026-05-03T17:51:20Z</time></trkpt><trkpt lat="41.39019711574435" lon="-1.1787009991976651"><ele>542.0</ele><time>2026-05-03T17:51:21Z</time></trkpt><trkpt lat="41.390291023433406" lon="-1.1786079254080721"><ele>542.0</ele><time>2026-05-03T17:51:22Z</time></trkpt><trkpt lat="41.390386034823905" lon="-1.178516115054901"><ele>542.0</ele><time>2026-05-03T17:51:23Z</time></trkpt><trkpt lat="41.39047979611921" lon="-1.1784276095508697"><ele>542.0</ele><time>2026-05-03T17:51:24Z</time></trkpt><trkpt lat="41.39057495633911" lon="-1.1783338469371578"><ele>542.0</ele><time>2026-05-03T17:51:25Z</time></trkpt><trkpt lat="41.39066999048114" lon="-1.1782430634037397"><ele>541.0</ele><time>2026-05-03T17:51:26Z</time></trkpt><trkpt lat="41.39076540134086" lon="-1.1781515668521572"><ele>540.0</ele><time>2026-05-03T17:51:27Z</time></trkpt><trkpt lat="41.39085857931286" lon="-1.1780579630243895"><ele>539.0</ele><time>2026-05-03T17:51:28Z</time></trkpt><trkpt lat="41.39094989713454" lon="-1.1779637257928555"><ele>538.0</ele><time>2026-05-03T17:51:29Z</time></trkpt><trkpt lat="41.39104356299538" lon="-1.1778738147140968"><ele>538.0</ele><time>2026-05-03T17:51:30Z</time></trkpt><trkpt lat="41.39113869933464" lon="-1.1777786576346623"><ele>538.0</ele><time>2026-05-03T17:51:31Z</time></trkpt><trkpt lat="41.39123419593311" lon="-1.177688872248656"><ele>538.0</ele><time>2026-05-03T17:51:32Z</time></trkpt><trkpt lat="41.39132759896975" lon="-1.1775975606208429"><ele>538.0</ele><time>2026-05-03T17:51:33Z</time></trkpt><trkpt lat="41.39142070914675" lon="-1.1775050569695895"><ele>538.0</ele><time>2026-05-03T17:51:34Z</time></trkpt><trkpt lat="41.39151590659374" lon="-1.1774154566730024"><ele>538.0</ele><time>2026-05-03T17:51:35Z</time></trkpt><trkpt lat="41.39160836933138" lon="-1.1773196735418086"><ele>538.0</ele><time>2026-05-03T17:51:36Z</time></trkpt><trkpt lat="41.39170046655636" lon="-1.1772299465847897"><ele>538.0</ele><time>2026-05-03T17:51:37Z</time></trkpt><trkpt lat="41.39179614117874" lon="-1.1771395583438868"><ele>538.25</ele><time>2026-05-03T17:51:38Z</time></trkpt><trkpt lat="41.39188852016217" lon="-1.1770464204687086"><ele>538.5</ele><time>2026-05-03T17:51:39Z</time></trkpt><trkpt lat="41.39198124316608" lon="-1.176953097771178"><ele>538.75</ele><time>2026-05-03T17:51:40Z</time></trkpt><trkpt lat="41.39207605506249" lon="-1.1768609906201557"><ele>539.0</ele><time>2026-05-03T17:51:41Z</time></trkpt><trkpt lat="41.39217008100534" lon="-1.1767695953859378"><ele>539.25</ele><time>2026-05-03T17:51:42Z</time></trkpt><trkpt lat="41.39226272302013" lon="-1.1766750771263563"><ele>539.5</ele><time>2026-05-03T17:51:43Z</time></trkpt><trkpt lat="41.39235564196308" lon="-1.1765847587949514"><ele>539.75</ele><time>2026-05-03T17:51:44Z</time></trkpt><trkpt lat="41.39244869786802" lon="-1.1764912403690866"><ele>540.0</ele><time>2026-05-03T17:51:45Z</time></trkpt><trkpt lat="41.39253972998028" lon="-1.176398577981161"><ele>540.5</ele><time>2026-05-03T17:51:46Z</time></trkpt><trkpt lat="41.39263262808196" lon="-1.1763117575161035"><ele>541.0</ele><time>2026-05-03T17:51:47Z</time></trkpt><trkpt lat="41.39272713293364" lon="-1.176220501147862"><ele>541.5</ele><time>2026-05-03T17:51:48Z</time></trkpt><trkpt lat="41.39281790798619" lon="-1.1761304478811565"><ele>542.0</ele><time>2026-05-03T17:51:49Z</time></trkpt><trkpt lat="41.392908935869755" lon="-1.176037533507725"><ele>542.0</ele><time>2026-05-03T17:51:50Z</time></trkpt><trkpt lat="41.39300140174013" lon="-1.1759477501057283"><ele>542.0</ele><time>2026-05-03T17:51:51Z</time></trkpt><trkpt lat="41.39309362814176" lon="-1.1758580392796332"><ele>542.0</ele><time>2026-05-03T17:51:52Z</time></trkpt><trkpt lat="41.39318566858721" lon="-1.1757637506340808"><ele>542.0</ele><time>2026-05-03T17:51:53Z</time></trkpt><trkpt lat="41.39327954206655" lon="-1.1756757188218272"><ele>542.75</ele><time>2026-05-03T17:51:54Z</time></trkpt><trkpt lat="41.39336910723367" lon="-1.1755801957583802"><ele>543.5</ele><time>2026-05-03T17:51:55Z</time></trkpt><trkpt lat="41.393461377183584" lon="-1.1754876420991356"><ele>544.25</ele><time>2026-05-03T17:51:56Z</time></trkpt><trkpt lat="41.393555915219686" lon="-1.175396810407742"><ele>545.0</ele><time>2026-05-03T17:51:57Z</time></trkpt><trkpt lat="41.393648253702885" lon="-1.1753066325176798"><ele>545.0</ele><time>2026-05-03T17:51:58Z</time></trkpt><trkpt lat="41.393739830502774" lon="-1.1752121756647065"><ele>545.0</ele><time>2026-05-03T17:51:59Z</time></trkpt><trkpt lat="41.3938331647743" lon="-1.175120683136581"><ele>545.0</ele><time>2026-05-03T17:52:00Z</time></trkpt><trkpt lat="41.39392495940637" lon="-1.1750280901105417"><ele>545.0</ele><time>2026-05-03T17:52:01.001Z</time></trkpt><trkpt lat="41.394019284535915" lon="-1.1749367686829637"><ele>545.0</ele><time>2026-05-03T17:52:02.001Z</time></trkpt><trkpt lat="41.39411305565351" lon="-1.1748453172243427"><ele>545.0</ele><time>2026-05-03T17:52:03.001Z</time></trkpt><trkpt lat="41.39420418961833" lon="-1.1747516229101187"><ele>545.0</ele><time>2026-05-03T17:52:04.001Z</time></trkpt><trkpt lat="41.394295463340754" lon="-1.1746565468851635"><ele>545.0</ele><time>2026-05-03T17:52:05.001Z</time></trkpt><trkpt lat="41.39438996469034" lon="-1.1745710734026558"><ele>545.0</ele><time>2026-05-03T17:52:06.001Z</time></trkpt><trkpt lat="41.394481606035306" lon="-1.174479118585617"><ele>545.0</ele><time>2026-05-03T17:52:07.001Z</time></trkpt><trkpt lat="41.39457153083757" lon="-1.1743866854975662"><ele>545.0</ele><time>2026-05-03T17:52:08.001Z</time></trkpt><trkpt lat="41.39466183271021" lon="-1.1742966235548324"><ele>545.0</ele><time>2026-05-03T17:52:09.001Z</time></trkpt><trkpt lat="41.394749855247746" lon="-1.1742072724033545"><ele>544.5</ele><time>2026-05-03T17:52:10.001Z</time></trkpt><trkpt lat="41.39484616479959" lon="-1.174122287523343"><ele>544.0</ele><time>2026-05-03T17:52:11.001Z</time></trkpt><trkpt lat="41.394938762895464" lon="-1.174033012473333"><ele>543.5</ele><time>2026-05-03T17:52:12.001Z</time></trkpt><trkpt lat="41.39502483629482" lon="-1.1739357858923718"><ele>543.0</ele><time>2026-05-03T17:52:13.001Z</time></trkpt><trkpt lat="41.39511612855856" lon="-1.1738533775215152"><ele>542.5</ele><time>2026-05-03T17:52:14.001Z</time></trkpt><trkpt lat="41.395208701383325" lon="-1.1737585914868343"><ele>542.0</ele><time>2026-05-03T17:52:15.001Z</time></trkpt><trkpt lat="41.39529924693188" lon="-1.173668624134651"><ele>541.5</ele><time>2026-05-03T17:52:16.001Z</time></trkpt><trkpt lat="41.39539095442308" lon="-1.1735760579188135"><ele>541.0</ele><time>2026-05-03T17:52:17.001Z</time></trkpt><trkpt lat="41.395484007312675" lon="-1.1734883635875744"><ele>540.75</ele><time>2026-05-03T17:52:18.001Z</time></trkpt><trkpt lat="41.39557668712324" lon="-1.1734001107056142"><ele>540.5</ele><time>2026-05-03T17:52:19.001Z</time></trkpt><trkpt lat="41.39566770237694" lon="-1.1733090418802359"><ele>540.25</ele><time>2026-05-03T17:52:20.001Z</time></trkpt><trkpt lat="41.39576079525228" lon="-1.1732185825030117"><ele>540.0</ele><time>2026-05-03T17:52:21.001Z</time></trkpt><trkpt lat="41.39585142802103" lon="-1.1731260456377246"><ele>539.5</ele><time>2026-05-03T17:52:22.001Z</time></trkpt><trkpt lat="41.39594737920894" lon="-1.1730348393204248"><ele>539.0</ele><time>2026-05-03T17:52:23.001Z</time></trkpt><trkpt lat="41.39604220718664" lon="-1.1729453033983286"><ele>538.5</ele><time>2026-05-03T17:52:24.001Z</time></trkpt><trkpt lat="41.396135471228014" lon="-1.1728514344889134"><ele>538.0</ele><time>2026-05-03T17:52:25.001Z</time></trkpt><trkpt lat="41.39622958222631" lon="-1.1727611462404839"><ele>538.0</ele><time>2026-05-03T17:52:26.001Z</time></trkpt><trkpt lat="41.396324112382516" lon="-1.172670083587236"><ele>538.0</ele><time>2026-05-03T17:52:27.001Z</time></trkpt><trkpt lat="41.396418916735506" lon="-1.1725809050273814"><ele>538.0</ele><time>2026-05-03T17:52:28.001Z</time></trkpt><trkpt lat="41.396514151622945" lon="-1.1724930140030365"><ele>538.0</ele><time>2026-05-03T17:52:29.001Z</time></trkpt><trkpt lat="41.39660695902654" lon="-1.1723973540059307"><ele>538.0</ele><time>2026-05-03T17:52:30.001Z</time></trkpt><trkpt lat="41.39669746242128" lon="-1.172299117528669"><ele>538.0</ele><time>2026-05-03T17:52:31.001Z</time></trkpt><trkpt lat="41.3967857555261" lon="-1.1722020389375587"><ele>538.0</ele><time>2026-05-03T17:52:32.001Z</time></trkpt><trkpt lat="41.396880365577225" lon="-1.172113525254504"><ele>538.0</ele><time>2026-05-03T17:52:33.001Z</time></trkpt><trkpt lat="41.39697943218043" lon="-1.1720273152997434"><ele>538.0</ele><time>2026-05-03T17:52:34.001Z</time></trkpt><trkpt lat="41.397076378729714" lon="-1.1719409272472596"><ele>538.0</ele><time>2026-05-03T17:52:35.001Z</time></trkpt><trkpt lat="41.39716919253671" lon="-1.171846091957063"><ele>538.0</ele><time>2026-05-03T17:52:36.001Z</time></trkpt><trkpt lat="41.39726305532214" lon="-1.1717558985130538"><ele>538.0</ele><time>2026-05-03T17:52:37.001Z</time></trkpt><trkpt lat="41.39735643949956" lon="-1.17166413564228"><ele>538.0</ele><time>2026-05-03T17:52:38.001Z</time></trkpt><trkpt lat="41.39745112315095" lon="-1.1715701700759091"><ele>538.0</ele><time>2026-05-03T17:52:39.001Z</time></trkpt><trkpt lat="41.39754676731407" lon="-1.1714749171960137"><ele>538.0</ele><time>2026-05-03T17:52:40.001Z</time></trkpt><trkpt lat="41.39763981123192" lon="-1.171383488636792"><ele>538.0</ele><time>2026-05-03T17:52:41.001Z</time></trkpt><trkpt lat="41.39773182774326" lon="-1.1712912264321007"><ele>538.0</ele><time>2026-05-03T17:52:42.001Z</time></trkpt><trkpt lat="41.3978266446405" lon="-1.1712017533412293"><ele>538.0</ele><time>2026-05-03T17:52:43.001Z</time></trkpt><trkpt lat="41.39792164838012" lon="-1.1711108806738912"><ele>538.0</ele><time>2026-05-03T17:52:44.001Z</time></trkpt><trkpt lat="41.398014243031824" lon="-1.1710184900362395"><ele>538.0</ele><time>2026-05-03T17:52:45.001Z</time></trkpt><trkpt lat="41.39810593514885" lon="-1.1709276771716097"><ele>537.5</ele><time>2026-05-03T17:52:46.001Z</time></trkpt><trkpt lat="41.39820056747964" lon="-1.1708378748655859"><ele>537.0</ele><time>2026-05-03T17:52:47.001Z</time></trkpt><trkpt lat="41.39829485745021" lon="-1.1707511156707575"><ele>536.5</ele><time>2026-05-03T17:52:48.001Z</time></trkpt><trkpt lat="41.398385650470736" lon="-1.1706613655583276"><ele>536.0</ele><time>2026-05-03T17:52:49.001Z</time></trkpt><trkpt lat="41.39847754548645" lon="-1.1705720917360956"><ele>536.0</ele><time>2026-05-03T17:52:50.001Z</time></trkpt><trkpt lat="41.39856934412113" lon="-1.1704840718718619"><ele>536.0</ele><time>2026-05-03T17:52:51.001Z</time></trkpt><trkpt lat="41.398662524079235" lon="-1.1703957046269264"><ele>536.0</ele><time>2026-05-03T17:52:52.001Z</time></trkpt><trkpt lat="41.39875719563986" lon="-1.1703057217741437"><ele>536.0</ele><time>2026-05-03T17:52:53.001Z</time></trkpt><trkpt lat="41.398849045871145" lon="-1.1702108261214959"><ele>535.75</ele><time>2026-05-03T17:52:54.001Z</time></trkpt><trkpt lat="41.39893920492878" lon="-1.1701140766519693"><ele>535.5</ele><time>2026-05-03T17:52:55.001Z</time></trkpt><trkpt lat="41.39903111400095" lon="-1.1700206238430828"><ele>535.25</ele><time>2026-05-03T17:52:56.001Z</time></trkpt><trkpt lat="41.39912392291705" lon="-1.1699296232522833"><ele>535.0</ele><time>2026-05-03T17:52:57.001Z</time></trkpt><trkpt lat="41.39921723920435" lon="-1.1698402177112646"><ele>535.5</ele><time>2026-05-03T17:52:58.001Z</time></trkpt><trkpt lat="41.39931296774424" lon="-1.169751013220246"><ele>536.0</ele><time>2026-05-03T17:52:59.001Z</time></trkpt><trkpt lat="41.39940818340873" lon="-1.1696639790645806"><ele>536.5</ele><time>2026-05-03T17:53:00.001Z</time></trkpt><trkpt lat="41.39950490696098" lon="-1.1695756270238782"><ele>537.0</ele><time>2026-05-03T17:53:01.001Z</time></trkpt><trkpt lat="41.39959668392211" lon="-1.1694842018306946"><ele>537.0</ele><time>2026-05-03T17:53:02Z</time></trkpt><trkpt lat="41.39968478532119" lon="-1.169390650664228"><ele>537.0</ele><time>2026-05-03T17:53:03Z</time></trkpt><trkpt lat="41.399772899624956" lon="-1.1693004788849128"><ele>537.0</ele><time>2026-05-03T17:53:04Z</time></trkpt><trkpt lat="41.39986024925238" lon="-1.1692094064039735"><ele>537.0</ele><time>2026-05-03T17:53:05Z</time></trkpt><trkpt lat="41.39994519159022" lon="-1.1691367634928616"><ele>537.0</ele><time>2026-05-03T17:53:06Z</time></trkpt><trkpt lat="41.40004517317945" lon="-1.1690230293785422"><ele>537.0</ele><time>2026-05-03T17:53:07Z</time></trkpt><trkpt lat="41.40013389770177" lon="-1.1689331651864514"><ele>537.0</ele><time>2026-05-03T17:53:08Z</time></trkpt><trkpt lat="41.400225023180326" lon="-1.1688443014519723"><ele>537.0</ele><time>2026-05-03T17:53:09Z</time></trkpt><trkpt lat="41.400320483432374" lon="-1.1687533546197741"><ele>537.0</ele><time>2026-05-03T17:53:10Z</time></trkpt><trkpt lat="41.40041824089975" lon="-1.1686588845972383"><ele>537.0</ele><time>2026-05-03T17:53:11Z</time></trkpt><trkpt lat="41.40050672136209" lon="-1.168561655249584"><ele>537.0</ele><time>2026-05-03T17:53:12Z</time></trkpt><trkpt lat="41.40059367789855" lon="-1.168472231283562"><ele>537.0</ele><time>2026-05-03T17:53:13Z</time></trkpt><trkpt lat="41.400685179829885" lon="-1.168388327273764"><ele>537.0</ele><time>2026-05-03T17:53:14Z</time></trkpt><trkpt lat="41.40077478748251" lon="-1.1682952671163958"><ele>537.0</ele><time>2026-05-03T17:53:15Z</time></trkpt><trkpt lat="41.4008617164094" lon="-1.1682076801373085"><ele>537.25</ele><time>2026-05-03T17:53:16Z</time></trkpt><trkpt lat="41.40094771652377" lon="-1.1681142888658982"><ele>537.5</ele><time>2026-05-03T17:53:17Z</time></trkpt><trkpt lat="41.40103344636659" lon="-1.168021181976442"><ele>537.75</ele><time>2026-05-03T17:53:18Z</time></trkpt><trkpt lat="41.40112610792654" lon="-1.1679320758302705"><ele>538.0</ele><time>2026-05-03T17:53:19Z</time></trkpt><trkpt lat="41.401220866774324" lon="-1.1678442410716445"><ele>538.0</ele><time>2026-05-03T17:53:20Z</time></trkpt><trkpt lat="41.40130918443743" lon="-1.1677531678270527"><ele>538.0</ele><time>2026-05-03T17:53:21Z</time></trkpt><trkpt lat="41.40140193909618" lon="-1.1676633855968002"><ele>538.0</ele><time>2026-05-03T17:53:22Z</time></trkpt><trkpt lat="41.40149527692635" lon="-1.167574325287214"><ele>538.0</ele><time>2026-05-03T17:53:23Z</time></trkpt><trkpt lat="41.40158869267967" lon="-1.1674877619918311"><ele>537.75</ele><time>2026-05-03T17:53:24Z</time></trkpt><trkpt lat="41.401684636791146" lon="-1.1674026496162533"><ele>537.5</ele><time>2026-05-03T17:53:25Z</time></trkpt><trkpt lat="41.40177685682247" lon="-1.1673100261969165"><ele>537.25</ele><time>2026-05-03T17:53:26Z</time></trkpt><trkpt lat="41.40186702638558" lon="-1.1672146464358202"><ele>537.0</ele><time>2026-05-03T17:53:27Z</time></trkpt><trkpt lat="41.40195516758751" lon="-1.167121697608634"><ele>537.0</ele><time>2026-05-03T17:53:28Z</time></trkpt><trkpt lat="41.40204603407977" lon="-1.1670269020362085"><ele>537.0</ele><time>2026-05-03T17:53:29Z</time></trkpt><trkpt lat="41.40213794619339" lon="-1.166934879833508"><ele>537.0</ele><time>2026-05-03T17:53:30Z</time></trkpt><trkpt lat="41.40222194451457" lon="-1.1668380161378744"><ele>537.0</ele><time>2026-05-03T17:53:31Z</time></trkpt><trkpt lat="41.40231176342598" lon="-1.166749941610691"><ele>537.0</ele><time>2026-05-03T17:53:32Z</time></trkpt><trkpt lat="41.40240282407076" lon="-1.1666691928011774"><ele>537.0</ele><time>2026-05-03T17:53:33Z</time></trkpt><trkpt lat="41.40249803476123" lon="-1.1665805255695005"><ele>537.0</ele><time>2026-05-03T17:53:34Z</time></trkpt><trkpt lat="41.402595235814054" lon="-1.1664983178783928"><ele>537.0</ele><time>2026-05-03T17:53:35Z</time></trkpt><trkpt lat="41.40268405751798" lon="-1.166416454870797"><ele>537.0</ele><time>2026-05-03T17:53:36Z</time></trkpt><trkpt lat="41.40277178104078" lon="-1.1663306960838828"><ele>537.2</ele><time>2026-05-03T17:53:37Z</time></trkpt><trkpt lat="41.402861287595194" lon="-1.1662431903991162"><ele>537.4000000000001</ele><time>2026-05-03T17:53:38Z</time></trkpt><trkpt lat="41.40294922576406" lon="-1.166156371627012"><ele>537.5999999999999</ele><time>2026-05-03T17:53:39Z</time></trkpt><trkpt lat="41.40303162494075" lon="-1.1660610155405677"><ele>537.8</ele><time>2026-05-03T17:53:40Z</time></trkpt><trkpt lat="41.40312188689331" lon="-1.1659696972132572"><ele>538.0</ele><time>2026-05-03T17:53:41Z</time></trkpt><trkpt lat="41.4032161003056" lon="-1.1658866040590095"><ele>538.0</ele><time>2026-05-03T17:53:42Z</time></trkpt><trkpt lat="41.40330456748717" lon="-1.1658057499755197"><ele>538.0</ele><time>2026-05-03T17:53:43Z</time></trkpt><trkpt lat="41.40339428687188" lon="-1.1657217928327546"><ele>538.0</ele><time>2026-05-03T17:53:44Z</time></trkpt><trkpt lat="41.40348388509541" lon="-1.1656394215320465"><ele>538.0</ele><time>2026-05-03T17:53:45Z</time></trkpt><trkpt lat="41.40357401528143" lon="-1.1655608972907996"><ele>538.0</ele><time>2026-05-03T17:53:46Z</time></trkpt><trkpt lat="41.40366672264934" lon="-1.165485243288959"><ele>538.0</ele><time>2026-05-03T17:53:47Z</time></trkpt><trkpt lat="41.40376404052862" lon="-1.1654042215511558"><ele>538.0</ele><time>2026-05-03T17:53:48Z</time></trkpt><trkpt lat="41.40385815250587" lon="-1.1653309453014127"><ele>538.0</ele><time>2026-05-03T17:53:49Z</time></trkpt><trkpt lat="41.40395647352163" lon="-1.1652639436139562"><ele>538.0</ele><time>2026-05-03T17:53:50Z</time></trkpt><trkpt lat="41.4040688945528" lon="-1.165203145050032"><ele>537.6</ele><time>2026-05-03T17:53:51Z</time></trkpt><trkpt lat="41.40420211496446" lon="-1.1651659093842595"><ele>537.1999999999999</ele><time>2026-05-03T17:53:52Z</time></trkpt><trkpt lat="41.40427235536675" lon="-1.165103699595923"><ele>536.8</ele><time>2026-05-03T17:53:53Z</time></trkpt><trkpt lat="41.40438142830258" lon="-1.1650662027968737"><ele>536.4</ele><time>2026-05-03T17:53:54Z</time></trkpt><trkpt lat="41.40449171865598" lon="-1.165041456908716"><ele>536.0</ele><time>2026-05-03T17:53:55Z</time></trkpt><trkpt lat="41.404602926068854" lon="-1.1650187104482652"><ele>535.75</ele><time>2026-05-03T17:53:56Z</time></trkpt><trkpt lat="41.40471650299044" lon="-1.1650049459934397"><ele>535.5</ele><time>2026-05-03T17:53:57Z</time></trkpt><trkpt lat="41.40483297148237" lon="-1.1649980188086957"><ele>535.25</ele><time>2026-05-03T17:53:58.001Z</time></trkpt><trkpt lat="41.40494826448488" lon="-1.1649957227399825"><ele>535.0</ele><time>2026-05-03T17:53:59.001Z</time></trkpt><trkpt lat="41.405061685765034" lon="-1.1650094900822021"><ele>535.0</ele><time>2026-05-03T17:54:00.001Z</time></trkpt><trkpt lat="41.40517429862738" lon="-1.1650239440988683"><ele>535.0</ele><time>2026-05-03T17:54:01.001Z</time></trkpt><trkpt lat="41.40528852081574" lon="-1.1650403900222568"><ele>535.0</ele><time>2026-05-03T17:54:02.001Z</time></trkpt><trkpt lat="41.40540030915491" lon="-1.1650624473946587"><ele>535.0</ele><time>2026-05-03T17:54:03.001Z</time></trkpt><trkpt lat="41.40551285132627" lon="-1.165086745592193"><ele>535.0</ele><time>2026-05-03T17:54:04.001Z</time></trkpt><trkpt lat="41.40562467095339" lon="-1.1651150919145352"><ele>535.0</ele><time>2026-05-03T17:54:05.001Z</time></trkpt><trkpt lat="41.40574050110865" lon="-1.1651410268569147"><ele>535.0</ele><time>2026-05-03T17:54:06.001Z</time></trkpt><trkpt lat="41.405856541101386" lon="-1.1651640138322572"><ele>535.0</ele><time>2026-05-03T17:54:07.001Z</time></trkpt><trkpt lat="41.40597260594224" lon="-1.1651858021161903"><ele>535.0</ele><time>2026-05-03T17:54:08.001Z</time></trkpt><trkpt lat="41.40608583829583" lon="-1.1652052641128048"><ele>535.0</ele><time>2026-05-03T17:54:09.001Z</time></trkpt><trkpt lat="41.40620155994092" lon="-1.1652200920668485"><ele>535.0</ele><time>2026-05-03T17:54:10.001Z</time></trkpt><trkpt lat="41.40631703555432" lon="-1.165234383000984"><ele>535.0</ele><time>2026-05-03T17:54:11.001Z</time></trkpt><trkpt lat="41.40642732445819" lon="-1.1652419808823034"><ele>534.75</ele><time>2026-05-03T17:54:12.001Z</time></trkpt><trkpt lat="41.406539538883194" lon="-1.1652425541360505"><ele>534.5</ele><time>2026-05-03T17:54:13.001Z</time></trkpt><trkpt lat="41.40665413830501" lon="-1.1652349528444623"><ele>534.25</ele><time>2026-05-03T17:54:14.001Z</time></trkpt><trkpt lat="41.40676381571269" lon="-1.1652541992054852"><ele>534.0</ele><time>2026-05-03T17:54:15.001Z</time></trkpt><trkpt lat="41.40687592007334" lon="-1.1652079711198307"><ele>534.0</ele><time>2026-05-03T17:54:16.001Z</time></trkpt><trkpt lat="41.406988602776195" lon="-1.1651799197581663"><ele>534.0</ele><time>2026-05-03T17:54:17.001Z</time></trkpt><trkpt lat="41.40710231326435" lon="-1.1651461338539904"><ele>534.0</ele><time>2026-05-03T17:54:18.001Z</time></trkpt><trkpt lat="41.4072106626637" lon="-1.1651095890382015"><ele>534.0</ele><time>2026-05-03T17:54:19.001Z</time></trkpt><trkpt lat="41.407314760125324" lon="-1.1650610105011736"><ele>534.6</ele><time>2026-05-03T17:54:20.001Z</time></trkpt><trkpt lat="41.40742155470547" lon="-1.1650126946405326"><ele>535.2</ele><time>2026-05-03T17:54:21.001Z</time></trkpt><trkpt lat="41.40752646759018" lon="-1.164956597251917"><ele>535.8000000000001</ele><time>2026-05-03T17:54:22.001Z</time></trkpt><trkpt lat="41.40762887329912" lon="-1.1648993325082495"><ele>536.4</ele><time>2026-05-03T17:54:23.001Z</time></trkpt><trkpt lat="41.407729944988105" lon="-1.1648395503726399"><ele>537.0</ele><time>2026-05-03T17:54:24.001Z</time></trkpt><trkpt lat="41.40782822445284" lon="-1.1647758747779535"><ele>536.75</ele><time>2026-05-03T17:54:25.001Z</time></trkpt><trkpt lat="41.407929128682106" lon="-1.1647126407845154"><ele>536.5</ele><time>2026-05-03T17:54:26.001Z</time></trkpt><trkpt lat="41.40803137122061" lon="-1.164647765663712"><ele>536.25</ele><time>2026-05-03T17:54:27.001Z</time></trkpt><trkpt lat="41.408131128564435" lon="-1.1645822623166182"><ele>536.0</ele><time>2026-05-03T17:54:28.001Z</time></trkpt><trkpt lat="41.40823540350733" lon="-1.1645151733205668"><ele>536.0</ele><time>2026-05-03T17:54:29.001Z</time></trkpt><trkpt lat="41.40833596034178" lon="-1.1644518457506647"><ele>536.0</ele><time>2026-05-03T17:54:30.001Z</time></trkpt><trkpt lat="41.40843718116215" lon="-1.1643891424555615"><ele>536.0</ele><time>2026-05-03T17:54:31.001Z</time></trkpt><trkpt lat="41.40853889841325" lon="-1.1643288373072003"><ele>536.0</ele><time>2026-05-03T17:54:32.001Z</time></trkpt><trkpt lat="41.40863798363232" lon="-1.1642674826961361"><ele>536.0</ele><time>2026-05-03T17:54:33.001Z</time></trkpt><trkpt lat="41.408734892758176" lon="-1.16420629216231"><ele>536.4</ele><time>2026-05-03T17:54:34.001Z</time></trkpt><trkpt lat="41.40883622213856" lon="-1.1641411085845135"><ele>536.8</ele><time>2026-05-03T17:54:35.001Z</time></trkpt><trkpt lat="41.40893736375755" lon="-1.164073864506879"><ele>537.1999999999999</ele><time>2026-05-03T17:54:36.001Z</time></trkpt><trkpt lat="41.409039112272524" lon="-1.1640072609162226"><ele>537.6</ele><time>2026-05-03T17:54:37.001Z</time></trkpt><trkpt lat="41.40913913758557" lon="-1.1639452525613485"><ele>538.0</ele><time>2026-05-03T17:54:38.001Z</time></trkpt><trkpt lat="41.40923595790824" lon="-1.163886605579791"><ele>538.1999999999999</ele><time>2026-05-03T17:54:39.001Z</time></trkpt><trkpt lat="41.40933622291723" lon="-1.163819919812422"><ele>538.4</ele><time>2026-05-03T17:54:40.001Z</time></trkpt><trkpt lat="41.409434202838" lon="-1.1637499981259043"><ele>538.5999999999999</ele><time>2026-05-03T17:54:41.001Z</time></trkpt><trkpt lat="41.409531210779775" lon="-1.1636782061417177"><ele>538.8</ele><time>2026-05-03T17:54:42.001Z</time></trkpt><trkpt lat="41.40962751645835" lon="-1.1636079836633049"><ele>539.0</ele><time>2026-05-03T17:54:43.001Z</time></trkpt><trkpt lat="41.40972219161762" lon="-1.1635302786959485"><ele>539.0</ele><time>2026-05-03T17:54:44.001Z</time></trkpt><trkpt lat="41.40981465821666" lon="-1.1634506723951255"><ele>539.0</ele><time>2026-05-03T17:54:45.001Z</time></trkpt><trkpt lat="41.40990596568386" lon="-1.1633659005422754"><ele>539.0</ele><time>2026-05-03T17:54:46.001Z</time></trkpt><trkpt lat="41.40999526611015" lon="-1.1632805513327351"><ele>539.0</ele><time>2026-05-03T17:54:47.001Z</time></trkpt><trkpt lat="41.4100831867952" lon="-1.1631933659412415"><ele>539.0</ele><time>2026-05-03T17:54:48.001Z</time></trkpt><trkpt lat="41.410169616169696" lon="-1.1631026711186454"><ele>539.0</ele><time>2026-05-03T17:54:49.001Z</time></trkpt><trkpt lat="41.4102510205046" lon="-1.1630068158793079"><ele>539.0</ele><time>2026-05-03T17:54:50.001Z</time></trkpt><trkpt lat="41.410333463994256" lon="-1.162911289483178"><ele>539.0</ele><time>2026-05-03T17:54:51.001Z</time></trkpt><trkpt lat="41.41041572856659" lon="-1.1628134493253113"><ele>539.0</ele><time>2026-05-03T17:54:52.001Z</time></trkpt><trkpt lat="41.41049639537423" lon="-1.1627146470796403"><ele>539.0</ele><time>2026-05-03T17:54:53.001Z</time></trkpt><trkpt lat="41.410578290292946" lon="-1.1626132613284836"><ele>539.4</ele><time>2026-05-03T17:54:54.001Z</time></trkpt><trkpt lat="41.41065166828896" lon="-1.162506061505031"><ele>539.8</ele><time>2026-05-03T17:54:55.001Z</time></trkpt><trkpt lat="41.41073965357674" lon="-1.1624227018296367"><ele>540.2</ele><time>2026-05-03T17:54:56.001Z</time></trkpt><trkpt lat="41.41081106342153" lon="-1.1623459201010682"><ele>540.6</ele><time>2026-05-03T17:54:57.001Z</time></trkpt><trkpt lat="41.41087304129837" lon="-1.1622691744113434"><ele>541.0</ele><time>2026-05-03T17:54:58.001Z</time></trkpt><trkpt lat="41.410982796458384" lon="-1.162113267400973"><ele>541.0</ele><time>2026-05-03T17:54:59.001Z</time></trkpt><trkpt lat="41.411062095696266" lon="-1.1620103693031667"><ele>541.0</ele><time>2026-05-03T17:55:00.001Z</time></trkpt><trkpt lat="41.41114073986668" lon="-1.1619084377370605"><ele>541.0</ele><time>2026-05-03T17:55:01.001Z</time></trkpt><trkpt lat="41.411224194047016" lon="-1.161806138512048"><ele>541.0</ele><time>2026-05-03T17:55:02.001Z</time></trkpt><trkpt lat="41.411302009320465" lon="-1.1617052927843212"><ele>541.0</ele><time>2026-05-03T17:55:03.001Z</time></trkpt><trkpt lat="41.41138673812632" lon="-1.1616036426521943"><ele>541.4</ele><time>2026-05-03T17:55:04.001Z</time></trkpt><trkpt lat="41.41146737227499" lon="-1.161503868833983"><ele>541.8</ele><time>2026-05-03T17:55:05.001Z</time></trkpt><trkpt lat="41.411546337295846" lon="-1.1614016976119292"><ele>542.1999999999999</ele><time>2026-05-03T17:55:06.001Z</time></trkpt><trkpt lat="41.41162641566837" lon="-1.1613017993167516"><ele>542.6</ele><time>2026-05-03T17:55:07.001Z</time></trkpt><trkpt lat="41.411705957690735" lon="-1.1612011359229855"><ele>543.0</ele><time>2026-05-03T17:55:08Z</time></trkpt><trkpt lat="41.41178817840761" lon="-1.1610996442993065"><ele>543.0</ele><time>2026-05-03T17:55:09Z</time></trkpt><trkpt lat="41.41187133894898" lon="-1.1609982319994796"><ele>543.0</ele><time>2026-05-03T17:55:10Z</time></trkpt><trkpt lat="41.411954191915314" lon="-1.1608999499789365"><ele>543.0</ele><time>2026-05-03T17:55:11Z</time></trkpt><trkpt lat="41.41203398064716" lon="-1.160799436703301"><ele>543.0</ele><time>2026-05-03T17:55:12Z</time></trkpt><trkpt lat="41.41211429387679" lon="-1.1607020843734492"><ele>543.0</ele><time>2026-05-03T17:55:13Z</time></trkpt><trkpt lat="41.41219451159514" lon="-1.1606022200723396"><ele>542.6</ele><time>2026-05-03T17:55:14Z</time></trkpt><trkpt lat="41.41227479699897" lon="-1.1605019073890646"><ele>542.1999999999999</ele><time>2026-05-03T17:55:15Z</time></trkpt><trkpt lat="41.41235766388749" lon="-1.1604023652364845"><ele>541.8</ele><time>2026-05-03T17:55:16Z</time></trkpt><trkpt lat="41.41243791119828" lon="-1.1602982678852887"><ele>541.4</ele><time>2026-05-03T17:55:17Z</time></trkpt><trkpt lat="41.412517548488914" lon="-1.160193417118597"><ele>541.0</ele><time>2026-05-03T17:55:18Z</time></trkpt><trkpt lat="41.41259788055013" lon="-1.16009253197653"><ele>541.0</ele><time>2026-05-03T17:55:19Z</time></trkpt><trkpt lat="41.41267814752571" lon="-1.1599912198480162"><ele>541.0</ele><time>2026-05-03T17:55:20Z</time></trkpt><trkpt lat="41.41275915555121" lon="-1.1598892215909302"><ele>541.0</ele><time>2026-05-03T17:55:21Z</time></trkpt><trkpt lat="41.412836521772455" lon="-1.1598048077378738"><ele>541.0</ele><time>2026-05-03T17:55:22Z</time></trkpt><trkpt lat="41.41293583901259" lon="-1.15969424732205"><ele>541.4</ele><time>2026-05-03T17:55:23Z</time></trkpt><trkpt lat="41.41304189442767" lon="-1.1595597561424291"><ele>541.8</ele><time>2026-05-03T17:55:24Z</time></trkpt><trkpt lat="41.41308309445977" lon="-1.1594831328714157"><ele>542.1999999999999</ele><time>2026-05-03T17:55:25Z</time></trkpt><trkpt lat="41.413167997566205" lon="-1.1593810427891267"><ele>542.6</ele><time>2026-05-03T17:55:26Z</time></trkpt><trkpt lat="41.41324930598303" lon="-1.1592800696699601"><ele>543.0</ele><time>2026-05-03T17:55:27Z</time></trkpt><trkpt lat="41.413330301954325" lon="-1.1591771655572285"><ele>543.0</ele><time>2026-05-03T17:55:28Z</time></trkpt><trkpt lat="41.413411213770914" lon="-1.1590779383928334"><ele>543.0</ele><time>2026-05-03T17:55:29Z</time></trkpt><trkpt lat="41.41349266569419" lon="-1.1589791472193245"><ele>543.0</ele><time>2026-05-03T17:55:30Z</time></trkpt><trkpt lat="41.4135753686941" lon="-1.1588781967717605"><ele>543.0</ele><time>2026-05-03T17:55:31Z</time></trkpt><trkpt lat="41.41365482947621" lon="-1.1587765467041597"><ele>543.0</ele><time>2026-05-03T17:55:32Z</time></trkpt><trkpt lat="41.41373465455886" lon="-1.158674343443578"><ele>543.0</ele><time>2026-05-03T17:55:33Z</time></trkpt><trkpt lat="41.41381583966513" lon="-1.158575989935435"><ele>543.0</ele><time>2026-05-03T17:55:34Z</time></trkpt><trkpt lat="41.41389928291672" lon="-1.15847604190193"><ele>543.0</ele><time>2026-05-03T17:55:35Z</time></trkpt><trkpt lat="41.413980817370366" lon="-1.1583777640734951"><ele>543.0</ele><time>2026-05-03T17:55:36Z</time></trkpt><trkpt lat="41.41405773288973" lon="-1.1582799437040003"><ele>543.0</ele><time>2026-05-03T17:55:37Z</time></trkpt><trkpt lat="41.414135614187906" lon="-1.1581793107029794"><ele>543.0</ele><time>2026-05-03T17:55:38Z</time></trkpt><trkpt lat="41.41421499295841" lon="-1.1580806603656533"><ele>543.0</ele><time>2026-05-03T17:55:39Z</time></trkpt><trkpt lat="41.41429323600254" lon="-1.1579838736169081"><ele>543.0</ele><time>2026-05-03T17:55:40Z</time></trkpt><trkpt lat="41.41436924202163" lon="-1.157884665845043"><ele>543.0</ele><time>2026-05-03T17:55:41Z</time></trkpt><trkpt lat="41.41444722561614" lon="-1.1577884677692947"><ele>543.0</ele><time>2026-05-03T17:55:42Z</time></trkpt><trkpt lat="41.41452872644071" lon="-1.1576896127649856"><ele>543.0</ele><time>2026-05-03T17:55:43Z</time></trkpt><trkpt lat="41.41461104673358" lon="-1.1575884089433843"><ele>543.0</ele><time>2026-05-03T17:55:44Z</time></trkpt><trkpt lat="41.41469329445432" lon="-1.1574891095907547"><ele>543.0</ele><time>2026-05-03T17:55:45Z</time></trkpt><trkpt lat="41.4147705301193" lon="-1.1573884902039608"><ele>543.0</ele><time>2026-05-03T17:55:46Z</time></trkpt><trkpt lat="41.414851130087925" lon="-1.1572857440376256"><ele>543.0</ele><time>2026-05-03T17:55:47Z</time></trkpt><trkpt lat="41.41493079570245" lon="-1.1571894656469455"><ele>543.1999999999999</ele><time>2026-05-03T17:55:48Z</time></trkpt><trkpt lat="41.41501230403097" lon="-1.157091781184639"><ele>543.4</ele><time>2026-05-03T17:55:49Z</time></trkpt><trkpt lat="41.41509558241475" lon="-1.1569905357971082"><ele>543.5999999999999</ele><time>2026-05-03T17:55:50Z</time></trkpt><trkpt lat="41.415174756214526" lon="-1.1568894375565628"><ele>543.8</ele><time>2026-05-03T17:55:51Z</time></trkpt><trkpt lat="41.41525561052658" lon="-1.156790251235157"><ele>544.0</ele><time>2026-05-03T17:55:52Z</time></trkpt><trkpt lat="41.415335600405996" lon="-1.1566859987549805"><ele>544.0</ele><time>2026-05-03T17:55:53Z</time></trkpt><trkpt lat="41.41541735625978" lon="-1.156584655435451"><ele>544.0</ele><time>2026-05-03T17:55:54.001Z</time></trkpt><trkpt lat="41.41549438827358" lon="-1.1564851674971204"><ele>544.0</ele><time>2026-05-03T17:55:55.001Z</time></trkpt><trkpt lat="41.41557534594483" lon="-1.1563880395408053"><ele>544.0</ele><time>2026-05-03T17:55:56.001Z</time></trkpt><trkpt lat="41.41565447709402" lon="-1.1562877680319106"><ele>544.0</ele><time>2026-05-03T17:55:57.001Z</time></trkpt><trkpt lat="41.41573535003986" lon="-1.1561887616369722"><ele>545.0</ele><time>2026-05-03T17:55:58.001Z</time></trkpt><trkpt lat="41.41581644789118" lon="-1.1560874444380784"><ele>546.0</ele><time>2026-05-03T17:55:59.001Z</time></trkpt><trkpt lat="41.41589638118218" lon="-1.1559868190446188"><ele>547.0</ele><time>2026-05-03T17:56:00.001Z</time></trkpt><trkpt lat="41.41597781492874" lon="-1.1558868241373577"><ele>548.0</ele><time>2026-05-03T17:56:01.001Z</time></trkpt><trkpt lat="41.416064942184306" lon="-1.1557781511947471"><ele>548.1999999999999</ele><time>2026-05-03T17:56:02.001Z</time></trkpt><trkpt lat="41.41613707131774" lon="-1.1556770423393659"><ele>548.4</ele><time>2026-05-03T17:56:03.001Z</time></trkpt><trkpt lat="41.41622461755647" lon="-1.1555825998761964"><ele>548.5999999999999</ele><time>2026-05-03T17:56:04.001Z</time></trkpt><trkpt lat="41.41630882889039" lon="-1.1554850730858506"><ele>548.8</ele><time>2026-05-03T17:56:05.001Z</time></trkpt><trkpt lat="41.41639462129976" lon="-1.1553858085369"><ele>549.0</ele><time>2026-05-03T17:56:06.001Z</time></trkpt><trkpt lat="41.41649186587434" lon="-1.1552603124491112"><ele>549.0</ele><time>2026-05-03T17:56:07.001Z</time></trkpt><trkpt lat="41.41655282845147" lon="-1.1551647689478448"><ele>549.0</ele><time>2026-05-03T17:56:08.001Z</time></trkpt><trkpt lat="41.41663276727341" lon="-1.15506683232371"><ele>549.0</ele><time>2026-05-03T17:56:09.001Z</time></trkpt><trkpt lat="41.41671356226672" lon="-1.1549682966649715"><ele>549.0</ele><time>2026-05-03T17:56:10.001Z</time></trkpt><trkpt lat="41.41679562457859" lon="-1.1548699607903072"><ele>549.0</ele><time>2026-05-03T17:56:11.001Z</time></trkpt><trkpt lat="41.41687409317546" lon="-1.1547673200074589"><ele>548.6</ele><time>2026-05-03T17:56:12.001Z</time></trkpt><trkpt lat="41.41695585482466" lon="-1.154668841929484"><ele>548.2</ele><time>2026-05-03T17:56:13.001Z</time></trkpt><trkpt lat="41.4170397564953" lon="-1.1545704204262737"><ele>547.8000000000001</ele><time>2026-05-03T17:56:14.001Z</time></trkpt><trkpt lat="41.41712029512613" lon="-1.1544717445645105"><ele>547.4</ele><time>2026-05-03T17:56:15.001Z</time></trkpt><trkpt lat="41.4172059084061" lon="-1.1543754839075657"><ele>547.0</ele><time>2026-05-03T17:56:16.001Z</time></trkpt><trkpt lat="41.417290266642766" lon="-1.1542783605408946"><ele>547.0</ele><time>2026-05-03T17:56:17.001Z</time></trkpt><trkpt lat="41.417378615492645" lon="-1.15418144616428"><ele>547.0</ele><time>2026-05-03T17:56:18.001Z</time></trkpt><trkpt lat="41.41746500959568" lon="-1.1540878743826921"><ele>547.0</ele><time>2026-05-03T17:56:19.001Z</time></trkpt><trkpt lat="41.41755264115642" lon="-1.1539984974888582"><ele>547.0</ele><time>2026-05-03T17:56:20.001Z</time></trkpt><trkpt lat="41.41764713855964" lon="-1.1539123092302768"><ele>547.25</ele><time>2026-05-03T17:56:21.001Z</time></trkpt><trkpt lat="41.417741596105124" lon="-1.1538255045758092"><ele>547.5</ele><time>2026-05-03T17:56:22.001Z</time></trkpt><trkpt lat="41.41783277384597" lon="-1.1537477799985885"><ele>547.75</ele><time>2026-05-03T17:56:23.001Z</time></trkpt><trkpt lat="41.41792963587766" lon="-1.1536651277488268"><ele>548.0</ele><time>2026-05-03T17:56:24.001Z</time></trkpt><trkpt lat="41.41802744264856" lon="-1.1535786341928724"><ele>547.25</ele><time>2026-05-03T17:56:25.001Z</time></trkpt><trkpt lat="41.41812447838854" lon="-1.15349855382462"><ele>546.5</ele><time>2026-05-03T17:56:26.001Z</time></trkpt><trkpt lat="41.418221090515004" lon="-1.1534175315447304"><ele>545.75</ele><time>2026-05-03T17:56:27.001Z</time></trkpt><trkpt lat="41.41832076038037" lon="-1.1533368873343561"><ele>545.0</ele><time>2026-05-03T17:56:28.001Z</time></trkpt><trkpt lat="41.41841713844711" lon="-1.1532528310834154"><ele>545.5</ele><time>2026-05-03T17:56:29.001Z</time></trkpt><trkpt lat="41.41851696291456" lon="-1.1531698173027507"><ele>546.0</ele><time>2026-05-03T17:56:30.001Z</time></trkpt><trkpt lat="41.41861375299594" lon="-1.1530867198437267"><ele>546.5</ele><time>2026-05-03T17:56:31.001Z</time></trkpt><trkpt lat="41.41871028275387" lon="-1.1530062573639153"><ele>547.0</ele><time>2026-05-03T17:56:32.001Z</time></trkpt><trkpt lat="41.41880734563705" lon="-1.1529212651705616"><ele>546.0</ele><time>2026-05-03T17:56:33.001Z</time></trkpt><trkpt lat="41.41890822030196" lon="-1.1528347125212004"><ele>545.0</ele><time>2026-05-03T17:56:34.001Z</time></trkpt><trkpt lat="41.41900914759391" lon="-1.1527499591984045"><ele>544.0</ele><time>2026-05-03T17:56:35.001Z</time></trkpt><trkpt lat="41.41910812282072" lon="-1.152668234127941"><ele>543.0</ele><time>2026-05-03T17:56:36.001Z</time></trkpt><trkpt lat="41.41920854975635" lon="-1.1525831202818575"><ele>543.0</ele><time>2026-05-03T17:56:37.001Z</time></trkpt><trkpt lat="41.41930424150229" lon="-1.1525019835577595"><ele>543.0</ele><time>2026-05-03T17:56:38.001Z</time></trkpt><trkpt lat="41.41940256443921" lon="-1.1524172299498976"><ele>543.0</ele><time>2026-05-03T17:56:39.001Z</time></trkpt><trkpt lat="41.41950058932969" lon="-1.1523346747828662"><ele>543.0</ele><time>2026-05-03T17:56:40.001Z</time></trkpt><trkpt lat="41.41959830152408" lon="-1.1522517531623386"><ele>542.5</ele><time>2026-05-03T17:56:41.001Z</time></trkpt><trkpt lat="41.41969614252129" lon="-1.1521708404732416"><ele>542.0</ele><time>2026-05-03T17:56:42.001Z</time></trkpt><trkpt lat="41.419794888706164" lon="-1.152088774859543"><ele>541.5</ele><time>2026-05-03T17:56:43.001Z</time></trkpt><trkpt lat="41.41989001015257" lon="-1.1520047951885306"><ele>541.0</ele><time>2026-05-03T17:56:44.001Z</time></trkpt><trkpt lat="41.41998676975044" lon="-1.1519195916166358"><ele>541.0</ele><time>2026-05-03T17:56:45.001Z</time></trkpt><trkpt lat="41.42008379005065" lon="-1.151839956617432"><ele>541.0</ele><time>2026-05-03T17:56:46.001Z</time></trkpt><trkpt lat="41.420180145926466" lon="-1.151756312317489"><ele>541.0</ele><time>2026-05-03T17:56:47.001Z</time></trkpt><trkpt lat="41.42027785288757" lon="-1.1516734980299674"><ele>541.0</ele><time>2026-05-03T17:56:48.001Z</time></trkpt><trkpt lat="41.420375551605204" lon="-1.1515907393461502"><ele>541.25</ele><time>2026-05-03T17:56:49.001Z</time></trkpt><trkpt lat="41.420473279210384" lon="-1.1515087724422632"><ele>541.5</ele><time>2026-05-03T17:56:50.001Z</time></trkpt><trkpt lat="41.42057160178403" lon="-1.1514288248902769"><ele>541.75</ele><time>2026-05-03T17:56:51.001Z</time></trkpt><trkpt lat="41.42066806692773" lon="-1.1513483557632838"><ele>542.0</ele><time>2026-05-03T17:56:52.001Z</time></trkpt><trkpt lat="41.42076307206686" lon="-1.1512652115575384"><ele>541.0</ele><time>2026-05-03T17:56:53.001Z</time></trkpt><trkpt lat="41.42086121417883" lon="-1.1511832785452571"><ele>540.0</ele><time>2026-05-03T17:56:54.001Z</time></trkpt><trkpt lat="41.42095702322108" lon="-1.1511025638587782"><ele>539.0</ele><time>2026-05-03T17:56:55.001Z</time></trkpt><trkpt lat="41.421052956715684" lon="-1.1510211666073824"><ele>538.0</ele><time>2026-05-03T17:56:56.001Z</time></trkpt><trkpt lat="41.42115015532131" lon="-1.1509389769161624"><ele>538.0</ele><time>2026-05-03T17:56:57.001Z</time></trkpt><trkpt lat="41.42124752192426" lon="-1.1508553183254102"><ele>538.0</ele><time>2026-05-03T17:56:58.001Z</time></trkpt><trkpt lat="41.42134271834437" lon="-1.1507715003881371"><ele>538.0</ele><time>2026-05-03T17:56:59.001Z</time></trkpt><trkpt lat="41.421437851610314" lon="-1.1506884592752304"><ele>538.0</ele><time>2026-05-03T17:57:00.001Z</time></trkpt><trkpt lat="41.421535661213326" lon="-1.150606620910298"><ele>538.25</ele><time>2026-05-03T17:57:01.001Z</time></trkpt><trkpt lat="41.42163391103015" lon="-1.150526422282837"><ele>538.5</ele><time>2026-05-03T17:57:02.001Z</time></trkpt><trkpt lat="41.42172881421052" lon="-1.150444087192969"><ele>538.75</ele><time>2026-05-03T17:57:03.001Z</time></trkpt><trkpt lat="41.42182582545736" lon="-1.1503599023736937"><ele>539.0</ele><time>2026-05-03T17:57:04.001Z</time></trkpt><trkpt lat="41.42192330637498" lon="-1.150278994944105"><ele>539.0</ele><time>2026-05-03T17:57:05.001Z</time></trkpt><trkpt lat="41.42202015596196" lon="-1.1501972190820717"><ele>539.0</ele><time>2026-05-03T17:57:06.001Z</time></trkpt><trkpt lat="41.422116667288826" lon="-1.15011424285046"><ele>539.0</ele><time>2026-05-03T17:57:07.001Z</time></trkpt><trkpt lat="41.42221453684418" lon="-1.1500319571656668"><ele>539.0</ele><time>2026-05-03T17:57:08.002Z</time></trkpt><trkpt lat="41.4223125751681" lon="-1.1499499106639623"><ele>538.5</ele><time>2026-05-03T17:57:09.002Z</time></trkpt><trkpt lat="41.42241035033038" lon="-1.1498693594942329"><ele>538.0</ele><time>2026-05-03T17:57:10.002Z</time></trkpt><trkpt lat="41.42250584897126" lon="-1.149786647823945"><ele>537.5</ele><time>2026-05-03T17:57:11.002Z</time></trkpt><trkpt lat="41.422600003869356" lon="-1.1497047552517574"><ele>537.0</ele><time>2026-05-03T17:57:12.002Z</time></trkpt><trkpt lat="41.4227002501363" lon="-1.1496236564839257"><ele>537.0</ele><time>2026-05-03T17:57:13.002Z</time></trkpt><trkpt lat="41.422798338822936" lon="-1.1495403656160426"><ele>537.0</ele><time>2026-05-03T17:57:14Z</time></trkpt><trkpt lat="41.42289723727459" lon="-1.149457054307399"><ele>537.0</ele><time>2026-05-03T17:57:15Z</time></trkpt><trkpt lat="41.422995538738235" lon="-1.1493727625568773"><ele>537.0</ele><time>2026-05-03T17:57:16Z</time></trkpt><trkpt lat="41.42309555189206" lon="-1.149287610049067"><ele>536.75</ele><time>2026-05-03T17:57:17Z</time></trkpt><trkpt lat="41.423195215846256" lon="-1.1492017329854518"><ele>536.5</ele><time>2026-05-03T17:57:18Z</time></trkpt><trkpt lat="41.42329551286391" lon="-1.1491177544054023"><ele>536.25</ele><time>2026-05-03T17:57:19Z</time></trkpt><trkpt lat="41.42339450163695" lon="-1.1490337674374955"><ele>536.0</ele><time>2026-05-03T17:57:20Z</time></trkpt><trkpt lat="41.423495598993895" lon="-1.1489505229420423"><ele>535.5</ele><time>2026-05-03T17:57:21Z</time></trkpt><trkpt lat="41.42359560794188" lon="-1.1488676402336562"><ele>535.0</ele><time>2026-05-03T17:57:22Z</time></trkpt><trkpt lat="41.42369480473931" lon="-1.1487839885288733"><ele>534.5</ele><time>2026-05-03T17:57:23Z</time></trkpt><trkpt lat="41.42379697971875" lon="-1.1487074308806258"><ele>534.0</ele><time>2026-05-03T17:57:24Z</time></trkpt><trkpt lat="41.42390000831482" lon="-1.148630618437553"><ele>534.0</ele><time>2026-05-03T17:57:25Z</time></trkpt><trkpt lat="41.42400184903169" lon="-1.1485594522715104"><ele>534.0</ele><time>2026-05-03T17:57:26Z</time></trkpt><trkpt lat="41.42410550110865" lon="-1.1484863711765205"><ele>534.0</ele><time>2026-05-03T17:57:27Z</time></trkpt><trkpt lat="41.42421511221263" lon="-1.1484183979484088"><ele>534.0</ele><time>2026-05-03T17:57:28Z</time></trkpt><trkpt lat="41.42432272787832" lon="-1.1483530925850967"><ele>534.0</ele><time>2026-05-03T17:57:29Z</time></trkpt><trkpt lat="41.424433015684485" lon="-1.148282026048837"><ele>534.0</ele><time>2026-05-03T17:57:30Z</time></trkpt><trkpt lat="41.42453837708484" lon="-1.1482137543697093"><ele>534.0</ele><time>2026-05-03T17:57:31Z</time></trkpt><trkpt lat="41.424650725390805" lon="-1.1481482229871767"><ele>534.0</ele><time>2026-05-03T17:57:32Z</time></trkpt><trkpt lat="41.42476093105869" lon="-1.1480818727797837"><ele>533.25</ele><time>2026-05-03T17:57:33Z</time></trkpt><trkpt lat="41.4248668462245" lon="-1.14802061966991"><ele>532.5</ele><time>2026-05-03T17:57:34Z</time></trkpt><trkpt lat="41.42497935678566" lon="-1.1479533725114777"><ele>531.75</ele><time>2026-05-03T17:57:35Z</time></trkpt><trkpt lat="41.425083956263514" lon="-1.147892650675459"><ele>531.0</ele><time>2026-05-03T17:57:36Z</time></trkpt><trkpt lat="41.425190280437256" lon="-1.1478297841704481"><ele>531.0</ele><time>2026-05-03T17:57:37Z</time></trkpt><trkpt lat="41.42529907429148" lon="-1.1477682974004875"><ele>531.0</ele><time>2026-05-03T17:57:38Z</time></trkpt><trkpt lat="41.42540759487086" lon="-1.1477050399998767"><ele>531.0</ele><time>2026-05-03T17:57:39Z</time></trkpt><trkpt lat="41.42551283662384" lon="-1.1476401778436778"><ele>531.0</ele><time>2026-05-03T17:57:40Z</time></trkpt><trkpt lat="41.42562120219308" lon="-1.1475785468161788"><ele>530.75</ele><time>2026-05-03T17:57:41Z</time></trkpt><trkpt lat="41.42572919375199" lon="-1.1475157801345535"><ele>530.5</ele><time>2026-05-03T17:57:42Z</time></trkpt><trkpt lat="41.425834448525826" lon="-1.1474547256192835"><ele>530.25</ele><time>2026-05-03T17:57:43Z</time></trkpt><trkpt lat="41.42594041440432" lon="-1.1473895115700246"><ele>530.0</ele><time>2026-05-03T17:57:44Z</time></trkpt><trkpt lat="41.42604624588415" lon="-1.147326206639345"><ele>529.75</ele><time>2026-05-03T17:57:45Z</time></trkpt><trkpt lat="41.42615316489857" lon="-1.147262146273746"><ele>529.5</ele><time>2026-05-03T17:57:46Z</time></trkpt><trkpt lat="41.42625755253952" lon="-1.1472018528249392"><ele>529.25</ele><time>2026-05-03T17:57:47Z</time></trkpt><trkpt lat="41.42636713058213" lon="-1.1471395972993468"><ele>529.0</ele><time>2026-05-03T17:57:48.001Z</time></trkpt><trkpt lat="41.426470664412875" lon="-1.1470747176563985"><ele>529.0</ele><time>2026-05-03T17:57:49.001Z</time></trkpt><trkpt lat="41.42657945989318" lon="-1.147009912330028"><ele>529.0</ele><time>2026-05-03T17:57:50.001Z</time></trkpt><trkpt lat="41.42668452544029" lon="-1.1469500208690788"><ele>529.0</ele><time>2026-05-03T17:57:51.001Z</time></trkpt><trkpt lat="41.426793658400136" lon="-1.1468854012857492"><ele>529.0</ele><time>2026-05-03T17:57:52.001Z</time></trkpt><trkpt lat="41.42690054507966" lon="-1.1468207961754704"><ele>529.0</ele><time>2026-05-03T17:57:53.001Z</time></trkpt><trkpt lat="41.42700704318998" lon="-1.1467581913347118"><ele>529.0</ele><time>2026-05-03T17:57:54.001Z</time></trkpt><trkpt lat="41.42711345800758" lon="-1.1466955852103138"><ele>529.0</ele><time>2026-05-03T17:57:55.001Z</time></trkpt><trkpt lat="41.427220914490746" lon="-1.1466339120347695"><ele>529.0</ele><time>2026-05-03T17:57:56.001Z</time></trkpt><trkpt lat="41.427325218179035" lon="-1.1465717149007006"><ele>529.0</ele><time>2026-05-03T17:57:57.001Z</time></trkpt><trkpt lat="41.42743051014065" lon="-1.1465104199003981"><ele>529.0</ele><time>2026-05-03T17:57:58.001Z</time></trkpt><trkpt lat="41.42753642179716" lon="-1.1464488486453666"><ele>529.0</ele><time>2026-05-03T17:57:59.001Z</time></trkpt><trkpt lat="41.42764198230636" lon="-1.146385707378793"><ele>529.0</ele><time>2026-05-03T17:58:00.001Z</time></trkpt><trkpt lat="41.427751723227374" lon="-1.146321265495516"><ele>529.0</ele><time>2026-05-03T17:58:01.001Z</time></trkpt><trkpt lat="41.42786304211918" lon="-1.14625678708167"><ele>529.0</ele><time>2026-05-03T17:58:02.001Z</time></trkpt><trkpt lat="41.427975900183775" lon="-1.1461916195946775"><ele>529.0</ele><time>2026-05-03T17:58:03.001Z</time></trkpt><trkpt lat="41.42808707149826" lon="-1.1461259074057093"><ele>529.0</ele><time>2026-05-03T17:58:04.001Z</time></trkpt><trkpt lat="41.428197361720095" lon="-1.1460575779896756"><ele>527.5</ele><time>2026-05-03T17:58:05.001Z</time></trkpt><trkpt lat="41.42830888126778" lon="-1.14599096624291"><ele>526.0</ele><time>2026-05-03T17:58:06.001Z</time></trkpt><trkpt lat="41.428420263630976" lon="-1.1459254695007353"><ele>524.5</ele><time>2026-05-03T17:58:07.001Z</time></trkpt><trkpt lat="41.428530768783425" lon="-1.1458599441418975"><ele>523.0</ele><time>2026-05-03T17:58:08.001Z</time></trkpt><trkpt lat="41.42864363439685" lon="-1.14579499079243"><ele>523.0</ele><time>2026-05-03T17:58:09.001Z</time></trkpt><trkpt lat="41.42875647175271" lon="-1.1457298535399727"><ele>523.0</ele><time>2026-05-03T17:58:10.001Z</time></trkpt><trkpt lat="41.42886257298086" lon="-1.1456643964489925"><ele>523.0</ele><time>2026-05-03T17:58:11.001Z</time></trkpt><trkpt lat="41.42897103649846" lon="-1.145598309684709"><ele>523.0</ele><time>2026-05-03T17:58:12.001Z</time></trkpt><trkpt lat="41.429080236310895" lon="-1.14553499444017"><ele>523.5</ele><time>2026-05-03T17:58:13.001Z</time></trkpt><trkpt lat="41.4291880373085" lon="-1.145471262895725"><ele>524.0</ele><time>2026-05-03T17:58:14.001Z</time></trkpt><trkpt lat="41.42929524683221" lon="-1.1454089360734225"><ele>524.5</ele><time>2026-05-03T17:58:15.001Z</time></trkpt><trkpt lat="41.429404629439325" lon="-1.1453442588300988"><ele>525.0</ele><time>2026-05-03T17:58:16.001Z</time></trkpt><trkpt lat="41.429509007266404" lon="-1.145280350419883"><ele>525.0</ele><time>2026-05-03T17:58:17.001Z</time></trkpt><trkpt lat="41.4296165584936" lon="-1.145217118675595"><ele>525.0</ele><time>2026-05-03T17:58:18.001Z</time></trkpt><trkpt lat="41.429723395844015" lon="-1.1451527642618617"><ele>525.0</ele><time>2026-05-03T17:58:19.001Z</time></trkpt><trkpt lat="41.429833459843216" lon="-1.1450867775460811"><ele>525.0</ele><time>2026-05-03T17:58:20.001Z</time></trkpt><trkpt lat="41.429939822102234" lon="-1.1450210517607469"><ele>524.25</ele><time>2026-05-03T17:58:21.001Z</time></trkpt><trkpt lat="41.43004973017633" lon="-1.1449567362304958"><ele>523.5</ele><time>2026-05-03T17:58:22.001Z</time></trkpt><trkpt lat="41.430158345728515" lon="-1.1448950638725641"><ele>522.75</ele><time>2026-05-03T17:58:23.001Z</time></trkpt><trkpt lat="41.43026673939421" lon="-1.1448332758947584"><ele>522.0</ele><time>2026-05-03T17:58:24.001Z</time></trkpt><trkpt lat="41.430377847822164" lon="-1.1447671407145465"><ele>521.0</ele><time>2026-05-03T17:58:25.001Z</time></trkpt><trkpt lat="41.430482965753086" lon="-1.144702026162985"><ele>520.0</ele><time>2026-05-03T17:58:26.001Z</time></trkpt><trkpt lat="41.43059363365554" lon="-1.1446414943871168"><ele>519.0</ele><time>2026-05-03T17:58:27.001Z</time></trkpt><trkpt lat="41.430701258489925" lon="-1.1445799488776442"><ele>518.0</ele><time>2026-05-03T17:58:28.001Z</time></trkpt><trkpt lat="41.43081025111721" lon="-1.1445125378747234"><ele>518.0</ele><time>2026-05-03T17:58:29.001Z</time></trkpt><trkpt lat="41.43091805064111" lon="-1.144445804662785"><ele>518.0</ele><time>2026-05-03T17:58:30.001Z</time></trkpt><trkpt lat="41.431026421100626" lon="-1.1443827117578875"><ele>518.0</ele><time>2026-05-03T17:58:31.001Z</time></trkpt><trkpt lat="41.431135351910044" lon="-1.144318421761124"><ele>518.0</ele><time>2026-05-03T17:58:32.001Z</time></trkpt><trkpt lat="41.431245050664145" lon="-1.1442542950644652"><ele>518.0</ele><time>2026-05-03T17:58:33.001Z</time></trkpt><trkpt lat="41.4313548049708" lon="-1.1441893537082377"><ele>518.0</ele><time>2026-05-03T17:58:34.001Z</time></trkpt><trkpt lat="41.431463472634654" lon="-1.1441239814117514"><ele>518.0</ele><time>2026-05-03T17:58:35.001Z</time></trkpt><trkpt lat="41.43157173388648" lon="-1.1440858872491662"><ele>518.0</ele><time>2026-05-03T17:58:36.001Z</time></trkpt><trkpt lat="41.43168379720117" lon="-1.1440077268217714"><ele>518.5</ele><time>2026-05-03T17:58:37.001Z</time></trkpt><trkpt lat="41.4317913683309" lon="-1.1439432611037494"><ele>519.0</ele><time>2026-05-03T17:58:38.001Z</time></trkpt><trkpt lat="41.4318985363311" lon="-1.143881411030956"><ele>519.5</ele><time>2026-05-03T17:58:39.001Z</time></trkpt><trkpt lat="41.43200652984098" lon="-1.143818531525876"><ele>520.0</ele><time>2026-05-03T17:58:40.001Z</time></trkpt><trkpt lat="41.43211554728252" lon="-1.1437564080657299"><ele>519.5</ele><time>2026-05-03T17:58:41.001Z</time></trkpt><trkpt lat="41.4322236137802" lon="-1.143692496954971"><ele>519.0</ele><time>2026-05-03T17:58:42.001Z</time></trkpt><trkpt lat="41.4323317566059" lon="-1.1436256200779846"><ele>518.5</ele><time>2026-05-03T17:58:43.001Z</time></trkpt><trkpt lat="41.432439424472925" lon="-1.1435576727539105"><ele>518.0</ele><time>2026-05-03T17:58:44.001Z</time></trkpt><trkpt lat="41.432548864997756" lon="-1.1434912678147038"><ele>518.0</ele><time>2026-05-03T17:58:45.001Z</time></trkpt><trkpt lat="41.43265998725253" lon="-1.1434293329913787"><ele>518.0</ele><time>2026-05-03T17:58:46.001Z</time></trkpt><trkpt lat="41.432770901731566" lon="-1.1433717911611705"><ele>518.0</ele><time>2026-05-03T17:58:47.001Z</time></trkpt><trkpt lat="41.43288361067168" lon="-1.1433151656368112"><ele>518.0</ele><time>2026-05-03T17:58:48.001Z</time></trkpt><trkpt lat="41.432997850096605" lon="-1.1432578521336547"><ele>516.75</ele><time>2026-05-03T17:58:49.001Z</time></trkpt><trkpt lat="41.4331104741345" lon="-1.1432028069794968"><ele>515.5</ele><time>2026-05-03T17:58:50.001Z</time></trkpt><trkpt lat="41.433225016455644" lon="-1.143160409322364"><ele>514.25</ele><time>2026-05-03T17:58:51.001Z</time></trkpt><trkpt lat="41.43334156486777" lon="-1.1431218661586786"><ele>513.0</ele><time>2026-05-03T17:58:52.001Z</time></trkpt><trkpt lat="41.43345806394123" lon="-1.1430858052431636"><ele>513.0</ele><time>2026-05-03T17:58:53.001Z</time></trkpt><trkpt lat="41.43357864143432" lon="-1.143048785525545"><ele>513.0</ele><time>2026-05-03T17:58:54.001Z</time></trkpt><trkpt lat="41.43369500734023" lon="-1.1430171817893504"><ele>513.0</ele><time>2026-05-03T17:58:55.001Z</time></trkpt><trkpt lat="41.433816878497694" lon="-1.1429851497417087"><ele>513.0</ele><time>2026-05-03T17:58:56.001Z</time></trkpt><trkpt lat="41.433937495199416" lon="-1.1429532397858893"><ele>513.0</ele><time>2026-05-03T17:58:57.001Z</time></trkpt><trkpt lat="41.434056292562836" lon="-1.1429238607290466"><ele>513.0</ele><time>2026-05-03T17:58:58.001Z</time></trkpt><trkpt lat="41.434174717677685" lon="-1.1428965532066462"><ele>513.0</ele><time>2026-05-03T17:58:59.001Z</time></trkpt><trkpt lat="41.43429584781195" lon="-1.1428635053314866"><ele>513.0</ele><time>2026-05-03T17:59:00.001Z</time></trkpt><trkpt lat="41.4344167442402" lon="-1.1428320230367144"><ele>513.0</ele><time>2026-05-03T17:59:01.001Z</time></trkpt><trkpt lat="41.434537223520536" lon="-1.1427999402008069"><ele>513.0</ele><time>2026-05-03T17:59:02.001Z</time></trkpt><trkpt lat="41.43465716248797" lon="-1.1427701117760372"><ele>513.0</ele><time>2026-05-03T17:59:03.001Z</time></trkpt><trkpt lat="41.43478031054431" lon="-1.142741594626981"><ele>513.0</ele><time>2026-05-03T17:59:04.001Z</time></trkpt><trkpt lat="41.43489747154266" lon="-1.142712661247532"><ele>512.25</ele><time>2026-05-03T17:59:05.001Z</time></trkpt><trkpt lat="41.43501544403499" lon="-1.142683348821533"><ele>511.5</ele><time>2026-05-03T17:59:06.001Z</time></trkpt><trkpt lat="41.43513065382312" lon="-1.1426555002270313"><ele>510.75</ele><time>2026-05-03T17:59:07.001Z</time></trkpt><trkpt lat="41.4352504985575" lon="-1.142622386344809"><ele>510.0</ele><time>2026-05-03T17:59:08.001Z</time></trkpt><trkpt lat="41.43536966602003" lon="-1.1425948010041926"><ele>509.75</ele><time>2026-05-03T17:59:09.001Z</time></trkpt><trkpt lat="41.435486334045926" lon="-1.1425644821841772"><ele>509.5</ele><time>2026-05-03T17:59:10.001Z</time></trkpt><trkpt lat="41.435601794701185" lon="-1.1425344049508277"><ele>509.25</ele><time>2026-05-03T17:59:11.001Z</time></trkpt><trkpt lat="41.435718124571316" lon="-1.1425052610892663"><ele>509.0</ele><time>2026-05-03T17:59:12.002Z</time></trkpt><trkpt lat="41.43583556458869" lon="-1.1424758876676813"><ele>509.0</ele><time>2026-05-03T17:59:13.002Z</time></trkpt><trkpt lat="41.4359534832354" lon="-1.1424456528332558"><ele>509.0</ele><time>2026-05-03T17:59:14.002Z</time></trkpt><trkpt lat="41.43607140100862" lon="-1.1424151999629257"><ele>509.0</ele><time>2026-05-03T17:59:15.002Z</time></trkpt><trkpt lat="41.43618900371734" lon="-1.1423885557505964"><ele>509.0</ele><time>2026-05-03T17:59:16.002Z</time></trkpt><trkpt lat="41.43630541038845" lon="-1.1423587466273268"><ele>509.75</ele><time>2026-05-03T17:59:17.002Z</time></trkpt><trkpt lat="41.43642367832923" lon="-1.1423297086763335"><ele>510.5</ele><time>2026-05-03T17:59:18.002Z</time></trkpt><trkpt lat="41.436539813083506" lon="-1.1423054454834374"><ele>511.25</ele><time>2026-05-03T17:59:19.002Z</time></trkpt><trkpt lat="41.43665478032713" lon="-1.142274336359397"><ele>512.0</ele><time>2026-05-03T17:59:20.001Z</time></trkpt><trkpt lat="41.4367703956313" lon="-1.1422451700482756"><ele>512.0</ele><time>2026-05-03T17:59:21.001Z</time></trkpt><trkpt lat="41.436889036357925" lon="-1.1422154695093687"><ele>512.0</ele><time>2026-05-03T17:59:22.001Z</time></trkpt><trkpt lat="41.437002528886886" lon="-1.1421774810712246"><ele>512.0</ele><time>2026-05-03T17:59:23.001Z</time></trkpt><trkpt lat="41.4371174672642" lon="-1.1421348045017388"><ele>512.0</ele><time>2026-05-03T17:59:24.001Z</time></trkpt><trkpt lat="41.43722932987089" lon="-1.1420839525279913"><ele>511.5</ele><time>2026-05-03T17:59:25.001Z</time></trkpt><trkpt lat="41.43734186842891" lon="-1.1420298296041342"><ele>511.0</ele><time>2026-05-03T17:59:26.001Z</time></trkpt><trkpt lat="41.43745224004389" lon="-1.1419685088425322"><ele>510.5</ele><time>2026-05-03T17:59:27.001Z</time></trkpt><trkpt lat="41.43756213910119" lon="-1.1418997978610999"><ele>510.0</ele><time>2026-05-03T17:59:28.001Z</time></trkpt><trkpt lat="41.43767013422114" lon="-1.1418326189172825"><ele>510.0</ele><time>2026-05-03T17:59:29.001Z</time></trkpt><trkpt lat="41.43777836744504" lon="-1.1417669774301602"><ele>510.0</ele><time>2026-05-03T17:59:30.001Z</time></trkpt><trkpt lat="41.43788623031081" lon="-1.1417042456473399"><ele>510.0</ele><time>2026-05-03T17:59:31.001Z</time></trkpt><trkpt lat="41.43799866879372" lon="-1.141643713871044"><ele>510.0</ele><time>2026-05-03T17:59:32.001Z</time></trkpt><trkpt lat="41.43810950236321" lon="-1.1415857290067424"><ele>509.0</ele><time>2026-05-03T17:59:33.001Z</time></trkpt><trkpt lat="41.43822320529233" lon="-1.141534762364175"><ele>508.0</ele><time>2026-05-03T17:59:34.001Z</time></trkpt><trkpt lat="41.438337665337684" lon="-1.1414847276932958"><ele>507.0</ele><time>2026-05-03T17:59:35.001Z</time></trkpt><trkpt lat="41.43845390238203" lon="-1.1414422202536405"><ele>506.0</ele><time>2026-05-03T17:59:36.001Z</time></trkpt><trkpt lat="41.43856924936969" lon="-1.141402504651257"><ele>506.0</ele><time>2026-05-03T17:59:37.001Z</time></trkpt><trkpt lat="41.43868568601564" lon="-1.141363771602546"><ele>506.0</ele><time>2026-05-03T17:59:38.001Z</time></trkpt><trkpt lat="41.43880247210644" lon="-1.1413258616968318"><ele>506.0</ele><time>2026-05-03T17:59:39.001Z</time></trkpt><trkpt lat="41.43891783106651" lon="-1.1412897964462638"><ele>506.0</ele><time>2026-05-03T17:59:40.001Z</time></trkpt><trkpt lat="41.43903461633181" lon="-1.141251772183263"><ele>505.5</ele><time>2026-05-03T17:59:41.001Z</time></trkpt><trkpt lat="41.43915148379116" lon="-1.1412122951300867"><ele>505.0</ele><time>2026-05-03T17:59:42.001Z</time></trkpt><trkpt lat="41.439266511662055" lon="-1.1411700774797453"><ele>504.5</ele><time>2026-05-03T17:59:43.001Z</time></trkpt><trkpt lat="41.43938431232078" lon="-1.1411280992146604"><ele>504.0</ele><time>2026-05-03T17:59:44.001Z</time></trkpt><trkpt lat="41.43949988311229" lon="-1.1410982091507218"><ele>504.0</ele><time>2026-05-03T17:59:45.001Z</time></trkpt><trkpt lat="41.43961659647473" lon="-1.1410621371386866"><ele>504.0</ele><time>2026-05-03T17:59:46.001Z</time></trkpt><trkpt lat="41.43973493879396" lon="-1.1410229827131941"><ele>504.0</ele><time>2026-05-03T17:59:47.001Z</time></trkpt><trkpt lat="41.43985026653657" lon="-1.140981153017797"><ele>504.0</ele><time>2026-05-03T17:59:48.001Z</time></trkpt><trkpt lat="41.439964379862815" lon="-1.1409414912778093"><ele>503.75</ele><time>2026-05-03T17:59:49.001Z</time></trkpt><trkpt lat="41.44008027038272" lon="-1.1409061439978112"><ele>503.5</ele><time>2026-05-03T17:59:50.001Z</time></trkpt><trkpt lat="41.440194259096884" lon="-1.1408678550301026"><ele>503.25</ele><time>2026-05-03T17:59:51.001Z</time></trkpt><trkpt lat="41.44031091139247" lon="-1.140826327684159"><ele>503.0</ele><time>2026-05-03T17:59:52.001Z</time></trkpt><trkpt lat="41.44042621674104" lon="-1.1407894877363627"><ele>503.0</ele><time>2026-05-03T17:59:53.001Z</time></trkpt><trkpt lat="41.440544113516935" lon="-1.1407522179430847"><ele>503.0</ele><time>2026-05-03T17:59:54.001Z</time></trkpt><trkpt lat="41.44066091045819" lon="-1.140712827925877"><ele>503.0</ele><time>2026-05-03T17:59:55.001Z</time></trkpt><trkpt lat="41.44077623842944" lon="-1.140677509105909"><ele>503.0</ele><time>2026-05-03T17:59:56.001Z</time></trkpt><trkpt lat="41.44089135889413" lon="-1.140639012287697"><ele>503.0</ele><time>2026-05-03T17:59:57.001Z</time></trkpt><trkpt lat="41.44100918941579" lon="-1.1405990065345324"><ele>503.0</ele><time>2026-05-03T17:59:58.001Z</time></trkpt><trkpt lat="41.441126163627466" lon="-1.1405592937848594"><ele>503.0</ele><time>2026-05-03T17:59:59.001Z</time></trkpt><trkpt lat="41.44124300544469" lon="-1.1405208899393389"><ele>503.0</ele><time>2026-05-03T18:00:00.001Z</time></trkpt><trkpt lat="41.44135921531177" lon="-1.1404851726852943"><ele>501.5</ele><time>2026-05-03T18:00:01.001Z</time></trkpt><trkpt lat="41.44147463754041" lon="-1.140448947141881"><ele>500.0</ele><time>2026-05-03T18:00:02.001Z</time></trkpt><trkpt lat="41.44159104893263" lon="-1.1404095027994086"><ele>498.5</ele><time>2026-05-03T18:00:03.001Z</time></trkpt><trkpt lat="41.44170644962402" lon="-1.140374752738469"><ele>497.0</ele><time>2026-05-03T18:00:04.001Z</time></trkpt><trkpt lat="41.441823368960264" lon="-1.1403360432978509"><ele>497.0</ele><time>2026-05-03T18:00:05.001Z</time></trkpt><trkpt lat="41.4419387661567" lon="-1.140299282620703"><ele>497.0</ele><time>2026-05-03T18:00:06.001Z</time></trkpt><trkpt lat="41.44205509250013" lon="-1.1402581671991148"><ele>497.0</ele><time>2026-05-03T18:00:07.001Z</time></trkpt><trkpt lat="41.44217225135402" lon="-1.1402234403283802"><ele>497.0</ele><time>2026-05-03T18:00:08.001Z</time></trkpt><trkpt lat="41.44228412230092" lon="-1.1401808487364828"><ele>497.0</ele><time>2026-05-03T18:00:09.001Z</time></trkpt><trkpt lat="41.44239704423585" lon="-1.1401395679344302"><ele>497.0</ele><time>2026-05-03T18:00:10.001Z</time></trkpt><trkpt lat="41.44251043626999" lon="-1.1400945282891042"><ele>497.0</ele><time>2026-05-03T18:00:11.001Z</time></trkpt><trkpt lat="41.442620502522594" lon="-1.1400474222161139"><ele>497.0</ele><time>2026-05-03T18:00:12.001Z</time></trkpt><trkpt lat="41.44272978993138" lon="-1.139990815750417"><ele>497.0</ele><time>2026-05-03T18:00:13.001Z</time></trkpt><trkpt lat="41.4428370254582" lon="-1.1399292583142173"><ele>497.0</ele><time>2026-05-03T18:00:14.001Z</time></trkpt><trkpt lat="41.44294376315005" lon="-1.1398683049717702"><ele>497.0</ele><time>2026-05-03T18:00:15.001Z</time></trkpt><trkpt lat="41.443049337240524" lon="-1.1398048516537382"><ele>497.0</ele><time>2026-05-03T18:00:16.001Z</time></trkpt><trkpt lat="41.44315421917433" lon="-1.1397394538864845"><ele>496.25</ele><time>2026-05-03T18:00:17.001Z</time></trkpt><trkpt lat="41.44325540217272" lon="-1.139664862751887"><ele>495.5</ele><time>2026-05-03T18:00:18.001Z</time></trkpt><trkpt lat="41.44335431660318" lon="-1.1395916408456679"><ele>494.75</ele><time>2026-05-03T18:00:19.001Z</time></trkpt><trkpt lat="41.44345514982944" lon="-1.1395125636635608"><ele>494.0</ele><time>2026-05-03T18:00:20.001Z</time></trkpt><trkpt lat="41.44355063731673" lon="-1.1394313011086683"><ele>494.0</ele><time>2026-05-03T18:00:21.001Z</time></trkpt><trkpt lat="41.443649837232606" lon="-1.1393472705134013"><ele>494.0</ele><time>2026-05-03T18:00:22.001Z</time></trkpt><trkpt lat="41.443741262549636" lon="-1.1392576381701771"><ele>494.0</ele><time>2026-05-03T18:00:23.001Z</time></trkpt><trkpt lat="41.443832419742655" lon="-1.1391620050132218"><ele>494.0</ele><time>2026-05-03T18:00:24.001Z</time></trkpt><trkpt lat="41.443921045622645" lon="-1.139061660044017"><ele>494.0</ele><time>2026-05-03T18:00:25.001Z</time></trkpt><trkpt lat="41.444011067193756" lon="-1.1389713073035614"><ele>494.0</ele><time>2026-05-03T18:00:26.001Z</time></trkpt><trkpt lat="41.44409204459536" lon="-1.1388466676321891"><ele>494.0</ele><time>2026-05-03T18:00:27.001Z</time></trkpt><trkpt lat="41.444174853035044" lon="-1.138738924952525"><ele>494.0</ele><time>2026-05-03T18:00:28.001Z</time></trkpt><trkpt lat="41.44425634614775" lon="-1.1386259480114855"><ele>494.0</ele><time>2026-05-03T18:00:29.001Z</time></trkpt><trkpt lat="41.44433473238032" lon="-1.1385104294505857"><ele>494.0</ele><time>2026-05-03T18:00:30.001Z</time></trkpt><trkpt lat="41.44441029481906" lon="-1.138395103113041"><ele>494.0</ele><time>2026-05-03T18:00:31.001Z</time></trkpt><trkpt lat="41.44448153974825" lon="-1.1382730615784225"><ele>494.0</ele><time>2026-05-03T18:00:32.001Z</time></trkpt><trkpt lat="41.44455083016236" lon="-1.1381490752537802"><ele>493.75</ele><time>2026-05-03T18:00:33.001Z</time></trkpt><trkpt lat="41.44461903715624" lon="-1.1380240995022293"><ele>493.5</ele><time>2026-05-03T18:00:34.001Z</time></trkpt><trkpt lat="41.44468480730617" lon="-1.1378935981213223"><ele>493.25</ele><time>2026-05-03T18:00:35.001Z</time></trkpt><trkpt lat="41.444750746735956" lon="-1.1377615123562845"><ele>493.0</ele><time>2026-05-03T18:00:36.001Z</time></trkpt><trkpt lat="41.44481229772822" lon="-1.137632010175827"><ele>493.0</ele><time>2026-05-03T18:00:37.001Z</time></trkpt><trkpt lat="41.4448680262386" lon="-1.137497246493813"><ele>493.0</ele><time>2026-05-03T18:00:38.001Z</time></trkpt><trkpt lat="41.44492083909017" lon="-1.1373581395065988"><ele>493.0</ele><time>2026-05-03T18:00:39.001Z</time></trkpt><trkpt lat="41.44497161668903" lon="-1.1372171006183047"><ele>493.0</ele><time>2026-05-03T18:00:40.001Z</time></trkpt><trkpt lat="41.445025456403094" lon="-1.1370790969343993"><ele>492.25</ele><time>2026-05-03T18:00:41.001Z</time></trkpt><trkpt lat="41.44508033774584" lon="-1.1369394200200524"><ele>491.5</ele><time>2026-05-03T18:00:42.001Z</time></trkpt><trkpt lat="41.44513330636919" lon="-1.1368027446605677"><ele>490.75</ele><time>2026-05-03T18:00:43.001Z</time></trkpt><trkpt lat="41.445186421945856" lon="-1.1366642343649738"><ele>490.0</ele><time>2026-05-03T18:00:44.001Z</time></trkpt><trkpt lat="41.445238036130924" lon="-1.136524986024083"><ele>489.25</ele><time>2026-05-03T18:00:45.001Z</time></trkpt><trkpt lat="41.44529155451811" lon="-1.1363856572866449"><ele>488.5</ele><time>2026-05-03T18:00:46.001Z</time></trkpt><trkpt lat="41.44534445502952" lon="-1.13624283541997"><ele>487.75</ele><time>2026-05-03T18:00:47.001Z</time></trkpt><trkpt lat="41.44539947301132" lon="-1.1360983104417215"><ele>487.0</ele><time>2026-05-03T18:00:48.001Z</time></trkpt><trkpt lat="41.44545395316522" lon="-1.1359591420347228"><ele>487.5</ele><time>2026-05-03T18:00:49.001Z</time></trkpt><trkpt lat="41.4455064806057" lon="-1.1358212640074141"><ele>488.0</ele><time>2026-05-03T18:00:50.001Z</time></trkpt><trkpt lat="41.44555835261564" lon="-1.1356835346786203"><ele>488.5</ele><time>2026-05-03T18:00:51.001Z</time></trkpt><trkpt lat="41.44561023437969" lon="-1.1355479664425108"><ele>489.0</ele><time>2026-05-03T18:00:52.001Z</time></trkpt><trkpt lat="41.44566256365722" lon="-1.1354099660887305"><ele>489.0</ele><time>2026-05-03T18:00:53.001Z</time></trkpt><trkpt lat="41.44571528827281" lon="-1.1352723043858048"><ele>489.0</ele><time>2026-05-03T18:00:54.001Z</time></trkpt><trkpt lat="41.445768254117574" lon="-1.1351342849194475"><ele>489.0</ele><time>2026-05-03T18:00:55.001Z</time></trkpt><trkpt lat="41.445819939966206" lon="-1.13499383931911"><ele>489.0</ele><time>2026-05-03T18:00:56.001Z</time></trkpt><trkpt lat="41.44587396959888" lon="-1.1348550042986576"><ele>488.5</ele><time>2026-05-03T18:00:57.001Z</time></trkpt><trkpt lat="41.445924337798154" lon="-1.1347143913865456"><ele>488.0</ele><time>2026-05-03T18:00:58.001Z</time></trkpt><trkpt lat="41.44597622174683" lon="-1.1345806243011398"><ele>487.5</ele><time>2026-05-03T18:00:59.001Z</time></trkpt><trkpt lat="41.446029299647854" lon="-1.134441779164688"><ele>487.0</ele><time>2026-05-03T18:01:00.001Z</time></trkpt><trkpt lat="41.44608215194438" lon="-1.1343028608936412"><ele>487.0</ele><time>2026-05-03T18:01:01.001Z</time></trkpt><trkpt lat="41.44613181768674" lon="-1.134166372561769"><ele>487.0</ele><time>2026-05-03T18:01:02.001Z</time></trkpt><trkpt lat="41.446191841061776" lon="-1.1340307298788235"><ele>487.0</ele><time>2026-05-03T18:01:03.001Z</time></trkpt><trkpt lat="41.44624388741116" lon="-1.13389232229611"><ele>487.0</ele><time>2026-05-03T18:01:04.001Z</time></trkpt><trkpt lat="41.44629150330468" lon="-1.1337512870186077"><ele>487.5</ele><time>2026-05-03T18:01:05.001Z</time></trkpt><trkpt lat="41.44634405609734" lon="-1.1336135489431205"><ele>488.0</ele><time>2026-05-03T18:01:06.001Z</time></trkpt><trkpt lat="41.44639638431958" lon="-1.1334750546522805"><ele>488.5</ele><time>2026-05-03T18:01:07.001Z</time></trkpt><trkpt lat="41.446451283246326" lon="-1.1333389680969033"><ele>489.0</ele><time>2026-05-03T18:01:08.001Z</time></trkpt><trkpt lat="41.44650208171354" lon="-1.1332036863213701"><ele>489.75</ele><time>2026-05-03T18:01:09.001Z</time></trkpt><trkpt lat="41.44654910953963" lon="-1.1330630196527098"><ele>490.5</ele><time>2026-05-03T18:01:10.001Z</time></trkpt><trkpt lat="41.446604799249485" lon="-1.132927777278445"><ele>491.25</ele><time>2026-05-03T18:01:11.001Z</time></trkpt><trkpt lat="41.446657217510975" lon="-1.1327910134582637"><ele>492.0</ele><time>2026-05-03T18:01:12.001Z</time></trkpt><trkpt lat="41.44670927559319" lon="-1.1326555507375768"><ele>492.0</ele><time>2026-05-03T18:01:13.001Z</time></trkpt><trkpt lat="41.44676092850418" lon="-1.1325208246755483"><ele>492.0</ele><time>2026-05-03T18:01:14.001Z</time></trkpt><trkpt lat="41.446814237795124" lon="-1.132391066892509"><ele>492.0</ele><time>2026-05-03T18:01:15.001Z</time></trkpt><trkpt lat="41.44686972098789" lon="-1.1322566009818134"><ele>492.0</ele><time>2026-05-03T18:01:16.001Z</time></trkpt><trkpt lat="41.446922961065646" lon="-1.1321220763485915"><ele>491.75</ele><time>2026-05-03T18:01:17.001Z</time></trkpt><trkpt lat="41.44697692238195" lon="-1.1319940020279327"><ele>491.5</ele><time>2026-05-03T18:01:18.001Z</time></trkpt><trkpt lat="41.44703592032492" lon="-1.13186079783259"><ele>491.25</ele><time>2026-05-03T18:01:19.001Z</time></trkpt><trkpt lat="41.4470840303193" lon="-1.1317273694118504"><ele>491.0</ele><time>2026-05-03T18:01:20.001Z</time></trkpt><trkpt lat="41.44714770827814" lon="-1.1315977261227932"><ele>490.5</ele><time>2026-05-03T18:01:21.001Z</time></trkpt><trkpt lat="41.44720935940537" lon="-1.1314662195626402"><ele>490.0</ele><time>2026-05-03T18:01:22.001Z</time></trkpt><trkpt lat="41.44727103618009" lon="-1.1313371075337053"><ele>489.5</ele><time>2026-05-03T18:01:23.001Z</time></trkpt><trkpt lat="41.447334365089624" lon="-1.1312079927221355"><ele>489.0</ele><time>2026-05-03T18:01:24.001Z</time></trkpt><trkpt lat="41.447398340279" lon="-1.1310778907957981"><ele>489.0</ele><time>2026-05-03T18:01:25.001Z</time></trkpt><trkpt lat="41.44746086304538" lon="-1.1309476388480924"><ele>489.0</ele><time>2026-05-03T18:01:26Z</time></trkpt><trkpt lat="41.447522637043754" lon="-1.1308197510913212"><ele>489.0</ele><time>2026-05-03T18:01:27Z</time></trkpt><trkpt lat="41.44758840833958" lon="-1.1306905033782861"><ele>489.0</ele><time>2026-05-03T18:01:28Z</time></trkpt><trkpt lat="41.44765230655011" lon="-1.1305640035951436"><ele>488.25</ele><time>2026-05-03T18:01:29Z</time></trkpt><trkpt lat="41.447714535268695" lon="-1.130436900187835"><ele>487.5</ele><time>2026-05-03T18:01:30Z</time></trkpt><trkpt lat="41.44777860494753" lon="-1.1303101050831568"><ele>486.75</ele><time>2026-05-03T18:01:31Z</time></trkpt><trkpt lat="41.44784128671438" lon="-1.1301816663133886"><ele>486.0</ele><time>2026-05-03T18:01:32Z</time></trkpt><trkpt lat="41.44790409019594" lon="-1.1300507502391657"><ele>486.5</ele><time>2026-05-03T18:01:33Z</time></trkpt><trkpt lat="41.44796751308846" lon="-1.1299211288338338"><ele>487.0</ele><time>2026-05-03T18:01:34Z</time></trkpt><trkpt lat="41.4480314844183" lon="-1.129789953147842"><ele>487.5</ele><time>2026-05-03T18:01:35Z</time></trkpt><trkpt lat="41.44809617798118" lon="-1.1296587839690089"><ele>488.0</ele><time>2026-05-03T18:01:36Z</time></trkpt><trkpt lat="41.44816142732672" lon="-1.129524854425654"><ele>488.0</ele><time>2026-05-03T18:01:37Z</time></trkpt><trkpt lat="41.44822638092724" lon="-1.1293912626156402"><ele>488.0</ele><time>2026-05-03T18:01:38Z</time></trkpt><trkpt lat="41.44829192443132" lon="-1.1292585741963752"><ele>488.0</ele><time>2026-05-03T18:01:39Z</time></trkpt><trkpt lat="41.44835496443278" lon="-1.1291301659688588"><ele>488.0</ele><time>2026-05-03T18:01:40Z</time></trkpt><trkpt lat="41.448418696011636" lon="-1.128998767240863"><ele>487.0</ele><time>2026-05-03T18:01:41Z</time></trkpt><trkpt lat="41.44848551183888" lon="-1.128871460994643"><ele>486.0</ele><time>2026-05-03T18:01:42Z</time></trkpt><trkpt lat="41.44855007432" lon="-1.1287427092761109"><ele>485.0</ele><time>2026-05-03T18:01:43Z</time></trkpt><trkpt lat="41.44861284369127" lon="-1.1286143242770945"><ele>484.0</ele><time>2026-05-03T18:01:44Z</time></trkpt><trkpt lat="41.44867884758743" lon="-1.1284825110646648"><ele>484.0</ele><time>2026-05-03T18:01:45Z</time></trkpt><trkpt lat="41.44874347289757" lon="-1.1283530986314878"><ele>484.0</ele><time>2026-05-03T18:01:46Z</time></trkpt><trkpt lat="41.448806744207246" lon="-1.1282238819281243"><ele>484.0</ele><time>2026-05-03T18:01:47Z</time></trkpt><trkpt lat="41.44886822463839" lon="-1.128093352191392"><ele>484.0</ele><time>2026-05-03T18:01:48Z</time></trkpt><trkpt lat="41.44893022374946" lon="-1.1279667501393045"><ele>483.75</ele><time>2026-05-03T18:01:49Z</time></trkpt><trkpt lat="41.448992134059694" lon="-1.1278366716319335"><ele>483.5</ele><time>2026-05-03T18:01:50Z</time></trkpt><trkpt lat="41.449061757672" lon="-1.127713527232003"><ele>483.25</ele><time>2026-05-03T18:01:51Z</time></trkpt><trkpt lat="41.449121211624444" lon="-1.1275819674838576"><ele>483.0</ele><time>2026-05-03T18:01:52Z</time></trkpt><trkpt lat="41.449183904093914" lon="-1.1274509143119518"><ele>482.25</ele><time>2026-05-03T18:01:53Z</time></trkpt><trkpt lat="41.44925047211288" lon="-1.1273239395470656"><ele>481.5</ele><time>2026-05-03T18:01:54Z</time></trkpt><trkpt lat="41.44931344090596" lon="-1.1271944365361963"><ele>480.75</ele><time>2026-05-03T18:01:55Z</time></trkpt><trkpt lat="41.44937825234925" lon="-1.1270612749884281"><ele>480.0</ele><time>2026-05-03T18:01:56Z</time></trkpt><trkpt lat="41.449442940115304" lon="-1.1269295298267648"><ele>480.0</ele><time>2026-05-03T18:01:57Z</time></trkpt><trkpt lat="41.44950858750471" lon="-1.1267965739634818"><ele>480.0</ele><time>2026-05-03T18:01:58Z</time></trkpt><trkpt lat="41.449571501746036" lon="-1.1266651978276634"><ele>480.0</ele><time>2026-05-03T18:01:59Z</time></trkpt><trkpt lat="41.44963546753932" lon="-1.1265345145526504"><ele>480.0</ele><time>2026-05-03T18:02:00Z</time></trkpt><trkpt lat="41.44969916074624" lon="-1.1264030398527523"><ele>480.5</ele><time>2026-05-03T18:02:01Z</time></trkpt><trkpt lat="41.44976219017671" lon="-1.1262740166831997"><ele>481.0</ele><time>2026-05-03T18:02:02Z</time></trkpt><trkpt lat="41.449827001667096" lon="-1.1261454203776693"><ele>481.5</ele><time>2026-05-03T18:02:03Z</time></trkpt><trkpt lat="41.44989075189342" lon="-1.1260146359675944"><ele>482.0</ele><time>2026-05-03T18:02:04Z</time></trkpt><trkpt lat="41.44995497582447" lon="-1.125884001459997"><ele>482.0</ele><time>2026-05-03T18:02:05Z</time></trkpt><trkpt lat="41.45001948143186" lon="-1.1257529801720536"><ele>482.0</ele><time>2026-05-03T18:02:06Z</time></trkpt><trkpt lat="41.45008501684416" lon="-1.1256220300407835"><ele>482.0</ele><time>2026-05-03T18:02:07.001Z</time></trkpt><trkpt lat="41.450149425710464" lon="-1.125493261540874"><ele>482.0</ele><time>2026-05-03T18:02:08.001Z</time></trkpt><trkpt lat="41.45021213734844" lon="-1.1253629969304555"><ele>481.0</ele><time>2026-05-03T18:02:09.001Z</time></trkpt><trkpt lat="41.4502757908067" lon="-1.1252316999505458"><ele>480.0</ele><time>2026-05-03T18:02:10.001Z</time></trkpt><trkpt lat="41.45034190505674" lon="-1.1250983035067426"><ele>479.0</ele><time>2026-05-03T18:02:11.001Z</time></trkpt><trkpt lat="41.45040551211234" lon="-1.1249682000140042"><ele>478.0</ele><time>2026-05-03T18:02:12.001Z</time></trkpt><trkpt lat="41.45047265272458" lon="-1.1248368793416321"><ele>477.75</ele><time>2026-05-03T18:02:13.001Z</time></trkpt><trkpt lat="41.45053637527023" lon="-1.1247044167289337"><ele>477.5</ele><time>2026-05-03T18:02:14.001Z</time></trkpt><trkpt lat="41.45060283686492" lon="-1.124571166042106"><ele>477.25</ele><time>2026-05-03T18:02:15.001Z</time></trkpt><trkpt lat="41.45066718499097" lon="-1.1244397445591767"><ele>477.0</ele><time>2026-05-03T18:02:16.001Z</time></trkpt><trkpt lat="41.450731514933175" lon="-1.124307420577928"><ele>477.0</ele><time>2026-05-03T18:02:17.001Z</time></trkpt><trkpt lat="41.450796045165845" lon="-1.124173282957289"><ele>477.0</ele><time>2026-05-03T18:02:18.001Z</time></trkpt><trkpt lat="41.45085827116321" lon="-1.1240417834712957"><ele>477.0</ele><time>2026-05-03T18:02:19.001Z</time></trkpt><trkpt lat="41.45092296843612" lon="-1.1239084865888154"><ele>477.0</ele><time>2026-05-03T18:02:20.001Z</time></trkpt><trkpt lat="41.45098635274488" lon="-1.1237789721466025"><ele>476.5</ele><time>2026-05-03T18:02:21.001Z</time></trkpt><trkpt lat="41.45105250071464" lon="-1.123649630887693"><ele>476.0</ele><time>2026-05-03T18:02:22.001Z</time></trkpt><trkpt lat="41.45111674855819" lon="-1.1235188954345283"><ele>475.5</ele><time>2026-05-03T18:02:23.001Z</time></trkpt><trkpt lat="41.45118124988611" lon="-1.1233857668306884"><ele>475.0</ele><time>2026-05-03T18:02:24.001Z</time></trkpt><trkpt lat="41.451242888470524" lon="-1.1232571441205428"><ele>474.5</ele><time>2026-05-03T18:02:25.001Z</time></trkpt><trkpt lat="41.451307490365714" lon="-1.1231299530938434"><ele>474.0</ele><time>2026-05-03T18:02:26.001Z</time></trkpt><trkpt lat="41.45136991252366" lon="-1.12300622639553"><ele>473.5</ele><time>2026-05-03T18:02:27.001Z</time></trkpt><trkpt lat="41.45142982820604" lon="-1.1228768946020782"><ele>473.0</ele><time>2026-05-03T18:02:28.001Z</time></trkpt><trkpt lat="41.45149357904992" lon="-1.1227557119417875"><ele>473.0</ele><time>2026-05-03T18:02:29.001Z</time></trkpt><trkpt lat="41.451558760733946" lon="-1.1226236954531703"><ele>472.99999999999994</ele><time>2026-05-03T18:02:30.001Z</time></trkpt><trkpt lat="41.451613336790494" lon="-1.122500529102148"><ele>472.99999999999994</ele><time>2026-05-03T18:02:31.001Z</time></trkpt><trkpt lat="41.45166075944451" lon="-1.1223732004299474"><ele>473.0</ele><time>2026-05-03T18:02:32.001Z</time></trkpt><trkpt lat="41.45167373823542" lon="-1.1222667523187246"><ele>473.0</ele><time>2026-05-03T18:02:33.001Z</time></trkpt><trkpt lat="41.45179724592637" lon="-1.1221278682214064"><ele>472.75</ele><time>2026-05-03T18:02:34.001Z</time></trkpt><trkpt lat="41.45185862457389" lon="-1.1219982925387986"><ele>472.5</ele><time>2026-05-03T18:02:35.001Z</time></trkpt><trkpt lat="41.45192107595699" lon="-1.121874611114802"><ele>472.25</ele><time>2026-05-03T18:02:36.001Z</time></trkpt><trkpt lat="41.4519802146015" lon="-1.1217482775598056"><ele>472.0</ele><time>2026-05-03T18:02:37.001Z</time></trkpt><trkpt lat="41.452042105091955" lon="-1.1216215478958225"><ele>472.5</ele><time>2026-05-03T18:02:38.001Z</time></trkpt><trkpt lat="41.45210283521251" lon="-1.1214943760939744"><ele>473.0</ele><time>2026-05-03T18:02:39.001Z</time></trkpt><trkpt lat="41.452161972422324" lon="-1.1213684848410723"><ele>473.5</ele><time>2026-05-03T18:02:40.001Z</time></trkpt><trkpt lat="41.45222386789564" lon="-1.1212400582810707"><ele>474.0</ele><time>2026-05-03T18:02:41.001Z</time></trkpt><trkpt lat="41.45228500165621" lon="-1.121114536312742"><ele>474.0</ele><time>2026-05-03T18:02:42.001Z</time></trkpt><trkpt lat="41.45234563825119" lon="-1.1209841650928536"><ele>474.0</ele><time>2026-05-03T18:02:43.001Z</time></trkpt><trkpt lat="41.452406163676635" lon="-1.1208547669621873"><ele>474.0</ele><time>2026-05-03T18:02:44.001Z</time></trkpt><trkpt lat="41.452463007900946" lon="-1.1207223102293262"><ele>474.0</ele><time>2026-05-03T18:02:45.001Z</time></trkpt><trkpt lat="41.4525227674068" lon="-1.1205890800299185"><ele>474.0</ele><time>2026-05-03T18:02:46.001Z</time></trkpt><trkpt lat="41.45258181918768" lon="-1.1204603699516396"><ele>474.0</ele><time>2026-05-03T18:02:47.001Z</time></trkpt><trkpt lat="41.45264225330897" lon="-1.1203293634430969"><ele>474.0</ele><time>2026-05-03T18:02:48.001Z</time></trkpt><trkpt lat="41.45270195510522" lon="-1.1201999344336662"><ele>474.0</ele><time>2026-05-03T18:02:49.001Z</time></trkpt><trkpt lat="41.45276341629302" lon="-1.1200668535395746"><ele>474.0</ele><time>2026-05-03T18:02:50.001Z</time></trkpt><trkpt lat="41.45282327589039" lon="-1.1199324776955752"><ele>474.0</ele><time>2026-05-03T18:02:51.001Z</time></trkpt><trkpt lat="41.452879786832455" lon="-1.1198007401837606"><ele>474.0</ele><time>2026-05-03T18:02:52.001Z</time></trkpt><trkpt lat="41.452938904631885" lon="-1.119666540238135"><ele>474.0</ele><time>2026-05-03T18:02:53.001Z</time></trkpt><trkpt lat="41.45300169054759" lon="-1.119530387289027"><ele>473.75</ele><time>2026-05-03T18:02:54.001Z</time></trkpt><trkpt lat="41.45305934631231" lon="-1.1194003863593613"><ele>473.5</ele><time>2026-05-03T18:02:55.001Z</time></trkpt><trkpt lat="41.45311821018659" lon="-1.1192676937460193"><ele>473.25</ele><time>2026-05-03T18:02:56.001Z</time></trkpt><trkpt lat="41.45317642508003" lon="-1.119134112786076"><ele>473.0</ele><time>2026-05-03T18:02:57.001Z</time></trkpt><trkpt lat="41.45323468036968" lon="-1.119004798507027"><ele>472.25</ele><time>2026-05-03T18:02:58.001Z</time></trkpt><trkpt lat="41.45329485103346" lon="-1.118873489615352"><ele>471.5</ele><time>2026-05-03T18:02:59.001Z</time></trkpt><trkpt lat="41.453354124618606" lon="-1.1187431200118294"><ele>470.75</ele><time>2026-05-03T18:03:00.001Z</time></trkpt><trkpt lat="41.45341424322997" lon="-1.118611962510138"><ele>470.0</ele><time>2026-05-03T18:03:01.001Z</time></trkpt><trkpt lat="41.453473821044916" lon="-1.1184793619120559"><ele>470.0</ele><time>2026-05-03T18:03:02.001Z</time></trkpt><trkpt lat="41.45353497426873" lon="-1.1183480013248612"><ele>470.0</ele><time>2026-05-03T18:03:03.001Z</time></trkpt><trkpt lat="41.45359569365785" lon="-1.1182135630029042"><ele>470.0</ele><time>2026-05-03T18:03:04.001Z</time></trkpt><trkpt lat="41.4536551163857" lon="-1.1180824311558382"><ele>470.0</ele><time>2026-05-03T18:03:05.001Z</time></trkpt><trkpt lat="41.45371700936267" lon="-1.1179497705601913"><ele>470.25</ele><time>2026-05-03T18:03:06.001Z</time></trkpt><trkpt lat="41.453777027584714" lon="-1.1178146569795175"><ele>470.5</ele><time>2026-05-03T18:03:07.001Z</time></trkpt><trkpt lat="41.45383177617873" lon="-1.117676349952948"><ele>470.75</ele><time>2026-05-03T18:03:08.001Z</time></trkpt><trkpt lat="41.45389240888655" lon="-1.1175421093107296"><ele>471.0</ele><time>2026-05-03T18:03:09.001Z</time></trkpt><trkpt lat="41.453951854851276" lon="-1.117410480363212"><ele>470.0</ele><time>2026-05-03T18:03:10.001Z</time></trkpt><trkpt lat="41.454012170343404" lon="-1.1172779714098249"><ele>469.0</ele><time>2026-05-03T18:03:11.001Z</time></trkpt><trkpt lat="41.454074479061276" lon="-1.1171472478508757"><ele>468.0</ele><time>2026-05-03T18:03:12.001Z</time></trkpt><trkpt lat="41.4541347655254" lon="-1.117013181610659"><ele>467.0</ele><time>2026-05-03T18:03:13.001Z</time></trkpt><trkpt lat="41.45419180100553" lon="-1.1168778212973187"><ele>467.0</ele><time>2026-05-03T18:03:14.001Z</time></trkpt><trkpt lat="41.454251851448966" lon="-1.1167486928496229"><ele>467.0</ele><time>2026-05-03T18:03:15.001Z</time></trkpt><trkpt lat="41.4543136254776" lon="-1.1166149466957542"><ele>467.0</ele><time>2026-05-03T18:03:16.001Z</time></trkpt><trkpt lat="41.45436830546598" lon="-1.1164790743807749"><ele>467.0</ele><time>2026-05-03T18:03:17.001Z</time></trkpt><trkpt lat="41.45442745640344" lon="-1.1163498239473237"><ele>467.0</ele><time>2026-05-03T18:03:18.001Z</time></trkpt><trkpt lat="41.45449082866962" lon="-1.1162205104304936"><ele>467.0</ele><time>2026-05-03T18:03:19.001Z</time></trkpt><trkpt lat="41.45455168152832" lon="-1.1160856293032395"><ele>467.0</ele><time>2026-05-03T18:03:20.001Z</time></trkpt><trkpt lat="41.454609623652374" lon="-1.1159517225846147"><ele>467.0</ele><time>2026-05-03T18:03:21.001Z</time></trkpt><trkpt lat="41.45467224650594" lon="-1.115818929214339"><ele>466.25</ele><time>2026-05-03T18:03:22.001Z</time></trkpt><trkpt lat="41.45473179248611" lon="-1.11568826103361"><ele>465.5</ele><time>2026-05-03T18:03:23.001Z</time></trkpt><trkpt lat="41.454790686818306" lon="-1.1155541703811658"><ele>464.75</ele><time>2026-05-03T18:03:24.001Z</time></trkpt><trkpt lat="41.45485198550476" lon="-1.1154244901067467"><ele>464.0</ele><time>2026-05-03T18:03:25.001Z</time></trkpt><trkpt lat="41.45491257794994" lon="-1.1152924393846808"><ele>464.0</ele><time>2026-05-03T18:03:26.001Z</time></trkpt><trkpt lat="41.45497384020994" lon="-1.1151606959430647"><ele>464.0</ele><time>2026-05-03T18:03:27.001Z</time></trkpt><trkpt lat="41.455032429103355" lon="-1.1150258438048772"><ele>464.0</ele><time>2026-05-03T18:03:28.001Z</time></trkpt><trkpt lat="41.455090925935174" lon="-1.1148906645142793"><ele>464.0</ele><time>2026-05-03T18:03:29.001Z</time></trkpt><trkpt lat="41.45515207498201" lon="-1.1147592834178022"><ele>463.75</ele><time>2026-05-03T18:03:30.001Z</time></trkpt><trkpt lat="41.45521342279307" lon="-1.1146255123538176"><ele>463.5</ele><time>2026-05-03T18:03:31.001Z</time></trkpt><trkpt lat="41.45527104638165" lon="-1.1144947682087105"><ele>463.25</ele><time>2026-05-03T18:03:32Z</time></trkpt><trkpt lat="41.45533194423179" lon="-1.1143570155437406"><ele>463.0</ele><time>2026-05-03T18:03:33Z</time></trkpt><trkpt lat="41.45539243048501" lon="-1.1142258567627132"><ele>463.0</ele><time>2026-05-03T18:03:34Z</time></trkpt><trkpt lat="41.45545174983997" lon="-1.1140914706920102"><ele>463.0</ele><time>2026-05-03T18:03:35Z</time></trkpt><trkpt lat="41.455510798662374" lon="-1.1139611502280566"><ele>463.0</ele><time>2026-05-03T18:03:36Z</time></trkpt><trkpt lat="41.45557356017918" lon="-1.113829875903433"><ele>463.0</ele><time>2026-05-03T18:03:37Z</time></trkpt><trkpt lat="41.45563383823101" lon="-1.113697292723979"><ele>462.5</ele><time>2026-05-03T18:03:38Z</time></trkpt><trkpt lat="41.455692355761755" lon="-1.1135636779431324"><ele>462.0</ele><time>2026-05-03T18:03:39Z</time></trkpt><trkpt lat="41.455751455090684" lon="-1.113428283263393"><ele>461.5</ele><time>2026-05-03T18:03:40Z</time></trkpt><trkpt lat="41.45581079475336" lon="-1.1132940074016309"><ele>461.0</ele><time>2026-05-03T18:03:41Z</time></trkpt><trkpt lat="41.455871608123445" lon="-1.1131612771628094"><ele>461.0</ele><time>2026-05-03T18:03:42Z</time></trkpt><trkpt lat="41.45593325007494" lon="-1.113026346396306"><ele>461.0</ele><time>2026-05-03T18:03:43Z</time></trkpt><trkpt lat="41.455993706712874" lon="-1.1128948405275632"><ele>461.0</ele><time>2026-05-03T18:03:44Z</time></trkpt><trkpt lat="41.45605197173913" lon="-1.1127607263411683"><ele>461.0</ele><time>2026-05-03T18:03:45Z</time></trkpt><trkpt lat="41.4561091059963" lon="-1.1126261974254599"><ele>461.0</ele><time>2026-05-03T18:03:46Z</time></trkpt><trkpt lat="41.456168981485135" lon="-1.112492070215974"><ele>461.0</ele><time>2026-05-03T18:03:47Z</time></trkpt><trkpt lat="41.45623213076742" lon="-1.1123603916079943"><ele>461.0</ele><time>2026-05-03T18:03:48Z</time></trkpt><trkpt lat="41.45628564969225" lon="-1.1122283039840177"><ele>461.0</ele><time>2026-05-03T18:03:49Z</time></trkpt><trkpt lat="41.456348196250445" lon="-1.112100360953073"><ele>461.0</ele><time>2026-05-03T18:03:50Z</time></trkpt><trkpt lat="41.456407980709926" lon="-1.1119655848338055"><ele>461.0</ele><time>2026-05-03T18:03:51Z</time></trkpt><trkpt lat="41.45646598002058" lon="-1.1118377543702755"><ele>461.0</ele><time>2026-05-03T18:03:52Z</time></trkpt><trkpt lat="41.456522478100204" lon="-1.1117024607386399"><ele>461.0</ele><time>2026-05-03T18:03:53Z</time></trkpt><trkpt lat="41.45658119020643" lon="-1.1115678718563373"><ele>461.0</ele><time>2026-05-03T18:03:54Z</time></trkpt><trkpt lat="41.45664197416242" lon="-1.1114394558888028"><ele>461.0</ele><time>2026-05-03T18:03:55Z</time></trkpt><trkpt lat="41.45670332888073" lon="-1.1113065537892837"><ele>461.0</ele><time>2026-05-03T18:03:56Z</time></trkpt><trkpt lat="41.456761828526716" lon="-1.1111746064702233"><ele>461.0</ele><time>2026-05-03T18:03:57Z</time></trkpt><trkpt lat="41.4568219378914" lon="-1.1110427709066006"><ele>461.0</ele><time>2026-05-03T18:03:58Z</time></trkpt><trkpt lat="41.45688329392137" lon="-1.1109149344888234"><ele>461.0</ele><time>2026-05-03T18:03:59Z</time></trkpt><trkpt lat="41.456941973651496" lon="-1.110780964391784"><ele>461.0</ele><time>2026-05-03T18:04:00Z</time></trkpt><trkpt lat="41.45699815475121" lon="-1.1106492633391565"><ele>461.0</ele><time>2026-05-03T18:04:01Z</time></trkpt><trkpt lat="41.45705676227267" lon="-1.1105159293793652"><ele>460.75</ele><time>2026-05-03T18:04:02Z</time></trkpt><trkpt lat="41.457117681646665" lon="-1.110380555078534"><ele>460.5</ele><time>2026-05-03T18:04:03Z</time></trkpt><trkpt lat="41.4571813454111" lon="-1.1102479883989933"><ele>460.25</ele><time>2026-05-03T18:04:04Z</time></trkpt><trkpt lat="41.45723828719169" lon="-1.1101180382184381"><ele>460.0</ele><time>2026-05-03T18:04:05Z</time></trkpt><trkpt lat="41.45729910342083" lon="-1.1099835977042107"><ele>460.5</ele><time>2026-05-03T18:04:06Z</time></trkpt><trkpt lat="41.45735795590272" lon="-1.1098502712554648"><ele>461.0</ele><time>2026-05-03T18:04:07Z</time></trkpt><trkpt lat="41.457416570419845" lon="-1.1097194791736213"><ele>461.5</ele><time>2026-05-03T18:04:08Z</time></trkpt><trkpt lat="41.45747655543398" lon="-1.1095869229973843"><ele>462.0</ele><time>2026-05-03T18:04:09Z</time></trkpt><trkpt lat="41.457537344549756" lon="-1.1094577024685448"><ele>462.0</ele><time>2026-05-03T18:04:10Z</time></trkpt><trkpt lat="41.45759439378123" lon="-1.109325394111229"><ele>462.0</ele><time>2026-05-03T18:04:11Z</time></trkpt><trkpt lat="41.45765477799377" lon="-1.10919258627009"><ele>462.0</ele><time>2026-05-03T18:04:12Z</time></trkpt><trkpt lat="41.45771373661782" lon="-1.1090644462062407"><ele>462.0</ele><time>2026-05-03T18:04:13Z</time></trkpt><trkpt lat="41.457774854256726" lon="-1.1089350034448318"><ele>462.25</ele><time>2026-05-03T18:04:14Z</time></trkpt><trkpt lat="41.4578358803764" lon="-1.1088079146761816"><ele>462.5</ele><time>2026-05-03T18:04:15Z</time></trkpt><trkpt lat="41.457898963600194" lon="-1.1086815055398633"><ele>462.75</ele><time>2026-05-03T18:04:16Z</time></trkpt><trkpt lat="41.45796276334454" lon="-1.1085531602494016"><ele>463.0</ele><time>2026-05-03T18:04:17Z</time></trkpt><trkpt lat="41.45802488309027" lon="-1.1084287175263974"><ele>463.25</ele><time>2026-05-03T18:04:18Z</time></trkpt><trkpt lat="41.45809195932153" lon="-1.1082999440019148"><ele>463.5</ele><time>2026-05-03T18:04:19Z</time></trkpt><trkpt lat="41.45815440522613" lon="-1.1081717170093768"><ele>463.75</ele><time>2026-05-03T18:04:20Z</time></trkpt><trkpt lat="41.45822040722323" lon="-1.1080404385437792"><ele>464.0</ele><time>2026-05-03T18:04:21Z</time></trkpt><trkpt lat="41.45828842769257" lon="-1.1079139522331531"><ele>464.0</ele><time>2026-05-03T18:04:22Z</time></trkpt><trkpt lat="41.45835062224815" lon="-1.1077786859298477"><ele>464.0</ele><time>2026-05-03T18:04:23Z</time></trkpt><trkpt lat="41.45841680759438" lon="-1.1076440191470953"><ele>464.0</ele><time>2026-05-03T18:04:24Z</time></trkpt><trkpt lat="41.45848104619052" lon="-1.1075118127428478"><ele>464.0</ele><time>2026-05-03T18:04:25.001Z</time></trkpt><trkpt lat="41.458542802137224" lon="-1.107377583234489"><ele>463.25</ele><time>2026-05-03T18:04:26.001Z</time></trkpt><trkpt lat="41.458603671650266" lon="-1.1072430022616313"><ele>462.5</ele><time>2026-05-03T18:04:27.001Z</time></trkpt><trkpt lat="41.45866470502312" lon="-1.1071101299054233"><ele>461.75</ele><time>2026-05-03T18:04:28.001Z</time></trkpt><trkpt lat="41.45872297869393" lon="-1.1069729792362548"><ele>461.0</ele><time>2026-05-03T18:04:29.001Z</time></trkpt><trkpt lat="41.45878298431668" lon="-1.1068353935811306"><ele>460.75</ele><time>2026-05-03T18:04:30.001Z</time></trkpt><trkpt lat="41.45884053193144" lon="-1.1066954326947391"><ele>460.5</ele><time>2026-05-03T18:04:31.001Z</time></trkpt><trkpt lat="41.45889972338644" lon="-1.1065574210065672"><ele>460.25</ele><time>2026-05-03T18:04:32.001Z</time></trkpt><trkpt lat="41.458958211545166" lon="-1.106415681835534"><ele>460.0</ele><time>2026-05-03T18:04:33.001Z</time></trkpt><trkpt lat="41.45901629416389" lon="-1.1062785809953795"><ele>459.75</ele><time>2026-05-03T18:04:34.001Z</time></trkpt><trkpt lat="41.45907713911842" lon="-1.1061445039827198"><ele>459.5</ele><time>2026-05-03T18:04:35.001Z</time></trkpt><trkpt lat="41.45913715664872" lon="-1.1060033245445584"><ele>459.25</ele><time>2026-05-03T18:04:36.001Z</time></trkpt><trkpt lat="41.459193027887" lon="-1.1058625711829493"><ele>459.0</ele><time>2026-05-03T18:04:37.001Z</time></trkpt><trkpt lat="41.459251419457416" lon="-1.1057241989995414"><ele>459.5</ele><time>2026-05-03T18:04:38.001Z</time></trkpt><trkpt lat="41.459312115697855" lon="-1.1055858495305153"><ele>460.0</ele><time>2026-05-03T18:04:39.001Z</time></trkpt><trkpt lat="41.459373221323595" lon="-1.105449986808706"><ele>460.5</ele><time>2026-05-03T18:04:40.001Z</time></trkpt><trkpt lat="41.45942960917519" lon="-1.105311852338618"><ele>461.0</ele><time>2026-05-03T18:04:41.001Z</time></trkpt><trkpt lat="41.45948891286134" lon="-1.1051738936431137"><ele>461.0</ele><time>2026-05-03T18:04:42.001Z</time></trkpt><trkpt lat="41.45954854571557" lon="-1.1050352880695653"><ele>461.0</ele><time>2026-05-03T18:04:43.001Z</time></trkpt><trkpt lat="41.459605995969895" lon="-1.1048995882966133"><ele>461.0</ele><time>2026-05-03T18:04:44.001Z</time></trkpt><trkpt lat="41.45966577883299" lon="-1.1047627261882496"><ele>461.0</ele><time>2026-05-03T18:04:45.001Z</time></trkpt><trkpt lat="41.45972257487059" lon="-1.1046259405131633"><ele>459.75</ele><time>2026-05-03T18:04:46.001Z</time></trkpt><trkpt lat="41.45977999727988" lon="-1.1044894600398334"><ele>458.5</ele><time>2026-05-03T18:04:47.001Z</time></trkpt><trkpt lat="41.45984066459339" lon="-1.1043540605393658"><ele>457.25</ele><time>2026-05-03T18:04:48.001Z</time></trkpt><trkpt lat="41.459899049960875" lon="-1.1042214887373465"><ele>456.0</ele><time>2026-05-03T18:04:49.001Z</time></trkpt><trkpt lat="41.45995654011827" lon="-1.104083871063219"><ele>455.75</ele><time>2026-05-03T18:04:50.001Z</time></trkpt><trkpt lat="41.460016083392844" lon="-1.1039471074266263"><ele>455.5</ele><time>2026-05-03T18:04:51.001Z</time></trkpt><trkpt lat="41.460074626203195" lon="-1.1038093908859994"><ele>455.25</ele><time>2026-05-03T18:04:52.001Z</time></trkpt><trkpt lat="41.460133044706616" lon="-1.10367289083462"><ele>455.0</ele><time>2026-05-03T18:04:53.001Z</time></trkpt><trkpt lat="41.46019075183559" lon="-1.1035370090815675"><ele>455.0</ele><time>2026-05-03T18:04:54.001Z</time></trkpt><trkpt lat="41.46025232161603" lon="-1.1033965192033799"><ele>455.0</ele><time>2026-05-03T18:04:55.001Z</time></trkpt><trkpt lat="41.46031185016212" lon="-1.1032600849315874"><ele>455.0</ele><time>2026-05-03T18:04:56.001Z</time></trkpt><trkpt lat="41.460367993468545" lon="-1.1031228102210164"><ele>455.0</ele><time>2026-05-03T18:04:57.001Z</time></trkpt><trkpt lat="41.46042337353219" lon="-1.1029839614801917"><ele>454.0</ele><time>2026-05-03T18:04:58.001Z</time></trkpt><trkpt lat="41.46048254569709" lon="-1.1028441892832592"><ele>453.0</ele><time>2026-05-03T18:04:59.001Z</time></trkpt><trkpt lat="41.46054468218735" lon="-1.102707840197793"><ele>452.0</ele><time>2026-05-03T18:05:00.001Z</time></trkpt><trkpt lat="41.460603646768845" lon="-1.1025688144514483"><ele>451.0</ele><time>2026-05-03T18:05:01.001Z</time></trkpt><trkpt lat="41.46066611330258" lon="-1.102433505254005"><ele>450.75</ele><time>2026-05-03T18:05:02.001Z</time></trkpt><trkpt lat="41.46072450803311" lon="-1.1022949197892917"><ele>450.5</ele><time>2026-05-03T18:05:03.001Z</time></trkpt><trkpt lat="41.460783081619944" lon="-1.1021582766147555"><ele>450.25</ele><time>2026-05-03T18:05:04.001Z</time></trkpt><trkpt lat="41.46084208076792" lon="-1.1020200221009913"><ele>450.0</ele><time>2026-05-03T18:05:05.001Z</time></trkpt><trkpt lat="41.46090105801834" lon="-1.1018812231222095"><ele>450.0</ele><time>2026-05-03T18:05:06.001Z</time></trkpt><trkpt lat="41.46096158548211" lon="-1.101746124405136"><ele>450.0</ele><time>2026-05-03T18:05:07.001Z</time></trkpt><trkpt lat="41.46101934621502" lon="-1.101606524962319"><ele>450.0</ele><time>2026-05-03T18:05:08.001Z</time></trkpt><trkpt lat="41.46107945629677" lon="-1.1014702124847884"><ele>450.0</ele><time>2026-05-03T18:05:09.001Z</time></trkpt><trkpt lat="41.46113500034062" lon="-1.1013299996924264"><ele>450.25</ele><time>2026-05-03T18:05:10.001Z</time></trkpt><trkpt lat="41.461192276904676" lon="-1.1011920565528879"><ele>450.5</ele><time>2026-05-03T18:05:11.001Z</time></trkpt><trkpt lat="41.4612496323869" lon="-1.101053577553809"><ele>450.75</ele><time>2026-05-03T18:05:12.001Z</time></trkpt><trkpt lat="41.46130763477616" lon="-1.1009149705003873"><ele>451.0</ele><time>2026-05-03T18:05:13.001Z</time></trkpt><trkpt lat="41.46136704620366" lon="-1.1007782590832647"><ele>451.0</ele><time>2026-05-03T18:05:14.001Z</time></trkpt><trkpt lat="41.46142588043054" lon="-1.1006421138775013"><ele>451.0</ele><time>2026-05-03T18:05:15.001Z</time></trkpt><trkpt lat="41.46148386737999" lon="-1.1005056712963743"><ele>451.0</ele><time>2026-05-03T18:05:16.001Z</time></trkpt><trkpt lat="41.46154267483448" lon="-1.1003675563714295"><ele>451.0</ele><time>2026-05-03T18:05:17.001Z</time></trkpt><trkpt lat="41.46160107021669" lon="-1.1002305376208974"><ele>451.0</ele><time>2026-05-03T18:05:18.001Z</time></trkpt><trkpt lat="41.461657471955085" lon="-1.1000927384010588"><ele>451.0</ele><time>2026-05-03T18:05:19.001Z</time></trkpt><trkpt lat="41.461716130468965" lon="-1.0999560048066557"><ele>451.0</ele><time>2026-05-03T18:05:20.001Z</time></trkpt><trkpt lat="41.46177314303916" lon="-1.0998165024934565"><ele>451.0</ele><time>2026-05-03T18:05:21.001Z</time></trkpt><trkpt lat="41.461830821872084" lon="-1.0996785630187418"><ele>450.25</ele><time>2026-05-03T18:05:22.001Z</time></trkpt><trkpt lat="41.461891136821215" lon="-1.0995425391829263"><ele>449.5</ele><time>2026-05-03T18:05:23.001Z</time></trkpt><trkpt lat="41.4619498218781" lon="-1.0994041162359103"><ele>448.75</ele><time>2026-05-03T18:05:24.001Z</time></trkpt><trkpt lat="41.46201225381843" lon="-1.0992665439495615"><ele>448.0</ele><time>2026-05-03T18:05:25.001Z</time></trkpt><trkpt lat="41.46206350272068" lon="-1.0991240407795126"><ele>447.75</ele><time>2026-05-03T18:05:26.001Z</time></trkpt><trkpt lat="41.46212317936039" lon="-1.098985292099745"><ele>447.5</ele><time>2026-05-03T18:05:27.001Z</time></trkpt><trkpt lat="41.46218667612238" lon="-1.0988457764627146"><ele>447.25</ele><time>2026-05-03T18:05:28.001Z</time></trkpt><trkpt lat="41.46224602136843" lon="-1.0987071426284258"><ele>447.0</ele><time>2026-05-03T18:05:29.001Z</time></trkpt><trkpt lat="41.46230289457703" lon="-1.098566287092285"><ele>447.0</ele><time>2026-05-03T18:05:30.001Z</time></trkpt><trkpt lat="41.46236459901993" lon="-1.098429350522702"><ele>447.0</ele><time>2026-05-03T18:05:31.001Z</time></trkpt><trkpt lat="41.462422558690065" lon="-1.0982905387424784"><ele>447.0</ele><time>2026-05-03T18:05:32.001Z</time></trkpt><trkpt lat="41.46248007395185" lon="-1.0981514214348866"><ele>447.0</ele><time>2026-05-03T18:05:33.001Z</time></trkpt><trkpt lat="41.46254046382759" lon="-1.0980140835741397"><ele>446.0</ele><time>2026-05-03T18:05:34.001Z</time></trkpt><trkpt lat="41.46259780418684" lon="-1.0978724594240885"><ele>445.0</ele><time>2026-05-03T18:05:35.001Z</time></trkpt><trkpt lat="41.462656909826016" lon="-1.0977331751664308"><ele>444.0</ele><time>2026-05-03T18:05:36.001Z</time></trkpt><trkpt lat="41.46271595177389" lon="-1.097594214224713"><ele>443.0</ele><time>2026-05-03T18:05:37.001Z</time></trkpt><trkpt lat="41.46277381536305" lon="-1.0974549364098747"><ele>443.75</ele><time>2026-05-03T18:05:38Z</time></trkpt><trkpt lat="41.462833444510835" lon="-1.0973142870838157"><ele>444.5</ele><time>2026-05-03T18:05:39Z</time></trkpt><trkpt lat="41.462893829067355" lon="-1.0971776198045688"><ele>445.25</ele><time>2026-05-03T18:05:40Z</time></trkpt><trkpt lat="41.46295288032071" lon="-1.0970391629903316"><ele>446.0</ele><time>2026-05-03T18:05:41Z</time></trkpt><trkpt lat="41.46301421167744" lon="-1.0969033367976702"><ele>446.25</ele><time>2026-05-03T18:05:42Z</time></trkpt><trkpt lat="41.46307306500793" lon="-1.0967632896005175"><ele>446.5</ele><time>2026-05-03T18:05:43Z</time></trkpt><trkpt lat="41.463129735554816" lon="-1.0966203198387932"><ele>446.75</ele><time>2026-05-03T18:05:44Z</time></trkpt><trkpt lat="41.46318803935368" lon="-1.0964844484951115"><ele>447.0</ele><time>2026-05-03T18:05:45Z</time></trkpt><trkpt lat="41.4632470834058" lon="-1.0963451313309673"><ele>447.0</ele><time>2026-05-03T18:05:46Z</time></trkpt><trkpt lat="41.46330742076593" lon="-1.0962046659429787"><ele>447.0</ele><time>2026-05-03T18:05:47Z</time></trkpt><trkpt lat="41.463367053500065" lon="-1.096064087771533"><ele>447.0</ele><time>2026-05-03T18:05:48Z</time></trkpt><trkpt lat="41.46342865318489" lon="-1.095927162806016"><ele>447.0</ele><time>2026-05-03T18:05:49Z</time></trkpt><trkpt lat="41.46348807112749" lon="-1.095790524307593"><ele>446.25</ele><time>2026-05-03T18:05:50Z</time></trkpt><trkpt lat="41.46354690232577" lon="-1.0956554561619558"><ele>445.5</ele><time>2026-05-03T18:05:51Z</time></trkpt><trkpt lat="41.463606957967926" lon="-1.0955185441494424"><ele>444.75</ele><time>2026-05-03T18:05:52Z</time></trkpt><trkpt lat="41.46366737416247" lon="-1.0953804434233156"><ele>444.0</ele><time>2026-05-03T18:05:53Z</time></trkpt><trkpt lat="41.463727390978526" lon="-1.0952434404707931"><ele>444.0</ele><time>2026-05-03T18:05:54Z</time></trkpt><trkpt lat="41.463785710410974" lon="-1.095102875222497"><ele>444.0</ele><time>2026-05-03T18:05:55Z</time></trkpt><trkpt lat="41.46384595627573" lon="-1.0949658768111556"><ele>444.0</ele><time>2026-05-03T18:05:56Z</time></trkpt><trkpt lat="41.463906787572675" lon="-1.0948292626078155"><ele>444.0</ele><time>2026-05-03T18:05:57Z</time></trkpt><trkpt lat="41.46396467050965" lon="-1.0946899835830286"><ele>444.0</ele><time>2026-05-03T18:05:58Z</time></trkpt><trkpt lat="41.464022099537544" lon="-1.0945508425591541"><ele>444.0</ele><time>2026-05-03T18:05:59Z</time></trkpt><trkpt lat="41.464081109985266" lon="-1.0944143073890995"><ele>444.0</ele><time>2026-05-03T18:06:00Z</time></trkpt><trkpt lat="41.464141031771945" lon="-1.0942783490636034"><ele>444.0</ele><time>2026-05-03T18:06:01Z</time></trkpt><trkpt lat="41.464200248204826" lon="-1.0941403728051275"><ele>443.0</ele><time>2026-05-03T18:06:02Z</time></trkpt><trkpt lat="41.46425992412107" lon="-1.0940025506589028"><ele>442.0</ele><time>2026-05-03T18:06:03Z</time></trkpt><trkpt lat="41.464318240415025" lon="-1.093865627044477"><ele>441.0</ele><time>2026-05-03T18:06:04Z</time></trkpt><trkpt lat="41.464376754661444" lon="-1.093727435943057"><ele>440.0</ele><time>2026-05-03T18:06:05Z</time></trkpt><trkpt lat="41.46443837596373" lon="-1.0935888952510422"><ele>440.0</ele><time>2026-05-03T18:06:06Z</time></trkpt><trkpt lat="41.46449878209263" lon="-1.093452190431347"><ele>440.0</ele><time>2026-05-03T18:06:07Z</time></trkpt><trkpt lat="41.46455643865908" lon="-1.093313922085224"><ele>440.0</ele><time>2026-05-03T18:06:08Z</time></trkpt><trkpt lat="41.46461581259963" lon="-1.093174455123606"><ele>440.0</ele><time>2026-05-03T18:06:09Z</time></trkpt><trkpt lat="41.46467663809924" lon="-1.0930352332051387"><ele>439.25</ele><time>2026-05-03T18:06:10Z</time></trkpt><trkpt lat="41.46473596737876" lon="-1.09289456963028"><ele>438.5</ele><time>2026-05-03T18:06:11Z</time></trkpt><trkpt lat="41.464795935808056" lon="-1.0927593457815663"><ele>437.75</ele><time>2026-05-03T18:06:12Z</time></trkpt><trkpt lat="41.46485535180842" lon="-1.0926261879170445"><ele>437.0</ele><time>2026-05-03T18:06:13Z</time></trkpt><trkpt lat="41.464916389581575" lon="-1.0924946473738075"><ele>437.0</ele><time>2026-05-03T18:06:14Z</time></trkpt><trkpt lat="41.46498082988938" lon="-1.0923612328562309"><ele>437.0</ele><time>2026-05-03T18:06:15Z</time></trkpt><trkpt lat="41.46503583001701" lon="-1.0922260493701288"><ele>437.0</ele><time>2026-05-03T18:06:16Z</time></trkpt><trkpt lat="41.46509384084032" lon="-1.092091773605586"><ele>437.0</ele><time>2026-05-03T18:06:17Z</time></trkpt><trkpt lat="41.46515282847966" lon="-1.091954136601084"><ele>437.0</ele><time>2026-05-03T18:06:18Z</time></trkpt><trkpt lat="41.465215203592365" lon="-1.091817267647947"><ele>437.0</ele><time>2026-05-03T18:06:19Z</time></trkpt><trkpt lat="41.465287105559966" lon="-1.0916889584952316"><ele>437.0</ele><time>2026-05-03T18:06:20Z</time></trkpt><trkpt lat="41.46535841638075" lon="-1.0915616906261798"><ele>437.0</ele><time>2026-05-03T18:06:21Z</time></trkpt><trkpt lat="41.46543157984622" lon="-1.0914366452891067"><ele>436.0</ele><time>2026-05-03T18:06:22Z</time></trkpt><trkpt lat="41.46550563922766" lon="-1.091308891113246"><ele>435.0</ele><time>2026-05-03T18:06:23Z</time></trkpt><trkpt lat="41.465586232881144" lon="-1.091188565435593"><ele>434.0</ele><time>2026-05-03T18:06:24Z</time></trkpt><trkpt lat="41.4656714100627" lon="-1.0910745607318482"><ele>433.0</ele><time>2026-05-03T18:06:25Z</time></trkpt><trkpt lat="41.46575657056016" lon="-1.0909606948927244"><ele>433.0</ele><time>2026-05-03T18:06:26Z</time></trkpt><trkpt lat="41.46584075639699" lon="-1.090843672924238"><ele>433.0</ele><time>2026-05-03T18:06:27Z</time></trkpt><trkpt lat="41.4659272576095" lon="-1.0907309041582578"><ele>433.0</ele><time>2026-05-03T18:06:28Z</time></trkpt><trkpt lat="41.466018542287095" lon="-1.090625870063661"><ele>433.0</ele><time>2026-05-03T18:06:29Z</time></trkpt><trkpt lat="41.46611243525488" lon="-1.090521499019564"><ele>433.0</ele><time>2026-05-03T18:06:30Z</time></trkpt><trkpt lat="41.46620514561776" lon="-1.0904153214070655"><ele>433.0</ele><time>2026-05-03T18:06:31Z</time></trkpt><trkpt lat="41.46629648324276" lon="-1.0903073823212077"><ele>433.0</ele><time>2026-05-03T18:06:32Z</time></trkpt><trkpt lat="41.466390901016574" lon="-1.090205964351868"><ele>433.0</ele><time>2026-05-03T18:06:33Z</time></trkpt><trkpt lat="41.46648780062028" lon="-1.0901055983911825"><ele>433.0</ele><time>2026-05-03T18:06:34Z</time></trkpt><trkpt lat="41.46658302184136" lon="-1.0900041540554148"><ele>433.0</ele><time>2026-05-03T18:06:35Z</time></trkpt><trkpt lat="41.466676150547" lon="-1.089903348288249"><ele>433.0</ele><time>2026-05-03T18:06:36Z</time></trkpt><trkpt lat="41.46676911232103" lon="-1.0898030573117692"><ele>433.0</ele><time>2026-05-03T18:06:37Z</time></trkpt><trkpt lat="41.4668625511693" lon="-1.0897009985686947"><ele>432.5</ele><time>2026-05-03T18:06:38Z</time></trkpt><trkpt lat="41.46695669760535" lon="-1.0896017835623015"><ele>432.0</ele><time>2026-05-03T18:06:39Z</time></trkpt><trkpt lat="41.46705002208381" lon="-1.089502398001679"><ele>431.5</ele><time>2026-05-03T18:06:40Z</time></trkpt><trkpt lat="41.46714147610743" lon="-1.0894009323044775"><ele>431.0</ele><time>2026-05-03T18:06:41Z</time></trkpt><trkpt lat="41.46723342663503" lon="-1.0893011126563337"><ele>430.5</ele><time>2026-05-03T18:06:42Z</time></trkpt><trkpt lat="41.46732472686996" lon="-1.089202406568625"><ele>430.0</ele><time>2026-05-03T18:06:43Z</time></trkpt><trkpt lat="41.467416750766624" lon="-1.0891037971317696"><ele>429.5</ele><time>2026-05-03T18:06:44Z</time></trkpt><trkpt lat="41.46750916478031" lon="-1.0890065398648334"><ele>429.0</ele><time>2026-05-03T18:06:45Z</time></trkpt><trkpt lat="41.46760099746925" lon="-1.0889092708047834"><ele>429.0</ele><time>2026-05-03T18:06:46Z</time></trkpt><trkpt lat="41.467689679040404" lon="-1.0888096638377336"><ele>429.0</ele><time>2026-05-03T18:06:47Z</time></trkpt><trkpt lat="41.46777938453996" lon="-1.0887111638604459"><ele>429.0</ele><time>2026-05-03T18:06:48Z</time></trkpt><trkpt lat="41.46786812221814" lon="-1.0886113321087272"><ele>429.0</ele><time>2026-05-03T18:06:49Z</time></trkpt><trkpt lat="41.467958044315516" lon="-1.0885151938481066"><ele>429.25</ele><time>2026-05-03T18:06:50Z</time></trkpt><trkpt lat="41.46804598299269" lon="-1.0884159674246348"><ele>429.5</ele><time>2026-05-03T18:06:51Z</time></trkpt><trkpt lat="41.46813643511678" lon="-1.088317680689658"><ele>429.75</ele><time>2026-05-03T18:06:52Z</time></trkpt><trkpt lat="41.46822841920185" lon="-1.0882209005219807"><ele>430.0</ele><time>2026-05-03T18:06:53Z</time></trkpt><trkpt lat="41.46832059414196" lon="-1.0881220983815492"><ele>429.5</ele><time>2026-05-03T18:06:54Z</time></trkpt><trkpt lat="41.46841208572918" lon="-1.0880226243985534"><ele>429.0</ele><time>2026-05-03T18:06:55Z</time></trkpt><trkpt lat="41.468503313496505" lon="-1.087920951916898"><ele>428.5</ele><time>2026-05-03T18:06:56Z</time></trkpt><trkpt lat="41.46859724648791" lon="-1.087822306744859"><ele>428.0</ele><time>2026-05-03T18:06:57Z</time></trkpt><trkpt lat="41.468688216050694" lon="-1.0877193189263452"><ele>428.25</ele><time>2026-05-03T18:06:58Z</time></trkpt><trkpt lat="41.468781508448785" lon="-1.0876163477155558"><ele>428.5</ele><time>2026-05-03T18:06:59Z</time></trkpt><trkpt lat="41.46887269971213" lon="-1.0875147007554442"><ele>428.75</ele><time>2026-05-03T18:07:00Z</time></trkpt><trkpt lat="41.46896786876139" lon="-1.0874165646043208"><ele>429.0</ele><time>2026-05-03T18:07:01.001Z</time></trkpt><trkpt lat="41.46906228398782" lon="-1.0873181330953394"><ele>428.25</ele><time>2026-05-03T18:07:02.001Z</time></trkpt><trkpt lat="41.469154206580036" lon="-1.087216426566011"><ele>427.5</ele><time>2026-05-03T18:07:03.001Z</time></trkpt><trkpt lat="41.46924838195779" lon="-1.08711821442961"><ele>426.75</ele><time>2026-05-03T18:07:04.001Z</time></trkpt><trkpt lat="41.46934312337002" lon="-1.0870165959455327"><ele>426.0</ele><time>2026-05-03T18:07:05.001Z</time></trkpt><trkpt lat="41.46943742371152" lon="-1.0869126136619078"><ele>426.0</ele><time>2026-05-03T18:07:06.001Z</time></trkpt><trkpt lat="41.4695313786864" lon="-1.0868120463544428"><ele>426.0</ele><time>2026-05-03T18:07:07.001Z</time></trkpt><trkpt lat="41.469625273456856" lon="-1.0867121823991996"><ele>426.0</ele><time>2026-05-03T18:07:08.001Z</time></trkpt><trkpt lat="41.46971789939988" lon="-1.086610246517157"><ele>426.0</ele><time>2026-05-03T18:07:09.001Z</time></trkpt><trkpt lat="41.46980991577037" lon="-1.0865100096830367"><ele>424.75</ele><time>2026-05-03T18:07:10.001Z</time></trkpt><trkpt lat="41.46990312482855" lon="-1.0864095159995477"><ele>423.5</ele><time>2026-05-03T18:07:11.001Z</time></trkpt><trkpt lat="41.46999611488157" lon="-1.086310947308074"><ele>422.25</ele><time>2026-05-03T18:07:12.001Z</time></trkpt><trkpt lat="41.470087221834405" lon="-1.086210981516262"><ele>421.0</ele><time>2026-05-03T18:07:13.001Z</time></trkpt><trkpt lat="41.47017878767743" lon="-1.0861122350583436"><ele>421.0</ele><time>2026-05-03T18:07:14.001Z</time></trkpt><trkpt lat="41.47027244182269" lon="-1.0860122212498076"><ele>421.0</ele><time>2026-05-03T18:07:15.001Z</time></trkpt><trkpt lat="41.47036213924159" lon="-1.0859113307652435"><ele>421.0</ele><time>2026-05-03T18:07:16.001Z</time></trkpt><trkpt lat="41.47045143119611" lon="-1.085809191774917"><ele>421.0</ele><time>2026-05-03T18:07:17.001Z</time></trkpt><trkpt lat="41.47053801144717" lon="-1.0857050534887698"><ele>420.75</ele><time>2026-05-03T18:07:18.001Z</time></trkpt><trkpt lat="41.47063298830369" lon="-1.0856099366818621"><ele>420.5</ele><time>2026-05-03T18:07:19.001Z</time></trkpt><trkpt lat="41.470721034775586" lon="-1.0855066356637528"><ele>420.25</ele><time>2026-05-03T18:07:20.001Z</time></trkpt><trkpt lat="41.47080868390482" lon="-1.0854041139961315"><ele>420.0</ele><time>2026-05-03T18:07:21.001Z</time></trkpt><trkpt lat="41.47089770627873" lon="-1.0853027667426483"><ele>420.0</ele><time>2026-05-03T18:07:22.001Z</time></trkpt><trkpt lat="41.470986752211466" lon="-1.0852000013189156"><ele>420.0</ele><time>2026-05-03T18:07:23.001Z</time></trkpt><trkpt lat="41.4710774222407" lon="-1.0850970500926782"><ele>420.0</ele><time>2026-05-03T18:07:24.001Z</time></trkpt><trkpt lat="41.47116602159235" lon="-1.0849933035527433"><ele>420.0</ele><time>2026-05-03T18:07:25.001Z</time></trkpt><trkpt lat="41.47125677706988" lon="-1.0848907737689086"><ele>421.25</ele><time>2026-05-03T18:07:26.001Z</time></trkpt><trkpt lat="41.47134547152396" lon="-1.0847882920533998"><ele>422.5</ele><time>2026-05-03T18:07:27.001Z</time></trkpt><trkpt lat="41.47143422302008" lon="-1.0846854915365514"><ele>423.75</ele><time>2026-05-03T18:07:28.001Z</time></trkpt><trkpt lat="41.471521390428954" lon="-1.0845858948858813"><ele>425.0</ele><time>2026-05-03T18:07:29.001Z</time></trkpt><trkpt lat="41.471610055449055" lon="-1.0844813745653132"><ele>425.0</ele><time>2026-05-03T18:07:30.001Z</time></trkpt><trkpt lat="41.47169941142797" lon="-1.0843832944136753"><ele>425.0</ele><time>2026-05-03T18:07:31.001Z</time></trkpt><trkpt lat="41.47179061960431" lon="-1.0842862544864542"><ele>425.0</ele><time>2026-05-03T18:07:32.001Z</time></trkpt><trkpt lat="41.47188078818606" lon="-1.0841850805742586"><ele>425.0</ele><time>2026-05-03T18:07:33.001Z</time></trkpt><trkpt lat="41.47197139353785" lon="-1.0840842595271565"><ele>423.5</ele><time>2026-05-03T18:07:34.001Z</time></trkpt><trkpt lat="41.47206384438598" lon="-1.0839854936419353"><ele>422.0</ele><time>2026-05-03T18:07:35.001Z</time></trkpt><trkpt lat="41.472159045472075" lon="-1.0838856396243532"><ele>420.5</ele><time>2026-05-03T18:07:36.001Z</time></trkpt><trkpt lat="41.47225243782078" lon="-1.0837860515182702"><ele>419.0</ele><time>2026-05-03T18:07:37.001Z</time></trkpt><trkpt lat="41.47234687345628" lon="-1.0836927040422237"><ele>419.0</ele><time>2026-05-03T18:07:38.001Z</time></trkpt><trkpt lat="41.472443479341194" lon="-1.0836013620305431"><ele>419.0</ele><time>2026-05-03T18:07:39.001Z</time></trkpt><trkpt lat="41.47254066339662" lon="-1.0835136068092033"><ele>419.0</ele><time>2026-05-03T18:07:40.001Z</time></trkpt><trkpt lat="41.47263644104012" lon="-1.0834226754114717"><ele>419.0</ele><time>2026-05-03T18:07:41.001Z</time></trkpt><trkpt lat="41.472735358436985" lon="-1.083331612478833"><ele>417.5</ele><time>2026-05-03T18:07:42.001Z</time></trkpt><trkpt lat="41.47283357003292" lon="-1.0832400577380554"><ele>416.0</ele><time>2026-05-03T18:07:43.001Z</time></trkpt><trkpt lat="41.472932517601485" lon="-1.0831474516555617"><ele>414.5</ele><time>2026-05-03T18:07:44Z</time></trkpt><trkpt lat="41.47303270063892" lon="-1.0830591730409393"><ele>413.0</ele><time>2026-05-03T18:07:45Z</time></trkpt><trkpt lat="41.47313274078942" lon="-1.0829736875843685"><ele>413.0</ele><time>2026-05-03T18:07:46Z</time></trkpt><trkpt lat="41.47323167691371" lon="-1.0828901148417827"><ele>413.0</ele><time>2026-05-03T18:07:47Z</time></trkpt><trkpt lat="41.47333254611865" lon="-1.0828031514134286"><ele>413.0</ele><time>2026-05-03T18:07:48Z</time></trkpt><trkpt lat="41.47343385837014" lon="-1.082717489316232"><ele>413.0</ele><time>2026-05-03T18:07:49Z</time></trkpt><trkpt lat="41.47353390132945" lon="-1.0826329465581128"><ele>413.0</ele><time>2026-05-03T18:07:50Z</time></trkpt><trkpt lat="41.47363668965216" lon="-1.0825497750365594"><ele>413.0</ele><time>2026-05-03T18:07:51Z</time></trkpt><trkpt lat="41.47373880554548" lon="-1.0824663421173693"><ele>413.0</ele><time>2026-05-03T18:07:52Z</time></trkpt><trkpt lat="41.47384065132311" lon="-1.0823844704965644"><ele>413.0</ele><time>2026-05-03T18:07:53Z</time></trkpt><trkpt lat="41.47393854770971" lon="-1.0822988549734698"><ele>412.75</ele><time>2026-05-03T18:07:54Z</time></trkpt><trkpt lat="41.4740372993054" lon="-1.0822124232852424"><ele>412.5</ele><time>2026-05-03T18:07:55Z</time></trkpt><trkpt lat="41.474137638468726" lon="-1.0821266959993987"><ele>412.25</ele><time>2026-05-03T18:07:56Z</time></trkpt><trkpt lat="41.47423812769696" lon="-1.0820464874122069"><ele>412.0</ele><time>2026-05-03T18:07:57Z</time></trkpt><trkpt lat="41.47433848006069" lon="-1.081961495334843"><ele>412.0</ele><time>2026-05-03T18:07:58Z</time></trkpt><trkpt lat="41.4744414308856" lon="-1.0818746438905338"><ele>412.0</ele><time>2026-05-03T18:07:59Z</time></trkpt><trkpt lat="41.47454413690192" lon="-1.0817879724865966"><ele>412.0</ele><time>2026-05-03T18:08:00Z</time></trkpt><trkpt lat="41.47464542955489" lon="-1.081702280126229"><ele>412.0</ele><time>2026-05-03T18:08:01Z</time></trkpt><trkpt lat="41.4747469177512" lon="-1.081617377445598"><ele>410.5</ele><time>2026-05-03T18:08:02Z</time></trkpt><trkpt lat="41.47484662666645" lon="-1.081532465156455"><ele>409.0</ele><time>2026-05-03T18:08:03Z</time></trkpt><trkpt lat="41.47494781713866" lon="-1.0814469814560432"><ele>407.5</ele><time>2026-05-03T18:08:04Z</time></trkpt><trkpt lat="41.47505066359851" lon="-1.0813610120482908"><ele>406.0</ele><time>2026-05-03T18:08:05Z</time></trkpt><trkpt lat="41.4751519827416" lon="-1.0812753935130468"><ele>406.0</ele><time>2026-05-03T18:08:06Z</time></trkpt><trkpt lat="41.47525255198478" lon="-1.0811901497744294"><ele>406.0</ele><time>2026-05-03T18:08:07Z</time></trkpt><trkpt lat="41.47535304540595" lon="-1.081104038149032"><ele>406.0</ele><time>2026-05-03T18:08:08Z</time></trkpt><trkpt lat="41.47545400665975" lon="-1.0810162835968318"><ele>406.0</ele><time>2026-05-03T18:08:09Z</time></trkpt><trkpt lat="41.475555273819545" lon="-1.0809299688950413"><ele>406.25</ele><time>2026-05-03T18:08:10Z</time></trkpt><trkpt lat="41.47565718799952" lon="-1.0808445431600917"><ele>406.5</ele><time>2026-05-03T18:08:11Z</time></trkpt><trkpt lat="41.47575665416714" lon="-1.0807534755551915"><ele>406.75</ele><time>2026-05-03T18:08:12Z</time></trkpt><trkpt lat="41.47586035134551" lon="-1.080667491234454"><ele>407.0</ele><time>2026-05-03T18:08:13Z</time></trkpt><trkpt lat="41.475959261388" lon="-1.0805808641286945"><ele>406.5</ele><time>2026-05-03T18:08:14Z</time></trkpt><trkpt lat="41.47606190743799" lon="-1.0804959379723338"><ele>406.0</ele><time>2026-05-03T18:08:15Z</time></trkpt><trkpt lat="41.476163056662074" lon="-1.080410763533236"><ele>405.5</ele><time>2026-05-03T18:08:16Z</time></trkpt><trkpt lat="41.47626373917441" lon="-1.0803232837998789"><ele>405.0</ele><time>2026-05-03T18:08:17Z</time></trkpt><trkpt lat="41.47636265612917" lon="-1.0802352346418391"><ele>405.0</ele><time>2026-05-03T18:08:18Z</time></trkpt><trkpt lat="41.476465332168786" lon="-1.0801509432237757"><ele>405.0</ele><time>2026-05-03T18:08:19Z</time></trkpt><trkpt lat="41.476568453721214" lon="-1.0800721633179935"><ele>405.0</ele><time>2026-05-03T18:08:20Z</time></trkpt><trkpt lat="41.47666942329229" lon="-1.0799848255020132"><ele>405.0</ele><time>2026-05-03T18:08:21Z</time></trkpt><trkpt lat="41.476769363855816" lon="-1.0799018643433835"><ele>405.0</ele><time>2026-05-03T18:08:22Z</time></trkpt><trkpt lat="41.476872190369996" lon="-1.0798149305552998"><ele>405.0</ele><time>2026-05-03T18:08:23Z</time></trkpt><trkpt lat="41.47697730175436" lon="-1.079733548241731"><ele>405.0</ele><time>2026-05-03T18:08:24Z</time></trkpt><trkpt lat="41.47708147397904" lon="-1.079660849731688"><ele>405.0</ele><time>2026-05-03T18:08:25Z</time></trkpt><trkpt lat="41.47718467466781" lon="-1.079592113725759"><ele>404.75</ele><time>2026-05-03T18:08:26Z</time></trkpt><trkpt lat="41.477290677970636" lon="-1.0795159738680449"><ele>404.5</ele><time>2026-05-03T18:08:27Z</time></trkpt><trkpt lat="41.47739897963806" lon="-1.079443783854509"><ele>404.25</ele><time>2026-05-03T18:08:28Z</time></trkpt><trkpt lat="41.47750712160975" lon="-1.0793763253326936"><ele>404.0</ele><time>2026-05-03T18:08:29Z</time></trkpt><trkpt lat="41.47761482886316" lon="-1.0793128400661234"><ele>404.0</ele><time>2026-05-03T18:08:30Z</time></trkpt><trkpt lat="41.47772255212825" lon="-1.0792518422293136"><ele>404.0</ele><time>2026-05-03T18:08:31Z</time></trkpt><trkpt lat="41.47783553431866" lon="-1.0791906311883628"><ele>404.0</ele><time>2026-05-03T18:08:32Z</time></trkpt><trkpt lat="41.47794692407427" lon="-1.0791349796590464"><ele>404.0</ele><time>2026-05-03T18:08:33Z</time></trkpt><trkpt lat="41.4780563499746" lon="-1.0790826986342228"><ele>404.0</ele><time>2026-05-03T18:08:34Z</time></trkpt><trkpt lat="41.47817789994305" lon="-1.0790293684706767"><ele>404.0</ele><time>2026-05-03T18:08:35Z</time></trkpt><trkpt lat="41.47829091293423" lon="-1.078982569759631"><ele>404.0</ele><time>2026-05-03T18:08:36Z</time></trkpt><trkpt lat="41.4784045202668" lon="-1.078939350835949"><ele>404.0</ele><time>2026-05-03T18:08:37Z</time></trkpt><trkpt lat="41.47852041829625" lon="-1.078896180959775"><ele>404.0</ele><time>2026-05-03T18:08:38Z</time></trkpt><trkpt lat="41.478636074509055" lon="-1.0788552658057002"><ele>404.0</ele><time>2026-05-03T18:08:39Z</time></trkpt><trkpt lat="41.4787537948812" lon="-1.0788176033423655"><ele>404.0</ele><time>2026-05-03T18:08:40Z</time></trkpt><trkpt lat="41.47887076242589" lon="-1.0787855175218146"><ele>404.0</ele><time>2026-05-03T18:08:41Z</time></trkpt><trkpt lat="41.478986947764575" lon="-1.0787580092491031"><ele>403.0</ele><time>2026-05-03T18:08:42Z</time></trkpt><trkpt lat="41.47910220818098" lon="-1.0787306359238513"><ele>402.0</ele><time>2026-05-03T18:08:43Z</time></trkpt><trkpt lat="41.47921916623635" lon="-1.0787042376943077"><ele>401.0</ele><time>2026-05-03T18:08:44Z</time></trkpt><trkpt lat="41.479336268315755" lon="-1.0786799879437605"><ele>400.0</ele><time>2026-05-03T18:08:45Z</time></trkpt><trkpt lat="41.47945472170999" lon="-1.0786629813636655"><ele>400.0</ele><time>2026-05-03T18:08:46Z</time></trkpt><trkpt lat="41.47957390127942" lon="-1.07864674334266"><ele>400.0</ele><time>2026-05-03T18:08:47Z</time></trkpt><trkpt lat="41.47968883734094" lon="-1.0786347365461249"><ele>400.0</ele><time>2026-05-03T18:08:48Z</time></trkpt><trkpt lat="41.47980672366214" lon="-1.0786256890251793"><ele>400.0</ele><time>2026-05-03T18:08:49Z</time></trkpt><trkpt lat="41.47992562857848" lon="-1.0786175504812798"><ele>400.0</ele><time>2026-05-03T18:08:50Z</time></trkpt><trkpt lat="41.480041575592445" lon="-1.0786094641673876"><ele>400.0</ele><time>2026-05-03T18:08:51Z</time></trkpt><trkpt lat="41.48015723511012" lon="-1.0786058020469538"><ele>400.0</ele><time>2026-05-03T18:08:52.001Z</time></trkpt><trkpt lat="41.48027360420782" lon="-1.0785977140722005"><ele>400.0</ele><time>2026-05-03T18:08:53.001Z</time></trkpt><trkpt lat="41.480391083355116" lon="-1.078592295503794"><ele>400.25</ele><time>2026-05-03T18:08:54.001Z</time></trkpt><trkpt lat="41.480506612040855" lon="-1.0785864303396755"><ele>400.5</ele><time>2026-05-03T18:08:55.001Z</time></trkpt><trkpt lat="41.48062656087567" lon="-1.0785838938446253"><ele>400.75</ele><time>2026-05-03T18:08:56.001Z</time></trkpt><trkpt lat="41.480743538333826" lon="-1.0785818388110666"><ele>401.0</ele><time>2026-05-03T18:08:57.001Z</time></trkpt><trkpt lat="41.48085769563413" lon="-1.0785758377556374"><ele>401.0</ele><time>2026-05-03T18:08:58.001Z</time></trkpt><trkpt lat="41.48097480309355" lon="-1.0785664792370746"><ele>401.0</ele><time>2026-05-03T18:08:59.001Z</time></trkpt><trkpt lat="41.48109190456153" lon="-1.0785551749882336"><ele>401.0</ele><time>2026-05-03T18:09:00.001Z</time></trkpt><trkpt lat="41.481211050917345" lon="-1.0785431768915674"><ele>401.0</ele><time>2026-05-03T18:09:01.001Z</time></trkpt><trkpt lat="41.48132587591788" lon="-1.0785274759664105"><ele>400.75</ele><time>2026-05-03T18:09:02.001Z</time></trkpt><trkpt lat="41.48144122965668" lon="-1.0785094350859445"><ele>400.5</ele><time>2026-05-03T18:09:03.001Z</time></trkpt><trkpt lat="41.48155808651771" lon="-1.0784906256324691"><ele>400.25</ele><time>2026-05-03T18:09:04.001Z</time></trkpt><trkpt lat="41.48167060740141" lon="-1.078466688815006"><ele>400.0</ele><time>2026-05-03T18:09:05.001Z</time></trkpt><trkpt lat="41.48178661795832" lon="-1.0784395751426965"><ele>400.0</ele><time>2026-05-03T18:09:06.001Z</time></trkpt><trkpt lat="41.481899170900675" lon="-1.078410510616901"><ele>400.0</ele><time>2026-05-03T18:09:07.001Z</time></trkpt><trkpt lat="41.482010420995735" lon="-1.0783773475271468"><ele>400.0</ele><time>2026-05-03T18:09:08.001Z</time></trkpt><trkpt lat="41.48212399535703" lon="-1.078344020677767"><ele>400.0</ele><time>2026-05-03T18:09:09.001Z</time></trkpt><trkpt lat="41.48223342849269" lon="-1.0783029188930255"><ele>399.75</ele><time>2026-05-03T18:09:10.001Z</time></trkpt><trkpt lat="41.482346507513995" lon="-1.0782650318815519"><ele>399.5</ele><time>2026-05-03T18:09:11.001Z</time></trkpt><trkpt lat="41.48245580219402" lon="-1.0782211318889756"><ele>399.25</ele><time>2026-05-03T18:09:12.001Z</time></trkpt><trkpt lat="41.48256345737298" lon="-1.078175765539762"><ele>399.0</ele><time>2026-05-03T18:09:13.001Z</time></trkpt><trkpt lat="41.48267293193407" lon="-1.0781280621578546"><ele>399.0</ele><time>2026-05-03T18:09:14.001Z</time></trkpt><trkpt lat="41.48278083900317" lon="-1.0780773943240234"><ele>399.0</ele><time>2026-05-03T18:09:15.001Z</time></trkpt><trkpt lat="41.48288768056894" lon="-1.078022224443818"><ele>399.0</ele><time>2026-05-03T18:09:16.001Z</time></trkpt><trkpt lat="41.4829953459601" lon="-1.0779650874304696"><ele>399.0</ele><time>2026-05-03T18:09:17.001Z</time></trkpt><trkpt lat="41.483101504613096" lon="-1.077908283540269"><ele>398.5</ele><time>2026-05-03T18:09:18.001Z</time></trkpt><trkpt lat="41.48320876686078" lon="-1.0778472701981687"><ele>398.0</ele><time>2026-05-03T18:09:19.001Z</time></trkpt><trkpt lat="41.48331145870619" lon="-1.0777845197404425"><ele>397.5</ele><time>2026-05-03T18:09:20.001Z</time></trkpt><trkpt lat="41.48341606341092" lon="-1.0777185459551148"><ele>397.0</ele><time>2026-05-03T18:09:21.001Z</time></trkpt><trkpt lat="41.48351944145522" lon="-1.0776485203248052"><ele>397.0</ele><time>2026-05-03T18:09:22.001Z</time></trkpt><trkpt lat="41.483621778569585" lon="-1.0775788462566465"><ele>397.0</ele><time>2026-05-03T18:09:23.001Z</time></trkpt><trkpt lat="41.483722402363064" lon="-1.0775071832871295"><ele>397.0</ele><time>2026-05-03T18:09:24.001Z</time></trkpt><trkpt lat="41.483824327109915" lon="-1.077437472160414"><ele>397.0</ele><time>2026-05-03T18:09:25.001Z</time></trkpt><trkpt lat="41.48392849935691" lon="-1.0773672592756722"><ele>397.25</ele><time>2026-05-03T18:09:26.001Z</time></trkpt><trkpt lat="41.48403153826917" lon="-1.0772967603553454"><ele>397.5</ele><time>2026-05-03T18:09:27.001Z</time></trkpt><trkpt lat="41.48413434031869" lon="-1.0772219630811677"><ele>397.75</ele><time>2026-05-03T18:09:28.001Z</time></trkpt><trkpt lat="41.48423712082457" lon="-1.0771523734892148"><ele>398.0</ele><time>2026-05-03T18:09:29.001Z</time></trkpt><trkpt lat="41.484338489950844" lon="-1.0770816739877096"><ele>398.0</ele><time>2026-05-03T18:09:30.001Z</time></trkpt><trkpt lat="41.48444228143808" lon="-1.0770090293447232"><ele>398.0</ele><time>2026-05-03T18:09:31.001Z</time></trkpt><trkpt lat="41.484547567017074" lon="-1.0769367196001145"><ele>398.0</ele><time>2026-05-03T18:09:32.001Z</time></trkpt><trkpt lat="41.48465220257581" lon="-1.0768643869630554"><ele>398.0</ele><time>2026-05-03T18:09:33.001Z</time></trkpt><trkpt lat="41.48475715152144" lon="-1.0767927070384182"><ele>398.25</ele><time>2026-05-03T18:09:34.001Z</time></trkpt><trkpt lat="41.48486536089447" lon="-1.0767195707077364"><ele>398.5</ele><time>2026-05-03T18:09:35.001Z</time></trkpt><trkpt lat="41.48496647548175" lon="-1.076648376811304"><ele>398.75</ele><time>2026-05-03T18:09:36.001Z</time></trkpt><trkpt lat="41.48507194690671" lon="-1.0765773086299122"><ele>399.0</ele><time>2026-05-03T18:09:37.001Z</time></trkpt><trkpt lat="41.485174686985815" lon="-1.0765060451376158"><ele>399.0</ele><time>2026-05-03T18:09:38.001Z</time></trkpt><trkpt lat="41.485281351782255" lon="-1.076434093017954"><ele>399.0</ele><time>2026-05-03T18:09:39.001Z</time></trkpt><trkpt lat="41.4853826941465" lon="-1.0763594340731375"><ele>399.0</ele><time>2026-05-03T18:09:40.001Z</time></trkpt><trkpt lat="41.4854884856758" lon="-1.076287642907764"><ele>399.0</ele><time>2026-05-03T18:09:41.001Z</time></trkpt><trkpt lat="41.4855907722193" lon="-1.0762150322058286"><ele>398.25</ele><time>2026-05-03T18:09:42.001Z</time></trkpt><trkpt lat="41.48569477329075" lon="-1.076144702334798"><ele>397.5</ele><time>2026-05-03T18:09:43.001Z</time></trkpt><trkpt lat="41.48579600648831" lon="-1.07607063740972"><ele>396.75</ele><time>2026-05-03T18:09:44.001Z</time></trkpt><trkpt lat="41.485899761554116" lon="-1.0759977912315737"><ele>396.0</ele><time>2026-05-03T18:09:45.001Z</time></trkpt><trkpt lat="41.48600203247184" lon="-1.075928403474305"><ele>396.0</ele><time>2026-05-03T18:09:46.001Z</time></trkpt><trkpt lat="41.4861066222981" lon="-1.0758558574075674"><ele>396.0</ele><time>2026-05-03T18:09:47.001Z</time></trkpt><trkpt lat="41.48620902222461" lon="-1.0757824340366882"><ele>396.0</ele><time>2026-05-03T18:09:48.001Z</time></trkpt><trkpt lat="41.48631401042604" lon="-1.075710602469681"><ele>396.0</ele><time>2026-05-03T18:09:49.001Z</time></trkpt><trkpt lat="41.48641526672054" lon="-1.0756395987809464"><ele>396.25</ele><time>2026-05-03T18:09:50Z</time></trkpt><trkpt lat="41.486521095979164" lon="-1.0755681998847564"><ele>396.5</ele><time>2026-05-03T18:09:51Z</time></trkpt><trkpt lat="41.48662210932034" lon="-1.07549737035102"><ele>396.75</ele><time>2026-05-03T18:09:52Z</time></trkpt><trkpt lat="41.4867257501844" lon="-1.075426215826207"><ele>397.0</ele><time>2026-05-03T18:09:53Z</time></trkpt><trkpt lat="41.486831041402795" lon="-1.0753546363267814"><ele>397.0</ele><time>2026-05-03T18:09:54Z</time></trkpt><trkpt lat="41.48693569257521" lon="-1.0752807931693813"><ele>397.0</ele><time>2026-05-03T18:09:55Z</time></trkpt><trkpt lat="41.48703663495545" lon="-1.0752083068002654"><ele>397.0</ele><time>2026-05-03T18:09:56Z</time></trkpt><trkpt lat="41.48714038688227" lon="-1.0751375228576474"><ele>397.0</ele><time>2026-05-03T18:09:57Z</time></trkpt><trkpt lat="41.487247449849576" lon="-1.0750634033695328"><ele>397.5</ele><time>2026-05-03T18:09:58Z</time></trkpt><trkpt lat="41.48735076903019" lon="-1.0749925679012442"><ele>398.0</ele><time>2026-05-03T18:09:59Z</time></trkpt><trkpt lat="41.48745683895074" lon="-1.0749205039835723"><ele>398.5</ele><time>2026-05-03T18:10:00Z</time></trkpt><trkpt lat="41.48756112274865" lon="-1.0748475334375334"><ele>399.0</ele><time>2026-05-03T18:10:01Z</time></trkpt><trkpt lat="41.487666737113926" lon="-1.0747768162374158"><ele>398.25</ele><time>2026-05-03T18:10:02Z</time></trkpt><trkpt lat="41.487770945352494" lon="-1.0747042251768077"><ele>397.5</ele><time>2026-05-03T18:10:03Z</time></trkpt><trkpt lat="41.48787721272098" lon="-1.074630721701338"><ele>396.75</ele><time>2026-05-03T18:10:04Z</time></trkpt><trkpt lat="41.48798392893763" lon="-1.074558058574968"><ele>396.0</ele><time>2026-05-03T18:10:05Z</time></trkpt><trkpt lat="41.48808750567775" lon="-1.0744853819644584"><ele>396.0</ele><time>2026-05-03T18:10:06Z</time></trkpt><trkpt lat="41.48818963173145" lon="-1.0744118932075015"><ele>396.0</ele><time>2026-05-03T18:10:07Z</time></trkpt><trkpt lat="41.48829833677117" lon="-1.0743410792129362"><ele>396.0</ele><time>2026-05-03T18:10:08Z</time></trkpt><trkpt lat="41.48840125054945" lon="-1.0742672675691032"><ele>396.0</ele><time>2026-05-03T18:10:09Z</time></trkpt><trkpt lat="41.488503014858296" lon="-1.0741960806190343"><ele>396.0</ele><time>2026-05-03T18:10:10Z</time></trkpt><trkpt lat="41.48860588133334" lon="-1.0741229746127923"><ele>396.0</ele><time>2026-05-03T18:10:11Z</time></trkpt><trkpt lat="41.48870842278019" lon="-1.074042734809732"><ele>396.0</ele><time>2026-05-03T18:10:12Z</time></trkpt><trkpt lat="41.48880752647783" lon="-1.0739594876399623"><ele>396.0</ele><time>2026-05-03T18:10:13Z</time></trkpt><trkpt lat="41.48889740218763" lon="-1.0738721636203872"><ele>395.75</ele><time>2026-05-03T18:10:14Z</time></trkpt><trkpt lat="41.48899359583019" lon="-1.0737835479056144"><ele>395.5</ele><time>2026-05-03T18:10:15Z</time></trkpt><trkpt lat="41.489087577724504" lon="-1.0736927881033307"><ele>395.25</ele><time>2026-05-03T18:10:16Z</time></trkpt><trkpt lat="41.48918265510546" lon="-1.0736033033731915"><ele>395.0</ele><time>2026-05-03T18:10:17Z</time></trkpt><trkpt lat="41.48927763355956" lon="-1.0735113760944257"><ele>395.0</ele><time>2026-05-03T18:10:18Z</time></trkpt><trkpt lat="41.4893717269679" lon="-1.0734185849510336"><ele>395.0</ele><time>2026-05-03T18:10:19Z</time></trkpt><trkpt lat="41.489464871144015" lon="-1.0733235789038822"><ele>395.0</ele><time>2026-05-03T18:10:20Z</time></trkpt><trkpt lat="41.489557255055466" lon="-1.073225070450528"><ele>395.0</ele><time>2026-05-03T18:10:21Z</time></trkpt><trkpt lat="41.4896494532703" lon="-1.0731270482986197"><ele>394.75</ele><time>2026-05-03T18:10:22Z</time></trkpt><trkpt lat="41.48974213815568" lon="-1.0730280172014974"><ele>394.5</ele><time>2026-05-03T18:10:23Z</time></trkpt><trkpt lat="41.48983239736133" lon="-1.0729276788134867"><ele>394.25</ele><time>2026-05-03T18:10:24Z</time></trkpt><trkpt lat="41.48992184420657" lon="-1.0728249835764785"><ele>394.0</ele><time>2026-05-03T18:10:25Z</time></trkpt><trkpt lat="41.49001267084065" lon="-1.0727210115577785"><ele>394.0</ele><time>2026-05-03T18:10:26Z</time></trkpt><trkpt lat="41.490100171723824" lon="-1.0726169432161774"><ele>394.0</ele><time>2026-05-03T18:10:27Z</time></trkpt><trkpt lat="41.49018836002369" lon="-1.072510190493377"><ele>394.0</ele><time>2026-05-03T18:10:28Z</time></trkpt><trkpt lat="41.49027818152968" lon="-1.0724028713877463"><ele>394.0</ele><time>2026-05-03T18:10:29Z</time></trkpt><trkpt lat="41.49036390243894" lon="-1.0722953334385286"><ele>394.25</ele><time>2026-05-03T18:10:30Z</time></trkpt><trkpt lat="41.49045056960806" lon="-1.0721831406332525"><ele>394.5</ele><time>2026-05-03T18:10:31Z</time></trkpt><trkpt lat="41.49053642193391" lon="-1.0720684255895532"><ele>394.75</ele><time>2026-05-03T18:10:32Z</time></trkpt><trkpt lat="41.4906184587745" lon="-1.071955177429935"><ele>395.0</ele><time>2026-05-03T18:10:33Z</time></trkpt><trkpt lat="41.49069839922812" lon="-1.0718399873502822"><ele>395.0</ele><time>2026-05-03T18:10:34Z</time></trkpt><trkpt lat="41.490779305550326" lon="-1.0717241474646817"><ele>395.0</ele><time>2026-05-03T18:10:35Z</time></trkpt><trkpt lat="41.49085610687205" lon="-1.071608748143697"><ele>395.0</ele><time>2026-05-03T18:10:36Z</time></trkpt><trkpt lat="41.49094124036514" lon="-1.071492007512507"><ele>395.0</ele><time>2026-05-03T18:10:37Z</time></trkpt><trkpt lat="41.491019186163896" lon="-1.0713732084475445"><ele>395.5</ele><time>2026-05-03T18:10:38Z</time></trkpt><trkpt lat="41.49110114383375" lon="-1.0712585629305202"><ele>396.0</ele><time>2026-05-03T18:10:39Z</time></trkpt><trkpt lat="41.491180842938086" lon="-1.071142021188522"><ele>396.5</ele><time>2026-05-03T18:10:40Z</time></trkpt><trkpt lat="41.49126161926222" lon="-1.0710286002990606"><ele>397.0</ele><time>2026-05-03T18:10:41Z</time></trkpt><trkpt lat="41.49133899950485" lon="-1.0709144724222597"><ele>397.0</ele><time>2026-05-03T18:10:42Z</time></trkpt><trkpt lat="41.4914152107607" lon="-1.0707995474583532"><ele>397.0</ele><time>2026-05-03T18:10:43Z</time></trkpt><trkpt lat="41.49149497421798" lon="-1.0706881264908636"><ele>397.0</ele><time>2026-05-03T18:10:44Z</time></trkpt><trkpt lat="41.49157114150117" lon="-1.0705763651963285"><ele>397.0</ele><time>2026-05-03T18:10:45Z</time></trkpt><trkpt lat="41.491653336922944" lon="-1.0704617858637353"><ele>396.25</ele><time>2026-05-03T18:10:46Z</time></trkpt><trkpt lat="41.49173008008723" lon="-1.0703479157707174"><ele>395.5</ele><time>2026-05-03T18:10:47Z</time></trkpt><trkpt lat="41.49180863708127" lon="-1.0702349728811433"><ele>394.75</ele><time>2026-05-03T18:10:48Z</time></trkpt><trkpt lat="41.491892576505364" lon="-1.0701196777150375"><ele>394.0</ele><time>2026-05-03T18:10:49Z</time></trkpt><trkpt lat="41.49197292726422" lon="-1.07000368550325"><ele>394.0</ele><time>2026-05-03T18:10:50Z</time></trkpt><trkpt lat="41.49205225850886" lon="-1.069888099887374"><ele>394.0</ele><time>2026-05-03T18:10:51Z</time></trkpt><trkpt lat="41.49213373318326" lon="-1.0697691238591696"><ele>394.0</ele><time>2026-05-03T18:10:52Z</time></trkpt><trkpt lat="41.49221382811072" lon="-1.0696519877716275"><ele>394.0</ele><time>2026-05-03T18:10:53Z</time></trkpt><trkpt lat="41.492293368790385" lon="-1.069532319063364"><ele>394.0</ele><time>2026-05-03T18:10:54Z</time></trkpt><trkpt lat="41.49237287727204" lon="-1.0694165116556076"><ele>394.0</ele><time>2026-05-03T18:10:55Z</time></trkpt><trkpt lat="41.492456440097364" lon="-1.0692982088566325"><ele>394.0</ele><time>2026-05-03T18:10:56.001Z</time></trkpt><trkpt lat="41.49253874268479" lon="-1.0691820326146058"><ele>394.0</ele><time>2026-05-03T18:10:57.001Z</time></trkpt><trkpt lat="41.49261897513258" lon="-1.069066378677905"><ele>392.75</ele><time>2026-05-03T18:10:58.001Z</time></trkpt><trkpt lat="41.49270233427826" lon="-1.0689532693487962"><ele>391.5</ele><time>2026-05-03T18:10:59.001Z</time></trkpt><trkpt lat="41.492784359766176" lon="-1.0688357531085821"><ele>390.25</ele><time>2026-05-03T18:11:00.001Z</time></trkpt><trkpt lat="41.4928656247467" lon="-1.068717907050251"><ele>389.0</ele><time>2026-05-03T18:11:01.001Z</time></trkpt><trkpt lat="41.49294659394677" lon="-1.068601068219008"><ele>389.0</ele><time>2026-05-03T18:11:02.001Z</time></trkpt><trkpt lat="41.49302592271687" lon="-1.068484484883563"><ele>389.0</ele><time>2026-05-03T18:11:03.001Z</time></trkpt><trkpt lat="41.49310488972047" lon="-1.0683676925429841"><ele>389.0</ele><time>2026-05-03T18:11:04.001Z</time></trkpt><trkpt lat="41.49318741445404" lon="-1.0682486650610497"><ele>389.0</ele><time>2026-05-03T18:11:05.001Z</time></trkpt><trkpt lat="41.49326939955097" lon="-1.0681305729226755"><ele>389.0</ele><time>2026-05-03T18:11:06.001Z</time></trkpt><trkpt lat="41.49335149714727" lon="-1.0680140545655974"><ele>389.0</ele><time>2026-05-03T18:11:07.001Z</time></trkpt><trkpt lat="41.49342965017602" lon="-1.0678990982936067"><ele>389.0</ele><time>2026-05-03T18:11:08.001Z</time></trkpt><trkpt lat="41.49350942809504" lon="-1.0677852817490767"><ele>389.0</ele><time>2026-05-03T18:11:09.001Z</time></trkpt><trkpt lat="41.493587955429014" lon="-1.0676740863266498"><ele>389.0</ele><time>2026-05-03T18:11:10.001Z</time></trkpt><trkpt lat="41.493667479603864" lon="-1.0675601267422603"><ele>389.0</ele><time>2026-05-03T18:11:11.001Z</time></trkpt><trkpt lat="41.493747653886636" lon="-1.0674490626524193"><ele>389.0</ele><time>2026-05-03T18:11:12.001Z</time></trkpt><trkpt lat="41.49382670963868" lon="-1.067338645634706"><ele>389.0</ele><time>2026-05-03T18:11:13.001Z</time></trkpt><trkpt lat="41.4939055879101" lon="-1.0672279509512725"><ele>388.75</ele><time>2026-05-03T18:11:14.001Z</time></trkpt><trkpt lat="41.493977678188365" lon="-1.0671141228391616"><ele>388.5</ele><time>2026-05-03T18:11:15.001Z</time></trkpt><trkpt lat="41.49403629295241" lon="-1.0669714518184308"><ele>388.25</ele><time>2026-05-03T18:11:16.001Z</time></trkpt><trkpt lat="41.494087775107104" lon="-1.0668197473616179"><ele>388.0</ele><time>2026-05-03T18:11:17.001Z</time></trkpt><trkpt lat="41.49420273484263" lon="-1.0667817343159933"><ele>388.0</ele><time>2026-05-03T18:11:18.001Z</time></trkpt><trkpt lat="41.49428191876753" lon="-1.0666720270128645"><ele>388.0</ele><time>2026-05-03T18:11:19.001Z</time></trkpt><trkpt lat="41.49436213838867" lon="-1.0665600406566826"><ele>388.0</ele><time>2026-05-03T18:11:20.001Z</time></trkpt><trkpt lat="41.494437430639294" lon="-1.0664480872751785"><ele>388.0</ele><time>2026-05-03T18:11:21.001Z</time></trkpt><trkpt lat="41.49451766106381" lon="-1.0663367439834708"><ele>389.59999999999997</ele><time>2026-05-03T18:11:22.001Z</time></trkpt><trkpt lat="41.49459311570716" lon="-1.0662246307162364"><ele>391.2</ele><time>2026-05-03T18:11:23.001Z</time></trkpt><trkpt lat="41.49466752239277" lon="-1.066112637528353"><ele>392.8</ele><time>2026-05-03T18:11:24.001Z</time></trkpt><trkpt lat="41.49474248340933" lon="-1.0660031617604655"><ele>394.4</ele><time>2026-05-03T18:11:25.001Z</time></trkpt><trkpt lat="41.49481707069735" lon="-1.0658940034723614"><ele>396.0</ele><time>2026-05-03T18:11:26.001Z</time></trkpt><trkpt lat="41.49488894046896" lon="-1.0657840395652853"><ele>395.20000000000005</ele><time>2026-05-03T18:11:27.001Z</time></trkpt><trkpt lat="41.49495740499738" lon="-1.0656752460613919"><ele>394.40000000000003</ele><time>2026-05-03T18:11:28.001Z</time></trkpt><trkpt lat="41.4950250753085" lon="-1.0655622065218013"><ele>393.6</ele><time>2026-05-03T18:11:29.001Z</time></trkpt><trkpt lat="41.49508408204541" lon="-1.0654519560431452"><ele>392.8</ele><time>2026-05-03T18:11:30.001Z</time></trkpt><trkpt lat="41.49514477981878" lon="-1.0653426811478404"><ele>392.0</ele><time>2026-05-03T18:11:31.001Z</time></trkpt><trkpt lat="41.495204653759316" lon="-1.0652342567391233"><ele>392.0</ele><time>2026-05-03T18:11:32.001Z</time></trkpt><trkpt lat="41.49526298450408" lon="-1.0651269573990567"><ele>392.0</ele><time>2026-05-03T18:11:33.001Z</time></trkpt><trkpt lat="41.49531840146357" lon="-1.0650158910338765"><ele>392.0</ele><time>2026-05-03T18:11:34.001Z</time></trkpt><trkpt lat="41.495372462116656" lon="-1.064910405249477"><ele>392.0</ele><time>2026-05-03T18:11:35.001Z</time></trkpt><trkpt lat="41.49542780182216" lon="-1.064803325173799"><ele>392.0</ele><time>2026-05-03T18:11:36.001Z</time></trkpt><trkpt lat="41.49548115307616" lon="-1.0646997738062263"><ele>393.40000000000003</ele><time>2026-05-03T18:11:37.001Z</time></trkpt><trkpt lat="41.49553552134337" lon="-1.064595421581207"><ele>394.8</ele><time>2026-05-03T18:11:38.001Z</time></trkpt><trkpt lat="41.495589018603745" lon="-1.064491743808645"><ele>396.2</ele><time>2026-05-03T18:11:39.001Z</time></trkpt><trkpt lat="41.495645389191075" lon="-1.064388221245414"><ele>397.6</ele><time>2026-05-03T18:11:40.001Z</time></trkpt><trkpt lat="41.4957044210322" lon="-1.0642813927006476"><ele>399.0</ele><time>2026-05-03T18:11:41.001Z</time></trkpt><trkpt lat="41.49576158789792" lon="-1.064177312246588"><ele>398.4</ele><time>2026-05-03T18:11:42.001Z</time></trkpt><trkpt lat="41.495820842445596" lon="-1.0640727458985388"><ele>397.79999999999995</ele><time>2026-05-03T18:11:43.001Z</time></trkpt><trkpt lat="41.495885772809764" lon="-1.0639720008405227"><ele>397.20000000000005</ele><time>2026-05-03T18:11:44.001Z</time></trkpt><trkpt lat="41.495951398905966" lon="-1.063871362336707"><ele>396.6</ele><time>2026-05-03T18:11:45.001Z</time></trkpt><trkpt lat="41.496018885111084" lon="-1.0637716594941844"><ele>396.0</ele><time>2026-05-03T18:11:46.001Z</time></trkpt><trkpt lat="41.49609015327177" lon="-1.063671968793191"><ele>396.0</ele><time>2026-05-03T18:11:47.001Z</time></trkpt><trkpt lat="41.49615787981872" lon="-1.063568098228611"><ele>396.0</ele><time>2026-05-03T18:11:48.001Z</time></trkpt><trkpt lat="41.49622955057754" lon="-1.063464593487563"><ele>396.0</ele><time>2026-05-03T18:11:49.001Z</time></trkpt><trkpt lat="41.49630142908642" lon="-1.0633576990360025"><ele>396.0</ele><time>2026-05-03T18:11:50.001Z</time></trkpt><trkpt lat="41.4963816561805" lon="-1.063247507658236"><ele>396.0</ele><time>2026-05-03T18:11:51.001Z</time></trkpt><trkpt lat="41.496459093013804" lon="-1.063139771078566"><ele>397.25</ele><time>2026-05-03T18:11:52.001Z</time></trkpt><trkpt lat="41.49653463665525" lon="-1.0630310531965554"><ele>398.5</ele><time>2026-05-03T18:11:53.001Z</time></trkpt><trkpt lat="41.496611923625075" lon="-1.0629184612502565"><ele>399.75</ele><time>2026-05-03T18:11:54.001Z</time></trkpt><trkpt lat="41.49669271416287" lon="-1.0628090688927971"><ele>401.0</ele><time>2026-05-03T18:11:55.001Z</time></trkpt><trkpt lat="41.49677217732288" lon="-1.0626987888032453"><ele>401.0</ele><time>2026-05-03T18:11:56Z</time></trkpt><trkpt lat="41.49684827560546" lon="-1.0625861754610189"><ele>401.0</ele><time>2026-05-03T18:11:57Z</time></trkpt><trkpt lat="41.496925016710385" lon="-1.0624760514804816"><ele>401.0</ele><time>2026-05-03T18:11:58Z</time></trkpt><trkpt lat="41.49700259956966" lon="-1.0623656614998402"><ele>401.0</ele><time>2026-05-03T18:11:59Z</time></trkpt><trkpt lat="41.497083094747424" lon="-1.0622553521970812"><ele>400.0</ele><time>2026-05-03T18:12:00Z</time></trkpt><trkpt lat="41.49716642333298" lon="-1.062142812088216"><ele>399.0</ele><time>2026-05-03T18:12:01Z</time></trkpt><trkpt lat="41.497249731949566" lon="-1.0620317093595564"><ele>398.0</ele><time>2026-05-03T18:12:02Z</time></trkpt><trkpt lat="41.49733631821403" lon="-1.0619255222944413"><ele>397.0</ele><time>2026-05-03T18:12:03Z</time></trkpt><trkpt lat="41.49742475624772" lon="-1.0618221080709807"><ele>397.0</ele><time>2026-05-03T18:12:04Z</time></trkpt><trkpt lat="41.497514965067424" lon="-1.0617204838518943"><ele>397.0</ele><time>2026-05-03T18:12:05Z</time></trkpt><trkpt lat="41.497610114667324" lon="-1.0616288375148835"><ele>397.0</ele><time>2026-05-03T18:12:06Z</time></trkpt><trkpt lat="41.49770970960218" lon="-1.061545492488741"><ele>397.0</ele><time>2026-05-03T18:12:07Z</time></trkpt><trkpt lat="41.49781262758861" lon="-1.0614627334728872"><ele>395.25</ele><time>2026-05-03T18:12:08Z</time></trkpt><trkpt lat="41.49791498393939" lon="-1.0613808567898397"><ele>393.5</ele><time>2026-05-03T18:12:09Z</time></trkpt><trkpt lat="41.498011666823835" lon="-1.0612966544288869"><ele>391.75</ele><time>2026-05-03T18:12:10Z</time></trkpt><trkpt lat="41.49811186993167" lon="-1.0612161486667482"><ele>390.0</ele><time>2026-05-03T18:12:11Z</time></trkpt><trkpt lat="41.498211291432796" lon="-1.0611388724413777"><ele>390.0</ele><time>2026-05-03T18:12:12Z</time></trkpt><trkpt lat="41.49831251486212" lon="-1.061060664992154"><ele>390.0</ele><time>2026-05-03T18:12:13Z</time></trkpt><trkpt lat="41.49841521150577" lon="-1.0609823670110916"><ele>390.0</ele><time>2026-05-03T18:12:14Z</time></trkpt><trkpt lat="41.49851452436187" lon="-1.0609071209465306"><ele>390.0</ele><time>2026-05-03T18:12:15Z</time></trkpt><trkpt lat="41.49861361790323" lon="-1.0608311916338666"><ele>391.0</ele><time>2026-05-03T18:12:16Z</time></trkpt><trkpt lat="41.49871084127232" lon="-1.0607535652480882"><ele>392.0</ele><time>2026-05-03T18:12:17Z</time></trkpt><trkpt lat="41.498808669632524" lon="-1.0606738701072171"><ele>393.0</ele><time>2026-05-03T18:12:18Z</time></trkpt><trkpt lat="41.49890542558062" lon="-1.060591450592372"><ele>394.0</ele><time>2026-05-03T18:12:19Z</time></trkpt><trkpt lat="41.499000318267306" lon="-1.0605045479449347"><ele>394.75</ele><time>2026-05-03T18:12:20Z</time></trkpt><trkpt lat="41.499089852631705" lon="-1.060410513726975"><ele>395.5</ele><time>2026-05-03T18:12:21Z</time></trkpt><trkpt lat="41.499175444689506" lon="-1.0603070103308943"><ele>396.25</ele><time>2026-05-03T18:12:22Z</time></trkpt><trkpt lat="41.49925897018674" lon="-1.0602002556033088"><ele>397.0</ele><time>2026-05-03T18:12:23Z</time></trkpt><trkpt lat="41.4993389945289" lon="-1.0600818069187243"><ele>397.0</ele><time>2026-05-03T18:12:24Z</time></trkpt><trkpt lat="41.49941261826278" lon="-1.0599658310912334"><ele>397.0</ele><time>2026-05-03T18:12:25Z</time></trkpt><trkpt lat="41.49948691504382" lon="-1.0598437086157084"><ele>397.0</ele><time>2026-05-03T18:12:26Z</time></trkpt><trkpt lat="41.499555800535084" lon="-1.0597158778655977"><ele>397.0</ele><time>2026-05-03T18:12:27Z</time></trkpt><trkpt lat="41.49961490214222" lon="-1.0595828231092912"><ele>396.5</ele><time>2026-05-03T18:12:28Z</time></trkpt><trkpt lat="41.49967566095309" lon="-1.0594514453167507"><ele>396.0</ele><time>2026-05-03T18:12:29Z</time></trkpt><trkpt lat="41.49973010672982" lon="-1.0593141915947697"><ele>395.5</ele><time>2026-05-03T18:12:30Z</time></trkpt><trkpt lat="41.4997882783345" lon="-1.0591743376085598"><ele>395.0</ele><time>2026-05-03T18:12:31Z</time></trkpt><trkpt lat="41.49984427442254" lon="-1.05903649170249"><ele>394.75</ele><time>2026-05-03T18:12:32Z</time></trkpt><trkpt lat="41.49990401562333" lon="-1.0589021232341278"><ele>394.5</ele><time>2026-05-03T18:12:33Z</time></trkpt><trkpt lat="41.49996322602534" lon="-1.0587664316501726"><ele>394.25</ele><time>2026-05-03T18:12:34Z</time></trkpt><trkpt lat="41.50002362162528" lon="-1.0586305005380388"><ele>394.0</ele><time>2026-05-03T18:12:35Z</time></trkpt><trkpt lat="41.500081868001566" lon="-1.058497423629952"><ele>394.0</ele><time>2026-05-03T18:12:36Z</time></trkpt><trkpt lat="41.5001404748156" lon="-1.058362397934318"><ele>394.0</ele><time>2026-05-03T18:12:37Z</time></trkpt><trkpt lat="41.500199573531745" lon="-1.058223874613741"><ele>394.0</ele><time>2026-05-03T18:12:38Z</time></trkpt><trkpt lat="41.50025366128597" lon="-1.0580819879390984"><ele>394.0</ele><time>2026-05-03T18:12:39Z</time></trkpt><trkpt lat="41.50031375287898" lon="-1.05795189366731"><ele>394.0</ele><time>2026-05-03T18:12:40Z</time></trkpt><trkpt lat="41.50037263148965" lon="-1.057816648589589"><ele>394.0</ele><time>2026-05-03T18:12:41Z</time></trkpt><trkpt lat="41.50042862184541" lon="-1.0576785049397743"><ele>394.0</ele><time>2026-05-03T18:12:42Z</time></trkpt><trkpt lat="41.500486695256924" lon="-1.0575431727015083"><ele>394.0</ele><time>2026-05-03T18:12:43Z</time></trkpt><trkpt lat="41.500548900562315" lon="-1.0574116952371546"><ele>392.75</ele><time>2026-05-03T18:12:44Z</time></trkpt><trkpt lat="41.500610605168724" lon="-1.0572771742566311"><ele>391.5</ele><time>2026-05-03T18:12:45Z</time></trkpt><trkpt lat="41.5006666104888" lon="-1.057141353822676"><ele>390.25</ele><time>2026-05-03T18:12:46Z</time></trkpt><trkpt lat="41.50073124195986" lon="-1.0570089363691855"><ele>389.0</ele><time>2026-05-03T18:12:47Z</time></trkpt><trkpt lat="41.50078931504952" lon="-1.0568733776139208"><ele>389.0</ele><time>2026-05-03T18:12:48Z</time></trkpt><trkpt lat="41.50084972762336" lon="-1.056737459697788"><ele>389.0</ele><time>2026-05-03T18:12:49Z</time></trkpt><trkpt lat="41.50090852868672" lon="-1.05660218731736"><ele>389.0</ele><time>2026-05-03T18:12:50Z</time></trkpt><trkpt lat="41.500973221002376" lon="-1.0564719516357233"><ele>389.0</ele><time>2026-05-03T18:12:51Z</time></trkpt><trkpt lat="41.50103256933354" lon="-1.0563354268505842"><ele>389.0</ele><time>2026-05-03T18:12:52.001Z</time></trkpt><trkpt lat="41.501096504612796" lon="-1.0561979648949482"><ele>389.0</ele><time>2026-05-03T18:12:53.001Z</time></trkpt><trkpt lat="41.5011559946938" lon="-1.0560657666333089"><ele>389.0</ele><time>2026-05-03T18:12:54.001Z</time></trkpt><trkpt lat="41.5012159660259" lon="-1.055936123495999"><ele>389.0</ele><time>2026-05-03T18:12:55.001Z</time></trkpt><trkpt lat="41.50127828628297" lon="-1.0558065908709253"><ele>390.75</ele><time>2026-05-03T18:12:56.001Z</time></trkpt><trkpt lat="41.50133739663947" lon="-1.0556722443757605"><ele>392.5</ele><time>2026-05-03T18:12:57.001Z</time></trkpt><trkpt lat="41.50139532000186" lon="-1.055540109302451"><ele>394.25</ele><time>2026-05-03T18:12:58.001Z</time></trkpt><trkpt lat="41.50145395705826" lon="-1.0554076639342573"><ele>396.0</ele><time>2026-05-03T18:12:59.001Z</time></trkpt><trkpt lat="41.5015166225694" lon="-1.0552738376236057"><ele>396.0</ele><time>2026-05-03T18:13:00.001Z</time></trkpt><trkpt lat="41.501574652340274" lon="-1.0551392036700076"><ele>396.0</ele><time>2026-05-03T18:13:01.001Z</time></trkpt><trkpt lat="41.50163296065583" lon="-1.0550091684442895"><ele>396.0</ele><time>2026-05-03T18:13:02.001Z</time></trkpt><trkpt lat="41.50169586342353" lon="-1.0548752483755366"><ele>396.0</ele><time>2026-05-03T18:13:03.001Z</time></trkpt><trkpt lat="41.50175694297952" lon="-1.0547425177048144"><ele>393.75</ele><time>2026-05-03T18:13:04.001Z</time></trkpt><trkpt lat="41.5018160941097" lon="-1.0546062950149542"><ele>391.5</ele><time>2026-05-03T18:13:05.001Z</time></trkpt><trkpt lat="41.501875649712325" lon="-1.0544712267620882"><ele>389.25</ele><time>2026-05-03T18:13:06.001Z</time></trkpt><trkpt lat="41.50193780674761" lon="-1.0543336210120098"><ele>387.0</ele><time>2026-05-03T18:13:07.001Z</time></trkpt><trkpt lat="41.50200078778977" lon="-1.0542003686013488"><ele>387.0</ele><time>2026-05-03T18:13:08.001Z</time></trkpt><trkpt lat="41.502058552090325" lon="-1.054066843579271"><ele>387.0</ele><time>2026-05-03T18:13:09.001Z</time></trkpt><trkpt lat="41.5021201069769" lon="-1.0539277079023732"><ele>387.0</ele><time>2026-05-03T18:13:10.001Z</time></trkpt><trkpt lat="41.50218203434608" lon="-1.053790161892031"><ele>387.0</ele><time>2026-05-03T18:13:11.001Z</time></trkpt><trkpt lat="41.5022425419097" lon="-1.053654815594304"><ele>387.0</ele><time>2026-05-03T18:13:12.001Z</time></trkpt><trkpt lat="41.50230199846755" lon="-1.0535182466650816"><ele>387.0</ele><time>2026-05-03T18:13:13.001Z</time></trkpt><trkpt lat="41.502362269297706" lon="-1.0533814699518975"><ele>387.0</ele><time>2026-05-03T18:13:14.001Z</time></trkpt><trkpt lat="41.502424413458996" lon="-1.0532450484237346"><ele>387.0</ele><time>2026-05-03T18:13:15.001Z</time></trkpt><trkpt lat="41.50248758971134" lon="-1.0531116911476015"><ele>385.75</ele><time>2026-05-03T18:13:16.001Z</time></trkpt><trkpt lat="41.5025451243634" lon="-1.0529764378503155"><ele>384.5</ele><time>2026-05-03T18:13:17.001Z</time></trkpt><trkpt lat="41.50260888911114" lon="-1.0528385854595639"><ele>383.25</ele><time>2026-05-03T18:13:18.001Z</time></trkpt><trkpt lat="41.50267207613263" lon="-1.0527024719367106"><ele>382.0</ele><time>2026-05-03T18:13:19.001Z</time></trkpt><trkpt lat="41.50272924800243" lon="-1.052567634936568"><ele>382.5</ele><time>2026-05-03T18:13:20.001Z</time></trkpt><trkpt lat="41.50279299635409" lon="-1.0524333188550683"><ele>383.0</ele><time>2026-05-03T18:13:21.001Z</time></trkpt><trkpt lat="41.50284880158977" lon="-1.052296848058456"><ele>383.5</ele><time>2026-05-03T18:13:22.001Z</time></trkpt><trkpt lat="41.50291272840626" lon="-1.0521584239829833"><ele>384.0</ele><time>2026-05-03T18:13:23.001Z</time></trkpt><trkpt lat="41.50297215317171" lon="-1.0520264600455635"><ele>384.0</ele><time>2026-05-03T18:13:24.001Z</time></trkpt><trkpt lat="41.50303313417569" lon="-1.0518932403808678"><ele>384.0</ele><time>2026-05-03T18:13:25.001Z</time></trkpt><trkpt lat="41.503094769560974" lon="-1.051758237745136"><ele>384.0</ele><time>2026-05-03T18:13:26.001Z</time></trkpt><trkpt lat="41.503153379379604" lon="-1.0516221933097403"><ele>384.0</ele><time>2026-05-03T18:13:27.001Z</time></trkpt><trkpt lat="41.50321202364986" lon="-1.0514920821039482"><ele>383.25</ele><time>2026-05-03T18:13:28.001Z</time></trkpt><trkpt lat="41.50327320278608" lon="-1.051359131640562"><ele>382.5</ele><time>2026-05-03T18:13:29.001Z</time></trkpt><trkpt lat="41.50333508364189" lon="-1.0512242880790021"><ele>381.75</ele><time>2026-05-03T18:13:30.001Z</time></trkpt><trkpt lat="41.503393605604174" lon="-1.0510890549434917"><ele>381.0</ele><time>2026-05-03T18:13:31.001Z</time></trkpt><trkpt lat="41.50345491073143" lon="-1.0509570363398546"><ele>381.0</ele><time>2026-05-03T18:13:32.001Z</time></trkpt><trkpt lat="41.5035132203937" lon="-1.0508231017152811"><ele>381.0</ele><time>2026-05-03T18:13:33.001Z</time></trkpt><trkpt lat="41.50357082916215" lon="-1.0506884426320853"><ele>381.0</ele><time>2026-05-03T18:13:34.001Z</time></trkpt><trkpt lat="41.50363121844336" lon="-1.0505557140756892"><ele>381.0</ele><time>2026-05-03T18:13:35.001Z</time></trkpt><trkpt lat="41.5036940548469" lon="-1.0504223600266096"><ele>381.25</ele><time>2026-05-03T18:13:36.001Z</time></trkpt><trkpt lat="41.503755138830144" lon="-1.050284365816881"><ele>381.5</ele><time>2026-05-03T18:13:37.001Z</time></trkpt><trkpt lat="41.50381673576347" lon="-1.050150087489518"><ele>381.75</ele><time>2026-05-03T18:13:38.001Z</time></trkpt><trkpt lat="41.50387635858975" lon="-1.0500124625088318"><ele>382.0</ele><time>2026-05-03T18:13:39.001Z</time></trkpt><trkpt lat="41.503936483825065" lon="-1.0498717137688631"><ele>380.75</ele><time>2026-05-03T18:13:40.001Z</time></trkpt><trkpt lat="41.50399593267393" lon="-1.049736735687874"><ele>379.5</ele><time>2026-05-03T18:13:41.001Z</time></trkpt><trkpt lat="41.50405771783546" lon="-1.0495990446830672"><ele>378.25</ele><time>2026-05-03T18:13:42.001Z</time></trkpt><trkpt lat="41.504120773164814" lon="-1.0494630957988387"><ele>377.0</ele><time>2026-05-03T18:13:43.001Z</time></trkpt><trkpt lat="41.504182904933096" lon="-1.0493252955381343"><ele>377.0</ele><time>2026-05-03T18:13:44.001Z</time></trkpt><trkpt lat="41.50424643312093" lon="-1.0491880914457268"><ele>377.0</ele><time>2026-05-03T18:13:45.001Z</time></trkpt><trkpt lat="41.50430895210811" lon="-1.0490481277918309"><ele>377.0</ele><time>2026-05-03T18:13:46.001Z</time></trkpt><trkpt lat="41.50436757582223" lon="-1.0489126010566923"><ele>377.0</ele><time>2026-05-03T18:13:47.001Z</time></trkpt><trkpt lat="41.50443167027811" lon="-1.0487765433198843"><ele>377.0</ele><time>2026-05-03T18:13:48.001Z</time></trkpt><trkpt lat="41.504493404015655" lon="-1.048642181175133"><ele>377.0</ele><time>2026-05-03T18:13:49.001Z</time></trkpt><trkpt lat="41.50455720258033" lon="-1.0485031601428998"><ele>377.0</ele><time>2026-05-03T18:13:50.001Z</time></trkpt><trkpt lat="41.50461517958002" lon="-1.0483663758905446"><ele>377.0</ele><time>2026-05-03T18:13:51.001Z</time></trkpt><trkpt lat="41.50467746834431" lon="-1.0482306778850454"><ele>377.0</ele><time>2026-05-03T18:13:52.001Z</time></trkpt><trkpt lat="41.50473825223871" lon="-1.0480915475219468"><ele>377.0</ele><time>2026-05-03T18:13:53.001Z</time></trkpt><trkpt lat="41.504798847264425" lon="-1.0479539597467986"><ele>377.0</ele><time>2026-05-03T18:13:54.001Z</time></trkpt><trkpt lat="41.50486204016469" lon="-1.0478156649615793"><ele>377.0</ele><time>2026-05-03T18:13:55.001Z</time></trkpt><trkpt lat="41.504922972214054" lon="-1.0476808446748096"><ele>377.0</ele><time>2026-05-03T18:13:56.001Z</time></trkpt><trkpt lat="41.5049826092715" lon="-1.0475469666950754"><ele>377.0</ele><time>2026-05-03T18:13:57.001Z</time></trkpt><trkpt lat="41.50504600652437" lon="-1.047410799231176"><ele>377.0</ele><time>2026-05-03T18:13:58.001Z</time></trkpt><trkpt lat="41.50510727727295" lon="-1.0472738626693598"><ele>377.0</ele><time>2026-05-03T18:13:59.001Z</time></trkpt><trkpt lat="41.50516813180136" lon="-1.0471368320230097"><ele>376.0</ele><time>2026-05-03T18:14:00.001Z</time></trkpt><trkpt lat="41.50522678729204" lon="-1.0469994954974702"><ele>375.0</ele><time>2026-05-03T18:14:01.001Z</time></trkpt><trkpt lat="41.50528690657097" lon="-1.0468638652215798"><ele>374.0</ele><time>2026-05-03T18:14:02Z</time></trkpt><trkpt lat="41.50534782118292" lon="-1.0467345886244288"><ele>373.0</ele><time>2026-05-03T18:14:03Z</time></trkpt><trkpt lat="41.50540890511517" lon="-1.0465992315611046"><ele>373.25</ele><time>2026-05-03T18:14:04Z</time></trkpt><trkpt lat="41.505472129504966" lon="-1.046465831808084"><ele>373.5</ele><time>2026-05-03T18:14:05Z</time></trkpt><trkpt lat="41.50553534429316" lon="-1.0463315722316902"><ele>373.75</ele><time>2026-05-03T18:14:06Z</time></trkpt><trkpt lat="41.505599675940005" lon="-1.0461963178278035"><ele>374.0</ele><time>2026-05-03T18:14:07Z</time></trkpt><trkpt lat="41.50566611834621" lon="-1.0460643781098742"><ele>374.0</ele><time>2026-05-03T18:14:08Z</time></trkpt><trkpt lat="41.505736457036576" lon="-1.0459386282638852"><ele>374.0</ele><time>2026-05-03T18:14:09Z</time></trkpt><trkpt lat="41.50580919053359" lon="-1.0458116090290719"><ele>374.0</ele><time>2026-05-03T18:14:10Z</time></trkpt><trkpt lat="41.505881909196326" lon="-1.0456832035139814"><ele>374.0</ele><time>2026-05-03T18:14:11Z</time></trkpt><trkpt lat="41.50595535781862" lon="-1.0455564954579994"><ele>374.25</ele><time>2026-05-03T18:14:12Z</time></trkpt><trkpt lat="41.506027173826645" lon="-1.0454322905687115"><ele>374.5</ele><time>2026-05-03T18:14:13Z</time></trkpt><trkpt lat="41.50610115368197" lon="-1.045308386110578"><ele>374.75</ele><time>2026-05-03T18:14:14Z</time></trkpt><trkpt lat="41.506175343518706" lon="-1.0451849494694396"><ele>375.0</ele><time>2026-05-03T18:14:15Z</time></trkpt><trkpt lat="41.5062520570447" lon="-1.0450633130527398"><ele>374.0</ele><time>2026-05-03T18:14:16Z</time></trkpt><trkpt lat="41.506324994797424" lon="-1.0449399025260449"><ele>373.0</ele><time>2026-05-03T18:14:17Z</time></trkpt><trkpt lat="41.50639665306496" lon="-1.0448183314020205"><ele>372.0</ele><time>2026-05-03T18:14:18Z</time></trkpt><trkpt lat="41.506469546597664" lon="-1.0446970227364072"><ele>371.0</ele><time>2026-05-03T18:14:19Z</time></trkpt><trkpt lat="41.506543355267446" lon="-1.0445749664751016"><ele>371.0</ele><time>2026-05-03T18:14:20Z</time></trkpt><trkpt lat="41.50661752090535" lon="-1.0444541165657106"><ele>371.0</ele><time>2026-05-03T18:14:21Z</time></trkpt><trkpt lat="41.50669229345677" lon="-1.0443340156862275"><ele>371.0</ele><time>2026-05-03T18:14:22Z</time></trkpt><trkpt lat="41.50676730592919" lon="-1.0442109951049525"><ele>371.0</ele><time>2026-05-03T18:14:23Z</time></trkpt><trkpt lat="41.50684028652164" lon="-1.0440875390326336"><ele>370.5</ele><time>2026-05-03T18:14:24Z</time></trkpt><trkpt lat="41.50691091555379" lon="-1.0439676284527935"><ele>370.0</ele><time>2026-05-03T18:14:25Z</time></trkpt><trkpt lat="41.5069806778323" lon="-1.0438481280646008"><ele>369.5</ele><time>2026-05-03T18:14:26Z</time></trkpt><trkpt lat="41.50705286242837" lon="-1.0437312947694346"><ele>369.0</ele><time>2026-05-03T18:14:27Z</time></trkpt><trkpt lat="41.507127865759216" lon="-1.0436136479165354"><ele>369.75</ele><time>2026-05-03T18:14:28Z</time></trkpt><trkpt lat="41.50720134290146" lon="-1.0434928202771534"><ele>370.5</ele><time>2026-05-03T18:14:29Z</time></trkpt><trkpt lat="41.50727199008344" lon="-1.0433763650231156"><ele>371.25</ele><time>2026-05-03T18:14:30Z</time></trkpt><trkpt lat="41.50734827658504" lon="-1.0432619806144405"><ele>372.0</ele><time>2026-05-03T18:14:31Z</time></trkpt><trkpt lat="41.50741366400453" lon="-1.043147861955313"><ele>372.0</ele><time>2026-05-03T18:14:32Z</time></trkpt><trkpt lat="41.507476566434505" lon="-1.043048025009673"><ele>372.0</ele><time>2026-05-03T18:14:33Z</time></trkpt><trkpt lat="41.50754082909442" lon="-1.042951450834294"><ele>372.0</ele><time>2026-05-03T18:14:34Z</time></trkpt><trkpt lat="41.50760204342119" lon="-1.0428607641508716"><ele>372.0</ele><time>2026-05-03T18:14:35Z</time></trkpt><trkpt lat="41.507664856514864" lon="-1.0427702965111725"><ele>372.0</ele><time>2026-05-03T18:14:36Z</time></trkpt><trkpt lat="41.507788064003584" lon="-1.0426088280273338"><ele>372.0</ele><time>2026-05-03T18:14:37Z</time></trkpt><trkpt lat="41.50787218860458" lon="-1.0425158952903775"><ele>372.0</ele><time>2026-05-03T18:14:38Z</time></trkpt><trkpt lat="41.50794941006086" lon="-1.042421579266927"><ele>372.0</ele><time>2026-05-03T18:14:39Z</time></trkpt><trkpt lat="41.50803403868028" lon="-1.0423326827326105"><ele>372.0</ele><time>2026-05-03T18:14:40Z</time></trkpt><trkpt lat="41.50812083797209" lon="-1.0422504576127187"><ele>372.0</ele><time>2026-05-03T18:14:41Z</time></trkpt><trkpt lat="41.508206067060755" lon="-1.0421689325625019"><ele>372.40000000000003</ele><time>2026-05-03T18:14:42Z</time></trkpt><trkpt lat="41.50829320709036" lon="-1.0420911541063054"><ele>372.8</ele><time>2026-05-03T18:14:43Z</time></trkpt><trkpt lat="41.50838520321803" lon="-1.0420169249912377"><ele>373.2</ele><time>2026-05-03T18:14:44Z</time></trkpt><trkpt lat="41.508473901051424" lon="-1.0419429452174604"><ele>373.6</ele><time>2026-05-03T18:14:45Z</time></trkpt><trkpt lat="41.508569184072805" lon="-1.0418689532471408"><ele>374.0</ele><time>2026-05-03T18:14:46Z</time></trkpt><trkpt lat="41.50866420198699" lon="-1.041799109144088"><ele>374.0</ele><time>2026-05-03T18:14:47Z</time></trkpt><trkpt lat="41.50876032063391" lon="-1.0417228643967655"><ele>374.0</ele><time>2026-05-03T18:14:48Z</time></trkpt><trkpt lat="41.508854056022884" lon="-1.0416449515660688"><ele>374.0</ele><time>2026-05-03T18:14:49Z</time></trkpt><trkpt lat="41.50894934664472" lon="-1.041570212922879"><ele>374.0</ele><time>2026-05-03T18:14:50Z</time></trkpt><trkpt lat="41.50904064081598" lon="-1.0414988894093546"><ele>374.0</ele><time>2026-05-03T18:14:51Z</time></trkpt><trkpt lat="41.50913678314621" lon="-1.0414271743856738"><ele>374.0</ele><time>2026-05-03T18:14:52Z</time></trkpt><trkpt lat="41.50923015588662" lon="-1.0413503310710635"><ele>374.0</ele><time>2026-05-03T18:14:53Z</time></trkpt><trkpt lat="41.50932517511225" lon="-1.0412633333648775"><ele>374.0</ele><time>2026-05-03T18:14:54Z</time></trkpt><trkpt lat="41.50942543743542" lon="-1.0411779408861623"><ele>374.0</ele><time>2026-05-03T18:14:55Z</time></trkpt><trkpt lat="41.50952358607254" lon="-1.0410941247688725"><ele>373.5</ele><time>2026-05-03T18:14:56Z</time></trkpt><trkpt lat="41.509620757378364" lon="-1.0410104475708277"><ele>373.0</ele><time>2026-05-03T18:14:57Z</time></trkpt><trkpt lat="41.50972194085365" lon="-1.040929323900278"><ele>372.5</ele><time>2026-05-03T18:14:58Z</time></trkpt><trkpt lat="41.509821274837456" lon="-1.040848880046224"><ele>372.0</ele><time>2026-05-03T18:14:59Z</time></trkpt><trkpt lat="41.50991923164721" lon="-1.0407667218493357"><ele>372.0</ele><time>2026-05-03T18:15:00Z</time></trkpt><trkpt lat="41.51001617481281" lon="-1.0406889173387408"><ele>372.0</ele><time>2026-05-03T18:15:01.001Z</time></trkpt><trkpt lat="41.51011251383021" lon="-1.040610242040379"><ele>372.0</ele><time>2026-05-03T18:15:02.001Z</time></trkpt><trkpt lat="41.51020910481862" lon="-1.0405333538734542"><ele>372.0</ele><time>2026-05-03T18:15:03.001Z</time></trkpt><trkpt lat="41.51030849962097" lon="-1.0404540044206598"><ele>372.0</ele><time>2026-05-03T18:15:04.001Z</time></trkpt><trkpt lat="41.51040732866485" lon="-1.0403744618394872"><ele>372.0</ele><time>2026-05-03T18:15:05.001Z</time></trkpt><trkpt lat="41.510506528421466" lon="-1.0402979194915873"><ele>372.0</ele><time>2026-05-03T18:15:06.001Z</time></trkpt><trkpt lat="41.51060644395305" lon="-1.040218934008947"><ele>372.0</ele><time>2026-05-03T18:15:07.001Z</time></trkpt><trkpt lat="41.5107073147064" lon="-1.040141399615953"><ele>372.0</ele><time>2026-05-03T18:15:08.001Z</time></trkpt><trkpt lat="41.51080918634384" lon="-1.0400633485296367"><ele>372.0</ele><time>2026-05-03T18:15:09.001Z</time></trkpt><trkpt lat="41.51091077938195" lon="-1.0399859392139887"><ele>372.0</ele><time>2026-05-03T18:15:10.001Z</time></trkpt><trkpt lat="41.51101160118748" lon="-1.0399111628623028"><ele>372.0</ele><time>2026-05-03T18:15:11.001Z</time></trkpt><trkpt lat="41.51111276430249" lon="-1.0398354975024233"><ele>372.0</ele><time>2026-05-03T18:15:12.001Z</time></trkpt><trkpt lat="41.511213988033994" lon="-1.0397596896245738"><ele>372.0</ele><time>2026-05-03T18:15:13.001Z</time></trkpt><trkpt lat="41.51131630428199" lon="-1.0396865280323588"><ele>372.0</ele><time>2026-05-03T18:15:14.001Z</time></trkpt><trkpt lat="41.5114199544829" lon="-1.0396125898731832"><ele>372.0</ele><time>2026-05-03T18:15:15.001Z</time></trkpt><trkpt lat="41.511527297667776" lon="-1.039537371551452"><ele>373.0</ele><time>2026-05-03T18:15:16.001Z</time></trkpt><trkpt lat="41.511632650354294" lon="-1.039463517451518"><ele>374.0</ele><time>2026-05-03T18:15:17.001Z</time></trkpt><trkpt lat="41.51173885946354" lon="-1.0393899296357363"><ele>375.0</ele><time>2026-05-03T18:15:18.001Z</time></trkpt><trkpt lat="41.51184267834265" lon="-1.0393123013313188"><ele>376.0</ele><time>2026-05-03T18:15:19.001Z</time></trkpt><trkpt lat="41.511943138832656" lon="-1.0392374911444813"><ele>376.0</ele><time>2026-05-03T18:15:20.001Z</time></trkpt><trkpt lat="41.512047055174286" lon="-1.0391656847289585"><ele>376.0</ele><time>2026-05-03T18:15:21.001Z</time></trkpt><trkpt lat="41.5121487564527" lon="-1.0390936749496882"><ele>376.0</ele><time>2026-05-03T18:15:22.001Z</time></trkpt><trkpt lat="41.512249866148515" lon="-1.0390211997730392"><ele>376.0</ele><time>2026-05-03T18:15:23.001Z</time></trkpt><trkpt lat="41.51234945181226" lon="-1.038949304667356"><ele>375.25</ele><time>2026-05-03T18:15:24.001Z</time></trkpt><trkpt lat="41.512450688557045" lon="-1.0388731100969202"><ele>374.5</ele><time>2026-05-03T18:15:25.001Z</time></trkpt><trkpt lat="41.51254989936662" lon="-1.0388068628400045"><ele>373.75</ele><time>2026-05-03T18:15:26.001Z</time></trkpt><trkpt lat="41.51264864611032" lon="-1.038737801442291"><ele>373.0</ele><time>2026-05-03T18:15:27.001Z</time></trkpt><trkpt lat="41.51274916649494" lon="-1.0386641159244578"><ele>373.0</ele><time>2026-05-03T18:15:28.001Z</time></trkpt><trkpt lat="41.512847245553246" lon="-1.0385913603532975"><ele>373.0</ele><time>2026-05-03T18:15:29.001Z</time></trkpt><trkpt lat="41.512947432909314" lon="-1.038518017726233"><ele>373.0</ele><time>2026-05-03T18:15:30.001Z</time></trkpt><trkpt lat="41.513047827361156" lon="-1.0384460956345265"><ele>373.0</ele><time>2026-05-03T18:15:31.001Z</time></trkpt><trkpt lat="41.51314994433433" lon="-1.038373848623626"><ele>373.5</ele><time>2026-05-03T18:15:32.001Z</time></trkpt><trkpt lat="41.5132538321989" lon="-1.038303536517981"><ele>374.0</ele><time>2026-05-03T18:15:33.001Z</time></trkpt><trkpt lat="41.51335854541119" lon="-1.038235433571291"><ele>374.5</ele><time>2026-05-03T18:15:34.001Z</time></trkpt><trkpt lat="41.51345931460127" lon="-1.0381628209021736"><ele>375.0</ele><time>2026-05-03T18:15:35.001Z</time></trkpt><trkpt lat="41.51356046772216" lon="-1.0380898441985476"><ele>375.0</ele><time>2026-05-03T18:15:36.001Z</time></trkpt><trkpt lat="41.513660174983876" lon="-1.0380182441087666"><ele>375.0</ele><time>2026-05-03T18:15:37.001Z</time></trkpt><trkpt lat="41.513761231913016" lon="-1.0379479528443885"><ele>375.0</ele><time>2026-05-03T18:15:38.001Z</time></trkpt><trkpt lat="41.51386151400255" lon="-1.0378761744529752"><ele>375.0</ele><time>2026-05-03T18:15:39.001Z</time></trkpt><trkpt lat="41.513963769471154" lon="-1.0378042197589699"><ele>375.0</ele><time>2026-05-03T18:15:40.001Z</time></trkpt><trkpt lat="41.51406511674205" lon="-1.0377299828729798"><ele>375.0</ele><time>2026-05-03T18:15:41.001Z</time></trkpt><trkpt lat="41.514164291702095" lon="-1.0376548883199053"><ele>375.0</ele><time>2026-05-03T18:15:42.001Z</time></trkpt><trkpt lat="41.514265096968394" lon="-1.0375788966248862"><ele>375.0</ele><time>2026-05-03T18:15:43.001Z</time></trkpt><trkpt lat="41.514362127483814" lon="-1.0374974409803792"><ele>374.5</ele><time>2026-05-03T18:15:44.001Z</time></trkpt><trkpt lat="41.51445827794501" lon="-1.0374101560896982"><ele>374.0</ele><time>2026-05-03T18:15:45.001Z</time></trkpt><trkpt lat="41.514548557273876" lon="-1.0373147340279243"><ele>373.5</ele><time>2026-05-03T18:15:46.001Z</time></trkpt><trkpt lat="41.51463491403299" lon="-1.0372057698990307"><ele>373.0</ele><time>2026-05-03T18:15:47.001Z</time></trkpt><trkpt lat="41.514717432162776" lon="-1.0370918857791676"><ele>373.0</ele><time>2026-05-03T18:15:48.001Z</time></trkpt><trkpt lat="41.51479322568449" lon="-1.0369730667972987"><ele>373.0</ele><time>2026-05-03T18:15:49.001Z</time></trkpt><trkpt lat="41.514868870677056" lon="-1.036852373457783"><ele>373.0</ele><time>2026-05-03T18:15:50.001Z</time></trkpt><trkpt lat="41.51494184932975" lon="-1.0367267016070456"><ele>373.0</ele><time>2026-05-03T18:15:51.001Z</time></trkpt><trkpt lat="41.515016910712724" lon="-1.0366017222835031"><ele>372.25</ele><time>2026-05-03T18:15:52.001Z</time></trkpt><trkpt lat="41.51509474716167" lon="-1.0364791733342713"><ele>371.5</ele><time>2026-05-03T18:15:53.001Z</time></trkpt><trkpt lat="41.51517061789351" lon="-1.036356508367894"><ele>370.75</ele><time>2026-05-03T18:15:54.001Z</time></trkpt><trkpt lat="41.51524566870224" lon="-1.0362297258219768"><ele>370.0</ele><time>2026-05-03T18:15:55.001Z</time></trkpt><trkpt lat="41.51532029066766" lon="-1.036105354793786"><ele>370.0</ele><time>2026-05-03T18:15:56.001Z</time></trkpt><trkpt lat="41.51539548620362" lon="-1.0359813498172046"><ele>370.0</ele><time>2026-05-03T18:15:57.001Z</time></trkpt><trkpt lat="41.51547025852986" lon="-1.035859184375159"><ele>370.0</ele><time>2026-05-03T18:15:58.001Z</time></trkpt><trkpt lat="41.51554483738049" lon="-1.0357357078019753"><ele>370.0</ele><time>2026-05-03T18:15:59.001Z</time></trkpt><trkpt lat="41.51562118892684" lon="-1.0356137693765444"><ele>370.25</ele><time>2026-05-03T18:16:00.001Z</time></trkpt><trkpt lat="41.51569686394738" lon="-1.0354915667707116"><ele>370.5</ele><time>2026-05-03T18:16:01.001Z</time></trkpt><trkpt lat="41.51576866789575" lon="-1.0353718083846144"><ele>370.75</ele><time>2026-05-03T18:16:02.001Z</time></trkpt><trkpt lat="41.51584147354622" lon="-1.0352517368565575"><ele>371.0</ele><time>2026-05-03T18:16:03.001Z</time></trkpt><trkpt lat="41.51591836277147" lon="-1.0351334881706968"><ele>371.0</ele><time>2026-05-03T18:16:04.001Z</time></trkpt><trkpt lat="41.515994572769394" lon="-1.0350160425606556"><ele>371.0</ele><time>2026-05-03T18:16:05.001Z</time></trkpt><trkpt lat="41.51607482589687" lon="-1.0349015413439349"><ele>371.0</ele><time>2026-05-03T18:16:06.001Z</time></trkpt><trkpt lat="41.516157144368634" lon="-1.034789673317085"><ele>371.0</ele><time>2026-05-03T18:16:07.001Z</time></trkpt><trkpt lat="41.516241281143884" lon="-1.034679193410707"><ele>370.25</ele><time>2026-05-03T18:16:08Z</time></trkpt><trkpt lat="41.51632839273311" lon="-1.0345689378845693"><ele>369.5</ele><time>2026-05-03T18:16:09Z</time></trkpt><trkpt lat="41.51641640620081" lon="-1.0344569788379105"><ele>368.75</ele><time>2026-05-03T18:16:10Z</time></trkpt><trkpt lat="41.51650553354877" lon="-1.034346542940437"><ele>368.0</ele><time>2026-05-03T18:16:11Z</time></trkpt><trkpt lat="41.51659608306958" lon="-1.0342383506728323"><ele>367.25</ele><time>2026-05-03T18:16:12Z</time></trkpt><trkpt lat="41.51668422301279" lon="-1.0341329318924892"><ele>366.5</ele><time>2026-05-03T18:16:13Z</time></trkpt><trkpt lat="41.51677155286063" lon="-1.034023861241451"><ele>365.75</ele><time>2026-05-03T18:16:14Z</time></trkpt><trkpt lat="41.51686065257048" lon="-1.0339124732717826"><ele>365.0</ele><time>2026-05-03T18:16:15Z</time></trkpt><trkpt lat="41.5169453309014" lon="-1.0338036996995172"><ele>365.0</ele><time>2026-05-03T18:16:16Z</time></trkpt><trkpt lat="41.51703294839452" lon="-1.0336958644352114"><ele>365.0</ele><time>2026-05-03T18:16:17Z</time></trkpt><trkpt lat="41.51712239919976" lon="-1.0335890445717342"><ele>365.0</ele><time>2026-05-03T18:16:18Z</time></trkpt><trkpt lat="41.517212138167814" lon="-1.0334797335194328"><ele>365.0</ele><time>2026-05-03T18:16:19Z</time></trkpt><trkpt lat="41.517301756585525" lon="-1.0333721914858371"><ele>365.25</ele><time>2026-05-03T18:16:20Z</time></trkpt><trkpt lat="41.51738750107653" lon="-1.0332643357705404"><ele>365.5</ele><time>2026-05-03T18:16:21Z</time></trkpt><trkpt lat="41.51747607748841" lon="-1.0331536351515684"><ele>365.75</ele><time>2026-05-03T18:16:22Z</time></trkpt><trkpt lat="41.517562214129796" lon="-1.03305012593261"><ele>366.0</ele><time>2026-05-03T18:16:23Z</time></trkpt><trkpt lat="41.51765422646332" lon="-1.032942499782193"><ele>366.0</ele><time>2026-05-03T18:16:24Z</time></trkpt><trkpt lat="41.51774059762639" lon="-1.03283695990459"><ele>366.0</ele><time>2026-05-03T18:16:25Z</time></trkpt><trkpt lat="41.517827619328585" lon="-1.0327288974511681"><ele>366.0</ele><time>2026-05-03T18:16:26Z</time></trkpt><trkpt lat="41.517912329006144" lon="-1.0326211847394466"><ele>366.0</ele><time>2026-05-03T18:16:27Z</time></trkpt><trkpt lat="41.517999459038826" lon="-1.0325167468804903"><ele>365.0</ele><time>2026-05-03T18:16:28Z</time></trkpt><trkpt lat="41.518086021496174" lon="-1.0324090563200257"><ele>364.0</ele><time>2026-05-03T18:16:29Z</time></trkpt><trkpt lat="41.518174139779475" lon="-1.0323017635002125"><ele>363.0</ele><time>2026-05-03T18:16:30Z</time></trkpt><trkpt lat="41.51826160732621" lon="-1.0321959477101312"><ele>362.0</ele><time>2026-05-03T18:16:31Z</time></trkpt><trkpt lat="41.51834923159763" lon="-1.032091144710436"><ele>362.0</ele><time>2026-05-03T18:16:32Z</time></trkpt><trkpt lat="41.518439014283096" lon="-1.0319841803363408"><ele>362.0</ele><time>2026-05-03T18:16:33Z</time></trkpt><trkpt lat="41.51852388060906" lon="-1.031876183273711"><ele>362.0</ele><time>2026-05-03T18:16:34Z</time></trkpt><trkpt lat="41.518608390352334" lon="-1.031767306824885"><ele>362.0</ele><time>2026-05-03T18:16:35Z</time></trkpt><trkpt lat="41.518696871634795" lon="-1.0316609428548613"><ele>361.75</ele><time>2026-05-03T18:16:36Z</time></trkpt><trkpt lat="41.51878304197951" lon="-1.0315508913659666"><ele>361.5</ele><time>2026-05-03T18:16:37Z</time></trkpt><trkpt lat="41.51887159620132" lon="-1.0314420925799372"><ele>361.25</ele><time>2026-05-03T18:16:38Z</time></trkpt><trkpt lat="41.518959273405635" lon="-1.0313373630320706"><ele>361.0</ele><time>2026-05-03T18:16:39Z</time></trkpt><trkpt lat="41.519050444321906" lon="-1.0312307560581084"><ele>361.0</ele><time>2026-05-03T18:16:40Z</time></trkpt><trkpt lat="41.51913967789849" lon="-1.031125740731177"><ele>361.0</ele><time>2026-05-03T18:16:41Z</time></trkpt><trkpt lat="41.519225190857675" lon="-1.0310249216474907"><ele>361.0</ele><time>2026-05-03T18:16:42Z</time></trkpt><trkpt lat="41.5193123308659" lon="-1.0309182226170062"><ele>361.0</ele><time>2026-05-03T18:16:43Z</time></trkpt><trkpt lat="41.51940006372372" lon="-1.0308116352419172"><ele>361.0</ele><time>2026-05-03T18:16:44Z</time></trkpt><trkpt lat="41.51948838224133" lon="-1.0307087003797606"><ele>361.0</ele><time>2026-05-03T18:16:45Z</time></trkpt><trkpt lat="41.51957568909475" lon="-1.0306043363919482"><ele>361.0</ele><time>2026-05-03T18:16:46Z</time></trkpt><trkpt lat="41.519665307389154" lon="-1.0304987816310824"><ele>361.0</ele><time>2026-05-03T18:16:47Z</time></trkpt><trkpt lat="41.519754758569526" lon="-1.030394737656571"><ele>361.0</ele><time>2026-05-03T18:16:48Z</time></trkpt><trkpt lat="41.51984254931732" lon="-1.0302931896292125"><ele>361.0</ele><time>2026-05-03T18:16:49Z</time></trkpt><trkpt lat="41.51993256379185" lon="-1.0301864081707368"><ele>361.0</ele><time>2026-05-03T18:16:50Z</time></trkpt><trkpt lat="41.52002006429977" lon="-1.0300827748435797"><ele>361.0</ele><time>2026-05-03T18:16:51Z</time></trkpt><trkpt lat="41.520109732689626" lon="-1.0299790680388927"><ele>360.5</ele><time>2026-05-03T18:16:52Z</time></trkpt><trkpt lat="41.52019835019003" lon="-1.0298765623922237"><ele>360.0</ele><time>2026-05-03T18:16:53Z</time></trkpt><trkpt lat="41.52028843042255" lon="-1.0297708120091473"><ele>359.5</ele><time>2026-05-03T18:16:54Z</time></trkpt><trkpt lat="41.52037738198204" lon="-1.0296640010172398"><ele>359.0</ele><time>2026-05-03T18:16:55Z</time></trkpt><trkpt lat="41.52046623640781" lon="-1.0295607475425554"><ele>359.0</ele><time>2026-05-03T18:16:56Z</time></trkpt><trkpt lat="41.52055597331892" lon="-1.0294583632677423"><ele>359.0</ele><time>2026-05-03T18:16:57Z</time></trkpt><trkpt lat="41.52064821316421" lon="-1.0293560388191432"><ele>359.0</ele><time>2026-05-03T18:16:58Z</time></trkpt><trkpt lat="41.52074009742003" lon="-1.0292501268265262"><ele>359.0</ele><time>2026-05-03T18:16:59Z</time></trkpt><trkpt lat="41.520826626473216" lon="-1.0291498558826573"><ele>357.75</ele><time>2026-05-03T18:17:00Z</time></trkpt><trkpt lat="41.52091731689116" lon="-1.0290425507369332"><ele>356.5</ele><time>2026-05-03T18:17:01Z</time></trkpt><trkpt lat="41.521004379099544" lon="-1.0289405672653296"><ele>355.25</ele><time>2026-05-03T18:17:02Z</time></trkpt><trkpt lat="41.52109452012231" lon="-1.0288361034554532"><ele>354.0</ele><time>2026-05-03T18:17:03Z</time></trkpt><trkpt lat="41.521183224610866" lon="-1.0287313373618312"><ele>354.5</ele><time>2026-05-03T18:17:04Z</time></trkpt><trkpt lat="41.521272995999645" lon="-1.0286239376842996"><ele>355.0</ele><time>2026-05-03T18:17:05Z</time></trkpt><trkpt lat="41.52136018098996" lon="-1.0285222917309633"><ele>355.5</ele><time>2026-05-03T18:17:06Z</time></trkpt><trkpt lat="41.521449433244776" lon="-1.0284200379995705"><ele>356.0</ele><time>2026-05-03T18:17:07Z</time></trkpt><trkpt lat="41.52153822648831" lon="-1.028315437408371"><ele>355.5</ele><time>2026-05-03T18:17:08Z</time></trkpt><trkpt lat="41.52162629802428" lon="-1.0282122189610856"><ele>355.0</ele><time>2026-05-03T18:17:09Z</time></trkpt><trkpt lat="41.5217155733802" lon="-1.0281048231190917"><ele>354.5</ele><time>2026-05-03T18:17:10Z</time></trkpt><trkpt lat="41.52180255774521" lon="-1.02799872396302"><ele>354.0</ele><time>2026-05-03T18:17:11Z</time></trkpt><trkpt lat="41.52189255388953" lon="-1.0278978544745703"><ele>354.0</ele><time>2026-05-03T18:17:12.001Z</time></trkpt><trkpt lat="41.52198161588381" lon="-1.0277928892799113"><ele>354.0</ele><time>2026-05-03T18:17:13.001Z</time></trkpt><trkpt lat="41.52206771003637" lon="-1.02768930592753"><ele>354.0</ele><time>2026-05-03T18:17:14.001Z</time></trkpt><trkpt lat="41.522155572164415" lon="-1.0275847942218521"><ele>354.0</ele><time>2026-05-03T18:17:15.001Z</time></trkpt><trkpt lat="41.52224184116547" lon="-1.0274825583101792"><ele>353.75</ele><time>2026-05-03T18:17:16.001Z</time></trkpt><trkpt lat="41.52232712049869" lon="-1.0273835828389493"><ele>353.5</ele><time>2026-05-03T18:17:17.001Z</time></trkpt><trkpt lat="41.52241224653791" lon="-1.0272806032159751"><ele>353.25</ele><time>2026-05-03T18:17:18.001Z</time></trkpt><trkpt lat="41.522495763086006" lon="-1.0271790663686227"><ele>353.0</ele><time>2026-05-03T18:17:19.001Z</time></trkpt><trkpt lat="41.52258151629011" lon="-1.0270772889603297"><ele>353.0</ele><time>2026-05-03T18:17:20.001Z</time></trkpt><trkpt lat="41.5226658861534" lon="-1.0269806524897678"><ele>353.0</ele><time>2026-05-03T18:17:21.001Z</time></trkpt><trkpt lat="41.52275301529255" lon="-1.0268755278360313"><ele>353.0</ele><time>2026-05-03T18:17:22.001Z</time></trkpt><trkpt lat="41.52283395547817" lon="-1.0267820440272288"><ele>353.0</ele><time>2026-05-03T18:17:23.001Z</time></trkpt><trkpt lat="41.52291668956738" lon="-1.0266726294348714"><ele>352.75</ele><time>2026-05-03T18:17:24.001Z</time></trkpt><trkpt lat="41.522995595728744" lon="-1.0265630035632949"><ele>352.5</ele><time>2026-05-03T18:17:25.001Z</time></trkpt><trkpt lat="41.52307567645201" lon="-1.0264498644344258"><ele>352.25</ele><time>2026-05-03T18:17:26.001Z</time></trkpt><trkpt lat="41.52315269527522" lon="-1.0263389257382605"><ele>352.0</ele><time>2026-05-03T18:17:27.001Z</time></trkpt><trkpt lat="41.52322931578214" lon="-1.0262268110991257"><ele>352.0</ele><time>2026-05-03T18:17:28.001Z</time></trkpt><trkpt lat="41.52330783695412" lon="-1.0261101353982829"><ele>352.0</ele><time>2026-05-03T18:17:29.001Z</time></trkpt><trkpt lat="41.52338116055594" lon="-1.025991051765467"><ele>352.0</ele><time>2026-05-03T18:17:30.001Z</time></trkpt><trkpt lat="41.52345048012933" lon="-1.0258673276086638"><ele>352.0</ele><time>2026-05-03T18:17:31.001Z</time></trkpt><trkpt lat="41.52352027346159" lon="-1.0257453227964617"><ele>352.25</ele><time>2026-05-03T18:17:32.001Z</time></trkpt><trkpt lat="41.52358634891085" lon="-1.0256192017318282"><ele>352.5</ele><time>2026-05-03T18:17:33.001Z</time></trkpt><trkpt lat="41.523652968087355" lon="-1.025497755736042"><ele>352.75</ele><time>2026-05-03T18:17:34.001Z</time></trkpt><trkpt lat="41.52371563574004" lon="-1.0253700417002165"><ele>353.0</ele><time>2026-05-03T18:17:35.001Z</time></trkpt><trkpt lat="41.52378062771352" lon="-1.025240884379211"><ele>353.0</ele><time>2026-05-03T18:17:36.001Z</time></trkpt><trkpt lat="41.523843627879856" lon="-1.025111448936053"><ele>353.0</ele><time>2026-05-03T18:17:37.001Z</time></trkpt><trkpt lat="41.523902844294255" lon="-1.024979171463777"><ele>353.0</ele><time>2026-05-03T18:17:38.001Z</time></trkpt><trkpt lat="41.523960975769604" lon="-1.0248500313388493"><ele>353.0</ele><time>2026-05-03T18:17:39.001Z</time></trkpt><trkpt lat="41.524020040305984" lon="-1.024717184543117"><ele>353.0</ele><time>2026-05-03T18:17:40.001Z</time></trkpt><trkpt lat="41.52407620947285" lon="-1.0245834397005664"><ele>353.0</ele><time>2026-05-03T18:17:41.001Z</time></trkpt><trkpt lat="41.524133132735514" lon="-1.02445035256406"><ele>353.0</ele><time>2026-05-03T18:17:42.001Z</time></trkpt><trkpt lat="41.524190059324454" lon="-1.0243198712615893"><ele>353.0</ele><time>2026-05-03T18:17:43.001Z</time></trkpt><trkpt lat="41.52424957827769" lon="-1.0241895903392588"><ele>352.5</ele><time>2026-05-03T18:17:44.001Z</time></trkpt><trkpt lat="41.5243084868367" lon="-1.024056429321748"><ele>352.0</ele><time>2026-05-03T18:17:45.001Z</time></trkpt><trkpt lat="41.52436497538913" lon="-1.0239240381406205"><ele>351.5</ele><time>2026-05-03T18:17:46.001Z</time></trkpt><trkpt lat="41.524420374854245" lon="-1.0237904188559803"><ele>351.0</ele><time>2026-05-03T18:17:47.001Z</time></trkpt><trkpt lat="41.52447858367696" lon="-1.0236565625158551"><ele>351.0</ele><time>2026-05-03T18:17:48.001Z</time></trkpt><trkpt lat="41.52453508600455" lon="-1.023523863572486"><ele>351.0</ele><time>2026-05-03T18:17:49.001Z</time></trkpt><trkpt lat="41.52459281733198" lon="-1.0233937699299331"><ele>351.0</ele><time>2026-05-03T18:17:50.001Z</time></trkpt><trkpt lat="41.52464927194017" lon="-1.0232658680731033"><ele>351.0</ele><time>2026-05-03T18:17:51.001Z</time></trkpt><trkpt lat="41.52470846860521" lon="-1.0231320758462974"><ele>352.0</ele><time>2026-05-03T18:17:52.001Z</time></trkpt><trkpt lat="41.5247654453597" lon="-1.0229989682499623"><ele>353.0</ele><time>2026-05-03T18:17:53.001Z</time></trkpt><trkpt lat="41.5248200670357" lon="-1.0228690140669932"><ele>354.0</ele><time>2026-05-03T18:17:54.001Z</time></trkpt><trkpt lat="41.52487385295157" lon="-1.0227323892682265"><ele>355.0</ele><time>2026-05-03T18:17:55.001Z</time></trkpt><trkpt lat="41.524927673361816" lon="-1.0225999954159333"><ele>354.0</ele><time>2026-05-03T18:17:56.001Z</time></trkpt><trkpt lat="41.52498506520558" lon="-1.0224643872015116"><ele>353.0</ele><time>2026-05-03T18:17:57.001Z</time></trkpt><trkpt lat="41.525041114386696" lon="-1.0223329028370647"><ele>352.0</ele><time>2026-05-03T18:17:58.001Z</time></trkpt><trkpt lat="41.52509991047922" lon="-1.022197810246875"><ele>351.0</ele><time>2026-05-03T18:17:59.001Z</time></trkpt><trkpt lat="41.52515872844779" lon="-1.0220621868297564"><ele>351.0</ele><time>2026-05-03T18:18:00.001Z</time></trkpt><trkpt lat="41.52521654726942" lon="-1.0219262361388426"><ele>351.0</ele><time>2026-05-03T18:18:01.001Z</time></trkpt><trkpt lat="41.52527282081878" lon="-1.0217916432924976"><ele>351.0</ele><time>2026-05-03T18:18:02.001Z</time></trkpt><trkpt lat="41.525329424321924" lon="-1.0216548064049444"><ele>351.0</ele><time>2026-05-03T18:18:03.001Z</time></trkpt><trkpt lat="41.52538771403776" lon="-1.0215151849554867"><ele>351.25</ele><time>2026-05-03T18:18:04.001Z</time></trkpt><trkpt lat="41.52544577927305" lon="-1.0213798436896384"><ele>351.5</ele><time>2026-05-03T18:18:05.001Z</time></trkpt><trkpt lat="41.525502344624435" lon="-1.021244836358832"><ele>351.75</ele><time>2026-05-03T18:18:06.001Z</time></trkpt><trkpt lat="41.525560222405325" lon="-1.0211067741914313"><ele>352.0</ele><time>2026-05-03T18:18:07.001Z</time></trkpt><trkpt lat="41.525616093829264" lon="-1.0209718280149187"><ele>352.0</ele><time>2026-05-03T18:18:08.001Z</time></trkpt><trkpt lat="41.52567316650361" lon="-1.0208369273021791"><ele>352.0</ele><time>2026-05-03T18:18:09.001Z</time></trkpt><trkpt lat="41.5257297936337" lon="-1.0207020571923253"><ele>352.0</ele><time>2026-05-03T18:18:10.001Z</time></trkpt><trkpt lat="41.52578674456762" lon="-1.020565872027447"><ele>352.0</ele><time>2026-05-03T18:18:11.001Z</time></trkpt><trkpt lat="41.52584368839267" lon="-1.0204330087951636"><ele>351.5</ele><time>2026-05-03T18:18:12.001Z</time></trkpt><trkpt lat="41.52590033238733" lon="-1.0202988492510057"><ele>351.0</ele><time>2026-05-03T18:18:13.001Z</time></trkpt><trkpt lat="41.525956902698574" lon="-1.0201645119847889"><ele>350.5</ele><time>2026-05-03T18:18:14Z</time></trkpt><trkpt lat="41.52601206279956" lon="-1.0200321163180863"><ele>350.0</ele><time>2026-05-03T18:18:15Z</time></trkpt><trkpt lat="41.5260703693719" lon="-1.019900744813233"><ele>349.0</ele><time>2026-05-03T18:18:16Z</time></trkpt><trkpt lat="41.52612638480836" lon="-1.019767587524796"><ele>348.0</ele><time>2026-05-03T18:18:17Z</time></trkpt><trkpt lat="41.52618023847805" lon="-1.0196364016733437"><ele>347.0</ele><time>2026-05-03T18:18:18Z</time></trkpt><trkpt lat="41.52623635720355" lon="-1.019515354718683"><ele>346.0</ele><time>2026-05-03T18:18:19Z</time></trkpt><trkpt lat="41.52629376741939" lon="-1.0193745180697602"><ele>346.8</ele><time>2026-05-03T18:18:20Z</time></trkpt><trkpt lat="41.52634219568866" lon="-1.019241116694885"><ele>347.6</ele><time>2026-05-03T18:18:21Z</time></trkpt><trkpt lat="41.52639390589935" lon="-1.0191194119789801"><ele>348.4</ele><time>2026-05-03T18:18:22Z</time></trkpt><trkpt lat="41.52645462998142" lon="-1.0189911629934398"><ele>349.2</ele><time>2026-05-03T18:18:23Z</time></trkpt><trkpt lat="41.5265147206558" lon="-1.018867876478654"><ele>350.0</ele><time>2026-05-03T18:18:24Z</time></trkpt><trkpt lat="41.52657040466953" lon="-1.0187401656194464"><ele>350.0</ele><time>2026-05-03T18:18:25Z</time></trkpt><trkpt lat="41.526621633233184" lon="-1.0186119474744268"><ele>350.0</ele><time>2026-05-03T18:18:26Z</time></trkpt><trkpt lat="41.52669589806134" lon="-1.0184860975464232"><ele>350.0</ele><time>2026-05-03T18:18:27Z</time></trkpt><trkpt lat="41.52677500080758" lon="-1.0183403206968906"><ele>350.0</ele><time>2026-05-03T18:18:28Z</time></trkpt><trkpt lat="41.52682526437441" lon="-1.0182287242709065"><ele>349.4</ele><time>2026-05-03T18:18:29Z</time></trkpt><trkpt lat="41.52686057219429" lon="-1.0181072398064064"><ele>348.8</ele><time>2026-05-03T18:18:30Z</time></trkpt><trkpt lat="41.526919352786436" lon="-1.017977940764808"><ele>348.20000000000005</ele><time>2026-05-03T18:18:31Z</time></trkpt><trkpt lat="41.52697594147086" lon="-1.0178509516330356"><ele>347.6</ele><time>2026-05-03T18:18:32Z</time></trkpt><trkpt lat="41.52703492748165" lon="-1.0177200054539859"><ele>347.0</ele><time>2026-05-03T18:18:33Z</time></trkpt><trkpt lat="41.527092756693975" lon="-1.0175907068716512"><ele>348.0</ele><time>2026-05-03T18:18:34Z</time></trkpt><trkpt lat="41.52715316744361" lon="-1.0174630294882316"><ele>349.0</ele><time>2026-05-03T18:18:35Z</time></trkpt><trkpt lat="41.52721428803782" lon="-1.0173388586854293"><ele>350.0</ele><time>2026-05-03T18:18:36Z</time></trkpt><trkpt lat="41.52727584259423" lon="-1.0172112764183545"><ele>351.0</ele><time>2026-05-03T18:18:37Z</time></trkpt><trkpt lat="41.52733670147715" lon="-1.0170825278792541"><ele>351.0</ele><time>2026-05-03T18:18:38Z</time></trkpt><trkpt lat="41.52739852098437" lon="-1.0169553335387536"><ele>351.0</ele><time>2026-05-03T18:18:39Z</time></trkpt><trkpt lat="41.527454332417754" lon="-1.0168258817295046"><ele>351.0</ele><time>2026-05-03T18:18:40Z</time></trkpt><trkpt lat="41.527509151566754" lon="-1.0167005590799307"><ele>351.0</ele><time>2026-05-03T18:18:41Z</time></trkpt><trkpt lat="41.52756306362079" lon="-1.0165657583744239"><ele>351.0</ele><time>2026-05-03T18:18:42Z</time></trkpt><trkpt lat="41.52761409957166" lon="-1.0164296274772335"><ele>350.5</ele><time>2026-05-03T18:18:43Z</time></trkpt><trkpt lat="41.52765544740694" lon="-1.0162890175677064"><ele>350.0</ele><time>2026-05-03T18:18:44Z</time></trkpt><trkpt lat="41.527690702096535" lon="-1.016142582193545"><ele>349.5</ele><time>2026-05-03T18:18:45Z</time></trkpt><trkpt lat="41.527711066531865" lon="-1.0159953174343477"><ele>349.0</ele><time>2026-05-03T18:18:46Z</time></trkpt><trkpt lat="41.527732003854105" lon="-1.015850992666616"><ele>348.4</ele><time>2026-05-03T18:18:47Z</time></trkpt><trkpt lat="41.52775327130493" lon="-1.0157052794648553"><ele>347.79999999999995</ele><time>2026-05-03T18:18:48Z</time></trkpt><trkpt lat="41.527772862856025" lon="-1.0155573907201692"><ele>347.20000000000005</ele><time>2026-05-03T18:18:49Z</time></trkpt><trkpt lat="41.52779264688601" lon="-1.0154097566259246"><ele>346.6</ele><time>2026-05-03T18:18:50Z</time></trkpt><trkpt lat="41.52781618566029" lon="-1.015261324386252"><ele>346.0</ele><time>2026-05-03T18:18:51Z</time></trkpt><trkpt lat="41.52783674864529" lon="-1.0151119951872234"><ele>345.25</ele><time>2026-05-03T18:18:52Z</time></trkpt><trkpt lat="41.52786933099322" lon="-1.0149675612950484"><ele>344.5</ele><time>2026-05-03T18:18:53Z</time></trkpt><trkpt lat="41.527903621737124" lon="-1.0148180205363457"><ele>343.75</ele><time>2026-05-03T18:18:54Z</time></trkpt><trkpt lat="41.52794069505222" lon="-1.0146692215216158"><ele>343.0</ele><time>2026-05-03T18:18:55Z</time></trkpt><trkpt lat="41.52797738122919" lon="-1.01451834253512"><ele>344.75</ele><time>2026-05-03T18:18:56Z</time></trkpt><trkpt lat="41.52801716112739" lon="-1.0143702905101855"><ele>346.5</ele><time>2026-05-03T18:18:57Z</time></trkpt><trkpt lat="41.52805449783481" lon="-1.0142226469006481"><ele>348.25</ele><time>2026-05-03T18:18:58Z</time></trkpt><trkpt lat="41.528092071358266" lon="-1.014076556954641"><ele>350.0</ele><time>2026-05-03T18:18:59Z</time></trkpt><trkpt lat="41.52813614024799" lon="-1.0139343499517666"><ele>350.0</ele><time>2026-05-03T18:19:00Z</time></trkpt><trkpt lat="41.52817439495788" lon="-1.0137898787075967"><ele>350.0</ele><time>2026-05-03T18:19:01Z</time></trkpt><trkpt lat="41.52821198315413" lon="-1.0136437349289233"><ele>350.0</ele><time>2026-05-03T18:19:02Z</time></trkpt><trkpt lat="41.528252468846524" lon="-1.01349901687358"><ele>350.0</ele><time>2026-05-03T18:19:03Z</time></trkpt><trkpt lat="41.52829136861718" lon="-1.0133535882162392"><ele>349.25</ele><time>2026-05-03T18:19:04Z</time></trkpt><trkpt lat="41.52832952127894" lon="-1.0132083627775956"><ele>348.5</ele><time>2026-05-03T18:19:05Z</time></trkpt><trkpt lat="41.528367999266735" lon="-1.0130621574628262"><ele>347.75</ele><time>2026-05-03T18:19:06Z</time></trkpt><trkpt lat="41.5284101877367" lon="-1.0129224152759773"><ele>347.0</ele><time>2026-05-03T18:19:07Z</time></trkpt><trkpt lat="41.528448564659016" lon="-1.0127786671205075"><ele>347.0</ele><time>2026-05-03T18:19:08Z</time></trkpt><trkpt lat="41.52848540057152" lon="-1.012631521791902"><ele>347.0</ele><time>2026-05-03T18:19:09Z</time></trkpt><trkpt lat="41.528528473572884" lon="-1.0124927416970304"><ele>347.0</ele><time>2026-05-03T18:19:10Z</time></trkpt><trkpt lat="41.52856529995483" lon="-1.012348163276343"><ele>347.0</ele><time>2026-05-03T18:19:11Z</time></trkpt><trkpt lat="41.52860572624958" lon="-1.0122064837317568"><ele>347.0</ele><time>2026-05-03T18:19:12Z</time></trkpt><trkpt lat="41.52864659107614" lon="-1.0120649081680801"><ele>347.0</ele><time>2026-05-03T18:19:13Z</time></trkpt><trkpt lat="41.52868585244883" lon="-1.011921055207262"><ele>347.0</ele><time>2026-05-03T18:19:14Z</time></trkpt><trkpt lat="41.5287250336263" lon="-1.0117782367320385"><ele>347.0</ele><time>2026-05-03T18:19:15Z</time></trkpt><trkpt lat="41.52876093583572" lon="-1.0116362150235305"><ele>347.0</ele><time>2026-05-03T18:19:16Z</time></trkpt><trkpt lat="41.52879961013376" lon="-1.0114947230931022"><ele>347.0</ele><time>2026-05-03T18:19:17Z</time></trkpt><trkpt lat="41.52883909179326" lon="-1.0113520385841708"><ele>347.0</ele><time>2026-05-03T18:19:18Z</time></trkpt><trkpt lat="41.528880566749564" lon="-1.0112112164385594"><ele>347.0</ele><time>2026-05-03T18:19:19Z</time></trkpt><trkpt lat="41.528917035179305" lon="-1.0110659077644417"><ele>347.0</ele><time>2026-05-03T18:19:20Z</time></trkpt><trkpt lat="41.52895545939014" lon="-1.0109210795730263"><ele>347.0</ele><time>2026-05-03T18:19:21Z</time></trkpt><trkpt lat="41.52899492428853" lon="-1.0107748788389284"><ele>347.0</ele><time>2026-05-03T18:19:22Z</time></trkpt><trkpt lat="41.529035441816724" lon="-1.0106257800677205"><ele>347.0</ele><time>2026-05-03T18:19:23Z</time></trkpt><trkpt lat="41.529077013887445" lon="-1.0104777156283662"><ele>345.75</ele><time>2026-05-03T18:19:24Z</time></trkpt><trkpt lat="41.52911865092816" lon="-1.0103279884194314"><ele>344.5</ele><time>2026-05-03T18:19:25Z</time></trkpt><trkpt lat="41.529161423803345" lon="-1.010177444116526"><ele>343.25</ele><time>2026-05-03T18:19:26Z</time></trkpt><trkpt lat="41.52920276725759" lon="-1.0100317033780826"><ele>342.0</ele><time>2026-05-03T18:19:27Z</time></trkpt><trkpt lat="41.5292410464605" lon="-1.0098807801788092"><ele>341.75</ele><time>2026-05-03T18:19:28Z</time></trkpt><trkpt lat="41.52927946815732" lon="-1.0097313876045881"><ele>341.5</ele><time>2026-05-03T18:19:29Z</time></trkpt><trkpt lat="41.52932042624523" lon="-1.0095865453821764"><ele>341.25</ele><time>2026-05-03T18:19:30Z</time></trkpt><trkpt lat="41.52936419941192" lon="-1.0094432327197718"><ele>341.0</ele><time>2026-05-03T18:19:31Z</time></trkpt><trkpt lat="41.52940484889396" lon="-1.0092987153487243"><ele>340.75</ele><time>2026-05-03T18:19:32Z</time></trkpt><trkpt lat="41.529446036855084" lon="-1.0091553484528628"><ele>340.5</ele><time>2026-05-03T18:19:33.001Z</time></trkpt><trkpt lat="41.5294852727488" lon="-1.0090111778980217"><ele>340.25</ele><time>2026-05-03T18:19:34.001Z</time></trkpt><trkpt lat="41.529525723466755" lon="-1.0088697909266766"><ele>340.0</ele><time>2026-05-03T18:19:35.001Z</time></trkpt><trkpt lat="41.52957055486572" lon="-1.0087323716655148"><ele>340.75</ele><time>2026-05-03T18:19:36.001Z</time></trkpt><trkpt lat="41.529611327778206" lon="-1.0085974924633947"><ele>341.5</ele><time>2026-05-03T18:19:37.001Z</time></trkpt><trkpt lat="41.52962939653106" lon="-1.00845268628393"><ele>342.25</ele><time>2026-05-03T18:19:38.001Z</time></trkpt><trkpt lat="41.52971762434106" lon="-1.0083408723246239"><ele>343.0</ele><time>2026-05-03T18:19:39.001Z</time></trkpt><trkpt lat="41.529776903792595" lon="-1.0082184876267706"><ele>343.0</ele><time>2026-05-03T18:19:40.001Z</time></trkpt><trkpt lat="41.52983933120129" lon="-1.0081015684538428"><ele>343.0</ele><time>2026-05-03T18:19:41.001Z</time></trkpt><trkpt lat="41.52990448573444" lon="-1.0079860611687295"><ele>343.0</ele><time>2026-05-03T18:19:42.001Z</time></trkpt><trkpt lat="41.52997371123694" lon="-1.007878534433618"><ele>343.0</ele><time>2026-05-03T18:19:43.001Z</time></trkpt><trkpt lat="41.5300417749236" lon="-1.0077718258006483"><ele>343.0</ele><time>2026-05-03T18:19:44.001Z</time></trkpt><trkpt lat="41.53011032525569" lon="-1.0076672101529098"><ele>343.0</ele><time>2026-05-03T18:19:45.001Z</time></trkpt><trkpt lat="41.53019138592002" lon="-1.0075646286004214"><ele>343.0</ele><time>2026-05-03T18:19:46.001Z</time></trkpt><trkpt lat="41.53027142873966" lon="-1.007466778138273"><ele>343.0</ele><time>2026-05-03T18:19:47.001Z</time></trkpt><trkpt lat="41.530353450553044" lon="-1.0073707302169064"><ele>343.0</ele><time>2026-05-03T18:19:48.001Z</time></trkpt><trkpt lat="41.53043493478518" lon="-1.0072769926300866"><ele>343.0</ele><time>2026-05-03T18:19:49.001Z</time></trkpt><trkpt lat="41.53051638378105" lon="-1.0071771841745552"><ele>344.59999999999997</ele><time>2026-05-03T18:19:50.001Z</time></trkpt><trkpt lat="41.53059769491207" lon="-1.0070761861969335"><ele>346.2</ele><time>2026-05-03T18:19:51.001Z</time></trkpt><trkpt lat="41.530681464598004" lon="-1.0069770056653988"><ele>347.8</ele><time>2026-05-03T18:19:52.001Z</time></trkpt><trkpt lat="41.530766255554916" lon="-1.0068786313343738"><ele>349.4</ele><time>2026-05-03T18:19:53.001Z</time></trkpt><trkpt lat="41.530847849846346" lon="-1.006772675768029"><ele>351.0</ele><time>2026-05-03T18:19:54.001Z</time></trkpt><trkpt lat="41.53093040853312" lon="-1.0066703376914636"><ele>351.25</ele><time>2026-05-03T18:19:55.001Z</time></trkpt><trkpt lat="41.53101323415046" lon="-1.0065689754401748"><ele>351.5</ele><time>2026-05-03T18:19:56.001Z</time></trkpt><trkpt lat="41.5310980648352" lon="-1.0064643518494454"><ele>351.75</ele><time>2026-05-03T18:19:57.001Z</time></trkpt><trkpt lat="41.53118334171372" lon="-1.006359568910309"><ele>352.0</ele><time>2026-05-03T18:19:58.001Z</time></trkpt><trkpt lat="41.53126515989967" lon="-1.0062567996537108"><ele>352.0</ele><time>2026-05-03T18:19:59.001Z</time></trkpt><trkpt lat="41.53135133907619" lon="-1.006150444542848"><ele>352.0</ele><time>2026-05-03T18:20:00.001Z</time></trkpt><trkpt lat="41.531427254564655" lon="-1.0060513637779478"><ele>352.0</ele><time>2026-05-03T18:20:01.001Z</time></trkpt><trkpt lat="41.53151392390893" lon="-1.005947228335821"><ele>352.0</ele><time>2026-05-03T18:20:02.001Z</time></trkpt><trkpt lat="41.531600431687245" lon="-1.0058431830237597"><ele>351.0</ele><time>2026-05-03T18:20:03.001Z</time></trkpt><trkpt lat="41.531688249262835" lon="-1.0057395320876992"><ele>350.0</ele><time>2026-05-03T18:20:04.001Z</time></trkpt><trkpt lat="41.53177336059751" lon="-1.0056356225997392"><ele>349.0</ele><time>2026-05-03T18:20:05.001Z</time></trkpt><trkpt lat="41.531860741005296" lon="-1.0055317425723627"><ele>348.0</ele><time>2026-05-03T18:20:06.001Z</time></trkpt><trkpt lat="41.531943533092274" lon="-1.0054262774958242"><ele>348.0</ele><time>2026-05-03T18:20:07.001Z</time></trkpt><trkpt lat="41.53202744140596" lon="-1.0053208039379322"><ele>348.0</ele><time>2026-05-03T18:20:08.001Z</time></trkpt><trkpt lat="41.532112653190524" lon="-1.0052171122119995"><ele>348.0</ele><time>2026-05-03T18:20:09.001Z</time></trkpt><trkpt lat="41.53220052540934" lon="-1.0051142275622054"><ele>348.0</ele><time>2026-05-03T18:20:10.001Z</time></trkpt><trkpt lat="41.53228391287454" lon="-1.0050102253988662"><ele>347.5</ele><time>2026-05-03T18:20:11.001Z</time></trkpt><trkpt lat="41.53236929070169" lon="-1.004905756740733"><ele>347.0</ele><time>2026-05-03T18:20:12.001Z</time></trkpt><trkpt lat="41.532455626977544" lon="-1.004800322335652"><ele>346.5</ele><time>2026-05-03T18:20:13.001Z</time></trkpt><trkpt lat="41.532542758738806" lon="-1.004693379354415"><ele>346.0</ele><time>2026-05-03T18:20:14.001Z</time></trkpt><trkpt lat="41.532631425599156" lon="-1.0045862094153837"><ele>346.0</ele><time>2026-05-03T18:20:15.001Z</time></trkpt><trkpt lat="41.53272069065599" lon="-1.0044807040860113"><ele>346.0</ele><time>2026-05-03T18:20:16.001Z</time></trkpt><trkpt lat="41.53280915561338" lon="-1.0043740342371374"><ele>346.0</ele><time>2026-05-03T18:20:17.001Z</time></trkpt><trkpt lat="41.53289357714972" lon="-1.0042689535122424"><ele>346.0</ele><time>2026-05-03T18:20:18.001Z</time></trkpt><trkpt lat="41.53297984774289" lon="-1.00416354962107"><ele>345.75</ele><time>2026-05-03T18:20:19.001Z</time></trkpt><trkpt lat="41.53306577577301" lon="-1.0040582706899834"><ele>345.5</ele><time>2026-05-03T18:20:20Z</time></trkpt><trkpt lat="41.5331521821278" lon="-1.0039546988234"><ele>345.25</ele><time>2026-05-03T18:20:21Z</time></trkpt><trkpt lat="41.53323507141958" lon="-1.00385233450162"><ele>345.0</ele><time>2026-05-03T18:20:22Z</time></trkpt><trkpt lat="41.53331626820207" lon="-1.0037483814864185"><ele>345.0</ele><time>2026-05-03T18:20:23Z</time></trkpt><trkpt lat="41.533400244128295" lon="-1.0036446267215848"><ele>345.0</ele><time>2026-05-03T18:20:24Z</time></trkpt><trkpt lat="41.53348605359228" lon="-1.0035432006292813"><ele>345.0</ele><time>2026-05-03T18:20:25Z</time></trkpt><trkpt lat="41.53357307210175" lon="-1.0034358846078135"><ele>345.0</ele><time>2026-05-03T18:20:26Z</time></trkpt><trkpt lat="41.53365478465102" lon="-1.0033297853348973"><ele>346.0</ele><time>2026-05-03T18:20:27Z</time></trkpt><trkpt lat="41.53374110505052" lon="-1.0032270292525318"><ele>347.0</ele><time>2026-05-03T18:20:28Z</time></trkpt><trkpt lat="41.53382681677258" lon="-1.0031223557426887"><ele>348.0</ele><time>2026-05-03T18:20:29Z</time></trkpt><trkpt lat="41.53390599550875" lon="-1.0030145823720207"><ele>349.0</ele><time>2026-05-03T18:20:30Z</time></trkpt><trkpt lat="41.533985384647245" lon="-1.0029006375048373"><ele>349.0</ele><time>2026-05-03T18:20:31Z</time></trkpt><trkpt lat="41.53405345955595" lon="-1.0027833131093875"><ele>349.0</ele><time>2026-05-03T18:20:32Z</time></trkpt><trkpt lat="41.53411502361053" lon="-1.002657620521063"><ele>349.0</ele><time>2026-05-03T18:20:33Z</time></trkpt><trkpt lat="41.53416813712968" lon="-1.0025215807477623"><ele>349.0</ele><time>2026-05-03T18:20:34Z</time></trkpt><trkpt lat="41.53421657086972" lon="-1.0023826014722024"><ele>347.75</ele><time>2026-05-03T18:20:35Z</time></trkpt><trkpt lat="41.534261326539486" lon="-1.002236629411002"><ele>346.5</ele><time>2026-05-03T18:20:36Z</time></trkpt><trkpt lat="41.53430353888877" lon="-1.0020924536743536"><ele>345.25</ele><time>2026-05-03T18:20:37Z</time></trkpt><trkpt lat="41.534337901661544" lon="-1.0019453026517848"><ele>344.0</ele><time>2026-05-03T18:20:38Z</time></trkpt><trkpt lat="41.534364937217184" lon="-1.001796082293224"><ele>343.5</ele><time>2026-05-03T18:20:39Z</time></trkpt><trkpt lat="41.534387693906844" lon="-1.0016453221783816"><ele>343.0</ele><time>2026-05-03T18:20:40Z</time></trkpt><trkpt lat="41.53440833690761" lon="-1.0014972583805881"><ele>342.5</ele><time>2026-05-03T18:20:41Z</time></trkpt><trkpt lat="41.534431059975134" lon="-1.0013483494259854"><ele>342.0</ele><time>2026-05-03T18:20:42Z</time></trkpt><trkpt lat="41.534453379020114" lon="-1.001203944227922"><ele>342.0</ele><time>2026-05-03T18:20:43Z</time></trkpt><trkpt lat="41.5344833875768" lon="-1.0010523941286236"><ele>342.0</ele><time>2026-05-03T18:20:44Z</time></trkpt><trkpt lat="41.534524209803884" lon="-1.0009087258982676"><ele>342.0</ele><time>2026-05-03T18:20:45Z</time></trkpt><trkpt lat="41.534573206750345" lon="-1.0007693085372504"><ele>342.0</ele><time>2026-05-03T18:20:46Z</time></trkpt><trkpt lat="41.53464116481141" lon="-1.0006405215862524"><ele>341.75</ele><time>2026-05-03T18:20:47Z</time></trkpt><trkpt lat="41.53471606948659" lon="-1.000521411948629"><ele>341.5</ele><time>2026-05-03T18:20:48Z</time></trkpt><trkpt lat="41.534798544860024" lon="-1.0004199143870514"><ele>341.25</ele><time>2026-05-03T18:20:49Z</time></trkpt><trkpt lat="41.53489472535987" lon="-1.0003319136025801"><ele>341.0</ele><time>2026-05-03T18:20:50Z</time></trkpt><trkpt lat="41.53499891620827" lon="-1.0002689908082094"><ele>341.0</ele><time>2026-05-03T18:20:51Z</time></trkpt><trkpt lat="41.535100670630335" lon="-1.000210550826304"><ele>341.0</ele><time>2026-05-03T18:20:52Z</time></trkpt><trkpt lat="41.5352051775417" lon="-1.0001621178770856"><ele>341.0</ele><time>2026-05-03T18:20:53Z</time></trkpt><trkpt lat="41.53531599713122" lon="-1.0001290617633505"><ele>341.0</ele><time>2026-05-03T18:20:54Z</time></trkpt><trkpt lat="41.53542575112088" lon="-1.0001045512935811"><ele>341.0</ele><time>2026-05-03T18:20:55Z</time></trkpt><trkpt lat="41.53553273005269" lon="-1.000072637095352"><ele>341.25</ele><time>2026-05-03T18:20:56Z</time></trkpt><trkpt lat="41.535636797731975" lon="-1.0000292156609232"><ele>341.5</ele><time>2026-05-03T18:20:57Z</time></trkpt><trkpt lat="41.53574328706595" lon="-0.9999974296820823"><ele>341.75</ele><time>2026-05-03T18:20:58Z</time></trkpt><trkpt lat="41.5358495544852" lon="-0.999958826490737"><ele>342.0</ele><time>2026-05-03T18:20:59Z</time></trkpt><trkpt lat="41.53597181010002" lon="-0.9999073505848504"><ele>342.0</ele><time>2026-05-03T18:21:00Z</time></trkpt><trkpt lat="41.53611721184478" lon="-0.9998235405667865"><ele>342.0</ele><time>2026-05-03T18:21:01Z</time></trkpt><trkpt lat="41.53626476654989" lon="-0.9997320530659471"><ele>342.0</ele><time>2026-05-03T18:21:02Z</time></trkpt><trkpt lat="41.536383823433425" lon="-0.9997683064377325"><ele>342.0</ele><time>2026-05-03T18:21:04Z</time></trkpt><trkpt lat="41.53648724653546" lon="-0.9997284214010062"><ele>342.20000000000005</ele><time>2026-05-03T18:21:05Z</time></trkpt><trkpt lat="41.536592603384015" lon="-0.9996802082476396"><ele>342.4</ele><time>2026-05-03T18:21:06Z</time></trkpt><trkpt lat="41.53668586763091" lon="-0.9996258134406271"><ele>342.6</ele><time>2026-05-03T18:21:07Z</time></trkpt><trkpt lat="41.53677219854294" lon="-0.9995655125971135"><ele>342.79999999999995</ele><time>2026-05-03T18:21:08Z</time></trkpt><trkpt lat="41.53685679264774" lon="-0.9994959999972068"><ele>343.0</ele><time>2026-05-03T18:21:09Z</time></trkpt><trkpt lat="41.53694492855205" lon="-0.9994200248953388"><ele>343.0</ele><time>2026-05-03T18:21:10Z</time></trkpt><trkpt lat="41.53702830667192" lon="-0.9993359413376983"><ele>343.0</ele><time>2026-05-03T18:21:11Z</time></trkpt><trkpt lat="41.53711969136646" lon="-0.9992533060934806"><ele>343.0</ele><time>2026-05-03T18:21:12Z</time></trkpt><trkpt lat="41.53719196057705" lon="-0.9991614096613651"><ele>343.0</ele><time>2026-05-03T18:21:13Z</time></trkpt><trkpt lat="41.53726994666405" lon="-0.999070245647185"><ele>343.0</ele><time>2026-05-03T18:21:14Z</time></trkpt><trkpt lat="41.537342090653304" lon="-0.9989793287940723"><ele>343.0</ele><time>2026-05-03T18:21:15Z</time></trkpt><trkpt lat="41.53741812544339" lon="-0.9988954869324924"><ele>343.0</ele><time>2026-05-03T18:21:16Z</time></trkpt><trkpt lat="41.53749557037983" lon="-0.9988137933679796"><ele>343.0</ele><time>2026-05-03T18:21:17Z</time></trkpt><trkpt lat="41.53757107956772" lon="-0.9987282801299667"><ele>343.0</ele><time>2026-05-03T18:21:18Z</time></trkpt><trkpt lat="41.53764222358056" lon="-0.9986334999513906"><ele>343.0</ele><time>2026-05-03T18:21:19Z</time></trkpt><trkpt lat="41.537724680208974" lon="-0.9985398962793337"><ele>343.0</ele><time>2026-05-03T18:21:20Z</time></trkpt><trkpt lat="41.537802193052876" lon="-0.9984519946875263"><ele>343.0</ele><time>2026-05-03T18:21:21Z</time></trkpt><trkpt lat="41.537877040661606" lon="-0.9983638993706841"><ele>343.0</ele><time>2026-05-03T18:21:22Z</time></trkpt><trkpt lat="41.53795342975912" lon="-0.998268595578087"><ele>343.0</ele><time>2026-05-03T18:21:23Z</time></trkpt><trkpt lat="41.53803745038287" lon="-0.9981772813112723"><ele>343.0</ele><time>2026-05-03T18:21:24Z</time></trkpt><trkpt lat="41.53812228214408" lon="-0.9980960985136914"><ele>343.4</ele><time>2026-05-03T18:21:25Z</time></trkpt><trkpt lat="41.53820109651693" lon="-0.9980082502506094"><ele>343.79999999999995</ele><time>2026-05-03T18:21:26Z</time></trkpt><trkpt lat="41.538288157284015" lon="-0.9979311944702998"><ele>344.2</ele><time>2026-05-03T18:21:27Z</time></trkpt><trkpt lat="41.53837395432925" lon="-0.9978547052426198"><ele>344.6</ele><time>2026-05-03T18:21:28Z</time></trkpt><trkpt lat="41.538456854961844" lon="-0.9977722629210921"><ele>345.0</ele><time>2026-05-03T18:21:29Z</time></trkpt><trkpt lat="41.538532445543474" lon="-0.9976941289346487"><ele>345.0</ele><time>2026-05-03T18:21:30Z</time></trkpt><trkpt lat="41.53861219743349" lon="-0.9976232631296612"><ele>345.0</ele><time>2026-05-03T18:21:31Z</time></trkpt><trkpt lat="41.538698348475386" lon="-0.9975594932655747"><ele>345.0</ele><time>2026-05-03T18:21:32Z</time></trkpt><trkpt lat="41.53878405607196" lon="-0.9974975479723568"><ele>345.0</ele><time>2026-05-03T18:21:33Z</time></trkpt><trkpt lat="41.53887220584035" lon="-0.997426588710387"><ele>345.0</ele><time>2026-05-03T18:21:34Z</time></trkpt><trkpt lat="41.53895770527396" lon="-0.9973533613478563"><ele>345.0</ele><time>2026-05-03T18:21:35Z</time></trkpt><trkpt lat="41.539042561830286" lon="-0.9972782576100023"><ele>345.0</ele><time>2026-05-03T18:21:36Z</time></trkpt><trkpt lat="41.53913032458449" lon="-0.9972023401202429"><ele>345.0</ele><time>2026-05-03T18:21:37Z</time></trkpt><trkpt lat="41.53921987975048" lon="-0.9971268887760971"><ele>345.0</ele><time>2026-05-03T18:21:38Z</time></trkpt><trkpt lat="41.539309900334295" lon="-0.9970523128814233"><ele>345.0</ele><time>2026-05-03T18:21:39Z</time></trkpt><trkpt lat="41.539394775728105" lon="-0.9969757886847833"><ele>345.0</ele><time>2026-05-03T18:21:40Z</time></trkpt><trkpt lat="41.539474413464625" lon="-0.9969039337838367"><ele>345.0</ele><time>2026-05-03T18:21:41.001Z</time></trkpt><trkpt lat="41.53955444688466" lon="-0.9968350305908726"><ele>345.0</ele><time>2026-05-03T18:21:42.001Z</time></trkpt><trkpt lat="41.539642925659955" lon="-0.9967726430577852"><ele>345.0</ele><time>2026-05-03T18:21:43.001Z</time></trkpt><trkpt lat="41.53972933259294" lon="-0.9967077381147427"><ele>345.0</ele><time>2026-05-03T18:21:44.001Z</time></trkpt><trkpt lat="41.53981688607955" lon="-0.9966329843558561"><ele>344.5</ele><time>2026-05-03T18:21:45.001Z</time></trkpt><trkpt lat="41.5399025612993" lon="-0.9965594593725902"><ele>344.0</ele><time>2026-05-03T18:21:46.001Z</time></trkpt><trkpt lat="41.53998113699309" lon="-0.9964921847677548"><ele>343.5</ele><time>2026-05-03T18:21:47.001Z</time></trkpt><trkpt lat="41.54005235945827" lon="-0.9964265083812981"><ele>343.0</ele><time>2026-05-03T18:21:48.001Z</time></trkpt><trkpt lat="41.54011788140353" lon="-0.996361262595997"><ele>342.5</ele><time>2026-05-03T18:21:49.001Z</time></trkpt><trkpt lat="41.540183493246936" lon="-0.9963094995039101"><ele>342.0</ele><time>2026-05-03T18:21:50.001Z</time></trkpt><trkpt lat="41.54024468766756" lon="-0.996260267481241"><ele>341.99999999999994</ele><time>2026-05-03T18:21:51.001Z</time></trkpt><trkpt lat="41.54029611730965" lon="-0.9961997705038502"><ele>342.0</ele><time>2026-05-03T18:21:52.001Z</time></trkpt><trkpt lat="41.54034216765616" lon="-0.996131574371775"><ele>342.0</ele><time>2026-05-03T18:21:53.001Z</time></trkpt><trkpt lat="41.54039160735037" lon="-0.9960667130327326"><ele>342.0</ele><time>2026-05-03T18:21:54.001Z</time></trkpt><trkpt lat="41.540452706853856" lon="-0.9960242526079688"><ele>342.0</ele><time>2026-05-03T18:21:55.001Z</time></trkpt><trkpt lat="41.540522609963745" lon="-0.9959997157996204"><ele>341.99999999999994</ele><time>2026-05-03T18:21:56.001Z</time></trkpt><trkpt lat="41.540592457879846" lon="-0.9959691065075942"><ele>342.0</ele><time>2026-05-03T18:21:57.001Z</time></trkpt><trkpt lat="41.54066293336077" lon="-0.9959147518807328"><ele>342.0</ele><time>2026-05-03T18:21:58.001Z</time></trkpt><trkpt lat="41.540731733451565" lon="-0.9958530400194759"><ele>342.0</ele><time>2026-05-03T18:21:59.001Z</time></trkpt><trkpt lat="41.54080481252198" lon="-0.9957958740889798"><ele>342.0</ele><time>2026-05-03T18:22:00.001Z</time></trkpt><trkpt lat="41.54088076318626" lon="-0.9957336852907206"><ele>342.0</ele><time>2026-05-03T18:22:01.001Z</time></trkpt><trkpt lat="41.54095673458086" lon="-0.9956700966480839"><ele>342.0</ele><time>2026-05-03T18:22:02.001Z</time></trkpt><trkpt lat="41.54103518929144" lon="-0.9956052271226035"><ele>342.0</ele><time>2026-05-03T18:22:03.001Z</time></trkpt><trkpt lat="41.541113110314065" lon="-0.9955373590476841"><ele>342.0</ele><time>2026-05-03T18:22:04.001Z</time></trkpt><trkpt lat="41.541192936891406" lon="-0.9954644063239377"><ele>342.0</ele><time>2026-05-03T18:22:05.001Z</time></trkpt><trkpt lat="41.5412757959392" lon="-0.9953933530175345"><ele>342.0</ele><time>2026-05-03T18:22:06.001Z</time></trkpt><trkpt lat="41.541358535024635" lon="-0.9953276334746349"><ele>342.0</ele><time>2026-05-03T18:22:07.001Z</time></trkpt><trkpt lat="41.54144435153173" lon="-0.9952556974979878"><ele>342.0</ele><time>2026-05-03T18:22:08.001Z</time></trkpt><trkpt lat="41.54152613856137" lon="-0.9951854954047108"><ele>342.0</ele><time>2026-05-03T18:22:09.001Z</time></trkpt><trkpt lat="41.54160510182326" lon="-0.9951163951600057"><ele>342.0</ele><time>2026-05-03T18:22:10.001Z</time></trkpt><trkpt lat="41.54168624885987" lon="-0.9950483097688407"><ele>342.0</ele><time>2026-05-03T18:22:11.001Z</time></trkpt><trkpt lat="41.54176708498508" lon="-0.9949812242775897"><ele>342.0</ele><time>2026-05-03T18:22:12.001Z</time></trkpt><trkpt lat="41.541850168684796" lon="-0.9949150375492777"><ele>342.0</ele><time>2026-05-03T18:22:13.001Z</time></trkpt><trkpt lat="41.541933898859824" lon="-0.9948390671362384"><ele>341.8</ele><time>2026-05-03T18:22:14.001Z</time></trkpt><trkpt lat="41.54202242354605" lon="-0.994772272406263"><ele>341.6</ele><time>2026-05-03T18:22:15.001Z</time></trkpt><trkpt lat="41.542108281834416" lon="-0.9947024172132848"><ele>341.40000000000003</ele><time>2026-05-03T18:22:16.001Z</time></trkpt><trkpt lat="41.542198363486605" lon="-0.9946294520720056"><ele>341.20000000000005</ele><time>2026-05-03T18:22:17.001Z</time></trkpt><trkpt lat="41.54228439403548" lon="-0.9945575651019353"><ele>341.0</ele><time>2026-05-03T18:22:18.001Z</time></trkpt><trkpt lat="41.54237556235848" lon="-0.994475404514448"><ele>341.0</ele><time>2026-05-03T18:22:19.001Z</time></trkpt><trkpt lat="41.54246082501974" lon="-0.9943952559952065"><ele>341.0</ele><time>2026-05-03T18:22:20.001Z</time></trkpt><trkpt lat="41.54254884439452" lon="-0.9943031098039695"><ele>341.0</ele><time>2026-05-03T18:22:21.001Z</time></trkpt><trkpt lat="41.54263294670184" lon="-0.9942103804738966"><ele>341.0</ele><time>2026-05-03T18:22:22.001Z</time></trkpt><trkpt lat="41.54272698343184" lon="-0.9941127983892912"><ele>341.0</ele><time>2026-05-03T18:22:23.001Z</time></trkpt><trkpt lat="41.54280335101502" lon="-0.9940290523998366"><ele>341.25</ele><time>2026-05-03T18:22:24.001Z</time></trkpt><trkpt lat="41.542888564338746" lon="-0.9939273469820389"><ele>341.5</ele><time>2026-05-03T18:22:25.001Z</time></trkpt><trkpt lat="41.542980140457956" lon="-0.9938312524680131"><ele>341.75</ele><time>2026-05-03T18:22:26Z</time></trkpt><trkpt lat="41.54306592769352" lon="-0.9937307547577735"><ele>342.0</ele><time>2026-05-03T18:22:27Z</time></trkpt><trkpt lat="41.54314825319705" lon="-0.9936236969554083"><ele>342.0</ele><time>2026-05-03T18:22:28Z</time></trkpt><trkpt lat="41.54322897036083" lon="-0.9935109532229331"><ele>342.0</ele><time>2026-05-03T18:22:29Z</time></trkpt><trkpt lat="41.54330612737673" lon="-0.9933975539608939"><ele>342.0</ele><time>2026-05-03T18:22:30Z</time></trkpt><trkpt lat="41.54338114763519" lon="-0.9932845456189034"><ele>342.0</ele><time>2026-05-03T18:22:31Z</time></trkpt><trkpt lat="41.54345450785341" lon="-0.9931670161379041"><ele>341.5</ele><time>2026-05-03T18:22:32Z</time></trkpt><trkpt lat="41.54352669761281" lon="-0.9930447143801425"><ele>341.0</ele><time>2026-05-03T18:22:33Z</time></trkpt><trkpt lat="41.54359529180381" lon="-0.9929192757762798"><ele>340.5</ele><time>2026-05-03T18:22:34Z</time></trkpt><trkpt lat="41.54365896677058" lon="-0.9927921210246919"><ele>340.0</ele><time>2026-05-03T18:22:35Z</time></trkpt><trkpt lat="41.543723955377295" lon="-0.9926624436804287"><ele>340.0</ele><time>2026-05-03T18:22:36Z</time></trkpt><trkpt lat="41.5437812899756" lon="-0.9925313025974257"><ele>340.0</ele><time>2026-05-03T18:22:37Z</time></trkpt><trkpt lat="41.543831089606" lon="-0.9923887710447339"><ele>340.0</ele><time>2026-05-03T18:22:38Z</time></trkpt><trkpt lat="41.543874747850346" lon="-0.9922461784898088"><ele>340.0</ele><time>2026-05-03T18:22:39Z</time></trkpt><trkpt lat="41.543926608929674" lon="-0.9921069211293236"><ele>339.25</ele><time>2026-05-03T18:22:40Z</time></trkpt><trkpt lat="41.543981521891304" lon="-0.9919671090847108"><ele>338.5</ele><time>2026-05-03T18:22:41Z</time></trkpt><trkpt lat="41.54403195747933" lon="-0.9918289949009035"><ele>337.75</ele><time>2026-05-03T18:22:42Z</time></trkpt><trkpt lat="41.54408117929487" lon="-0.9916899904071869"><ele>337.0</ele><time>2026-05-03T18:22:43Z</time></trkpt><trkpt lat="41.54412456283811" lon="-0.9915453197805415"><ele>336.25</ele><time>2026-05-03T18:22:44Z</time></trkpt><trkpt lat="41.544163366371656" lon="-0.9914039883767388"><ele>335.5</ele><time>2026-05-03T18:22:45Z</time></trkpt><trkpt lat="41.544199767107216" lon="-0.9912593051307216"><ele>334.75</ele><time>2026-05-03T18:22:46Z</time></trkpt><trkpt lat="41.54423488406503" lon="-0.9911157659974248"><ele>334.0</ele><time>2026-05-03T18:22:47Z</time></trkpt><trkpt lat="41.54426780707459" lon="-0.9909709362382424"><ele>333.5</ele><time>2026-05-03T18:22:48Z</time></trkpt><trkpt lat="41.54429445449493" lon="-0.9908231147941846"><ele>333.0</ele><time>2026-05-03T18:22:49Z</time></trkpt><trkpt lat="41.54431316600596" lon="-0.9906726841903188"><ele>332.5</ele><time>2026-05-03T18:22:50Z</time></trkpt><trkpt lat="41.5443298971576" lon="-0.9905227716383181"><ele>332.0</ele><time>2026-05-03T18:22:51Z</time></trkpt><trkpt lat="41.54434397600777" lon="-0.9903700632849506"><ele>332.0</ele><time>2026-05-03T18:22:52Z</time></trkpt><trkpt lat="41.54435700881757" lon="-0.9902154549707323"><ele>332.0</ele><time>2026-05-03T18:22:53Z</time></trkpt><trkpt lat="41.544372303182705" lon="-0.9900671102222618"><ele>332.0</ele><time>2026-05-03T18:22:54Z</time></trkpt><trkpt lat="41.54438632624387" lon="-0.9899166005362094"><ele>332.0</ele><time>2026-05-03T18:22:55Z</time></trkpt><trkpt lat="41.54440095340297" lon="-0.9897615821267846"><ele>331.75</ele><time>2026-05-03T18:22:56Z</time></trkpt><trkpt lat="41.54441462423077" lon="-0.9896049216048126"><ele>331.5</ele><time>2026-05-03T18:22:57Z</time></trkpt><trkpt lat="41.544429107201886" lon="-0.989448869688841"><ele>331.25</ele><time>2026-05-03T18:22:58Z</time></trkpt><trkpt lat="41.54444566769047" lon="-0.9892953613115744"><ele>331.0</ele><time>2026-05-03T18:22:59Z</time></trkpt><trkpt lat="41.5444632452534" lon="-0.9891429298356547"><ele>330.5</ele><time>2026-05-03T18:23:00Z</time></trkpt><trkpt lat="41.54448297511556" lon="-0.9889876097586225"><ele>330.0</ele><time>2026-05-03T18:23:01Z</time></trkpt><trkpt lat="41.54450554810314" lon="-0.988837060226775"><ele>329.5</ele><time>2026-05-03T18:23:02Z</time></trkpt><trkpt lat="41.54453639912103" lon="-0.9886867703536737"><ele>329.0</ele><time>2026-05-03T18:23:03Z</time></trkpt><trkpt lat="41.54456613489232" lon="-0.9885376484126602"><ele>328.75</ele><time>2026-05-03T18:23:04Z</time></trkpt><trkpt lat="41.54459682255034" lon="-0.9883908715792074"><ele>328.5</ele><time>2026-05-03T18:23:05Z</time></trkpt><trkpt lat="41.54463388910729" lon="-0.9882433093178815"><ele>328.25</ele><time>2026-05-03T18:23:06Z</time></trkpt><trkpt lat="41.544673917505904" lon="-0.9881009135270206"><ele>328.0</ele><time>2026-05-03T18:23:07Z</time></trkpt><trkpt lat="41.54471899322866" lon="-0.98795669759554"><ele>328.0</ele><time>2026-05-03T18:23:08Z</time></trkpt><trkpt lat="41.5447656449836" lon="-0.9878148647866591"><ele>328.0</ele><time>2026-05-03T18:23:09Z</time></trkpt><trkpt lat="41.544815672183965" lon="-0.987674527023494"><ele>328.0</ele><time>2026-05-03T18:23:10Z</time></trkpt><trkpt lat="41.54487044139754" lon="-0.9875365135588927"><ele>328.0</ele><time>2026-05-03T18:23:11Z</time></trkpt><trkpt lat="41.54492579915275" lon="-0.9873991820901754"><ele>326.75</ele><time>2026-05-03T18:23:12Z</time></trkpt><trkpt lat="41.54498502455545" lon="-0.9872656954076809"><ele>325.5</ele><time>2026-05-03T18:23:13Z</time></trkpt><trkpt lat="41.54504545041294" lon="-0.9871338053154687"><ele>324.25</ele><time>2026-05-03T18:23:14Z</time></trkpt><trkpt lat="41.54510950113234" lon="-0.9870049400079715"><ele>323.0</ele><time>2026-05-03T18:23:15Z</time></trkpt><trkpt lat="41.54517406102079" lon="-0.9868796999882117"><ele>323.0</ele><time>2026-05-03T18:23:16Z</time></trkpt><trkpt lat="41.545240609369586" lon="-0.9867536146289324"><ele>323.0</ele><time>2026-05-03T18:23:17Z</time></trkpt><trkpt lat="41.54531109913299" lon="-0.9866298777874561"><ele>323.0</ele><time>2026-05-03T18:23:18Z</time></trkpt><trkpt lat="41.5453830820206" lon="-0.986508733546809"><ele>323.0</ele><time>2026-05-03T18:23:19Z</time></trkpt><trkpt lat="41.54545739441485" lon="-0.9863888289616884"><ele>324.0</ele><time>2026-05-03T18:23:20Z</time></trkpt><trkpt lat="41.5455301125847" lon="-0.9862686505256294"><ele>325.0</ele><time>2026-05-03T18:23:21Z</time></trkpt><trkpt lat="41.545602626603454" lon="-0.9861482020382505"><ele>326.0</ele><time>2026-05-03T18:23:22Z</time></trkpt><trkpt lat="41.54567756961567" lon="-0.9860252593139367"><ele>327.0</ele><time>2026-05-03T18:23:23Z</time></trkpt><trkpt lat="41.545749657730155" lon="-0.9859056722489423"><ele>326.5</ele><time>2026-05-03T18:23:24Z</time></trkpt><trkpt lat="41.545821858067086" lon="-0.9857814996467379"><ele>326.0</ele><time>2026-05-03T18:23:25Z</time></trkpt><trkpt lat="41.54589287747044" lon="-0.9856594510955874"><ele>325.5</ele><time>2026-05-03T18:23:26Z</time></trkpt><trkpt lat="41.54596391441044" lon="-0.985540627696812"><ele>325.0</ele><time>2026-05-03T18:23:27Z</time></trkpt><trkpt lat="41.546038821344894" lon="-0.9854212907466215"><ele>325.0</ele><time>2026-05-03T18:23:28Z</time></trkpt><trkpt lat="41.54610800739638" lon="-0.9853008297499339"><ele>325.0</ele><time>2026-05-03T18:23:29.001Z</time></trkpt><trkpt lat="41.54618100638435" lon="-0.9851816586250466"><ele>325.0</ele><time>2026-05-03T18:23:30.001Z</time></trkpt><trkpt lat="41.546252871934655" lon="-0.9850633033419492"><ele>325.0</ele><time>2026-05-03T18:23:31.001Z</time></trkpt><trkpt lat="41.54632398974714" lon="-0.9849453669938716"><ele>325.0</ele><time>2026-05-03T18:23:32.001Z</time></trkpt><trkpt lat="41.54639845807064" lon="-0.9848217028895673"><ele>325.0</ele><time>2026-05-03T18:23:33.001Z</time></trkpt><trkpt lat="41.54646661815953" lon="-0.9847034146442043"><ele>325.0</ele><time>2026-05-03T18:23:34.001Z</time></trkpt><trkpt lat="41.54653645767777" lon="-0.9845827782997447"><ele>325.0</ele><time>2026-05-03T18:23:35.001Z</time></trkpt><trkpt lat="41.54661022614636" lon="-0.9844632664685107"><ele>325.0</ele><time>2026-05-03T18:23:36.001Z</time></trkpt><trkpt lat="41.546681912364825" lon="-0.984343559131743"><ele>325.0</ele><time>2026-05-03T18:23:37.001Z</time></trkpt><trkpt lat="41.546754775391236" lon="-0.9842222735048268"><ele>325.0</ele><time>2026-05-03T18:23:38.001Z</time></trkpt><trkpt lat="41.54682860686346" lon="-0.9841008121093315"><ele>325.0</ele><time>2026-05-03T18:23:39.001Z</time></trkpt><trkpt lat="41.5469007536719" lon="-0.9839815973424549"><ele>325.75</ele><time>2026-05-03T18:23:40.001Z</time></trkpt><trkpt lat="41.5469727747047" lon="-0.9838606886907774"><ele>326.5</ele><time>2026-05-03T18:23:41.001Z</time></trkpt><trkpt lat="41.54704465494204" lon="-0.9837413188309418"><ele>327.25</ele><time>2026-05-03T18:23:42.001Z</time></trkpt><trkpt lat="41.54711949050389" lon="-0.9836216226030711"><ele>328.0</ele><time>2026-05-03T18:23:43.001Z</time></trkpt><trkpt lat="41.54719152551651" lon="-0.9834978972371786"><ele>328.0</ele><time>2026-05-03T18:23:44.001Z</time></trkpt><trkpt lat="41.54725993328383" lon="-0.9833755586651061"><ele>328.0</ele><time>2026-05-03T18:23:45.001Z</time></trkpt><trkpt lat="41.547330298140125" lon="-0.9832565119686095"><ele>328.0</ele><time>2026-05-03T18:23:46.001Z</time></trkpt><trkpt lat="41.54740168269358" lon="-0.9831348007825993"><ele>328.0</ele><time>2026-05-03T18:23:47.001Z</time></trkpt><trkpt lat="41.54747523577468" lon="-0.9830136898904736"><ele>326.25</ele><time>2026-05-03T18:23:48.001Z</time></trkpt><trkpt lat="41.54754737038054" lon="-0.9828927756920456"><ele>324.5</ele><time>2026-05-03T18:23:49.001Z</time></trkpt><trkpt lat="41.547620286099104" lon="-0.9827690299249996"><ele>322.75</ele><time>2026-05-03T18:23:50.001Z</time></trkpt><trkpt lat="41.54769345252113" lon="-0.9826485912803727"><ele>321.0</ele><time>2026-05-03T18:23:51.001Z</time></trkpt><trkpt lat="41.54776622401162" lon="-0.982527185300731"><ele>321.75</ele><time>2026-05-03T18:23:52.001Z</time></trkpt><trkpt lat="41.54783714587762" lon="-0.9824046855457739"><ele>322.5</ele><time>2026-05-03T18:23:53.001Z</time></trkpt><trkpt lat="41.54790972069718" lon="-0.9822848834622857"><ele>323.25</ele><time>2026-05-03T18:23:54.001Z</time></trkpt><trkpt lat="41.547981582155664" lon="-0.9821623676556488"><ele>324.0</ele><time>2026-05-03T18:23:55.001Z</time></trkpt><trkpt lat="41.54805480258674" lon="-0.9820401460961319"><ele>324.0</ele><time>2026-05-03T18:23:56.001Z</time></trkpt><trkpt lat="41.54812705589679" lon="-0.9819213678945373"><ele>324.0</ele><time>2026-05-03T18:23:57.001Z</time></trkpt><trkpt lat="41.54820061254856" lon="-0.9817979944992542"><ele>324.0</ele><time>2026-05-03T18:23:58.001Z</time></trkpt><trkpt lat="41.54827250308779" lon="-0.9816774522890929"><ele>324.0</ele><time>2026-05-03T18:23:59.001Z</time></trkpt><trkpt lat="41.548343548766226" lon="-0.9815570859606771"><ele>322.5</ele><time>2026-05-03T18:24:00.001Z</time></trkpt><trkpt lat="41.548415331490574" lon="-0.9814358499852176"><ele>321.0</ele><time>2026-05-03T18:24:01.001Z</time></trkpt><trkpt lat="41.54848744864958" lon="-0.9813152610520222"><ele>319.5</ele><time>2026-05-03T18:24:02.001Z</time></trkpt><trkpt lat="41.548560711860375" lon="-0.9811947663870423"><ele>318.0</ele><time>2026-05-03T18:24:03.001Z</time></trkpt><trkpt lat="41.54863320594537" lon="-0.9810764472718003"><ele>318.0</ele><time>2026-05-03T18:24:04.001Z</time></trkpt><trkpt lat="41.54870521945544" lon="-0.9809567237019112"><ele>318.0</ele><time>2026-05-03T18:24:05.001Z</time></trkpt><trkpt lat="41.54877779748602" lon="-0.9808374713334247"><ele>318.0</ele><time>2026-05-03T18:24:06.001Z</time></trkpt><trkpt lat="41.548848773504886" lon="-0.9807167790781943"><ele>318.0</ele><time>2026-05-03T18:24:07.001Z</time></trkpt><trkpt lat="41.548920220578964" lon="-0.9805970902749864"><ele>318.5</ele><time>2026-05-03T18:24:08.001Z</time></trkpt><trkpt lat="41.5489917500216" lon="-0.9804770071134995"><ele>319.0</ele><time>2026-05-03T18:24:09.001Z</time></trkpt><trkpt lat="41.54906379349915" lon="-0.9803554962709043"><ele>319.5</ele><time>2026-05-03T18:24:10.001Z</time></trkpt><trkpt lat="41.549133603427784" lon="-0.9802341294605846"><ele>320.0</ele><time>2026-05-03T18:24:11.001Z</time></trkpt><trkpt lat="41.549204687139685" lon="-0.9801136232572072"><ele>319.25</ele><time>2026-05-03T18:24:12.001Z</time></trkpt><trkpt lat="41.549273567576066" lon="-0.9799950716307676"><ele>318.5</ele><time>2026-05-03T18:24:13.001Z</time></trkpt><trkpt lat="41.54934191398506" lon="-0.9798742878266282"><ele>317.75</ele><time>2026-05-03T18:24:14.001Z</time></trkpt><trkpt lat="41.54941161243335" lon="-0.9797526093144326"><ele>317.0</ele><time>2026-05-03T18:24:15.001Z</time></trkpt><trkpt lat="41.54948337659737" lon="-0.9796340012418424"><ele>317.25</ele><time>2026-05-03T18:24:16.001Z</time></trkpt><trkpt lat="41.54955827629686" lon="-0.9795158835701765"><ele>317.5</ele><time>2026-05-03T18:24:17.001Z</time></trkpt><trkpt lat="41.549630266501524" lon="-0.9794001948023145"><ele>317.75</ele><time>2026-05-03T18:24:18.001Z</time></trkpt><trkpt lat="41.54970122622415" lon="-0.9792819280864458"><ele>318.0</ele><time>2026-05-03T18:24:19.001Z</time></trkpt><trkpt lat="41.54977136699307" lon="-0.9791670086432075"><ele>317.25</ele><time>2026-05-03T18:24:20.001Z</time></trkpt><trkpt lat="41.54984169315566" lon="-0.9790477638853623"><ele>316.5</ele><time>2026-05-03T18:24:21.001Z</time></trkpt><trkpt lat="41.54991375512457" lon="-0.9789273917430875"><ele>315.75</ele><time>2026-05-03T18:24:22.001Z</time></trkpt><trkpt lat="41.54998657537639" lon="-0.978808780902386"><ele>315.0</ele><time>2026-05-03T18:24:23.001Z</time></trkpt><trkpt lat="41.550057491478256" lon="-0.9786904020434406"><ele>315.0</ele><time>2026-05-03T18:24:24.001Z</time></trkpt><trkpt lat="41.55012717810018" lon="-0.9785747598845449"><ele>315.0</ele><time>2026-05-03T18:24:25.001Z</time></trkpt><trkpt lat="41.550196211025636" lon="-0.9784531915276685"><ele>315.0</ele><time>2026-05-03T18:24:26.001Z</time></trkpt><trkpt lat="41.55026595095977" lon="-0.9783326497966425"><ele>315.0</ele><time>2026-05-03T18:24:27.001Z</time></trkpt><trkpt lat="41.55033898009085" lon="-0.9782117751518714"><ele>315.4</ele><time>2026-05-03T18:24:28.001Z</time></trkpt><trkpt lat="41.55041243256338" lon="-0.9780934792756159"><ele>315.8</ele><time>2026-05-03T18:24:29.001Z</time></trkpt><trkpt lat="41.550485462778376" lon="-0.9779782008312372"><ele>316.2</ele><time>2026-05-03T18:24:30.001Z</time></trkpt><trkpt lat="41.55055465874027" lon="-0.9778650689481008"><ele>316.6</ele><time>2026-05-03T18:24:31.001Z</time></trkpt><trkpt lat="41.55062165418187" lon="-0.9777485917220002"><ele>317.0</ele><time>2026-05-03T18:24:32Z</time></trkpt><trkpt lat="41.55068328543464" lon="-0.9776273009171922"><ele>316.6</ele><time>2026-05-03T18:24:33Z</time></trkpt><trkpt lat="41.55075112905975" lon="-0.9775044351044345"><ele>316.2</ele><time>2026-05-03T18:24:34Z</time></trkpt><trkpt lat="41.5508301352926" lon="-0.9774081585964559"><ele>315.8</ele><time>2026-05-03T18:24:35Z</time></trkpt><trkpt lat="41.55089995507839" lon="-0.9772976829535752"><ele>315.4</ele><time>2026-05-03T18:24:36Z</time></trkpt><trkpt lat="41.55096952596494" lon="-0.9771950612117183"><ele>315.0</ele><time>2026-05-03T18:24:37Z</time></trkpt><trkpt lat="41.551045831927354" lon="-0.9770966824984445"><ele>315.0</ele><time>2026-05-03T18:24:38Z</time></trkpt><trkpt lat="41.551127569613335" lon="-0.9770043900180504"><ele>315.0</ele><time>2026-05-03T18:24:39Z</time></trkpt><trkpt lat="41.55121116439528" lon="-0.9769184217567008"><ele>315.0</ele><time>2026-05-03T18:24:40Z</time></trkpt><trkpt lat="41.55129971257042" lon="-0.9768357072521815"><ele>315.0</ele><time>2026-05-03T18:24:41Z</time></trkpt><trkpt lat="41.55139518851071" lon="-0.9767696308717712"><ele>315.0</ele><time>2026-05-03T18:24:42Z</time></trkpt><trkpt lat="41.55149107671206" lon="-0.9767118565858294"><ele>315.4</ele><time>2026-05-03T18:24:43Z</time></trkpt><trkpt lat="41.55158908174974" lon="-0.9766510953658223"><ele>315.8</ele><time>2026-05-03T18:24:44Z</time></trkpt><trkpt lat="41.55168848813056" lon="-0.9765907095766024"><ele>316.2</ele><time>2026-05-03T18:24:45Z</time></trkpt><trkpt lat="41.55178707805734" lon="-0.9765324295934021"><ele>316.6</ele><time>2026-05-03T18:24:46Z</time></trkpt><trkpt lat="41.551891312085495" lon="-0.9764713270647247"><ele>317.0</ele><time>2026-05-03T18:24:47Z</time></trkpt><trkpt lat="41.55199315701093" lon="-0.976411731229778"><ele>317.75</ele><time>2026-05-03T18:24:48Z</time></trkpt><trkpt lat="41.55209965484493" lon="-0.9763467415921273"><ele>318.5</ele><time>2026-05-03T18:24:49Z</time></trkpt><trkpt lat="41.552205339931795" lon="-0.9762822433203331"><ele>319.25</ele><time>2026-05-03T18:24:50Z</time></trkpt><trkpt lat="41.552311403453906" lon="-0.9762190842118645"><ele>320.0</ele><time>2026-05-03T18:24:51Z</time></trkpt><trkpt lat="41.55241528564385" lon="-0.9761545583851294"><ele>320.0</ele><time>2026-05-03T18:24:52Z</time></trkpt><trkpt lat="41.55252031649003" lon="-0.9760920093940666"><ele>320.0</ele><time>2026-05-03T18:24:53Z</time></trkpt><trkpt lat="41.552622812807755" lon="-0.9760326471051395"><ele>320.0</ele><time>2026-05-03T18:24:54Z</time></trkpt><trkpt lat="41.55273201999464" lon="-0.9759694792629654"><ele>320.0</ele><time>2026-05-03T18:24:55Z</time></trkpt><trkpt lat="41.55283387986183" lon="-0.9759093036773212"><ele>319.4</ele><time>2026-05-03T18:24:56Z</time></trkpt><trkpt lat="41.552936907235775" lon="-0.9758478859794357"><ele>318.8</ele><time>2026-05-03T18:24:57Z</time></trkpt><trkpt lat="41.553038463410026" lon="-0.9757860632171254"><ele>318.2</ele><time>2026-05-03T18:24:58Z</time></trkpt><trkpt lat="41.55314204343731" lon="-0.9757246127830014"><ele>317.6</ele><time>2026-05-03T18:24:59Z</time></trkpt><trkpt lat="41.553228809123716" lon="-0.9756735650564125"><ele>317.0</ele><time>2026-05-03T18:25:00Z</time></trkpt><trkpt lat="41.55331875340489" lon="-0.9756165790575643"><ele>317.0</ele><time>2026-05-03T18:25:01Z</time></trkpt><trkpt lat="41.55339539094236" lon="-0.9755285035977886"><ele>317.0</ele><time>2026-05-03T18:25:02Z</time></trkpt><trkpt lat="41.55345717177173" lon="-0.9754062155354801"><ele>317.0</ele><time>2026-05-03T18:25:03Z</time></trkpt><trkpt lat="41.55350723649976" lon="-0.9752778666888268"><ele>317.0</ele><time>2026-05-03T18:25:04Z</time></trkpt><trkpt lat="41.553571834688" lon="-0.9751594361408001"><ele>317.0</ele><time>2026-05-03T18:25:05Z</time></trkpt><trkpt lat="41.55366346563528" lon="-0.9750880352223837"><ele>316.75</ele><time>2026-05-03T18:25:06Z</time></trkpt><trkpt lat="41.55378065663382" lon="-0.9750422396710493"><ele>316.5</ele><time>2026-05-03T18:25:07Z</time></trkpt><trkpt lat="41.55389661600318" lon="-0.975057961916978"><ele>316.25</ele><time>2026-05-03T18:25:08Z</time></trkpt><trkpt lat="41.55401034068841" lon="-0.975088090890699"><ele>316.0</ele><time>2026-05-03T18:25:09Z</time></trkpt><trkpt lat="41.55411092079386" lon="-0.9751326373929975"><ele>316.0</ele><time>2026-05-03T18:25:10Z</time></trkpt><trkpt lat="41.55422291583271" lon="-0.9751046807695506"><ele>316.0</ele><time>2026-05-03T18:25:11Z</time></trkpt><trkpt lat="41.55433844238865" lon="-0.9750432537995213"><ele>316.0</ele><time>2026-05-03T18:25:12Z</time></trkpt><trkpt lat="41.55444223180232" lon="-0.9749720131262567"><ele>316.0</ele><time>2026-05-03T18:25:13Z</time></trkpt><trkpt lat="41.55454378151864" lon="-0.9748994111152197"><ele>315.5</ele><time>2026-05-03T18:25:14Z</time></trkpt><trkpt lat="41.5546416948252" lon="-0.9748341160914704"><ele>315.0</ele><time>2026-05-03T18:25:15Z</time></trkpt><trkpt lat="41.5547514115022" lon="-0.9747737791883072"><ele>314.5</ele><time>2026-05-03T18:25:16Z</time></trkpt><trkpt lat="41.55485800686656" lon="-0.9747104578681094"><ele>314.0</ele><time>2026-05-03T18:25:17Z</time></trkpt><trkpt lat="41.55496147598482" lon="-0.9746452711679275"><ele>314.0</ele><time>2026-05-03T18:25:18Z</time></trkpt><trkpt lat="41.5550706409834" lon="-0.974582504652692"><ele>314.0</ele><time>2026-05-03T18:25:19Z</time></trkpt><trkpt lat="41.55518065571382" lon="-0.9745200529582557"><ele>314.0</ele><time>2026-05-03T18:25:20Z</time></trkpt><trkpt lat="41.55528681723694" lon="-0.9744560267372352"><ele>314.0</ele><time>2026-05-03T18:25:21Z</time></trkpt><trkpt lat="41.5553930524725" lon="-0.974392952508506"><ele>314.25</ele><time>2026-05-03T18:25:22Z</time></trkpt><trkpt lat="41.55550198467062" lon="-0.9743298719509985"><ele>314.5</ele><time>2026-05-03T18:25:23Z</time></trkpt><trkpt lat="41.55560979478429" lon="-0.9742684022876683"><ele>314.75</ele><time>2026-05-03T18:25:24Z</time></trkpt><trkpt lat="41.55571759895701" lon="-0.9742042321644094"><ele>315.0</ele><time>2026-05-03T18:25:25Z</time></trkpt><trkpt lat="41.5558256693146" lon="-0.9741409384175456"><ele>315.0</ele><time>2026-05-03T18:25:26Z</time></trkpt><trkpt lat="41.55593080220532" lon="-0.974074281818638"><ele>315.0</ele><time>2026-05-03T18:25:27Z</time></trkpt><trkpt lat="41.55603991993886" lon="-0.974012521983104"><ele>315.0</ele><time>2026-05-03T18:25:28Z</time></trkpt><trkpt lat="41.556147023876605" lon="-0.9739485469302217"><ele>315.0</ele><time>2026-05-03T18:25:29Z</time></trkpt><trkpt lat="41.55625283101692" lon="-0.9738840711258299"><ele>315.25</ele><time>2026-05-03T18:25:30Z</time></trkpt><trkpt lat="41.55635892552086" lon="-0.9738218362213548"><ele>315.5</ele><time>2026-05-03T18:25:31Z</time></trkpt><trkpt lat="41.556466391765255" lon="-0.9737583930020206"><ele>315.75</ele><time>2026-05-03T18:25:32Z</time></trkpt><trkpt lat="41.556571440708" lon="-0.9736935665309898"><ele>316.0</ele><time>2026-05-03T18:25:33.001Z</time></trkpt><trkpt lat="41.55667801853136" lon="-0.9736305812115478"><ele>316.0</ele><time>2026-05-03T18:25:34.001Z</time></trkpt><trkpt lat="41.55678549097128" lon="-0.9735693832287154"><ele>316.0</ele><time>2026-05-03T18:25:35.001Z</time></trkpt><trkpt lat="41.5568906438896" lon="-0.9735058707674318"><ele>316.0</ele><time>2026-05-03T18:25:36.001Z</time></trkpt><trkpt lat="41.55699746812844" lon="-0.9734440625600308"><ele>316.0</ele><time>2026-05-03T18:25:37.001Z</time></trkpt><trkpt lat="41.557105799650095" lon="-0.9733789797139027"><ele>315.25</ele><time>2026-05-03T18:25:38.001Z</time></trkpt><trkpt lat="41.55720654992863" lon="-0.973308422630675"><ele>314.5</ele><time>2026-05-03T18:25:39.001Z</time></trkpt><trkpt lat="41.557307448631036" lon="-0.9732364137733788"><ele>313.75</ele><time>2026-05-03T18:25:40.001Z</time></trkpt><trkpt lat="41.557413296553136" lon="-0.9731643617995377"><ele>313.0</ele><time>2026-05-03T18:25:41.001Z</time></trkpt><trkpt lat="41.557515322684324" lon="-0.9730891282034071"><ele>313.0</ele><time>2026-05-03T18:25:42.001Z</time></trkpt><trkpt lat="41.55761556433705" lon="-0.9730167293630801"><ele>313.0</ele><time>2026-05-03T18:25:43.001Z</time></trkpt><trkpt lat="41.55771590254136" lon="-0.9729387156756057"><ele>313.0</ele><time>2026-05-03T18:25:44.001Z</time></trkpt><trkpt lat="41.557817666600144" lon="-0.972861464942711"><ele>313.0</ele><time>2026-05-03T18:25:45.001Z</time></trkpt><trkpt lat="41.55791239146242" lon="-0.9727770741315601"><ele>313.0</ele><time>2026-05-03T18:25:46.001Z</time></trkpt><trkpt lat="41.55801253732285" lon="-0.9726966866696395"><ele>313.0</ele><time>2026-05-03T18:25:47.001Z</time></trkpt><trkpt lat="41.558111619781485" lon="-0.9726138761970299"><ele>313.0</ele><time>2026-05-03T18:25:48.001Z</time></trkpt><trkpt lat="41.55820662315625" lon="-0.9725273634614655"><ele>313.0</ele><time>2026-05-03T18:25:49.001Z</time></trkpt><trkpt lat="41.5583017952935" lon="-0.9724416491382758"><ele>313.0</ele><time>2026-05-03T18:25:50.001Z</time></trkpt><trkpt lat="41.558392912562276" lon="-0.9723523841088968"><ele>313.0</ele><time>2026-05-03T18:25:51.001Z</time></trkpt><trkpt lat="41.558485554203905" lon="-0.9722649879195742"><ele>313.0</ele><time>2026-05-03T18:25:52.001Z</time></trkpt><trkpt lat="41.55858011784889" lon="-0.9721764128637627"><ele>313.0</ele><time>2026-05-03T18:25:53.001Z</time></trkpt><trkpt lat="41.55867312366363" lon="-0.972085592269283"><ele>313.75</ele><time>2026-05-03T18:25:54.001Z</time></trkpt><trkpt lat="41.55876399306054" lon="-0.9719953760017312"><ele>314.5</ele><time>2026-05-03T18:25:55.001Z</time></trkpt><trkpt lat="41.558856960319204" lon="-0.9719015020835321"><ele>315.25</ele><time>2026-05-03T18:25:56.001Z</time></trkpt><trkpt lat="41.55894792474389" lon="-0.9718085390561132"><ele>316.0</ele><time>2026-05-03T18:25:57.001Z</time></trkpt><trkpt lat="41.55903896689792" lon="-0.9717144605532017"><ele>314.75</ele><time>2026-05-03T18:25:58.001Z</time></trkpt><trkpt lat="41.559131460461366" lon="-0.9716245870967042"><ele>313.5</ele><time>2026-05-03T18:25:59.001Z</time></trkpt><trkpt lat="41.55922515485055" lon="-0.9715339781305998"><ele>312.25</ele><time>2026-05-03T18:26:00.001Z</time></trkpt><trkpt lat="41.55932021485032" lon="-0.9714470937811238"><ele>311.0</ele><time>2026-05-03T18:26:01.001Z</time></trkpt><trkpt lat="41.55941359158815" lon="-0.9713556839475228"><ele>311.0</ele><time>2026-05-03T18:26:02.001Z</time></trkpt><trkpt lat="41.559503589214295" lon="-0.9712632139378288"><ele>311.0</ele><time>2026-05-03T18:26:03.001Z</time></trkpt><trkpt lat="41.55959837761119" lon="-0.9711713513695085"><ele>311.0</ele><time>2026-05-03T18:26:04.001Z</time></trkpt><trkpt lat="41.55969220740748" lon="-0.9710751493900207"><ele>311.0</ele><time>2026-05-03T18:26:05.001Z</time></trkpt><trkpt lat="41.5597858423534" lon="-0.9709820675640773"><ele>311.0</ele><time>2026-05-03T18:26:06.001Z</time></trkpt><trkpt lat="41.559881976845375" lon="-0.9708912503269659"><ele>311.0</ele><time>2026-05-03T18:26:07.001Z</time></trkpt><trkpt lat="41.559976434733834" lon="-0.9707987952175466"><ele>311.0</ele><time>2026-05-03T18:26:08.001Z</time></trkpt><trkpt lat="41.56007108575586" lon="-0.9707052458689001"><ele>311.0</ele><time>2026-05-03T18:26:09.001Z</time></trkpt><trkpt lat="41.560164785880744" lon="-0.9706124708951184"><ele>311.0</ele><time>2026-05-03T18:26:10.001Z</time></trkpt><trkpt lat="41.560259262685555" lon="-0.9705199622166598"><ele>311.0</ele><time>2026-05-03T18:26:11.001Z</time></trkpt><trkpt lat="41.56035331476825" lon="-0.9704293998161907"><ele>311.0</ele><time>2026-05-03T18:26:12.001Z</time></trkpt><trkpt lat="41.560446650897326" lon="-0.9703364240154666"><ele>311.0</ele><time>2026-05-03T18:26:13.001Z</time></trkpt><trkpt lat="41.560540250863845" lon="-0.9702426741538226"><ele>311.5</ele><time>2026-05-03T18:26:14.001Z</time></trkpt><trkpt lat="41.56063287374072" lon="-0.9701509404284105"><ele>312.0</ele><time>2026-05-03T18:26:15.001Z</time></trkpt><trkpt lat="41.560726242823655" lon="-0.9700605187898697"><ele>312.5</ele><time>2026-05-03T18:26:16.001Z</time></trkpt><trkpt lat="41.56081817784249" lon="-0.9699690960393477"><ele>313.0</ele><time>2026-05-03T18:26:17.001Z</time></trkpt><trkpt lat="41.56091229853971" lon="-0.9698791106641871"><ele>313.0</ele><time>2026-05-03T18:26:18.001Z</time></trkpt><trkpt lat="41.561002661797176" lon="-0.9697873360604894"><ele>313.0</ele><time>2026-05-03T18:26:19.001Z</time></trkpt><trkpt lat="41.56109433953509" lon="-0.9696966369234549"><ele>313.0</ele><time>2026-05-03T18:26:20.001Z</time></trkpt><trkpt lat="41.56118880966562" lon="-0.969605603740983"><ele>313.0</ele><time>2026-05-03T18:26:21.001Z</time></trkpt><trkpt lat="41.56128036423998" lon="-0.969514404280015"><ele>313.25</ele><time>2026-05-03T18:26:22.001Z</time></trkpt><trkpt lat="41.56137081130642" lon="-0.9694244478917293"><ele>313.5</ele><time>2026-05-03T18:26:23.001Z</time></trkpt><trkpt lat="41.56146458962424" lon="-0.9693335227480493"><ele>313.75</ele><time>2026-05-03T18:26:24.001Z</time></trkpt><trkpt lat="41.56155562021792" lon="-0.9692435572216894"><ele>314.0</ele><time>2026-05-03T18:26:25.001Z</time></trkpt><trkpt lat="41.561649862522316" lon="-0.9691527969705812"><ele>313.5</ele><time>2026-05-03T18:26:26.001Z</time></trkpt><trkpt lat="41.561742666529476" lon="-0.9690624048352294"><ele>313.0</ele><time>2026-05-03T18:26:27.001Z</time></trkpt><trkpt lat="41.561832102413284" lon="-0.9689731482750542"><ele>312.5</ele><time>2026-05-03T18:26:28.001Z</time></trkpt><trkpt lat="41.56192563497895" lon="-0.9688848449814038"><ele>312.0</ele><time>2026-05-03T18:26:29.001Z</time></trkpt><trkpt lat="41.562018550742444" lon="-0.96879463123584"><ele>312.25</ele><time>2026-05-03T18:26:30.001Z</time></trkpt><trkpt lat="41.56210764051142" lon="-0.9687059781000724"><ele>312.5</ele><time>2026-05-03T18:26:31.001Z</time></trkpt><trkpt lat="41.56220616540863" lon="-0.9686179609784307"><ele>312.75</ele><time>2026-05-03T18:26:32.001Z</time></trkpt><trkpt lat="41.56229328528174" lon="-0.9685232984587628"><ele>313.0</ele><time>2026-05-03T18:26:33.001Z</time></trkpt><trkpt lat="41.56238070437369" lon="-0.9684310906094463"><ele>312.8</ele><time>2026-05-03T18:26:34.001Z</time></trkpt><trkpt lat="41.562461521597754" lon="-0.9683282101387435"><ele>312.6</ele><time>2026-05-03T18:26:35.001Z</time></trkpt><trkpt lat="41.562508496697255" lon="-0.968214701735238"><ele>312.4</ele><time>2026-05-03T18:26:36.001Z</time></trkpt><trkpt lat="41.56254053073047" lon="-0.9680840161425806"><ele>312.2</ele><time>2026-05-03T18:26:37.001Z</time></trkpt><trkpt lat="41.562583856375376" lon="-0.9679638939944006"><ele>312.0</ele><time>2026-05-03T18:26:38Z</time></trkpt><trkpt lat="41.562656055056735" lon="-0.967873290289606"><ele>312.0</ele><time>2026-05-03T18:26:39Z</time></trkpt><trkpt lat="41.562753600314934" lon="-0.9678195728695437"><ele>312.0</ele><time>2026-05-03T18:26:40Z</time></trkpt><trkpt lat="41.56286188112379" lon="-0.9677975243998033"><ele>312.0</ele><time>2026-05-03T18:26:41Z</time></trkpt><trkpt lat="41.562967598087006" lon="-0.9677843365281668"><ele>312.0</ele><time>2026-05-03T18:26:42Z</time></trkpt><trkpt lat="41.563073341790364" lon="-0.9677490100253583"><ele>312.0</ele><time>2026-05-03T18:26:43Z</time></trkpt><trkpt lat="41.56317157620882" lon="-0.9676805889954815"><ele>312.25</ele><time>2026-05-03T18:26:44Z</time></trkpt><trkpt lat="41.56326228791959" lon="-0.9675713155453923"><ele>312.5</ele><time>2026-05-03T18:26:45Z</time></trkpt><trkpt lat="41.563349273334325" lon="-0.9674825559028876"><ele>312.75</ele><time>2026-05-03T18:26:46Z</time></trkpt><trkpt lat="41.56343702396948" lon="-0.9673948902310654"><ele>313.0</ele><time>2026-05-03T18:26:47Z</time></trkpt><trkpt lat="41.563530241090945" lon="-0.9673055618903892"><ele>313.0</ele><time>2026-05-03T18:26:48Z</time></trkpt><trkpt lat="41.563624713621614" lon="-0.9672131068117198"><ele>313.0</ele><time>2026-05-03T18:26:49Z</time></trkpt><trkpt lat="41.56371961959844" lon="-0.9671216404931458"><ele>313.0</ele><time>2026-05-03T18:26:50Z</time></trkpt><trkpt lat="41.56381388146207" lon="-0.967025810078837"><ele>313.0</ele><time>2026-05-03T18:26:51Z</time></trkpt><trkpt lat="41.56390613532749" lon="-0.966931786027834"><ele>312.5</ele><time>2026-05-03T18:26:52Z</time></trkpt><trkpt lat="41.56399950783928" lon="-0.9668385093146469"><ele>312.0</ele><time>2026-05-03T18:26:53Z</time></trkpt><trkpt lat="41.56409567644296" lon="-0.9667463388645251"><ele>311.5</ele><time>2026-05-03T18:26:54Z</time></trkpt><trkpt lat="41.5641906806949" lon="-0.9666527629040444"><ele>311.0</ele><time>2026-05-03T18:26:55Z</time></trkpt><trkpt lat="41.5642853367594" lon="-0.9665587757570565"><ele>311.0</ele><time>2026-05-03T18:26:56Z</time></trkpt><trkpt lat="41.56437917000192" lon="-0.9664652594172501"><ele>311.0</ele><time>2026-05-03T18:26:57Z</time></trkpt><trkpt lat="41.56447617027176" lon="-0.9663752558553952"><ele>311.0</ele><time>2026-05-03T18:26:58Z</time></trkpt><trkpt lat="41.56457161076019" lon="-0.9662838227548023"><ele>311.0</ele><time>2026-05-03T18:26:59Z</time></trkpt><trkpt lat="41.56466467144166" lon="-0.9661910775663531"><ele>311.0</ele><time>2026-05-03T18:27:00Z</time></trkpt><trkpt lat="41.564756144254225" lon="-0.9661005824678177"><ele>311.0</ele><time>2026-05-03T18:27:01Z</time></trkpt><trkpt lat="41.564849707272316" lon="-0.9660109150107447"><ele>311.0</ele><time>2026-05-03T18:27:02Z</time></trkpt><trkpt lat="41.56494215372126" lon="-0.9659232739284055"><ele>311.0</ele><time>2026-05-03T18:27:03Z</time></trkpt><trkpt lat="41.56503515660752" lon="-0.9658335674948593"><ele>310.75</ele><time>2026-05-03T18:27:04Z</time></trkpt><trkpt lat="41.565125082146025" lon="-0.9657440382873761"><ele>310.5</ele><time>2026-05-03T18:27:05Z</time></trkpt><trkpt lat="41.565219111455384" lon="-0.9656568592616322"><ele>310.25</ele><time>2026-05-03T18:27:06Z</time></trkpt><trkpt lat="41.56531166029582" lon="-0.9655708692114854"><ele>310.0</ele><time>2026-05-03T18:27:07Z</time></trkpt><trkpt lat="41.56540389932665" lon="-0.9654845621387557"><ele>310.0</ele><time>2026-05-03T18:27:08Z</time></trkpt><trkpt lat="41.56549570368625" lon="-0.9653975848250035"><ele>310.0</ele><time>2026-05-03T18:27:09Z</time></trkpt><trkpt lat="41.56559189049415" lon="-0.965313764138497"><ele>310.0</ele><time>2026-05-03T18:27:10Z</time></trkpt><trkpt lat="41.56568663662467" lon="-0.9652296033943574"><ele>310.0</ele><time>2026-05-03T18:27:11Z</time></trkpt><trkpt lat="41.56578214644246" lon="-0.9651449645933986"><ele>310.0</ele><time>2026-05-03T18:27:12Z</time></trkpt><trkpt lat="41.565880167399825" lon="-0.9650627683084647"><ele>310.0</ele><time>2026-05-03T18:27:13Z</time></trkpt><trkpt lat="41.565979443232514" lon="-0.9649823082552592"><ele>310.0</ele><time>2026-05-03T18:27:14Z</time></trkpt><trkpt lat="41.56607683577727" lon="-0.9649033717239722"><ele>310.0</ele><time>2026-05-03T18:27:15Z</time></trkpt><trkpt lat="41.56617670040726" lon="-0.9648275056799276"><ele>309.5</ele><time>2026-05-03T18:27:16Z</time></trkpt><trkpt lat="41.5662763576827" lon="-0.9647524384436101"><ele>309.0</ele><time>2026-05-03T18:27:17Z</time></trkpt><trkpt lat="41.56637940135205" lon="-0.964677299647501"><ele>308.5</ele><time>2026-05-03T18:27:18Z</time></trkpt><trkpt lat="41.56648104667552" lon="-0.9646033254146158"><ele>308.0</ele><time>2026-05-03T18:27:19Z</time></trkpt><trkpt lat="41.5665833240077" lon="-0.9645280642243341"><ele>308.0</ele><time>2026-05-03T18:27:20Z</time></trkpt><trkpt lat="41.566685969732255" lon="-0.9644532663046841"><ele>308.0</ele><time>2026-05-03T18:27:21Z</time></trkpt><trkpt lat="41.56678720028976" lon="-0.9643839492264455"><ele>308.0</ele><time>2026-05-03T18:27:22Z</time></trkpt><trkpt lat="41.56689297019727" lon="-0.9643120865232486"><ele>308.0</ele><time>2026-05-03T18:27:23Z</time></trkpt><trkpt lat="41.56699607935764" lon="-0.9642363727524021"><ele>307.25</ele><time>2026-05-03T18:27:24Z</time></trkpt><trkpt lat="41.5670949700806" lon="-0.9641625675868015"><ele>306.5</ele><time>2026-05-03T18:27:25Z</time></trkpt><trkpt lat="41.567198009405445" lon="-0.9640875540053737"><ele>305.75</ele><time>2026-05-03T18:27:26Z</time></trkpt><trkpt lat="41.56730254456685" lon="-0.9640133348179719"><ele>305.0</ele><time>2026-05-03T18:27:27Z</time></trkpt><trkpt lat="41.56740519007571" lon="-0.9639342823654958"><ele>305.0</ele><time>2026-05-03T18:27:28Z</time></trkpt><trkpt lat="41.56750691315746" lon="-0.9638617698510719"><ele>305.0</ele><time>2026-05-03T18:27:29Z</time></trkpt><trkpt lat="41.567611455511084" lon="-0.9637857623868904"><ele>305.0</ele><time>2026-05-03T18:27:30Z</time></trkpt><trkpt lat="41.56771777410772" lon="-0.9637142188265314"><ele>305.0</ele><time>2026-05-03T18:27:31Z</time></trkpt><trkpt lat="41.56781998456805" lon="-0.9636400884752736"><ele>305.0</ele><time>2026-05-03T18:27:32Z</time></trkpt><trkpt lat="41.56792202422272" lon="-0.963567618959311"><ele>305.0</ele><time>2026-05-03T18:27:33Z</time></trkpt><trkpt lat="41.56802440372779" lon="-0.9634921073461086"><ele>305.0</ele><time>2026-05-03T18:27:34Z</time></trkpt><trkpt lat="41.56812561877039" lon="-0.9634202300323003"><ele>305.0</ele><time>2026-05-03T18:27:35Z</time></trkpt><trkpt lat="41.568229769179645" lon="-0.9633439247754745"><ele>305.0</ele><time>2026-05-03T18:27:36Z</time></trkpt><trkpt lat="41.568332366101274" lon="-0.9632695753117982"><ele>305.0</ele><time>2026-05-03T18:27:37Z</time></trkpt><trkpt lat="41.56843386217041" lon="-0.9631953160475981"><ele>305.0</ele><time>2026-05-03T18:27:38Z</time></trkpt><trkpt lat="41.568537997485635" lon="-0.9631287064124482"><ele>305.0</ele><time>2026-05-03T18:27:39Z</time></trkpt><trkpt lat="41.56864065364043" lon="-0.9630489938254383"><ele>305.25</ele><time>2026-05-03T18:27:40.001Z</time></trkpt><trkpt lat="41.568740512958705" lon="-0.9629752680174025"><ele>305.5</ele><time>2026-05-03T18:27:41.001Z</time></trkpt><trkpt lat="41.568843912093584" lon="-0.9629033189434635"><ele>305.75</ele><time>2026-05-03T18:27:42.001Z</time></trkpt><trkpt lat="41.56894994140589" lon="-0.9628343407772166"><ele>306.0</ele><time>2026-05-03T18:27:43.001Z</time></trkpt><trkpt lat="41.569054630553865" lon="-0.962762180806232"><ele>306.0</ele><time>2026-05-03T18:27:44.001Z</time></trkpt><trkpt lat="41.569157123545764" lon="-0.9626910981205529"><ele>306.0</ele><time>2026-05-03T18:27:45.001Z</time></trkpt><trkpt lat="41.569262609379585" lon="-0.9626257997872332"><ele>306.0</ele><time>2026-05-03T18:27:46.001Z</time></trkpt><trkpt lat="41.569368947482864" lon="-0.9625614711829524"><ele>306.0</ele><time>2026-05-03T18:27:47.001Z</time></trkpt><trkpt lat="41.569477884786885" lon="-0.9625008219081235"><ele>305.75</ele><time>2026-05-03T18:27:48.001Z</time></trkpt><trkpt lat="41.56958628183991" lon="-0.9624436689231742"><ele>305.5</ele><time>2026-05-03T18:27:49.001Z</time></trkpt><trkpt lat="41.56969667426595" lon="-0.9623884031914317"><ele>305.25</ele><time>2026-05-03T18:27:50.001Z</time></trkpt><trkpt lat="41.5698074130917" lon="-0.9623334246174039"><ele>305.0</ele><time>2026-05-03T18:27:51.001Z</time></trkpt><trkpt lat="41.569919642449754" lon="-0.9622863931435681"><ele>305.0</ele><time>2026-05-03T18:27:52.001Z</time></trkpt><trkpt lat="41.57002909934693" lon="-0.9622331730928116"><ele>305.0</ele><time>2026-05-03T18:27:53.001Z</time></trkpt><trkpt lat="41.57014086266187" lon="-0.962183161483215"><ele>305.0</ele><time>2026-05-03T18:27:54.001Z</time></trkpt><trkpt lat="41.570250607725754" lon="-0.9621317063646927"><ele>305.0</ele><time>2026-05-03T18:27:55.001Z</time></trkpt><trkpt lat="41.570361385657264" lon="-0.962078146833682"><ele>305.5</ele><time>2026-05-03T18:27:56.001Z</time></trkpt><trkpt lat="41.570471714586496" lon="-0.9620293411479264"><ele>306.0</ele><time>2026-05-03T18:27:57.001Z</time></trkpt><trkpt lat="41.57058222948633" lon="-0.9619810280234656"><ele>306.5</ele><time>2026-05-03T18:27:58.001Z</time></trkpt><trkpt lat="41.57069542124499" lon="-0.9619336076690166"><ele>307.0</ele><time>2026-05-03T18:27:59.001Z</time></trkpt><trkpt lat="41.57080420983822" lon="-0.9618834265010565"><ele>307.0</ele><time>2026-05-03T18:28:00.001Z</time></trkpt><trkpt lat="41.57091374517189" lon="-0.9618374404273111"><ele>307.0</ele><time>2026-05-03T18:28:01.001Z</time></trkpt><trkpt lat="41.57102563852508" lon="-0.9617881219569216"><ele>307.0</ele><time>2026-05-03T18:28:02.001Z</time></trkpt><trkpt lat="41.57113836593191" lon="-0.9617424532143369"><ele>307.0</ele><time>2026-05-03T18:28:03.001Z</time></trkpt><trkpt lat="41.57124615938082" lon="-0.9616903453307377"><ele>306.0</ele><time>2026-05-03T18:28:04.001Z</time></trkpt><trkpt lat="41.57136080299345" lon="-0.9616437775803323"><ele>305.0</ele><time>2026-05-03T18:28:05.001Z</time></trkpt><trkpt lat="41.57147094293978" lon="-0.9615912959366741"><ele>304.0</ele><time>2026-05-03T18:28:06.001Z</time></trkpt><trkpt lat="41.571580979033044" lon="-0.9615429471534096"><ele>303.0</ele><time>2026-05-03T18:28:07.001Z</time></trkpt><trkpt lat="41.5716896390876" lon="-0.961495688372108"><ele>303.0</ele><time>2026-05-03T18:28:08.001Z</time></trkpt><trkpt lat="41.57180467684685" lon="-0.9614508906446706"><ele>303.0</ele><time>2026-05-03T18:28:09.001Z</time></trkpt><trkpt lat="41.57191175564326" lon="-0.9614013487556624"><ele>303.0</ele><time>2026-05-03T18:28:10.001Z</time></trkpt><trkpt lat="41.572021529330385" lon="-0.9613532982039638"><ele>303.0</ele><time>2026-05-03T18:28:11.001Z</time></trkpt><trkpt lat="41.57213183897207" lon="-0.9613013472914868"><ele>303.5</ele><time>2026-05-03T18:28:12.001Z</time></trkpt><trkpt lat="41.57224248544267" lon="-0.9612525906670806"><ele>304.0</ele><time>2026-05-03T18:28:13.001Z</time></trkpt><trkpt lat="41.57235407280122" lon="-0.9612067101851883"><ele>304.5</ele><time>2026-05-03T18:28:14.001Z</time></trkpt><trkpt lat="41.572465833183806" lon="-0.9611585167691434"><ele>305.0</ele><time>2026-05-03T18:28:15.001Z</time></trkpt><trkpt lat="41.57257658663852" lon="-0.961109739615532"><ele>305.0</ele><time>2026-05-03T18:28:16.001Z</time></trkpt><trkpt lat="41.57268809229678" lon="-0.9610620362642522"><ele>305.0</ele><time>2026-05-03T18:28:17.001Z</time></trkpt><trkpt lat="41.5727992282338" lon="-0.96101500675569"><ele>305.0</ele><time>2026-05-03T18:28:18.001Z</time></trkpt><trkpt lat="41.57291090776813" lon="-0.9609653925743749"><ele>305.0</ele><time>2026-05-03T18:28:19.001Z</time></trkpt><trkpt lat="41.573020165678315" lon="-0.9609170267481185"><ele>305.25</ele><time>2026-05-03T18:28:20.001Z</time></trkpt><trkpt lat="41.57313230981383" lon="-0.9608674983557941"><ele>305.5</ele><time>2026-05-03T18:28:21.001Z</time></trkpt><trkpt lat="41.57324644483868" lon="-0.9608186541123047"><ele>305.75</ele><time>2026-05-03T18:28:22.001Z</time></trkpt><trkpt lat="41.573356553866866" lon="-0.9607655743064138"><ele>306.0</ele><time>2026-05-03T18:28:23.001Z</time></trkpt><trkpt lat="41.5734679155757" lon="-0.9607144522610576"><ele>304.75</ele><time>2026-05-03T18:28:24.001Z</time></trkpt><trkpt lat="41.57358442029432" lon="-0.9606684977267971"><ele>303.5</ele><time>2026-05-03T18:28:25.001Z</time></trkpt><trkpt lat="41.57369416635953" lon="-0.9606154619586744"><ele>302.25</ele><time>2026-05-03T18:28:26.001Z</time></trkpt><trkpt lat="41.57380477134479" lon="-0.9605680343283013"><ele>301.0</ele><time>2026-05-03T18:28:27.001Z</time></trkpt><trkpt lat="41.57391869933297" lon="-0.9605215369312754"><ele>300.75</ele><time>2026-05-03T18:28:28.001Z</time></trkpt><trkpt lat="41.574032260734924" lon="-0.9604730852909246"><ele>300.5</ele><time>2026-05-03T18:28:29.001Z</time></trkpt><trkpt lat="41.57414293742067" lon="-0.9604256367128009"><ele>300.25</ele><time>2026-05-03T18:28:30.001Z</time></trkpt><trkpt lat="41.57425260053292" lon="-0.9603758139499622"><ele>300.0</ele><time>2026-05-03T18:28:31.001Z</time></trkpt><trkpt lat="41.57436460647731" lon="-0.9603278037472238"><ele>300.0</ele><time>2026-05-03T18:28:32.001Z</time></trkpt><trkpt lat="41.574476025246135" lon="-0.9602766563917968"><ele>300.0</ele><time>2026-05-03T18:28:33.001Z</time></trkpt><trkpt lat="41.574586123650505" lon="-0.9602222665061296"><ele>300.0</ele><time>2026-05-03T18:28:34.001Z</time></trkpt><trkpt lat="41.57469701650073" lon="-0.9601710155502315"><ele>300.0</ele><time>2026-05-03T18:28:35.001Z</time></trkpt><trkpt lat="41.57480677764012" lon="-0.9601181163362997"><ele>300.25</ele><time>2026-05-03T18:28:36.001Z</time></trkpt><trkpt lat="41.5749140749808" lon="-0.9600585652292982"><ele>300.5</ele><time>2026-05-03T18:28:37.001Z</time></trkpt><trkpt lat="41.5750225118451" lon="-0.9599986764468997"><ele>300.75</ele><time>2026-05-03T18:28:38.001Z</time></trkpt><trkpt lat="41.575126430083856" lon="-0.9599349672124594"><ele>301.0</ele><time>2026-05-03T18:28:39.001Z</time></trkpt><trkpt lat="41.5752302705453" lon="-0.9598693599073433"><ele>300.5</ele><time>2026-05-03T18:28:40.001Z</time></trkpt><trkpt lat="41.57533491812021" lon="-0.9597999754236628"><ele>300.0</ele><time>2026-05-03T18:28:41.001Z</time></trkpt><trkpt lat="41.57543721761921" lon="-0.9597270850349446"><ele>299.5</ele><time>2026-05-03T18:28:42.001Z</time></trkpt><trkpt lat="41.575533021975396" lon="-0.959652169402719"><ele>299.0</ele><time>2026-05-03T18:28:43.001Z</time></trkpt><trkpt lat="41.57563624362888" lon="-0.9595782410196158"><ele>299.0</ele><time>2026-05-03T18:28:44Z</time></trkpt><trkpt lat="41.575740270162065" lon="-0.959500466276206"><ele>299.0</ele><time>2026-05-03T18:28:45Z</time></trkpt><trkpt lat="41.57583730798524" lon="-0.9594206307949327"><ele>299.0</ele><time>2026-05-03T18:28:46Z</time></trkpt><trkpt lat="41.5759355023377" lon="-0.9593424258277864"><ele>299.0</ele><time>2026-05-03T18:28:47Z</time></trkpt><trkpt lat="41.576033924609284" lon="-0.9592634772870291"><ele>298.25</ele><time>2026-05-03T18:28:48Z</time></trkpt><trkpt lat="41.576136406936236" lon="-0.9591884581267757"><ele>297.5</ele><time>2026-05-03T18:28:49Z</time></trkpt><trkpt lat="41.57623740800673" lon="-0.9591122227036359"><ele>296.75</ele><time>2026-05-03T18:28:50Z</time></trkpt><trkpt lat="41.576334389713836" lon="-0.95903299401544"><ele>296.0</ele><time>2026-05-03T18:28:51Z</time></trkpt><trkpt lat="41.57643334201607" lon="-0.9589521278209865"><ele>296.0</ele><time>2026-05-03T18:28:52Z</time></trkpt><trkpt lat="41.57652625985209" lon="-0.9588690853905585"><ele>296.0</ele><time>2026-05-03T18:28:53Z</time></trkpt><trkpt lat="41.57662966592118" lon="-0.9587945244284591"><ele>296.0</ele><time>2026-05-03T18:28:54Z</time></trkpt><trkpt lat="41.5767306586989" lon="-0.9587142035625155"><ele>296.0</ele><time>2026-05-03T18:28:55Z</time></trkpt><trkpt lat="41.57682993693723" lon="-0.958637305566061"><ele>296.0</ele><time>2026-05-03T18:28:56Z</time></trkpt><trkpt lat="41.57692621048708" lon="-0.9585586479071518"><ele>296.0</ele><time>2026-05-03T18:28:57Z</time></trkpt><trkpt lat="41.57702701784502" lon="-0.9584811544115882"><ele>296.0</ele><time>2026-05-03T18:28:58Z</time></trkpt><trkpt lat="41.57712424074857" lon="-0.9584037033868976"><ele>296.0</ele><time>2026-05-03T18:28:59Z</time></trkpt><trkpt lat="41.577222929736394" lon="-0.958324561131567"><ele>296.25</ele><time>2026-05-03T18:29:00Z</time></trkpt><trkpt lat="41.5773193254999" lon="-0.9582463455146599"><ele>296.5</ele><time>2026-05-03T18:29:01Z</time></trkpt><trkpt lat="41.57741946313693" lon="-0.9581697901830367"><ele>296.75</ele><time>2026-05-03T18:29:02Z</time></trkpt><trkpt lat="41.57751831359023" lon="-0.9580891612513921"><ele>297.0</ele><time>2026-05-03T18:29:03Z</time></trkpt><trkpt lat="41.57761776429251" lon="-0.9580124157173169"><ele>297.0</ele><time>2026-05-03T18:29:04Z</time></trkpt><trkpt lat="41.5777122449436" lon="-0.9579317848721687"><ele>297.0</ele><time>2026-05-03T18:29:05Z</time></trkpt><trkpt lat="41.57781258911499" lon="-0.9578561087518737"><ele>297.0</ele><time>2026-05-03T18:29:06Z</time></trkpt><trkpt lat="41.577910683512" lon="-0.9577791554088089"><ele>297.0</ele><time>2026-05-03T18:29:07Z</time></trkpt><trkpt lat="41.578011854160515" lon="-0.9576981086179978"><ele>296.75</ele><time>2026-05-03T18:29:08Z</time></trkpt><trkpt lat="41.578110767007914" lon="-0.9576169419942407"><ele>296.5</ele><time>2026-05-03T18:29:09Z</time></trkpt><trkpt lat="41.57820750919297" lon="-0.9575370033327538"><ele>296.25</ele><time>2026-05-03T18:29:10Z</time></trkpt><trkpt lat="41.57830743880728" lon="-0.9574575969609059"><ele>296.0</ele><time>2026-05-03T18:29:11Z</time></trkpt><trkpt lat="41.578406019305106" lon="-0.9573776992071321"><ele>296.0</ele><time>2026-05-03T18:29:12Z</time></trkpt><trkpt lat="41.57850364034632" lon="-0.9573009930206582"><ele>296.0</ele><time>2026-05-03T18:29:13Z</time></trkpt><trkpt lat="41.57859882284929" lon="-0.9572259122611405"><ele>296.0</ele><time>2026-05-03T18:29:14Z</time></trkpt><trkpt lat="41.578687443039904" lon="-0.9571557296561845"><ele>296.0</ele><time>2026-05-03T18:29:15Z</time></trkpt><trkpt lat="41.57878417741947" lon="-0.9570807799688668"><ele>296.0</ele><time>2026-05-03T18:29:16Z</time></trkpt><trkpt lat="41.57886726973949" lon="-0.9570058568785279"><ele>296.2</ele><time>2026-05-03T18:29:17Z</time></trkpt><trkpt lat="41.578932430193596" lon="-0.9569066966394598"><ele>296.40000000000003</ele><time>2026-05-03T18:29:18Z</time></trkpt><trkpt lat="41.578956159182226" lon="-0.9567802414096983"><ele>296.6</ele><time>2026-05-03T18:29:19Z</time></trkpt><trkpt lat="41.578978995179334" lon="-0.9566505991073587"><ele>296.8</ele><time>2026-05-03T18:29:20Z</time></trkpt><trkpt lat="41.579037293886955" lon="-0.956533541326364"><ele>297.0</ele><time>2026-05-03T18:29:21Z</time></trkpt><trkpt lat="41.5791202579511" lon="-0.95644313030148"><ele>297.0</ele><time>2026-05-03T18:29:22Z</time></trkpt><trkpt lat="41.57921554065084" lon="-0.9563948725315681"><ele>297.0</ele><time>2026-05-03T18:29:23Z</time></trkpt><trkpt lat="41.579324270204474" lon="-0.9563904800974892"><ele>297.0</ele><time>2026-05-03T18:29:24Z</time></trkpt><trkpt lat="41.579429708025536" lon="-0.9564216893181897"><ele>297.0</ele><time>2026-05-03T18:29:25Z</time></trkpt><trkpt lat="41.57964418024153" lon="-0.9564122771592021"><ele>297.25</ele><time>2026-05-03T18:29:27Z</time></trkpt><trkpt lat="41.57974317844841" lon="-0.9563406676904588"><ele>297.5</ele><time>2026-05-03T18:29:28Z</time></trkpt><trkpt lat="41.579832880973754" lon="-0.9562552289300605"><ele>297.75</ele><time>2026-05-03T18:29:29Z</time></trkpt><trkpt lat="41.57992641199813" lon="-0.9561666476998198"><ele>298.0</ele><time>2026-05-03T18:29:30Z</time></trkpt><trkpt lat="41.58002501766628" lon="-0.9560939074911147"><ele>298.0</ele><time>2026-05-03T18:29:31Z</time></trkpt><trkpt lat="41.58012033131527" lon="-0.9560153105644466"><ele>298.0</ele><time>2026-05-03T18:29:32Z</time></trkpt><trkpt lat="41.58022013645724" lon="-0.9559362691355053"><ele>298.0</ele><time>2026-05-03T18:29:33Z</time></trkpt><trkpt lat="41.580319441141064" lon="-0.955858429077567"><ele>298.0</ele><time>2026-05-03T18:29:34Z</time></trkpt><trkpt lat="41.580418600621435" lon="-0.9557785324626582"><ele>297.5</ele><time>2026-05-03T18:29:35Z</time></trkpt><trkpt lat="41.58051677471739" lon="-0.9556968880982244"><ele>297.0</ele><time>2026-05-03T18:29:36Z</time></trkpt><trkpt lat="41.580616456556626" lon="-0.9556193263307416"><ele>296.5</ele><time>2026-05-03T18:29:37Z</time></trkpt><trkpt lat="41.58071570179487" lon="-0.9555391731418152"><ele>296.0</ele><time>2026-05-03T18:29:38Z</time></trkpt><trkpt lat="41.58081639429613" lon="-0.9554625496544507"><ele>296.0</ele><time>2026-05-03T18:29:39Z</time></trkpt><trkpt lat="41.58091586699045" lon="-0.9553844639582891"><ele>296.0</ele><time>2026-05-03T18:29:40Z</time></trkpt><trkpt lat="41.581014339924664" lon="-0.9553074056307644"><ele>296.0</ele><time>2026-05-03T18:29:41Z</time></trkpt><trkpt lat="41.58111247728501" lon="-0.9552244498312161"><ele>296.0</ele><time>2026-05-03T18:29:42Z</time></trkpt><trkpt lat="41.581210184185274" lon="-0.9551455469160125"><ele>296.25</ele><time>2026-05-03T18:29:43Z</time></trkpt><trkpt lat="41.58130826441156" lon="-0.9550723177200523"><ele>296.5</ele><time>2026-05-03T18:29:44.001Z</time></trkpt><trkpt lat="41.58140633997589" lon="-0.9549956877136518"><ele>296.75</ele><time>2026-05-03T18:29:45.001Z</time></trkpt><trkpt lat="41.58150445351047" lon="-0.9549136813596287"><ele>297.0</ele><time>2026-05-03T18:29:46.001Z</time></trkpt><trkpt lat="41.58160035775" lon="-0.9548323569159519"><ele>297.0</ele><time>2026-05-03T18:29:47.001Z</time></trkpt><trkpt lat="41.58169411685437" lon="-0.9547516119401236"><ele>297.0</ele><time>2026-05-03T18:29:48.001Z</time></trkpt><trkpt lat="41.58178907958385" lon="-0.9546698386171143"><ele>297.0</ele><time>2026-05-03T18:29:49.001Z</time></trkpt><trkpt lat="41.58188413723672" lon="-0.9545854649634957"><ele>297.0</ele><time>2026-05-03T18:29:50.001Z</time></trkpt><trkpt lat="41.581981169001025" lon="-0.9545024168119567"><ele>297.25</ele><time>2026-05-03T18:29:51.001Z</time></trkpt><trkpt lat="41.582079156745415" lon="-0.9544224978262699"><ele>297.5</ele><time>2026-05-03T18:29:52.001Z</time></trkpt><trkpt lat="41.5821751025483" lon="-0.9543376649028087"><ele>297.75</ele><time>2026-05-03T18:29:53.001Z</time></trkpt><trkpt lat="41.58227113051471" lon="-0.954254740261578"><ele>298.0</ele><time>2026-05-03T18:29:54.001Z</time></trkpt><trkpt lat="41.58236888074255" lon="-0.95416581542438"><ele>297.5</ele><time>2026-05-03T18:29:55.001Z</time></trkpt><trkpt lat="41.582464488358234" lon="-0.9540808139825829"><ele>297.0</ele><time>2026-05-03T18:29:56.001Z</time></trkpt><trkpt lat="41.58256128935832" lon="-0.9539979890168292"><ele>296.5</ele><time>2026-05-03T18:29:57.001Z</time></trkpt><trkpt lat="41.58265696325935" lon="-0.953910350770926"><ele>296.0</ele><time>2026-05-03T18:29:58.001Z</time></trkpt><trkpt lat="41.58275391946954" lon="-0.9538230047003989"><ele>296.0</ele><time>2026-05-03T18:29:59.001Z</time></trkpt><trkpt lat="41.582849389318966" lon="-0.953734327578252"><ele>296.0</ele><time>2026-05-03T18:30:00.001Z</time></trkpt><trkpt lat="41.582944542585984" lon="-0.953641209610779"><ele>296.0</ele><time>2026-05-03T18:30:01.001Z</time></trkpt><trkpt lat="41.5830412240197" lon="-0.9535524225220108"><ele>296.0</ele><time>2026-05-03T18:30:02.001Z</time></trkpt><trkpt lat="41.58313700218504" lon="-0.9534644490873841"><ele>296.0</ele><time>2026-05-03T18:30:03.001Z</time></trkpt><trkpt lat="41.58323413924753" lon="-0.9533727371827534"><ele>296.0</ele><time>2026-05-03T18:30:04.001Z</time></trkpt><trkpt lat="41.583327867368666" lon="-0.9532808407609299"><ele>296.0</ele><time>2026-05-03T18:30:05.001Z</time></trkpt><trkpt lat="41.583421496007475" lon="-0.9531907515771173"><ele>296.0</ele><time>2026-05-03T18:30:06.001Z</time></trkpt><trkpt lat="41.58351649142072" lon="-0.9531020539108563"><ele>295.25</ele><time>2026-05-03T18:30:07.001Z</time></trkpt><trkpt lat="41.58360853920214" lon="-0.953012062226731"><ele>294.5</ele><time>2026-05-03T18:30:08.001Z</time></trkpt><trkpt lat="41.58370425466314" lon="-0.9529231120728389"><ele>293.75</ele><time>2026-05-03T18:30:09.001Z</time></trkpt><trkpt lat="41.58379947863832" lon="-0.9528382398294634"><ele>293.0</ele><time>2026-05-03T18:30:10.001Z</time></trkpt><trkpt lat="41.58389283015052" lon="-0.9527502544385864"><ele>293.0</ele><time>2026-05-03T18:30:11.001Z</time></trkpt><trkpt lat="41.58398715144922" lon="-0.9526612770465456"><ele>293.0</ele><time>2026-05-03T18:30:12.001Z</time></trkpt><trkpt lat="41.58408069795881" lon="-0.9525742362707205"><ele>293.0</ele><time>2026-05-03T18:30:13.001Z</time></trkpt><trkpt lat="41.58417279190185" lon="-0.9524848803739151"><ele>293.0</ele><time>2026-05-03T18:30:14.001Z</time></trkpt><trkpt lat="41.58426460056971" lon="-0.9523961120587686"><ele>293.0</ele><time>2026-05-03T18:30:15.001Z</time></trkpt><trkpt lat="41.58435918477351" lon="-0.9523092567912119"><ele>293.0</ele><time>2026-05-03T18:30:16.001Z</time></trkpt><trkpt lat="41.58445106824006" lon="-0.9522174175243088"><ele>293.0</ele><time>2026-05-03T18:30:17.001Z</time></trkpt><trkpt lat="41.584545658281684" lon="-0.9521301849726005"><ele>293.0</ele><time>2026-05-03T18:30:18.001Z</time></trkpt><trkpt lat="41.58463697213391" lon="-0.9520444072385935"><ele>292.75</ele><time>2026-05-03T18:30:19.001Z</time></trkpt><trkpt lat="41.58473099846231" lon="-0.9519537629920315"><ele>292.5</ele><time>2026-05-03T18:30:20.001Z</time></trkpt><trkpt lat="41.58482421450994" lon="-0.9518622049589379"><ele>292.25</ele><time>2026-05-03T18:30:21.001Z</time></trkpt><trkpt lat="41.58491735183566" lon="-0.9517776302155703"><ele>292.0</ele><time>2026-05-03T18:30:22.001Z</time></trkpt><trkpt lat="41.58501231774205" lon="-0.9516914926973059"><ele>292.0</ele><time>2026-05-03T18:30:23.001Z</time></trkpt><trkpt lat="41.58510525016136" lon="-0.9516045457860917"><ele>292.0</ele><time>2026-05-03T18:30:24.001Z</time></trkpt><trkpt lat="41.58519671661749" lon="-0.9515127448776516"><ele>292.0</ele><time>2026-05-03T18:30:25.001Z</time></trkpt><trkpt lat="41.585289228440146" lon="-0.9514248684579266"><ele>292.0</ele><time>2026-05-03T18:30:26.001Z</time></trkpt><trkpt lat="41.5853818883349" lon="-0.9513326635280586"><ele>292.25</ele><time>2026-05-03T18:30:27.001Z</time></trkpt><trkpt lat="41.585473801412355" lon="-0.9512443415448611"><ele>292.5</ele><time>2026-05-03T18:30:28.001Z</time></trkpt><trkpt lat="41.585566328235075" lon="-0.9511552678062855"><ele>292.75</ele><time>2026-05-03T18:30:29.001Z</time></trkpt><trkpt lat="41.58565982489378" lon="-0.9510662906178996"><ele>293.0</ele><time>2026-05-03T18:30:30.001Z</time></trkpt><trkpt lat="41.585749600610306" lon="-0.950975280369015"><ele>293.0</ele><time>2026-05-03T18:30:31.001Z</time></trkpt><trkpt lat="41.585840924563655" lon="-0.9508808059417652"><ele>293.0</ele><time>2026-05-03T18:30:32.001Z</time></trkpt><trkpt lat="41.585935599175535" lon="-0.9507859253064689"><ele>293.0</ele><time>2026-05-03T18:30:33.001Z</time></trkpt><trkpt lat="41.58602399443099" lon="-0.9506945309455286"><ele>293.0</ele><time>2026-05-03T18:30:34.001Z</time></trkpt><trkpt lat="41.58611630288062" lon="-0.9505945809820889"><ele>292.25</ele><time>2026-05-03T18:30:35.001Z</time></trkpt><trkpt lat="41.586208121614376" lon="-0.9504960387655937"><ele>291.5</ele><time>2026-05-03T18:30:36.001Z</time></trkpt><trkpt lat="41.5862961434557" lon="-0.9504005883291451"><ele>290.75</ele><time>2026-05-03T18:30:37.001Z</time></trkpt><trkpt lat="41.5863835888074" lon="-0.9502980465492276"><ele>290.0</ele><time>2026-05-03T18:30:38.001Z</time></trkpt><trkpt lat="41.586471348860655" lon="-0.9501928872157013"><ele>290.0</ele><time>2026-05-03T18:30:39.001Z</time></trkpt><trkpt lat="41.58655856493728" lon="-0.950092507906215"><ele>290.0</ele><time>2026-05-03T18:30:40.001Z</time></trkpt><trkpt lat="41.58664476887815" lon="-0.9499883413506708"><ele>290.0</ele><time>2026-05-03T18:30:41.001Z</time></trkpt><trkpt lat="41.58672989824199" lon="-0.9498851543721181"><ele>290.0</ele><time>2026-05-03T18:30:42.001Z</time></trkpt><trkpt lat="41.586816763084904" lon="-0.9497869794261113"><ele>289.75</ele><time>2026-05-03T18:30:43.001Z</time></trkpt><trkpt lat="41.58690404000751" lon="-0.9496883205945326"><ele>289.5</ele><time>2026-05-03T18:30:44.001Z</time></trkpt><trkpt lat="41.58699071458314" lon="-0.9495850273284686"><ele>289.25</ele><time>2026-05-03T18:30:45.001Z</time></trkpt><trkpt lat="41.587075455919766" lon="-0.9494866813648469"><ele>289.0</ele><time>2026-05-03T18:30:46.001Z</time></trkpt><trkpt lat="41.58716132278609" lon="-0.9493866724210923"><ele>289.0</ele><time>2026-05-03T18:30:47.001Z</time></trkpt><trkpt lat="41.587246280828225" lon="-0.9492849607669853"><ele>289.0</ele><time>2026-05-03T18:30:48.001Z</time></trkpt><trkpt lat="41.587332335594574" lon="-0.9491812886281469"><ele>289.0</ele><time>2026-05-03T18:30:49.001Z</time></trkpt><trkpt lat="41.58741669774992" lon="-0.949079564506996"><ele>289.0</ele><time>2026-05-03T18:30:50Z</time></trkpt><trkpt lat="41.58749983976934" lon="-0.9489808862796425"><ele>289.0</ele><time>2026-05-03T18:30:51Z</time></trkpt><trkpt lat="41.58758362880759" lon="-0.9488796445789421"><ele>289.0</ele><time>2026-05-03T18:30:52Z</time></trkpt><trkpt lat="41.58766729806366" lon="-0.9487798547024867"><ele>289.0</ele><time>2026-05-03T18:30:53Z</time></trkpt><trkpt lat="41.58775025051687" lon="-0.9486835027210817"><ele>289.0</ele><time>2026-05-03T18:30:54Z</time></trkpt><trkpt lat="41.587837346436054" lon="-0.9485746116894265"><ele>289.0</ele><time>2026-05-03T18:30:55Z</time></trkpt><trkpt lat="41.587940919428185" lon="-0.9484495921678777"><ele>289.0</ele><time>2026-05-03T18:30:56Z</time></trkpt><trkpt lat="41.5880617706741" lon="-0.9483069066046173"><ele>289.0</ele><time>2026-05-03T18:30:57Z</time></trkpt><trkpt lat="41.588173557943016" lon="-0.948196843826002"><ele>289.0</ele><time>2026-05-03T18:30:59Z</time></trkpt><trkpt lat="41.58825453142402" lon="-0.9481002689553718"><ele>289.0</ele><time>2026-05-03T18:31:00Z</time></trkpt><trkpt lat="41.58833826700286" lon="-0.9479990833441951"><ele>289.0</ele><time>2026-05-03T18:31:01Z</time></trkpt><trkpt lat="41.58842301218395" lon="-0.9479015202785411"><ele>289.0</ele><time>2026-05-03T18:31:02Z</time></trkpt><trkpt lat="41.588503189856254" lon="-0.9478035554710659"><ele>289.0</ele><time>2026-05-03T18:31:03Z</time></trkpt><trkpt lat="41.5885864182066" lon="-0.9477077509453807"><ele>289.0</ele><time>2026-05-03T18:31:04Z</time></trkpt><trkpt lat="41.588663477625694" lon="-0.9476109325860578"><ele>288.8</ele><time>2026-05-03T18:31:05Z</time></trkpt><trkpt lat="41.58873859342943" lon="-0.9475097971868236"><ele>288.59999999999997</ele><time>2026-05-03T18:31:06Z</time></trkpt><trkpt lat="41.58882178042647" lon="-0.9474130655604606"><ele>288.4</ele><time>2026-05-03T18:31:07Z</time></trkpt><trkpt lat="41.588903201430334" lon="-0.9473191479009718"><ele>288.2</ele><time>2026-05-03T18:31:08Z</time></trkpt><trkpt lat="41.58898920680065" lon="-0.9472242448832275"><ele>288.0</ele><time>2026-05-03T18:31:09Z</time></trkpt><trkpt lat="41.5890755621004" lon="-0.9471336958029531"><ele>288.0</ele><time>2026-05-03T18:31:10Z</time></trkpt><trkpt lat="41.58915972359865" lon="-0.947042530575437"><ele>288.0</ele><time>2026-05-03T18:31:11Z</time></trkpt><trkpt lat="41.58923382045507" lon="-0.9469315682103704"><ele>288.0</ele><time>2026-05-03T18:31:12Z</time></trkpt><trkpt lat="41.58929440256553" lon="-0.9468074337244206"><ele>288.0</ele><time>2026-05-03T18:31:13Z</time></trkpt><trkpt lat="41.58934458022456" lon="-0.9466759335547545"><ele>288.0</ele><time>2026-05-03T18:31:14Z</time></trkpt><trkpt lat="41.58940749767436" lon="-0.9465530326078109"><ele>287.8</ele><time>2026-05-03T18:31:15Z</time></trkpt><trkpt lat="41.58948380117657" lon="-0.9464550168325911"><ele>287.6</ele><time>2026-05-03T18:31:16Z</time></trkpt><trkpt lat="41.58957967042867" lon="-0.9463817982429743"><ele>287.4</ele><time>2026-05-03T18:31:17Z</time></trkpt><trkpt lat="41.58968234963853" lon="-0.9463219057798006"><ele>287.2</ele><time>2026-05-03T18:31:18Z</time></trkpt><trkpt lat="41.58978688650237" lon="-0.9462597548587113"><ele>287.0</ele><time>2026-05-03T18:31:19Z</time></trkpt><trkpt lat="41.58987920317291" lon="-0.9461816382291347"><ele>287.0</ele><time>2026-05-03T18:31:20Z</time></trkpt><trkpt lat="41.58996261202898" lon="-0.9460897034374991"><ele>287.0</ele><time>2026-05-03T18:31:21Z</time></trkpt><trkpt lat="41.59004472775018" lon="-0.945991506112694"><ele>287.0</ele><time>2026-05-03T18:31:22Z</time></trkpt><trkpt lat="41.59012907575371" lon="-0.9458940318263689"><ele>287.0</ele><time>2026-05-03T18:31:23Z</time></trkpt><trkpt lat="41.5902137860752" lon="-0.9457970330164367"><ele>287.0</ele><time>2026-05-03T18:31:24Z</time></trkpt><trkpt lat="41.59029945952232" lon="-0.9456940043006397"><ele>286.75</ele><time>2026-05-03T18:31:25Z</time></trkpt><trkpt lat="41.59038568843332" lon="-0.9455940185176515"><ele>286.5</ele><time>2026-05-03T18:31:26Z</time></trkpt><trkpt lat="41.590472086352364" lon="-0.9454911530243804"><ele>286.25</ele><time>2026-05-03T18:31:27Z</time></trkpt><trkpt lat="41.59055551100795" lon="-0.9453892450427902"><ele>286.0</ele><time>2026-05-03T18:31:28Z</time></trkpt><trkpt lat="41.59063804568278" lon="-0.9452929129483523"><ele>286.0</ele><time>2026-05-03T18:31:29Z</time></trkpt><trkpt lat="41.590724224340235" lon="-0.945188118437079"><ele>286.0</ele><time>2026-05-03T18:31:30Z</time></trkpt><trkpt lat="41.59080899556223" lon="-0.9450907482054522"><ele>286.0</ele><time>2026-05-03T18:31:31Z</time></trkpt><trkpt lat="41.590899006939075" lon="-0.9449956971225212"><ele>286.0</ele><time>2026-05-03T18:31:32Z</time></trkpt><trkpt lat="41.59098541171881" lon="-0.9448979348746913"><ele>285.75</ele><time>2026-05-03T18:31:33Z</time></trkpt><trkpt lat="41.59107236073774" lon="-0.9448003302163538"><ele>285.5</ele><time>2026-05-03T18:31:34Z</time></trkpt><trkpt lat="41.5911603179051" lon="-0.9447035970654087"><ele>285.25</ele><time>2026-05-03T18:31:35Z</time></trkpt><trkpt lat="41.591246687790004" lon="-0.944603543566548"><ele>285.0</ele><time>2026-05-03T18:31:36Z</time></trkpt><trkpt lat="41.59133529557039" lon="-0.9445048681734111"><ele>284.75</ele><time>2026-05-03T18:31:37Z</time></trkpt><trkpt lat="41.59142515379201" lon="-0.9444039278328007"><ele>284.5</ele><time>2026-05-03T18:31:38Z</time></trkpt><trkpt lat="41.59150672955285" lon="-0.9442995307919312"><ele>284.25</ele><time>2026-05-03T18:31:39Z</time></trkpt><trkpt lat="41.59159718752042" lon="-0.9442047852554071"><ele>284.0</ele><time>2026-05-03T18:31:40Z</time></trkpt><trkpt lat="41.59168756431004" lon="-0.9441063630259776"><ele>284.0</ele><time>2026-05-03T18:31:41Z</time></trkpt><trkpt lat="41.59177531399005" lon="-0.9440050474640562"><ele>284.0</ele><time>2026-05-03T18:31:42Z</time></trkpt><trkpt lat="41.59186124033474" lon="-0.9439043928557642"><ele>284.0</ele><time>2026-05-03T18:31:43Z</time></trkpt><trkpt lat="41.59195108377402" lon="-0.9438072869131231"><ele>284.0</ele><time>2026-05-03T18:31:44Z</time></trkpt><trkpt lat="41.59204050320667" lon="-0.9437137975492547"><ele>284.0</ele><time>2026-05-03T18:31:45Z</time></trkpt><trkpt lat="41.5921288381927" lon="-0.9436159294542464"><ele>284.0</ele><time>2026-05-03T18:31:46Z</time></trkpt><trkpt lat="41.59221556100894" lon="-0.9435157061866754"><ele>284.0</ele><time>2026-05-03T18:31:47Z</time></trkpt><trkpt lat="41.59230575071432" lon="-0.9434206756456041"><ele>284.0</ele><time>2026-05-03T18:31:48Z</time></trkpt><trkpt lat="41.592393310849616" lon="-0.9433262928082644"><ele>283.5</ele><time>2026-05-03T18:31:49Z</time></trkpt><trkpt lat="41.592479547323" lon="-0.9432272019074027"><ele>283.0</ele><time>2026-05-03T18:31:50Z</time></trkpt><trkpt lat="41.59256766180936" lon="-0.9431327475210067"><ele>282.5</ele><time>2026-05-03T18:31:51.001Z</time></trkpt><trkpt lat="41.59265788246193" lon="-0.9430433148526871"><ele>282.0</ele><time>2026-05-03T18:31:52.001Z</time></trkpt><trkpt lat="41.592745179384586" lon="-0.942946253865086"><ele>282.0</ele><time>2026-05-03T18:31:53.001Z</time></trkpt><trkpt lat="41.59283186397126" lon="-0.9428460483343355"><ele>282.0</ele><time>2026-05-03T18:31:54.001Z</time></trkpt><trkpt lat="41.59292130588086" lon="-0.9427479088854613"><ele>282.0</ele><time>2026-05-03T18:31:55.001Z</time></trkpt><trkpt lat="41.59301001904508" lon="-0.9426531110623116"><ele>282.0</ele><time>2026-05-03T18:31:56.001Z</time></trkpt><trkpt lat="41.59309915421635" lon="-0.9425552618729643"><ele>282.0</ele><time>2026-05-03T18:31:57.001Z</time></trkpt><trkpt lat="41.59318614958732" lon="-0.9424555260224221"><ele>282.0</ele><time>2026-05-03T18:31:58.001Z</time></trkpt><trkpt lat="41.59327477880672" lon="-0.9423604985406722"><ele>282.0</ele><time>2026-05-03T18:31:59.001Z</time></trkpt><trkpt lat="41.59336671693877" lon="-0.9422680659465541"><ele>282.0</ele><time>2026-05-03T18:32:00.001Z</time></trkpt><trkpt lat="41.59345602333828" lon="-0.9421693938089298"><ele>282.0</ele><time>2026-05-03T18:32:01.001Z</time></trkpt><trkpt lat="41.59354253295388" lon="-0.9420717101635623"><ele>282.0</ele><time>2026-05-03T18:32:02.001Z</time></trkpt><trkpt lat="41.5936294948682" lon="-0.9419737809749555"><ele>282.0</ele><time>2026-05-03T18:32:03.001Z</time></trkpt><trkpt lat="41.5937159978324" lon="-0.9418751867765186"><ele>282.0</ele><time>2026-05-03T18:32:04.001Z</time></trkpt><trkpt lat="41.59380601865819" lon="-0.9417806363062403"><ele>281.25</ele><time>2026-05-03T18:32:05.001Z</time></trkpt><trkpt lat="41.59389583266299" lon="-0.9416834344992546"><ele>280.5</ele><time>2026-05-03T18:32:06.001Z</time></trkpt><trkpt lat="41.59398398904705" lon="-0.9415881050353319"><ele>279.75</ele><time>2026-05-03T18:32:07.001Z</time></trkpt><trkpt lat="41.594073807021594" lon="-0.9414907004111525"><ele>279.0</ele><time>2026-05-03T18:32:08.001Z</time></trkpt><trkpt lat="41.59415929946553" lon="-0.94138645907754"><ele>279.0</ele><time>2026-05-03T18:32:09.001Z</time></trkpt><trkpt lat="41.59424501203591" lon="-0.9412844049767367"><ele>279.0</ele><time>2026-05-03T18:32:10.001Z</time></trkpt><trkpt lat="41.59432332746221" lon="-0.9411992705327176"><ele>279.0</ele><time>2026-05-03T18:32:11.001Z</time></trkpt><trkpt lat="41.59441259511595" lon="-0.941115197081631"><ele>279.0</ele><time>2026-05-03T18:32:12.001Z</time></trkpt><trkpt lat="41.59450709150118" lon="-0.9410183607765548"><ele>279.0</ele><time>2026-05-03T18:32:13.001Z</time></trkpt><trkpt lat="41.59459926693694" lon="-0.9409220939241435"><ele>279.0</ele><time>2026-05-03T18:32:14.001Z</time></trkpt><trkpt lat="41.59470047913058" lon="-0.9408243172489034"><ele>279.0</ele><time>2026-05-03T18:32:15.001Z</time></trkpt><trkpt lat="41.5948002357771" lon="-0.940707065935696"><ele>279.0</ele><time>2026-05-03T18:32:16.001Z</time></trkpt><trkpt lat="41.59494623608589" lon="-0.9405873973748506"><ele>279.0</ele><time>2026-05-03T18:32:18.001Z</time></trkpt><trkpt lat="41.59504247570584" lon="-0.9404988880698452"><ele>279.0</ele><time>2026-05-03T18:32:19.001Z</time></trkpt><trkpt lat="41.59514211993174" lon="-0.9404230467419122"><ele>279.0</ele><time>2026-05-03T18:32:20.001Z</time></trkpt><trkpt lat="41.59522926719995" lon="-0.9403458834343823"><ele>279.0</ele><time>2026-05-03T18:32:21.001Z</time></trkpt><trkpt lat="41.59532399657066" lon="-0.940267083325129"><ele>279.0</ele><time>2026-05-03T18:32:22.001Z</time></trkpt><trkpt lat="41.595422775589824" lon="-0.9401879963038564"><ele>279.0</ele><time>2026-05-03T18:32:23.001Z</time></trkpt><trkpt lat="41.595522924070636" lon="-0.9401108867048132"><ele>279.0</ele><time>2026-05-03T18:32:24.001Z</time></trkpt><trkpt lat="41.59562132385593" lon="-0.940037668512656"><ele>279.0</ele><time>2026-05-03T18:32:25.001Z</time></trkpt><trkpt lat="41.595714792907366" lon="-0.9399680888979709"><ele>279.0</ele><time>2026-05-03T18:32:26.001Z</time></trkpt><trkpt lat="41.5958076020547" lon="-0.939905038422775"><ele>279.0</ele><time>2026-05-03T18:32:27.001Z</time></trkpt><trkpt lat="41.59590758672474" lon="-0.9398463209786817"><ele>279.0</ele><time>2026-05-03T18:32:28.001Z</time></trkpt><trkpt lat="41.59600506262372" lon="-0.9397861906565017"><ele>279.0</ele><time>2026-05-03T18:32:29.001Z</time></trkpt><trkpt lat="41.596099163742416" lon="-0.9397312843572448"><ele>279.0</ele><time>2026-05-03T18:32:30.001Z</time></trkpt><trkpt lat="41.59618858156359" lon="-0.9396714489431456"><ele>279.0</ele><time>2026-05-03T18:32:31.001Z</time></trkpt><trkpt lat="41.59626879895825" lon="-0.9396174800633"><ele>279.0</ele><time>2026-05-03T18:32:32.001Z</time></trkpt><trkpt lat="41.59633871548421" lon="-0.939547832152201"><ele>279.0</ele><time>2026-05-03T18:32:33.001Z</time></trkpt><trkpt lat="41.596388521659875" lon="-0.9394417673513167"><ele>278.4</ele><time>2026-05-03T18:32:34.001Z</time></trkpt><trkpt lat="41.596424269569695" lon="-0.9393176222738503"><ele>277.79999999999995</ele><time>2026-05-03T18:32:35.001Z</time></trkpt><trkpt lat="41.59647217990883" lon="-0.9392039450414869"><ele>277.20000000000005</ele><time>2026-05-03T18:32:36.001Z</time></trkpt><trkpt lat="41.596540224010745" lon="-0.9391087005944165"><ele>276.6</ele><time>2026-05-03T18:32:37.001Z</time></trkpt><trkpt lat="41.59662191472041" lon="-0.9390227603231311"><ele>276.0</ele><time>2026-05-03T18:32:38.001Z</time></trkpt><trkpt lat="41.596702750580995" lon="-0.9389275655113775"><ele>276.0</ele><time>2026-05-03T18:32:39.001Z</time></trkpt><trkpt lat="41.59676311663888" lon="-0.9388059082985692"><ele>276.0</ele><time>2026-05-03T18:32:40.001Z</time></trkpt><trkpt lat="41.59681100334852" lon="-0.9386717484591055"><ele>276.0</ele><time>2026-05-03T18:32:41.001Z</time></trkpt><trkpt lat="41.59687370110428" lon="-0.938558164086523"><ele>276.0</ele><time>2026-05-03T18:32:42.001Z</time></trkpt><trkpt lat="41.59697526993148" lon="-0.938473305065784"><ele>276.0</ele><time>2026-05-03T18:32:43.001Z</time></trkpt><trkpt lat="41.59705136993444" lon="-0.9383632739564669"><ele>275.8</ele><time>2026-05-03T18:32:44.001Z</time></trkpt><trkpt lat="41.5971172141708" lon="-0.9382485538584096"><ele>275.6</ele><time>2026-05-03T18:32:45.001Z</time></trkpt><trkpt lat="41.59720733043261" lon="-0.9381605958420938"><ele>275.4</ele><time>2026-05-03T18:32:46.001Z</time></trkpt><trkpt lat="41.597305171270136" lon="-0.9380793551908011"><ele>275.2</ele><time>2026-05-03T18:32:47.001Z</time></trkpt><trkpt lat="41.59740127894954" lon="-0.9379998906385477"><ele>275.0</ele><time>2026-05-03T18:32:48.001Z</time></trkpt><trkpt lat="41.5975003208453" lon="-0.9379225397572045"><ele>275.0</ele><time>2026-05-03T18:32:49.001Z</time></trkpt><trkpt lat="41.597597079409574" lon="-0.9378460130750875"><ele>275.0</ele><time>2026-05-03T18:32:50.001Z</time></trkpt><trkpt lat="41.597695914889854" lon="-0.9377734949171453"><ele>275.0</ele><time>2026-05-03T18:32:51.001Z</time></trkpt><trkpt lat="41.597797269478384" lon="-0.937704522199603"><ele>275.0</ele><time>2026-05-03T18:32:52.001Z</time></trkpt><trkpt lat="41.597899378275656" lon="-0.9376403001267407"><ele>275.2</ele><time>2026-05-03T18:32:53.001Z</time></trkpt><trkpt lat="41.59800382503125" lon="-0.9375798586979323"><ele>275.4</ele><time>2026-05-03T18:32:54.001Z</time></trkpt><trkpt lat="41.5981082283114" lon="-0.9375276507236888"><ele>275.6</ele><time>2026-05-03T18:32:55.001Z</time></trkpt><trkpt lat="41.59821409083643" lon="-0.9374757396180314"><ele>275.8</ele><time>2026-05-03T18:32:56Z</time></trkpt><trkpt lat="41.59832002571063" lon="-0.9374312979361201"><ele>276.0</ele><time>2026-05-03T18:32:57Z</time></trkpt><trkpt lat="41.59842727590414" lon="-0.9373882753624345"><ele>276.0</ele><time>2026-05-03T18:32:58Z</time></trkpt><trkpt lat="41.598537809984784" lon="-0.9373464620976006"><ele>276.0</ele><time>2026-05-03T18:32:59Z</time></trkpt><trkpt lat="41.59864597018431" lon="-0.9373096067735847"><ele>276.0</ele><time>2026-05-03T18:33:00Z</time></trkpt><trkpt lat="41.59875650838965" lon="-0.9372743656275527"><ele>276.0</ele><time>2026-05-03T18:33:01Z</time></trkpt><trkpt lat="41.59886572243511" lon="-0.9372367630244528"><ele>275.5</ele><time>2026-05-03T18:33:02Z</time></trkpt><trkpt lat="41.59897542224908" lon="-0.937204198610764"><ele>275.0</ele><time>2026-05-03T18:33:03Z</time></trkpt><trkpt lat="41.59908601768426" lon="-0.9371751747530158"><ele>274.5</ele><time>2026-05-03T18:33:04Z</time></trkpt><trkpt lat="41.59919658262885" lon="-0.9371487000069589"><ele>274.0</ele><time>2026-05-03T18:33:05Z</time></trkpt><trkpt lat="41.599308936499455" lon="-0.9371196388793152"><ele>274.0</ele><time>2026-05-03T18:33:06Z</time></trkpt><trkpt lat="41.599420877903924" lon="-0.9370898732805889"><ele>274.0</ele><time>2026-05-03T18:33:07Z</time></trkpt><trkpt lat="41.59953190314728" lon="-0.9370600880118389"><ele>274.0</ele><time>2026-05-03T18:33:08Z</time></trkpt><trkpt lat="41.599643509002284" lon="-0.9370287934893134"><ele>274.0</ele><time>2026-05-03T18:33:09Z</time></trkpt><trkpt lat="41.59975697700816" lon="-0.9369979465978121"><ele>274.25</ele><time>2026-05-03T18:33:10Z</time></trkpt><trkpt lat="41.59987212054286" lon="-0.9369701542231837"><ele>274.5</ele><time>2026-05-03T18:33:11Z</time></trkpt><trkpt lat="41.59998428929628" lon="-0.9369401341826908"><ele>274.75</ele><time>2026-05-03T18:33:12Z</time></trkpt><trkpt lat="41.600098251127804" lon="-0.9369150438596087"><ele>275.0</ele><time>2026-05-03T18:33:13Z</time></trkpt><trkpt lat="41.600211286588724" lon="-0.9368830238674332"><ele>275.0</ele><time>2026-05-03T18:33:14Z</time></trkpt><trkpt lat="41.600323197547624" lon="-0.9368461137753498"><ele>275.0</ele><time>2026-05-03T18:33:15Z</time></trkpt><trkpt lat="41.60043597468871" lon="-0.9368094040646745"><ele>275.0</ele><time>2026-05-03T18:33:16Z</time></trkpt><trkpt lat="41.60054930526825" lon="-0.9367714324598007"><ele>275.0</ele><time>2026-05-03T18:33:17Z</time></trkpt><trkpt lat="41.600658757338934" lon="-0.9367255242806709"><ele>274.5</ele><time>2026-05-03T18:33:18Z</time></trkpt><trkpt lat="41.600766016539644" lon="-0.9366684870534061"><ele>274.0</ele><time>2026-05-03T18:33:19Z</time></trkpt><trkpt lat="41.600873782171035" lon="-0.9366023090511577"><ele>273.5</ele><time>2026-05-03T18:33:20Z</time></trkpt><trkpt lat="41.600976676085764" lon="-0.9365329255929918"><ele>273.0</ele><time>2026-05-03T18:33:21Z</time></trkpt><trkpt lat="41.60107664525063" lon="-0.9364573605856034"><ele>273.75</ele><time>2026-05-03T18:33:22Z</time></trkpt><trkpt lat="41.6011732810518" lon="-0.9363770809453004"><ele>274.5</ele><time>2026-05-03T18:33:23Z</time></trkpt><trkpt lat="41.60126733332951" lon="-0.9362911245969144"><ele>275.25</ele><time>2026-05-03T18:33:24Z</time></trkpt><trkpt lat="41.601357502078834" lon="-0.936207151428538"><ele>276.0</ele><time>2026-05-03T18:33:25Z</time></trkpt><trkpt lat="41.60145184307061" lon="-0.9361244131574696"><ele>276.0</ele><time>2026-05-03T18:33:26Z</time></trkpt><trkpt lat="41.60154412750157" lon="-0.9360409509457658"><ele>276.0</ele><time>2026-05-03T18:33:27Z</time></trkpt><trkpt lat="41.60163459257907" lon="-0.9359538115517064"><ele>276.0</ele><time>2026-05-03T18:33:28Z</time></trkpt><trkpt lat="41.60172853220638" lon="-0.9358681833402659"><ele>276.0</ele><time>2026-05-03T18:33:29Z</time></trkpt><trkpt lat="41.601821750301816" lon="-0.9357860713134695"><ele>276.0</ele><time>2026-05-03T18:33:30Z</time></trkpt><trkpt lat="41.60191653959534" lon="-0.9356981341054151"><ele>276.0</ele><time>2026-05-03T18:33:31Z</time></trkpt><trkpt lat="41.60201084170374" lon="-0.9356130976541447"><ele>276.0</ele><time>2026-05-03T18:33:32Z</time></trkpt><trkpt lat="41.6021056194029" lon="-0.9355283806037837"><ele>276.0</ele><time>2026-05-03T18:33:33Z</time></trkpt><trkpt lat="41.60219705593296" lon="-0.9354396861207838"><ele>276.0</ele><time>2026-05-03T18:33:34Z</time></trkpt><trkpt lat="41.60229409555893" lon="-0.9353531708098511"><ele>276.0</ele><time>2026-05-03T18:33:35Z</time></trkpt><trkpt lat="41.60239075075705" lon="-0.9352661462911331"><ele>276.0</ele><time>2026-05-03T18:33:36Z</time></trkpt><trkpt lat="41.60248594507861" lon="-0.9351783277505477"><ele>276.0</ele><time>2026-05-03T18:33:37Z</time></trkpt><trkpt lat="41.60258090632333" lon="-0.9350898930018352"><ele>276.0</ele><time>2026-05-03T18:33:38Z</time></trkpt><trkpt lat="41.602675285102634" lon="-0.9350013719392415"><ele>275.25</ele><time>2026-05-03T18:33:39Z</time></trkpt><trkpt lat="41.60277126148911" lon="-0.9349110002601603"><ele>274.5</ele><time>2026-05-03T18:33:40Z</time></trkpt><trkpt lat="41.60286266151918" lon="-0.9348216844013814"><ele>273.75</ele><time>2026-05-03T18:33:41Z</time></trkpt><trkpt lat="41.60295518470287" lon="-0.9347382198099055"><ele>273.0</ele><time>2026-05-03T18:33:42Z</time></trkpt><trkpt lat="41.603050876165554" lon="-0.9346545337603499"><ele>273.0</ele><time>2026-05-03T18:33:43Z</time></trkpt><trkpt lat="41.60314636280833" lon="-0.9345662583310409"><ele>273.0</ele><time>2026-05-03T18:33:44Z</time></trkpt><trkpt lat="41.60323832559493" lon="-0.9344786177901397"><ele>273.0</ele><time>2026-05-03T18:33:45Z</time></trkpt><trkpt lat="41.60333259395854" lon="-0.934391067149484"><ele>273.0</ele><time>2026-05-03T18:33:46Z</time></trkpt><trkpt lat="41.60342308469495" lon="-0.9343035340255027"><ele>272.5</ele><time>2026-05-03T18:33:47Z</time></trkpt><trkpt lat="41.60351757943679" lon="-0.9342173149374314"><ele>272.0</ele><time>2026-05-03T18:33:48Z</time></trkpt><trkpt lat="41.60361079135286" lon="-0.9341271893060906"><ele>271.5</ele><time>2026-05-03T18:33:49Z</time></trkpt><trkpt lat="41.60370336423559" lon="-0.9340388163907275"><ele>271.0</ele><time>2026-05-03T18:33:50Z</time></trkpt><trkpt lat="41.60379507030158" lon="-0.933950859896154"><ele>270.25</ele><time>2026-05-03T18:33:51Z</time></trkpt><trkpt lat="41.60388713603597" lon="-0.9338612989277665"><ele>269.5</ele><time>2026-05-03T18:33:52Z</time></trkpt><trkpt lat="41.603979605590176" lon="-0.933768569758403"><ele>268.75</ele><time>2026-05-03T18:33:53Z</time></trkpt><trkpt lat="41.60407327960565" lon="-0.9336803998064104"><ele>268.0</ele><time>2026-05-03T18:33:54Z</time></trkpt><trkpt lat="41.604162531622336" lon="-0.9335898111951644"><ele>268.0</ele><time>2026-05-03T18:33:55Z</time></trkpt><trkpt lat="41.60425535742375" lon="-0.9334998553065709"><ele>268.0</ele><time>2026-05-03T18:33:56Z</time></trkpt><trkpt lat="41.604345734463706" lon="-0.9334081623918404"><ele>268.0</ele><time>2026-05-03T18:33:57Z</time></trkpt><trkpt lat="41.604437924211645" lon="-0.9333179175922246"><ele>268.0</ele><time>2026-05-03T18:33:58.001Z</time></trkpt><trkpt lat="41.604531955992485" lon="-0.933225735117411"><ele>268.0</ele><time>2026-05-03T18:33:59.001Z</time></trkpt><trkpt lat="41.604622667574084" lon="-0.9331315377016492"><ele>268.0</ele><time>2026-05-03T18:34:00.001Z</time></trkpt><trkpt lat="41.60471323792968" lon="-0.9330366681152281"><ele>268.0</ele><time>2026-05-03T18:34:01.001Z</time></trkpt><trkpt lat="41.6048046560668" lon="-0.9329459535658801"><ele>268.0</ele><time>2026-05-03T18:34:02.001Z</time></trkpt><trkpt lat="41.60489617785819" lon="-0.9328512433290438"><ele>268.0</ele><time>2026-05-03T18:34:03.001Z</time></trkpt><trkpt lat="41.604985623997415" lon="-0.9327575355517616"><ele>268.0</ele><time>2026-05-03T18:34:04.001Z</time></trkpt><trkpt lat="41.60507957531566" lon="-0.9326593368147452"><ele>268.0</ele><time>2026-05-03T18:34:05.001Z</time></trkpt><trkpt lat="41.60517048400599" lon="-0.9325628455411994"><ele>268.0</ele><time>2026-05-03T18:34:06.001Z</time></trkpt><trkpt lat="41.60526176416113" lon="-0.9324665815050823"><ele>268.0</ele><time>2026-05-03T18:34:07.001Z</time></trkpt><trkpt lat="41.6053533751549" lon="-0.9323695336597903"><ele>268.0</ele><time>2026-05-03T18:34:08.001Z</time></trkpt><trkpt lat="41.60544483766893" lon="-0.9322729971079604"><ele>268.0</ele><time>2026-05-03T18:34:09.001Z</time></trkpt><trkpt lat="41.60553524430084" lon="-0.9321775479062003"><ele>268.0</ele><time>2026-05-03T18:34:10.001Z</time></trkpt><trkpt lat="41.60562600945241" lon="-0.9320808100009126"><ele>268.0</ele><time>2026-05-03T18:34:11.001Z</time></trkpt><trkpt lat="41.60571749750921" lon="-0.9319825007066523"><ele>268.0</ele><time>2026-05-03T18:34:12.001Z</time></trkpt><trkpt lat="41.60580405707094" lon="-0.931886692054609"><ele>268.0</ele><time>2026-05-03T18:34:13.001Z</time></trkpt><trkpt lat="41.605894937799206" lon="-0.9317912372521612"><ele>268.0</ele><time>2026-05-03T18:34:14.001Z</time></trkpt><trkpt lat="41.60598546692946" lon="-0.93169575335949"><ele>268.0</ele><time>2026-05-03T18:34:15.001Z</time></trkpt><trkpt lat="41.606077344814295" lon="-0.931599441195389"><ele>268.0</ele><time>2026-05-03T18:34:16.001Z</time></trkpt><trkpt lat="41.606170701113655" lon="-0.9315049670734953"><ele>268.0</ele><time>2026-05-03T18:34:17.001Z</time></trkpt><trkpt lat="41.60625947640479" lon="-0.9314127013067591"><ele>268.0</ele><time>2026-05-03T18:34:18.001Z</time></trkpt><trkpt lat="41.60635221234222" lon="-0.9313164821064022"><ele>268.0</ele><time>2026-05-03T18:34:19.001Z</time></trkpt><trkpt lat="41.60644141931305" lon="-0.9312213852407468"><ele>268.0</ele><time>2026-05-03T18:34:20.001Z</time></trkpt><trkpt lat="41.60653072406331" lon="-0.931124122494467"><ele>268.0</ele><time>2026-05-03T18:34:21.001Z</time></trkpt><trkpt lat="41.606621945621676" lon="-0.9310283424900186"><ele>268.0</ele><time>2026-05-03T18:34:22.001Z</time></trkpt><trkpt lat="41.60671311514551" lon="-0.930932031404197"><ele>267.75</ele><time>2026-05-03T18:34:23.001Z</time></trkpt><trkpt lat="41.60680469232179" lon="-0.9308357439492396"><ele>267.5</ele><time>2026-05-03T18:34:24.001Z</time></trkpt><trkpt lat="41.60689685654748" lon="-0.9307408280799067"><ele>267.25</ele><time>2026-05-03T18:34:25.001Z</time></trkpt><trkpt lat="41.6069876547874" lon="-0.9306480379025696"><ele>267.0</ele><time>2026-05-03T18:34:26.001Z</time></trkpt><trkpt lat="41.6070784253254" lon="-0.9305511883521135"><ele>267.0</ele><time>2026-05-03T18:34:27.001Z</time></trkpt><trkpt lat="41.60716980665757" lon="-0.9304556407670043"><ele>267.0</ele><time>2026-05-03T18:34:28.001Z</time></trkpt><trkpt lat="41.60726040730729" lon="-0.9303601810397687"><ele>267.0</ele><time>2026-05-03T18:34:29.001Z</time></trkpt><trkpt lat="41.60734804408208" lon="-0.9302668396927176"><ele>267.0</ele><time>2026-05-03T18:34:30.001Z</time></trkpt><trkpt lat="41.60743700477007" lon="-0.9301711995212998"><ele>267.0</ele><time>2026-05-03T18:34:31.001Z</time></trkpt><trkpt lat="41.607529121015645" lon="-0.9300749514398948"><ele>267.0</ele><time>2026-05-03T18:34:32.001Z</time></trkpt><trkpt lat="41.60761875348477" lon="-0.9299811286224475"><ele>267.0</ele><time>2026-05-03T18:34:33.001Z</time></trkpt><trkpt lat="41.607710235049886" lon="-0.9298879243143374"><ele>267.0</ele><time>2026-05-03T18:34:34.001Z</time></trkpt><trkpt lat="41.60779984319388" lon="-0.9297894590154161"><ele>266.25</ele><time>2026-05-03T18:34:35.001Z</time></trkpt><trkpt lat="41.607892031957064" lon="-0.9296938300668203"><ele>265.5</ele><time>2026-05-03T18:34:36.001Z</time></trkpt><trkpt lat="41.60798082567746" lon="-0.9295988623595242"><ele>264.75</ele><time>2026-05-03T18:34:37.001Z</time></trkpt><trkpt lat="41.608071188297096" lon="-0.9295027598215444"><ele>264.0</ele><time>2026-05-03T18:34:38.001Z</time></trkpt><trkpt lat="41.60816561756893" lon="-0.9294082376167424"><ele>264.0</ele><time>2026-05-03T18:34:39.001Z</time></trkpt><trkpt lat="41.60825344487333" lon="-0.9293144221145925"><ele>264.0</ele><time>2026-05-03T18:34:40.001Z</time></trkpt><trkpt lat="41.6083434376391" lon="-0.9292201867343655"><ele>264.0</ele><time>2026-05-03T18:34:41.001Z</time></trkpt><trkpt lat="41.60843404987416" lon="-0.9291254387188681"><ele>264.0</ele><time>2026-05-03T18:34:42.001Z</time></trkpt><trkpt lat="41.60852213397511" lon="-0.9290307392063472"><ele>264.5</ele><time>2026-05-03T18:34:43.001Z</time></trkpt><trkpt lat="41.60861399914641" lon="-0.9289387589617304"><ele>265.0</ele><time>2026-05-03T18:34:44.001Z</time></trkpt><trkpt lat="41.60870624960418" lon="-0.9288446696887714"><ele>265.5</ele><time>2026-05-03T18:34:45.001Z</time></trkpt><trkpt lat="41.60879287869299" lon="-0.9287544538155145"><ele>266.0</ele><time>2026-05-03T18:34:46.001Z</time></trkpt><trkpt lat="41.608883852747915" lon="-0.9286601147600505"><ele>266.0</ele><time>2026-05-03T18:34:47.001Z</time></trkpt><trkpt lat="41.60897396050238" lon="-0.9285697832896433"><ele>266.0</ele><time>2026-05-03T18:34:48.001Z</time></trkpt><trkpt lat="41.609068595727955" lon="-0.9284812953642703"><ele>266.0</ele><time>2026-05-03T18:34:49.001Z</time></trkpt><trkpt lat="41.60915975517767" lon="-0.9283880584347591"><ele>266.0</ele><time>2026-05-03T18:34:50.001Z</time></trkpt><trkpt lat="41.60924963732941" lon="-0.9282947032995785"><ele>265.75</ele><time>2026-05-03T18:34:51.001Z</time></trkpt><trkpt lat="41.60934199737062" lon="-0.9282013727010042"><ele>265.5</ele><time>2026-05-03T18:34:52.001Z</time></trkpt><trkpt lat="41.60943487715812" lon="-0.9281092617787613"><ele>265.25</ele><time>2026-05-03T18:34:53.001Z</time></trkpt><trkpt lat="41.609527846010565" lon="-0.9280168356907174"><ele>265.0</ele><time>2026-05-03T18:34:54.001Z</time></trkpt><trkpt lat="41.60961712638433" lon="-0.927923552325954"><ele>265.0</ele><time>2026-05-03T18:34:55.001Z</time></trkpt><trkpt lat="41.6097096412178" lon="-0.927831713189729"><ele>265.0</ele><time>2026-05-03T18:34:56.001Z</time></trkpt><trkpt lat="41.609802175576824" lon="-0.9277417881105372"><ele>265.0</ele><time>2026-05-03T18:34:57.001Z</time></trkpt><trkpt lat="41.60989389521687" lon="-0.9276476521592073"><ele>265.0</ele><time>2026-05-03T18:34:58.001Z</time></trkpt><trkpt lat="41.60998624592744" lon="-0.9275602643638322"><ele>265.25</ele><time>2026-05-03T18:34:59.001Z</time></trkpt><trkpt lat="41.610078750848324" lon="-0.9274668273337613"><ele>265.5</ele><time>2026-05-03T18:35:00.001Z</time></trkpt><trkpt lat="41.61017077782449" lon="-0.9273783153063714"><ele>265.75</ele><time>2026-05-03T18:35:01.001Z</time></trkpt><trkpt lat="41.610263329467344" lon="-0.9272879138743046"><ele>266.0</ele><time>2026-05-03T18:35:02Z</time></trkpt><trkpt lat="41.61035723026349" lon="-0.9271980085417159"><ele>266.0</ele><time>2026-05-03T18:35:03Z</time></trkpt><trkpt lat="41.61045010228141" lon="-0.9271087344708429"><ele>266.0</ele><time>2026-05-03T18:35:04Z</time></trkpt><trkpt lat="41.610543004204935" lon="-0.9270179741384601"><ele>266.0</ele><time>2026-05-03T18:35:05Z</time></trkpt><trkpt lat="41.610634121344525" lon="-0.9269266716369126"><ele>266.0</ele><time>2026-05-03T18:35:06Z</time></trkpt><trkpt lat="41.610726600887745" lon="-0.9268322352918202"><ele>266.0</ele><time>2026-05-03T18:35:07Z</time></trkpt><trkpt lat="41.61081689057253" lon="-0.9267382188589496"><ele>266.0</ele><time>2026-05-03T18:35:08Z</time></trkpt><trkpt lat="41.61090765915623" lon="-0.9266430956531937"><ele>266.0</ele><time>2026-05-03T18:35:09Z</time></trkpt><trkpt lat="41.61099803913898" lon="-0.9265450331059114"><ele>266.0</ele><time>2026-05-03T18:35:10Z</time></trkpt><trkpt lat="41.61108536347081" lon="-0.926443115222588"><ele>266.0</ele><time>2026-05-03T18:35:11Z</time></trkpt><trkpt lat="41.61117441461815" lon="-0.9263391220510437"><ele>266.0</ele><time>2026-05-03T18:35:12Z</time></trkpt><trkpt lat="41.61125573538818" lon="-0.9262328408706124"><ele>266.0</ele><time>2026-05-03T18:35:13Z</time></trkpt><trkpt lat="41.61134069967745" lon="-0.9261224124186819"><ele>266.0</ele><time>2026-05-03T18:35:14Z</time></trkpt><trkpt lat="41.611415857834444" lon="-0.9260098693883002"><ele>263.5</ele><time>2026-05-03T18:35:15Z</time></trkpt><trkpt lat="41.61149233493088" lon="-0.925892091989141"><ele>261.0</ele><time>2026-05-03T18:35:16Z</time></trkpt><trkpt lat="41.61156542960476" lon="-0.9257706618148311"><ele>258.5</ele><time>2026-05-03T18:35:17Z</time></trkpt><trkpt lat="41.611626503843084" lon="-0.9256498537626874"><ele>256.0</ele><time>2026-05-03T18:35:18Z</time></trkpt><trkpt lat="41.611703445610274" lon="-0.9255278503190367"><ele>256.0</ele><time>2026-05-03T18:35:19Z</time></trkpt><trkpt lat="41.6117721498662" lon="-0.9254025344498611"><ele>256.0</ele><time>2026-05-03T18:35:20Z</time></trkpt><trkpt lat="41.611844125861424" lon="-0.9252785862966305"><ele>256.0</ele><time>2026-05-03T18:35:21Z</time></trkpt><trkpt lat="41.61191046761098" lon="-0.9251599687438823"><ele>256.0</ele><time>2026-05-03T18:35:22Z</time></trkpt><trkpt lat="41.61198303297996" lon="-0.9250356215314758"><ele>258.0</ele><time>2026-05-03T18:35:23Z</time></trkpt><trkpt lat="41.61205347939395" lon="-0.9249119547584814"><ele>260.0</ele><time>2026-05-03T18:35:24Z</time></trkpt><trkpt lat="41.612122456216554" lon="-0.9247836347907763"><ele>262.0</ele><time>2026-05-03T18:35:25Z</time></trkpt><trkpt lat="41.61219346010433" lon="-0.9246580225958695"><ele>264.0</ele><time>2026-05-03T18:35:26Z</time></trkpt><trkpt lat="41.612262616164585" lon="-0.9245305611599767"><ele>264.0</ele><time>2026-05-03T18:35:27Z</time></trkpt><trkpt lat="41.61233083810875" lon="-0.9244031035576437"><ele>264.0</ele><time>2026-05-03T18:35:28Z</time></trkpt><trkpt lat="41.61240271174825" lon="-0.9242767860978434"><ele>264.0</ele><time>2026-05-03T18:35:29Z</time></trkpt><trkpt lat="41.612475449583116" lon="-0.9241510301741666"><ele>264.0</ele><time>2026-05-03T18:35:30Z</time></trkpt><trkpt lat="41.61254575104888" lon="-0.9240252133358392"><ele>264.5</ele><time>2026-05-03T18:35:31Z</time></trkpt><trkpt lat="41.61261530783431" lon="-0.9239002332129241"><ele>265.0</ele><time>2026-05-03T18:35:32Z</time></trkpt><trkpt lat="41.61268281385804" lon="-0.9237755212909569"><ele>265.5</ele><time>2026-05-03T18:35:33Z</time></trkpt><trkpt lat="41.612753780919505" lon="-0.9236528460636838"><ele>266.0</ele><time>2026-05-03T18:35:34Z</time></trkpt><trkpt lat="41.612824790311436" lon="-0.9235296732964808"><ele>266.0</ele><time>2026-05-03T18:35:35Z</time></trkpt><trkpt lat="41.61289609513234" lon="-0.9234054965952719"><ele>266.0</ele><time>2026-05-03T18:35:36Z</time></trkpt><trkpt lat="41.612969087508134" lon="-0.923286941603601"><ele>266.0</ele><time>2026-05-03T18:35:37Z</time></trkpt><trkpt lat="41.613043285645205" lon="-0.9231647392417379"><ele>266.0</ele><time>2026-05-03T18:35:38Z</time></trkpt><trkpt lat="41.61311734837446" lon="-0.92304462737768"><ele>264.25</ele><time>2026-05-03T18:35:39Z</time></trkpt><trkpt lat="41.61319874059268" lon="-0.9229252068216851"><ele>262.5</ele><time>2026-05-03T18:35:40Z</time></trkpt><trkpt lat="41.613277306862656" lon="-0.9228118131841042"><ele>260.75</ele><time>2026-05-03T18:35:41Z</time></trkpt><trkpt lat="41.61336043555813" lon="-0.9226967918249683"><ele>259.0</ele><time>2026-05-03T18:35:42Z</time></trkpt><trkpt lat="41.61344569319615" lon="-0.9225845194394315"><ele>259.25</ele><time>2026-05-03T18:35:43Z</time></trkpt><trkpt lat="41.61353050911008" lon="-0.9224737229462021"><ele>259.5</ele><time>2026-05-03T18:35:44Z</time></trkpt><trkpt lat="41.61361249086869" lon="-0.9223703036667367"><ele>259.75</ele><time>2026-05-03T18:35:45Z</time></trkpt><trkpt lat="41.613702575772905" lon="-0.9222655969261349"><ele>260.0</ele><time>2026-05-03T18:35:46Z</time></trkpt><trkpt lat="41.61379053855577" lon="-0.9221635893456571"><ele>260.0</ele><time>2026-05-03T18:35:47Z</time></trkpt><trkpt lat="41.61387958524605" lon="-0.922061456461668"><ele>260.0</ele><time>2026-05-03T18:35:48Z</time></trkpt><trkpt lat="41.61397090339451" lon="-0.9219621273054447"><ele>260.0</ele><time>2026-05-03T18:35:49Z</time></trkpt><trkpt lat="41.61406412925926" lon="-0.9218648782415909"><ele>260.0</ele><time>2026-05-03T18:35:50Z</time></trkpt><trkpt lat="41.61415554940991" lon="-0.9217658090347025"><ele>259.5</ele><time>2026-05-03T18:35:51Z</time></trkpt><trkpt lat="41.614247095168444" lon="-0.9216685893383955"><ele>259.0</ele><time>2026-05-03T18:35:52Z</time></trkpt><trkpt lat="41.61433808563354" lon="-0.9215706009634786"><ele>258.5</ele><time>2026-05-03T18:35:53Z</time></trkpt><trkpt lat="41.614429340754455" lon="-0.921473628905809"><ele>258.0</ele><time>2026-05-03T18:35:54Z</time></trkpt><trkpt lat="41.614523147183526" lon="-0.9213755327258986"><ele>258.0</ele><time>2026-05-03T18:35:55Z</time></trkpt><trkpt lat="41.61461486443304" lon="-0.9212775209515548"><ele>258.0</ele><time>2026-05-03T18:35:56Z</time></trkpt><trkpt lat="41.61470604204304" lon="-0.921179384041853"><ele>258.0</ele><time>2026-05-03T18:35:57Z</time></trkpt><trkpt lat="41.61479564649809" lon="-0.921082934798768"><ele>258.0</ele><time>2026-05-03T18:35:58Z</time></trkpt><trkpt lat="41.61489120360474" lon="-0.9210011629455175"><ele>258.0</ele><time>2026-05-03T18:35:59Z</time></trkpt><trkpt lat="41.61496295234287" lon="-0.9209068803882734"><ele>258.0</ele><time>2026-05-03T18:36:00Z</time></trkpt><trkpt lat="41.61503379262923" lon="-0.9208316813373648"><ele>258.0</ele><time>2026-05-03T18:36:01Z</time></trkpt><trkpt lat="41.61510396767612" lon="-0.9207597528840531"><ele>258.0</ele><time>2026-05-03T18:36:02Z</time></trkpt><trkpt lat="41.615175470842296" lon="-0.9206821690187176"><ele>258.0</ele><time>2026-05-03T18:36:03Z</time></trkpt><trkpt lat="41.61524857928497" lon="-0.9206042674139293"><ele>258.2</ele><time>2026-05-03T18:36:04Z</time></trkpt><trkpt lat="41.61532124993873" lon="-0.9205242240538796"><ele>258.4</ele><time>2026-05-03T18:36:05Z</time></trkpt><trkpt lat="41.61539675748097" lon="-0.9204423436883825"><ele>258.59999999999997</ele><time>2026-05-03T18:36:06.001Z</time></trkpt><trkpt lat="41.6154684940885" lon="-0.9203499080307039"><ele>258.8</ele><time>2026-05-03T18:36:07.001Z</time></trkpt><trkpt lat="41.6155353174481" lon="-0.9202440880941636"><ele>259.0</ele><time>2026-05-03T18:36:08.001Z</time></trkpt><trkpt lat="41.61559245692053" lon="-0.9201166147433033"><ele>258.2</ele><time>2026-05-03T18:36:09.001Z</time></trkpt><trkpt lat="41.61566246173787" lon="-0.9200016458813024"><ele>257.4</ele><time>2026-05-03T18:36:10.001Z</time></trkpt><trkpt lat="41.61568801361656" lon="-0.9198437103905782"><ele>256.6</ele><time>2026-05-03T18:36:11.001Z</time></trkpt><trkpt lat="41.61574233608229" lon="-0.9197199769563478"><ele>255.8</ele><time>2026-05-03T18:36:12.001Z</time></trkpt><trkpt lat="41.615813513882806" lon="-0.91961454635438"><ele>255.0</ele><time>2026-05-03T18:36:13.001Z</time></trkpt><trkpt lat="41.61589898362875" lon="-0.919531351709746"><ele>255.0</ele><time>2026-05-03T18:36:14.001Z</time></trkpt><trkpt lat="41.61599755110798" lon="-0.9194801929769078"><ele>255.0</ele><time>2026-05-03T18:36:15.001Z</time></trkpt><trkpt lat="41.616100223515126" lon="-0.9194625611412831"><ele>255.0</ele><time>2026-05-03T18:36:16.001Z</time></trkpt><trkpt lat="41.61621115768687" lon="-0.9194724781760362"><ele>255.0</ele><time>2026-05-03T18:36:17.001Z</time></trkpt><trkpt lat="41.616320339610034" lon="-0.9194952915971703"><ele>255.0</ele><time>2026-05-03T18:36:18.001Z</time></trkpt><trkpt lat="41.61642428447786" lon="-0.9194898158030566"><ele>254.6</ele><time>2026-05-03T18:36:19.001Z</time></trkpt><trkpt lat="41.61652755952169" lon="-0.9194555914056053"><ele>254.2</ele><time>2026-05-03T18:36:20.001Z</time></trkpt><trkpt lat="41.616628720258944" lon="-0.9194024502469423"><ele>253.8</ele><time>2026-05-03T18:36:21.001Z</time></trkpt><trkpt lat="41.61672308247785" lon="-0.9193222962390135"><ele>253.4</ele><time>2026-05-03T18:36:22.001Z</time></trkpt><trkpt lat="41.616810983704816" lon="-0.9192297503084363"><ele>253.0</ele><time>2026-05-03T18:36:23.001Z</time></trkpt><trkpt lat="41.616910595508216" lon="-0.9191491350608052"><ele>254.75</ele><time>2026-05-03T18:36:24.001Z</time></trkpt><trkpt lat="41.61700432121354" lon="-0.9190668796238203"><ele>256.5</ele><time>2026-05-03T18:36:25.001Z</time></trkpt><trkpt lat="41.61709728638265" lon="-0.9189799900831225"><ele>258.25</ele><time>2026-05-03T18:36:26.001Z</time></trkpt><trkpt lat="41.61719008226192" lon="-0.918891638575666"><ele>260.0</ele><time>2026-05-03T18:36:27.001Z</time></trkpt><trkpt lat="41.617283355115084" lon="-0.9188008915787537"><ele>260.0</ele><time>2026-05-03T18:36:28.001Z</time></trkpt><trkpt lat="41.617378586631595" lon="-0.9187149060816877"><ele>260.0</ele><time>2026-05-03T18:36:29.001Z</time></trkpt><trkpt lat="41.61747358808045" lon="-0.9186266076131602"><ele>260.0</ele><time>2026-05-03T18:36:30.001Z</time></trkpt><trkpt lat="41.61756577236131" lon="-0.9185395101226373"><ele>260.0</ele><time>2026-05-03T18:36:31.001Z</time></trkpt><trkpt lat="41.61766108335645" lon="-0.9184469458285771"><ele>260.25</ele><time>2026-05-03T18:36:32.001Z</time></trkpt><trkpt lat="41.61775338679821" lon="-0.9183573227343518"><ele>260.5</ele><time>2026-05-03T18:36:33.001Z</time></trkpt><trkpt lat="41.6178458597102" lon="-0.918264406645906"><ele>260.75</ele><time>2026-05-03T18:36:34.001Z</time></trkpt><trkpt lat="41.61793558150805" lon="-0.9181711881122518"><ele>261.0</ele><time>2026-05-03T18:36:35.001Z</time></trkpt><trkpt lat="41.618025676409935" lon="-0.9180715045933325"><ele>261.0</ele><time>2026-05-03T18:36:36.001Z</time></trkpt><trkpt lat="41.618114892246275" lon="-0.9179743275239163"><ele>261.0</ele><time>2026-05-03T18:36:37.001Z</time></trkpt><trkpt lat="41.61820605281223" lon="-0.9178780260580575"><ele>261.0</ele><time>2026-05-03T18:36:38.001Z</time></trkpt><trkpt lat="41.618297383078016" lon="-0.917784169069759"><ele>261.0</ele><time>2026-05-03T18:36:39.001Z</time></trkpt><trkpt lat="41.61838792020886" lon="-0.9176890261110854"><ele>261.0</ele><time>2026-05-03T18:36:40.001Z</time></trkpt><trkpt lat="41.61847701734264" lon="-0.9175898933786485"><ele>261.0</ele><time>2026-05-03T18:36:41.001Z</time></trkpt><trkpt lat="41.61856577313773" lon="-0.9174947909226179"><ele>261.0</ele><time>2026-05-03T18:36:42.001Z</time></trkpt><trkpt lat="41.618655548386975" lon="-0.9173968486393224"><ele>261.0</ele><time>2026-05-03T18:36:43.001Z</time></trkpt><trkpt lat="41.61874750725757" lon="-0.9173008934627953"><ele>260.25</ele><time>2026-05-03T18:36:44.001Z</time></trkpt><trkpt lat="41.618836708975834" lon="-0.9172064362745282"><ele>259.5</ele><time>2026-05-03T18:36:45.001Z</time></trkpt><trkpt lat="41.618927935126194" lon="-0.9171087748648011"><ele>258.75</ele><time>2026-05-03T18:36:46.001Z</time></trkpt><trkpt lat="41.61901866405229" lon="-0.9170111070799908"><ele>258.0</ele><time>2026-05-03T18:36:47.001Z</time></trkpt><trkpt lat="41.619111168950575" lon="-0.9169123499885312"><ele>258.0</ele><time>2026-05-03T18:36:48.001Z</time></trkpt><trkpt lat="41.61920176357326" lon="-0.9168154116787961"><ele>258.0</ele><time>2026-05-03T18:36:49.001Z</time></trkpt><trkpt lat="41.6192933208032" lon="-0.9167140866181801"><ele>258.0</ele><time>2026-05-03T18:36:50.001Z</time></trkpt><trkpt lat="41.61938370673545" lon="-0.9166189737867575"><ele>258.0</ele><time>2026-05-03T18:36:51.001Z</time></trkpt><trkpt lat="41.61947477000618" lon="-0.9165255021566312"><ele>258.25</ele><time>2026-05-03T18:36:52.001Z</time></trkpt><trkpt lat="41.61956536611522" lon="-0.9164280788197807"><ele>258.5</ele><time>2026-05-03T18:36:53.001Z</time></trkpt><trkpt lat="41.619655638242264" lon="-0.9163291199562409"><ele>258.75</ele><time>2026-05-03T18:36:54.001Z</time></trkpt><trkpt lat="41.619746300837" lon="-0.9162310305321216"><ele>259.0</ele><time>2026-05-03T18:36:55.001Z</time></trkpt><trkpt lat="41.61983639582908" lon="-0.9161349410975862"><ele>259.0</ele><time>2026-05-03T18:36:56.001Z</time></trkpt><trkpt lat="41.61992638515055" lon="-0.9160344361472241"><ele>259.0</ele><time>2026-05-03T18:36:57.001Z</time></trkpt><trkpt lat="41.62001261976012" lon="-0.9159337422081606"><ele>259.0</ele><time>2026-05-03T18:36:58.001Z</time></trkpt><trkpt lat="41.62010147680787" lon="-0.9158294243546212"><ele>259.0</ele><time>2026-05-03T18:36:59.001Z</time></trkpt><trkpt lat="41.62018732822759" lon="-0.9157323316927927"><ele>258.5</ele><time>2026-05-03T18:37:00.001Z</time></trkpt><trkpt lat="41.62027680326206" lon="-0.9156240328601523"><ele>258.0</ele><time>2026-05-03T18:37:01.001Z</time></trkpt><trkpt lat="41.620363418362544" lon="-0.915523031566212"><ele>257.5</ele><time>2026-05-03T18:37:02.001Z</time></trkpt><trkpt lat="41.62044833365937" lon="-0.9154168514224262"><ele>257.0</ele><time>2026-05-03T18:37:03.001Z</time></trkpt><trkpt lat="41.62053653544746" lon="-0.9153093255830909"><ele>257.0</ele><time>2026-05-03T18:37:04.001Z</time></trkpt><trkpt lat="41.62062008183309" lon="-0.9152033389979624"><ele>257.0</ele><time>2026-05-03T18:37:05.001Z</time></trkpt><trkpt lat="41.62070466303395" lon="-0.9150923327734434"><ele>257.0</ele><time>2026-05-03T18:37:06.001Z</time></trkpt><trkpt lat="41.62078797408931" lon="-0.914981107179911"><ele>257.0</ele><time>2026-05-03T18:37:07.001Z</time></trkpt><trkpt lat="41.620871325871605" lon="-0.9148749288067004"><ele>256.25</ele><time>2026-05-03T18:37:08Z</time></trkpt><trkpt lat="41.62095618948372" lon="-0.9147666717371677"><ele>255.5</ele><time>2026-05-03T18:37:09Z</time></trkpt><trkpt lat="41.62104134769443" lon="-0.9146570200501949"><ele>254.75</ele><time>2026-05-03T18:37:10Z</time></trkpt><trkpt lat="41.62112338588857" lon="-0.9145491146718109"><ele>254.0</ele><time>2026-05-03T18:37:11Z</time></trkpt><trkpt lat="41.62120837797123" lon="-0.9144426110273121"><ele>254.0</ele><time>2026-05-03T18:37:12Z</time></trkpt><trkpt lat="41.62129159732457" lon="-0.9143321435174834"><ele>254.0</ele><time>2026-05-03T18:37:13Z</time></trkpt><trkpt lat="41.62137242072831" lon="-0.914227681567276"><ele>254.0</ele><time>2026-05-03T18:37:14Z</time></trkpt><trkpt lat="41.62145276691982" lon="-0.9141241421379919"><ele>254.0</ele><time>2026-05-03T18:37:15Z</time></trkpt><trkpt lat="41.62153528717276" lon="-0.9140199276857714"><ele>253.6</ele><time>2026-05-03T18:37:16Z</time></trkpt><trkpt lat="41.62161730056208" lon="-0.9139202558487539"><ele>253.2</ele><time>2026-05-03T18:37:17Z</time></trkpt><trkpt lat="41.62169192143367" lon="-0.9138180869057476"><ele>252.79999999999998</ele><time>2026-05-03T18:37:18Z</time></trkpt><trkpt lat="41.621761936724575" lon="-0.913722776366687"><ele>252.39999999999998</ele><time>2026-05-03T18:37:19Z</time></trkpt><trkpt lat="41.621827382401584" lon="-0.9136373285455713"><ele>252.0</ele><time>2026-05-03T18:37:20Z</time></trkpt><trkpt lat="41.621893725470265" lon="-0.9135556803361006"><ele>252.0</ele><time>2026-05-03T18:37:21Z</time></trkpt><trkpt lat="41.621956018596286" lon="-0.9134805595372216"><ele>252.0</ele><time>2026-05-03T18:37:22Z</time></trkpt><trkpt lat="41.62201471476438" lon="-0.913408086427618"><ele>252.0</ele><time>2026-05-03T18:37:23Z</time></trkpt><trkpt lat="41.622075239844364" lon="-0.9133400925328143"><ele>252.0</ele><time>2026-05-03T18:37:24Z</time></trkpt><trkpt lat="41.6221291783161" lon="-0.9132756309430919"><ele>252.0</ele><time>2026-05-03T18:37:25Z</time></trkpt><trkpt lat="41.62218065374725" lon="-0.9132148876614494"><ele>252.0</ele><time>2026-05-03T18:37:26Z</time></trkpt><trkpt lat="41.62222853916689" lon="-0.91315780510292"><ele>252.0</ele><time>2026-05-03T18:37:27Z</time></trkpt><trkpt lat="41.62231580637122" lon="-0.9130527866150242"><ele>252.0</ele><time>2026-05-03T18:37:29Z</time></trkpt><trkpt lat="41.622390125840106" lon="-0.9129591915340997"><ele>252.0</ele><time>2026-05-03T18:37:31Z</time></trkpt><trkpt lat="41.62245753341192" lon="-0.9128852275128366"><ele>252.0</ele><time>2026-05-03T18:37:33Z</time></trkpt><trkpt lat="41.622530021386545" lon="-0.9128164005152755"><ele>252.0</ele><time>2026-05-03T18:38:16.001Z</time></trkpt><trkpt lat="41.62263488324213" lon="-0.9127192140843994"><ele>252.0</ele><time>2026-05-03T18:38:18.001Z</time></trkpt><trkpt lat="41.62269599982108" lon="-0.9126558776094847"><ele>252.0</ele><time>2026-05-03T18:38:19.001Z</time></trkpt><trkpt lat="41.62276040352226" lon="-0.9125841037053437"><ele>252.0</ele><time>2026-05-03T18:38:20.001Z</time></trkpt><trkpt lat="41.62282825866127" lon="-0.91250613898019"><ele>252.0</ele><time>2026-05-03T18:38:21.001Z</time></trkpt><trkpt lat="41.62290412421565" lon="-0.9124333669563742"><ele>252.0</ele><time>2026-05-03T18:38:22.001Z</time></trkpt><trkpt lat="41.622978580462025" lon="-0.9123585958335314"><ele>252.0</ele><time>2026-05-03T18:38:23.001Z</time></trkpt><trkpt lat="41.623054706743055" lon="-0.9122818734224061"><ele>251.8</ele><time>2026-05-03T18:38:24.001Z</time></trkpt><trkpt lat="41.62313069990296" lon="-0.9122007623780418"><ele>251.6</ele><time>2026-05-03T18:38:25.001Z</time></trkpt><trkpt lat="41.62321405127425" lon="-0.9121245121937804"><ele>251.40000000000003</ele><time>2026-05-03T18:38:26.001Z</time></trkpt><trkpt lat="41.623298345959775" lon="-0.9120524585677425"><ele>251.20000000000002</ele><time>2026-05-03T18:38:27.001Z</time></trkpt><trkpt lat="41.62338404417706" lon="-0.9119808758274432"><ele>251.0</ele><time>2026-05-03T18:38:28.001Z</time></trkpt><trkpt lat="41.623472085209876" lon="-0.9119083187263545"><ele>251.0</ele><time>2026-05-03T18:38:29.001Z</time></trkpt><trkpt lat="41.6235586122353" lon="-0.9118353141902913"><ele>251.00000000000003</ele><time>2026-05-03T18:38:30.001Z</time></trkpt><trkpt lat="41.62364507842053" lon="-0.9117583679046423"><ele>251.00000000000003</ele><time>2026-05-03T18:38:31.001Z</time></trkpt><trkpt lat="41.62373290234917" lon="-0.9116804456389006"><ele>251.0</ele><time>2026-05-03T18:38:32.001Z</time></trkpt><trkpt lat="41.623815391230345" lon="-0.9116063720479325"><ele>251.0</ele><time>2026-05-03T18:38:33.001Z</time></trkpt><trkpt lat="41.62390789420854" lon="-0.9115328648574432"><ele>250.60000000000002</ele><time>2026-05-03T18:38:34.001Z</time></trkpt><trkpt lat="41.62399067512605" lon="-0.9114570737480444"><ele>250.20000000000002</ele><time>2026-05-03T18:38:35.001Z</time></trkpt><trkpt lat="41.624075278214924" lon="-0.9113818931752129"><ele>249.79999999999998</ele><time>2026-05-03T18:38:36.001Z</time></trkpt><trkpt lat="41.62416186916676" lon="-0.911305818436896"><ele>249.39999999999998</ele><time>2026-05-03T18:38:37.001Z</time></trkpt><trkpt lat="41.624245254291026" lon="-0.9112217547776068"><ele>249.0</ele><time>2026-05-03T18:38:38.001Z</time></trkpt><trkpt lat="41.62432452894068" lon="-0.911153903600223"><ele>249.0</ele><time>2026-05-03T18:38:39.001Z</time></trkpt><trkpt lat="41.624401876059856" lon="-0.9110873696117319"><ele>249.0</ele><time>2026-05-03T18:38:40.001Z</time></trkpt><trkpt lat="41.624478291559036" lon="-0.9110236713771191"><ele>249.0</ele><time>2026-05-03T18:38:41.001Z</time></trkpt><trkpt lat="41.62454980853216" lon="-0.9109609963706151"><ele>249.0</ele><time>2026-05-03T18:38:42.001Z</time></trkpt><trkpt lat="41.624616874874015" lon="-0.9109028545426865"><ele>249.0</ele><time>2026-05-03T18:38:43.001Z</time></trkpt><trkpt lat="41.62468127020697" lon="-0.910850318282823"><ele>249.0</ele><time>2026-05-03T18:38:44.001Z</time></trkpt><trkpt lat="41.624742747683634" lon="-0.9107996683118617"><ele>248.16666666666666</ele><time>2026-05-03T18:38:45.001Z</time></trkpt><trkpt lat="41.62479938020014" lon="-0.9107508164354451"><ele>247.33333333333331</ele><time>2026-05-03T18:38:46.001Z</time></trkpt><trkpt lat="41.6248536853575" lon="-0.910701711396621"><ele>246.5</ele><time>2026-05-03T18:38:47.001Z</time></trkpt><trkpt lat="41.62495544248502" lon="-0.9106146284230391"><ele>245.66666666666666</ele><time>2026-05-03T18:38:49.001Z</time></trkpt><trkpt lat="41.62504518873627" lon="-0.9105490143926863"><ele>244.83333333333331</ele><time>2026-05-03T18:38:51.001Z</time></trkpt><trkpt lat="41.62511132705244" lon="-0.910493072644203"><ele>244.0</ele><time>2026-05-03T18:38:53.001Z</time></trkpt><trkpt lat="41.62516577240861" lon="-0.9104439493799757"><ele>243.99999999999997</ele><time>2026-05-03T18:38:56.001Z</time></trkpt><trkpt lat="41.62525150995096" lon="-0.9103912707926484"><ele>244.0</ele><time>2026-05-03T18:39:11.001Z</time></trkpt><trkpt lat="41.62535078025163" lon="-0.9103065532882515"><ele>244.0</ele><time>2026-05-03T18:39:13.001Z</time></trkpt><trkpt lat="41.62540752890658" lon="-0.9102571132769341"><ele>244.0</ele><time>2026-05-03T18:39:14Z</time></trkpt><trkpt lat="41.625471536862364" lon="-0.9102022627621502"><ele>243.99999999999997</ele><time>2026-05-03T18:39:15Z</time></trkpt><trkpt lat="41.625540488937986" lon="-0.9101480113141068"><ele>244.0</ele><time>2026-05-03T18:39:16Z</time></trkpt><trkpt lat="41.625614797965696" lon="-0.9100894387965655"><ele>243.79999999999998</ele><time>2026-05-03T18:39:17Z</time></trkpt><trkpt lat="41.62569302249624" lon="-0.9100286084622821"><ele>243.59999999999997</ele><time>2026-05-03T18:39:18Z</time></trkpt><trkpt lat="41.62577230629415" lon="-0.9099673798266832"><ele>243.4</ele><time>2026-05-03T18:39:19Z</time></trkpt><trkpt lat="41.625850854654644" lon="-0.9099012882599661"><ele>243.2</ele><time>2026-05-03T18:39:20Z</time></trkpt><trkpt lat="41.625932894208816" lon="-0.9098348415123727"><ele>243.0</ele><time>2026-05-03T18:39:21Z</time></trkpt><trkpt lat="41.626013075226446" lon="-0.9097670900568462"><ele>243.0</ele><time>2026-05-03T18:39:22Z</time></trkpt><trkpt lat="41.62609444516342" lon="-0.9096969272994878"><ele>243.0</ele><time>2026-05-03T18:39:23Z</time></trkpt><trkpt lat="41.62617689086039" lon="-0.9096242107312584"><ele>243.0</ele><time>2026-05-03T18:39:24Z</time></trkpt><trkpt lat="41.626260641719874" lon="-0.9095527980384783"><ele>243.0</ele><time>2026-05-03T18:39:25Z</time></trkpt><trkpt lat="41.62634430417656" lon="-0.9094822720970946"><ele>243.0</ele><time>2026-05-03T18:39:26Z</time></trkpt><trkpt lat="41.626426550155685" lon="-0.9094141847334288"><ele>243.0</ele><time>2026-05-03T18:39:27Z</time></trkpt><trkpt lat="41.626513107118114" lon="-0.9093466450494488"><ele>243.0</ele><time>2026-05-03T18:39:28Z</time></trkpt><trkpt lat="41.62659933399739" lon="-0.9092768249700967"><ele>243.0</ele><time>2026-05-03T18:39:29Z</time></trkpt><trkpt lat="41.626685175392694" lon="-0.9092046622065773"><ele>243.0</ele><time>2026-05-03T18:39:30Z</time></trkpt><trkpt lat="41.62677006121734" lon="-0.9091344062292864"><ele>243.0</ele><time>2026-05-03T18:39:31Z</time></trkpt><trkpt lat="41.62685788680207" lon="-0.9090635529763709"><ele>242.8</ele><time>2026-05-03T18:39:32Z</time></trkpt><trkpt lat="41.62694561653783" lon="-0.9089901970648092"><ele>242.60000000000002</ele><time>2026-05-03T18:39:33Z</time></trkpt><trkpt lat="41.627030995462455" lon="-0.9089196338717545"><ele>242.39999999999998</ele><time>2026-05-03T18:39:34Z</time></trkpt><trkpt lat="41.62711394221773" lon="-0.9088503406606248"><ele>242.2</ele><time>2026-05-03T18:39:35Z</time></trkpt><trkpt lat="41.62719917687618" lon="-0.9087774844772396"><ele>242.0</ele><time>2026-05-03T18:39:36Z</time></trkpt><trkpt lat="41.62728273642514" lon="-0.9087084853851044"><ele>242.0</ele><time>2026-05-03T18:39:37Z</time></trkpt><trkpt lat="41.627368859320725" lon="-0.9086362602936158"><ele>242.0</ele><time>2026-05-03T18:39:38Z</time></trkpt><trkpt lat="41.62745143859712" lon="-0.9085658155467827"><ele>242.0</ele><time>2026-05-03T18:39:39Z</time></trkpt><trkpt lat="41.62753727920812" lon="-0.9084986668961741"><ele>242.0</ele><time>2026-05-03T18:39:40Z</time></trkpt><trkpt lat="41.62762326399891" lon="-0.9084297965015556"><ele>242.0</ele><time>2026-05-03T18:39:41Z</time></trkpt><trkpt lat="41.62770788151487" lon="-0.9083639753528006"><ele>242.0</ele><time>2026-05-03T18:39:42Z</time></trkpt><trkpt lat="41.62779316345261" lon="-0.9082960679679075"><ele>242.0</ele><time>2026-05-03T18:39:43Z</time></trkpt><trkpt lat="41.6278787505036" lon="-0.9082250447110621"><ele>242.0</ele><time>2026-05-03T18:39:44Z</time></trkpt><trkpt lat="41.62796325477237" lon="-0.9081525416136644"><ele>242.0</ele><time>2026-05-03T18:39:45Z</time></trkpt><trkpt lat="41.62804787529501" lon="-0.9080830318315019"><ele>242.0</ele><time>2026-05-03T18:39:46Z</time></trkpt><trkpt lat="41.628133471953134" lon="-0.9080111993550174"><ele>241.2</ele><time>2026-05-03T18:39:47Z</time></trkpt><trkpt lat="41.628221010099715" lon="-0.9079387177933952"><ele>240.39999999999998</ele><time>2026-05-03T18:39:48Z</time></trkpt><trkpt lat="41.62831074341064" lon="-0.9078666065265766"><ele>239.60000000000002</ele><time>2026-05-03T18:39:49Z</time></trkpt><trkpt lat="41.62839925227253" lon="-0.9077935188316586"><ele>238.8</ele><time>2026-05-03T18:39:50Z</time></trkpt><trkpt lat="41.628486514718695" lon="-0.9077201530315745"><ele>238.0</ele><time>2026-05-03T18:39:51Z</time></trkpt><trkpt lat="41.62857495963192" lon="-0.9076477665145881"><ele>239.2</ele><time>2026-05-03T18:39:52Z</time></trkpt><trkpt lat="41.62866564070517" lon="-0.9075739520760232"><ele>240.4</ele><time>2026-05-03T18:39:53Z</time></trkpt><trkpt lat="41.62875251516219" lon="-0.9075007343913735"><ele>241.59999999999997</ele><time>2026-05-03T18:39:54Z</time></trkpt><trkpt lat="41.628835037120005" lon="-0.9074309596145912"><ele>242.79999999999998</ele><time>2026-05-03T18:39:55Z</time></trkpt><trkpt lat="41.62891323374244" lon="-0.9073715860724636"><ele>244.0</ele><time>2026-05-03T18:39:56Z</time></trkpt><trkpt lat="41.62898010598333" lon="-0.9073187232412245"><ele>243.99999999999997</ele><time>2026-05-03T18:39:57Z</time></trkpt><trkpt lat="41.6290737031467" lon="-0.907242418647542"><ele>244.0</ele><time>2026-05-03T18:39:59Z</time></trkpt><trkpt lat="41.629132488767276" lon="-0.9072007286434646"><ele>244.0</ele><time>2026-05-03T18:40:02Z</time></trkpt><trkpt lat="41.629212701734644" lon="-0.9071796972294753"><ele>244.0</ele><time>2026-05-03T18:41:05.001Z</time></trkpt><trkpt lat="41.62931222611663" lon="-0.9070982882799934"><ele>243.99999999999997</ele><time>2026-05-03T18:41:07.001Z</time></trkpt><trkpt lat="41.62937540594681" lon="-0.9070484227709"><ele>244.0</ele><time>2026-05-03T18:41:08.001Z</time></trkpt><trkpt lat="41.629442596504695" lon="-0.9069904686482897"><ele>244.0</ele><time>2026-05-03T18:41:09.001Z</time></trkpt><trkpt lat="41.62951202875119" lon="-0.9069268154677904"><ele>243.99999999999997</ele><time>2026-05-03T18:41:10.001Z</time></trkpt><trkpt lat="41.62958377919006" lon="-0.9068582032235829"><ele>243.99999999999997</ele><time>2026-05-03T18:41:11.001Z</time></trkpt><trkpt lat="41.62966716486791" lon="-0.9068019745655213"><ele>244.0</ele><time>2026-05-03T18:41:12.001Z</time></trkpt><trkpt lat="41.62975252709233" lon="-0.9067409195082734"><ele>244.0</ele><time>2026-05-03T18:41:13.001Z</time></trkpt><trkpt lat="41.629830828737155" lon="-0.906660750929857"><ele>243.39999999999998</ele><time>2026-05-03T18:41:14.001Z</time></trkpt><trkpt lat="41.62991468074662" lon="-0.9065921904585817"><ele>242.79999999999998</ele><time>2026-05-03T18:41:15.001Z</time></trkpt><trkpt lat="41.63000487675641" lon="-0.906522027003019"><ele>242.20000000000002</ele><time>2026-05-03T18:41:16.001Z</time></trkpt><trkpt lat="41.630096671093334" lon="-0.9064537762715751"><ele>241.60000000000002</ele><time>2026-05-03T18:41:17.001Z</time></trkpt><trkpt lat="41.630198346911264" lon="-0.9064117089987279"><ele>241.0</ele><time>2026-05-03T18:41:18.001Z</time></trkpt><trkpt lat="41.63029504530142" lon="-0.9063482175727574"><ele>241.60000000000002</ele><time>2026-05-03T18:41:19.001Z</time></trkpt><trkpt lat="41.630390936789496" lon="-0.9062844580425307"><ele>242.20000000000002</ele><time>2026-05-03T18:41:20.001Z</time></trkpt><trkpt lat="41.630486192261" lon="-0.9062184022872487"><ele>242.79999999999998</ele><time>2026-05-03T18:41:21.001Z</time></trkpt><trkpt lat="41.63057799239703" lon="-0.906151190796143"><ele>243.39999999999998</ele><time>2026-05-03T18:41:22.001Z</time></trkpt><trkpt lat="41.63067274305785" lon="-0.9060835286067083"><ele>244.0</ele><time>2026-05-03T18:41:23.001Z</time></trkpt><trkpt lat="41.630768366778646" lon="-0.9060141417913259"><ele>244.0</ele><time>2026-05-03T18:41:24.001Z</time></trkpt><trkpt lat="41.63086282388122" lon="-0.9059435465538894"><ele>243.99999999999997</ele><time>2026-05-03T18:41:25.001Z</time></trkpt><trkpt lat="41.630957873583235" lon="-0.9058758289290698"><ele>243.99999999999997</ele><time>2026-05-03T18:41:26.001Z</time></trkpt><trkpt lat="41.63104890306877" lon="-0.9058014335949378"><ele>244.0</ele><time>2026-05-03T18:41:27.001Z</time></trkpt><trkpt lat="41.63113497964134" lon="-0.9057302081083054"><ele>244.0</ele><time>2026-05-03T18:41:28.001Z</time></trkpt><trkpt lat="41.63121713742139" lon="-0.9056702944524965"><ele>243.66666666666666</ele><time>2026-05-03T18:41:29.001Z</time></trkpt><trkpt lat="41.63129501816213" lon="-0.9056138542145642"><ele>243.33333333333331</ele><time>2026-05-03T18:41:30.001Z</time></trkpt><trkpt lat="41.63136996142077" lon="-0.9055629902056751"><ele>243.0</ele><time>2026-05-03T18:41:31.001Z</time></trkpt><trkpt lat="41.63143972580002" lon="-0.9055146281612889"><ele>242.66666666666669</ele><time>2026-05-03T18:41:32.001Z</time></trkpt><trkpt lat="41.6315057532675" lon="-0.905467894636995"><ele>242.33333333333334</ele><time>2026-05-03T18:41:33.001Z</time></trkpt><trkpt lat="41.631567600956274" lon="-0.9054233030153458"><ele>242.0</ele><time>2026-05-03T18:41:34.001Z</time></trkpt><trkpt lat="41.631669348193284" lon="-0.905344907661297"><ele>242.00000000000003</ele><time>2026-05-03T18:41:36.001Z</time></trkpt><trkpt lat="41.63174919523006" lon="-0.9052616662839295"><ele>242.0</ele><time>2026-05-03T18:41:38.001Z</time></trkpt><trkpt lat="41.63180552276687" lon="-0.9052047271681245"><ele>242.0</ele><time>2026-05-03T18:41:40.001Z</time></trkpt><trkpt lat="41.631853563276415" lon="-0.9051052716287118"><ele>242.0</ele><time>2026-05-03T18:42:11.001Z</time></trkpt><trkpt lat="41.631935616103036" lon="-0.9050105119188101"><ele>242.00000000000003</ele><time>2026-05-03T18:42:13.001Z</time></trkpt><trkpt lat="41.63200047516849" lon="-0.904982965392853"><ele>242.0</ele><time>2026-05-03T18:42:14.001Z</time></trkpt><trkpt lat="41.63209497869639" lon="-0.9048993917275151"><ele>241.2</ele><time>2026-05-03T18:42:15.001Z</time></trkpt><trkpt lat="41.63216863324571" lon="-0.9047425119748533"><ele>240.39999999999998</ele><time>2026-05-03T18:42:17.001Z</time></trkpt><trkpt lat="41.63223270430988" lon="-0.9046655467228285"><ele>239.60000000000002</ele><time>2026-05-03T18:42:18.001Z</time></trkpt><trkpt lat="41.63231258696927" lon="-0.9046050165760267"><ele>238.8</ele><time>2026-05-03T18:42:19.001Z</time></trkpt><trkpt lat="41.632398046200166" lon="-0.9045360040079281"><ele>238.0</ele><time>2026-05-03T18:42:20.001Z</time></trkpt><trkpt lat="41.63247018896594" lon="-0.9044493768871784"><ele>238.0</ele><time>2026-05-03T18:42:21.001Z</time></trkpt><trkpt lat="41.63256878770329" lon="-0.9043998706148917"><ele>238.0</ele><time>2026-05-03T18:42:22.001Z</time></trkpt><trkpt lat="41.63266850386542" lon="-0.9043487893006905"><ele>238.0</ele><time>2026-05-03T18:42:23.001Z</time></trkpt><trkpt lat="41.63276392608599" lon="-0.9042937601276971"><ele>238.0</ele><time>2026-05-03T18:42:24.001Z</time></trkpt><trkpt lat="41.632852335592986" lon="-0.9042263795225451"><ele>238.0</ele><time>2026-05-03T18:42:25.001Z</time></trkpt><trkpt lat="41.63293633890608" lon="-0.9041487659550413"><ele>238.25</ele><time>2026-05-03T18:42:26.001Z</time></trkpt><trkpt lat="41.63309125954911" lon="-0.9039566571739942"><ele>238.5</ele><time>2026-05-03T18:42:28.001Z</time></trkpt><trkpt lat="41.63316567652079" lon="-0.9038555668369702"><ele>238.75</ele><time>2026-05-03T18:42:29.001Z</time></trkpt><trkpt lat="41.63324217990268" lon="-0.9037524071715154"><ele>239.0</ele><time>2026-05-03T18:42:30.001Z</time></trkpt><trkpt lat="41.63331704651494" lon="-0.9036465342735656"><ele>239.0</ele><time>2026-05-03T18:42:31.001Z</time></trkpt><trkpt lat="41.63339196886147" lon="-0.9035404530215833"><ele>238.99999999999997</ele><time>2026-05-03T18:42:32.001Z</time></trkpt><trkpt lat="41.6334645752609" lon="-0.9034353286791514"><ele>238.99999999999997</ele><time>2026-05-03T18:42:33.001Z</time></trkpt><trkpt lat="41.63354268315284" lon="-0.9033389739423071"><ele>239.0</ele><time>2026-05-03T18:42:34.001Z</time></trkpt><trkpt lat="41.63362369574624" lon="-0.9032449482780432"><ele>239.0</ele><time>2026-05-03T18:42:35.001Z</time></trkpt><trkpt lat="41.63370061720694" lon="-0.9031455059725089"><ele>239.0</ele><time>2026-05-03T18:42:36.001Z</time></trkpt><trkpt lat="41.63378027266569" lon="-0.903047841626499"><ele>238.99999999999997</ele><time>2026-05-03T18:42:37.001Z</time></trkpt><trkpt lat="41.63385640691021" lon="-0.9029446283553744"><ele>238.99999999999997</ele><time>2026-05-03T18:42:38.001Z</time></trkpt><trkpt lat="41.63393270452533" lon="-0.9028368347960768"><ele>239.0</ele><time>2026-05-03T18:42:39.001Z</time></trkpt><trkpt lat="41.634012056363915" lon="-0.902735573880854"><ele>239.0</ele><time>2026-05-03T18:42:40.001Z</time></trkpt><trkpt lat="41.63408854629507" lon="-0.9026316220766152"><ele>237.6</ele><time>2026-05-03T18:42:41.001Z</time></trkpt><trkpt lat="41.63416804544143" lon="-0.9025329647991098"><ele>236.2</ele><time>2026-05-03T18:42:42.001Z</time></trkpt><trkpt lat="41.63424823798325" lon="-0.9024340191045738"><ele>234.79999999999998</ele><time>2026-05-03T18:42:43.001Z</time></trkpt><trkpt lat="41.63432548475748" lon="-0.9023347581395942"><ele>233.39999999999998</ele><time>2026-05-03T18:42:44.001Z</time></trkpt><trkpt lat="41.63440185899109" lon="-0.902230704619426"><ele>232.0</ele><time>2026-05-03T18:42:45.001Z</time></trkpt><trkpt lat="41.63447944355637" lon="-0.9021210273931889"><ele>231.8</ele><time>2026-05-03T18:42:46.001Z</time></trkpt><trkpt lat="41.63455524050244" lon="-0.9019966927447397"><ele>231.6</ele><time>2026-05-03T18:42:47.001Z</time></trkpt><trkpt lat="41.63461084563649" lon="-0.9018785167114717"><ele>231.40000000000003</ele><time>2026-05-03T18:42:48.001Z</time></trkpt><trkpt lat="41.634683694326" lon="-0.9018072657656769"><ele>231.20000000000002</ele><time>2026-05-03T18:42:49.001Z</time></trkpt><trkpt lat="41.63474822724978" lon="-0.9017157847594581"><ele>231.0</ele><time>2026-05-03T18:42:50.001Z</time></trkpt><trkpt lat="41.6348541692496" lon="-0.9015797328237757"><ele>230.4</ele><time>2026-05-03T18:42:51.001Z</time></trkpt><trkpt lat="41.63492498428598" lon="-0.9014723823303467"><ele>229.8</ele><time>2026-05-03T18:42:52.001Z</time></trkpt><trkpt lat="41.63499959492129" lon="-0.9013663608435566"><ele>229.20000000000002</ele><time>2026-05-03T18:42:53.001Z</time></trkpt><trkpt lat="41.63507367597157" lon="-0.9012611839598016"><ele>228.60000000000002</ele><time>2026-05-03T18:42:54.001Z</time></trkpt><trkpt lat="41.63514791029652" lon="-0.9011527721813326"><ele>228.0</ele><time>2026-05-03T18:42:55.001Z</time></trkpt><trkpt lat="41.635228301324254" lon="-0.9010472155654918"><ele>228.0</ele><time>2026-05-03T18:42:56.001Z</time></trkpt><trkpt lat="41.63530163885719" lon="-0.9009417017817569"><ele>228.0</ele><time>2026-05-03T18:42:57.001Z</time></trkpt><trkpt lat="41.63537446077948" lon="-0.9008389743521342"><ele>228.0</ele><time>2026-05-03T18:42:58.001Z</time></trkpt><trkpt lat="41.63544781627961" lon="-0.9007331087732678"><ele>228.0</ele><time>2026-05-03T18:42:59.001Z</time></trkpt><trkpt lat="41.63551803662814" lon="-0.9006272064531706"><ele>228.0</ele><time>2026-05-03T18:43:00.001Z</time></trkpt><trkpt lat="41.63559377284315" lon="-0.9005226702846825"><ele>228.2</ele><time>2026-05-03T18:43:01.001Z</time></trkpt><trkpt lat="41.63566871829492" lon="-0.9004194680518514"><ele>228.4</ele><time>2026-05-03T18:43:02.001Z</time></trkpt><trkpt lat="41.63574523776657" lon="-0.9003163430264651"><ele>228.59999999999997</ele><time>2026-05-03T18:43:03.001Z</time></trkpt><trkpt lat="41.63581944201458" lon="-0.9002191492669498"><ele>228.79999999999998</ele><time>2026-05-03T18:43:04.001Z</time></trkpt><trkpt lat="41.635890992120565" lon="-0.9001220691725748"><ele>229.0</ele><time>2026-05-03T18:43:05.001Z</time></trkpt><trkpt lat="41.63596902128561" lon="-0.9000286443398571"><ele>228.6</ele><time>2026-05-03T18:43:06.001Z</time></trkpt><trkpt lat="41.63604391463292" lon="-0.899929696603821"><ele>228.2</ele><time>2026-05-03T18:43:07.001Z</time></trkpt><trkpt lat="41.63611549940681" lon="-0.8998315614341152"><ele>227.79999999999998</ele><time>2026-05-03T18:43:08.001Z</time></trkpt><trkpt lat="41.63619090931965" lon="-0.89973336584869"><ele>227.39999999999998</ele><time>2026-05-03T18:43:09.001Z</time></trkpt><trkpt lat="41.63625877734436" lon="-0.8996392631593241"><ele>227.0</ele><time>2026-05-03T18:43:10.001Z</time></trkpt><trkpt lat="41.636328894755955" lon="-0.8995467239620957"><ele>226.66666666666669</ele><time>2026-05-03T18:43:11.001Z</time></trkpt><trkpt lat="41.63639620007757" lon="-0.8994569612323529"><ele>226.33333333333334</ele><time>2026-05-03T18:43:12.001Z</time></trkpt><trkpt lat="41.636458273533904" lon="-0.899391045413315"><ele>226.0</ele><time>2026-05-03T18:43:13.001Z</time></trkpt><trkpt lat="41.636514291546" lon="-0.89931571660617"><ele>225.66666666666669</ele><time>2026-05-03T18:43:14.001Z</time></trkpt><trkpt lat="41.63657030135035" lon="-0.8992421703190412"><ele>225.33333333333334</ele><time>2026-05-03T18:43:15.001Z</time></trkpt><trkpt lat="41.63661884468478" lon="-0.8991722459963215"><ele>225.0</ele><time>2026-05-03T18:43:16.001Z</time></trkpt><trkpt lat="41.63667164539751" lon="-0.8991055883101176"><ele>224.83333333333334</ele><time>2026-05-03T18:43:17.001Z</time></trkpt><trkpt lat="41.63672268188067" lon="-0.8990488538703015"><ele>224.66666666666669</ele><time>2026-05-03T18:43:18.001Z</time></trkpt><trkpt lat="41.63681002894497" lon="-0.8989360676926017"><ele>224.5</ele><time>2026-05-03T18:43:20.001Z</time></trkpt><trkpt lat="41.63688083301633" lon="-0.8988549200285398"><ele>224.33333333333334</ele><time>2026-05-03T18:43:22.001Z</time></trkpt><trkpt lat="41.63693110265218" lon="-0.8988021668342746"><ele>224.16666666666669</ele><time>2026-05-03T18:43:24.001Z</time></trkpt><trkpt lat="41.63698233543578" lon="-0.8987175016015586"><ele>224.0</ele><time>2026-05-03T18:43:28.001Z</time></trkpt><trkpt lat="41.63703305718769" lon="-0.8986459610110648"><ele>224.0</ele><time>2026-05-03T18:43:31.001Z</time></trkpt><trkpt lat="41.637092056335725" lon="-0.8985729216456215"><ele>223.99999999999997</ele><time>2026-05-03T18:43:34.001Z</time></trkpt><trkpt lat="41.6371446881681" lon="-0.8984816395476557"><ele>223.99999999999997</ele><time>2026-05-03T18:43:37.001Z</time></trkpt><trkpt lat="41.63719629445569" lon="-0.8983828040056546"><ele>224.0</ele><time>2026-05-03T18:43:39.001Z</time></trkpt><trkpt lat="41.63727931037905" lon="-0.8982562967511447"><ele>224.0</ele><time>2026-05-03T18:43:41.001Z</time></trkpt><trkpt lat="41.63732665352065" lon="-0.8981899076223839"><ele>224.0</ele><time>2026-05-03T18:43:42.001Z</time></trkpt><trkpt lat="41.637375276133795" lon="-0.8981194828211727"><ele>223.99999999999997</ele><time>2026-05-03T18:43:43.001Z</time></trkpt><trkpt lat="41.6374655917121" lon="-0.8980014526715154"><ele>223.99999999999997</ele><time>2026-05-03T18:43:45.001Z</time></trkpt><trkpt lat="41.63756382470649" lon="-0.8978785279768425"><ele>224.0</ele><time>2026-05-03T18:43:47.001Z</time></trkpt><trkpt lat="41.63761162659939" lon="-0.8978151501758608"><ele>224.0</ele><time>2026-05-03T18:43:48.001Z</time></trkpt><trkpt lat="41.63767467465128" lon="-0.8977466220694478"><ele>224.00000000000003</ele><time>2026-05-03T18:43:49.001Z</time></trkpt><trkpt lat="41.637738691868954" lon="-0.8976832236128273"><ele>224.0</ele><time>2026-05-03T18:43:50.001Z</time></trkpt><trkpt lat="41.63780479967249" lon="-0.8976164511817913"><ele>224.0</ele><time>2026-05-03T18:43:51.001Z</time></trkpt><trkpt lat="41.63787183447651" lon="-0.89755391493024"><ele>224.0</ele><time>2026-05-03T18:43:52.001Z</time></trkpt><trkpt lat="41.63794094705687" lon="-0.8974949773120939"><ele>224.00000000000003</ele><time>2026-05-03T18:43:53.001Z</time></trkpt><trkpt lat="41.63800958874478" lon="-0.8974286033629659"><ele>224.0</ele><time>2026-05-03T18:43:54.001Z</time></trkpt><trkpt lat="41.6380840244082" lon="-0.8973684294181701"><ele>225.14285714285714</ele><time>2026-05-03T18:43:55.001Z</time></trkpt><trkpt lat="41.638148987274825" lon="-0.8973050896729248"><ele>226.28571428571428</ele><time>2026-05-03T18:43:56.001Z</time></trkpt><trkpt lat="41.63821759905254" lon="-0.8972510082359832"><ele>227.42857142857144</ele><time>2026-05-03T18:43:57.001Z</time></trkpt><trkpt lat="41.638277318850584" lon="-0.8971886250660634"><ele>228.57142857142858</ele><time>2026-05-03T18:43:58.001Z</time></trkpt><trkpt lat="41.63832875351745" lon="-0.8971257766581489"><ele>229.71428571428572</ele><time>2026-05-03T18:43:59.001Z</time></trkpt><trkpt lat="41.63838851017121" lon="-0.8970842420194686"><ele>230.8571428571429</ele><time>2026-05-03T18:44:00.001Z</time></trkpt><trkpt lat="41.63844923918807" lon="-0.8970540330975364"><ele>232.00000000000003</ele><time>2026-05-03T18:44:01.001Z</time></trkpt><trkpt lat="41.63854091834819" lon="-0.8969710406718805"><ele>232.0</ele><time>2026-05-03T18:44:03.001Z</time></trkpt><trkpt lat="41.63861093795626" lon="-0.8968940158580483"><ele>232.0</ele><time>2026-05-03T18:44:05.001Z</time></trkpt><trkpt lat="41.63866809865005" lon="-0.8968426217029043"><ele>232.0</ele><time>2026-05-03T18:44:07.001Z</time></trkpt><trkpt lat="41.63879226308267" lon="-0.8966857730627585"><ele>232.0</ele><time>2026-05-03T18:44:37.001Z</time></trkpt><trkpt lat="41.63890252898017" lon="-0.896601398842294"><ele>231.83333333333331</ele><time>2026-05-03T18:44:39.001Z</time></trkpt><trkpt lat="41.63896081434016" lon="-0.8965411268878954"><ele>231.66666666666666</ele><time>2026-05-03T18:44:40.001Z</time></trkpt><trkpt lat="41.6390210916594" lon="-0.8964910207841995"><ele>231.5</ele><time>2026-05-03T18:44:41.001Z</time></trkpt><trkpt lat="41.63908645941797" lon="-0.8964442344767376"><ele>231.33333333333331</ele><time>2026-05-03T18:44:42.001Z</time></trkpt><trkpt lat="41.63914490518082" lon="-0.8963836225770693"><ele>231.16666666666666</ele><time>2026-05-03T18:44:43.001Z</time></trkpt><trkpt lat="41.63921279480644" lon="-0.8963270285484678"><ele>231.0</ele><time>2026-05-03T18:44:44.001Z</time></trkpt><trkpt lat="41.639282456353286" lon="-0.8962738504664427"><ele>231.0</ele><time>2026-05-03T18:44:45.001Z</time></trkpt><trkpt lat="41.63935251911871" lon="-0.8962209291697747"><ele>231.0</ele><time>2026-05-03T18:44:46.001Z</time></trkpt><trkpt lat="41.63942000405634" lon="-0.8961525646897343"><ele>231.0</ele><time>2026-05-03T18:44:47.001Z</time></trkpt><trkpt lat="41.63948606430968" lon="-0.8960907580185278"><ele>231.0</ele><time>2026-05-03T18:44:48.001Z</time></trkpt><trkpt lat="41.639552733321295" lon="-0.8960204498948747"><ele>231.0</ele><time>2026-05-03T18:44:49.001Z</time></trkpt><trkpt lat="41.63962090446961" lon="-0.8959460283756463"><ele>231.0</ele><time>2026-05-03T18:44:50.001Z</time></trkpt><trkpt lat="41.639689414998756" lon="-0.895882887011535"><ele>230.66666666666666</ele><time>2026-05-03T18:44:51.001Z</time></trkpt><trkpt lat="41.639763694363495" lon="-0.895808431696695"><ele>230.33333333333331</ele><time>2026-05-03T18:44:52.001Z</time></trkpt><trkpt lat="41.639825956383135" lon="-0.895764682657676"><ele>230.0</ele><time>2026-05-03T18:44:53.001Z</time></trkpt><trkpt lat="41.63988889123796" lon="-0.8957120364242794"><ele>229.66666666666666</ele><time>2026-05-03T18:44:54.001Z</time></trkpt><trkpt lat="41.6399630883698" lon="-0.8956376625865319"><ele>229.33333333333331</ele><time>2026-05-03T18:44:55.001Z</time></trkpt><trkpt lat="41.640022443004646" lon="-0.8955577912745092"><ele>229.0</ele><time>2026-05-03T18:44:56.001Z</time></trkpt><trkpt lat="41.64008741665167" lon="-0.8955073548764294"><ele>228.99999999999997</ele><time>2026-05-03T18:44:57.001Z</time></trkpt><trkpt lat="41.64016473153197" lon="-0.8954479231489043"><ele>229.0</ele><time>2026-05-03T18:44:58.001Z</time></trkpt><trkpt lat="41.64022846594177" lon="-0.8953944716827028"><ele>229.0</ele><time>2026-05-03T18:44:59.001Z</time></trkpt><trkpt lat="41.64030171260236" lon="-0.8953397410362044"><ele>229.0</ele><time>2026-05-03T18:45:00.001Z</time></trkpt><trkpt lat="41.640354110712295" lon="-0.8952702367132792"><ele>228.99999999999997</ele><time>2026-05-03T18:45:01.001Z</time></trkpt><trkpt lat="41.64040944432213" lon="-0.8952116480800054"><ele>229.0</ele><time>2026-05-03T18:45:02.001Z</time></trkpt><trkpt lat="41.64046017886095" lon="-0.8951593723504301"><ele>228.0</ele><time>2026-05-03T18:45:03.001Z</time></trkpt><trkpt lat="41.640501271558314" lon="-0.8950863759710715"><ele>227.0</ele><time>2026-05-03T18:45:04.001Z</time></trkpt><trkpt lat="41.64054327053728" lon="-0.8950131010934572"><ele>226.0</ele><time>2026-05-03T18:45:05.001Z</time></trkpt><trkpt lat="41.64058992338587" lon="-0.8949446107927749"><ele>225.0</ele><time>2026-05-03T18:45:06.001Z</time></trkpt><trkpt lat="41.64064573183417" lon="-0.8948768460535114"><ele>224.0</ele><time>2026-05-03T18:45:07.001Z</time></trkpt><trkpt lat="41.64071248299494" lon="-0.8948217990209688"><ele>223.0</ele><time>2026-05-03T18:45:08.001Z</time></trkpt><trkpt lat="41.64076738758449" lon="-0.8947560062590636"><ele>222.0</ele><time>2026-05-03T18:45:09.001Z</time></trkpt><trkpt lat="41.64082687814188" lon="-0.8947020149676812"><ele>222.0</ele><time>2026-05-03T18:45:10.001Z</time></trkpt><trkpt lat="41.64088561146114" lon="-0.8946486105290474"><ele>222.0</ele><time>2026-05-03T18:45:11.001Z</time></trkpt><trkpt lat="41.640948402510354" lon="-0.8945939721846983"><ele>222.0</ele><time>2026-05-03T18:45:12.001Z</time></trkpt><trkpt lat="41.64100471932271" lon="-0.8945444594897117"><ele>222.0</ele><time>2026-05-03T18:45:13.001Z</time></trkpt><trkpt lat="41.64107170004178" lon="-0.8944926590429771"><ele>222.0</ele><time>2026-05-03T18:45:14.001Z</time></trkpt><trkpt lat="41.641132831262844" lon="-0.8944618985136141"><ele>222.0</ele><time>2026-05-03T18:45:15.001Z</time></trkpt><trkpt lat="41.64120269300811" lon="-0.8944359630037232"><ele>222.0</ele><time>2026-05-03T18:45:16.001Z</time></trkpt><trkpt lat="41.64127822426385" lon="-0.8943949804186336"><ele>223.33333333333334</ele><time>2026-05-03T18:45:17.001Z</time></trkpt><trkpt lat="41.641343784406246" lon="-0.8943377287351086"><ele>224.66666666666669</ele><time>2026-05-03T18:45:18.001Z</time></trkpt><trkpt lat="41.641409599149576" lon="-0.8942814858214961"><ele>226.0</ele><time>2026-05-03T18:45:19.001Z</time></trkpt><trkpt lat="41.641472456609094" lon="-0.8942252782058915"><ele>227.33333333333334</ele><time>2026-05-03T18:45:20.001Z</time></trkpt><trkpt lat="41.641536612350606" lon="-0.8941688643765625"><ele>228.66666666666669</ele><time>2026-05-03T18:45:21.001Z</time></trkpt><trkpt lat="41.64159902855688" lon="-0.8941068670831401"><ele>230.0</ele><time>2026-05-03T18:45:22.001Z</time></trkpt><trkpt lat="41.64165757193722" lon="-0.8940662827641094"><ele>231.0</ele><time>2026-05-03T18:45:23.001Z</time></trkpt><trkpt lat="41.64171088863789" lon="-0.8940105971925391"><ele>232.0</ele><time>2026-05-03T18:45:24.001Z</time></trkpt><trkpt lat="41.6417816371641" lon="-0.8939436863024223"><ele>233.0</ele><time>2026-05-03T18:45:25.001Z</time></trkpt><trkpt lat="41.64185979929058" lon="-0.8938598583416449"><ele>234.0</ele><time>2026-05-03T18:45:27.001Z</time></trkpt><trkpt lat="41.64191327557297" lon="-0.8938007106436212"><ele>235.0</ele><time>2026-05-03T18:45:37.001Z</time></trkpt><trkpt lat="41.641745149847544" lon="-0.8936956457500075"><ele>234.99999999999997</ele><time>2026-05-03T18:45:39.001Z</time></trkpt><trkpt lat="41.64167542764016" lon="-0.8935614036760428"><ele>235.0</ele><time>2026-05-03T18:45:41.001Z</time></trkpt><trkpt lat="41.641606203079995" lon="-0.8934273380905571"><ele>235.0</ele><time>2026-05-03T18:45:43.001Z</time></trkpt><trkpt lat="41.64156945626107" lon="-0.8933561713819641"><ele>235.0</ele><time>2026-05-03T18:45:44.001Z</time></trkpt><trkpt lat="41.641533532386525" lon="-0.893286598440009"><ele>234.99999999999997</ele><time>2026-05-03T18:45:45.001Z</time></trkpt><trkpt lat="41.641494919552315" lon="-0.8932118187173219"><ele>235.0</ele><time>2026-05-03T18:45:46.001Z</time></trkpt><trkpt lat="41.64145506707359" lon="-0.8931358377608803"><ele>234.42857142857142</ele><time>2026-05-03T18:45:47.001Z</time></trkpt><trkpt lat="41.64141376922165" lon="-0.8930608445697968"><ele>233.85714285714283</ele><time>2026-05-03T18:45:48.001Z</time></trkpt><trkpt lat="41.64137041314323" lon="-0.8929834828252949"><ele>233.28571428571428</ele><time>2026-05-03T18:45:49Z</time></trkpt><trkpt lat="41.64132849102518" lon="-0.8929061576891011"><ele>232.71428571428572</ele><time>2026-05-03T18:45:50Z</time></trkpt><trkpt lat="41.64128877538309" lon="-0.892827203181624"><ele>232.14285714285714</ele><time>2026-05-03T18:45:51Z</time></trkpt><trkpt lat="41.64125198286086" lon="-0.8927401439805914"><ele>231.57142857142856</ele><time>2026-05-03T18:45:52Z</time></trkpt><trkpt lat="41.64122424628842" lon="-0.8926479754097391"><ele>231.0</ele><time>2026-05-03T18:45:53Z</time></trkpt><trkpt lat="41.64119944602802" lon="-0.8925545625910564"><ele>231.0</ele><time>2026-05-03T18:45:54Z</time></trkpt><trkpt lat="41.64120132444626" lon="-0.8924570600622731"><ele>231.0</ele><time>2026-05-03T18:45:55Z</time></trkpt><trkpt lat="41.641184327130986" lon="-0.892360404155237"><ele>231.0</ele><time>2026-05-03T18:45:56Z</time></trkpt><trkpt lat="41.64117174857065" lon="-0.8922612871517368"><ele>231.0</ele><time>2026-05-03T18:45:57Z</time></trkpt><trkpt lat="41.64114514694182" lon="-0.892165359772248"><ele>231.0</ele><time>2026-05-03T18:45:58Z</time></trkpt><trkpt lat="41.641141041775384" lon="-0.8920626783285204"><ele>231.0</ele><time>2026-05-03T18:45:59Z</time></trkpt><trkpt lat="41.641119895247876" lon="-0.89196525802171"><ele>230.83333333333334</ele><time>2026-05-03T18:46:00Z</time></trkpt><trkpt lat="41.64110098143686" lon="-0.8918689426128923"><ele>230.66666666666669</ele><time>2026-05-03T18:46:01Z</time></trkpt><trkpt lat="41.641080384479686" lon="-0.8917692926759696"><ele>230.5</ele><time>2026-05-03T18:46:02Z</time></trkpt><trkpt lat="41.641063269972555" lon="-0.8916679576896883"><ele>230.33333333333334</ele><time>2026-05-03T18:46:03Z</time></trkpt><trkpt lat="41.641047838571325" lon="-0.8915626965956602"><ele>230.16666666666669</ele><time>2026-05-03T18:46:04Z</time></trkpt><trkpt lat="41.64103525709279" lon="-0.891459335018144"><ele>230.0</ele><time>2026-05-03T18:46:05Z</time></trkpt><trkpt lat="41.641016527821634" lon="-0.8913511721474238"><ele>230.00000000000003</ele><time>2026-05-03T18:46:06Z</time></trkpt><trkpt lat="41.64098959841256" lon="-0.8912447176144845"><ele>230.0</ele><time>2026-05-03T18:46:07Z</time></trkpt><trkpt lat="41.640970839177065" lon="-0.8911392305027961"><ele>230.0</ele><time>2026-05-03T18:46:08Z</time></trkpt><trkpt lat="41.64095015087081" lon="-0.8910294390658078"><ele>230.0</ele><time>2026-05-03T18:46:09Z</time></trkpt><trkpt lat="41.64093002868547" lon="-0.8909228572527088"><ele>230.00000000000003</ele><time>2026-05-03T18:46:10Z</time></trkpt><trkpt lat="41.640916285602316" lon="-0.8908165031782065"><ele>230.0</ele><time>2026-05-03T18:46:11Z</time></trkpt><trkpt lat="41.64090688498838" lon="-0.8907083957351017"><ele>230.00000000000003</ele><time>2026-05-03T18:46:12Z</time></trkpt><trkpt lat="41.64088776452365" lon="-0.8906001788963112"><ele>230.0</ele><time>2026-05-03T18:46:13Z</time></trkpt><trkpt lat="41.64087089128675" lon="-0.8904907476175117"><ele>230.0</ele><time>2026-05-03T18:46:14Z</time></trkpt><trkpt lat="41.64085223078871" lon="-0.8903811842673579"><ele>230.0</ele><time>2026-05-03T18:46:15Z</time></trkpt><trkpt lat="41.64083709090731" lon="-0.8902688587482485"><ele>230.00000000000003</ele><time>2026-05-03T18:46:16Z</time></trkpt><trkpt lat="41.64082311955714" lon="-0.8901510203503142"><ele>230.0</ele><time>2026-05-03T18:46:17Z</time></trkpt><trkpt lat="41.64080933071692" lon="-0.8900312622472043"><ele>229.2</ele><time>2026-05-03T18:46:18Z</time></trkpt><trkpt lat="41.64079604990944" lon="-0.889908680047601"><ele>228.4</ele><time>2026-05-03T18:46:19Z</time></trkpt><trkpt lat="41.64078225317597" lon="-0.8897851158576144"><ele>227.60000000000002</ele><time>2026-05-03T18:46:20Z</time></trkpt><trkpt lat="41.6407666637804" lon="-0.8896614320987773"><ele>226.8</ele><time>2026-05-03T18:46:21Z</time></trkpt><trkpt lat="41.640753687512195" lon="-0.8895419719100793"><ele>226.0</ele><time>2026-05-03T18:46:22Z</time></trkpt><trkpt lat="41.64073841074677" lon="-0.8894204640845234"><ele>226.0</ele><time>2026-05-03T18:46:23Z</time></trkpt><trkpt lat="41.6407194632503" lon="-0.8892959564237156"><ele>226.00000000000003</ele><time>2026-05-03T18:46:24Z</time></trkpt><trkpt lat="41.6406944683507" lon="-0.8891707759538363"><ele>226.00000000000003</ele><time>2026-05-03T18:46:25Z</time></trkpt><trkpt lat="41.64066582015177" lon="-0.8890474310587902"><ele>226.0</ele><time>2026-05-03T18:46:26Z</time></trkpt><trkpt lat="41.64063151236102" lon="-0.888932030823112"><ele>226.0</ele><time>2026-05-03T18:46:27Z</time></trkpt><trkpt lat="41.64059108822071" lon="-0.8888234873197768"><ele>226.0</ele><time>2026-05-03T18:46:28Z</time></trkpt><trkpt lat="41.64054573154915" lon="-0.8887127175326873"><ele>226.00000000000003</ele><time>2026-05-03T18:46:29Z</time></trkpt><trkpt lat="41.640495898047234" lon="-0.8886028215283749"><ele>226.00000000000003</ele><time>2026-05-03T18:46:30Z</time></trkpt><trkpt lat="41.64044943974733" lon="-0.8884931013769685"><ele>226.0</ele><time>2026-05-03T18:46:31Z</time></trkpt><trkpt lat="41.64040565344018" lon="-0.8883761779836219"><ele>226.0</ele><time>2026-05-03T18:46:32Z</time></trkpt><trkpt lat="41.64036502469808" lon="-0.8882651047287621"><ele>226.0</ele><time>2026-05-03T18:46:33Z</time></trkpt><trkpt lat="41.64032421551279" lon="-0.8881579349848839"><ele>226.00000000000003</ele><time>2026-05-03T18:46:34Z</time></trkpt><trkpt lat="41.6402836945304" lon="-0.8880315843483405"><ele>226.00000000000003</ele><time>2026-05-03T18:46:35Z</time></trkpt><trkpt lat="41.64024756963151" lon="-0.8879240190999714"><ele>226.0</ele><time>2026-05-03T18:46:36Z</time></trkpt><trkpt lat="41.64021133368583" lon="-0.8878066999816305"><ele>226.0</ele><time>2026-05-03T18:46:37Z</time></trkpt><trkpt lat="41.640169437824184" lon="-0.8876950168924677"><ele>226.8</ele><time>2026-05-03T18:46:38Z</time></trkpt><trkpt lat="41.640128836654775" lon="-0.8875858211057427"><ele>227.60000000000002</ele><time>2026-05-03T18:46:39Z</time></trkpt><trkpt lat="41.6400866948377" lon="-0.8874769978123562"><ele>228.4</ele><time>2026-05-03T18:46:40Z</time></trkpt><trkpt lat="41.640046751416286" lon="-0.8873639992937943"><ele>229.2</ele><time>2026-05-03T18:46:41Z</time></trkpt><trkpt lat="41.640006519465686" lon="-0.8872529301059914"><ele>230.0</ele><time>2026-05-03T18:46:42Z</time></trkpt><trkpt lat="41.639968362076736" lon="-0.8871441748834804"><ele>230.00000000000003</ele><time>2026-05-03T18:46:43Z</time></trkpt><trkpt lat="41.63993119860156" lon="-0.8870443867124744"><ele>230.0</ele><time>2026-05-03T18:46:44Z</time></trkpt><trkpt lat="41.63989817192504" lon="-0.8869485278911604"><ele>230.0</ele><time>2026-05-03T18:46:45Z</time></trkpt><trkpt lat="41.63986618248619" lon="-0.8868481528522735"><ele>230.0</ele><time>2026-05-03T18:46:46Z</time></trkpt><trkpt lat="41.63983630077323" lon="-0.8867481437225431"><ele>230.00000000000003</ele><time>2026-05-03T18:46:47Z</time></trkpt><trkpt lat="41.639830906505125" lon="-0.8866446299990087"><ele>230.0</ele><time>2026-05-03T18:46:48Z</time></trkpt><trkpt lat="41.63983535701969" lon="-0.8865399035489542"><ele>230.00000000000003</ele><time>2026-05-03T18:46:49Z</time></trkpt><trkpt lat="41.6398451685555" lon="-0.8864340921923741"><ele>230.0</ele><time>2026-05-03T18:46:50Z</time></trkpt><trkpt lat="41.639867326949556" lon="-0.8863310634305175"><ele>230.0</ele><time>2026-05-03T18:46:51.001Z</time></trkpt><trkpt lat="41.63989783264209" lon="-0.8862219772652086"><ele>230.0</ele><time>2026-05-03T18:46:52.001Z</time></trkpt><trkpt lat="41.63993410421497" lon="-0.8861116774881905"><ele>230.00000000000003</ele><time>2026-05-03T18:46:53.001Z</time></trkpt><trkpt lat="41.639977282612065" lon="-0.8860018885679285"><ele>230.0</ele><time>2026-05-03T18:46:54.001Z</time></trkpt><trkpt lat="41.640019467264615" lon="-0.8858896828282019"><ele>230.6</ele><time>2026-05-03T18:46:55.001Z</time></trkpt><trkpt lat="41.64006535118276" lon="-0.8857768133704078"><ele>231.2</ele><time>2026-05-03T18:46:56.001Z</time></trkpt><trkpt lat="41.640109509887694" lon="-0.8856661821459894"><ele>231.8</ele><time>2026-05-03T18:46:57.001Z</time></trkpt><trkpt lat="41.64015327598289" lon="-0.8855541422623523"><ele>232.4</ele><time>2026-05-03T18:46:58.001Z</time></trkpt><trkpt lat="41.640196086481545" lon="-0.8854467657507701"><ele>233.0</ele><time>2026-05-03T18:46:59.001Z</time></trkpt><trkpt lat="41.64023689878496" lon="-0.8853408871050273"><ele>233.00000000000003</ele><time>2026-05-03T18:47:00.001Z</time></trkpt><trkpt lat="41.64027642522824" lon="-0.8852365690226814"><ele>233.0</ele><time>2026-05-03T18:47:01.001Z</time></trkpt><trkpt lat="41.640317827670486" lon="-0.8851317773109801"><ele>233.0</ele><time>2026-05-03T18:47:02.001Z</time></trkpt><trkpt lat="41.64035811595927" lon="-0.8850294322616652"><ele>233.0</ele><time>2026-05-03T18:47:03.001Z</time></trkpt><trkpt lat="41.64039919929396" lon="-0.8849231940337449"><ele>233.00000000000003</ele><time>2026-05-03T18:47:04.001Z</time></trkpt><trkpt lat="41.64043573888752" lon="-0.8848158233034832"><ele>233.0</ele><time>2026-05-03T18:47:05.001Z</time></trkpt><trkpt lat="41.64048107715206" lon="-0.8847095063613477"><ele>232.60000000000002</ele><time>2026-05-03T18:47:06.001Z</time></trkpt><trkpt lat="41.64053276802644" lon="-0.8846107360981149"><ele>232.20000000000002</ele><time>2026-05-03T18:47:07.001Z</time></trkpt><trkpt lat="41.6405878041908" lon="-0.8845137049211829"><ele>231.8</ele><time>2026-05-03T18:47:08.001Z</time></trkpt><trkpt lat="41.640647519071" lon="-0.8844177266060379"><ele>231.4</ele><time>2026-05-03T18:47:09.001Z</time></trkpt><trkpt lat="41.64070712205856" lon="-0.8843188168965979"><ele>231.0</ele><time>2026-05-03T18:47:10.001Z</time></trkpt><trkpt lat="41.64076198807593" lon="-0.884219652501723"><ele>230.4</ele><time>2026-05-03T18:47:11.001Z</time></trkpt><trkpt lat="41.64081813815843" lon="-0.8841195343267343"><ele>229.8</ele><time>2026-05-03T18:47:12.001Z</time></trkpt><trkpt lat="41.64088289028854" lon="-0.8840310754850236"><ele>229.20000000000002</ele><time>2026-05-03T18:47:13.001Z</time></trkpt><trkpt lat="41.640940272680076" lon="-0.883934260892348"><ele>228.60000000000002</ele><time>2026-05-03T18:47:14.001Z</time></trkpt><trkpt lat="41.64099821929787" lon="-0.883834352563541"><ele>228.0</ele><time>2026-05-03T18:47:15.001Z</time></trkpt><trkpt lat="41.641058858950686" lon="-0.8837375421800454"><ele>228.0</ele><time>2026-05-03T18:47:16.001Z</time></trkpt><trkpt lat="41.64112396592951" lon="-0.8836410962717327"><ele>228.0</ele><time>2026-05-03T18:47:17.001Z</time></trkpt><trkpt lat="41.6411890659908" lon="-0.8835480113156006"><ele>228.0</ele><time>2026-05-03T18:47:18.001Z</time></trkpt><trkpt lat="41.64125746919913" lon="-0.8834585778229144"><ele>228.0</ele><time>2026-05-03T18:47:19.001Z</time></trkpt><trkpt lat="41.64132616970733" lon="-0.8833711516424926"><ele>228.0</ele><time>2026-05-03T18:47:20.001Z</time></trkpt><trkpt lat="41.64140116827278" lon="-0.8832873523775618"><ele>227.60000000000002</ele><time>2026-05-03T18:47:21.001Z</time></trkpt><trkpt lat="41.64147247678202" lon="-0.8832001549649154"><ele>227.20000000000002</ele><time>2026-05-03T18:47:22.001Z</time></trkpt><trkpt lat="41.641542377464894" lon="-0.8831114489411345"><ele>226.8</ele><time>2026-05-03T18:47:23.001Z</time></trkpt><trkpt lat="41.641616832887536" lon="-0.8830205704026365"><ele>226.4</ele><time>2026-05-03T18:47:24.001Z</time></trkpt><trkpt lat="41.64169037001955" lon="-0.882926695189204"><ele>226.0</ele><time>2026-05-03T18:47:25.001Z</time></trkpt><trkpt lat="41.641760550188366" lon="-0.8828290366265461"><ele>226.0</ele><time>2026-05-03T18:47:26.001Z</time></trkpt><trkpt lat="41.641833188122725" lon="-0.8827365312921716"><ele>226.00000000000003</ele><time>2026-05-03T18:47:27.001Z</time></trkpt><trkpt lat="41.64190261759224" lon="-0.8826415563003897"><ele>226.00000000000003</ele><time>2026-05-03T18:47:28.001Z</time></trkpt><trkpt lat="41.641976068983176" lon="-0.8825504684483787"><ele>226.0</ele><time>2026-05-03T18:47:29.001Z</time></trkpt><trkpt lat="41.64204575795151" lon="-0.8824545913775642"><ele>226.0</ele><time>2026-05-03T18:47:30.001Z</time></trkpt><trkpt lat="41.642115361625876" lon="-0.8823612733975361"><ele>224.4</ele><time>2026-05-03T18:47:31.001Z</time></trkpt><trkpt lat="41.64218186362879" lon="-0.8822707401108815"><ele>222.8</ele><time>2026-05-03T18:47:32.001Z</time></trkpt><trkpt lat="41.642249949695625" lon="-0.8821809928438963"><ele>221.20000000000002</ele><time>2026-05-03T18:47:33.001Z</time></trkpt><trkpt lat="41.64232185264212" lon="-0.8820902638565784"><ele>219.60000000000002</ele><time>2026-05-03T18:47:34.001Z</time></trkpt><trkpt lat="41.64238777877553" lon="-0.882004553171842"><ele>218.0</ele><time>2026-05-03T18:47:35.001Z</time></trkpt><trkpt lat="41.64244853086217" lon="-0.881924862783489"><ele>218.00000000000003</ele><time>2026-05-03T18:47:36.001Z</time></trkpt><trkpt lat="41.64251159440143" lon="-0.8818503335892774"><ele>218.0</ele><time>2026-05-03T18:47:37.001Z</time></trkpt><trkpt lat="41.642567412786235" lon="-0.8817813417479692"><ele>218.0</ele><time>2026-05-03T18:47:38Z</time></trkpt><trkpt lat="41.64264054556488" lon="-0.8816737532496174"><ele>218.0</ele><time>2026-05-03T18:47:40Z</time></trkpt><trkpt lat="41.642684101574964" lon="-0.8816075200100905"><ele>218.00000000000003</ele><time>2026-05-03T18:47:43Z</time></trkpt><trkpt lat="41.64274195133438" lon="-0.8815526751966808"><ele>218.0</ele><time>2026-05-03T18:48:17Z</time></trkpt><trkpt lat="41.64280149418083" lon="-0.8814420800193183"><ele>218.83333333333334</ele><time>2026-05-03T18:48:19Z</time></trkpt><trkpt lat="41.64288259099732" lon="-0.8813302490642749"><ele>219.66666666666669</ele><time>2026-05-03T18:48:21Z</time></trkpt><trkpt lat="41.642970394877516" lon="-0.8812081840155365"><ele>220.5</ele><time>2026-05-03T18:48:23Z</time></trkpt><trkpt lat="41.64301107230918" lon="-0.8811413000894845"><ele>221.33333333333331</ele><time>2026-05-03T18:48:24Z</time></trkpt><trkpt lat="41.643050689803964" lon="-0.8810755141026742"><ele>222.16666666666666</ele><time>2026-05-03T18:48:25Z</time></trkpt><trkpt lat="41.64308843976242" lon="-0.8810066988863576"><ele>223.0</ele><time>2026-05-03T18:48:26Z</time></trkpt><trkpt lat="41.64312142889531" lon="-0.8809331057377163"><ele>222.85714285714286</ele><time>2026-05-03T18:48:27Z</time></trkpt><trkpt lat="41.643160068985495" lon="-0.8808583070638455"><ele>222.71428571428572</ele><time>2026-05-03T18:48:28Z</time></trkpt><trkpt lat="41.64320451314947" lon="-0.8807753374818817"><ele>222.57142857142856</ele><time>2026-05-03T18:48:29Z</time></trkpt><trkpt lat="41.643240915550784" lon="-0.8806933664622305"><ele>222.42857142857144</ele><time>2026-05-03T18:48:30Z</time></trkpt><trkpt lat="41.6432771349437" lon="-0.8806051257600317"><ele>222.2857142857143</ele><time>2026-05-03T18:48:31Z</time></trkpt><trkpt lat="41.6433159048047" lon="-0.8805236451229017"><ele>222.14285714285714</ele><time>2026-05-03T18:48:32Z</time></trkpt><trkpt lat="41.643362455536504" lon="-0.8804473544407131"><ele>222.0</ele><time>2026-05-03T18:48:33Z</time></trkpt><trkpt lat="41.64340406985323" lon="-0.8803666465220144"><ele>222.0</ele><time>2026-05-03T18:48:34Z</time></trkpt><trkpt lat="41.643440764342536" lon="-0.8802870369306325"><ele>222.0</ele><time>2026-05-03T18:48:35Z</time></trkpt><trkpt lat="41.643477995019005" lon="-0.8802175555321005"><ele>222.0</ele><time>2026-05-03T18:48:36Z</time></trkpt><trkpt lat="41.643547761189176" lon="-0.8801006001626906"><ele>222.0</ele><time>2026-05-03T18:48:38Z</time></trkpt><trkpt lat="41.64361094434593" lon="-0.8799856151335218"><ele>222.0</ele><time>2026-05-03T18:48:40Z</time></trkpt><trkpt lat="41.64367946327116" lon="-0.8798468644090565"><ele>222.6</ele><time>2026-05-03T18:48:42Z</time></trkpt><trkpt lat="41.643726637440004" lon="-0.8796936264276046"><ele>223.2</ele><time>2026-05-03T18:48:44Z</time></trkpt><trkpt lat="41.64379797147005" lon="-0.8795552394307802"><ele>223.8</ele><time>2026-05-03T18:48:46Z</time></trkpt><trkpt lat="41.6438341902421" lon="-0.8794738028822257"><ele>224.4</ele><time>2026-05-03T18:48:47Z</time></trkpt><trkpt lat="41.64387277413222" lon="-0.8793870305063916"><ele>225.0</ele><time>2026-05-03T18:48:48Z</time></trkpt><trkpt lat="41.643914308135216" lon="-0.879308575891085"><ele>224.5714285714286</ele><time>2026-05-03T18:48:49Z</time></trkpt><trkpt lat="41.64395450676643" lon="-0.8792179639221871"><ele>224.14285714285717</ele><time>2026-05-03T18:48:50Z</time></trkpt><trkpt lat="41.64399722254493" lon="-0.879133496935302"><ele>223.71428571428572</ele><time>2026-05-03T18:48:51Z</time></trkpt><trkpt lat="41.64404136229431" lon="-0.8790486508079084"><ele>223.2857142857143</ele><time>2026-05-03T18:48:52Z</time></trkpt><trkpt lat="41.644083411610495" lon="-0.8789739039996618"><ele>222.8571428571429</ele><time>2026-05-03T18:48:53Z</time></trkpt><trkpt lat="41.64411358591583" lon="-0.8788906786722501"><ele>222.42857142857142</ele><time>2026-05-03T18:48:54Z</time></trkpt><trkpt lat="41.64414954896558" lon="-0.8788041057196767"><ele>222.0</ele><time>2026-05-03T18:48:55Z</time></trkpt><trkpt lat="41.644188998725895" lon="-0.8787160790271611"><ele>222.0</ele><time>2026-05-03T18:48:56Z</time></trkpt><trkpt lat="41.64422949024501" lon="-0.8786335108122996"><ele>222.0</ele><time>2026-05-03T18:48:57Z</time></trkpt><trkpt lat="41.644269935617864" lon="-0.8785538747372464"><ele>222.0</ele><time>2026-05-03T18:48:58Z</time></trkpt><trkpt lat="41.644306910789695" lon="-0.8784754658297036"><ele>222.0</ele><time>2026-05-03T18:48:59Z</time></trkpt><trkpt lat="41.64434696155568" lon="-0.8783967848422323"><ele>222.0</ele><time>2026-05-03T18:49:00Z</time></trkpt><trkpt lat="41.64438316382887" lon="-0.8783126719955154"><ele>222.0</ele><time>2026-05-03T18:49:01Z</time></trkpt><trkpt lat="41.64442268380901" lon="-0.8782238354582943"><ele>222.0</ele><time>2026-05-03T18:49:02Z</time></trkpt><trkpt lat="41.64447185937627" lon="-0.8781391161137548"><ele>222.5</ele><time>2026-05-03T18:49:03Z</time></trkpt><trkpt lat="41.6445099910811" lon="-0.8780421300141144"><ele>223.0</ele><time>2026-05-03T18:49:04Z</time></trkpt><trkpt lat="41.64455679382197" lon="-0.8779567578375541"><ele>223.5</ele><time>2026-05-03T18:49:05Z</time></trkpt><trkpt lat="41.644594902399156" lon="-0.8778671178298342"><ele>224.0</ele><time>2026-05-03T18:49:06Z</time></trkpt><trkpt lat="41.64464552101707" lon="-0.877792215641209"><ele>224.5</ele><time>2026-05-03T18:49:07Z</time></trkpt><trkpt lat="41.644684093034634" lon="-0.8777135018806386"><ele>225.0</ele><time>2026-05-03T18:49:08Z</time></trkpt><trkpt lat="41.644720104385776" lon="-0.8776400139583013"><ele>223.4</ele><time>2026-05-03T18:49:09Z</time></trkpt><trkpt lat="41.644667557018806" lon="-0.8774999481035994"><ele>221.8</ele><time>2026-05-03T18:49:10Z</time></trkpt><trkpt lat="41.64469966202331" lon="-0.8773463676373651"><ele>220.2</ele><time>2026-05-03T18:49:12Z</time></trkpt><trkpt lat="41.644769196242706" lon="-0.877256990790258"><ele>218.6</ele><time>2026-05-03T18:49:14Z</time></trkpt><trkpt lat="41.64484269411136" lon="-0.8772253247604826"><ele>217.0</ele><time>2026-05-03T18:49:16Z</time></trkpt><trkpt lat="41.64490003858221" lon="-0.8772814538948372"><ele>216.99999999999997</ele><time>2026-05-03T18:49:47Z</time></trkpt><trkpt lat="41.64495895971762" lon="-0.8773864313860821"><ele>217.0</ele><time>2026-05-03T18:49:49Z</time></trkpt><trkpt lat="41.64501232640301" lon="-0.8774444670744154"><ele>217.0</ele><time>2026-05-03T18:49:50Z</time></trkpt><trkpt lat="41.645055696963595" lon="-0.8775089517517919"><ele>217.0</ele><time>2026-05-03T18:49:51Z</time></trkpt><trkpt lat="41.6451531383248" lon="-0.8775195440417592"><ele>216.99999999999997</ele><time>2026-05-03T18:49:52Z</time></trkpt><trkpt lat="41.64521422256364" lon="-0.8775824395569107"><ele>217.0</ele><time>2026-05-03T18:49:53Z</time></trkpt><trkpt lat="41.645279731391895" lon="-0.8776442834904248"><ele>217.75</ele><time>2026-05-03T18:49:54Z</time></trkpt><trkpt lat="41.64534804169491" lon="-0.8777100887620917"><ele>218.5</ele><time>2026-05-03T18:49:55Z</time></trkpt><trkpt lat="41.64541671763581" lon="-0.8777797096838444"><ele>219.25</ele><time>2026-05-03T18:49:56Z</time></trkpt><trkpt lat="41.64548529966967" lon="-0.8778468277029118"><ele>220.0</ele><time>2026-05-03T18:49:57Z</time></trkpt><trkpt lat="41.64577092994953" lon="-0.8781018019842913"><ele>220.0</ele><time>2026-05-03T18:50:01Z</time></trkpt><trkpt lat="41.645846387721896" lon="-0.8781654222563018"><ele>220.0</ele><time>2026-05-03T18:50:02Z</time></trkpt><trkpt lat="41.645924250965976" lon="-0.8782299173849107"><ele>220.0</ele><time>2026-05-03T18:50:03Z</time></trkpt><trkpt lat="41.64608230947357" lon="-0.8783601924015813"><ele>220.0</ele><time>2026-05-03T18:50:05Z</time></trkpt><trkpt lat="41.64616011324506" lon="-0.878426776825445"><ele>219.5</ele><time>2026-05-03T18:50:06Z</time></trkpt><trkpt lat="41.64631653354168" lon="-0.8785625508409791"><ele>219.0</ele><time>2026-05-03T18:50:08Z</time></trkpt><trkpt lat="41.646372674690845" lon="-0.8786788378916877"><ele>218.5</ele><time>2026-05-03T18:50:09Z</time></trkpt><trkpt lat="41.646448281034885" lon="-0.8787388011446975"><ele>218.0</ele><time>2026-05-03T18:50:10Z</time></trkpt><trkpt lat="41.64651995247398" lon="-0.8787956434313635"><ele>218.00000000000003</ele><time>2026-05-03T18:50:11Z</time></trkpt><trkpt lat="41.64658631313211" lon="-0.8788534932937131"><ele>218.0</ele><time>2026-05-03T18:50:12Z</time></trkpt><trkpt lat="41.64666703537278" lon="-0.87887086829673"><ele>218.0</ele><time>2026-05-03T18:50:13Z</time></trkpt><trkpt lat="41.64673086543725" lon="-0.8789172579189036"><ele>218.0</ele><time>2026-05-03T18:50:14Z</time></trkpt><trkpt lat="41.646793966913" lon="-0.8789459248613145"><ele>218.00000000000003</ele><time>2026-05-03T18:50:15Z</time></trkpt><trkpt lat="41.64689019068098" lon="-0.8789561149552653"><ele>218.0</ele><time>2026-05-03T18:50:17Z</time></trkpt><trkpt lat="41.646964684569376" lon="-0.8789542476723368"><ele>217.33333333333334</ele><time>2026-05-03T18:51:15Z</time></trkpt><trkpt lat="41.64702314354922" lon="-0.8789116106889375"><ele>216.66666666666669</ele><time>2026-05-03T18:51:17Z</time></trkpt><trkpt lat="41.64710565396113" lon="-0.8788171226524965"><ele>216.0</ele><time>2026-05-03T18:51:19Z</time></trkpt><trkpt lat="41.64714130782509" lon="-0.8787407513368056"><ele>215.33333333333331</ele><time>2026-05-03T18:51:20Z</time></trkpt><trkpt lat="41.64717128434811" lon="-0.87865733861553"><ele>214.66666666666666</ele><time>2026-05-03T18:51:21Z</time></trkpt><trkpt lat="41.64720352292015" lon="-0.8785702777436778"><ele>214.0</ele><time>2026-05-03T18:51:22Z</time></trkpt><trkpt lat="41.647235511423574" lon="-0.8784795555594551"><ele>213.33333333333331</ele><time>2026-05-03T18:51:23Z</time></trkpt><trkpt lat="41.6472706100696" lon="-0.878386796219953"><ele>212.66666666666666</ele><time>2026-05-03T18:51:24Z</time></trkpt><trkpt lat="41.64731054725091" lon="-0.8782963899557013"><ele>212.0</ele><time>2026-05-03T18:51:25.001Z</time></trkpt><trkpt lat="41.64734606105116" lon="-0.8782050886131717"><ele>211.33333333333331</ele><time>2026-05-03T18:51:26.001Z</time></trkpt><trkpt lat="41.647373355370206" lon="-0.8781129442894737"><ele>210.66666666666666</ele><time>2026-05-03T18:51:27.001Z</time></trkpt><trkpt lat="41.647403505574104" lon="-0.8780347198954506"><ele>210.0</ele><time>2026-05-03T18:51:28.001Z</time></trkpt><trkpt lat="41.647437603835044" lon="-0.8779183169550066"><ele>210.0</ele><time>2026-05-03T18:51:30.001Z</time></trkpt><trkpt lat="41.647491078758144" lon="-0.8778410786332512"><ele>210.0</ele><time>2026-05-03T18:51:33.001Z</time></trkpt><trkpt lat="41.64755694446746" lon="-0.8777889864889402"><ele>210.0</ele><time>2026-05-03T18:51:59Z</time></trkpt><trkpt lat="41.64762979046337" lon="-0.8777081892215451"><ele>210.0</ele><time>2026-05-03T18:52:01Z</time></trkpt><trkpt lat="41.64773836142077" lon="-0.8776197049876854"><ele>210.0</ele><time>2026-05-03T18:52:03Z</time></trkpt><trkpt lat="41.647799466488514" lon="-0.8775766377992849"><ele>210.0</ele><time>2026-05-03T18:52:04Z</time></trkpt><trkpt lat="41.647864052960905" lon="-0.8775328026711372"><ele>210.33333333333334</ele><time>2026-05-03T18:52:05Z</time></trkpt><trkpt lat="41.64792900324167" lon="-0.8774875632084015"><ele>210.66666666666669</ele><time>2026-05-03T18:52:06Z</time></trkpt><trkpt lat="41.6479989332326" lon="-0.8774452516952749"><ele>211.0</ele><time>2026-05-03T18:52:07Z</time></trkpt><trkpt lat="41.64806905757317" lon="-0.8774016678843158"><ele>211.33333333333334</ele><time>2026-05-03T18:52:08Z</time></trkpt><trkpt lat="41.64814453299956" lon="-0.8773569495881708"><ele>211.66666666666669</ele><time>2026-05-03T18:52:09Z</time></trkpt><trkpt lat="41.648218099187275" lon="-0.877309888465962"><ele>212.0</ele><time>2026-05-03T18:52:10Z</time></trkpt><trkpt lat="41.648292169589475" lon="-0.8772604199237556"><ele>212.00000000000003</ele><time>2026-05-03T18:52:11Z</time></trkpt><trkpt lat="41.64836703038401" lon="-0.8772155709699365"><ele>212.0</ele><time>2026-05-03T18:52:12Z</time></trkpt><trkpt lat="41.64844199416577" lon="-0.8771671690712849"><ele>212.0</ele><time>2026-05-03T18:52:13Z</time></trkpt><trkpt lat="41.64851611505857" lon="-0.8771142457653421"><ele>212.0</ele><time>2026-05-03T18:52:14Z</time></trkpt><trkpt lat="41.64859034648297" lon="-0.877056381731241"><ele>212.00000000000003</ele><time>2026-05-03T18:52:15Z</time></trkpt><trkpt lat="41.648658156518515" lon="-0.8769973569752477"><ele>212.0</ele><time>2026-05-03T18:52:16Z</time></trkpt><trkpt lat="41.64872981505286" lon="-0.8769379425840099"><ele>212.00000000000003</ele><time>2026-05-03T18:52:17Z</time></trkpt><trkpt lat="41.64880347647999" lon="-0.8768728312345712"><ele>212.0</ele><time>2026-05-03T18:52:18Z</time></trkpt><trkpt lat="41.64887545782448" lon="-0.8768049504661123"><ele>212.0</ele><time>2026-05-03T18:52:19Z</time></trkpt><trkpt lat="41.648942477220636" lon="-0.8767343973661355"><ele>212.0</ele><time>2026-05-03T18:52:20Z</time></trkpt><trkpt lat="41.64899870694567" lon="-0.8766605550099811"><ele>212.00000000000003</ele><time>2026-05-03T18:52:21Z</time></trkpt><trkpt lat="41.64904768528783" lon="-0.8765833930063518"><ele>212.0</ele><time>2026-05-03T18:52:22Z</time></trkpt><trkpt lat="41.64908274956805" lon="-0.8765004719274428"><ele>211.66666666666669</ele><time>2026-05-03T18:52:23Z</time></trkpt><trkpt lat="41.649108090188626" lon="-0.8764159897397853"><ele>211.33333333333334</ele><time>2026-05-03T18:52:24Z</time></trkpt><trkpt lat="41.64913267820878" lon="-0.8762778393186214"><ele>211.0</ele><time>2026-05-03T18:52:26Z</time></trkpt><trkpt lat="41.64913059853196" lon="-0.8761771375385506"><ele>210.66666666666669</ele><time>2026-05-03T18:52:29Z</time></trkpt><trkpt lat="41.649140778731244" lon="-0.8760579096551065"><ele>210.33333333333334</ele><time>2026-05-03T18:52:40Z</time></trkpt><trkpt lat="41.64911958790599" lon="-0.8759253803091038"><ele>210.0</ele><time>2026-05-03T18:52:42Z</time></trkpt><trkpt lat="41.64911955673577" lon="-0.8757818152106941"><ele>209.4</ele><time>2026-05-03T18:52:44Z</time></trkpt><trkpt lat="41.64911622896727" lon="-0.8756327646683597"><ele>208.8</ele><time>2026-05-03T18:52:46Z</time></trkpt><trkpt lat="41.649113788095015" lon="-0.8754814592659222"><ele>208.2</ele><time>2026-05-03T18:52:48Z</time></trkpt><trkpt lat="41.64911379867495" lon="-0.8753367878190872"><ele>207.6</ele><time>2026-05-03T18:52:50Z</time></trkpt><trkpt lat="41.64911250100192" lon="-0.8752134921427788"><ele>207.0</ele><time>2026-05-03T18:52:52Z</time></trkpt><trkpt lat="41.64913776628876" lon="-0.8751283088167501"><ele>207.0</ele><time>2026-05-03T18:52:59Z</time></trkpt><trkpt lat="41.649147991238145" lon="-0.8750284027786887"><ele>207.0</ele><time>2026-05-03T18:53:21Z</time></trkpt><trkpt lat="41.649138169763084" lon="-0.8751407558038293"><ele>207.0</ele><time>2026-05-03T18:53:35Z</time></trkpt><trkpt lat="41.64913922707633" lon="-0.8752669074602673"><ele>207.0</ele><time>2026-05-03T18:53:38Z</time></trkpt><trkpt lat="41.64913888241891" lon="-0.8753630668406461"><ele>207.0</ele><time>2026-05-03T18:53:40Z</time></trkpt><trkpt lat="41.649138479356246" lon="-0.8754755209308168"><ele>207.0</ele><time>2026-05-03T18:53:42Z</time></trkpt><trkpt lat="41.64914020618197" lon="-0.8756057935342884"><ele>207.0</ele><time>2026-05-03T18:53:44Z</time></trkpt><trkpt lat="41.649141755632165" lon="-0.8757387338894068"><ele>207.0</ele><time>2026-05-03T18:53:46Z</time></trkpt><trkpt lat="41.64914323995355" lon="-0.8758660862807576"><ele>207.0</ele><time>2026-05-03T18:53:48Z</time></trkpt><trkpt lat="41.649144289035554" lon="-0.8759560958571752"><ele>207.0</ele><time>2026-05-03T18:53:50Z</time></trkpt><trkpt lat="41.64902538954267" lon="-0.8759379744048624"><ele>207.0</ele><time>2026-05-03T18:53:55.001Z</time></trkpt><trkpt lat="41.648937657815466" lon="-0.8758829884207289"><ele>207.0</ele><time>2026-05-03T18:53:57Z</time></trkpt><trkpt lat="41.64887410922011" lon="-0.8758469435470261"><ele>207.0</ele><time>2026-05-03T18:54:00Z</time></trkpt><trkpt lat="41.648830834747514" lon="-0.8757707618705235"><ele>207.0</ele><time>2026-05-03T18:54:33Z</time></trkpt><trkpt lat="41.648751135414884" lon="-0.8757371383252069"><ele>207.0</ele><time>2026-05-03T18:54:35Z</time></trkpt><trkpt lat="41.64867188967202" lon="-0.8756791491748873"><ele>207.0</ele><time>2026-05-03T18:54:37Z</time></trkpt><trkpt lat="41.64860000066453" lon="-0.8756779028712106"><ele>207.0</ele><time>2026-05-03T18:54:39Z</time></trkpt><trkpt lat="41.648482720686935" lon="-0.8758735204611054"><ele>207.39999999999998</ele><time>2026-05-03T18:55:04Z</time></trkpt><trkpt lat="41.648402277408664" lon="-0.8759740502154801"><ele>207.79999999999998</ele><time>2026-05-03T18:55:06Z</time></trkpt><trkpt lat="41.64835257628852" lon="-0.8760286715148671"><ele>208.2</ele><time>2026-05-03T18:55:07Z</time></trkpt><trkpt lat="41.64825117613203" lon="-0.87612844570218"><ele>208.6</ele><time>2026-05-03T18:55:09Z</time></trkpt><trkpt lat="41.648166512239314" lon="-0.8762384247419286"><ele>209.0</ele><time>2026-05-03T18:55:11Z</time></trkpt><trkpt lat="41.64809613436527" lon="-0.8763254617318743"><ele>209.0</ele><time>2026-05-03T18:55:13Z</time></trkpt><trkpt lat="41.64803973515363" lon="-0.8763859976644642"><ele>209.0</ele><time>2026-05-03T18:55:15Z</time></trkpt><trkpt lat="41.647971190263796" lon="-0.8764364560863073"><ele>209.0</ele><time>2026-05-03T18:55:18Z</time></trkpt><trkpt lat="41.64790055690025" lon="-0.876493495179777"><ele>209.0</ele><time>2026-05-03T18:55:21Z</time></trkpt><trkpt lat="41.64784644542475" lon="-0.876545875499228"><ele>209.0</ele><time>2026-05-03T18:55:25Z</time></trkpt><trkpt lat="41.6477842868307" lon="-0.8765889093418759"><ele>210.0</ele><time>2026-05-03T18:55:32Z</time></trkpt></trkseg></trk></gpx>